<?xml version="1.0" encoding="UTF-8"?>
<gpx version="1.1" creator="https://www.youtrack.es" xsi:schemaLocation="http://www.topografix.com/GPX/1/1 http://www.topografix.com/GPX/1/1/gpx.xsd http://www.garmin.com/xmlschemas/GpxExtensions/v3 http://www.garmin.com/xmlschemas/GpxExtensionsv3.xsd http://www.garmin.com/xmlschemas/TrackPointExtension/v1 http://www.garmin.com/xmlschemas/TrackPointExtensionv1.xsd" xmlns:gpxtpx="http://www.garmin.com/xmlschemas/TrackPointExtension/v1" xmlns:gpxx="http://www.garmin.com/xmlschemas/GpxExtensions/v3" xmlns:xsi="http://www.w3.org/2001/XMLSchema-instance">
  <metadata>
    <link href="https://www.youtrack.es">
      <text>YouTrack.es</text>
    </link>
    <time>2026-05-09T06:40:32Z</time>
  </metadata>
  <trk>
    <src>https://www.youtrack.es</src>
    <link href="https://www.youtrack.es/ruta/22418-se-nos-calienta-el-morro">
      <text>YouTrack.es</text>
    </link>
    <trkseg>
      <trkpt lat="43.28898" lon="-2.6894">
        <ele>20.6</ele>
        <time>2021-05-29 15:52:15</time>
      </trkpt>
      <trkpt lat="43.28899" lon="-2.68939">
        <ele>20.6</ele>
        <time>2021-05-29 15:52:16</time>
      </trkpt>
      <trkpt lat="43.289" lon="-2.68939">
        <ele>20.4</ele>
        <time>2021-05-29 15:52:17</time>
      </trkpt>
      <trkpt lat="43.28901" lon="-2.68939">
        <ele>20.2</ele>
        <time>2021-05-29 15:52:18</time>
      </trkpt>
      <trkpt lat="43.28903" lon="-2.68942">
        <ele>20.2</ele>
        <time>2021-05-29 15:52:20</time>
      </trkpt>
      <trkpt lat="43.28911" lon="-2.68948">
        <ele>20.8</ele>
        <time>2021-05-29 15:52:25</time>
      </trkpt>
      <trkpt lat="43.28912" lon="-2.68943">
        <ele>20.6</ele>
        <time>2021-05-29 15:52:27</time>
      </trkpt>
      <trkpt lat="43.28912" lon="-2.6894">
        <ele>20.6</ele>
        <time>2021-05-29 15:52:28</time>
      </trkpt>
      <trkpt lat="43.2891" lon="-2.68936">
        <ele>20.6</ele>
        <time>2021-05-29 15:52:29</time>
      </trkpt>
      <trkpt lat="43.28909" lon="-2.68933">
        <ele>20.2</ele>
        <time>2021-05-29 15:52:30</time>
      </trkpt>
      <trkpt lat="43.28907" lon="-2.6893">
        <ele>19.4</ele>
        <time>2021-05-29 15:52:31</time>
      </trkpt>
      <trkpt lat="43.28905" lon="-2.68926">
        <ele>19.8</ele>
        <time>2021-05-29 15:52:32</time>
      </trkpt>
      <trkpt lat="43.28903" lon="-2.68924">
        <ele>20.2</ele>
        <time>2021-05-29 15:52:33</time>
      </trkpt>
      <trkpt lat="43.28901" lon="-2.68922">
        <ele>20.2</ele>
        <time>2021-05-29 15:52:34</time>
      </trkpt>
      <trkpt lat="43.28899" lon="-2.6892">
        <ele>20.4</ele>
        <time>2021-05-29 15:52:35</time>
      </trkpt>
      <trkpt lat="43.28897" lon="-2.68919">
        <ele>20.4</ele>
        <time>2021-05-29 15:52:36</time>
      </trkpt>
      <trkpt lat="43.28894" lon="-2.68919">
        <ele>20.4</ele>
        <time>2021-05-29 15:52:37</time>
      </trkpt>
      <trkpt lat="43.28891" lon="-2.68919">
        <ele>20.6</ele>
        <time>2021-05-29 15:52:38</time>
      </trkpt>
      <trkpt lat="43.28888" lon="-2.6892">
        <ele>20.6</ele>
        <time>2021-05-29 15:52:39</time>
      </trkpt>
      <trkpt lat="43.28884" lon="-2.68921">
        <ele>20.6</ele>
        <time>2021-05-29 15:52:40</time>
      </trkpt>
      <trkpt lat="43.2888" lon="-2.68922">
        <ele>20.8</ele>
        <time>2021-05-29 15:52:41</time>
      </trkpt>
      <trkpt lat="43.28875" lon="-2.68923">
        <ele>20.8</ele>
        <time>2021-05-29 15:52:42</time>
      </trkpt>
      <trkpt lat="43.2887" lon="-2.68924">
        <ele>20.8</ele>
        <time>2021-05-29 15:52:43</time>
      </trkpt>
      <trkpt lat="43.28865" lon="-2.68925">
        <ele>21</ele>
        <time>2021-05-29 15:52:44</time>
      </trkpt>
      <trkpt lat="43.28859" lon="-2.68926">
        <ele>21</ele>
        <time>2021-05-29 15:52:45</time>
      </trkpt>
      <trkpt lat="43.28853" lon="-2.68927">
        <ele>21</ele>
        <time>2021-05-29 15:52:46</time>
      </trkpt>
      <trkpt lat="43.28847" lon="-2.68927">
        <ele>21</ele>
        <time>2021-05-29 15:52:47</time>
      </trkpt>
      <trkpt lat="43.28841" lon="-2.68928">
        <ele>21.2</ele>
        <time>2021-05-29 15:52:48</time>
      </trkpt>
      <trkpt lat="43.28834" lon="-2.68929">
        <ele>21.2</ele>
        <time>2021-05-29 15:52:49</time>
      </trkpt>
      <trkpt lat="43.28828" lon="-2.6893">
        <ele>21.2</ele>
        <time>2021-05-29 15:52:50</time>
      </trkpt>
      <trkpt lat="43.28822" lon="-2.68931">
        <ele>21.2</ele>
        <time>2021-05-29 15:52:51</time>
      </trkpt>
      <trkpt lat="43.28815" lon="-2.68933">
        <ele>21.2</ele>
        <time>2021-05-29 15:52:52</time>
      </trkpt>
      <trkpt lat="43.28808" lon="-2.68934">
        <ele>21.2</ele>
        <time>2021-05-29 15:52:53</time>
      </trkpt>
      <trkpt lat="43.28801" lon="-2.68935">
        <ele>21.2</ele>
        <time>2021-05-29 15:52:54</time>
      </trkpt>
      <trkpt lat="43.28795" lon="-2.68937">
        <ele>21.4</ele>
        <time>2021-05-29 15:52:55</time>
      </trkpt>
      <trkpt lat="43.28788" lon="-2.68938">
        <ele>21.4</ele>
        <time>2021-05-29 15:52:56</time>
      </trkpt>
      <trkpt lat="43.28781" lon="-2.68939">
        <ele>21.4</ele>
        <time>2021-05-29 15:52:57</time>
      </trkpt>
      <trkpt lat="43.28773" lon="-2.6894">
        <ele>21.4</ele>
        <time>2021-05-29 15:52:58</time>
      </trkpt>
      <trkpt lat="43.28767" lon="-2.68942">
        <ele>21.4</ele>
        <time>2021-05-29 15:52:59</time>
      </trkpt>
      <trkpt lat="43.2876" lon="-2.68943">
        <ele>21.4</ele>
        <time>2021-05-29 15:53:00</time>
      </trkpt>
      <trkpt lat="43.28753" lon="-2.68945">
        <ele>21.4</ele>
        <time>2021-05-29 15:53:01</time>
      </trkpt>
      <trkpt lat="43.28746" lon="-2.68948">
        <ele>21.4</ele>
        <time>2021-05-29 15:53:02</time>
      </trkpt>
      <trkpt lat="43.28739" lon="-2.6895">
        <ele>21.4</ele>
        <time>2021-05-29 15:53:03</time>
      </trkpt>
      <trkpt lat="43.28732" lon="-2.68953">
        <ele>21.4</ele>
        <time>2021-05-29 15:53:04</time>
      </trkpt>
      <trkpt lat="43.28724" lon="-2.68955">
        <ele>21.6</ele>
        <time>2021-05-29 15:53:05</time>
      </trkpt>
      <trkpt lat="43.28717" lon="-2.68958">
        <ele>21.6</ele>
        <time>2021-05-29 15:53:06</time>
      </trkpt>
      <trkpt lat="43.2871" lon="-2.6896">
        <ele>21.6</ele>
        <time>2021-05-29 15:53:07</time>
      </trkpt>
      <trkpt lat="43.28703" lon="-2.68962">
        <ele>21.6</ele>
        <time>2021-05-29 15:53:08</time>
      </trkpt>
      <trkpt lat="43.28696" lon="-2.68963">
        <ele>21.8</ele>
        <time>2021-05-29 15:53:09</time>
      </trkpt>
      <trkpt lat="43.28688" lon="-2.68965">
        <ele>21.8</ele>
        <time>2021-05-29 15:53:10</time>
      </trkpt>
      <trkpt lat="43.28681" lon="-2.68966">
        <ele>21.8</ele>
        <time>2021-05-29 15:53:11</time>
      </trkpt>
      <trkpt lat="43.28674" lon="-2.68967">
        <ele>21.8</ele>
        <time>2021-05-29 15:53:12</time>
      </trkpt>
      <trkpt lat="43.28666" lon="-2.68968">
        <ele>22</ele>
        <time>2021-05-29 15:53:13</time>
      </trkpt>
      <trkpt lat="43.28659" lon="-2.68968">
        <ele>22</ele>
        <time>2021-05-29 15:53:14</time>
      </trkpt>
      <trkpt lat="43.28652" lon="-2.68969">
        <ele>22.2</ele>
        <time>2021-05-29 15:53:15</time>
      </trkpt>
      <trkpt lat="43.28645" lon="-2.68969">
        <ele>22.2</ele>
        <time>2021-05-29 15:53:16</time>
      </trkpt>
      <trkpt lat="43.28638" lon="-2.6897">
        <ele>22.2</ele>
        <time>2021-05-29 15:53:17</time>
      </trkpt>
      <trkpt lat="43.28632" lon="-2.68971">
        <ele>22.2</ele>
        <time>2021-05-29 15:53:18</time>
      </trkpt>
      <trkpt lat="43.28626" lon="-2.68971">
        <ele>22.4</ele>
        <time>2021-05-29 15:53:19</time>
      </trkpt>
      <trkpt lat="43.2862" lon="-2.68973">
        <ele>22.4</ele>
        <time>2021-05-29 15:53:20</time>
      </trkpt>
      <trkpt lat="43.28614" lon="-2.68974">
        <ele>22.4</ele>
        <time>2021-05-29 15:53:21</time>
      </trkpt>
      <trkpt lat="43.28608" lon="-2.68974">
        <ele>22.8</ele>
        <time>2021-05-29 15:53:22</time>
      </trkpt>
      <trkpt lat="43.28603" lon="-2.68975">
        <ele>23</ele>
        <time>2021-05-29 15:53:23</time>
      </trkpt>
      <trkpt lat="43.28598" lon="-2.68976">
        <ele>23.2</ele>
        <time>2021-05-29 15:53:24</time>
      </trkpt>
      <trkpt lat="43.28593" lon="-2.68976">
        <ele>23.4</ele>
        <time>2021-05-29 15:53:25</time>
      </trkpt>
      <trkpt lat="43.28588" lon="-2.68977">
        <ele>23.8</ele>
        <time>2021-05-29 15:53:26</time>
      </trkpt>
      <trkpt lat="43.28583" lon="-2.68978">
        <ele>24.2</ele>
        <time>2021-05-29 15:53:27</time>
      </trkpt>
      <trkpt lat="43.28578" lon="-2.68979">
        <ele>24.8</ele>
        <time>2021-05-29 15:53:28</time>
      </trkpt>
      <trkpt lat="43.28573" lon="-2.6898">
        <ele>25.4</ele>
        <time>2021-05-29 15:53:29</time>
      </trkpt>
      <trkpt lat="43.28568" lon="-2.6898">
        <ele>25.8</ele>
        <time>2021-05-29 15:53:30</time>
      </trkpt>
      <trkpt lat="43.28564" lon="-2.68981">
        <ele>26.4</ele>
        <time>2021-05-29 15:53:31</time>
      </trkpt>
      <trkpt lat="43.28558" lon="-2.68981">
        <ele>26.6</ele>
        <time>2021-05-29 15:53:32</time>
      </trkpt>
      <trkpt lat="43.28553" lon="-2.68982">
        <ele>27</ele>
        <time>2021-05-29 15:53:33</time>
      </trkpt>
      <trkpt lat="43.28548" lon="-2.68982">
        <ele>27.2</ele>
        <time>2021-05-29 15:53:34</time>
      </trkpt>
      <trkpt lat="43.28542" lon="-2.68982">
        <ele>27.6</ele>
        <time>2021-05-29 15:53:35</time>
      </trkpt>
      <trkpt lat="43.28536" lon="-2.68981">
        <ele>27.8</ele>
        <time>2021-05-29 15:53:36</time>
      </trkpt>
      <trkpt lat="43.28531" lon="-2.6898">
        <ele>28</ele>
        <time>2021-05-29 15:53:37</time>
      </trkpt>
      <trkpt lat="43.28525" lon="-2.6898">
        <ele>28.2</ele>
        <time>2021-05-29 15:53:38</time>
      </trkpt>
      <trkpt lat="43.2852" lon="-2.68979">
        <ele>28.4</ele>
        <time>2021-05-29 15:53:39</time>
      </trkpt>
      <trkpt lat="43.28514" lon="-2.68978">
        <ele>28.6</ele>
        <time>2021-05-29 15:53:40</time>
      </trkpt>
      <trkpt lat="43.28509" lon="-2.68976">
        <ele>28.8</ele>
        <time>2021-05-29 15:53:41</time>
      </trkpt>
      <trkpt lat="43.28503" lon="-2.68973">
        <ele>29</ele>
        <time>2021-05-29 15:53:42</time>
      </trkpt>
      <trkpt lat="43.28496" lon="-2.6897">
        <ele>29.2</ele>
        <time>2021-05-29 15:53:43</time>
      </trkpt>
      <trkpt lat="43.2849" lon="-2.68966">
        <ele>29.2</ele>
        <time>2021-05-29 15:53:44</time>
      </trkpt>
      <trkpt lat="43.28484" lon="-2.68963">
        <ele>29.2</ele>
        <time>2021-05-29 15:53:45</time>
      </trkpt>
      <trkpt lat="43.28478" lon="-2.68959">
        <ele>29.2</ele>
        <time>2021-05-29 15:53:46</time>
      </trkpt>
      <trkpt lat="43.28471" lon="-2.68955">
        <ele>29.4</ele>
        <time>2021-05-29 15:53:47</time>
      </trkpt>
      <trkpt lat="43.28463" lon="-2.68951">
        <ele>29.4</ele>
        <time>2021-05-29 15:53:48</time>
      </trkpt>
      <trkpt lat="43.28456" lon="-2.68946">
        <ele>29.4</ele>
        <time>2021-05-29 15:53:49</time>
      </trkpt>
      <trkpt lat="43.28448" lon="-2.68942">
        <ele>29.4</ele>
        <time>2021-05-29 15:53:50</time>
      </trkpt>
      <trkpt lat="43.2844" lon="-2.68937">
        <ele>29.4</ele>
        <time>2021-05-29 15:53:51</time>
      </trkpt>
      <trkpt lat="43.28431" lon="-2.68932">
        <ele>29.2</ele>
        <time>2021-05-29 15:53:52</time>
      </trkpt>
      <trkpt lat="43.28422" lon="-2.68926">
        <ele>29.2</ele>
        <time>2021-05-29 15:53:53</time>
      </trkpt>
      <trkpt lat="43.28413" lon="-2.6892">
        <ele>29</ele>
        <time>2021-05-29 15:53:54</time>
      </trkpt>
      <trkpt lat="43.28404" lon="-2.68913">
        <ele>28.8</ele>
        <time>2021-05-29 15:53:55</time>
      </trkpt>
      <trkpt lat="43.28395" lon="-2.68905">
        <ele>28.6</ele>
        <time>2021-05-29 15:53:56</time>
      </trkpt>
      <trkpt lat="43.28386" lon="-2.68896">
        <ele>28.2</ele>
        <time>2021-05-29 15:53:57</time>
      </trkpt>
      <trkpt lat="43.28378" lon="-2.68886">
        <ele>27.8</ele>
        <time>2021-05-29 15:53:58</time>
      </trkpt>
      <trkpt lat="43.28369" lon="-2.68876">
        <ele>27.2</ele>
        <time>2021-05-29 15:53:59</time>
      </trkpt>
      <trkpt lat="43.28362" lon="-2.68865">
        <ele>26.8</ele>
        <time>2021-05-29 15:54:00</time>
      </trkpt>
      <trkpt lat="43.28355" lon="-2.68854">
        <ele>26.2</ele>
        <time>2021-05-29 15:54:01</time>
      </trkpt>
      <trkpt lat="43.28347" lon="-2.68844">
        <ele>25.4</ele>
        <time>2021-05-29 15:54:02</time>
      </trkpt>
      <trkpt lat="43.2834" lon="-2.68833">
        <ele>25</ele>
        <time>2021-05-29 15:54:03</time>
      </trkpt>
      <trkpt lat="43.28333" lon="-2.68823">
        <ele>24.4</ele>
        <time>2021-05-29 15:54:04</time>
      </trkpt>
      <trkpt lat="43.28326" lon="-2.68813">
        <ele>23.6</ele>
        <time>2021-05-29 15:54:05</time>
      </trkpt>
      <trkpt lat="43.28319" lon="-2.68803">
        <ele>23.4</ele>
        <time>2021-05-29 15:54:06</time>
      </trkpt>
      <trkpt lat="43.28312" lon="-2.68794">
        <ele>23.2</ele>
        <time>2021-05-29 15:54:07</time>
      </trkpt>
      <trkpt lat="43.28305" lon="-2.68785">
        <ele>23.2</ele>
        <time>2021-05-29 15:54:08</time>
      </trkpt>
      <trkpt lat="43.28299" lon="-2.68776">
        <ele>23</ele>
        <time>2021-05-29 15:54:09</time>
      </trkpt>
      <trkpt lat="43.28293" lon="-2.68768">
        <ele>23</ele>
        <time>2021-05-29 15:54:10</time>
      </trkpt>
      <trkpt lat="43.28287" lon="-2.68759">
        <ele>23</ele>
        <time>2021-05-29 15:54:11</time>
      </trkpt>
      <trkpt lat="43.28282" lon="-2.68752">
        <ele>23</ele>
        <time>2021-05-29 15:54:12</time>
      </trkpt>
      <trkpt lat="43.28276" lon="-2.68744">
        <ele>23</ele>
        <time>2021-05-29 15:54:13</time>
      </trkpt>
      <trkpt lat="43.28271" lon="-2.68737">
        <ele>23</ele>
        <time>2021-05-29 15:54:14</time>
      </trkpt>
      <trkpt lat="43.28267" lon="-2.68729">
        <ele>23</ele>
        <time>2021-05-29 15:54:15</time>
      </trkpt>
      <trkpt lat="43.28262" lon="-2.68722">
        <ele>23.2</ele>
        <time>2021-05-29 15:54:16</time>
      </trkpt>
      <trkpt lat="43.28258" lon="-2.68715">
        <ele>23.4</ele>
        <time>2021-05-29 15:54:17</time>
      </trkpt>
      <trkpt lat="43.28254" lon="-2.68708">
        <ele>23.6</ele>
        <time>2021-05-29 15:54:18</time>
      </trkpt>
      <trkpt lat="43.2825" lon="-2.68701">
        <ele>24.2</ele>
        <time>2021-05-29 15:54:19</time>
      </trkpt>
      <trkpt lat="43.28246" lon="-2.68695">
        <ele>24.4</ele>
        <time>2021-05-29 15:54:20</time>
      </trkpt>
      <trkpt lat="43.28243" lon="-2.68688">
        <ele>24.8</ele>
        <time>2021-05-29 15:54:21</time>
      </trkpt>
      <trkpt lat="43.2824" lon="-2.68681">
        <ele>25.2</ele>
        <time>2021-05-29 15:54:22</time>
      </trkpt>
      <trkpt lat="43.28237" lon="-2.68674">
        <ele>25.4</ele>
        <time>2021-05-29 15:54:23</time>
      </trkpt>
      <trkpt lat="43.28234" lon="-2.68668">
        <ele>25.8</ele>
        <time>2021-05-29 15:54:24</time>
      </trkpt>
      <trkpt lat="43.28231" lon="-2.68661">
        <ele>26.2</ele>
        <time>2021-05-29 15:54:25</time>
      </trkpt>
      <trkpt lat="43.28228" lon="-2.68654">
        <ele>26.6</ele>
        <time>2021-05-29 15:54:26</time>
      </trkpt>
      <trkpt lat="43.28226" lon="-2.68648">
        <ele>26.8</ele>
        <time>2021-05-29 15:54:27</time>
      </trkpt>
      <trkpt lat="43.28223" lon="-2.68642">
        <ele>27.2</ele>
        <time>2021-05-29 15:54:28</time>
      </trkpt>
      <trkpt lat="43.2822" lon="-2.68635">
        <ele>27.4</ele>
        <time>2021-05-29 15:54:29</time>
      </trkpt>
      <trkpt lat="43.28218" lon="-2.68629">
        <ele>27.8</ele>
        <time>2021-05-29 15:54:30</time>
      </trkpt>
      <trkpt lat="43.28216" lon="-2.68623">
        <ele>28</ele>
        <time>2021-05-29 15:54:31</time>
      </trkpt>
      <trkpt lat="43.28213" lon="-2.68617">
        <ele>28.6</ele>
        <time>2021-05-29 15:54:32</time>
      </trkpt>
      <trkpt lat="43.28211" lon="-2.68611">
        <ele>28.8</ele>
        <time>2021-05-29 15:54:33</time>
      </trkpt>
      <trkpt lat="43.28209" lon="-2.68604">
        <ele>29.4</ele>
        <time>2021-05-29 15:54:34</time>
      </trkpt>
      <trkpt lat="43.28207" lon="-2.68598">
        <ele>29.8</ele>
        <time>2021-05-29 15:54:35</time>
      </trkpt>
      <trkpt lat="43.28205" lon="-2.68592">
        <ele>30</ele>
        <time>2021-05-29 15:54:36</time>
      </trkpt>
      <trkpt lat="43.28202" lon="-2.68587">
        <ele>30.2</ele>
        <time>2021-05-29 15:54:37</time>
      </trkpt>
      <trkpt lat="43.28199" lon="-2.68581">
        <ele>30.6</ele>
        <time>2021-05-29 15:54:38</time>
      </trkpt>
      <trkpt lat="43.28197" lon="-2.68575">
        <ele>31</ele>
        <time>2021-05-29 15:54:39</time>
      </trkpt>
      <trkpt lat="43.28195" lon="-2.68569">
        <ele>31.4</ele>
        <time>2021-05-29 15:54:40</time>
      </trkpt>
      <trkpt lat="43.28193" lon="-2.68562">
        <ele>31.8</ele>
        <time>2021-05-29 15:54:41</time>
      </trkpt>
      <trkpt lat="43.28191" lon="-2.68556">
        <ele>32</ele>
        <time>2021-05-29 15:54:42</time>
      </trkpt>
      <trkpt lat="43.28189" lon="-2.68552">
        <ele>32.4</ele>
        <time>2021-05-29 15:54:43</time>
      </trkpt>
      <trkpt lat="43.28186" lon="-2.68546">
        <ele>32.8</ele>
        <time>2021-05-29 15:54:44</time>
      </trkpt>
      <trkpt lat="43.28183" lon="-2.6854">
        <ele>33</ele>
        <time>2021-05-29 15:54:45</time>
      </trkpt>
      <trkpt lat="43.2818" lon="-2.68533">
        <ele>33.2</ele>
        <time>2021-05-29 15:54:46</time>
      </trkpt>
      <trkpt lat="43.28176" lon="-2.68527">
        <ele>33.6</ele>
        <time>2021-05-29 15:54:47</time>
      </trkpt>
      <trkpt lat="43.28173" lon="-2.68521">
        <ele>34</ele>
        <time>2021-05-29 15:54:48</time>
      </trkpt>
      <trkpt lat="43.28169" lon="-2.68514">
        <ele>34.2</ele>
        <time>2021-05-29 15:54:49</time>
      </trkpt>
      <trkpt lat="43.28164" lon="-2.68509">
        <ele>34.6</ele>
        <time>2021-05-29 15:54:50</time>
      </trkpt>
      <trkpt lat="43.28158" lon="-2.68504">
        <ele>34.8</ele>
        <time>2021-05-29 15:54:51</time>
      </trkpt>
      <trkpt lat="43.28151" lon="-2.68501">
        <ele>35.2</ele>
        <time>2021-05-29 15:54:52</time>
      </trkpt>
      <trkpt lat="43.28144" lon="-2.68499">
        <ele>35.2</ele>
        <time>2021-05-29 15:54:53</time>
      </trkpt>
      <trkpt lat="43.28136" lon="-2.68497">
        <ele>35.2</ele>
        <time>2021-05-29 15:54:54</time>
      </trkpt>
      <trkpt lat="43.28128" lon="-2.68496">
        <ele>35.4</ele>
        <time>2021-05-29 15:54:55</time>
      </trkpt>
      <trkpt lat="43.28121" lon="-2.68494">
        <ele>35.4</ele>
        <time>2021-05-29 15:54:56</time>
      </trkpt>
      <trkpt lat="43.28113" lon="-2.68493">
        <ele>35.4</ele>
        <time>2021-05-29 15:54:57</time>
      </trkpt>
      <trkpt lat="43.28105" lon="-2.68492">
        <ele>35.4</ele>
        <time>2021-05-29 15:54:58</time>
      </trkpt>
      <trkpt lat="43.28097" lon="-2.6849">
        <ele>35.4</ele>
        <time>2021-05-29 15:54:59</time>
      </trkpt>
      <trkpt lat="43.28088" lon="-2.68489">
        <ele>35.4</ele>
        <time>2021-05-29 15:55:00</time>
      </trkpt>
      <trkpt lat="43.2808" lon="-2.68487">
        <ele>35.4</ele>
        <time>2021-05-29 15:55:01</time>
      </trkpt>
      <trkpt lat="43.28071" lon="-2.68485">
        <ele>35.4</ele>
        <time>2021-05-29 15:55:02</time>
      </trkpt>
      <trkpt lat="43.28062" lon="-2.68484">
        <ele>35.2</ele>
        <time>2021-05-29 15:55:03</time>
      </trkpt>
      <trkpt lat="43.28053" lon="-2.68482">
        <ele>35</ele>
        <time>2021-05-29 15:55:04</time>
      </trkpt>
      <trkpt lat="43.28044" lon="-2.6848">
        <ele>34.8</ele>
        <time>2021-05-29 15:55:05</time>
      </trkpt>
      <trkpt lat="43.28035" lon="-2.68478">
        <ele>34.6</ele>
        <time>2021-05-29 15:55:06</time>
      </trkpt>
      <trkpt lat="43.28026" lon="-2.68477">
        <ele>34.4</ele>
        <time>2021-05-29 15:55:07</time>
      </trkpt>
      <trkpt lat="43.28017" lon="-2.68475">
        <ele>34.2</ele>
        <time>2021-05-29 15:55:08</time>
      </trkpt>
      <trkpt lat="43.28007" lon="-2.68473">
        <ele>33.8</ele>
        <time>2021-05-29 15:55:09</time>
      </trkpt>
      <trkpt lat="43.27998" lon="-2.68472">
        <ele>33.8</ele>
        <time>2021-05-29 15:55:10</time>
      </trkpt>
      <trkpt lat="43.27989" lon="-2.68471">
        <ele>33.6</ele>
        <time>2021-05-29 15:55:11</time>
      </trkpt>
      <trkpt lat="43.27979" lon="-2.6847">
        <ele>33.4</ele>
        <time>2021-05-29 15:55:12</time>
      </trkpt>
      <trkpt lat="43.2797" lon="-2.68469">
        <ele>33.4</ele>
        <time>2021-05-29 15:55:13</time>
      </trkpt>
      <trkpt lat="43.2796" lon="-2.68468">
        <ele>33</ele>
        <time>2021-05-29 15:55:14</time>
      </trkpt>
      <trkpt lat="43.27951" lon="-2.68468">
        <ele>32.8</ele>
        <time>2021-05-29 15:55:15</time>
      </trkpt>
      <trkpt lat="43.27941" lon="-2.68467">
        <ele>32.8</ele>
        <time>2021-05-29 15:55:16</time>
      </trkpt>
      <trkpt lat="43.27931" lon="-2.68467">
        <ele>32.6</ele>
        <time>2021-05-29 15:55:17</time>
      </trkpt>
      <trkpt lat="43.27922" lon="-2.68467">
        <ele>32.4</ele>
        <time>2021-05-29 15:55:18</time>
      </trkpt>
      <trkpt lat="43.27912" lon="-2.68467">
        <ele>32.2</ele>
        <time>2021-05-29 15:55:19</time>
      </trkpt>
      <trkpt lat="43.27902" lon="-2.68467">
        <ele>32.2</ele>
        <time>2021-05-29 15:55:20</time>
      </trkpt>
      <trkpt lat="43.27892" lon="-2.68467">
        <ele>32</ele>
        <time>2021-05-29 15:55:21</time>
      </trkpt>
      <trkpt lat="43.27882" lon="-2.68467">
        <ele>32</ele>
        <time>2021-05-29 15:55:22</time>
      </trkpt>
      <trkpt lat="43.27871" lon="-2.68467">
        <ele>31.8</ele>
        <time>2021-05-29 15:55:23</time>
      </trkpt>
      <trkpt lat="43.27861" lon="-2.68467">
        <ele>31.8</ele>
        <time>2021-05-29 15:55:24</time>
      </trkpt>
      <trkpt lat="43.27851" lon="-2.68467">
        <ele>31.6</ele>
        <time>2021-05-29 15:55:25</time>
      </trkpt>
      <trkpt lat="43.27841" lon="-2.68467">
        <ele>31.8</ele>
        <time>2021-05-29 15:55:26</time>
      </trkpt>
      <trkpt lat="43.27831" lon="-2.68467">
        <ele>31.6</ele>
        <time>2021-05-29 15:55:27</time>
      </trkpt>
      <trkpt lat="43.27821" lon="-2.68467">
        <ele>31.2</ele>
        <time>2021-05-29 15:55:28</time>
      </trkpt>
      <trkpt lat="43.27811" lon="-2.68467">
        <ele>31</ele>
        <time>2021-05-29 15:55:29</time>
      </trkpt>
      <trkpt lat="43.27801" lon="-2.68468">
        <ele>30.8</ele>
        <time>2021-05-29 15:55:30</time>
      </trkpt>
      <trkpt lat="43.27791" lon="-2.68468">
        <ele>30.8</ele>
        <time>2021-05-29 15:55:31</time>
      </trkpt>
      <trkpt lat="43.27782" lon="-2.68468">
        <ele>30.8</ele>
        <time>2021-05-29 15:55:32</time>
      </trkpt>
      <trkpt lat="43.27772" lon="-2.68468">
        <ele>30.6</ele>
        <time>2021-05-29 15:55:33</time>
      </trkpt>
      <trkpt lat="43.27762" lon="-2.68468">
        <ele>30.6</ele>
        <time>2021-05-29 15:55:34</time>
      </trkpt>
      <trkpt lat="43.27753" lon="-2.68468">
        <ele>30.4</ele>
        <time>2021-05-29 15:55:35</time>
      </trkpt>
      <trkpt lat="43.27743" lon="-2.68468">
        <ele>30.4</ele>
        <time>2021-05-29 15:55:36</time>
      </trkpt>
      <trkpt lat="43.27734" lon="-2.68468">
        <ele>30.2</ele>
        <time>2021-05-29 15:55:37</time>
      </trkpt>
      <trkpt lat="43.27724" lon="-2.68468">
        <ele>30.2</ele>
        <time>2021-05-29 15:55:38</time>
      </trkpt>
      <trkpt lat="43.27715" lon="-2.68468">
        <ele>30.2</ele>
        <time>2021-05-29 15:55:39</time>
      </trkpt>
      <trkpt lat="43.27706" lon="-2.68468">
        <ele>30</ele>
        <time>2021-05-29 15:55:40</time>
      </trkpt>
      <trkpt lat="43.27697" lon="-2.68468">
        <ele>30</ele>
        <time>2021-05-29 15:55:41</time>
      </trkpt>
      <trkpt lat="43.27688" lon="-2.68468">
        <ele>30</ele>
        <time>2021-05-29 15:55:42</time>
      </trkpt>
      <trkpt lat="43.27679" lon="-2.68468">
        <ele>30</ele>
        <time>2021-05-29 15:55:43</time>
      </trkpt>
      <trkpt lat="43.2767" lon="-2.68468">
        <ele>30</ele>
        <time>2021-05-29 15:55:44</time>
      </trkpt>
      <trkpt lat="43.27661" lon="-2.68469">
        <ele>30</ele>
        <time>2021-05-29 15:55:45</time>
      </trkpt>
      <trkpt lat="43.27653" lon="-2.68469">
        <ele>30</ele>
        <time>2021-05-29 15:55:46</time>
      </trkpt>
      <trkpt lat="43.27644" lon="-2.68469">
        <ele>30</ele>
        <time>2021-05-29 15:55:47</time>
      </trkpt>
      <trkpt lat="43.27636" lon="-2.6847">
        <ele>30</ele>
        <time>2021-05-29 15:55:48</time>
      </trkpt>
      <trkpt lat="43.27627" lon="-2.6847">
        <ele>30.2</ele>
        <time>2021-05-29 15:55:49</time>
      </trkpt>
      <trkpt lat="43.27619" lon="-2.68471">
        <ele>30.6</ele>
        <time>2021-05-29 15:55:50</time>
      </trkpt>
      <trkpt lat="43.2761" lon="-2.68471">
        <ele>30.6</ele>
        <time>2021-05-29 15:55:51</time>
      </trkpt>
      <trkpt lat="43.27602" lon="-2.68472">
        <ele>30.6</ele>
        <time>2021-05-29 15:55:52</time>
      </trkpt>
      <trkpt lat="43.27594" lon="-2.68473">
        <ele>30.8</ele>
        <time>2021-05-29 15:55:53</time>
      </trkpt>
      <trkpt lat="43.27586" lon="-2.68474">
        <ele>31</ele>
        <time>2021-05-29 15:55:54</time>
      </trkpt>
      <trkpt lat="43.27577" lon="-2.68475">
        <ele>31</ele>
        <time>2021-05-29 15:55:55</time>
      </trkpt>
      <trkpt lat="43.27569" lon="-2.68476">
        <ele>31.2</ele>
        <time>2021-05-29 15:55:56</time>
      </trkpt>
      <trkpt lat="43.27561" lon="-2.68477">
        <ele>31.2</ele>
        <time>2021-05-29 15:55:57</time>
      </trkpt>
      <trkpt lat="43.27553" lon="-2.68478">
        <ele>31.2</ele>
        <time>2021-05-29 15:55:58</time>
      </trkpt>
      <trkpt lat="43.27545" lon="-2.68479">
        <ele>31.2</ele>
        <time>2021-05-29 15:55:59</time>
      </trkpt>
      <trkpt lat="43.27538" lon="-2.6848">
        <ele>31.4</ele>
        <time>2021-05-29 15:56:00</time>
      </trkpt>
      <trkpt lat="43.2753" lon="-2.68481">
        <ele>31.4</ele>
        <time>2021-05-29 15:56:01</time>
      </trkpt>
      <trkpt lat="43.27522" lon="-2.68482">
        <ele>31.4</ele>
        <time>2021-05-29 15:56:02</time>
      </trkpt>
      <trkpt lat="43.27515" lon="-2.68484">
        <ele>31.6</ele>
        <time>2021-05-29 15:56:03</time>
      </trkpt>
      <trkpt lat="43.27507" lon="-2.68485">
        <ele>31.6</ele>
        <time>2021-05-29 15:56:04</time>
      </trkpt>
      <trkpt lat="43.275" lon="-2.68486">
        <ele>31.8</ele>
        <time>2021-05-29 15:56:05</time>
      </trkpt>
      <trkpt lat="43.27493" lon="-2.68487">
        <ele>31.8</ele>
        <time>2021-05-29 15:56:06</time>
      </trkpt>
      <trkpt lat="43.27486" lon="-2.68488">
        <ele>32</ele>
        <time>2021-05-29 15:56:07</time>
      </trkpt>
      <trkpt lat="43.27479" lon="-2.68489">
        <ele>32</ele>
        <time>2021-05-29 15:56:08</time>
      </trkpt>
      <trkpt lat="43.27472" lon="-2.6849">
        <ele>32.2</ele>
        <time>2021-05-29 15:56:09</time>
      </trkpt>
      <trkpt lat="43.27465" lon="-2.68491">
        <ele>32.2</ele>
        <time>2021-05-29 15:56:10</time>
      </trkpt>
      <trkpt lat="43.27458" lon="-2.68493">
        <ele>32.4</ele>
        <time>2021-05-29 15:56:11</time>
      </trkpt>
      <trkpt lat="43.27451" lon="-2.68494">
        <ele>32.4</ele>
        <time>2021-05-29 15:56:12</time>
      </trkpt>
      <trkpt lat="43.27444" lon="-2.68495">
        <ele>32.6</ele>
        <time>2021-05-29 15:56:13</time>
      </trkpt>
      <trkpt lat="43.27437" lon="-2.68496">
        <ele>32.6</ele>
        <time>2021-05-29 15:56:14</time>
      </trkpt>
      <trkpt lat="43.2743" lon="-2.68497">
        <ele>32.8</ele>
        <time>2021-05-29 15:56:15</time>
      </trkpt>
      <trkpt lat="43.27424" lon="-2.68499">
        <ele>33</ele>
        <time>2021-05-29 15:56:16</time>
      </trkpt>
      <trkpt lat="43.27417" lon="-2.685">
        <ele>33</ele>
        <time>2021-05-29 15:56:17</time>
      </trkpt>
      <trkpt lat="43.27411" lon="-2.68501">
        <ele>33.2</ele>
        <time>2021-05-29 15:56:18</time>
      </trkpt>
      <trkpt lat="43.27405" lon="-2.68502">
        <ele>33.4</ele>
        <time>2021-05-29 15:56:19</time>
      </trkpt>
      <trkpt lat="43.27398" lon="-2.68504">
        <ele>33.4</ele>
        <time>2021-05-29 15:56:20</time>
      </trkpt>
      <trkpt lat="43.27392" lon="-2.68505">
        <ele>33.6</ele>
        <time>2021-05-29 15:56:21</time>
      </trkpt>
      <trkpt lat="43.27386" lon="-2.68507">
        <ele>33.6</ele>
        <time>2021-05-29 15:56:22</time>
      </trkpt>
      <trkpt lat="43.2738" lon="-2.68508">
        <ele>34.4</ele>
        <time>2021-05-29 15:56:23</time>
      </trkpt>
      <trkpt lat="43.27374" lon="-2.6851">
        <ele>34.6</ele>
        <time>2021-05-29 15:56:24</time>
      </trkpt>
      <trkpt lat="43.27368" lon="-2.68511">
        <ele>35</ele>
        <time>2021-05-29 15:56:25</time>
      </trkpt>
      <trkpt lat="43.27361" lon="-2.68512">
        <ele>35.6</ele>
        <time>2021-05-29 15:56:26</time>
      </trkpt>
      <trkpt lat="43.27355" lon="-2.68514">
        <ele>35.8</ele>
        <time>2021-05-29 15:56:27</time>
      </trkpt>
      <trkpt lat="43.27349" lon="-2.68515">
        <ele>36.2</ele>
        <time>2021-05-29 15:56:28</time>
      </trkpt>
      <trkpt lat="43.27342" lon="-2.68515">
        <ele>36.6</ele>
        <time>2021-05-29 15:56:29</time>
      </trkpt>
      <trkpt lat="43.27336" lon="-2.68516">
        <ele>36.8</ele>
        <time>2021-05-29 15:56:30</time>
      </trkpt>
      <trkpt lat="43.27329" lon="-2.68517">
        <ele>37.2</ele>
        <time>2021-05-29 15:56:31</time>
      </trkpt>
      <trkpt lat="43.27322" lon="-2.68517">
        <ele>37.6</ele>
        <time>2021-05-29 15:56:32</time>
      </trkpt>
      <trkpt lat="43.27314" lon="-2.68518">
        <ele>37.8</ele>
        <time>2021-05-29 15:56:33</time>
      </trkpt>
      <trkpt lat="43.27307" lon="-2.68518">
        <ele>38.2</ele>
        <time>2021-05-29 15:56:34</time>
      </trkpt>
      <trkpt lat="43.27299" lon="-2.68518">
        <ele>38.4</ele>
        <time>2021-05-29 15:56:35</time>
      </trkpt>
      <trkpt lat="43.27291" lon="-2.68519">
        <ele>38.6</ele>
        <time>2021-05-29 15:56:36</time>
      </trkpt>
      <trkpt lat="43.27283" lon="-2.6852">
        <ele>38.6</ele>
        <time>2021-05-29 15:56:37</time>
      </trkpt>
      <trkpt lat="43.27275" lon="-2.6852">
        <ele>38.6</ele>
        <time>2021-05-29 15:56:38</time>
      </trkpt>
      <trkpt lat="43.27266" lon="-2.68521">
        <ele>38.6</ele>
        <time>2021-05-29 15:56:39</time>
      </trkpt>
      <trkpt lat="43.27256" lon="-2.68522">
        <ele>38.6</ele>
        <time>2021-05-29 15:56:40</time>
      </trkpt>
      <trkpt lat="43.27247" lon="-2.68523">
        <ele>38.6</ele>
        <time>2021-05-29 15:56:41</time>
      </trkpt>
      <trkpt lat="43.27237" lon="-2.68524">
        <ele>38.6</ele>
        <time>2021-05-29 15:56:42</time>
      </trkpt>
      <trkpt lat="43.27228" lon="-2.68526">
        <ele>38.6</ele>
        <time>2021-05-29 15:56:43</time>
      </trkpt>
      <trkpt lat="43.27218" lon="-2.68527">
        <ele>38.6</ele>
        <time>2021-05-29 15:56:44</time>
      </trkpt>
      <trkpt lat="43.27209" lon="-2.68528">
        <ele>38.4</ele>
        <time>2021-05-29 15:56:45</time>
      </trkpt>
      <trkpt lat="43.27199" lon="-2.6853">
        <ele>38.4</ele>
        <time>2021-05-29 15:56:46</time>
      </trkpt>
      <trkpt lat="43.2719" lon="-2.68531">
        <ele>38</ele>
        <time>2021-05-29 15:56:47</time>
      </trkpt>
      <trkpt lat="43.27181" lon="-2.68532">
        <ele>37.8</ele>
        <time>2021-05-29 15:56:48</time>
      </trkpt>
      <trkpt lat="43.27172" lon="-2.68534">
        <ele>37.8</ele>
        <time>2021-05-29 15:56:49</time>
      </trkpt>
      <trkpt lat="43.27163" lon="-2.68535">
        <ele>37.6</ele>
        <time>2021-05-29 15:56:50</time>
      </trkpt>
      <trkpt lat="43.27154" lon="-2.68536">
        <ele>37.6</ele>
        <time>2021-05-29 15:56:51</time>
      </trkpt>
      <trkpt lat="43.27145" lon="-2.68537">
        <ele>37.4</ele>
        <time>2021-05-29 15:56:52</time>
      </trkpt>
      <trkpt lat="43.27135" lon="-2.68539">
        <ele>37.4</ele>
        <time>2021-05-29 15:56:53</time>
      </trkpt>
      <trkpt lat="43.27126" lon="-2.6854">
        <ele>37.4</ele>
        <time>2021-05-29 15:56:54</time>
      </trkpt>
      <trkpt lat="43.27117" lon="-2.68541">
        <ele>37.4</ele>
        <time>2021-05-29 15:56:55</time>
      </trkpt>
      <trkpt lat="43.27108" lon="-2.68543">
        <ele>37.4</ele>
        <time>2021-05-29 15:56:56</time>
      </trkpt>
      <trkpt lat="43.27099" lon="-2.68544">
        <ele>37.4</ele>
        <time>2021-05-29 15:56:57</time>
      </trkpt>
      <trkpt lat="43.2709" lon="-2.68545">
        <ele>37.6</ele>
        <time>2021-05-29 15:56:58</time>
      </trkpt>
      <trkpt lat="43.27081" lon="-2.68546">
        <ele>37.6</ele>
        <time>2021-05-29 15:56:59</time>
      </trkpt>
      <trkpt lat="43.27072" lon="-2.68548">
        <ele>37.8</ele>
        <time>2021-05-29 15:57:00</time>
      </trkpt>
      <trkpt lat="43.27063" lon="-2.68549">
        <ele>38</ele>
        <time>2021-05-29 15:57:01</time>
      </trkpt>
      <trkpt lat="43.27054" lon="-2.68551">
        <ele>38</ele>
        <time>2021-05-29 15:57:02</time>
      </trkpt>
      <trkpt lat="43.27045" lon="-2.68552">
        <ele>38</ele>
        <time>2021-05-29 15:57:03</time>
      </trkpt>
      <trkpt lat="43.27036" lon="-2.68553">
        <ele>38</ele>
        <time>2021-05-29 15:57:04</time>
      </trkpt>
      <trkpt lat="43.27028" lon="-2.68555">
        <ele>38</ele>
        <time>2021-05-29 15:57:05</time>
      </trkpt>
      <trkpt lat="43.27019" lon="-2.68556">
        <ele>38.2</ele>
        <time>2021-05-29 15:57:06</time>
      </trkpt>
      <trkpt lat="43.27011" lon="-2.68557">
        <ele>38.4</ele>
        <time>2021-05-29 15:57:07</time>
      </trkpt>
      <trkpt lat="43.27002" lon="-2.68559">
        <ele>38.4</ele>
        <time>2021-05-29 15:57:08</time>
      </trkpt>
      <trkpt lat="43.26994" lon="-2.6856">
        <ele>38.6</ele>
        <time>2021-05-29 15:57:09</time>
      </trkpt>
      <trkpt lat="43.26985" lon="-2.68562">
        <ele>39</ele>
        <time>2021-05-29 15:57:10</time>
      </trkpt>
      <trkpt lat="43.26977" lon="-2.68563">
        <ele>39.2</ele>
        <time>2021-05-29 15:57:11</time>
      </trkpt>
      <trkpt lat="43.26968" lon="-2.68564">
        <ele>39.2</ele>
        <time>2021-05-29 15:57:12</time>
      </trkpt>
      <trkpt lat="43.2696" lon="-2.68565">
        <ele>39.6</ele>
        <time>2021-05-29 15:57:13</time>
      </trkpt>
      <trkpt lat="43.26952" lon="-2.68567">
        <ele>39.8</ele>
        <time>2021-05-29 15:57:14</time>
      </trkpt>
      <trkpt lat="43.26945" lon="-2.68568">
        <ele>40</ele>
        <time>2021-05-29 15:57:15</time>
      </trkpt>
      <trkpt lat="43.26937" lon="-2.68569">
        <ele>40.2</ele>
        <time>2021-05-29 15:57:16</time>
      </trkpt>
      <trkpt lat="43.26929" lon="-2.6857">
        <ele>40.2</ele>
        <time>2021-05-29 15:57:17</time>
      </trkpt>
      <trkpt lat="43.26922" lon="-2.68571">
        <ele>40.6</ele>
        <time>2021-05-29 15:57:18</time>
      </trkpt>
      <trkpt lat="43.26914" lon="-2.68572">
        <ele>40.8</ele>
        <time>2021-05-29 15:57:19</time>
      </trkpt>
      <trkpt lat="43.26907" lon="-2.68573">
        <ele>40.8</ele>
        <time>2021-05-29 15:57:20</time>
      </trkpt>
      <trkpt lat="43.269" lon="-2.68574">
        <ele>41.2</ele>
        <time>2021-05-29 15:57:21</time>
      </trkpt>
      <trkpt lat="43.26893" lon="-2.68575">
        <ele>41.4</ele>
        <time>2021-05-29 15:57:22</time>
      </trkpt>
      <trkpt lat="43.26885" lon="-2.68577">
        <ele>41.6</ele>
        <time>2021-05-29 15:57:23</time>
      </trkpt>
      <trkpt lat="43.26878" lon="-2.68578">
        <ele>41.8</ele>
        <time>2021-05-29 15:57:24</time>
      </trkpt>
      <trkpt lat="43.26871" lon="-2.68579">
        <ele>42</ele>
        <time>2021-05-29 15:57:25</time>
      </trkpt>
      <trkpt lat="43.26863" lon="-2.6858">
        <ele>42</ele>
        <time>2021-05-29 15:57:26</time>
      </trkpt>
      <trkpt lat="43.26856" lon="-2.68581">
        <ele>42.2</ele>
        <time>2021-05-29 15:57:27</time>
      </trkpt>
      <trkpt lat="43.26848" lon="-2.68582">
        <ele>42.4</ele>
        <time>2021-05-29 15:57:28</time>
      </trkpt>
      <trkpt lat="43.2684" lon="-2.68583">
        <ele>42.4</ele>
        <time>2021-05-29 15:57:29</time>
      </trkpt>
      <trkpt lat="43.26832" lon="-2.68584">
        <ele>42.6</ele>
        <time>2021-05-29 15:57:30</time>
      </trkpt>
      <trkpt lat="43.26824" lon="-2.68585">
        <ele>42.6</ele>
        <time>2021-05-29 15:57:31</time>
      </trkpt>
      <trkpt lat="43.26817" lon="-2.68586">
        <ele>42.8</ele>
        <time>2021-05-29 15:57:32</time>
      </trkpt>
      <trkpt lat="43.26809" lon="-2.68588">
        <ele>42.8</ele>
        <time>2021-05-29 15:57:33</time>
      </trkpt>
      <trkpt lat="43.26801" lon="-2.68589">
        <ele>42.8</ele>
        <time>2021-05-29 15:57:34</time>
      </trkpt>
      <trkpt lat="43.26793" lon="-2.6859">
        <ele>42.8</ele>
        <time>2021-05-29 15:57:35</time>
      </trkpt>
      <trkpt lat="43.26785" lon="-2.68591">
        <ele>42.8</ele>
        <time>2021-05-29 15:57:36</time>
      </trkpt>
      <trkpt lat="43.26777" lon="-2.68593">
        <ele>42.8</ele>
        <time>2021-05-29 15:57:37</time>
      </trkpt>
      <trkpt lat="43.26768" lon="-2.68594">
        <ele>42.8</ele>
        <time>2021-05-29 15:57:38</time>
      </trkpt>
      <trkpt lat="43.2676" lon="-2.68595">
        <ele>43</ele>
        <time>2021-05-29 15:57:39</time>
      </trkpt>
      <trkpt lat="43.26752" lon="-2.68596">
        <ele>43</ele>
        <time>2021-05-29 15:57:40</time>
      </trkpt>
      <trkpt lat="43.26744" lon="-2.68598">
        <ele>43</ele>
        <time>2021-05-29 15:57:41</time>
      </trkpt>
      <trkpt lat="43.26735" lon="-2.68599">
        <ele>43</ele>
        <time>2021-05-29 15:57:42</time>
      </trkpt>
      <trkpt lat="43.26727" lon="-2.686">
        <ele>43.2</ele>
        <time>2021-05-29 15:57:43</time>
      </trkpt>
      <trkpt lat="43.26719" lon="-2.68602">
        <ele>43.2</ele>
        <time>2021-05-29 15:57:44</time>
      </trkpt>
      <trkpt lat="43.26711" lon="-2.68603">
        <ele>43.2</ele>
        <time>2021-05-29 15:57:45</time>
      </trkpt>
      <trkpt lat="43.26702" lon="-2.68604">
        <ele>43.2</ele>
        <time>2021-05-29 15:57:46</time>
      </trkpt>
      <trkpt lat="43.26694" lon="-2.68606">
        <ele>43.2</ele>
        <time>2021-05-29 15:57:47</time>
      </trkpt>
      <trkpt lat="43.26686" lon="-2.68607">
        <ele>43.2</ele>
        <time>2021-05-29 15:57:48</time>
      </trkpt>
      <trkpt lat="43.26678" lon="-2.68609">
        <ele>43.6</ele>
        <time>2021-05-29 15:57:49</time>
      </trkpt>
      <trkpt lat="43.2667" lon="-2.6861">
        <ele>43.4</ele>
        <time>2021-05-29 15:57:50</time>
      </trkpt>
      <trkpt lat="43.26662" lon="-2.68611">
        <ele>43.6</ele>
        <time>2021-05-29 15:57:51</time>
      </trkpt>
      <trkpt lat="43.26655" lon="-2.68611">
        <ele>43.6</ele>
        <time>2021-05-29 15:57:52</time>
      </trkpt>
      <trkpt lat="43.26647" lon="-2.68612">
        <ele>43.6</ele>
        <time>2021-05-29 15:57:53</time>
      </trkpt>
      <trkpt lat="43.26639" lon="-2.68612">
        <ele>43.6</ele>
        <time>2021-05-29 15:57:54</time>
      </trkpt>
      <trkpt lat="43.26631" lon="-2.68612">
        <ele>43.8</ele>
        <time>2021-05-29 15:57:55</time>
      </trkpt>
      <trkpt lat="43.26623" lon="-2.68613">
        <ele>44</ele>
        <time>2021-05-29 15:57:56</time>
      </trkpt>
      <trkpt lat="43.26616" lon="-2.68613">
        <ele>44</ele>
        <time>2021-05-29 15:57:57</time>
      </trkpt>
      <trkpt lat="43.26608" lon="-2.68614">
        <ele>44.2</ele>
        <time>2021-05-29 15:57:58</time>
      </trkpt>
      <trkpt lat="43.26601" lon="-2.68614">
        <ele>44.2</ele>
        <time>2021-05-29 15:57:59</time>
      </trkpt>
      <trkpt lat="43.26593" lon="-2.68615">
        <ele>44.4</ele>
        <time>2021-05-29 15:58:00</time>
      </trkpt>
      <trkpt lat="43.26586" lon="-2.68615">
        <ele>44.4</ele>
        <time>2021-05-29 15:58:01</time>
      </trkpt>
      <trkpt lat="43.26579" lon="-2.68615">
        <ele>44.6</ele>
        <time>2021-05-29 15:58:02</time>
      </trkpt>
      <trkpt lat="43.26572" lon="-2.68615">
        <ele>44.8</ele>
        <time>2021-05-29 15:58:03</time>
      </trkpt>
      <trkpt lat="43.26564" lon="-2.68615">
        <ele>44.8</ele>
        <time>2021-05-29 15:58:04</time>
      </trkpt>
      <trkpt lat="43.26557" lon="-2.68615">
        <ele>44.8</ele>
        <time>2021-05-29 15:58:05</time>
      </trkpt>
      <trkpt lat="43.2655" lon="-2.68615">
        <ele>45</ele>
        <time>2021-05-29 15:58:06</time>
      </trkpt>
      <trkpt lat="43.26542" lon="-2.68615">
        <ele>45.2</ele>
        <time>2021-05-29 15:58:07</time>
      </trkpt>
      <trkpt lat="43.26535" lon="-2.68614">
        <ele>45.4</ele>
        <time>2021-05-29 15:58:08</time>
      </trkpt>
      <trkpt lat="43.26528" lon="-2.68613">
        <ele>45.4</ele>
        <time>2021-05-29 15:58:09</time>
      </trkpt>
      <trkpt lat="43.26521" lon="-2.68612">
        <ele>45.6</ele>
        <time>2021-05-29 15:58:10</time>
      </trkpt>
      <trkpt lat="43.26515" lon="-2.6861">
        <ele>45.8</ele>
        <time>2021-05-29 15:58:11</time>
      </trkpt>
      <trkpt lat="43.26508" lon="-2.68607">
        <ele>46</ele>
        <time>2021-05-29 15:58:12</time>
      </trkpt>
      <trkpt lat="43.26501" lon="-2.68605">
        <ele>46</ele>
        <time>2021-05-29 15:58:13</time>
      </trkpt>
      <trkpt lat="43.26495" lon="-2.68602">
        <ele>46.2</ele>
        <time>2021-05-29 15:58:14</time>
      </trkpt>
      <trkpt lat="43.26489" lon="-2.68599">
        <ele>46.4</ele>
        <time>2021-05-29 15:58:15</time>
      </trkpt>
      <trkpt lat="43.26482" lon="-2.68597">
        <ele>46.6</ele>
        <time>2021-05-29 15:58:16</time>
      </trkpt>
      <trkpt lat="43.26476" lon="-2.68595">
        <ele>46.8</ele>
        <time>2021-05-29 15:58:17</time>
      </trkpt>
      <trkpt lat="43.2647" lon="-2.68593">
        <ele>47.2</ele>
        <time>2021-05-29 15:58:18</time>
      </trkpt>
      <trkpt lat="43.26463" lon="-2.68591">
        <ele>47.4</ele>
        <time>2021-05-29 15:58:19</time>
      </trkpt>
      <trkpt lat="43.26457" lon="-2.6859">
        <ele>47.4</ele>
        <time>2021-05-29 15:58:20</time>
      </trkpt>
      <trkpt lat="43.2645" lon="-2.68588">
        <ele>47.8</ele>
        <time>2021-05-29 15:58:21</time>
      </trkpt>
      <trkpt lat="43.26443" lon="-2.68587">
        <ele>48</ele>
        <time>2021-05-29 15:58:22</time>
      </trkpt>
      <trkpt lat="43.26436" lon="-2.68586">
        <ele>48.2</ele>
        <time>2021-05-29 15:58:23</time>
      </trkpt>
      <trkpt lat="43.26429" lon="-2.68586">
        <ele>48.6</ele>
        <time>2021-05-29 15:58:24</time>
      </trkpt>
      <trkpt lat="43.26422" lon="-2.68585">
        <ele>49</ele>
        <time>2021-05-29 15:58:25</time>
      </trkpt>
      <trkpt lat="43.26415" lon="-2.68584">
        <ele>49.2</ele>
        <time>2021-05-29 15:58:26</time>
      </trkpt>
      <trkpt lat="43.26407" lon="-2.68584">
        <ele>49.4</ele>
        <time>2021-05-29 15:58:27</time>
      </trkpt>
      <trkpt lat="43.264" lon="-2.68583">
        <ele>49.4</ele>
        <time>2021-05-29 15:58:28</time>
      </trkpt>
      <trkpt lat="43.26393" lon="-2.68582">
        <ele>49.6</ele>
        <time>2021-05-29 15:58:29</time>
      </trkpt>
      <trkpt lat="43.26386" lon="-2.68582">
        <ele>49.6</ele>
        <time>2021-05-29 15:58:30</time>
      </trkpt>
      <trkpt lat="43.26379" lon="-2.68581">
        <ele>49.6</ele>
        <time>2021-05-29 15:58:31</time>
      </trkpt>
      <trkpt lat="43.26372" lon="-2.68581">
        <ele>49.8</ele>
        <time>2021-05-29 15:58:32</time>
      </trkpt>
      <trkpt lat="43.26366" lon="-2.6858">
        <ele>49.8</ele>
        <time>2021-05-29 15:58:33</time>
      </trkpt>
      <trkpt lat="43.26359" lon="-2.68579">
        <ele>49.8</ele>
        <time>2021-05-29 15:58:34</time>
      </trkpt>
      <trkpt lat="43.26352" lon="-2.68578">
        <ele>50</ele>
        <time>2021-05-29 15:58:35</time>
      </trkpt>
      <trkpt lat="43.26345" lon="-2.68576">
        <ele>50.2</ele>
        <time>2021-05-29 15:58:36</time>
      </trkpt>
      <trkpt lat="43.26339" lon="-2.68574">
        <ele>50.4</ele>
        <time>2021-05-29 15:58:37</time>
      </trkpt>
      <trkpt lat="43.26332" lon="-2.68572">
        <ele>50.6</ele>
        <time>2021-05-29 15:58:38</time>
      </trkpt>
      <trkpt lat="43.26325" lon="-2.6857">
        <ele>50.8</ele>
        <time>2021-05-29 15:58:39</time>
      </trkpt>
      <trkpt lat="43.26319" lon="-2.68568">
        <ele>51</ele>
        <time>2021-05-29 15:58:40</time>
      </trkpt>
      <trkpt lat="43.26313" lon="-2.68565">
        <ele>51.2</ele>
        <time>2021-05-29 15:58:41</time>
      </trkpt>
      <trkpt lat="43.26306" lon="-2.68562">
        <ele>51.6</ele>
        <time>2021-05-29 15:58:42</time>
      </trkpt>
      <trkpt lat="43.263" lon="-2.6856">
        <ele>51.6</ele>
        <time>2021-05-29 15:58:43</time>
      </trkpt>
      <trkpt lat="43.26294" lon="-2.68557">
        <ele>51.8</ele>
        <time>2021-05-29 15:58:44</time>
      </trkpt>
      <trkpt lat="43.26289" lon="-2.68555">
        <ele>51.8</ele>
        <time>2021-05-29 15:58:45</time>
      </trkpt>
      <trkpt lat="43.26283" lon="-2.68552">
        <ele>52</ele>
        <time>2021-05-29 15:58:46</time>
      </trkpt>
      <trkpt lat="43.26277" lon="-2.6855">
        <ele>52.2</ele>
        <time>2021-05-29 15:58:47</time>
      </trkpt>
      <trkpt lat="43.26271" lon="-2.68547">
        <ele>52.6</ele>
        <time>2021-05-29 15:58:48</time>
      </trkpt>
      <trkpt lat="43.26266" lon="-2.68545">
        <ele>52.8</ele>
        <time>2021-05-29 15:58:49</time>
      </trkpt>
      <trkpt lat="43.2626" lon="-2.68544">
        <ele>53</ele>
        <time>2021-05-29 15:58:50</time>
      </trkpt>
      <trkpt lat="43.26255" lon="-2.68542">
        <ele>53.4</ele>
        <time>2021-05-29 15:58:51</time>
      </trkpt>
      <trkpt lat="43.26249" lon="-2.68542">
        <ele>53.6</ele>
        <time>2021-05-29 15:58:52</time>
      </trkpt>
      <trkpt lat="43.26244" lon="-2.68541">
        <ele>54</ele>
        <time>2021-05-29 15:58:53</time>
      </trkpt>
      <trkpt lat="43.26239" lon="-2.68542">
        <ele>54.2</ele>
        <time>2021-05-29 15:58:54</time>
      </trkpt>
      <trkpt lat="43.26234" lon="-2.68542">
        <ele>54.4</ele>
        <time>2021-05-29 15:58:55</time>
      </trkpt>
      <trkpt lat="43.26229" lon="-2.68543">
        <ele>54.6</ele>
        <time>2021-05-29 15:58:56</time>
      </trkpt>
      <trkpt lat="43.26224" lon="-2.68545">
        <ele>54.8</ele>
        <time>2021-05-29 15:58:57</time>
      </trkpt>
      <trkpt lat="43.2622" lon="-2.68546">
        <ele>55.2</ele>
        <time>2021-05-29 15:58:58</time>
      </trkpt>
      <trkpt lat="43.26215" lon="-2.68547">
        <ele>55.2</ele>
        <time>2021-05-29 15:58:59</time>
      </trkpt>
      <trkpt lat="43.26211" lon="-2.68549">
        <ele>55.6</ele>
        <time>2021-05-29 15:59:00</time>
      </trkpt>
      <trkpt lat="43.26207" lon="-2.6855">
        <ele>55.8</ele>
        <time>2021-05-29 15:59:01</time>
      </trkpt>
      <trkpt lat="43.26203" lon="-2.68552">
        <ele>56.2</ele>
        <time>2021-05-29 15:59:02</time>
      </trkpt>
      <trkpt lat="43.26199" lon="-2.68554">
        <ele>56.6</ele>
        <time>2021-05-29 15:59:03</time>
      </trkpt>
      <trkpt lat="43.26195" lon="-2.68556">
        <ele>57</ele>
        <time>2021-05-29 15:59:04</time>
      </trkpt>
      <trkpt lat="43.26191" lon="-2.68558">
        <ele>57.2</ele>
        <time>2021-05-29 15:59:05</time>
      </trkpt>
      <trkpt lat="43.26188" lon="-2.6856">
        <ele>57.6</ele>
        <time>2021-05-29 15:59:06</time>
      </trkpt>
      <trkpt lat="43.26184" lon="-2.68562">
        <ele>58</ele>
        <time>2021-05-29 15:59:07</time>
      </trkpt>
      <trkpt lat="43.26181" lon="-2.68565">
        <ele>58.2</ele>
        <time>2021-05-29 15:59:08</time>
      </trkpt>
      <trkpt lat="43.26177" lon="-2.68568">
        <ele>58.6</ele>
        <time>2021-05-29 15:59:09</time>
      </trkpt>
      <trkpt lat="43.26174" lon="-2.68571">
        <ele>59</ele>
        <time>2021-05-29 15:59:10</time>
      </trkpt>
      <trkpt lat="43.26171" lon="-2.68574">
        <ele>59.4</ele>
        <time>2021-05-29 15:59:11</time>
      </trkpt>
      <trkpt lat="43.26168" lon="-2.68578">
        <ele>59.8</ele>
        <time>2021-05-29 15:59:12</time>
      </trkpt>
      <trkpt lat="43.26165" lon="-2.68583">
        <ele>60.4</ele>
        <time>2021-05-29 15:59:13</time>
      </trkpt>
      <trkpt lat="43.26163" lon="-2.68587">
        <ele>61</ele>
        <time>2021-05-29 15:59:14</time>
      </trkpt>
      <trkpt lat="43.26161" lon="-2.68592">
        <ele>61.2</ele>
        <time>2021-05-29 15:59:15</time>
      </trkpt>
      <trkpt lat="43.26159" lon="-2.68597">
        <ele>61.6</ele>
        <time>2021-05-29 15:59:16</time>
      </trkpt>
      <trkpt lat="43.26158" lon="-2.68603">
        <ele>62.2</ele>
        <time>2021-05-29 15:59:17</time>
      </trkpt>
      <trkpt lat="43.26157" lon="-2.68608">
        <ele>62.4</ele>
        <time>2021-05-29 15:59:18</time>
      </trkpt>
      <trkpt lat="43.26156" lon="-2.68614">
        <ele>62.6</ele>
        <time>2021-05-29 15:59:19</time>
      </trkpt>
      <trkpt lat="43.26155" lon="-2.68619">
        <ele>62.8</ele>
        <time>2021-05-29 15:59:20</time>
      </trkpt>
      <trkpt lat="43.26154" lon="-2.68625">
        <ele>63</ele>
        <time>2021-05-29 15:59:21</time>
      </trkpt>
      <trkpt lat="43.26153" lon="-2.6863">
        <ele>63.4</ele>
        <time>2021-05-29 15:59:22</time>
      </trkpt>
      <trkpt lat="43.26153" lon="-2.68636">
        <ele>63.6</ele>
        <time>2021-05-29 15:59:23</time>
      </trkpt>
      <trkpt lat="43.26152" lon="-2.68642">
        <ele>64</ele>
        <time>2021-05-29 15:59:24</time>
      </trkpt>
      <trkpt lat="43.26152" lon="-2.68649">
        <ele>64.2</ele>
        <time>2021-05-29 15:59:25</time>
      </trkpt>
      <trkpt lat="43.26151" lon="-2.68655">
        <ele>64.6</ele>
        <time>2021-05-29 15:59:26</time>
      </trkpt>
      <trkpt lat="43.26151" lon="-2.68661">
        <ele>64.8</ele>
        <time>2021-05-29 15:59:27</time>
      </trkpt>
      <trkpt lat="43.2615" lon="-2.68668">
        <ele>65.2</ele>
        <time>2021-05-29 15:59:28</time>
      </trkpt>
      <trkpt lat="43.2615" lon="-2.68675">
        <ele>65.4</ele>
        <time>2021-05-29 15:59:29</time>
      </trkpt>
      <trkpt lat="43.2615" lon="-2.68681">
        <ele>65.8</ele>
        <time>2021-05-29 15:59:30</time>
      </trkpt>
      <trkpt lat="43.26149" lon="-2.68688">
        <ele>65.8</ele>
        <time>2021-05-29 15:59:31</time>
      </trkpt>
      <trkpt lat="43.26149" lon="-2.68695">
        <ele>66</ele>
        <time>2021-05-29 15:59:32</time>
      </trkpt>
      <trkpt lat="43.26149" lon="-2.68702">
        <ele>66.4</ele>
        <time>2021-05-29 15:59:33</time>
      </trkpt>
      <trkpt lat="43.26149" lon="-2.68709">
        <ele>66.6</ele>
        <time>2021-05-29 15:59:34</time>
      </trkpt>
      <trkpt lat="43.26149" lon="-2.68716">
        <ele>66.6</ele>
        <time>2021-05-29 15:59:35</time>
      </trkpt>
      <trkpt lat="43.26149" lon="-2.68723">
        <ele>67</ele>
        <time>2021-05-29 15:59:36</time>
      </trkpt>
      <trkpt lat="43.26149" lon="-2.6873">
        <ele>67.2</ele>
        <time>2021-05-29 15:59:37</time>
      </trkpt>
      <trkpt lat="43.2615" lon="-2.68738">
        <ele>67.4</ele>
        <time>2021-05-29 15:59:38</time>
      </trkpt>
      <trkpt lat="43.2615" lon="-2.68745">
        <ele>67.6</ele>
        <time>2021-05-29 15:59:39</time>
      </trkpt>
      <trkpt lat="43.2615" lon="-2.68753">
        <ele>67.8</ele>
        <time>2021-05-29 15:59:40</time>
      </trkpt>
      <trkpt lat="43.2615" lon="-2.6876">
        <ele>68</ele>
        <time>2021-05-29 15:59:41</time>
      </trkpt>
      <trkpt lat="43.2615" lon="-2.68768">
        <ele>68.2</ele>
        <time>2021-05-29 15:59:42</time>
      </trkpt>
      <trkpt lat="43.2615" lon="-2.68776">
        <ele>68.4</ele>
        <time>2021-05-29 15:59:43</time>
      </trkpt>
      <trkpt lat="43.2615" lon="-2.68783">
        <ele>68.6</ele>
        <time>2021-05-29 15:59:44</time>
      </trkpt>
      <trkpt lat="43.26148" lon="-2.6879">
        <ele>68.8</ele>
        <time>2021-05-29 15:59:45</time>
      </trkpt>
      <trkpt lat="43.26147" lon="-2.68798">
        <ele>69</ele>
        <time>2021-05-29 15:59:46</time>
      </trkpt>
      <trkpt lat="43.26145" lon="-2.68805">
        <ele>69.4</ele>
        <time>2021-05-29 15:59:47</time>
      </trkpt>
      <trkpt lat="43.26143" lon="-2.68812">
        <ele>69.6</ele>
        <time>2021-05-29 15:59:48</time>
      </trkpt>
      <trkpt lat="43.2614" lon="-2.68818">
        <ele>69.8</ele>
        <time>2021-05-29 15:59:49</time>
      </trkpt>
      <trkpt lat="43.26136" lon="-2.68823">
        <ele>70</ele>
        <time>2021-05-29 15:59:50</time>
      </trkpt>
      <trkpt lat="43.26132" lon="-2.68827">
        <ele>70</ele>
        <time>2021-05-29 15:59:51</time>
      </trkpt>
      <trkpt lat="43.26128" lon="-2.68831">
        <ele>70.2</ele>
        <time>2021-05-29 15:59:52</time>
      </trkpt>
      <trkpt lat="43.26123" lon="-2.68834">
        <ele>70.2</ele>
        <time>2021-05-29 15:59:53</time>
      </trkpt>
      <trkpt lat="43.26119" lon="-2.68837">
        <ele>70.2</ele>
        <time>2021-05-29 15:59:54</time>
      </trkpt>
      <trkpt lat="43.26115" lon="-2.6884">
        <ele>70.4</ele>
        <time>2021-05-29 15:59:55</time>
      </trkpt>
      <trkpt lat="43.26111" lon="-2.68842">
        <ele>70.4</ele>
        <time>2021-05-29 15:59:56</time>
      </trkpt>
      <trkpt lat="43.26107" lon="-2.68844">
        <ele>70.6</ele>
        <time>2021-05-29 15:59:57</time>
      </trkpt>
      <trkpt lat="43.26103" lon="-2.68847">
        <ele>70.8</ele>
        <time>2021-05-29 15:59:58</time>
      </trkpt>
      <trkpt lat="43.26099" lon="-2.68849">
        <ele>70.8</ele>
        <time>2021-05-29 15:59:59</time>
      </trkpt>
      <trkpt lat="43.26096" lon="-2.68852">
        <ele>71.2</ele>
        <time>2021-05-29 16:00:00</time>
      </trkpt>
      <trkpt lat="43.26092" lon="-2.68855">
        <ele>71.4</ele>
        <time>2021-05-29 16:00:01</time>
      </trkpt>
      <trkpt lat="43.2609" lon="-2.68858">
        <ele>71.6</ele>
        <time>2021-05-29 16:00:02</time>
      </trkpt>
      <trkpt lat="43.26087" lon="-2.68861">
        <ele>72</ele>
        <time>2021-05-29 16:00:03</time>
      </trkpt>
      <trkpt lat="43.26084" lon="-2.68864">
        <ele>72.2</ele>
        <time>2021-05-29 16:00:04</time>
      </trkpt>
      <trkpt lat="43.26082" lon="-2.68868">
        <ele>72.4</ele>
        <time>2021-05-29 16:00:05</time>
      </trkpt>
      <trkpt lat="43.26079" lon="-2.68871">
        <ele>72.6</ele>
        <time>2021-05-29 16:00:06</time>
      </trkpt>
      <trkpt lat="43.26077" lon="-2.68874">
        <ele>73</ele>
        <time>2021-05-29 16:00:07</time>
      </trkpt>
      <trkpt lat="43.26075" lon="-2.68877">
        <ele>73.4</ele>
        <time>2021-05-29 16:00:08</time>
      </trkpt>
      <trkpt lat="43.26073" lon="-2.6888">
        <ele>73.8</ele>
        <time>2021-05-29 16:00:09</time>
      </trkpt>
      <trkpt lat="43.2607" lon="-2.68884">
        <ele>74.2</ele>
        <time>2021-05-29 16:00:10</time>
      </trkpt>
      <trkpt lat="43.26068" lon="-2.68887">
        <ele>74.6</ele>
        <time>2021-05-29 16:00:11</time>
      </trkpt>
      <trkpt lat="43.26066" lon="-2.68891">
        <ele>75</ele>
        <time>2021-05-29 16:00:12</time>
      </trkpt>
      <trkpt lat="43.26064" lon="-2.68895">
        <ele>75.4</ele>
        <time>2021-05-29 16:00:13</time>
      </trkpt>
      <trkpt lat="43.26062" lon="-2.68898">
        <ele>75.8</ele>
        <time>2021-05-29 16:00:14</time>
      </trkpt>
      <trkpt lat="43.2606" lon="-2.68902">
        <ele>76</ele>
        <time>2021-05-29 16:00:15</time>
      </trkpt>
      <trkpt lat="43.26058" lon="-2.68906">
        <ele>76.4</ele>
        <time>2021-05-29 16:00:16</time>
      </trkpt>
      <trkpt lat="43.26056" lon="-2.68909">
        <ele>76.6</ele>
        <time>2021-05-29 16:00:17</time>
      </trkpt>
      <trkpt lat="43.26053" lon="-2.68912">
        <ele>77</ele>
        <time>2021-05-29 16:00:18</time>
      </trkpt>
      <trkpt lat="43.26051" lon="-2.68915">
        <ele>77.2</ele>
        <time>2021-05-29 16:00:19</time>
      </trkpt>
      <trkpt lat="43.26048" lon="-2.68918">
        <ele>77.6</ele>
        <time>2021-05-29 16:00:20</time>
      </trkpt>
      <trkpt lat="43.26046" lon="-2.6892">
        <ele>77.8</ele>
        <time>2021-05-29 16:00:21</time>
      </trkpt>
      <trkpt lat="43.26043" lon="-2.68922">
        <ele>78</ele>
        <time>2021-05-29 16:00:22</time>
      </trkpt>
      <trkpt lat="43.2604" lon="-2.68924">
        <ele>78.4</ele>
        <time>2021-05-29 16:00:23</time>
      </trkpt>
      <trkpt lat="43.26037" lon="-2.68925">
        <ele>78.8</ele>
        <time>2021-05-29 16:00:24</time>
      </trkpt>
      <trkpt lat="43.26034" lon="-2.68927">
        <ele>79</ele>
        <time>2021-05-29 16:00:25</time>
      </trkpt>
      <trkpt lat="43.26031" lon="-2.68928">
        <ele>79.6</ele>
        <time>2021-05-29 16:00:26</time>
      </trkpt>
      <trkpt lat="43.26027" lon="-2.6893">
        <ele>79.8</ele>
        <time>2021-05-29 16:00:27</time>
      </trkpt>
      <trkpt lat="43.26024" lon="-2.68931">
        <ele>80.2</ele>
        <time>2021-05-29 16:00:28</time>
      </trkpt>
      <trkpt lat="43.2602" lon="-2.68932">
        <ele>80.4</ele>
        <time>2021-05-29 16:00:29</time>
      </trkpt>
      <trkpt lat="43.26016" lon="-2.68932">
        <ele>80.6</ele>
        <time>2021-05-29 16:00:30</time>
      </trkpt>
      <trkpt lat="43.26013" lon="-2.68933">
        <ele>80.8</ele>
        <time>2021-05-29 16:00:31</time>
      </trkpt>
      <trkpt lat="43.26009" lon="-2.68934">
        <ele>81.2</ele>
        <time>2021-05-29 16:00:32</time>
      </trkpt>
      <trkpt lat="43.26005" lon="-2.68935">
        <ele>81.6</ele>
        <time>2021-05-29 16:00:33</time>
      </trkpt>
      <trkpt lat="43.26001" lon="-2.68935">
        <ele>81.6</ele>
        <time>2021-05-29 16:00:34</time>
      </trkpt>
      <trkpt lat="43.25998" lon="-2.68936">
        <ele>81.8</ele>
        <time>2021-05-29 16:00:35</time>
      </trkpt>
      <trkpt lat="43.25994" lon="-2.68937">
        <ele>82</ele>
        <time>2021-05-29 16:00:36</time>
      </trkpt>
      <trkpt lat="43.2599" lon="-2.68937">
        <ele>82.2</ele>
        <time>2021-05-29 16:00:37</time>
      </trkpt>
      <trkpt lat="43.25987" lon="-2.68938">
        <ele>82.4</ele>
        <time>2021-05-29 16:00:38</time>
      </trkpt>
      <trkpt lat="43.25983" lon="-2.68939">
        <ele>82.6</ele>
        <time>2021-05-29 16:00:39</time>
      </trkpt>
      <trkpt lat="43.2598" lon="-2.68941">
        <ele>82.8</ele>
        <time>2021-05-29 16:00:40</time>
      </trkpt>
      <trkpt lat="43.25976" lon="-2.68943">
        <ele>83</ele>
        <time>2021-05-29 16:00:41</time>
      </trkpt>
      <trkpt lat="43.25973" lon="-2.68945">
        <ele>83.2</ele>
        <time>2021-05-29 16:00:42</time>
      </trkpt>
      <trkpt lat="43.2597" lon="-2.68947">
        <ele>83.4</ele>
        <time>2021-05-29 16:00:43</time>
      </trkpt>
      <trkpt lat="43.25967" lon="-2.68949">
        <ele>83.6</ele>
        <time>2021-05-29 16:00:44</time>
      </trkpt>
      <trkpt lat="43.25964" lon="-2.68951">
        <ele>83.8</ele>
        <time>2021-05-29 16:00:45</time>
      </trkpt>
      <trkpt lat="43.25961" lon="-2.68954">
        <ele>84</ele>
        <time>2021-05-29 16:00:46</time>
      </trkpt>
      <trkpt lat="43.25958" lon="-2.68957">
        <ele>84.4</ele>
        <time>2021-05-29 16:00:47</time>
      </trkpt>
      <trkpt lat="43.25955" lon="-2.68961">
        <ele>84.8</ele>
        <time>2021-05-29 16:00:48</time>
      </trkpt>
      <trkpt lat="43.25953" lon="-2.68964">
        <ele>85</ele>
        <time>2021-05-29 16:00:49</time>
      </trkpt>
      <trkpt lat="43.2595" lon="-2.68967">
        <ele>85.2</ele>
        <time>2021-05-29 16:00:50</time>
      </trkpt>
      <trkpt lat="43.25948" lon="-2.68971">
        <ele>85.6</ele>
        <time>2021-05-29 16:00:51</time>
      </trkpt>
      <trkpt lat="43.25946" lon="-2.68974">
        <ele>85.8</ele>
        <time>2021-05-29 16:00:52</time>
      </trkpt>
      <trkpt lat="43.25943" lon="-2.68978">
        <ele>86</ele>
        <time>2021-05-29 16:00:53</time>
      </trkpt>
      <trkpt lat="43.2594" lon="-2.68982">
        <ele>86.4</ele>
        <time>2021-05-29 16:00:54</time>
      </trkpt>
      <trkpt lat="43.25938" lon="-2.68985">
        <ele>86.8</ele>
        <time>2021-05-29 16:00:55</time>
      </trkpt>
      <trkpt lat="43.25935" lon="-2.68989">
        <ele>87</ele>
        <time>2021-05-29 16:00:56</time>
      </trkpt>
      <trkpt lat="43.25933" lon="-2.68992">
        <ele>87.4</ele>
        <time>2021-05-29 16:00:57</time>
      </trkpt>
      <trkpt lat="43.2593" lon="-2.68995">
        <ele>87.6</ele>
        <time>2021-05-29 16:00:58</time>
      </trkpt>
      <trkpt lat="43.25928" lon="-2.68998">
        <ele>88</ele>
        <time>2021-05-29 16:00:59</time>
      </trkpt>
      <trkpt lat="43.25925" lon="-2.69002">
        <ele>88.4</ele>
        <time>2021-05-29 16:01:00</time>
      </trkpt>
      <trkpt lat="43.25923" lon="-2.69005">
        <ele>88.8</ele>
        <time>2021-05-29 16:01:01</time>
      </trkpt>
      <trkpt lat="43.2592" lon="-2.69008">
        <ele>89</ele>
        <time>2021-05-29 16:01:02</time>
      </trkpt>
      <trkpt lat="43.25918" lon="-2.69011">
        <ele>89.4</ele>
        <time>2021-05-29 16:01:03</time>
      </trkpt>
      <trkpt lat="43.25915" lon="-2.69013">
        <ele>89.6</ele>
        <time>2021-05-29 16:01:04</time>
      </trkpt>
      <trkpt lat="43.25913" lon="-2.69016">
        <ele>89.8</ele>
        <time>2021-05-29 16:01:05</time>
      </trkpt>
      <trkpt lat="43.2591" lon="-2.69019">
        <ele>90.2</ele>
        <time>2021-05-29 16:01:06</time>
      </trkpt>
      <trkpt lat="43.25907" lon="-2.69021">
        <ele>90.4</ele>
        <time>2021-05-29 16:01:07</time>
      </trkpt>
      <trkpt lat="43.25904" lon="-2.69024">
        <ele>90.6</ele>
        <time>2021-05-29 16:01:08</time>
      </trkpt>
      <trkpt lat="43.25902" lon="-2.69027">
        <ele>91</ele>
        <time>2021-05-29 16:01:09</time>
      </trkpt>
      <trkpt lat="43.25899" lon="-2.69029">
        <ele>91.2</ele>
        <time>2021-05-29 16:01:10</time>
      </trkpt>
      <trkpt lat="43.25896" lon="-2.69031">
        <ele>91.6</ele>
        <time>2021-05-29 16:01:11</time>
      </trkpt>
      <trkpt lat="43.25894" lon="-2.69033">
        <ele>91.8</ele>
        <time>2021-05-29 16:01:12</time>
      </trkpt>
      <trkpt lat="43.25891" lon="-2.69036">
        <ele>92.2</ele>
        <time>2021-05-29 16:01:13</time>
      </trkpt>
      <trkpt lat="43.25888" lon="-2.69038">
        <ele>92.4</ele>
        <time>2021-05-29 16:01:14</time>
      </trkpt>
      <trkpt lat="43.25885" lon="-2.6904">
        <ele>92.6</ele>
        <time>2021-05-29 16:01:15</time>
      </trkpt>
      <trkpt lat="43.25882" lon="-2.69042">
        <ele>93</ele>
        <time>2021-05-29 16:01:16</time>
      </trkpt>
      <trkpt lat="43.25879" lon="-2.69044">
        <ele>93.2</ele>
        <time>2021-05-29 16:01:17</time>
      </trkpt>
      <trkpt lat="43.25876" lon="-2.69046">
        <ele>93.6</ele>
        <time>2021-05-29 16:01:18</time>
      </trkpt>
      <trkpt lat="43.25873" lon="-2.69048">
        <ele>93.8</ele>
        <time>2021-05-29 16:01:19</time>
      </trkpt>
      <trkpt lat="43.2587" lon="-2.6905">
        <ele>94</ele>
        <time>2021-05-29 16:01:20</time>
      </trkpt>
      <trkpt lat="43.25868" lon="-2.69052">
        <ele>94.4</ele>
        <time>2021-05-29 16:01:21</time>
      </trkpt>
      <trkpt lat="43.25865" lon="-2.69054">
        <ele>94.6</ele>
        <time>2021-05-29 16:01:22</time>
      </trkpt>
      <trkpt lat="43.25862" lon="-2.69057">
        <ele>95.2</ele>
        <time>2021-05-29 16:01:23</time>
      </trkpt>
      <trkpt lat="43.25859" lon="-2.69059">
        <ele>95.4</ele>
        <time>2021-05-29 16:01:24</time>
      </trkpt>
      <trkpt lat="43.25856" lon="-2.69061">
        <ele>95.6</ele>
        <time>2021-05-29 16:01:25</time>
      </trkpt>
      <trkpt lat="43.25854" lon="-2.69063">
        <ele>95.8</ele>
        <time>2021-05-29 16:01:26</time>
      </trkpt>
      <trkpt lat="43.25851" lon="-2.69066">
        <ele>96.2</ele>
        <time>2021-05-29 16:01:27</time>
      </trkpt>
      <trkpt lat="43.25848" lon="-2.69068">
        <ele>96.4</ele>
        <time>2021-05-29 16:01:28</time>
      </trkpt>
      <trkpt lat="43.25845" lon="-2.6907">
        <ele>96.6</ele>
        <time>2021-05-29 16:01:29</time>
      </trkpt>
      <trkpt lat="43.25843" lon="-2.69073">
        <ele>97</ele>
        <time>2021-05-29 16:01:30</time>
      </trkpt>
      <trkpt lat="43.2584" lon="-2.69075">
        <ele>97.2</ele>
        <time>2021-05-29 16:01:31</time>
      </trkpt>
      <trkpt lat="43.25837" lon="-2.69078">
        <ele>97.6</ele>
        <time>2021-05-29 16:01:32</time>
      </trkpt>
      <trkpt lat="43.25834" lon="-2.6908">
        <ele>97.8</ele>
        <time>2021-05-29 16:01:33</time>
      </trkpt>
      <trkpt lat="43.25832" lon="-2.69083">
        <ele>98</ele>
        <time>2021-05-29 16:01:34</time>
      </trkpt>
      <trkpt lat="43.25829" lon="-2.69086">
        <ele>98.8</ele>
        <time>2021-05-29 16:01:35</time>
      </trkpt>
      <trkpt lat="43.25826" lon="-2.69088">
        <ele>99</ele>
        <time>2021-05-29 16:01:36</time>
      </trkpt>
      <trkpt lat="43.25823" lon="-2.69091">
        <ele>99.2</ele>
        <time>2021-05-29 16:01:37</time>
      </trkpt>
      <trkpt lat="43.2582" lon="-2.69094">
        <ele>99.6</ele>
        <time>2021-05-29 16:01:38</time>
      </trkpt>
      <trkpt lat="43.25817" lon="-2.69096">
        <ele>99.8</ele>
        <time>2021-05-29 16:01:39</time>
      </trkpt>
      <trkpt lat="43.25814" lon="-2.69098">
        <ele>100.2</ele>
        <time>2021-05-29 16:01:40</time>
      </trkpt>
      <trkpt lat="43.25812" lon="-2.69101">
        <ele>100.6</ele>
        <time>2021-05-29 16:01:41</time>
      </trkpt>
      <trkpt lat="43.25809" lon="-2.69103">
        <ele>100.8</ele>
        <time>2021-05-29 16:01:42</time>
      </trkpt>
      <trkpt lat="43.25806" lon="-2.69106">
        <ele>101</ele>
        <time>2021-05-29 16:01:43</time>
      </trkpt>
      <trkpt lat="43.25803" lon="-2.69108">
        <ele>101.4</ele>
        <time>2021-05-29 16:01:44</time>
      </trkpt>
      <trkpt lat="43.258" lon="-2.69111">
        <ele>101.6</ele>
        <time>2021-05-29 16:01:45</time>
      </trkpt>
      <trkpt lat="43.25796" lon="-2.69113">
        <ele>101.8</ele>
        <time>2021-05-29 16:01:46</time>
      </trkpt>
      <trkpt lat="43.25793" lon="-2.69116">
        <ele>102</ele>
        <time>2021-05-29 16:01:47</time>
      </trkpt>
      <trkpt lat="43.2579" lon="-2.69118">
        <ele>102.4</ele>
        <time>2021-05-29 16:01:48</time>
      </trkpt>
      <trkpt lat="43.25787" lon="-2.6912">
        <ele>102.6</ele>
        <time>2021-05-29 16:01:49</time>
      </trkpt>
      <trkpt lat="43.25783" lon="-2.69122">
        <ele>102.8</ele>
        <time>2021-05-29 16:01:50</time>
      </trkpt>
      <trkpt lat="43.2578" lon="-2.69123">
        <ele>103.2</ele>
        <time>2021-05-29 16:01:51</time>
      </trkpt>
      <trkpt lat="43.25777" lon="-2.69125">
        <ele>103.4</ele>
        <time>2021-05-29 16:01:52</time>
      </trkpt>
      <trkpt lat="43.25774" lon="-2.69126">
        <ele>103.6</ele>
        <time>2021-05-29 16:01:53</time>
      </trkpt>
      <trkpt lat="43.2577" lon="-2.69128">
        <ele>103.8</ele>
        <time>2021-05-29 16:01:54</time>
      </trkpt>
      <trkpt lat="43.25767" lon="-2.6913">
        <ele>103.8</ele>
        <time>2021-05-29 16:01:55</time>
      </trkpt>
      <trkpt lat="43.25764" lon="-2.69131">
        <ele>104.2</ele>
        <time>2021-05-29 16:01:56</time>
      </trkpt>
      <trkpt lat="43.25761" lon="-2.69133">
        <ele>104.4</ele>
        <time>2021-05-29 16:01:57</time>
      </trkpt>
      <trkpt lat="43.25757" lon="-2.69134">
        <ele>104.6</ele>
        <time>2021-05-29 16:01:58</time>
      </trkpt>
      <trkpt lat="43.25754" lon="-2.69136">
        <ele>104.8</ele>
        <time>2021-05-29 16:01:59</time>
      </trkpt>
      <trkpt lat="43.25751" lon="-2.69137">
        <ele>105.4</ele>
        <time>2021-05-29 16:02:00</time>
      </trkpt>
      <trkpt lat="43.25748" lon="-2.69139">
        <ele>105.6</ele>
        <time>2021-05-29 16:02:01</time>
      </trkpt>
      <trkpt lat="43.25744" lon="-2.6914">
        <ele>105.8</ele>
        <time>2021-05-29 16:02:02</time>
      </trkpt>
      <trkpt lat="43.25741" lon="-2.69141">
        <ele>106</ele>
        <time>2021-05-29 16:02:03</time>
      </trkpt>
      <trkpt lat="43.25738" lon="-2.69142">
        <ele>106.2</ele>
        <time>2021-05-29 16:02:04</time>
      </trkpt>
      <trkpt lat="43.25735" lon="-2.69143">
        <ele>106.4</ele>
        <time>2021-05-29 16:02:05</time>
      </trkpt>
      <trkpt lat="43.25732" lon="-2.69144">
        <ele>106.6</ele>
        <time>2021-05-29 16:02:06</time>
      </trkpt>
      <trkpt lat="43.25729" lon="-2.69145">
        <ele>107</ele>
        <time>2021-05-29 16:02:07</time>
      </trkpt>
      <trkpt lat="43.25725" lon="-2.69145">
        <ele>107.2</ele>
        <time>2021-05-29 16:02:08</time>
      </trkpt>
      <trkpt lat="43.25722" lon="-2.69146">
        <ele>107.8</ele>
        <time>2021-05-29 16:02:09</time>
      </trkpt>
      <trkpt lat="43.25718" lon="-2.69147">
        <ele>108</ele>
        <time>2021-05-29 16:02:10</time>
      </trkpt>
      <trkpt lat="43.25714" lon="-2.69147">
        <ele>108.2</ele>
        <time>2021-05-29 16:02:11</time>
      </trkpt>
      <trkpt lat="43.25711" lon="-2.69147">
        <ele>108.4</ele>
        <time>2021-05-29 16:02:12</time>
      </trkpt>
      <trkpt lat="43.25707" lon="-2.69147">
        <ele>108.6</ele>
        <time>2021-05-29 16:02:13</time>
      </trkpt>
      <trkpt lat="43.25703" lon="-2.69148">
        <ele>108.8</ele>
        <time>2021-05-29 16:02:14</time>
      </trkpt>
      <trkpt lat="43.25699" lon="-2.69148">
        <ele>109.2</ele>
        <time>2021-05-29 16:02:15</time>
      </trkpt>
      <trkpt lat="43.25695" lon="-2.69147">
        <ele>109.4</ele>
        <time>2021-05-29 16:02:16</time>
      </trkpt>
      <trkpt lat="43.25691" lon="-2.69147">
        <ele>109.8</ele>
        <time>2021-05-29 16:02:17</time>
      </trkpt>
      <trkpt lat="43.25687" lon="-2.69147">
        <ele>110.4</ele>
        <time>2021-05-29 16:02:18</time>
      </trkpt>
      <trkpt lat="43.25684" lon="-2.69146">
        <ele>110.6</ele>
        <time>2021-05-29 16:02:19</time>
      </trkpt>
      <trkpt lat="43.2568" lon="-2.69145">
        <ele>111</ele>
        <time>2021-05-29 16:02:20</time>
      </trkpt>
      <trkpt lat="43.25676" lon="-2.69144">
        <ele>111.2</ele>
        <time>2021-05-29 16:02:21</time>
      </trkpt>
      <trkpt lat="43.25672" lon="-2.69143">
        <ele>111.4</ele>
        <time>2021-05-29 16:02:22</time>
      </trkpt>
      <trkpt lat="43.25668" lon="-2.69142">
        <ele>111.4</ele>
        <time>2021-05-29 16:02:23</time>
      </trkpt>
      <trkpt lat="43.25664" lon="-2.6914">
        <ele>111.8</ele>
        <time>2021-05-29 16:02:24</time>
      </trkpt>
      <trkpt lat="43.2566" lon="-2.69139">
        <ele>112.2</ele>
        <time>2021-05-29 16:02:25</time>
      </trkpt>
      <trkpt lat="43.25656" lon="-2.69137">
        <ele>112.4</ele>
        <time>2021-05-29 16:02:26</time>
      </trkpt>
      <trkpt lat="43.25652" lon="-2.69135">
        <ele>112.8</ele>
        <time>2021-05-29 16:02:27</time>
      </trkpt>
      <trkpt lat="43.25647" lon="-2.69133">
        <ele>113</ele>
        <time>2021-05-29 16:02:28</time>
      </trkpt>
      <trkpt lat="43.25643" lon="-2.6913">
        <ele>113</ele>
        <time>2021-05-29 16:02:29</time>
      </trkpt>
      <trkpt lat="43.25639" lon="-2.69128">
        <ele>113</ele>
        <time>2021-05-29 16:02:30</time>
      </trkpt>
      <trkpt lat="43.25635" lon="-2.69125">
        <ele>113.2</ele>
        <time>2021-05-29 16:02:31</time>
      </trkpt>
      <trkpt lat="43.25631" lon="-2.69123">
        <ele>113.6</ele>
        <time>2021-05-29 16:02:32</time>
      </trkpt>
      <trkpt lat="43.25626" lon="-2.6912">
        <ele>113.8</ele>
        <time>2021-05-29 16:02:33</time>
      </trkpt>
      <trkpt lat="43.25622" lon="-2.69117">
        <ele>114</ele>
        <time>2021-05-29 16:02:34</time>
      </trkpt>
      <trkpt lat="43.25618" lon="-2.69114">
        <ele>114.2</ele>
        <time>2021-05-29 16:02:35</time>
      </trkpt>
      <trkpt lat="43.25614" lon="-2.69112">
        <ele>114.4</ele>
        <time>2021-05-29 16:02:36</time>
      </trkpt>
      <trkpt lat="43.2561" lon="-2.69109">
        <ele>114.6</ele>
        <time>2021-05-29 16:02:37</time>
      </trkpt>
      <trkpt lat="43.25606" lon="-2.69106">
        <ele>114.8</ele>
        <time>2021-05-29 16:02:38</time>
      </trkpt>
      <trkpt lat="43.25601" lon="-2.69103">
        <ele>114.8</ele>
        <time>2021-05-29 16:02:39</time>
      </trkpt>
      <trkpt lat="43.25597" lon="-2.691">
        <ele>115</ele>
        <time>2021-05-29 16:02:40</time>
      </trkpt>
      <trkpt lat="43.25593" lon="-2.69098">
        <ele>115.2</ele>
        <time>2021-05-29 16:02:41</time>
      </trkpt>
      <trkpt lat="43.25588" lon="-2.69096">
        <ele>115.6</ele>
        <time>2021-05-29 16:02:42</time>
      </trkpt>
      <trkpt lat="43.25583" lon="-2.69094">
        <ele>115.8</ele>
        <time>2021-05-29 16:02:43</time>
      </trkpt>
      <trkpt lat="43.25578" lon="-2.69092">
        <ele>116.2</ele>
        <time>2021-05-29 16:02:44</time>
      </trkpt>
      <trkpt lat="43.25573" lon="-2.69091">
        <ele>116.4</ele>
        <time>2021-05-29 16:02:45</time>
      </trkpt>
      <trkpt lat="43.25569" lon="-2.6909">
        <ele>116.6</ele>
        <time>2021-05-29 16:02:46</time>
      </trkpt>
      <trkpt lat="43.25564" lon="-2.69089">
        <ele>116.6</ele>
        <time>2021-05-29 16:02:47</time>
      </trkpt>
      <trkpt lat="43.25559" lon="-2.69089">
        <ele>116.8</ele>
        <time>2021-05-29 16:02:48</time>
      </trkpt>
      <trkpt lat="43.25554" lon="-2.69089">
        <ele>117</ele>
        <time>2021-05-29 16:02:49</time>
      </trkpt>
      <trkpt lat="43.25548" lon="-2.6909">
        <ele>117.2</ele>
        <time>2021-05-29 16:02:50</time>
      </trkpt>
      <trkpt lat="43.25543" lon="-2.6909">
        <ele>117.4</ele>
        <time>2021-05-29 16:02:51</time>
      </trkpt>
      <trkpt lat="43.25538" lon="-2.6909">
        <ele>117.8</ele>
        <time>2021-05-29 16:02:52</time>
      </trkpt>
      <trkpt lat="43.25532" lon="-2.69091">
        <ele>118</ele>
        <time>2021-05-29 16:02:53</time>
      </trkpt>
      <trkpt lat="43.25527" lon="-2.69092">
        <ele>118.2</ele>
        <time>2021-05-29 16:02:54</time>
      </trkpt>
      <trkpt lat="43.25521" lon="-2.69092">
        <ele>118.6</ele>
        <time>2021-05-29 16:02:55</time>
      </trkpt>
      <trkpt lat="43.25515" lon="-2.69092">
        <ele>118.8</ele>
        <time>2021-05-29 16:02:56</time>
      </trkpt>
      <trkpt lat="43.25509" lon="-2.69091">
        <ele>118.8</ele>
        <time>2021-05-29 16:02:57</time>
      </trkpt>
      <trkpt lat="43.25502" lon="-2.6909">
        <ele>118.8</ele>
        <time>2021-05-29 16:02:58</time>
      </trkpt>
      <trkpt lat="43.25495" lon="-2.69088">
        <ele>118.8</ele>
        <time>2021-05-29 16:02:59</time>
      </trkpt>
      <trkpt lat="43.25488" lon="-2.69086">
        <ele>118.8</ele>
        <time>2021-05-29 16:03:00</time>
      </trkpt>
      <trkpt lat="43.2548" lon="-2.69083">
        <ele>118.8</ele>
        <time>2021-05-29 16:03:01</time>
      </trkpt>
      <trkpt lat="43.25473" lon="-2.69081">
        <ele>118.8</ele>
        <time>2021-05-29 16:03:02</time>
      </trkpt>
      <trkpt lat="43.25465" lon="-2.69078">
        <ele>118.8</ele>
        <time>2021-05-29 16:03:03</time>
      </trkpt>
      <trkpt lat="43.25456" lon="-2.69076">
        <ele>118.8</ele>
        <time>2021-05-29 16:03:04</time>
      </trkpt>
      <trkpt lat="43.25446" lon="-2.69074">
        <ele>118.8</ele>
        <time>2021-05-29 16:03:05</time>
      </trkpt>
      <trkpt lat="43.25436" lon="-2.69073">
        <ele>118.8</ele>
        <time>2021-05-29 16:03:06</time>
      </trkpt>
      <trkpt lat="43.25426" lon="-2.69073">
        <ele>118.8</ele>
        <time>2021-05-29 16:03:07</time>
      </trkpt>
      <trkpt lat="43.25415" lon="-2.69074">
        <ele>118.6</ele>
        <time>2021-05-29 16:03:08</time>
      </trkpt>
      <trkpt lat="43.25405" lon="-2.69076">
        <ele>118.4</ele>
        <time>2021-05-29 16:03:09</time>
      </trkpt>
      <trkpt lat="43.25396" lon="-2.6908">
        <ele>117.8</ele>
        <time>2021-05-29 16:03:10</time>
      </trkpt>
      <trkpt lat="43.25387" lon="-2.69083">
        <ele>117.4</ele>
        <time>2021-05-29 16:03:11</time>
      </trkpt>
      <trkpt lat="43.25379" lon="-2.69087">
        <ele>117.2</ele>
        <time>2021-05-29 16:03:12</time>
      </trkpt>
      <trkpt lat="43.25371" lon="-2.69091">
        <ele>117</ele>
        <time>2021-05-29 16:03:13</time>
      </trkpt>
      <trkpt lat="43.25364" lon="-2.69095">
        <ele>116.8</ele>
        <time>2021-05-29 16:03:14</time>
      </trkpt>
      <trkpt lat="43.25358" lon="-2.691">
        <ele>116.8</ele>
        <time>2021-05-29 16:03:15</time>
      </trkpt>
      <trkpt lat="43.25352" lon="-2.69105">
        <ele>116.8</ele>
        <time>2021-05-29 16:03:16</time>
      </trkpt>
      <trkpt lat="43.25346" lon="-2.6911">
        <ele>116.8</ele>
        <time>2021-05-29 16:03:17</time>
      </trkpt>
      <trkpt lat="43.25341" lon="-2.69115">
        <ele>116.8</ele>
        <time>2021-05-29 16:03:18</time>
      </trkpt>
      <trkpt lat="43.25336" lon="-2.6912">
        <ele>116.8</ele>
        <time>2021-05-29 16:03:19</time>
      </trkpt>
      <trkpt lat="43.25331" lon="-2.69125">
        <ele>116.8</ele>
        <time>2021-05-29 16:03:20</time>
      </trkpt>
      <trkpt lat="43.25327" lon="-2.69131">
        <ele>116.8</ele>
        <time>2021-05-29 16:03:21</time>
      </trkpt>
      <trkpt lat="43.25322" lon="-2.69137">
        <ele>117</ele>
        <time>2021-05-29 16:03:22</time>
      </trkpt>
      <trkpt lat="43.25317" lon="-2.69143">
        <ele>117.4</ele>
        <time>2021-05-29 16:03:23</time>
      </trkpt>
      <trkpt lat="43.25312" lon="-2.69149">
        <ele>118</ele>
        <time>2021-05-29 16:03:24</time>
      </trkpt>
      <trkpt lat="43.25308" lon="-2.69155">
        <ele>118.6</ele>
        <time>2021-05-29 16:03:25</time>
      </trkpt>
      <trkpt lat="43.25303" lon="-2.69162">
        <ele>119.2</ele>
        <time>2021-05-29 16:03:26</time>
      </trkpt>
      <trkpt lat="43.25299" lon="-2.6917">
        <ele>119.4</ele>
        <time>2021-05-29 16:03:27</time>
      </trkpt>
      <trkpt lat="43.25294" lon="-2.69177">
        <ele>119.8</ele>
        <time>2021-05-29 16:03:28</time>
      </trkpt>
      <trkpt lat="43.2529" lon="-2.69184">
        <ele>120</ele>
        <time>2021-05-29 16:03:29</time>
      </trkpt>
      <trkpt lat="43.25285" lon="-2.69192">
        <ele>120.2</ele>
        <time>2021-05-29 16:03:30</time>
      </trkpt>
      <trkpt lat="43.25281" lon="-2.692">
        <ele>120.6</ele>
        <time>2021-05-29 16:03:31</time>
      </trkpt>
      <trkpt lat="43.25276" lon="-2.69208">
        <ele>120.8</ele>
        <time>2021-05-29 16:03:32</time>
      </trkpt>
      <trkpt lat="43.25271" lon="-2.69217">
        <ele>121</ele>
        <time>2021-05-29 16:03:33</time>
      </trkpt>
      <trkpt lat="43.25267" lon="-2.69226">
        <ele>121</ele>
        <time>2021-05-29 16:03:34</time>
      </trkpt>
      <trkpt lat="43.25262" lon="-2.69236">
        <ele>121</ele>
        <time>2021-05-29 16:03:35</time>
      </trkpt>
      <trkpt lat="43.25256" lon="-2.69246">
        <ele>121</ele>
        <time>2021-05-29 16:03:36</time>
      </trkpt>
      <trkpt lat="43.25251" lon="-2.69256">
        <ele>121</ele>
        <time>2021-05-29 16:03:37</time>
      </trkpt>
      <trkpt lat="43.25245" lon="-2.69266">
        <ele>121</ele>
        <time>2021-05-29 16:03:38</time>
      </trkpt>
      <trkpt lat="43.25239" lon="-2.69277">
        <ele>121</ele>
        <time>2021-05-29 16:03:39</time>
      </trkpt>
      <trkpt lat="43.25233" lon="-2.69288">
        <ele>121</ele>
        <time>2021-05-29 16:03:40</time>
      </trkpt>
      <trkpt lat="43.25226" lon="-2.69299">
        <ele>121</ele>
        <time>2021-05-29 16:03:41</time>
      </trkpt>
      <trkpt lat="43.2522" lon="-2.69311">
        <ele>120.8</ele>
        <time>2021-05-29 16:03:42</time>
      </trkpt>
      <trkpt lat="43.25214" lon="-2.69323">
        <ele>120.6</ele>
        <time>2021-05-29 16:03:43</time>
      </trkpt>
      <trkpt lat="43.25208" lon="-2.69334">
        <ele>120</ele>
        <time>2021-05-29 16:03:44</time>
      </trkpt>
      <trkpt lat="43.25202" lon="-2.69345">
        <ele>119.6</ele>
        <time>2021-05-29 16:03:45</time>
      </trkpt>
      <trkpt lat="43.25195" lon="-2.69357">
        <ele>119.2</ele>
        <time>2021-05-29 16:03:46</time>
      </trkpt>
      <trkpt lat="43.25189" lon="-2.69368">
        <ele>118.6</ele>
        <time>2021-05-29 16:03:47</time>
      </trkpt>
      <trkpt lat="43.25184" lon="-2.69379">
        <ele>118.4</ele>
        <time>2021-05-29 16:03:48</time>
      </trkpt>
      <trkpt lat="43.25178" lon="-2.69389">
        <ele>118.4</ele>
        <time>2021-05-29 16:03:49</time>
      </trkpt>
      <trkpt lat="43.25172" lon="-2.694">
        <ele>118.2</ele>
        <time>2021-05-29 16:03:50</time>
      </trkpt>
      <trkpt lat="43.25167" lon="-2.69409">
        <ele>118.2</ele>
        <time>2021-05-29 16:03:51</time>
      </trkpt>
      <trkpt lat="43.25161" lon="-2.69419">
        <ele>118.2</ele>
        <time>2021-05-29 16:03:52</time>
      </trkpt>
      <trkpt lat="43.25156" lon="-2.69428">
        <ele>118.2</ele>
        <time>2021-05-29 16:03:53</time>
      </trkpt>
      <trkpt lat="43.25152" lon="-2.69436">
        <ele>118.2</ele>
        <time>2021-05-29 16:03:54</time>
      </trkpt>
      <trkpt lat="43.25147" lon="-2.69444">
        <ele>118.2</ele>
        <time>2021-05-29 16:03:55</time>
      </trkpt>
      <trkpt lat="43.25143" lon="-2.69452">
        <ele>118.2</ele>
        <time>2021-05-29 16:03:56</time>
      </trkpt>
      <trkpt lat="43.25139" lon="-2.6946">
        <ele>118.2</ele>
        <time>2021-05-29 16:03:57</time>
      </trkpt>
      <trkpt lat="43.25135" lon="-2.69467">
        <ele>118.4</ele>
        <time>2021-05-29 16:03:58</time>
      </trkpt>
      <trkpt lat="43.2513" lon="-2.69475">
        <ele>118.6</ele>
        <time>2021-05-29 16:03:59</time>
      </trkpt>
      <trkpt lat="43.25126" lon="-2.69482">
        <ele>119</ele>
        <time>2021-05-29 16:04:00</time>
      </trkpt>
      <trkpt lat="43.25122" lon="-2.6949">
        <ele>119.2</ele>
        <time>2021-05-29 16:04:01</time>
      </trkpt>
      <trkpt lat="43.25117" lon="-2.69497">
        <ele>119.6</ele>
        <time>2021-05-29 16:04:02</time>
      </trkpt>
      <trkpt lat="43.25113" lon="-2.69505">
        <ele>120.2</ele>
        <time>2021-05-29 16:04:03</time>
      </trkpt>
      <trkpt lat="43.25108" lon="-2.69514">
        <ele>120.6</ele>
        <time>2021-05-29 16:04:04</time>
      </trkpt>
      <trkpt lat="43.25104" lon="-2.69522">
        <ele>121</ele>
        <time>2021-05-29 16:04:05</time>
      </trkpt>
      <trkpt lat="43.25099" lon="-2.6953">
        <ele>121.4</ele>
        <time>2021-05-29 16:04:06</time>
      </trkpt>
      <trkpt lat="43.25095" lon="-2.69539">
        <ele>121.6</ele>
        <time>2021-05-29 16:04:07</time>
      </trkpt>
      <trkpt lat="43.2509" lon="-2.69548">
        <ele>121.8</ele>
        <time>2021-05-29 16:04:08</time>
      </trkpt>
      <trkpt lat="43.25085" lon="-2.69557">
        <ele>121.8</ele>
        <time>2021-05-29 16:04:09</time>
      </trkpt>
      <trkpt lat="43.2508" lon="-2.69566">
        <ele>122</ele>
        <time>2021-05-29 16:04:10</time>
      </trkpt>
      <trkpt lat="43.25075" lon="-2.69576">
        <ele>122</ele>
        <time>2021-05-29 16:04:11</time>
      </trkpt>
      <trkpt lat="43.25069" lon="-2.69585">
        <ele>122</ele>
        <time>2021-05-29 16:04:12</time>
      </trkpt>
      <trkpt lat="43.25064" lon="-2.69595">
        <ele>122</ele>
        <time>2021-05-29 16:04:13</time>
      </trkpt>
      <trkpt lat="43.25059" lon="-2.69605">
        <ele>122</ele>
        <time>2021-05-29 16:04:14</time>
      </trkpt>
      <trkpt lat="43.25053" lon="-2.69615">
        <ele>122</ele>
        <time>2021-05-29 16:04:15</time>
      </trkpt>
      <trkpt lat="43.25048" lon="-2.69625">
        <ele>122</ele>
        <time>2021-05-29 16:04:16</time>
      </trkpt>
      <trkpt lat="43.25043" lon="-2.69635">
        <ele>122</ele>
        <time>2021-05-29 16:04:17</time>
      </trkpt>
      <trkpt lat="43.25038" lon="-2.69644">
        <ele>122</ele>
        <time>2021-05-29 16:04:18</time>
      </trkpt>
      <trkpt lat="43.25032" lon="-2.69654">
        <ele>122</ele>
        <time>2021-05-29 16:04:19</time>
      </trkpt>
      <trkpt lat="43.25028" lon="-2.69663">
        <ele>121.8</ele>
        <time>2021-05-29 16:04:20</time>
      </trkpt>
      <trkpt lat="43.25023" lon="-2.69672">
        <ele>121.8</ele>
        <time>2021-05-29 16:04:21</time>
      </trkpt>
      <trkpt lat="43.25018" lon="-2.69681">
        <ele>121.8</ele>
        <time>2021-05-29 16:04:22</time>
      </trkpt>
      <trkpt lat="43.25013" lon="-2.6969">
        <ele>121.8</ele>
        <time>2021-05-29 16:04:23</time>
      </trkpt>
      <trkpt lat="43.25009" lon="-2.69698">
        <ele>121.8</ele>
        <time>2021-05-29 16:04:24</time>
      </trkpt>
      <trkpt lat="43.25004" lon="-2.69706">
        <ele>121.8</ele>
        <time>2021-05-29 16:04:25</time>
      </trkpt>
      <trkpt lat="43.25" lon="-2.69714">
        <ele>121.8</ele>
        <time>2021-05-29 16:04:26</time>
      </trkpt>
      <trkpt lat="43.24996" lon="-2.69721">
        <ele>121.8</ele>
        <time>2021-05-29 16:04:27</time>
      </trkpt>
      <trkpt lat="43.24992" lon="-2.69729">
        <ele>121.8</ele>
        <time>2021-05-29 16:04:28</time>
      </trkpt>
      <trkpt lat="43.24988" lon="-2.69737">
        <ele>122</ele>
        <time>2021-05-29 16:04:29</time>
      </trkpt>
      <trkpt lat="43.24984" lon="-2.69745">
        <ele>122.4</ele>
        <time>2021-05-29 16:04:30</time>
      </trkpt>
      <trkpt lat="43.24981" lon="-2.69753">
        <ele>122.6</ele>
        <time>2021-05-29 16:04:31</time>
      </trkpt>
      <trkpt lat="43.24977" lon="-2.69762">
        <ele>122.8</ele>
        <time>2021-05-29 16:04:32</time>
      </trkpt>
      <trkpt lat="43.24973" lon="-2.69771">
        <ele>123</ele>
        <time>2021-05-29 16:04:33</time>
      </trkpt>
      <trkpt lat="43.2497" lon="-2.6978">
        <ele>123.2</ele>
        <time>2021-05-29 16:04:34</time>
      </trkpt>
      <trkpt lat="43.24966" lon="-2.6979">
        <ele>123.6</ele>
        <time>2021-05-29 16:04:35</time>
      </trkpt>
      <trkpt lat="43.24962" lon="-2.698">
        <ele>123.6</ele>
        <time>2021-05-29 16:04:36</time>
      </trkpt>
      <trkpt lat="43.24958" lon="-2.6981">
        <ele>123.8</ele>
        <time>2021-05-29 16:04:37</time>
      </trkpt>
      <trkpt lat="43.24954" lon="-2.6982">
        <ele>123.8</ele>
        <time>2021-05-29 16:04:38</time>
      </trkpt>
      <trkpt lat="43.2495" lon="-2.69829">
        <ele>124</ele>
        <time>2021-05-29 16:04:39</time>
      </trkpt>
      <trkpt lat="43.24946" lon="-2.69839">
        <ele>124</ele>
        <time>2021-05-29 16:04:40</time>
      </trkpt>
      <trkpt lat="43.24942" lon="-2.69849">
        <ele>124</ele>
        <time>2021-05-29 16:04:41</time>
      </trkpt>
      <trkpt lat="43.24939" lon="-2.69859">
        <ele>124</ele>
        <time>2021-05-29 16:04:42</time>
      </trkpt>
      <trkpt lat="43.24935" lon="-2.6987">
        <ele>124</ele>
        <time>2021-05-29 16:04:43</time>
      </trkpt>
      <trkpt lat="43.24931" lon="-2.6988">
        <ele>124</ele>
        <time>2021-05-29 16:04:44</time>
      </trkpt>
      <trkpt lat="43.24927" lon="-2.69891">
        <ele>124</ele>
        <time>2021-05-29 16:04:45</time>
      </trkpt>
      <trkpt lat="43.24924" lon="-2.69901">
        <ele>124</ele>
        <time>2021-05-29 16:04:46</time>
      </trkpt>
      <trkpt lat="43.2492" lon="-2.69912">
        <ele>124</ele>
        <time>2021-05-29 16:04:47</time>
      </trkpt>
      <trkpt lat="43.24917" lon="-2.69922">
        <ele>124</ele>
        <time>2021-05-29 16:04:48</time>
      </trkpt>
      <trkpt lat="43.24914" lon="-2.69933">
        <ele>124</ele>
        <time>2021-05-29 16:04:49</time>
      </trkpt>
      <trkpt lat="43.24912" lon="-2.69944">
        <ele>124</ele>
        <time>2021-05-29 16:04:50</time>
      </trkpt>
      <trkpt lat="43.2491" lon="-2.69954">
        <ele>124</ele>
        <time>2021-05-29 16:04:51</time>
      </trkpt>
      <trkpt lat="43.24908" lon="-2.69965">
        <ele>124</ele>
        <time>2021-05-29 16:04:52</time>
      </trkpt>
      <trkpt lat="43.24907" lon="-2.69975">
        <ele>124</ele>
        <time>2021-05-29 16:04:53</time>
      </trkpt>
      <trkpt lat="43.24906" lon="-2.69984">
        <ele>124</ele>
        <time>2021-05-29 16:04:54</time>
      </trkpt>
      <trkpt lat="43.24904" lon="-2.69994">
        <ele>124.2</ele>
        <time>2021-05-29 16:04:55</time>
      </trkpt>
      <trkpt lat="43.24903" lon="-2.70003">
        <ele>124.2</ele>
        <time>2021-05-29 16:04:56</time>
      </trkpt>
      <trkpt lat="43.24902" lon="-2.70011">
        <ele>124.2</ele>
        <time>2021-05-29 16:04:57</time>
      </trkpt>
      <trkpt lat="43.24901" lon="-2.70019">
        <ele>124.2</ele>
        <time>2021-05-29 16:04:58</time>
      </trkpt>
      <trkpt lat="43.24899" lon="-2.70027">
        <ele>124.4</ele>
        <time>2021-05-29 16:04:59</time>
      </trkpt>
      <trkpt lat="43.24898" lon="-2.70035">
        <ele>124.8</ele>
        <time>2021-05-29 16:05:00</time>
      </trkpt>
      <trkpt lat="43.24896" lon="-2.70042">
        <ele>125</ele>
        <time>2021-05-29 16:05:01</time>
      </trkpt>
      <trkpt lat="43.24894" lon="-2.70048">
        <ele>125.4</ele>
        <time>2021-05-29 16:05:02</time>
      </trkpt>
      <trkpt lat="43.24892" lon="-2.70054">
        <ele>125.8</ele>
        <time>2021-05-29 16:05:03</time>
      </trkpt>
      <trkpt lat="43.2489" lon="-2.7006">
        <ele>126</ele>
        <time>2021-05-29 16:05:04</time>
      </trkpt>
      <trkpt lat="43.24887" lon="-2.70065">
        <ele>126.4</ele>
        <time>2021-05-29 16:05:05</time>
      </trkpt>
      <trkpt lat="43.24884" lon="-2.7007">
        <ele>127</ele>
        <time>2021-05-29 16:05:06</time>
      </trkpt>
      <trkpt lat="43.24881" lon="-2.70075">
        <ele>127.4</ele>
        <time>2021-05-29 16:05:07</time>
      </trkpt>
      <trkpt lat="43.24877" lon="-2.70079">
        <ele>127.6</ele>
        <time>2021-05-29 16:05:08</time>
      </trkpt>
      <trkpt lat="43.24873" lon="-2.70083">
        <ele>128</ele>
        <time>2021-05-29 16:05:09</time>
      </trkpt>
      <trkpt lat="43.2487" lon="-2.70087">
        <ele>128.4</ele>
        <time>2021-05-29 16:05:10</time>
      </trkpt>
      <trkpt lat="43.24866" lon="-2.70091">
        <ele>128.8</ele>
        <time>2021-05-29 16:05:11</time>
      </trkpt>
      <trkpt lat="43.24862" lon="-2.70094">
        <ele>129</ele>
        <time>2021-05-29 16:05:12</time>
      </trkpt>
      <trkpt lat="43.24857" lon="-2.70098">
        <ele>129.4</ele>
        <time>2021-05-29 16:05:13</time>
      </trkpt>
      <trkpt lat="43.24853" lon="-2.701">
        <ele>129.8</ele>
        <time>2021-05-29 16:05:14</time>
      </trkpt>
      <trkpt lat="43.24848" lon="-2.70103">
        <ele>130.2</ele>
        <time>2021-05-29 16:05:15</time>
      </trkpt>
      <trkpt lat="43.24843" lon="-2.70106">
        <ele>130.6</ele>
        <time>2021-05-29 16:05:16</time>
      </trkpt>
      <trkpt lat="43.24838" lon="-2.70109">
        <ele>130.8</ele>
        <time>2021-05-29 16:05:17</time>
      </trkpt>
      <trkpt lat="43.24833" lon="-2.70112">
        <ele>131.2</ele>
        <time>2021-05-29 16:05:18</time>
      </trkpt>
      <trkpt lat="43.24828" lon="-2.70115">
        <ele>131.6</ele>
        <time>2021-05-29 16:05:19</time>
      </trkpt>
      <trkpt lat="43.24822" lon="-2.70118">
        <ele>131.8</ele>
        <time>2021-05-29 16:05:20</time>
      </trkpt>
      <trkpt lat="43.24817" lon="-2.70122">
        <ele>132.2</ele>
        <time>2021-05-29 16:05:21</time>
      </trkpt>
      <trkpt lat="43.24811" lon="-2.70125">
        <ele>132.4</ele>
        <time>2021-05-29 16:05:22</time>
      </trkpt>
      <trkpt lat="43.24805" lon="-2.70129">
        <ele>132.6</ele>
        <time>2021-05-29 16:05:23</time>
      </trkpt>
      <trkpt lat="43.24799" lon="-2.70132">
        <ele>132.6</ele>
        <time>2021-05-29 16:05:24</time>
      </trkpt>
      <trkpt lat="43.24793" lon="-2.70136">
        <ele>132.8</ele>
        <time>2021-05-29 16:05:25</time>
      </trkpt>
      <trkpt lat="43.24786" lon="-2.7014">
        <ele>132.8</ele>
        <time>2021-05-29 16:05:26</time>
      </trkpt>
      <trkpt lat="43.2478" lon="-2.70145">
        <ele>133.2</ele>
        <time>2021-05-29 16:05:27</time>
      </trkpt>
      <trkpt lat="43.24772" lon="-2.7015">
        <ele>133.2</ele>
        <time>2021-05-29 16:05:28</time>
      </trkpt>
      <trkpt lat="43.24765" lon="-2.70155">
        <ele>133.2</ele>
        <time>2021-05-29 16:05:29</time>
      </trkpt>
      <trkpt lat="43.24757" lon="-2.70162">
        <ele>133.4</ele>
        <time>2021-05-29 16:05:30</time>
      </trkpt>
      <trkpt lat="43.2475" lon="-2.70169">
        <ele>133.4</ele>
        <time>2021-05-29 16:05:31</time>
      </trkpt>
      <trkpt lat="43.24743" lon="-2.70177">
        <ele>133.4</ele>
        <time>2021-05-29 16:05:32</time>
      </trkpt>
      <trkpt lat="43.24736" lon="-2.70186">
        <ele>133.4</ele>
        <time>2021-05-29 16:05:33</time>
      </trkpt>
      <trkpt lat="43.24729" lon="-2.70196">
        <ele>133.4</ele>
        <time>2021-05-29 16:05:34</time>
      </trkpt>
      <trkpt lat="43.24722" lon="-2.70207">
        <ele>133.4</ele>
        <time>2021-05-29 16:05:35</time>
      </trkpt>
      <trkpt lat="43.24716" lon="-2.70217">
        <ele>133.4</ele>
        <time>2021-05-29 16:05:36</time>
      </trkpt>
      <trkpt lat="43.2471" lon="-2.70227">
        <ele>132.8</ele>
        <time>2021-05-29 16:05:37</time>
      </trkpt>
      <trkpt lat="43.24703" lon="-2.70237">
        <ele>132.6</ele>
        <time>2021-05-29 16:05:38</time>
      </trkpt>
      <trkpt lat="43.24698" lon="-2.70248">
        <ele>132.2</ele>
        <time>2021-05-29 16:05:39</time>
      </trkpt>
      <trkpt lat="43.24692" lon="-2.70259">
        <ele>131.8</ele>
        <time>2021-05-29 16:05:40</time>
      </trkpt>
      <trkpt lat="43.24688" lon="-2.70269">
        <ele>131.6</ele>
        <time>2021-05-29 16:05:41</time>
      </trkpt>
      <trkpt lat="43.24684" lon="-2.7028">
        <ele>131.4</ele>
        <time>2021-05-29 16:05:42</time>
      </trkpt>
      <trkpt lat="43.24682" lon="-2.70291">
        <ele>131.4</ele>
        <time>2021-05-29 16:05:43</time>
      </trkpt>
      <trkpt lat="43.2468" lon="-2.703">
        <ele>131.2</ele>
        <time>2021-05-29 16:05:44</time>
      </trkpt>
      <trkpt lat="43.24678" lon="-2.7031">
        <ele>131.2</ele>
        <time>2021-05-29 16:05:45</time>
      </trkpt>
      <trkpt lat="43.24677" lon="-2.70319">
        <ele>131.2</ele>
        <time>2021-05-29 16:05:46</time>
      </trkpt>
      <trkpt lat="43.24676" lon="-2.70327">
        <ele>131.2</ele>
        <time>2021-05-29 16:05:47</time>
      </trkpt>
      <trkpt lat="43.24676" lon="-2.70335">
        <ele>131.2</ele>
        <time>2021-05-29 16:05:48</time>
      </trkpt>
      <trkpt lat="43.24676" lon="-2.70342">
        <ele>131.2</ele>
        <time>2021-05-29 16:05:49</time>
      </trkpt>
      <trkpt lat="43.24675" lon="-2.70348">
        <ele>131.2</ele>
        <time>2021-05-29 16:05:50</time>
      </trkpt>
      <trkpt lat="43.24675" lon="-2.70355">
        <ele>131.2</ele>
        <time>2021-05-29 16:05:51</time>
      </trkpt>
      <trkpt lat="43.24675" lon="-2.70361">
        <ele>131.4</ele>
        <time>2021-05-29 16:05:52</time>
      </trkpt>
      <trkpt lat="43.24676" lon="-2.70367">
        <ele>131.8</ele>
        <time>2021-05-29 16:05:53</time>
      </trkpt>
      <trkpt lat="43.24676" lon="-2.70373">
        <ele>132.2</ele>
        <time>2021-05-29 16:05:54</time>
      </trkpt>
      <trkpt lat="43.24676" lon="-2.70378">
        <ele>132.6</ele>
        <time>2021-05-29 16:05:55</time>
      </trkpt>
      <trkpt lat="43.24676" lon="-2.70383">
        <ele>133</ele>
        <time>2021-05-29 16:05:56</time>
      </trkpt>
      <trkpt lat="43.24676" lon="-2.70388">
        <ele>133.4</ele>
        <time>2021-05-29 16:05:57</time>
      </trkpt>
      <trkpt lat="43.24676" lon="-2.70393">
        <ele>133.8</ele>
        <time>2021-05-29 16:05:58</time>
      </trkpt>
      <trkpt lat="43.24676" lon="-2.70399">
        <ele>134</ele>
        <time>2021-05-29 16:05:59</time>
      </trkpt>
      <trkpt lat="43.24676" lon="-2.70404">
        <ele>134.6</ele>
        <time>2021-05-29 16:06:00</time>
      </trkpt>
      <trkpt lat="43.24676" lon="-2.7041">
        <ele>134.8</ele>
        <time>2021-05-29 16:06:01</time>
      </trkpt>
      <trkpt lat="43.24676" lon="-2.70415">
        <ele>135.2</ele>
        <time>2021-05-29 16:06:02</time>
      </trkpt>
      <trkpt lat="43.24676" lon="-2.70421">
        <ele>135.6</ele>
        <time>2021-05-29 16:06:03</time>
      </trkpt>
      <trkpt lat="43.24676" lon="-2.70426">
        <ele>135.8</ele>
        <time>2021-05-29 16:06:04</time>
      </trkpt>
      <trkpt lat="43.24675" lon="-2.70432">
        <ele>136.2</ele>
        <time>2021-05-29 16:06:05</time>
      </trkpt>
      <trkpt lat="43.24674" lon="-2.70438">
        <ele>136.4</ele>
        <time>2021-05-29 16:06:06</time>
      </trkpt>
      <trkpt lat="43.24673" lon="-2.70443">
        <ele>136.8</ele>
        <time>2021-05-29 16:06:07</time>
      </trkpt>
      <trkpt lat="43.24672" lon="-2.70448">
        <ele>137</ele>
        <time>2021-05-29 16:06:08</time>
      </trkpt>
      <trkpt lat="43.2467" lon="-2.70454">
        <ele>137.2</ele>
        <time>2021-05-29 16:06:09</time>
      </trkpt>
      <trkpt lat="43.24669" lon="-2.70458">
        <ele>137.6</ele>
        <time>2021-05-29 16:06:10</time>
      </trkpt>
      <trkpt lat="43.24667" lon="-2.70463">
        <ele>138</ele>
        <time>2021-05-29 16:06:11</time>
      </trkpt>
      <trkpt lat="43.24666" lon="-2.70468">
        <ele>138.4</ele>
        <time>2021-05-29 16:06:12</time>
      </trkpt>
      <trkpt lat="43.24664" lon="-2.70472">
        <ele>138.8</ele>
        <time>2021-05-29 16:06:13</time>
      </trkpt>
      <trkpt lat="43.24662" lon="-2.70477">
        <ele>139</ele>
        <time>2021-05-29 16:06:14</time>
      </trkpt>
      <trkpt lat="43.2466" lon="-2.70481">
        <ele>139.4</ele>
        <time>2021-05-29 16:06:15</time>
      </trkpt>
      <trkpt lat="43.24657" lon="-2.70485">
        <ele>139.6</ele>
        <time>2021-05-29 16:06:16</time>
      </trkpt>
      <trkpt lat="43.24655" lon="-2.70488">
        <ele>140</ele>
        <time>2021-05-29 16:06:17</time>
      </trkpt>
      <trkpt lat="43.24653" lon="-2.70492">
        <ele>140.2</ele>
        <time>2021-05-29 16:06:18</time>
      </trkpt>
      <trkpt lat="43.2465" lon="-2.70496">
        <ele>140.6</ele>
        <time>2021-05-29 16:06:19</time>
      </trkpt>
      <trkpt lat="43.24648" lon="-2.70499">
        <ele>141</ele>
        <time>2021-05-29 16:06:20</time>
      </trkpt>
      <trkpt lat="43.24645" lon="-2.70503">
        <ele>141.2</ele>
        <time>2021-05-29 16:06:21</time>
      </trkpt>
      <trkpt lat="43.24642" lon="-2.70507">
        <ele>141.6</ele>
        <time>2021-05-29 16:06:22</time>
      </trkpt>
      <trkpt lat="43.24638" lon="-2.70511">
        <ele>141.8</ele>
        <time>2021-05-29 16:06:23</time>
      </trkpt>
      <trkpt lat="43.24635" lon="-2.70515">
        <ele>142.2</ele>
        <time>2021-05-29 16:06:24</time>
      </trkpt>
      <trkpt lat="43.24632" lon="-2.70519">
        <ele>142.4</ele>
        <time>2021-05-29 16:06:25</time>
      </trkpt>
      <trkpt lat="43.24629" lon="-2.70522">
        <ele>142.6</ele>
        <time>2021-05-29 16:06:26</time>
      </trkpt>
      <trkpt lat="43.24626" lon="-2.70526">
        <ele>142.8</ele>
        <time>2021-05-29 16:06:27</time>
      </trkpt>
      <trkpt lat="43.24623" lon="-2.7053">
        <ele>143</ele>
        <time>2021-05-29 16:06:28</time>
      </trkpt>
      <trkpt lat="43.24619" lon="-2.70534">
        <ele>143.4</ele>
        <time>2021-05-29 16:06:29</time>
      </trkpt>
      <trkpt lat="43.24616" lon="-2.70537">
        <ele>143.6</ele>
        <time>2021-05-29 16:06:30</time>
      </trkpt>
      <trkpt lat="43.24613" lon="-2.70541">
        <ele>144</ele>
        <time>2021-05-29 16:06:31</time>
      </trkpt>
      <trkpt lat="43.2461" lon="-2.70544">
        <ele>144.2</ele>
        <time>2021-05-29 16:06:32</time>
      </trkpt>
      <trkpt lat="43.24607" lon="-2.70546">
        <ele>144.4</ele>
        <time>2021-05-29 16:06:33</time>
      </trkpt>
      <trkpt lat="43.24604" lon="-2.70549">
        <ele>144.8</ele>
        <time>2021-05-29 16:06:34</time>
      </trkpt>
      <trkpt lat="43.24601" lon="-2.70552">
        <ele>145</ele>
        <time>2021-05-29 16:06:35</time>
      </trkpt>
      <trkpt lat="43.24598" lon="-2.70555">
        <ele>145.4</ele>
        <time>2021-05-29 16:06:36</time>
      </trkpt>
      <trkpt lat="43.24596" lon="-2.70558">
        <ele>145.6</ele>
        <time>2021-05-29 16:06:37</time>
      </trkpt>
      <trkpt lat="43.24595" lon="-2.70562">
        <ele>145.8</ele>
        <time>2021-05-29 16:06:38</time>
      </trkpt>
      <trkpt lat="43.24593" lon="-2.70566">
        <ele>146</ele>
        <time>2021-05-29 16:06:39</time>
      </trkpt>
      <trkpt lat="43.24591" lon="-2.70571">
        <ele>146.2</ele>
        <time>2021-05-29 16:06:40</time>
      </trkpt>
      <trkpt lat="43.24589" lon="-2.70577">
        <ele>146.8</ele>
        <time>2021-05-29 16:06:41</time>
      </trkpt>
      <trkpt lat="43.24586" lon="-2.70584">
        <ele>147</ele>
        <time>2021-05-29 16:06:42</time>
      </trkpt>
      <trkpt lat="43.24583" lon="-2.70592">
        <ele>147</ele>
        <time>2021-05-29 16:06:43</time>
      </trkpt>
      <trkpt lat="43.24578" lon="-2.70599">
        <ele>147.2</ele>
        <time>2021-05-29 16:06:44</time>
      </trkpt>
      <trkpt lat="43.24574" lon="-2.70607">
        <ele>147.2</ele>
        <time>2021-05-29 16:06:45</time>
      </trkpt>
      <trkpt lat="43.24569" lon="-2.70614">
        <ele>147.6</ele>
        <time>2021-05-29 16:06:46</time>
      </trkpt>
      <trkpt lat="43.24565" lon="-2.7062">
        <ele>147.6</ele>
        <time>2021-05-29 16:06:47</time>
      </trkpt>
      <trkpt lat="43.24561" lon="-2.70625">
        <ele>147.8</ele>
        <time>2021-05-29 16:06:48</time>
      </trkpt>
      <trkpt lat="43.24558" lon="-2.7063">
        <ele>147.8</ele>
        <time>2021-05-29 16:06:49</time>
      </trkpt>
      <trkpt lat="43.24555" lon="-2.70635">
        <ele>148</ele>
        <time>2021-05-29 16:06:50</time>
      </trkpt>
      <trkpt lat="43.24552" lon="-2.70639">
        <ele>148</ele>
        <time>2021-05-29 16:06:51</time>
      </trkpt>
      <trkpt lat="43.24549" lon="-2.70643">
        <ele>148</ele>
        <time>2021-05-29 16:06:52</time>
      </trkpt>
      <trkpt lat="43.24547" lon="-2.70648">
        <ele>148</ele>
        <time>2021-05-29 16:06:53</time>
      </trkpt>
      <trkpt lat="43.24545" lon="-2.70651">
        <ele>148.2</ele>
        <time>2021-05-29 16:06:54</time>
      </trkpt>
      <trkpt lat="43.24543" lon="-2.70655">
        <ele>148.4</ele>
        <time>2021-05-29 16:06:55</time>
      </trkpt>
      <trkpt lat="43.2454" lon="-2.70659">
        <ele>149</ele>
        <time>2021-05-29 16:06:56</time>
      </trkpt>
      <trkpt lat="43.24538" lon="-2.70663">
        <ele>149.4</ele>
        <time>2021-05-29 16:06:57</time>
      </trkpt>
      <trkpt lat="43.24535" lon="-2.70667">
        <ele>150</ele>
        <time>2021-05-29 16:06:58</time>
      </trkpt>
      <trkpt lat="43.24533" lon="-2.70671">
        <ele>150.4</ele>
        <time>2021-05-29 16:06:59</time>
      </trkpt>
      <trkpt lat="43.24531" lon="-2.70674">
        <ele>150.8</ele>
        <time>2021-05-29 16:07:00</time>
      </trkpt>
      <trkpt lat="43.24528" lon="-2.70678">
        <ele>151.2</ele>
        <time>2021-05-29 16:07:01</time>
      </trkpt>
      <trkpt lat="43.24526" lon="-2.70682">
        <ele>151.6</ele>
        <time>2021-05-29 16:07:02</time>
      </trkpt>
      <trkpt lat="43.24524" lon="-2.70686">
        <ele>151.8</ele>
        <time>2021-05-29 16:07:03</time>
      </trkpt>
      <trkpt lat="43.24522" lon="-2.7069">
        <ele>152.2</ele>
        <time>2021-05-29 16:07:04</time>
      </trkpt>
      <trkpt lat="43.2452" lon="-2.70693">
        <ele>152.4</ele>
        <time>2021-05-29 16:07:05</time>
      </trkpt>
      <trkpt lat="43.24517" lon="-2.70697">
        <ele>152.8</ele>
        <time>2021-05-29 16:07:06</time>
      </trkpt>
      <trkpt lat="43.24515" lon="-2.70701">
        <ele>153.2</ele>
        <time>2021-05-29 16:07:07</time>
      </trkpt>
      <trkpt lat="43.24513" lon="-2.70704">
        <ele>153.6</ele>
        <time>2021-05-29 16:07:08</time>
      </trkpt>
      <trkpt lat="43.24511" lon="-2.70708">
        <ele>154</ele>
        <time>2021-05-29 16:07:09</time>
      </trkpt>
      <trkpt lat="43.24509" lon="-2.70712">
        <ele>154.4</ele>
        <time>2021-05-29 16:07:10</time>
      </trkpt>
      <trkpt lat="43.24507" lon="-2.70716">
        <ele>154.6</ele>
        <time>2021-05-29 16:07:11</time>
      </trkpt>
      <trkpt lat="43.24505" lon="-2.7072">
        <ele>155</ele>
        <time>2021-05-29 16:07:12</time>
      </trkpt>
      <trkpt lat="43.24502" lon="-2.70724">
        <ele>155.4</ele>
        <time>2021-05-29 16:07:13</time>
      </trkpt>
      <trkpt lat="43.245" lon="-2.70727">
        <ele>155.8</ele>
        <time>2021-05-29 16:07:14</time>
      </trkpt>
      <trkpt lat="43.24499" lon="-2.70731">
        <ele>156.2</ele>
        <time>2021-05-29 16:07:15</time>
      </trkpt>
      <trkpt lat="43.24497" lon="-2.70735">
        <ele>156.8</ele>
        <time>2021-05-29 16:07:16</time>
      </trkpt>
      <trkpt lat="43.24495" lon="-2.70739">
        <ele>157</ele>
        <time>2021-05-29 16:07:17</time>
      </trkpt>
      <trkpt lat="43.24493" lon="-2.70743">
        <ele>157.4</ele>
        <time>2021-05-29 16:07:18</time>
      </trkpt>
      <trkpt lat="43.24491" lon="-2.70747">
        <ele>157.8</ele>
        <time>2021-05-29 16:07:19</time>
      </trkpt>
      <trkpt lat="43.24489" lon="-2.70751">
        <ele>158</ele>
        <time>2021-05-29 16:07:20</time>
      </trkpt>
      <trkpt lat="43.24487" lon="-2.70755">
        <ele>158.6</ele>
        <time>2021-05-29 16:07:21</time>
      </trkpt>
      <trkpt lat="43.24485" lon="-2.7076">
        <ele>159</ele>
        <time>2021-05-29 16:07:22</time>
      </trkpt>
      <trkpt lat="43.24483" lon="-2.70764">
        <ele>159.4</ele>
        <time>2021-05-29 16:07:23</time>
      </trkpt>
      <trkpt lat="43.24481" lon="-2.70768">
        <ele>159.6</ele>
        <time>2021-05-29 16:07:24</time>
      </trkpt>
      <trkpt lat="43.24479" lon="-2.70773">
        <ele>159.8</ele>
        <time>2021-05-29 16:07:25</time>
      </trkpt>
      <trkpt lat="43.24477" lon="-2.70777">
        <ele>160</ele>
        <time>2021-05-29 16:07:26</time>
      </trkpt>
      <trkpt lat="43.24475" lon="-2.70782">
        <ele>160.2</ele>
        <time>2021-05-29 16:07:27</time>
      </trkpt>
      <trkpt lat="43.24473" lon="-2.70786">
        <ele>160.4</ele>
        <time>2021-05-29 16:07:28</time>
      </trkpt>
      <trkpt lat="43.2447" lon="-2.70791">
        <ele>160.8</ele>
        <time>2021-05-29 16:07:29</time>
      </trkpt>
      <trkpt lat="43.24468" lon="-2.70796">
        <ele>161</ele>
        <time>2021-05-29 16:07:30</time>
      </trkpt>
      <trkpt lat="43.24466" lon="-2.70801">
        <ele>161.2</ele>
        <time>2021-05-29 16:07:31</time>
      </trkpt>
      <trkpt lat="43.24463" lon="-2.70805">
        <ele>161.4</ele>
        <time>2021-05-29 16:07:32</time>
      </trkpt>
      <trkpt lat="43.24461" lon="-2.7081">
        <ele>161.8</ele>
        <time>2021-05-29 16:07:33</time>
      </trkpt>
      <trkpt lat="43.24458" lon="-2.70814">
        <ele>162.2</ele>
        <time>2021-05-29 16:07:34</time>
      </trkpt>
      <trkpt lat="43.24455" lon="-2.70819">
        <ele>162.4</ele>
        <time>2021-05-29 16:07:35</time>
      </trkpt>
      <trkpt lat="43.24453" lon="-2.70823">
        <ele>162.6</ele>
        <time>2021-05-29 16:07:36</time>
      </trkpt>
      <trkpt lat="43.2445" lon="-2.70828">
        <ele>162.8</ele>
        <time>2021-05-29 16:07:37</time>
      </trkpt>
      <trkpt lat="43.24447" lon="-2.70832">
        <ele>163</ele>
        <time>2021-05-29 16:07:38</time>
      </trkpt>
      <trkpt lat="43.24444" lon="-2.70836">
        <ele>163.2</ele>
        <time>2021-05-29 16:07:39</time>
      </trkpt>
      <trkpt lat="43.24441" lon="-2.70841">
        <ele>163.4</ele>
        <time>2021-05-29 16:07:40</time>
      </trkpt>
      <trkpt lat="43.24438" lon="-2.70845">
        <ele>163.4</ele>
        <time>2021-05-29 16:07:41</time>
      </trkpt>
      <trkpt lat="43.24435" lon="-2.70849">
        <ele>163.6</ele>
        <time>2021-05-29 16:07:42</time>
      </trkpt>
      <trkpt lat="43.24432" lon="-2.70854">
        <ele>163.8</ele>
        <time>2021-05-29 16:07:43</time>
      </trkpt>
      <trkpt lat="43.24429" lon="-2.70858">
        <ele>164</ele>
        <time>2021-05-29 16:07:44</time>
      </trkpt>
      <trkpt lat="43.24425" lon="-2.70862">
        <ele>164.2</ele>
        <time>2021-05-29 16:07:45</time>
      </trkpt>
      <trkpt lat="43.24422" lon="-2.70866">
        <ele>164.4</ele>
        <time>2021-05-29 16:07:46</time>
      </trkpt>
      <trkpt lat="43.24419" lon="-2.7087">
        <ele>164.6</ele>
        <time>2021-05-29 16:07:47</time>
      </trkpt>
      <trkpt lat="43.24416" lon="-2.70874">
        <ele>164.6</ele>
        <time>2021-05-29 16:07:48</time>
      </trkpt>
      <trkpt lat="43.24412" lon="-2.70878">
        <ele>164.8</ele>
        <time>2021-05-29 16:07:49</time>
      </trkpt>
      <trkpt lat="43.24409" lon="-2.70882">
        <ele>165</ele>
        <time>2021-05-29 16:07:50</time>
      </trkpt>
      <trkpt lat="43.24406" lon="-2.70886">
        <ele>165.2</ele>
        <time>2021-05-29 16:07:51</time>
      </trkpt>
      <trkpt lat="43.24403" lon="-2.70889">
        <ele>165.2</ele>
        <time>2021-05-29 16:07:52</time>
      </trkpt>
      <trkpt lat="43.24399" lon="-2.70893">
        <ele>165.6</ele>
        <time>2021-05-29 16:07:53</time>
      </trkpt>
      <trkpt lat="43.24396" lon="-2.70897">
        <ele>165.8</ele>
        <time>2021-05-29 16:07:54</time>
      </trkpt>
      <trkpt lat="43.24393" lon="-2.70901">
        <ele>166</ele>
        <time>2021-05-29 16:07:55</time>
      </trkpt>
      <trkpt lat="43.2439" lon="-2.70905">
        <ele>166.4</ele>
        <time>2021-05-29 16:07:56</time>
      </trkpt>
      <trkpt lat="43.24387" lon="-2.70908">
        <ele>166.6</ele>
        <time>2021-05-29 16:07:57</time>
      </trkpt>
      <trkpt lat="43.24384" lon="-2.70912">
        <ele>167</ele>
        <time>2021-05-29 16:07:58</time>
      </trkpt>
      <trkpt lat="43.24382" lon="-2.70916">
        <ele>167.4</ele>
        <time>2021-05-29 16:07:59</time>
      </trkpt>
      <trkpt lat="43.2438" lon="-2.70921">
        <ele>167.8</ele>
        <time>2021-05-29 16:08:00</time>
      </trkpt>
      <trkpt lat="43.24378" lon="-2.70925">
        <ele>168</ele>
        <time>2021-05-29 16:08:01</time>
      </trkpt>
      <trkpt lat="43.24376" lon="-2.7093">
        <ele>168.2</ele>
        <time>2021-05-29 16:08:02</time>
      </trkpt>
      <trkpt lat="43.24375" lon="-2.70935">
        <ele>168.4</ele>
        <time>2021-05-29 16:08:03</time>
      </trkpt>
      <trkpt lat="43.24374" lon="-2.7094">
        <ele>168.6</ele>
        <time>2021-05-29 16:08:04</time>
      </trkpt>
      <trkpt lat="43.24373" lon="-2.70945">
        <ele>169</ele>
        <time>2021-05-29 16:08:05</time>
      </trkpt>
      <trkpt lat="43.24372" lon="-2.7095">
        <ele>169.4</ele>
        <time>2021-05-29 16:08:06</time>
      </trkpt>
      <trkpt lat="43.24372" lon="-2.70954">
        <ele>169.6</ele>
        <time>2021-05-29 16:08:07</time>
      </trkpt>
      <trkpt lat="43.24373" lon="-2.70959">
        <ele>170</ele>
        <time>2021-05-29 16:08:08</time>
      </trkpt>
      <trkpt lat="43.24373" lon="-2.70964">
        <ele>170.4</ele>
        <time>2021-05-29 16:08:09</time>
      </trkpt>
      <trkpt lat="43.24374" lon="-2.70969">
        <ele>170.6</ele>
        <time>2021-05-29 16:08:10</time>
      </trkpt>
      <trkpt lat="43.24375" lon="-2.70974">
        <ele>171</ele>
        <time>2021-05-29 16:08:11</time>
      </trkpt>
      <trkpt lat="43.24377" lon="-2.70978">
        <ele>171.4</ele>
        <time>2021-05-29 16:08:12</time>
      </trkpt>
      <trkpt lat="43.24378" lon="-2.70983">
        <ele>171.6</ele>
        <time>2021-05-29 16:08:13</time>
      </trkpt>
      <trkpt lat="43.2438" lon="-2.70987">
        <ele>172</ele>
        <time>2021-05-29 16:08:14</time>
      </trkpt>
      <trkpt lat="43.24382" lon="-2.70992">
        <ele>172.4</ele>
        <time>2021-05-29 16:08:15</time>
      </trkpt>
      <trkpt lat="43.24384" lon="-2.70996">
        <ele>172.6</ele>
        <time>2021-05-29 16:08:16</time>
      </trkpt>
      <trkpt lat="43.24386" lon="-2.70999">
        <ele>173</ele>
        <time>2021-05-29 16:08:17</time>
      </trkpt>
      <trkpt lat="43.24388" lon="-2.71003">
        <ele>173.4</ele>
        <time>2021-05-29 16:08:18</time>
      </trkpt>
      <trkpt lat="43.24391" lon="-2.71006">
        <ele>173.8</ele>
        <time>2021-05-29 16:08:19</time>
      </trkpt>
      <trkpt lat="43.24393" lon="-2.7101">
        <ele>174</ele>
        <time>2021-05-29 16:08:20</time>
      </trkpt>
      <trkpt lat="43.24396" lon="-2.71014">
        <ele>174.6</ele>
        <time>2021-05-29 16:08:21</time>
      </trkpt>
      <trkpt lat="43.24399" lon="-2.71017">
        <ele>175</ele>
        <time>2021-05-29 16:08:22</time>
      </trkpt>
      <trkpt lat="43.24401" lon="-2.71021">
        <ele>175.4</ele>
        <time>2021-05-29 16:08:23</time>
      </trkpt>
      <trkpt lat="43.24404" lon="-2.71026">
        <ele>175.8</ele>
        <time>2021-05-29 16:08:24</time>
      </trkpt>
      <trkpt lat="43.24406" lon="-2.7103">
        <ele>176.4</ele>
        <time>2021-05-29 16:08:25</time>
      </trkpt>
      <trkpt lat="43.24409" lon="-2.71034">
        <ele>176.8</ele>
        <time>2021-05-29 16:08:26</time>
      </trkpt>
      <trkpt lat="43.24412" lon="-2.71038">
        <ele>177.2</ele>
        <time>2021-05-29 16:08:27</time>
      </trkpt>
      <trkpt lat="43.24415" lon="-2.71042">
        <ele>177.6</ele>
        <time>2021-05-29 16:08:28</time>
      </trkpt>
      <trkpt lat="43.24418" lon="-2.71046">
        <ele>178</ele>
        <time>2021-05-29 16:08:29</time>
      </trkpt>
      <trkpt lat="43.2442" lon="-2.71051">
        <ele>178.6</ele>
        <time>2021-05-29 16:08:30</time>
      </trkpt>
      <trkpt lat="43.24423" lon="-2.71055">
        <ele>178.8</ele>
        <time>2021-05-29 16:08:31</time>
      </trkpt>
      <trkpt lat="43.24426" lon="-2.7106">
        <ele>179</ele>
        <time>2021-05-29 16:08:32</time>
      </trkpt>
      <trkpt lat="43.24428" lon="-2.71064">
        <ele>179.4</ele>
        <time>2021-05-29 16:08:33</time>
      </trkpt>
      <trkpt lat="43.24431" lon="-2.71069">
        <ele>179.8</ele>
        <time>2021-05-29 16:08:34</time>
      </trkpt>
      <trkpt lat="43.24433" lon="-2.71074">
        <ele>180</ele>
        <time>2021-05-29 16:08:35</time>
      </trkpt>
      <trkpt lat="43.24436" lon="-2.71078">
        <ele>180.4</ele>
        <time>2021-05-29 16:08:36</time>
      </trkpt>
      <trkpt lat="43.24438" lon="-2.71084">
        <ele>180.6</ele>
        <time>2021-05-29 16:08:37</time>
      </trkpt>
      <trkpt lat="43.2444" lon="-2.71089">
        <ele>180.8</ele>
        <time>2021-05-29 16:08:38</time>
      </trkpt>
      <trkpt lat="43.24442" lon="-2.71095">
        <ele>181</ele>
        <time>2021-05-29 16:08:39</time>
      </trkpt>
      <trkpt lat="43.24443" lon="-2.711">
        <ele>181.2</ele>
        <time>2021-05-29 16:08:40</time>
      </trkpt>
      <trkpt lat="43.24445" lon="-2.71106">
        <ele>181.4</ele>
        <time>2021-05-29 16:08:41</time>
      </trkpt>
      <trkpt lat="43.24446" lon="-2.71113">
        <ele>181.6</ele>
        <time>2021-05-29 16:08:42</time>
      </trkpt>
      <trkpt lat="43.24447" lon="-2.71119">
        <ele>181.6</ele>
        <time>2021-05-29 16:08:43</time>
      </trkpt>
      <trkpt lat="43.24447" lon="-2.71125">
        <ele>182</ele>
        <time>2021-05-29 16:08:44</time>
      </trkpt>
      <trkpt lat="43.24447" lon="-2.71132">
        <ele>182.2</ele>
        <time>2021-05-29 16:08:45</time>
      </trkpt>
      <trkpt lat="43.24447" lon="-2.71138">
        <ele>182.4</ele>
        <time>2021-05-29 16:08:46</time>
      </trkpt>
      <trkpt lat="43.24447" lon="-2.71144">
        <ele>182.8</ele>
        <time>2021-05-29 16:08:47</time>
      </trkpt>
      <trkpt lat="43.24446" lon="-2.71149">
        <ele>183</ele>
        <time>2021-05-29 16:08:48</time>
      </trkpt>
      <trkpt lat="43.24446" lon="-2.71155">
        <ele>183.4</ele>
        <time>2021-05-29 16:08:49</time>
      </trkpt>
      <trkpt lat="43.24444" lon="-2.71161">
        <ele>183.6</ele>
        <time>2021-05-29 16:08:50</time>
      </trkpt>
      <trkpt lat="43.24443" lon="-2.71166">
        <ele>183.8</ele>
        <time>2021-05-29 16:08:51</time>
      </trkpt>
      <trkpt lat="43.24441" lon="-2.71172">
        <ele>184</ele>
        <time>2021-05-29 16:08:52</time>
      </trkpt>
      <trkpt lat="43.2444" lon="-2.71177">
        <ele>184.4</ele>
        <time>2021-05-29 16:08:53</time>
      </trkpt>
      <trkpt lat="43.24438" lon="-2.71183">
        <ele>184.6</ele>
        <time>2021-05-29 16:08:54</time>
      </trkpt>
      <trkpt lat="43.24436" lon="-2.71188">
        <ele>184.8</ele>
        <time>2021-05-29 16:08:55</time>
      </trkpt>
      <trkpt lat="43.24434" lon="-2.71193">
        <ele>185.2</ele>
        <time>2021-05-29 16:08:56</time>
      </trkpt>
      <trkpt lat="43.24431" lon="-2.71198">
        <ele>185.4</ele>
        <time>2021-05-29 16:08:57</time>
      </trkpt>
      <trkpt lat="43.24429" lon="-2.71202">
        <ele>185.6</ele>
        <time>2021-05-29 16:08:58</time>
      </trkpt>
      <trkpt lat="43.24426" lon="-2.71207">
        <ele>185.8</ele>
        <time>2021-05-29 16:08:59</time>
      </trkpt>
      <trkpt lat="43.24423" lon="-2.71211">
        <ele>186.2</ele>
        <time>2021-05-29 16:09:00</time>
      </trkpt>
      <trkpt lat="43.2442" lon="-2.71215">
        <ele>186.6</ele>
        <time>2021-05-29 16:09:01</time>
      </trkpt>
      <trkpt lat="43.24417" lon="-2.71219">
        <ele>186.8</ele>
        <time>2021-05-29 16:09:02</time>
      </trkpt>
      <trkpt lat="43.24414" lon="-2.71222">
        <ele>187</ele>
        <time>2021-05-29 16:09:03</time>
      </trkpt>
      <trkpt lat="43.2441" lon="-2.71226">
        <ele>187.2</ele>
        <time>2021-05-29 16:09:04</time>
      </trkpt>
      <trkpt lat="43.24407" lon="-2.71229">
        <ele>187.8</ele>
        <time>2021-05-29 16:09:05</time>
      </trkpt>
      <trkpt lat="43.24403" lon="-2.71232">
        <ele>188.2</ele>
        <time>2021-05-29 16:09:06</time>
      </trkpt>
      <trkpt lat="43.244" lon="-2.71235">
        <ele>188.4</ele>
        <time>2021-05-29 16:09:07</time>
      </trkpt>
      <trkpt lat="43.24396" lon="-2.71237">
        <ele>188.6</ele>
        <time>2021-05-29 16:09:08</time>
      </trkpt>
      <trkpt lat="43.24392" lon="-2.71239">
        <ele>189</ele>
        <time>2021-05-29 16:09:09</time>
      </trkpt>
      <trkpt lat="43.24388" lon="-2.71241">
        <ele>189.2</ele>
        <time>2021-05-29 16:09:10</time>
      </trkpt>
      <trkpt lat="43.24384" lon="-2.71244">
        <ele>189.6</ele>
        <time>2021-05-29 16:09:11</time>
      </trkpt>
      <trkpt lat="43.2438" lon="-2.71246">
        <ele>190</ele>
        <time>2021-05-29 16:09:12</time>
      </trkpt>
      <trkpt lat="43.24376" lon="-2.71249">
        <ele>190.2</ele>
        <time>2021-05-29 16:09:13</time>
      </trkpt>
      <trkpt lat="43.24372" lon="-2.71252">
        <ele>190.6</ele>
        <time>2021-05-29 16:09:14</time>
      </trkpt>
      <trkpt lat="43.24368" lon="-2.71255">
        <ele>190.8</ele>
        <time>2021-05-29 16:09:15</time>
      </trkpt>
      <trkpt lat="43.24364" lon="-2.71258">
        <ele>191</ele>
        <time>2021-05-29 16:09:16</time>
      </trkpt>
      <trkpt lat="43.2436" lon="-2.71261">
        <ele>191.4</ele>
        <time>2021-05-29 16:09:17</time>
      </trkpt>
      <trkpt lat="43.24356" lon="-2.71264">
        <ele>191.6</ele>
        <time>2021-05-29 16:09:18</time>
      </trkpt>
      <trkpt lat="43.24352" lon="-2.71267">
        <ele>191.8</ele>
        <time>2021-05-29 16:09:19</time>
      </trkpt>
      <trkpt lat="43.24348" lon="-2.7127">
        <ele>192</ele>
        <time>2021-05-29 16:09:20</time>
      </trkpt>
      <trkpt lat="43.24344" lon="-2.71272">
        <ele>192.4</ele>
        <time>2021-05-29 16:09:21</time>
      </trkpt>
      <trkpt lat="43.2434" lon="-2.71275">
        <ele>192.6</ele>
        <time>2021-05-29 16:09:22</time>
      </trkpt>
      <trkpt lat="43.24336" lon="-2.71278">
        <ele>192.8</ele>
        <time>2021-05-29 16:09:23</time>
      </trkpt>
      <trkpt lat="43.24332" lon="-2.7128">
        <ele>193</ele>
        <time>2021-05-29 16:09:24</time>
      </trkpt>
      <trkpt lat="43.24328" lon="-2.71283">
        <ele>193.2</ele>
        <time>2021-05-29 16:09:25</time>
      </trkpt>
      <trkpt lat="43.24325" lon="-2.71286">
        <ele>193.4</ele>
        <time>2021-05-29 16:09:26</time>
      </trkpt>
      <trkpt lat="43.24321" lon="-2.71288">
        <ele>194</ele>
        <time>2021-05-29 16:09:27</time>
      </trkpt>
      <trkpt lat="43.24317" lon="-2.71292">
        <ele>194.4</ele>
        <time>2021-05-29 16:09:28</time>
      </trkpt>
      <trkpt lat="43.24314" lon="-2.71295">
        <ele>194.6</ele>
        <time>2021-05-29 16:09:29</time>
      </trkpt>
      <trkpt lat="43.2431" lon="-2.71299">
        <ele>194.8</ele>
        <time>2021-05-29 16:09:30</time>
      </trkpt>
      <trkpt lat="43.24307" lon="-2.71303">
        <ele>195</ele>
        <time>2021-05-29 16:09:31</time>
      </trkpt>
      <trkpt lat="43.24304" lon="-2.71307">
        <ele>195.2</ele>
        <time>2021-05-29 16:09:32</time>
      </trkpt>
      <trkpt lat="43.24301" lon="-2.71311">
        <ele>195.6</ele>
        <time>2021-05-29 16:09:33</time>
      </trkpt>
      <trkpt lat="43.24299" lon="-2.71316">
        <ele>195.8</ele>
        <time>2021-05-29 16:09:34</time>
      </trkpt>
      <trkpt lat="43.24297" lon="-2.71321">
        <ele>196.2</ele>
        <time>2021-05-29 16:09:35</time>
      </trkpt>
      <trkpt lat="43.24295" lon="-2.71326">
        <ele>196.4</ele>
        <time>2021-05-29 16:09:36</time>
      </trkpt>
      <trkpt lat="43.24293" lon="-2.71332">
        <ele>196.8</ele>
        <time>2021-05-29 16:09:37</time>
      </trkpt>
      <trkpt lat="43.24292" lon="-2.71337">
        <ele>197</ele>
        <time>2021-05-29 16:09:38</time>
      </trkpt>
      <trkpt lat="43.24291" lon="-2.71343">
        <ele>197.6</ele>
        <time>2021-05-29 16:09:39</time>
      </trkpt>
      <trkpt lat="43.2429" lon="-2.71348">
        <ele>197.8</ele>
        <time>2021-05-29 16:09:40</time>
      </trkpt>
      <trkpt lat="43.2429" lon="-2.71354">
        <ele>198.2</ele>
        <time>2021-05-29 16:09:41</time>
      </trkpt>
      <trkpt lat="43.2429" lon="-2.71359">
        <ele>198.4</ele>
        <time>2021-05-29 16:09:42</time>
      </trkpt>
      <trkpt lat="43.24291" lon="-2.71364">
        <ele>198.6</ele>
        <time>2021-05-29 16:09:43</time>
      </trkpt>
      <trkpt lat="43.24292" lon="-2.7137">
        <ele>199</ele>
        <time>2021-05-29 16:09:44</time>
      </trkpt>
      <trkpt lat="43.24293" lon="-2.71375">
        <ele>199.2</ele>
        <time>2021-05-29 16:09:45</time>
      </trkpt>
      <trkpt lat="43.24294" lon="-2.71379">
        <ele>199.6</ele>
        <time>2021-05-29 16:09:46</time>
      </trkpt>
      <trkpt lat="43.24296" lon="-2.71384">
        <ele>200</ele>
        <time>2021-05-29 16:09:47</time>
      </trkpt>
      <trkpt lat="43.24298" lon="-2.71388">
        <ele>200.4</ele>
        <time>2021-05-29 16:09:48</time>
      </trkpt>
      <trkpt lat="43.243" lon="-2.71392">
        <ele>200.8</ele>
        <time>2021-05-29 16:09:49</time>
      </trkpt>
      <trkpt lat="43.24303" lon="-2.71396">
        <ele>201.2</ele>
        <time>2021-05-29 16:09:50</time>
      </trkpt>
      <trkpt lat="43.24305" lon="-2.714">
        <ele>201.6</ele>
        <time>2021-05-29 16:09:51</time>
      </trkpt>
      <trkpt lat="43.24308" lon="-2.71403">
        <ele>201.8</ele>
        <time>2021-05-29 16:09:52</time>
      </trkpt>
      <trkpt lat="43.24312" lon="-2.71407">
        <ele>202.2</ele>
        <time>2021-05-29 16:09:53</time>
      </trkpt>
      <trkpt lat="43.24315" lon="-2.7141">
        <ele>202.4</ele>
        <time>2021-05-29 16:09:54</time>
      </trkpt>
      <trkpt lat="43.24318" lon="-2.71414">
        <ele>202.8</ele>
        <time>2021-05-29 16:09:55</time>
      </trkpt>
      <trkpt lat="43.24321" lon="-2.71417">
        <ele>203.2</ele>
        <time>2021-05-29 16:09:56</time>
      </trkpt>
      <trkpt lat="43.24324" lon="-2.71421">
        <ele>203.4</ele>
        <time>2021-05-29 16:09:57</time>
      </trkpt>
      <trkpt lat="43.24326" lon="-2.71425">
        <ele>203.8</ele>
        <time>2021-05-29 16:09:58</time>
      </trkpt>
      <trkpt lat="43.24329" lon="-2.71429">
        <ele>204.2</ele>
        <time>2021-05-29 16:09:59</time>
      </trkpt>
      <trkpt lat="43.24332" lon="-2.71433">
        <ele>204.4</ele>
        <time>2021-05-29 16:10:00</time>
      </trkpt>
      <trkpt lat="43.24334" lon="-2.71437">
        <ele>204.8</ele>
        <time>2021-05-29 16:10:01</time>
      </trkpt>
      <trkpt lat="43.24337" lon="-2.71441">
        <ele>205</ele>
        <time>2021-05-29 16:10:02</time>
      </trkpt>
      <trkpt lat="43.2434" lon="-2.71445">
        <ele>205.6</ele>
        <time>2021-05-29 16:10:03</time>
      </trkpt>
      <trkpt lat="43.24343" lon="-2.7145">
        <ele>206</ele>
        <time>2021-05-29 16:10:04</time>
      </trkpt>
      <trkpt lat="43.24345" lon="-2.71455">
        <ele>206.4</ele>
        <time>2021-05-29 16:10:05</time>
      </trkpt>
      <trkpt lat="43.24348" lon="-2.7146">
        <ele>206.8</ele>
        <time>2021-05-29 16:10:06</time>
      </trkpt>
      <trkpt lat="43.2435" lon="-2.71465">
        <ele>207</ele>
        <time>2021-05-29 16:10:07</time>
      </trkpt>
      <trkpt lat="43.24352" lon="-2.7147">
        <ele>207.4</ele>
        <time>2021-05-29 16:10:08</time>
      </trkpt>
      <trkpt lat="43.24354" lon="-2.71475">
        <ele>207.6</ele>
        <time>2021-05-29 16:10:09</time>
      </trkpt>
      <trkpt lat="43.24356" lon="-2.7148">
        <ele>208</ele>
        <time>2021-05-29 16:10:10</time>
      </trkpt>
      <trkpt lat="43.24357" lon="-2.71486">
        <ele>208.2</ele>
        <time>2021-05-29 16:10:11</time>
      </trkpt>
      <trkpt lat="43.24358" lon="-2.71491">
        <ele>208.6</ele>
        <time>2021-05-29 16:10:12</time>
      </trkpt>
      <trkpt lat="43.24359" lon="-2.71497">
        <ele>209.2</ele>
        <time>2021-05-29 16:10:13</time>
      </trkpt>
      <trkpt lat="43.2436" lon="-2.71502">
        <ele>209.6</ele>
        <time>2021-05-29 16:10:14</time>
      </trkpt>
      <trkpt lat="43.24361" lon="-2.71508">
        <ele>210</ele>
        <time>2021-05-29 16:10:15</time>
      </trkpt>
      <trkpt lat="43.24361" lon="-2.71513">
        <ele>210.4</ele>
        <time>2021-05-29 16:10:16</time>
      </trkpt>
      <trkpt lat="43.24362" lon="-2.71519">
        <ele>210.8</ele>
        <time>2021-05-29 16:10:17</time>
      </trkpt>
      <trkpt lat="43.24362" lon="-2.71525">
        <ele>211</ele>
        <time>2021-05-29 16:10:18</time>
      </trkpt>
      <trkpt lat="43.24362" lon="-2.71531">
        <ele>211.4</ele>
        <time>2021-05-29 16:10:19</time>
      </trkpt>
      <trkpt lat="43.24361" lon="-2.71537">
        <ele>211.8</ele>
        <time>2021-05-29 16:10:20</time>
      </trkpt>
      <trkpt lat="43.2436" lon="-2.71542">
        <ele>212</ele>
        <time>2021-05-29 16:10:21</time>
      </trkpt>
      <trkpt lat="43.2436" lon="-2.71548">
        <ele>212.4</ele>
        <time>2021-05-29 16:10:22</time>
      </trkpt>
      <trkpt lat="43.24359" lon="-2.71554">
        <ele>212.6</ele>
        <time>2021-05-29 16:10:23</time>
      </trkpt>
      <trkpt lat="43.24358" lon="-2.71559">
        <ele>212.8</ele>
        <time>2021-05-29 16:10:24</time>
      </trkpt>
      <trkpt lat="43.24357" lon="-2.71565">
        <ele>213</ele>
        <time>2021-05-29 16:10:25</time>
      </trkpt>
      <trkpt lat="43.24356" lon="-2.71571">
        <ele>213.4</ele>
        <time>2021-05-29 16:10:26</time>
      </trkpt>
      <trkpt lat="43.24355" lon="-2.71576">
        <ele>213.6</ele>
        <time>2021-05-29 16:10:27</time>
      </trkpt>
      <trkpt lat="43.24354" lon="-2.71582">
        <ele>213.8</ele>
        <time>2021-05-29 16:10:28</time>
      </trkpt>
      <trkpt lat="43.24353" lon="-2.71587">
        <ele>214</ele>
        <time>2021-05-29 16:10:29</time>
      </trkpt>
      <trkpt lat="43.24353" lon="-2.71593">
        <ele>214.2</ele>
        <time>2021-05-29 16:10:30</time>
      </trkpt>
      <trkpt lat="43.24352" lon="-2.71598">
        <ele>214.6</ele>
        <time>2021-05-29 16:10:31</time>
      </trkpt>
      <trkpt lat="43.24351" lon="-2.71603">
        <ele>214.8</ele>
        <time>2021-05-29 16:10:32</time>
      </trkpt>
      <trkpt lat="43.2435" lon="-2.71608">
        <ele>215</ele>
        <time>2021-05-29 16:10:33</time>
      </trkpt>
      <trkpt lat="43.2435" lon="-2.71614">
        <ele>215.2</ele>
        <time>2021-05-29 16:10:34</time>
      </trkpt>
      <trkpt lat="43.2435" lon="-2.71619">
        <ele>215.8</ele>
        <time>2021-05-29 16:10:35</time>
      </trkpt>
      <trkpt lat="43.2435" lon="-2.71624">
        <ele>216</ele>
        <time>2021-05-29 16:10:36</time>
      </trkpt>
      <trkpt lat="43.2435" lon="-2.71629">
        <ele>216.2</ele>
        <time>2021-05-29 16:10:37</time>
      </trkpt>
      <trkpt lat="43.24351" lon="-2.71635">
        <ele>216.4</ele>
        <time>2021-05-29 16:10:38</time>
      </trkpt>
      <trkpt lat="43.24352" lon="-2.7164">
        <ele>216.8</ele>
        <time>2021-05-29 16:10:39</time>
      </trkpt>
      <trkpt lat="43.24353" lon="-2.71645">
        <ele>217</ele>
        <time>2021-05-29 16:10:40</time>
      </trkpt>
      <trkpt lat="43.24353" lon="-2.7165">
        <ele>217.4</ele>
        <time>2021-05-29 16:10:41</time>
      </trkpt>
      <trkpt lat="43.24355" lon="-2.71656">
        <ele>217.6</ele>
        <time>2021-05-29 16:10:42</time>
      </trkpt>
      <trkpt lat="43.24356" lon="-2.71662">
        <ele>217.8</ele>
        <time>2021-05-29 16:10:43</time>
      </trkpt>
      <trkpt lat="43.24357" lon="-2.71667">
        <ele>218</ele>
        <time>2021-05-29 16:10:44</time>
      </trkpt>
      <trkpt lat="43.24359" lon="-2.71672">
        <ele>218.4</ele>
        <time>2021-05-29 16:10:45</time>
      </trkpt>
      <trkpt lat="43.2436" lon="-2.71677">
        <ele>218.6</ele>
        <time>2021-05-29 16:10:46</time>
      </trkpt>
      <trkpt lat="43.24362" lon="-2.71682">
        <ele>219</ele>
        <time>2021-05-29 16:10:47</time>
      </trkpt>
      <trkpt lat="43.24364" lon="-2.71688">
        <ele>219.4</ele>
        <time>2021-05-29 16:10:48</time>
      </trkpt>
      <trkpt lat="43.24365" lon="-2.71693">
        <ele>219.6</ele>
        <time>2021-05-29 16:10:49</time>
      </trkpt>
      <trkpt lat="43.24367" lon="-2.71699">
        <ele>219.8</ele>
        <time>2021-05-29 16:10:50</time>
      </trkpt>
      <trkpt lat="43.24369" lon="-2.71704">
        <ele>220.2</ele>
        <time>2021-05-29 16:10:51</time>
      </trkpt>
      <trkpt lat="43.2437" lon="-2.7171">
        <ele>220.6</ele>
        <time>2021-05-29 16:10:52</time>
      </trkpt>
      <trkpt lat="43.24371" lon="-2.71716">
        <ele>221</ele>
        <time>2021-05-29 16:10:53</time>
      </trkpt>
      <trkpt lat="43.24372" lon="-2.71721">
        <ele>221.2</ele>
        <time>2021-05-29 16:10:54</time>
      </trkpt>
      <trkpt lat="43.24373" lon="-2.71727">
        <ele>221.6</ele>
        <time>2021-05-29 16:10:55</time>
      </trkpt>
      <trkpt lat="43.24375" lon="-2.71733">
        <ele>221.8</ele>
        <time>2021-05-29 16:10:56</time>
      </trkpt>
      <trkpt lat="43.24376" lon="-2.71739">
        <ele>222</ele>
        <time>2021-05-29 16:10:57</time>
      </trkpt>
      <trkpt lat="43.24377" lon="-2.71745">
        <ele>222.4</ele>
        <time>2021-05-29 16:10:58</time>
      </trkpt>
      <trkpt lat="43.24377" lon="-2.71751">
        <ele>222.8</ele>
        <time>2021-05-29 16:10:59</time>
      </trkpt>
      <trkpt lat="43.24378" lon="-2.71756">
        <ele>222.8</ele>
        <time>2021-05-29 16:11:00</time>
      </trkpt>
      <trkpt lat="43.24378" lon="-2.71762">
        <ele>223</ele>
        <time>2021-05-29 16:11:01</time>
      </trkpt>
      <trkpt lat="43.24378" lon="-2.71768">
        <ele>223.2</ele>
        <time>2021-05-29 16:11:02</time>
      </trkpt>
      <trkpt lat="43.24378" lon="-2.71774">
        <ele>223.6</ele>
        <time>2021-05-29 16:11:03</time>
      </trkpt>
      <trkpt lat="43.24378" lon="-2.7178">
        <ele>223.8</ele>
        <time>2021-05-29 16:11:04</time>
      </trkpt>
      <trkpt lat="43.24378" lon="-2.71786">
        <ele>224</ele>
        <time>2021-05-29 16:11:05</time>
      </trkpt>
      <trkpt lat="43.24378" lon="-2.71792">
        <ele>224.2</ele>
        <time>2021-05-29 16:11:06</time>
      </trkpt>
      <trkpt lat="43.24377" lon="-2.71798">
        <ele>224.4</ele>
        <time>2021-05-29 16:11:07</time>
      </trkpt>
      <trkpt lat="43.24377" lon="-2.71804">
        <ele>224.6</ele>
        <time>2021-05-29 16:11:08</time>
      </trkpt>
      <trkpt lat="43.24376" lon="-2.7181">
        <ele>225</ele>
        <time>2021-05-29 16:11:09</time>
      </trkpt>
      <trkpt lat="43.24375" lon="-2.71815">
        <ele>225</ele>
        <time>2021-05-29 16:11:10</time>
      </trkpt>
      <trkpt lat="43.24374" lon="-2.71821">
        <ele>225.2</ele>
        <time>2021-05-29 16:11:11</time>
      </trkpt>
      <trkpt lat="43.24372" lon="-2.71826">
        <ele>225.6</ele>
        <time>2021-05-29 16:11:12</time>
      </trkpt>
      <trkpt lat="43.24371" lon="-2.71831">
        <ele>225.8</ele>
        <time>2021-05-29 16:11:13</time>
      </trkpt>
      <trkpt lat="43.2437" lon="-2.71837">
        <ele>226.2</ele>
        <time>2021-05-29 16:11:14</time>
      </trkpt>
      <trkpt lat="43.24368" lon="-2.71842">
        <ele>226.6</ele>
        <time>2021-05-29 16:11:15</time>
      </trkpt>
      <trkpt lat="43.24366" lon="-2.71848">
        <ele>227</ele>
        <time>2021-05-29 16:11:16</time>
      </trkpt>
      <trkpt lat="43.24364" lon="-2.71853">
        <ele>227.6</ele>
        <time>2021-05-29 16:11:17</time>
      </trkpt>
      <trkpt lat="43.24362" lon="-2.71858">
        <ele>228</ele>
        <time>2021-05-29 16:11:18</time>
      </trkpt>
      <trkpt lat="43.2436" lon="-2.71863">
        <ele>228.2</ele>
        <time>2021-05-29 16:11:19</time>
      </trkpt>
      <trkpt lat="43.24357" lon="-2.71868">
        <ele>228.4</ele>
        <time>2021-05-29 16:11:20</time>
      </trkpt>
      <trkpt lat="43.24354" lon="-2.71873">
        <ele>229</ele>
        <time>2021-05-29 16:11:21</time>
      </trkpt>
      <trkpt lat="43.2435" lon="-2.71878">
        <ele>229.2</ele>
        <time>2021-05-29 16:11:22</time>
      </trkpt>
      <trkpt lat="43.24347" lon="-2.71883">
        <ele>229.4</ele>
        <time>2021-05-29 16:11:23</time>
      </trkpt>
      <trkpt lat="43.24343" lon="-2.71887">
        <ele>229.6</ele>
        <time>2021-05-29 16:11:24</time>
      </trkpt>
      <trkpt lat="43.24339" lon="-2.71892">
        <ele>229.8</ele>
        <time>2021-05-29 16:11:25</time>
      </trkpt>
      <trkpt lat="43.24335" lon="-2.71896">
        <ele>230</ele>
        <time>2021-05-29 16:11:26</time>
      </trkpt>
      <trkpt lat="43.2433" lon="-2.719">
        <ele>230</ele>
        <time>2021-05-29 16:11:27</time>
      </trkpt>
      <trkpt lat="43.24326" lon="-2.71904">
        <ele>230</ele>
        <time>2021-05-29 16:11:28</time>
      </trkpt>
      <trkpt lat="43.24321" lon="-2.71908">
        <ele>230.2</ele>
        <time>2021-05-29 16:11:29</time>
      </trkpt>
      <trkpt lat="43.24316" lon="-2.71911">
        <ele>230.2</ele>
        <time>2021-05-29 16:11:30</time>
      </trkpt>
      <trkpt lat="43.2431" lon="-2.71914">
        <ele>230.2</ele>
        <time>2021-05-29 16:11:31</time>
      </trkpt>
      <trkpt lat="43.24305" lon="-2.71917">
        <ele>230.2</ele>
        <time>2021-05-29 16:11:32</time>
      </trkpt>
      <trkpt lat="43.24299" lon="-2.7192">
        <ele>230.2</ele>
        <time>2021-05-29 16:11:33</time>
      </trkpt>
      <trkpt lat="43.24292" lon="-2.71923">
        <ele>230.2</ele>
        <time>2021-05-29 16:11:34</time>
      </trkpt>
      <trkpt lat="43.24285" lon="-2.71925">
        <ele>230.2</ele>
        <time>2021-05-29 16:11:35</time>
      </trkpt>
      <trkpt lat="43.24278" lon="-2.71927">
        <ele>230.2</ele>
        <time>2021-05-29 16:11:36</time>
      </trkpt>
      <trkpt lat="43.2427" lon="-2.71927">
        <ele>230.2</ele>
        <time>2021-05-29 16:11:37</time>
      </trkpt>
      <trkpt lat="43.24261" lon="-2.71927">
        <ele>230</ele>
        <time>2021-05-29 16:11:38</time>
      </trkpt>
      <trkpt lat="43.24252" lon="-2.71926">
        <ele>229.6</ele>
        <time>2021-05-29 16:11:39</time>
      </trkpt>
      <trkpt lat="43.24243" lon="-2.71924">
        <ele>229.4</ele>
        <time>2021-05-29 16:11:40</time>
      </trkpt>
      <trkpt lat="43.24233" lon="-2.71922">
        <ele>229.2</ele>
        <time>2021-05-29 16:11:41</time>
      </trkpt>
      <trkpt lat="43.24223" lon="-2.7192">
        <ele>228.8</ele>
        <time>2021-05-29 16:11:42</time>
      </trkpt>
      <trkpt lat="43.24212" lon="-2.7192">
        <ele>228.4</ele>
        <time>2021-05-29 16:11:43</time>
      </trkpt>
      <trkpt lat="43.24201" lon="-2.7192">
        <ele>227.8</ele>
        <time>2021-05-29 16:11:44</time>
      </trkpt>
      <trkpt lat="43.24189" lon="-2.71923">
        <ele>227.4</ele>
        <time>2021-05-29 16:11:45</time>
      </trkpt>
      <trkpt lat="43.24178" lon="-2.71928">
        <ele>226.8</ele>
        <time>2021-05-29 16:11:46</time>
      </trkpt>
      <trkpt lat="43.24167" lon="-2.71936">
        <ele>226.2</ele>
        <time>2021-05-29 16:11:47</time>
      </trkpt>
      <trkpt lat="43.24157" lon="-2.71948">
        <ele>225.6</ele>
        <time>2021-05-29 16:11:48</time>
      </trkpt>
      <trkpt lat="43.24148" lon="-2.71961">
        <ele>225</ele>
        <time>2021-05-29 16:11:49</time>
      </trkpt>
      <trkpt lat="43.24141" lon="-2.71975">
        <ele>224.4</ele>
        <time>2021-05-29 16:11:50</time>
      </trkpt>
      <trkpt lat="43.24133" lon="-2.71989">
        <ele>223</ele>
        <time>2021-05-29 16:11:51</time>
      </trkpt>
      <trkpt lat="43.24125" lon="-2.72002">
        <ele>222</ele>
        <time>2021-05-29 16:11:52</time>
      </trkpt>
      <trkpt lat="43.24116" lon="-2.72013">
        <ele>220.8</ele>
        <time>2021-05-29 16:11:53</time>
      </trkpt>
      <trkpt lat="43.24106" lon="-2.72024">
        <ele>219.8</ele>
        <time>2021-05-29 16:11:54</time>
      </trkpt>
      <trkpt lat="43.24094" lon="-2.72031">
        <ele>217.4</ele>
        <time>2021-05-29 16:11:55</time>
      </trkpt>
      <trkpt lat="43.24081" lon="-2.72036">
        <ele>216.6</ele>
        <time>2021-05-29 16:11:56</time>
      </trkpt>
      <trkpt lat="43.24068" lon="-2.72038">
        <ele>215.2</ele>
        <time>2021-05-29 16:11:57</time>
      </trkpt>
      <trkpt lat="43.24055" lon="-2.7204">
        <ele>214.2</ele>
        <time>2021-05-29 16:11:58</time>
      </trkpt>
      <trkpt lat="43.24041" lon="-2.72041">
        <ele>213.6</ele>
        <time>2021-05-29 16:11:59</time>
      </trkpt>
      <trkpt lat="43.24027" lon="-2.72042">
        <ele>212.6</ele>
        <time>2021-05-29 16:12:00</time>
      </trkpt>
      <trkpt lat="43.24014" lon="-2.72043">
        <ele>212</ele>
        <time>2021-05-29 16:12:01</time>
      </trkpt>
      <trkpt lat="43.24" lon="-2.72044">
        <ele>211</ele>
        <time>2021-05-29 16:12:02</time>
      </trkpt>
      <trkpt lat="43.23986" lon="-2.72045">
        <ele>210.2</ele>
        <time>2021-05-29 16:12:03</time>
      </trkpt>
      <trkpt lat="43.23973" lon="-2.72045">
        <ele>209</ele>
        <time>2021-05-29 16:12:04</time>
      </trkpt>
      <trkpt lat="43.23959" lon="-2.72045">
        <ele>207.8</ele>
        <time>2021-05-29 16:12:05</time>
      </trkpt>
      <trkpt lat="43.23946" lon="-2.72045">
        <ele>206.4</ele>
        <time>2021-05-29 16:12:06</time>
      </trkpt>
      <trkpt lat="43.23932" lon="-2.72046">
        <ele>205.2</ele>
        <time>2021-05-29 16:12:07</time>
      </trkpt>
      <trkpt lat="43.23918" lon="-2.72046">
        <ele>204</ele>
        <time>2021-05-29 16:12:08</time>
      </trkpt>
      <trkpt lat="43.23904" lon="-2.72047">
        <ele>202.8</ele>
        <time>2021-05-29 16:12:09</time>
      </trkpt>
      <trkpt lat="43.23891" lon="-2.72047">
        <ele>202</ele>
        <time>2021-05-29 16:12:10</time>
      </trkpt>
      <trkpt lat="43.23877" lon="-2.72048">
        <ele>201.4</ele>
        <time>2021-05-29 16:12:11</time>
      </trkpt>
      <trkpt lat="43.23863" lon="-2.72049">
        <ele>200.2</ele>
        <time>2021-05-29 16:12:12</time>
      </trkpt>
      <trkpt lat="43.23849" lon="-2.72051">
        <ele>199.4</ele>
        <time>2021-05-29 16:12:13</time>
      </trkpt>
      <trkpt lat="43.23835" lon="-2.72056">
        <ele>198.6</ele>
        <time>2021-05-29 16:12:14</time>
      </trkpt>
      <trkpt lat="43.23821" lon="-2.72063">
        <ele>198</ele>
        <time>2021-05-29 16:12:15</time>
      </trkpt>
      <trkpt lat="43.23808" lon="-2.72072">
        <ele>197.4</ele>
        <time>2021-05-29 16:12:16</time>
      </trkpt>
      <trkpt lat="43.23796" lon="-2.72083">
        <ele>196.6</ele>
        <time>2021-05-29 16:12:17</time>
      </trkpt>
      <trkpt lat="43.23785" lon="-2.72096">
        <ele>195.6</ele>
        <time>2021-05-29 16:12:18</time>
      </trkpt>
      <trkpt lat="43.23775" lon="-2.72111">
        <ele>194.4</ele>
        <time>2021-05-29 16:12:19</time>
      </trkpt>
      <trkpt lat="43.23766" lon="-2.72128">
        <ele>193.4</ele>
        <time>2021-05-29 16:12:20</time>
      </trkpt>
      <trkpt lat="43.23759" lon="-2.72147">
        <ele>192.4</ele>
        <time>2021-05-29 16:12:21</time>
      </trkpt>
      <trkpt lat="43.23754" lon="-2.72167">
        <ele>191.2</ele>
        <time>2021-05-29 16:12:22</time>
      </trkpt>
      <trkpt lat="43.23751" lon="-2.72189">
        <ele>189.8</ele>
        <time>2021-05-29 16:12:23</time>
      </trkpt>
      <trkpt lat="43.2375" lon="-2.72212">
        <ele>188.6</ele>
        <time>2021-05-29 16:12:24</time>
      </trkpt>
      <trkpt lat="43.2375" lon="-2.72234">
        <ele>187.2</ele>
        <time>2021-05-29 16:12:25</time>
      </trkpt>
      <trkpt lat="43.2375" lon="-2.72256">
        <ele>185.6</ele>
        <time>2021-05-29 16:12:26</time>
      </trkpt>
      <trkpt lat="43.23751" lon="-2.72276">
        <ele>184</ele>
        <time>2021-05-29 16:12:27</time>
      </trkpt>
      <trkpt lat="43.23752" lon="-2.72294">
        <ele>182</ele>
        <time>2021-05-29 16:12:28</time>
      </trkpt>
      <trkpt lat="43.23752" lon="-2.72311">
        <ele>180.4</ele>
        <time>2021-05-29 16:12:29</time>
      </trkpt>
      <trkpt lat="43.23752" lon="-2.72327">
        <ele>176.8</ele>
        <time>2021-05-29 16:12:30</time>
      </trkpt>
      <trkpt lat="43.23752" lon="-2.72341">
        <ele>175.2</ele>
        <time>2021-05-29 16:12:31</time>
      </trkpt>
      <trkpt lat="43.2375" lon="-2.72354">
        <ele>173.6</ele>
        <time>2021-05-29 16:12:32</time>
      </trkpt>
      <trkpt lat="43.23748" lon="-2.72365">
        <ele>173</ele>
        <time>2021-05-29 16:12:33</time>
      </trkpt>
      <trkpt lat="43.23746" lon="-2.72377">
        <ele>172.6</ele>
        <time>2021-05-29 16:12:34</time>
      </trkpt>
      <trkpt lat="43.23742" lon="-2.72388">
        <ele>172.4</ele>
        <time>2021-05-29 16:12:35</time>
      </trkpt>
      <trkpt lat="43.23739" lon="-2.72398">
        <ele>172.2</ele>
        <time>2021-05-29 16:12:36</time>
      </trkpt>
      <trkpt lat="43.23734" lon="-2.72408">
        <ele>172.2</ele>
        <time>2021-05-29 16:12:37</time>
      </trkpt>
      <trkpt lat="43.2373" lon="-2.72417">
        <ele>172.2</ele>
        <time>2021-05-29 16:12:38</time>
      </trkpt>
      <trkpt lat="43.23725" lon="-2.72427">
        <ele>172.2</ele>
        <time>2021-05-29 16:12:39</time>
      </trkpt>
      <trkpt lat="43.2372" lon="-2.72436">
        <ele>172.2</ele>
        <time>2021-05-29 16:12:40</time>
      </trkpt>
      <trkpt lat="43.23714" lon="-2.72444">
        <ele>172.2</ele>
        <time>2021-05-29 16:12:41</time>
      </trkpt>
      <trkpt lat="43.23708" lon="-2.72452">
        <ele>172.2</ele>
        <time>2021-05-29 16:12:42</time>
      </trkpt>
      <trkpt lat="43.23701" lon="-2.72458">
        <ele>172.4</ele>
        <time>2021-05-29 16:12:43</time>
      </trkpt>
      <trkpt lat="43.23694" lon="-2.72463">
        <ele>172.4</ele>
        <time>2021-05-29 16:12:44</time>
      </trkpt>
      <trkpt lat="43.23687" lon="-2.72466">
        <ele>172.6</ele>
        <time>2021-05-29 16:12:45</time>
      </trkpt>
      <trkpt lat="43.2368" lon="-2.7247">
        <ele>172.8</ele>
        <time>2021-05-29 16:12:46</time>
      </trkpt>
      <trkpt lat="43.23675" lon="-2.72473">
        <ele>172.8</ele>
        <time>2021-05-29 16:12:47</time>
      </trkpt>
      <trkpt lat="43.23669" lon="-2.72475">
        <ele>172.8</ele>
        <time>2021-05-29 16:12:48</time>
      </trkpt>
      <trkpt lat="43.23664" lon="-2.72478">
        <ele>172.8</ele>
        <time>2021-05-29 16:12:49</time>
      </trkpt>
      <trkpt lat="43.23659" lon="-2.72481">
        <ele>172.8</ele>
        <time>2021-05-29 16:12:50</time>
      </trkpt>
      <trkpt lat="43.23654" lon="-2.72485">
        <ele>173</ele>
        <time>2021-05-29 16:12:51</time>
      </trkpt>
      <trkpt lat="43.2365" lon="-2.72489">
        <ele>173</ele>
        <time>2021-05-29 16:12:52</time>
      </trkpt>
      <trkpt lat="43.23645" lon="-2.72494">
        <ele>173</ele>
        <time>2021-05-29 16:12:53</time>
      </trkpt>
      <trkpt lat="43.23641" lon="-2.72499">
        <ele>173</ele>
        <time>2021-05-29 16:12:54</time>
      </trkpt>
      <trkpt lat="43.23637" lon="-2.72504">
        <ele>173.4</ele>
        <time>2021-05-29 16:12:55</time>
      </trkpt>
      <trkpt lat="43.23633" lon="-2.72509">
        <ele>173.6</ele>
        <time>2021-05-29 16:12:56</time>
      </trkpt>
      <trkpt lat="43.2363" lon="-2.72515">
        <ele>173.8</ele>
        <time>2021-05-29 16:12:57</time>
      </trkpt>
      <trkpt lat="43.23627" lon="-2.72521">
        <ele>174</ele>
        <time>2021-05-29 16:12:58</time>
      </trkpt>
      <trkpt lat="43.23623" lon="-2.72527">
        <ele>174.2</ele>
        <time>2021-05-29 16:12:59</time>
      </trkpt>
      <trkpt lat="43.2362" lon="-2.72534">
        <ele>174.2</ele>
        <time>2021-05-29 16:13:00</time>
      </trkpt>
      <trkpt lat="43.23616" lon="-2.72541">
        <ele>174.2</ele>
        <time>2021-05-29 16:13:01</time>
      </trkpt>
      <trkpt lat="43.23612" lon="-2.72548">
        <ele>174.2</ele>
        <time>2021-05-29 16:13:02</time>
      </trkpt>
      <trkpt lat="43.23608" lon="-2.72556">
        <ele>174.2</ele>
        <time>2021-05-29 16:13:03</time>
      </trkpt>
      <trkpt lat="43.23604" lon="-2.72563">
        <ele>174.2</ele>
        <time>2021-05-29 16:13:04</time>
      </trkpt>
      <trkpt lat="43.23599" lon="-2.72571">
        <ele>174.2</ele>
        <time>2021-05-29 16:13:05</time>
      </trkpt>
      <trkpt lat="43.23594" lon="-2.72579">
        <ele>174.2</ele>
        <time>2021-05-29 16:13:06</time>
      </trkpt>
      <trkpt lat="43.23589" lon="-2.72588">
        <ele>174.2</ele>
        <time>2021-05-29 16:13:07</time>
      </trkpt>
      <trkpt lat="43.23584" lon="-2.72596">
        <ele>174</ele>
        <time>2021-05-29 16:13:08</time>
      </trkpt>
      <trkpt lat="43.23579" lon="-2.72605">
        <ele>174</ele>
        <time>2021-05-29 16:13:09</time>
      </trkpt>
      <trkpt lat="43.23573" lon="-2.72613">
        <ele>173.8</ele>
        <time>2021-05-29 16:13:10</time>
      </trkpt>
      <trkpt lat="43.23566" lon="-2.72622">
        <ele>173.6</ele>
        <time>2021-05-29 16:13:11</time>
      </trkpt>
      <trkpt lat="43.2356" lon="-2.72631">
        <ele>173.2</ele>
        <time>2021-05-29 16:13:12</time>
      </trkpt>
      <trkpt lat="43.23553" lon="-2.7264">
        <ele>173</ele>
        <time>2021-05-29 16:13:13</time>
      </trkpt>
      <trkpt lat="43.23546" lon="-2.72649">
        <ele>172.8</ele>
        <time>2021-05-29 16:13:14</time>
      </trkpt>
      <trkpt lat="43.23539" lon="-2.72658">
        <ele>172.4</ele>
        <time>2021-05-29 16:13:15</time>
      </trkpt>
      <trkpt lat="43.23531" lon="-2.72668">
        <ele>172</ele>
        <time>2021-05-29 16:13:16</time>
      </trkpt>
      <trkpt lat="43.23523" lon="-2.72679">
        <ele>171.6</ele>
        <time>2021-05-29 16:13:17</time>
      </trkpt>
      <trkpt lat="43.23514" lon="-2.72689">
        <ele>171.2</ele>
        <time>2021-05-29 16:13:18</time>
      </trkpt>
      <trkpt lat="43.23504" lon="-2.727">
        <ele>171</ele>
        <time>2021-05-29 16:13:19</time>
      </trkpt>
      <trkpt lat="43.23494" lon="-2.72711">
        <ele>170.4</ele>
        <time>2021-05-29 16:13:20</time>
      </trkpt>
      <trkpt lat="43.23483" lon="-2.72722">
        <ele>169.8</ele>
        <time>2021-05-29 16:13:21</time>
      </trkpt>
      <trkpt lat="43.23472" lon="-2.72733">
        <ele>169.4</ele>
        <time>2021-05-29 16:13:22</time>
      </trkpt>
      <trkpt lat="43.2346" lon="-2.72744">
        <ele>169</ele>
        <time>2021-05-29 16:13:23</time>
      </trkpt>
      <trkpt lat="43.23448" lon="-2.72754">
        <ele>168.4</ele>
        <time>2021-05-29 16:13:24</time>
      </trkpt>
      <trkpt lat="43.23436" lon="-2.72765">
        <ele>167.6</ele>
        <time>2021-05-29 16:13:25</time>
      </trkpt>
      <trkpt lat="43.23424" lon="-2.72775">
        <ele>167</ele>
        <time>2021-05-29 16:13:26</time>
      </trkpt>
      <trkpt lat="43.23411" lon="-2.72784">
        <ele>166.2</ele>
        <time>2021-05-29 16:13:27</time>
      </trkpt>
      <trkpt lat="43.23398" lon="-2.72793">
        <ele>165.6</ele>
        <time>2021-05-29 16:13:28</time>
      </trkpt>
      <trkpt lat="43.23385" lon="-2.72801">
        <ele>164.8</ele>
        <time>2021-05-29 16:13:29</time>
      </trkpt>
      <trkpt lat="43.23372" lon="-2.7281">
        <ele>163.8</ele>
        <time>2021-05-29 16:13:30</time>
      </trkpt>
      <trkpt lat="43.23358" lon="-2.72817">
        <ele>163</ele>
        <time>2021-05-29 16:13:31</time>
      </trkpt>
      <trkpt lat="43.23344" lon="-2.72825">
        <ele>162</ele>
        <time>2021-05-29 16:13:32</time>
      </trkpt>
      <trkpt lat="43.23329" lon="-2.72832">
        <ele>161</ele>
        <time>2021-05-29 16:13:33</time>
      </trkpt>
      <trkpt lat="43.23314" lon="-2.72838">
        <ele>160</ele>
        <time>2021-05-29 16:13:34</time>
      </trkpt>
      <trkpt lat="43.233" lon="-2.72844">
        <ele>159</ele>
        <time>2021-05-29 16:13:35</time>
      </trkpt>
      <trkpt lat="43.23285" lon="-2.7285">
        <ele>157.8</ele>
        <time>2021-05-29 16:13:36</time>
      </trkpt>
      <trkpt lat="43.23269" lon="-2.72855">
        <ele>156.6</ele>
        <time>2021-05-29 16:13:37</time>
      </trkpt>
      <trkpt lat="43.23254" lon="-2.72859">
        <ele>155.6</ele>
        <time>2021-05-29 16:13:38</time>
      </trkpt>
      <trkpt lat="43.23238" lon="-2.72864">
        <ele>153.6</ele>
        <time>2021-05-29 16:13:39</time>
      </trkpt>
      <trkpt lat="43.23222" lon="-2.72868">
        <ele>152.8</ele>
        <time>2021-05-29 16:13:40</time>
      </trkpt>
      <trkpt lat="43.23205" lon="-2.72873">
        <ele>152</ele>
        <time>2021-05-29 16:13:41</time>
      </trkpt>
      <trkpt lat="43.23189" lon="-2.72877">
        <ele>151</ele>
        <time>2021-05-29 16:13:42</time>
      </trkpt>
      <trkpt lat="43.23172" lon="-2.72882">
        <ele>150</ele>
        <time>2021-05-29 16:13:43</time>
      </trkpt>
      <trkpt lat="43.23155" lon="-2.72888">
        <ele>148.8</ele>
        <time>2021-05-29 16:13:44</time>
      </trkpt>
      <trkpt lat="43.23139" lon="-2.72894">
        <ele>147.6</ele>
        <time>2021-05-29 16:13:45</time>
      </trkpt>
      <trkpt lat="43.23122" lon="-2.72901">
        <ele>146</ele>
        <time>2021-05-29 16:13:46</time>
      </trkpt>
      <trkpt lat="43.23106" lon="-2.72908">
        <ele>144.8</ele>
        <time>2021-05-29 16:13:47</time>
      </trkpt>
      <trkpt lat="43.2309" lon="-2.72916">
        <ele>143.6</ele>
        <time>2021-05-29 16:13:48</time>
      </trkpt>
      <trkpt lat="43.23073" lon="-2.72924">
        <ele>142.6</ele>
        <time>2021-05-29 16:13:49</time>
      </trkpt>
      <trkpt lat="43.23057" lon="-2.72932">
        <ele>141.6</ele>
        <time>2021-05-29 16:13:50</time>
      </trkpt>
      <trkpt lat="43.2304" lon="-2.7294">
        <ele>140.4</ele>
        <time>2021-05-29 16:13:51</time>
      </trkpt>
      <trkpt lat="43.23023" lon="-2.72948">
        <ele>138.8</ele>
        <time>2021-05-29 16:13:52</time>
      </trkpt>
      <trkpt lat="43.23007" lon="-2.72955">
        <ele>136.8</ele>
        <time>2021-05-29 16:13:53</time>
      </trkpt>
      <trkpt lat="43.2299" lon="-2.72963">
        <ele>135.4</ele>
        <time>2021-05-29 16:13:54</time>
      </trkpt>
      <trkpt lat="43.22973" lon="-2.72971">
        <ele>134</ele>
        <time>2021-05-29 16:13:55</time>
      </trkpt>
      <trkpt lat="43.22956" lon="-2.72978">
        <ele>132.6</ele>
        <time>2021-05-29 16:13:56</time>
      </trkpt>
      <trkpt lat="43.22939" lon="-2.72986">
        <ele>131.6</ele>
        <time>2021-05-29 16:13:57</time>
      </trkpt>
      <trkpt lat="43.22922" lon="-2.72993">
        <ele>130.2</ele>
        <time>2021-05-29 16:13:58</time>
      </trkpt>
      <trkpt lat="43.22905" lon="-2.73">
        <ele>129.2</ele>
        <time>2021-05-29 16:13:59</time>
      </trkpt>
      <trkpt lat="43.22888" lon="-2.73007">
        <ele>128</ele>
        <time>2021-05-29 16:14:00</time>
      </trkpt>
      <trkpt lat="43.22871" lon="-2.73014">
        <ele>126.8</ele>
        <time>2021-05-29 16:14:01</time>
      </trkpt>
      <trkpt lat="43.22853" lon="-2.73022">
        <ele>125.6</ele>
        <time>2021-05-29 16:14:02</time>
      </trkpt>
      <trkpt lat="43.22836" lon="-2.73029">
        <ele>124.6</ele>
        <time>2021-05-29 16:14:03</time>
      </trkpt>
      <trkpt lat="43.22818" lon="-2.73037">
        <ele>124.2</ele>
        <time>2021-05-29 16:14:04</time>
      </trkpt>
      <trkpt lat="43.22801" lon="-2.73045">
        <ele>123.4</ele>
        <time>2021-05-29 16:14:05</time>
      </trkpt>
      <trkpt lat="43.22783" lon="-2.73053">
        <ele>122.6</ele>
        <time>2021-05-29 16:14:06</time>
      </trkpt>
      <trkpt lat="43.22766" lon="-2.7306">
        <ele>121.6</ele>
        <time>2021-05-29 16:14:07</time>
      </trkpt>
      <trkpt lat="43.2275" lon="-2.73066">
        <ele>120.4</ele>
        <time>2021-05-29 16:14:08</time>
      </trkpt>
      <trkpt lat="43.22735" lon="-2.73072">
        <ele>119.4</ele>
        <time>2021-05-29 16:14:09</time>
      </trkpt>
      <trkpt lat="43.22721" lon="-2.73076">
        <ele>118.4</ele>
        <time>2021-05-29 16:14:10</time>
      </trkpt>
      <trkpt lat="43.22707" lon="-2.73078">
        <ele>117.4</ele>
        <time>2021-05-29 16:14:11</time>
      </trkpt>
      <trkpt lat="43.22694" lon="-2.7308">
        <ele>116.2</ele>
        <time>2021-05-29 16:14:12</time>
      </trkpt>
      <trkpt lat="43.22681" lon="-2.73081">
        <ele>114.8</ele>
        <time>2021-05-29 16:14:13</time>
      </trkpt>
      <trkpt lat="43.22669" lon="-2.73083">
        <ele>113</ele>
        <time>2021-05-29 16:14:14</time>
      </trkpt>
      <trkpt lat="43.22659" lon="-2.73085">
        <ele>112</ele>
        <time>2021-05-29 16:14:15</time>
      </trkpt>
      <trkpt lat="43.22648" lon="-2.73086">
        <ele>111</ele>
        <time>2021-05-29 16:14:16</time>
      </trkpt>
      <trkpt lat="43.22639" lon="-2.73082">
        <ele>110.4</ele>
        <time>2021-05-29 16:14:17</time>
      </trkpt>
      <trkpt lat="43.22631" lon="-2.73074">
        <ele>109.8</ele>
        <time>2021-05-29 16:14:18</time>
      </trkpt>
      <trkpt lat="43.22622" lon="-2.73066">
        <ele>109.4</ele>
        <time>2021-05-29 16:14:19</time>
      </trkpt>
      <trkpt lat="43.22613" lon="-2.73058">
        <ele>108.8</ele>
        <time>2021-05-29 16:14:20</time>
      </trkpt>
      <trkpt lat="43.22604" lon="-2.73051">
        <ele>108.2</ele>
        <time>2021-05-29 16:14:21</time>
      </trkpt>
      <trkpt lat="43.22594" lon="-2.73043">
        <ele>107.8</ele>
        <time>2021-05-29 16:14:22</time>
      </trkpt>
      <trkpt lat="43.22585" lon="-2.73034">
        <ele>107.6</ele>
        <time>2021-05-29 16:14:23</time>
      </trkpt>
      <trkpt lat="43.22576" lon="-2.73024">
        <ele>107.4</ele>
        <time>2021-05-29 16:14:24</time>
      </trkpt>
      <trkpt lat="43.22567" lon="-2.73014">
        <ele>107.4</ele>
        <time>2021-05-29 16:14:25</time>
      </trkpt>
      <trkpt lat="43.22558" lon="-2.73004">
        <ele>107</ele>
        <time>2021-05-29 16:14:26</time>
      </trkpt>
      <trkpt lat="43.22549" lon="-2.72992">
        <ele>106.6</ele>
        <time>2021-05-29 16:14:27</time>
      </trkpt>
      <trkpt lat="43.2254" lon="-2.72981">
        <ele>106.2</ele>
        <time>2021-05-29 16:14:28</time>
      </trkpt>
      <trkpt lat="43.22531" lon="-2.72969">
        <ele>106</ele>
        <time>2021-05-29 16:14:29</time>
      </trkpt>
      <trkpt lat="43.22522" lon="-2.72957">
        <ele>105.6</ele>
        <time>2021-05-29 16:14:30</time>
      </trkpt>
      <trkpt lat="43.22512" lon="-2.72945">
        <ele>105.4</ele>
        <time>2021-05-29 16:14:31</time>
      </trkpt>
      <trkpt lat="43.22503" lon="-2.72933">
        <ele>104.8</ele>
        <time>2021-05-29 16:14:32</time>
      </trkpt>
      <trkpt lat="43.22494" lon="-2.72922">
        <ele>104.2</ele>
        <time>2021-05-29 16:14:33</time>
      </trkpt>
      <trkpt lat="43.22485" lon="-2.72911">
        <ele>104</ele>
        <time>2021-05-29 16:14:34</time>
      </trkpt>
      <trkpt lat="43.22475" lon="-2.72901">
        <ele>103.4</ele>
        <time>2021-05-29 16:14:35</time>
      </trkpt>
      <trkpt lat="43.22465" lon="-2.72892">
        <ele>102.8</ele>
        <time>2021-05-29 16:14:36</time>
      </trkpt>
      <trkpt lat="43.22454" lon="-2.72884">
        <ele>102.2</ele>
        <time>2021-05-29 16:14:37</time>
      </trkpt>
      <trkpt lat="43.22442" lon="-2.72879">
        <ele>101.6</ele>
        <time>2021-05-29 16:14:38</time>
      </trkpt>
      <trkpt lat="43.2243" lon="-2.72876">
        <ele>100.8</ele>
        <time>2021-05-29 16:14:39</time>
      </trkpt>
      <trkpt lat="43.22418" lon="-2.72878">
        <ele>100.2</ele>
        <time>2021-05-29 16:14:40</time>
      </trkpt>
      <trkpt lat="43.22407" lon="-2.72883">
        <ele>99.4</ele>
        <time>2021-05-29 16:14:41</time>
      </trkpt>
      <trkpt lat="43.22397" lon="-2.72892">
        <ele>98.8</ele>
        <time>2021-05-29 16:14:42</time>
      </trkpt>
      <trkpt lat="43.22388" lon="-2.72904">
        <ele>98</ele>
        <time>2021-05-29 16:14:43</time>
      </trkpt>
      <trkpt lat="43.22382" lon="-2.72917">
        <ele>97.2</ele>
        <time>2021-05-29 16:14:44</time>
      </trkpt>
      <trkpt lat="43.22379" lon="-2.72932">
        <ele>96.6</ele>
        <time>2021-05-29 16:14:45</time>
      </trkpt>
      <trkpt lat="43.22379" lon="-2.72947">
        <ele>96</ele>
        <time>2021-05-29 16:14:46</time>
      </trkpt>
      <trkpt lat="43.2238" lon="-2.72961">
        <ele>95.4</ele>
        <time>2021-05-29 16:14:47</time>
      </trkpt>
      <trkpt lat="43.22382" lon="-2.72975">
        <ele>95.2</ele>
        <time>2021-05-29 16:14:48</time>
      </trkpt>
      <trkpt lat="43.22386" lon="-2.7299">
        <ele>94.8</ele>
        <time>2021-05-29 16:14:49</time>
      </trkpt>
      <trkpt lat="43.22389" lon="-2.73004">
        <ele>94.6</ele>
        <time>2021-05-29 16:14:50</time>
      </trkpt>
      <trkpt lat="43.22392" lon="-2.7302">
        <ele>94.6</ele>
        <time>2021-05-29 16:14:51</time>
      </trkpt>
      <trkpt lat="43.22396" lon="-2.73035">
        <ele>94.6</ele>
        <time>2021-05-29 16:14:52</time>
      </trkpt>
      <trkpt lat="43.224" lon="-2.73051">
        <ele>94.6</ele>
        <time>2021-05-29 16:14:53</time>
      </trkpt>
      <trkpt lat="43.22404" lon="-2.73067">
        <ele>94.2</ele>
        <time>2021-05-29 16:14:54</time>
      </trkpt>
      <trkpt lat="43.22407" lon="-2.73083">
        <ele>93.8</ele>
        <time>2021-05-29 16:14:55</time>
      </trkpt>
      <trkpt lat="43.22411" lon="-2.731">
        <ele>93.8</ele>
        <time>2021-05-29 16:14:56</time>
      </trkpt>
      <trkpt lat="43.22415" lon="-2.73117">
        <ele>93.4</ele>
        <time>2021-05-29 16:14:57</time>
      </trkpt>
      <trkpt lat="43.22419" lon="-2.73134">
        <ele>93.2</ele>
        <time>2021-05-29 16:14:58</time>
      </trkpt>
      <trkpt lat="43.22423" lon="-2.73151">
        <ele>93.2</ele>
        <time>2021-05-29 16:14:59</time>
      </trkpt>
      <trkpt lat="43.22427" lon="-2.73167">
        <ele>93</ele>
        <time>2021-05-29 16:15:00</time>
      </trkpt>
      <trkpt lat="43.22431" lon="-2.73184">
        <ele>93</ele>
        <time>2021-05-29 16:15:01</time>
      </trkpt>
      <trkpt lat="43.22436" lon="-2.732">
        <ele>92.8</ele>
        <time>2021-05-29 16:15:02</time>
      </trkpt>
      <trkpt lat="43.2244" lon="-2.73217">
        <ele>92.4</ele>
        <time>2021-05-29 16:15:03</time>
      </trkpt>
      <trkpt lat="43.22444" lon="-2.73234">
        <ele>92.2</ele>
        <time>2021-05-29 16:15:04</time>
      </trkpt>
      <trkpt lat="43.22448" lon="-2.73251">
        <ele>92</ele>
        <time>2021-05-29 16:15:05</time>
      </trkpt>
      <trkpt lat="43.22452" lon="-2.73269">
        <ele>92</ele>
        <time>2021-05-29 16:15:06</time>
      </trkpt>
      <trkpt lat="43.22456" lon="-2.73286">
        <ele>91.8</ele>
        <time>2021-05-29 16:15:07</time>
      </trkpt>
      <trkpt lat="43.2246" lon="-2.73303">
        <ele>91.6</ele>
        <time>2021-05-29 16:15:08</time>
      </trkpt>
      <trkpt lat="43.22463" lon="-2.73321">
        <ele>91.4</ele>
        <time>2021-05-29 16:15:09</time>
      </trkpt>
      <trkpt lat="43.22467" lon="-2.73338">
        <ele>91.2</ele>
        <time>2021-05-29 16:15:10</time>
      </trkpt>
      <trkpt lat="43.2247" lon="-2.73356">
        <ele>91</ele>
        <time>2021-05-29 16:15:11</time>
      </trkpt>
      <trkpt lat="43.22474" lon="-2.73374">
        <ele>90.8</ele>
        <time>2021-05-29 16:15:12</time>
      </trkpt>
      <trkpt lat="43.22477" lon="-2.73392">
        <ele>90.8</ele>
        <time>2021-05-29 16:15:13</time>
      </trkpt>
      <trkpt lat="43.2248" lon="-2.7341">
        <ele>90.4</ele>
        <time>2021-05-29 16:15:14</time>
      </trkpt>
      <trkpt lat="43.22484" lon="-2.73427">
        <ele>90</ele>
        <time>2021-05-29 16:15:15</time>
      </trkpt>
      <trkpt lat="43.22488" lon="-2.73445">
        <ele>89.6</ele>
        <time>2021-05-29 16:15:16</time>
      </trkpt>
      <trkpt lat="43.22492" lon="-2.73462">
        <ele>89.4</ele>
        <time>2021-05-29 16:15:17</time>
      </trkpt>
      <trkpt lat="43.22496" lon="-2.73479">
        <ele>89</ele>
        <time>2021-05-29 16:15:18</time>
      </trkpt>
      <trkpt lat="43.225" lon="-2.73496">
        <ele>88.6</ele>
        <time>2021-05-29 16:15:19</time>
      </trkpt>
      <trkpt lat="43.22505" lon="-2.73512">
        <ele>88.2</ele>
        <time>2021-05-29 16:15:20</time>
      </trkpt>
      <trkpt lat="43.2251" lon="-2.73528">
        <ele>87.6</ele>
        <time>2021-05-29 16:15:21</time>
      </trkpt>
      <trkpt lat="43.22515" lon="-2.73543">
        <ele>87.2</ele>
        <time>2021-05-29 16:15:22</time>
      </trkpt>
      <trkpt lat="43.2252" lon="-2.73557">
        <ele>86.4</ele>
        <time>2021-05-29 16:15:23</time>
      </trkpt>
      <trkpt lat="43.22525" lon="-2.73572">
        <ele>86.2</ele>
        <time>2021-05-29 16:15:24</time>
      </trkpt>
      <trkpt lat="43.22531" lon="-2.73585">
        <ele>86</ele>
        <time>2021-05-29 16:15:25</time>
      </trkpt>
      <trkpt lat="43.22536" lon="-2.73599">
        <ele>86</ele>
        <time>2021-05-29 16:15:26</time>
      </trkpt>
      <trkpt lat="43.22541" lon="-2.73611">
        <ele>85.8</ele>
        <time>2021-05-29 16:15:27</time>
      </trkpt>
      <trkpt lat="43.22546" lon="-2.73623">
        <ele>85.8</ele>
        <time>2021-05-29 16:15:28</time>
      </trkpt>
      <trkpt lat="43.22552" lon="-2.73634">
        <ele>85.8</ele>
        <time>2021-05-29 16:15:29</time>
      </trkpt>
      <trkpt lat="43.22557" lon="-2.73645">
        <ele>85.8</ele>
        <time>2021-05-29 16:15:30</time>
      </trkpt>
      <trkpt lat="43.22562" lon="-2.73655">
        <ele>85.8</ele>
        <time>2021-05-29 16:15:31</time>
      </trkpt>
      <trkpt lat="43.22566" lon="-2.73665">
        <ele>85.8</ele>
        <time>2021-05-29 16:15:32</time>
      </trkpt>
      <trkpt lat="43.22571" lon="-2.73674">
        <ele>85.8</ele>
        <time>2021-05-29 16:15:33</time>
      </trkpt>
      <trkpt lat="43.22574" lon="-2.73683">
        <ele>85.8</ele>
        <time>2021-05-29 16:15:34</time>
      </trkpt>
      <trkpt lat="43.22578" lon="-2.73692">
        <ele>86</ele>
        <time>2021-05-29 16:15:35</time>
      </trkpt>
      <trkpt lat="43.22582" lon="-2.73701">
        <ele>86.2</ele>
        <time>2021-05-29 16:15:36</time>
      </trkpt>
      <trkpt lat="43.22585" lon="-2.7371">
        <ele>86.4</ele>
        <time>2021-05-29 16:15:37</time>
      </trkpt>
      <trkpt lat="43.22589" lon="-2.73719">
        <ele>86.8</ele>
        <time>2021-05-29 16:15:38</time>
      </trkpt>
      <trkpt lat="43.22592" lon="-2.73727">
        <ele>87</ele>
        <time>2021-05-29 16:15:39</time>
      </trkpt>
      <trkpt lat="43.22596" lon="-2.73735">
        <ele>87.2</ele>
        <time>2021-05-29 16:15:40</time>
      </trkpt>
      <trkpt lat="43.22599" lon="-2.73744">
        <ele>87.4</ele>
        <time>2021-05-29 16:15:41</time>
      </trkpt>
      <trkpt lat="43.22602" lon="-2.73752">
        <ele>87.8</ele>
        <time>2021-05-29 16:15:42</time>
      </trkpt>
      <trkpt lat="43.22606" lon="-2.73761">
        <ele>88</ele>
        <time>2021-05-29 16:15:43</time>
      </trkpt>
      <trkpt lat="43.22609" lon="-2.7377">
        <ele>88.2</ele>
        <time>2021-05-29 16:15:44</time>
      </trkpt>
      <trkpt lat="43.22612" lon="-2.73778">
        <ele>88.4</ele>
        <time>2021-05-29 16:15:45</time>
      </trkpt>
      <trkpt lat="43.22615" lon="-2.73787">
        <ele>88.6</ele>
        <time>2021-05-29 16:15:46</time>
      </trkpt>
      <trkpt lat="43.22617" lon="-2.73795">
        <ele>88.8</ele>
        <time>2021-05-29 16:15:47</time>
      </trkpt>
      <trkpt lat="43.2262" lon="-2.73803">
        <ele>89.2</ele>
        <time>2021-05-29 16:15:48</time>
      </trkpt>
      <trkpt lat="43.22623" lon="-2.73812">
        <ele>89.6</ele>
        <time>2021-05-29 16:15:49</time>
      </trkpt>
      <trkpt lat="43.22625" lon="-2.7382">
        <ele>89.8</ele>
        <time>2021-05-29 16:15:50</time>
      </trkpt>
      <trkpt lat="43.22628" lon="-2.73829">
        <ele>90</ele>
        <time>2021-05-29 16:15:51</time>
      </trkpt>
      <trkpt lat="43.2263" lon="-2.73837">
        <ele>90.2</ele>
        <time>2021-05-29 16:15:52</time>
      </trkpt>
      <trkpt lat="43.22632" lon="-2.73845">
        <ele>90.4</ele>
        <time>2021-05-29 16:15:53</time>
      </trkpt>
      <trkpt lat="43.22635" lon="-2.73853">
        <ele>90.6</ele>
        <time>2021-05-29 16:15:54</time>
      </trkpt>
      <trkpt lat="43.22637" lon="-2.73861">
        <ele>91</ele>
        <time>2021-05-29 16:15:55</time>
      </trkpt>
      <trkpt lat="43.22639" lon="-2.73869">
        <ele>91.4</ele>
        <time>2021-05-29 16:15:56</time>
      </trkpt>
      <trkpt lat="43.22641" lon="-2.73878">
        <ele>92</ele>
        <time>2021-05-29 16:15:57</time>
      </trkpt>
      <trkpt lat="43.22643" lon="-2.73886">
        <ele>92.2</ele>
        <time>2021-05-29 16:15:58</time>
      </trkpt>
      <trkpt lat="43.22645" lon="-2.73894">
        <ele>92.4</ele>
        <time>2021-05-29 16:15:59</time>
      </trkpt>
      <trkpt lat="43.22647" lon="-2.73902">
        <ele>92.8</ele>
        <time>2021-05-29 16:16:00</time>
      </trkpt>
      <trkpt lat="43.22649" lon="-2.7391">
        <ele>93</ele>
        <time>2021-05-29 16:16:01</time>
      </trkpt>
      <trkpt lat="43.22651" lon="-2.73918">
        <ele>93.2</ele>
        <time>2021-05-29 16:16:02</time>
      </trkpt>
      <trkpt lat="43.22653" lon="-2.73927">
        <ele>93.4</ele>
        <time>2021-05-29 16:16:03</time>
      </trkpt>
      <trkpt lat="43.22654" lon="-2.73934">
        <ele>93.6</ele>
        <time>2021-05-29 16:16:04</time>
      </trkpt>
      <trkpt lat="43.22656" lon="-2.73942">
        <ele>94</ele>
        <time>2021-05-29 16:16:05</time>
      </trkpt>
      <trkpt lat="43.22657" lon="-2.73951">
        <ele>94.2</ele>
        <time>2021-05-29 16:16:06</time>
      </trkpt>
      <trkpt lat="43.22659" lon="-2.73959">
        <ele>94.2</ele>
        <time>2021-05-29 16:16:07</time>
      </trkpt>
      <trkpt lat="43.2266" lon="-2.73967">
        <ele>94.4</ele>
        <time>2021-05-29 16:16:08</time>
      </trkpt>
      <trkpt lat="43.22662" lon="-2.73975">
        <ele>94.8</ele>
        <time>2021-05-29 16:16:09</time>
      </trkpt>
      <trkpt lat="43.22663" lon="-2.73983">
        <ele>95</ele>
        <time>2021-05-29 16:16:10</time>
      </trkpt>
      <trkpt lat="43.22664" lon="-2.73991">
        <ele>95</ele>
        <time>2021-05-29 16:16:11</time>
      </trkpt>
      <trkpt lat="43.22666" lon="-2.73999">
        <ele>95.2</ele>
        <time>2021-05-29 16:16:12</time>
      </trkpt>
      <trkpt lat="43.22667" lon="-2.74007">
        <ele>95.6</ele>
        <time>2021-05-29 16:16:13</time>
      </trkpt>
      <trkpt lat="43.22668" lon="-2.74015">
        <ele>95.8</ele>
        <time>2021-05-29 16:16:14</time>
      </trkpt>
      <trkpt lat="43.22669" lon="-2.74023">
        <ele>96</ele>
        <time>2021-05-29 16:16:15</time>
      </trkpt>
      <trkpt lat="43.22671" lon="-2.74031">
        <ele>96.2</ele>
        <time>2021-05-29 16:16:16</time>
      </trkpt>
      <trkpt lat="43.22672" lon="-2.74039">
        <ele>96.4</ele>
        <time>2021-05-29 16:16:17</time>
      </trkpt>
      <trkpt lat="43.22673" lon="-2.74046">
        <ele>96.6</ele>
        <time>2021-05-29 16:16:18</time>
      </trkpt>
      <trkpt lat="43.22674" lon="-2.74054">
        <ele>96.8</ele>
        <time>2021-05-29 16:16:19</time>
      </trkpt>
      <trkpt lat="43.22676" lon="-2.74062">
        <ele>97</ele>
        <time>2021-05-29 16:16:20</time>
      </trkpt>
      <trkpt lat="43.22677" lon="-2.7407">
        <ele>97</ele>
        <time>2021-05-29 16:16:21</time>
      </trkpt>
      <trkpt lat="43.22678" lon="-2.74077">
        <ele>97.2</ele>
        <time>2021-05-29 16:16:22</time>
      </trkpt>
      <trkpt lat="43.22679" lon="-2.74084">
        <ele>97.4</ele>
        <time>2021-05-29 16:16:23</time>
      </trkpt>
      <trkpt lat="43.22681" lon="-2.74092">
        <ele>97.8</ele>
        <time>2021-05-29 16:16:24</time>
      </trkpt>
      <trkpt lat="43.22682" lon="-2.74099">
        <ele>97.8</ele>
        <time>2021-05-29 16:16:25</time>
      </trkpt>
      <trkpt lat="43.22683" lon="-2.74106">
        <ele>98.2</ele>
        <time>2021-05-29 16:16:26</time>
      </trkpt>
      <trkpt lat="43.22684" lon="-2.74114">
        <ele>98.4</ele>
        <time>2021-05-29 16:16:27</time>
      </trkpt>
      <trkpt lat="43.22686" lon="-2.74121">
        <ele>98.6</ele>
        <time>2021-05-29 16:16:28</time>
      </trkpt>
      <trkpt lat="43.22688" lon="-2.74128">
        <ele>99</ele>
        <time>2021-05-29 16:16:29</time>
      </trkpt>
      <trkpt lat="43.22689" lon="-2.74135">
        <ele>99.2</ele>
        <time>2021-05-29 16:16:30</time>
      </trkpt>
      <trkpt lat="43.2269" lon="-2.74143">
        <ele>99.4</ele>
        <time>2021-05-29 16:16:31</time>
      </trkpt>
      <trkpt lat="43.22692" lon="-2.7415">
        <ele>99.8</ele>
        <time>2021-05-29 16:16:32</time>
      </trkpt>
      <trkpt lat="43.22694" lon="-2.74157">
        <ele>100</ele>
        <time>2021-05-29 16:16:33</time>
      </trkpt>
      <trkpt lat="43.22695" lon="-2.74164">
        <ele>100.2</ele>
        <time>2021-05-29 16:16:34</time>
      </trkpt>
      <trkpt lat="43.22697" lon="-2.74171">
        <ele>100.2</ele>
        <time>2021-05-29 16:16:35</time>
      </trkpt>
      <trkpt lat="43.22699" lon="-2.74178">
        <ele>100.4</ele>
        <time>2021-05-29 16:16:36</time>
      </trkpt>
      <trkpt lat="43.22701" lon="-2.74185">
        <ele>100.6</ele>
        <time>2021-05-29 16:16:37</time>
      </trkpt>
      <trkpt lat="43.22703" lon="-2.74192">
        <ele>100.8</ele>
        <time>2021-05-29 16:16:38</time>
      </trkpt>
      <trkpt lat="43.22705" lon="-2.74199">
        <ele>101</ele>
        <time>2021-05-29 16:16:39</time>
      </trkpt>
      <trkpt lat="43.22707" lon="-2.74206">
        <ele>101.2</ele>
        <time>2021-05-29 16:16:40</time>
      </trkpt>
      <trkpt lat="43.22709" lon="-2.74213">
        <ele>101.4</ele>
        <time>2021-05-29 16:16:41</time>
      </trkpt>
      <trkpt lat="43.22711" lon="-2.7422">
        <ele>101.6</ele>
        <time>2021-05-29 16:16:42</time>
      </trkpt>
      <trkpt lat="43.22713" lon="-2.74227">
        <ele>101.8</ele>
        <time>2021-05-29 16:16:43</time>
      </trkpt>
      <trkpt lat="43.22715" lon="-2.74234">
        <ele>102</ele>
        <time>2021-05-29 16:16:44</time>
      </trkpt>
      <trkpt lat="43.22718" lon="-2.74241">
        <ele>102.2</ele>
        <time>2021-05-29 16:16:45</time>
      </trkpt>
      <trkpt lat="43.2272" lon="-2.74248">
        <ele>102.4</ele>
        <time>2021-05-29 16:16:46</time>
      </trkpt>
      <trkpt lat="43.22723" lon="-2.74255">
        <ele>102.6</ele>
        <time>2021-05-29 16:16:47</time>
      </trkpt>
      <trkpt lat="43.22725" lon="-2.74262">
        <ele>102.8</ele>
        <time>2021-05-29 16:16:48</time>
      </trkpt>
      <trkpt lat="43.22728" lon="-2.74269">
        <ele>103</ele>
        <time>2021-05-29 16:16:49</time>
      </trkpt>
      <trkpt lat="43.2273" lon="-2.74276">
        <ele>103.2</ele>
        <time>2021-05-29 16:16:50</time>
      </trkpt>
      <trkpt lat="43.22733" lon="-2.74283">
        <ele>103.4</ele>
        <time>2021-05-29 16:16:51</time>
      </trkpt>
      <trkpt lat="43.22736" lon="-2.7429">
        <ele>103.6</ele>
        <time>2021-05-29 16:16:52</time>
      </trkpt>
      <trkpt lat="43.22738" lon="-2.74297">
        <ele>103.8</ele>
        <time>2021-05-29 16:16:53</time>
      </trkpt>
      <trkpt lat="43.22741" lon="-2.74304">
        <ele>103.8</ele>
        <time>2021-05-29 16:16:54</time>
      </trkpt>
      <trkpt lat="43.22744" lon="-2.74311">
        <ele>104</ele>
        <time>2021-05-29 16:16:55</time>
      </trkpt>
      <trkpt lat="43.22747" lon="-2.74318">
        <ele>104.2</ele>
        <time>2021-05-29 16:16:56</time>
      </trkpt>
      <trkpt lat="43.2275" lon="-2.74325">
        <ele>104.2</ele>
        <time>2021-05-29 16:16:57</time>
      </trkpt>
      <trkpt lat="43.22753" lon="-2.74332">
        <ele>104.4</ele>
        <time>2021-05-29 16:16:58</time>
      </trkpt>
      <trkpt lat="43.22756" lon="-2.7434">
        <ele>104.6</ele>
        <time>2021-05-29 16:16:59</time>
      </trkpt>
      <trkpt lat="43.22759" lon="-2.74347">
        <ele>104.6</ele>
        <time>2021-05-29 16:17:00</time>
      </trkpt>
      <trkpt lat="43.22763" lon="-2.74353">
        <ele>104.8</ele>
        <time>2021-05-29 16:17:01</time>
      </trkpt>
      <trkpt lat="43.22766" lon="-2.7436">
        <ele>105</ele>
        <time>2021-05-29 16:17:02</time>
      </trkpt>
      <trkpt lat="43.22769" lon="-2.74367">
        <ele>105.2</ele>
        <time>2021-05-29 16:17:03</time>
      </trkpt>
      <trkpt lat="43.22772" lon="-2.74374">
        <ele>105.4</ele>
        <time>2021-05-29 16:17:04</time>
      </trkpt>
      <trkpt lat="43.22775" lon="-2.74381">
        <ele>105.6</ele>
        <time>2021-05-29 16:17:05</time>
      </trkpt>
      <trkpt lat="43.22779" lon="-2.74388">
        <ele>105.8</ele>
        <time>2021-05-29 16:17:06</time>
      </trkpt>
      <trkpt lat="43.22782" lon="-2.74395">
        <ele>106</ele>
        <time>2021-05-29 16:17:07</time>
      </trkpt>
      <trkpt lat="43.22786" lon="-2.74402">
        <ele>106</ele>
        <time>2021-05-29 16:17:08</time>
      </trkpt>
      <trkpt lat="43.22789" lon="-2.7441">
        <ele>106.2</ele>
        <time>2021-05-29 16:17:09</time>
      </trkpt>
      <trkpt lat="43.22792" lon="-2.74417">
        <ele>106.2</ele>
        <time>2021-05-29 16:17:10</time>
      </trkpt>
      <trkpt lat="43.22795" lon="-2.74424">
        <ele>106.4</ele>
        <time>2021-05-29 16:17:11</time>
      </trkpt>
      <trkpt lat="43.22798" lon="-2.74432">
        <ele>106.8</ele>
        <time>2021-05-29 16:17:12</time>
      </trkpt>
      <trkpt lat="43.22801" lon="-2.74439">
        <ele>107</ele>
        <time>2021-05-29 16:17:13</time>
      </trkpt>
      <trkpt lat="43.22804" lon="-2.74447">
        <ele>107</ele>
        <time>2021-05-29 16:17:14</time>
      </trkpt>
      <trkpt lat="43.22807" lon="-2.74455">
        <ele>107.2</ele>
        <time>2021-05-29 16:17:15</time>
      </trkpt>
      <trkpt lat="43.2281" lon="-2.74463">
        <ele>107.4</ele>
        <time>2021-05-29 16:17:16</time>
      </trkpt>
      <trkpt lat="43.22813" lon="-2.74472">
        <ele>107.4</ele>
        <time>2021-05-29 16:17:17</time>
      </trkpt>
      <trkpt lat="43.22815" lon="-2.74481">
        <ele>107.4</ele>
        <time>2021-05-29 16:17:18</time>
      </trkpt>
      <trkpt lat="43.22818" lon="-2.74489">
        <ele>107.6</ele>
        <time>2021-05-29 16:17:19</time>
      </trkpt>
      <trkpt lat="43.2282" lon="-2.74498">
        <ele>107.6</ele>
        <time>2021-05-29 16:17:20</time>
      </trkpt>
      <trkpt lat="43.22823" lon="-2.74507">
        <ele>107.8</ele>
        <time>2021-05-29 16:17:21</time>
      </trkpt>
      <trkpt lat="43.22825" lon="-2.74516">
        <ele>108</ele>
        <time>2021-05-29 16:17:22</time>
      </trkpt>
      <trkpt lat="43.22827" lon="-2.74524">
        <ele>108.2</ele>
        <time>2021-05-29 16:17:23</time>
      </trkpt>
      <trkpt lat="43.22828" lon="-2.74532">
        <ele>108.2</ele>
        <time>2021-05-29 16:17:24</time>
      </trkpt>
      <trkpt lat="43.2283" lon="-2.74541">
        <ele>108.2</ele>
        <time>2021-05-29 16:17:25</time>
      </trkpt>
      <trkpt lat="43.22831" lon="-2.7455">
        <ele>108.4</ele>
        <time>2021-05-29 16:17:26</time>
      </trkpt>
      <trkpt lat="43.22833" lon="-2.74559">
        <ele>108.4</ele>
        <time>2021-05-29 16:17:27</time>
      </trkpt>
      <trkpt lat="43.22834" lon="-2.74568">
        <ele>108.4</ele>
        <time>2021-05-29 16:17:28</time>
      </trkpt>
      <trkpt lat="43.22835" lon="-2.74577">
        <ele>108.4</ele>
        <time>2021-05-29 16:17:29</time>
      </trkpt>
      <trkpt lat="43.22836" lon="-2.74586">
        <ele>108.4</ele>
        <time>2021-05-29 16:17:30</time>
      </trkpt>
      <trkpt lat="43.22837" lon="-2.74595">
        <ele>108.6</ele>
        <time>2021-05-29 16:17:31</time>
      </trkpt>
      <trkpt lat="43.22837" lon="-2.74604">
        <ele>108.6</ele>
        <time>2021-05-29 16:17:32</time>
      </trkpt>
      <trkpt lat="43.22838" lon="-2.74614">
        <ele>108.8</ele>
        <time>2021-05-29 16:17:33</time>
      </trkpt>
      <trkpt lat="43.22839" lon="-2.74623">
        <ele>108.8</ele>
        <time>2021-05-29 16:17:34</time>
      </trkpt>
      <trkpt lat="43.22839" lon="-2.74633">
        <ele>108.8</ele>
        <time>2021-05-29 16:17:35</time>
      </trkpt>
      <trkpt lat="43.22839" lon="-2.74643">
        <ele>108.8</ele>
        <time>2021-05-29 16:17:36</time>
      </trkpt>
      <trkpt lat="43.22839" lon="-2.74653">
        <ele>108.8</ele>
        <time>2021-05-29 16:17:37</time>
      </trkpt>
      <trkpt lat="43.22839" lon="-2.74663">
        <ele>108.8</ele>
        <time>2021-05-29 16:17:38</time>
      </trkpt>
      <trkpt lat="43.22839" lon="-2.74673">
        <ele>108.8</ele>
        <time>2021-05-29 16:17:39</time>
      </trkpt>
      <trkpt lat="43.22838" lon="-2.74682">
        <ele>109</ele>
        <time>2021-05-29 16:17:40</time>
      </trkpt>
      <trkpt lat="43.22838" lon="-2.74692">
        <ele>109</ele>
        <time>2021-05-29 16:17:41</time>
      </trkpt>
      <trkpt lat="43.22837" lon="-2.74702">
        <ele>109.2</ele>
        <time>2021-05-29 16:17:42</time>
      </trkpt>
      <trkpt lat="43.22836" lon="-2.74712">
        <ele>109.2</ele>
        <time>2021-05-29 16:17:43</time>
      </trkpt>
      <trkpt lat="43.22835" lon="-2.74722">
        <ele>109.2</ele>
        <time>2021-05-29 16:17:44</time>
      </trkpt>
      <trkpt lat="43.22834" lon="-2.74732">
        <ele>109.2</ele>
        <time>2021-05-29 16:17:45</time>
      </trkpt>
      <trkpt lat="43.22833" lon="-2.74742">
        <ele>109.2</ele>
        <time>2021-05-29 16:17:46</time>
      </trkpt>
      <trkpt lat="43.22831" lon="-2.74752">
        <ele>109.2</ele>
        <time>2021-05-29 16:17:47</time>
      </trkpt>
      <trkpt lat="43.2283" lon="-2.74762">
        <ele>109.2</ele>
        <time>2021-05-29 16:17:48</time>
      </trkpt>
      <trkpt lat="43.22829" lon="-2.74772">
        <ele>109.4</ele>
        <time>2021-05-29 16:17:49</time>
      </trkpt>
      <trkpt lat="43.22827" lon="-2.74782">
        <ele>109.4</ele>
        <time>2021-05-29 16:17:50</time>
      </trkpt>
      <trkpt lat="43.22826" lon="-2.74792">
        <ele>109.4</ele>
        <time>2021-05-29 16:17:51</time>
      </trkpt>
      <trkpt lat="43.22825" lon="-2.74802">
        <ele>109.4</ele>
        <time>2021-05-29 16:17:52</time>
      </trkpt>
      <trkpt lat="43.22824" lon="-2.74812">
        <ele>109.4</ele>
        <time>2021-05-29 16:17:53</time>
      </trkpt>
      <trkpt lat="43.22822" lon="-2.74823">
        <ele>109.4</ele>
        <time>2021-05-29 16:17:54</time>
      </trkpt>
      <trkpt lat="43.22821" lon="-2.74833">
        <ele>109.4</ele>
        <time>2021-05-29 16:17:55</time>
      </trkpt>
      <trkpt lat="43.2282" lon="-2.74843">
        <ele>109.4</ele>
        <time>2021-05-29 16:17:56</time>
      </trkpt>
      <trkpt lat="43.22819" lon="-2.74854">
        <ele>109.6</ele>
        <time>2021-05-29 16:17:57</time>
      </trkpt>
      <trkpt lat="43.22819" lon="-2.74864">
        <ele>109.6</ele>
        <time>2021-05-29 16:17:58</time>
      </trkpt>
      <trkpt lat="43.22818" lon="-2.74874">
        <ele>109.6</ele>
        <time>2021-05-29 16:17:59</time>
      </trkpt>
      <trkpt lat="43.22817" lon="-2.74885">
        <ele>109.6</ele>
        <time>2021-05-29 16:18:00</time>
      </trkpt>
      <trkpt lat="43.22817" lon="-2.74895">
        <ele>109.6</ele>
        <time>2021-05-29 16:18:01</time>
      </trkpt>
      <trkpt lat="43.22817" lon="-2.74905">
        <ele>109.6</ele>
        <time>2021-05-29 16:18:02</time>
      </trkpt>
      <trkpt lat="43.22816" lon="-2.74915">
        <ele>109.6</ele>
        <time>2021-05-29 16:18:03</time>
      </trkpt>
      <trkpt lat="43.22816" lon="-2.74925">
        <ele>109.6</ele>
        <time>2021-05-29 16:18:04</time>
      </trkpt>
      <trkpt lat="43.22817" lon="-2.74936">
        <ele>109.6</ele>
        <time>2021-05-29 16:18:05</time>
      </trkpt>
      <trkpt lat="43.22817" lon="-2.74946">
        <ele>109.8</ele>
        <time>2021-05-29 16:18:06</time>
      </trkpt>
      <trkpt lat="43.22817" lon="-2.74956">
        <ele>109.8</ele>
        <time>2021-05-29 16:18:07</time>
      </trkpt>
      <trkpt lat="43.22818" lon="-2.74967">
        <ele>109.8</ele>
        <time>2021-05-29 16:18:08</time>
      </trkpt>
      <trkpt lat="43.22819" lon="-2.74977">
        <ele>109.6</ele>
        <time>2021-05-29 16:18:09</time>
      </trkpt>
      <trkpt lat="43.22819" lon="-2.74988">
        <ele>109.6</ele>
        <time>2021-05-29 16:18:10</time>
      </trkpt>
      <trkpt lat="43.2282" lon="-2.74998">
        <ele>109.6</ele>
        <time>2021-05-29 16:18:11</time>
      </trkpt>
      <trkpt lat="43.22822" lon="-2.75008">
        <ele>109.6</ele>
        <time>2021-05-29 16:18:12</time>
      </trkpt>
      <trkpt lat="43.22823" lon="-2.75019">
        <ele>110</ele>
        <time>2021-05-29 16:18:13</time>
      </trkpt>
      <trkpt lat="43.22824" lon="-2.75029">
        <ele>110</ele>
        <time>2021-05-29 16:18:14</time>
      </trkpt>
      <trkpt lat="43.22826" lon="-2.75039">
        <ele>110</ele>
        <time>2021-05-29 16:18:15</time>
      </trkpt>
      <trkpt lat="43.22828" lon="-2.75049">
        <ele>110</ele>
        <time>2021-05-29 16:18:16</time>
      </trkpt>
      <trkpt lat="43.22831" lon="-2.75059">
        <ele>110.2</ele>
        <time>2021-05-29 16:18:17</time>
      </trkpt>
      <trkpt lat="43.22833" lon="-2.75069">
        <ele>110.2</ele>
        <time>2021-05-29 16:18:18</time>
      </trkpt>
      <trkpt lat="43.22836" lon="-2.75079">
        <ele>110.2</ele>
        <time>2021-05-29 16:18:19</time>
      </trkpt>
      <trkpt lat="43.22838" lon="-2.75089">
        <ele>110.4</ele>
        <time>2021-05-29 16:18:20</time>
      </trkpt>
      <trkpt lat="43.2284" lon="-2.75099">
        <ele>110.4</ele>
        <time>2021-05-29 16:18:21</time>
      </trkpt>
      <trkpt lat="43.22842" lon="-2.75109">
        <ele>110.4</ele>
        <time>2021-05-29 16:18:22</time>
      </trkpt>
      <trkpt lat="43.22844" lon="-2.75119">
        <ele>110.4</ele>
        <time>2021-05-29 16:18:23</time>
      </trkpt>
      <trkpt lat="43.22846" lon="-2.75128">
        <ele>110.4</ele>
        <time>2021-05-29 16:18:24</time>
      </trkpt>
      <trkpt lat="43.22848" lon="-2.75137">
        <ele>110.6</ele>
        <time>2021-05-29 16:18:25</time>
      </trkpt>
      <trkpt lat="43.2285" lon="-2.75147">
        <ele>110.6</ele>
        <time>2021-05-29 16:18:26</time>
      </trkpt>
      <trkpt lat="43.22851" lon="-2.75157">
        <ele>110.6</ele>
        <time>2021-05-29 16:18:27</time>
      </trkpt>
      <trkpt lat="43.22853" lon="-2.75167">
        <ele>110.6</ele>
        <time>2021-05-29 16:18:28</time>
      </trkpt>
      <trkpt lat="43.22855" lon="-2.75177">
        <ele>110.6</ele>
        <time>2021-05-29 16:18:29</time>
      </trkpt>
      <trkpt lat="43.22857" lon="-2.75187">
        <ele>110.8</ele>
        <time>2021-05-29 16:18:30</time>
      </trkpt>
      <trkpt lat="43.22858" lon="-2.75197">
        <ele>110.8</ele>
        <time>2021-05-29 16:18:31</time>
      </trkpt>
      <trkpt lat="43.2286" lon="-2.75207">
        <ele>110.8</ele>
        <time>2021-05-29 16:18:32</time>
      </trkpt>
      <trkpt lat="43.22862" lon="-2.75217">
        <ele>110.8</ele>
        <time>2021-05-29 16:18:33</time>
      </trkpt>
      <trkpt lat="43.22863" lon="-2.75227">
        <ele>111</ele>
        <time>2021-05-29 16:18:34</time>
      </trkpt>
      <trkpt lat="43.22865" lon="-2.75237">
        <ele>111</ele>
        <time>2021-05-29 16:18:35</time>
      </trkpt>
      <trkpt lat="43.22866" lon="-2.75247">
        <ele>111</ele>
        <time>2021-05-29 16:18:36</time>
      </trkpt>
      <trkpt lat="43.22868" lon="-2.75257">
        <ele>111</ele>
        <time>2021-05-29 16:18:37</time>
      </trkpt>
      <trkpt lat="43.22869" lon="-2.75267">
        <ele>111</ele>
        <time>2021-05-29 16:18:38</time>
      </trkpt>
      <trkpt lat="43.22871" lon="-2.75276">
        <ele>111</ele>
        <time>2021-05-29 16:18:39</time>
      </trkpt>
      <trkpt lat="43.22872" lon="-2.75286">
        <ele>111</ele>
        <time>2021-05-29 16:18:40</time>
      </trkpt>
      <trkpt lat="43.22874" lon="-2.75296">
        <ele>111</ele>
        <time>2021-05-29 16:18:41</time>
      </trkpt>
      <trkpt lat="43.22875" lon="-2.75307">
        <ele>111</ele>
        <time>2021-05-29 16:18:42</time>
      </trkpt>
      <trkpt lat="43.22877" lon="-2.75317">
        <ele>110.8</ele>
        <time>2021-05-29 16:18:43</time>
      </trkpt>
      <trkpt lat="43.22879" lon="-2.75328">
        <ele>110.8</ele>
        <time>2021-05-29 16:18:44</time>
      </trkpt>
      <trkpt lat="43.2288" lon="-2.75339">
        <ele>110.6</ele>
        <time>2021-05-29 16:18:45</time>
      </trkpt>
      <trkpt lat="43.22882" lon="-2.7535">
        <ele>110.8</ele>
        <time>2021-05-29 16:18:46</time>
      </trkpt>
      <trkpt lat="43.22884" lon="-2.75361">
        <ele>110.8</ele>
        <time>2021-05-29 16:18:47</time>
      </trkpt>
      <trkpt lat="43.22886" lon="-2.75372">
        <ele>110.6</ele>
        <time>2021-05-29 16:18:48</time>
      </trkpt>
      <trkpt lat="43.22887" lon="-2.75383">
        <ele>110.4</ele>
        <time>2021-05-29 16:18:49</time>
      </trkpt>
      <trkpt lat="43.22889" lon="-2.75395">
        <ele>110.2</ele>
        <time>2021-05-29 16:18:50</time>
      </trkpt>
      <trkpt lat="43.22891" lon="-2.75406">
        <ele>110</ele>
        <time>2021-05-29 16:18:51</time>
      </trkpt>
      <trkpt lat="43.22893" lon="-2.75418">
        <ele>109.8</ele>
        <time>2021-05-29 16:18:52</time>
      </trkpt>
      <trkpt lat="43.22895" lon="-2.75429">
        <ele>109.6</ele>
        <time>2021-05-29 16:18:53</time>
      </trkpt>
      <trkpt lat="43.22896" lon="-2.75441">
        <ele>109.4</ele>
        <time>2021-05-29 16:18:54</time>
      </trkpt>
      <trkpt lat="43.22898" lon="-2.75452">
        <ele>109.4</ele>
        <time>2021-05-29 16:18:55</time>
      </trkpt>
      <trkpt lat="43.229" lon="-2.75463">
        <ele>109.2</ele>
        <time>2021-05-29 16:18:56</time>
      </trkpt>
      <trkpt lat="43.22901" lon="-2.75475">
        <ele>108.8</ele>
        <time>2021-05-29 16:18:57</time>
      </trkpt>
      <trkpt lat="43.22903" lon="-2.75486">
        <ele>108.6</ele>
        <time>2021-05-29 16:18:58</time>
      </trkpt>
      <trkpt lat="43.22905" lon="-2.75497">
        <ele>108.4</ele>
        <time>2021-05-29 16:18:59</time>
      </trkpt>
      <trkpt lat="43.22906" lon="-2.75508">
        <ele>108.4</ele>
        <time>2021-05-29 16:19:00</time>
      </trkpt>
      <trkpt lat="43.22908" lon="-2.75519">
        <ele>108.2</ele>
        <time>2021-05-29 16:19:01</time>
      </trkpt>
      <trkpt lat="43.2291" lon="-2.7553">
        <ele>108</ele>
        <time>2021-05-29 16:19:02</time>
      </trkpt>
      <trkpt lat="43.22911" lon="-2.75541">
        <ele>108</ele>
        <time>2021-05-29 16:19:03</time>
      </trkpt>
      <trkpt lat="43.22913" lon="-2.75552">
        <ele>108</ele>
        <time>2021-05-29 16:19:04</time>
      </trkpt>
      <trkpt lat="43.22915" lon="-2.75563">
        <ele>108</ele>
        <time>2021-05-29 16:19:05</time>
      </trkpt>
      <trkpt lat="43.22916" lon="-2.75574">
        <ele>107.8</ele>
        <time>2021-05-29 16:19:06</time>
      </trkpt>
      <trkpt lat="43.22918" lon="-2.75585">
        <ele>107.8</ele>
        <time>2021-05-29 16:19:07</time>
      </trkpt>
      <trkpt lat="43.2292" lon="-2.75596">
        <ele>107.8</ele>
        <time>2021-05-29 16:19:08</time>
      </trkpt>
      <trkpt lat="43.22922" lon="-2.75608">
        <ele>107.8</ele>
        <time>2021-05-29 16:19:09</time>
      </trkpt>
      <trkpt lat="43.22923" lon="-2.7562">
        <ele>107.8</ele>
        <time>2021-05-29 16:19:10</time>
      </trkpt>
      <trkpt lat="43.22925" lon="-2.75631">
        <ele>107.8</ele>
        <time>2021-05-29 16:19:11</time>
      </trkpt>
      <trkpt lat="43.22927" lon="-2.75643">
        <ele>107.8</ele>
        <time>2021-05-29 16:19:12</time>
      </trkpt>
      <trkpt lat="43.22929" lon="-2.75655">
        <ele>107.6</ele>
        <time>2021-05-29 16:19:13</time>
      </trkpt>
      <trkpt lat="43.22931" lon="-2.75667">
        <ele>107.6</ele>
        <time>2021-05-29 16:19:14</time>
      </trkpt>
      <trkpt lat="43.22934" lon="-2.75678">
        <ele>107.6</ele>
        <time>2021-05-29 16:19:15</time>
      </trkpt>
      <trkpt lat="43.22939" lon="-2.7569">
        <ele>107.2</ele>
        <time>2021-05-29 16:19:16</time>
      </trkpt>
      <trkpt lat="43.22944" lon="-2.757">
        <ele>107</ele>
        <time>2021-05-29 16:19:17</time>
      </trkpt>
      <trkpt lat="43.22948" lon="-2.7571">
        <ele>106.6</ele>
        <time>2021-05-29 16:19:18</time>
      </trkpt>
      <trkpt lat="43.22952" lon="-2.75722">
        <ele>106.4</ele>
        <time>2021-05-29 16:19:19</time>
      </trkpt>
      <trkpt lat="43.22954" lon="-2.75734">
        <ele>106.4</ele>
        <time>2021-05-29 16:19:20</time>
      </trkpt>
      <trkpt lat="43.22954" lon="-2.75746">
        <ele>106.2</ele>
        <time>2021-05-29 16:19:21</time>
      </trkpt>
      <trkpt lat="43.22953" lon="-2.75759">
        <ele>105.8</ele>
        <time>2021-05-29 16:19:22</time>
      </trkpt>
      <trkpt lat="43.22952" lon="-2.75771">
        <ele>105.4</ele>
        <time>2021-05-29 16:19:23</time>
      </trkpt>
      <trkpt lat="43.22951" lon="-2.75783">
        <ele>105.4</ele>
        <time>2021-05-29 16:19:24</time>
      </trkpt>
      <trkpt lat="43.22952" lon="-2.75795">
        <ele>105</ele>
        <time>2021-05-29 16:19:25</time>
      </trkpt>
      <trkpt lat="43.22952" lon="-2.75807">
        <ele>105</ele>
        <time>2021-05-29 16:19:26</time>
      </trkpt>
      <trkpt lat="43.22954" lon="-2.75819">
        <ele>105</ele>
        <time>2021-05-29 16:19:27</time>
      </trkpt>
      <trkpt lat="43.22956" lon="-2.75831">
        <ele>105</ele>
        <time>2021-05-29 16:19:28</time>
      </trkpt>
      <trkpt lat="43.22958" lon="-2.75842">
        <ele>105</ele>
        <time>2021-05-29 16:19:29</time>
      </trkpt>
      <trkpt lat="43.2296" lon="-2.75853">
        <ele>105</ele>
        <time>2021-05-29 16:19:30</time>
      </trkpt>
      <trkpt lat="43.22961" lon="-2.75864">
        <ele>105</ele>
        <time>2021-05-29 16:19:31</time>
      </trkpt>
      <trkpt lat="43.22963" lon="-2.75875">
        <ele>105</ele>
        <time>2021-05-29 16:19:32</time>
      </trkpt>
      <trkpt lat="43.22965" lon="-2.75886">
        <ele>105</ele>
        <time>2021-05-29 16:19:33</time>
      </trkpt>
      <trkpt lat="43.22966" lon="-2.75896">
        <ele>105.2</ele>
        <time>2021-05-29 16:19:34</time>
      </trkpt>
      <trkpt lat="43.22968" lon="-2.75906">
        <ele>105.2</ele>
        <time>2021-05-29 16:19:35</time>
      </trkpt>
      <trkpt lat="43.2297" lon="-2.75915">
        <ele>105.2</ele>
        <time>2021-05-29 16:19:36</time>
      </trkpt>
      <trkpt lat="43.22971" lon="-2.75925">
        <ele>105.2</ele>
        <time>2021-05-29 16:19:37</time>
      </trkpt>
      <trkpt lat="43.22973" lon="-2.75935">
        <ele>105.2</ele>
        <time>2021-05-29 16:19:38</time>
      </trkpt>
      <trkpt lat="43.22974" lon="-2.75946">
        <ele>105.2</ele>
        <time>2021-05-29 16:19:39</time>
      </trkpt>
      <trkpt lat="43.22976" lon="-2.75956">
        <ele>105.2</ele>
        <time>2021-05-29 16:19:40</time>
      </trkpt>
      <trkpt lat="43.22978" lon="-2.75967">
        <ele>105.2</ele>
        <time>2021-05-29 16:19:41</time>
      </trkpt>
      <trkpt lat="43.22979" lon="-2.75978">
        <ele>105.2</ele>
        <time>2021-05-29 16:19:42</time>
      </trkpt>
      <trkpt lat="43.22981" lon="-2.75989">
        <ele>105.2</ele>
        <time>2021-05-29 16:19:43</time>
      </trkpt>
      <trkpt lat="43.22983" lon="-2.76">
        <ele>105.2</ele>
        <time>2021-05-29 16:19:44</time>
      </trkpt>
      <trkpt lat="43.22984" lon="-2.76011">
        <ele>105.2</ele>
        <time>2021-05-29 16:19:45</time>
      </trkpt>
      <trkpt lat="43.22986" lon="-2.76022">
        <ele>105.2</ele>
        <time>2021-05-29 16:19:46</time>
      </trkpt>
      <trkpt lat="43.22987" lon="-2.76033">
        <ele>105.2</ele>
        <time>2021-05-29 16:19:47</time>
      </trkpt>
      <trkpt lat="43.22989" lon="-2.76045">
        <ele>105.2</ele>
        <time>2021-05-29 16:19:48</time>
      </trkpt>
      <trkpt lat="43.22991" lon="-2.76056">
        <ele>105.2</ele>
        <time>2021-05-29 16:19:49</time>
      </trkpt>
      <trkpt lat="43.22993" lon="-2.76068">
        <ele>105.2</ele>
        <time>2021-05-29 16:19:50</time>
      </trkpt>
      <trkpt lat="43.22995" lon="-2.76079">
        <ele>105.2</ele>
        <time>2021-05-29 16:19:51</time>
      </trkpt>
      <trkpt lat="43.22997" lon="-2.76091">
        <ele>105</ele>
        <time>2021-05-29 16:19:52</time>
      </trkpt>
      <trkpt lat="43.22998" lon="-2.76103">
        <ele>105</ele>
        <time>2021-05-29 16:19:53</time>
      </trkpt>
      <trkpt lat="43.23" lon="-2.76115">
        <ele>104.8</ele>
        <time>2021-05-29 16:19:54</time>
      </trkpt>
      <trkpt lat="43.23002" lon="-2.76127">
        <ele>104.8</ele>
        <time>2021-05-29 16:19:55</time>
      </trkpt>
      <trkpt lat="43.23004" lon="-2.76139">
        <ele>104.6</ele>
        <time>2021-05-29 16:19:56</time>
      </trkpt>
      <trkpt lat="43.23006" lon="-2.7615">
        <ele>104.4</ele>
        <time>2021-05-29 16:19:57</time>
      </trkpt>
      <trkpt lat="43.23008" lon="-2.76161">
        <ele>104.2</ele>
        <time>2021-05-29 16:19:58</time>
      </trkpt>
      <trkpt lat="43.23009" lon="-2.76173">
        <ele>104</ele>
        <time>2021-05-29 16:19:59</time>
      </trkpt>
      <trkpt lat="43.23011" lon="-2.76185">
        <ele>103.8</ele>
        <time>2021-05-29 16:20:00</time>
      </trkpt>
      <trkpt lat="43.23013" lon="-2.76196">
        <ele>103.6</ele>
        <time>2021-05-29 16:20:01</time>
      </trkpt>
      <trkpt lat="43.23015" lon="-2.76208">
        <ele>103.4</ele>
        <time>2021-05-29 16:20:02</time>
      </trkpt>
      <trkpt lat="43.23017" lon="-2.7622">
        <ele>103.2</ele>
        <time>2021-05-29 16:20:03</time>
      </trkpt>
      <trkpt lat="43.23019" lon="-2.76232">
        <ele>103.2</ele>
        <time>2021-05-29 16:20:04</time>
      </trkpt>
      <trkpt lat="43.23021" lon="-2.76244">
        <ele>103</ele>
        <time>2021-05-29 16:20:05</time>
      </trkpt>
      <trkpt lat="43.23022" lon="-2.76256">
        <ele>103</ele>
        <time>2021-05-29 16:20:06</time>
      </trkpt>
      <trkpt lat="43.23024" lon="-2.76268">
        <ele>103</ele>
        <time>2021-05-29 16:20:07</time>
      </trkpt>
      <trkpt lat="43.23026" lon="-2.7628">
        <ele>103</ele>
        <time>2021-05-29 16:20:08</time>
      </trkpt>
      <trkpt lat="43.23028" lon="-2.76293">
        <ele>102.6</ele>
        <time>2021-05-29 16:20:09</time>
      </trkpt>
      <trkpt lat="43.2303" lon="-2.76305">
        <ele>102.4</ele>
        <time>2021-05-29 16:20:10</time>
      </trkpt>
      <trkpt lat="43.23031" lon="-2.76317">
        <ele>102.2</ele>
        <time>2021-05-29 16:20:11</time>
      </trkpt>
      <trkpt lat="43.23033" lon="-2.76329">
        <ele>102.2</ele>
        <time>2021-05-29 16:20:12</time>
      </trkpt>
      <trkpt lat="43.23035" lon="-2.76341">
        <ele>102</ele>
        <time>2021-05-29 16:20:13</time>
      </trkpt>
      <trkpt lat="43.23037" lon="-2.76353">
        <ele>102</ele>
        <time>2021-05-29 16:20:14</time>
      </trkpt>
      <trkpt lat="43.23038" lon="-2.76365">
        <ele>101.8</ele>
        <time>2021-05-29 16:20:15</time>
      </trkpt>
      <trkpt lat="43.2304" lon="-2.76377">
        <ele>101.6</ele>
        <time>2021-05-29 16:20:16</time>
      </trkpt>
      <trkpt lat="43.23042" lon="-2.7639">
        <ele>101.6</ele>
        <time>2021-05-29 16:20:17</time>
      </trkpt>
      <trkpt lat="43.23044" lon="-2.76402">
        <ele>101.4</ele>
        <time>2021-05-29 16:20:18</time>
      </trkpt>
      <trkpt lat="43.23045" lon="-2.76414">
        <ele>101.4</ele>
        <time>2021-05-29 16:20:19</time>
      </trkpt>
      <trkpt lat="43.23047" lon="-2.76426">
        <ele>101.2</ele>
        <time>2021-05-29 16:20:20</time>
      </trkpt>
      <trkpt lat="43.23048" lon="-2.76438">
        <ele>101</ele>
        <time>2021-05-29 16:20:21</time>
      </trkpt>
      <trkpt lat="43.2305" lon="-2.7645">
        <ele>101</ele>
        <time>2021-05-29 16:20:22</time>
      </trkpt>
      <trkpt lat="43.23051" lon="-2.76461">
        <ele>100.8</ele>
        <time>2021-05-29 16:20:23</time>
      </trkpt>
      <trkpt lat="43.23053" lon="-2.76473">
        <ele>100.8</ele>
        <time>2021-05-29 16:20:24</time>
      </trkpt>
      <trkpt lat="43.23055" lon="-2.76485">
        <ele>100.8</ele>
        <time>2021-05-29 16:20:25</time>
      </trkpt>
      <trkpt lat="43.23057" lon="-2.76496">
        <ele>100.6</ele>
        <time>2021-05-29 16:20:26</time>
      </trkpt>
      <trkpt lat="43.23059" lon="-2.76508">
        <ele>100.4</ele>
        <time>2021-05-29 16:20:27</time>
      </trkpt>
      <trkpt lat="43.23061" lon="-2.7652">
        <ele>100.2</ele>
        <time>2021-05-29 16:20:28</time>
      </trkpt>
      <trkpt lat="43.23063" lon="-2.76531">
        <ele>100</ele>
        <time>2021-05-29 16:20:29</time>
      </trkpt>
      <trkpt lat="43.23065" lon="-2.76544">
        <ele>99.8</ele>
        <time>2021-05-29 16:20:30</time>
      </trkpt>
      <trkpt lat="43.23067" lon="-2.76556">
        <ele>99.8</ele>
        <time>2021-05-29 16:20:31</time>
      </trkpt>
      <trkpt lat="43.23069" lon="-2.76568">
        <ele>99.8</ele>
        <time>2021-05-29 16:20:32</time>
      </trkpt>
      <trkpt lat="43.23071" lon="-2.7658">
        <ele>99.6</ele>
        <time>2021-05-29 16:20:33</time>
      </trkpt>
      <trkpt lat="43.23072" lon="-2.76592">
        <ele>99.6</ele>
        <time>2021-05-29 16:20:34</time>
      </trkpt>
      <trkpt lat="43.23074" lon="-2.76604">
        <ele>99.4</ele>
        <time>2021-05-29 16:20:35</time>
      </trkpt>
      <trkpt lat="43.23076" lon="-2.76615">
        <ele>99.6</ele>
        <time>2021-05-29 16:20:36</time>
      </trkpt>
      <trkpt lat="43.23078" lon="-2.76627">
        <ele>99.4</ele>
        <time>2021-05-29 16:20:37</time>
      </trkpt>
      <trkpt lat="43.2308" lon="-2.76639">
        <ele>99.4</ele>
        <time>2021-05-29 16:20:38</time>
      </trkpt>
      <trkpt lat="43.23081" lon="-2.76651">
        <ele>99.2</ele>
        <time>2021-05-29 16:20:39</time>
      </trkpt>
      <trkpt lat="43.23083" lon="-2.76662">
        <ele>99.2</ele>
        <time>2021-05-29 16:20:40</time>
      </trkpt>
      <trkpt lat="43.23085" lon="-2.76674">
        <ele>99</ele>
        <time>2021-05-29 16:20:41</time>
      </trkpt>
      <trkpt lat="43.23086" lon="-2.76686">
        <ele>99</ele>
        <time>2021-05-29 16:20:42</time>
      </trkpt>
      <trkpt lat="43.23088" lon="-2.76697">
        <ele>99</ele>
        <time>2021-05-29 16:20:43</time>
      </trkpt>
      <trkpt lat="43.23089" lon="-2.76709">
        <ele>99</ele>
        <time>2021-05-29 16:20:44</time>
      </trkpt>
      <trkpt lat="43.23091" lon="-2.7672">
        <ele>99</ele>
        <time>2021-05-29 16:20:45</time>
      </trkpt>
      <trkpt lat="43.23092" lon="-2.76732">
        <ele>99</ele>
        <time>2021-05-29 16:20:46</time>
      </trkpt>
      <trkpt lat="43.23094" lon="-2.76743">
        <ele>99</ele>
        <time>2021-05-29 16:20:47</time>
      </trkpt>
      <trkpt lat="43.23095" lon="-2.76754">
        <ele>99</ele>
        <time>2021-05-29 16:20:48</time>
      </trkpt>
      <trkpt lat="43.23097" lon="-2.76765">
        <ele>98.8</ele>
        <time>2021-05-29 16:20:49</time>
      </trkpt>
      <trkpt lat="43.23099" lon="-2.76776">
        <ele>98.8</ele>
        <time>2021-05-29 16:20:50</time>
      </trkpt>
      <trkpt lat="43.231" lon="-2.76787">
        <ele>98.8</ele>
        <time>2021-05-29 16:20:51</time>
      </trkpt>
      <trkpt lat="43.23102" lon="-2.76797">
        <ele>98.8</ele>
        <time>2021-05-29 16:20:52</time>
      </trkpt>
      <trkpt lat="43.23103" lon="-2.76808">
        <ele>98.8</ele>
        <time>2021-05-29 16:20:53</time>
      </trkpt>
      <trkpt lat="43.23104" lon="-2.76818">
        <ele>98.8</ele>
        <time>2021-05-29 16:20:54</time>
      </trkpt>
      <trkpt lat="43.23105" lon="-2.76827">
        <ele>98.8</ele>
        <time>2021-05-29 16:20:55</time>
      </trkpt>
      <trkpt lat="43.23105" lon="-2.76837">
        <ele>98.8</ele>
        <time>2021-05-29 16:20:56</time>
      </trkpt>
      <trkpt lat="43.23105" lon="-2.76847">
        <ele>98.8</ele>
        <time>2021-05-29 16:20:57</time>
      </trkpt>
      <trkpt lat="43.23105" lon="-2.76857">
        <ele>98.8</ele>
        <time>2021-05-29 16:20:58</time>
      </trkpt>
      <trkpt lat="43.23104" lon="-2.76868">
        <ele>99</ele>
        <time>2021-05-29 16:20:59</time>
      </trkpt>
      <trkpt lat="43.23103" lon="-2.76878">
        <ele>99</ele>
        <time>2021-05-29 16:21:00</time>
      </trkpt>
      <trkpt lat="43.23101" lon="-2.76889">
        <ele>99</ele>
        <time>2021-05-29 16:21:01</time>
      </trkpt>
      <trkpt lat="43.231" lon="-2.76899">
        <ele>99</ele>
        <time>2021-05-29 16:21:02</time>
      </trkpt>
      <trkpt lat="43.23098" lon="-2.7691">
        <ele>99</ele>
        <time>2021-05-29 16:21:03</time>
      </trkpt>
      <trkpt lat="43.23097" lon="-2.7692">
        <ele>99</ele>
        <time>2021-05-29 16:21:04</time>
      </trkpt>
      <trkpt lat="43.23095" lon="-2.7693">
        <ele>99</ele>
        <time>2021-05-29 16:21:05</time>
      </trkpt>
      <trkpt lat="43.23094" lon="-2.7694">
        <ele>99</ele>
        <time>2021-05-29 16:21:06</time>
      </trkpt>
      <trkpt lat="43.23092" lon="-2.7695">
        <ele>99.2</ele>
        <time>2021-05-29 16:21:07</time>
      </trkpt>
      <trkpt lat="43.23091" lon="-2.7696">
        <ele>99.4</ele>
        <time>2021-05-29 16:21:08</time>
      </trkpt>
      <trkpt lat="43.23089" lon="-2.7697">
        <ele>99.4</ele>
        <time>2021-05-29 16:21:09</time>
      </trkpt>
      <trkpt lat="43.23087" lon="-2.76979">
        <ele>99.4</ele>
        <time>2021-05-29 16:21:10</time>
      </trkpt>
      <trkpt lat="43.23086" lon="-2.76989">
        <ele>99.4</ele>
        <time>2021-05-29 16:21:11</time>
      </trkpt>
      <trkpt lat="43.23084" lon="-2.76999">
        <ele>99.6</ele>
        <time>2021-05-29 16:21:12</time>
      </trkpt>
      <trkpt lat="43.23083" lon="-2.77009">
        <ele>99.6</ele>
        <time>2021-05-29 16:21:13</time>
      </trkpt>
      <trkpt lat="43.23081" lon="-2.77019">
        <ele>99.6</ele>
        <time>2021-05-29 16:21:14</time>
      </trkpt>
      <trkpt lat="43.23079" lon="-2.77029">
        <ele>99.6</ele>
        <time>2021-05-29 16:21:15</time>
      </trkpt>
      <trkpt lat="43.23078" lon="-2.7704">
        <ele>99.6</ele>
        <time>2021-05-29 16:21:16</time>
      </trkpt>
      <trkpt lat="43.23076" lon="-2.7705">
        <ele>99.6</ele>
        <time>2021-05-29 16:21:17</time>
      </trkpt>
      <trkpt lat="43.23075" lon="-2.77061">
        <ele>99.6</ele>
        <time>2021-05-29 16:21:18</time>
      </trkpt>
      <trkpt lat="43.23073" lon="-2.77072">
        <ele>99.6</ele>
        <time>2021-05-29 16:21:19</time>
      </trkpt>
      <trkpt lat="43.23072" lon="-2.77083">
        <ele>99.6</ele>
        <time>2021-05-29 16:21:20</time>
      </trkpt>
      <trkpt lat="43.2307" lon="-2.77094">
        <ele>99.6</ele>
        <time>2021-05-29 16:21:21</time>
      </trkpt>
      <trkpt lat="43.23069" lon="-2.77105">
        <ele>99.6</ele>
        <time>2021-05-29 16:21:22</time>
      </trkpt>
      <trkpt lat="43.23068" lon="-2.77116">
        <ele>99.6</ele>
        <time>2021-05-29 16:21:23</time>
      </trkpt>
      <trkpt lat="43.23067" lon="-2.77128">
        <ele>99.6</ele>
        <time>2021-05-29 16:21:24</time>
      </trkpt>
      <trkpt lat="43.23066" lon="-2.7714">
        <ele>99.4</ele>
        <time>2021-05-29 16:21:25</time>
      </trkpt>
      <trkpt lat="43.23065" lon="-2.77152">
        <ele>99.4</ele>
        <time>2021-05-29 16:21:26</time>
      </trkpt>
      <trkpt lat="43.23064" lon="-2.77164">
        <ele>99.2</ele>
        <time>2021-05-29 16:21:27</time>
      </trkpt>
      <trkpt lat="43.23063" lon="-2.77177">
        <ele>99.2</ele>
        <time>2021-05-29 16:21:28</time>
      </trkpt>
      <trkpt lat="43.23063" lon="-2.7719">
        <ele>99</ele>
        <time>2021-05-29 16:21:29</time>
      </trkpt>
      <trkpt lat="43.23062" lon="-2.77202">
        <ele>98.8</ele>
        <time>2021-05-29 16:21:30</time>
      </trkpt>
      <trkpt lat="43.23062" lon="-2.77216">
        <ele>98.8</ele>
        <time>2021-05-29 16:21:31</time>
      </trkpt>
      <trkpt lat="43.23062" lon="-2.77229">
        <ele>98.6</ele>
        <time>2021-05-29 16:21:32</time>
      </trkpt>
      <trkpt lat="43.23062" lon="-2.77243">
        <ele>98.4</ele>
        <time>2021-05-29 16:21:33</time>
      </trkpt>
      <trkpt lat="43.23063" lon="-2.77257">
        <ele>98.4</ele>
        <time>2021-05-29 16:21:34</time>
      </trkpt>
      <trkpt lat="43.23064" lon="-2.77272">
        <ele>98</ele>
        <time>2021-05-29 16:21:35</time>
      </trkpt>
      <trkpt lat="43.23064" lon="-2.77286">
        <ele>97.8</ele>
        <time>2021-05-29 16:21:36</time>
      </trkpt>
      <trkpt lat="43.23066" lon="-2.77301">
        <ele>97.4</ele>
        <time>2021-05-29 16:21:37</time>
      </trkpt>
      <trkpt lat="43.23067" lon="-2.77317">
        <ele>97</ele>
        <time>2021-05-29 16:21:38</time>
      </trkpt>
      <trkpt lat="43.23068" lon="-2.77332">
        <ele>96.6</ele>
        <time>2021-05-29 16:21:39</time>
      </trkpt>
      <trkpt lat="43.2307" lon="-2.77347">
        <ele>96.2</ele>
        <time>2021-05-29 16:21:40</time>
      </trkpt>
      <trkpt lat="43.23072" lon="-2.77362">
        <ele>95.6</ele>
        <time>2021-05-29 16:21:41</time>
      </trkpt>
      <trkpt lat="43.23073" lon="-2.77377">
        <ele>94.6</ele>
        <time>2021-05-29 16:21:42</time>
      </trkpt>
      <trkpt lat="43.23075" lon="-2.77392">
        <ele>94.2</ele>
        <time>2021-05-29 16:21:43</time>
      </trkpt>
      <trkpt lat="43.23076" lon="-2.77407">
        <ele>93.6</ele>
        <time>2021-05-29 16:21:44</time>
      </trkpt>
      <trkpt lat="43.23078" lon="-2.77422">
        <ele>92.8</ele>
        <time>2021-05-29 16:21:45</time>
      </trkpt>
      <trkpt lat="43.23079" lon="-2.77436">
        <ele>92</ele>
        <time>2021-05-29 16:21:46</time>
      </trkpt>
      <trkpt lat="43.23081" lon="-2.77451">
        <ele>91.4</ele>
        <time>2021-05-29 16:21:47</time>
      </trkpt>
      <trkpt lat="43.23082" lon="-2.77465">
        <ele>91</ele>
        <time>2021-05-29 16:21:48</time>
      </trkpt>
      <trkpt lat="43.23084" lon="-2.77479">
        <ele>90.8</ele>
        <time>2021-05-29 16:21:49</time>
      </trkpt>
      <trkpt lat="43.23086" lon="-2.77494">
        <ele>90.6</ele>
        <time>2021-05-29 16:21:50</time>
      </trkpt>
      <trkpt lat="43.23088" lon="-2.77508">
        <ele>90.2</ele>
        <time>2021-05-29 16:21:51</time>
      </trkpt>
      <trkpt lat="43.23089" lon="-2.77522">
        <ele>90</ele>
        <time>2021-05-29 16:21:52</time>
      </trkpt>
      <trkpt lat="43.23091" lon="-2.77536">
        <ele>89.8</ele>
        <time>2021-05-29 16:21:53</time>
      </trkpt>
      <trkpt lat="43.23093" lon="-2.7755">
        <ele>89.6</ele>
        <time>2021-05-29 16:21:54</time>
      </trkpt>
      <trkpt lat="43.23095" lon="-2.77563">
        <ele>89.4</ele>
        <time>2021-05-29 16:21:55</time>
      </trkpt>
      <trkpt lat="43.23096" lon="-2.77577">
        <ele>89.2</ele>
        <time>2021-05-29 16:21:56</time>
      </trkpt>
      <trkpt lat="43.23098" lon="-2.77591">
        <ele>89</ele>
        <time>2021-05-29 16:21:57</time>
      </trkpt>
      <trkpt lat="43.231" lon="-2.77604">
        <ele>88.8</ele>
        <time>2021-05-29 16:21:58</time>
      </trkpt>
      <trkpt lat="43.23102" lon="-2.77618">
        <ele>88.8</ele>
        <time>2021-05-29 16:21:59</time>
      </trkpt>
      <trkpt lat="43.23103" lon="-2.77631">
        <ele>88.6</ele>
        <time>2021-05-29 16:22:00</time>
      </trkpt>
      <trkpt lat="43.23105" lon="-2.77644">
        <ele>88.6</ele>
        <time>2021-05-29 16:22:01</time>
      </trkpt>
      <trkpt lat="43.23107" lon="-2.77658">
        <ele>88.4</ele>
        <time>2021-05-29 16:22:02</time>
      </trkpt>
      <trkpt lat="43.23108" lon="-2.77671">
        <ele>88.2</ele>
        <time>2021-05-29 16:22:03</time>
      </trkpt>
      <trkpt lat="43.2311" lon="-2.77684">
        <ele>88</ele>
        <time>2021-05-29 16:22:04</time>
      </trkpt>
      <trkpt lat="43.23111" lon="-2.77697">
        <ele>87.8</ele>
        <time>2021-05-29 16:22:05</time>
      </trkpt>
      <trkpt lat="43.23112" lon="-2.77709">
        <ele>87.8</ele>
        <time>2021-05-29 16:22:06</time>
      </trkpt>
      <trkpt lat="43.23113" lon="-2.77722">
        <ele>87.4</ele>
        <time>2021-05-29 16:22:07</time>
      </trkpt>
      <trkpt lat="43.23115" lon="-2.77734">
        <ele>87</ele>
        <time>2021-05-29 16:22:08</time>
      </trkpt>
      <trkpt lat="43.23116" lon="-2.77747">
        <ele>86.8</ele>
        <time>2021-05-29 16:22:09</time>
      </trkpt>
      <trkpt lat="43.23117" lon="-2.77759">
        <ele>86.8</ele>
        <time>2021-05-29 16:22:10</time>
      </trkpt>
      <trkpt lat="43.23117" lon="-2.77772">
        <ele>86.8</ele>
        <time>2021-05-29 16:22:11</time>
      </trkpt>
      <trkpt lat="43.23117" lon="-2.77784">
        <ele>86.6</ele>
        <time>2021-05-29 16:22:12</time>
      </trkpt>
      <trkpt lat="43.23118" lon="-2.77796">
        <ele>86.6</ele>
        <time>2021-05-29 16:22:13</time>
      </trkpt>
      <trkpt lat="43.2312" lon="-2.77808">
        <ele>86.6</ele>
        <time>2021-05-29 16:22:14</time>
      </trkpt>
      <trkpt lat="43.23122" lon="-2.77821">
        <ele>86.6</ele>
        <time>2021-05-29 16:22:15</time>
      </trkpt>
      <trkpt lat="43.23123" lon="-2.77833">
        <ele>86.4</ele>
        <time>2021-05-29 16:22:16</time>
      </trkpt>
      <trkpt lat="43.23121" lon="-2.77845">
        <ele>86.4</ele>
        <time>2021-05-29 16:22:17</time>
      </trkpt>
      <trkpt lat="43.23118" lon="-2.77857">
        <ele>86.2</ele>
        <time>2021-05-29 16:22:18</time>
      </trkpt>
      <trkpt lat="43.23114" lon="-2.77869">
        <ele>86.2</ele>
        <time>2021-05-29 16:22:19</time>
      </trkpt>
      <trkpt lat="43.23111" lon="-2.77882">
        <ele>86.2</ele>
        <time>2021-05-29 16:22:20</time>
      </trkpt>
      <trkpt lat="43.23109" lon="-2.77894">
        <ele>86.2</ele>
        <time>2021-05-29 16:22:21</time>
      </trkpt>
      <trkpt lat="43.23106" lon="-2.77907">
        <ele>86.2</ele>
        <time>2021-05-29 16:22:22</time>
      </trkpt>
      <trkpt lat="43.23104" lon="-2.7792">
        <ele>86</ele>
        <time>2021-05-29 16:22:23</time>
      </trkpt>
      <trkpt lat="43.23102" lon="-2.77932">
        <ele>86</ele>
        <time>2021-05-29 16:22:24</time>
      </trkpt>
      <trkpt lat="43.23101" lon="-2.77945">
        <ele>86</ele>
        <time>2021-05-29 16:22:25</time>
      </trkpt>
      <trkpt lat="43.23099" lon="-2.77958">
        <ele>85.8</ele>
        <time>2021-05-29 16:22:26</time>
      </trkpt>
      <trkpt lat="43.23097" lon="-2.7797">
        <ele>85.8</ele>
        <time>2021-05-29 16:22:27</time>
      </trkpt>
      <trkpt lat="43.23095" lon="-2.77983">
        <ele>85.8</ele>
        <time>2021-05-29 16:22:28</time>
      </trkpt>
      <trkpt lat="43.23094" lon="-2.77995">
        <ele>85.6</ele>
        <time>2021-05-29 16:22:29</time>
      </trkpt>
      <trkpt lat="43.23092" lon="-2.78008">
        <ele>85.4</ele>
        <time>2021-05-29 16:22:30</time>
      </trkpt>
      <trkpt lat="43.2309" lon="-2.78021">
        <ele>85.4</ele>
        <time>2021-05-29 16:22:31</time>
      </trkpt>
      <trkpt lat="43.23088" lon="-2.78033">
        <ele>85.4</ele>
        <time>2021-05-29 16:22:32</time>
      </trkpt>
      <trkpt lat="43.23086" lon="-2.78046">
        <ele>85.4</ele>
        <time>2021-05-29 16:22:33</time>
      </trkpt>
      <trkpt lat="43.23085" lon="-2.78059">
        <ele>85.4</ele>
        <time>2021-05-29 16:22:34</time>
      </trkpt>
      <trkpt lat="43.23083" lon="-2.78071">
        <ele>85.4</ele>
        <time>2021-05-29 16:22:35</time>
      </trkpt>
      <trkpt lat="43.23081" lon="-2.78084">
        <ele>85.4</ele>
        <time>2021-05-29 16:22:36</time>
      </trkpt>
      <trkpt lat="43.23079" lon="-2.78096">
        <ele>85.4</ele>
        <time>2021-05-29 16:22:37</time>
      </trkpt>
      <trkpt lat="43.23078" lon="-2.78108">
        <ele>85.4</ele>
        <time>2021-05-29 16:22:38</time>
      </trkpt>
      <trkpt lat="43.23076" lon="-2.78121">
        <ele>85.4</ele>
        <time>2021-05-29 16:22:39</time>
      </trkpt>
      <trkpt lat="43.23074" lon="-2.78133">
        <ele>85.4</ele>
        <time>2021-05-29 16:22:40</time>
      </trkpt>
      <trkpt lat="43.23073" lon="-2.78146">
        <ele>85.4</ele>
        <time>2021-05-29 16:22:41</time>
      </trkpt>
      <trkpt lat="43.23071" lon="-2.78158">
        <ele>85.4</ele>
        <time>2021-05-29 16:22:42</time>
      </trkpt>
      <trkpt lat="43.2307" lon="-2.78171">
        <ele>85.4</ele>
        <time>2021-05-29 16:22:43</time>
      </trkpt>
      <trkpt lat="43.23068" lon="-2.78184">
        <ele>85.6</ele>
        <time>2021-05-29 16:22:44</time>
      </trkpt>
      <trkpt lat="43.23068" lon="-2.78197">
        <ele>85.6</ele>
        <time>2021-05-29 16:22:45</time>
      </trkpt>
      <trkpt lat="43.23068" lon="-2.7821">
        <ele>85.6</ele>
        <time>2021-05-29 16:22:46</time>
      </trkpt>
      <trkpt lat="43.23068" lon="-2.78222">
        <ele>85.6</ele>
        <time>2021-05-29 16:22:47</time>
      </trkpt>
      <trkpt lat="43.23069" lon="-2.78235">
        <ele>85.6</ele>
        <time>2021-05-29 16:22:48</time>
      </trkpt>
      <trkpt lat="43.2307" lon="-2.78248">
        <ele>85.6</ele>
        <time>2021-05-29 16:22:49</time>
      </trkpt>
      <trkpt lat="43.23071" lon="-2.7826">
        <ele>85.6</ele>
        <time>2021-05-29 16:22:50</time>
      </trkpt>
      <trkpt lat="43.23072" lon="-2.78273">
        <ele>85.4</ele>
        <time>2021-05-29 16:22:51</time>
      </trkpt>
      <trkpt lat="43.23073" lon="-2.78286">
        <ele>85.6</ele>
        <time>2021-05-29 16:22:52</time>
      </trkpt>
      <trkpt lat="43.23074" lon="-2.783">
        <ele>85.4</ele>
        <time>2021-05-29 16:22:53</time>
      </trkpt>
      <trkpt lat="43.23076" lon="-2.78313">
        <ele>85.4</ele>
        <time>2021-05-29 16:22:54</time>
      </trkpt>
      <trkpt lat="43.23077" lon="-2.78327">
        <ele>85.2</ele>
        <time>2021-05-29 16:22:55</time>
      </trkpt>
      <trkpt lat="43.23079" lon="-2.78341">
        <ele>85.2</ele>
        <time>2021-05-29 16:22:56</time>
      </trkpt>
      <trkpt lat="43.2308" lon="-2.78354">
        <ele>85</ele>
        <time>2021-05-29 16:22:57</time>
      </trkpt>
      <trkpt lat="43.23082" lon="-2.78368">
        <ele>85</ele>
        <time>2021-05-29 16:22:58</time>
      </trkpt>
      <trkpt lat="43.23083" lon="-2.78382">
        <ele>84.8</ele>
        <time>2021-05-29 16:22:59</time>
      </trkpt>
      <trkpt lat="43.23084" lon="-2.78395">
        <ele>84.6</ele>
        <time>2021-05-29 16:23:00</time>
      </trkpt>
      <trkpt lat="43.23086" lon="-2.78409">
        <ele>84.4</ele>
        <time>2021-05-29 16:23:01</time>
      </trkpt>
      <trkpt lat="43.23087" lon="-2.78423">
        <ele>84.2</ele>
        <time>2021-05-29 16:23:02</time>
      </trkpt>
      <trkpt lat="43.23089" lon="-2.78436">
        <ele>83.8</ele>
        <time>2021-05-29 16:23:03</time>
      </trkpt>
      <trkpt lat="43.2309" lon="-2.7845">
        <ele>83.6</ele>
        <time>2021-05-29 16:23:04</time>
      </trkpt>
      <trkpt lat="43.23091" lon="-2.78463">
        <ele>83.2</ele>
        <time>2021-05-29 16:23:05</time>
      </trkpt>
      <trkpt lat="43.23092" lon="-2.78476">
        <ele>83</ele>
        <time>2021-05-29 16:23:06</time>
      </trkpt>
      <trkpt lat="43.23094" lon="-2.78488">
        <ele>82.8</ele>
        <time>2021-05-29 16:23:07</time>
      </trkpt>
      <trkpt lat="43.23095" lon="-2.78501">
        <ele>82.6</ele>
        <time>2021-05-29 16:23:08</time>
      </trkpt>
      <trkpt lat="43.23096" lon="-2.78513">
        <ele>82.2</ele>
        <time>2021-05-29 16:23:09</time>
      </trkpt>
      <trkpt lat="43.23097" lon="-2.78524">
        <ele>82</ele>
        <time>2021-05-29 16:23:10</time>
      </trkpt>
      <trkpt lat="43.23098" lon="-2.78535">
        <ele>81.8</ele>
        <time>2021-05-29 16:23:11</time>
      </trkpt>
      <trkpt lat="43.23099" lon="-2.78546">
        <ele>81.8</ele>
        <time>2021-05-29 16:23:12</time>
      </trkpt>
      <trkpt lat="43.231" lon="-2.78557">
        <ele>81.8</ele>
        <time>2021-05-29 16:23:13</time>
      </trkpt>
      <trkpt lat="43.231" lon="-2.78567">
        <ele>81.8</ele>
        <time>2021-05-29 16:23:14</time>
      </trkpt>
      <trkpt lat="43.23101" lon="-2.78578">
        <ele>81.8</ele>
        <time>2021-05-29 16:23:15</time>
      </trkpt>
      <trkpt lat="43.23102" lon="-2.78588">
        <ele>81.8</ele>
        <time>2021-05-29 16:23:16</time>
      </trkpt>
      <trkpt lat="43.23103" lon="-2.78599">
        <ele>81.8</ele>
        <time>2021-05-29 16:23:17</time>
      </trkpt>
      <trkpt lat="43.23104" lon="-2.7861">
        <ele>81.8</ele>
        <time>2021-05-29 16:23:18</time>
      </trkpt>
      <trkpt lat="43.23106" lon="-2.78621">
        <ele>81.8</ele>
        <time>2021-05-29 16:23:19</time>
      </trkpt>
      <trkpt lat="43.23107" lon="-2.78632">
        <ele>81.8</ele>
        <time>2021-05-29 16:23:20</time>
      </trkpt>
      <trkpt lat="43.23108" lon="-2.78643">
        <ele>82</ele>
        <time>2021-05-29 16:23:21</time>
      </trkpt>
      <trkpt lat="43.23109" lon="-2.78656">
        <ele>82</ele>
        <time>2021-05-29 16:23:22</time>
      </trkpt>
      <trkpt lat="43.2311" lon="-2.78669">
        <ele>82.4</ele>
        <time>2021-05-29 16:23:23</time>
      </trkpt>
      <trkpt lat="43.23112" lon="-2.78682">
        <ele>82.4</ele>
        <time>2021-05-29 16:23:24</time>
      </trkpt>
      <trkpt lat="43.23113" lon="-2.78696">
        <ele>82.4</ele>
        <time>2021-05-29 16:23:25</time>
      </trkpt>
      <trkpt lat="43.23114" lon="-2.78709">
        <ele>82.4</ele>
        <time>2021-05-29 16:23:26</time>
      </trkpt>
      <trkpt lat="43.23116" lon="-2.78723">
        <ele>82.4</ele>
        <time>2021-05-29 16:23:27</time>
      </trkpt>
      <trkpt lat="43.23117" lon="-2.78737">
        <ele>82.4</ele>
        <time>2021-05-29 16:23:28</time>
      </trkpt>
      <trkpt lat="43.23118" lon="-2.78751">
        <ele>82.4</ele>
        <time>2021-05-29 16:23:29</time>
      </trkpt>
      <trkpt lat="43.2312" lon="-2.78765">
        <ele>82</ele>
        <time>2021-05-29 16:23:30</time>
      </trkpt>
      <trkpt lat="43.23121" lon="-2.78779">
        <ele>81.6</ele>
        <time>2021-05-29 16:23:31</time>
      </trkpt>
      <trkpt lat="43.23123" lon="-2.78793">
        <ele>81.4</ele>
        <time>2021-05-29 16:23:32</time>
      </trkpt>
      <trkpt lat="43.23124" lon="-2.78806">
        <ele>80.8</ele>
        <time>2021-05-29 16:23:33</time>
      </trkpt>
      <trkpt lat="43.23126" lon="-2.7882">
        <ele>80.4</ele>
        <time>2021-05-29 16:23:34</time>
      </trkpt>
      <trkpt lat="43.23127" lon="-2.78834">
        <ele>80</ele>
        <time>2021-05-29 16:23:35</time>
      </trkpt>
      <trkpt lat="43.23128" lon="-2.78847">
        <ele>79.8</ele>
        <time>2021-05-29 16:23:36</time>
      </trkpt>
      <trkpt lat="43.2313" lon="-2.7886">
        <ele>79.4</ele>
        <time>2021-05-29 16:23:37</time>
      </trkpt>
      <trkpt lat="43.23131" lon="-2.78873">
        <ele>79.2</ele>
        <time>2021-05-29 16:23:38</time>
      </trkpt>
      <trkpt lat="43.23132" lon="-2.78886">
        <ele>79</ele>
        <time>2021-05-29 16:23:39</time>
      </trkpt>
      <trkpt lat="43.23133" lon="-2.78899">
        <ele>78.6</ele>
        <time>2021-05-29 16:23:40</time>
      </trkpt>
      <trkpt lat="43.23134" lon="-2.78911">
        <ele>78.2</ele>
        <time>2021-05-29 16:23:41</time>
      </trkpt>
      <trkpt lat="43.23135" lon="-2.78924">
        <ele>78</ele>
        <time>2021-05-29 16:23:42</time>
      </trkpt>
      <trkpt lat="43.23137" lon="-2.78936">
        <ele>77.8</ele>
        <time>2021-05-29 16:23:43</time>
      </trkpt>
      <trkpt lat="43.23138" lon="-2.78948">
        <ele>77.8</ele>
        <time>2021-05-29 16:23:44</time>
      </trkpt>
      <trkpt lat="43.2314" lon="-2.78961">
        <ele>77.6</ele>
        <time>2021-05-29 16:23:45</time>
      </trkpt>
      <trkpt lat="43.23141" lon="-2.78973">
        <ele>77.6</ele>
        <time>2021-05-29 16:23:46</time>
      </trkpt>
      <trkpt lat="43.23142" lon="-2.78985">
        <ele>77.6</ele>
        <time>2021-05-29 16:23:47</time>
      </trkpt>
      <trkpt lat="43.23143" lon="-2.78997">
        <ele>77.4</ele>
        <time>2021-05-29 16:23:48</time>
      </trkpt>
      <trkpt lat="43.23145" lon="-2.79009">
        <ele>77.4</ele>
        <time>2021-05-29 16:23:49</time>
      </trkpt>
      <trkpt lat="43.23146" lon="-2.79021">
        <ele>77.4</ele>
        <time>2021-05-29 16:23:50</time>
      </trkpt>
      <trkpt lat="43.23148" lon="-2.79034">
        <ele>77.4</ele>
        <time>2021-05-29 16:23:51</time>
      </trkpt>
      <trkpt lat="43.2315" lon="-2.79047">
        <ele>77.4</ele>
        <time>2021-05-29 16:23:52</time>
      </trkpt>
      <trkpt lat="43.23152" lon="-2.7906">
        <ele>77.2</ele>
        <time>2021-05-29 16:23:53</time>
      </trkpt>
      <trkpt lat="43.23154" lon="-2.79072">
        <ele>77.2</ele>
        <time>2021-05-29 16:23:54</time>
      </trkpt>
      <trkpt lat="43.23156" lon="-2.79084">
        <ele>77.2</ele>
        <time>2021-05-29 16:23:55</time>
      </trkpt>
      <trkpt lat="43.23158" lon="-2.79097">
        <ele>77.2</ele>
        <time>2021-05-29 16:23:56</time>
      </trkpt>
      <trkpt lat="43.23162" lon="-2.79108">
        <ele>77.2</ele>
        <time>2021-05-29 16:23:57</time>
      </trkpt>
      <trkpt lat="43.23165" lon="-2.7912">
        <ele>77</ele>
        <time>2021-05-29 16:23:58</time>
      </trkpt>
      <trkpt lat="43.23169" lon="-2.79131">
        <ele>77</ele>
        <time>2021-05-29 16:23:59</time>
      </trkpt>
      <trkpt lat="43.23173" lon="-2.79142">
        <ele>76.4</ele>
        <time>2021-05-29 16:24:00</time>
      </trkpt>
      <trkpt lat="43.23178" lon="-2.79153">
        <ele>76.2</ele>
        <time>2021-05-29 16:24:01</time>
      </trkpt>
      <trkpt lat="43.23183" lon="-2.79164">
        <ele>76</ele>
        <time>2021-05-29 16:24:02</time>
      </trkpt>
      <trkpt lat="43.23188" lon="-2.79176">
        <ele>76</ele>
        <time>2021-05-29 16:24:03</time>
      </trkpt>
      <trkpt lat="43.23193" lon="-2.79188">
        <ele>75.8</ele>
        <time>2021-05-29 16:24:04</time>
      </trkpt>
      <trkpt lat="43.23198" lon="-2.792">
        <ele>75.6</ele>
        <time>2021-05-29 16:24:05</time>
      </trkpt>
      <trkpt lat="43.23203" lon="-2.79213">
        <ele>75.6</ele>
        <time>2021-05-29 16:24:06</time>
      </trkpt>
      <trkpt lat="43.23208" lon="-2.79225">
        <ele>75.4</ele>
        <time>2021-05-29 16:24:07</time>
      </trkpt>
      <trkpt lat="43.23214" lon="-2.79237">
        <ele>75.4</ele>
        <time>2021-05-29 16:24:08</time>
      </trkpt>
      <trkpt lat="43.23219" lon="-2.79249">
        <ele>75.2</ele>
        <time>2021-05-29 16:24:09</time>
      </trkpt>
      <trkpt lat="43.23224" lon="-2.79261">
        <ele>74.8</ele>
        <time>2021-05-29 16:24:10</time>
      </trkpt>
      <trkpt lat="43.23229" lon="-2.79273">
        <ele>74.2</ele>
        <time>2021-05-29 16:24:11</time>
      </trkpt>
      <trkpt lat="43.23234" lon="-2.79285">
        <ele>73.4</ele>
        <time>2021-05-29 16:24:12</time>
      </trkpt>
      <trkpt lat="43.23239" lon="-2.79298">
        <ele>73</ele>
        <time>2021-05-29 16:24:13</time>
      </trkpt>
      <trkpt lat="43.23244" lon="-2.7931">
        <ele>72.6</ele>
        <time>2021-05-29 16:24:14</time>
      </trkpt>
      <trkpt lat="43.23249" lon="-2.79321">
        <ele>72.2</ele>
        <time>2021-05-29 16:24:15</time>
      </trkpt>
      <trkpt lat="43.23254" lon="-2.79333">
        <ele>72</ele>
        <time>2021-05-29 16:24:16</time>
      </trkpt>
      <trkpt lat="43.23259" lon="-2.79345">
        <ele>71.8</ele>
        <time>2021-05-29 16:24:17</time>
      </trkpt>
      <trkpt lat="43.23264" lon="-2.79357">
        <ele>71.6</ele>
        <time>2021-05-29 16:24:18</time>
      </trkpt>
      <trkpt lat="43.23269" lon="-2.79369">
        <ele>71.2</ele>
        <time>2021-05-29 16:24:19</time>
      </trkpt>
      <trkpt lat="43.23273" lon="-2.79381">
        <ele>71</ele>
        <time>2021-05-29 16:24:20</time>
      </trkpt>
      <trkpt lat="43.23278" lon="-2.79393">
        <ele>70.8</ele>
        <time>2021-05-29 16:24:21</time>
      </trkpt>
      <trkpt lat="43.23283" lon="-2.79405">
        <ele>70.4</ele>
        <time>2021-05-29 16:24:22</time>
      </trkpt>
      <trkpt lat="43.23288" lon="-2.79416">
        <ele>70.4</ele>
        <time>2021-05-29 16:24:23</time>
      </trkpt>
      <trkpt lat="43.23293" lon="-2.79428">
        <ele>70.2</ele>
        <time>2021-05-29 16:24:24</time>
      </trkpt>
      <trkpt lat="43.23298" lon="-2.7944">
        <ele>69.8</ele>
        <time>2021-05-29 16:24:25</time>
      </trkpt>
      <trkpt lat="43.23302" lon="-2.79451">
        <ele>69.6</ele>
        <time>2021-05-29 16:24:26</time>
      </trkpt>
      <trkpt lat="43.23307" lon="-2.79463">
        <ele>69.2</ele>
        <time>2021-05-29 16:24:27</time>
      </trkpt>
      <trkpt lat="43.23311" lon="-2.79474">
        <ele>69.2</ele>
        <time>2021-05-29 16:24:28</time>
      </trkpt>
      <trkpt lat="43.23316" lon="-2.79486">
        <ele>69</ele>
        <time>2021-05-29 16:24:29</time>
      </trkpt>
      <trkpt lat="43.23321" lon="-2.79497">
        <ele>68.8</ele>
        <time>2021-05-29 16:24:30</time>
      </trkpt>
      <trkpt lat="43.23325" lon="-2.79508">
        <ele>68.6</ele>
        <time>2021-05-29 16:24:31</time>
      </trkpt>
      <trkpt lat="43.2333" lon="-2.79519">
        <ele>68.6</ele>
        <time>2021-05-29 16:24:32</time>
      </trkpt>
      <trkpt lat="43.23334" lon="-2.7953">
        <ele>68.6</ele>
        <time>2021-05-29 16:24:33</time>
      </trkpt>
      <trkpt lat="43.23338" lon="-2.79541">
        <ele>68.4</ele>
        <time>2021-05-29 16:24:34</time>
      </trkpt>
      <trkpt lat="43.23343" lon="-2.79551">
        <ele>68.2</ele>
        <time>2021-05-29 16:24:35</time>
      </trkpt>
      <trkpt lat="43.23347" lon="-2.79562">
        <ele>68.2</ele>
        <time>2021-05-29 16:24:36</time>
      </trkpt>
      <trkpt lat="43.23351" lon="-2.79572">
        <ele>68</ele>
        <time>2021-05-29 16:24:37</time>
      </trkpt>
      <trkpt lat="43.23356" lon="-2.79582">
        <ele>67.8</ele>
        <time>2021-05-29 16:24:38</time>
      </trkpt>
      <trkpt lat="43.2336" lon="-2.79592">
        <ele>67.6</ele>
        <time>2021-05-29 16:24:39</time>
      </trkpt>
      <trkpt lat="43.23364" lon="-2.79602">
        <ele>67.6</ele>
        <time>2021-05-29 16:24:40</time>
      </trkpt>
      <trkpt lat="43.23368" lon="-2.79612">
        <ele>67.6</ele>
        <time>2021-05-29 16:24:41</time>
      </trkpt>
      <trkpt lat="43.23372" lon="-2.79621">
        <ele>67.6</ele>
        <time>2021-05-29 16:24:42</time>
      </trkpt>
      <trkpt lat="43.23376" lon="-2.7963">
        <ele>67.6</ele>
        <time>2021-05-29 16:24:43</time>
      </trkpt>
      <trkpt lat="43.2338" lon="-2.7964">
        <ele>67.6</ele>
        <time>2021-05-29 16:24:44</time>
      </trkpt>
      <trkpt lat="43.23384" lon="-2.7965">
        <ele>67.6</ele>
        <time>2021-05-29 16:24:45</time>
      </trkpt>
      <trkpt lat="43.23388" lon="-2.79659">
        <ele>67.4</ele>
        <time>2021-05-29 16:24:46</time>
      </trkpt>
      <trkpt lat="43.23392" lon="-2.79669">
        <ele>67.4</ele>
        <time>2021-05-29 16:24:47</time>
      </trkpt>
      <trkpt lat="43.23396" lon="-2.79679">
        <ele>67.4</ele>
        <time>2021-05-29 16:24:48</time>
      </trkpt>
      <trkpt lat="43.234" lon="-2.79689">
        <ele>67.4</ele>
        <time>2021-05-29 16:24:49</time>
      </trkpt>
      <trkpt lat="43.23404" lon="-2.79699">
        <ele>67.2</ele>
        <time>2021-05-29 16:24:50</time>
      </trkpt>
      <trkpt lat="43.23408" lon="-2.79709">
        <ele>67.2</ele>
        <time>2021-05-29 16:24:51</time>
      </trkpt>
      <trkpt lat="43.23413" lon="-2.79719">
        <ele>67.2</ele>
        <time>2021-05-29 16:24:52</time>
      </trkpt>
      <trkpt lat="43.23418" lon="-2.79729">
        <ele>67.2</ele>
        <time>2021-05-29 16:24:53</time>
      </trkpt>
      <trkpt lat="43.23423" lon="-2.79739">
        <ele>67.2</ele>
        <time>2021-05-29 16:24:54</time>
      </trkpt>
      <trkpt lat="43.23429" lon="-2.79748">
        <ele>67.2</ele>
        <time>2021-05-29 16:24:55</time>
      </trkpt>
      <trkpt lat="43.23436" lon="-2.79756">
        <ele>67.2</ele>
        <time>2021-05-29 16:24:56</time>
      </trkpt>
      <trkpt lat="43.23444" lon="-2.79763">
        <ele>67.2</ele>
        <time>2021-05-29 16:24:57</time>
      </trkpt>
      <trkpt lat="43.23452" lon="-2.79769">
        <ele>67.2</ele>
        <time>2021-05-29 16:24:58</time>
      </trkpt>
      <trkpt lat="43.2346" lon="-2.79775">
        <ele>67.2</ele>
        <time>2021-05-29 16:24:59</time>
      </trkpt>
      <trkpt lat="43.23469" lon="-2.7978">
        <ele>67</ele>
        <time>2021-05-29 16:25:00</time>
      </trkpt>
      <trkpt lat="43.23477" lon="-2.79785">
        <ele>66.8</ele>
        <time>2021-05-29 16:25:01</time>
      </trkpt>
      <trkpt lat="43.23486" lon="-2.79789">
        <ele>66.4</ele>
        <time>2021-05-29 16:25:02</time>
      </trkpt>
      <trkpt lat="43.23495" lon="-2.79795">
        <ele>66</ele>
        <time>2021-05-29 16:25:03</time>
      </trkpt>
      <trkpt lat="43.23503" lon="-2.79801">
        <ele>65.8</ele>
        <time>2021-05-29 16:25:04</time>
      </trkpt>
      <trkpt lat="43.23511" lon="-2.79808">
        <ele>65.4</ele>
        <time>2021-05-29 16:25:05</time>
      </trkpt>
      <trkpt lat="43.23518" lon="-2.79818">
        <ele>65</ele>
        <time>2021-05-29 16:25:06</time>
      </trkpt>
      <trkpt lat="43.23526" lon="-2.79822">
        <ele>64.8</ele>
        <time>2021-05-29 16:25:07</time>
      </trkpt>
      <trkpt lat="43.23535" lon="-2.79822">
        <ele>64.4</ele>
        <time>2021-05-29 16:25:08</time>
      </trkpt>
      <trkpt lat="43.23543" lon="-2.79826">
        <ele>64</ele>
        <time>2021-05-29 16:25:09</time>
      </trkpt>
      <trkpt lat="43.23552" lon="-2.79831">
        <ele>63.8</ele>
        <time>2021-05-29 16:25:10</time>
      </trkpt>
      <trkpt lat="43.2356" lon="-2.79837">
        <ele>63.6</ele>
        <time>2021-05-29 16:25:11</time>
      </trkpt>
      <trkpt lat="43.23568" lon="-2.79844">
        <ele>63.4</ele>
        <time>2021-05-29 16:25:12</time>
      </trkpt>
      <trkpt lat="43.23575" lon="-2.79852">
        <ele>63.2</ele>
        <time>2021-05-29 16:25:13</time>
      </trkpt>
      <trkpt lat="43.23581" lon="-2.79861">
        <ele>63.2</ele>
        <time>2021-05-29 16:25:14</time>
      </trkpt>
      <trkpt lat="43.23586" lon="-2.79871">
        <ele>63.2</ele>
        <time>2021-05-29 16:25:15</time>
      </trkpt>
      <trkpt lat="43.2359" lon="-2.79881">
        <ele>63.2</ele>
        <time>2021-05-29 16:25:16</time>
      </trkpt>
      <trkpt lat="43.23594" lon="-2.79892">
        <ele>63.2</ele>
        <time>2021-05-29 16:25:17</time>
      </trkpt>
      <trkpt lat="43.23596" lon="-2.79902">
        <ele>63.4</ele>
        <time>2021-05-29 16:25:18</time>
      </trkpt>
      <trkpt lat="43.23598" lon="-2.79914">
        <ele>63.2</ele>
        <time>2021-05-29 16:25:19</time>
      </trkpt>
      <trkpt lat="43.236" lon="-2.79925">
        <ele>63.2</ele>
        <time>2021-05-29 16:25:20</time>
      </trkpt>
      <trkpt lat="43.23601" lon="-2.79936">
        <ele>63</ele>
        <time>2021-05-29 16:25:21</time>
      </trkpt>
      <trkpt lat="43.23602" lon="-2.79947">
        <ele>63</ele>
        <time>2021-05-29 16:25:22</time>
      </trkpt>
      <trkpt lat="43.23603" lon="-2.79958">
        <ele>63</ele>
        <time>2021-05-29 16:25:23</time>
      </trkpt>
      <trkpt lat="43.23604" lon="-2.79969">
        <ele>62.8</ele>
        <time>2021-05-29 16:25:24</time>
      </trkpt>
      <trkpt lat="43.23606" lon="-2.7998">
        <ele>62.8</ele>
        <time>2021-05-29 16:25:25</time>
      </trkpt>
      <trkpt lat="43.23607" lon="-2.79991">
        <ele>63</ele>
        <time>2021-05-29 16:25:26</time>
      </trkpt>
      <trkpt lat="43.23608" lon="-2.80002">
        <ele>63</ele>
        <time>2021-05-29 16:25:27</time>
      </trkpt>
      <trkpt lat="43.23609" lon="-2.80014">
        <ele>62.8</ele>
        <time>2021-05-29 16:25:28</time>
      </trkpt>
      <trkpt lat="43.2361" lon="-2.80025">
        <ele>62.8</ele>
        <time>2021-05-29 16:25:29</time>
      </trkpt>
      <trkpt lat="43.23611" lon="-2.80037">
        <ele>63</ele>
        <time>2021-05-29 16:25:30</time>
      </trkpt>
      <trkpt lat="43.23612" lon="-2.80049">
        <ele>63</ele>
        <time>2021-05-29 16:25:31</time>
      </trkpt>
      <trkpt lat="43.23612" lon="-2.8006">
        <ele>62.8</ele>
        <time>2021-05-29 16:25:32</time>
      </trkpt>
      <trkpt lat="43.23613" lon="-2.80072">
        <ele>62.8</ele>
        <time>2021-05-29 16:25:33</time>
      </trkpt>
      <trkpt lat="43.23614" lon="-2.80084">
        <ele>62.4</ele>
        <time>2021-05-29 16:25:34</time>
      </trkpt>
      <trkpt lat="43.23615" lon="-2.80095">
        <ele>62.4</ele>
        <time>2021-05-29 16:25:35</time>
      </trkpt>
      <trkpt lat="43.23616" lon="-2.80106">
        <ele>62.4</ele>
        <time>2021-05-29 16:25:36</time>
      </trkpt>
      <trkpt lat="43.23617" lon="-2.80118">
        <ele>62.4</ele>
        <time>2021-05-29 16:25:37</time>
      </trkpt>
      <trkpt lat="43.23617" lon="-2.80129">
        <ele>62.4</ele>
        <time>2021-05-29 16:25:38</time>
      </trkpt>
      <trkpt lat="43.23618" lon="-2.80141">
        <ele>62.2</ele>
        <time>2021-05-29 16:25:39</time>
      </trkpt>
      <trkpt lat="43.23618" lon="-2.80152">
        <ele>62.2</ele>
        <time>2021-05-29 16:25:40</time>
      </trkpt>
      <trkpt lat="43.23619" lon="-2.80163">
        <ele>62.2</ele>
        <time>2021-05-29 16:25:41</time>
      </trkpt>
      <trkpt lat="43.2362" lon="-2.80174">
        <ele>62</ele>
        <time>2021-05-29 16:25:42</time>
      </trkpt>
      <trkpt lat="43.2362" lon="-2.80186">
        <ele>62</ele>
        <time>2021-05-29 16:25:43</time>
      </trkpt>
      <trkpt lat="43.23621" lon="-2.80197">
        <ele>61.8</ele>
        <time>2021-05-29 16:25:44</time>
      </trkpt>
      <trkpt lat="43.23622" lon="-2.80208">
        <ele>61.8</ele>
        <time>2021-05-29 16:25:45</time>
      </trkpt>
      <trkpt lat="43.23623" lon="-2.80219">
        <ele>61.6</ele>
        <time>2021-05-29 16:25:46</time>
      </trkpt>
      <trkpt lat="43.23623" lon="-2.80231">
        <ele>61.6</ele>
        <time>2021-05-29 16:25:47</time>
      </trkpt>
      <trkpt lat="43.23624" lon="-2.80242">
        <ele>61.6</ele>
        <time>2021-05-29 16:25:48</time>
      </trkpt>
      <trkpt lat="43.23625" lon="-2.80253">
        <ele>61.4</ele>
        <time>2021-05-29 16:25:49</time>
      </trkpt>
      <trkpt lat="43.23626" lon="-2.80264">
        <ele>61.4</ele>
        <time>2021-05-29 16:25:50</time>
      </trkpt>
      <trkpt lat="43.23627" lon="-2.80276">
        <ele>61.4</ele>
        <time>2021-05-29 16:25:51</time>
      </trkpt>
      <trkpt lat="43.23628" lon="-2.80287">
        <ele>61.4</ele>
        <time>2021-05-29 16:25:52</time>
      </trkpt>
      <trkpt lat="43.23629" lon="-2.80299">
        <ele>61.4</ele>
        <time>2021-05-29 16:25:53</time>
      </trkpt>
      <trkpt lat="43.23632" lon="-2.8031">
        <ele>61.2</ele>
        <time>2021-05-29 16:25:54</time>
      </trkpt>
      <trkpt lat="43.23637" lon="-2.8032">
        <ele>61.2</ele>
        <time>2021-05-29 16:25:55</time>
      </trkpt>
      <trkpt lat="43.23642" lon="-2.80328">
        <ele>61</ele>
        <time>2021-05-29 16:25:56</time>
      </trkpt>
      <trkpt lat="43.23649" lon="-2.80335">
        <ele>60.8</ele>
        <time>2021-05-29 16:25:57</time>
      </trkpt>
      <trkpt lat="43.23656" lon="-2.80342">
        <ele>60.6</ele>
        <time>2021-05-29 16:25:58</time>
      </trkpt>
      <trkpt lat="43.23662" lon="-2.80348">
        <ele>60.6</ele>
        <time>2021-05-29 16:25:59</time>
      </trkpt>
      <trkpt lat="43.23668" lon="-2.80356">
        <ele>60.4</ele>
        <time>2021-05-29 16:26:00</time>
      </trkpt>
      <trkpt lat="43.23671" lon="-2.80365">
        <ele>60.4</ele>
        <time>2021-05-29 16:26:01</time>
      </trkpt>
      <trkpt lat="43.23673" lon="-2.80375">
        <ele>60.4</ele>
        <time>2021-05-29 16:26:02</time>
      </trkpt>
      <trkpt lat="43.23672" lon="-2.80385">
        <ele>60.4</ele>
        <time>2021-05-29 16:26:03</time>
      </trkpt>
      <trkpt lat="43.2367" lon="-2.80396">
        <ele>60.4</ele>
        <time>2021-05-29 16:26:04</time>
      </trkpt>
      <trkpt lat="43.23666" lon="-2.80406">
        <ele>60.4</ele>
        <time>2021-05-29 16:26:05</time>
      </trkpt>
      <trkpt lat="43.23662" lon="-2.80417">
        <ele>60.6</ele>
        <time>2021-05-29 16:26:06</time>
      </trkpt>
      <trkpt lat="43.23658" lon="-2.80427">
        <ele>60.6</ele>
        <time>2021-05-29 16:26:07</time>
      </trkpt>
      <trkpt lat="43.23653" lon="-2.80438">
        <ele>60.6</ele>
        <time>2021-05-29 16:26:08</time>
      </trkpt>
      <trkpt lat="43.2365" lon="-2.8045">
        <ele>60.6</ele>
        <time>2021-05-29 16:26:09</time>
      </trkpt>
      <trkpt lat="43.23647" lon="-2.80462">
        <ele>60.4</ele>
        <time>2021-05-29 16:26:10</time>
      </trkpt>
      <trkpt lat="43.23646" lon="-2.80474">
        <ele>60.2</ele>
        <time>2021-05-29 16:26:11</time>
      </trkpt>
      <trkpt lat="43.23644" lon="-2.80486">
        <ele>60.2</ele>
        <time>2021-05-29 16:26:12</time>
      </trkpt>
      <trkpt lat="43.23643" lon="-2.80499">
        <ele>60</ele>
        <time>2021-05-29 16:26:13</time>
      </trkpt>
      <trkpt lat="43.23643" lon="-2.80512">
        <ele>60</ele>
        <time>2021-05-29 16:26:14</time>
      </trkpt>
      <trkpt lat="43.23643" lon="-2.80525">
        <ele>60</ele>
        <time>2021-05-29 16:26:15</time>
      </trkpt>
      <trkpt lat="43.23643" lon="-2.80538">
        <ele>60</ele>
        <time>2021-05-29 16:26:16</time>
      </trkpt>
      <trkpt lat="43.23643" lon="-2.8055">
        <ele>59.8</ele>
        <time>2021-05-29 16:26:17</time>
      </trkpt>
      <trkpt lat="43.23643" lon="-2.80563">
        <ele>59.4</ele>
        <time>2021-05-29 16:26:18</time>
      </trkpt>
      <trkpt lat="43.23643" lon="-2.80576">
        <ele>59.4</ele>
        <time>2021-05-29 16:26:19</time>
      </trkpt>
      <trkpt lat="43.23643" lon="-2.80588">
        <ele>59.2</ele>
        <time>2021-05-29 16:26:20</time>
      </trkpt>
      <trkpt lat="43.23643" lon="-2.806">
        <ele>59.4</ele>
        <time>2021-05-29 16:26:21</time>
      </trkpt>
      <trkpt lat="43.23643" lon="-2.80612">
        <ele>59.2</ele>
        <time>2021-05-29 16:26:22</time>
      </trkpt>
      <trkpt lat="43.23643" lon="-2.80624">
        <ele>59.2</ele>
        <time>2021-05-29 16:26:23</time>
      </trkpt>
      <trkpt lat="43.23643" lon="-2.80636">
        <ele>59.2</ele>
        <time>2021-05-29 16:26:24</time>
      </trkpt>
      <trkpt lat="43.23643" lon="-2.80647">
        <ele>59.2</ele>
        <time>2021-05-29 16:26:25</time>
      </trkpt>
      <trkpt lat="43.23643" lon="-2.80658">
        <ele>59.2</ele>
        <time>2021-05-29 16:26:26</time>
      </trkpt>
      <trkpt lat="43.23643" lon="-2.80668">
        <ele>59.2</ele>
        <time>2021-05-29 16:26:27</time>
      </trkpt>
      <trkpt lat="43.23643" lon="-2.80678">
        <ele>59.2</ele>
        <time>2021-05-29 16:26:28</time>
      </trkpt>
      <trkpt lat="43.23642" lon="-2.80688">
        <ele>59.2</ele>
        <time>2021-05-29 16:26:29</time>
      </trkpt>
      <trkpt lat="43.23641" lon="-2.80698">
        <ele>59.2</ele>
        <time>2021-05-29 16:26:30</time>
      </trkpt>
      <trkpt lat="43.2364" lon="-2.80709">
        <ele>59.4</ele>
        <time>2021-05-29 16:26:31</time>
      </trkpt>
      <trkpt lat="43.23639" lon="-2.80718">
        <ele>59.6</ele>
        <time>2021-05-29 16:26:32</time>
      </trkpt>
      <trkpt lat="43.23637" lon="-2.80728">
        <ele>60</ele>
        <time>2021-05-29 16:26:33</time>
      </trkpt>
      <trkpt lat="43.23635" lon="-2.80738">
        <ele>60.6</ele>
        <time>2021-05-29 16:26:34</time>
      </trkpt>
      <trkpt lat="43.23632" lon="-2.80748">
        <ele>60.8</ele>
        <time>2021-05-29 16:26:35</time>
      </trkpt>
      <trkpt lat="43.23629" lon="-2.80758">
        <ele>61</ele>
        <time>2021-05-29 16:26:36</time>
      </trkpt>
      <trkpt lat="43.23626" lon="-2.80768">
        <ele>61.4</ele>
        <time>2021-05-29 16:26:37</time>
      </trkpt>
      <trkpt lat="43.23622" lon="-2.80777">
        <ele>61.8</ele>
        <time>2021-05-29 16:26:38</time>
      </trkpt>
      <trkpt lat="43.23617" lon="-2.80787">
        <ele>61.8</ele>
        <time>2021-05-29 16:26:39</time>
      </trkpt>
      <trkpt lat="43.23613" lon="-2.80796">
        <ele>62</ele>
        <time>2021-05-29 16:26:40</time>
      </trkpt>
      <trkpt lat="43.23607" lon="-2.80805">
        <ele>62</ele>
        <time>2021-05-29 16:26:41</time>
      </trkpt>
      <trkpt lat="43.23602" lon="-2.80814">
        <ele>62.2</ele>
        <time>2021-05-29 16:26:42</time>
      </trkpt>
      <trkpt lat="43.23596" lon="-2.80823">
        <ele>62.2</ele>
        <time>2021-05-29 16:26:43</time>
      </trkpt>
      <trkpt lat="43.23589" lon="-2.80832">
        <ele>62.2</ele>
        <time>2021-05-29 16:26:44</time>
      </trkpt>
      <trkpt lat="43.23583" lon="-2.80841">
        <ele>62.2</ele>
        <time>2021-05-29 16:26:45</time>
      </trkpt>
      <trkpt lat="43.23576" lon="-2.80851">
        <ele>62.2</ele>
        <time>2021-05-29 16:26:46</time>
      </trkpt>
      <trkpt lat="43.23569" lon="-2.8086">
        <ele>62.2</ele>
        <time>2021-05-29 16:26:47</time>
      </trkpt>
      <trkpt lat="43.23562" lon="-2.8087">
        <ele>62.2</ele>
        <time>2021-05-29 16:26:48</time>
      </trkpt>
      <trkpt lat="43.23555" lon="-2.80879">
        <ele>62.2</ele>
        <time>2021-05-29 16:26:49</time>
      </trkpt>
      <trkpt lat="43.23549" lon="-2.80889">
        <ele>62</ele>
        <time>2021-05-29 16:26:50</time>
      </trkpt>
      <trkpt lat="43.23542" lon="-2.80899">
        <ele>61.8</ele>
        <time>2021-05-29 16:26:51</time>
      </trkpt>
      <trkpt lat="43.23536" lon="-2.8091">
        <ele>61.2</ele>
        <time>2021-05-29 16:26:52</time>
      </trkpt>
      <trkpt lat="43.2353" lon="-2.8092">
        <ele>61</ele>
        <time>2021-05-29 16:26:53</time>
      </trkpt>
      <trkpt lat="43.23524" lon="-2.80931">
        <ele>61</ele>
        <time>2021-05-29 16:26:54</time>
      </trkpt>
      <trkpt lat="43.23518" lon="-2.80942">
        <ele>61</ele>
        <time>2021-05-29 16:26:55</time>
      </trkpt>
      <trkpt lat="43.23513" lon="-2.80954">
        <ele>60.8</ele>
        <time>2021-05-29 16:26:56</time>
      </trkpt>
      <trkpt lat="43.23508" lon="-2.80965">
        <ele>60.8</ele>
        <time>2021-05-29 16:26:57</time>
      </trkpt>
      <trkpt lat="43.23504" lon="-2.80977">
        <ele>60.6</ele>
        <time>2021-05-29 16:26:58</time>
      </trkpt>
      <trkpt lat="43.23499" lon="-2.80988">
        <ele>60.6</ele>
        <time>2021-05-29 16:26:59</time>
      </trkpt>
      <trkpt lat="43.23494" lon="-2.81">
        <ele>60.4</ele>
        <time>2021-05-29 16:27:00</time>
      </trkpt>
      <trkpt lat="43.2349" lon="-2.81012">
        <ele>60.4</ele>
        <time>2021-05-29 16:27:01</time>
      </trkpt>
      <trkpt lat="43.23486" lon="-2.81024">
        <ele>60.4</ele>
        <time>2021-05-29 16:27:02</time>
      </trkpt>
      <trkpt lat="43.23481" lon="-2.81036">
        <ele>60.4</ele>
        <time>2021-05-29 16:27:03</time>
      </trkpt>
      <trkpt lat="43.23477" lon="-2.81048">
        <ele>60.4</ele>
        <time>2021-05-29 16:27:04</time>
      </trkpt>
      <trkpt lat="43.23473" lon="-2.8106">
        <ele>60.2</ele>
        <time>2021-05-29 16:27:05</time>
      </trkpt>
      <trkpt lat="43.23468" lon="-2.81073">
        <ele>60.2</ele>
        <time>2021-05-29 16:27:06</time>
      </trkpt>
      <trkpt lat="43.23464" lon="-2.81085">
        <ele>60.2</ele>
        <time>2021-05-29 16:27:07</time>
      </trkpt>
      <trkpt lat="43.23459" lon="-2.81097">
        <ele>60.2</ele>
        <time>2021-05-29 16:27:08</time>
      </trkpt>
      <trkpt lat="43.23455" lon="-2.81109">
        <ele>60</ele>
        <time>2021-05-29 16:27:09</time>
      </trkpt>
      <trkpt lat="43.2345" lon="-2.81121">
        <ele>60</ele>
        <time>2021-05-29 16:27:10</time>
      </trkpt>
      <trkpt lat="43.23446" lon="-2.81134">
        <ele>60</ele>
        <time>2021-05-29 16:27:11</time>
      </trkpt>
      <trkpt lat="43.23442" lon="-2.81146">
        <ele>60</ele>
        <time>2021-05-29 16:27:12</time>
      </trkpt>
      <trkpt lat="43.23438" lon="-2.81158">
        <ele>59.8</ele>
        <time>2021-05-29 16:27:13</time>
      </trkpt>
      <trkpt lat="43.23433" lon="-2.8117">
        <ele>59.8</ele>
        <time>2021-05-29 16:27:14</time>
      </trkpt>
      <trkpt lat="43.23429" lon="-2.81181">
        <ele>59.8</ele>
        <time>2021-05-29 16:27:15</time>
      </trkpt>
      <trkpt lat="43.23425" lon="-2.81193">
        <ele>60</ele>
        <time>2021-05-29 16:27:16</time>
      </trkpt>
      <trkpt lat="43.2342" lon="-2.81204">
        <ele>60</ele>
        <time>2021-05-29 16:27:17</time>
      </trkpt>
      <trkpt lat="43.23416" lon="-2.81216">
        <ele>59.8</ele>
        <time>2021-05-29 16:27:18</time>
      </trkpt>
      <trkpt lat="43.23412" lon="-2.81227">
        <ele>59.8</ele>
        <time>2021-05-29 16:27:19</time>
      </trkpt>
      <trkpt lat="43.23408" lon="-2.81238">
        <ele>59.8</ele>
        <time>2021-05-29 16:27:20</time>
      </trkpt>
      <trkpt lat="43.23404" lon="-2.8125">
        <ele>60</ele>
        <time>2021-05-29 16:27:21</time>
      </trkpt>
      <trkpt lat="43.234" lon="-2.81261">
        <ele>60</ele>
        <time>2021-05-29 16:27:22</time>
      </trkpt>
      <trkpt lat="43.23395" lon="-2.81272">
        <ele>60</ele>
        <time>2021-05-29 16:27:23</time>
      </trkpt>
      <trkpt lat="43.23391" lon="-2.81283">
        <ele>60.2</ele>
        <time>2021-05-29 16:27:24</time>
      </trkpt>
      <trkpt lat="43.23387" lon="-2.81295">
        <ele>60.2</ele>
        <time>2021-05-29 16:27:25</time>
      </trkpt>
      <trkpt lat="43.23383" lon="-2.81306">
        <ele>60.4</ele>
        <time>2021-05-29 16:27:26</time>
      </trkpt>
      <trkpt lat="43.23379" lon="-2.81317">
        <ele>60.4</ele>
        <time>2021-05-29 16:27:27</time>
      </trkpt>
      <trkpt lat="43.23375" lon="-2.81329">
        <ele>60.4</ele>
        <time>2021-05-29 16:27:28</time>
      </trkpt>
      <trkpt lat="43.23371" lon="-2.81341">
        <ele>60.4</ele>
        <time>2021-05-29 16:27:29</time>
      </trkpt>
      <trkpt lat="43.23366" lon="-2.81352">
        <ele>60.4</ele>
        <time>2021-05-29 16:27:30</time>
      </trkpt>
      <trkpt lat="43.23362" lon="-2.81364">
        <ele>60.4</ele>
        <time>2021-05-29 16:27:31</time>
      </trkpt>
      <trkpt lat="43.23357" lon="-2.81376">
        <ele>60.4</ele>
        <time>2021-05-29 16:27:32</time>
      </trkpt>
      <trkpt lat="43.23353" lon="-2.81388">
        <ele>60.4</ele>
        <time>2021-05-29 16:27:33</time>
      </trkpt>
      <trkpt lat="43.23348" lon="-2.814">
        <ele>60.4</ele>
        <time>2021-05-29 16:27:34</time>
      </trkpt>
      <trkpt lat="43.23344" lon="-2.81412">
        <ele>60.4</ele>
        <time>2021-05-29 16:27:35</time>
      </trkpt>
      <trkpt lat="43.23339" lon="-2.81424">
        <ele>60.4</ele>
        <time>2021-05-29 16:27:36</time>
      </trkpt>
      <trkpt lat="43.23334" lon="-2.81436">
        <ele>60.2</ele>
        <time>2021-05-29 16:27:37</time>
      </trkpt>
      <trkpt lat="43.23329" lon="-2.81449">
        <ele>60</ele>
        <time>2021-05-29 16:27:38</time>
      </trkpt>
      <trkpt lat="43.23325" lon="-2.81461">
        <ele>59.8</ele>
        <time>2021-05-29 16:27:39</time>
      </trkpt>
      <trkpt lat="43.2332" lon="-2.81473">
        <ele>59.6</ele>
        <time>2021-05-29 16:27:40</time>
      </trkpt>
      <trkpt lat="43.23316" lon="-2.81485">
        <ele>59.6</ele>
        <time>2021-05-29 16:27:41</time>
      </trkpt>
      <trkpt lat="43.23311" lon="-2.81497">
        <ele>59.2</ele>
        <time>2021-05-29 16:27:42</time>
      </trkpt>
      <trkpt lat="43.23307" lon="-2.81509">
        <ele>59.2</ele>
        <time>2021-05-29 16:27:43</time>
      </trkpt>
      <trkpt lat="43.23302" lon="-2.81521">
        <ele>59</ele>
        <time>2021-05-29 16:27:44</time>
      </trkpt>
      <trkpt lat="43.23298" lon="-2.81532">
        <ele>59</ele>
        <time>2021-05-29 16:27:45</time>
      </trkpt>
      <trkpt lat="43.23294" lon="-2.81544">
        <ele>58.8</ele>
        <time>2021-05-29 16:27:46</time>
      </trkpt>
      <trkpt lat="43.23289" lon="-2.81555">
        <ele>58.8</ele>
        <time>2021-05-29 16:27:47</time>
      </trkpt>
      <trkpt lat="43.23285" lon="-2.81567">
        <ele>58.8</ele>
        <time>2021-05-29 16:27:48</time>
      </trkpt>
      <trkpt lat="43.2328" lon="-2.81578">
        <ele>58.6</ele>
        <time>2021-05-29 16:27:49</time>
      </trkpt>
      <trkpt lat="43.23276" lon="-2.8159">
        <ele>58.6</ele>
        <time>2021-05-29 16:27:50</time>
      </trkpt>
      <trkpt lat="43.23271" lon="-2.81601">
        <ele>58.6</ele>
        <time>2021-05-29 16:27:51</time>
      </trkpt>
      <trkpt lat="43.23267" lon="-2.81613">
        <ele>58.6</ele>
        <time>2021-05-29 16:27:52</time>
      </trkpt>
      <trkpt lat="43.23263" lon="-2.81624">
        <ele>58.6</ele>
        <time>2021-05-29 16:27:53</time>
      </trkpt>
      <trkpt lat="43.23259" lon="-2.81636">
        <ele>58.6</ele>
        <time>2021-05-29 16:27:54</time>
      </trkpt>
      <trkpt lat="43.23254" lon="-2.81647">
        <ele>58.6</ele>
        <time>2021-05-29 16:27:55</time>
      </trkpt>
      <trkpt lat="43.2325" lon="-2.81658">
        <ele>58.6</ele>
        <time>2021-05-29 16:27:56</time>
      </trkpt>
      <trkpt lat="43.23245" lon="-2.81668">
        <ele>58.6</ele>
        <time>2021-05-29 16:27:57</time>
      </trkpt>
      <trkpt lat="43.23241" lon="-2.81679">
        <ele>58.6</ele>
        <time>2021-05-29 16:27:58</time>
      </trkpt>
      <trkpt lat="43.23236" lon="-2.81689">
        <ele>58.6</ele>
        <time>2021-05-29 16:27:59</time>
      </trkpt>
      <trkpt lat="43.23231" lon="-2.81699">
        <ele>58.6</ele>
        <time>2021-05-29 16:28:00</time>
      </trkpt>
      <trkpt lat="43.23225" lon="-2.81709">
        <ele>58.6</ele>
        <time>2021-05-29 16:28:01</time>
      </trkpt>
      <trkpt lat="43.2322" lon="-2.81718">
        <ele>58.8</ele>
        <time>2021-05-29 16:28:02</time>
      </trkpt>
      <trkpt lat="43.23214" lon="-2.81726">
        <ele>58.8</ele>
        <time>2021-05-29 16:28:03</time>
      </trkpt>
      <trkpt lat="43.23208" lon="-2.81734">
        <ele>58.8</ele>
        <time>2021-05-29 16:28:04</time>
      </trkpt>
      <trkpt lat="43.23201" lon="-2.81742">
        <ele>58.8</ele>
        <time>2021-05-29 16:28:05</time>
      </trkpt>
      <trkpt lat="43.23194" lon="-2.81749">
        <ele>59.2</ele>
        <time>2021-05-29 16:28:06</time>
      </trkpt>
      <trkpt lat="43.23188" lon="-2.81756">
        <ele>59.4</ele>
        <time>2021-05-29 16:28:07</time>
      </trkpt>
      <trkpt lat="43.2318" lon="-2.81762">
        <ele>59.6</ele>
        <time>2021-05-29 16:28:08</time>
      </trkpt>
      <trkpt lat="43.23173" lon="-2.81767">
        <ele>59.6</ele>
        <time>2021-05-29 16:28:09</time>
      </trkpt>
      <trkpt lat="43.23166" lon="-2.81773">
        <ele>59.8</ele>
        <time>2021-05-29 16:28:10</time>
      </trkpt>
      <trkpt lat="43.23158" lon="-2.81778">
        <ele>59.8</ele>
        <time>2021-05-29 16:28:11</time>
      </trkpt>
      <trkpt lat="43.23151" lon="-2.81782">
        <ele>60</ele>
        <time>2021-05-29 16:28:12</time>
      </trkpt>
      <trkpt lat="43.23143" lon="-2.81787">
        <ele>60</ele>
        <time>2021-05-29 16:28:13</time>
      </trkpt>
      <trkpt lat="43.23135" lon="-2.81791">
        <ele>60.2</ele>
        <time>2021-05-29 16:28:14</time>
      </trkpt>
      <trkpt lat="43.23128" lon="-2.81795">
        <ele>60.4</ele>
        <time>2021-05-29 16:28:15</time>
      </trkpt>
      <trkpt lat="43.23121" lon="-2.81799">
        <ele>60.4</ele>
        <time>2021-05-29 16:28:16</time>
      </trkpt>
      <trkpt lat="43.23114" lon="-2.81803">
        <ele>60.6</ele>
        <time>2021-05-29 16:28:17</time>
      </trkpt>
      <trkpt lat="43.23106" lon="-2.81808">
        <ele>60.6</ele>
        <time>2021-05-29 16:28:18</time>
      </trkpt>
      <trkpt lat="43.23099" lon="-2.81813">
        <ele>60.8</ele>
        <time>2021-05-29 16:28:19</time>
      </trkpt>
      <trkpt lat="43.23092" lon="-2.81818">
        <ele>60.8</ele>
        <time>2021-05-29 16:28:20</time>
      </trkpt>
      <trkpt lat="43.23086" lon="-2.81825">
        <ele>61</ele>
        <time>2021-05-29 16:28:21</time>
      </trkpt>
      <trkpt lat="43.2308" lon="-2.81832">
        <ele>61.2</ele>
        <time>2021-05-29 16:28:22</time>
      </trkpt>
      <trkpt lat="43.23074" lon="-2.8184">
        <ele>61.4</ele>
        <time>2021-05-29 16:28:23</time>
      </trkpt>
      <trkpt lat="43.23069" lon="-2.81849">
        <ele>61.4</ele>
        <time>2021-05-29 16:28:24</time>
      </trkpt>
      <trkpt lat="43.23065" lon="-2.81858">
        <ele>61.6</ele>
        <time>2021-05-29 16:28:25</time>
      </trkpt>
      <trkpt lat="43.23062" lon="-2.81868">
        <ele>61.8</ele>
        <time>2021-05-29 16:28:26</time>
      </trkpt>
      <trkpt lat="43.23059" lon="-2.81879">
        <ele>62</ele>
        <time>2021-05-29 16:28:27</time>
      </trkpt>
      <trkpt lat="43.23056" lon="-2.8189">
        <ele>62.2</ele>
        <time>2021-05-29 16:28:28</time>
      </trkpt>
      <trkpt lat="43.23055" lon="-2.81901">
        <ele>62.2</ele>
        <time>2021-05-29 16:28:29</time>
      </trkpt>
      <trkpt lat="43.23054" lon="-2.81913">
        <ele>62.2</ele>
        <time>2021-05-29 16:28:30</time>
      </trkpt>
      <trkpt lat="43.23055" lon="-2.81925">
        <ele>62.6</ele>
        <time>2021-05-29 16:28:31</time>
      </trkpt>
      <trkpt lat="43.23056" lon="-2.81936">
        <ele>62.6</ele>
        <time>2021-05-29 16:28:32</time>
      </trkpt>
      <trkpt lat="43.23058" lon="-2.81948">
        <ele>62.8</ele>
        <time>2021-05-29 16:28:33</time>
      </trkpt>
      <trkpt lat="43.23061" lon="-2.81959">
        <ele>62.8</ele>
        <time>2021-05-29 16:28:34</time>
      </trkpt>
      <trkpt lat="43.23065" lon="-2.8197">
        <ele>62.8</ele>
        <time>2021-05-29 16:28:35</time>
      </trkpt>
      <trkpt lat="43.2307" lon="-2.81981">
        <ele>62.8</ele>
        <time>2021-05-29 16:28:36</time>
      </trkpt>
      <trkpt lat="43.23076" lon="-2.8199">
        <ele>62.8</ele>
        <time>2021-05-29 16:28:37</time>
      </trkpt>
      <trkpt lat="43.23082" lon="-2.81999">
        <ele>62.8</ele>
        <time>2021-05-29 16:28:38</time>
      </trkpt>
      <trkpt lat="43.23089" lon="-2.82007">
        <ele>62.8</ele>
        <time>2021-05-29 16:28:39</time>
      </trkpt>
      <trkpt lat="43.23096" lon="-2.82015">
        <ele>62.8</ele>
        <time>2021-05-29 16:28:40</time>
      </trkpt>
      <trkpt lat="43.23104" lon="-2.82023">
        <ele>62.8</ele>
        <time>2021-05-29 16:28:41</time>
      </trkpt>
      <trkpt lat="43.23111" lon="-2.8203">
        <ele>62.8</ele>
        <time>2021-05-29 16:28:42</time>
      </trkpt>
      <trkpt lat="43.23119" lon="-2.82038">
        <ele>62.6</ele>
        <time>2021-05-29 16:28:43</time>
      </trkpt>
      <trkpt lat="43.23127" lon="-2.82046">
        <ele>62.4</ele>
        <time>2021-05-29 16:28:44</time>
      </trkpt>
      <trkpt lat="43.23134" lon="-2.82056">
        <ele>62.2</ele>
        <time>2021-05-29 16:28:45</time>
      </trkpt>
      <trkpt lat="43.23141" lon="-2.82066">
        <ele>62</ele>
        <time>2021-05-29 16:28:46</time>
      </trkpt>
      <trkpt lat="43.23147" lon="-2.82077">
        <ele>61.8</ele>
        <time>2021-05-29 16:28:47</time>
      </trkpt>
      <trkpt lat="43.23152" lon="-2.82089">
        <ele>61.4</ele>
        <time>2021-05-29 16:28:48</time>
      </trkpt>
      <trkpt lat="43.23157" lon="-2.82102">
        <ele>61</ele>
        <time>2021-05-29 16:28:49</time>
      </trkpt>
      <trkpt lat="43.23161" lon="-2.82116">
        <ele>60.8</ele>
        <time>2021-05-29 16:28:50</time>
      </trkpt>
      <trkpt lat="43.23164" lon="-2.8213">
        <ele>60.6</ele>
        <time>2021-05-29 16:28:51</time>
      </trkpt>
      <trkpt lat="43.23166" lon="-2.82145">
        <ele>60.4</ele>
        <time>2021-05-29 16:28:52</time>
      </trkpt>
      <trkpt lat="43.23168" lon="-2.8216">
        <ele>60</ele>
        <time>2021-05-29 16:28:53</time>
      </trkpt>
      <trkpt lat="43.23169" lon="-2.82174">
        <ele>59.6</ele>
        <time>2021-05-29 16:28:54</time>
      </trkpt>
      <trkpt lat="43.23171" lon="-2.8219">
        <ele>59.2</ele>
        <time>2021-05-29 16:28:55</time>
      </trkpt>
      <trkpt lat="43.23173" lon="-2.82205">
        <ele>58.8</ele>
        <time>2021-05-29 16:28:56</time>
      </trkpt>
      <trkpt lat="43.23174" lon="-2.82219">
        <ele>58.4</ele>
        <time>2021-05-29 16:28:57</time>
      </trkpt>
      <trkpt lat="43.23175" lon="-2.82234">
        <ele>58.2</ele>
        <time>2021-05-29 16:28:58</time>
      </trkpt>
      <trkpt lat="43.23176" lon="-2.82248">
        <ele>57.8</ele>
        <time>2021-05-29 16:28:59</time>
      </trkpt>
      <trkpt lat="43.23178" lon="-2.82263">
        <ele>57.4</ele>
        <time>2021-05-29 16:29:00</time>
      </trkpt>
      <trkpt lat="43.23179" lon="-2.82276">
        <ele>56.8</ele>
        <time>2021-05-29 16:29:01</time>
      </trkpt>
      <trkpt lat="43.2318" lon="-2.8229">
        <ele>56.4</ele>
        <time>2021-05-29 16:29:02</time>
      </trkpt>
      <trkpt lat="43.23182" lon="-2.82304">
        <ele>56</ele>
        <time>2021-05-29 16:29:03</time>
      </trkpt>
      <trkpt lat="43.23183" lon="-2.82317">
        <ele>55.4</ele>
        <time>2021-05-29 16:29:04</time>
      </trkpt>
      <trkpt lat="43.23184" lon="-2.8233">
        <ele>54.8</ele>
        <time>2021-05-29 16:29:05</time>
      </trkpt>
      <trkpt lat="43.23185" lon="-2.82344">
        <ele>54.4</ele>
        <time>2021-05-29 16:29:06</time>
      </trkpt>
      <trkpt lat="43.23186" lon="-2.82356">
        <ele>54.2</ele>
        <time>2021-05-29 16:29:07</time>
      </trkpt>
      <trkpt lat="43.23188" lon="-2.82369">
        <ele>54.2</ele>
        <time>2021-05-29 16:29:08</time>
      </trkpt>
      <trkpt lat="43.23189" lon="-2.82381">
        <ele>54</ele>
        <time>2021-05-29 16:29:09</time>
      </trkpt>
      <trkpt lat="43.2319" lon="-2.82394">
        <ele>53.8</ele>
        <time>2021-05-29 16:29:10</time>
      </trkpt>
      <trkpt lat="43.23191" lon="-2.82406">
        <ele>53.8</ele>
        <time>2021-05-29 16:29:11</time>
      </trkpt>
      <trkpt lat="43.23192" lon="-2.82418">
        <ele>53.8</ele>
        <time>2021-05-29 16:29:12</time>
      </trkpt>
      <trkpt lat="43.23194" lon="-2.8243">
        <ele>54</ele>
        <time>2021-05-29 16:29:13</time>
      </trkpt>
      <trkpt lat="43.23195" lon="-2.82442">
        <ele>54</ele>
        <time>2021-05-29 16:29:14</time>
      </trkpt>
      <trkpt lat="43.23196" lon="-2.82454">
        <ele>53.8</ele>
        <time>2021-05-29 16:29:15</time>
      </trkpt>
      <trkpt lat="43.23198" lon="-2.82466">
        <ele>53.8</ele>
        <time>2021-05-29 16:29:16</time>
      </trkpt>
      <trkpt lat="43.23199" lon="-2.82478">
        <ele>53.8</ele>
        <time>2021-05-29 16:29:17</time>
      </trkpt>
      <trkpt lat="43.232" lon="-2.82491">
        <ele>53.6</ele>
        <time>2021-05-29 16:29:18</time>
      </trkpt>
      <trkpt lat="43.23201" lon="-2.82503">
        <ele>53.4</ele>
        <time>2021-05-29 16:29:19</time>
      </trkpt>
      <trkpt lat="43.23203" lon="-2.82515">
        <ele>53.6</ele>
        <time>2021-05-29 16:29:20</time>
      </trkpt>
      <trkpt lat="43.23204" lon="-2.82527">
        <ele>53.6</ele>
        <time>2021-05-29 16:29:21</time>
      </trkpt>
      <trkpt lat="43.23205" lon="-2.82539">
        <ele>53.4</ele>
        <time>2021-05-29 16:29:22</time>
      </trkpt>
      <trkpt lat="43.23207" lon="-2.82551">
        <ele>53.4</ele>
        <time>2021-05-29 16:29:23</time>
      </trkpt>
      <trkpt lat="43.23208" lon="-2.82563">
        <ele>53.4</ele>
        <time>2021-05-29 16:29:24</time>
      </trkpt>
      <trkpt lat="43.23209" lon="-2.82575">
        <ele>53.4</ele>
        <time>2021-05-29 16:29:25</time>
      </trkpt>
      <trkpt lat="43.2321" lon="-2.82587">
        <ele>53.4</ele>
        <time>2021-05-29 16:29:26</time>
      </trkpt>
      <trkpt lat="43.23211" lon="-2.82599">
        <ele>53.4</ele>
        <time>2021-05-29 16:29:27</time>
      </trkpt>
      <trkpt lat="43.23213" lon="-2.82611">
        <ele>53.2</ele>
        <time>2021-05-29 16:29:28</time>
      </trkpt>
      <trkpt lat="43.23214" lon="-2.82623">
        <ele>53.2</ele>
        <time>2021-05-29 16:29:29</time>
      </trkpt>
      <trkpt lat="43.23215" lon="-2.82634">
        <ele>53.2</ele>
        <time>2021-05-29 16:29:30</time>
      </trkpt>
      <trkpt lat="43.23216" lon="-2.82646">
        <ele>53.2</ele>
        <time>2021-05-29 16:29:31</time>
      </trkpt>
      <trkpt lat="43.23217" lon="-2.82657">
        <ele>53</ele>
        <time>2021-05-29 16:29:32</time>
      </trkpt>
      <trkpt lat="43.23218" lon="-2.82669">
        <ele>53</ele>
        <time>2021-05-29 16:29:33</time>
      </trkpt>
      <trkpt lat="43.23219" lon="-2.82681">
        <ele>53</ele>
        <time>2021-05-29 16:29:34</time>
      </trkpt>
      <trkpt lat="43.23219" lon="-2.82693">
        <ele>53</ele>
        <time>2021-05-29 16:29:35</time>
      </trkpt>
      <trkpt lat="43.23219" lon="-2.82705">
        <ele>53</ele>
        <time>2021-05-29 16:29:36</time>
      </trkpt>
      <trkpt lat="43.23219" lon="-2.82716">
        <ele>53</ele>
        <time>2021-05-29 16:29:37</time>
      </trkpt>
      <trkpt lat="43.23218" lon="-2.82728">
        <ele>53</ele>
        <time>2021-05-29 16:29:38</time>
      </trkpt>
      <trkpt lat="43.23217" lon="-2.8274">
        <ele>53</ele>
        <time>2021-05-29 16:29:39</time>
      </trkpt>
      <trkpt lat="43.23215" lon="-2.82752">
        <ele>53</ele>
        <time>2021-05-29 16:29:40</time>
      </trkpt>
      <trkpt lat="43.23213" lon="-2.82764">
        <ele>53</ele>
        <time>2021-05-29 16:29:41</time>
      </trkpt>
      <trkpt lat="43.2321" lon="-2.82775">
        <ele>53.2</ele>
        <time>2021-05-29 16:29:42</time>
      </trkpt>
      <trkpt lat="43.23207" lon="-2.82786">
        <ele>53.2</ele>
        <time>2021-05-29 16:29:43</time>
      </trkpt>
      <trkpt lat="43.23204" lon="-2.82798">
        <ele>53.2</ele>
        <time>2021-05-29 16:29:44</time>
      </trkpt>
      <trkpt lat="43.232" lon="-2.82809">
        <ele>53.2</ele>
        <time>2021-05-29 16:29:45</time>
      </trkpt>
      <trkpt lat="43.23196" lon="-2.8282">
        <ele>53.2</ele>
        <time>2021-05-29 16:29:46</time>
      </trkpt>
      <trkpt lat="43.23192" lon="-2.82831">
        <ele>53.2</ele>
        <time>2021-05-29 16:29:47</time>
      </trkpt>
      <trkpt lat="43.23189" lon="-2.82842">
        <ele>53.2</ele>
        <time>2021-05-29 16:29:48</time>
      </trkpt>
      <trkpt lat="43.23185" lon="-2.82853">
        <ele>53.2</ele>
        <time>2021-05-29 16:29:49</time>
      </trkpt>
      <trkpt lat="43.23181" lon="-2.82864">
        <ele>53.2</ele>
        <time>2021-05-29 16:29:50</time>
      </trkpt>
      <trkpt lat="43.23177" lon="-2.82875">
        <ele>53</ele>
        <time>2021-05-29 16:29:51</time>
      </trkpt>
      <trkpt lat="43.23173" lon="-2.82885">
        <ele>53</ele>
        <time>2021-05-29 16:29:52</time>
      </trkpt>
      <trkpt lat="43.23169" lon="-2.82896">
        <ele>53</ele>
        <time>2021-05-29 16:29:53</time>
      </trkpt>
      <trkpt lat="43.23166" lon="-2.82907">
        <ele>53</ele>
        <time>2021-05-29 16:29:54</time>
      </trkpt>
      <trkpt lat="43.23162" lon="-2.82918">
        <ele>53</ele>
        <time>2021-05-29 16:29:55</time>
      </trkpt>
      <trkpt lat="43.23158" lon="-2.82929">
        <ele>53</ele>
        <time>2021-05-29 16:29:56</time>
      </trkpt>
      <trkpt lat="43.23154" lon="-2.82939">
        <ele>52.8</ele>
        <time>2021-05-29 16:29:57</time>
      </trkpt>
      <trkpt lat="43.2315" lon="-2.8295">
        <ele>52.6</ele>
        <time>2021-05-29 16:29:58</time>
      </trkpt>
      <trkpt lat="43.23147" lon="-2.82961">
        <ele>52.4</ele>
        <time>2021-05-29 16:29:59</time>
      </trkpt>
      <trkpt lat="43.23143" lon="-2.82971">
        <ele>52.4</ele>
        <time>2021-05-29 16:30:00</time>
      </trkpt>
      <trkpt lat="43.23139" lon="-2.82982">
        <ele>52.4</ele>
        <time>2021-05-29 16:30:01</time>
      </trkpt>
      <trkpt lat="43.23135" lon="-2.82992">
        <ele>52.4</ele>
        <time>2021-05-29 16:30:02</time>
      </trkpt>
      <trkpt lat="43.23132" lon="-2.83002">
        <ele>52.4</ele>
        <time>2021-05-29 16:30:03</time>
      </trkpt>
      <trkpt lat="43.23128" lon="-2.83013">
        <ele>52.2</ele>
        <time>2021-05-29 16:30:04</time>
      </trkpt>
      <trkpt lat="43.23124" lon="-2.83023">
        <ele>52.2</ele>
        <time>2021-05-29 16:30:05</time>
      </trkpt>
      <trkpt lat="43.23121" lon="-2.83034">
        <ele>52.2</ele>
        <time>2021-05-29 16:30:06</time>
      </trkpt>
      <trkpt lat="43.23117" lon="-2.83044">
        <ele>52.2</ele>
        <time>2021-05-29 16:30:07</time>
      </trkpt>
      <trkpt lat="43.23113" lon="-2.83054">
        <ele>52.2</ele>
        <time>2021-05-29 16:30:08</time>
      </trkpt>
      <trkpt lat="43.23109" lon="-2.83065">
        <ele>52</ele>
        <time>2021-05-29 16:30:09</time>
      </trkpt>
      <trkpt lat="43.23106" lon="-2.83075">
        <ele>52</ele>
        <time>2021-05-29 16:30:10</time>
      </trkpt>
      <trkpt lat="43.23102" lon="-2.83086">
        <ele>52</ele>
        <time>2021-05-29 16:30:11</time>
      </trkpt>
      <trkpt lat="43.23099" lon="-2.83096">
        <ele>52</ele>
        <time>2021-05-29 16:30:12</time>
      </trkpt>
      <trkpt lat="43.23095" lon="-2.83107">
        <ele>52</ele>
        <time>2021-05-29 16:30:13</time>
      </trkpt>
      <trkpt lat="43.23091" lon="-2.83118">
        <ele>52</ele>
        <time>2021-05-29 16:30:14</time>
      </trkpt>
      <trkpt lat="43.23088" lon="-2.83128">
        <ele>52</ele>
        <time>2021-05-29 16:30:15</time>
      </trkpt>
      <trkpt lat="43.23084" lon="-2.83138">
        <ele>52</ele>
        <time>2021-05-29 16:30:16</time>
      </trkpt>
      <trkpt lat="43.23081" lon="-2.83148">
        <ele>52</ele>
        <time>2021-05-29 16:30:17</time>
      </trkpt>
      <trkpt lat="43.23077" lon="-2.83159">
        <ele>52</ele>
        <time>2021-05-29 16:30:18</time>
      </trkpt>
      <trkpt lat="43.23074" lon="-2.83169">
        <ele>52</ele>
        <time>2021-05-29 16:30:19</time>
      </trkpt>
      <trkpt lat="43.2307" lon="-2.83179">
        <ele>52</ele>
        <time>2021-05-29 16:30:20</time>
      </trkpt>
      <trkpt lat="43.23066" lon="-2.83188">
        <ele>52</ele>
        <time>2021-05-29 16:30:21</time>
      </trkpt>
      <trkpt lat="43.23062" lon="-2.83198">
        <ele>52</ele>
        <time>2021-05-29 16:30:22</time>
      </trkpt>
      <trkpt lat="43.23057" lon="-2.83207">
        <ele>52</ele>
        <time>2021-05-29 16:30:23</time>
      </trkpt>
      <trkpt lat="43.23053" lon="-2.83216">
        <ele>52.2</ele>
        <time>2021-05-29 16:30:24</time>
      </trkpt>
      <trkpt lat="43.23049" lon="-2.83225">
        <ele>52.4</ele>
        <time>2021-05-29 16:30:25</time>
      </trkpt>
      <trkpt lat="43.23044" lon="-2.83234">
        <ele>52.4</ele>
        <time>2021-05-29 16:30:26</time>
      </trkpt>
      <trkpt lat="43.23039" lon="-2.83243">
        <ele>52.4</ele>
        <time>2021-05-29 16:30:27</time>
      </trkpt>
      <trkpt lat="43.23034" lon="-2.83251">
        <ele>52.6</ele>
        <time>2021-05-29 16:30:28</time>
      </trkpt>
      <trkpt lat="43.23029" lon="-2.83259">
        <ele>52.8</ele>
        <time>2021-05-29 16:30:29</time>
      </trkpt>
      <trkpt lat="43.23024" lon="-2.83267">
        <ele>53</ele>
        <time>2021-05-29 16:30:30</time>
      </trkpt>
      <trkpt lat="43.23019" lon="-2.83275">
        <ele>53.2</ele>
        <time>2021-05-29 16:30:31</time>
      </trkpt>
      <trkpt lat="43.23013" lon="-2.83283">
        <ele>53.4</ele>
        <time>2021-05-29 16:30:32</time>
      </trkpt>
      <trkpt lat="43.23008" lon="-2.83291">
        <ele>53.6</ele>
        <time>2021-05-29 16:30:33</time>
      </trkpt>
      <trkpt lat="43.23002" lon="-2.83299">
        <ele>53.6</ele>
        <time>2021-05-29 16:30:34</time>
      </trkpt>
      <trkpt lat="43.22997" lon="-2.83307">
        <ele>53.8</ele>
        <time>2021-05-29 16:30:35</time>
      </trkpt>
      <trkpt lat="43.22992" lon="-2.83315">
        <ele>53.8</ele>
        <time>2021-05-29 16:30:36</time>
      </trkpt>
      <trkpt lat="43.22986" lon="-2.83323">
        <ele>54</ele>
        <time>2021-05-29 16:30:37</time>
      </trkpt>
      <trkpt lat="43.22981" lon="-2.83331">
        <ele>54</ele>
        <time>2021-05-29 16:30:38</time>
      </trkpt>
      <trkpt lat="43.22975" lon="-2.83339">
        <ele>54</ele>
        <time>2021-05-29 16:30:39</time>
      </trkpt>
      <trkpt lat="43.2297" lon="-2.83346">
        <ele>54</ele>
        <time>2021-05-29 16:30:40</time>
      </trkpt>
      <trkpt lat="43.22965" lon="-2.83355">
        <ele>54</ele>
        <time>2021-05-29 16:30:41</time>
      </trkpt>
      <trkpt lat="43.22959" lon="-2.83363">
        <ele>54</ele>
        <time>2021-05-29 16:30:42</time>
      </trkpt>
      <trkpt lat="43.22954" lon="-2.83372">
        <ele>54</ele>
        <time>2021-05-29 16:30:43</time>
      </trkpt>
      <trkpt lat="43.22949" lon="-2.8338">
        <ele>54.2</ele>
        <time>2021-05-29 16:30:44</time>
      </trkpt>
      <trkpt lat="43.22945" lon="-2.83389">
        <ele>54.2</ele>
        <time>2021-05-29 16:30:45</time>
      </trkpt>
      <trkpt lat="43.22941" lon="-2.83399">
        <ele>54.2</ele>
        <time>2021-05-29 16:30:46</time>
      </trkpt>
      <trkpt lat="43.22937" lon="-2.83408">
        <ele>54.4</ele>
        <time>2021-05-29 16:30:47</time>
      </trkpt>
      <trkpt lat="43.22933" lon="-2.83417">
        <ele>54.4</ele>
        <time>2021-05-29 16:30:48</time>
      </trkpt>
      <trkpt lat="43.2293" lon="-2.83426">
        <ele>54.4</ele>
        <time>2021-05-29 16:30:49</time>
      </trkpt>
      <trkpt lat="43.22928" lon="-2.83436">
        <ele>54.4</ele>
        <time>2021-05-29 16:30:50</time>
      </trkpt>
      <trkpt lat="43.22925" lon="-2.83446">
        <ele>54.4</ele>
        <time>2021-05-29 16:30:51</time>
      </trkpt>
      <trkpt lat="43.22922" lon="-2.83456">
        <ele>54.4</ele>
        <time>2021-05-29 16:30:52</time>
      </trkpt>
      <trkpt lat="43.2292" lon="-2.83467">
        <ele>54.4</ele>
        <time>2021-05-29 16:30:53</time>
      </trkpt>
      <trkpt lat="43.22918" lon="-2.83477">
        <ele>54.6</ele>
        <time>2021-05-29 16:30:54</time>
      </trkpt>
      <trkpt lat="43.22917" lon="-2.83487">
        <ele>54.6</ele>
        <time>2021-05-29 16:30:55</time>
      </trkpt>
      <trkpt lat="43.22915" lon="-2.83498">
        <ele>54.6</ele>
        <time>2021-05-29 16:30:56</time>
      </trkpt>
      <trkpt lat="43.22914" lon="-2.83508">
        <ele>54.6</ele>
        <time>2021-05-29 16:30:57</time>
      </trkpt>
      <trkpt lat="43.22913" lon="-2.83519">
        <ele>54.6</ele>
        <time>2021-05-29 16:30:58</time>
      </trkpt>
      <trkpt lat="43.22912" lon="-2.8353">
        <ele>54.6</ele>
        <time>2021-05-29 16:30:59</time>
      </trkpt>
      <trkpt lat="43.22911" lon="-2.83541">
        <ele>54.8</ele>
        <time>2021-05-29 16:31:00</time>
      </trkpt>
      <trkpt lat="43.22909" lon="-2.83552">
        <ele>54.8</ele>
        <time>2021-05-29 16:31:01</time>
      </trkpt>
      <trkpt lat="43.22908" lon="-2.83563">
        <ele>54.8</ele>
        <time>2021-05-29 16:31:02</time>
      </trkpt>
      <trkpt lat="43.22907" lon="-2.83573">
        <ele>55</ele>
        <time>2021-05-29 16:31:03</time>
      </trkpt>
      <trkpt lat="43.22906" lon="-2.83584">
        <ele>55</ele>
        <time>2021-05-29 16:31:04</time>
      </trkpt>
      <trkpt lat="43.22905" lon="-2.83595">
        <ele>55</ele>
        <time>2021-05-29 16:31:05</time>
      </trkpt>
      <trkpt lat="43.22904" lon="-2.83606">
        <ele>55.2</ele>
        <time>2021-05-29 16:31:06</time>
      </trkpt>
      <trkpt lat="43.22903" lon="-2.83617">
        <ele>55.2</ele>
        <time>2021-05-29 16:31:07</time>
      </trkpt>
      <trkpt lat="43.22901" lon="-2.83628">
        <ele>55.2</ele>
        <time>2021-05-29 16:31:08</time>
      </trkpt>
      <trkpt lat="43.22899" lon="-2.83639">
        <ele>55.4</ele>
        <time>2021-05-29 16:31:09</time>
      </trkpt>
      <trkpt lat="43.22897" lon="-2.8365">
        <ele>55.4</ele>
        <time>2021-05-29 16:31:10</time>
      </trkpt>
      <trkpt lat="43.22894" lon="-2.83661">
        <ele>55.4</ele>
        <time>2021-05-29 16:31:11</time>
      </trkpt>
      <trkpt lat="43.22891" lon="-2.83672">
        <ele>55.4</ele>
        <time>2021-05-29 16:31:12</time>
      </trkpt>
      <trkpt lat="43.22887" lon="-2.83683">
        <ele>55.4</ele>
        <time>2021-05-29 16:31:13</time>
      </trkpt>
      <trkpt lat="43.22883" lon="-2.83694">
        <ele>55.4</ele>
        <time>2021-05-29 16:31:14</time>
      </trkpt>
      <trkpt lat="43.22879" lon="-2.83704">
        <ele>55.4</ele>
        <time>2021-05-29 16:31:15</time>
      </trkpt>
      <trkpt lat="43.22874" lon="-2.83714">
        <ele>55.4</ele>
        <time>2021-05-29 16:31:16</time>
      </trkpt>
      <trkpt lat="43.22869" lon="-2.83724">
        <ele>55.4</ele>
        <time>2021-05-29 16:31:17</time>
      </trkpt>
      <trkpt lat="43.22863" lon="-2.83733">
        <ele>55.4</ele>
        <time>2021-05-29 16:31:18</time>
      </trkpt>
      <trkpt lat="43.22858" lon="-2.83742">
        <ele>55.4</ele>
        <time>2021-05-29 16:31:19</time>
      </trkpt>
      <trkpt lat="43.22852" lon="-2.83751">
        <ele>55.4</ele>
        <time>2021-05-29 16:31:20</time>
      </trkpt>
      <trkpt lat="43.22846" lon="-2.83761">
        <ele>55.4</ele>
        <time>2021-05-29 16:31:21</time>
      </trkpt>
      <trkpt lat="43.2284" lon="-2.8377">
        <ele>55.4</ele>
        <time>2021-05-29 16:31:22</time>
      </trkpt>
      <trkpt lat="43.22833" lon="-2.83779">
        <ele>55.4</ele>
        <time>2021-05-29 16:31:23</time>
      </trkpt>
      <trkpt lat="43.22827" lon="-2.83788">
        <ele>55.4</ele>
        <time>2021-05-29 16:31:24</time>
      </trkpt>
      <trkpt lat="43.22821" lon="-2.83797">
        <ele>55.4</ele>
        <time>2021-05-29 16:31:25</time>
      </trkpt>
      <trkpt lat="43.22814" lon="-2.83806">
        <ele>55.4</ele>
        <time>2021-05-29 16:31:26</time>
      </trkpt>
      <trkpt lat="43.22808" lon="-2.83816">
        <ele>55.2</ele>
        <time>2021-05-29 16:31:27</time>
      </trkpt>
      <trkpt lat="43.22802" lon="-2.83825">
        <ele>54.8</ele>
        <time>2021-05-29 16:31:28</time>
      </trkpt>
      <trkpt lat="43.22796" lon="-2.83833">
        <ele>54.4</ele>
        <time>2021-05-29 16:31:29</time>
      </trkpt>
      <trkpt lat="43.2279" lon="-2.83842">
        <ele>54.4</ele>
        <time>2021-05-29 16:31:30</time>
      </trkpt>
      <trkpt lat="43.22783" lon="-2.83851">
        <ele>54.2</ele>
        <time>2021-05-29 16:31:31</time>
      </trkpt>
      <trkpt lat="43.22777" lon="-2.8386">
        <ele>54</ele>
        <time>2021-05-29 16:31:32</time>
      </trkpt>
      <trkpt lat="43.22771" lon="-2.83869">
        <ele>53.8</ele>
        <time>2021-05-29 16:31:33</time>
      </trkpt>
      <trkpt lat="43.22766" lon="-2.83879">
        <ele>53.8</ele>
        <time>2021-05-29 16:31:34</time>
      </trkpt>
      <trkpt lat="43.22761" lon="-2.83888">
        <ele>53.6</ele>
        <time>2021-05-29 16:31:35</time>
      </trkpt>
      <trkpt lat="43.22757" lon="-2.83898">
        <ele>53.6</ele>
        <time>2021-05-29 16:31:36</time>
      </trkpt>
      <trkpt lat="43.22752" lon="-2.83907">
        <ele>53.6</ele>
        <time>2021-05-29 16:31:37</time>
      </trkpt>
      <trkpt lat="43.22746" lon="-2.83916">
        <ele>53.6</ele>
        <time>2021-05-29 16:31:38</time>
      </trkpt>
      <trkpt lat="43.22738" lon="-2.83923">
        <ele>53.4</ele>
        <time>2021-05-29 16:31:39</time>
      </trkpt>
      <trkpt lat="43.22731" lon="-2.83931">
        <ele>53.4</ele>
        <time>2021-05-29 16:31:40</time>
      </trkpt>
      <trkpt lat="43.22725" lon="-2.8394">
        <ele>53.4</ele>
        <time>2021-05-29 16:31:41</time>
      </trkpt>
      <trkpt lat="43.2272" lon="-2.83951">
        <ele>53.4</ele>
        <time>2021-05-29 16:31:42</time>
      </trkpt>
      <trkpt lat="43.22716" lon="-2.83962">
        <ele>53.2</ele>
        <time>2021-05-29 16:31:43</time>
      </trkpt>
      <trkpt lat="43.22712" lon="-2.83974">
        <ele>53.2</ele>
        <time>2021-05-29 16:31:44</time>
      </trkpt>
      <trkpt lat="43.22708" lon="-2.83985">
        <ele>53.2</ele>
        <time>2021-05-29 16:31:45</time>
      </trkpt>
      <trkpt lat="43.22705" lon="-2.83997">
        <ele>53.2</ele>
        <time>2021-05-29 16:31:46</time>
      </trkpt>
      <trkpt lat="43.22701" lon="-2.84009">
        <ele>53.2</ele>
        <time>2021-05-29 16:31:47</time>
      </trkpt>
      <trkpt lat="43.22698" lon="-2.8402">
        <ele>53.2</ele>
        <time>2021-05-29 16:31:48</time>
      </trkpt>
      <trkpt lat="43.22695" lon="-2.84031">
        <ele>53</ele>
        <time>2021-05-29 16:31:49</time>
      </trkpt>
      <trkpt lat="43.22693" lon="-2.84043">
        <ele>53</ele>
        <time>2021-05-29 16:31:50</time>
      </trkpt>
      <trkpt lat="43.2269" lon="-2.84054">
        <ele>53</ele>
        <time>2021-05-29 16:31:51</time>
      </trkpt>
      <trkpt lat="43.22688" lon="-2.84066">
        <ele>53</ele>
        <time>2021-05-29 16:31:52</time>
      </trkpt>
      <trkpt lat="43.22685" lon="-2.84078">
        <ele>52.8</ele>
        <time>2021-05-29 16:31:53</time>
      </trkpt>
      <trkpt lat="43.22683" lon="-2.8409">
        <ele>52.8</ele>
        <time>2021-05-29 16:31:54</time>
      </trkpt>
      <trkpt lat="43.22681" lon="-2.84103">
        <ele>52.6</ele>
        <time>2021-05-29 16:31:55</time>
      </trkpt>
      <trkpt lat="43.22678" lon="-2.84115">
        <ele>52.6</ele>
        <time>2021-05-29 16:31:56</time>
      </trkpt>
      <trkpt lat="43.22676" lon="-2.84127">
        <ele>52.4</ele>
        <time>2021-05-29 16:31:57</time>
      </trkpt>
      <trkpt lat="43.22674" lon="-2.84139">
        <ele>52.2</ele>
        <time>2021-05-29 16:31:58</time>
      </trkpt>
      <trkpt lat="43.22672" lon="-2.84151">
        <ele>52.2</ele>
        <time>2021-05-29 16:31:59</time>
      </trkpt>
      <trkpt lat="43.22669" lon="-2.84162">
        <ele>52</ele>
        <time>2021-05-29 16:32:00</time>
      </trkpt>
      <trkpt lat="43.22667" lon="-2.84174">
        <ele>52</ele>
        <time>2021-05-29 16:32:01</time>
      </trkpt>
      <trkpt lat="43.22665" lon="-2.84186">
        <ele>51.8</ele>
        <time>2021-05-29 16:32:02</time>
      </trkpt>
      <trkpt lat="43.22663" lon="-2.84197">
        <ele>51.8</ele>
        <time>2021-05-29 16:32:03</time>
      </trkpt>
      <trkpt lat="43.22661" lon="-2.84209">
        <ele>51.6</ele>
        <time>2021-05-29 16:32:04</time>
      </trkpt>
      <trkpt lat="43.22659" lon="-2.8422">
        <ele>51.6</ele>
        <time>2021-05-29 16:32:05</time>
      </trkpt>
      <trkpt lat="43.22657" lon="-2.84232">
        <ele>51.4</ele>
        <time>2021-05-29 16:32:06</time>
      </trkpt>
      <trkpt lat="43.22655" lon="-2.84243">
        <ele>51.4</ele>
        <time>2021-05-29 16:32:07</time>
      </trkpt>
      <trkpt lat="43.22652" lon="-2.84254">
        <ele>51.4</ele>
        <time>2021-05-29 16:32:08</time>
      </trkpt>
      <trkpt lat="43.2265" lon="-2.84265">
        <ele>51.2</ele>
        <time>2021-05-29 16:32:09</time>
      </trkpt>
      <trkpt lat="43.22648" lon="-2.84277">
        <ele>51.2</ele>
        <time>2021-05-29 16:32:10</time>
      </trkpt>
      <trkpt lat="43.22646" lon="-2.84288">
        <ele>51.2</ele>
        <time>2021-05-29 16:32:11</time>
      </trkpt>
      <trkpt lat="43.22644" lon="-2.84299">
        <ele>51.2</ele>
        <time>2021-05-29 16:32:12</time>
      </trkpt>
      <trkpt lat="43.22642" lon="-2.8431">
        <ele>51.2</ele>
        <time>2021-05-29 16:32:13</time>
      </trkpt>
      <trkpt lat="43.2264" lon="-2.84321">
        <ele>51.2</ele>
        <time>2021-05-29 16:32:14</time>
      </trkpt>
      <trkpt lat="43.22638" lon="-2.84332">
        <ele>51.2</ele>
        <time>2021-05-29 16:32:15</time>
      </trkpt>
      <trkpt lat="43.22636" lon="-2.84343">
        <ele>51</ele>
        <time>2021-05-29 16:32:16</time>
      </trkpt>
      <trkpt lat="43.22633" lon="-2.84354">
        <ele>51</ele>
        <time>2021-05-29 16:32:17</time>
      </trkpt>
      <trkpt lat="43.22631" lon="-2.84365">
        <ele>51</ele>
        <time>2021-05-29 16:32:18</time>
      </trkpt>
      <trkpt lat="43.22629" lon="-2.84375">
        <ele>51</ele>
        <time>2021-05-29 16:32:19</time>
      </trkpt>
      <trkpt lat="43.22627" lon="-2.84386">
        <ele>51</ele>
        <time>2021-05-29 16:32:20</time>
      </trkpt>
      <trkpt lat="43.22625" lon="-2.84397">
        <ele>51</ele>
        <time>2021-05-29 16:32:21</time>
      </trkpt>
      <trkpt lat="43.22624" lon="-2.84408">
        <ele>51</ele>
        <time>2021-05-29 16:32:22</time>
      </trkpt>
      <trkpt lat="43.22622" lon="-2.84419">
        <ele>51</ele>
        <time>2021-05-29 16:32:23</time>
      </trkpt>
      <trkpt lat="43.2262" lon="-2.84429">
        <ele>50.8</ele>
        <time>2021-05-29 16:32:24</time>
      </trkpt>
      <trkpt lat="43.22618" lon="-2.8444">
        <ele>50.8</ele>
        <time>2021-05-29 16:32:25</time>
      </trkpt>
      <trkpt lat="43.22617" lon="-2.84451">
        <ele>50.8</ele>
        <time>2021-05-29 16:32:26</time>
      </trkpt>
      <trkpt lat="43.22616" lon="-2.84461">
        <ele>50.8</ele>
        <time>2021-05-29 16:32:27</time>
      </trkpt>
      <trkpt lat="43.22616" lon="-2.84472">
        <ele>50.8</ele>
        <time>2021-05-29 16:32:28</time>
      </trkpt>
      <trkpt lat="43.22616" lon="-2.84483">
        <ele>50.8</ele>
        <time>2021-05-29 16:32:29</time>
      </trkpt>
      <trkpt lat="43.22617" lon="-2.84495">
        <ele>50.8</ele>
        <time>2021-05-29 16:32:30</time>
      </trkpt>
      <trkpt lat="43.22617" lon="-2.84506">
        <ele>50.8</ele>
        <time>2021-05-29 16:32:31</time>
      </trkpt>
      <trkpt lat="43.22618" lon="-2.84517">
        <ele>50.8</ele>
        <time>2021-05-29 16:32:32</time>
      </trkpt>
      <trkpt lat="43.2262" lon="-2.84528">
        <ele>50.8</ele>
        <time>2021-05-29 16:32:33</time>
      </trkpt>
      <trkpt lat="43.22622" lon="-2.84538">
        <ele>50.8</ele>
        <time>2021-05-29 16:32:34</time>
      </trkpt>
      <trkpt lat="43.22624" lon="-2.84549">
        <ele>50.8</ele>
        <time>2021-05-29 16:32:35</time>
      </trkpt>
      <trkpt lat="43.22627" lon="-2.8456">
        <ele>50.8</ele>
        <time>2021-05-29 16:32:36</time>
      </trkpt>
      <trkpt lat="43.22629" lon="-2.8457">
        <ele>50.8</ele>
        <time>2021-05-29 16:32:37</time>
      </trkpt>
      <trkpt lat="43.22633" lon="-2.8458">
        <ele>50.6</ele>
        <time>2021-05-29 16:32:38</time>
      </trkpt>
      <trkpt lat="43.22636" lon="-2.8459">
        <ele>50.6</ele>
        <time>2021-05-29 16:32:39</time>
      </trkpt>
      <trkpt lat="43.2264" lon="-2.846">
        <ele>50.6</ele>
        <time>2021-05-29 16:32:40</time>
      </trkpt>
      <trkpt lat="43.22644" lon="-2.84609">
        <ele>50.8</ele>
        <time>2021-05-29 16:32:41</time>
      </trkpt>
      <trkpt lat="43.22648" lon="-2.84619">
        <ele>50.8</ele>
        <time>2021-05-29 16:32:42</time>
      </trkpt>
      <trkpt lat="43.22653" lon="-2.84627">
        <ele>50.8</ele>
        <time>2021-05-29 16:32:43</time>
      </trkpt>
      <trkpt lat="43.22658" lon="-2.84636">
        <ele>50.8</ele>
        <time>2021-05-29 16:32:44</time>
      </trkpt>
      <trkpt lat="43.22664" lon="-2.84645">
        <ele>50.8</ele>
        <time>2021-05-29 16:32:45</time>
      </trkpt>
      <trkpt lat="43.22669" lon="-2.84652">
        <ele>51</ele>
        <time>2021-05-29 16:32:46</time>
      </trkpt>
      <trkpt lat="43.22675" lon="-2.8466">
        <ele>51</ele>
        <time>2021-05-29 16:32:47</time>
      </trkpt>
      <trkpt lat="43.22682" lon="-2.84667">
        <ele>51</ele>
        <time>2021-05-29 16:32:48</time>
      </trkpt>
      <trkpt lat="43.22688" lon="-2.84674">
        <ele>51.2</ele>
        <time>2021-05-29 16:32:49</time>
      </trkpt>
      <trkpt lat="43.22694" lon="-2.84681">
        <ele>51.2</ele>
        <time>2021-05-29 16:32:50</time>
      </trkpt>
      <trkpt lat="43.22701" lon="-2.84687">
        <ele>51.2</ele>
        <time>2021-05-29 16:32:51</time>
      </trkpt>
      <trkpt lat="43.22708" lon="-2.84692">
        <ele>51.4</ele>
        <time>2021-05-29 16:32:52</time>
      </trkpt>
      <trkpt lat="43.22716" lon="-2.84697">
        <ele>51.4</ele>
        <time>2021-05-29 16:32:53</time>
      </trkpt>
      <trkpt lat="43.22723" lon="-2.84702">
        <ele>51.4</ele>
        <time>2021-05-29 16:32:54</time>
      </trkpt>
      <trkpt lat="43.22731" lon="-2.84707">
        <ele>51.4</ele>
        <time>2021-05-29 16:32:55</time>
      </trkpt>
      <trkpt lat="43.22738" lon="-2.84712">
        <ele>51.4</ele>
        <time>2021-05-29 16:32:56</time>
      </trkpt>
      <trkpt lat="43.22746" lon="-2.84716">
        <ele>51.4</ele>
        <time>2021-05-29 16:32:57</time>
      </trkpt>
      <trkpt lat="43.22754" lon="-2.84721">
        <ele>51.4</ele>
        <time>2021-05-29 16:32:58</time>
      </trkpt>
      <trkpt lat="43.22762" lon="-2.84726">
        <ele>51.2</ele>
        <time>2021-05-29 16:32:59</time>
      </trkpt>
      <trkpt lat="43.22769" lon="-2.8473">
        <ele>51.2</ele>
        <time>2021-05-29 16:33:00</time>
      </trkpt>
      <trkpt lat="43.22777" lon="-2.84735">
        <ele>51.2</ele>
        <time>2021-05-29 16:33:01</time>
      </trkpt>
      <trkpt lat="43.22785" lon="-2.8474">
        <ele>51</ele>
        <time>2021-05-29 16:33:02</time>
      </trkpt>
      <trkpt lat="43.22793" lon="-2.84744">
        <ele>50.8</ele>
        <time>2021-05-29 16:33:03</time>
      </trkpt>
      <trkpt lat="43.22801" lon="-2.84749">
        <ele>50.8</ele>
        <time>2021-05-29 16:33:04</time>
      </trkpt>
      <trkpt lat="43.22809" lon="-2.84754">
        <ele>50.6</ele>
        <time>2021-05-29 16:33:05</time>
      </trkpt>
      <trkpt lat="43.22817" lon="-2.84758">
        <ele>50.4</ele>
        <time>2021-05-29 16:33:06</time>
      </trkpt>
      <trkpt lat="43.22825" lon="-2.84763">
        <ele>50.4</ele>
        <time>2021-05-29 16:33:07</time>
      </trkpt>
      <trkpt lat="43.22833" lon="-2.84768">
        <ele>50.4</ele>
        <time>2021-05-29 16:33:08</time>
      </trkpt>
      <trkpt lat="43.22841" lon="-2.84772">
        <ele>50.4</ele>
        <time>2021-05-29 16:33:09</time>
      </trkpt>
      <trkpt lat="43.22849" lon="-2.84776">
        <ele>50.2</ele>
        <time>2021-05-29 16:33:10</time>
      </trkpt>
      <trkpt lat="43.22857" lon="-2.8478">
        <ele>50.2</ele>
        <time>2021-05-29 16:33:11</time>
      </trkpt>
      <trkpt lat="43.22865" lon="-2.84784">
        <ele>50</ele>
        <time>2021-05-29 16:33:12</time>
      </trkpt>
      <trkpt lat="43.22873" lon="-2.84788">
        <ele>50</ele>
        <time>2021-05-29 16:33:13</time>
      </trkpt>
      <trkpt lat="43.22881" lon="-2.84793">
        <ele>50</ele>
        <time>2021-05-29 16:33:14</time>
      </trkpt>
      <trkpt lat="43.22889" lon="-2.84797">
        <ele>50</ele>
        <time>2021-05-29 16:33:15</time>
      </trkpt>
      <trkpt lat="43.22896" lon="-2.84801">
        <ele>49.8</ele>
        <time>2021-05-29 16:33:16</time>
      </trkpt>
      <trkpt lat="43.22904" lon="-2.84805">
        <ele>49.8</ele>
        <time>2021-05-29 16:33:17</time>
      </trkpt>
      <trkpt lat="43.22912" lon="-2.84809">
        <ele>49.6</ele>
        <time>2021-05-29 16:33:18</time>
      </trkpt>
      <trkpt lat="43.2292" lon="-2.84813">
        <ele>49.6</ele>
        <time>2021-05-29 16:33:19</time>
      </trkpt>
      <trkpt lat="43.22927" lon="-2.84816">
        <ele>49.4</ele>
        <time>2021-05-29 16:33:20</time>
      </trkpt>
      <trkpt lat="43.22935" lon="-2.8482">
        <ele>49.4</ele>
        <time>2021-05-29 16:33:21</time>
      </trkpt>
      <trkpt lat="43.22943" lon="-2.84823">
        <ele>49.2</ele>
        <time>2021-05-29 16:33:22</time>
      </trkpt>
      <trkpt lat="43.22952" lon="-2.84825">
        <ele>49.2</ele>
        <time>2021-05-29 16:33:23</time>
      </trkpt>
      <trkpt lat="43.2296" lon="-2.84826">
        <ele>49.2</ele>
        <time>2021-05-29 16:33:24</time>
      </trkpt>
      <trkpt lat="43.22968" lon="-2.84829">
        <ele>49</ele>
        <time>2021-05-29 16:33:25</time>
      </trkpt>
      <trkpt lat="43.22975" lon="-2.84833">
        <ele>49</ele>
        <time>2021-05-29 16:33:26</time>
      </trkpt>
      <trkpt lat="43.22982" lon="-2.84839">
        <ele>49</ele>
        <time>2021-05-29 16:33:27</time>
      </trkpt>
      <trkpt lat="43.22989" lon="-2.84846">
        <ele>49</ele>
        <time>2021-05-29 16:33:28</time>
      </trkpt>
      <trkpt lat="43.22995" lon="-2.84852">
        <ele>49</ele>
        <time>2021-05-29 16:33:29</time>
      </trkpt>
      <trkpt lat="43.23002" lon="-2.8486">
        <ele>49</ele>
        <time>2021-05-29 16:33:30</time>
      </trkpt>
      <trkpt lat="43.23008" lon="-2.84867">
        <ele>49</ele>
        <time>2021-05-29 16:33:31</time>
      </trkpt>
      <trkpt lat="43.23014" lon="-2.84874">
        <ele>48.8</ele>
        <time>2021-05-29 16:33:32</time>
      </trkpt>
      <trkpt lat="43.2302" lon="-2.84882">
        <ele>48.8</ele>
        <time>2021-05-29 16:33:33</time>
      </trkpt>
      <trkpt lat="43.23027" lon="-2.84889">
        <ele>48.8</ele>
        <time>2021-05-29 16:33:34</time>
      </trkpt>
      <trkpt lat="43.23033" lon="-2.84896">
        <ele>48.8</ele>
        <time>2021-05-29 16:33:35</time>
      </trkpt>
      <trkpt lat="43.23039" lon="-2.84903">
        <ele>48.8</ele>
        <time>2021-05-29 16:33:36</time>
      </trkpt>
      <trkpt lat="43.23044" lon="-2.8491">
        <ele>48.8</ele>
        <time>2021-05-29 16:33:37</time>
      </trkpt>
      <trkpt lat="43.2305" lon="-2.84917">
        <ele>48.8</ele>
        <time>2021-05-29 16:33:38</time>
      </trkpt>
      <trkpt lat="43.23055" lon="-2.84924">
        <ele>48.8</ele>
        <time>2021-05-29 16:33:39</time>
      </trkpt>
      <trkpt lat="43.23061" lon="-2.84931">
        <ele>48.8</ele>
        <time>2021-05-29 16:33:40</time>
      </trkpt>
      <trkpt lat="43.23065" lon="-2.84938">
        <ele>48.8</ele>
        <time>2021-05-29 16:33:41</time>
      </trkpt>
      <trkpt lat="43.2307" lon="-2.84944">
        <ele>48.8</ele>
        <time>2021-05-29 16:33:42</time>
      </trkpt>
      <trkpt lat="43.23074" lon="-2.84949">
        <ele>48.8</ele>
        <time>2021-05-29 16:33:43</time>
      </trkpt>
      <trkpt lat="43.23079" lon="-2.84955">
        <ele>48.8</ele>
        <time>2021-05-29 16:33:44</time>
      </trkpt>
      <trkpt lat="43.23084" lon="-2.8496">
        <ele>48.8</ele>
        <time>2021-05-29 16:33:45</time>
      </trkpt>
      <trkpt lat="43.23088" lon="-2.84964">
        <ele>48.8</ele>
        <time>2021-05-29 16:33:46</time>
      </trkpt>
      <trkpt lat="43.23092" lon="-2.84969">
        <ele>48.8</ele>
        <time>2021-05-29 16:33:47</time>
      </trkpt>
      <trkpt lat="43.23095" lon="-2.84974">
        <ele>48.8</ele>
        <time>2021-05-29 16:33:48</time>
      </trkpt>
      <trkpt lat="43.23098" lon="-2.84978">
        <ele>49</ele>
        <time>2021-05-29 16:33:49</time>
      </trkpt>
      <trkpt lat="43.23101" lon="-2.84982">
        <ele>48.8</ele>
        <time>2021-05-29 16:33:50</time>
      </trkpt>
      <trkpt lat="43.23103" lon="-2.84985">
        <ele>49</ele>
        <time>2021-05-29 16:33:51</time>
      </trkpt>
      <trkpt lat="43.23105" lon="-2.84987">
        <ele>49</ele>
        <time>2021-05-29 16:33:52</time>
      </trkpt>
      <trkpt lat="43.23106" lon="-2.84989">
        <ele>49</ele>
        <time>2021-05-29 16:33:53</time>
      </trkpt>
      <trkpt lat="43.23107" lon="-2.84992">
        <ele>49</ele>
        <time>2021-05-29 16:33:54</time>
      </trkpt>
      <trkpt lat="43.23108" lon="-2.84993">
        <ele>49</ele>
        <time>2021-05-29 16:33:55</time>
      </trkpt>
      <trkpt lat="43.23108" lon="-2.84995">
        <ele>49</ele>
        <time>2021-05-29 16:33:56</time>
      </trkpt>
      <trkpt lat="43.23109" lon="-2.84997">
        <ele>49</ele>
        <time>2021-05-29 16:33:57</time>
      </trkpt>
      <trkpt lat="43.2311" lon="-2.84998">
        <ele>49</ele>
        <time>2021-05-29 16:33:58</time>
      </trkpt>
      <trkpt lat="43.2311" lon="-2.84999">
        <ele>49</ele>
        <time>2021-05-29 16:33:59</time>
      </trkpt>
      <trkpt lat="43.23118" lon="-2.85007">
        <ele>49</ele>
        <time>2021-05-29 16:34:03</time>
      </trkpt>
      <trkpt lat="43.23122" lon="-2.8501">
        <ele>49</ele>
        <time>2021-05-29 16:34:04</time>
      </trkpt>
      <trkpt lat="43.23126" lon="-2.85014">
        <ele>49</ele>
        <time>2021-05-29 16:34:05</time>
      </trkpt>
      <trkpt lat="43.2313" lon="-2.8502">
        <ele>49</ele>
        <time>2021-05-29 16:34:06</time>
      </trkpt>
      <trkpt lat="43.23134" lon="-2.85026">
        <ele>49</ele>
        <time>2021-05-29 16:34:07</time>
      </trkpt>
      <trkpt lat="43.23138" lon="-2.85032">
        <ele>49</ele>
        <time>2021-05-29 16:34:08</time>
      </trkpt>
      <trkpt lat="43.23143" lon="-2.85038">
        <ele>49.2</ele>
        <time>2021-05-29 16:34:09</time>
      </trkpt>
      <trkpt lat="43.23147" lon="-2.85044">
        <ele>49.2</ele>
        <time>2021-05-29 16:34:10</time>
      </trkpt>
      <trkpt lat="43.23152" lon="-2.8505">
        <ele>49.2</ele>
        <time>2021-05-29 16:34:11</time>
      </trkpt>
      <trkpt lat="43.23156" lon="-2.85056">
        <ele>49.2</ele>
        <time>2021-05-29 16:34:12</time>
      </trkpt>
      <trkpt lat="43.23161" lon="-2.85061">
        <ele>49.2</ele>
        <time>2021-05-29 16:34:13</time>
      </trkpt>
      <trkpt lat="43.23165" lon="-2.85067">
        <ele>49.2</ele>
        <time>2021-05-29 16:34:14</time>
      </trkpt>
      <trkpt lat="43.2317" lon="-2.85073">
        <ele>49.2</ele>
        <time>2021-05-29 16:34:15</time>
      </trkpt>
      <trkpt lat="43.23174" lon="-2.85078">
        <ele>49.2</ele>
        <time>2021-05-29 16:34:16</time>
      </trkpt>
      <trkpt lat="43.23178" lon="-2.85085">
        <ele>49.2</ele>
        <time>2021-05-29 16:34:17</time>
      </trkpt>
      <trkpt lat="43.23182" lon="-2.85091">
        <ele>49.2</ele>
        <time>2021-05-29 16:34:18</time>
      </trkpt>
      <trkpt lat="43.23185" lon="-2.85098">
        <ele>49.2</ele>
        <time>2021-05-29 16:34:19</time>
      </trkpt>
      <trkpt lat="43.23189" lon="-2.85105">
        <ele>49.2</ele>
        <time>2021-05-29 16:34:20</time>
      </trkpt>
      <trkpt lat="43.23191" lon="-2.85113">
        <ele>49.4</ele>
        <time>2021-05-29 16:34:21</time>
      </trkpt>
      <trkpt lat="43.23194" lon="-2.85121">
        <ele>49.4</ele>
        <time>2021-05-29 16:34:22</time>
      </trkpt>
      <trkpt lat="43.23196" lon="-2.85129">
        <ele>49.6</ele>
        <time>2021-05-29 16:34:23</time>
      </trkpt>
      <trkpt lat="43.23198" lon="-2.85138">
        <ele>49.4</ele>
        <time>2021-05-29 16:34:24</time>
      </trkpt>
      <trkpt lat="43.232" lon="-2.85147">
        <ele>49.4</ele>
        <time>2021-05-29 16:34:25</time>
      </trkpt>
      <trkpt lat="43.23202" lon="-2.85157">
        <ele>49.6</ele>
        <time>2021-05-29 16:34:26</time>
      </trkpt>
      <trkpt lat="43.23202" lon="-2.85166">
        <ele>49.6</ele>
        <time>2021-05-29 16:34:27</time>
      </trkpt>
      <trkpt lat="43.23203" lon="-2.85176">
        <ele>49.6</ele>
        <time>2021-05-29 16:34:28</time>
      </trkpt>
      <trkpt lat="43.23203" lon="-2.85186">
        <ele>49.6</ele>
        <time>2021-05-29 16:34:29</time>
      </trkpt>
      <trkpt lat="43.23204" lon="-2.85195">
        <ele>49.6</ele>
        <time>2021-05-29 16:34:30</time>
      </trkpt>
      <trkpt lat="43.23204" lon="-2.85205">
        <ele>49.6</ele>
        <time>2021-05-29 16:34:31</time>
      </trkpt>
      <trkpt lat="43.23204" lon="-2.85215">
        <ele>49.6</ele>
        <time>2021-05-29 16:34:32</time>
      </trkpt>
      <trkpt lat="43.23204" lon="-2.85224">
        <ele>49.6</ele>
        <time>2021-05-29 16:34:33</time>
      </trkpt>
      <trkpt lat="43.23204" lon="-2.85234">
        <ele>49.6</ele>
        <time>2021-05-29 16:34:34</time>
      </trkpt>
      <trkpt lat="43.23203" lon="-2.85244">
        <ele>49.6</ele>
        <time>2021-05-29 16:34:35</time>
      </trkpt>
      <trkpt lat="43.23202" lon="-2.85253">
        <ele>49.4</ele>
        <time>2021-05-29 16:34:36</time>
      </trkpt>
      <trkpt lat="43.23201" lon="-2.85263">
        <ele>49.4</ele>
        <time>2021-05-29 16:34:37</time>
      </trkpt>
      <trkpt lat="43.23199" lon="-2.85273">
        <ele>49.4</ele>
        <time>2021-05-29 16:34:38</time>
      </trkpt>
      <trkpt lat="43.23196" lon="-2.85283">
        <ele>49.4</ele>
        <time>2021-05-29 16:34:39</time>
      </trkpt>
      <trkpt lat="43.23193" lon="-2.85293">
        <ele>49.4</ele>
        <time>2021-05-29 16:34:40</time>
      </trkpt>
      <trkpt lat="43.2319" lon="-2.85302">
        <ele>49.4</ele>
        <time>2021-05-29 16:34:41</time>
      </trkpt>
      <trkpt lat="43.23185" lon="-2.85311">
        <ele>49.2</ele>
        <time>2021-05-29 16:34:42</time>
      </trkpt>
      <trkpt lat="43.23182" lon="-2.85321">
        <ele>49.2</ele>
        <time>2021-05-29 16:34:43</time>
      </trkpt>
      <trkpt lat="43.23178" lon="-2.85331">
        <ele>49.2</ele>
        <time>2021-05-29 16:34:44</time>
      </trkpt>
      <trkpt lat="43.23175" lon="-2.85341">
        <ele>49.2</ele>
        <time>2021-05-29 16:34:45</time>
      </trkpt>
      <trkpt lat="43.23173" lon="-2.85352">
        <ele>49.2</ele>
        <time>2021-05-29 16:34:46</time>
      </trkpt>
      <trkpt lat="43.2317" lon="-2.85362">
        <ele>49</ele>
        <time>2021-05-29 16:34:47</time>
      </trkpt>
      <trkpt lat="43.23168" lon="-2.85373">
        <ele>49</ele>
        <time>2021-05-29 16:34:48</time>
      </trkpt>
      <trkpt lat="43.23166" lon="-2.85384">
        <ele>49</ele>
        <time>2021-05-29 16:34:49</time>
      </trkpt>
      <trkpt lat="43.23164" lon="-2.85395">
        <ele>49.2</ele>
        <time>2021-05-29 16:34:50</time>
      </trkpt>
      <trkpt lat="43.23163" lon="-2.85406">
        <ele>49.2</ele>
        <time>2021-05-29 16:34:51</time>
      </trkpt>
      <trkpt lat="43.23162" lon="-2.85417">
        <ele>49</ele>
        <time>2021-05-29 16:34:52</time>
      </trkpt>
      <trkpt lat="43.23161" lon="-2.85428">
        <ele>49</ele>
        <time>2021-05-29 16:34:53</time>
      </trkpt>
      <trkpt lat="43.23161" lon="-2.85439">
        <ele>49</ele>
        <time>2021-05-29 16:34:54</time>
      </trkpt>
      <trkpt lat="43.2316" lon="-2.85451">
        <ele>49</ele>
        <time>2021-05-29 16:34:55</time>
      </trkpt>
      <trkpt lat="43.2316" lon="-2.85462">
        <ele>49</ele>
        <time>2021-05-29 16:34:56</time>
      </trkpt>
      <trkpt lat="43.2316" lon="-2.85474">
        <ele>49</ele>
        <time>2021-05-29 16:34:57</time>
      </trkpt>
      <trkpt lat="43.23161" lon="-2.85485">
        <ele>49</ele>
        <time>2021-05-29 16:34:58</time>
      </trkpt>
      <trkpt lat="43.23162" lon="-2.85496">
        <ele>49</ele>
        <time>2021-05-29 16:34:59</time>
      </trkpt>
      <trkpt lat="43.23163" lon="-2.85508">
        <ele>48.8</ele>
        <time>2021-05-29 16:35:00</time>
      </trkpt>
      <trkpt lat="43.23164" lon="-2.85519">
        <ele>48.8</ele>
        <time>2021-05-29 16:35:01</time>
      </trkpt>
      <trkpt lat="43.23166" lon="-2.8553">
        <ele>48.8</ele>
        <time>2021-05-29 16:35:02</time>
      </trkpt>
      <trkpt lat="43.23168" lon="-2.85541">
        <ele>48.8</ele>
        <time>2021-05-29 16:35:03</time>
      </trkpt>
      <trkpt lat="43.23171" lon="-2.85552">
        <ele>48.6</ele>
        <time>2021-05-29 16:35:04</time>
      </trkpt>
      <trkpt lat="43.23174" lon="-2.85563">
        <ele>48.4</ele>
        <time>2021-05-29 16:35:05</time>
      </trkpt>
      <trkpt lat="43.23177" lon="-2.85573">
        <ele>48.4</ele>
        <time>2021-05-29 16:35:06</time>
      </trkpt>
      <trkpt lat="43.23179" lon="-2.85585">
        <ele>48.4</ele>
        <time>2021-05-29 16:35:07</time>
      </trkpt>
      <trkpt lat="43.23181" lon="-2.85596">
        <ele>48.2</ele>
        <time>2021-05-29 16:35:08</time>
      </trkpt>
      <trkpt lat="43.23184" lon="-2.85607">
        <ele>48.2</ele>
        <time>2021-05-29 16:35:09</time>
      </trkpt>
      <trkpt lat="43.23186" lon="-2.85618">
        <ele>48.2</ele>
        <time>2021-05-29 16:35:10</time>
      </trkpt>
      <trkpt lat="43.23189" lon="-2.85629">
        <ele>48</ele>
        <time>2021-05-29 16:35:11</time>
      </trkpt>
      <trkpt lat="43.23192" lon="-2.8564">
        <ele>47.8</ele>
        <time>2021-05-29 16:35:12</time>
      </trkpt>
      <trkpt lat="43.23194" lon="-2.85652">
        <ele>47.8</ele>
        <time>2021-05-29 16:35:13</time>
      </trkpt>
      <trkpt lat="43.23196" lon="-2.85663">
        <ele>47.8</ele>
        <time>2021-05-29 16:35:14</time>
      </trkpt>
      <trkpt lat="43.23198" lon="-2.85674">
        <ele>47.8</ele>
        <time>2021-05-29 16:35:15</time>
      </trkpt>
      <trkpt lat="43.232" lon="-2.85686">
        <ele>47.6</ele>
        <time>2021-05-29 16:35:16</time>
      </trkpt>
      <trkpt lat="43.23202" lon="-2.85697">
        <ele>47.6</ele>
        <time>2021-05-29 16:35:17</time>
      </trkpt>
      <trkpt lat="43.23204" lon="-2.85709">
        <ele>47.6</ele>
        <time>2021-05-29 16:35:18</time>
      </trkpt>
      <trkpt lat="43.23206" lon="-2.8572">
        <ele>47.6</ele>
        <time>2021-05-29 16:35:19</time>
      </trkpt>
      <trkpt lat="43.23208" lon="-2.85731">
        <ele>47.4</ele>
        <time>2021-05-29 16:35:20</time>
      </trkpt>
      <trkpt lat="43.2321" lon="-2.85742">
        <ele>47.4</ele>
        <time>2021-05-29 16:35:21</time>
      </trkpt>
      <trkpt lat="43.23212" lon="-2.85753">
        <ele>47.4</ele>
        <time>2021-05-29 16:35:22</time>
      </trkpt>
      <trkpt lat="43.23214" lon="-2.85763">
        <ele>47.2</ele>
        <time>2021-05-29 16:35:23</time>
      </trkpt>
      <trkpt lat="43.23216" lon="-2.85774">
        <ele>47.2</ele>
        <time>2021-05-29 16:35:24</time>
      </trkpt>
      <trkpt lat="43.23218" lon="-2.85785">
        <ele>47.2</ele>
        <time>2021-05-29 16:35:25</time>
      </trkpt>
      <trkpt lat="43.2322" lon="-2.85796">
        <ele>47</ele>
        <time>2021-05-29 16:35:26</time>
      </trkpt>
      <trkpt lat="43.23221" lon="-2.85807">
        <ele>47</ele>
        <time>2021-05-29 16:35:27</time>
      </trkpt>
      <trkpt lat="43.23223" lon="-2.85818">
        <ele>47</ele>
        <time>2021-05-29 16:35:28</time>
      </trkpt>
      <trkpt lat="43.23225" lon="-2.85829">
        <ele>46.8</ele>
        <time>2021-05-29 16:35:29</time>
      </trkpt>
      <trkpt lat="43.23227" lon="-2.8584">
        <ele>46.8</ele>
        <time>2021-05-29 16:35:30</time>
      </trkpt>
      <trkpt lat="43.23228" lon="-2.85851">
        <ele>46.8</ele>
        <time>2021-05-29 16:35:31</time>
      </trkpt>
      <trkpt lat="43.2323" lon="-2.85863">
        <ele>46.8</ele>
        <time>2021-05-29 16:35:32</time>
      </trkpt>
      <trkpt lat="43.23232" lon="-2.85874">
        <ele>46.8</ele>
        <time>2021-05-29 16:35:33</time>
      </trkpt>
      <trkpt lat="43.23233" lon="-2.85885">
        <ele>46.8</ele>
        <time>2021-05-29 16:35:34</time>
      </trkpt>
      <trkpt lat="43.23235" lon="-2.85896">
        <ele>46.6</ele>
        <time>2021-05-29 16:35:35</time>
      </trkpt>
      <trkpt lat="43.23236" lon="-2.85907">
        <ele>46.6</ele>
        <time>2021-05-29 16:35:36</time>
      </trkpt>
      <trkpt lat="43.23238" lon="-2.85918">
        <ele>46.6</ele>
        <time>2021-05-29 16:35:37</time>
      </trkpt>
      <trkpt lat="43.23239" lon="-2.8593">
        <ele>46.6</ele>
        <time>2021-05-29 16:35:38</time>
      </trkpt>
      <trkpt lat="43.23241" lon="-2.85941">
        <ele>46.6</ele>
        <time>2021-05-29 16:35:39</time>
      </trkpt>
      <trkpt lat="43.23242" lon="-2.85952">
        <ele>46.6</ele>
        <time>2021-05-29 16:35:40</time>
      </trkpt>
      <trkpt lat="43.23243" lon="-2.85963">
        <ele>46.4</ele>
        <time>2021-05-29 16:35:41</time>
      </trkpt>
      <trkpt lat="43.23245" lon="-2.85974">
        <ele>46.4</ele>
        <time>2021-05-29 16:35:42</time>
      </trkpt>
      <trkpt lat="43.23246" lon="-2.85985">
        <ele>46.4</ele>
        <time>2021-05-29 16:35:43</time>
      </trkpt>
      <trkpt lat="43.23248" lon="-2.85995">
        <ele>46.4</ele>
        <time>2021-05-29 16:35:44</time>
      </trkpt>
      <trkpt lat="43.23249" lon="-2.86006">
        <ele>46.4</ele>
        <time>2021-05-29 16:35:45</time>
      </trkpt>
      <trkpt lat="43.2325" lon="-2.86017">
        <ele>46.4</ele>
        <time>2021-05-29 16:35:46</time>
      </trkpt>
      <trkpt lat="43.23252" lon="-2.86027">
        <ele>46.4</ele>
        <time>2021-05-29 16:35:47</time>
      </trkpt>
      <trkpt lat="43.23253" lon="-2.86038">
        <ele>46.4</ele>
        <time>2021-05-29 16:35:48</time>
      </trkpt>
      <trkpt lat="43.23254" lon="-2.86049">
        <ele>46.4</ele>
        <time>2021-05-29 16:35:49</time>
      </trkpt>
      <trkpt lat="43.23256" lon="-2.86059">
        <ele>46.2</ele>
        <time>2021-05-29 16:35:50</time>
      </trkpt>
      <trkpt lat="43.23257" lon="-2.8607">
        <ele>46.4</ele>
        <time>2021-05-29 16:35:51</time>
      </trkpt>
      <trkpt lat="43.23258" lon="-2.86081">
        <ele>46.2</ele>
        <time>2021-05-29 16:35:52</time>
      </trkpt>
      <trkpt lat="43.2326" lon="-2.86091">
        <ele>46.2</ele>
        <time>2021-05-29 16:35:53</time>
      </trkpt>
      <trkpt lat="43.23261" lon="-2.86102">
        <ele>46.2</ele>
        <time>2021-05-29 16:35:54</time>
      </trkpt>
      <trkpt lat="43.23262" lon="-2.86113">
        <ele>46.2</ele>
        <time>2021-05-29 16:35:55</time>
      </trkpt>
      <trkpt lat="43.23264" lon="-2.86124">
        <ele>46.2</ele>
        <time>2021-05-29 16:35:56</time>
      </trkpt>
      <trkpt lat="43.23265" lon="-2.86134">
        <ele>46.2</ele>
        <time>2021-05-29 16:35:57</time>
      </trkpt>
      <trkpt lat="43.23266" lon="-2.86145">
        <ele>46.2</ele>
        <time>2021-05-29 16:35:58</time>
      </trkpt>
      <trkpt lat="43.23268" lon="-2.86155">
        <ele>46.2</ele>
        <time>2021-05-29 16:35:59</time>
      </trkpt>
      <trkpt lat="43.23269" lon="-2.86166">
        <ele>46.2</ele>
        <time>2021-05-29 16:36:00</time>
      </trkpt>
      <trkpt lat="43.2327" lon="-2.86176">
        <ele>46.2</ele>
        <time>2021-05-29 16:36:01</time>
      </trkpt>
      <trkpt lat="43.23272" lon="-2.86186">
        <ele>46.2</ele>
        <time>2021-05-29 16:36:02</time>
      </trkpt>
      <trkpt lat="43.23273" lon="-2.86197">
        <ele>46.2</ele>
        <time>2021-05-29 16:36:03</time>
      </trkpt>
      <trkpt lat="43.23274" lon="-2.86207">
        <ele>46.2</ele>
        <time>2021-05-29 16:36:04</time>
      </trkpt>
      <trkpt lat="43.23275" lon="-2.86216">
        <ele>46</ele>
        <time>2021-05-29 16:36:05</time>
      </trkpt>
      <trkpt lat="43.23276" lon="-2.86226">
        <ele>46</ele>
        <time>2021-05-29 16:36:06</time>
      </trkpt>
      <trkpt lat="43.23277" lon="-2.86235">
        <ele>46</ele>
        <time>2021-05-29 16:36:07</time>
      </trkpt>
      <trkpt lat="43.23278" lon="-2.86244">
        <ele>46</ele>
        <time>2021-05-29 16:36:08</time>
      </trkpt>
      <trkpt lat="43.23279" lon="-2.86252">
        <ele>46</ele>
        <time>2021-05-29 16:36:09</time>
      </trkpt>
      <trkpt lat="43.2328" lon="-2.8626">
        <ele>46</ele>
        <time>2021-05-29 16:36:10</time>
      </trkpt>
      <trkpt lat="43.23281" lon="-2.86267">
        <ele>46</ele>
        <time>2021-05-29 16:36:11</time>
      </trkpt>
      <trkpt lat="43.23282" lon="-2.86273">
        <ele>46</ele>
        <time>2021-05-29 16:36:12</time>
      </trkpt>
      <trkpt lat="43.23283" lon="-2.86278">
        <ele>46</ele>
        <time>2021-05-29 16:36:13</time>
      </trkpt>
      <trkpt lat="43.23284" lon="-2.86283">
        <ele>46</ele>
        <time>2021-05-29 16:36:14</time>
      </trkpt>
      <trkpt lat="43.23284" lon="-2.86287">
        <ele>46</ele>
        <time>2021-05-29 16:36:15</time>
      </trkpt>
      <trkpt lat="43.23284" lon="-2.86289">
        <ele>46</ele>
        <time>2021-05-29 16:36:16</time>
      </trkpt>
      <trkpt lat="43.23285" lon="-2.86292">
        <ele>46</ele>
        <time>2021-05-29 16:36:17</time>
      </trkpt>
      <trkpt lat="43.23285" lon="-2.86295">
        <ele>46</ele>
        <time>2021-05-29 16:36:18</time>
      </trkpt>
      <trkpt lat="43.23286" lon="-2.86298">
        <ele>46</ele>
        <time>2021-05-29 16:36:19</time>
      </trkpt>
      <trkpt lat="43.23286" lon="-2.86303">
        <ele>45.8</ele>
        <time>2021-05-29 16:36:20</time>
      </trkpt>
      <trkpt lat="43.23287" lon="-2.86309">
        <ele>45.8</ele>
        <time>2021-05-29 16:36:21</time>
      </trkpt>
      <trkpt lat="43.23287" lon="-2.86316">
        <ele>45.6</ele>
        <time>2021-05-29 16:36:22</time>
      </trkpt>
      <trkpt lat="43.23288" lon="-2.86323">
        <ele>45.6</ele>
        <time>2021-05-29 16:36:23</time>
      </trkpt>
      <trkpt lat="43.2329" lon="-2.86331">
        <ele>45.4</ele>
        <time>2021-05-29 16:36:24</time>
      </trkpt>
      <trkpt lat="43.23291" lon="-2.86339">
        <ele>45.4</ele>
        <time>2021-05-29 16:36:25</time>
      </trkpt>
      <trkpt lat="43.23292" lon="-2.86348">
        <ele>45.4</ele>
        <time>2021-05-29 16:36:26</time>
      </trkpt>
      <trkpt lat="43.23293" lon="-2.86356">
        <ele>45.2</ele>
        <time>2021-05-29 16:36:27</time>
      </trkpt>
      <trkpt lat="43.23294" lon="-2.86365">
        <ele>45.4</ele>
        <time>2021-05-29 16:36:28</time>
      </trkpt>
      <trkpt lat="43.23295" lon="-2.86374">
        <ele>45.2</ele>
        <time>2021-05-29 16:36:29</time>
      </trkpt>
      <trkpt lat="43.23296" lon="-2.86383">
        <ele>45.4</ele>
        <time>2021-05-29 16:36:30</time>
      </trkpt>
      <trkpt lat="43.23298" lon="-2.86392">
        <ele>45.4</ele>
        <time>2021-05-29 16:36:31</time>
      </trkpt>
      <trkpt lat="43.23299" lon="-2.86402">
        <ele>45.2</ele>
        <time>2021-05-29 16:36:32</time>
      </trkpt>
      <trkpt lat="43.233" lon="-2.86411">
        <ele>45.2</ele>
        <time>2021-05-29 16:36:33</time>
      </trkpt>
      <trkpt lat="43.23302" lon="-2.8642">
        <ele>45.2</ele>
        <time>2021-05-29 16:36:34</time>
      </trkpt>
      <trkpt lat="43.23303" lon="-2.8643">
        <ele>45.2</ele>
        <time>2021-05-29 16:36:35</time>
      </trkpt>
      <trkpt lat="43.23305" lon="-2.86439">
        <ele>45</ele>
        <time>2021-05-29 16:36:36</time>
      </trkpt>
      <trkpt lat="43.23307" lon="-2.86449">
        <ele>45.2</ele>
        <time>2021-05-29 16:36:37</time>
      </trkpt>
      <trkpt lat="43.23309" lon="-2.86459">
        <ele>45</ele>
        <time>2021-05-29 16:36:38</time>
      </trkpt>
      <trkpt lat="43.23311" lon="-2.86469">
        <ele>45</ele>
        <time>2021-05-29 16:36:39</time>
      </trkpt>
      <trkpt lat="43.23314" lon="-2.86478">
        <ele>45</ele>
        <time>2021-05-29 16:36:40</time>
      </trkpt>
      <trkpt lat="43.23316" lon="-2.86488">
        <ele>45</ele>
        <time>2021-05-29 16:36:41</time>
      </trkpt>
      <trkpt lat="43.23319" lon="-2.86497">
        <ele>45</ele>
        <time>2021-05-29 16:36:42</time>
      </trkpt>
      <trkpt lat="43.23322" lon="-2.86507">
        <ele>45</ele>
        <time>2021-05-29 16:36:43</time>
      </trkpt>
      <trkpt lat="43.23324" lon="-2.86516">
        <ele>45</ele>
        <time>2021-05-29 16:36:44</time>
      </trkpt>
      <trkpt lat="43.23327" lon="-2.86526">
        <ele>45</ele>
        <time>2021-05-29 16:36:45</time>
      </trkpt>
      <trkpt lat="43.2333" lon="-2.86535">
        <ele>44.8</ele>
        <time>2021-05-29 16:36:46</time>
      </trkpt>
      <trkpt lat="43.23333" lon="-2.86544">
        <ele>44.8</ele>
        <time>2021-05-29 16:36:47</time>
      </trkpt>
      <trkpt lat="43.23336" lon="-2.86553">
        <ele>44.8</ele>
        <time>2021-05-29 16:36:48</time>
      </trkpt>
      <trkpt lat="43.2334" lon="-2.86562">
        <ele>45</ele>
        <time>2021-05-29 16:36:49</time>
      </trkpt>
      <trkpt lat="43.23344" lon="-2.86571">
        <ele>45</ele>
        <time>2021-05-29 16:36:50</time>
      </trkpt>
      <trkpt lat="43.23347" lon="-2.86579">
        <ele>45</ele>
        <time>2021-05-29 16:36:51</time>
      </trkpt>
      <trkpt lat="43.23351" lon="-2.86588">
        <ele>45</ele>
        <time>2021-05-29 16:36:52</time>
      </trkpt>
      <trkpt lat="43.23354" lon="-2.86596">
        <ele>45</ele>
        <time>2021-05-29 16:36:53</time>
      </trkpt>
      <trkpt lat="43.23357" lon="-2.86605">
        <ele>45</ele>
        <time>2021-05-29 16:36:54</time>
      </trkpt>
      <trkpt lat="43.23361" lon="-2.86613">
        <ele>45</ele>
        <time>2021-05-29 16:36:55</time>
      </trkpt>
      <trkpt lat="43.23365" lon="-2.86622">
        <ele>45</ele>
        <time>2021-05-29 16:36:56</time>
      </trkpt>
      <trkpt lat="43.2337" lon="-2.8663">
        <ele>45</ele>
        <time>2021-05-29 16:36:57</time>
      </trkpt>
      <trkpt lat="43.23374" lon="-2.86638">
        <ele>45</ele>
        <time>2021-05-29 16:36:58</time>
      </trkpt>
      <trkpt lat="43.23379" lon="-2.86647">
        <ele>45</ele>
        <time>2021-05-29 16:36:59</time>
      </trkpt>
      <trkpt lat="43.23383" lon="-2.86654">
        <ele>45</ele>
        <time>2021-05-29 16:37:00</time>
      </trkpt>
      <trkpt lat="43.23388" lon="-2.86662">
        <ele>45.2</ele>
        <time>2021-05-29 16:37:01</time>
      </trkpt>
      <trkpt lat="43.23393" lon="-2.8667">
        <ele>45.2</ele>
        <time>2021-05-29 16:37:02</time>
      </trkpt>
      <trkpt lat="43.23398" lon="-2.86678">
        <ele>45.2</ele>
        <time>2021-05-29 16:37:03</time>
      </trkpt>
      <trkpt lat="43.23403" lon="-2.86685">
        <ele>45.2</ele>
        <time>2021-05-29 16:37:04</time>
      </trkpt>
      <trkpt lat="43.23408" lon="-2.86693">
        <ele>45.2</ele>
        <time>2021-05-29 16:37:05</time>
      </trkpt>
      <trkpt lat="43.23413" lon="-2.86701">
        <ele>45.2</ele>
        <time>2021-05-29 16:37:06</time>
      </trkpt>
      <trkpt lat="43.23417" lon="-2.86709">
        <ele>45.2</ele>
        <time>2021-05-29 16:37:07</time>
      </trkpt>
      <trkpt lat="43.23422" lon="-2.86716">
        <ele>45.2</ele>
        <time>2021-05-29 16:37:08</time>
      </trkpt>
      <trkpt lat="43.23427" lon="-2.86724">
        <ele>45.2</ele>
        <time>2021-05-29 16:37:09</time>
      </trkpt>
      <trkpt lat="43.23432" lon="-2.86732">
        <ele>45.2</ele>
        <time>2021-05-29 16:37:10</time>
      </trkpt>
      <trkpt lat="43.23436" lon="-2.8674">
        <ele>45.2</ele>
        <time>2021-05-29 16:37:11</time>
      </trkpt>
      <trkpt lat="43.23441" lon="-2.86747">
        <ele>45.4</ele>
        <time>2021-05-29 16:37:12</time>
      </trkpt>
      <trkpt lat="43.23446" lon="-2.86755">
        <ele>45.4</ele>
        <time>2021-05-29 16:37:13</time>
      </trkpt>
      <trkpt lat="43.23451" lon="-2.86763">
        <ele>45.4</ele>
        <time>2021-05-29 16:37:14</time>
      </trkpt>
      <trkpt lat="43.23456" lon="-2.86771">
        <ele>45.4</ele>
        <time>2021-05-29 16:37:15</time>
      </trkpt>
      <trkpt lat="43.23461" lon="-2.86778">
        <ele>45.2</ele>
        <time>2021-05-29 16:37:16</time>
      </trkpt>
      <trkpt lat="43.23465" lon="-2.86786">
        <ele>45.2</ele>
        <time>2021-05-29 16:37:17</time>
      </trkpt>
      <trkpt lat="43.2347" lon="-2.86794">
        <ele>45.2</ele>
        <time>2021-05-29 16:37:18</time>
      </trkpt>
      <trkpt lat="43.23475" lon="-2.86802">
        <ele>45.2</ele>
        <time>2021-05-29 16:37:19</time>
      </trkpt>
      <trkpt lat="43.2348" lon="-2.8681">
        <ele>45.2</ele>
        <time>2021-05-29 16:37:20</time>
      </trkpt>
      <trkpt lat="43.23484" lon="-2.86818">
        <ele>45.2</ele>
        <time>2021-05-29 16:37:21</time>
      </trkpt>
      <trkpt lat="43.23489" lon="-2.86825">
        <ele>45.2</ele>
        <time>2021-05-29 16:37:22</time>
      </trkpt>
      <trkpt lat="43.23494" lon="-2.86833">
        <ele>45.2</ele>
        <time>2021-05-29 16:37:23</time>
      </trkpt>
      <trkpt lat="43.23499" lon="-2.8684">
        <ele>45.2</ele>
        <time>2021-05-29 16:37:24</time>
      </trkpt>
      <trkpt lat="43.23504" lon="-2.86847">
        <ele>45.2</ele>
        <time>2021-05-29 16:37:25</time>
      </trkpt>
      <trkpt lat="43.23509" lon="-2.86855">
        <ele>45.2</ele>
        <time>2021-05-29 16:37:26</time>
      </trkpt>
      <trkpt lat="43.23515" lon="-2.86862">
        <ele>45.2</ele>
        <time>2021-05-29 16:37:27</time>
      </trkpt>
      <trkpt lat="43.2352" lon="-2.86869">
        <ele>45.2</ele>
        <time>2021-05-29 16:37:28</time>
      </trkpt>
      <trkpt lat="43.23525" lon="-2.86877">
        <ele>45.2</ele>
        <time>2021-05-29 16:37:29</time>
      </trkpt>
      <trkpt lat="43.2353" lon="-2.86884">
        <ele>45.2</ele>
        <time>2021-05-29 16:37:30</time>
      </trkpt>
      <trkpt lat="43.23536" lon="-2.86891">
        <ele>45</ele>
        <time>2021-05-29 16:37:31</time>
      </trkpt>
      <trkpt lat="43.23541" lon="-2.86898">
        <ele>45</ele>
        <time>2021-05-29 16:37:32</time>
      </trkpt>
      <trkpt lat="43.23546" lon="-2.86905">
        <ele>45</ele>
        <time>2021-05-29 16:37:33</time>
      </trkpt>
      <trkpt lat="43.23551" lon="-2.86912">
        <ele>45</ele>
        <time>2021-05-29 16:37:34</time>
      </trkpt>
      <trkpt lat="43.23557" lon="-2.86919">
        <ele>45</ele>
        <time>2021-05-29 16:37:35</time>
      </trkpt>
      <trkpt lat="43.23562" lon="-2.86925">
        <ele>45</ele>
        <time>2021-05-29 16:37:36</time>
      </trkpt>
      <trkpt lat="43.23568" lon="-2.86931">
        <ele>45</ele>
        <time>2021-05-29 16:37:37</time>
      </trkpt>
      <trkpt lat="43.23573" lon="-2.86938">
        <ele>45</ele>
        <time>2021-05-29 16:37:38</time>
      </trkpt>
      <trkpt lat="43.23579" lon="-2.86944">
        <ele>45</ele>
        <time>2021-05-29 16:37:39</time>
      </trkpt>
      <trkpt lat="43.23583" lon="-2.86949">
        <ele>45.2</ele>
        <time>2021-05-29 16:37:40</time>
      </trkpt>
      <trkpt lat="43.23587" lon="-2.86953">
        <ele>45.2</ele>
        <time>2021-05-29 16:37:41</time>
      </trkpt>
      <trkpt lat="43.23589" lon="-2.86955">
        <ele>45</ele>
        <time>2021-05-29 16:37:42</time>
      </trkpt>
      <trkpt lat="43.2359" lon="-2.86956">
        <ele>45</ele>
        <time>2021-05-29 16:37:43</time>
      </trkpt>
      <trkpt lat="43.23591" lon="-2.86956">
        <ele>45</ele>
        <time>2021-05-29 16:37:44</time>
      </trkpt>
      <trkpt lat="43.23591" lon="-2.86956">
        <ele>45</ele>
        <time>2021-05-29 16:37:45</time>
      </trkpt>
      <trkpt lat="43.23595" lon="-2.86961">
        <ele>44.8</ele>
        <time>2021-05-29 16:38:17</time>
      </trkpt>
      <trkpt lat="43.23597" lon="-2.86963">
        <ele>44.8</ele>
        <time>2021-05-29 16:38:18</time>
      </trkpt>
      <trkpt lat="43.23599" lon="-2.86966">
        <ele>44.8</ele>
        <time>2021-05-29 16:38:19</time>
      </trkpt>
      <trkpt lat="43.23601" lon="-2.86968">
        <ele>44.8</ele>
        <time>2021-05-29 16:38:20</time>
      </trkpt>
      <trkpt lat="43.23604" lon="-2.86971">
        <ele>44.8</ele>
        <time>2021-05-29 16:38:21</time>
      </trkpt>
      <trkpt lat="43.23607" lon="-2.86974">
        <ele>45</ele>
        <time>2021-05-29 16:38:22</time>
      </trkpt>
      <trkpt lat="43.23611" lon="-2.86978">
        <ele>45</ele>
        <time>2021-05-29 16:38:23</time>
      </trkpt>
      <trkpt lat="43.23616" lon="-2.86982">
        <ele>45.2</ele>
        <time>2021-05-29 16:38:24</time>
      </trkpt>
      <trkpt lat="43.2362" lon="-2.86986">
        <ele>45.2</ele>
        <time>2021-05-29 16:38:25</time>
      </trkpt>
      <trkpt lat="43.23624" lon="-2.86991">
        <ele>45.2</ele>
        <time>2021-05-29 16:38:26</time>
      </trkpt>
      <trkpt lat="43.23629" lon="-2.86995">
        <ele>45.2</ele>
        <time>2021-05-29 16:38:27</time>
      </trkpt>
      <trkpt lat="43.23634" lon="-2.86999">
        <ele>45.2</ele>
        <time>2021-05-29 16:38:28</time>
      </trkpt>
      <trkpt lat="43.23638" lon="-2.87004">
        <ele>45.2</ele>
        <time>2021-05-29 16:38:29</time>
      </trkpt>
      <trkpt lat="43.23643" lon="-2.87008">
        <ele>45.2</ele>
        <time>2021-05-29 16:38:30</time>
      </trkpt>
      <trkpt lat="43.23648" lon="-2.87013">
        <ele>45.2</ele>
        <time>2021-05-29 16:38:31</time>
      </trkpt>
      <trkpt lat="43.23652" lon="-2.87018">
        <ele>45.4</ele>
        <time>2021-05-29 16:38:32</time>
      </trkpt>
      <trkpt lat="43.23657" lon="-2.87023">
        <ele>45.4</ele>
        <time>2021-05-29 16:38:33</time>
      </trkpt>
      <trkpt lat="43.23662" lon="-2.87027">
        <ele>45.4</ele>
        <time>2021-05-29 16:38:34</time>
      </trkpt>
      <trkpt lat="43.23667" lon="-2.87032">
        <ele>45.4</ele>
        <time>2021-05-29 16:38:35</time>
      </trkpt>
      <trkpt lat="43.23672" lon="-2.87037">
        <ele>45.4</ele>
        <time>2021-05-29 16:38:36</time>
      </trkpt>
      <trkpt lat="43.23677" lon="-2.87041">
        <ele>45.4</ele>
        <time>2021-05-29 16:38:37</time>
      </trkpt>
      <trkpt lat="43.23682" lon="-2.87046">
        <ele>45.4</ele>
        <time>2021-05-29 16:38:38</time>
      </trkpt>
      <trkpt lat="43.23687" lon="-2.87051">
        <ele>45.6</ele>
        <time>2021-05-29 16:38:39</time>
      </trkpt>
      <trkpt lat="43.23692" lon="-2.87056">
        <ele>45.6</ele>
        <time>2021-05-29 16:38:40</time>
      </trkpt>
      <trkpt lat="43.23697" lon="-2.87061">
        <ele>45.6</ele>
        <time>2021-05-29 16:38:41</time>
      </trkpt>
      <trkpt lat="43.23703" lon="-2.87066">
        <ele>45.6</ele>
        <time>2021-05-29 16:38:42</time>
      </trkpt>
      <trkpt lat="43.23708" lon="-2.87071">
        <ele>45.6</ele>
        <time>2021-05-29 16:38:43</time>
      </trkpt>
      <trkpt lat="43.23713" lon="-2.87076">
        <ele>45.6</ele>
        <time>2021-05-29 16:38:44</time>
      </trkpt>
      <trkpt lat="43.23718" lon="-2.8708">
        <ele>45.6</ele>
        <time>2021-05-29 16:38:45</time>
      </trkpt>
      <trkpt lat="43.23724" lon="-2.87085">
        <ele>45.6</ele>
        <time>2021-05-29 16:38:46</time>
      </trkpt>
      <trkpt lat="43.23729" lon="-2.8709">
        <ele>45.6</ele>
        <time>2021-05-29 16:38:47</time>
      </trkpt>
      <trkpt lat="43.23735" lon="-2.87095">
        <ele>45.4</ele>
        <time>2021-05-29 16:38:48</time>
      </trkpt>
      <trkpt lat="43.2374" lon="-2.871">
        <ele>45.4</ele>
        <time>2021-05-29 16:38:49</time>
      </trkpt>
      <trkpt lat="43.23745" lon="-2.87106">
        <ele>45.4</ele>
        <time>2021-05-29 16:38:50</time>
      </trkpt>
      <trkpt lat="43.23751" lon="-2.87111">
        <ele>45.4</ele>
        <time>2021-05-29 16:38:51</time>
      </trkpt>
      <trkpt lat="43.23756" lon="-2.87116">
        <ele>45.4</ele>
        <time>2021-05-29 16:38:52</time>
      </trkpt>
      <trkpt lat="43.23762" lon="-2.87122">
        <ele>45.4</ele>
        <time>2021-05-29 16:38:53</time>
      </trkpt>
      <trkpt lat="43.23767" lon="-2.87127">
        <ele>45.2</ele>
        <time>2021-05-29 16:38:54</time>
      </trkpt>
      <trkpt lat="43.23773" lon="-2.87132">
        <ele>45</ele>
        <time>2021-05-29 16:38:55</time>
      </trkpt>
      <trkpt lat="43.23778" lon="-2.87137">
        <ele>45</ele>
        <time>2021-05-29 16:38:56</time>
      </trkpt>
      <trkpt lat="43.23783" lon="-2.87143">
        <ele>45</ele>
        <time>2021-05-29 16:38:57</time>
      </trkpt>
      <trkpt lat="43.23789" lon="-2.87148">
        <ele>45</ele>
        <time>2021-05-29 16:38:58</time>
      </trkpt>
      <trkpt lat="43.23794" lon="-2.87153">
        <ele>45</ele>
        <time>2021-05-29 16:38:59</time>
      </trkpt>
      <trkpt lat="43.238" lon="-2.87159">
        <ele>44.8</ele>
        <time>2021-05-29 16:39:00</time>
      </trkpt>
      <trkpt lat="43.23805" lon="-2.87164">
        <ele>44.8</ele>
        <time>2021-05-29 16:39:01</time>
      </trkpt>
      <trkpt lat="43.23811" lon="-2.87169">
        <ele>44.8</ele>
        <time>2021-05-29 16:39:02</time>
      </trkpt>
      <trkpt lat="43.23816" lon="-2.87175">
        <ele>44.8</ele>
        <time>2021-05-29 16:39:03</time>
      </trkpt>
      <trkpt lat="43.23822" lon="-2.87181">
        <ele>44.8</ele>
        <time>2021-05-29 16:39:04</time>
      </trkpt>
      <trkpt lat="43.23828" lon="-2.87186">
        <ele>44.8</ele>
        <time>2021-05-29 16:39:05</time>
      </trkpt>
      <trkpt lat="43.23833" lon="-2.87191">
        <ele>44.8</ele>
        <time>2021-05-29 16:39:06</time>
      </trkpt>
      <trkpt lat="43.23839" lon="-2.87197">
        <ele>44.8</ele>
        <time>2021-05-29 16:39:07</time>
      </trkpt>
      <trkpt lat="43.23845" lon="-2.87202">
        <ele>44.8</ele>
        <time>2021-05-29 16:39:08</time>
      </trkpt>
      <trkpt lat="43.23851" lon="-2.87208">
        <ele>44.8</ele>
        <time>2021-05-29 16:39:09</time>
      </trkpt>
      <trkpt lat="43.23856" lon="-2.87214">
        <ele>44.8</ele>
        <time>2021-05-29 16:39:10</time>
      </trkpt>
      <trkpt lat="43.23862" lon="-2.87219">
        <ele>44.8</ele>
        <time>2021-05-29 16:39:11</time>
      </trkpt>
      <trkpt lat="43.23868" lon="-2.87225">
        <ele>44.8</ele>
        <time>2021-05-29 16:39:12</time>
      </trkpt>
      <trkpt lat="43.23874" lon="-2.87231">
        <ele>44.8</ele>
        <time>2021-05-29 16:39:13</time>
      </trkpt>
      <trkpt lat="43.2388" lon="-2.87236">
        <ele>44.6</ele>
        <time>2021-05-29 16:39:14</time>
      </trkpt>
      <trkpt lat="43.23886" lon="-2.87242">
        <ele>44.6</ele>
        <time>2021-05-29 16:39:15</time>
      </trkpt>
      <trkpt lat="43.23892" lon="-2.87248">
        <ele>44.4</ele>
        <time>2021-05-29 16:39:16</time>
      </trkpt>
      <trkpt lat="43.23898" lon="-2.87254">
        <ele>44.4</ele>
        <time>2021-05-29 16:39:17</time>
      </trkpt>
      <trkpt lat="43.23905" lon="-2.8726">
        <ele>44.2</ele>
        <time>2021-05-29 16:39:18</time>
      </trkpt>
      <trkpt lat="43.23911" lon="-2.87267">
        <ele>44.2</ele>
        <time>2021-05-29 16:39:19</time>
      </trkpt>
      <trkpt lat="43.23917" lon="-2.87273">
        <ele>44</ele>
        <time>2021-05-29 16:39:20</time>
      </trkpt>
      <trkpt lat="43.23924" lon="-2.87279">
        <ele>44</ele>
        <time>2021-05-29 16:39:21</time>
      </trkpt>
      <trkpt lat="43.2393" lon="-2.87285">
        <ele>44</ele>
        <time>2021-05-29 16:39:22</time>
      </trkpt>
      <trkpt lat="43.23937" lon="-2.87291">
        <ele>44</ele>
        <time>2021-05-29 16:39:23</time>
      </trkpt>
      <trkpt lat="43.23943" lon="-2.87298">
        <ele>43.8</ele>
        <time>2021-05-29 16:39:24</time>
      </trkpt>
      <trkpt lat="43.2395" lon="-2.87304">
        <ele>43.8</ele>
        <time>2021-05-29 16:39:25</time>
      </trkpt>
      <trkpt lat="43.23957" lon="-2.87311">
        <ele>43.8</ele>
        <time>2021-05-29 16:39:26</time>
      </trkpt>
      <trkpt lat="43.23964" lon="-2.87317">
        <ele>43.6</ele>
        <time>2021-05-29 16:39:27</time>
      </trkpt>
      <trkpt lat="43.2397" lon="-2.87323">
        <ele>43.6</ele>
        <time>2021-05-29 16:39:28</time>
      </trkpt>
      <trkpt lat="43.23977" lon="-2.87329">
        <ele>43.6</ele>
        <time>2021-05-29 16:39:29</time>
      </trkpt>
      <trkpt lat="43.23984" lon="-2.87336">
        <ele>43.6</ele>
        <time>2021-05-29 16:39:30</time>
      </trkpt>
      <trkpt lat="43.2399" lon="-2.87342">
        <ele>43.4</ele>
        <time>2021-05-29 16:39:31</time>
      </trkpt>
      <trkpt lat="43.23997" lon="-2.87349">
        <ele>43.4</ele>
        <time>2021-05-29 16:39:32</time>
      </trkpt>
      <trkpt lat="43.24004" lon="-2.87356">
        <ele>43.4</ele>
        <time>2021-05-29 16:39:33</time>
      </trkpt>
      <trkpt lat="43.2401" lon="-2.87362">
        <ele>43.4</ele>
        <time>2021-05-29 16:39:34</time>
      </trkpt>
      <trkpt lat="43.24017" lon="-2.87369">
        <ele>43.4</ele>
        <time>2021-05-29 16:39:35</time>
      </trkpt>
      <trkpt lat="43.24024" lon="-2.87375">
        <ele>43.2</ele>
        <time>2021-05-29 16:39:36</time>
      </trkpt>
      <trkpt lat="43.24031" lon="-2.87381">
        <ele>43.2</ele>
        <time>2021-05-29 16:39:37</time>
      </trkpt>
      <trkpt lat="43.24037" lon="-2.87388">
        <ele>43.2</ele>
        <time>2021-05-29 16:39:38</time>
      </trkpt>
      <trkpt lat="43.24044" lon="-2.87394">
        <ele>43.2</ele>
        <time>2021-05-29 16:39:39</time>
      </trkpt>
      <trkpt lat="43.24051" lon="-2.87401">
        <ele>43.2</ele>
        <time>2021-05-29 16:39:40</time>
      </trkpt>
      <trkpt lat="43.24058" lon="-2.87407">
        <ele>43.2</ele>
        <time>2021-05-29 16:39:41</time>
      </trkpt>
      <trkpt lat="43.24064" lon="-2.87413">
        <ele>43.2</ele>
        <time>2021-05-29 16:39:42</time>
      </trkpt>
      <trkpt lat="43.24071" lon="-2.8742">
        <ele>43.2</ele>
        <time>2021-05-29 16:39:43</time>
      </trkpt>
      <trkpt lat="43.24078" lon="-2.87426">
        <ele>43.2</ele>
        <time>2021-05-29 16:39:44</time>
      </trkpt>
      <trkpt lat="43.24085" lon="-2.87433">
        <ele>43.2</ele>
        <time>2021-05-29 16:39:45</time>
      </trkpt>
      <trkpt lat="43.24092" lon="-2.87439">
        <ele>43</ele>
        <time>2021-05-29 16:39:46</time>
      </trkpt>
      <trkpt lat="43.24098" lon="-2.87446">
        <ele>43</ele>
        <time>2021-05-29 16:39:47</time>
      </trkpt>
      <trkpt lat="43.24105" lon="-2.87453">
        <ele>43</ele>
        <time>2021-05-29 16:39:48</time>
      </trkpt>
      <trkpt lat="43.24112" lon="-2.87459">
        <ele>42.8</ele>
        <time>2021-05-29 16:39:49</time>
      </trkpt>
      <trkpt lat="43.24119" lon="-2.87466">
        <ele>42.6</ele>
        <time>2021-05-29 16:39:50</time>
      </trkpt>
      <trkpt lat="43.24126" lon="-2.87473">
        <ele>42.6</ele>
        <time>2021-05-29 16:39:51</time>
      </trkpt>
      <trkpt lat="43.24133" lon="-2.87479">
        <ele>42.6</ele>
        <time>2021-05-29 16:39:52</time>
      </trkpt>
      <trkpt lat="43.24139" lon="-2.87486">
        <ele>42.6</ele>
        <time>2021-05-29 16:39:53</time>
      </trkpt>
      <trkpt lat="43.24146" lon="-2.87492">
        <ele>42.4</ele>
        <time>2021-05-29 16:39:54</time>
      </trkpt>
      <trkpt lat="43.24153" lon="-2.87498">
        <ele>42.4</ele>
        <time>2021-05-29 16:39:55</time>
      </trkpt>
      <trkpt lat="43.2416" lon="-2.87504">
        <ele>42.4</ele>
        <time>2021-05-29 16:39:56</time>
      </trkpt>
      <trkpt lat="43.24166" lon="-2.8751">
        <ele>42.4</ele>
        <time>2021-05-29 16:39:57</time>
      </trkpt>
      <trkpt lat="43.24173" lon="-2.87516">
        <ele>42.2</ele>
        <time>2021-05-29 16:39:58</time>
      </trkpt>
      <trkpt lat="43.2418" lon="-2.87522">
        <ele>42.2</ele>
        <time>2021-05-29 16:39:59</time>
      </trkpt>
      <trkpt lat="43.24186" lon="-2.87528">
        <ele>42.2</ele>
        <time>2021-05-29 16:40:00</time>
      </trkpt>
      <trkpt lat="43.24193" lon="-2.87535">
        <ele>42</ele>
        <time>2021-05-29 16:40:01</time>
      </trkpt>
      <trkpt lat="43.24199" lon="-2.87541">
        <ele>42</ele>
        <time>2021-05-29 16:40:02</time>
      </trkpt>
      <trkpt lat="43.24206" lon="-2.87547">
        <ele>42</ele>
        <time>2021-05-29 16:40:03</time>
      </trkpt>
      <trkpt lat="43.24212" lon="-2.87554">
        <ele>42</ele>
        <time>2021-05-29 16:40:04</time>
      </trkpt>
      <trkpt lat="43.24219" lon="-2.8756">
        <ele>42</ele>
        <time>2021-05-29 16:40:05</time>
      </trkpt>
      <trkpt lat="43.24225" lon="-2.87567">
        <ele>42</ele>
        <time>2021-05-29 16:40:06</time>
      </trkpt>
      <trkpt lat="43.24232" lon="-2.87573">
        <ele>42</ele>
        <time>2021-05-29 16:40:07</time>
      </trkpt>
      <trkpt lat="43.24238" lon="-2.87579">
        <ele>42</ele>
        <time>2021-05-29 16:40:08</time>
      </trkpt>
      <trkpt lat="43.24244" lon="-2.87585">
        <ele>42</ele>
        <time>2021-05-29 16:40:09</time>
      </trkpt>
      <trkpt lat="43.24251" lon="-2.87591">
        <ele>42</ele>
        <time>2021-05-29 16:40:10</time>
      </trkpt>
      <trkpt lat="43.24257" lon="-2.87597">
        <ele>42</ele>
        <time>2021-05-29 16:40:11</time>
      </trkpt>
      <trkpt lat="43.24264" lon="-2.87603">
        <ele>42</ele>
        <time>2021-05-29 16:40:12</time>
      </trkpt>
      <trkpt lat="43.2427" lon="-2.8761">
        <ele>42</ele>
        <time>2021-05-29 16:40:13</time>
      </trkpt>
      <trkpt lat="43.24276" lon="-2.87616">
        <ele>42</ele>
        <time>2021-05-29 16:40:14</time>
      </trkpt>
      <trkpt lat="43.24281" lon="-2.87623">
        <ele>42</ele>
        <time>2021-05-29 16:40:15</time>
      </trkpt>
      <trkpt lat="43.24287" lon="-2.8763">
        <ele>42</ele>
        <time>2021-05-29 16:40:16</time>
      </trkpt>
      <trkpt lat="43.24292" lon="-2.87638">
        <ele>42</ele>
        <time>2021-05-29 16:40:17</time>
      </trkpt>
      <trkpt lat="43.24298" lon="-2.87646">
        <ele>42.2</ele>
        <time>2021-05-29 16:40:18</time>
      </trkpt>
      <trkpt lat="43.24303" lon="-2.87654">
        <ele>42.2</ele>
        <time>2021-05-29 16:40:19</time>
      </trkpt>
      <trkpt lat="43.24308" lon="-2.87662">
        <ele>42.2</ele>
        <time>2021-05-29 16:40:20</time>
      </trkpt>
      <trkpt lat="43.24313" lon="-2.8767">
        <ele>42.2</ele>
        <time>2021-05-29 16:40:21</time>
      </trkpt>
      <trkpt lat="43.24318" lon="-2.87679">
        <ele>42.4</ele>
        <time>2021-05-29 16:40:22</time>
      </trkpt>
      <trkpt lat="43.24323" lon="-2.87687">
        <ele>42.4</ele>
        <time>2021-05-29 16:40:23</time>
      </trkpt>
      <trkpt lat="43.24328" lon="-2.87696">
        <ele>42.4</ele>
        <time>2021-05-29 16:40:24</time>
      </trkpt>
      <trkpt lat="43.24333" lon="-2.87705">
        <ele>42.4</ele>
        <time>2021-05-29 16:40:25</time>
      </trkpt>
      <trkpt lat="43.24339" lon="-2.87714">
        <ele>42.4</ele>
        <time>2021-05-29 16:40:26</time>
      </trkpt>
      <trkpt lat="43.24344" lon="-2.87723">
        <ele>42.4</ele>
        <time>2021-05-29 16:40:27</time>
      </trkpt>
      <trkpt lat="43.24349" lon="-2.87732">
        <ele>42.4</ele>
        <time>2021-05-29 16:40:28</time>
      </trkpt>
      <trkpt lat="43.24355" lon="-2.87741">
        <ele>42.4</ele>
        <time>2021-05-29 16:40:29</time>
      </trkpt>
      <trkpt lat="43.2436" lon="-2.8775">
        <ele>42.4</ele>
        <time>2021-05-29 16:40:30</time>
      </trkpt>
      <trkpt lat="43.24365" lon="-2.87758">
        <ele>42.4</ele>
        <time>2021-05-29 16:40:31</time>
      </trkpt>
      <trkpt lat="43.24371" lon="-2.87767">
        <ele>42.4</ele>
        <time>2021-05-29 16:40:32</time>
      </trkpt>
      <trkpt lat="43.24376" lon="-2.87776">
        <ele>42.6</ele>
        <time>2021-05-29 16:40:33</time>
      </trkpt>
      <trkpt lat="43.24381" lon="-2.87784">
        <ele>42.6</ele>
        <time>2021-05-29 16:40:34</time>
      </trkpt>
      <trkpt lat="43.24386" lon="-2.87793">
        <ele>42.4</ele>
        <time>2021-05-29 16:40:35</time>
      </trkpt>
      <trkpt lat="43.24391" lon="-2.87802">
        <ele>42.4</ele>
        <time>2021-05-29 16:40:36</time>
      </trkpt>
      <trkpt lat="43.24396" lon="-2.8781">
        <ele>42.4</ele>
        <time>2021-05-29 16:40:37</time>
      </trkpt>
      <trkpt lat="43.24401" lon="-2.87818">
        <ele>42.4</ele>
        <time>2021-05-29 16:40:38</time>
      </trkpt>
      <trkpt lat="43.24406" lon="-2.87826">
        <ele>42.4</ele>
        <time>2021-05-29 16:40:39</time>
      </trkpt>
      <trkpt lat="43.24411" lon="-2.87834">
        <ele>42.4</ele>
        <time>2021-05-29 16:40:40</time>
      </trkpt>
      <trkpt lat="43.24416" lon="-2.87842">
        <ele>42.6</ele>
        <time>2021-05-29 16:40:41</time>
      </trkpt>
      <trkpt lat="43.2442" lon="-2.8785">
        <ele>42.6</ele>
        <time>2021-05-29 16:40:42</time>
      </trkpt>
      <trkpt lat="43.24425" lon="-2.87859">
        <ele>42.6</ele>
        <time>2021-05-29 16:40:43</time>
      </trkpt>
      <trkpt lat="43.2443" lon="-2.87867">
        <ele>42.6</ele>
        <time>2021-05-29 16:40:44</time>
      </trkpt>
      <trkpt lat="43.24434" lon="-2.87875">
        <ele>42.6</ele>
        <time>2021-05-29 16:40:45</time>
      </trkpt>
      <trkpt lat="43.24439" lon="-2.87883">
        <ele>42.6</ele>
        <time>2021-05-29 16:40:46</time>
      </trkpt>
      <trkpt lat="43.24443" lon="-2.87891">
        <ele>42.6</ele>
        <time>2021-05-29 16:40:47</time>
      </trkpt>
      <trkpt lat="43.24448" lon="-2.87898">
        <ele>42.6</ele>
        <time>2021-05-29 16:40:48</time>
      </trkpt>
      <trkpt lat="43.24453" lon="-2.87906">
        <ele>42.8</ele>
        <time>2021-05-29 16:40:49</time>
      </trkpt>
      <trkpt lat="43.24458" lon="-2.87914">
        <ele>42.8</ele>
        <time>2021-05-29 16:40:50</time>
      </trkpt>
      <trkpt lat="43.24463" lon="-2.87921">
        <ele>43</ele>
        <time>2021-05-29 16:40:51</time>
      </trkpt>
      <trkpt lat="43.24467" lon="-2.87929">
        <ele>43</ele>
        <time>2021-05-29 16:40:52</time>
      </trkpt>
      <trkpt lat="43.24472" lon="-2.87936">
        <ele>43</ele>
        <time>2021-05-29 16:40:53</time>
      </trkpt>
      <trkpt lat="43.24477" lon="-2.87944">
        <ele>43.2</ele>
        <time>2021-05-29 16:40:54</time>
      </trkpt>
      <trkpt lat="43.24482" lon="-2.87952">
        <ele>43.2</ele>
        <time>2021-05-29 16:40:55</time>
      </trkpt>
      <trkpt lat="43.24486" lon="-2.8796">
        <ele>43.2</ele>
        <time>2021-05-29 16:40:56</time>
      </trkpt>
      <trkpt lat="43.24491" lon="-2.87968">
        <ele>43.2</ele>
        <time>2021-05-29 16:40:57</time>
      </trkpt>
      <trkpt lat="43.24495" lon="-2.87977">
        <ele>43.4</ele>
        <time>2021-05-29 16:40:58</time>
      </trkpt>
      <trkpt lat="43.24499" lon="-2.87986">
        <ele>43.4</ele>
        <time>2021-05-29 16:40:59</time>
      </trkpt>
      <trkpt lat="43.24503" lon="-2.87995">
        <ele>43.4</ele>
        <time>2021-05-29 16:41:00</time>
      </trkpt>
      <trkpt lat="43.24507" lon="-2.88004">
        <ele>43.6</ele>
        <time>2021-05-29 16:41:01</time>
      </trkpt>
      <trkpt lat="43.24511" lon="-2.88013">
        <ele>43.6</ele>
        <time>2021-05-29 16:41:02</time>
      </trkpt>
      <trkpt lat="43.24515" lon="-2.88023">
        <ele>43.6</ele>
        <time>2021-05-29 16:41:03</time>
      </trkpt>
      <trkpt lat="43.24518" lon="-2.88032">
        <ele>43.8</ele>
        <time>2021-05-29 16:41:04</time>
      </trkpt>
      <trkpt lat="43.24522" lon="-2.88041">
        <ele>43.8</ele>
        <time>2021-05-29 16:41:05</time>
      </trkpt>
      <trkpt lat="43.24524" lon="-2.88051">
        <ele>44</ele>
        <time>2021-05-29 16:41:06</time>
      </trkpt>
      <trkpt lat="43.24527" lon="-2.8806">
        <ele>44.2</ele>
        <time>2021-05-29 16:41:07</time>
      </trkpt>
      <trkpt lat="43.2453" lon="-2.8807">
        <ele>44.2</ele>
        <time>2021-05-29 16:41:08</time>
      </trkpt>
      <trkpt lat="43.24532" lon="-2.88079">
        <ele>44.2</ele>
        <time>2021-05-29 16:41:09</time>
      </trkpt>
      <trkpt lat="43.24534" lon="-2.88088">
        <ele>44.4</ele>
        <time>2021-05-29 16:41:10</time>
      </trkpt>
      <trkpt lat="43.24537" lon="-2.88098">
        <ele>44.4</ele>
        <time>2021-05-29 16:41:11</time>
      </trkpt>
      <trkpt lat="43.24539" lon="-2.88108">
        <ele>44.4</ele>
        <time>2021-05-29 16:41:12</time>
      </trkpt>
      <trkpt lat="43.2454" lon="-2.88118">
        <ele>44.4</ele>
        <time>2021-05-29 16:41:13</time>
      </trkpt>
      <trkpt lat="43.24542" lon="-2.88128">
        <ele>44.6</ele>
        <time>2021-05-29 16:41:14</time>
      </trkpt>
      <trkpt lat="43.24543" lon="-2.88138">
        <ele>44.6</ele>
        <time>2021-05-29 16:41:15</time>
      </trkpt>
      <trkpt lat="43.24545" lon="-2.88148">
        <ele>44.6</ele>
        <time>2021-05-29 16:41:16</time>
      </trkpt>
      <trkpt lat="43.24547" lon="-2.88158">
        <ele>44.6</ele>
        <time>2021-05-29 16:41:17</time>
      </trkpt>
      <trkpt lat="43.24548" lon="-2.88168">
        <ele>44.6</ele>
        <time>2021-05-29 16:41:18</time>
      </trkpt>
      <trkpt lat="43.2455" lon="-2.88179">
        <ele>44.6</ele>
        <time>2021-05-29 16:41:19</time>
      </trkpt>
      <trkpt lat="43.24552" lon="-2.88189">
        <ele>44.6</ele>
        <time>2021-05-29 16:41:20</time>
      </trkpt>
      <trkpt lat="43.24553" lon="-2.88199">
        <ele>44.6</ele>
        <time>2021-05-29 16:41:21</time>
      </trkpt>
      <trkpt lat="43.24555" lon="-2.88209">
        <ele>44.4</ele>
        <time>2021-05-29 16:41:22</time>
      </trkpt>
      <trkpt lat="43.24557" lon="-2.8822">
        <ele>44.4</ele>
        <time>2021-05-29 16:41:23</time>
      </trkpt>
      <trkpt lat="43.24558" lon="-2.8823">
        <ele>44.4</ele>
        <time>2021-05-29 16:41:24</time>
      </trkpt>
      <trkpt lat="43.2456" lon="-2.8824">
        <ele>44.4</ele>
        <time>2021-05-29 16:41:25</time>
      </trkpt>
      <trkpt lat="43.24562" lon="-2.8825">
        <ele>44.4</ele>
        <time>2021-05-29 16:41:26</time>
      </trkpt>
      <trkpt lat="43.24563" lon="-2.8826">
        <ele>44.4</ele>
        <time>2021-05-29 16:41:27</time>
      </trkpt>
      <trkpt lat="43.24565" lon="-2.8827">
        <ele>44.4</ele>
        <time>2021-05-29 16:41:28</time>
      </trkpt>
      <trkpt lat="43.24566" lon="-2.88279">
        <ele>44.6</ele>
        <time>2021-05-29 16:41:29</time>
      </trkpt>
      <trkpt lat="43.24568" lon="-2.88288">
        <ele>44.6</ele>
        <time>2021-05-29 16:41:30</time>
      </trkpt>
      <trkpt lat="43.24569" lon="-2.88297">
        <ele>44.6</ele>
        <time>2021-05-29 16:41:31</time>
      </trkpt>
      <trkpt lat="43.24571" lon="-2.88305">
        <ele>44.4</ele>
        <time>2021-05-29 16:41:32</time>
      </trkpt>
      <trkpt lat="43.24573" lon="-2.88314">
        <ele>44.4</ele>
        <time>2021-05-29 16:41:33</time>
      </trkpt>
      <trkpt lat="43.24574" lon="-2.88322">
        <ele>44.6</ele>
        <time>2021-05-29 16:41:34</time>
      </trkpt>
      <trkpt lat="43.24575" lon="-2.88331">
        <ele>44.6</ele>
        <time>2021-05-29 16:41:35</time>
      </trkpt>
      <trkpt lat="43.24577" lon="-2.88338">
        <ele>44.6</ele>
        <time>2021-05-29 16:41:36</time>
      </trkpt>
      <trkpt lat="43.24578" lon="-2.88346">
        <ele>44.6</ele>
        <time>2021-05-29 16:41:37</time>
      </trkpt>
      <trkpt lat="43.24579" lon="-2.88354">
        <ele>44.6</ele>
        <time>2021-05-29 16:41:38</time>
      </trkpt>
      <trkpt lat="43.2458" lon="-2.88361">
        <ele>44.6</ele>
        <time>2021-05-29 16:41:39</time>
      </trkpt>
      <trkpt lat="43.24581" lon="-2.88368">
        <ele>44.6</ele>
        <time>2021-05-29 16:41:40</time>
      </trkpt>
      <trkpt lat="43.24582" lon="-2.88374">
        <ele>44.8</ele>
        <time>2021-05-29 16:41:41</time>
      </trkpt>
      <trkpt lat="43.24583" lon="-2.88381">
        <ele>44.8</ele>
        <time>2021-05-29 16:41:42</time>
      </trkpt>
      <trkpt lat="43.24584" lon="-2.88387">
        <ele>44.8</ele>
        <time>2021-05-29 16:41:43</time>
      </trkpt>
      <trkpt lat="43.24585" lon="-2.88392">
        <ele>44.8</ele>
        <time>2021-05-29 16:41:44</time>
      </trkpt>
      <trkpt lat="43.24585" lon="-2.88397">
        <ele>45</ele>
        <time>2021-05-29 16:41:45</time>
      </trkpt>
      <trkpt lat="43.24586" lon="-2.884">
        <ele>45</ele>
        <time>2021-05-29 16:41:46</time>
      </trkpt>
      <trkpt lat="43.24586" lon="-2.88403">
        <ele>45</ele>
        <time>2021-05-29 16:41:47</time>
      </trkpt>
      <trkpt lat="43.24586" lon="-2.88404">
        <ele>45</ele>
        <time>2021-05-29 16:41:48</time>
      </trkpt>
      <trkpt lat="43.24586" lon="-2.88405">
        <ele>45</ele>
        <time>2021-05-29 16:41:49</time>
      </trkpt>
      <trkpt lat="43.24586" lon="-2.88406">
        <ele>45</ele>
        <time>2021-05-29 16:41:50</time>
      </trkpt>
      <trkpt lat="43.24586" lon="-2.88407">
        <ele>45</ele>
        <time>2021-05-29 16:41:51</time>
      </trkpt>
      <trkpt lat="43.24586" lon="-2.88407">
        <ele>45</ele>
        <time>2021-05-29 16:41:52</time>
      </trkpt>
      <trkpt lat="43.24586" lon="-2.88407">
        <ele>45</ele>
        <time>2021-05-29 16:41:53</time>
      </trkpt>
      <trkpt lat="43.24587" lon="-2.88411">
        <ele>44.8</ele>
        <time>2021-05-29 16:42:23</time>
      </trkpt>
      <trkpt lat="43.24588" lon="-2.88413">
        <ele>44.8</ele>
        <time>2021-05-29 16:42:24</time>
      </trkpt>
      <trkpt lat="43.24588" lon="-2.88417">
        <ele>44.8</ele>
        <time>2021-05-29 16:42:25</time>
      </trkpt>
      <trkpt lat="43.2459" lon="-2.88422">
        <ele>44.8</ele>
        <time>2021-05-29 16:42:26</time>
      </trkpt>
      <trkpt lat="43.24591" lon="-2.88428">
        <ele>44.8</ele>
        <time>2021-05-29 16:42:27</time>
      </trkpt>
      <trkpt lat="43.24592" lon="-2.88434">
        <ele>44.8</ele>
        <time>2021-05-29 16:42:28</time>
      </trkpt>
      <trkpt lat="43.24594" lon="-2.88441">
        <ele>44.8</ele>
        <time>2021-05-29 16:42:29</time>
      </trkpt>
      <trkpt lat="43.24595" lon="-2.88449">
        <ele>44.8</ele>
        <time>2021-05-29 16:42:30</time>
      </trkpt>
      <trkpt lat="43.24596" lon="-2.88457">
        <ele>44.8</ele>
        <time>2021-05-29 16:42:31</time>
      </trkpt>
      <trkpt lat="43.24598" lon="-2.88466">
        <ele>44.8</ele>
        <time>2021-05-29 16:42:32</time>
      </trkpt>
      <trkpt lat="43.246" lon="-2.88475">
        <ele>44.8</ele>
        <time>2021-05-29 16:42:33</time>
      </trkpt>
      <trkpt lat="43.24601" lon="-2.88484">
        <ele>45</ele>
        <time>2021-05-29 16:42:34</time>
      </trkpt>
      <trkpt lat="43.24603" lon="-2.88494">
        <ele>45</ele>
        <time>2021-05-29 16:42:35</time>
      </trkpt>
      <trkpt lat="43.24605" lon="-2.88504">
        <ele>45</ele>
        <time>2021-05-29 16:42:36</time>
      </trkpt>
      <trkpt lat="43.24607" lon="-2.88513">
        <ele>45</ele>
        <time>2021-05-29 16:42:37</time>
      </trkpt>
      <trkpt lat="43.24608" lon="-2.88523">
        <ele>45</ele>
        <time>2021-05-29 16:42:38</time>
      </trkpt>
      <trkpt lat="43.2461" lon="-2.88532">
        <ele>45</ele>
        <time>2021-05-29 16:42:39</time>
      </trkpt>
      <trkpt lat="43.24612" lon="-2.88542">
        <ele>45</ele>
        <time>2021-05-29 16:42:40</time>
      </trkpt>
      <trkpt lat="43.24613" lon="-2.88552">
        <ele>45</ele>
        <time>2021-05-29 16:42:41</time>
      </trkpt>
      <trkpt lat="43.24615" lon="-2.88561">
        <ele>45.2</ele>
        <time>2021-05-29 16:42:42</time>
      </trkpt>
      <trkpt lat="43.24616" lon="-2.88571">
        <ele>45.2</ele>
        <time>2021-05-29 16:42:43</time>
      </trkpt>
      <trkpt lat="43.24618" lon="-2.88581">
        <ele>45.2</ele>
        <time>2021-05-29 16:42:44</time>
      </trkpt>
      <trkpt lat="43.24619" lon="-2.88591">
        <ele>45.4</ele>
        <time>2021-05-29 16:42:45</time>
      </trkpt>
      <trkpt lat="43.24621" lon="-2.88601">
        <ele>45.4</ele>
        <time>2021-05-29 16:42:46</time>
      </trkpt>
      <trkpt lat="43.24622" lon="-2.88611">
        <ele>45.6</ele>
        <time>2021-05-29 16:42:47</time>
      </trkpt>
      <trkpt lat="43.24624" lon="-2.88621">
        <ele>45.6</ele>
        <time>2021-05-29 16:42:48</time>
      </trkpt>
      <trkpt lat="43.24626" lon="-2.88632">
        <ele>45.8</ele>
        <time>2021-05-29 16:42:49</time>
      </trkpt>
      <trkpt lat="43.24627" lon="-2.88642">
        <ele>46</ele>
        <time>2021-05-29 16:42:50</time>
      </trkpt>
      <trkpt lat="43.24629" lon="-2.88653">
        <ele>46</ele>
        <time>2021-05-29 16:42:51</time>
      </trkpt>
      <trkpt lat="43.2463" lon="-2.88663">
        <ele>46.2</ele>
        <time>2021-05-29 16:42:52</time>
      </trkpt>
      <trkpt lat="43.24632" lon="-2.88673">
        <ele>46.2</ele>
        <time>2021-05-29 16:42:53</time>
      </trkpt>
      <trkpt lat="43.24633" lon="-2.88684">
        <ele>46.4</ele>
        <time>2021-05-29 16:42:54</time>
      </trkpt>
      <trkpt lat="43.24635" lon="-2.88694">
        <ele>46.4</ele>
        <time>2021-05-29 16:42:55</time>
      </trkpt>
      <trkpt lat="43.24637" lon="-2.88703">
        <ele>46.6</ele>
        <time>2021-05-29 16:42:56</time>
      </trkpt>
      <trkpt lat="43.24638" lon="-2.88713">
        <ele>46.8</ele>
        <time>2021-05-29 16:42:57</time>
      </trkpt>
      <trkpt lat="43.2464" lon="-2.88723">
        <ele>47</ele>
        <time>2021-05-29 16:42:58</time>
      </trkpt>
      <trkpt lat="43.24641" lon="-2.88733">
        <ele>47.2</ele>
        <time>2021-05-29 16:42:59</time>
      </trkpt>
      <trkpt lat="43.24643" lon="-2.88743">
        <ele>47.2</ele>
        <time>2021-05-29 16:43:00</time>
      </trkpt>
      <trkpt lat="43.24645" lon="-2.88753">
        <ele>47.2</ele>
        <time>2021-05-29 16:43:01</time>
      </trkpt>
      <trkpt lat="43.24647" lon="-2.88763">
        <ele>47.2</ele>
        <time>2021-05-29 16:43:02</time>
      </trkpt>
      <trkpt lat="43.24648" lon="-2.88773">
        <ele>47.2</ele>
        <time>2021-05-29 16:43:03</time>
      </trkpt>
      <trkpt lat="43.24651" lon="-2.88784">
        <ele>47.4</ele>
        <time>2021-05-29 16:43:04</time>
      </trkpt>
      <trkpt lat="43.24653" lon="-2.88795">
        <ele>47.4</ele>
        <time>2021-05-29 16:43:05</time>
      </trkpt>
      <trkpt lat="43.24656" lon="-2.88805">
        <ele>47.4</ele>
        <time>2021-05-29 16:43:06</time>
      </trkpt>
      <trkpt lat="43.24659" lon="-2.88815">
        <ele>47.4</ele>
        <time>2021-05-29 16:43:07</time>
      </trkpt>
      <trkpt lat="43.24663" lon="-2.88825">
        <ele>47.4</ele>
        <time>2021-05-29 16:43:08</time>
      </trkpt>
      <trkpt lat="43.24667" lon="-2.88835">
        <ele>47.4</ele>
        <time>2021-05-29 16:43:09</time>
      </trkpt>
      <trkpt lat="43.24671" lon="-2.88844">
        <ele>47.4</ele>
        <time>2021-05-29 16:43:10</time>
      </trkpt>
      <trkpt lat="43.24676" lon="-2.88853">
        <ele>47.4</ele>
        <time>2021-05-29 16:43:11</time>
      </trkpt>
      <trkpt lat="43.24681" lon="-2.88861">
        <ele>47.4</ele>
        <time>2021-05-29 16:43:12</time>
      </trkpt>
      <trkpt lat="43.24687" lon="-2.88869">
        <ele>47.4</ele>
        <time>2021-05-29 16:43:13</time>
      </trkpt>
      <trkpt lat="43.24693" lon="-2.88877">
        <ele>47.4</ele>
        <time>2021-05-29 16:43:14</time>
      </trkpt>
      <trkpt lat="43.247" lon="-2.88883">
        <ele>47.4</ele>
        <time>2021-05-29 16:43:15</time>
      </trkpt>
      <trkpt lat="43.24707" lon="-2.88889">
        <ele>47.4</ele>
        <time>2021-05-29 16:43:16</time>
      </trkpt>
      <trkpt lat="43.24714" lon="-2.88894">
        <ele>47.4</ele>
        <time>2021-05-29 16:43:17</time>
      </trkpt>
      <trkpt lat="43.24722" lon="-2.88899">
        <ele>47.4</ele>
        <time>2021-05-29 16:43:18</time>
      </trkpt>
      <trkpt lat="43.24729" lon="-2.88903">
        <ele>47.4</ele>
        <time>2021-05-29 16:43:19</time>
      </trkpt>
      <trkpt lat="43.24737" lon="-2.88908">
        <ele>47.4</ele>
        <time>2021-05-29 16:43:20</time>
      </trkpt>
      <trkpt lat="43.24745" lon="-2.88911">
        <ele>47.4</ele>
        <time>2021-05-29 16:43:21</time>
      </trkpt>
      <trkpt lat="43.24753" lon="-2.88914">
        <ele>47.4</ele>
        <time>2021-05-29 16:43:22</time>
      </trkpt>
      <trkpt lat="43.24762" lon="-2.88917">
        <ele>47.4</ele>
        <time>2021-05-29 16:43:23</time>
      </trkpt>
      <trkpt lat="43.2477" lon="-2.88918">
        <ele>47.4</ele>
        <time>2021-05-29 16:43:24</time>
      </trkpt>
      <trkpt lat="43.24779" lon="-2.88919">
        <ele>47.4</ele>
        <time>2021-05-29 16:43:25</time>
      </trkpt>
      <trkpt lat="43.24788" lon="-2.88918">
        <ele>47.4</ele>
        <time>2021-05-29 16:43:26</time>
      </trkpt>
      <trkpt lat="43.24796" lon="-2.88917">
        <ele>47.4</ele>
        <time>2021-05-29 16:43:27</time>
      </trkpt>
      <trkpt lat="43.24805" lon="-2.88915">
        <ele>47.4</ele>
        <time>2021-05-29 16:43:28</time>
      </trkpt>
      <trkpt lat="43.24813" lon="-2.88912">
        <ele>47.4</ele>
        <time>2021-05-29 16:43:29</time>
      </trkpt>
      <trkpt lat="43.24821" lon="-2.88909">
        <ele>47.4</ele>
        <time>2021-05-29 16:43:30</time>
      </trkpt>
      <trkpt lat="43.24829" lon="-2.88905">
        <ele>47.4</ele>
        <time>2021-05-29 16:43:31</time>
      </trkpt>
      <trkpt lat="43.24837" lon="-2.88901">
        <ele>47.4</ele>
        <time>2021-05-29 16:43:32</time>
      </trkpt>
      <trkpt lat="43.24844" lon="-2.88896">
        <ele>47.4</ele>
        <time>2021-05-29 16:43:33</time>
      </trkpt>
      <trkpt lat="43.24852" lon="-2.88891">
        <ele>47.4</ele>
        <time>2021-05-29 16:43:34</time>
      </trkpt>
      <trkpt lat="43.24859" lon="-2.88885">
        <ele>47.4</ele>
        <time>2021-05-29 16:43:35</time>
      </trkpt>
      <trkpt lat="43.24867" lon="-2.8888">
        <ele>47.4</ele>
        <time>2021-05-29 16:43:36</time>
      </trkpt>
      <trkpt lat="43.24874" lon="-2.88874">
        <ele>47.4</ele>
        <time>2021-05-29 16:43:37</time>
      </trkpt>
      <trkpt lat="43.24882" lon="-2.88869">
        <ele>47.4</ele>
        <time>2021-05-29 16:43:38</time>
      </trkpt>
      <trkpt lat="43.24889" lon="-2.88864">
        <ele>47.4</ele>
        <time>2021-05-29 16:43:39</time>
      </trkpt>
      <trkpt lat="43.24897" lon="-2.88858">
        <ele>47.4</ele>
        <time>2021-05-29 16:43:40</time>
      </trkpt>
      <trkpt lat="43.24904" lon="-2.88854">
        <ele>47.4</ele>
        <time>2021-05-29 16:43:41</time>
      </trkpt>
      <trkpt lat="43.24912" lon="-2.8885">
        <ele>47.4</ele>
        <time>2021-05-29 16:43:42</time>
      </trkpt>
      <trkpt lat="43.2492" lon="-2.88846">
        <ele>47.4</ele>
        <time>2021-05-29 16:43:43</time>
      </trkpt>
      <trkpt lat="43.24928" lon="-2.88843">
        <ele>47.4</ele>
        <time>2021-05-29 16:43:44</time>
      </trkpt>
      <trkpt lat="43.24937" lon="-2.8884">
        <ele>47.4</ele>
        <time>2021-05-29 16:43:45</time>
      </trkpt>
      <trkpt lat="43.24945" lon="-2.88838">
        <ele>47.2</ele>
        <time>2021-05-29 16:43:46</time>
      </trkpt>
      <trkpt lat="43.24954" lon="-2.88837">
        <ele>47.2</ele>
        <time>2021-05-29 16:43:47</time>
      </trkpt>
      <trkpt lat="43.24962" lon="-2.88836">
        <ele>47.4</ele>
        <time>2021-05-29 16:43:48</time>
      </trkpt>
      <trkpt lat="43.24971" lon="-2.88836">
        <ele>47.4</ele>
        <time>2021-05-29 16:43:49</time>
      </trkpt>
      <trkpt lat="43.2498" lon="-2.88836">
        <ele>47.4</ele>
        <time>2021-05-29 16:43:50</time>
      </trkpt>
      <trkpt lat="43.24989" lon="-2.88837">
        <ele>47.4</ele>
        <time>2021-05-29 16:43:51</time>
      </trkpt>
      <trkpt lat="43.24998" lon="-2.88838">
        <ele>47.4</ele>
        <time>2021-05-29 16:43:52</time>
      </trkpt>
      <trkpt lat="43.25007" lon="-2.8884">
        <ele>47.4</ele>
        <time>2021-05-29 16:43:53</time>
      </trkpt>
      <trkpt lat="43.25016" lon="-2.88841">
        <ele>47.4</ele>
        <time>2021-05-29 16:43:54</time>
      </trkpt>
      <trkpt lat="43.25025" lon="-2.88843">
        <ele>47.4</ele>
        <time>2021-05-29 16:43:55</time>
      </trkpt>
      <trkpt lat="43.25034" lon="-2.88845">
        <ele>47.4</ele>
        <time>2021-05-29 16:43:56</time>
      </trkpt>
      <trkpt lat="43.25043" lon="-2.88848">
        <ele>47.4</ele>
        <time>2021-05-29 16:43:57</time>
      </trkpt>
      <trkpt lat="43.25052" lon="-2.88851">
        <ele>47.6</ele>
        <time>2021-05-29 16:43:58</time>
      </trkpt>
      <trkpt lat="43.25061" lon="-2.88855">
        <ele>47.6</ele>
        <time>2021-05-29 16:43:59</time>
      </trkpt>
      <trkpt lat="43.2507" lon="-2.88858">
        <ele>47.6</ele>
        <time>2021-05-29 16:44:00</time>
      </trkpt>
      <trkpt lat="43.25078" lon="-2.88862">
        <ele>47.6</ele>
        <time>2021-05-29 16:44:01</time>
      </trkpt>
      <trkpt lat="43.25086" lon="-2.88866">
        <ele>47.6</ele>
        <time>2021-05-29 16:44:02</time>
      </trkpt>
      <trkpt lat="43.25095" lon="-2.88869">
        <ele>47.6</ele>
        <time>2021-05-29 16:44:03</time>
      </trkpt>
      <trkpt lat="43.25103" lon="-2.88873">
        <ele>47.6</ele>
        <time>2021-05-29 16:44:04</time>
      </trkpt>
      <trkpt lat="43.25111" lon="-2.88876">
        <ele>47.8</ele>
        <time>2021-05-29 16:44:05</time>
      </trkpt>
      <trkpt lat="43.25119" lon="-2.88879">
        <ele>47.8</ele>
        <time>2021-05-29 16:44:06</time>
      </trkpt>
      <trkpt lat="43.25128" lon="-2.88883">
        <ele>47.8</ele>
        <time>2021-05-29 16:44:07</time>
      </trkpt>
      <trkpt lat="43.25136" lon="-2.88886">
        <ele>47.8</ele>
        <time>2021-05-29 16:44:08</time>
      </trkpt>
      <trkpt lat="43.25145" lon="-2.88889">
        <ele>47.8</ele>
        <time>2021-05-29 16:44:09</time>
      </trkpt>
      <trkpt lat="43.25153" lon="-2.88892">
        <ele>47.8</ele>
        <time>2021-05-29 16:44:10</time>
      </trkpt>
      <trkpt lat="43.25162" lon="-2.88894">
        <ele>48</ele>
        <time>2021-05-29 16:44:11</time>
      </trkpt>
      <trkpt lat="43.2517" lon="-2.88897">
        <ele>48</ele>
        <time>2021-05-29 16:44:12</time>
      </trkpt>
      <trkpt lat="43.25179" lon="-2.88898">
        <ele>48</ele>
        <time>2021-05-29 16:44:13</time>
      </trkpt>
      <trkpt lat="43.25187" lon="-2.88899">
        <ele>48</ele>
        <time>2021-05-29 16:44:14</time>
      </trkpt>
      <trkpt lat="43.25196" lon="-2.889">
        <ele>48</ele>
        <time>2021-05-29 16:44:15</time>
      </trkpt>
      <trkpt lat="43.25204" lon="-2.88901">
        <ele>48</ele>
        <time>2021-05-29 16:44:16</time>
      </trkpt>
      <trkpt lat="43.25213" lon="-2.88902">
        <ele>48</ele>
        <time>2021-05-29 16:44:17</time>
      </trkpt>
      <trkpt lat="43.25221" lon="-2.88903">
        <ele>48</ele>
        <time>2021-05-29 16:44:18</time>
      </trkpt>
      <trkpt lat="43.25229" lon="-2.88904">
        <ele>48</ele>
        <time>2021-05-29 16:44:19</time>
      </trkpt>
      <trkpt lat="43.25237" lon="-2.88905">
        <ele>48</ele>
        <time>2021-05-29 16:44:20</time>
      </trkpt>
      <trkpt lat="43.25245" lon="-2.88907">
        <ele>48</ele>
        <time>2021-05-29 16:44:21</time>
      </trkpt>
      <trkpt lat="43.25253" lon="-2.88909">
        <ele>48</ele>
        <time>2021-05-29 16:44:22</time>
      </trkpt>
      <trkpt lat="43.25261" lon="-2.88911">
        <ele>48</ele>
        <time>2021-05-29 16:44:23</time>
      </trkpt>
      <trkpt lat="43.25269" lon="-2.88914">
        <ele>48</ele>
        <time>2021-05-29 16:44:24</time>
      </trkpt>
      <trkpt lat="43.25277" lon="-2.88917">
        <ele>48.2</ele>
        <time>2021-05-29 16:44:25</time>
      </trkpt>
      <trkpt lat="43.25284" lon="-2.8892">
        <ele>48.2</ele>
        <time>2021-05-29 16:44:26</time>
      </trkpt>
      <trkpt lat="43.25292" lon="-2.88924">
        <ele>48.2</ele>
        <time>2021-05-29 16:44:27</time>
      </trkpt>
      <trkpt lat="43.253" lon="-2.88928">
        <ele>48.2</ele>
        <time>2021-05-29 16:44:28</time>
      </trkpt>
      <trkpt lat="43.25308" lon="-2.88932">
        <ele>48.4</ele>
        <time>2021-05-29 16:44:29</time>
      </trkpt>
      <trkpt lat="43.25315" lon="-2.88937">
        <ele>48.4</ele>
        <time>2021-05-29 16:44:30</time>
      </trkpt>
      <trkpt lat="43.25323" lon="-2.88943">
        <ele>48.4</ele>
        <time>2021-05-29 16:44:31</time>
      </trkpt>
      <trkpt lat="43.2533" lon="-2.88949">
        <ele>48.4</ele>
        <time>2021-05-29 16:44:32</time>
      </trkpt>
      <trkpt lat="43.25337" lon="-2.88955">
        <ele>48.6</ele>
        <time>2021-05-29 16:44:33</time>
      </trkpt>
      <trkpt lat="43.25344" lon="-2.88962">
        <ele>48.6</ele>
        <time>2021-05-29 16:44:34</time>
      </trkpt>
      <trkpt lat="43.25351" lon="-2.88968">
        <ele>48.6</ele>
        <time>2021-05-29 16:44:35</time>
      </trkpt>
      <trkpt lat="43.25358" lon="-2.88976">
        <ele>48.6</ele>
        <time>2021-05-29 16:44:36</time>
      </trkpt>
      <trkpt lat="43.25365" lon="-2.88983">
        <ele>48.8</ele>
        <time>2021-05-29 16:44:37</time>
      </trkpt>
      <trkpt lat="43.25371" lon="-2.88991">
        <ele>48.8</ele>
        <time>2021-05-29 16:44:38</time>
      </trkpt>
      <trkpt lat="43.25377" lon="-2.89">
        <ele>48.8</ele>
        <time>2021-05-29 16:44:39</time>
      </trkpt>
      <trkpt lat="43.25383" lon="-2.89008">
        <ele>48.8</ele>
        <time>2021-05-29 16:44:40</time>
      </trkpt>
      <trkpt lat="43.25389" lon="-2.89018">
        <ele>49</ele>
        <time>2021-05-29 16:44:41</time>
      </trkpt>
      <trkpt lat="43.25394" lon="-2.89027">
        <ele>49</ele>
        <time>2021-05-29 16:44:42</time>
      </trkpt>
      <trkpt lat="43.25399" lon="-2.89038">
        <ele>49</ele>
        <time>2021-05-29 16:44:43</time>
      </trkpt>
      <trkpt lat="43.25404" lon="-2.89048">
        <ele>49</ele>
        <time>2021-05-29 16:44:44</time>
      </trkpt>
      <trkpt lat="43.25409" lon="-2.89058">
        <ele>49</ele>
        <time>2021-05-29 16:44:45</time>
      </trkpt>
      <trkpt lat="43.25413" lon="-2.89069">
        <ele>49</ele>
        <time>2021-05-29 16:44:46</time>
      </trkpt>
      <trkpt lat="43.25418" lon="-2.89079">
        <ele>49</ele>
        <time>2021-05-29 16:44:47</time>
      </trkpt>
      <trkpt lat="43.25422" lon="-2.8909">
        <ele>49</ele>
        <time>2021-05-29 16:44:48</time>
      </trkpt>
      <trkpt lat="43.25426" lon="-2.89101">
        <ele>49</ele>
        <time>2021-05-29 16:44:49</time>
      </trkpt>
      <trkpt lat="43.2543" lon="-2.89112">
        <ele>49</ele>
        <time>2021-05-29 16:44:50</time>
      </trkpt>
      <trkpt lat="43.25433" lon="-2.89123">
        <ele>49.2</ele>
        <time>2021-05-29 16:44:51</time>
      </trkpt>
      <trkpt lat="43.25437" lon="-2.89134">
        <ele>49.4</ele>
        <time>2021-05-29 16:44:52</time>
      </trkpt>
      <trkpt lat="43.2544" lon="-2.89145">
        <ele>49.2</ele>
        <time>2021-05-29 16:44:53</time>
      </trkpt>
      <trkpt lat="43.25443" lon="-2.89156">
        <ele>49.4</ele>
        <time>2021-05-29 16:44:54</time>
      </trkpt>
      <trkpt lat="43.25446" lon="-2.89167">
        <ele>49.4</ele>
        <time>2021-05-29 16:44:55</time>
      </trkpt>
      <trkpt lat="43.25448" lon="-2.89179">
        <ele>49.4</ele>
        <time>2021-05-29 16:44:56</time>
      </trkpt>
      <trkpt lat="43.25451" lon="-2.8919">
        <ele>49.4</ele>
        <time>2021-05-29 16:44:57</time>
      </trkpt>
      <trkpt lat="43.25453" lon="-2.89201">
        <ele>49.4</ele>
        <time>2021-05-29 16:44:58</time>
      </trkpt>
      <trkpt lat="43.25455" lon="-2.89211">
        <ele>49.6</ele>
        <time>2021-05-29 16:44:59</time>
      </trkpt>
      <trkpt lat="43.25457" lon="-2.89222">
        <ele>49.6</ele>
        <time>2021-05-29 16:45:00</time>
      </trkpt>
      <trkpt lat="43.25458" lon="-2.89233">
        <ele>49.6</ele>
        <time>2021-05-29 16:45:01</time>
      </trkpt>
      <trkpt lat="43.2546" lon="-2.89245">
        <ele>49.8</ele>
        <time>2021-05-29 16:45:02</time>
      </trkpt>
      <trkpt lat="43.25461" lon="-2.89256">
        <ele>49.8</ele>
        <time>2021-05-29 16:45:03</time>
      </trkpt>
      <trkpt lat="43.25461" lon="-2.89267">
        <ele>49.8</ele>
        <time>2021-05-29 16:45:04</time>
      </trkpt>
      <trkpt lat="43.25461" lon="-2.89279">
        <ele>50</ele>
        <time>2021-05-29 16:45:05</time>
      </trkpt>
      <trkpt lat="43.25461" lon="-2.89291">
        <ele>50</ele>
        <time>2021-05-29 16:45:06</time>
      </trkpt>
      <trkpt lat="43.2546" lon="-2.89302">
        <ele>50.2</ele>
        <time>2021-05-29 16:45:07</time>
      </trkpt>
      <trkpt lat="43.25459" lon="-2.89314">
        <ele>50.2</ele>
        <time>2021-05-29 16:45:08</time>
      </trkpt>
      <trkpt lat="43.25458" lon="-2.89325">
        <ele>50.2</ele>
        <time>2021-05-29 16:45:09</time>
      </trkpt>
      <trkpt lat="43.25456" lon="-2.89337">
        <ele>50.4</ele>
        <time>2021-05-29 16:45:10</time>
      </trkpt>
      <trkpt lat="43.25454" lon="-2.89348">
        <ele>50.4</ele>
        <time>2021-05-29 16:45:11</time>
      </trkpt>
      <trkpt lat="43.25451" lon="-2.8936">
        <ele>50.6</ele>
        <time>2021-05-29 16:45:12</time>
      </trkpt>
      <trkpt lat="43.25448" lon="-2.89371">
        <ele>50.6</ele>
        <time>2021-05-29 16:45:13</time>
      </trkpt>
      <trkpt lat="43.25445" lon="-2.89382">
        <ele>50.8</ele>
        <time>2021-05-29 16:45:14</time>
      </trkpt>
      <trkpt lat="43.25441" lon="-2.89393">
        <ele>50.8</ele>
        <time>2021-05-29 16:45:15</time>
      </trkpt>
      <trkpt lat="43.25437" lon="-2.89404">
        <ele>51</ele>
        <time>2021-05-29 16:45:16</time>
      </trkpt>
      <trkpt lat="43.25433" lon="-2.89415">
        <ele>51.2</ele>
        <time>2021-05-29 16:45:17</time>
      </trkpt>
      <trkpt lat="43.25429" lon="-2.89426">
        <ele>51.2</ele>
        <time>2021-05-29 16:45:18</time>
      </trkpt>
      <trkpt lat="43.25425" lon="-2.89437">
        <ele>51.2</ele>
        <time>2021-05-29 16:45:19</time>
      </trkpt>
      <trkpt lat="43.25421" lon="-2.89448">
        <ele>51.2</ele>
        <time>2021-05-29 16:45:20</time>
      </trkpt>
      <trkpt lat="43.25417" lon="-2.89459">
        <ele>51.2</ele>
        <time>2021-05-29 16:45:21</time>
      </trkpt>
      <trkpt lat="43.25413" lon="-2.89471">
        <ele>51.2</ele>
        <time>2021-05-29 16:45:22</time>
      </trkpt>
      <trkpt lat="43.25409" lon="-2.89482">
        <ele>51.2</ele>
        <time>2021-05-29 16:45:23</time>
      </trkpt>
      <trkpt lat="43.25404" lon="-2.89494">
        <ele>51.2</ele>
        <time>2021-05-29 16:45:24</time>
      </trkpt>
      <trkpt lat="43.254" lon="-2.89506">
        <ele>51.2</ele>
        <time>2021-05-29 16:45:25</time>
      </trkpt>
      <trkpt lat="43.25396" lon="-2.89518">
        <ele>51.2</ele>
        <time>2021-05-29 16:45:26</time>
      </trkpt>
      <trkpt lat="43.25391" lon="-2.8953">
        <ele>51.2</ele>
        <time>2021-05-29 16:45:27</time>
      </trkpt>
      <trkpt lat="43.25387" lon="-2.89541">
        <ele>51.2</ele>
        <time>2021-05-29 16:45:28</time>
      </trkpt>
      <trkpt lat="43.25383" lon="-2.89553">
        <ele>51.2</ele>
        <time>2021-05-29 16:45:29</time>
      </trkpt>
      <trkpt lat="43.25379" lon="-2.89565">
        <ele>51.2</ele>
        <time>2021-05-29 16:45:30</time>
      </trkpt>
      <trkpt lat="43.25374" lon="-2.89577">
        <ele>51.2</ele>
        <time>2021-05-29 16:45:31</time>
      </trkpt>
      <trkpt lat="43.2537" lon="-2.89589">
        <ele>51.2</ele>
        <time>2021-05-29 16:45:32</time>
      </trkpt>
      <trkpt lat="43.25366" lon="-2.89602">
        <ele>51.2</ele>
        <time>2021-05-29 16:45:33</time>
      </trkpt>
      <trkpt lat="43.25361" lon="-2.89614">
        <ele>51</ele>
        <time>2021-05-29 16:45:34</time>
      </trkpt>
      <trkpt lat="43.25357" lon="-2.89627">
        <ele>51</ele>
        <time>2021-05-29 16:45:35</time>
      </trkpt>
      <trkpt lat="43.25352" lon="-2.8964">
        <ele>51</ele>
        <time>2021-05-29 16:45:36</time>
      </trkpt>
      <trkpt lat="43.25348" lon="-2.89653">
        <ele>51</ele>
        <time>2021-05-29 16:45:37</time>
      </trkpt>
      <trkpt lat="43.25343" lon="-2.89666">
        <ele>50.8</ele>
        <time>2021-05-29 16:45:38</time>
      </trkpt>
      <trkpt lat="43.25338" lon="-2.89679">
        <ele>50.8</ele>
        <time>2021-05-29 16:45:39</time>
      </trkpt>
      <trkpt lat="43.25333" lon="-2.89692">
        <ele>50.6</ele>
        <time>2021-05-29 16:45:40</time>
      </trkpt>
      <trkpt lat="43.25328" lon="-2.89705">
        <ele>50.6</ele>
        <time>2021-05-29 16:45:41</time>
      </trkpt>
      <trkpt lat="43.25323" lon="-2.89717">
        <ele>50.4</ele>
        <time>2021-05-29 16:45:42</time>
      </trkpt>
      <trkpt lat="43.25318" lon="-2.89729">
        <ele>50.2</ele>
        <time>2021-05-29 16:45:43</time>
      </trkpt>
      <trkpt lat="43.25313" lon="-2.89741">
        <ele>50</ele>
        <time>2021-05-29 16:45:44</time>
      </trkpt>
      <trkpt lat="43.25307" lon="-2.89753">
        <ele>50</ele>
        <time>2021-05-29 16:45:45</time>
      </trkpt>
      <trkpt lat="43.253" lon="-2.89764">
        <ele>49.8</ele>
        <time>2021-05-29 16:45:46</time>
      </trkpt>
      <trkpt lat="43.25294" lon="-2.89774">
        <ele>49.8</ele>
        <time>2021-05-29 16:45:47</time>
      </trkpt>
      <trkpt lat="43.25288" lon="-2.89785">
        <ele>49.6</ele>
        <time>2021-05-29 16:45:48</time>
      </trkpt>
      <trkpt lat="43.25282" lon="-2.89795">
        <ele>49.2</ele>
        <time>2021-05-29 16:45:49</time>
      </trkpt>
      <trkpt lat="43.25276" lon="-2.89805">
        <ele>49.2</ele>
        <time>2021-05-29 16:45:50</time>
      </trkpt>
      <trkpt lat="43.2527" lon="-2.89816">
        <ele>49.2</ele>
        <time>2021-05-29 16:45:51</time>
      </trkpt>
      <trkpt lat="43.25263" lon="-2.89826">
        <ele>48.8</ele>
        <time>2021-05-29 16:45:52</time>
      </trkpt>
      <trkpt lat="43.25256" lon="-2.89837">
        <ele>48.6</ele>
        <time>2021-05-29 16:45:53</time>
      </trkpt>
      <trkpt lat="43.2525" lon="-2.89848">
        <ele>48.4</ele>
        <time>2021-05-29 16:45:54</time>
      </trkpt>
      <trkpt lat="43.25243" lon="-2.89858">
        <ele>48.2</ele>
        <time>2021-05-29 16:45:55</time>
      </trkpt>
      <trkpt lat="43.25237" lon="-2.89869">
        <ele>48.2</ele>
        <time>2021-05-29 16:45:56</time>
      </trkpt>
      <trkpt lat="43.25231" lon="-2.89879">
        <ele>48</ele>
        <time>2021-05-29 16:45:57</time>
      </trkpt>
      <trkpt lat="43.25224" lon="-2.8989">
        <ele>48</ele>
        <time>2021-05-29 16:45:58</time>
      </trkpt>
      <trkpt lat="43.25218" lon="-2.89901">
        <ele>47.8</ele>
        <time>2021-05-29 16:45:59</time>
      </trkpt>
      <trkpt lat="43.25211" lon="-2.89912">
        <ele>47.6</ele>
        <time>2021-05-29 16:46:00</time>
      </trkpt>
      <trkpt lat="43.25205" lon="-2.89922">
        <ele>47.2</ele>
        <time>2021-05-29 16:46:01</time>
      </trkpt>
      <trkpt lat="43.25198" lon="-2.89933">
        <ele>46.8</ele>
        <time>2021-05-29 16:46:02</time>
      </trkpt>
      <trkpt lat="43.25191" lon="-2.89944">
        <ele>46.4</ele>
        <time>2021-05-29 16:46:03</time>
      </trkpt>
      <trkpt lat="43.25185" lon="-2.89954">
        <ele>46</ele>
        <time>2021-05-29 16:46:04</time>
      </trkpt>
      <trkpt lat="43.25179" lon="-2.89964">
        <ele>45.8</ele>
        <time>2021-05-29 16:46:05</time>
      </trkpt>
      <trkpt lat="43.25173" lon="-2.89974">
        <ele>45.6</ele>
        <time>2021-05-29 16:46:06</time>
      </trkpt>
      <trkpt lat="43.25166" lon="-2.89984">
        <ele>45.2</ele>
        <time>2021-05-29 16:46:07</time>
      </trkpt>
      <trkpt lat="43.2516" lon="-2.89994">
        <ele>45</ele>
        <time>2021-05-29 16:46:08</time>
      </trkpt>
      <trkpt lat="43.25154" lon="-2.90004">
        <ele>44.8</ele>
        <time>2021-05-29 16:46:09</time>
      </trkpt>
      <trkpt lat="43.25148" lon="-2.90014">
        <ele>44.4</ele>
        <time>2021-05-29 16:46:10</time>
      </trkpt>
      <trkpt lat="43.25141" lon="-2.90024">
        <ele>44.2</ele>
        <time>2021-05-29 16:46:11</time>
      </trkpt>
      <trkpt lat="43.25135" lon="-2.90033">
        <ele>44.2</ele>
        <time>2021-05-29 16:46:12</time>
      </trkpt>
      <trkpt lat="43.25129" lon="-2.90043">
        <ele>44</ele>
        <time>2021-05-29 16:46:13</time>
      </trkpt>
      <trkpt lat="43.25122" lon="-2.90052">
        <ele>43.8</ele>
        <time>2021-05-29 16:46:14</time>
      </trkpt>
      <trkpt lat="43.25116" lon="-2.90062">
        <ele>43.8</ele>
        <time>2021-05-29 16:46:15</time>
      </trkpt>
      <trkpt lat="43.2511" lon="-2.90071">
        <ele>43.6</ele>
        <time>2021-05-29 16:46:16</time>
      </trkpt>
      <trkpt lat="43.25104" lon="-2.90081">
        <ele>43.6</ele>
        <time>2021-05-29 16:46:17</time>
      </trkpt>
      <trkpt lat="43.25098" lon="-2.9009">
        <ele>43.6</ele>
        <time>2021-05-29 16:46:18</time>
      </trkpt>
      <trkpt lat="43.25091" lon="-2.90099">
        <ele>43.6</ele>
        <time>2021-05-29 16:46:19</time>
      </trkpt>
      <trkpt lat="43.25085" lon="-2.90108">
        <ele>43.6</ele>
        <time>2021-05-29 16:46:20</time>
      </trkpt>
      <trkpt lat="43.2508" lon="-2.90117">
        <ele>43.4</ele>
        <time>2021-05-29 16:46:21</time>
      </trkpt>
      <trkpt lat="43.25074" lon="-2.90126">
        <ele>43.4</ele>
        <time>2021-05-29 16:46:22</time>
      </trkpt>
      <trkpt lat="43.25068" lon="-2.90134">
        <ele>43.4</ele>
        <time>2021-05-29 16:46:23</time>
      </trkpt>
      <trkpt lat="43.25063" lon="-2.90143">
        <ele>43.4</ele>
        <time>2021-05-29 16:46:24</time>
      </trkpt>
      <trkpt lat="43.25058" lon="-2.90151">
        <ele>43.6</ele>
        <time>2021-05-29 16:46:25</time>
      </trkpt>
      <trkpt lat="43.25053" lon="-2.90159">
        <ele>43.6</ele>
        <time>2021-05-29 16:46:26</time>
      </trkpt>
      <trkpt lat="43.25047" lon="-2.90167">
        <ele>43.6</ele>
        <time>2021-05-29 16:46:27</time>
      </trkpt>
      <trkpt lat="43.25042" lon="-2.90175">
        <ele>43.6</ele>
        <time>2021-05-29 16:46:28</time>
      </trkpt>
      <trkpt lat="43.25037" lon="-2.90183">
        <ele>43.6</ele>
        <time>2021-05-29 16:46:29</time>
      </trkpt>
      <trkpt lat="43.25032" lon="-2.9019">
        <ele>43.6</ele>
        <time>2021-05-29 16:46:30</time>
      </trkpt>
      <trkpt lat="43.25027" lon="-2.90198">
        <ele>43.8</ele>
        <time>2021-05-29 16:46:31</time>
      </trkpt>
      <trkpt lat="43.25023" lon="-2.90205">
        <ele>43.8</ele>
        <time>2021-05-29 16:46:32</time>
      </trkpt>
      <trkpt lat="43.25018" lon="-2.90213">
        <ele>43.8</ele>
        <time>2021-05-29 16:46:33</time>
      </trkpt>
      <trkpt lat="43.25014" lon="-2.90221">
        <ele>44.2</ele>
        <time>2021-05-29 16:46:34</time>
      </trkpt>
      <trkpt lat="43.25009" lon="-2.90228">
        <ele>44.4</ele>
        <time>2021-05-29 16:46:35</time>
      </trkpt>
      <trkpt lat="43.25005" lon="-2.90236">
        <ele>44.6</ele>
        <time>2021-05-29 16:46:36</time>
      </trkpt>
      <trkpt lat="43.25001" lon="-2.90243">
        <ele>44.8</ele>
        <time>2021-05-29 16:46:37</time>
      </trkpt>
      <trkpt lat="43.24997" lon="-2.9025">
        <ele>45.2</ele>
        <time>2021-05-29 16:46:38</time>
      </trkpt>
      <trkpt lat="43.24993" lon="-2.90257">
        <ele>45.6</ele>
        <time>2021-05-29 16:46:39</time>
      </trkpt>
      <trkpt lat="43.24989" lon="-2.90264">
        <ele>46</ele>
        <time>2021-05-29 16:46:40</time>
      </trkpt>
      <trkpt lat="43.24985" lon="-2.90271">
        <ele>46.4</ele>
        <time>2021-05-29 16:46:41</time>
      </trkpt>
      <trkpt lat="43.24981" lon="-2.90278">
        <ele>46.6</ele>
        <time>2021-05-29 16:46:42</time>
      </trkpt>
      <trkpt lat="43.24978" lon="-2.90286">
        <ele>47</ele>
        <time>2021-05-29 16:46:43</time>
      </trkpt>
      <trkpt lat="43.24975" lon="-2.90293">
        <ele>47.4</ele>
        <time>2021-05-29 16:46:44</time>
      </trkpt>
      <trkpt lat="43.24973" lon="-2.90301">
        <ele>47.8</ele>
        <time>2021-05-29 16:46:45</time>
      </trkpt>
      <trkpt lat="43.2497" lon="-2.90309">
        <ele>48.2</ele>
        <time>2021-05-29 16:46:46</time>
      </trkpt>
      <trkpt lat="43.24966" lon="-2.90316">
        <ele>48.4</ele>
        <time>2021-05-29 16:46:47</time>
      </trkpt>
      <trkpt lat="43.24963" lon="-2.90324">
        <ele>48.4</ele>
        <time>2021-05-29 16:46:48</time>
      </trkpt>
      <trkpt lat="43.2496" lon="-2.90331">
        <ele>48.6</ele>
        <time>2021-05-29 16:46:49</time>
      </trkpt>
      <trkpt lat="43.24957" lon="-2.90339">
        <ele>48.8</ele>
        <time>2021-05-29 16:46:50</time>
      </trkpt>
      <trkpt lat="43.24955" lon="-2.90346">
        <ele>49.2</ele>
        <time>2021-05-29 16:46:51</time>
      </trkpt>
      <trkpt lat="43.24952" lon="-2.90354">
        <ele>49.6</ele>
        <time>2021-05-29 16:46:52</time>
      </trkpt>
      <trkpt lat="43.2495" lon="-2.90362">
        <ele>49.8</ele>
        <time>2021-05-29 16:46:53</time>
      </trkpt>
      <trkpt lat="43.24949" lon="-2.9037">
        <ele>50</ele>
        <time>2021-05-29 16:46:54</time>
      </trkpt>
      <trkpt lat="43.24947" lon="-2.90378">
        <ele>50.2</ele>
        <time>2021-05-29 16:46:55</time>
      </trkpt>
      <trkpt lat="43.24946" lon="-2.90387">
        <ele>50.4</ele>
        <time>2021-05-29 16:46:56</time>
      </trkpt>
      <trkpt lat="43.24944" lon="-2.90395">
        <ele>50.6</ele>
        <time>2021-05-29 16:46:57</time>
      </trkpt>
      <trkpt lat="43.24944" lon="-2.90404">
        <ele>51</ele>
        <time>2021-05-29 16:46:58</time>
      </trkpt>
      <trkpt lat="43.24943" lon="-2.90412">
        <ele>51.6</ele>
        <time>2021-05-29 16:46:59</time>
      </trkpt>
      <trkpt lat="43.24943" lon="-2.9042">
        <ele>51.8</ele>
        <time>2021-05-29 16:47:00</time>
      </trkpt>
      <trkpt lat="43.24943" lon="-2.90428">
        <ele>51.8</ele>
        <time>2021-05-29 16:47:01</time>
      </trkpt>
      <trkpt lat="43.24944" lon="-2.90436">
        <ele>52</ele>
        <time>2021-05-29 16:47:02</time>
      </trkpt>
      <trkpt lat="43.24944" lon="-2.90445">
        <ele>52.2</ele>
        <time>2021-05-29 16:47:03</time>
      </trkpt>
      <trkpt lat="43.24945" lon="-2.90453">
        <ele>52.4</ele>
        <time>2021-05-29 16:47:04</time>
      </trkpt>
      <trkpt lat="43.24947" lon="-2.90462">
        <ele>52.6</ele>
        <time>2021-05-29 16:47:05</time>
      </trkpt>
      <trkpt lat="43.24949" lon="-2.9047">
        <ele>52.8</ele>
        <time>2021-05-29 16:47:06</time>
      </trkpt>
      <trkpt lat="43.24951" lon="-2.90478">
        <ele>52.8</ele>
        <time>2021-05-29 16:47:07</time>
      </trkpt>
      <trkpt lat="43.24953" lon="-2.90486">
        <ele>53</ele>
        <time>2021-05-29 16:47:08</time>
      </trkpt>
      <trkpt lat="43.24955" lon="-2.90494">
        <ele>53.2</ele>
        <time>2021-05-29 16:47:09</time>
      </trkpt>
      <trkpt lat="43.24958" lon="-2.90502">
        <ele>53.4</ele>
        <time>2021-05-29 16:47:10</time>
      </trkpt>
      <trkpt lat="43.24961" lon="-2.90509">
        <ele>53.6</ele>
        <time>2021-05-29 16:47:11</time>
      </trkpt>
      <trkpt lat="43.24965" lon="-2.90517">
        <ele>53.8</ele>
        <time>2021-05-29 16:47:12</time>
      </trkpt>
      <trkpt lat="43.24968" lon="-2.90524">
        <ele>54</ele>
        <time>2021-05-29 16:47:13</time>
      </trkpt>
      <trkpt lat="43.24972" lon="-2.90532">
        <ele>54.2</ele>
        <time>2021-05-29 16:47:14</time>
      </trkpt>
      <trkpt lat="43.24976" lon="-2.90539">
        <ele>54.4</ele>
        <time>2021-05-29 16:47:15</time>
      </trkpt>
      <trkpt lat="43.2498" lon="-2.90547">
        <ele>54.6</ele>
        <time>2021-05-29 16:47:16</time>
      </trkpt>
      <trkpt lat="43.24984" lon="-2.90554">
        <ele>54.8</ele>
        <time>2021-05-29 16:47:17</time>
      </trkpt>
      <trkpt lat="43.24989" lon="-2.90561">
        <ele>55</ele>
        <time>2021-05-29 16:47:18</time>
      </trkpt>
      <trkpt lat="43.24994" lon="-2.90568">
        <ele>55.2</ele>
        <time>2021-05-29 16:47:19</time>
      </trkpt>
      <trkpt lat="43.25" lon="-2.90574">
        <ele>55.4</ele>
        <time>2021-05-29 16:47:20</time>
      </trkpt>
      <trkpt lat="43.25006" lon="-2.9058">
        <ele>55.6</ele>
        <time>2021-05-29 16:47:21</time>
      </trkpt>
      <trkpt lat="43.25011" lon="-2.90586">
        <ele>55.6</ele>
        <time>2021-05-29 16:47:22</time>
      </trkpt>
      <trkpt lat="43.25018" lon="-2.90591">
        <ele>55.6</ele>
        <time>2021-05-29 16:47:23</time>
      </trkpt>
      <trkpt lat="43.25024" lon="-2.90596">
        <ele>55.6</ele>
        <time>2021-05-29 16:47:24</time>
      </trkpt>
      <trkpt lat="43.2503" lon="-2.90601">
        <ele>55.6</ele>
        <time>2021-05-29 16:47:25</time>
      </trkpt>
      <trkpt lat="43.25037" lon="-2.90607">
        <ele>55.6</ele>
        <time>2021-05-29 16:47:26</time>
      </trkpt>
      <trkpt lat="43.25043" lon="-2.90612">
        <ele>55.6</ele>
        <time>2021-05-29 16:47:27</time>
      </trkpt>
      <trkpt lat="43.2505" lon="-2.90617">
        <ele>55.6</ele>
        <time>2021-05-29 16:47:28</time>
      </trkpt>
      <trkpt lat="43.25056" lon="-2.90623">
        <ele>55.6</ele>
        <time>2021-05-29 16:47:29</time>
      </trkpt>
      <trkpt lat="43.25063" lon="-2.90628">
        <ele>55.6</ele>
        <time>2021-05-29 16:47:30</time>
      </trkpt>
      <trkpt lat="43.25069" lon="-2.90633">
        <ele>55.6</ele>
        <time>2021-05-29 16:47:31</time>
      </trkpt>
      <trkpt lat="43.25076" lon="-2.90639">
        <ele>55.6</ele>
        <time>2021-05-29 16:47:32</time>
      </trkpt>
      <trkpt lat="43.25083" lon="-2.90645">
        <ele>55.4</ele>
        <time>2021-05-29 16:47:33</time>
      </trkpt>
      <trkpt lat="43.2509" lon="-2.90651">
        <ele>55.4</ele>
        <time>2021-05-29 16:47:34</time>
      </trkpt>
      <trkpt lat="43.25097" lon="-2.90656">
        <ele>55.4</ele>
        <time>2021-05-29 16:47:35</time>
      </trkpt>
      <trkpt lat="43.25104" lon="-2.90662">
        <ele>55.4</ele>
        <time>2021-05-29 16:47:36</time>
      </trkpt>
      <trkpt lat="43.25111" lon="-2.90668">
        <ele>55.2</ele>
        <time>2021-05-29 16:47:37</time>
      </trkpt>
      <trkpt lat="43.25118" lon="-2.90674">
        <ele>55.2</ele>
        <time>2021-05-29 16:47:38</time>
      </trkpt>
      <trkpt lat="43.25125" lon="-2.90679">
        <ele>55.2</ele>
        <time>2021-05-29 16:47:39</time>
      </trkpt>
      <trkpt lat="43.25131" lon="-2.90685">
        <ele>55.2</ele>
        <time>2021-05-29 16:47:40</time>
      </trkpt>
      <trkpt lat="43.25138" lon="-2.90691">
        <ele>55.2</ele>
        <time>2021-05-29 16:47:41</time>
      </trkpt>
      <trkpt lat="43.25145" lon="-2.90696">
        <ele>55.2</ele>
        <time>2021-05-29 16:47:42</time>
      </trkpt>
      <trkpt lat="43.25152" lon="-2.90702">
        <ele>55.2</ele>
        <time>2021-05-29 16:47:43</time>
      </trkpt>
      <trkpt lat="43.25158" lon="-2.90708">
        <ele>55</ele>
        <time>2021-05-29 16:47:44</time>
      </trkpt>
      <trkpt lat="43.25165" lon="-2.90713">
        <ele>55</ele>
        <time>2021-05-29 16:47:45</time>
      </trkpt>
      <trkpt lat="43.25172" lon="-2.90719">
        <ele>55</ele>
        <time>2021-05-29 16:47:46</time>
      </trkpt>
      <trkpt lat="43.25178" lon="-2.90724">
        <ele>55</ele>
        <time>2021-05-29 16:47:47</time>
      </trkpt>
      <trkpt lat="43.25184" lon="-2.90729">
        <ele>55</ele>
        <time>2021-05-29 16:47:48</time>
      </trkpt>
      <trkpt lat="43.25191" lon="-2.90734">
        <ele>55</ele>
        <time>2021-05-29 16:47:49</time>
      </trkpt>
      <trkpt lat="43.25197" lon="-2.90739">
        <ele>55</ele>
        <time>2021-05-29 16:47:50</time>
      </trkpt>
      <trkpt lat="43.25203" lon="-2.90744">
        <ele>55</ele>
        <time>2021-05-29 16:47:51</time>
      </trkpt>
      <trkpt lat="43.25209" lon="-2.90749">
        <ele>55</ele>
        <time>2021-05-29 16:47:52</time>
      </trkpt>
      <trkpt lat="43.25215" lon="-2.90754">
        <ele>55</ele>
        <time>2021-05-29 16:47:53</time>
      </trkpt>
      <trkpt lat="43.25221" lon="-2.90759">
        <ele>55</ele>
        <time>2021-05-29 16:47:54</time>
      </trkpt>
      <trkpt lat="43.25227" lon="-2.90764">
        <ele>55</ele>
        <time>2021-05-29 16:47:55</time>
      </trkpt>
      <trkpt lat="43.25233" lon="-2.90769">
        <ele>55.4</ele>
        <time>2021-05-29 16:47:56</time>
      </trkpt>
      <trkpt lat="43.25239" lon="-2.90773">
        <ele>55.8</ele>
        <time>2021-05-29 16:47:57</time>
      </trkpt>
      <trkpt lat="43.25245" lon="-2.90778">
        <ele>56</ele>
        <time>2021-05-29 16:47:58</time>
      </trkpt>
      <trkpt lat="43.25251" lon="-2.90783">
        <ele>56.2</ele>
        <time>2021-05-29 16:47:59</time>
      </trkpt>
      <trkpt lat="43.25257" lon="-2.90788">
        <ele>56.4</ele>
        <time>2021-05-29 16:48:00</time>
      </trkpt>
      <trkpt lat="43.25262" lon="-2.90792">
        <ele>56.6</ele>
        <time>2021-05-29 16:48:01</time>
      </trkpt>
      <trkpt lat="43.25268" lon="-2.90797">
        <ele>57.2</ele>
        <time>2021-05-29 16:48:02</time>
      </trkpt>
      <trkpt lat="43.25274" lon="-2.90803">
        <ele>57.6</ele>
        <time>2021-05-29 16:48:03</time>
      </trkpt>
      <trkpt lat="43.2528" lon="-2.90808">
        <ele>57.8</ele>
        <time>2021-05-29 16:48:04</time>
      </trkpt>
      <trkpt lat="43.25285" lon="-2.90813">
        <ele>58</ele>
        <time>2021-05-29 16:48:05</time>
      </trkpt>
      <trkpt lat="43.25291" lon="-2.90818">
        <ele>58.2</ele>
        <time>2021-05-29 16:48:06</time>
      </trkpt>
      <trkpt lat="43.25297" lon="-2.90823">
        <ele>58.2</ele>
        <time>2021-05-29 16:48:07</time>
      </trkpt>
      <trkpt lat="43.25302" lon="-2.90828">
        <ele>58.4</ele>
        <time>2021-05-29 16:48:08</time>
      </trkpt>
      <trkpt lat="43.25307" lon="-2.90833">
        <ele>58.8</ele>
        <time>2021-05-29 16:48:09</time>
      </trkpt>
      <trkpt lat="43.25312" lon="-2.90838">
        <ele>59</ele>
        <time>2021-05-29 16:48:10</time>
      </trkpt>
      <trkpt lat="43.25317" lon="-2.90842">
        <ele>59.2</ele>
        <time>2021-05-29 16:48:11</time>
      </trkpt>
      <trkpt lat="43.25322" lon="-2.90846">
        <ele>59.6</ele>
        <time>2021-05-29 16:48:12</time>
      </trkpt>
      <trkpt lat="43.25327" lon="-2.90851">
        <ele>60</ele>
        <time>2021-05-29 16:48:13</time>
      </trkpt>
      <trkpt lat="43.25331" lon="-2.90855">
        <ele>60.4</ele>
        <time>2021-05-29 16:48:14</time>
      </trkpt>
      <trkpt lat="43.25336" lon="-2.90859">
        <ele>60.6</ele>
        <time>2021-05-29 16:48:15</time>
      </trkpt>
      <trkpt lat="43.25341" lon="-2.90863">
        <ele>60.8</ele>
        <time>2021-05-29 16:48:16</time>
      </trkpt>
      <trkpt lat="43.25345" lon="-2.90867">
        <ele>60.8</ele>
        <time>2021-05-29 16:48:17</time>
      </trkpt>
      <trkpt lat="43.2535" lon="-2.90871">
        <ele>61.2</ele>
        <time>2021-05-29 16:48:18</time>
      </trkpt>
      <trkpt lat="43.25355" lon="-2.90875">
        <ele>61.4</ele>
        <time>2021-05-29 16:48:19</time>
      </trkpt>
      <trkpt lat="43.25359" lon="-2.90879">
        <ele>61.8</ele>
        <time>2021-05-29 16:48:20</time>
      </trkpt>
      <trkpt lat="43.25364" lon="-2.90883">
        <ele>62.2</ele>
        <time>2021-05-29 16:48:21</time>
      </trkpt>
      <trkpt lat="43.25368" lon="-2.90887">
        <ele>62.4</ele>
        <time>2021-05-29 16:48:22</time>
      </trkpt>
      <trkpt lat="43.25373" lon="-2.9089">
        <ele>62.8</ele>
        <time>2021-05-29 16:48:23</time>
      </trkpt>
      <trkpt lat="43.25377" lon="-2.90894">
        <ele>63.2</ele>
        <time>2021-05-29 16:48:24</time>
      </trkpt>
      <trkpt lat="43.25381" lon="-2.90898">
        <ele>63.4</ele>
        <time>2021-05-29 16:48:25</time>
      </trkpt>
      <trkpt lat="43.25386" lon="-2.90902">
        <ele>63.8</ele>
        <time>2021-05-29 16:48:26</time>
      </trkpt>
      <trkpt lat="43.25391" lon="-2.90906">
        <ele>64.4</ele>
        <time>2021-05-29 16:48:27</time>
      </trkpt>
      <trkpt lat="43.25395" lon="-2.90909">
        <ele>64.6</ele>
        <time>2021-05-29 16:48:28</time>
      </trkpt>
      <trkpt lat="43.254" lon="-2.90913">
        <ele>65</ele>
        <time>2021-05-29 16:48:29</time>
      </trkpt>
      <trkpt lat="43.25404" lon="-2.90917">
        <ele>65.4</ele>
        <time>2021-05-29 16:48:30</time>
      </trkpt>
      <trkpt lat="43.25409" lon="-2.90921">
        <ele>65.6</ele>
        <time>2021-05-29 16:48:31</time>
      </trkpt>
      <trkpt lat="43.25414" lon="-2.90925">
        <ele>65.8</ele>
        <time>2021-05-29 16:48:32</time>
      </trkpt>
      <trkpt lat="43.25418" lon="-2.90928">
        <ele>66</ele>
        <time>2021-05-29 16:48:33</time>
      </trkpt>
      <trkpt lat="43.25423" lon="-2.90932">
        <ele>66.2</ele>
        <time>2021-05-29 16:48:34</time>
      </trkpt>
      <trkpt lat="43.25427" lon="-2.90936">
        <ele>66.6</ele>
        <time>2021-05-29 16:48:35</time>
      </trkpt>
      <trkpt lat="43.25432" lon="-2.9094">
        <ele>66.8</ele>
        <time>2021-05-29 16:48:36</time>
      </trkpt>
      <trkpt lat="43.25436" lon="-2.90944">
        <ele>67.2</ele>
        <time>2021-05-29 16:48:37</time>
      </trkpt>
      <trkpt lat="43.2544" lon="-2.90947">
        <ele>67.4</ele>
        <time>2021-05-29 16:48:38</time>
      </trkpt>
      <trkpt lat="43.25445" lon="-2.90951">
        <ele>67.6</ele>
        <time>2021-05-29 16:48:39</time>
      </trkpt>
      <trkpt lat="43.25449" lon="-2.90955">
        <ele>67.6</ele>
        <time>2021-05-29 16:48:40</time>
      </trkpt>
      <trkpt lat="43.25453" lon="-2.90958">
        <ele>68</ele>
        <time>2021-05-29 16:48:41</time>
      </trkpt>
      <trkpt lat="43.25457" lon="-2.90963">
        <ele>68.4</ele>
        <time>2021-05-29 16:48:42</time>
      </trkpt>
      <trkpt lat="43.25461" lon="-2.90967">
        <ele>68.6</ele>
        <time>2021-05-29 16:48:43</time>
      </trkpt>
      <trkpt lat="43.25466" lon="-2.90971">
        <ele>69</ele>
        <time>2021-05-29 16:48:44</time>
      </trkpt>
      <trkpt lat="43.2547" lon="-2.90975">
        <ele>69.2</ele>
        <time>2021-05-29 16:48:45</time>
      </trkpt>
      <trkpt lat="43.25474" lon="-2.90978">
        <ele>69.4</ele>
        <time>2021-05-29 16:48:46</time>
      </trkpt>
      <trkpt lat="43.25479" lon="-2.90983">
        <ele>69.6</ele>
        <time>2021-05-29 16:48:47</time>
      </trkpt>
      <trkpt lat="43.25483" lon="-2.90987">
        <ele>69.8</ele>
        <time>2021-05-29 16:48:48</time>
      </trkpt>
      <trkpt lat="43.25487" lon="-2.9099">
        <ele>70.2</ele>
        <time>2021-05-29 16:48:49</time>
      </trkpt>
      <trkpt lat="43.25491" lon="-2.90993">
        <ele>70.4</ele>
        <time>2021-05-29 16:48:50</time>
      </trkpt>
      <trkpt lat="43.25494" lon="-2.90998">
        <ele>70.6</ele>
        <time>2021-05-29 16:48:51</time>
      </trkpt>
      <trkpt lat="43.25498" lon="-2.91002">
        <ele>71.2</ele>
        <time>2021-05-29 16:48:52</time>
      </trkpt>
      <trkpt lat="43.25503" lon="-2.91006">
        <ele>71.4</ele>
        <time>2021-05-29 16:48:53</time>
      </trkpt>
      <trkpt lat="43.25507" lon="-2.91009">
        <ele>71.8</ele>
        <time>2021-05-29 16:48:54</time>
      </trkpt>
      <trkpt lat="43.25512" lon="-2.91013">
        <ele>72</ele>
        <time>2021-05-29 16:48:55</time>
      </trkpt>
      <trkpt lat="43.25516" lon="-2.91017">
        <ele>72.4</ele>
        <time>2021-05-29 16:48:56</time>
      </trkpt>
      <trkpt lat="43.2552" lon="-2.91021">
        <ele>72.4</ele>
        <time>2021-05-29 16:48:57</time>
      </trkpt>
      <trkpt lat="43.25524" lon="-2.91025">
        <ele>72.6</ele>
        <time>2021-05-29 16:48:58</time>
      </trkpt>
      <trkpt lat="43.25528" lon="-2.91029">
        <ele>72.8</ele>
        <time>2021-05-29 16:48:59</time>
      </trkpt>
      <trkpt lat="43.25532" lon="-2.91032">
        <ele>73.2</ele>
        <time>2021-05-29 16:49:00</time>
      </trkpt>
      <trkpt lat="43.25536" lon="-2.91036">
        <ele>73.4</ele>
        <time>2021-05-29 16:49:01</time>
      </trkpt>
      <trkpt lat="43.25539" lon="-2.9104">
        <ele>73.6</ele>
        <time>2021-05-29 16:49:02</time>
      </trkpt>
      <trkpt lat="43.25542" lon="-2.91044">
        <ele>74</ele>
        <time>2021-05-29 16:49:03</time>
      </trkpt>
      <trkpt lat="43.25546" lon="-2.91048">
        <ele>74.2</ele>
        <time>2021-05-29 16:49:04</time>
      </trkpt>
      <trkpt lat="43.2555" lon="-2.91052">
        <ele>74.6</ele>
        <time>2021-05-29 16:49:05</time>
      </trkpt>
      <trkpt lat="43.25555" lon="-2.91056">
        <ele>74.8</ele>
        <time>2021-05-29 16:49:06</time>
      </trkpt>
      <trkpt lat="43.25559" lon="-2.91059">
        <ele>75</ele>
        <time>2021-05-29 16:49:07</time>
      </trkpt>
      <trkpt lat="43.25563" lon="-2.91064">
        <ele>75.2</ele>
        <time>2021-05-29 16:49:08</time>
      </trkpt>
      <trkpt lat="43.25567" lon="-2.91068">
        <ele>75.4</ele>
        <time>2021-05-29 16:49:09</time>
      </trkpt>
      <trkpt lat="43.25571" lon="-2.91072">
        <ele>75.4</ele>
        <time>2021-05-29 16:49:10</time>
      </trkpt>
      <trkpt lat="43.25576" lon="-2.91076">
        <ele>75.6</ele>
        <time>2021-05-29 16:49:11</time>
      </trkpt>
      <trkpt lat="43.2558" lon="-2.91081">
        <ele>75.8</ele>
        <time>2021-05-29 16:49:12</time>
      </trkpt>
      <trkpt lat="43.25584" lon="-2.91086">
        <ele>76</ele>
        <time>2021-05-29 16:49:13</time>
      </trkpt>
      <trkpt lat="43.25589" lon="-2.9109">
        <ele>76.4</ele>
        <time>2021-05-29 16:49:14</time>
      </trkpt>
      <trkpt lat="43.25593" lon="-2.91095">
        <ele>76.6</ele>
        <time>2021-05-29 16:49:15</time>
      </trkpt>
      <trkpt lat="43.25597" lon="-2.91099">
        <ele>76.8</ele>
        <time>2021-05-29 16:49:16</time>
      </trkpt>
      <trkpt lat="43.25601" lon="-2.91104">
        <ele>77.4</ele>
        <time>2021-05-29 16:49:17</time>
      </trkpt>
      <trkpt lat="43.25604" lon="-2.91109">
        <ele>77.6</ele>
        <time>2021-05-29 16:49:18</time>
      </trkpt>
      <trkpt lat="43.25608" lon="-2.91113">
        <ele>77.8</ele>
        <time>2021-05-29 16:49:19</time>
      </trkpt>
      <trkpt lat="43.25612" lon="-2.91117">
        <ele>78</ele>
        <time>2021-05-29 16:49:20</time>
      </trkpt>
      <trkpt lat="43.25616" lon="-2.91121">
        <ele>78.4</ele>
        <time>2021-05-29 16:49:21</time>
      </trkpt>
      <trkpt lat="43.2562" lon="-2.91123">
        <ele>78.6</ele>
        <time>2021-05-29 16:49:22</time>
      </trkpt>
      <trkpt lat="43.25624" lon="-2.91124">
        <ele>79</ele>
        <time>2021-05-29 16:49:23</time>
      </trkpt>
      <trkpt lat="43.25629" lon="-2.91124">
        <ele>79.2</ele>
        <time>2021-05-29 16:49:24</time>
      </trkpt>
      <trkpt lat="43.25633" lon="-2.91125">
        <ele>79.4</ele>
        <time>2021-05-29 16:49:25</time>
      </trkpt>
      <trkpt lat="43.25637" lon="-2.91127">
        <ele>79.4</ele>
        <time>2021-05-29 16:49:26</time>
      </trkpt>
      <trkpt lat="43.25641" lon="-2.9113">
        <ele>79.6</ele>
        <time>2021-05-29 16:49:27</time>
      </trkpt>
      <trkpt lat="43.25645" lon="-2.91134">
        <ele>79.8</ele>
        <time>2021-05-29 16:49:28</time>
      </trkpt>
      <trkpt lat="43.25647" lon="-2.91139">
        <ele>79.8</ele>
        <time>2021-05-29 16:49:29</time>
      </trkpt>
      <trkpt lat="43.25649" lon="-2.91145">
        <ele>80</ele>
        <time>2021-05-29 16:49:30</time>
      </trkpt>
      <trkpt lat="43.25651" lon="-2.9115">
        <ele>80</ele>
        <time>2021-05-29 16:49:31</time>
      </trkpt>
      <trkpt lat="43.25652" lon="-2.91155">
        <ele>80.2</ele>
        <time>2021-05-29 16:49:32</time>
      </trkpt>
      <trkpt lat="43.25653" lon="-2.91158">
        <ele>80.2</ele>
        <time>2021-05-29 16:49:33</time>
      </trkpt>
      <trkpt lat="43.25655" lon="-2.91161">
        <ele>80.2</ele>
        <time>2021-05-29 16:49:34</time>
      </trkpt>
      <trkpt lat="43.25656" lon="-2.91163">
        <ele>80.2</ele>
        <time>2021-05-29 16:49:35</time>
      </trkpt>
      <trkpt lat="43.25656" lon="-2.91165">
        <ele>80.6</ele>
        <time>2021-05-29 16:49:36</time>
      </trkpt>
      <trkpt lat="43.25657" lon="-2.91167">
        <ele>80.6</ele>
        <time>2021-05-29 16:49:37</time>
      </trkpt>
      <trkpt lat="43.25657" lon="-2.91168">
        <ele>80.6</ele>
        <time>2021-05-29 16:49:38</time>
      </trkpt>
      <trkpt lat="43.25658" lon="-2.91168">
        <ele>80.6</ele>
        <time>2021-05-29 16:49:39</time>
      </trkpt>
      <trkpt lat="43.25657" lon="-2.91168">
        <ele>80.6</ele>
        <time>2021-05-29 16:49:40</time>
      </trkpt>
      <trkpt lat="43.25658" lon="-2.91168">
        <ele>80.6</ele>
        <time>2021-05-29 16:49:41</time>
      </trkpt>
      <trkpt lat="43.25664" lon="-2.91175">
        <ele>80.2</ele>
        <time>2021-05-29 16:50:06</time>
      </trkpt>
      <trkpt lat="43.25668" lon="-2.91178">
        <ele>80.2</ele>
        <time>2021-05-29 16:50:07</time>
      </trkpt>
      <trkpt lat="43.25672" lon="-2.91181">
        <ele>80.2</ele>
        <time>2021-05-29 16:50:08</time>
      </trkpt>
      <trkpt lat="43.25677" lon="-2.91185">
        <ele>80.2</ele>
        <time>2021-05-29 16:50:09</time>
      </trkpt>
      <trkpt lat="43.25682" lon="-2.91189">
        <ele>80.2</ele>
        <time>2021-05-29 16:50:10</time>
      </trkpt>
      <trkpt lat="43.25687" lon="-2.91194">
        <ele>80.2</ele>
        <time>2021-05-29 16:50:11</time>
      </trkpt>
      <trkpt lat="43.25693" lon="-2.91198">
        <ele>80.2</ele>
        <time>2021-05-29 16:50:12</time>
      </trkpt>
      <trkpt lat="43.25699" lon="-2.91203">
        <ele>80.2</ele>
        <time>2021-05-29 16:50:13</time>
      </trkpt>
      <trkpt lat="43.25704" lon="-2.91208">
        <ele>80.2</ele>
        <time>2021-05-29 16:50:14</time>
      </trkpt>
      <trkpt lat="43.2571" lon="-2.91213">
        <ele>80.2</ele>
        <time>2021-05-29 16:50:15</time>
      </trkpt>
      <trkpt lat="43.25715" lon="-2.91218">
        <ele>80.4</ele>
        <time>2021-05-29 16:50:16</time>
      </trkpt>
      <trkpt lat="43.25721" lon="-2.91223">
        <ele>80.4</ele>
        <time>2021-05-29 16:50:17</time>
      </trkpt>
      <trkpt lat="43.25727" lon="-2.91227">
        <ele>80.4</ele>
        <time>2021-05-29 16:50:18</time>
      </trkpt>
      <trkpt lat="43.25733" lon="-2.91232">
        <ele>80.4</ele>
        <time>2021-05-29 16:50:19</time>
      </trkpt>
      <trkpt lat="43.25739" lon="-2.91237">
        <ele>80.4</ele>
        <time>2021-05-29 16:50:20</time>
      </trkpt>
      <trkpt lat="43.25745" lon="-2.91242">
        <ele>80.4</ele>
        <time>2021-05-29 16:50:21</time>
      </trkpt>
      <trkpt lat="43.25752" lon="-2.91246">
        <ele>80.4</ele>
        <time>2021-05-29 16:50:22</time>
      </trkpt>
      <trkpt lat="43.25759" lon="-2.9125">
        <ele>80.4</ele>
        <time>2021-05-29 16:50:23</time>
      </trkpt>
      <trkpt lat="43.25766" lon="-2.91254">
        <ele>80.4</ele>
        <time>2021-05-29 16:50:24</time>
      </trkpt>
      <trkpt lat="43.25773" lon="-2.91258">
        <ele>80.6</ele>
        <time>2021-05-29 16:50:25</time>
      </trkpt>
      <trkpt lat="43.25781" lon="-2.91261">
        <ele>80.6</ele>
        <time>2021-05-29 16:50:26</time>
      </trkpt>
      <trkpt lat="43.25789" lon="-2.91264">
        <ele>80.6</ele>
        <time>2021-05-29 16:50:27</time>
      </trkpt>
      <trkpt lat="43.25797" lon="-2.91267">
        <ele>80.6</ele>
        <time>2021-05-29 16:50:28</time>
      </trkpt>
      <trkpt lat="43.25805" lon="-2.9127">
        <ele>80.6</ele>
        <time>2021-05-29 16:50:29</time>
      </trkpt>
      <trkpt lat="43.25812" lon="-2.91273">
        <ele>80.6</ele>
        <time>2021-05-29 16:50:30</time>
      </trkpt>
      <trkpt lat="43.2582" lon="-2.91276">
        <ele>80.6</ele>
        <time>2021-05-29 16:50:31</time>
      </trkpt>
      <trkpt lat="43.25827" lon="-2.91279">
        <ele>80.6</ele>
        <time>2021-05-29 16:50:32</time>
      </trkpt>
      <trkpt lat="43.25835" lon="-2.91283">
        <ele>80.6</ele>
        <time>2021-05-29 16:50:33</time>
      </trkpt>
      <trkpt lat="43.25842" lon="-2.91286">
        <ele>80.6</ele>
        <time>2021-05-29 16:50:34</time>
      </trkpt>
      <trkpt lat="43.25848" lon="-2.91289">
        <ele>80.6</ele>
        <time>2021-05-29 16:50:35</time>
      </trkpt>
      <trkpt lat="43.25855" lon="-2.91292">
        <ele>80.6</ele>
        <time>2021-05-29 16:50:36</time>
      </trkpt>
      <trkpt lat="43.25861" lon="-2.91294">
        <ele>80.4</ele>
        <time>2021-05-29 16:50:37</time>
      </trkpt>
      <trkpt lat="43.25867" lon="-2.91296">
        <ele>80.4</ele>
        <time>2021-05-29 16:50:38</time>
      </trkpt>
      <trkpt lat="43.25874" lon="-2.913">
        <ele>80.2</ele>
        <time>2021-05-29 16:50:39</time>
      </trkpt>
      <trkpt lat="43.25881" lon="-2.91305">
        <ele>80.2</ele>
        <time>2021-05-29 16:50:40</time>
      </trkpt>
      <trkpt lat="43.25888" lon="-2.9131">
        <ele>80.2</ele>
        <time>2021-05-29 16:50:41</time>
      </trkpt>
      <trkpt lat="43.25895" lon="-2.91315">
        <ele>80.2</ele>
        <time>2021-05-29 16:50:42</time>
      </trkpt>
      <trkpt lat="43.25902" lon="-2.9132">
        <ele>80.2</ele>
        <time>2021-05-29 16:50:43</time>
      </trkpt>
      <trkpt lat="43.2591" lon="-2.91327">
        <ele>80.2</ele>
        <time>2021-05-29 16:50:44</time>
      </trkpt>
      <trkpt lat="43.25917" lon="-2.91331">
        <ele>80.2</ele>
        <time>2021-05-29 16:50:45</time>
      </trkpt>
      <trkpt lat="43.25928" lon="-2.9133">
        <ele>80.2</ele>
        <time>2021-05-29 16:50:46</time>
      </trkpt>
      <trkpt lat="43.25937" lon="-2.91331">
        <ele>80.2</ele>
        <time>2021-05-29 16:50:47</time>
      </trkpt>
      <trkpt lat="43.25945" lon="-2.91335">
        <ele>80.2</ele>
        <time>2021-05-29 16:50:48</time>
      </trkpt>
      <trkpt lat="43.25952" lon="-2.91339">
        <ele>80.2</ele>
        <time>2021-05-29 16:50:49</time>
      </trkpt>
      <trkpt lat="43.25959" lon="-2.91344">
        <ele>80.2</ele>
        <time>2021-05-29 16:50:50</time>
      </trkpt>
      <trkpt lat="43.25965" lon="-2.91349">
        <ele>80.2</ele>
        <time>2021-05-29 16:50:51</time>
      </trkpt>
      <trkpt lat="43.25972" lon="-2.91355">
        <ele>80.2</ele>
        <time>2021-05-29 16:50:52</time>
      </trkpt>
      <trkpt lat="43.25978" lon="-2.91361">
        <ele>80.2</ele>
        <time>2021-05-29 16:50:53</time>
      </trkpt>
      <trkpt lat="43.25985" lon="-2.91368">
        <ele>80.2</ele>
        <time>2021-05-29 16:50:54</time>
      </trkpt>
      <trkpt lat="43.25991" lon="-2.91374">
        <ele>80</ele>
        <time>2021-05-29 16:50:55</time>
      </trkpt>
      <trkpt lat="43.25997" lon="-2.91381">
        <ele>80</ele>
        <time>2021-05-29 16:50:56</time>
      </trkpt>
      <trkpt lat="43.26003" lon="-2.91387">
        <ele>80</ele>
        <time>2021-05-29 16:50:57</time>
      </trkpt>
      <trkpt lat="43.2601" lon="-2.91394">
        <ele>80</ele>
        <time>2021-05-29 16:50:58</time>
      </trkpt>
      <trkpt lat="43.26017" lon="-2.914">
        <ele>80</ele>
        <time>2021-05-29 16:50:59</time>
      </trkpt>
      <trkpt lat="43.26023" lon="-2.91408">
        <ele>79.8</ele>
        <time>2021-05-29 16:51:00</time>
      </trkpt>
      <trkpt lat="43.2603" lon="-2.91414">
        <ele>79.8</ele>
        <time>2021-05-29 16:51:01</time>
      </trkpt>
      <trkpt lat="43.26037" lon="-2.91421">
        <ele>79.8</ele>
        <time>2021-05-29 16:51:02</time>
      </trkpt>
      <trkpt lat="43.26043" lon="-2.91428">
        <ele>79.8</ele>
        <time>2021-05-29 16:51:03</time>
      </trkpt>
      <trkpt lat="43.2605" lon="-2.91436">
        <ele>79.8</ele>
        <time>2021-05-29 16:51:04</time>
      </trkpt>
      <trkpt lat="43.26056" lon="-2.91443">
        <ele>79.8</ele>
        <time>2021-05-29 16:51:05</time>
      </trkpt>
      <trkpt lat="43.26062" lon="-2.9145">
        <ele>79.8</ele>
        <time>2021-05-29 16:51:06</time>
      </trkpt>
      <trkpt lat="43.26069" lon="-2.91457">
        <ele>79.6</ele>
        <time>2021-05-29 16:51:07</time>
      </trkpt>
      <trkpt lat="43.26076" lon="-2.91464">
        <ele>79.6</ele>
        <time>2021-05-29 16:51:08</time>
      </trkpt>
      <trkpt lat="43.26083" lon="-2.91471">
        <ele>79.6</ele>
        <time>2021-05-29 16:51:09</time>
      </trkpt>
      <trkpt lat="43.26089" lon="-2.91478">
        <ele>79.4</ele>
        <time>2021-05-29 16:51:10</time>
      </trkpt>
      <trkpt lat="43.26096" lon="-2.91485">
        <ele>79.2</ele>
        <time>2021-05-29 16:51:11</time>
      </trkpt>
      <trkpt lat="43.26103" lon="-2.91492">
        <ele>79.2</ele>
        <time>2021-05-29 16:51:12</time>
      </trkpt>
      <trkpt lat="43.2611" lon="-2.91499">
        <ele>79</ele>
        <time>2021-05-29 16:51:13</time>
      </trkpt>
      <trkpt lat="43.26117" lon="-2.91507">
        <ele>79</ele>
        <time>2021-05-29 16:51:14</time>
      </trkpt>
      <trkpt lat="43.26124" lon="-2.91515">
        <ele>78.8</ele>
        <time>2021-05-29 16:51:15</time>
      </trkpt>
      <trkpt lat="43.26132" lon="-2.91522">
        <ele>78.8</ele>
        <time>2021-05-29 16:51:16</time>
      </trkpt>
      <trkpt lat="43.26139" lon="-2.91529">
        <ele>78.6</ele>
        <time>2021-05-29 16:51:17</time>
      </trkpt>
      <trkpt lat="43.26146" lon="-2.91537">
        <ele>78.2</ele>
        <time>2021-05-29 16:51:18</time>
      </trkpt>
      <trkpt lat="43.26154" lon="-2.91544">
        <ele>78</ele>
        <time>2021-05-29 16:51:19</time>
      </trkpt>
      <trkpt lat="43.26162" lon="-2.91552">
        <ele>77.8</ele>
        <time>2021-05-29 16:51:20</time>
      </trkpt>
      <trkpt lat="43.2617" lon="-2.91559">
        <ele>77.6</ele>
        <time>2021-05-29 16:51:21</time>
      </trkpt>
      <trkpt lat="43.26178" lon="-2.91567">
        <ele>77.4</ele>
        <time>2021-05-29 16:51:22</time>
      </trkpt>
      <trkpt lat="43.26186" lon="-2.91574">
        <ele>77</ele>
        <time>2021-05-29 16:51:23</time>
      </trkpt>
      <trkpt lat="43.26194" lon="-2.91582">
        <ele>76.8</ele>
        <time>2021-05-29 16:51:24</time>
      </trkpt>
      <trkpt lat="43.26202" lon="-2.9159">
        <ele>76.4</ele>
        <time>2021-05-29 16:51:25</time>
      </trkpt>
      <trkpt lat="43.2621" lon="-2.91598">
        <ele>76</ele>
        <time>2021-05-29 16:51:26</time>
      </trkpt>
      <trkpt lat="43.26218" lon="-2.91606">
        <ele>75.4</ele>
        <time>2021-05-29 16:51:27</time>
      </trkpt>
      <trkpt lat="43.26226" lon="-2.91614">
        <ele>74.8</ele>
        <time>2021-05-29 16:51:28</time>
      </trkpt>
      <trkpt lat="43.26235" lon="-2.91621">
        <ele>74</ele>
        <time>2021-05-29 16:51:29</time>
      </trkpt>
      <trkpt lat="43.26243" lon="-2.91629">
        <ele>73.4</ele>
        <time>2021-05-29 16:51:30</time>
      </trkpt>
      <trkpt lat="43.26251" lon="-2.91636">
        <ele>73</ele>
        <time>2021-05-29 16:51:31</time>
      </trkpt>
      <trkpt lat="43.26259" lon="-2.91643">
        <ele>72.6</ele>
        <time>2021-05-29 16:51:32</time>
      </trkpt>
      <trkpt lat="43.26267" lon="-2.91649">
        <ele>72.4</ele>
        <time>2021-05-29 16:51:33</time>
      </trkpt>
      <trkpt lat="43.26274" lon="-2.91656">
        <ele>71.8</ele>
        <time>2021-05-29 16:51:34</time>
      </trkpt>
      <trkpt lat="43.26283" lon="-2.91663">
        <ele>70.6</ele>
        <time>2021-05-29 16:51:35</time>
      </trkpt>
      <trkpt lat="43.26291" lon="-2.9167">
        <ele>70.2</ele>
        <time>2021-05-29 16:51:36</time>
      </trkpt>
      <trkpt lat="43.26299" lon="-2.91676">
        <ele>69.8</ele>
        <time>2021-05-29 16:51:37</time>
      </trkpt>
      <trkpt lat="43.26307" lon="-2.91683">
        <ele>69</ele>
        <time>2021-05-29 16:51:38</time>
      </trkpt>
      <trkpt lat="43.26316" lon="-2.91688">
        <ele>68.4</ele>
        <time>2021-05-29 16:51:39</time>
      </trkpt>
      <trkpt lat="43.26325" lon="-2.91693">
        <ele>67.8</ele>
        <time>2021-05-29 16:51:40</time>
      </trkpt>
      <trkpt lat="43.26334" lon="-2.91696">
        <ele>67.4</ele>
        <time>2021-05-29 16:51:41</time>
      </trkpt>
      <trkpt lat="43.26343" lon="-2.917">
        <ele>66.6</ele>
        <time>2021-05-29 16:51:42</time>
      </trkpt>
      <trkpt lat="43.26352" lon="-2.91702">
        <ele>65.8</ele>
        <time>2021-05-29 16:51:43</time>
      </trkpt>
      <trkpt lat="43.26361" lon="-2.91703">
        <ele>65.4</ele>
        <time>2021-05-29 16:51:44</time>
      </trkpt>
      <trkpt lat="43.2637" lon="-2.91704">
        <ele>65.2</ele>
        <time>2021-05-29 16:51:45</time>
      </trkpt>
      <trkpt lat="43.26377" lon="-2.91704">
        <ele>64.8</ele>
        <time>2021-05-29 16:51:46</time>
      </trkpt>
      <trkpt lat="43.26383" lon="-2.91704">
        <ele>64.4</ele>
        <time>2021-05-29 16:51:47</time>
      </trkpt>
      <trkpt lat="43.26389" lon="-2.91703">
        <ele>63.6</ele>
        <time>2021-05-29 16:51:48</time>
      </trkpt>
      <trkpt lat="43.26394" lon="-2.91702">
        <ele>63</ele>
        <time>2021-05-29 16:51:49</time>
      </trkpt>
      <trkpt lat="43.26397" lon="-2.91701">
        <ele>62.6</ele>
        <time>2021-05-29 16:51:50</time>
      </trkpt>
      <trkpt lat="43.26399" lon="-2.917">
        <ele>62.2</ele>
        <time>2021-05-29 16:51:51</time>
      </trkpt>
      <trkpt lat="43.26401" lon="-2.917">
        <ele>61.6</ele>
        <time>2021-05-29 16:51:52</time>
      </trkpt>
      <trkpt lat="43.26402" lon="-2.91699">
        <ele>61</ele>
        <time>2021-05-29 16:51:53</time>
      </trkpt>
      <trkpt lat="43.26402" lon="-2.91699">
        <ele>60.6</ele>
        <time>2021-05-29 16:51:54</time>
      </trkpt>
      <trkpt lat="43.26402" lon="-2.91698">
        <ele>60.2</ele>
        <time>2021-05-29 16:51:55</time>
      </trkpt>
      <trkpt lat="43.26404" lon="-2.91696">
        <ele>58.2</ele>
        <time>2021-05-29 16:52:27</time>
      </trkpt>
      <trkpt lat="43.26406" lon="-2.91695">
        <ele>58.2</ele>
        <time>2021-05-29 16:52:28</time>
      </trkpt>
      <trkpt lat="43.26407" lon="-2.91694">
        <ele>58.2</ele>
        <time>2021-05-29 16:52:29</time>
      </trkpt>
      <trkpt lat="43.26409" lon="-2.91693">
        <ele>58.2</ele>
        <time>2021-05-29 16:52:30</time>
      </trkpt>
      <trkpt lat="43.26412" lon="-2.91691">
        <ele>58.2</ele>
        <time>2021-05-29 16:52:31</time>
      </trkpt>
      <trkpt lat="43.26416" lon="-2.91689">
        <ele>58.2</ele>
        <time>2021-05-29 16:52:32</time>
      </trkpt>
      <trkpt lat="43.2642" lon="-2.91687">
        <ele>58.2</ele>
        <time>2021-05-29 16:52:33</time>
      </trkpt>
      <trkpt lat="43.26424" lon="-2.91685">
        <ele>58.2</ele>
        <time>2021-05-29 16:52:34</time>
      </trkpt>
      <trkpt lat="43.26428" lon="-2.91683">
        <ele>58.2</ele>
        <time>2021-05-29 16:52:35</time>
      </trkpt>
      <trkpt lat="43.26433" lon="-2.91681">
        <ele>58.2</ele>
        <time>2021-05-29 16:52:36</time>
      </trkpt>
      <trkpt lat="43.26438" lon="-2.91679">
        <ele>58.2</ele>
        <time>2021-05-29 16:52:37</time>
      </trkpt>
      <trkpt lat="43.26442" lon="-2.91678">
        <ele>58</ele>
        <time>2021-05-29 16:52:38</time>
      </trkpt>
      <trkpt lat="43.26447" lon="-2.91677">
        <ele>58</ele>
        <time>2021-05-29 16:52:39</time>
      </trkpt>
      <trkpt lat="43.26452" lon="-2.91677">
        <ele>57.8</ele>
        <time>2021-05-29 16:52:40</time>
      </trkpt>
      <trkpt lat="43.26456" lon="-2.91677">
        <ele>57.6</ele>
        <time>2021-05-29 16:52:41</time>
      </trkpt>
      <trkpt lat="43.2646" lon="-2.91677">
        <ele>57.4</ele>
        <time>2021-05-29 16:52:42</time>
      </trkpt>
      <trkpt lat="43.26463" lon="-2.91678">
        <ele>57.2</ele>
        <time>2021-05-29 16:52:43</time>
      </trkpt>
      <trkpt lat="43.26465" lon="-2.91678">
        <ele>56.8</ele>
        <time>2021-05-29 16:52:44</time>
      </trkpt>
      <trkpt lat="43.26466" lon="-2.91679">
        <ele>56.6</ele>
        <time>2021-05-29 16:52:45</time>
      </trkpt>
      <trkpt lat="43.26476" lon="-2.91689">
        <ele>54.8</ele>
        <time>2021-05-29 16:53:39</time>
      </trkpt>
      <trkpt lat="43.2648" lon="-2.9169">
        <ele>54.6</ele>
        <time>2021-05-29 16:53:40</time>
      </trkpt>
      <trkpt lat="43.26483" lon="-2.9169">
        <ele>54.6</ele>
        <time>2021-05-29 16:53:41</time>
      </trkpt>
      <trkpt lat="43.26487" lon="-2.91689">
        <ele>54.6</ele>
        <time>2021-05-29 16:53:42</time>
      </trkpt>
      <trkpt lat="43.26491" lon="-2.91688">
        <ele>54.6</ele>
        <time>2021-05-29 16:53:43</time>
      </trkpt>
      <trkpt lat="43.26496" lon="-2.91687">
        <ele>54.6</ele>
        <time>2021-05-29 16:53:44</time>
      </trkpt>
      <trkpt lat="43.26502" lon="-2.91686">
        <ele>54.4</ele>
        <time>2021-05-29 16:53:45</time>
      </trkpt>
      <trkpt lat="43.26508" lon="-2.91685">
        <ele>54.4</ele>
        <time>2021-05-29 16:53:46</time>
      </trkpt>
      <trkpt lat="43.26513" lon="-2.91685">
        <ele>54.4</ele>
        <time>2021-05-29 16:53:47</time>
      </trkpt>
      <trkpt lat="43.26518" lon="-2.91684">
        <ele>54.2</ele>
        <time>2021-05-29 16:53:48</time>
      </trkpt>
      <trkpt lat="43.26521" lon="-2.91684">
        <ele>54.2</ele>
        <time>2021-05-29 16:53:49</time>
      </trkpt>
      <trkpt lat="43.26524" lon="-2.91685">
        <ele>54.2</ele>
        <time>2021-05-29 16:53:50</time>
      </trkpt>
      <trkpt lat="43.26527" lon="-2.91684">
        <ele>54.2</ele>
        <time>2021-05-29 16:53:51</time>
      </trkpt>
      <trkpt lat="43.2653" lon="-2.91684">
        <ele>54.2</ele>
        <time>2021-05-29 16:53:52</time>
      </trkpt>
      <trkpt lat="43.26533" lon="-2.91683">
        <ele>54.2</ele>
        <time>2021-05-29 16:53:53</time>
      </trkpt>
      <trkpt lat="43.26536" lon="-2.91683">
        <ele>54.2</ele>
        <time>2021-05-29 16:53:54</time>
      </trkpt>
      <trkpt lat="43.26538" lon="-2.91683">
        <ele>54.4</ele>
        <time>2021-05-29 16:53:55</time>
      </trkpt>
      <trkpt lat="43.2654" lon="-2.91683">
        <ele>54.6</ele>
        <time>2021-05-29 16:53:56</time>
      </trkpt>
      <trkpt lat="43.26542" lon="-2.91683">
        <ele>54.8</ele>
        <time>2021-05-29 16:53:57</time>
      </trkpt>
      <trkpt lat="43.26543" lon="-2.91683">
        <ele>55</ele>
        <time>2021-05-29 16:53:58</time>
      </trkpt>
      <trkpt lat="43.26544" lon="-2.91683">
        <ele>55.4</ele>
        <time>2021-05-29 16:53:59</time>
      </trkpt>
      <trkpt lat="43.26545" lon="-2.91682">
        <ele>55.6</ele>
        <time>2021-05-29 16:54:00</time>
      </trkpt>
      <trkpt lat="43.26547" lon="-2.91681">
        <ele>55.6</ele>
        <time>2021-05-29 16:54:01</time>
      </trkpt>
      <trkpt lat="43.26549" lon="-2.9168">
        <ele>56</ele>
        <time>2021-05-29 16:54:02</time>
      </trkpt>
      <trkpt lat="43.2655" lon="-2.91679">
        <ele>56.2</ele>
        <time>2021-05-29 16:54:03</time>
      </trkpt>
      <trkpt lat="43.26551" lon="-2.91679">
        <ele>56.4</ele>
        <time>2021-05-29 16:54:04</time>
      </trkpt>
      <trkpt lat="43.26551" lon="-2.91679">
        <ele>56.6</ele>
        <time>2021-05-29 16:54:05</time>
      </trkpt>
      <trkpt lat="43.26556" lon="-2.91677">
        <ele>58.2</ele>
        <time>2021-05-29 16:54:35</time>
      </trkpt>
      <trkpt lat="43.26558" lon="-2.91676">
        <ele>58.2</ele>
        <time>2021-05-29 16:54:36</time>
      </trkpt>
      <trkpt lat="43.2656" lon="-2.91675">
        <ele>58.2</ele>
        <time>2021-05-29 16:54:37</time>
      </trkpt>
      <trkpt lat="43.26563" lon="-2.91674">
        <ele>58.2</ele>
        <time>2021-05-29 16:54:38</time>
      </trkpt>
      <trkpt lat="43.26566" lon="-2.91674">
        <ele>58.2</ele>
        <time>2021-05-29 16:54:39</time>
      </trkpt>
      <trkpt lat="43.26569" lon="-2.91673">
        <ele>58.2</ele>
        <time>2021-05-29 16:54:40</time>
      </trkpt>
      <trkpt lat="43.26572" lon="-2.91673">
        <ele>58.2</ele>
        <time>2021-05-29 16:54:41</time>
      </trkpt>
      <trkpt lat="43.26576" lon="-2.91673">
        <ele>58.4</ele>
        <time>2021-05-29 16:54:42</time>
      </trkpt>
      <trkpt lat="43.26579" lon="-2.91672">
        <ele>58.4</ele>
        <time>2021-05-29 16:54:43</time>
      </trkpt>
      <trkpt lat="43.26583" lon="-2.91672">
        <ele>58.4</ele>
        <time>2021-05-29 16:54:44</time>
      </trkpt>
      <trkpt lat="43.26586" lon="-2.91673">
        <ele>58.6</ele>
        <time>2021-05-29 16:54:45</time>
      </trkpt>
      <trkpt lat="43.26591" lon="-2.91673">
        <ele>58.6</ele>
        <time>2021-05-29 16:54:46</time>
      </trkpt>
      <trkpt lat="43.26595" lon="-2.91674">
        <ele>58.6</ele>
        <time>2021-05-29 16:54:47</time>
      </trkpt>
      <trkpt lat="43.26601" lon="-2.91675">
        <ele>58.8</ele>
        <time>2021-05-29 16:54:48</time>
      </trkpt>
      <trkpt lat="43.26607" lon="-2.91677">
        <ele>59</ele>
        <time>2021-05-29 16:54:49</time>
      </trkpt>
      <trkpt lat="43.26613" lon="-2.91679">
        <ele>59</ele>
        <time>2021-05-29 16:54:50</time>
      </trkpt>
      <trkpt lat="43.26617" lon="-2.91681">
        <ele>59.2</ele>
        <time>2021-05-29 16:54:51</time>
      </trkpt>
      <trkpt lat="43.26621" lon="-2.91682">
        <ele>59.4</ele>
        <time>2021-05-29 16:54:52</time>
      </trkpt>
      <trkpt lat="43.26625" lon="-2.91684">
        <ele>59.6</ele>
        <time>2021-05-29 16:54:53</time>
      </trkpt>
      <trkpt lat="43.26631" lon="-2.91686">
        <ele>59.6</ele>
        <time>2021-05-29 16:54:54</time>
      </trkpt>
      <trkpt lat="43.26636" lon="-2.91688">
        <ele>59.8</ele>
        <time>2021-05-29 16:54:55</time>
      </trkpt>
      <trkpt lat="43.2664" lon="-2.91691">
        <ele>59.8</ele>
        <time>2021-05-29 16:54:56</time>
      </trkpt>
      <trkpt lat="43.26645" lon="-2.91695">
        <ele>60</ele>
        <time>2021-05-29 16:54:57</time>
      </trkpt>
      <trkpt lat="43.2665" lon="-2.91698">
        <ele>60.2</ele>
        <time>2021-05-29 16:54:58</time>
      </trkpt>
      <trkpt lat="43.26655" lon="-2.917">
        <ele>60.4</ele>
        <time>2021-05-29 16:54:59</time>
      </trkpt>
      <trkpt lat="43.2666" lon="-2.91703">
        <ele>60.6</ele>
        <time>2021-05-29 16:55:00</time>
      </trkpt>
      <trkpt lat="43.26665" lon="-2.91707">
        <ele>60.6</ele>
        <time>2021-05-29 16:55:01</time>
      </trkpt>
      <trkpt lat="43.26669" lon="-2.9171">
        <ele>60.8</ele>
        <time>2021-05-29 16:55:02</time>
      </trkpt>
      <trkpt lat="43.26676" lon="-2.91712">
        <ele>61</ele>
        <time>2021-05-29 16:55:03</time>
      </trkpt>
      <trkpt lat="43.26683" lon="-2.91718">
        <ele>61.2</ele>
        <time>2021-05-29 16:55:04</time>
      </trkpt>
      <trkpt lat="43.26685" lon="-2.91723">
        <ele>61.6</ele>
        <time>2021-05-29 16:55:05</time>
      </trkpt>
      <trkpt lat="43.26688" lon="-2.91727">
        <ele>61.8</ele>
        <time>2021-05-29 16:55:06</time>
      </trkpt>
      <trkpt lat="43.26691" lon="-2.91731">
        <ele>62</ele>
        <time>2021-05-29 16:55:07</time>
      </trkpt>
      <trkpt lat="43.26694" lon="-2.91735">
        <ele>62.2</ele>
        <time>2021-05-29 16:55:08</time>
      </trkpt>
      <trkpt lat="43.26697" lon="-2.9174">
        <ele>62.2</ele>
        <time>2021-05-29 16:55:09</time>
      </trkpt>
      <trkpt lat="43.267" lon="-2.91744">
        <ele>62.4</ele>
        <time>2021-05-29 16:55:10</time>
      </trkpt>
      <trkpt lat="43.26703" lon="-2.91748">
        <ele>62.6</ele>
        <time>2021-05-29 16:55:11</time>
      </trkpt>
      <trkpt lat="43.26706" lon="-2.91752">
        <ele>62.8</ele>
        <time>2021-05-29 16:55:12</time>
      </trkpt>
      <trkpt lat="43.26713" lon="-2.91755">
        <ele>63</ele>
        <time>2021-05-29 16:55:13</time>
      </trkpt>
      <trkpt lat="43.26716" lon="-2.91759">
        <ele>63.2</ele>
        <time>2021-05-29 16:55:14</time>
      </trkpt>
      <trkpt lat="43.26719" lon="-2.91764">
        <ele>63.4</ele>
        <time>2021-05-29 16:55:15</time>
      </trkpt>
      <trkpt lat="43.26722" lon="-2.91769">
        <ele>63.6</ele>
        <time>2021-05-29 16:55:16</time>
      </trkpt>
      <trkpt lat="43.26725" lon="-2.91775">
        <ele>63.8</ele>
        <time>2021-05-29 16:55:17</time>
      </trkpt>
      <trkpt lat="43.26728" lon="-2.9178">
        <ele>64</ele>
        <time>2021-05-29 16:55:18</time>
      </trkpt>
      <trkpt lat="43.26731" lon="-2.91785">
        <ele>64.4</ele>
        <time>2021-05-29 16:55:19</time>
      </trkpt>
      <trkpt lat="43.26734" lon="-2.91791">
        <ele>64.6</ele>
        <time>2021-05-29 16:55:20</time>
      </trkpt>
      <trkpt lat="43.26737" lon="-2.91797">
        <ele>64.8</ele>
        <time>2021-05-29 16:55:21</time>
      </trkpt>
      <trkpt lat="43.26739" lon="-2.91802">
        <ele>64.8</ele>
        <time>2021-05-29 16:55:22</time>
      </trkpt>
      <trkpt lat="43.26742" lon="-2.91808">
        <ele>65.4</ele>
        <time>2021-05-29 16:55:23</time>
      </trkpt>
      <trkpt lat="43.26745" lon="-2.91813">
        <ele>65.6</ele>
        <time>2021-05-29 16:55:24</time>
      </trkpt>
      <trkpt lat="43.26748" lon="-2.91818">
        <ele>65.6</ele>
        <time>2021-05-29 16:55:25</time>
      </trkpt>
      <trkpt lat="43.26752" lon="-2.91824">
        <ele>66</ele>
        <time>2021-05-29 16:55:26</time>
      </trkpt>
      <trkpt lat="43.26756" lon="-2.9183">
        <ele>66.2</ele>
        <time>2021-05-29 16:55:27</time>
      </trkpt>
      <trkpt lat="43.2676" lon="-2.91835">
        <ele>66.4</ele>
        <time>2021-05-29 16:55:28</time>
      </trkpt>
      <trkpt lat="43.26764" lon="-2.91841">
        <ele>66.6</ele>
        <time>2021-05-29 16:55:29</time>
      </trkpt>
      <trkpt lat="43.26769" lon="-2.91846">
        <ele>66.8</ele>
        <time>2021-05-29 16:55:30</time>
      </trkpt>
      <trkpt lat="43.26773" lon="-2.91851">
        <ele>66.8</ele>
        <time>2021-05-29 16:55:31</time>
      </trkpt>
      <trkpt lat="43.26777" lon="-2.91857">
        <ele>67</ele>
        <time>2021-05-29 16:55:32</time>
      </trkpt>
      <trkpt lat="43.26781" lon="-2.91863">
        <ele>67.2</ele>
        <time>2021-05-29 16:55:33</time>
      </trkpt>
      <trkpt lat="43.26785" lon="-2.91869">
        <ele>67.2</ele>
        <time>2021-05-29 16:55:34</time>
      </trkpt>
      <trkpt lat="43.26789" lon="-2.91876">
        <ele>67.4</ele>
        <time>2021-05-29 16:55:35</time>
      </trkpt>
      <trkpt lat="43.26793" lon="-2.91882">
        <ele>67.4</ele>
        <time>2021-05-29 16:55:36</time>
      </trkpt>
      <trkpt lat="43.26796" lon="-2.91889">
        <ele>67.6</ele>
        <time>2021-05-29 16:55:37</time>
      </trkpt>
      <trkpt lat="43.26799" lon="-2.91896">
        <ele>67.6</ele>
        <time>2021-05-29 16:55:38</time>
      </trkpt>
      <trkpt lat="43.26803" lon="-2.91902">
        <ele>67.6</ele>
        <time>2021-05-29 16:55:39</time>
      </trkpt>
      <trkpt lat="43.26806" lon="-2.91909">
        <ele>67.6</ele>
        <time>2021-05-29 16:55:40</time>
      </trkpt>
      <trkpt lat="43.2681" lon="-2.91915">
        <ele>67.6</ele>
        <time>2021-05-29 16:55:41</time>
      </trkpt>
      <trkpt lat="43.26814" lon="-2.91922">
        <ele>67.6</ele>
        <time>2021-05-29 16:55:42</time>
      </trkpt>
      <trkpt lat="43.26819" lon="-2.91929">
        <ele>67.6</ele>
        <time>2021-05-29 16:55:43</time>
      </trkpt>
      <trkpt lat="43.26823" lon="-2.91935">
        <ele>67.6</ele>
        <time>2021-05-29 16:55:44</time>
      </trkpt>
      <trkpt lat="43.26827" lon="-2.91941">
        <ele>67.6</ele>
        <time>2021-05-29 16:55:45</time>
      </trkpt>
      <trkpt lat="43.26831" lon="-2.91947">
        <ele>67.6</ele>
        <time>2021-05-29 16:55:46</time>
      </trkpt>
      <trkpt lat="43.26835" lon="-2.91955">
        <ele>67.6</ele>
        <time>2021-05-29 16:55:47</time>
      </trkpt>
      <trkpt lat="43.26839" lon="-2.91962">
        <ele>67.6</ele>
        <time>2021-05-29 16:55:48</time>
      </trkpt>
      <trkpt lat="43.26842" lon="-2.91969">
        <ele>67.8</ele>
        <time>2021-05-29 16:55:49</time>
      </trkpt>
      <trkpt lat="43.26846" lon="-2.91975">
        <ele>67.8</ele>
        <time>2021-05-29 16:55:50</time>
      </trkpt>
      <trkpt lat="43.2685" lon="-2.91981">
        <ele>67.8</ele>
        <time>2021-05-29 16:55:51</time>
      </trkpt>
      <trkpt lat="43.26854" lon="-2.91988">
        <ele>68</ele>
        <time>2021-05-29 16:55:52</time>
      </trkpt>
      <trkpt lat="43.26857" lon="-2.91995">
        <ele>68.2</ele>
        <time>2021-05-29 16:55:53</time>
      </trkpt>
      <trkpt lat="43.26861" lon="-2.92001">
        <ele>68.4</ele>
        <time>2021-05-29 16:55:54</time>
      </trkpt>
      <trkpt lat="43.26864" lon="-2.92008">
        <ele>68.8</ele>
        <time>2021-05-29 16:55:55</time>
      </trkpt>
      <trkpt lat="43.26868" lon="-2.92014">
        <ele>69</ele>
        <time>2021-05-29 16:55:56</time>
      </trkpt>
      <trkpt lat="43.26872" lon="-2.92021">
        <ele>69.2</ele>
        <time>2021-05-29 16:55:57</time>
      </trkpt>
      <trkpt lat="43.26876" lon="-2.92027">
        <ele>69.4</ele>
        <time>2021-05-29 16:55:58</time>
      </trkpt>
      <trkpt lat="43.26879" lon="-2.92032">
        <ele>69.4</ele>
        <time>2021-05-29 16:55:59</time>
      </trkpt>
      <trkpt lat="43.26882" lon="-2.92037">
        <ele>69.8</ele>
        <time>2021-05-29 16:56:00</time>
      </trkpt>
      <trkpt lat="43.26884" lon="-2.92042">
        <ele>70</ele>
        <time>2021-05-29 16:56:01</time>
      </trkpt>
      <trkpt lat="43.26887" lon="-2.92047">
        <ele>70.2</ele>
        <time>2021-05-29 16:56:02</time>
      </trkpt>
      <trkpt lat="43.26889" lon="-2.92051">
        <ele>70.6</ele>
        <time>2021-05-29 16:56:03</time>
      </trkpt>
      <trkpt lat="43.26891" lon="-2.92055">
        <ele>70.8</ele>
        <time>2021-05-29 16:56:04</time>
      </trkpt>
      <trkpt lat="43.26893" lon="-2.92059">
        <ele>71</ele>
        <time>2021-05-29 16:56:05</time>
      </trkpt>
      <trkpt lat="43.26895" lon="-2.92062">
        <ele>71.2</ele>
        <time>2021-05-29 16:56:06</time>
      </trkpt>
      <trkpt lat="43.26896" lon="-2.92066">
        <ele>71.4</ele>
        <time>2021-05-29 16:56:07</time>
      </trkpt>
      <trkpt lat="43.26898" lon="-2.92068">
        <ele>71.6</ele>
        <time>2021-05-29 16:56:08</time>
      </trkpt>
      <trkpt lat="43.26899" lon="-2.92071">
        <ele>71.6</ele>
        <time>2021-05-29 16:56:09</time>
      </trkpt>
      <trkpt lat="43.269" lon="-2.92073">
        <ele>71.8</ele>
        <time>2021-05-29 16:56:10</time>
      </trkpt>
      <trkpt lat="43.26901" lon="-2.92074">
        <ele>72</ele>
        <time>2021-05-29 16:56:11</time>
      </trkpt>
      <trkpt lat="43.26902" lon="-2.92076">
        <ele>72</ele>
        <time>2021-05-29 16:56:12</time>
      </trkpt>
      <trkpt lat="43.26903" lon="-2.92077">
        <ele>72</ele>
        <time>2021-05-29 16:56:13</time>
      </trkpt>
      <trkpt lat="43.26904" lon="-2.92079">
        <ele>72.2</ele>
        <time>2021-05-29 16:56:14</time>
      </trkpt>
      <trkpt lat="43.26904" lon="-2.9208">
        <ele>72.2</ele>
        <time>2021-05-29 16:56:15</time>
      </trkpt>
      <trkpt lat="43.26905" lon="-2.92081">
        <ele>72.2</ele>
        <time>2021-05-29 16:56:16</time>
      </trkpt>
      <trkpt lat="43.26905" lon="-2.92081">
        <ele>72.2</ele>
        <time>2021-05-29 16:56:17</time>
      </trkpt>
      <trkpt lat="43.26908" lon="-2.92082">
        <ele>72.4</ele>
        <time>2021-05-29 16:56:38</time>
      </trkpt>
      <trkpt lat="43.26909" lon="-2.92084">
        <ele>72.4</ele>
        <time>2021-05-29 16:56:39</time>
      </trkpt>
      <trkpt lat="43.2691" lon="-2.92086">
        <ele>72.4</ele>
        <time>2021-05-29 16:56:40</time>
      </trkpt>
      <trkpt lat="43.26911" lon="-2.92089">
        <ele>72.4</ele>
        <time>2021-05-29 16:56:41</time>
      </trkpt>
      <trkpt lat="43.26913" lon="-2.92092">
        <ele>72.2</ele>
        <time>2021-05-29 16:56:42</time>
      </trkpt>
      <trkpt lat="43.26916" lon="-2.92096">
        <ele>72.2</ele>
        <time>2021-05-29 16:56:43</time>
      </trkpt>
      <trkpt lat="43.26918" lon="-2.921">
        <ele>72.2</ele>
        <time>2021-05-29 16:56:44</time>
      </trkpt>
      <trkpt lat="43.26921" lon="-2.92105">
        <ele>72.2</ele>
        <time>2021-05-29 16:56:45</time>
      </trkpt>
      <trkpt lat="43.26924" lon="-2.92111">
        <ele>72.2</ele>
        <time>2021-05-29 16:56:46</time>
      </trkpt>
      <trkpt lat="43.26928" lon="-2.92117">
        <ele>72.2</ele>
        <time>2021-05-29 16:56:47</time>
      </trkpt>
      <trkpt lat="43.26931" lon="-2.92123">
        <ele>72.2</ele>
        <time>2021-05-29 16:56:48</time>
      </trkpt>
      <trkpt lat="43.26934" lon="-2.9213">
        <ele>72.2</ele>
        <time>2021-05-29 16:56:49</time>
      </trkpt>
      <trkpt lat="43.26938" lon="-2.92137">
        <ele>72.2</ele>
        <time>2021-05-29 16:56:50</time>
      </trkpt>
      <trkpt lat="43.26941" lon="-2.92144">
        <ele>72.2</ele>
        <time>2021-05-29 16:56:51</time>
      </trkpt>
      <trkpt lat="43.26945" lon="-2.92151">
        <ele>72</ele>
        <time>2021-05-29 16:56:52</time>
      </trkpt>
      <trkpt lat="43.26949" lon="-2.92158">
        <ele>71.8</ele>
        <time>2021-05-29 16:56:53</time>
      </trkpt>
      <trkpt lat="43.26952" lon="-2.92166">
        <ele>71.6</ele>
        <time>2021-05-29 16:56:54</time>
      </trkpt>
      <trkpt lat="43.26956" lon="-2.92174">
        <ele>71.4</ele>
        <time>2021-05-29 16:56:55</time>
      </trkpt>
      <trkpt lat="43.26959" lon="-2.92182">
        <ele>71.4</ele>
        <time>2021-05-29 16:56:56</time>
      </trkpt>
      <trkpt lat="43.26963" lon="-2.9219">
        <ele>71.2</ele>
        <time>2021-05-29 16:56:57</time>
      </trkpt>
      <trkpt lat="43.26966" lon="-2.92199">
        <ele>71.2</ele>
        <time>2021-05-29 16:56:58</time>
      </trkpt>
      <trkpt lat="43.26969" lon="-2.92208">
        <ele>70.8</ele>
        <time>2021-05-29 16:56:59</time>
      </trkpt>
      <trkpt lat="43.26972" lon="-2.92218">
        <ele>70.6</ele>
        <time>2021-05-29 16:57:00</time>
      </trkpt>
      <trkpt lat="43.26975" lon="-2.92228">
        <ele>70.4</ele>
        <time>2021-05-29 16:57:01</time>
      </trkpt>
      <trkpt lat="43.26978" lon="-2.92238">
        <ele>70.2</ele>
        <time>2021-05-29 16:57:02</time>
      </trkpt>
      <trkpt lat="43.2698" lon="-2.92249">
        <ele>70</ele>
        <time>2021-05-29 16:57:03</time>
      </trkpt>
      <trkpt lat="43.26982" lon="-2.9226">
        <ele>69.6</ele>
        <time>2021-05-29 16:57:04</time>
      </trkpt>
      <trkpt lat="43.26985" lon="-2.92271">
        <ele>69.4</ele>
        <time>2021-05-29 16:57:05</time>
      </trkpt>
      <trkpt lat="43.26986" lon="-2.92283">
        <ele>69.2</ele>
        <time>2021-05-29 16:57:06</time>
      </trkpt>
      <trkpt lat="43.26988" lon="-2.92295">
        <ele>69</ele>
        <time>2021-05-29 16:57:07</time>
      </trkpt>
      <trkpt lat="43.26989" lon="-2.92307">
        <ele>68.6</ele>
        <time>2021-05-29 16:57:08</time>
      </trkpt>
      <trkpt lat="43.26991" lon="-2.9232">
        <ele>68.4</ele>
        <time>2021-05-29 16:57:09</time>
      </trkpt>
      <trkpt lat="43.26992" lon="-2.92332">
        <ele>67.8</ele>
        <time>2021-05-29 16:57:10</time>
      </trkpt>
      <trkpt lat="43.26993" lon="-2.92345">
        <ele>67.4</ele>
        <time>2021-05-29 16:57:11</time>
      </trkpt>
      <trkpt lat="43.26994" lon="-2.92359">
        <ele>67.2</ele>
        <time>2021-05-29 16:57:12</time>
      </trkpt>
      <trkpt lat="43.26994" lon="-2.92372">
        <ele>66.6</ele>
        <time>2021-05-29 16:57:13</time>
      </trkpt>
      <trkpt lat="43.26994" lon="-2.92386">
        <ele>66</ele>
        <time>2021-05-29 16:57:14</time>
      </trkpt>
      <trkpt lat="43.26994" lon="-2.924">
        <ele>65.6</ele>
        <time>2021-05-29 16:57:15</time>
      </trkpt>
      <trkpt lat="43.26994" lon="-2.92414">
        <ele>65.2</ele>
        <time>2021-05-29 16:57:16</time>
      </trkpt>
      <trkpt lat="43.26994" lon="-2.92428">
        <ele>64.8</ele>
        <time>2021-05-29 16:57:17</time>
      </trkpt>
      <trkpt lat="43.26994" lon="-2.92442">
        <ele>64.2</ele>
        <time>2021-05-29 16:57:18</time>
      </trkpt>
      <trkpt lat="43.26994" lon="-2.92457">
        <ele>63.2</ele>
        <time>2021-05-29 16:57:19</time>
      </trkpt>
      <trkpt lat="43.26994" lon="-2.92472">
        <ele>62.8</ele>
        <time>2021-05-29 16:57:20</time>
      </trkpt>
      <trkpt lat="43.26995" lon="-2.92487">
        <ele>62.2</ele>
        <time>2021-05-29 16:57:21</time>
      </trkpt>
      <trkpt lat="43.26995" lon="-2.92501">
        <ele>61.8</ele>
        <time>2021-05-29 16:57:22</time>
      </trkpt>
      <trkpt lat="43.26996" lon="-2.92516">
        <ele>61.4</ele>
        <time>2021-05-29 16:57:23</time>
      </trkpt>
      <trkpt lat="43.26997" lon="-2.9253">
        <ele>61.2</ele>
        <time>2021-05-29 16:57:24</time>
      </trkpt>
      <trkpt lat="43.26998" lon="-2.92544">
        <ele>60.6</ele>
        <time>2021-05-29 16:57:25</time>
      </trkpt>
      <trkpt lat="43.27" lon="-2.92559">
        <ele>59.8</ele>
        <time>2021-05-29 16:57:26</time>
      </trkpt>
      <trkpt lat="43.27002" lon="-2.92573">
        <ele>59.4</ele>
        <time>2021-05-29 16:57:27</time>
      </trkpt>
      <trkpt lat="43.27005" lon="-2.92588">
        <ele>59</ele>
        <time>2021-05-29 16:57:28</time>
      </trkpt>
      <trkpt lat="43.27007" lon="-2.92602">
        <ele>58.4</ele>
        <time>2021-05-29 16:57:29</time>
      </trkpt>
      <trkpt lat="43.2701" lon="-2.92617">
        <ele>58</ele>
        <time>2021-05-29 16:57:30</time>
      </trkpt>
      <trkpt lat="43.27012" lon="-2.92631">
        <ele>57.4</ele>
        <time>2021-05-29 16:57:31</time>
      </trkpt>
      <trkpt lat="43.27015" lon="-2.92646">
        <ele>57.2</ele>
        <time>2021-05-29 16:57:32</time>
      </trkpt>
      <trkpt lat="43.27018" lon="-2.9266">
        <ele>56.6</ele>
        <time>2021-05-29 16:57:33</time>
      </trkpt>
      <trkpt lat="43.27021" lon="-2.92675">
        <ele>56.4</ele>
        <time>2021-05-29 16:57:34</time>
      </trkpt>
      <trkpt lat="43.27023" lon="-2.9269">
        <ele>56</ele>
        <time>2021-05-29 16:57:35</time>
      </trkpt>
      <trkpt lat="43.27026" lon="-2.92704">
        <ele>55.4</ele>
        <time>2021-05-29 16:57:36</time>
      </trkpt>
      <trkpt lat="43.27029" lon="-2.92719">
        <ele>55</ele>
        <time>2021-05-29 16:57:37</time>
      </trkpt>
      <trkpt lat="43.27032" lon="-2.92733">
        <ele>54.2</ele>
        <time>2021-05-29 16:57:38</time>
      </trkpt>
      <trkpt lat="43.27036" lon="-2.92748">
        <ele>53.6</ele>
        <time>2021-05-29 16:57:39</time>
      </trkpt>
      <trkpt lat="43.27038" lon="-2.92763">
        <ele>53</ele>
        <time>2021-05-29 16:57:40</time>
      </trkpt>
      <trkpt lat="43.27041" lon="-2.92778">
        <ele>52.4</ele>
        <time>2021-05-29 16:57:41</time>
      </trkpt>
      <trkpt lat="43.27044" lon="-2.92794">
        <ele>52</ele>
        <time>2021-05-29 16:57:42</time>
      </trkpt>
      <trkpt lat="43.27046" lon="-2.92809">
        <ele>51.4</ele>
        <time>2021-05-29 16:57:43</time>
      </trkpt>
      <trkpt lat="43.27047" lon="-2.92825">
        <ele>51</ele>
        <time>2021-05-29 16:57:44</time>
      </trkpt>
      <trkpt lat="43.27048" lon="-2.9284">
        <ele>50.2</ele>
        <time>2021-05-29 16:57:45</time>
      </trkpt>
      <trkpt lat="43.27049" lon="-2.92855">
        <ele>49.8</ele>
        <time>2021-05-29 16:57:46</time>
      </trkpt>
      <trkpt lat="43.27049" lon="-2.9287">
        <ele>49.2</ele>
        <time>2021-05-29 16:57:47</time>
      </trkpt>
      <trkpt lat="43.27048" lon="-2.92884">
        <ele>48.8</ele>
        <time>2021-05-29 16:57:48</time>
      </trkpt>
      <trkpt lat="43.27047" lon="-2.92898">
        <ele>48.4</ele>
        <time>2021-05-29 16:57:49</time>
      </trkpt>
      <trkpt lat="43.27045" lon="-2.92912">
        <ele>47.8</ele>
        <time>2021-05-29 16:57:50</time>
      </trkpt>
      <trkpt lat="43.27044" lon="-2.92927">
        <ele>47.4</ele>
        <time>2021-05-29 16:57:51</time>
      </trkpt>
      <trkpt lat="43.27042" lon="-2.92942">
        <ele>46.6</ele>
        <time>2021-05-29 16:57:52</time>
      </trkpt>
      <trkpt lat="43.2704" lon="-2.92957">
        <ele>45.8</ele>
        <time>2021-05-29 16:57:53</time>
      </trkpt>
      <trkpt lat="43.27039" lon="-2.92972">
        <ele>44.8</ele>
        <time>2021-05-29 16:57:54</time>
      </trkpt>
      <trkpt lat="43.27038" lon="-2.92988">
        <ele>44.2</ele>
        <time>2021-05-29 16:57:55</time>
      </trkpt>
      <trkpt lat="43.27037" lon="-2.93004">
        <ele>43.6</ele>
        <time>2021-05-29 16:57:56</time>
      </trkpt>
      <trkpt lat="43.27037" lon="-2.93021">
        <ele>43.2</ele>
        <time>2021-05-29 16:57:57</time>
      </trkpt>
      <trkpt lat="43.27038" lon="-2.93037">
        <ele>42.6</ele>
        <time>2021-05-29 16:57:58</time>
      </trkpt>
      <trkpt lat="43.27039" lon="-2.93053">
        <ele>42</ele>
        <time>2021-05-29 16:57:59</time>
      </trkpt>
      <trkpt lat="43.27041" lon="-2.9307">
        <ele>41.4</ele>
        <time>2021-05-29 16:58:00</time>
      </trkpt>
      <trkpt lat="43.27043" lon="-2.93087">
        <ele>40.6</ele>
        <time>2021-05-29 16:58:01</time>
      </trkpt>
      <trkpt lat="43.27045" lon="-2.93104">
        <ele>40</ele>
        <time>2021-05-29 16:58:02</time>
      </trkpt>
      <trkpt lat="43.27048" lon="-2.93121">
        <ele>39.4</ele>
        <time>2021-05-29 16:58:03</time>
      </trkpt>
      <trkpt lat="43.27051" lon="-2.93137">
        <ele>39</ele>
        <time>2021-05-29 16:58:04</time>
      </trkpt>
      <trkpt lat="43.27055" lon="-2.93154">
        <ele>38.4</ele>
        <time>2021-05-29 16:58:05</time>
      </trkpt>
      <trkpt lat="43.27059" lon="-2.93169">
        <ele>37.8</ele>
        <time>2021-05-29 16:58:06</time>
      </trkpt>
      <trkpt lat="43.27063" lon="-2.93184">
        <ele>37.2</ele>
        <time>2021-05-29 16:58:07</time>
      </trkpt>
      <trkpt lat="43.27068" lon="-2.93198">
        <ele>36.4</ele>
        <time>2021-05-29 16:58:08</time>
      </trkpt>
      <trkpt lat="43.27072" lon="-2.93211">
        <ele>35.8</ele>
        <time>2021-05-29 16:58:09</time>
      </trkpt>
      <trkpt lat="43.27077" lon="-2.93223">
        <ele>35.4</ele>
        <time>2021-05-29 16:58:10</time>
      </trkpt>
      <trkpt lat="43.27082" lon="-2.93235">
        <ele>35.2</ele>
        <time>2021-05-29 16:58:11</time>
      </trkpt>
      <trkpt lat="43.27086" lon="-2.93246">
        <ele>35.2</ele>
        <time>2021-05-29 16:58:12</time>
      </trkpt>
      <trkpt lat="43.2709" lon="-2.93256">
        <ele>35</ele>
        <time>2021-05-29 16:58:13</time>
      </trkpt>
      <trkpt lat="43.27094" lon="-2.93265">
        <ele>35</ele>
        <time>2021-05-29 16:58:14</time>
      </trkpt>
      <trkpt lat="43.271" lon="-2.93272">
        <ele>35</ele>
        <time>2021-05-29 16:58:15</time>
      </trkpt>
      <trkpt lat="43.27106" lon="-2.93276">
        <ele>35</ele>
        <time>2021-05-29 16:58:16</time>
      </trkpt>
      <trkpt lat="43.27113" lon="-2.93278">
        <ele>35</ele>
        <time>2021-05-29 16:58:17</time>
      </trkpt>
      <trkpt lat="43.2712" lon="-2.93279">
        <ele>35</ele>
        <time>2021-05-29 16:58:18</time>
      </trkpt>
      <trkpt lat="43.27126" lon="-2.93277">
        <ele>35.2</ele>
        <time>2021-05-29 16:58:19</time>
      </trkpt>
      <trkpt lat="43.27132" lon="-2.93274">
        <ele>35.4</ele>
        <time>2021-05-29 16:58:20</time>
      </trkpt>
      <trkpt lat="43.27138" lon="-2.93269">
        <ele>35.8</ele>
        <time>2021-05-29 16:58:21</time>
      </trkpt>
      <trkpt lat="43.27144" lon="-2.93265">
        <ele>36.4</ele>
        <time>2021-05-29 16:58:22</time>
      </trkpt>
      <trkpt lat="43.27149" lon="-2.93259">
        <ele>36.8</ele>
        <time>2021-05-29 16:58:23</time>
      </trkpt>
      <trkpt lat="43.27153" lon="-2.93252">
        <ele>37</ele>
        <time>2021-05-29 16:58:24</time>
      </trkpt>
      <trkpt lat="43.27157" lon="-2.93244">
        <ele>37.4</ele>
        <time>2021-05-29 16:58:25</time>
      </trkpt>
      <trkpt lat="43.27159" lon="-2.93236">
        <ele>37.6</ele>
        <time>2021-05-29 16:58:26</time>
      </trkpt>
      <trkpt lat="43.27159" lon="-2.93227">
        <ele>38</ele>
        <time>2021-05-29 16:58:27</time>
      </trkpt>
      <trkpt lat="43.27158" lon="-2.93218">
        <ele>38.4</ele>
        <time>2021-05-29 16:58:28</time>
      </trkpt>
      <trkpt lat="43.27155" lon="-2.93209">
        <ele>38.8</ele>
        <time>2021-05-29 16:58:29</time>
      </trkpt>
      <trkpt lat="43.27152" lon="-2.93201">
        <ele>39.4</ele>
        <time>2021-05-29 16:58:30</time>
      </trkpt>
      <trkpt lat="43.27147" lon="-2.93192">
        <ele>39.6</ele>
        <time>2021-05-29 16:58:31</time>
      </trkpt>
      <trkpt lat="43.27142" lon="-2.93185">
        <ele>40</ele>
        <time>2021-05-29 16:58:32</time>
      </trkpt>
      <trkpt lat="43.27137" lon="-2.93178">
        <ele>40.6</ele>
        <time>2021-05-29 16:58:33</time>
      </trkpt>
      <trkpt lat="43.27131" lon="-2.93173">
        <ele>41.2</ele>
        <time>2021-05-29 16:58:34</time>
      </trkpt>
      <trkpt lat="43.27125" lon="-2.93168">
        <ele>41.6</ele>
        <time>2021-05-29 16:58:35</time>
      </trkpt>
      <trkpt lat="43.27119" lon="-2.93163">
        <ele>41.8</ele>
        <time>2021-05-29 16:58:36</time>
      </trkpt>
      <trkpt lat="43.27113" lon="-2.93158">
        <ele>42</ele>
        <time>2021-05-29 16:58:37</time>
      </trkpt>
      <trkpt lat="43.27107" lon="-2.93154">
        <ele>42</ele>
        <time>2021-05-29 16:58:38</time>
      </trkpt>
      <trkpt lat="43.271" lon="-2.9315">
        <ele>42.2</ele>
        <time>2021-05-29 16:58:39</time>
      </trkpt>
      <trkpt lat="43.27093" lon="-2.93147">
        <ele>42.2</ele>
        <time>2021-05-29 16:58:40</time>
      </trkpt>
      <trkpt lat="43.27087" lon="-2.93143">
        <ele>42.2</ele>
        <time>2021-05-29 16:58:41</time>
      </trkpt>
      <trkpt lat="43.2708" lon="-2.9314">
        <ele>42.2</ele>
        <time>2021-05-29 16:58:42</time>
      </trkpt>
      <trkpt lat="43.27072" lon="-2.93138">
        <ele>42.2</ele>
        <time>2021-05-29 16:58:43</time>
      </trkpt>
      <trkpt lat="43.27064" lon="-2.93136">
        <ele>42.2</ele>
        <time>2021-05-29 16:58:44</time>
      </trkpt>
      <trkpt lat="43.27056" lon="-2.93135">
        <ele>42</ele>
        <time>2021-05-29 16:58:45</time>
      </trkpt>
      <trkpt lat="43.27047" lon="-2.93134">
        <ele>42</ele>
        <time>2021-05-29 16:58:46</time>
      </trkpt>
      <trkpt lat="43.27038" lon="-2.93134">
        <ele>41.8</ele>
        <time>2021-05-29 16:58:47</time>
      </trkpt>
      <trkpt lat="43.27029" lon="-2.93135">
        <ele>41.8</ele>
        <time>2021-05-29 16:58:48</time>
      </trkpt>
      <trkpt lat="43.27019" lon="-2.93136">
        <ele>41.6</ele>
        <time>2021-05-29 16:58:49</time>
      </trkpt>
      <trkpt lat="43.27009" lon="-2.93139">
        <ele>41.2</ele>
        <time>2021-05-29 16:58:50</time>
      </trkpt>
      <trkpt lat="43.26999" lon="-2.93143">
        <ele>40.8</ele>
        <time>2021-05-29 16:58:51</time>
      </trkpt>
      <trkpt lat="43.26989" lon="-2.93148">
        <ele>40.6</ele>
        <time>2021-05-29 16:58:52</time>
      </trkpt>
      <trkpt lat="43.26979" lon="-2.93154">
        <ele>40</ele>
        <time>2021-05-29 16:58:53</time>
      </trkpt>
      <trkpt lat="43.26969" lon="-2.93161">
        <ele>39.6</ele>
        <time>2021-05-29 16:58:54</time>
      </trkpt>
      <trkpt lat="43.2696" lon="-2.9317">
        <ele>39.2</ele>
        <time>2021-05-29 16:58:55</time>
      </trkpt>
      <trkpt lat="43.26951" lon="-2.93178">
        <ele>38.6</ele>
        <time>2021-05-29 16:58:56</time>
      </trkpt>
      <trkpt lat="43.26942" lon="-2.93187">
        <ele>38.2</ele>
        <time>2021-05-29 16:58:57</time>
      </trkpt>
      <trkpt lat="43.26933" lon="-2.93196">
        <ele>37.6</ele>
        <time>2021-05-29 16:58:58</time>
      </trkpt>
      <trkpt lat="43.26925" lon="-2.93205">
        <ele>37.2</ele>
        <time>2021-05-29 16:58:59</time>
      </trkpt>
      <trkpt lat="43.26916" lon="-2.93214">
        <ele>36.6</ele>
        <time>2021-05-29 16:59:00</time>
      </trkpt>
      <trkpt lat="43.26908" lon="-2.93222">
        <ele>36</ele>
        <time>2021-05-29 16:59:01</time>
      </trkpt>
      <trkpt lat="43.26899" lon="-2.93231">
        <ele>35</ele>
        <time>2021-05-29 16:59:02</time>
      </trkpt>
      <trkpt lat="43.2689" lon="-2.9324">
        <ele>33.4</ele>
        <time>2021-05-29 16:59:03</time>
      </trkpt>
      <trkpt lat="43.26881" lon="-2.93248">
        <ele>32.8</ele>
        <time>2021-05-29 16:59:04</time>
      </trkpt>
      <trkpt lat="43.26871" lon="-2.93256">
        <ele>32.2</ele>
        <time>2021-05-29 16:59:05</time>
      </trkpt>
      <trkpt lat="43.26862" lon="-2.93264">
        <ele>31.4</ele>
        <time>2021-05-29 16:59:06</time>
      </trkpt>
      <trkpt lat="43.26853" lon="-2.9327">
        <ele>30.8</ele>
        <time>2021-05-29 16:59:07</time>
      </trkpt>
      <trkpt lat="43.26844" lon="-2.93277">
        <ele>30</ele>
        <time>2021-05-29 16:59:08</time>
      </trkpt>
      <trkpt lat="43.26836" lon="-2.93282">
        <ele>28.8</ele>
        <time>2021-05-29 16:59:09</time>
      </trkpt>
      <trkpt lat="43.26829" lon="-2.93286">
        <ele>28.2</ele>
        <time>2021-05-29 16:59:10</time>
      </trkpt>
      <trkpt lat="43.26822" lon="-2.9329">
        <ele>27.4</ele>
        <time>2021-05-29 16:59:11</time>
      </trkpt>
      <trkpt lat="43.26816" lon="-2.93293">
        <ele>26.8</ele>
        <time>2021-05-29 16:59:12</time>
      </trkpt>
      <trkpt lat="43.26812" lon="-2.93295">
        <ele>26.4</ele>
        <time>2021-05-29 16:59:13</time>
      </trkpt>
      <trkpt lat="43.26808" lon="-2.93296">
        <ele>26</ele>
        <time>2021-05-29 16:59:14</time>
      </trkpt>
      <trkpt lat="43.26805" lon="-2.93297">
        <ele>25.2</ele>
        <time>2021-05-29 16:59:15</time>
      </trkpt>
      <trkpt lat="43.26803" lon="-2.93298">
        <ele>24.6</ele>
        <time>2021-05-29 16:59:16</time>
      </trkpt>
      <trkpt lat="43.26801" lon="-2.93298">
        <ele>23.8</ele>
        <time>2021-05-29 16:59:17</time>
      </trkpt>
      <trkpt lat="43.26799" lon="-2.93298">
        <ele>23</ele>
        <time>2021-05-29 16:59:18</time>
      </trkpt>
      <trkpt lat="43.26798" lon="-2.93299">
        <ele>22.6</ele>
        <time>2021-05-29 16:59:19</time>
      </trkpt>
      <trkpt lat="43.26795" lon="-2.933">
        <ele>22</ele>
        <time>2021-05-29 16:59:20</time>
      </trkpt>
      <trkpt lat="43.26794" lon="-2.93302">
        <ele>21.4</ele>
        <time>2021-05-29 16:59:21</time>
      </trkpt>
      <trkpt lat="43.26792" lon="-2.93306">
        <ele>21</ele>
        <time>2021-05-29 16:59:22</time>
      </trkpt>
      <trkpt lat="43.26792" lon="-2.9331">
        <ele>20.6</ele>
        <time>2021-05-29 16:59:23</time>
      </trkpt>
      <trkpt lat="43.26793" lon="-2.93314">
        <ele>20.4</ele>
        <time>2021-05-29 16:59:24</time>
      </trkpt>
      <trkpt lat="43.26794" lon="-2.93319">
        <ele>20.2</ele>
        <time>2021-05-29 16:59:25</time>
      </trkpt>
      <trkpt lat="43.26794" lon="-2.93324">
        <ele>20</ele>
        <time>2021-05-29 16:59:26</time>
      </trkpt>
      <trkpt lat="43.26794" lon="-2.93329">
        <ele>20</ele>
        <time>2021-05-29 16:59:27</time>
      </trkpt>
      <trkpt lat="43.26794" lon="-2.93335">
        <ele>20</ele>
        <time>2021-05-29 16:59:28</time>
      </trkpt>
      <trkpt lat="43.26793" lon="-2.9334">
        <ele>19.8</ele>
        <time>2021-05-29 16:59:29</time>
      </trkpt>
      <trkpt lat="43.26792" lon="-2.93346">
        <ele>19.8</ele>
        <time>2021-05-29 16:59:30</time>
      </trkpt>
      <trkpt lat="43.2679" lon="-2.93351">
        <ele>19.8</ele>
        <time>2021-05-29 16:59:31</time>
      </trkpt>
      <trkpt lat="43.26787" lon="-2.93356">
        <ele>19.8</ele>
        <time>2021-05-29 16:59:32</time>
      </trkpt>
      <trkpt lat="43.26785" lon="-2.93361">
        <ele>19.8</ele>
        <time>2021-05-29 16:59:33</time>
      </trkpt>
      <trkpt lat="43.26783" lon="-2.93367">
        <ele>19.6</ele>
        <time>2021-05-29 16:59:34</time>
      </trkpt>
      <trkpt lat="43.26781" lon="-2.93372">
        <ele>19.6</ele>
        <time>2021-05-29 16:59:35</time>
      </trkpt>
      <trkpt lat="43.26778" lon="-2.93377">
        <ele>19.6</ele>
        <time>2021-05-29 16:59:36</time>
      </trkpt>
      <trkpt lat="43.26777" lon="-2.93382">
        <ele>19.4</ele>
        <time>2021-05-29 16:59:37</time>
      </trkpt>
      <trkpt lat="43.26775" lon="-2.93387">
        <ele>19.4</ele>
        <time>2021-05-29 16:59:38</time>
      </trkpt>
      <trkpt lat="43.26773" lon="-2.93392">
        <ele>19.2</ele>
        <time>2021-05-29 16:59:39</time>
      </trkpt>
      <trkpt lat="43.26771" lon="-2.93398">
        <ele>19.2</ele>
        <time>2021-05-29 16:59:40</time>
      </trkpt>
      <trkpt lat="43.26768" lon="-2.93403">
        <ele>19.2</ele>
        <time>2021-05-29 16:59:41</time>
      </trkpt>
      <trkpt lat="43.26766" lon="-2.9341">
        <ele>19.2</ele>
        <time>2021-05-29 16:59:42</time>
      </trkpt>
      <trkpt lat="43.26765" lon="-2.93416">
        <ele>19</ele>
        <time>2021-05-29 16:59:43</time>
      </trkpt>
      <trkpt lat="43.26763" lon="-2.93423">
        <ele>19</ele>
        <time>2021-05-29 16:59:44</time>
      </trkpt>
      <trkpt lat="43.26762" lon="-2.9343">
        <ele>19</ele>
        <time>2021-05-29 16:59:45</time>
      </trkpt>
      <trkpt lat="43.2676" lon="-2.93436">
        <ele>18.8</ele>
        <time>2021-05-29 16:59:46</time>
      </trkpt>
      <trkpt lat="43.26758" lon="-2.93442">
        <ele>18.6</ele>
        <time>2021-05-29 16:59:47</time>
      </trkpt>
      <trkpt lat="43.26757" lon="-2.93448">
        <ele>18.4</ele>
        <time>2021-05-29 16:59:48</time>
      </trkpt>
      <trkpt lat="43.26755" lon="-2.93454">
        <ele>18.2</ele>
        <time>2021-05-29 16:59:49</time>
      </trkpt>
      <trkpt lat="43.26754" lon="-2.93459">
        <ele>18</ele>
        <time>2021-05-29 16:59:50</time>
      </trkpt>
      <trkpt lat="43.26754" lon="-2.93464">
        <ele>17.6</ele>
        <time>2021-05-29 16:59:51</time>
      </trkpt>
      <trkpt lat="43.26755" lon="-2.93468">
        <ele>17.4</ele>
        <time>2021-05-29 16:59:52</time>
      </trkpt>
      <trkpt lat="43.26756" lon="-2.9347">
        <ele>17.2</ele>
        <time>2021-05-29 16:59:53</time>
      </trkpt>
      <trkpt lat="43.26758" lon="-2.93472">
        <ele>17.2</ele>
        <time>2021-05-29 16:59:54</time>
      </trkpt>
      <trkpt lat="43.26761" lon="-2.93474">
        <ele>17</ele>
        <time>2021-05-29 16:59:55</time>
      </trkpt>
      <trkpt lat="43.26764" lon="-2.93474">
        <ele>16.8</ele>
        <time>2021-05-29 16:59:56</time>
      </trkpt>
      <trkpt lat="43.26765" lon="-2.93474">
        <ele>17</ele>
        <time>2021-05-29 16:59:57</time>
      </trkpt>
      <trkpt lat="43.26767" lon="-2.93475">
        <ele>16.8</ele>
        <time>2021-05-29 16:59:58</time>
      </trkpt>
      <trkpt lat="43.26774" lon="-2.93471">
        <ele>16</ele>
        <time>2021-05-29 17:01:03</time>
      </trkpt>
      <trkpt lat="43.26776" lon="-2.93469">
        <ele>16</ele>
        <time>2021-05-29 17:01:04</time>
      </trkpt>
      <trkpt lat="43.26777" lon="-2.93468">
        <ele>16</ele>
        <time>2021-05-29 17:01:05</time>
      </trkpt>
      <trkpt lat="43.26779" lon="-2.93467">
        <ele>16</ele>
        <time>2021-05-29 17:01:06</time>
      </trkpt>
      <trkpt lat="43.26781" lon="-2.93465">
        <ele>16</ele>
        <time>2021-05-29 17:01:07</time>
      </trkpt>
      <trkpt lat="43.26782" lon="-2.93464">
        <ele>15.8</ele>
        <time>2021-05-29 17:01:08</time>
      </trkpt>
      <trkpt lat="43.26783" lon="-2.93462">
        <ele>15.8</ele>
        <time>2021-05-29 17:01:09</time>
      </trkpt>
      <trkpt lat="43.26785" lon="-2.9346">
        <ele>15.8</ele>
        <time>2021-05-29 17:01:10</time>
      </trkpt>
      <trkpt lat="43.26786" lon="-2.93458">
        <ele>15.8</ele>
        <time>2021-05-29 17:01:11</time>
      </trkpt>
      <trkpt lat="43.26787" lon="-2.93456">
        <ele>15.8</ele>
        <time>2021-05-29 17:01:12</time>
      </trkpt>
      <trkpt lat="43.26787" lon="-2.93455">
        <ele>15.8</ele>
        <time>2021-05-29 17:01:13</time>
      </trkpt>
      <trkpt lat="43.26787" lon="-2.93455">
        <ele>15.8</ele>
        <time>2021-05-29 17:01:14</time>
      </trkpt>
      <trkpt lat="43.26786" lon="-2.93454">
        <ele>15.8</ele>
        <time>2021-05-29 17:01:15</time>
      </trkpt>
      <trkpt lat="43.26786" lon="-2.93454">
        <ele>15.6</ele>
        <time>2021-05-29 17:04:07</time>
      </trkpt>
      <trkpt lat="43.26786" lon="-2.93456">
        <ele>15.6</ele>
        <time>2021-05-29 17:04:08</time>
      </trkpt>
      <trkpt lat="43.26784" lon="-2.93459">
        <ele>15.6</ele>
        <time>2021-05-29 17:04:09</time>
      </trkpt>
      <trkpt lat="43.26783" lon="-2.93462">
        <ele>15.6</ele>
        <time>2021-05-29 17:04:10</time>
      </trkpt>
      <trkpt lat="43.2678" lon="-2.93464">
        <ele>15.6</ele>
        <time>2021-05-29 17:04:11</time>
      </trkpt>
      <trkpt lat="43.26778" lon="-2.93465">
        <ele>15.6</ele>
        <time>2021-05-29 17:04:12</time>
      </trkpt>
      <trkpt lat="43.26775" lon="-2.93466">
        <ele>15.6</ele>
        <time>2021-05-29 17:04:13</time>
      </trkpt>
      <trkpt lat="43.26773" lon="-2.93468">
        <ele>15.6</ele>
        <time>2021-05-29 17:04:14</time>
      </trkpt>
      <trkpt lat="43.26771" lon="-2.93469">
        <ele>15.6</ele>
        <time>2021-05-29 17:04:15</time>
      </trkpt>
      <trkpt lat="43.26769" lon="-2.9347">
        <ele>15.6</ele>
        <time>2021-05-29 17:04:16</time>
      </trkpt>
      <trkpt lat="43.26767" lon="-2.93471">
        <ele>15.6</ele>
        <time>2021-05-29 17:04:17</time>
      </trkpt>
      <trkpt lat="43.26764" lon="-2.93471">
        <ele>15.6</ele>
        <time>2021-05-29 17:04:18</time>
      </trkpt>
      <trkpt lat="43.26762" lon="-2.93472">
        <ele>15.6</ele>
        <time>2021-05-29 17:04:19</time>
      </trkpt>
      <trkpt lat="43.2676" lon="-2.93472">
        <ele>15.4</ele>
        <time>2021-05-29 17:04:20</time>
      </trkpt>
      <trkpt lat="43.26758" lon="-2.93472">
        <ele>15.4</ele>
        <time>2021-05-29 17:04:21</time>
      </trkpt>
      <trkpt lat="43.26756" lon="-2.93472">
        <ele>15.4</ele>
        <time>2021-05-29 17:04:22</time>
      </trkpt>
      <trkpt lat="43.26754" lon="-2.93472">
        <ele>15.4</ele>
        <time>2021-05-29 17:04:23</time>
      </trkpt>
      <trkpt lat="43.26753" lon="-2.93472">
        <ele>15.4</ele>
        <time>2021-05-29 17:04:24</time>
      </trkpt>
      <trkpt lat="43.26752" lon="-2.93471">
        <ele>15.4</ele>
        <time>2021-05-29 17:04:25</time>
      </trkpt>
      <trkpt lat="43.26752" lon="-2.93471">
        <ele>15.4</ele>
        <time>2021-05-29 17:04:26</time>
      </trkpt>
      <trkpt lat="43.26749" lon="-2.93474">
        <ele>15</ele>
        <time>2021-05-29 17:05:23</time>
      </trkpt>
      <trkpt lat="43.26749" lon="-2.93476">
        <ele>15</ele>
        <time>2021-05-29 17:05:24</time>
      </trkpt>
      <trkpt lat="43.26748" lon="-2.93479">
        <ele>15</ele>
        <time>2021-05-29 17:05:25</time>
      </trkpt>
      <trkpt lat="43.26747" lon="-2.93482">
        <ele>15</ele>
        <time>2021-05-29 17:05:26</time>
      </trkpt>
      <trkpt lat="43.26747" lon="-2.93485">
        <ele>15</ele>
        <time>2021-05-29 17:05:27</time>
      </trkpt>
      <trkpt lat="43.26746" lon="-2.93488">
        <ele>15</ele>
        <time>2021-05-29 17:05:28</time>
      </trkpt>
      <trkpt lat="43.26746" lon="-2.93491">
        <ele>15</ele>
        <time>2021-05-29 17:05:29</time>
      </trkpt>
      <trkpt lat="43.26746" lon="-2.93495">
        <ele>15</ele>
        <time>2021-05-29 17:05:30</time>
      </trkpt>
      <trkpt lat="43.26745" lon="-2.93498">
        <ele>15</ele>
        <time>2021-05-29 17:05:31</time>
      </trkpt>
      <trkpt lat="43.26745" lon="-2.935">
        <ele>15</ele>
        <time>2021-05-29 17:05:32</time>
      </trkpt>
      <trkpt lat="43.26744" lon="-2.93502">
        <ele>15</ele>
        <time>2021-05-29 17:05:33</time>
      </trkpt>
      <trkpt lat="43.26744" lon="-2.93503">
        <ele>15</ele>
        <time>2021-05-29 17:05:34</time>
      </trkpt>
      <trkpt lat="43.26744" lon="-2.93504">
        <ele>15</ele>
        <time>2021-05-29 17:05:35</time>
      </trkpt>
      <trkpt lat="43.26743" lon="-2.93504">
        <ele>15</ele>
        <time>2021-05-29 17:05:36</time>
      </trkpt>
      <trkpt lat="43.26743" lon="-2.93504">
        <ele>15</ele>
        <time>2021-05-29 17:05:37</time>
      </trkpt>
      <trkpt lat="43.26748" lon="-2.93493">
        <ele>15.4</ele>
        <time>2021-05-29 17:06:28</time>
      </trkpt>
      <trkpt lat="43.26748" lon="-2.93491">
        <ele>15.4</ele>
        <time>2021-05-29 17:06:29</time>
      </trkpt>
      <trkpt lat="43.26748" lon="-2.93489">
        <ele>15.4</ele>
        <time>2021-05-29 17:06:30</time>
      </trkpt>
      <trkpt lat="43.26748" lon="-2.93487">
        <ele>15.4</ele>
        <time>2021-05-29 17:06:31</time>
      </trkpt>
      <trkpt lat="43.26748" lon="-2.93485">
        <ele>15.4</ele>
        <time>2021-05-29 17:06:32</time>
      </trkpt>
      <trkpt lat="43.26747" lon="-2.93483">
        <ele>15.4</ele>
        <time>2021-05-29 17:06:33</time>
      </trkpt>
      <trkpt lat="43.26748" lon="-2.9348">
        <ele>15.4</ele>
        <time>2021-05-29 17:06:34</time>
      </trkpt>
      <trkpt lat="43.26748" lon="-2.93478">
        <ele>15.4</ele>
        <time>2021-05-29 17:06:35</time>
      </trkpt>
      <trkpt lat="43.26749" lon="-2.93476">
        <ele>15.2</ele>
        <time>2021-05-29 17:06:36</time>
      </trkpt>
      <trkpt lat="43.26749" lon="-2.93473">
        <ele>15.2</ele>
        <time>2021-05-29 17:06:37</time>
      </trkpt>
      <trkpt lat="43.2675" lon="-2.93471">
        <ele>15.2</ele>
        <time>2021-05-29 17:06:38</time>
      </trkpt>
      <trkpt lat="43.2675" lon="-2.93469">
        <ele>15.2</ele>
        <time>2021-05-29 17:06:39</time>
      </trkpt>
      <trkpt lat="43.2675" lon="-2.93467">
        <ele>15.2</ele>
        <time>2021-05-29 17:06:40</time>
      </trkpt>
      <trkpt lat="43.26751" lon="-2.93465">
        <ele>15.2</ele>
        <time>2021-05-29 17:06:41</time>
      </trkpt>
      <trkpt lat="43.26751" lon="-2.93463">
        <ele>15.2</ele>
        <time>2021-05-29 17:06:42</time>
      </trkpt>
      <trkpt lat="43.26752" lon="-2.93461">
        <ele>15.2</ele>
        <time>2021-05-29 17:06:43</time>
      </trkpt>
      <trkpt lat="43.26752" lon="-2.93459">
        <ele>15.2</ele>
        <time>2021-05-29 17:06:44</time>
      </trkpt>
      <trkpt lat="43.26753" lon="-2.93456">
        <ele>15.2</ele>
        <time>2021-05-29 17:06:45</time>
      </trkpt>
      <trkpt lat="43.26754" lon="-2.93452">
        <ele>15.2</ele>
        <time>2021-05-29 17:06:46</time>
      </trkpt>
      <trkpt lat="43.26755" lon="-2.93449">
        <ele>15.2</ele>
        <time>2021-05-29 17:06:47</time>
      </trkpt>
      <trkpt lat="43.26756" lon="-2.93444">
        <ele>15.2</ele>
        <time>2021-05-29 17:06:48</time>
      </trkpt>
      <trkpt lat="43.26757" lon="-2.93439">
        <ele>15.2</ele>
        <time>2021-05-29 17:06:49</time>
      </trkpt>
      <trkpt lat="43.26758" lon="-2.93434">
        <ele>15.2</ele>
        <time>2021-05-29 17:06:50</time>
      </trkpt>
      <trkpt lat="43.26759" lon="-2.93428">
        <ele>15.2</ele>
        <time>2021-05-29 17:06:51</time>
      </trkpt>
      <trkpt lat="43.26761" lon="-2.93421">
        <ele>15.2</ele>
        <time>2021-05-29 17:06:52</time>
      </trkpt>
      <trkpt lat="43.26762" lon="-2.93415">
        <ele>15.2</ele>
        <time>2021-05-29 17:06:53</time>
      </trkpt>
      <trkpt lat="43.26764" lon="-2.93409">
        <ele>15.2</ele>
        <time>2021-05-29 17:06:54</time>
      </trkpt>
      <trkpt lat="43.26765" lon="-2.93404">
        <ele>15.2</ele>
        <time>2021-05-29 17:06:55</time>
      </trkpt>
      <trkpt lat="43.26767" lon="-2.93398">
        <ele>15.2</ele>
        <time>2021-05-29 17:06:56</time>
      </trkpt>
      <trkpt lat="43.26768" lon="-2.93392">
        <ele>15.2</ele>
        <time>2021-05-29 17:06:57</time>
      </trkpt>
      <trkpt lat="43.2677" lon="-2.93386">
        <ele>15.2</ele>
        <time>2021-05-29 17:06:58</time>
      </trkpt>
      <trkpt lat="43.26772" lon="-2.9338">
        <ele>15.2</ele>
        <time>2021-05-29 17:06:59</time>
      </trkpt>
      <trkpt lat="43.26774" lon="-2.93375">
        <ele>15.2</ele>
        <time>2021-05-29 17:07:00</time>
      </trkpt>
      <trkpt lat="43.26775" lon="-2.93369">
        <ele>15.2</ele>
        <time>2021-05-29 17:07:01</time>
      </trkpt>
      <trkpt lat="43.26777" lon="-2.93364">
        <ele>15.2</ele>
        <time>2021-05-29 17:07:02</time>
      </trkpt>
      <trkpt lat="43.26779" lon="-2.93359">
        <ele>15.2</ele>
        <time>2021-05-29 17:07:03</time>
      </trkpt>
      <trkpt lat="43.2678" lon="-2.93353">
        <ele>15.2</ele>
        <time>2021-05-29 17:07:04</time>
      </trkpt>
      <trkpt lat="43.26781" lon="-2.93346">
        <ele>15.2</ele>
        <time>2021-05-29 17:07:05</time>
      </trkpt>
      <trkpt lat="43.26782" lon="-2.93341">
        <ele>15.6</ele>
        <time>2021-05-29 17:07:06</time>
      </trkpt>
      <trkpt lat="43.26784" lon="-2.93335">
        <ele>15.4</ele>
        <time>2021-05-29 17:07:07</time>
      </trkpt>
      <trkpt lat="43.26785" lon="-2.93329">
        <ele>15.4</ele>
        <time>2021-05-29 17:07:08</time>
      </trkpt>
      <trkpt lat="43.26786" lon="-2.93324">
        <ele>15.6</ele>
        <time>2021-05-29 17:07:09</time>
      </trkpt>
      <trkpt lat="43.26788" lon="-2.9332">
        <ele>15.6</ele>
        <time>2021-05-29 17:07:10</time>
      </trkpt>
      <trkpt lat="43.2679" lon="-2.93316">
        <ele>15.6</ele>
        <time>2021-05-29 17:07:11</time>
      </trkpt>
      <trkpt lat="43.26792" lon="-2.93314">
        <ele>15.8</ele>
        <time>2021-05-29 17:07:12</time>
      </trkpt>
      <trkpt lat="43.26794" lon="-2.93312">
        <ele>15.8</ele>
        <time>2021-05-29 17:07:13</time>
      </trkpt>
      <trkpt lat="43.26796" lon="-2.93311">
        <ele>15.8</ele>
        <time>2021-05-29 17:07:14</time>
      </trkpt>
      <trkpt lat="43.26797" lon="-2.9331">
        <ele>15.8</ele>
        <time>2021-05-29 17:07:15</time>
      </trkpt>
      <trkpt lat="43.26798" lon="-2.9331">
        <ele>16</ele>
        <time>2021-05-29 17:07:16</time>
      </trkpt>
      <trkpt lat="43.26799" lon="-2.9331">
        <ele>16</ele>
        <time>2021-05-29 17:07:17</time>
      </trkpt>
      <trkpt lat="43.268" lon="-2.9331">
        <ele>16.2</ele>
        <time>2021-05-29 17:07:18</time>
      </trkpt>
      <trkpt lat="43.26801" lon="-2.933">
        <ele>18.2</ele>
        <time>2021-05-29 17:08:17</time>
      </trkpt>
      <trkpt lat="43.26802" lon="-2.93295">
        <ele>18.2</ele>
        <time>2021-05-29 17:08:18</time>
      </trkpt>
      <trkpt lat="43.26803" lon="-2.93291">
        <ele>18.2</ele>
        <time>2021-05-29 17:08:19</time>
      </trkpt>
      <trkpt lat="43.26805" lon="-2.93287">
        <ele>18.2</ele>
        <time>2021-05-29 17:08:20</time>
      </trkpt>
      <trkpt lat="43.26808" lon="-2.93284">
        <ele>18.2</ele>
        <time>2021-05-29 17:08:21</time>
      </trkpt>
      <trkpt lat="43.26811" lon="-2.93282">
        <ele>18.2</ele>
        <time>2021-05-29 17:08:22</time>
      </trkpt>
      <trkpt lat="43.26815" lon="-2.9328">
        <ele>18.2</ele>
        <time>2021-05-29 17:08:23</time>
      </trkpt>
      <trkpt lat="43.26817" lon="-2.93279">
        <ele>18.2</ele>
        <time>2021-05-29 17:08:24</time>
      </trkpt>
      <trkpt lat="43.26819" lon="-2.93278">
        <ele>18.2</ele>
        <time>2021-05-29 17:08:25</time>
      </trkpt>
      <trkpt lat="43.2682" lon="-2.93276">
        <ele>18.4</ele>
        <time>2021-05-29 17:08:26</time>
      </trkpt>
      <trkpt lat="43.26822" lon="-2.93275">
        <ele>18.4</ele>
        <time>2021-05-29 17:08:27</time>
      </trkpt>
      <trkpt lat="43.26825" lon="-2.93273">
        <ele>18.4</ele>
        <time>2021-05-29 17:08:28</time>
      </trkpt>
      <trkpt lat="43.26829" lon="-2.93271">
        <ele>18.4</ele>
        <time>2021-05-29 17:08:29</time>
      </trkpt>
      <trkpt lat="43.26833" lon="-2.93269">
        <ele>18.6</ele>
        <time>2021-05-29 17:08:30</time>
      </trkpt>
      <trkpt lat="43.26838" lon="-2.93266">
        <ele>18.8</ele>
        <time>2021-05-29 17:08:31</time>
      </trkpt>
      <trkpt lat="43.26843" lon="-2.93263">
        <ele>19</ele>
        <time>2021-05-29 17:08:32</time>
      </trkpt>
      <trkpt lat="43.26847" lon="-2.9326">
        <ele>19.2</ele>
        <time>2021-05-29 17:08:33</time>
      </trkpt>
      <trkpt lat="43.26852" lon="-2.93257">
        <ele>19.4</ele>
        <time>2021-05-29 17:08:34</time>
      </trkpt>
      <trkpt lat="43.26857" lon="-2.93254">
        <ele>19.4</ele>
        <time>2021-05-29 17:08:35</time>
      </trkpt>
      <trkpt lat="43.26861" lon="-2.93251">
        <ele>19.4</ele>
        <time>2021-05-29 17:08:36</time>
      </trkpt>
      <trkpt lat="43.26864" lon="-2.93248">
        <ele>19.8</ele>
        <time>2021-05-29 17:08:37</time>
      </trkpt>
      <trkpt lat="43.26867" lon="-2.93245">
        <ele>19.8</ele>
        <time>2021-05-29 17:08:38</time>
      </trkpt>
      <trkpt lat="43.2687" lon="-2.93242">
        <ele>20.2</ele>
        <time>2021-05-29 17:08:39</time>
      </trkpt>
      <trkpt lat="43.26873" lon="-2.93239">
        <ele>20.4</ele>
        <time>2021-05-29 17:08:40</time>
      </trkpt>
      <trkpt lat="43.26877" lon="-2.93235">
        <ele>20.6</ele>
        <time>2021-05-29 17:08:41</time>
      </trkpt>
      <trkpt lat="43.2688" lon="-2.93231">
        <ele>20.8</ele>
        <time>2021-05-29 17:08:42</time>
      </trkpt>
      <trkpt lat="43.26884" lon="-2.93228">
        <ele>21.2</ele>
        <time>2021-05-29 17:08:43</time>
      </trkpt>
      <trkpt lat="43.26887" lon="-2.93224">
        <ele>21.6</ele>
        <time>2021-05-29 17:08:44</time>
      </trkpt>
      <trkpt lat="43.26891" lon="-2.9322">
        <ele>21.8</ele>
        <time>2021-05-29 17:08:45</time>
      </trkpt>
      <trkpt lat="43.26895" lon="-2.93217">
        <ele>22.2</ele>
        <time>2021-05-29 17:08:46</time>
      </trkpt>
      <trkpt lat="43.26898" lon="-2.93213">
        <ele>22.6</ele>
        <time>2021-05-29 17:08:47</time>
      </trkpt>
      <trkpt lat="43.26901" lon="-2.93209">
        <ele>23.2</ele>
        <time>2021-05-29 17:08:48</time>
      </trkpt>
      <trkpt lat="43.26905" lon="-2.93206">
        <ele>23.4</ele>
        <time>2021-05-29 17:08:49</time>
      </trkpt>
      <trkpt lat="43.26908" lon="-2.93202">
        <ele>24</ele>
        <time>2021-05-29 17:08:50</time>
      </trkpt>
      <trkpt lat="43.26911" lon="-2.93197">
        <ele>24.2</ele>
        <time>2021-05-29 17:08:51</time>
      </trkpt>
      <trkpt lat="43.26915" lon="-2.93193">
        <ele>24.6</ele>
        <time>2021-05-29 17:08:52</time>
      </trkpt>
      <trkpt lat="43.26919" lon="-2.9319">
        <ele>24.8</ele>
        <time>2021-05-29 17:08:53</time>
      </trkpt>
      <trkpt lat="43.26922" lon="-2.93186">
        <ele>25</ele>
        <time>2021-05-29 17:08:54</time>
      </trkpt>
      <trkpt lat="43.26925" lon="-2.93182">
        <ele>25.2</ele>
        <time>2021-05-29 17:08:55</time>
      </trkpt>
      <trkpt lat="43.26929" lon="-2.93179">
        <ele>25.6</ele>
        <time>2021-05-29 17:08:56</time>
      </trkpt>
      <trkpt lat="43.26932" lon="-2.93175">
        <ele>25.8</ele>
        <time>2021-05-29 17:08:57</time>
      </trkpt>
      <trkpt lat="43.26935" lon="-2.93172">
        <ele>26.2</ele>
        <time>2021-05-29 17:08:58</time>
      </trkpt>
      <trkpt lat="43.26938" lon="-2.93169">
        <ele>26.4</ele>
        <time>2021-05-29 17:08:59</time>
      </trkpt>
      <trkpt lat="43.26941" lon="-2.93166">
        <ele>26.8</ele>
        <time>2021-05-29 17:09:00</time>
      </trkpt>
      <trkpt lat="43.26944" lon="-2.93163">
        <ele>27.2</ele>
        <time>2021-05-29 17:09:01</time>
      </trkpt>
      <trkpt lat="43.26948" lon="-2.9316">
        <ele>27.4</ele>
        <time>2021-05-29 17:09:02</time>
      </trkpt>
      <trkpt lat="43.26951" lon="-2.93157">
        <ele>27.6</ele>
        <time>2021-05-29 17:09:03</time>
      </trkpt>
      <trkpt lat="43.26954" lon="-2.93154">
        <ele>27.8</ele>
        <time>2021-05-29 17:09:04</time>
      </trkpt>
      <trkpt lat="43.26958" lon="-2.93151">
        <ele>28</ele>
        <time>2021-05-29 17:09:05</time>
      </trkpt>
      <trkpt lat="43.26961" lon="-2.93148">
        <ele>28.2</ele>
        <time>2021-05-29 17:09:06</time>
      </trkpt>
      <trkpt lat="43.26964" lon="-2.93144">
        <ele>28.6</ele>
        <time>2021-05-29 17:09:07</time>
      </trkpt>
      <trkpt lat="43.26967" lon="-2.93141">
        <ele>28.8</ele>
        <time>2021-05-29 17:09:08</time>
      </trkpt>
      <trkpt lat="43.2697" lon="-2.93138">
        <ele>29.2</ele>
        <time>2021-05-29 17:09:09</time>
      </trkpt>
      <trkpt lat="43.26973" lon="-2.93134">
        <ele>29.4</ele>
        <time>2021-05-29 17:09:10</time>
      </trkpt>
      <trkpt lat="43.26976" lon="-2.93131">
        <ele>29.4</ele>
        <time>2021-05-29 17:09:11</time>
      </trkpt>
      <trkpt lat="43.26979" lon="-2.93128">
        <ele>29.6</ele>
        <time>2021-05-29 17:09:12</time>
      </trkpt>
      <trkpt lat="43.26982" lon="-2.93124">
        <ele>29.8</ele>
        <time>2021-05-29 17:09:13</time>
      </trkpt>
      <trkpt lat="43.26985" lon="-2.93119">
        <ele>30</ele>
        <time>2021-05-29 17:09:14</time>
      </trkpt>
      <trkpt lat="43.26988" lon="-2.93115">
        <ele>30.4</ele>
        <time>2021-05-29 17:09:15</time>
      </trkpt>
      <trkpt lat="43.26991" lon="-2.9311">
        <ele>30.8</ele>
        <time>2021-05-29 17:09:16</time>
      </trkpt>
      <trkpt lat="43.26994" lon="-2.93105">
        <ele>31.2</ele>
        <time>2021-05-29 17:09:17</time>
      </trkpt>
      <trkpt lat="43.26997" lon="-2.93099">
        <ele>31.6</ele>
        <time>2021-05-29 17:09:18</time>
      </trkpt>
      <trkpt lat="43.27" lon="-2.93093">
        <ele>32</ele>
        <time>2021-05-29 17:09:19</time>
      </trkpt>
      <trkpt lat="43.27003" lon="-2.93087">
        <ele>32.4</ele>
        <time>2021-05-29 17:09:20</time>
      </trkpt>
      <trkpt lat="43.27005" lon="-2.9308">
        <ele>32.8</ele>
        <time>2021-05-29 17:09:21</time>
      </trkpt>
      <trkpt lat="43.27007" lon="-2.93072">
        <ele>33</ele>
        <time>2021-05-29 17:09:22</time>
      </trkpt>
      <trkpt lat="43.27009" lon="-2.93065">
        <ele>33.6</ele>
        <time>2021-05-29 17:09:23</time>
      </trkpt>
      <trkpt lat="43.27011" lon="-2.93056">
        <ele>33.8</ele>
        <time>2021-05-29 17:09:24</time>
      </trkpt>
      <trkpt lat="43.27013" lon="-2.93048">
        <ele>33.8</ele>
        <time>2021-05-29 17:09:25</time>
      </trkpt>
      <trkpt lat="43.27014" lon="-2.9304">
        <ele>33.8</ele>
        <time>2021-05-29 17:09:26</time>
      </trkpt>
      <trkpt lat="43.27016" lon="-2.93032">
        <ele>34</ele>
        <time>2021-05-29 17:09:27</time>
      </trkpt>
      <trkpt lat="43.27017" lon="-2.93024">
        <ele>34</ele>
        <time>2021-05-29 17:09:28</time>
      </trkpt>
      <trkpt lat="43.27018" lon="-2.93016">
        <ele>34</ele>
        <time>2021-05-29 17:09:29</time>
      </trkpt>
      <trkpt lat="43.2702" lon="-2.93008">
        <ele>34</ele>
        <time>2021-05-29 17:09:30</time>
      </trkpt>
      <trkpt lat="43.27021" lon="-2.93">
        <ele>34</ele>
        <time>2021-05-29 17:09:31</time>
      </trkpt>
      <trkpt lat="43.27022" lon="-2.92992">
        <ele>34.2</ele>
        <time>2021-05-29 17:09:32</time>
      </trkpt>
      <trkpt lat="43.27024" lon="-2.92984">
        <ele>34.2</ele>
        <time>2021-05-29 17:09:33</time>
      </trkpt>
      <trkpt lat="43.27025" lon="-2.92977">
        <ele>34.4</ele>
        <time>2021-05-29 17:09:34</time>
      </trkpt>
      <trkpt lat="43.27026" lon="-2.92969">
        <ele>34.4</ele>
        <time>2021-05-29 17:09:35</time>
      </trkpt>
      <trkpt lat="43.27027" lon="-2.92962">
        <ele>34.4</ele>
        <time>2021-05-29 17:09:36</time>
      </trkpt>
      <trkpt lat="43.27028" lon="-2.92955">
        <ele>34.6</ele>
        <time>2021-05-29 17:09:37</time>
      </trkpt>
      <trkpt lat="43.27029" lon="-2.92948">
        <ele>34.6</ele>
        <time>2021-05-29 17:09:38</time>
      </trkpt>
      <trkpt lat="43.2703" lon="-2.92941">
        <ele>34.6</ele>
        <time>2021-05-29 17:09:39</time>
      </trkpt>
      <trkpt lat="43.2703" lon="-2.92934">
        <ele>35</ele>
        <time>2021-05-29 17:09:40</time>
      </trkpt>
      <trkpt lat="43.27031" lon="-2.92927">
        <ele>35.2</ele>
        <time>2021-05-29 17:09:41</time>
      </trkpt>
      <trkpt lat="43.27032" lon="-2.9292">
        <ele>35.4</ele>
        <time>2021-05-29 17:09:42</time>
      </trkpt>
      <trkpt lat="43.27033" lon="-2.92914">
        <ele>35.6</ele>
        <time>2021-05-29 17:09:43</time>
      </trkpt>
      <trkpt lat="43.27034" lon="-2.92907">
        <ele>36</ele>
        <time>2021-05-29 17:09:44</time>
      </trkpt>
      <trkpt lat="43.27035" lon="-2.929">
        <ele>36.4</ele>
        <time>2021-05-29 17:09:45</time>
      </trkpt>
      <trkpt lat="43.27036" lon="-2.92893">
        <ele>36.8</ele>
        <time>2021-05-29 17:09:46</time>
      </trkpt>
      <trkpt lat="43.27037" lon="-2.92886">
        <ele>37</ele>
        <time>2021-05-29 17:09:47</time>
      </trkpt>
      <trkpt lat="43.27037" lon="-2.9288">
        <ele>37.2</ele>
        <time>2021-05-29 17:09:48</time>
      </trkpt>
      <trkpt lat="43.27038" lon="-2.92873">
        <ele>37.6</ele>
        <time>2021-05-29 17:09:49</time>
      </trkpt>
      <trkpt lat="43.27038" lon="-2.92866">
        <ele>37.8</ele>
        <time>2021-05-29 17:09:50</time>
      </trkpt>
      <trkpt lat="43.27039" lon="-2.92859">
        <ele>38</ele>
        <time>2021-05-29 17:09:51</time>
      </trkpt>
      <trkpt lat="43.27039" lon="-2.92852">
        <ele>38.4</ele>
        <time>2021-05-29 17:09:52</time>
      </trkpt>
      <trkpt lat="43.27039" lon="-2.92845">
        <ele>38.6</ele>
        <time>2021-05-29 17:09:53</time>
      </trkpt>
      <trkpt lat="43.27039" lon="-2.92838">
        <ele>39</ele>
        <time>2021-05-29 17:09:54</time>
      </trkpt>
      <trkpt lat="43.27039" lon="-2.92832">
        <ele>39.2</ele>
        <time>2021-05-29 17:09:55</time>
      </trkpt>
      <trkpt lat="43.27039" lon="-2.92825">
        <ele>39.4</ele>
        <time>2021-05-29 17:09:56</time>
      </trkpt>
      <trkpt lat="43.27039" lon="-2.92818">
        <ele>39.6</ele>
        <time>2021-05-29 17:09:57</time>
      </trkpt>
      <trkpt lat="43.27039" lon="-2.92811">
        <ele>40</ele>
        <time>2021-05-29 17:09:58</time>
      </trkpt>
      <trkpt lat="43.27038" lon="-2.92805">
        <ele>40.4</ele>
        <time>2021-05-29 17:09:59</time>
      </trkpt>
      <trkpt lat="43.27038" lon="-2.92798">
        <ele>40.4</ele>
        <time>2021-05-29 17:10:00</time>
      </trkpt>
      <trkpt lat="43.27037" lon="-2.92791">
        <ele>40.6</ele>
        <time>2021-05-29 17:10:01</time>
      </trkpt>
      <trkpt lat="43.27036" lon="-2.92784">
        <ele>41</ele>
        <time>2021-05-29 17:10:02</time>
      </trkpt>
      <trkpt lat="43.27035" lon="-2.92777">
        <ele>41.4</ele>
        <time>2021-05-29 17:10:03</time>
      </trkpt>
      <trkpt lat="43.27034" lon="-2.9277">
        <ele>41.6</ele>
        <time>2021-05-29 17:10:04</time>
      </trkpt>
      <trkpt lat="43.27033" lon="-2.92763">
        <ele>42</ele>
        <time>2021-05-29 17:10:05</time>
      </trkpt>
      <trkpt lat="43.27032" lon="-2.92756">
        <ele>42.2</ele>
        <time>2021-05-29 17:10:06</time>
      </trkpt>
      <trkpt lat="43.27031" lon="-2.92749">
        <ele>42.8</ele>
        <time>2021-05-29 17:10:07</time>
      </trkpt>
      <trkpt lat="43.27029" lon="-2.92742">
        <ele>43.2</ele>
        <time>2021-05-29 17:10:08</time>
      </trkpt>
      <trkpt lat="43.27028" lon="-2.92735">
        <ele>43.4</ele>
        <time>2021-05-29 17:10:09</time>
      </trkpt>
      <trkpt lat="43.27027" lon="-2.92728">
        <ele>43.4</ele>
        <time>2021-05-29 17:10:10</time>
      </trkpt>
      <trkpt lat="43.27026" lon="-2.92721">
        <ele>43.6</ele>
        <time>2021-05-29 17:10:11</time>
      </trkpt>
      <trkpt lat="43.27024" lon="-2.92714">
        <ele>44</ele>
        <time>2021-05-29 17:10:12</time>
      </trkpt>
      <trkpt lat="43.27023" lon="-2.92707">
        <ele>44.4</ele>
        <time>2021-05-29 17:10:13</time>
      </trkpt>
      <trkpt lat="43.27022" lon="-2.92701">
        <ele>44.8</ele>
        <time>2021-05-29 17:10:14</time>
      </trkpt>
      <trkpt lat="43.2702" lon="-2.92694">
        <ele>45</ele>
        <time>2021-05-29 17:10:15</time>
      </trkpt>
      <trkpt lat="43.27019" lon="-2.92687">
        <ele>45.2</ele>
        <time>2021-05-29 17:10:16</time>
      </trkpt>
      <trkpt lat="43.27017" lon="-2.9268">
        <ele>45.4</ele>
        <time>2021-05-29 17:10:17</time>
      </trkpt>
      <trkpt lat="43.27015" lon="-2.92673">
        <ele>45.8</ele>
        <time>2021-05-29 17:10:18</time>
      </trkpt>
      <trkpt lat="43.27014" lon="-2.92666">
        <ele>46.2</ele>
        <time>2021-05-29 17:10:19</time>
      </trkpt>
      <trkpt lat="43.27012" lon="-2.92659">
        <ele>46.6</ele>
        <time>2021-05-29 17:10:20</time>
      </trkpt>
      <trkpt lat="43.27011" lon="-2.92652">
        <ele>46.8</ele>
        <time>2021-05-29 17:10:21</time>
      </trkpt>
      <trkpt lat="43.2701" lon="-2.92645">
        <ele>47.2</ele>
        <time>2021-05-29 17:10:22</time>
      </trkpt>
      <trkpt lat="43.27008" lon="-2.92638">
        <ele>47.6</ele>
        <time>2021-05-29 17:10:23</time>
      </trkpt>
      <trkpt lat="43.27007" lon="-2.92632">
        <ele>47.8</ele>
        <time>2021-05-29 17:10:24</time>
      </trkpt>
      <trkpt lat="43.27007" lon="-2.92625">
        <ele>48.2</ele>
        <time>2021-05-29 17:10:25</time>
      </trkpt>
      <trkpt lat="43.27005" lon="-2.92618">
        <ele>48.6</ele>
        <time>2021-05-29 17:10:26</time>
      </trkpt>
      <trkpt lat="43.27004" lon="-2.92611">
        <ele>49</ele>
        <time>2021-05-29 17:10:27</time>
      </trkpt>
      <trkpt lat="43.27003" lon="-2.92605">
        <ele>49.2</ele>
        <time>2021-05-29 17:10:28</time>
      </trkpt>
      <trkpt lat="43.27001" lon="-2.92598">
        <ele>49.6</ele>
        <time>2021-05-29 17:10:29</time>
      </trkpt>
      <trkpt lat="43.27" lon="-2.92591">
        <ele>50</ele>
        <time>2021-05-29 17:10:30</time>
      </trkpt>
      <trkpt lat="43.26999" lon="-2.92585">
        <ele>50.2</ele>
        <time>2021-05-29 17:10:31</time>
      </trkpt>
      <trkpt lat="43.26998" lon="-2.92579">
        <ele>50.6</ele>
        <time>2021-05-29 17:10:32</time>
      </trkpt>
      <trkpt lat="43.26996" lon="-2.92572">
        <ele>50.8</ele>
        <time>2021-05-29 17:10:33</time>
      </trkpt>
      <trkpt lat="43.26995" lon="-2.92565">
        <ele>51.2</ele>
        <time>2021-05-29 17:10:34</time>
      </trkpt>
      <trkpt lat="43.26994" lon="-2.92558">
        <ele>51.4</ele>
        <time>2021-05-29 17:10:35</time>
      </trkpt>
      <trkpt lat="43.26994" lon="-2.92551">
        <ele>51.8</ele>
        <time>2021-05-29 17:10:36</time>
      </trkpt>
      <trkpt lat="43.26993" lon="-2.92543">
        <ele>52</ele>
        <time>2021-05-29 17:10:37</time>
      </trkpt>
      <trkpt lat="43.26992" lon="-2.92536">
        <ele>52.2</ele>
        <time>2021-05-29 17:10:38</time>
      </trkpt>
      <trkpt lat="43.26991" lon="-2.92529">
        <ele>52.4</ele>
        <time>2021-05-29 17:10:39</time>
      </trkpt>
      <trkpt lat="43.26991" lon="-2.92522">
        <ele>52.8</ele>
        <time>2021-05-29 17:10:40</time>
      </trkpt>
      <trkpt lat="43.2699" lon="-2.92516">
        <ele>53</ele>
        <time>2021-05-29 17:10:41</time>
      </trkpt>
      <trkpt lat="43.2699" lon="-2.92511">
        <ele>53.2</ele>
        <time>2021-05-29 17:10:42</time>
      </trkpt>
      <trkpt lat="43.26989" lon="-2.92506">
        <ele>53.4</ele>
        <time>2021-05-29 17:10:43</time>
      </trkpt>
      <trkpt lat="43.26989" lon="-2.92501">
        <ele>53.6</ele>
        <time>2021-05-29 17:10:44</time>
      </trkpt>
      <trkpt lat="43.26988" lon="-2.92496">
        <ele>53.8</ele>
        <time>2021-05-29 17:10:45</time>
      </trkpt>
      <trkpt lat="43.26988" lon="-2.92491">
        <ele>54</ele>
        <time>2021-05-29 17:10:46</time>
      </trkpt>
      <trkpt lat="43.26988" lon="-2.92486">
        <ele>54.2</ele>
        <time>2021-05-29 17:10:47</time>
      </trkpt>
      <trkpt lat="43.26988" lon="-2.92481">
        <ele>54.2</ele>
        <time>2021-05-29 17:10:48</time>
      </trkpt>
      <trkpt lat="43.26988" lon="-2.92476">
        <ele>54.6</ele>
        <time>2021-05-29 17:10:49</time>
      </trkpt>
      <trkpt lat="43.26988" lon="-2.92471">
        <ele>54.6</ele>
        <time>2021-05-29 17:10:50</time>
      </trkpt>
      <trkpt lat="43.26988" lon="-2.92466">
        <ele>54.8</ele>
        <time>2021-05-29 17:10:51</time>
      </trkpt>
      <trkpt lat="43.26988" lon="-2.92461">
        <ele>55</ele>
        <time>2021-05-29 17:10:52</time>
      </trkpt>
      <trkpt lat="43.26988" lon="-2.92455">
        <ele>55.4</ele>
        <time>2021-05-29 17:10:53</time>
      </trkpt>
      <trkpt lat="43.26988" lon="-2.9245">
        <ele>55.4</ele>
        <time>2021-05-29 17:10:54</time>
      </trkpt>
      <trkpt lat="43.26987" lon="-2.92444">
        <ele>55.6</ele>
        <time>2021-05-29 17:10:55</time>
      </trkpt>
      <trkpt lat="43.26987" lon="-2.92439">
        <ele>55.6</ele>
        <time>2021-05-29 17:10:56</time>
      </trkpt>
      <trkpt lat="43.26987" lon="-2.92433">
        <ele>55.8</ele>
        <time>2021-05-29 17:10:57</time>
      </trkpt>
      <trkpt lat="43.26987" lon="-2.92427">
        <ele>56</ele>
        <time>2021-05-29 17:10:58</time>
      </trkpt>
      <trkpt lat="43.26987" lon="-2.92422">
        <ele>56.2</ele>
        <time>2021-05-29 17:10:59</time>
      </trkpt>
      <trkpt lat="43.26987" lon="-2.92416">
        <ele>56.4</ele>
        <time>2021-05-29 17:11:00</time>
      </trkpt>
      <trkpt lat="43.26987" lon="-2.92409">
        <ele>56.6</ele>
        <time>2021-05-29 17:11:01</time>
      </trkpt>
      <trkpt lat="43.26987" lon="-2.92403">
        <ele>56.8</ele>
        <time>2021-05-29 17:11:02</time>
      </trkpt>
      <trkpt lat="43.26987" lon="-2.92396">
        <ele>57</ele>
        <time>2021-05-29 17:11:03</time>
      </trkpt>
      <trkpt lat="43.26987" lon="-2.9239">
        <ele>57</ele>
        <time>2021-05-29 17:11:04</time>
      </trkpt>
      <trkpt lat="43.26987" lon="-2.92383">
        <ele>57.2</ele>
        <time>2021-05-29 17:11:05</time>
      </trkpt>
      <trkpt lat="43.26987" lon="-2.92376">
        <ele>57.6</ele>
        <time>2021-05-29 17:11:06</time>
      </trkpt>
      <trkpt lat="43.26987" lon="-2.92371">
        <ele>57.8</ele>
        <time>2021-05-29 17:11:07</time>
      </trkpt>
      <trkpt lat="43.26987" lon="-2.92365">
        <ele>58</ele>
        <time>2021-05-29 17:11:08</time>
      </trkpt>
      <trkpt lat="43.26987" lon="-2.92361">
        <ele>58.2</ele>
        <time>2021-05-29 17:11:09</time>
      </trkpt>
      <trkpt lat="43.26988" lon="-2.92357">
        <ele>58.4</ele>
        <time>2021-05-29 17:11:10</time>
      </trkpt>
      <trkpt lat="43.26988" lon="-2.92353">
        <ele>58.6</ele>
        <time>2021-05-29 17:11:11</time>
      </trkpt>
      <trkpt lat="43.26988" lon="-2.92351">
        <ele>59</ele>
        <time>2021-05-29 17:11:12</time>
      </trkpt>
      <trkpt lat="43.26988" lon="-2.92349">
        <ele>59.2</ele>
        <time>2021-05-29 17:11:13</time>
      </trkpt>
      <trkpt lat="43.26989" lon="-2.92347">
        <ele>59.4</ele>
        <time>2021-05-29 17:11:14</time>
      </trkpt>
      <trkpt lat="43.26989" lon="-2.92346">
        <ele>59.6</ele>
        <time>2021-05-29 17:11:15</time>
      </trkpt>
      <trkpt lat="43.26989" lon="-2.92344">
        <ele>59.8</ele>
        <time>2021-05-29 17:11:16</time>
      </trkpt>
      <trkpt lat="43.26989" lon="-2.92343">
        <ele>60</ele>
        <time>2021-05-29 17:11:17</time>
      </trkpt>
      <trkpt lat="43.26989" lon="-2.92341">
        <ele>60.2</ele>
        <time>2021-05-29 17:11:18</time>
      </trkpt>
      <trkpt lat="43.26989" lon="-2.92339">
        <ele>60.4</ele>
        <time>2021-05-29 17:11:19</time>
      </trkpt>
      <trkpt lat="43.26989" lon="-2.92337">
        <ele>60.6</ele>
        <time>2021-05-29 17:11:20</time>
      </trkpt>
      <trkpt lat="43.26989" lon="-2.92334">
        <ele>60.6</ele>
        <time>2021-05-29 17:11:21</time>
      </trkpt>
      <trkpt lat="43.26989" lon="-2.92331">
        <ele>60.6</ele>
        <time>2021-05-29 17:11:22</time>
      </trkpt>
      <trkpt lat="43.26988" lon="-2.92327">
        <ele>60.8</ele>
        <time>2021-05-29 17:11:23</time>
      </trkpt>
      <trkpt lat="43.26987" lon="-2.92323">
        <ele>60.8</ele>
        <time>2021-05-29 17:11:24</time>
      </trkpt>
      <trkpt lat="43.26985" lon="-2.92317">
        <ele>61</ele>
        <time>2021-05-29 17:11:25</time>
      </trkpt>
      <trkpt lat="43.26984" lon="-2.92312">
        <ele>61</ele>
        <time>2021-05-29 17:11:26</time>
      </trkpt>
      <trkpt lat="43.26984" lon="-2.92305">
        <ele>61</ele>
        <time>2021-05-29 17:11:27</time>
      </trkpt>
      <trkpt lat="43.26983" lon="-2.92299">
        <ele>61.2</ele>
        <time>2021-05-29 17:11:28</time>
      </trkpt>
      <trkpt lat="43.26982" lon="-2.92292">
        <ele>61.2</ele>
        <time>2021-05-29 17:11:29</time>
      </trkpt>
      <trkpt lat="43.26981" lon="-2.92286">
        <ele>61.4</ele>
        <time>2021-05-29 17:11:30</time>
      </trkpt>
      <trkpt lat="43.2698" lon="-2.92279">
        <ele>61.4</ele>
        <time>2021-05-29 17:11:31</time>
      </trkpt>
      <trkpt lat="43.26979" lon="-2.92271">
        <ele>61.6</ele>
        <time>2021-05-29 17:11:32</time>
      </trkpt>
      <trkpt lat="43.26977" lon="-2.92264">
        <ele>61.8</ele>
        <time>2021-05-29 17:11:33</time>
      </trkpt>
      <trkpt lat="43.26976" lon="-2.92257">
        <ele>62</ele>
        <time>2021-05-29 17:11:34</time>
      </trkpt>
      <trkpt lat="43.26974" lon="-2.9225">
        <ele>62.2</ele>
        <time>2021-05-29 17:11:35</time>
      </trkpt>
      <trkpt lat="43.26973" lon="-2.92243">
        <ele>62.4</ele>
        <time>2021-05-29 17:11:36</time>
      </trkpt>
      <trkpt lat="43.26971" lon="-2.92236">
        <ele>62.6</ele>
        <time>2021-05-29 17:11:37</time>
      </trkpt>
      <trkpt lat="43.2697" lon="-2.92229">
        <ele>62.8</ele>
        <time>2021-05-29 17:11:38</time>
      </trkpt>
      <trkpt lat="43.26968" lon="-2.92221">
        <ele>63</ele>
        <time>2021-05-29 17:11:39</time>
      </trkpt>
      <trkpt lat="43.26966" lon="-2.92214">
        <ele>63.2</ele>
        <time>2021-05-29 17:11:40</time>
      </trkpt>
      <trkpt lat="43.26964" lon="-2.92207">
        <ele>63.8</ele>
        <time>2021-05-29 17:11:41</time>
      </trkpt>
      <trkpt lat="43.26962" lon="-2.922">
        <ele>64</ele>
        <time>2021-05-29 17:11:42</time>
      </trkpt>
      <trkpt lat="43.26959" lon="-2.92193">
        <ele>64.4</ele>
        <time>2021-05-29 17:11:43</time>
      </trkpt>
      <trkpt lat="43.26957" lon="-2.92186">
        <ele>64.6</ele>
        <time>2021-05-29 17:11:44</time>
      </trkpt>
      <trkpt lat="43.26954" lon="-2.92179">
        <ele>64.8</ele>
        <time>2021-05-29 17:11:45</time>
      </trkpt>
      <trkpt lat="43.26952" lon="-2.92172">
        <ele>65.2</ele>
        <time>2021-05-29 17:11:46</time>
      </trkpt>
      <trkpt lat="43.26949" lon="-2.92166">
        <ele>65.4</ele>
        <time>2021-05-29 17:11:47</time>
      </trkpt>
      <trkpt lat="43.26946" lon="-2.92159">
        <ele>65.6</ele>
        <time>2021-05-29 17:11:48</time>
      </trkpt>
      <trkpt lat="43.26943" lon="-2.92152">
        <ele>65.8</ele>
        <time>2021-05-29 17:11:49</time>
      </trkpt>
      <trkpt lat="43.2694" lon="-2.92145">
        <ele>66</ele>
        <time>2021-05-29 17:11:50</time>
      </trkpt>
      <trkpt lat="43.26937" lon="-2.92139">
        <ele>66.4</ele>
        <time>2021-05-29 17:11:51</time>
      </trkpt>
      <trkpt lat="43.26933" lon="-2.92132">
        <ele>66.8</ele>
        <time>2021-05-29 17:11:52</time>
      </trkpt>
      <trkpt lat="43.2693" lon="-2.92126">
        <ele>67</ele>
        <time>2021-05-29 17:11:53</time>
      </trkpt>
      <trkpt lat="43.26926" lon="-2.92119">
        <ele>67.4</ele>
        <time>2021-05-29 17:11:54</time>
      </trkpt>
      <trkpt lat="43.26922" lon="-2.92113">
        <ele>67.8</ele>
        <time>2021-05-29 17:11:55</time>
      </trkpt>
      <trkpt lat="43.26919" lon="-2.92106">
        <ele>68.2</ele>
        <time>2021-05-29 17:11:56</time>
      </trkpt>
      <trkpt lat="43.26916" lon="-2.92099">
        <ele>68.4</ele>
        <time>2021-05-29 17:11:57</time>
      </trkpt>
      <trkpt lat="43.26912" lon="-2.92092">
        <ele>68.8</ele>
        <time>2021-05-29 17:11:58</time>
      </trkpt>
      <trkpt lat="43.26909" lon="-2.92085">
        <ele>69</ele>
        <time>2021-05-29 17:11:59</time>
      </trkpt>
      <trkpt lat="43.26905" lon="-2.92078">
        <ele>69.2</ele>
        <time>2021-05-29 17:12:00</time>
      </trkpt>
      <trkpt lat="43.269" lon="-2.92071">
        <ele>69.4</ele>
        <time>2021-05-29 17:12:01</time>
      </trkpt>
      <trkpt lat="43.26896" lon="-2.92063">
        <ele>69.4</ele>
        <time>2021-05-29 17:12:02</time>
      </trkpt>
      <trkpt lat="43.26892" lon="-2.92056">
        <ele>69.6</ele>
        <time>2021-05-29 17:12:03</time>
      </trkpt>
      <trkpt lat="43.26888" lon="-2.92048">
        <ele>69.8</ele>
        <time>2021-05-29 17:12:04</time>
      </trkpt>
      <trkpt lat="43.26884" lon="-2.9204">
        <ele>70</ele>
        <time>2021-05-29 17:12:05</time>
      </trkpt>
      <trkpt lat="43.26879" lon="-2.92033">
        <ele>70</ele>
        <time>2021-05-29 17:12:06</time>
      </trkpt>
      <trkpt lat="43.26874" lon="-2.92025">
        <ele>70</ele>
        <time>2021-05-29 17:12:07</time>
      </trkpt>
      <trkpt lat="43.2687" lon="-2.92018">
        <ele>70.2</ele>
        <time>2021-05-29 17:12:08</time>
      </trkpt>
      <trkpt lat="43.26865" lon="-2.9201">
        <ele>70.2</ele>
        <time>2021-05-29 17:12:09</time>
      </trkpt>
      <trkpt lat="43.26859" lon="-2.92001">
        <ele>70.2</ele>
        <time>2021-05-29 17:12:10</time>
      </trkpt>
      <trkpt lat="43.26855" lon="-2.91992">
        <ele>70.2</ele>
        <time>2021-05-29 17:12:11</time>
      </trkpt>
      <trkpt lat="43.26849" lon="-2.91984">
        <ele>70.2</ele>
        <time>2021-05-29 17:12:12</time>
      </trkpt>
      <trkpt lat="43.26844" lon="-2.91974">
        <ele>70.2</ele>
        <time>2021-05-29 17:12:13</time>
      </trkpt>
      <trkpt lat="43.26839" lon="-2.91965">
        <ele>70.2</ele>
        <time>2021-05-29 17:12:14</time>
      </trkpt>
      <trkpt lat="43.26834" lon="-2.91955">
        <ele>70</ele>
        <time>2021-05-29 17:12:15</time>
      </trkpt>
      <trkpt lat="43.26829" lon="-2.91945">
        <ele>69.8</ele>
        <time>2021-05-29 17:12:16</time>
      </trkpt>
      <trkpt lat="43.26824" lon="-2.91935">
        <ele>69.6</ele>
        <time>2021-05-29 17:12:17</time>
      </trkpt>
      <trkpt lat="43.26818" lon="-2.91925">
        <ele>69.4</ele>
        <time>2021-05-29 17:12:18</time>
      </trkpt>
      <trkpt lat="43.26812" lon="-2.91915">
        <ele>69.2</ele>
        <time>2021-05-29 17:12:19</time>
      </trkpt>
      <trkpt lat="43.26806" lon="-2.91905">
        <ele>68.8</ele>
        <time>2021-05-29 17:12:20</time>
      </trkpt>
      <trkpt lat="43.268" lon="-2.91896">
        <ele>68.6</ele>
        <time>2021-05-29 17:12:21</time>
      </trkpt>
      <trkpt lat="43.26794" lon="-2.91886">
        <ele>68.2</ele>
        <time>2021-05-29 17:12:22</time>
      </trkpt>
      <trkpt lat="43.26789" lon="-2.91876">
        <ele>67.8</ele>
        <time>2021-05-29 17:12:23</time>
      </trkpt>
      <trkpt lat="43.26784" lon="-2.91866">
        <ele>67.4</ele>
        <time>2021-05-29 17:12:24</time>
      </trkpt>
      <trkpt lat="43.26778" lon="-2.91856">
        <ele>67</ele>
        <time>2021-05-29 17:12:25</time>
      </trkpt>
      <trkpt lat="43.26772" lon="-2.91847">
        <ele>66.8</ele>
        <time>2021-05-29 17:12:26</time>
      </trkpt>
      <trkpt lat="43.26767" lon="-2.91838">
        <ele>66.6</ele>
        <time>2021-05-29 17:12:27</time>
      </trkpt>
      <trkpt lat="43.26761" lon="-2.91829">
        <ele>66.4</ele>
        <time>2021-05-29 17:12:28</time>
      </trkpt>
      <trkpt lat="43.26756" lon="-2.9182">
        <ele>66.4</ele>
        <time>2021-05-29 17:12:29</time>
      </trkpt>
      <trkpt lat="43.2675" lon="-2.91811">
        <ele>66.2</ele>
        <time>2021-05-29 17:12:30</time>
      </trkpt>
      <trkpt lat="43.26745" lon="-2.91801">
        <ele>66.2</ele>
        <time>2021-05-29 17:12:31</time>
      </trkpt>
      <trkpt lat="43.26739" lon="-2.91792">
        <ele>66.2</ele>
        <time>2021-05-29 17:12:32</time>
      </trkpt>
      <trkpt lat="43.26734" lon="-2.91784">
        <ele>66.2</ele>
        <time>2021-05-29 17:12:33</time>
      </trkpt>
      <trkpt lat="43.26729" lon="-2.91776">
        <ele>66</ele>
        <time>2021-05-29 17:12:34</time>
      </trkpt>
      <trkpt lat="43.26724" lon="-2.9177">
        <ele>66</ele>
        <time>2021-05-29 17:12:35</time>
      </trkpt>
      <trkpt lat="43.2672" lon="-2.91765">
        <ele>66</ele>
        <time>2021-05-29 17:12:36</time>
      </trkpt>
      <trkpt lat="43.26717" lon="-2.9176">
        <ele>66</ele>
        <time>2021-05-29 17:12:37</time>
      </trkpt>
      <trkpt lat="43.26715" lon="-2.91756">
        <ele>65.8</ele>
        <time>2021-05-29 17:12:38</time>
      </trkpt>
      <trkpt lat="43.26714" lon="-2.91753">
        <ele>65.6</ele>
        <time>2021-05-29 17:12:39</time>
      </trkpt>
      <trkpt lat="43.26712" lon="-2.9175">
        <ele>65.6</ele>
        <time>2021-05-29 17:12:40</time>
      </trkpt>
      <trkpt lat="43.26712" lon="-2.91749">
        <ele>65.4</ele>
        <time>2021-05-29 17:12:41</time>
      </trkpt>
      <trkpt lat="43.26713" lon="-2.91748">
        <ele>65</ele>
        <time>2021-05-29 17:12:42</time>
      </trkpt>
      <trkpt lat="43.26711" lon="-2.91745">
        <ele>63.2</ele>
        <time>2021-05-29 17:13:24</time>
      </trkpt>
      <trkpt lat="43.26709" lon="-2.91742">
        <ele>63.2</ele>
        <time>2021-05-29 17:13:25</time>
      </trkpt>
      <trkpt lat="43.26707" lon="-2.91739">
        <ele>63.2</ele>
        <time>2021-05-29 17:13:26</time>
      </trkpt>
      <trkpt lat="43.26704" lon="-2.91735">
        <ele>63.2</ele>
        <time>2021-05-29 17:13:27</time>
      </trkpt>
      <trkpt lat="43.26701" lon="-2.91731">
        <ele>63</ele>
        <time>2021-05-29 17:13:28</time>
      </trkpt>
      <trkpt lat="43.26697" lon="-2.91726">
        <ele>63</ele>
        <time>2021-05-29 17:13:29</time>
      </trkpt>
      <trkpt lat="43.26692" lon="-2.9172">
        <ele>63</ele>
        <time>2021-05-29 17:13:30</time>
      </trkpt>
      <trkpt lat="43.26688" lon="-2.91715">
        <ele>63</ele>
        <time>2021-05-29 17:13:31</time>
      </trkpt>
      <trkpt lat="43.26682" lon="-2.91709">
        <ele>63</ele>
        <time>2021-05-29 17:13:32</time>
      </trkpt>
      <trkpt lat="43.26676" lon="-2.91704">
        <ele>62.8</ele>
        <time>2021-05-29 17:13:33</time>
      </trkpt>
      <trkpt lat="43.2667" lon="-2.91699">
        <ele>62.6</ele>
        <time>2021-05-29 17:13:34</time>
      </trkpt>
      <trkpt lat="43.26662" lon="-2.91695">
        <ele>62.4</ele>
        <time>2021-05-29 17:13:35</time>
      </trkpt>
      <trkpt lat="43.26655" lon="-2.91691">
        <ele>62.2</ele>
        <time>2021-05-29 17:13:36</time>
      </trkpt>
      <trkpt lat="43.26647" lon="-2.91688">
        <ele>62</ele>
        <time>2021-05-29 17:13:37</time>
      </trkpt>
      <trkpt lat="43.26639" lon="-2.91685">
        <ele>61.8</ele>
        <time>2021-05-29 17:13:38</time>
      </trkpt>
      <trkpt lat="43.26631" lon="-2.91683">
        <ele>61.4</ele>
        <time>2021-05-29 17:13:39</time>
      </trkpt>
      <trkpt lat="43.26622" lon="-2.91682">
        <ele>61</ele>
        <time>2021-05-29 17:13:40</time>
      </trkpt>
      <trkpt lat="43.26614" lon="-2.91681">
        <ele>60.6</ele>
        <time>2021-05-29 17:13:41</time>
      </trkpt>
      <trkpt lat="43.26605" lon="-2.91681">
        <ele>60.2</ele>
        <time>2021-05-29 17:13:42</time>
      </trkpt>
      <trkpt lat="43.26596" lon="-2.91682">
        <ele>59.8</ele>
        <time>2021-05-29 17:13:43</time>
      </trkpt>
      <trkpt lat="43.26588" lon="-2.91683">
        <ele>59.4</ele>
        <time>2021-05-29 17:13:44</time>
      </trkpt>
      <trkpt lat="43.26578" lon="-2.91685">
        <ele>59.2</ele>
        <time>2021-05-29 17:13:45</time>
      </trkpt>
      <trkpt lat="43.26569" lon="-2.91686">
        <ele>58.8</ele>
        <time>2021-05-29 17:13:46</time>
      </trkpt>
      <trkpt lat="43.2656" lon="-2.91689">
        <ele>58.4</ele>
        <time>2021-05-29 17:13:47</time>
      </trkpt>
      <trkpt lat="43.26549" lon="-2.91692">
        <ele>58.2</ele>
        <time>2021-05-29 17:13:48</time>
      </trkpt>
      <trkpt lat="43.26539" lon="-2.91695">
        <ele>58</ele>
        <time>2021-05-29 17:13:49</time>
      </trkpt>
      <trkpt lat="43.26529" lon="-2.91698">
        <ele>57.8</ele>
        <time>2021-05-29 17:13:50</time>
      </trkpt>
      <trkpt lat="43.26518" lon="-2.91701">
        <ele>57.4</ele>
        <time>2021-05-29 17:13:51</time>
      </trkpt>
      <trkpt lat="43.26508" lon="-2.91705">
        <ele>57.2</ele>
        <time>2021-05-29 17:13:52</time>
      </trkpt>
      <trkpt lat="43.26498" lon="-2.91708">
        <ele>57</ele>
        <time>2021-05-29 17:13:53</time>
      </trkpt>
      <trkpt lat="43.26488" lon="-2.91711">
        <ele>56.4</ele>
        <time>2021-05-29 17:13:54</time>
      </trkpt>
      <trkpt lat="43.26478" lon="-2.91714">
        <ele>55.8</ele>
        <time>2021-05-29 17:13:55</time>
      </trkpt>
      <trkpt lat="43.26469" lon="-2.91717">
        <ele>55.2</ele>
        <time>2021-05-29 17:13:56</time>
      </trkpt>
      <trkpt lat="43.2646" lon="-2.91719">
        <ele>54.6</ele>
        <time>2021-05-29 17:13:57</time>
      </trkpt>
      <trkpt lat="43.26451" lon="-2.9172">
        <ele>54.4</ele>
        <time>2021-05-29 17:13:58</time>
      </trkpt>
      <trkpt lat="43.26442" lon="-2.91721">
        <ele>54.2</ele>
        <time>2021-05-29 17:13:59</time>
      </trkpt>
      <trkpt lat="43.26434" lon="-2.91722">
        <ele>54</ele>
        <time>2021-05-29 17:14:00</time>
      </trkpt>
      <trkpt lat="43.26425" lon="-2.91722">
        <ele>54</ele>
        <time>2021-05-29 17:14:01</time>
      </trkpt>
      <trkpt lat="43.26417" lon="-2.91722">
        <ele>54</ele>
        <time>2021-05-29 17:14:02</time>
      </trkpt>
      <trkpt lat="43.26409" lon="-2.91722">
        <ele>54</ele>
        <time>2021-05-29 17:14:03</time>
      </trkpt>
      <trkpt lat="43.26402" lon="-2.91721">
        <ele>54</ele>
        <time>2021-05-29 17:14:04</time>
      </trkpt>
      <trkpt lat="43.26395" lon="-2.9172">
        <ele>54</ele>
        <time>2021-05-29 17:14:05</time>
      </trkpt>
      <trkpt lat="43.26387" lon="-2.91719">
        <ele>54.2</ele>
        <time>2021-05-29 17:14:06</time>
      </trkpt>
      <trkpt lat="43.2638" lon="-2.91719">
        <ele>54.4</ele>
        <time>2021-05-29 17:14:07</time>
      </trkpt>
      <trkpt lat="43.26373" lon="-2.91718">
        <ele>54.6</ele>
        <time>2021-05-29 17:14:08</time>
      </trkpt>
      <trkpt lat="43.26366" lon="-2.91717">
        <ele>55</ele>
        <time>2021-05-29 17:14:09</time>
      </trkpt>
      <trkpt lat="43.26359" lon="-2.91716">
        <ele>55.4</ele>
        <time>2021-05-29 17:14:10</time>
      </trkpt>
      <trkpt lat="43.26352" lon="-2.91715">
        <ele>55.8</ele>
        <time>2021-05-29 17:14:11</time>
      </trkpt>
      <trkpt lat="43.26345" lon="-2.91713">
        <ele>56</ele>
        <time>2021-05-29 17:14:12</time>
      </trkpt>
      <trkpt lat="43.26338" lon="-2.91712">
        <ele>56.4</ele>
        <time>2021-05-29 17:14:13</time>
      </trkpt>
      <trkpt lat="43.2633" lon="-2.9171">
        <ele>56.8</ele>
        <time>2021-05-29 17:14:14</time>
      </trkpt>
      <trkpt lat="43.26323" lon="-2.91708">
        <ele>57</ele>
        <time>2021-05-29 17:14:15</time>
      </trkpt>
      <trkpt lat="43.26317" lon="-2.91705">
        <ele>57.4</ele>
        <time>2021-05-29 17:14:16</time>
      </trkpt>
      <trkpt lat="43.2631" lon="-2.91702">
        <ele>57.8</ele>
        <time>2021-05-29 17:14:17</time>
      </trkpt>
      <trkpt lat="43.26304" lon="-2.91698">
        <ele>58</ele>
        <time>2021-05-29 17:14:18</time>
      </trkpt>
      <trkpt lat="43.26298" lon="-2.91694">
        <ele>58.2</ele>
        <time>2021-05-29 17:14:19</time>
      </trkpt>
      <trkpt lat="43.26293" lon="-2.9169">
        <ele>58.6</ele>
        <time>2021-05-29 17:14:20</time>
      </trkpt>
      <trkpt lat="43.26288" lon="-2.91685">
        <ele>59.2</ele>
        <time>2021-05-29 17:14:21</time>
      </trkpt>
      <trkpt lat="43.26283" lon="-2.9168">
        <ele>59.2</ele>
        <time>2021-05-29 17:14:22</time>
      </trkpt>
      <trkpt lat="43.26278" lon="-2.91676">
        <ele>59.6</ele>
        <time>2021-05-29 17:14:23</time>
      </trkpt>
      <trkpt lat="43.26273" lon="-2.91671">
        <ele>60</ele>
        <time>2021-05-29 17:14:24</time>
      </trkpt>
      <trkpt lat="43.26268" lon="-2.91666">
        <ele>60.4</ele>
        <time>2021-05-29 17:14:25</time>
      </trkpt>
      <trkpt lat="43.26263" lon="-2.91661">
        <ele>60.6</ele>
        <time>2021-05-29 17:14:26</time>
      </trkpt>
      <trkpt lat="43.26258" lon="-2.91657">
        <ele>61</ele>
        <time>2021-05-29 17:14:27</time>
      </trkpt>
      <trkpt lat="43.26253" lon="-2.91652">
        <ele>61.2</ele>
        <time>2021-05-29 17:14:28</time>
      </trkpt>
      <trkpt lat="43.26248" lon="-2.91647">
        <ele>61.6</ele>
        <time>2021-05-29 17:14:29</time>
      </trkpt>
      <trkpt lat="43.26244" lon="-2.91642">
        <ele>62</ele>
        <time>2021-05-29 17:14:30</time>
      </trkpt>
      <trkpt lat="43.26239" lon="-2.91637">
        <ele>62.4</ele>
        <time>2021-05-29 17:14:31</time>
      </trkpt>
      <trkpt lat="43.26234" lon="-2.91632">
        <ele>62.6</ele>
        <time>2021-05-29 17:14:32</time>
      </trkpt>
      <trkpt lat="43.26229" lon="-2.91628">
        <ele>63.2</ele>
        <time>2021-05-29 17:14:33</time>
      </trkpt>
      <trkpt lat="43.26224" lon="-2.91624">
        <ele>64</ele>
        <time>2021-05-29 17:14:34</time>
      </trkpt>
      <trkpt lat="43.26219" lon="-2.91619">
        <ele>64.2</ele>
        <time>2021-05-29 17:14:35</time>
      </trkpt>
      <trkpt lat="43.26214" lon="-2.91614">
        <ele>64.4</ele>
        <time>2021-05-29 17:14:36</time>
      </trkpt>
      <trkpt lat="43.26209" lon="-2.91609">
        <ele>64.6</ele>
        <time>2021-05-29 17:14:37</time>
      </trkpt>
      <trkpt lat="43.26205" lon="-2.91604">
        <ele>64.8</ele>
        <time>2021-05-29 17:14:38</time>
      </trkpt>
      <trkpt lat="43.262" lon="-2.91599">
        <ele>65.2</ele>
        <time>2021-05-29 17:14:39</time>
      </trkpt>
      <trkpt lat="43.26195" lon="-2.91595">
        <ele>65.6</ele>
        <time>2021-05-29 17:14:40</time>
      </trkpt>
      <trkpt lat="43.26191" lon="-2.9159">
        <ele>65.8</ele>
        <time>2021-05-29 17:14:41</time>
      </trkpt>
      <trkpt lat="43.26186" lon="-2.91585">
        <ele>66</ele>
        <time>2021-05-29 17:14:42</time>
      </trkpt>
      <trkpt lat="43.26182" lon="-2.9158">
        <ele>66.2</ele>
        <time>2021-05-29 17:14:43</time>
      </trkpt>
      <trkpt lat="43.26178" lon="-2.91576">
        <ele>66.6</ele>
        <time>2021-05-29 17:14:44</time>
      </trkpt>
      <trkpt lat="43.26174" lon="-2.91571">
        <ele>67</ele>
        <time>2021-05-29 17:14:45</time>
      </trkpt>
      <trkpt lat="43.2617" lon="-2.91567">
        <ele>67.2</ele>
        <time>2021-05-29 17:14:46</time>
      </trkpt>
      <trkpt lat="43.26166" lon="-2.91562">
        <ele>67.6</ele>
        <time>2021-05-29 17:14:47</time>
      </trkpt>
      <trkpt lat="43.26163" lon="-2.91558">
        <ele>68</ele>
        <time>2021-05-29 17:14:48</time>
      </trkpt>
      <trkpt lat="43.2616" lon="-2.91554">
        <ele>68.2</ele>
        <time>2021-05-29 17:14:49</time>
      </trkpt>
      <trkpt lat="43.26156" lon="-2.9155">
        <ele>68.4</ele>
        <time>2021-05-29 17:14:50</time>
      </trkpt>
      <trkpt lat="43.26154" lon="-2.91547">
        <ele>68.8</ele>
        <time>2021-05-29 17:14:51</time>
      </trkpt>
      <trkpt lat="43.26151" lon="-2.91544">
        <ele>69</ele>
        <time>2021-05-29 17:14:52</time>
      </trkpt>
      <trkpt lat="43.26148" lon="-2.91541">
        <ele>69.2</ele>
        <time>2021-05-29 17:14:53</time>
      </trkpt>
      <trkpt lat="43.26144" lon="-2.91539">
        <ele>69.6</ele>
        <time>2021-05-29 17:14:54</time>
      </trkpt>
      <trkpt lat="43.2614" lon="-2.91537">
        <ele>69.8</ele>
        <time>2021-05-29 17:14:55</time>
      </trkpt>
      <trkpt lat="43.26137" lon="-2.91535">
        <ele>70.2</ele>
        <time>2021-05-29 17:14:56</time>
      </trkpt>
      <trkpt lat="43.26134" lon="-2.91533">
        <ele>70.6</ele>
        <time>2021-05-29 17:14:57</time>
      </trkpt>
      <trkpt lat="43.26132" lon="-2.9153">
        <ele>70.8</ele>
        <time>2021-05-29 17:14:58</time>
      </trkpt>
      <trkpt lat="43.2613" lon="-2.91529">
        <ele>71</ele>
        <time>2021-05-29 17:14:59</time>
      </trkpt>
      <trkpt lat="43.26128" lon="-2.91527">
        <ele>71.4</ele>
        <time>2021-05-29 17:15:00</time>
      </trkpt>
      <trkpt lat="43.26127" lon="-2.91525">
        <ele>71.6</ele>
        <time>2021-05-29 17:15:01</time>
      </trkpt>
      <trkpt lat="43.26125" lon="-2.91524">
        <ele>72</ele>
        <time>2021-05-29 17:15:02</time>
      </trkpt>
      <trkpt lat="43.26124" lon="-2.91522">
        <ele>72.2</ele>
        <time>2021-05-29 17:15:03</time>
      </trkpt>
      <trkpt lat="43.26123" lon="-2.91521">
        <ele>72.2</ele>
        <time>2021-05-29 17:15:04</time>
      </trkpt>
      <trkpt lat="43.26122" lon="-2.9152">
        <ele>72.4</ele>
        <time>2021-05-29 17:15:05</time>
      </trkpt>
      <trkpt lat="43.26121" lon="-2.91519">
        <ele>72.6</ele>
        <time>2021-05-29 17:15:06</time>
      </trkpt>
      <trkpt lat="43.2612" lon="-2.91519">
        <ele>72.8</ele>
        <time>2021-05-29 17:15:07</time>
      </trkpt>
      <trkpt lat="43.26119" lon="-2.91519">
        <ele>73</ele>
        <time>2021-05-29 17:15:08</time>
      </trkpt>
      <trkpt lat="43.26119" lon="-2.91519">
        <ele>73.4</ele>
        <time>2021-05-29 17:15:09</time>
      </trkpt>
      <trkpt lat="43.26118" lon="-2.91519">
        <ele>73.6</ele>
        <time>2021-05-29 17:15:10</time>
      </trkpt>
      <trkpt lat="43.26118" lon="-2.91519">
        <ele>73.6</ele>
        <time>2021-05-29 17:15:11</time>
      </trkpt>
      <trkpt lat="43.26118" lon="-2.91519">
        <ele>73.8</ele>
        <time>2021-05-29 17:15:12</time>
      </trkpt>
      <trkpt lat="43.26116" lon="-2.91517">
        <ele>74</ele>
        <time>2021-05-29 17:15:32</time>
      </trkpt>
      <trkpt lat="43.26114" lon="-2.91515">
        <ele>74</ele>
        <time>2021-05-29 17:15:33</time>
      </trkpt>
      <trkpt lat="43.26112" lon="-2.91513">
        <ele>74</ele>
        <time>2021-05-29 17:15:34</time>
      </trkpt>
      <trkpt lat="43.26108" lon="-2.9151">
        <ele>73.8</ele>
        <time>2021-05-29 17:15:35</time>
      </trkpt>
      <trkpt lat="43.26104" lon="-2.91506">
        <ele>73.8</ele>
        <time>2021-05-29 17:15:36</time>
      </trkpt>
      <trkpt lat="43.261" lon="-2.91501">
        <ele>73.8</ele>
        <time>2021-05-29 17:15:37</time>
      </trkpt>
      <trkpt lat="43.26095" lon="-2.91497">
        <ele>73.8</ele>
        <time>2021-05-29 17:15:38</time>
      </trkpt>
      <trkpt lat="43.26091" lon="-2.91492">
        <ele>73.8</ele>
        <time>2021-05-29 17:15:39</time>
      </trkpt>
      <trkpt lat="43.26086" lon="-2.91488">
        <ele>73.8</ele>
        <time>2021-05-29 17:15:40</time>
      </trkpt>
      <trkpt lat="43.2608" lon="-2.91483">
        <ele>73.8</ele>
        <time>2021-05-29 17:15:41</time>
      </trkpt>
      <trkpt lat="43.26075" lon="-2.91478">
        <ele>73.8</ele>
        <time>2021-05-29 17:15:42</time>
      </trkpt>
      <trkpt lat="43.26069" lon="-2.91473">
        <ele>74.4</ele>
        <time>2021-05-29 17:15:43</time>
      </trkpt>
      <trkpt lat="43.26063" lon="-2.91467">
        <ele>74.6</ele>
        <time>2021-05-29 17:15:44</time>
      </trkpt>
      <trkpt lat="43.26058" lon="-2.91461">
        <ele>74.8</ele>
        <time>2021-05-29 17:15:45</time>
      </trkpt>
      <trkpt lat="43.26052" lon="-2.91455">
        <ele>75.2</ele>
        <time>2021-05-29 17:15:46</time>
      </trkpt>
      <trkpt lat="43.26046" lon="-2.91449">
        <ele>75.4</ele>
        <time>2021-05-29 17:15:47</time>
      </trkpt>
      <trkpt lat="43.2604" lon="-2.91443">
        <ele>75.4</ele>
        <time>2021-05-29 17:15:48</time>
      </trkpt>
      <trkpt lat="43.26034" lon="-2.91436">
        <ele>75.6</ele>
        <time>2021-05-29 17:15:49</time>
      </trkpt>
      <trkpt lat="43.26028" lon="-2.9143">
        <ele>75.8</ele>
        <time>2021-05-29 17:15:50</time>
      </trkpt>
      <trkpt lat="43.26022" lon="-2.91423">
        <ele>76</ele>
        <time>2021-05-29 17:15:51</time>
      </trkpt>
      <trkpt lat="43.26016" lon="-2.91416">
        <ele>76</ele>
        <time>2021-05-29 17:15:52</time>
      </trkpt>
      <trkpt lat="43.26011" lon="-2.91409">
        <ele>76.2</ele>
        <time>2021-05-29 17:15:53</time>
      </trkpt>
      <trkpt lat="43.26004" lon="-2.91402">
        <ele>76.4</ele>
        <time>2021-05-29 17:15:54</time>
      </trkpt>
      <trkpt lat="43.25998" lon="-2.91395">
        <ele>76.6</ele>
        <time>2021-05-29 17:15:55</time>
      </trkpt>
      <trkpt lat="43.25991" lon="-2.91389">
        <ele>76.6</ele>
        <time>2021-05-29 17:15:56</time>
      </trkpt>
      <trkpt lat="43.25985" lon="-2.91382">
        <ele>76.8</ele>
        <time>2021-05-29 17:15:57</time>
      </trkpt>
      <trkpt lat="43.25978" lon="-2.91376">
        <ele>77</ele>
        <time>2021-05-29 17:15:58</time>
      </trkpt>
      <trkpt lat="43.25971" lon="-2.9137">
        <ele>77</ele>
        <time>2021-05-29 17:15:59</time>
      </trkpt>
      <trkpt lat="43.25964" lon="-2.91365">
        <ele>77.2</ele>
        <time>2021-05-29 17:16:00</time>
      </trkpt>
      <trkpt lat="43.25956" lon="-2.91359">
        <ele>77.2</ele>
        <time>2021-05-29 17:16:01</time>
      </trkpt>
      <trkpt lat="43.25949" lon="-2.91354">
        <ele>77.2</ele>
        <time>2021-05-29 17:16:02</time>
      </trkpt>
      <trkpt lat="43.25941" lon="-2.91349">
        <ele>77.2</ele>
        <time>2021-05-29 17:16:03</time>
      </trkpt>
      <trkpt lat="43.25933" lon="-2.91345">
        <ele>77.2</ele>
        <time>2021-05-29 17:16:04</time>
      </trkpt>
      <trkpt lat="43.25925" lon="-2.91341">
        <ele>77.4</ele>
        <time>2021-05-29 17:16:05</time>
      </trkpt>
      <trkpt lat="43.25917" lon="-2.91338">
        <ele>77.4</ele>
        <time>2021-05-29 17:16:06</time>
      </trkpt>
      <trkpt lat="43.25909" lon="-2.91335">
        <ele>77.4</ele>
        <time>2021-05-29 17:16:07</time>
      </trkpt>
      <trkpt lat="43.25901" lon="-2.91332">
        <ele>77.4</ele>
        <time>2021-05-29 17:16:08</time>
      </trkpt>
      <trkpt lat="43.25893" lon="-2.91328">
        <ele>77.4</ele>
        <time>2021-05-29 17:16:09</time>
      </trkpt>
      <trkpt lat="43.25885" lon="-2.91324">
        <ele>77.4</ele>
        <time>2021-05-29 17:16:10</time>
      </trkpt>
      <trkpt lat="43.25877" lon="-2.9132">
        <ele>77.4</ele>
        <time>2021-05-29 17:16:11</time>
      </trkpt>
      <trkpt lat="43.25869" lon="-2.91315">
        <ele>77.6</ele>
        <time>2021-05-29 17:16:12</time>
      </trkpt>
      <trkpt lat="43.25861" lon="-2.91311">
        <ele>77.6</ele>
        <time>2021-05-29 17:16:13</time>
      </trkpt>
      <trkpt lat="43.25852" lon="-2.91308">
        <ele>77.6</ele>
        <time>2021-05-29 17:16:14</time>
      </trkpt>
      <trkpt lat="43.25843" lon="-2.91306">
        <ele>77.6</ele>
        <time>2021-05-29 17:16:15</time>
      </trkpt>
      <trkpt lat="43.25834" lon="-2.91302">
        <ele>77.8</ele>
        <time>2021-05-29 17:16:16</time>
      </trkpt>
      <trkpt lat="43.25826" lon="-2.91295">
        <ele>77.8</ele>
        <time>2021-05-29 17:16:17</time>
      </trkpt>
      <trkpt lat="43.25818" lon="-2.91293">
        <ele>77.8</ele>
        <time>2021-05-29 17:16:18</time>
      </trkpt>
      <trkpt lat="43.2581" lon="-2.9129">
        <ele>77.8</ele>
        <time>2021-05-29 17:16:19</time>
      </trkpt>
      <trkpt lat="43.25802" lon="-2.91286">
        <ele>77.8</ele>
        <time>2021-05-29 17:16:20</time>
      </trkpt>
      <trkpt lat="43.25793" lon="-2.91282">
        <ele>77.8</ele>
        <time>2021-05-29 17:16:21</time>
      </trkpt>
      <trkpt lat="43.25785" lon="-2.91277">
        <ele>78</ele>
        <time>2021-05-29 17:16:22</time>
      </trkpt>
      <trkpt lat="43.25777" lon="-2.91271">
        <ele>78</ele>
        <time>2021-05-29 17:16:23</time>
      </trkpt>
      <trkpt lat="43.2577" lon="-2.91266">
        <ele>78</ele>
        <time>2021-05-29 17:16:24</time>
      </trkpt>
      <trkpt lat="43.25762" lon="-2.9126">
        <ele>78</ele>
        <time>2021-05-29 17:16:25</time>
      </trkpt>
      <trkpt lat="43.25756" lon="-2.91255">
        <ele>78</ele>
        <time>2021-05-29 17:16:26</time>
      </trkpt>
      <trkpt lat="43.25749" lon="-2.9125">
        <ele>78.2</ele>
        <time>2021-05-29 17:16:27</time>
      </trkpt>
      <trkpt lat="43.25743" lon="-2.91245">
        <ele>78.2</ele>
        <time>2021-05-29 17:16:28</time>
      </trkpt>
      <trkpt lat="43.25737" lon="-2.9124">
        <ele>78.4</ele>
        <time>2021-05-29 17:16:29</time>
      </trkpt>
      <trkpt lat="43.25731" lon="-2.91235">
        <ele>78.4</ele>
        <time>2021-05-29 17:16:30</time>
      </trkpt>
      <trkpt lat="43.25726" lon="-2.9123">
        <ele>78.6</ele>
        <time>2021-05-29 17:16:31</time>
      </trkpt>
      <trkpt lat="43.2572" lon="-2.91225">
        <ele>78.6</ele>
        <time>2021-05-29 17:16:32</time>
      </trkpt>
      <trkpt lat="43.25715" lon="-2.91221">
        <ele>78.6</ele>
        <time>2021-05-29 17:16:33</time>
      </trkpt>
      <trkpt lat="43.2571" lon="-2.91216">
        <ele>78.6</ele>
        <time>2021-05-29 17:16:34</time>
      </trkpt>
      <trkpt lat="43.25705" lon="-2.91212">
        <ele>78.8</ele>
        <time>2021-05-29 17:16:35</time>
      </trkpt>
      <trkpt lat="43.25701" lon="-2.91208">
        <ele>78.8</ele>
        <time>2021-05-29 17:16:36</time>
      </trkpt>
      <trkpt lat="43.25697" lon="-2.91204">
        <ele>78.8</ele>
        <time>2021-05-29 17:16:37</time>
      </trkpt>
      <trkpt lat="43.25694" lon="-2.91201">
        <ele>78.8</ele>
        <time>2021-05-29 17:16:38</time>
      </trkpt>
      <trkpt lat="43.25692" lon="-2.91199">
        <ele>78.8</ele>
        <time>2021-05-29 17:16:39</time>
      </trkpt>
      <trkpt lat="43.25691" lon="-2.91197">
        <ele>78.8</ele>
        <time>2021-05-29 17:16:40</time>
      </trkpt>
      <trkpt lat="43.2569" lon="-2.91196">
        <ele>78.8</ele>
        <time>2021-05-29 17:16:41</time>
      </trkpt>
      <trkpt lat="43.25689" lon="-2.91195">
        <ele>78.6</ele>
        <time>2021-05-29 17:16:42</time>
      </trkpt>
      <trkpt lat="43.25688" lon="-2.91194">
        <ele>78.6</ele>
        <time>2021-05-29 17:16:43</time>
      </trkpt>
      <trkpt lat="43.25688" lon="-2.91193">
        <ele>78.6</ele>
        <time>2021-05-29 17:16:44</time>
      </trkpt>
      <trkpt lat="43.25687" lon="-2.91191">
        <ele>78.6</ele>
        <time>2021-05-29 17:16:45</time>
      </trkpt>
      <trkpt lat="43.25685" lon="-2.9119">
        <ele>78.6</ele>
        <time>2021-05-29 17:16:46</time>
      </trkpt>
      <trkpt lat="43.25684" lon="-2.91189">
        <ele>78.6</ele>
        <time>2021-05-29 17:16:47</time>
      </trkpt>
      <trkpt lat="43.25683" lon="-2.91188">
        <ele>78.6</ele>
        <time>2021-05-29 17:16:48</time>
      </trkpt>
      <trkpt lat="43.25682" lon="-2.91187">
        <ele>78.6</ele>
        <time>2021-05-29 17:16:49</time>
      </trkpt>
      <trkpt lat="43.25681" lon="-2.91186">
        <ele>78.6</ele>
        <time>2021-05-29 17:16:50</time>
      </trkpt>
      <trkpt lat="43.2568" lon="-2.91185">
        <ele>78.6</ele>
        <time>2021-05-29 17:16:51</time>
      </trkpt>
      <trkpt lat="43.25679" lon="-2.91185">
        <ele>78.6</ele>
        <time>2021-05-29 17:16:52</time>
      </trkpt>
      <trkpt lat="43.25678" lon="-2.91185">
        <ele>78.4</ele>
        <time>2021-05-29 17:16:53</time>
      </trkpt>
      <trkpt lat="43.25677" lon="-2.91185">
        <ele>78.4</ele>
        <time>2021-05-29 17:16:54</time>
      </trkpt>
      <trkpt lat="43.25677" lon="-2.91184">
        <ele>78.4</ele>
        <time>2021-05-29 17:16:55</time>
      </trkpt>
      <trkpt lat="43.25676" lon="-2.91184">
        <ele>78.4</ele>
        <time>2021-05-29 17:16:56</time>
      </trkpt>
      <trkpt lat="43.25672" lon="-2.9118">
        <ele>78.4</ele>
        <time>2021-05-29 17:17:00</time>
      </trkpt>
      <trkpt lat="43.2567" lon="-2.91178">
        <ele>78.4</ele>
        <time>2021-05-29 17:17:01</time>
      </trkpt>
      <trkpt lat="43.25668" lon="-2.91175">
        <ele>78.4</ele>
        <time>2021-05-29 17:17:02</time>
      </trkpt>
      <trkpt lat="43.25664" lon="-2.91172">
        <ele>78.4</ele>
        <time>2021-05-29 17:17:03</time>
      </trkpt>
      <trkpt lat="43.25661" lon="-2.91169">
        <ele>78.4</ele>
        <time>2021-05-29 17:17:04</time>
      </trkpt>
      <trkpt lat="43.25656" lon="-2.91166">
        <ele>78.4</ele>
        <time>2021-05-29 17:17:05</time>
      </trkpt>
      <trkpt lat="43.2565" lon="-2.91162">
        <ele>78.4</ele>
        <time>2021-05-29 17:17:06</time>
      </trkpt>
      <trkpt lat="43.25645" lon="-2.91159">
        <ele>78.4</ele>
        <time>2021-05-29 17:17:07</time>
      </trkpt>
      <trkpt lat="43.25639" lon="-2.91155">
        <ele>78.4</ele>
        <time>2021-05-29 17:17:08</time>
      </trkpt>
      <trkpt lat="43.25634" lon="-2.9115">
        <ele>78.4</ele>
        <time>2021-05-29 17:17:09</time>
      </trkpt>
      <trkpt lat="43.25629" lon="-2.91143">
        <ele>78.4</ele>
        <time>2021-05-29 17:17:10</time>
      </trkpt>
      <trkpt lat="43.25624" lon="-2.91137">
        <ele>78.4</ele>
        <time>2021-05-29 17:17:11</time>
      </trkpt>
      <trkpt lat="43.2562" lon="-2.9113">
        <ele>78.2</ele>
        <time>2021-05-29 17:17:12</time>
      </trkpt>
      <trkpt lat="43.25614" lon="-2.91124">
        <ele>78.2</ele>
        <time>2021-05-29 17:17:13</time>
      </trkpt>
      <trkpt lat="43.25609" lon="-2.91119">
        <ele>78.2</ele>
        <time>2021-05-29 17:17:14</time>
      </trkpt>
      <trkpt lat="43.25603" lon="-2.91113">
        <ele>78.2</ele>
        <time>2021-05-29 17:17:15</time>
      </trkpt>
      <trkpt lat="43.25597" lon="-2.91108">
        <ele>78.4</ele>
        <time>2021-05-29 17:17:16</time>
      </trkpt>
      <trkpt lat="43.25591" lon="-2.91102">
        <ele>78.4</ele>
        <time>2021-05-29 17:17:17</time>
      </trkpt>
      <trkpt lat="43.25584" lon="-2.91096">
        <ele>78.2</ele>
        <time>2021-05-29 17:17:18</time>
      </trkpt>
      <trkpt lat="43.25577" lon="-2.91089">
        <ele>78.2</ele>
        <time>2021-05-29 17:17:19</time>
      </trkpt>
      <trkpt lat="43.2557" lon="-2.91082">
        <ele>78.2</ele>
        <time>2021-05-29 17:17:20</time>
      </trkpt>
      <trkpt lat="43.25562" lon="-2.91075">
        <ele>78.2</ele>
        <time>2021-05-29 17:17:21</time>
      </trkpt>
      <trkpt lat="43.25554" lon="-2.91068">
        <ele>78</ele>
        <time>2021-05-29 17:17:22</time>
      </trkpt>
      <trkpt lat="43.25546" lon="-2.9106">
        <ele>78</ele>
        <time>2021-05-29 17:17:23</time>
      </trkpt>
      <trkpt lat="43.25538" lon="-2.91053">
        <ele>78</ele>
        <time>2021-05-29 17:17:24</time>
      </trkpt>
      <trkpt lat="43.2553" lon="-2.91045">
        <ele>77.8</ele>
        <time>2021-05-29 17:17:25</time>
      </trkpt>
      <trkpt lat="43.25521" lon="-2.91037">
        <ele>77.8</ele>
        <time>2021-05-29 17:17:26</time>
      </trkpt>
      <trkpt lat="43.25512" lon="-2.91029">
        <ele>76.8</ele>
        <time>2021-05-29 17:17:27</time>
      </trkpt>
      <trkpt lat="43.25503" lon="-2.91021">
        <ele>76.4</ele>
        <time>2021-05-29 17:17:28</time>
      </trkpt>
      <trkpt lat="43.25494" lon="-2.91013">
        <ele>76</ele>
        <time>2021-05-29 17:17:29</time>
      </trkpt>
      <trkpt lat="43.25485" lon="-2.91004">
        <ele>75.4</ele>
        <time>2021-05-29 17:17:30</time>
      </trkpt>
      <trkpt lat="43.25476" lon="-2.90995">
        <ele>75</ele>
        <time>2021-05-29 17:17:31</time>
      </trkpt>
      <trkpt lat="43.25466" lon="-2.90985">
        <ele>74.8</ele>
        <time>2021-05-29 17:17:32</time>
      </trkpt>
      <trkpt lat="43.25456" lon="-2.90977">
        <ele>74.2</ele>
        <time>2021-05-29 17:17:33</time>
      </trkpt>
      <trkpt lat="43.25446" lon="-2.90968">
        <ele>73.6</ele>
        <time>2021-05-29 17:17:34</time>
      </trkpt>
      <trkpt lat="43.25436" lon="-2.90958">
        <ele>73</ele>
        <time>2021-05-29 17:17:35</time>
      </trkpt>
      <trkpt lat="43.25426" lon="-2.90949">
        <ele>72</ele>
        <time>2021-05-29 17:17:36</time>
      </trkpt>
      <trkpt lat="43.25415" lon="-2.90939">
        <ele>71.6</ele>
        <time>2021-05-29 17:17:37</time>
      </trkpt>
      <trkpt lat="43.25405" lon="-2.9093">
        <ele>71.2</ele>
        <time>2021-05-29 17:17:38</time>
      </trkpt>
      <trkpt lat="43.25394" lon="-2.90921">
        <ele>70.6</ele>
        <time>2021-05-29 17:17:39</time>
      </trkpt>
      <trkpt lat="43.25384" lon="-2.90911">
        <ele>70.2</ele>
        <time>2021-05-29 17:17:40</time>
      </trkpt>
      <trkpt lat="43.25374" lon="-2.90901">
        <ele>69.8</ele>
        <time>2021-05-29 17:17:41</time>
      </trkpt>
      <trkpt lat="43.25363" lon="-2.90892">
        <ele>69.2</ele>
        <time>2021-05-29 17:17:42</time>
      </trkpt>
      <trkpt lat="43.25353" lon="-2.90883">
        <ele>68.6</ele>
        <time>2021-05-29 17:17:43</time>
      </trkpt>
      <trkpt lat="43.25343" lon="-2.90874">
        <ele>68</ele>
        <time>2021-05-29 17:17:44</time>
      </trkpt>
      <trkpt lat="43.25332" lon="-2.90864">
        <ele>67.4</ele>
        <time>2021-05-29 17:17:45</time>
      </trkpt>
      <trkpt lat="43.25322" lon="-2.90855">
        <ele>66.8</ele>
        <time>2021-05-29 17:17:46</time>
      </trkpt>
      <trkpt lat="43.25311" lon="-2.90846">
        <ele>66.4</ele>
        <time>2021-05-29 17:17:47</time>
      </trkpt>
      <trkpt lat="43.253" lon="-2.90836">
        <ele>65.6</ele>
        <time>2021-05-29 17:17:48</time>
      </trkpt>
      <trkpt lat="43.25289" lon="-2.90827">
        <ele>64.8</ele>
        <time>2021-05-29 17:17:49</time>
      </trkpt>
      <trkpt lat="43.25278" lon="-2.90818">
        <ele>64.2</ele>
        <time>2021-05-29 17:17:50</time>
      </trkpt>
      <trkpt lat="43.25267" lon="-2.90809">
        <ele>63.8</ele>
        <time>2021-05-29 17:17:51</time>
      </trkpt>
      <trkpt lat="43.25257" lon="-2.908">
        <ele>63.4</ele>
        <time>2021-05-29 17:17:52</time>
      </trkpt>
      <trkpt lat="43.25246" lon="-2.90792">
        <ele>62.8</ele>
        <time>2021-05-29 17:17:53</time>
      </trkpt>
      <trkpt lat="43.25235" lon="-2.90783">
        <ele>62.2</ele>
        <time>2021-05-29 17:17:54</time>
      </trkpt>
      <trkpt lat="43.25224" lon="-2.90774">
        <ele>61.2</ele>
        <time>2021-05-29 17:17:55</time>
      </trkpt>
      <trkpt lat="43.25214" lon="-2.90765">
        <ele>60.4</ele>
        <time>2021-05-29 17:17:56</time>
      </trkpt>
      <trkpt lat="43.25203" lon="-2.90757">
        <ele>60</ele>
        <time>2021-05-29 17:17:57</time>
      </trkpt>
      <trkpt lat="43.25192" lon="-2.90748">
        <ele>59.4</ele>
        <time>2021-05-29 17:17:58</time>
      </trkpt>
      <trkpt lat="43.25182" lon="-2.90739">
        <ele>59</ele>
        <time>2021-05-29 17:17:59</time>
      </trkpt>
      <trkpt lat="43.25171" lon="-2.9073">
        <ele>58.6</ele>
        <time>2021-05-29 17:18:00</time>
      </trkpt>
      <trkpt lat="43.2516" lon="-2.90721">
        <ele>57.4</ele>
        <time>2021-05-29 17:18:01</time>
      </trkpt>
      <trkpt lat="43.2515" lon="-2.90712">
        <ele>57</ele>
        <time>2021-05-29 17:18:02</time>
      </trkpt>
      <trkpt lat="43.25139" lon="-2.90703">
        <ele>56.6</ele>
        <time>2021-05-29 17:18:03</time>
      </trkpt>
      <trkpt lat="43.25128" lon="-2.90694">
        <ele>56.4</ele>
        <time>2021-05-29 17:18:04</time>
      </trkpt>
      <trkpt lat="43.25118" lon="-2.90685">
        <ele>55.8</ele>
        <time>2021-05-29 17:18:05</time>
      </trkpt>
      <trkpt lat="43.25108" lon="-2.90677">
        <ele>55.4</ele>
        <time>2021-05-29 17:18:06</time>
      </trkpt>
      <trkpt lat="43.25098" lon="-2.90669">
        <ele>54.8</ele>
        <time>2021-05-29 17:18:07</time>
      </trkpt>
      <trkpt lat="43.25088" lon="-2.9066">
        <ele>54.2</ele>
        <time>2021-05-29 17:18:08</time>
      </trkpt>
      <trkpt lat="43.25079" lon="-2.90652">
        <ele>53.8</ele>
        <time>2021-05-29 17:18:09</time>
      </trkpt>
      <trkpt lat="43.2507" lon="-2.90645">
        <ele>53.6</ele>
        <time>2021-05-29 17:18:10</time>
      </trkpt>
      <trkpt lat="43.2506" lon="-2.90637">
        <ele>53.4</ele>
        <time>2021-05-29 17:18:11</time>
      </trkpt>
      <trkpt lat="43.25051" lon="-2.9063">
        <ele>53.4</ele>
        <time>2021-05-29 17:18:12</time>
      </trkpt>
      <trkpt lat="43.25042" lon="-2.90622">
        <ele>53.2</ele>
        <time>2021-05-29 17:18:13</time>
      </trkpt>
      <trkpt lat="43.25034" lon="-2.90615">
        <ele>53.2</ele>
        <time>2021-05-29 17:18:14</time>
      </trkpt>
      <trkpt lat="43.25025" lon="-2.90608">
        <ele>53.2</ele>
        <time>2021-05-29 17:18:15</time>
      </trkpt>
      <trkpt lat="43.25017" lon="-2.90601">
        <ele>53.2</ele>
        <time>2021-05-29 17:18:16</time>
      </trkpt>
      <trkpt lat="43.25009" lon="-2.90594">
        <ele>53.2</ele>
        <time>2021-05-29 17:18:17</time>
      </trkpt>
      <trkpt lat="43.25001" lon="-2.90587">
        <ele>53.2</ele>
        <time>2021-05-29 17:18:18</time>
      </trkpt>
      <trkpt lat="43.24993" lon="-2.9058">
        <ele>53.2</ele>
        <time>2021-05-29 17:18:19</time>
      </trkpt>
      <trkpt lat="43.24986" lon="-2.90572">
        <ele>53.2</ele>
        <time>2021-05-29 17:18:20</time>
      </trkpt>
      <trkpt lat="43.2498" lon="-2.90563">
        <ele>53.2</ele>
        <time>2021-05-29 17:18:21</time>
      </trkpt>
      <trkpt lat="43.24974" lon="-2.90553">
        <ele>53.2</ele>
        <time>2021-05-29 17:18:22</time>
      </trkpt>
      <trkpt lat="43.24969" lon="-2.90543">
        <ele>53.6</ele>
        <time>2021-05-29 17:18:23</time>
      </trkpt>
      <trkpt lat="43.24964" lon="-2.90532">
        <ele>54</ele>
        <time>2021-05-29 17:18:24</time>
      </trkpt>
      <trkpt lat="43.24959" lon="-2.90521">
        <ele>54.2</ele>
        <time>2021-05-29 17:18:25</time>
      </trkpt>
      <trkpt lat="43.24954" lon="-2.9051">
        <ele>54.4</ele>
        <time>2021-05-29 17:18:26</time>
      </trkpt>
      <trkpt lat="43.2495" lon="-2.90499">
        <ele>54.4</ele>
        <time>2021-05-29 17:18:27</time>
      </trkpt>
      <trkpt lat="43.24946" lon="-2.90486">
        <ele>54.6</ele>
        <time>2021-05-29 17:18:28</time>
      </trkpt>
      <trkpt lat="43.24943" lon="-2.90474">
        <ele>54.6</ele>
        <time>2021-05-29 17:18:29</time>
      </trkpt>
      <trkpt lat="43.2494" lon="-2.90461">
        <ele>54.6</ele>
        <time>2021-05-29 17:18:30</time>
      </trkpt>
      <trkpt lat="43.24938" lon="-2.90448">
        <ele>54.6</ele>
        <time>2021-05-29 17:18:31</time>
      </trkpt>
      <trkpt lat="43.24936" lon="-2.90435">
        <ele>54.6</ele>
        <time>2021-05-29 17:18:32</time>
      </trkpt>
      <trkpt lat="43.24934" lon="-2.90422">
        <ele>54.6</ele>
        <time>2021-05-29 17:18:33</time>
      </trkpt>
      <trkpt lat="43.24934" lon="-2.9041">
        <ele>54.6</ele>
        <time>2021-05-29 17:18:34</time>
      </trkpt>
      <trkpt lat="43.24934" lon="-2.90397">
        <ele>54.6</ele>
        <time>2021-05-29 17:18:35</time>
      </trkpt>
      <trkpt lat="43.24935" lon="-2.90386">
        <ele>54.2</ele>
        <time>2021-05-29 17:18:36</time>
      </trkpt>
      <trkpt lat="43.24936" lon="-2.90374">
        <ele>53.8</ele>
        <time>2021-05-29 17:18:37</time>
      </trkpt>
      <trkpt lat="43.24938" lon="-2.90363">
        <ele>53.4</ele>
        <time>2021-05-29 17:18:38</time>
      </trkpt>
      <trkpt lat="43.2494" lon="-2.90351">
        <ele>53.2</ele>
        <time>2021-05-29 17:18:39</time>
      </trkpt>
      <trkpt lat="43.24943" lon="-2.9034">
        <ele>52.8</ele>
        <time>2021-05-29 17:18:40</time>
      </trkpt>
      <trkpt lat="43.24946" lon="-2.90328">
        <ele>52.4</ele>
        <time>2021-05-29 17:18:41</time>
      </trkpt>
      <trkpt lat="43.24951" lon="-2.90316">
        <ele>52</ele>
        <time>2021-05-29 17:18:42</time>
      </trkpt>
      <trkpt lat="43.24956" lon="-2.90304">
        <ele>51.8</ele>
        <time>2021-05-29 17:18:43</time>
      </trkpt>
      <trkpt lat="43.24961" lon="-2.90292">
        <ele>51.6</ele>
        <time>2021-05-29 17:18:44</time>
      </trkpt>
      <trkpt lat="43.24966" lon="-2.9028">
        <ele>51.4</ele>
        <time>2021-05-29 17:18:45</time>
      </trkpt>
      <trkpt lat="43.24971" lon="-2.90269">
        <ele>51</ele>
        <time>2021-05-29 17:18:46</time>
      </trkpt>
      <trkpt lat="43.24977" lon="-2.90258">
        <ele>50.6</ele>
        <time>2021-05-29 17:18:47</time>
      </trkpt>
      <trkpt lat="43.24984" lon="-2.90246">
        <ele>50.4</ele>
        <time>2021-05-29 17:18:48</time>
      </trkpt>
      <trkpt lat="43.24991" lon="-2.90235">
        <ele>50.2</ele>
        <time>2021-05-29 17:18:49</time>
      </trkpt>
      <trkpt lat="43.24998" lon="-2.90223">
        <ele>50</ele>
        <time>2021-05-29 17:18:50</time>
      </trkpt>
      <trkpt lat="43.25006" lon="-2.90212">
        <ele>49.8</ele>
        <time>2021-05-29 17:18:51</time>
      </trkpt>
      <trkpt lat="43.25013" lon="-2.902">
        <ele>49.6</ele>
        <time>2021-05-29 17:18:52</time>
      </trkpt>
      <trkpt lat="43.2502" lon="-2.90188">
        <ele>49.2</ele>
        <time>2021-05-29 17:18:53</time>
      </trkpt>
      <trkpt lat="43.25027" lon="-2.90176">
        <ele>48.8</ele>
        <time>2021-05-29 17:18:54</time>
      </trkpt>
      <trkpt lat="43.25035" lon="-2.90164">
        <ele>48.6</ele>
        <time>2021-05-29 17:18:55</time>
      </trkpt>
      <trkpt lat="43.25043" lon="-2.90152">
        <ele>48</ele>
        <time>2021-05-29 17:18:56</time>
      </trkpt>
      <trkpt lat="43.25051" lon="-2.9014">
        <ele>47.2</ele>
        <time>2021-05-29 17:18:57</time>
      </trkpt>
      <trkpt lat="43.2506" lon="-2.90128">
        <ele>46.8</ele>
        <time>2021-05-29 17:18:58</time>
      </trkpt>
      <trkpt lat="43.25068" lon="-2.90116">
        <ele>46.2</ele>
        <time>2021-05-29 17:18:59</time>
      </trkpt>
      <trkpt lat="43.25076" lon="-2.90103">
        <ele>45.6</ele>
        <time>2021-05-29 17:19:00</time>
      </trkpt>
      <trkpt lat="43.25084" lon="-2.90091">
        <ele>45</ele>
        <time>2021-05-29 17:19:01</time>
      </trkpt>
      <trkpt lat="43.25093" lon="-2.90079">
        <ele>44.4</ele>
        <time>2021-05-29 17:19:02</time>
      </trkpt>
      <trkpt lat="43.25101" lon="-2.90067">
        <ele>43.8</ele>
        <time>2021-05-29 17:19:03</time>
      </trkpt>
      <trkpt lat="43.25109" lon="-2.90055">
        <ele>43.2</ele>
        <time>2021-05-29 17:19:04</time>
      </trkpt>
      <trkpt lat="43.25117" lon="-2.90044">
        <ele>42.8</ele>
        <time>2021-05-29 17:19:05</time>
      </trkpt>
      <trkpt lat="43.25124" lon="-2.90033">
        <ele>42.4</ele>
        <time>2021-05-29 17:19:06</time>
      </trkpt>
      <trkpt lat="43.25132" lon="-2.90022">
        <ele>42</ele>
        <time>2021-05-29 17:19:07</time>
      </trkpt>
      <trkpt lat="43.25139" lon="-2.90011">
        <ele>41.8</ele>
        <time>2021-05-29 17:19:08</time>
      </trkpt>
      <trkpt lat="43.25146" lon="-2.89999">
        <ele>41.4</ele>
        <time>2021-05-29 17:19:09</time>
      </trkpt>
      <trkpt lat="43.25152" lon="-2.89989">
        <ele>41</ele>
        <time>2021-05-29 17:19:10</time>
      </trkpt>
      <trkpt lat="43.25159" lon="-2.89978">
        <ele>41</ele>
        <time>2021-05-29 17:19:11</time>
      </trkpt>
      <trkpt lat="43.25165" lon="-2.89967">
        <ele>41</ele>
        <time>2021-05-29 17:19:12</time>
      </trkpt>
      <trkpt lat="43.25172" lon="-2.89956">
        <ele>40.8</ele>
        <time>2021-05-29 17:19:13</time>
      </trkpt>
      <trkpt lat="43.25178" lon="-2.89945">
        <ele>40.8</ele>
        <time>2021-05-29 17:19:14</time>
      </trkpt>
      <trkpt lat="43.25184" lon="-2.89934">
        <ele>40.8</ele>
        <time>2021-05-29 17:19:15</time>
      </trkpt>
      <trkpt lat="43.2519" lon="-2.89923">
        <ele>40.8</ele>
        <time>2021-05-29 17:19:16</time>
      </trkpt>
      <trkpt lat="43.25195" lon="-2.89911">
        <ele>40.8</ele>
        <time>2021-05-29 17:19:17</time>
      </trkpt>
      <trkpt lat="43.25201" lon="-2.89899">
        <ele>40.8</ele>
        <time>2021-05-29 17:19:18</time>
      </trkpt>
      <trkpt lat="43.25207" lon="-2.89888">
        <ele>40.8</ele>
        <time>2021-05-29 17:19:19</time>
      </trkpt>
      <trkpt lat="43.25213" lon="-2.89877">
        <ele>40.8</ele>
        <time>2021-05-29 17:19:20</time>
      </trkpt>
      <trkpt lat="43.25219" lon="-2.89867">
        <ele>40.8</ele>
        <time>2021-05-29 17:19:21</time>
      </trkpt>
      <trkpt lat="43.25226" lon="-2.89857">
        <ele>40.8</ele>
        <time>2021-05-29 17:19:22</time>
      </trkpt>
      <trkpt lat="43.25232" lon="-2.89848">
        <ele>40.8</ele>
        <time>2021-05-29 17:19:23</time>
      </trkpt>
      <trkpt lat="43.25238" lon="-2.89838">
        <ele>40.8</ele>
        <time>2021-05-29 17:19:24</time>
      </trkpt>
      <trkpt lat="43.25243" lon="-2.89829">
        <ele>41</ele>
        <time>2021-05-29 17:19:25</time>
      </trkpt>
      <trkpt lat="43.25249" lon="-2.8982">
        <ele>41.2</ele>
        <time>2021-05-29 17:19:26</time>
      </trkpt>
      <trkpt lat="43.25255" lon="-2.89811">
        <ele>41.2</ele>
        <time>2021-05-29 17:19:27</time>
      </trkpt>
      <trkpt lat="43.25261" lon="-2.89802">
        <ele>41.4</ele>
        <time>2021-05-29 17:19:28</time>
      </trkpt>
      <trkpt lat="43.25267" lon="-2.89793">
        <ele>41.4</ele>
        <time>2021-05-29 17:19:29</time>
      </trkpt>
      <trkpt lat="43.25272" lon="-2.89785">
        <ele>41.6</ele>
        <time>2021-05-29 17:19:30</time>
      </trkpt>
      <trkpt lat="43.25278" lon="-2.89776">
        <ele>41.6</ele>
        <time>2021-05-29 17:19:31</time>
      </trkpt>
      <trkpt lat="43.25284" lon="-2.89767">
        <ele>41.6</ele>
        <time>2021-05-29 17:19:32</time>
      </trkpt>
      <trkpt lat="43.25289" lon="-2.89759">
        <ele>41.8</ele>
        <time>2021-05-29 17:19:33</time>
      </trkpt>
      <trkpt lat="43.25295" lon="-2.8975">
        <ele>42</ele>
        <time>2021-05-29 17:19:34</time>
      </trkpt>
      <trkpt lat="43.253" lon="-2.89742">
        <ele>42</ele>
        <time>2021-05-29 17:19:35</time>
      </trkpt>
      <trkpt lat="43.25305" lon="-2.89733">
        <ele>42.4</ele>
        <time>2021-05-29 17:19:36</time>
      </trkpt>
      <trkpt lat="43.2531" lon="-2.89723">
        <ele>42.8</ele>
        <time>2021-05-29 17:19:37</time>
      </trkpt>
      <trkpt lat="43.25315" lon="-2.89714">
        <ele>43</ele>
        <time>2021-05-29 17:19:38</time>
      </trkpt>
      <trkpt lat="43.25319" lon="-2.89704">
        <ele>43.2</ele>
        <time>2021-05-29 17:19:39</time>
      </trkpt>
      <trkpt lat="43.25323" lon="-2.89694">
        <ele>43.6</ele>
        <time>2021-05-29 17:19:40</time>
      </trkpt>
      <trkpt lat="43.25327" lon="-2.89684">
        <ele>44</ele>
        <time>2021-05-29 17:19:41</time>
      </trkpt>
      <trkpt lat="43.2533" lon="-2.89674">
        <ele>44.2</ele>
        <time>2021-05-29 17:19:42</time>
      </trkpt>
      <trkpt lat="43.25333" lon="-2.89664">
        <ele>44.4</ele>
        <time>2021-05-29 17:19:43</time>
      </trkpt>
      <trkpt lat="43.25337" lon="-2.89654">
        <ele>44.8</ele>
        <time>2021-05-29 17:19:44</time>
      </trkpt>
      <trkpt lat="43.2534" lon="-2.89644">
        <ele>45.2</ele>
        <time>2021-05-29 17:19:45</time>
      </trkpt>
      <trkpt lat="43.25344" lon="-2.89634">
        <ele>45.4</ele>
        <time>2021-05-29 17:19:46</time>
      </trkpt>
      <trkpt lat="43.25347" lon="-2.89624">
        <ele>45.8</ele>
        <time>2021-05-29 17:19:47</time>
      </trkpt>
      <trkpt lat="43.25351" lon="-2.89613">
        <ele>45.8</ele>
        <time>2021-05-29 17:19:48</time>
      </trkpt>
      <trkpt lat="43.25354" lon="-2.89603">
        <ele>46</ele>
        <time>2021-05-29 17:19:49</time>
      </trkpt>
      <trkpt lat="43.25357" lon="-2.89593">
        <ele>46.2</ele>
        <time>2021-05-29 17:19:50</time>
      </trkpt>
      <trkpt lat="43.2536" lon="-2.89583">
        <ele>46.2</ele>
        <time>2021-05-29 17:19:51</time>
      </trkpt>
      <trkpt lat="43.25363" lon="-2.89573">
        <ele>46.2</ele>
        <time>2021-05-29 17:19:52</time>
      </trkpt>
      <trkpt lat="43.25366" lon="-2.89563">
        <ele>46.2</ele>
        <time>2021-05-29 17:19:53</time>
      </trkpt>
      <trkpt lat="43.2537" lon="-2.89554">
        <ele>46.4</ele>
        <time>2021-05-29 17:19:54</time>
      </trkpt>
      <trkpt lat="43.25373" lon="-2.89544">
        <ele>46.4</ele>
        <time>2021-05-29 17:19:55</time>
      </trkpt>
      <trkpt lat="43.25377" lon="-2.89534">
        <ele>46.4</ele>
        <time>2021-05-29 17:19:56</time>
      </trkpt>
      <trkpt lat="43.2538" lon="-2.89524">
        <ele>46.8</ele>
        <time>2021-05-29 17:19:57</time>
      </trkpt>
      <trkpt lat="43.25384" lon="-2.89515">
        <ele>47</ele>
        <time>2021-05-29 17:19:58</time>
      </trkpt>
      <trkpt lat="43.25387" lon="-2.89504">
        <ele>47.2</ele>
        <time>2021-05-29 17:19:59</time>
      </trkpt>
      <trkpt lat="43.25391" lon="-2.89494">
        <ele>47.2</ele>
        <time>2021-05-29 17:20:00</time>
      </trkpt>
      <trkpt lat="43.25395" lon="-2.89484">
        <ele>47.6</ele>
        <time>2021-05-29 17:20:01</time>
      </trkpt>
      <trkpt lat="43.25398" lon="-2.89473">
        <ele>47.6</ele>
        <time>2021-05-29 17:20:02</time>
      </trkpt>
      <trkpt lat="43.25402" lon="-2.89463">
        <ele>47.8</ele>
        <time>2021-05-29 17:20:03</time>
      </trkpt>
      <trkpt lat="43.25406" lon="-2.89452">
        <ele>47.8</ele>
        <time>2021-05-29 17:20:04</time>
      </trkpt>
      <trkpt lat="43.25409" lon="-2.89441">
        <ele>47.8</ele>
        <time>2021-05-29 17:20:05</time>
      </trkpt>
      <trkpt lat="43.25413" lon="-2.8943">
        <ele>48</ele>
        <time>2021-05-29 17:20:06</time>
      </trkpt>
      <trkpt lat="43.25417" lon="-2.8942">
        <ele>48</ele>
        <time>2021-05-29 17:20:07</time>
      </trkpt>
      <trkpt lat="43.25421" lon="-2.89408">
        <ele>48</ele>
        <time>2021-05-29 17:20:08</time>
      </trkpt>
      <trkpt lat="43.25424" lon="-2.89397">
        <ele>48</ele>
        <time>2021-05-29 17:20:09</time>
      </trkpt>
      <trkpt lat="43.25428" lon="-2.89386">
        <ele>48</ele>
        <time>2021-05-29 17:20:10</time>
      </trkpt>
      <trkpt lat="43.25432" lon="-2.89375">
        <ele>48</ele>
        <time>2021-05-29 17:20:11</time>
      </trkpt>
      <trkpt lat="43.25435" lon="-2.89363">
        <ele>48</ele>
        <time>2021-05-29 17:20:12</time>
      </trkpt>
      <trkpt lat="43.25438" lon="-2.89351">
        <ele>48</ele>
        <time>2021-05-29 17:20:13</time>
      </trkpt>
      <trkpt lat="43.25441" lon="-2.89339">
        <ele>48</ele>
        <time>2021-05-29 17:20:14</time>
      </trkpt>
      <trkpt lat="43.25443" lon="-2.89327">
        <ele>48</ele>
        <time>2021-05-29 17:20:15</time>
      </trkpt>
      <trkpt lat="43.25445" lon="-2.89314">
        <ele>47.8</ele>
        <time>2021-05-29 17:20:16</time>
      </trkpt>
      <trkpt lat="43.25446" lon="-2.89302">
        <ele>47.8</ele>
        <time>2021-05-29 17:20:17</time>
      </trkpt>
      <trkpt lat="43.25447" lon="-2.89289">
        <ele>47.8</ele>
        <time>2021-05-29 17:20:18</time>
      </trkpt>
      <trkpt lat="43.25448" lon="-2.89276">
        <ele>47.8</ele>
        <time>2021-05-29 17:20:19</time>
      </trkpt>
      <trkpt lat="43.25447" lon="-2.89262">
        <ele>47.6</ele>
        <time>2021-05-29 17:20:20</time>
      </trkpt>
      <trkpt lat="43.25447" lon="-2.89249">
        <ele>47.8</ele>
        <time>2021-05-29 17:20:21</time>
      </trkpt>
      <trkpt lat="43.25445" lon="-2.89236">
        <ele>47.6</ele>
        <time>2021-05-29 17:20:22</time>
      </trkpt>
      <trkpt lat="43.25443" lon="-2.89222">
        <ele>47.8</ele>
        <time>2021-05-29 17:20:23</time>
      </trkpt>
      <trkpt lat="43.25441" lon="-2.89209">
        <ele>47.6</ele>
        <time>2021-05-29 17:20:24</time>
      </trkpt>
      <trkpt lat="43.25439" lon="-2.89196">
        <ele>47.4</ele>
        <time>2021-05-29 17:20:25</time>
      </trkpt>
      <trkpt lat="43.25436" lon="-2.89183">
        <ele>47.4</ele>
        <time>2021-05-29 17:20:26</time>
      </trkpt>
      <trkpt lat="43.25433" lon="-2.8917">
        <ele>47.2</ele>
        <time>2021-05-29 17:20:27</time>
      </trkpt>
      <trkpt lat="43.25429" lon="-2.89157">
        <ele>47.2</ele>
        <time>2021-05-29 17:20:28</time>
      </trkpt>
      <trkpt lat="43.25426" lon="-2.89144">
        <ele>47.2</ele>
        <time>2021-05-29 17:20:29</time>
      </trkpt>
      <trkpt lat="43.25422" lon="-2.89131">
        <ele>47</ele>
        <time>2021-05-29 17:20:30</time>
      </trkpt>
      <trkpt lat="43.25418" lon="-2.89118">
        <ele>47</ele>
        <time>2021-05-29 17:20:31</time>
      </trkpt>
      <trkpt lat="43.25414" lon="-2.89105">
        <ele>47</ele>
        <time>2021-05-29 17:20:32</time>
      </trkpt>
      <trkpt lat="43.25409" lon="-2.89093">
        <ele>46.8</ele>
        <time>2021-05-29 17:20:33</time>
      </trkpt>
      <trkpt lat="43.25404" lon="-2.89081">
        <ele>46.8</ele>
        <time>2021-05-29 17:20:34</time>
      </trkpt>
      <trkpt lat="43.25399" lon="-2.89069">
        <ele>46.6</ele>
        <time>2021-05-29 17:20:35</time>
      </trkpt>
      <trkpt lat="43.25393" lon="-2.89058">
        <ele>46.4</ele>
        <time>2021-05-29 17:20:36</time>
      </trkpt>
      <trkpt lat="43.25388" lon="-2.89046">
        <ele>46.4</ele>
        <time>2021-05-29 17:20:37</time>
      </trkpt>
      <trkpt lat="43.25382" lon="-2.89035">
        <ele>46.2</ele>
        <time>2021-05-29 17:20:38</time>
      </trkpt>
      <trkpt lat="43.25376" lon="-2.89024">
        <ele>46.2</ele>
        <time>2021-05-29 17:20:39</time>
      </trkpt>
      <trkpt lat="43.25369" lon="-2.89014">
        <ele>46</ele>
        <time>2021-05-29 17:20:40</time>
      </trkpt>
      <trkpt lat="43.25362" lon="-2.89004">
        <ele>46</ele>
        <time>2021-05-29 17:20:41</time>
      </trkpt>
      <trkpt lat="43.25355" lon="-2.88995">
        <ele>45.8</ele>
        <time>2021-05-29 17:20:42</time>
      </trkpt>
      <trkpt lat="43.25348" lon="-2.88986">
        <ele>45.8</ele>
        <time>2021-05-29 17:20:43</time>
      </trkpt>
      <trkpt lat="43.2534" lon="-2.88977">
        <ele>45.8</ele>
        <time>2021-05-29 17:20:44</time>
      </trkpt>
      <trkpt lat="43.25332" lon="-2.88969">
        <ele>45.6</ele>
        <time>2021-05-29 17:20:45</time>
      </trkpt>
      <trkpt lat="43.25323" lon="-2.88962">
        <ele>45.6</ele>
        <time>2021-05-29 17:20:46</time>
      </trkpt>
      <trkpt lat="43.25314" lon="-2.88955">
        <ele>45.6</ele>
        <time>2021-05-29 17:20:47</time>
      </trkpt>
      <trkpt lat="43.25306" lon="-2.88948">
        <ele>45.6</ele>
        <time>2021-05-29 17:20:48</time>
      </trkpt>
      <trkpt lat="43.25297" lon="-2.88942">
        <ele>45.4</ele>
        <time>2021-05-29 17:20:49</time>
      </trkpt>
      <trkpt lat="43.25288" lon="-2.88937">
        <ele>45.4</ele>
        <time>2021-05-29 17:20:50</time>
      </trkpt>
      <trkpt lat="43.25278" lon="-2.88932">
        <ele>45.4</ele>
        <time>2021-05-29 17:20:51</time>
      </trkpt>
      <trkpt lat="43.25269" lon="-2.88928">
        <ele>45.2</ele>
        <time>2021-05-29 17:20:52</time>
      </trkpt>
      <trkpt lat="43.2526" lon="-2.88924">
        <ele>45.2</ele>
        <time>2021-05-29 17:20:53</time>
      </trkpt>
      <trkpt lat="43.2525" lon="-2.88921">
        <ele>45</ele>
        <time>2021-05-29 17:20:54</time>
      </trkpt>
      <trkpt lat="43.25241" lon="-2.88918">
        <ele>44.8</ele>
        <time>2021-05-29 17:20:55</time>
      </trkpt>
      <trkpt lat="43.25231" lon="-2.88916">
        <ele>44.8</ele>
        <time>2021-05-29 17:20:56</time>
      </trkpt>
      <trkpt lat="43.25221" lon="-2.88914">
        <ele>44.8</ele>
        <time>2021-05-29 17:20:57</time>
      </trkpt>
      <trkpt lat="43.25212" lon="-2.88913">
        <ele>44.8</ele>
        <time>2021-05-29 17:20:58</time>
      </trkpt>
      <trkpt lat="43.25202" lon="-2.88912">
        <ele>44.6</ele>
        <time>2021-05-29 17:20:59</time>
      </trkpt>
      <trkpt lat="43.25193" lon="-2.88911">
        <ele>44.6</ele>
        <time>2021-05-29 17:21:00</time>
      </trkpt>
      <trkpt lat="43.25183" lon="-2.88909">
        <ele>44.4</ele>
        <time>2021-05-29 17:21:01</time>
      </trkpt>
      <trkpt lat="43.25174" lon="-2.88908">
        <ele>44.4</ele>
        <time>2021-05-29 17:21:02</time>
      </trkpt>
      <trkpt lat="43.25165" lon="-2.88906">
        <ele>44.4</ele>
        <time>2021-05-29 17:21:03</time>
      </trkpt>
      <trkpt lat="43.25155" lon="-2.88904">
        <ele>44.4</ele>
        <time>2021-05-29 17:21:04</time>
      </trkpt>
      <trkpt lat="43.25146" lon="-2.88902">
        <ele>44.6</ele>
        <time>2021-05-29 17:21:05</time>
      </trkpt>
      <trkpt lat="43.25137" lon="-2.88899">
        <ele>44.4</ele>
        <time>2021-05-29 17:21:06</time>
      </trkpt>
      <trkpt lat="43.25127" lon="-2.88895">
        <ele>44.4</ele>
        <time>2021-05-29 17:21:07</time>
      </trkpt>
      <trkpt lat="43.25118" lon="-2.88891">
        <ele>44.4</ele>
        <time>2021-05-29 17:21:08</time>
      </trkpt>
      <trkpt lat="43.25109" lon="-2.88888">
        <ele>44.4</ele>
        <time>2021-05-29 17:21:09</time>
      </trkpt>
      <trkpt lat="43.25099" lon="-2.88884">
        <ele>44.2</ele>
        <time>2021-05-29 17:21:10</time>
      </trkpt>
      <trkpt lat="43.25089" lon="-2.8888">
        <ele>44.4</ele>
        <time>2021-05-29 17:21:11</time>
      </trkpt>
      <trkpt lat="43.2508" lon="-2.88876">
        <ele>44.2</ele>
        <time>2021-05-29 17:21:12</time>
      </trkpt>
      <trkpt lat="43.2507" lon="-2.88872">
        <ele>44.2</ele>
        <time>2021-05-29 17:21:13</time>
      </trkpt>
      <trkpt lat="43.2506" lon="-2.88869">
        <ele>44.2</ele>
        <time>2021-05-29 17:21:14</time>
      </trkpt>
      <trkpt lat="43.25051" lon="-2.88865">
        <ele>44</ele>
        <time>2021-05-29 17:21:15</time>
      </trkpt>
      <trkpt lat="43.25041" lon="-2.88861">
        <ele>44</ele>
        <time>2021-05-29 17:21:16</time>
      </trkpt>
      <trkpt lat="43.25031" lon="-2.88857">
        <ele>43.8</ele>
        <time>2021-05-29 17:21:17</time>
      </trkpt>
      <trkpt lat="43.25021" lon="-2.88853">
        <ele>43.8</ele>
        <time>2021-05-29 17:21:18</time>
      </trkpt>
      <trkpt lat="43.25011" lon="-2.88849">
        <ele>43.8</ele>
        <time>2021-05-29 17:21:19</time>
      </trkpt>
      <trkpt lat="43.25001" lon="-2.88846">
        <ele>43.6</ele>
        <time>2021-05-29 17:21:20</time>
      </trkpt>
      <trkpt lat="43.2499" lon="-2.88844">
        <ele>43.6</ele>
        <time>2021-05-29 17:21:21</time>
      </trkpt>
      <trkpt lat="43.2498" lon="-2.88842">
        <ele>43.6</ele>
        <time>2021-05-29 17:21:22</time>
      </trkpt>
      <trkpt lat="43.2497" lon="-2.88842">
        <ele>43.6</ele>
        <time>2021-05-29 17:21:23</time>
      </trkpt>
      <trkpt lat="43.24959" lon="-2.88842">
        <ele>43.4</ele>
        <time>2021-05-29 17:21:24</time>
      </trkpt>
      <trkpt lat="43.24949" lon="-2.88844">
        <ele>43.4</ele>
        <time>2021-05-29 17:21:25</time>
      </trkpt>
      <trkpt lat="43.24939" lon="-2.88846">
        <ele>43.4</ele>
        <time>2021-05-29 17:21:26</time>
      </trkpt>
      <trkpt lat="43.24929" lon="-2.88849">
        <ele>43.4</ele>
        <time>2021-05-29 17:21:27</time>
      </trkpt>
      <trkpt lat="43.2492" lon="-2.88853">
        <ele>43.2</ele>
        <time>2021-05-29 17:21:28</time>
      </trkpt>
      <trkpt lat="43.24911" lon="-2.88858">
        <ele>43.2</ele>
        <time>2021-05-29 17:21:29</time>
      </trkpt>
      <trkpt lat="43.24902" lon="-2.88863">
        <ele>43.2</ele>
        <time>2021-05-29 17:21:30</time>
      </trkpt>
      <trkpt lat="43.24893" lon="-2.88869">
        <ele>43.2</ele>
        <time>2021-05-29 17:21:31</time>
      </trkpt>
      <trkpt lat="43.24885" lon="-2.88875">
        <ele>43.2</ele>
        <time>2021-05-29 17:21:32</time>
      </trkpt>
      <trkpt lat="43.24877" lon="-2.88881">
        <ele>43.2</ele>
        <time>2021-05-29 17:21:33</time>
      </trkpt>
      <trkpt lat="43.2487" lon="-2.88887">
        <ele>43.2</ele>
        <time>2021-05-29 17:21:34</time>
      </trkpt>
      <trkpt lat="43.24862" lon="-2.88893">
        <ele>43</ele>
        <time>2021-05-29 17:21:35</time>
      </trkpt>
      <trkpt lat="43.24854" lon="-2.88899">
        <ele>43</ele>
        <time>2021-05-29 17:21:36</time>
      </trkpt>
      <trkpt lat="43.24846" lon="-2.88904">
        <ele>43</ele>
        <time>2021-05-29 17:21:37</time>
      </trkpt>
      <trkpt lat="43.24838" lon="-2.88909">
        <ele>43</ele>
        <time>2021-05-29 17:21:38</time>
      </trkpt>
      <trkpt lat="43.2483" lon="-2.88914">
        <ele>43</ele>
        <time>2021-05-29 17:21:39</time>
      </trkpt>
      <trkpt lat="43.24821" lon="-2.88918">
        <ele>43</ele>
        <time>2021-05-29 17:21:40</time>
      </trkpt>
      <trkpt lat="43.24813" lon="-2.88921">
        <ele>43</ele>
        <time>2021-05-29 17:21:41</time>
      </trkpt>
      <trkpt lat="43.24804" lon="-2.88924">
        <ele>43.2</ele>
        <time>2021-05-29 17:21:42</time>
      </trkpt>
      <trkpt lat="43.24795" lon="-2.88926">
        <ele>43.2</ele>
        <time>2021-05-29 17:21:43</time>
      </trkpt>
      <trkpt lat="43.24786" lon="-2.88928">
        <ele>43.2</ele>
        <time>2021-05-29 17:21:44</time>
      </trkpt>
      <trkpt lat="43.24777" lon="-2.88928">
        <ele>43.6</ele>
        <time>2021-05-29 17:21:45</time>
      </trkpt>
      <trkpt lat="43.24768" lon="-2.88928">
        <ele>43.6</ele>
        <time>2021-05-29 17:21:46</time>
      </trkpt>
      <trkpt lat="43.24759" lon="-2.88927">
        <ele>43.8</ele>
        <time>2021-05-29 17:21:47</time>
      </trkpt>
      <trkpt lat="43.24751" lon="-2.88925">
        <ele>44</ele>
        <time>2021-05-29 17:21:48</time>
      </trkpt>
      <trkpt lat="43.24742" lon="-2.88922">
        <ele>44</ele>
        <time>2021-05-29 17:21:49</time>
      </trkpt>
      <trkpt lat="43.24733" lon="-2.88918">
        <ele>44</ele>
        <time>2021-05-29 17:21:50</time>
      </trkpt>
      <trkpt lat="43.24725" lon="-2.88914">
        <ele>44.2</ele>
        <time>2021-05-29 17:21:51</time>
      </trkpt>
      <trkpt lat="43.24716" lon="-2.8891">
        <ele>44.2</ele>
        <time>2021-05-29 17:21:52</time>
      </trkpt>
      <trkpt lat="43.24708" lon="-2.88904">
        <ele>44.2</ele>
        <time>2021-05-29 17:21:53</time>
      </trkpt>
      <trkpt lat="43.24699" lon="-2.88898">
        <ele>44.2</ele>
        <time>2021-05-29 17:21:54</time>
      </trkpt>
      <trkpt lat="43.24692" lon="-2.88892">
        <ele>44.2</ele>
        <time>2021-05-29 17:21:55</time>
      </trkpt>
      <trkpt lat="43.24684" lon="-2.88884">
        <ele>44.2</ele>
        <time>2021-05-29 17:21:56</time>
      </trkpt>
      <trkpt lat="43.24677" lon="-2.88876">
        <ele>44.2</ele>
        <time>2021-05-29 17:21:57</time>
      </trkpt>
      <trkpt lat="43.2467" lon="-2.88867">
        <ele>44.2</ele>
        <time>2021-05-29 17:21:58</time>
      </trkpt>
      <trkpt lat="43.24664" lon="-2.88856">
        <ele>44.2</ele>
        <time>2021-05-29 17:21:59</time>
      </trkpt>
      <trkpt lat="43.24659" lon="-2.88845">
        <ele>44.2</ele>
        <time>2021-05-29 17:22:00</time>
      </trkpt>
      <trkpt lat="43.24654" lon="-2.88834">
        <ele>44.2</ele>
        <time>2021-05-29 17:22:01</time>
      </trkpt>
      <trkpt lat="43.2465" lon="-2.88822">
        <ele>44</ele>
        <time>2021-05-29 17:22:02</time>
      </trkpt>
      <trkpt lat="43.24645" lon="-2.8881">
        <ele>44</ele>
        <time>2021-05-29 17:22:03</time>
      </trkpt>
      <trkpt lat="43.24642" lon="-2.88797">
        <ele>44</ele>
        <time>2021-05-29 17:22:04</time>
      </trkpt>
      <trkpt lat="43.24639" lon="-2.88783">
        <ele>44</ele>
        <time>2021-05-29 17:22:05</time>
      </trkpt>
      <trkpt lat="43.24636" lon="-2.8877">
        <ele>43.8</ele>
        <time>2021-05-29 17:22:06</time>
      </trkpt>
      <trkpt lat="43.24634" lon="-2.88756">
        <ele>43.8</ele>
        <time>2021-05-29 17:22:07</time>
      </trkpt>
      <trkpt lat="43.24631" lon="-2.88742">
        <ele>43.8</ele>
        <time>2021-05-29 17:22:08</time>
      </trkpt>
      <trkpt lat="43.24629" lon="-2.88729">
        <ele>43.8</ele>
        <time>2021-05-29 17:22:09</time>
      </trkpt>
      <trkpt lat="43.24627" lon="-2.88715">
        <ele>43.8</ele>
        <time>2021-05-29 17:22:10</time>
      </trkpt>
      <trkpt lat="43.24624" lon="-2.88701">
        <ele>43.6</ele>
        <time>2021-05-29 17:22:11</time>
      </trkpt>
      <trkpt lat="43.24622" lon="-2.88687">
        <ele>43.6</ele>
        <time>2021-05-29 17:22:12</time>
      </trkpt>
      <trkpt lat="43.2462" lon="-2.88673">
        <ele>43.6</ele>
        <time>2021-05-29 17:22:13</time>
      </trkpt>
      <trkpt lat="43.24618" lon="-2.88659">
        <ele>43.4</ele>
        <time>2021-05-29 17:22:14</time>
      </trkpt>
      <trkpt lat="43.24615" lon="-2.88644">
        <ele>43.4</ele>
        <time>2021-05-29 17:22:15</time>
      </trkpt>
      <trkpt lat="43.24613" lon="-2.88631">
        <ele>43.4</ele>
        <time>2021-05-29 17:22:16</time>
      </trkpt>
      <trkpt lat="43.24611" lon="-2.88617">
        <ele>43.2</ele>
        <time>2021-05-29 17:22:17</time>
      </trkpt>
      <trkpt lat="43.24608" lon="-2.88603">
        <ele>43.2</ele>
        <time>2021-05-29 17:22:18</time>
      </trkpt>
      <trkpt lat="43.24606" lon="-2.88589">
        <ele>43</ele>
        <time>2021-05-29 17:22:19</time>
      </trkpt>
      <trkpt lat="43.24603" lon="-2.88576">
        <ele>42.8</ele>
        <time>2021-05-29 17:22:20</time>
      </trkpt>
      <trkpt lat="43.24601" lon="-2.88562">
        <ele>42.6</ele>
        <time>2021-05-29 17:22:21</time>
      </trkpt>
      <trkpt lat="43.24599" lon="-2.88548">
        <ele>42.6</ele>
        <time>2021-05-29 17:22:22</time>
      </trkpt>
      <trkpt lat="43.24596" lon="-2.88535">
        <ele>42.6</ele>
        <time>2021-05-29 17:22:23</time>
      </trkpt>
      <trkpt lat="43.24594" lon="-2.88522">
        <ele>42.4</ele>
        <time>2021-05-29 17:22:24</time>
      </trkpt>
      <trkpt lat="43.24592" lon="-2.88509">
        <ele>42.4</ele>
        <time>2021-05-29 17:22:25</time>
      </trkpt>
      <trkpt lat="43.2459" lon="-2.88496">
        <ele>42.4</ele>
        <time>2021-05-29 17:22:26</time>
      </trkpt>
      <trkpt lat="43.24588" lon="-2.88483">
        <ele>42.2</ele>
        <time>2021-05-29 17:22:27</time>
      </trkpt>
      <trkpt lat="43.24586" lon="-2.88471">
        <ele>42.2</ele>
        <time>2021-05-29 17:22:28</time>
      </trkpt>
      <trkpt lat="43.24584" lon="-2.88459">
        <ele>42</ele>
        <time>2021-05-29 17:22:29</time>
      </trkpt>
      <trkpt lat="43.24581" lon="-2.88448">
        <ele>41.8</ele>
        <time>2021-05-29 17:22:30</time>
      </trkpt>
      <trkpt lat="43.24577" lon="-2.8844">
        <ele>41.8</ele>
        <time>2021-05-29 17:22:31</time>
      </trkpt>
      <trkpt lat="43.24572" lon="-2.88435">
        <ele>41.6</ele>
        <time>2021-05-29 17:22:32</time>
      </trkpt>
      <trkpt lat="43.24565" lon="-2.88434">
        <ele>41.6</ele>
        <time>2021-05-29 17:22:33</time>
      </trkpt>
      <trkpt lat="43.24558" lon="-2.88436">
        <ele>41.2</ele>
        <time>2021-05-29 17:22:34</time>
      </trkpt>
      <trkpt lat="43.24551" lon="-2.88438">
        <ele>41.2</ele>
        <time>2021-05-29 17:22:35</time>
      </trkpt>
      <trkpt lat="43.24543" lon="-2.8844">
        <ele>41</ele>
        <time>2021-05-29 17:22:36</time>
      </trkpt>
      <trkpt lat="43.24536" lon="-2.88442">
        <ele>41</ele>
        <time>2021-05-29 17:22:37</time>
      </trkpt>
      <trkpt lat="43.24528" lon="-2.88444">
        <ele>40.8</ele>
        <time>2021-05-29 17:22:38</time>
      </trkpt>
      <trkpt lat="43.2452" lon="-2.88446">
        <ele>40.8</ele>
        <time>2021-05-29 17:22:39</time>
      </trkpt>
      <trkpt lat="43.24512" lon="-2.88448">
        <ele>40.8</ele>
        <time>2021-05-29 17:22:40</time>
      </trkpt>
      <trkpt lat="43.24504" lon="-2.88451">
        <ele>40.8</ele>
        <time>2021-05-29 17:22:41</time>
      </trkpt>
      <trkpt lat="43.24495" lon="-2.88453">
        <ele>40.8</ele>
        <time>2021-05-29 17:22:42</time>
      </trkpt>
      <trkpt lat="43.24487" lon="-2.88455">
        <ele>40.8</ele>
        <time>2021-05-29 17:22:43</time>
      </trkpt>
      <trkpt lat="43.24478" lon="-2.88457">
        <ele>40.8</ele>
        <time>2021-05-29 17:22:44</time>
      </trkpt>
      <trkpt lat="43.2447" lon="-2.88459">
        <ele>40.6</ele>
        <time>2021-05-29 17:22:45</time>
      </trkpt>
      <trkpt lat="43.24462" lon="-2.88462">
        <ele>40.8</ele>
        <time>2021-05-29 17:22:46</time>
      </trkpt>
      <trkpt lat="43.24454" lon="-2.88464">
        <ele>40.8</ele>
        <time>2021-05-29 17:22:47</time>
      </trkpt>
      <trkpt lat="43.24446" lon="-2.88466">
        <ele>40.8</ele>
        <time>2021-05-29 17:22:48</time>
      </trkpt>
      <trkpt lat="43.24438" lon="-2.88468">
        <ele>40.8</ele>
        <time>2021-05-29 17:22:49</time>
      </trkpt>
      <trkpt lat="43.2443" lon="-2.8847">
        <ele>40.8</ele>
        <time>2021-05-29 17:22:50</time>
      </trkpt>
      <trkpt lat="43.24422" lon="-2.88473">
        <ele>40.6</ele>
        <time>2021-05-29 17:22:51</time>
      </trkpt>
      <trkpt lat="43.24414" lon="-2.88475">
        <ele>40.6</ele>
        <time>2021-05-29 17:22:52</time>
      </trkpt>
      <trkpt lat="43.24406" lon="-2.88477">
        <ele>40.6</ele>
        <time>2021-05-29 17:22:53</time>
      </trkpt>
      <trkpt lat="43.24398" lon="-2.88479">
        <ele>41</ele>
        <time>2021-05-29 17:22:54</time>
      </trkpt>
      <trkpt lat="43.2439" lon="-2.88481">
        <ele>41</ele>
        <time>2021-05-29 17:22:55</time>
      </trkpt>
      <trkpt lat="43.24382" lon="-2.88483">
        <ele>41</ele>
        <time>2021-05-29 17:22:56</time>
      </trkpt>
      <trkpt lat="43.24375" lon="-2.88485">
        <ele>41.2</ele>
        <time>2021-05-29 17:22:57</time>
      </trkpt>
      <trkpt lat="43.24367" lon="-2.88487">
        <ele>41.2</ele>
        <time>2021-05-29 17:22:58</time>
      </trkpt>
      <trkpt lat="43.2436" lon="-2.88489">
        <ele>41.4</ele>
        <time>2021-05-29 17:22:59</time>
      </trkpt>
      <trkpt lat="43.24353" lon="-2.88492">
        <ele>41.4</ele>
        <time>2021-05-29 17:23:00</time>
      </trkpt>
      <trkpt lat="43.24347" lon="-2.88497">
        <ele>41.4</ele>
        <time>2021-05-29 17:23:01</time>
      </trkpt>
      <trkpt lat="43.24341" lon="-2.88503">
        <ele>41.6</ele>
        <time>2021-05-29 17:23:02</time>
      </trkpt>
      <trkpt lat="43.24335" lon="-2.88509">
        <ele>41.6</ele>
        <time>2021-05-29 17:23:03</time>
      </trkpt>
      <trkpt lat="43.24329" lon="-2.88511">
        <ele>41.8</ele>
        <time>2021-05-29 17:23:04</time>
      </trkpt>
      <trkpt lat="43.24322" lon="-2.8851">
        <ele>42</ele>
        <time>2021-05-29 17:23:05</time>
      </trkpt>
      <trkpt lat="43.24316" lon="-2.88507">
        <ele>42.2</ele>
        <time>2021-05-29 17:23:06</time>
      </trkpt>
      <trkpt lat="43.24309" lon="-2.88504">
        <ele>42.4</ele>
        <time>2021-05-29 17:23:07</time>
      </trkpt>
      <trkpt lat="43.24302" lon="-2.88504">
        <ele>42.8</ele>
        <time>2021-05-29 17:23:08</time>
      </trkpt>
      <trkpt lat="43.24296" lon="-2.88504">
        <ele>43.2</ele>
        <time>2021-05-29 17:23:09</time>
      </trkpt>
      <trkpt lat="43.2429" lon="-2.88505">
        <ele>43.4</ele>
        <time>2021-05-29 17:23:10</time>
      </trkpt>
      <trkpt lat="43.24284" lon="-2.88506">
        <ele>43.4</ele>
        <time>2021-05-29 17:23:11</time>
      </trkpt>
      <trkpt lat="43.24277" lon="-2.88508">
        <ele>43.8</ele>
        <time>2021-05-29 17:23:12</time>
      </trkpt>
      <trkpt lat="43.24271" lon="-2.88509">
        <ele>44.2</ele>
        <time>2021-05-29 17:23:13</time>
      </trkpt>
      <trkpt lat="43.24265" lon="-2.8851">
        <ele>44.6</ele>
        <time>2021-05-29 17:23:14</time>
      </trkpt>
      <trkpt lat="43.24259" lon="-2.88512">
        <ele>45</ele>
        <time>2021-05-29 17:23:15</time>
      </trkpt>
      <trkpt lat="43.24253" lon="-2.88513">
        <ele>45.2</ele>
        <time>2021-05-29 17:23:16</time>
      </trkpt>
      <trkpt lat="43.24246" lon="-2.88514">
        <ele>45.6</ele>
        <time>2021-05-29 17:23:17</time>
      </trkpt>
      <trkpt lat="43.24239" lon="-2.88516">
        <ele>45.8</ele>
        <time>2021-05-29 17:23:18</time>
      </trkpt>
      <trkpt lat="43.24233" lon="-2.88517">
        <ele>46.4</ele>
        <time>2021-05-29 17:23:19</time>
      </trkpt>
      <trkpt lat="43.24226" lon="-2.88519">
        <ele>46.8</ele>
        <time>2021-05-29 17:23:20</time>
      </trkpt>
      <trkpt lat="43.24219" lon="-2.88521">
        <ele>47</ele>
        <time>2021-05-29 17:23:21</time>
      </trkpt>
      <trkpt lat="43.24213" lon="-2.88522">
        <ele>47.2</ele>
        <time>2021-05-29 17:23:22</time>
      </trkpt>
      <trkpt lat="43.24206" lon="-2.88524">
        <ele>47.6</ele>
        <time>2021-05-29 17:23:23</time>
      </trkpt>
      <trkpt lat="43.24199" lon="-2.88525">
        <ele>47.8</ele>
        <time>2021-05-29 17:23:24</time>
      </trkpt>
      <trkpt lat="43.24192" lon="-2.88526">
        <ele>47.8</ele>
        <time>2021-05-29 17:23:25</time>
      </trkpt>
      <trkpt lat="43.24185" lon="-2.88528">
        <ele>47.8</ele>
        <time>2021-05-29 17:23:26</time>
      </trkpt>
      <trkpt lat="43.24178" lon="-2.88529">
        <ele>47.8</ele>
        <time>2021-05-29 17:23:27</time>
      </trkpt>
      <trkpt lat="43.24171" lon="-2.88531">
        <ele>48</ele>
        <time>2021-05-29 17:23:28</time>
      </trkpt>
      <trkpt lat="43.24163" lon="-2.88534">
        <ele>48</ele>
        <time>2021-05-29 17:23:29</time>
      </trkpt>
      <trkpt lat="43.24156" lon="-2.88537">
        <ele>48</ele>
        <time>2021-05-29 17:23:30</time>
      </trkpt>
      <trkpt lat="43.24149" lon="-2.8854">
        <ele>48.2</ele>
        <time>2021-05-29 17:23:31</time>
      </trkpt>
      <trkpt lat="43.24143" lon="-2.88545">
        <ele>48.2</ele>
        <time>2021-05-29 17:23:32</time>
      </trkpt>
      <trkpt lat="43.24137" lon="-2.88551">
        <ele>48.2</ele>
        <time>2021-05-29 17:23:33</time>
      </trkpt>
      <trkpt lat="43.24131" lon="-2.88556">
        <ele>48.2</ele>
        <time>2021-05-29 17:23:34</time>
      </trkpt>
      <trkpt lat="43.24125" lon="-2.88562">
        <ele>48.2</ele>
        <time>2021-05-29 17:23:35</time>
      </trkpt>
      <trkpt lat="43.24119" lon="-2.88568">
        <ele>48.2</ele>
        <time>2021-05-29 17:23:36</time>
      </trkpt>
      <trkpt lat="43.24114" lon="-2.88573">
        <ele>48.2</ele>
        <time>2021-05-29 17:23:37</time>
      </trkpt>
      <trkpt lat="43.24107" lon="-2.88577">
        <ele>48.2</ele>
        <time>2021-05-29 17:23:38</time>
      </trkpt>
      <trkpt lat="43.24102" lon="-2.88581">
        <ele>48.4</ele>
        <time>2021-05-29 17:23:39</time>
      </trkpt>
      <trkpt lat="43.24096" lon="-2.88584">
        <ele>48.4</ele>
        <time>2021-05-29 17:23:40</time>
      </trkpt>
      <trkpt lat="43.2409" lon="-2.88587">
        <ele>48.6</ele>
        <time>2021-05-29 17:23:41</time>
      </trkpt>
      <trkpt lat="43.24084" lon="-2.8859">
        <ele>48.8</ele>
        <time>2021-05-29 17:23:42</time>
      </trkpt>
      <trkpt lat="43.24078" lon="-2.88592">
        <ele>49</ele>
        <time>2021-05-29 17:23:43</time>
      </trkpt>
      <trkpt lat="43.24072" lon="-2.88595">
        <ele>49</ele>
        <time>2021-05-29 17:23:44</time>
      </trkpt>
      <trkpt lat="43.24066" lon="-2.88598">
        <ele>49.2</ele>
        <time>2021-05-29 17:23:45</time>
      </trkpt>
      <trkpt lat="43.2406" lon="-2.88601">
        <ele>49.8</ele>
        <time>2021-05-29 17:23:46</time>
      </trkpt>
      <trkpt lat="43.24054" lon="-2.88604">
        <ele>50.2</ele>
        <time>2021-05-29 17:23:47</time>
      </trkpt>
      <trkpt lat="43.24048" lon="-2.88606">
        <ele>50.4</ele>
        <time>2021-05-29 17:23:48</time>
      </trkpt>
      <trkpt lat="43.24042" lon="-2.88609">
        <ele>50.6</ele>
        <time>2021-05-29 17:23:49</time>
      </trkpt>
      <trkpt lat="43.24036" lon="-2.88611">
        <ele>51</ele>
        <time>2021-05-29 17:23:50</time>
      </trkpt>
      <trkpt lat="43.2403" lon="-2.88613">
        <ele>51</ele>
        <time>2021-05-29 17:23:51</time>
      </trkpt>
      <trkpt lat="43.24024" lon="-2.88616">
        <ele>51.2</ele>
        <time>2021-05-29 17:23:52</time>
      </trkpt>
      <trkpt lat="43.24018" lon="-2.88618">
        <ele>51.6</ele>
        <time>2021-05-29 17:23:53</time>
      </trkpt>
      <trkpt lat="43.24012" lon="-2.88621">
        <ele>51.6</ele>
        <time>2021-05-29 17:23:54</time>
      </trkpt>
      <trkpt lat="43.24006" lon="-2.88624">
        <ele>51.8</ele>
        <time>2021-05-29 17:23:55</time>
      </trkpt>
      <trkpt lat="43.24" lon="-2.88626">
        <ele>52</ele>
        <time>2021-05-29 17:23:56</time>
      </trkpt>
      <trkpt lat="43.23994" lon="-2.88629">
        <ele>52.2</ele>
        <time>2021-05-29 17:23:57</time>
      </trkpt>
      <trkpt lat="43.23987" lon="-2.88631">
        <ele>52.4</ele>
        <time>2021-05-29 17:23:58</time>
      </trkpt>
      <trkpt lat="43.23981" lon="-2.88634">
        <ele>52.4</ele>
        <time>2021-05-29 17:23:59</time>
      </trkpt>
      <trkpt lat="43.23975" lon="-2.88636">
        <ele>52.6</ele>
        <time>2021-05-29 17:24:00</time>
      </trkpt>
      <trkpt lat="43.23969" lon="-2.88639">
        <ele>52.8</ele>
        <time>2021-05-29 17:24:01</time>
      </trkpt>
      <trkpt lat="43.23963" lon="-2.88641">
        <ele>53.2</ele>
        <time>2021-05-29 17:24:02</time>
      </trkpt>
      <trkpt lat="43.23957" lon="-2.88644">
        <ele>53.4</ele>
        <time>2021-05-29 17:24:03</time>
      </trkpt>
      <trkpt lat="43.2395" lon="-2.88647">
        <ele>53.6</ele>
        <time>2021-05-29 17:24:04</time>
      </trkpt>
      <trkpt lat="43.23944" lon="-2.88649">
        <ele>53.8</ele>
        <time>2021-05-29 17:24:05</time>
      </trkpt>
      <trkpt lat="43.23938" lon="-2.88652">
        <ele>53.8</ele>
        <time>2021-05-29 17:24:06</time>
      </trkpt>
      <trkpt lat="43.23932" lon="-2.88655">
        <ele>54</ele>
        <time>2021-05-29 17:24:07</time>
      </trkpt>
      <trkpt lat="43.23926" lon="-2.88657">
        <ele>54</ele>
        <time>2021-05-29 17:24:08</time>
      </trkpt>
      <trkpt lat="43.2392" lon="-2.8866">
        <ele>54.2</ele>
        <time>2021-05-29 17:24:09</time>
      </trkpt>
      <trkpt lat="43.23913" lon="-2.88662">
        <ele>54.4</ele>
        <time>2021-05-29 17:24:10</time>
      </trkpt>
      <trkpt lat="43.23907" lon="-2.88665">
        <ele>54.6</ele>
        <time>2021-05-29 17:24:11</time>
      </trkpt>
      <trkpt lat="43.239" lon="-2.88668">
        <ele>54.8</ele>
        <time>2021-05-29 17:24:12</time>
      </trkpt>
      <trkpt lat="43.23894" lon="-2.88671">
        <ele>54.8</ele>
        <time>2021-05-29 17:24:13</time>
      </trkpt>
      <trkpt lat="43.23889" lon="-2.88674">
        <ele>55</ele>
        <time>2021-05-29 17:24:14</time>
      </trkpt>
      <trkpt lat="43.23884" lon="-2.88679">
        <ele>55</ele>
        <time>2021-05-29 17:24:15</time>
      </trkpt>
      <trkpt lat="43.23879" lon="-2.88684">
        <ele>55.2</ele>
        <time>2021-05-29 17:24:16</time>
      </trkpt>
      <trkpt lat="43.23875" lon="-2.88689">
        <ele>55.2</ele>
        <time>2021-05-29 17:24:17</time>
      </trkpt>
      <trkpt lat="43.23869" lon="-2.88692">
        <ele>55.2</ele>
        <time>2021-05-29 17:24:18</time>
      </trkpt>
      <trkpt lat="43.23864" lon="-2.88694">
        <ele>55.2</ele>
        <time>2021-05-29 17:24:19</time>
      </trkpt>
      <trkpt lat="43.23858" lon="-2.88695">
        <ele>55.2</ele>
        <time>2021-05-29 17:24:20</time>
      </trkpt>
      <trkpt lat="43.23851" lon="-2.88695">
        <ele>55.4</ele>
        <time>2021-05-29 17:24:21</time>
      </trkpt>
      <trkpt lat="43.23845" lon="-2.88695">
        <ele>55.4</ele>
        <time>2021-05-29 17:24:22</time>
      </trkpt>
      <trkpt lat="43.23839" lon="-2.88695">
        <ele>55.4</ele>
        <time>2021-05-29 17:24:23</time>
      </trkpt>
      <trkpt lat="43.23833" lon="-2.88694">
        <ele>55.6</ele>
        <time>2021-05-29 17:24:24</time>
      </trkpt>
      <trkpt lat="43.23827" lon="-2.88695">
        <ele>55.6</ele>
        <time>2021-05-29 17:24:25</time>
      </trkpt>
      <trkpt lat="43.23821" lon="-2.88697">
        <ele>55.6</ele>
        <time>2021-05-29 17:24:26</time>
      </trkpt>
      <trkpt lat="43.23815" lon="-2.88697">
        <ele>55.6</ele>
        <time>2021-05-29 17:24:27</time>
      </trkpt>
      <trkpt lat="43.23809" lon="-2.88699">
        <ele>55.8</ele>
        <time>2021-05-29 17:24:28</time>
      </trkpt>
      <trkpt lat="43.23803" lon="-2.88701">
        <ele>55.8</ele>
        <time>2021-05-29 17:24:29</time>
      </trkpt>
      <trkpt lat="43.23797" lon="-2.88702">
        <ele>55.8</ele>
        <time>2021-05-29 17:24:30</time>
      </trkpt>
      <trkpt lat="43.2379" lon="-2.88702">
        <ele>56</ele>
        <time>2021-05-29 17:24:31</time>
      </trkpt>
      <trkpt lat="43.23784" lon="-2.88703">
        <ele>56.2</ele>
        <time>2021-05-29 17:24:32</time>
      </trkpt>
      <trkpt lat="43.23778" lon="-2.88703">
        <ele>56.2</ele>
        <time>2021-05-29 17:24:33</time>
      </trkpt>
      <trkpt lat="43.23772" lon="-2.88703">
        <ele>56.4</ele>
        <time>2021-05-29 17:24:34</time>
      </trkpt>
      <trkpt lat="43.23766" lon="-2.88704">
        <ele>56.4</ele>
        <time>2021-05-29 17:24:35</time>
      </trkpt>
      <trkpt lat="43.23761" lon="-2.88705">
        <ele>56.6</ele>
        <time>2021-05-29 17:24:36</time>
      </trkpt>
      <trkpt lat="43.23756" lon="-2.88705">
        <ele>56.6</ele>
        <time>2021-05-29 17:24:37</time>
      </trkpt>
      <trkpt lat="43.23752" lon="-2.88705">
        <ele>57</ele>
        <time>2021-05-29 17:24:38</time>
      </trkpt>
      <trkpt lat="43.23748" lon="-2.88706">
        <ele>57.4</ele>
        <time>2021-05-29 17:24:39</time>
      </trkpt>
      <trkpt lat="43.23745" lon="-2.88707">
        <ele>57.6</ele>
        <time>2021-05-29 17:24:40</time>
      </trkpt>
      <trkpt lat="43.23743" lon="-2.88708">
        <ele>57.8</ele>
        <time>2021-05-29 17:24:41</time>
      </trkpt>
      <trkpt lat="43.23743" lon="-2.88709">
        <ele>58</ele>
        <time>2021-05-29 17:24:42</time>
      </trkpt>
      <trkpt lat="43.23742" lon="-2.88711">
        <ele>58.2</ele>
        <time>2021-05-29 17:24:43</time>
      </trkpt>
      <trkpt lat="43.23742" lon="-2.88712">
        <ele>58.4</ele>
        <time>2021-05-29 17:24:44</time>
      </trkpt>
      <trkpt lat="43.2374" lon="-2.8872">
        <ele>59.2</ele>
        <time>2021-05-29 17:24:47</time>
      </trkpt>
      <trkpt lat="43.23738" lon="-2.88725">
        <ele>59.6</ele>
        <time>2021-05-29 17:24:48</time>
      </trkpt>
      <trkpt lat="43.23738" lon="-2.8873">
        <ele>59.8</ele>
        <time>2021-05-29 17:24:49</time>
      </trkpt>
      <trkpt lat="43.23739" lon="-2.88734">
        <ele>60</ele>
        <time>2021-05-29 17:24:50</time>
      </trkpt>
      <trkpt lat="43.23739" lon="-2.8874">
        <ele>60.2</ele>
        <time>2021-05-29 17:24:51</time>
      </trkpt>
      <trkpt lat="43.23739" lon="-2.88746">
        <ele>60.2</ele>
        <time>2021-05-29 17:24:52</time>
      </trkpt>
      <trkpt lat="43.23738" lon="-2.88753">
        <ele>60.2</ele>
        <time>2021-05-29 17:24:53</time>
      </trkpt>
      <trkpt lat="43.23738" lon="-2.88759">
        <ele>60.2</ele>
        <time>2021-05-29 17:24:54</time>
      </trkpt>
      <trkpt lat="43.23738" lon="-2.88766">
        <ele>60.2</ele>
        <time>2021-05-29 17:24:55</time>
      </trkpt>
      <trkpt lat="43.23736" lon="-2.88772">
        <ele>60.4</ele>
        <time>2021-05-29 17:24:56</time>
      </trkpt>
      <trkpt lat="43.23733" lon="-2.88779">
        <ele>60.4</ele>
        <time>2021-05-29 17:24:57</time>
      </trkpt>
      <trkpt lat="43.23731" lon="-2.88785">
        <ele>60.4</ele>
        <time>2021-05-29 17:24:58</time>
      </trkpt>
      <trkpt lat="43.23728" lon="-2.8879">
        <ele>60.4</ele>
        <time>2021-05-29 17:24:59</time>
      </trkpt>
      <trkpt lat="43.23726" lon="-2.88796">
        <ele>60.4</ele>
        <time>2021-05-29 17:25:00</time>
      </trkpt>
      <trkpt lat="43.23725" lon="-2.88802">
        <ele>60.4</ele>
        <time>2021-05-29 17:25:01</time>
      </trkpt>
      <trkpt lat="43.23723" lon="-2.88806">
        <ele>60.4</ele>
        <time>2021-05-29 17:25:02</time>
      </trkpt>
      <trkpt lat="43.23722" lon="-2.8881">
        <ele>60.4</ele>
        <time>2021-05-29 17:25:03</time>
      </trkpt>
      <trkpt lat="43.2372" lon="-2.88814">
        <ele>60.4</ele>
        <time>2021-05-29 17:25:04</time>
      </trkpt>
      <trkpt lat="43.23718" lon="-2.88818">
        <ele>60.4</ele>
        <time>2021-05-29 17:25:05</time>
      </trkpt>
      <trkpt lat="43.23715" lon="-2.88822">
        <ele>60.6</ele>
        <time>2021-05-29 17:25:06</time>
      </trkpt>
      <trkpt lat="43.2371" lon="-2.88828">
        <ele>60.8</ele>
        <time>2021-05-29 17:25:07</time>
      </trkpt>
      <trkpt lat="43.23706" lon="-2.88832">
        <ele>61.2</ele>
        <time>2021-05-29 17:25:08</time>
      </trkpt>
      <trkpt lat="43.23702" lon="-2.88836">
        <ele>61.4</ele>
        <time>2021-05-29 17:25:09</time>
      </trkpt>
      <trkpt lat="43.23699" lon="-2.8884">
        <ele>61.8</ele>
        <time>2021-05-29 17:25:10</time>
      </trkpt>
      <trkpt lat="43.23695" lon="-2.88844">
        <ele>62</ele>
        <time>2021-05-29 17:25:11</time>
      </trkpt>
      <trkpt lat="43.23694" lon="-2.88846">
        <ele>62.2</ele>
        <time>2021-05-29 17:25:12</time>
      </trkpt>
      <trkpt lat="43.23691" lon="-2.8885">
        <ele>62.6</ele>
        <time>2021-05-29 17:25:13</time>
      </trkpt>
      <trkpt lat="43.23688" lon="-2.88853">
        <ele>62.8</ele>
        <time>2021-05-29 17:25:14</time>
      </trkpt>
      <trkpt lat="43.23686" lon="-2.88856">
        <ele>63.2</ele>
        <time>2021-05-29 17:25:15</time>
      </trkpt>
      <trkpt lat="43.23684" lon="-2.88858">
        <ele>63.6</ele>
        <time>2021-05-29 17:25:16</time>
      </trkpt>
      <trkpt lat="43.23682" lon="-2.88861">
        <ele>64</ele>
        <time>2021-05-29 17:25:17</time>
      </trkpt>
      <trkpt lat="43.23678" lon="-2.88865">
        <ele>64.2</ele>
        <time>2021-05-29 17:25:18</time>
      </trkpt>
      <trkpt lat="43.23676" lon="-2.88868">
        <ele>64.8</ele>
        <time>2021-05-29 17:25:19</time>
      </trkpt>
      <trkpt lat="43.23674" lon="-2.8887">
        <ele>65.2</ele>
        <time>2021-05-29 17:25:20</time>
      </trkpt>
      <trkpt lat="43.23674" lon="-2.88875">
        <ele>65.6</ele>
        <time>2021-05-29 17:25:21</time>
      </trkpt>
      <trkpt lat="43.23673" lon="-2.88878">
        <ele>66</ele>
        <time>2021-05-29 17:25:22</time>
      </trkpt>
      <trkpt lat="43.23671" lon="-2.8888">
        <ele>66.4</ele>
        <time>2021-05-29 17:25:23</time>
      </trkpt>
      <trkpt lat="43.2367" lon="-2.88882">
        <ele>66.6</ele>
        <time>2021-05-29 17:25:24</time>
      </trkpt>
      <trkpt lat="43.23668" lon="-2.88884">
        <ele>67</ele>
        <time>2021-05-29 17:25:25</time>
      </trkpt>
      <trkpt lat="43.23665" lon="-2.88887">
        <ele>67.2</ele>
        <time>2021-05-29 17:25:26</time>
      </trkpt>
      <trkpt lat="43.23662" lon="-2.88889">
        <ele>67.4</ele>
        <time>2021-05-29 17:25:27</time>
      </trkpt>
      <trkpt lat="43.23659" lon="-2.88891">
        <ele>67.8</ele>
        <time>2021-05-29 17:25:28</time>
      </trkpt>
      <trkpt lat="43.23654" lon="-2.88894">
        <ele>68.4</ele>
        <time>2021-05-29 17:25:29</time>
      </trkpt>
      <trkpt lat="43.2365" lon="-2.88895">
        <ele>68.6</ele>
        <time>2021-05-29 17:25:30</time>
      </trkpt>
      <trkpt lat="43.23647" lon="-2.88897">
        <ele>69</ele>
        <time>2021-05-29 17:25:31</time>
      </trkpt>
      <trkpt lat="43.23644" lon="-2.88898">
        <ele>69.4</ele>
        <time>2021-05-29 17:25:32</time>
      </trkpt>
      <trkpt lat="43.2364" lon="-2.88898">
        <ele>69.8</ele>
        <time>2021-05-29 17:25:33</time>
      </trkpt>
      <trkpt lat="43.23635" lon="-2.889">
        <ele>70.2</ele>
        <time>2021-05-29 17:25:34</time>
      </trkpt>
      <trkpt lat="43.23629" lon="-2.88902">
        <ele>70.4</ele>
        <time>2021-05-29 17:25:35</time>
      </trkpt>
      <trkpt lat="43.23624" lon="-2.88903">
        <ele>70.8</ele>
        <time>2021-05-29 17:25:36</time>
      </trkpt>
      <trkpt lat="43.2362" lon="-2.88905">
        <ele>71.2</ele>
        <time>2021-05-29 17:25:37</time>
      </trkpt>
      <trkpt lat="43.23616" lon="-2.88907">
        <ele>71.6</ele>
        <time>2021-05-29 17:25:38</time>
      </trkpt>
      <trkpt lat="43.23613" lon="-2.88909">
        <ele>72</ele>
        <time>2021-05-29 17:25:39</time>
      </trkpt>
      <trkpt lat="43.23609" lon="-2.88911">
        <ele>72.2</ele>
        <time>2021-05-29 17:25:40</time>
      </trkpt>
      <trkpt lat="43.23605" lon="-2.88913">
        <ele>72.6</ele>
        <time>2021-05-29 17:25:41</time>
      </trkpt>
      <trkpt lat="43.23601" lon="-2.88914">
        <ele>72.8</ele>
        <time>2021-05-29 17:25:42</time>
      </trkpt>
      <trkpt lat="43.23597" lon="-2.88914">
        <ele>73.2</ele>
        <time>2021-05-29 17:25:43</time>
      </trkpt>
      <trkpt lat="43.23593" lon="-2.88914">
        <ele>73.4</ele>
        <time>2021-05-29 17:25:44</time>
      </trkpt>
      <trkpt lat="43.2359" lon="-2.88914">
        <ele>73.8</ele>
        <time>2021-05-29 17:25:45</time>
      </trkpt>
      <trkpt lat="43.23586" lon="-2.88914">
        <ele>74.2</ele>
        <time>2021-05-29 17:25:46</time>
      </trkpt>
      <trkpt lat="43.23583" lon="-2.88913">
        <ele>74.4</ele>
        <time>2021-05-29 17:25:47</time>
      </trkpt>
      <trkpt lat="43.23579" lon="-2.88913">
        <ele>74.8</ele>
        <time>2021-05-29 17:25:48</time>
      </trkpt>
      <trkpt lat="43.23576" lon="-2.88912">
        <ele>75</ele>
        <time>2021-05-29 17:25:49</time>
      </trkpt>
      <trkpt lat="43.23573" lon="-2.88913">
        <ele>75.2</ele>
        <time>2021-05-29 17:25:50</time>
      </trkpt>
      <trkpt lat="43.2357" lon="-2.88913">
        <ele>75.4</ele>
        <time>2021-05-29 17:25:51</time>
      </trkpt>
      <trkpt lat="43.23566" lon="-2.88914">
        <ele>75.6</ele>
        <time>2021-05-29 17:25:52</time>
      </trkpt>
      <trkpt lat="43.23562" lon="-2.88915">
        <ele>75.8</ele>
        <time>2021-05-29 17:25:53</time>
      </trkpt>
      <trkpt lat="43.23559" lon="-2.88916">
        <ele>76</ele>
        <time>2021-05-29 17:25:54</time>
      </trkpt>
      <trkpt lat="43.23557" lon="-2.88916">
        <ele>76.2</ele>
        <time>2021-05-29 17:25:55</time>
      </trkpt>
      <trkpt lat="43.23555" lon="-2.88917">
        <ele>76.4</ele>
        <time>2021-05-29 17:25:56</time>
      </trkpt>
      <trkpt lat="43.23553" lon="-2.88918">
        <ele>76.6</ele>
        <time>2021-05-29 17:25:57</time>
      </trkpt>
      <trkpt lat="43.23552" lon="-2.88918">
        <ele>76.6</ele>
        <time>2021-05-29 17:25:58</time>
      </trkpt>
      <trkpt lat="43.2355" lon="-2.88918">
        <ele>76.8</ele>
        <time>2021-05-29 17:25:59</time>
      </trkpt>
      <trkpt lat="43.23548" lon="-2.88919">
        <ele>76.8</ele>
        <time>2021-05-29 17:26:00</time>
      </trkpt>
      <trkpt lat="43.23546" lon="-2.88919">
        <ele>76.8</ele>
        <time>2021-05-29 17:26:01</time>
      </trkpt>
      <trkpt lat="43.23545" lon="-2.88919">
        <ele>76.8</ele>
        <time>2021-05-29 17:26:02</time>
      </trkpt>
      <trkpt lat="43.23541" lon="-2.88928">
        <ele>77</ele>
        <time>2021-05-29 17:26:06</time>
      </trkpt>
      <trkpt lat="43.23541" lon="-2.88933">
        <ele>77</ele>
        <time>2021-05-29 17:26:07</time>
      </trkpt>
      <trkpt lat="43.23541" lon="-2.88938">
        <ele>77</ele>
        <time>2021-05-29 17:26:08</time>
      </trkpt>
      <trkpt lat="43.23541" lon="-2.88944">
        <ele>77</ele>
        <time>2021-05-29 17:26:09</time>
      </trkpt>
      <trkpt lat="43.23541" lon="-2.8895">
        <ele>77</ele>
        <time>2021-05-29 17:26:10</time>
      </trkpt>
      <trkpt lat="43.23541" lon="-2.88956">
        <ele>77</ele>
        <time>2021-05-29 17:26:11</time>
      </trkpt>
      <trkpt lat="43.23541" lon="-2.88962">
        <ele>77.2</ele>
        <time>2021-05-29 17:26:12</time>
      </trkpt>
      <trkpt lat="43.23541" lon="-2.88969">
        <ele>77.2</ele>
        <time>2021-05-29 17:26:13</time>
      </trkpt>
      <trkpt lat="43.2354" lon="-2.88975">
        <ele>77.4</ele>
        <time>2021-05-29 17:26:14</time>
      </trkpt>
      <trkpt lat="43.23541" lon="-2.88982">
        <ele>77.4</ele>
        <time>2021-05-29 17:26:15</time>
      </trkpt>
      <trkpt lat="43.2354" lon="-2.88989">
        <ele>77.6</ele>
        <time>2021-05-29 17:26:16</time>
      </trkpt>
      <trkpt lat="43.2354" lon="-2.88995">
        <ele>77.6</ele>
        <time>2021-05-29 17:26:17</time>
      </trkpt>
      <trkpt lat="43.2354" lon="-2.89001">
        <ele>77.8</ele>
        <time>2021-05-29 17:26:18</time>
      </trkpt>
      <trkpt lat="43.23539" lon="-2.89008">
        <ele>77.8</ele>
        <time>2021-05-29 17:26:19</time>
      </trkpt>
      <trkpt lat="43.23539" lon="-2.89015">
        <ele>78</ele>
        <time>2021-05-29 17:26:20</time>
      </trkpt>
      <trkpt lat="43.23539" lon="-2.89021">
        <ele>78.4</ele>
        <time>2021-05-29 17:26:21</time>
      </trkpt>
      <trkpt lat="43.23539" lon="-2.89028">
        <ele>78.6</ele>
        <time>2021-05-29 17:26:22</time>
      </trkpt>
      <trkpt lat="43.23539" lon="-2.89034">
        <ele>78.8</ele>
        <time>2021-05-29 17:26:23</time>
      </trkpt>
      <trkpt lat="43.23538" lon="-2.89041">
        <ele>79.2</ele>
        <time>2021-05-29 17:26:24</time>
      </trkpt>
      <trkpt lat="43.23537" lon="-2.89048">
        <ele>79.4</ele>
        <time>2021-05-29 17:26:25</time>
      </trkpt>
      <trkpt lat="43.23537" lon="-2.89055">
        <ele>79.4</ele>
        <time>2021-05-29 17:26:26</time>
      </trkpt>
      <trkpt lat="43.23536" lon="-2.8906">
        <ele>79.4</ele>
        <time>2021-05-29 17:26:27</time>
      </trkpt>
      <trkpt lat="43.23535" lon="-2.89066">
        <ele>79.6</ele>
        <time>2021-05-29 17:26:28</time>
      </trkpt>
      <trkpt lat="43.23535" lon="-2.89071">
        <ele>79.6</ele>
        <time>2021-05-29 17:26:29</time>
      </trkpt>
      <trkpt lat="43.23534" lon="-2.89077">
        <ele>79.8</ele>
        <time>2021-05-29 17:26:30</time>
      </trkpt>
      <trkpt lat="43.23533" lon="-2.89082">
        <ele>80</ele>
        <time>2021-05-29 17:26:31</time>
      </trkpt>
      <trkpt lat="43.23533" lon="-2.89087">
        <ele>80.4</ele>
        <time>2021-05-29 17:26:32</time>
      </trkpt>
      <trkpt lat="43.23534" lon="-2.89092">
        <ele>80.8</ele>
        <time>2021-05-29 17:26:33</time>
      </trkpt>
      <trkpt lat="43.23534" lon="-2.89096">
        <ele>81</ele>
        <time>2021-05-29 17:26:34</time>
      </trkpt>
      <trkpt lat="43.23533" lon="-2.89098">
        <ele>81.4</ele>
        <time>2021-05-29 17:26:35</time>
      </trkpt>
      <trkpt lat="43.23533" lon="-2.89101">
        <ele>81.6</ele>
        <time>2021-05-29 17:26:36</time>
      </trkpt>
      <trkpt lat="43.23534" lon="-2.89103">
        <ele>81.8</ele>
        <time>2021-05-29 17:26:37</time>
      </trkpt>
      <trkpt lat="43.23534" lon="-2.89105">
        <ele>82.4</ele>
        <time>2021-05-29 17:26:38</time>
      </trkpt>
      <trkpt lat="43.23534" lon="-2.89108">
        <ele>82.6</ele>
        <time>2021-05-29 17:26:39</time>
      </trkpt>
      <trkpt lat="43.23535" lon="-2.8911">
        <ele>83</ele>
        <time>2021-05-29 17:26:40</time>
      </trkpt>
      <trkpt lat="43.23536" lon="-2.89113">
        <ele>83.4</ele>
        <time>2021-05-29 17:26:41</time>
      </trkpt>
      <trkpt lat="43.23537" lon="-2.89116">
        <ele>83.8</ele>
        <time>2021-05-29 17:26:42</time>
      </trkpt>
      <trkpt lat="43.23538" lon="-2.89119">
        <ele>84</ele>
        <time>2021-05-29 17:26:43</time>
      </trkpt>
      <trkpt lat="43.23538" lon="-2.89124">
        <ele>84.4</ele>
        <time>2021-05-29 17:26:44</time>
      </trkpt>
      <trkpt lat="43.23538" lon="-2.89127">
        <ele>84.6</ele>
        <time>2021-05-29 17:26:45</time>
      </trkpt>
      <trkpt lat="43.23538" lon="-2.89129">
        <ele>84.8</ele>
        <time>2021-05-29 17:26:46</time>
      </trkpt>
      <trkpt lat="43.23537" lon="-2.89132">
        <ele>85</ele>
        <time>2021-05-29 17:26:47</time>
      </trkpt>
      <trkpt lat="43.23536" lon="-2.89134">
        <ele>85.2</ele>
        <time>2021-05-29 17:26:48</time>
      </trkpt>
      <trkpt lat="43.23535" lon="-2.89134">
        <ele>85.4</ele>
        <time>2021-05-29 17:26:49</time>
      </trkpt>
      <trkpt lat="43.23535" lon="-2.89134">
        <ele>85.4</ele>
        <time>2021-05-29 17:26:50</time>
      </trkpt>
      <trkpt lat="43.2353" lon="-2.89141">
        <ele>87</ele>
        <time>2021-05-29 17:27:03</time>
      </trkpt>
      <trkpt lat="43.23529" lon="-2.89141">
        <ele>87</ele>
        <time>2021-05-29 17:27:04</time>
      </trkpt>
      <trkpt lat="43.23527" lon="-2.89141">
        <ele>87</ele>
        <time>2021-05-29 17:27:05</time>
      </trkpt>
      <trkpt lat="43.23526" lon="-2.89141">
        <ele>87</ele>
        <time>2021-05-29 17:27:06</time>
      </trkpt>
      <trkpt lat="43.23527" lon="-2.8914">
        <ele>87</ele>
        <time>2021-05-29 17:27:07</time>
      </trkpt>
      <trkpt lat="43.23527" lon="-2.89139">
        <ele>87</ele>
        <time>2021-05-29 17:27:08</time>
      </trkpt>
      <trkpt lat="43.23528" lon="-2.89137">
        <ele>87</ele>
        <time>2021-05-29 17:27:09</time>
      </trkpt>
      <trkpt lat="43.23528" lon="-2.89136">
        <ele>87</ele>
        <time>2021-05-29 17:27:10</time>
      </trkpt>
      <trkpt lat="43.23519" lon="-2.89138">
        <ele>86.4</ele>
        <time>2021-05-29 17:27:47</time>
      </trkpt>
      <trkpt lat="43.23517" lon="-2.89142">
        <ele>86.4</ele>
        <time>2021-05-29 17:27:48</time>
      </trkpt>
      <trkpt lat="43.23514" lon="-2.89145">
        <ele>86.4</ele>
        <time>2021-05-29 17:27:49</time>
      </trkpt>
      <trkpt lat="43.2351" lon="-2.89149">
        <ele>86.2</ele>
        <time>2021-05-29 17:27:50</time>
      </trkpt>
      <trkpt lat="43.23505" lon="-2.89152">
        <ele>86.2</ele>
        <time>2021-05-29 17:27:51</time>
      </trkpt>
      <trkpt lat="43.23498" lon="-2.89154">
        <ele>86.2</ele>
        <time>2021-05-29 17:27:52</time>
      </trkpt>
      <trkpt lat="43.2349" lon="-2.89158">
        <ele>86</ele>
        <time>2021-05-29 17:27:53</time>
      </trkpt>
      <trkpt lat="43.23481" lon="-2.89159">
        <ele>85.8</ele>
        <time>2021-05-29 17:27:54</time>
      </trkpt>
      <trkpt lat="43.23473" lon="-2.8916">
        <ele>85.6</ele>
        <time>2021-05-29 17:27:55</time>
      </trkpt>
      <trkpt lat="43.23464" lon="-2.89163">
        <ele>85.4</ele>
        <time>2021-05-29 17:27:56</time>
      </trkpt>
      <trkpt lat="43.23457" lon="-2.89166">
        <ele>85.2</ele>
        <time>2021-05-29 17:27:57</time>
      </trkpt>
      <trkpt lat="43.23449" lon="-2.8917">
        <ele>84.8</ele>
        <time>2021-05-29 17:27:58</time>
      </trkpt>
      <trkpt lat="43.23441" lon="-2.89176">
        <ele>84.6</ele>
        <time>2021-05-29 17:27:59</time>
      </trkpt>
      <trkpt lat="43.23432" lon="-2.89181">
        <ele>84.2</ele>
        <time>2021-05-29 17:28:00</time>
      </trkpt>
      <trkpt lat="43.23424" lon="-2.89188">
        <ele>84</ele>
        <time>2021-05-29 17:28:01</time>
      </trkpt>
      <trkpt lat="43.23417" lon="-2.89196">
        <ele>83.6</ele>
        <time>2021-05-29 17:28:02</time>
      </trkpt>
      <trkpt lat="43.23409" lon="-2.89206">
        <ele>83.2</ele>
        <time>2021-05-29 17:28:03</time>
      </trkpt>
      <trkpt lat="43.23402" lon="-2.89216">
        <ele>83.2</ele>
        <time>2021-05-29 17:28:04</time>
      </trkpt>
      <trkpt lat="43.23393" lon="-2.89227">
        <ele>82.8</ele>
        <time>2021-05-29 17:28:05</time>
      </trkpt>
      <trkpt lat="43.23381" lon="-2.89237">
        <ele>82.2</ele>
        <time>2021-05-29 17:28:06</time>
      </trkpt>
      <trkpt lat="43.23373" lon="-2.89248">
        <ele>81.8</ele>
        <time>2021-05-29 17:28:07</time>
      </trkpt>
      <trkpt lat="43.23366" lon="-2.89257">
        <ele>81.2</ele>
        <time>2021-05-29 17:28:08</time>
      </trkpt>
      <trkpt lat="43.23358" lon="-2.89267">
        <ele>80.6</ele>
        <time>2021-05-29 17:28:09</time>
      </trkpt>
      <trkpt lat="43.23351" lon="-2.89277">
        <ele>79.8</ele>
        <time>2021-05-29 17:28:10</time>
      </trkpt>
      <trkpt lat="43.23344" lon="-2.89287">
        <ele>79.4</ele>
        <time>2021-05-29 17:28:11</time>
      </trkpt>
      <trkpt lat="43.23337" lon="-2.89296">
        <ele>78.8</ele>
        <time>2021-05-29 17:28:12</time>
      </trkpt>
      <trkpt lat="43.23331" lon="-2.89304">
        <ele>78.4</ele>
        <time>2021-05-29 17:28:13</time>
      </trkpt>
      <trkpt lat="43.23324" lon="-2.89311">
        <ele>77.6</ele>
        <time>2021-05-29 17:28:14</time>
      </trkpt>
      <trkpt lat="43.23316" lon="-2.89314">
        <ele>77.2</ele>
        <time>2021-05-29 17:28:15</time>
      </trkpt>
      <trkpt lat="43.23305" lon="-2.89312">
        <ele>76.6</ele>
        <time>2021-05-29 17:28:16</time>
      </trkpt>
      <trkpt lat="43.23298" lon="-2.89306">
        <ele>76.2</ele>
        <time>2021-05-29 17:28:17</time>
      </trkpt>
      <trkpt lat="43.23291" lon="-2.89298">
        <ele>76</ele>
        <time>2021-05-29 17:28:18</time>
      </trkpt>
      <trkpt lat="43.23285" lon="-2.89286">
        <ele>75.8</ele>
        <time>2021-05-29 17:28:19</time>
      </trkpt>
      <trkpt lat="43.23284" lon="-2.89274">
        <ele>75.8</ele>
        <time>2021-05-29 17:28:20</time>
      </trkpt>
      <trkpt lat="43.23284" lon="-2.89262">
        <ele>75.8</ele>
        <time>2021-05-29 17:28:21</time>
      </trkpt>
      <trkpt lat="43.23284" lon="-2.8925">
        <ele>75.6</ele>
        <time>2021-05-29 17:28:22</time>
      </trkpt>
      <trkpt lat="43.23284" lon="-2.8924">
        <ele>75.6</ele>
        <time>2021-05-29 17:28:23</time>
      </trkpt>
      <trkpt lat="43.23285" lon="-2.8923">
        <ele>75.6</ele>
        <time>2021-05-29 17:28:24</time>
      </trkpt>
      <trkpt lat="43.23285" lon="-2.8922">
        <ele>75.6</ele>
        <time>2021-05-29 17:28:25</time>
      </trkpt>
      <trkpt lat="43.23285" lon="-2.8921">
        <ele>75.6</ele>
        <time>2021-05-29 17:28:26</time>
      </trkpt>
      <trkpt lat="43.23285" lon="-2.89201">
        <ele>75.8</ele>
        <time>2021-05-29 17:28:27</time>
      </trkpt>
      <trkpt lat="43.23284" lon="-2.89191">
        <ele>76</ele>
        <time>2021-05-29 17:28:28</time>
      </trkpt>
      <trkpt lat="43.23283" lon="-2.89181">
        <ele>76.4</ele>
        <time>2021-05-29 17:28:29</time>
      </trkpt>
      <trkpt lat="43.23279" lon="-2.89173">
        <ele>77</ele>
        <time>2021-05-29 17:28:30</time>
      </trkpt>
      <trkpt lat="43.23275" lon="-2.89166">
        <ele>77.2</ele>
        <time>2021-05-29 17:28:31</time>
      </trkpt>
      <trkpt lat="43.23269" lon="-2.89161">
        <ele>77.6</ele>
        <time>2021-05-29 17:28:32</time>
      </trkpt>
      <trkpt lat="43.23263" lon="-2.89157">
        <ele>78</ele>
        <time>2021-05-29 17:28:33</time>
      </trkpt>
      <trkpt lat="43.23256" lon="-2.89153">
        <ele>78.2</ele>
        <time>2021-05-29 17:28:34</time>
      </trkpt>
      <trkpt lat="43.23248" lon="-2.89151">
        <ele>78.6</ele>
        <time>2021-05-29 17:28:35</time>
      </trkpt>
      <trkpt lat="43.2324" lon="-2.89151">
        <ele>79.2</ele>
        <time>2021-05-29 17:28:36</time>
      </trkpt>
      <trkpt lat="43.23232" lon="-2.89151">
        <ele>79.6</ele>
        <time>2021-05-29 17:28:37</time>
      </trkpt>
      <trkpt lat="43.23224" lon="-2.89153">
        <ele>80.2</ele>
        <time>2021-05-29 17:28:38</time>
      </trkpt>
      <trkpt lat="43.23216" lon="-2.89155">
        <ele>80.8</ele>
        <time>2021-05-29 17:28:39</time>
      </trkpt>
      <trkpt lat="43.23208" lon="-2.89157">
        <ele>81.2</ele>
        <time>2021-05-29 17:28:40</time>
      </trkpt>
      <trkpt lat="43.23199" lon="-2.8916">
        <ele>81.6</ele>
        <time>2021-05-29 17:28:41</time>
      </trkpt>
      <trkpt lat="43.23191" lon="-2.89162">
        <ele>81.6</ele>
        <time>2021-05-29 17:28:42</time>
      </trkpt>
      <trkpt lat="43.23182" lon="-2.89165">
        <ele>81.8</ele>
        <time>2021-05-29 17:28:43</time>
      </trkpt>
      <trkpt lat="43.23173" lon="-2.89167">
        <ele>81.8</ele>
        <time>2021-05-29 17:28:44</time>
      </trkpt>
      <trkpt lat="43.23164" lon="-2.89169">
        <ele>81.8</ele>
        <time>2021-05-29 17:28:45</time>
      </trkpt>
      <trkpt lat="43.23155" lon="-2.89171">
        <ele>81.8</ele>
        <time>2021-05-29 17:28:46</time>
      </trkpt>
      <trkpt lat="43.23146" lon="-2.89173">
        <ele>81.8</ele>
        <time>2021-05-29 17:28:47</time>
      </trkpt>
      <trkpt lat="43.23137" lon="-2.89176">
        <ele>81.8</ele>
        <time>2021-05-29 17:28:48</time>
      </trkpt>
      <trkpt lat="43.23128" lon="-2.89178">
        <ele>81.8</ele>
        <time>2021-05-29 17:28:49</time>
      </trkpt>
      <trkpt lat="43.23119" lon="-2.89181">
        <ele>81.4</ele>
        <time>2021-05-29 17:28:50</time>
      </trkpt>
      <trkpt lat="43.2311" lon="-2.89183">
        <ele>81.2</ele>
        <time>2021-05-29 17:28:51</time>
      </trkpt>
      <trkpt lat="43.231" lon="-2.89185">
        <ele>81</ele>
        <time>2021-05-29 17:28:52</time>
      </trkpt>
      <trkpt lat="43.2309" lon="-2.89187">
        <ele>80.6</ele>
        <time>2021-05-29 17:28:53</time>
      </trkpt>
      <trkpt lat="43.2308" lon="-2.89189">
        <ele>80.6</ele>
        <time>2021-05-29 17:28:54</time>
      </trkpt>
      <trkpt lat="43.2307" lon="-2.89189">
        <ele>80.4</ele>
        <time>2021-05-29 17:28:55</time>
      </trkpt>
      <trkpt lat="43.23059" lon="-2.89189">
        <ele>80</ele>
        <time>2021-05-29 17:28:56</time>
      </trkpt>
      <trkpt lat="43.23048" lon="-2.89186">
        <ele>79.4</ele>
        <time>2021-05-29 17:28:57</time>
      </trkpt>
      <trkpt lat="43.23037" lon="-2.89182">
        <ele>79</ele>
        <time>2021-05-29 17:28:58</time>
      </trkpt>
      <trkpt lat="43.23026" lon="-2.89177">
        <ele>78.8</ele>
        <time>2021-05-29 17:28:59</time>
      </trkpt>
      <trkpt lat="43.23016" lon="-2.89172">
        <ele>78.4</ele>
        <time>2021-05-29 17:29:00</time>
      </trkpt>
      <trkpt lat="43.23005" lon="-2.89166">
        <ele>78</ele>
        <time>2021-05-29 17:29:01</time>
      </trkpt>
      <trkpt lat="43.22994" lon="-2.89161">
        <ele>77.6</ele>
        <time>2021-05-29 17:29:02</time>
      </trkpt>
      <trkpt lat="43.22983" lon="-2.89156">
        <ele>77.2</ele>
        <time>2021-05-29 17:29:03</time>
      </trkpt>
      <trkpt lat="43.22972" lon="-2.89151">
        <ele>77</ele>
        <time>2021-05-29 17:29:04</time>
      </trkpt>
      <trkpt lat="43.22961" lon="-2.89146">
        <ele>76.6</ele>
        <time>2021-05-29 17:29:05</time>
      </trkpt>
      <trkpt lat="43.2295" lon="-2.89141">
        <ele>76</ele>
        <time>2021-05-29 17:29:06</time>
      </trkpt>
      <trkpt lat="43.2294" lon="-2.89136">
        <ele>75.6</ele>
        <time>2021-05-29 17:29:07</time>
      </trkpt>
      <trkpt lat="43.22929" lon="-2.89131">
        <ele>75.2</ele>
        <time>2021-05-29 17:29:08</time>
      </trkpt>
      <trkpt lat="43.22919" lon="-2.89127">
        <ele>74.8</ele>
        <time>2021-05-29 17:29:09</time>
      </trkpt>
      <trkpt lat="43.22909" lon="-2.89122">
        <ele>74.6</ele>
        <time>2021-05-29 17:29:10</time>
      </trkpt>
      <trkpt lat="43.22898" lon="-2.89117">
        <ele>74.4</ele>
        <time>2021-05-29 17:29:11</time>
      </trkpt>
      <trkpt lat="43.22888" lon="-2.89112">
        <ele>74.2</ele>
        <time>2021-05-29 17:29:12</time>
      </trkpt>
      <trkpt lat="43.22877" lon="-2.89107">
        <ele>73.8</ele>
        <time>2021-05-29 17:29:13</time>
      </trkpt>
      <trkpt lat="43.22867" lon="-2.89102">
        <ele>73.6</ele>
        <time>2021-05-29 17:29:14</time>
      </trkpt>
      <trkpt lat="43.22857" lon="-2.89097">
        <ele>73.2</ele>
        <time>2021-05-29 17:29:15</time>
      </trkpt>
      <trkpt lat="43.22847" lon="-2.89092">
        <ele>73</ele>
        <time>2021-05-29 17:29:16</time>
      </trkpt>
      <trkpt lat="43.22838" lon="-2.89085">
        <ele>72.8</ele>
        <time>2021-05-29 17:29:17</time>
      </trkpt>
      <trkpt lat="43.22829" lon="-2.89076">
        <ele>72.6</ele>
        <time>2021-05-29 17:29:18</time>
      </trkpt>
      <trkpt lat="43.22821" lon="-2.89066">
        <ele>72.6</ele>
        <time>2021-05-29 17:29:19</time>
      </trkpt>
      <trkpt lat="43.22814" lon="-2.89056">
        <ele>72.4</ele>
        <time>2021-05-29 17:29:20</time>
      </trkpt>
      <trkpt lat="43.22807" lon="-2.89044">
        <ele>72.2</ele>
        <time>2021-05-29 17:29:21</time>
      </trkpt>
      <trkpt lat="43.228" lon="-2.89034">
        <ele>72.2</ele>
        <time>2021-05-29 17:29:22</time>
      </trkpt>
      <trkpt lat="43.22792" lon="-2.89024">
        <ele>72</ele>
        <time>2021-05-29 17:29:23</time>
      </trkpt>
      <trkpt lat="43.22784" lon="-2.89016">
        <ele>72</ele>
        <time>2021-05-29 17:29:24</time>
      </trkpt>
      <trkpt lat="43.22776" lon="-2.89007">
        <ele>71.8</ele>
        <time>2021-05-29 17:29:25</time>
      </trkpt>
      <trkpt lat="43.22768" lon="-2.89">
        <ele>71.8</ele>
        <time>2021-05-29 17:29:26</time>
      </trkpt>
      <trkpt lat="43.22759" lon="-2.88993">
        <ele>71.8</ele>
        <time>2021-05-29 17:29:27</time>
      </trkpt>
      <trkpt lat="43.22751" lon="-2.88987">
        <ele>71.8</ele>
        <time>2021-05-29 17:29:28</time>
      </trkpt>
      <trkpt lat="43.22742" lon="-2.88982">
        <ele>71.8</ele>
        <time>2021-05-29 17:29:29</time>
      </trkpt>
      <trkpt lat="43.22733" lon="-2.88978">
        <ele>71.8</ele>
        <time>2021-05-29 17:29:30</time>
      </trkpt>
      <trkpt lat="43.22723" lon="-2.88974">
        <ele>71.8</ele>
        <time>2021-05-29 17:29:31</time>
      </trkpt>
      <trkpt lat="43.22714" lon="-2.88971">
        <ele>71.6</ele>
        <time>2021-05-29 17:29:32</time>
      </trkpt>
      <trkpt lat="43.22705" lon="-2.88967">
        <ele>71.6</ele>
        <time>2021-05-29 17:29:33</time>
      </trkpt>
      <trkpt lat="43.22696" lon="-2.88963">
        <ele>71.6</ele>
        <time>2021-05-29 17:29:34</time>
      </trkpt>
      <trkpt lat="43.22686" lon="-2.88959">
        <ele>71.4</ele>
        <time>2021-05-29 17:29:35</time>
      </trkpt>
      <trkpt lat="43.22677" lon="-2.88955">
        <ele>71.4</ele>
        <time>2021-05-29 17:29:36</time>
      </trkpt>
      <trkpt lat="43.22668" lon="-2.88952">
        <ele>71.4</ele>
        <time>2021-05-29 17:29:37</time>
      </trkpt>
      <trkpt lat="43.22659" lon="-2.88949">
        <ele>71.4</ele>
        <time>2021-05-29 17:29:38</time>
      </trkpt>
      <trkpt lat="43.22651" lon="-2.88945">
        <ele>71.4</ele>
        <time>2021-05-29 17:29:39</time>
      </trkpt>
      <trkpt lat="43.22642" lon="-2.88942">
        <ele>71.4</ele>
        <time>2021-05-29 17:29:40</time>
      </trkpt>
      <trkpt lat="43.22633" lon="-2.88938">
        <ele>71.2</ele>
        <time>2021-05-29 17:29:41</time>
      </trkpt>
      <trkpt lat="43.22624" lon="-2.88935">
        <ele>71</ele>
        <time>2021-05-29 17:29:42</time>
      </trkpt>
      <trkpt lat="43.22616" lon="-2.88933">
        <ele>70.6</ele>
        <time>2021-05-29 17:29:43</time>
      </trkpt>
      <trkpt lat="43.22607" lon="-2.88931">
        <ele>70.4</ele>
        <time>2021-05-29 17:29:44</time>
      </trkpt>
      <trkpt lat="43.22598" lon="-2.88931">
        <ele>70</ele>
        <time>2021-05-29 17:29:45</time>
      </trkpt>
      <trkpt lat="43.2259" lon="-2.88933">
        <ele>69.6</ele>
        <time>2021-05-29 17:29:46</time>
      </trkpt>
      <trkpt lat="43.22582" lon="-2.88936">
        <ele>69</ele>
        <time>2021-05-29 17:29:47</time>
      </trkpt>
      <trkpt lat="43.22575" lon="-2.8894">
        <ele>68.4</ele>
        <time>2021-05-29 17:29:48</time>
      </trkpt>
      <trkpt lat="43.22568" lon="-2.88943">
        <ele>68</ele>
        <time>2021-05-29 17:29:49</time>
      </trkpt>
      <trkpt lat="43.22562" lon="-2.88946">
        <ele>68</ele>
        <time>2021-05-29 17:29:50</time>
      </trkpt>
      <trkpt lat="43.22556" lon="-2.88947">
        <ele>67.8</ele>
        <time>2021-05-29 17:29:51</time>
      </trkpt>
      <trkpt lat="43.22552" lon="-2.88949">
        <ele>67.8</ele>
        <time>2021-05-29 17:29:52</time>
      </trkpt>
      <trkpt lat="43.22549" lon="-2.88951">
        <ele>67.8</ele>
        <time>2021-05-29 17:29:53</time>
      </trkpt>
      <trkpt lat="43.22546" lon="-2.88951">
        <ele>67.8</ele>
        <time>2021-05-29 17:29:54</time>
      </trkpt>
      <trkpt lat="43.22544" lon="-2.8895">
        <ele>67.8</ele>
        <time>2021-05-29 17:29:55</time>
      </trkpt>
      <trkpt lat="43.22543" lon="-2.88948">
        <ele>67.8</ele>
        <time>2021-05-29 17:29:56</time>
      </trkpt>
      <trkpt lat="43.22544" lon="-2.88945">
        <ele>67.8</ele>
        <time>2021-05-29 17:29:57</time>
      </trkpt>
      <trkpt lat="43.22545" lon="-2.88944">
        <ele>67.8</ele>
        <time>2021-05-29 17:29:58</time>
      </trkpt>
      <trkpt lat="43.22547" lon="-2.88943">
        <ele>68</ele>
        <time>2021-05-29 17:29:59</time>
      </trkpt>
      <trkpt lat="43.22549" lon="-2.88943">
        <ele>68.4</ele>
        <time>2021-05-29 17:30:00</time>
      </trkpt>
      <trkpt lat="43.22551" lon="-2.88942">
        <ele>68.8</ele>
        <time>2021-05-29 17:30:01</time>
      </trkpt>
      <trkpt lat="43.22553" lon="-2.88942">
        <ele>69</ele>
        <time>2021-05-29 17:30:02</time>
      </trkpt>
      <trkpt lat="43.22555" lon="-2.88941">
        <ele>69</ele>
        <time>2021-05-29 17:30:03</time>
      </trkpt>
      <trkpt lat="43.22557" lon="-2.8894">
        <ele>69</ele>
        <time>2021-05-29 17:30:04</time>
      </trkpt>
      <trkpt lat="43.2256" lon="-2.88938">
        <ele>69</ele>
        <time>2021-05-29 17:30:05</time>
      </trkpt>
      <trkpt lat="43.22562" lon="-2.88933">
        <ele>69.2</ele>
        <time>2021-05-29 17:30:06</time>
      </trkpt>
      <trkpt lat="43.22562" lon="-2.88927">
        <ele>69.2</ele>
        <time>2021-05-29 17:30:07</time>
      </trkpt>
      <trkpt lat="43.2256" lon="-2.88922">
        <ele>69.2</ele>
        <time>2021-05-29 17:30:08</time>
      </trkpt>
      <trkpt lat="43.22557" lon="-2.88917">
        <ele>69.2</ele>
        <time>2021-05-29 17:30:09</time>
      </trkpt>
      <trkpt lat="43.22552" lon="-2.88914">
        <ele>69</ele>
        <time>2021-05-29 17:30:10</time>
      </trkpt>
      <trkpt lat="43.22547" lon="-2.88911">
        <ele>68.8</ele>
        <time>2021-05-29 17:30:11</time>
      </trkpt>
      <trkpt lat="43.22543" lon="-2.88909">
        <ele>68.8</ele>
        <time>2021-05-29 17:30:12</time>
      </trkpt>
      <trkpt lat="43.22538" lon="-2.88906">
        <ele>68.8</ele>
        <time>2021-05-29 17:30:13</time>
      </trkpt>
      <trkpt lat="43.22533" lon="-2.88905">
        <ele>68.8</ele>
        <time>2021-05-29 17:30:14</time>
      </trkpt>
      <trkpt lat="43.22528" lon="-2.88903">
        <ele>68.8</ele>
        <time>2021-05-29 17:30:15</time>
      </trkpt>
      <trkpt lat="43.22522" lon="-2.88901">
        <ele>68.8</ele>
        <time>2021-05-29 17:30:16</time>
      </trkpt>
      <trkpt lat="43.22515" lon="-2.889">
        <ele>68.8</ele>
        <time>2021-05-29 17:30:17</time>
      </trkpt>
      <trkpt lat="43.22509" lon="-2.88897">
        <ele>68.8</ele>
        <time>2021-05-29 17:30:18</time>
      </trkpt>
      <trkpt lat="43.22502" lon="-2.88895">
        <ele>68.8</ele>
        <time>2021-05-29 17:30:19</time>
      </trkpt>
      <trkpt lat="43.22495" lon="-2.88893">
        <ele>68.8</ele>
        <time>2021-05-29 17:30:20</time>
      </trkpt>
      <trkpt lat="43.22488" lon="-2.88891">
        <ele>69</ele>
        <time>2021-05-29 17:30:21</time>
      </trkpt>
      <trkpt lat="43.22482" lon="-2.88888">
        <ele>69.2</ele>
        <time>2021-05-29 17:30:22</time>
      </trkpt>
      <trkpt lat="43.22476" lon="-2.88887">
        <ele>69.6</ele>
        <time>2021-05-29 17:30:23</time>
      </trkpt>
      <trkpt lat="43.22469" lon="-2.88885">
        <ele>70</ele>
        <time>2021-05-29 17:30:24</time>
      </trkpt>
      <trkpt lat="43.22462" lon="-2.88883">
        <ele>70.2</ele>
        <time>2021-05-29 17:30:25</time>
      </trkpt>
      <trkpt lat="43.22454" lon="-2.88881">
        <ele>70.2</ele>
        <time>2021-05-29 17:30:26</time>
      </trkpt>
      <trkpt lat="43.22447" lon="-2.88879">
        <ele>70.2</ele>
        <time>2021-05-29 17:30:27</time>
      </trkpt>
      <trkpt lat="43.2244" lon="-2.88877">
        <ele>70.2</ele>
        <time>2021-05-29 17:30:28</time>
      </trkpt>
      <trkpt lat="43.22434" lon="-2.88875">
        <ele>70.4</ele>
        <time>2021-05-29 17:30:29</time>
      </trkpt>
      <trkpt lat="43.22428" lon="-2.88874">
        <ele>70.4</ele>
        <time>2021-05-29 17:30:30</time>
      </trkpt>
      <trkpt lat="43.22423" lon="-2.88873">
        <ele>70.4</ele>
        <time>2021-05-29 17:30:31</time>
      </trkpt>
      <trkpt lat="43.22418" lon="-2.88872">
        <ele>70.4</ele>
        <time>2021-05-29 17:30:32</time>
      </trkpt>
      <trkpt lat="43.22415" lon="-2.88871">
        <ele>70.4</ele>
        <time>2021-05-29 17:30:33</time>
      </trkpt>
      <trkpt lat="43.22411" lon="-2.88871">
        <ele>70.2</ele>
        <time>2021-05-29 17:30:34</time>
      </trkpt>
      <trkpt lat="43.22409" lon="-2.8887">
        <ele>70</ele>
        <time>2021-05-29 17:30:35</time>
      </trkpt>
      <trkpt lat="43.22407" lon="-2.8887">
        <ele>69.8</ele>
        <time>2021-05-29 17:30:36</time>
      </trkpt>
      <trkpt lat="43.22405" lon="-2.8887">
        <ele>69.4</ele>
        <time>2021-05-29 17:30:37</time>
      </trkpt>
      <trkpt lat="43.22404" lon="-2.88869">
        <ele>69.2</ele>
        <time>2021-05-29 17:30:38</time>
      </trkpt>
      <trkpt lat="43.22403" lon="-2.8887">
        <ele>69.2</ele>
        <time>2021-05-29 17:30:39</time>
      </trkpt>
      <trkpt lat="43.22402" lon="-2.8887">
        <ele>69</ele>
        <time>2021-05-29 17:30:40</time>
      </trkpt>
      <trkpt lat="43.22393" lon="-2.88869">
        <ele>69</ele>
        <time>2021-05-29 17:30:53</time>
      </trkpt>
      <trkpt lat="43.2239" lon="-2.88868">
        <ele>68.8</ele>
        <time>2021-05-29 17:30:54</time>
      </trkpt>
      <trkpt lat="43.22387" lon="-2.88868">
        <ele>68.8</ele>
        <time>2021-05-29 17:30:55</time>
      </trkpt>
      <trkpt lat="43.22382" lon="-2.88868">
        <ele>68.8</ele>
        <time>2021-05-29 17:30:56</time>
      </trkpt>
      <trkpt lat="43.22377" lon="-2.88868">
        <ele>68.8</ele>
        <time>2021-05-29 17:30:57</time>
      </trkpt>
      <trkpt lat="43.22372" lon="-2.88867">
        <ele>68.8</ele>
        <time>2021-05-29 17:30:58</time>
      </trkpt>
      <trkpt lat="43.22368" lon="-2.88866">
        <ele>68.8</ele>
        <time>2021-05-29 17:30:59</time>
      </trkpt>
      <trkpt lat="43.22362" lon="-2.88864">
        <ele>68.8</ele>
        <time>2021-05-29 17:31:00</time>
      </trkpt>
      <trkpt lat="43.22357" lon="-2.88862">
        <ele>68.8</ele>
        <time>2021-05-29 17:31:01</time>
      </trkpt>
      <trkpt lat="43.22351" lon="-2.8886">
        <ele>68.8</ele>
        <time>2021-05-29 17:31:02</time>
      </trkpt>
      <trkpt lat="43.22345" lon="-2.88859">
        <ele>68.8</ele>
        <time>2021-05-29 17:31:03</time>
      </trkpt>
      <trkpt lat="43.22339" lon="-2.88858">
        <ele>68.8</ele>
        <time>2021-05-29 17:31:04</time>
      </trkpt>
      <trkpt lat="43.22333" lon="-2.88857">
        <ele>68.8</ele>
        <time>2021-05-29 17:31:05</time>
      </trkpt>
      <trkpt lat="43.22327" lon="-2.88855">
        <ele>68.8</ele>
        <time>2021-05-29 17:31:06</time>
      </trkpt>
      <trkpt lat="43.2232" lon="-2.88853">
        <ele>68.8</ele>
        <time>2021-05-29 17:31:07</time>
      </trkpt>
      <trkpt lat="43.22314" lon="-2.8885">
        <ele>68.8</ele>
        <time>2021-05-29 17:31:08</time>
      </trkpt>
      <trkpt lat="43.22307" lon="-2.88848">
        <ele>68.8</ele>
        <time>2021-05-29 17:31:09</time>
      </trkpt>
      <trkpt lat="43.223" lon="-2.88845">
        <ele>69</ele>
        <time>2021-05-29 17:31:10</time>
      </trkpt>
      <trkpt lat="43.22294" lon="-2.88843">
        <ele>69</ele>
        <time>2021-05-29 17:31:11</time>
      </trkpt>
      <trkpt lat="43.22287" lon="-2.88841">
        <ele>69</ele>
        <time>2021-05-29 17:31:12</time>
      </trkpt>
      <trkpt lat="43.22281" lon="-2.88839">
        <ele>69.2</ele>
        <time>2021-05-29 17:31:13</time>
      </trkpt>
      <trkpt lat="43.22274" lon="-2.88837">
        <ele>69.4</ele>
        <time>2021-05-29 17:31:14</time>
      </trkpt>
      <trkpt lat="43.22267" lon="-2.88835">
        <ele>69.6</ele>
        <time>2021-05-29 17:31:15</time>
      </trkpt>
      <trkpt lat="43.2226" lon="-2.88833">
        <ele>70</ele>
        <time>2021-05-29 17:31:16</time>
      </trkpt>
      <trkpt lat="43.22254" lon="-2.88831">
        <ele>70.2</ele>
        <time>2021-05-29 17:31:17</time>
      </trkpt>
      <trkpt lat="43.22248" lon="-2.88829">
        <ele>70.6</ele>
        <time>2021-05-29 17:31:18</time>
      </trkpt>
      <trkpt lat="43.22241" lon="-2.88827">
        <ele>70.8</ele>
        <time>2021-05-29 17:31:19</time>
      </trkpt>
      <trkpt lat="43.22235" lon="-2.88825">
        <ele>71.2</ele>
        <time>2021-05-29 17:31:20</time>
      </trkpt>
      <trkpt lat="43.22229" lon="-2.88824">
        <ele>71.4</ele>
        <time>2021-05-29 17:31:21</time>
      </trkpt>
      <trkpt lat="43.22223" lon="-2.88823">
        <ele>71.8</ele>
        <time>2021-05-29 17:31:22</time>
      </trkpt>
      <trkpt lat="43.22217" lon="-2.88822">
        <ele>72</ele>
        <time>2021-05-29 17:31:23</time>
      </trkpt>
      <trkpt lat="43.2221" lon="-2.8882">
        <ele>72.6</ele>
        <time>2021-05-29 17:31:24</time>
      </trkpt>
      <trkpt lat="43.22204" lon="-2.88818">
        <ele>72.8</ele>
        <time>2021-05-29 17:31:25</time>
      </trkpt>
      <trkpt lat="43.22198" lon="-2.88816">
        <ele>73.2</ele>
        <time>2021-05-29 17:31:26</time>
      </trkpt>
      <trkpt lat="43.22192" lon="-2.88815">
        <ele>73.4</ele>
        <time>2021-05-29 17:31:27</time>
      </trkpt>
      <trkpt lat="43.22185" lon="-2.88814">
        <ele>74</ele>
        <time>2021-05-29 17:31:28</time>
      </trkpt>
      <trkpt lat="43.22179" lon="-2.88813">
        <ele>74.4</ele>
        <time>2021-05-29 17:31:29</time>
      </trkpt>
      <trkpt lat="43.22173" lon="-2.88811">
        <ele>74.8</ele>
        <time>2021-05-29 17:31:30</time>
      </trkpt>
      <trkpt lat="43.22166" lon="-2.8881">
        <ele>75.2</ele>
        <time>2021-05-29 17:31:31</time>
      </trkpt>
      <trkpt lat="43.2216" lon="-2.88808">
        <ele>75.6</ele>
        <time>2021-05-29 17:31:32</time>
      </trkpt>
      <trkpt lat="43.22154" lon="-2.88807">
        <ele>76</ele>
        <time>2021-05-29 17:31:33</time>
      </trkpt>
      <trkpt lat="43.22147" lon="-2.88805">
        <ele>76.4</ele>
        <time>2021-05-29 17:31:34</time>
      </trkpt>
      <trkpt lat="43.2214" lon="-2.88803">
        <ele>76.8</ele>
        <time>2021-05-29 17:31:35</time>
      </trkpt>
      <trkpt lat="43.22133" lon="-2.88801">
        <ele>77.2</ele>
        <time>2021-05-29 17:31:36</time>
      </trkpt>
      <trkpt lat="43.22127" lon="-2.88799">
        <ele>77.6</ele>
        <time>2021-05-29 17:31:37</time>
      </trkpt>
      <trkpt lat="43.2212" lon="-2.88797">
        <ele>78.2</ele>
        <time>2021-05-29 17:31:38</time>
      </trkpt>
      <trkpt lat="43.22113" lon="-2.88795">
        <ele>78.4</ele>
        <time>2021-05-29 17:31:39</time>
      </trkpt>
      <trkpt lat="43.22106" lon="-2.88793">
        <ele>78.8</ele>
        <time>2021-05-29 17:31:40</time>
      </trkpt>
      <trkpt lat="43.22099" lon="-2.88791">
        <ele>79.2</ele>
        <time>2021-05-29 17:31:41</time>
      </trkpt>
      <trkpt lat="43.22092" lon="-2.88789">
        <ele>79.6</ele>
        <time>2021-05-29 17:31:42</time>
      </trkpt>
      <trkpt lat="43.22085" lon="-2.88787">
        <ele>80</ele>
        <time>2021-05-29 17:31:43</time>
      </trkpt>
      <trkpt lat="43.22078" lon="-2.88785">
        <ele>80.2</ele>
        <time>2021-05-29 17:31:44</time>
      </trkpt>
      <trkpt lat="43.22071" lon="-2.88783">
        <ele>80.4</ele>
        <time>2021-05-29 17:31:45</time>
      </trkpt>
      <trkpt lat="43.22063" lon="-2.88781">
        <ele>80.6</ele>
        <time>2021-05-29 17:31:46</time>
      </trkpt>
      <trkpt lat="43.22056" lon="-2.88779">
        <ele>80.8</ele>
        <time>2021-05-29 17:31:47</time>
      </trkpt>
      <trkpt lat="43.22049" lon="-2.88777">
        <ele>80.8</ele>
        <time>2021-05-29 17:31:48</time>
      </trkpt>
      <trkpt lat="43.22042" lon="-2.88775">
        <ele>81.2</ele>
        <time>2021-05-29 17:31:49</time>
      </trkpt>
      <trkpt lat="43.22035" lon="-2.88773">
        <ele>81.4</ele>
        <time>2021-05-29 17:31:50</time>
      </trkpt>
      <trkpt lat="43.22027" lon="-2.88771">
        <ele>81.4</ele>
        <time>2021-05-29 17:31:51</time>
      </trkpt>
      <trkpt lat="43.2202" lon="-2.88769">
        <ele>81.6</ele>
        <time>2021-05-29 17:31:52</time>
      </trkpt>
      <trkpt lat="43.22013" lon="-2.88766">
        <ele>81.8</ele>
        <time>2021-05-29 17:31:53</time>
      </trkpt>
      <trkpt lat="43.22006" lon="-2.88764">
        <ele>82</ele>
        <time>2021-05-29 17:31:54</time>
      </trkpt>
      <trkpt lat="43.21998" lon="-2.88762">
        <ele>82</ele>
        <time>2021-05-29 17:31:55</time>
      </trkpt>
      <trkpt lat="43.21991" lon="-2.8876">
        <ele>82</ele>
        <time>2021-05-29 17:31:56</time>
      </trkpt>
      <trkpt lat="43.21983" lon="-2.88758">
        <ele>82.2</ele>
        <time>2021-05-29 17:31:57</time>
      </trkpt>
      <trkpt lat="43.21976" lon="-2.88756">
        <ele>82.2</ele>
        <time>2021-05-29 17:31:58</time>
      </trkpt>
      <trkpt lat="43.21969" lon="-2.88754">
        <ele>82.2</ele>
        <time>2021-05-29 17:31:59</time>
      </trkpt>
      <trkpt lat="43.21962" lon="-2.88752">
        <ele>82.2</ele>
        <time>2021-05-29 17:32:00</time>
      </trkpt>
      <trkpt lat="43.21954" lon="-2.8875">
        <ele>82.2</ele>
        <time>2021-05-29 17:32:01</time>
      </trkpt>
      <trkpt lat="43.21947" lon="-2.88748">
        <ele>82.4</ele>
        <time>2021-05-29 17:32:02</time>
      </trkpt>
      <trkpt lat="43.2194" lon="-2.88746">
        <ele>82.4</ele>
        <time>2021-05-29 17:32:03</time>
      </trkpt>
      <trkpt lat="43.21932" lon="-2.88743">
        <ele>82.4</ele>
        <time>2021-05-29 17:32:04</time>
      </trkpt>
      <trkpt lat="43.21925" lon="-2.88741">
        <ele>82.4</ele>
        <time>2021-05-29 17:32:05</time>
      </trkpt>
      <trkpt lat="43.21918" lon="-2.88739">
        <ele>82.6</ele>
        <time>2021-05-29 17:32:06</time>
      </trkpt>
      <trkpt lat="43.21911" lon="-2.88737">
        <ele>82.6</ele>
        <time>2021-05-29 17:32:07</time>
      </trkpt>
      <trkpt lat="43.21904" lon="-2.88735">
        <ele>82.8</ele>
        <time>2021-05-29 17:32:08</time>
      </trkpt>
      <trkpt lat="43.21898" lon="-2.88733">
        <ele>82.8</ele>
        <time>2021-05-29 17:32:09</time>
      </trkpt>
      <trkpt lat="43.21891" lon="-2.88732">
        <ele>82.8</ele>
        <time>2021-05-29 17:32:10</time>
      </trkpt>
      <trkpt lat="43.21884" lon="-2.8873">
        <ele>82.8</ele>
        <time>2021-05-29 17:32:11</time>
      </trkpt>
      <trkpt lat="43.21878" lon="-2.88727">
        <ele>83.2</ele>
        <time>2021-05-29 17:32:12</time>
      </trkpt>
      <trkpt lat="43.21871" lon="-2.88725">
        <ele>83.4</ele>
        <time>2021-05-29 17:32:13</time>
      </trkpt>
      <trkpt lat="43.21865" lon="-2.88724">
        <ele>83.6</ele>
        <time>2021-05-29 17:32:14</time>
      </trkpt>
      <trkpt lat="43.21859" lon="-2.88722">
        <ele>83.6</ele>
        <time>2021-05-29 17:32:15</time>
      </trkpt>
      <trkpt lat="43.21853" lon="-2.8872">
        <ele>83.8</ele>
        <time>2021-05-29 17:32:16</time>
      </trkpt>
      <trkpt lat="43.21847" lon="-2.88718">
        <ele>84.2</ele>
        <time>2021-05-29 17:32:17</time>
      </trkpt>
      <trkpt lat="43.2184" lon="-2.88717">
        <ele>84.2</ele>
        <time>2021-05-29 17:32:18</time>
      </trkpt>
      <trkpt lat="43.21833" lon="-2.88717">
        <ele>84.4</ele>
        <time>2021-05-29 17:32:19</time>
      </trkpt>
      <trkpt lat="43.21826" lon="-2.88717">
        <ele>84.6</ele>
        <time>2021-05-29 17:32:20</time>
      </trkpt>
      <trkpt lat="43.21818" lon="-2.88718">
        <ele>84.6</ele>
        <time>2021-05-29 17:32:21</time>
      </trkpt>
      <trkpt lat="43.2181" lon="-2.8872">
        <ele>84.8</ele>
        <time>2021-05-29 17:32:22</time>
      </trkpt>
      <trkpt lat="43.21802" lon="-2.88722">
        <ele>84.8</ele>
        <time>2021-05-29 17:32:23</time>
      </trkpt>
      <trkpt lat="43.21794" lon="-2.88726">
        <ele>85</ele>
        <time>2021-05-29 17:32:24</time>
      </trkpt>
      <trkpt lat="43.21786" lon="-2.88729">
        <ele>85</ele>
        <time>2021-05-29 17:32:25</time>
      </trkpt>
      <trkpt lat="43.21778" lon="-2.88733">
        <ele>85</ele>
        <time>2021-05-29 17:32:26</time>
      </trkpt>
      <trkpt lat="43.2177" lon="-2.88738">
        <ele>85</ele>
        <time>2021-05-29 17:32:27</time>
      </trkpt>
      <trkpt lat="43.21761" lon="-2.88743">
        <ele>85</ele>
        <time>2021-05-29 17:32:28</time>
      </trkpt>
      <trkpt lat="43.21753" lon="-2.88748">
        <ele>85</ele>
        <time>2021-05-29 17:32:29</time>
      </trkpt>
      <trkpt lat="43.21745" lon="-2.88753">
        <ele>84.8</ele>
        <time>2021-05-29 17:32:30</time>
      </trkpt>
      <trkpt lat="43.21737" lon="-2.88758">
        <ele>84.8</ele>
        <time>2021-05-29 17:32:31</time>
      </trkpt>
      <trkpt lat="43.2173" lon="-2.88763">
        <ele>84.6</ele>
        <time>2021-05-29 17:32:32</time>
      </trkpt>
      <trkpt lat="43.21723" lon="-2.88768">
        <ele>84.6</ele>
        <time>2021-05-29 17:32:33</time>
      </trkpt>
      <trkpt lat="43.21716" lon="-2.88773">
        <ele>84.6</ele>
        <time>2021-05-29 17:32:34</time>
      </trkpt>
      <trkpt lat="43.21709" lon="-2.88777">
        <ele>84.6</ele>
        <time>2021-05-29 17:32:35</time>
      </trkpt>
      <trkpt lat="43.21703" lon="-2.88781">
        <ele>84.6</ele>
        <time>2021-05-29 17:32:36</time>
      </trkpt>
      <trkpt lat="43.21697" lon="-2.88785">
        <ele>84.6</ele>
        <time>2021-05-29 17:32:37</time>
      </trkpt>
      <trkpt lat="43.21692" lon="-2.88789">
        <ele>84.6</ele>
        <time>2021-05-29 17:32:38</time>
      </trkpt>
      <trkpt lat="43.21687" lon="-2.88794">
        <ele>84.6</ele>
        <time>2021-05-29 17:32:39</time>
      </trkpt>
      <trkpt lat="43.21681" lon="-2.88798">
        <ele>84.6</ele>
        <time>2021-05-29 17:32:40</time>
      </trkpt>
      <trkpt lat="43.21676" lon="-2.88802">
        <ele>84.6</ele>
        <time>2021-05-29 17:32:41</time>
      </trkpt>
      <trkpt lat="43.2167" lon="-2.88807">
        <ele>84.6</ele>
        <time>2021-05-29 17:32:42</time>
      </trkpt>
      <trkpt lat="43.21665" lon="-2.88811">
        <ele>84.8</ele>
        <time>2021-05-29 17:32:43</time>
      </trkpt>
      <trkpt lat="43.21659" lon="-2.88815">
        <ele>85.2</ele>
        <time>2021-05-29 17:32:44</time>
      </trkpt>
      <trkpt lat="43.21654" lon="-2.8882">
        <ele>85.4</ele>
        <time>2021-05-29 17:32:45</time>
      </trkpt>
      <trkpt lat="43.2165" lon="-2.88826">
        <ele>85.8</ele>
        <time>2021-05-29 17:32:46</time>
      </trkpt>
      <trkpt lat="43.21646" lon="-2.88832">
        <ele>86.2</ele>
        <time>2021-05-29 17:32:47</time>
      </trkpt>
      <trkpt lat="43.21641" lon="-2.88838">
        <ele>86.6</ele>
        <time>2021-05-29 17:32:48</time>
      </trkpt>
      <trkpt lat="43.21636" lon="-2.88844">
        <ele>87</ele>
        <time>2021-05-29 17:32:49</time>
      </trkpt>
      <trkpt lat="43.21631" lon="-2.88851">
        <ele>87.2</ele>
        <time>2021-05-29 17:32:50</time>
      </trkpt>
      <trkpt lat="43.21625" lon="-2.88857">
        <ele>87.6</ele>
        <time>2021-05-29 17:32:51</time>
      </trkpt>
      <trkpt lat="43.2162" lon="-2.88863">
        <ele>88</ele>
        <time>2021-05-29 17:32:52</time>
      </trkpt>
      <trkpt lat="43.21614" lon="-2.8887">
        <ele>88.2</ele>
        <time>2021-05-29 17:32:53</time>
      </trkpt>
      <trkpt lat="43.21608" lon="-2.88877">
        <ele>88.4</ele>
        <time>2021-05-29 17:32:54</time>
      </trkpt>
      <trkpt lat="43.21601" lon="-2.88885">
        <ele>88.6</ele>
        <time>2021-05-29 17:32:55</time>
      </trkpt>
      <trkpt lat="43.21594" lon="-2.88892">
        <ele>88.6</ele>
        <time>2021-05-29 17:32:56</time>
      </trkpt>
      <trkpt lat="43.21586" lon="-2.88899">
        <ele>88.6</ele>
        <time>2021-05-29 17:32:57</time>
      </trkpt>
      <trkpt lat="43.21577" lon="-2.88906">
        <ele>88.6</ele>
        <time>2021-05-29 17:32:58</time>
      </trkpt>
      <trkpt lat="43.21568" lon="-2.88913">
        <ele>88.6</ele>
        <time>2021-05-29 17:32:59</time>
      </trkpt>
      <trkpt lat="43.21559" lon="-2.8892">
        <ele>88.6</ele>
        <time>2021-05-29 17:33:00</time>
      </trkpt>
      <trkpt lat="43.21549" lon="-2.88926">
        <ele>88.6</ele>
        <time>2021-05-29 17:33:01</time>
      </trkpt>
      <trkpt lat="43.21538" lon="-2.88932">
        <ele>88.6</ele>
        <time>2021-05-29 17:33:02</time>
      </trkpt>
      <trkpt lat="43.21528" lon="-2.88937">
        <ele>88.4</ele>
        <time>2021-05-29 17:33:03</time>
      </trkpt>
      <trkpt lat="43.21516" lon="-2.88941">
        <ele>88</ele>
        <time>2021-05-29 17:33:04</time>
      </trkpt>
      <trkpt lat="43.21504" lon="-2.88944">
        <ele>87.4</ele>
        <time>2021-05-29 17:33:05</time>
      </trkpt>
      <trkpt lat="43.21492" lon="-2.88947">
        <ele>86.8</ele>
        <time>2021-05-29 17:33:06</time>
      </trkpt>
      <trkpt lat="43.2148" lon="-2.88948">
        <ele>86.4</ele>
        <time>2021-05-29 17:33:07</time>
      </trkpt>
      <trkpt lat="43.21468" lon="-2.88948">
        <ele>85.8</ele>
        <time>2021-05-29 17:33:08</time>
      </trkpt>
      <trkpt lat="43.21456" lon="-2.88948">
        <ele>85</ele>
        <time>2021-05-29 17:33:09</time>
      </trkpt>
      <trkpt lat="43.21445" lon="-2.88947">
        <ele>84.2</ele>
        <time>2021-05-29 17:33:10</time>
      </trkpt>
      <trkpt lat="43.21433" lon="-2.88945">
        <ele>83.8</ele>
        <time>2021-05-29 17:33:11</time>
      </trkpt>
      <trkpt lat="43.21421" lon="-2.88943">
        <ele>83</ele>
        <time>2021-05-29 17:33:12</time>
      </trkpt>
      <trkpt lat="43.21409" lon="-2.8894">
        <ele>82.4</ele>
        <time>2021-05-29 17:33:13</time>
      </trkpt>
      <trkpt lat="43.21398" lon="-2.88936">
        <ele>81.4</ele>
        <time>2021-05-29 17:33:14</time>
      </trkpt>
      <trkpt lat="43.21386" lon="-2.88932">
        <ele>80.4</ele>
        <time>2021-05-29 17:33:15</time>
      </trkpt>
      <trkpt lat="43.21375" lon="-2.88928">
        <ele>79.6</ele>
        <time>2021-05-29 17:33:16</time>
      </trkpt>
      <trkpt lat="43.21363" lon="-2.88926">
        <ele>79.2</ele>
        <time>2021-05-29 17:33:17</time>
      </trkpt>
      <trkpt lat="43.21351" lon="-2.88924">
        <ele>78.2</ele>
        <time>2021-05-29 17:33:18</time>
      </trkpt>
      <trkpt lat="43.2134" lon="-2.88923">
        <ele>77.2</ele>
        <time>2021-05-29 17:33:19</time>
      </trkpt>
      <trkpt lat="43.2133" lon="-2.88923">
        <ele>76.4</ele>
        <time>2021-05-29 17:33:20</time>
      </trkpt>
      <trkpt lat="43.21319" lon="-2.88923">
        <ele>75.8</ele>
        <time>2021-05-29 17:33:21</time>
      </trkpt>
      <trkpt lat="43.21308" lon="-2.88924">
        <ele>74.8</ele>
        <time>2021-05-29 17:33:22</time>
      </trkpt>
      <trkpt lat="43.21297" lon="-2.88923">
        <ele>73.8</ele>
        <time>2021-05-29 17:33:23</time>
      </trkpt>
      <trkpt lat="43.21287" lon="-2.88922">
        <ele>72.8</ele>
        <time>2021-05-29 17:33:24</time>
      </trkpt>
      <trkpt lat="43.21277" lon="-2.8892">
        <ele>71.8</ele>
        <time>2021-05-29 17:33:25</time>
      </trkpt>
      <trkpt lat="43.21268" lon="-2.88917">
        <ele>71</ele>
        <time>2021-05-29 17:33:26</time>
      </trkpt>
      <trkpt lat="43.21261" lon="-2.88914">
        <ele>69.8</ele>
        <time>2021-05-29 17:33:27</time>
      </trkpt>
      <trkpt lat="43.21254" lon="-2.88913">
        <ele>69.2</ele>
        <time>2021-05-29 17:33:28</time>
      </trkpt>
      <trkpt lat="43.21248" lon="-2.88912">
        <ele>68.8</ele>
        <time>2021-05-29 17:33:29</time>
      </trkpt>
      <trkpt lat="43.21243" lon="-2.88912">
        <ele>68.2</ele>
        <time>2021-05-29 17:33:30</time>
      </trkpt>
      <trkpt lat="43.21238" lon="-2.88912">
        <ele>67.8</ele>
        <time>2021-05-29 17:33:31</time>
      </trkpt>
      <trkpt lat="43.21234" lon="-2.88912">
        <ele>67.4</ele>
        <time>2021-05-29 17:33:32</time>
      </trkpt>
      <trkpt lat="43.2123" lon="-2.88912">
        <ele>66</ele>
        <time>2021-05-29 17:33:33</time>
      </trkpt>
      <trkpt lat="43.21227" lon="-2.88913">
        <ele>65.2</ele>
        <time>2021-05-29 17:33:34</time>
      </trkpt>
      <trkpt lat="43.21225" lon="-2.88913">
        <ele>64.6</ele>
        <time>2021-05-29 17:33:35</time>
      </trkpt>
      <trkpt lat="43.21224" lon="-2.88913">
        <ele>64</ele>
        <time>2021-05-29 17:33:36</time>
      </trkpt>
      <trkpt lat="43.21223" lon="-2.88913">
        <ele>63.4</ele>
        <time>2021-05-29 17:33:37</time>
      </trkpt>
      <trkpt lat="43.21223" lon="-2.88912">
        <ele>62.8</ele>
        <time>2021-05-29 17:33:38</time>
      </trkpt>
      <trkpt lat="43.21223" lon="-2.88912">
        <ele>62.2</ele>
        <time>2021-05-29 17:33:39</time>
      </trkpt>
      <trkpt lat="43.21215" lon="-2.88913">
        <ele>59.2</ele>
        <time>2021-05-29 17:33:47</time>
      </trkpt>
      <trkpt lat="43.2121" lon="-2.88915">
        <ele>59</ele>
        <time>2021-05-29 17:33:48</time>
      </trkpt>
      <trkpt lat="43.21206" lon="-2.88917">
        <ele>59</ele>
        <time>2021-05-29 17:33:49</time>
      </trkpt>
      <trkpt lat="43.21202" lon="-2.8892">
        <ele>58.8</ele>
        <time>2021-05-29 17:33:50</time>
      </trkpt>
      <trkpt lat="43.21198" lon="-2.88923">
        <ele>58.8</ele>
        <time>2021-05-29 17:33:51</time>
      </trkpt>
      <trkpt lat="43.21195" lon="-2.88926">
        <ele>58.6</ele>
        <time>2021-05-29 17:33:52</time>
      </trkpt>
      <trkpt lat="43.21191" lon="-2.88929">
        <ele>58.4</ele>
        <time>2021-05-29 17:33:53</time>
      </trkpt>
      <trkpt lat="43.21187" lon="-2.88929">
        <ele>58.2</ele>
        <time>2021-05-29 17:33:54</time>
      </trkpt>
      <trkpt lat="43.21183" lon="-2.8893">
        <ele>58</ele>
        <time>2021-05-29 17:33:55</time>
      </trkpt>
      <trkpt lat="43.2118" lon="-2.88931">
        <ele>58</ele>
        <time>2021-05-29 17:33:56</time>
      </trkpt>
      <trkpt lat="43.21176" lon="-2.88931">
        <ele>57.8</ele>
        <time>2021-05-29 17:33:57</time>
      </trkpt>
      <trkpt lat="43.21173" lon="-2.88928">
        <ele>57.8</ele>
        <time>2021-05-29 17:33:58</time>
      </trkpt>
      <trkpt lat="43.21171" lon="-2.88925">
        <ele>57.8</ele>
        <time>2021-05-29 17:33:59</time>
      </trkpt>
      <trkpt lat="43.21169" lon="-2.88922">
        <ele>57.8</ele>
        <time>2021-05-29 17:34:00</time>
      </trkpt>
      <trkpt lat="43.21168" lon="-2.88919">
        <ele>57.8</ele>
        <time>2021-05-29 17:34:01</time>
      </trkpt>
      <trkpt lat="43.21166" lon="-2.88919">
        <ele>57.8</ele>
        <time>2021-05-29 17:34:02</time>
      </trkpt>
      <trkpt lat="43.21165" lon="-2.88919">
        <ele>57.8</ele>
        <time>2021-05-29 17:34:03</time>
      </trkpt>
      <trkpt lat="43.21163" lon="-2.8892">
        <ele>57.8</ele>
        <time>2021-05-29 17:34:04</time>
      </trkpt>
      <trkpt lat="43.21162" lon="-2.8892">
        <ele>57.6</ele>
        <time>2021-05-29 17:34:05</time>
      </trkpt>
      <trkpt lat="43.2116" lon="-2.8892">
        <ele>57.4</ele>
        <time>2021-05-29 17:34:06</time>
      </trkpt>
      <trkpt lat="43.21158" lon="-2.8892">
        <ele>56.8</ele>
        <time>2021-05-29 17:34:07</time>
      </trkpt>
      <trkpt lat="43.21156" lon="-2.88921">
        <ele>56.6</ele>
        <time>2021-05-29 17:34:08</time>
      </trkpt>
      <trkpt lat="43.21154" lon="-2.88922">
        <ele>56.4</ele>
        <time>2021-05-29 17:34:09</time>
      </trkpt>
      <trkpt lat="43.21153" lon="-2.88922">
        <ele>56.4</ele>
        <time>2021-05-29 17:34:10</time>
      </trkpt>
      <trkpt lat="43.21151" lon="-2.88921">
        <ele>56.4</ele>
        <time>2021-05-29 17:34:11</time>
      </trkpt>
      <trkpt lat="43.21149" lon="-2.88921">
        <ele>56.4</ele>
        <time>2021-05-29 17:34:12</time>
      </trkpt>
      <trkpt lat="43.21147" lon="-2.88921">
        <ele>56.4</ele>
        <time>2021-05-29 17:34:13</time>
      </trkpt>
      <trkpt lat="43.21145" lon="-2.88921">
        <ele>56.4</ele>
        <time>2021-05-29 17:34:14</time>
      </trkpt>
      <trkpt lat="43.21143" lon="-2.88921">
        <ele>56.4</ele>
        <time>2021-05-29 17:34:15</time>
      </trkpt>
      <trkpt lat="43.21141" lon="-2.88921">
        <ele>56.4</ele>
        <time>2021-05-29 17:34:16</time>
      </trkpt>
      <trkpt lat="43.21139" lon="-2.88921">
        <ele>56.6</ele>
        <time>2021-05-29 17:34:17</time>
      </trkpt>
      <trkpt lat="43.21137" lon="-2.88922">
        <ele>56.6</ele>
        <time>2021-05-29 17:34:18</time>
      </trkpt>
      <trkpt lat="43.21135" lon="-2.88922">
        <ele>56.8</ele>
        <time>2021-05-29 17:34:19</time>
      </trkpt>
      <trkpt lat="43.21132" lon="-2.88921">
        <ele>56.8</ele>
        <time>2021-05-29 17:34:20</time>
      </trkpt>
      <trkpt lat="43.2113" lon="-2.88921">
        <ele>57</ele>
        <time>2021-05-29 17:34:21</time>
      </trkpt>
      <trkpt lat="43.21128" lon="-2.88922">
        <ele>57</ele>
        <time>2021-05-29 17:34:22</time>
      </trkpt>
      <trkpt lat="43.21126" lon="-2.88922">
        <ele>57.2</ele>
        <time>2021-05-29 17:34:23</time>
      </trkpt>
      <trkpt lat="43.21124" lon="-2.88923">
        <ele>57.2</ele>
        <time>2021-05-29 17:34:24</time>
      </trkpt>
      <trkpt lat="43.21123" lon="-2.88923">
        <ele>57.4</ele>
        <time>2021-05-29 17:34:25</time>
      </trkpt>
      <trkpt lat="43.21121" lon="-2.88923">
        <ele>57.6</ele>
        <time>2021-05-29 17:34:26</time>
      </trkpt>
      <trkpt lat="43.21119" lon="-2.88924">
        <ele>57.6</ele>
        <time>2021-05-29 17:34:27</time>
      </trkpt>
      <trkpt lat="43.21116" lon="-2.88924">
        <ele>57.8</ele>
        <time>2021-05-29 17:34:28</time>
      </trkpt>
      <trkpt lat="43.21114" lon="-2.88923">
        <ele>58</ele>
        <time>2021-05-29 17:34:29</time>
      </trkpt>
      <trkpt lat="43.21111" lon="-2.88922">
        <ele>58.4</ele>
        <time>2021-05-29 17:34:30</time>
      </trkpt>
      <trkpt lat="43.21109" lon="-2.88922">
        <ele>58.6</ele>
        <time>2021-05-29 17:34:31</time>
      </trkpt>
      <trkpt lat="43.21106" lon="-2.88922">
        <ele>58.8</ele>
        <time>2021-05-29 17:34:32</time>
      </trkpt>
      <trkpt lat="43.21103" lon="-2.88923">
        <ele>58.8</ele>
        <time>2021-05-29 17:34:33</time>
      </trkpt>
      <trkpt lat="43.21099" lon="-2.88923">
        <ele>59</ele>
        <time>2021-05-29 17:34:34</time>
      </trkpt>
      <trkpt lat="43.21095" lon="-2.88923">
        <ele>59</ele>
        <time>2021-05-29 17:34:35</time>
      </trkpt>
      <trkpt lat="43.2109" lon="-2.88923">
        <ele>59.2</ele>
        <time>2021-05-29 17:34:36</time>
      </trkpt>
      <trkpt lat="43.21086" lon="-2.88923">
        <ele>59.2</ele>
        <time>2021-05-29 17:34:37</time>
      </trkpt>
      <trkpt lat="43.21082" lon="-2.88923">
        <ele>59.4</ele>
        <time>2021-05-29 17:34:38</time>
      </trkpt>
      <trkpt lat="43.21077" lon="-2.88923">
        <ele>59.4</ele>
        <time>2021-05-29 17:34:39</time>
      </trkpt>
      <trkpt lat="43.21073" lon="-2.88923">
        <ele>59.4</ele>
        <time>2021-05-29 17:34:40</time>
      </trkpt>
      <trkpt lat="43.21068" lon="-2.88922">
        <ele>59.6</ele>
        <time>2021-05-29 17:34:41</time>
      </trkpt>
      <trkpt lat="43.21063" lon="-2.88922">
        <ele>59.8</ele>
        <time>2021-05-29 17:34:42</time>
      </trkpt>
      <trkpt lat="43.21058" lon="-2.88921">
        <ele>60</ele>
        <time>2021-05-29 17:34:43</time>
      </trkpt>
      <trkpt lat="43.21053" lon="-2.88921">
        <ele>60.2</ele>
        <time>2021-05-29 17:34:44</time>
      </trkpt>
      <trkpt lat="43.21049" lon="-2.88921">
        <ele>60.2</ele>
        <time>2021-05-29 17:34:45</time>
      </trkpt>
      <trkpt lat="43.21044" lon="-2.8892">
        <ele>60.4</ele>
        <time>2021-05-29 17:34:46</time>
      </trkpt>
      <trkpt lat="43.21039" lon="-2.8892">
        <ele>60.6</ele>
        <time>2021-05-29 17:34:47</time>
      </trkpt>
      <trkpt lat="43.21033" lon="-2.88919">
        <ele>60.8</ele>
        <time>2021-05-29 17:34:48</time>
      </trkpt>
      <trkpt lat="43.21028" lon="-2.88919">
        <ele>60.8</ele>
        <time>2021-05-29 17:34:49</time>
      </trkpt>
      <trkpt lat="43.21023" lon="-2.88918">
        <ele>60.8</ele>
        <time>2021-05-29 17:34:50</time>
      </trkpt>
      <trkpt lat="43.21018" lon="-2.88917">
        <ele>61</ele>
        <time>2021-05-29 17:34:51</time>
      </trkpt>
      <trkpt lat="43.21012" lon="-2.88916">
        <ele>61.2</ele>
        <time>2021-05-29 17:34:52</time>
      </trkpt>
      <trkpt lat="43.21007" lon="-2.88916">
        <ele>61.2</ele>
        <time>2021-05-29 17:34:53</time>
      </trkpt>
      <trkpt lat="43.21001" lon="-2.88915">
        <ele>61.4</ele>
        <time>2021-05-29 17:34:54</time>
      </trkpt>
      <trkpt lat="43.20995" lon="-2.88914">
        <ele>61.4</ele>
        <time>2021-05-29 17:34:55</time>
      </trkpt>
      <trkpt lat="43.20989" lon="-2.88913">
        <ele>61.6</ele>
        <time>2021-05-29 17:34:56</time>
      </trkpt>
      <trkpt lat="43.20983" lon="-2.88913">
        <ele>61.6</ele>
        <time>2021-05-29 17:34:57</time>
      </trkpt>
      <trkpt lat="43.20977" lon="-2.88913">
        <ele>61.8</ele>
        <time>2021-05-29 17:34:58</time>
      </trkpt>
      <trkpt lat="43.20971" lon="-2.88912">
        <ele>61.8</ele>
        <time>2021-05-29 17:34:59</time>
      </trkpt>
      <trkpt lat="43.20965" lon="-2.88911">
        <ele>61.8</ele>
        <time>2021-05-29 17:35:00</time>
      </trkpt>
      <trkpt lat="43.20959" lon="-2.88911">
        <ele>61.8</ele>
        <time>2021-05-29 17:35:01</time>
      </trkpt>
      <trkpt lat="43.20953" lon="-2.8891">
        <ele>61.8</ele>
        <time>2021-05-29 17:35:02</time>
      </trkpt>
      <trkpt lat="43.20947" lon="-2.8891">
        <ele>62</ele>
        <time>2021-05-29 17:35:03</time>
      </trkpt>
      <trkpt lat="43.20941" lon="-2.88909">
        <ele>62</ele>
        <time>2021-05-29 17:35:04</time>
      </trkpt>
      <trkpt lat="43.20935" lon="-2.88909">
        <ele>62</ele>
        <time>2021-05-29 17:35:05</time>
      </trkpt>
      <trkpt lat="43.20929" lon="-2.88909">
        <ele>62</ele>
        <time>2021-05-29 17:35:06</time>
      </trkpt>
      <trkpt lat="43.20922" lon="-2.88908">
        <ele>62.2</ele>
        <time>2021-05-29 17:35:07</time>
      </trkpt>
      <trkpt lat="43.20916" lon="-2.88908">
        <ele>62.2</ele>
        <time>2021-05-29 17:35:08</time>
      </trkpt>
      <trkpt lat="43.20909" lon="-2.88908">
        <ele>62.2</ele>
        <time>2021-05-29 17:35:09</time>
      </trkpt>
      <trkpt lat="43.20902" lon="-2.88907">
        <ele>62.2</ele>
        <time>2021-05-29 17:35:10</time>
      </trkpt>
      <trkpt lat="43.20895" lon="-2.88907">
        <ele>62.2</ele>
        <time>2021-05-29 17:35:11</time>
      </trkpt>
      <trkpt lat="43.20887" lon="-2.88907">
        <ele>62.4</ele>
        <time>2021-05-29 17:35:12</time>
      </trkpt>
      <trkpt lat="43.2088" lon="-2.88907">
        <ele>62.4</ele>
        <time>2021-05-29 17:35:13</time>
      </trkpt>
      <trkpt lat="43.20872" lon="-2.88907">
        <ele>62.4</ele>
        <time>2021-05-29 17:35:14</time>
      </trkpt>
      <trkpt lat="43.20864" lon="-2.88906">
        <ele>62.6</ele>
        <time>2021-05-29 17:35:15</time>
      </trkpt>
      <trkpt lat="43.20856" lon="-2.88906">
        <ele>62.6</ele>
        <time>2021-05-29 17:35:16</time>
      </trkpt>
      <trkpt lat="43.20848" lon="-2.88905">
        <ele>62.6</ele>
        <time>2021-05-29 17:35:17</time>
      </trkpt>
      <trkpt lat="43.20839" lon="-2.88905">
        <ele>62.6</ele>
        <time>2021-05-29 17:35:18</time>
      </trkpt>
      <trkpt lat="43.20831" lon="-2.88904">
        <ele>62.8</ele>
        <time>2021-05-29 17:35:19</time>
      </trkpt>
      <trkpt lat="43.20823" lon="-2.88904">
        <ele>62.8</ele>
        <time>2021-05-29 17:35:20</time>
      </trkpt>
      <trkpt lat="43.20815" lon="-2.88903">
        <ele>62.8</ele>
        <time>2021-05-29 17:35:21</time>
      </trkpt>
      <trkpt lat="43.20807" lon="-2.88901">
        <ele>62.8</ele>
        <time>2021-05-29 17:35:22</time>
      </trkpt>
      <trkpt lat="43.20799" lon="-2.88901">
        <ele>62.8</ele>
        <time>2021-05-29 17:35:23</time>
      </trkpt>
      <trkpt lat="43.20791" lon="-2.889">
        <ele>62.8</ele>
        <time>2021-05-29 17:35:24</time>
      </trkpt>
      <trkpt lat="43.20782" lon="-2.88899">
        <ele>62.8</ele>
        <time>2021-05-29 17:35:25</time>
      </trkpt>
      <trkpt lat="43.20774" lon="-2.88899">
        <ele>63</ele>
        <time>2021-05-29 17:35:26</time>
      </trkpt>
      <trkpt lat="43.20767" lon="-2.88898">
        <ele>63</ele>
        <time>2021-05-29 17:35:27</time>
      </trkpt>
      <trkpt lat="43.20759" lon="-2.88897">
        <ele>63</ele>
        <time>2021-05-29 17:35:28</time>
      </trkpt>
      <trkpt lat="43.20751" lon="-2.88896">
        <ele>63</ele>
        <time>2021-05-29 17:35:29</time>
      </trkpt>
      <trkpt lat="43.20743" lon="-2.88894">
        <ele>63</ele>
        <time>2021-05-29 17:35:30</time>
      </trkpt>
      <trkpt lat="43.20735" lon="-2.88893">
        <ele>63</ele>
        <time>2021-05-29 17:35:31</time>
      </trkpt>
      <trkpt lat="43.20726" lon="-2.88891">
        <ele>63.2</ele>
        <time>2021-05-29 17:35:32</time>
      </trkpt>
      <trkpt lat="43.20718" lon="-2.8889">
        <ele>63.2</ele>
        <time>2021-05-29 17:35:33</time>
      </trkpt>
      <trkpt lat="43.20709" lon="-2.88888">
        <ele>63.2</ele>
        <time>2021-05-29 17:35:34</time>
      </trkpt>
      <trkpt lat="43.20701" lon="-2.88889">
        <ele>63.2</ele>
        <time>2021-05-29 17:35:35</time>
      </trkpt>
      <trkpt lat="43.20692" lon="-2.8889">
        <ele>63.2</ele>
        <time>2021-05-29 17:35:36</time>
      </trkpt>
      <trkpt lat="43.20684" lon="-2.88892">
        <ele>63.2</ele>
        <time>2021-05-29 17:35:37</time>
      </trkpt>
      <trkpt lat="43.20677" lon="-2.88894">
        <ele>63.2</ele>
        <time>2021-05-29 17:35:38</time>
      </trkpt>
      <trkpt lat="43.2067" lon="-2.88896">
        <ele>63</ele>
        <time>2021-05-29 17:35:39</time>
      </trkpt>
      <trkpt lat="43.20662" lon="-2.889">
        <ele>63</ele>
        <time>2021-05-29 17:35:40</time>
      </trkpt>
      <trkpt lat="43.20655" lon="-2.88904">
        <ele>63</ele>
        <time>2021-05-29 17:35:41</time>
      </trkpt>
      <trkpt lat="43.20647" lon="-2.8891">
        <ele>63</ele>
        <time>2021-05-29 17:35:42</time>
      </trkpt>
      <trkpt lat="43.2064" lon="-2.88916">
        <ele>63</ele>
        <time>2021-05-29 17:35:43</time>
      </trkpt>
      <trkpt lat="43.20633" lon="-2.88923">
        <ele>63</ele>
        <time>2021-05-29 17:35:44</time>
      </trkpt>
      <trkpt lat="43.20625" lon="-2.8893">
        <ele>63</ele>
        <time>2021-05-29 17:35:45</time>
      </trkpt>
      <trkpt lat="43.20617" lon="-2.88937">
        <ele>63</ele>
        <time>2021-05-29 17:35:46</time>
      </trkpt>
      <trkpt lat="43.2061" lon="-2.88945">
        <ele>62.8</ele>
        <time>2021-05-29 17:35:47</time>
      </trkpt>
      <trkpt lat="43.20603" lon="-2.88953">
        <ele>62.6</ele>
        <time>2021-05-29 17:35:48</time>
      </trkpt>
      <trkpt lat="43.20595" lon="-2.88961">
        <ele>62.4</ele>
        <time>2021-05-29 17:35:49</time>
      </trkpt>
      <trkpt lat="43.20587" lon="-2.88968">
        <ele>62.2</ele>
        <time>2021-05-29 17:35:50</time>
      </trkpt>
      <trkpt lat="43.20579" lon="-2.88973">
        <ele>61.6</ele>
        <time>2021-05-29 17:35:51</time>
      </trkpt>
      <trkpt lat="43.2057" lon="-2.88976">
        <ele>61.2</ele>
        <time>2021-05-29 17:35:52</time>
      </trkpt>
      <trkpt lat="43.20561" lon="-2.88978">
        <ele>60.8</ele>
        <time>2021-05-29 17:35:53</time>
      </trkpt>
      <trkpt lat="43.20554" lon="-2.88981">
        <ele>60.6</ele>
        <time>2021-05-29 17:35:54</time>
      </trkpt>
      <trkpt lat="43.20546" lon="-2.88979">
        <ele>60.4</ele>
        <time>2021-05-29 17:35:55</time>
      </trkpt>
      <trkpt lat="43.2054" lon="-2.88977">
        <ele>59.8</ele>
        <time>2021-05-29 17:35:56</time>
      </trkpt>
      <trkpt lat="43.20535" lon="-2.88976">
        <ele>59.4</ele>
        <time>2021-05-29 17:35:57</time>
      </trkpt>
      <trkpt lat="43.2053" lon="-2.88974">
        <ele>59</ele>
        <time>2021-05-29 17:35:58</time>
      </trkpt>
      <trkpt lat="43.20525" lon="-2.88971">
        <ele>58.8</ele>
        <time>2021-05-29 17:35:59</time>
      </trkpt>
      <trkpt lat="43.2052" lon="-2.8897">
        <ele>58.4</ele>
        <time>2021-05-29 17:36:00</time>
      </trkpt>
      <trkpt lat="43.20517" lon="-2.8897">
        <ele>58.2</ele>
        <time>2021-05-29 17:36:01</time>
      </trkpt>
      <trkpt lat="43.20513" lon="-2.88971">
        <ele>58.2</ele>
        <time>2021-05-29 17:36:02</time>
      </trkpt>
      <trkpt lat="43.2051" lon="-2.88974">
        <ele>58</ele>
        <time>2021-05-29 17:36:03</time>
      </trkpt>
      <trkpt lat="43.20506" lon="-2.88978">
        <ele>58</ele>
        <time>2021-05-29 17:36:04</time>
      </trkpt>
      <trkpt lat="43.20501" lon="-2.88984">
        <ele>57.8</ele>
        <time>2021-05-29 17:36:05</time>
      </trkpt>
      <trkpt lat="43.20497" lon="-2.8899">
        <ele>57.8</ele>
        <time>2021-05-29 17:36:06</time>
      </trkpt>
      <trkpt lat="43.20494" lon="-2.88999">
        <ele>57.6</ele>
        <time>2021-05-29 17:36:07</time>
      </trkpt>
      <trkpt lat="43.20492" lon="-2.89009">
        <ele>57.6</ele>
        <time>2021-05-29 17:36:08</time>
      </trkpt>
      <trkpt lat="43.2049" lon="-2.8902">
        <ele>57.6</ele>
        <time>2021-05-29 17:36:09</time>
      </trkpt>
      <trkpt lat="43.20488" lon="-2.89032">
        <ele>57.6</ele>
        <time>2021-05-29 17:36:10</time>
      </trkpt>
      <trkpt lat="43.20487" lon="-2.89043">
        <ele>57.4</ele>
        <time>2021-05-29 17:36:11</time>
      </trkpt>
      <trkpt lat="43.20485" lon="-2.89055">
        <ele>57.4</ele>
        <time>2021-05-29 17:36:12</time>
      </trkpt>
      <trkpt lat="43.20483" lon="-2.89066">
        <ele>57.4</ele>
        <time>2021-05-29 17:36:13</time>
      </trkpt>
      <trkpt lat="43.20481" lon="-2.89077">
        <ele>57.4</ele>
        <time>2021-05-29 17:36:14</time>
      </trkpt>
      <trkpt lat="43.20479" lon="-2.89089">
        <ele>57.4</ele>
        <time>2021-05-29 17:36:15</time>
      </trkpt>
      <trkpt lat="43.20478" lon="-2.891">
        <ele>57.4</ele>
        <time>2021-05-29 17:36:16</time>
      </trkpt>
      <trkpt lat="43.20476" lon="-2.89112">
        <ele>57.4</ele>
        <time>2021-05-29 17:36:17</time>
      </trkpt>
      <trkpt lat="43.20473" lon="-2.89124">
        <ele>57.4</ele>
        <time>2021-05-29 17:36:18</time>
      </trkpt>
      <trkpt lat="43.2047" lon="-2.89136">
        <ele>57.4</ele>
        <time>2021-05-29 17:36:19</time>
      </trkpt>
      <trkpt lat="43.20467" lon="-2.89148">
        <ele>57.4</ele>
        <time>2021-05-29 17:36:20</time>
      </trkpt>
      <trkpt lat="43.20465" lon="-2.89161">
        <ele>57.4</ele>
        <time>2021-05-29 17:36:21</time>
      </trkpt>
      <trkpt lat="43.20463" lon="-2.89173">
        <ele>57.4</ele>
        <time>2021-05-29 17:36:22</time>
      </trkpt>
      <trkpt lat="43.20461" lon="-2.89185">
        <ele>57.4</ele>
        <time>2021-05-29 17:36:23</time>
      </trkpt>
      <trkpt lat="43.20459" lon="-2.89197">
        <ele>57.4</ele>
        <time>2021-05-29 17:36:24</time>
      </trkpt>
      <trkpt lat="43.20457" lon="-2.89208">
        <ele>57.6</ele>
        <time>2021-05-29 17:36:25</time>
      </trkpt>
      <trkpt lat="43.20455" lon="-2.8922">
        <ele>57.6</ele>
        <time>2021-05-29 17:36:26</time>
      </trkpt>
      <trkpt lat="43.20452" lon="-2.89231">
        <ele>57.8</ele>
        <time>2021-05-29 17:36:27</time>
      </trkpt>
      <trkpt lat="43.2045" lon="-2.89243">
        <ele>57.8</ele>
        <time>2021-05-29 17:36:28</time>
      </trkpt>
      <trkpt lat="43.20448" lon="-2.89254">
        <ele>57.8</ele>
        <time>2021-05-29 17:36:29</time>
      </trkpt>
      <trkpt lat="43.20446" lon="-2.89265">
        <ele>57.8</ele>
        <time>2021-05-29 17:36:30</time>
      </trkpt>
      <trkpt lat="43.20444" lon="-2.89276">
        <ele>57.8</ele>
        <time>2021-05-29 17:36:31</time>
      </trkpt>
      <trkpt lat="43.20442" lon="-2.89286">
        <ele>58</ele>
        <time>2021-05-29 17:36:32</time>
      </trkpt>
      <trkpt lat="43.20439" lon="-2.89296">
        <ele>58.2</ele>
        <time>2021-05-29 17:36:33</time>
      </trkpt>
      <trkpt lat="43.20435" lon="-2.89306">
        <ele>58.4</ele>
        <time>2021-05-29 17:36:34</time>
      </trkpt>
      <trkpt lat="43.20432" lon="-2.89315">
        <ele>58.4</ele>
        <time>2021-05-29 17:36:35</time>
      </trkpt>
      <trkpt lat="43.2043" lon="-2.89324">
        <ele>58.6</ele>
        <time>2021-05-29 17:36:36</time>
      </trkpt>
      <trkpt lat="43.20426" lon="-2.89334">
        <ele>58.6</ele>
        <time>2021-05-29 17:36:37</time>
      </trkpt>
      <trkpt lat="43.20422" lon="-2.89344">
        <ele>59</ele>
        <time>2021-05-29 17:36:38</time>
      </trkpt>
      <trkpt lat="43.20418" lon="-2.89354">
        <ele>59</ele>
        <time>2021-05-29 17:36:39</time>
      </trkpt>
      <trkpt lat="43.20414" lon="-2.89364">
        <ele>59.2</ele>
        <time>2021-05-29 17:36:40</time>
      </trkpt>
      <trkpt lat="43.20409" lon="-2.89374">
        <ele>59.2</ele>
        <time>2021-05-29 17:36:41</time>
      </trkpt>
      <trkpt lat="43.20405" lon="-2.89385">
        <ele>59.4</ele>
        <time>2021-05-29 17:36:42</time>
      </trkpt>
      <trkpt lat="43.20401" lon="-2.89395">
        <ele>59.4</ele>
        <time>2021-05-29 17:36:43</time>
      </trkpt>
      <trkpt lat="43.20396" lon="-2.89406">
        <ele>59.4</ele>
        <time>2021-05-29 17:36:44</time>
      </trkpt>
      <trkpt lat="43.20392" lon="-2.89417">
        <ele>59.6</ele>
        <time>2021-05-29 17:36:45</time>
      </trkpt>
      <trkpt lat="43.20388" lon="-2.89428">
        <ele>59.6</ele>
        <time>2021-05-29 17:36:46</time>
      </trkpt>
      <trkpt lat="43.20385" lon="-2.8944">
        <ele>59.6</ele>
        <time>2021-05-29 17:36:47</time>
      </trkpt>
      <trkpt lat="43.20381" lon="-2.89452">
        <ele>59.6</ele>
        <time>2021-05-29 17:36:48</time>
      </trkpt>
      <trkpt lat="43.20379" lon="-2.89464">
        <ele>59.6</ele>
        <time>2021-05-29 17:36:49</time>
      </trkpt>
      <trkpt lat="43.20376" lon="-2.89476">
        <ele>59.6</ele>
        <time>2021-05-29 17:36:50</time>
      </trkpt>
      <trkpt lat="43.20374" lon="-2.89489">
        <ele>59.6</ele>
        <time>2021-05-29 17:36:51</time>
      </trkpt>
      <trkpt lat="43.20372" lon="-2.89502">
        <ele>59.6</ele>
        <time>2021-05-29 17:36:52</time>
      </trkpt>
      <trkpt lat="43.20371" lon="-2.89515">
        <ele>59.6</ele>
        <time>2021-05-29 17:36:53</time>
      </trkpt>
      <trkpt lat="43.2037" lon="-2.89528">
        <ele>59.6</ele>
        <time>2021-05-29 17:36:54</time>
      </trkpt>
      <trkpt lat="43.20369" lon="-2.89541">
        <ele>59.6</ele>
        <time>2021-05-29 17:36:55</time>
      </trkpt>
      <trkpt lat="43.20367" lon="-2.89554">
        <ele>59.4</ele>
        <time>2021-05-29 17:36:56</time>
      </trkpt>
      <trkpt lat="43.20364" lon="-2.89567">
        <ele>59.2</ele>
        <time>2021-05-29 17:36:57</time>
      </trkpt>
      <trkpt lat="43.20359" lon="-2.89579">
        <ele>58.8</ele>
        <time>2021-05-29 17:36:58</time>
      </trkpt>
      <trkpt lat="43.20355" lon="-2.89591">
        <ele>58.8</ele>
        <time>2021-05-29 17:36:59</time>
      </trkpt>
      <trkpt lat="43.20351" lon="-2.89603">
        <ele>58.6</ele>
        <time>2021-05-29 17:37:00</time>
      </trkpt>
      <trkpt lat="43.20347" lon="-2.89615">
        <ele>58.6</ele>
        <time>2021-05-29 17:37:01</time>
      </trkpt>
      <trkpt lat="43.20344" lon="-2.89626">
        <ele>58.6</ele>
        <time>2021-05-29 17:37:02</time>
      </trkpt>
      <trkpt lat="43.20341" lon="-2.89636">
        <ele>58.6</ele>
        <time>2021-05-29 17:37:03</time>
      </trkpt>
      <trkpt lat="43.20338" lon="-2.89645">
        <ele>58.6</ele>
        <time>2021-05-29 17:37:04</time>
      </trkpt>
      <trkpt lat="43.20335" lon="-2.89653">
        <ele>58.6</ele>
        <time>2021-05-29 17:37:05</time>
      </trkpt>
      <trkpt lat="43.20331" lon="-2.89661">
        <ele>58.6</ele>
        <time>2021-05-29 17:37:06</time>
      </trkpt>
      <trkpt lat="43.20327" lon="-2.89668">
        <ele>58.6</ele>
        <time>2021-05-29 17:37:07</time>
      </trkpt>
      <trkpt lat="43.20322" lon="-2.89674">
        <ele>58.8</ele>
        <time>2021-05-29 17:37:08</time>
      </trkpt>
      <trkpt lat="43.20318" lon="-2.89678">
        <ele>59.2</ele>
        <time>2021-05-29 17:37:09</time>
      </trkpt>
      <trkpt lat="43.20312" lon="-2.89683">
        <ele>59.6</ele>
        <time>2021-05-29 17:37:10</time>
      </trkpt>
      <trkpt lat="43.20307" lon="-2.89688">
        <ele>60.2</ele>
        <time>2021-05-29 17:37:11</time>
      </trkpt>
      <trkpt lat="43.20301" lon="-2.89693">
        <ele>60.4</ele>
        <time>2021-05-29 17:37:12</time>
      </trkpt>
      <trkpt lat="43.20296" lon="-2.89698">
        <ele>60.8</ele>
        <time>2021-05-29 17:37:13</time>
      </trkpt>
      <trkpt lat="43.20289" lon="-2.89703">
        <ele>61</ele>
        <time>2021-05-29 17:37:14</time>
      </trkpt>
      <trkpt lat="43.20282" lon="-2.89707">
        <ele>61.2</ele>
        <time>2021-05-29 17:37:15</time>
      </trkpt>
      <trkpt lat="43.20275" lon="-2.89712">
        <ele>61.2</ele>
        <time>2021-05-29 17:37:16</time>
      </trkpt>
      <trkpt lat="43.20267" lon="-2.89717">
        <ele>61.2</ele>
        <time>2021-05-29 17:37:17</time>
      </trkpt>
      <trkpt lat="43.2026" lon="-2.89724">
        <ele>61.2</ele>
        <time>2021-05-29 17:37:18</time>
      </trkpt>
      <trkpt lat="43.20252" lon="-2.8973">
        <ele>61.2</ele>
        <time>2021-05-29 17:37:19</time>
      </trkpt>
      <trkpt lat="43.20244" lon="-2.89737">
        <ele>61.2</ele>
        <time>2021-05-29 17:37:20</time>
      </trkpt>
      <trkpt lat="43.20237" lon="-2.89745">
        <ele>61.2</ele>
        <time>2021-05-29 17:37:21</time>
      </trkpt>
      <trkpt lat="43.20229" lon="-2.89753">
        <ele>61.2</ele>
        <time>2021-05-29 17:37:22</time>
      </trkpt>
      <trkpt lat="43.20222" lon="-2.89762">
        <ele>61</ele>
        <time>2021-05-29 17:37:23</time>
      </trkpt>
      <trkpt lat="43.20215" lon="-2.89771">
        <ele>60.6</ele>
        <time>2021-05-29 17:37:24</time>
      </trkpt>
      <trkpt lat="43.20207" lon="-2.89781">
        <ele>60.4</ele>
        <time>2021-05-29 17:37:25</time>
      </trkpt>
      <trkpt lat="43.202" lon="-2.8979">
        <ele>60.4</ele>
        <time>2021-05-29 17:37:26</time>
      </trkpt>
      <trkpt lat="43.20193" lon="-2.898">
        <ele>60.2</ele>
        <time>2021-05-29 17:37:27</time>
      </trkpt>
      <trkpt lat="43.20186" lon="-2.8981">
        <ele>60.2</ele>
        <time>2021-05-29 17:37:28</time>
      </trkpt>
      <trkpt lat="43.20179" lon="-2.89819">
        <ele>60</ele>
        <time>2021-05-29 17:37:29</time>
      </trkpt>
      <trkpt lat="43.20172" lon="-2.89829">
        <ele>60</ele>
        <time>2021-05-29 17:37:30</time>
      </trkpt>
      <trkpt lat="43.20165" lon="-2.89839">
        <ele>60</ele>
        <time>2021-05-29 17:37:31</time>
      </trkpt>
      <trkpt lat="43.20157" lon="-2.89849">
        <ele>60</ele>
        <time>2021-05-29 17:37:32</time>
      </trkpt>
      <trkpt lat="43.2015" lon="-2.89858">
        <ele>59.8</ele>
        <time>2021-05-29 17:37:33</time>
      </trkpt>
      <trkpt lat="43.20143" lon="-2.89868">
        <ele>59.8</ele>
        <time>2021-05-29 17:37:34</time>
      </trkpt>
      <trkpt lat="43.20136" lon="-2.89878">
        <ele>59.6</ele>
        <time>2021-05-29 17:37:35</time>
      </trkpt>
      <trkpt lat="43.20129" lon="-2.89888">
        <ele>59.6</ele>
        <time>2021-05-29 17:37:36</time>
      </trkpt>
      <trkpt lat="43.20122" lon="-2.89898">
        <ele>59.6</ele>
        <time>2021-05-29 17:37:37</time>
      </trkpt>
      <trkpt lat="43.20115" lon="-2.89908">
        <ele>59.6</ele>
        <time>2021-05-29 17:37:38</time>
      </trkpt>
      <trkpt lat="43.20107" lon="-2.89917">
        <ele>59.6</ele>
        <time>2021-05-29 17:37:39</time>
      </trkpt>
      <trkpt lat="43.201" lon="-2.89926">
        <ele>59.6</ele>
        <time>2021-05-29 17:37:40</time>
      </trkpt>
      <trkpt lat="43.20093" lon="-2.89935">
        <ele>59.6</ele>
        <time>2021-05-29 17:37:41</time>
      </trkpt>
      <trkpt lat="43.20085" lon="-2.89944">
        <ele>59.6</ele>
        <time>2021-05-29 17:37:42</time>
      </trkpt>
      <trkpt lat="43.20078" lon="-2.89953">
        <ele>59.6</ele>
        <time>2021-05-29 17:37:43</time>
      </trkpt>
      <trkpt lat="43.2007" lon="-2.89961">
        <ele>59.6</ele>
        <time>2021-05-29 17:37:44</time>
      </trkpt>
      <trkpt lat="43.20062" lon="-2.89969">
        <ele>59.6</ele>
        <time>2021-05-29 17:37:45</time>
      </trkpt>
      <trkpt lat="43.20054" lon="-2.89977">
        <ele>59.6</ele>
        <time>2021-05-29 17:37:46</time>
      </trkpt>
      <trkpt lat="43.20046" lon="-2.89984">
        <ele>59.6</ele>
        <time>2021-05-29 17:37:47</time>
      </trkpt>
      <trkpt lat="43.20039" lon="-2.89992">
        <ele>59.6</ele>
        <time>2021-05-29 17:37:48</time>
      </trkpt>
      <trkpt lat="43.20031" lon="-2.9">
        <ele>59.6</ele>
        <time>2021-05-29 17:37:49</time>
      </trkpt>
      <trkpt lat="43.20023" lon="-2.90008">
        <ele>59.6</ele>
        <time>2021-05-29 17:37:50</time>
      </trkpt>
      <trkpt lat="43.20016" lon="-2.90016">
        <ele>59.6</ele>
        <time>2021-05-29 17:37:51</time>
      </trkpt>
      <trkpt lat="43.20008" lon="-2.90024">
        <ele>59.6</ele>
        <time>2021-05-29 17:37:52</time>
      </trkpt>
      <trkpt lat="43.2" lon="-2.90032">
        <ele>59.6</ele>
        <time>2021-05-29 17:37:53</time>
      </trkpt>
      <trkpt lat="43.19992" lon="-2.90039">
        <ele>59.6</ele>
        <time>2021-05-29 17:37:54</time>
      </trkpt>
      <trkpt lat="43.19984" lon="-2.90047">
        <ele>59.6</ele>
        <time>2021-05-29 17:37:55</time>
      </trkpt>
      <trkpt lat="43.19977" lon="-2.90055">
        <ele>59.6</ele>
        <time>2021-05-29 17:37:56</time>
      </trkpt>
      <trkpt lat="43.19969" lon="-2.90062">
        <ele>59.6</ele>
        <time>2021-05-29 17:37:57</time>
      </trkpt>
      <trkpt lat="43.19961" lon="-2.90069">
        <ele>59.6</ele>
        <time>2021-05-29 17:37:58</time>
      </trkpt>
      <trkpt lat="43.19953" lon="-2.90076">
        <ele>59.6</ele>
        <time>2021-05-29 17:37:59</time>
      </trkpt>
      <trkpt lat="43.19944" lon="-2.90083">
        <ele>59.6</ele>
        <time>2021-05-29 17:38:00</time>
      </trkpt>
      <trkpt lat="43.19936" lon="-2.9009">
        <ele>59.6</ele>
        <time>2021-05-29 17:38:01</time>
      </trkpt>
      <trkpt lat="43.19928" lon="-2.90096">
        <ele>59.6</ele>
        <time>2021-05-29 17:38:02</time>
      </trkpt>
      <trkpt lat="43.1992" lon="-2.90103">
        <ele>59.6</ele>
        <time>2021-05-29 17:38:03</time>
      </trkpt>
      <trkpt lat="43.19911" lon="-2.90109">
        <ele>59.6</ele>
        <time>2021-05-29 17:38:04</time>
      </trkpt>
      <trkpt lat="43.19903" lon="-2.90115">
        <ele>59.6</ele>
        <time>2021-05-29 17:38:05</time>
      </trkpt>
      <trkpt lat="43.19894" lon="-2.9012">
        <ele>59.6</ele>
        <time>2021-05-29 17:38:06</time>
      </trkpt>
      <trkpt lat="43.19885" lon="-2.90124">
        <ele>59.6</ele>
        <time>2021-05-29 17:38:07</time>
      </trkpt>
      <trkpt lat="43.19876" lon="-2.90127">
        <ele>59.6</ele>
        <time>2021-05-29 17:38:08</time>
      </trkpt>
      <trkpt lat="43.19867" lon="-2.9013">
        <ele>59.8</ele>
        <time>2021-05-29 17:38:09</time>
      </trkpt>
      <trkpt lat="43.19858" lon="-2.90132">
        <ele>59.8</ele>
        <time>2021-05-29 17:38:10</time>
      </trkpt>
      <trkpt lat="43.19849" lon="-2.90134">
        <ele>59.8</ele>
        <time>2021-05-29 17:38:11</time>
      </trkpt>
      <trkpt lat="43.1984" lon="-2.90136">
        <ele>59.8</ele>
        <time>2021-05-29 17:38:12</time>
      </trkpt>
      <trkpt lat="43.19831" lon="-2.90137">
        <ele>59.8</ele>
        <time>2021-05-29 17:38:13</time>
      </trkpt>
      <trkpt lat="43.19822" lon="-2.90137">
        <ele>59.8</ele>
        <time>2021-05-29 17:38:14</time>
      </trkpt>
      <trkpt lat="43.19813" lon="-2.90136">
        <ele>60</ele>
        <time>2021-05-29 17:38:15</time>
      </trkpt>
      <trkpt lat="43.19803" lon="-2.90135">
        <ele>60</ele>
        <time>2021-05-29 17:38:16</time>
      </trkpt>
      <trkpt lat="43.19794" lon="-2.90133">
        <ele>60</ele>
        <time>2021-05-29 17:38:17</time>
      </trkpt>
      <trkpt lat="43.19786" lon="-2.9013">
        <ele>60</ele>
        <time>2021-05-29 17:38:18</time>
      </trkpt>
      <trkpt lat="43.19777" lon="-2.90127">
        <ele>60</ele>
        <time>2021-05-29 17:38:19</time>
      </trkpt>
      <trkpt lat="43.19769" lon="-2.90124">
        <ele>60</ele>
        <time>2021-05-29 17:38:20</time>
      </trkpt>
      <trkpt lat="43.1976" lon="-2.9012">
        <ele>60</ele>
        <time>2021-05-29 17:38:21</time>
      </trkpt>
      <trkpt lat="43.19752" lon="-2.90115">
        <ele>60</ele>
        <time>2021-05-29 17:38:22</time>
      </trkpt>
      <trkpt lat="43.19744" lon="-2.90111">
        <ele>60.2</ele>
        <time>2021-05-29 17:38:23</time>
      </trkpt>
      <trkpt lat="43.19736" lon="-2.90106">
        <ele>60.2</ele>
        <time>2021-05-29 17:38:24</time>
      </trkpt>
      <trkpt lat="43.19728" lon="-2.90102">
        <ele>60.2</ele>
        <time>2021-05-29 17:38:25</time>
      </trkpt>
      <trkpt lat="43.1972" lon="-2.90097">
        <ele>60.2</ele>
        <time>2021-05-29 17:38:26</time>
      </trkpt>
      <trkpt lat="43.19712" lon="-2.90092">
        <ele>60.4</ele>
        <time>2021-05-29 17:38:27</time>
      </trkpt>
      <trkpt lat="43.19704" lon="-2.90087">
        <ele>60.4</ele>
        <time>2021-05-29 17:38:28</time>
      </trkpt>
      <trkpt lat="43.19696" lon="-2.90083">
        <ele>60.6</ele>
        <time>2021-05-29 17:38:29</time>
      </trkpt>
      <trkpt lat="43.19687" lon="-2.90078">
        <ele>60.6</ele>
        <time>2021-05-29 17:38:30</time>
      </trkpt>
      <trkpt lat="43.19679" lon="-2.90073">
        <ele>60.6</ele>
        <time>2021-05-29 17:38:31</time>
      </trkpt>
      <trkpt lat="43.19671" lon="-2.90068">
        <ele>60.6</ele>
        <time>2021-05-29 17:38:32</time>
      </trkpt>
      <trkpt lat="43.19663" lon="-2.90063">
        <ele>60.6</ele>
        <time>2021-05-29 17:38:33</time>
      </trkpt>
      <trkpt lat="43.19655" lon="-2.90058">
        <ele>60.8</ele>
        <time>2021-05-29 17:38:34</time>
      </trkpt>
      <trkpt lat="43.19648" lon="-2.90052">
        <ele>60.8</ele>
        <time>2021-05-29 17:38:35</time>
      </trkpt>
      <trkpt lat="43.1964" lon="-2.90047">
        <ele>60.8</ele>
        <time>2021-05-29 17:38:36</time>
      </trkpt>
      <trkpt lat="43.19632" lon="-2.90042">
        <ele>60.8</ele>
        <time>2021-05-29 17:38:37</time>
      </trkpt>
      <trkpt lat="43.19624" lon="-2.90036">
        <ele>61</ele>
        <time>2021-05-29 17:38:38</time>
      </trkpt>
      <trkpt lat="43.19616" lon="-2.90031">
        <ele>61</ele>
        <time>2021-05-29 17:38:39</time>
      </trkpt>
      <trkpt lat="43.19608" lon="-2.90026">
        <ele>61</ele>
        <time>2021-05-29 17:38:40</time>
      </trkpt>
      <trkpt lat="43.19599" lon="-2.9002">
        <ele>61</ele>
        <time>2021-05-29 17:38:41</time>
      </trkpt>
      <trkpt lat="43.19591" lon="-2.90015">
        <ele>61.2</ele>
        <time>2021-05-29 17:38:42</time>
      </trkpt>
      <trkpt lat="43.19583" lon="-2.9001">
        <ele>61.4</ele>
        <time>2021-05-29 17:38:43</time>
      </trkpt>
      <trkpt lat="43.19576" lon="-2.90004">
        <ele>61.6</ele>
        <time>2021-05-29 17:38:44</time>
      </trkpt>
      <trkpt lat="43.19568" lon="-2.89998">
        <ele>61.6</ele>
        <time>2021-05-29 17:38:45</time>
      </trkpt>
      <trkpt lat="43.1956" lon="-2.89993">
        <ele>61.8</ele>
        <time>2021-05-29 17:38:46</time>
      </trkpt>
      <trkpt lat="43.19552" lon="-2.89987">
        <ele>61.8</ele>
        <time>2021-05-29 17:38:47</time>
      </trkpt>
      <trkpt lat="43.19544" lon="-2.89982">
        <ele>62</ele>
        <time>2021-05-29 17:38:48</time>
      </trkpt>
      <trkpt lat="43.19536" lon="-2.89978">
        <ele>62.2</ele>
        <time>2021-05-29 17:38:49</time>
      </trkpt>
      <trkpt lat="43.19528" lon="-2.89973">
        <ele>62.2</ele>
        <time>2021-05-29 17:38:50</time>
      </trkpt>
      <trkpt lat="43.1952" lon="-2.89968">
        <ele>62.4</ele>
        <time>2021-05-29 17:38:51</time>
      </trkpt>
      <trkpt lat="43.19512" lon="-2.89964">
        <ele>62.4</ele>
        <time>2021-05-29 17:38:52</time>
      </trkpt>
      <trkpt lat="43.19505" lon="-2.89958">
        <ele>62.4</ele>
        <time>2021-05-29 17:38:53</time>
      </trkpt>
      <trkpt lat="43.19497" lon="-2.89954">
        <ele>62.4</ele>
        <time>2021-05-29 17:38:54</time>
      </trkpt>
      <trkpt lat="43.19489" lon="-2.89949">
        <ele>62.4</ele>
        <time>2021-05-29 17:38:55</time>
      </trkpt>
      <trkpt lat="43.1948" lon="-2.89945">
        <ele>62.4</ele>
        <time>2021-05-29 17:38:56</time>
      </trkpt>
      <trkpt lat="43.19472" lon="-2.89941">
        <ele>62.4</ele>
        <time>2021-05-29 17:38:57</time>
      </trkpt>
      <trkpt lat="43.19464" lon="-2.89937">
        <ele>62.4</ele>
        <time>2021-05-29 17:38:58</time>
      </trkpt>
      <trkpt lat="43.19455" lon="-2.89933">
        <ele>62.4</ele>
        <time>2021-05-29 17:38:59</time>
      </trkpt>
      <trkpt lat="43.19447" lon="-2.8993">
        <ele>62.4</ele>
        <time>2021-05-29 17:39:00</time>
      </trkpt>
      <trkpt lat="43.19438" lon="-2.89928">
        <ele>62.4</ele>
        <time>2021-05-29 17:39:01</time>
      </trkpt>
      <trkpt lat="43.19429" lon="-2.89925">
        <ele>62.4</ele>
        <time>2021-05-29 17:39:02</time>
      </trkpt>
      <trkpt lat="43.1942" lon="-2.89924">
        <ele>62.4</ele>
        <time>2021-05-29 17:39:03</time>
      </trkpt>
      <trkpt lat="43.19411" lon="-2.89922">
        <ele>62.4</ele>
        <time>2021-05-29 17:39:04</time>
      </trkpt>
      <trkpt lat="43.19401" lon="-2.8992">
        <ele>62.6</ele>
        <time>2021-05-29 17:39:05</time>
      </trkpt>
      <trkpt lat="43.19392" lon="-2.89919">
        <ele>62.6</ele>
        <time>2021-05-29 17:39:06</time>
      </trkpt>
      <trkpt lat="43.19383" lon="-2.89918">
        <ele>62.6</ele>
        <time>2021-05-29 17:39:07</time>
      </trkpt>
      <trkpt lat="43.19374" lon="-2.89917">
        <ele>62.6</ele>
        <time>2021-05-29 17:39:08</time>
      </trkpt>
      <trkpt lat="43.19364" lon="-2.89917">
        <ele>62.6</ele>
        <time>2021-05-29 17:39:09</time>
      </trkpt>
      <trkpt lat="43.19355" lon="-2.89917">
        <ele>62.6</ele>
        <time>2021-05-29 17:39:10</time>
      </trkpt>
      <trkpt lat="43.19346" lon="-2.89917">
        <ele>62.6</ele>
        <time>2021-05-29 17:39:11</time>
      </trkpt>
      <trkpt lat="43.19336" lon="-2.89917">
        <ele>62.8</ele>
        <time>2021-05-29 17:39:12</time>
      </trkpt>
      <trkpt lat="43.19327" lon="-2.89918">
        <ele>62.8</ele>
        <time>2021-05-29 17:39:13</time>
      </trkpt>
      <trkpt lat="43.19318" lon="-2.8992">
        <ele>62.8</ele>
        <time>2021-05-29 17:39:14</time>
      </trkpt>
      <trkpt lat="43.19308" lon="-2.89922">
        <ele>62.8</ele>
        <time>2021-05-29 17:39:15</time>
      </trkpt>
      <trkpt lat="43.19299" lon="-2.89924">
        <ele>63</ele>
        <time>2021-05-29 17:39:16</time>
      </trkpt>
      <trkpt lat="43.1929" lon="-2.89926">
        <ele>63</ele>
        <time>2021-05-29 17:39:17</time>
      </trkpt>
      <trkpt lat="43.19282" lon="-2.89929">
        <ele>63</ele>
        <time>2021-05-29 17:39:18</time>
      </trkpt>
      <trkpt lat="43.19273" lon="-2.89933">
        <ele>63.2</ele>
        <time>2021-05-29 17:39:19</time>
      </trkpt>
      <trkpt lat="43.19265" lon="-2.89937">
        <ele>63.2</ele>
        <time>2021-05-29 17:39:20</time>
      </trkpt>
      <trkpt lat="43.19257" lon="-2.89941">
        <ele>63.4</ele>
        <time>2021-05-29 17:39:21</time>
      </trkpt>
      <trkpt lat="43.1925" lon="-2.89947">
        <ele>63.6</ele>
        <time>2021-05-29 17:39:22</time>
      </trkpt>
      <trkpt lat="43.19243" lon="-2.89953">
        <ele>63.6</ele>
        <time>2021-05-29 17:39:23</time>
      </trkpt>
      <trkpt lat="43.19236" lon="-2.89958">
        <ele>63.8</ele>
        <time>2021-05-29 17:39:24</time>
      </trkpt>
      <trkpt lat="43.1923" lon="-2.89964">
        <ele>63.8</ele>
        <time>2021-05-29 17:39:25</time>
      </trkpt>
      <trkpt lat="43.19223" lon="-2.89969">
        <ele>64</ele>
        <time>2021-05-29 17:39:26</time>
      </trkpt>
      <trkpt lat="43.19217" lon="-2.89975">
        <ele>64.2</ele>
        <time>2021-05-29 17:39:27</time>
      </trkpt>
      <trkpt lat="43.1921" lon="-2.8998">
        <ele>64.6</ele>
        <time>2021-05-29 17:39:28</time>
      </trkpt>
      <trkpt lat="43.19204" lon="-2.89984">
        <ele>64.8</ele>
        <time>2021-05-29 17:39:29</time>
      </trkpt>
      <trkpt lat="43.19197" lon="-2.89988">
        <ele>65.2</ele>
        <time>2021-05-29 17:39:30</time>
      </trkpt>
      <trkpt lat="43.1919" lon="-2.89992">
        <ele>65.6</ele>
        <time>2021-05-29 17:39:31</time>
      </trkpt>
      <trkpt lat="43.19184" lon="-2.89996">
        <ele>65.8</ele>
        <time>2021-05-29 17:39:32</time>
      </trkpt>
      <trkpt lat="43.19177" lon="-2.9">
        <ele>66.2</ele>
        <time>2021-05-29 17:39:33</time>
      </trkpt>
      <trkpt lat="43.1917" lon="-2.90004">
        <ele>66.4</ele>
        <time>2021-05-29 17:39:34</time>
      </trkpt>
      <trkpt lat="43.19164" lon="-2.90006">
        <ele>66.8</ele>
        <time>2021-05-29 17:39:35</time>
      </trkpt>
      <trkpt lat="43.19157" lon="-2.90009">
        <ele>67.4</ele>
        <time>2021-05-29 17:39:36</time>
      </trkpt>
      <trkpt lat="43.1915" lon="-2.90011">
        <ele>67.8</ele>
        <time>2021-05-29 17:39:37</time>
      </trkpt>
      <trkpt lat="43.19143" lon="-2.90013">
        <ele>68.4</ele>
        <time>2021-05-29 17:39:38</time>
      </trkpt>
      <trkpt lat="43.19135" lon="-2.90015">
        <ele>68.8</ele>
        <time>2021-05-29 17:39:39</time>
      </trkpt>
      <trkpt lat="43.19128" lon="-2.90016">
        <ele>69.2</ele>
        <time>2021-05-29 17:39:40</time>
      </trkpt>
      <trkpt lat="43.1912" lon="-2.90017">
        <ele>69.6</ele>
        <time>2021-05-29 17:39:41</time>
      </trkpt>
      <trkpt lat="43.19113" lon="-2.90018">
        <ele>70</ele>
        <time>2021-05-29 17:39:42</time>
      </trkpt>
      <trkpt lat="43.19105" lon="-2.90018">
        <ele>70.4</ele>
        <time>2021-05-29 17:39:43</time>
      </trkpt>
      <trkpt lat="43.19097" lon="-2.90018">
        <ele>70.8</ele>
        <time>2021-05-29 17:39:44</time>
      </trkpt>
      <trkpt lat="43.19089" lon="-2.90017">
        <ele>71.2</ele>
        <time>2021-05-29 17:39:45</time>
      </trkpt>
      <trkpt lat="43.1908" lon="-2.90016">
        <ele>71.4</ele>
        <time>2021-05-29 17:39:46</time>
      </trkpt>
      <trkpt lat="43.19072" lon="-2.90014">
        <ele>71.4</ele>
        <time>2021-05-29 17:39:47</time>
      </trkpt>
      <trkpt lat="43.19063" lon="-2.90012">
        <ele>71.6</ele>
        <time>2021-05-29 17:39:48</time>
      </trkpt>
      <trkpt lat="43.19055" lon="-2.90009">
        <ele>71.6</ele>
        <time>2021-05-29 17:39:49</time>
      </trkpt>
      <trkpt lat="43.19046" lon="-2.90005">
        <ele>71.6</ele>
        <time>2021-05-29 17:39:50</time>
      </trkpt>
      <trkpt lat="43.19037" lon="-2.90001">
        <ele>71.6</ele>
        <time>2021-05-29 17:39:51</time>
      </trkpt>
      <trkpt lat="43.19028" lon="-2.89996">
        <ele>71.6</ele>
        <time>2021-05-29 17:39:52</time>
      </trkpt>
      <trkpt lat="43.19019" lon="-2.8999">
        <ele>71.6</ele>
        <time>2021-05-29 17:39:53</time>
      </trkpt>
      <trkpt lat="43.1901" lon="-2.89984">
        <ele>71.6</ele>
        <time>2021-05-29 17:39:54</time>
      </trkpt>
      <trkpt lat="43.19001" lon="-2.89978">
        <ele>71.4</ele>
        <time>2021-05-29 17:39:55</time>
      </trkpt>
      <trkpt lat="43.18993" lon="-2.8997">
        <ele>71.2</ele>
        <time>2021-05-29 17:39:56</time>
      </trkpt>
      <trkpt lat="43.18985" lon="-2.89963">
        <ele>71</ele>
        <time>2021-05-29 17:39:57</time>
      </trkpt>
      <trkpt lat="43.18976" lon="-2.89954">
        <ele>70.6</ele>
        <time>2021-05-29 17:39:58</time>
      </trkpt>
      <trkpt lat="43.18968" lon="-2.89945">
        <ele>70.2</ele>
        <time>2021-05-29 17:39:59</time>
      </trkpt>
      <trkpt lat="43.1896" lon="-2.89937">
        <ele>69.6</ele>
        <time>2021-05-29 17:40:00</time>
      </trkpt>
      <trkpt lat="43.18952" lon="-2.89928">
        <ele>69.2</ele>
        <time>2021-05-29 17:40:01</time>
      </trkpt>
      <trkpt lat="43.18944" lon="-2.89918">
        <ele>68.8</ele>
        <time>2021-05-29 17:40:02</time>
      </trkpt>
      <trkpt lat="43.18936" lon="-2.89909">
        <ele>68.4</ele>
        <time>2021-05-29 17:40:03</time>
      </trkpt>
      <trkpt lat="43.18928" lon="-2.899">
        <ele>68.2</ele>
        <time>2021-05-29 17:40:04</time>
      </trkpt>
      <trkpt lat="43.18921" lon="-2.89891">
        <ele>68</ele>
        <time>2021-05-29 17:40:05</time>
      </trkpt>
      <trkpt lat="43.18913" lon="-2.89882">
        <ele>67.6</ele>
        <time>2021-05-29 17:40:06</time>
      </trkpt>
      <trkpt lat="43.18906" lon="-2.89874">
        <ele>67.2</ele>
        <time>2021-05-29 17:40:07</time>
      </trkpt>
      <trkpt lat="43.18898" lon="-2.89866">
        <ele>66.6</ele>
        <time>2021-05-29 17:40:08</time>
      </trkpt>
      <trkpt lat="43.18891" lon="-2.89857">
        <ele>66.4</ele>
        <time>2021-05-29 17:40:09</time>
      </trkpt>
      <trkpt lat="43.18884" lon="-2.89849">
        <ele>66.2</ele>
        <time>2021-05-29 17:40:10</time>
      </trkpt>
      <trkpt lat="43.18877" lon="-2.89841">
        <ele>66</ele>
        <time>2021-05-29 17:40:11</time>
      </trkpt>
      <trkpt lat="43.1887" lon="-2.89833">
        <ele>65.8</ele>
        <time>2021-05-29 17:40:12</time>
      </trkpt>
      <trkpt lat="43.18863" lon="-2.89825">
        <ele>65.8</ele>
        <time>2021-05-29 17:40:13</time>
      </trkpt>
      <trkpt lat="43.18856" lon="-2.89817">
        <ele>65.8</ele>
        <time>2021-05-29 17:40:14</time>
      </trkpt>
      <trkpt lat="43.18849" lon="-2.89809">
        <ele>65.6</ele>
        <time>2021-05-29 17:40:15</time>
      </trkpt>
      <trkpt lat="43.18842" lon="-2.89801">
        <ele>65.6</ele>
        <time>2021-05-29 17:40:16</time>
      </trkpt>
      <trkpt lat="43.18835" lon="-2.89794">
        <ele>65.6</ele>
        <time>2021-05-29 17:40:17</time>
      </trkpt>
      <trkpt lat="43.18829" lon="-2.89786">
        <ele>65.4</ele>
        <time>2021-05-29 17:40:18</time>
      </trkpt>
      <trkpt lat="43.18822" lon="-2.89778">
        <ele>65.4</ele>
        <time>2021-05-29 17:40:19</time>
      </trkpt>
      <trkpt lat="43.18815" lon="-2.8977">
        <ele>65.4</ele>
        <time>2021-05-29 17:40:20</time>
      </trkpt>
      <trkpt lat="43.18808" lon="-2.89762">
        <ele>65.4</ele>
        <time>2021-05-29 17:40:21</time>
      </trkpt>
      <trkpt lat="43.18802" lon="-2.89754">
        <ele>65.4</ele>
        <time>2021-05-29 17:40:22</time>
      </trkpt>
      <trkpt lat="43.18795" lon="-2.89747">
        <ele>65.4</ele>
        <time>2021-05-29 17:40:23</time>
      </trkpt>
      <trkpt lat="43.18788" lon="-2.89739">
        <ele>65.4</ele>
        <time>2021-05-29 17:40:24</time>
      </trkpt>
      <trkpt lat="43.18781" lon="-2.89731">
        <ele>65.4</ele>
        <time>2021-05-29 17:40:25</time>
      </trkpt>
      <trkpt lat="43.18774" lon="-2.89724">
        <ele>65.4</ele>
        <time>2021-05-29 17:40:26</time>
      </trkpt>
      <trkpt lat="43.18768" lon="-2.89716">
        <ele>65.4</ele>
        <time>2021-05-29 17:40:27</time>
      </trkpt>
      <trkpt lat="43.18761" lon="-2.89709">
        <ele>65.4</ele>
        <time>2021-05-29 17:40:28</time>
      </trkpt>
      <trkpt lat="43.18754" lon="-2.89701">
        <ele>65.4</ele>
        <time>2021-05-29 17:40:29</time>
      </trkpt>
      <trkpt lat="43.18747" lon="-2.89693">
        <ele>65.4</ele>
        <time>2021-05-29 17:40:30</time>
      </trkpt>
      <trkpt lat="43.18741" lon="-2.89685">
        <ele>65.6</ele>
        <time>2021-05-29 17:40:31</time>
      </trkpt>
      <trkpt lat="43.18734" lon="-2.89678">
        <ele>65.6</ele>
        <time>2021-05-29 17:40:32</time>
      </trkpt>
      <trkpt lat="43.18727" lon="-2.89672">
        <ele>65.6</ele>
        <time>2021-05-29 17:40:33</time>
      </trkpt>
      <trkpt lat="43.18719" lon="-2.89666">
        <ele>65.8</ele>
        <time>2021-05-29 17:40:34</time>
      </trkpt>
      <trkpt lat="43.18711" lon="-2.89661">
        <ele>65.8</ele>
        <time>2021-05-29 17:40:35</time>
      </trkpt>
      <trkpt lat="43.18704" lon="-2.89656">
        <ele>66</ele>
        <time>2021-05-29 17:40:36</time>
      </trkpt>
      <trkpt lat="43.18696" lon="-2.89652">
        <ele>66</ele>
        <time>2021-05-29 17:40:37</time>
      </trkpt>
      <trkpt lat="43.18688" lon="-2.89649">
        <ele>66.4</ele>
        <time>2021-05-29 17:40:38</time>
      </trkpt>
      <trkpt lat="43.1868" lon="-2.89645">
        <ele>66.6</ele>
        <time>2021-05-29 17:40:39</time>
      </trkpt>
      <trkpt lat="43.18672" lon="-2.89643">
        <ele>67</ele>
        <time>2021-05-29 17:40:40</time>
      </trkpt>
      <trkpt lat="43.18665" lon="-2.8964">
        <ele>67.4</ele>
        <time>2021-05-29 17:40:41</time>
      </trkpt>
      <trkpt lat="43.18657" lon="-2.89639">
        <ele>68</ele>
        <time>2021-05-29 17:40:42</time>
      </trkpt>
      <trkpt lat="43.18648" lon="-2.89638">
        <ele>68.4</ele>
        <time>2021-05-29 17:40:43</time>
      </trkpt>
      <trkpt lat="43.1864" lon="-2.89637">
        <ele>68.8</ele>
        <time>2021-05-29 17:40:44</time>
      </trkpt>
      <trkpt lat="43.18632" lon="-2.89636">
        <ele>69.2</ele>
        <time>2021-05-29 17:40:45</time>
      </trkpt>
      <trkpt lat="43.18624" lon="-2.89635">
        <ele>69.4</ele>
        <time>2021-05-29 17:40:46</time>
      </trkpt>
      <trkpt lat="43.18616" lon="-2.89635">
        <ele>69.8</ele>
        <time>2021-05-29 17:40:47</time>
      </trkpt>
      <trkpt lat="43.18608" lon="-2.89634">
        <ele>70.2</ele>
        <time>2021-05-29 17:40:48</time>
      </trkpt>
      <trkpt lat="43.186" lon="-2.89633">
        <ele>70.6</ele>
        <time>2021-05-29 17:40:49</time>
      </trkpt>
      <trkpt lat="43.18592" lon="-2.89633">
        <ele>70.8</ele>
        <time>2021-05-29 17:40:50</time>
      </trkpt>
      <trkpt lat="43.18583" lon="-2.89632">
        <ele>70.8</ele>
        <time>2021-05-29 17:40:51</time>
      </trkpt>
      <trkpt lat="43.18575" lon="-2.89632">
        <ele>71</ele>
        <time>2021-05-29 17:40:52</time>
      </trkpt>
      <trkpt lat="43.18567" lon="-2.89631">
        <ele>71</ele>
        <time>2021-05-29 17:40:53</time>
      </trkpt>
      <trkpt lat="43.18559" lon="-2.89632">
        <ele>71</ele>
        <time>2021-05-29 17:40:54</time>
      </trkpt>
      <trkpt lat="43.18551" lon="-2.89632">
        <ele>71</ele>
        <time>2021-05-29 17:40:55</time>
      </trkpt>
      <trkpt lat="43.18543" lon="-2.89634">
        <ele>71.2</ele>
        <time>2021-05-29 17:40:56</time>
      </trkpt>
      <trkpt lat="43.18535" lon="-2.89636">
        <ele>71.2</ele>
        <time>2021-05-29 17:40:57</time>
      </trkpt>
      <trkpt lat="43.18527" lon="-2.89639">
        <ele>71.2</ele>
        <time>2021-05-29 17:40:58</time>
      </trkpt>
      <trkpt lat="43.18519" lon="-2.89643">
        <ele>71.4</ele>
        <time>2021-05-29 17:40:59</time>
      </trkpt>
      <trkpt lat="43.18512" lon="-2.8965">
        <ele>71.8</ele>
        <time>2021-05-29 17:41:00</time>
      </trkpt>
      <trkpt lat="43.18505" lon="-2.89656">
        <ele>72</ele>
        <time>2021-05-29 17:41:01</time>
      </trkpt>
      <trkpt lat="43.18498" lon="-2.89662">
        <ele>72.4</ele>
        <time>2021-05-29 17:41:02</time>
      </trkpt>
      <trkpt lat="43.18491" lon="-2.89668">
        <ele>72.6</ele>
        <time>2021-05-29 17:41:03</time>
      </trkpt>
      <trkpt lat="43.18485" lon="-2.89675">
        <ele>72.8</ele>
        <time>2021-05-29 17:41:04</time>
      </trkpt>
      <trkpt lat="43.18478" lon="-2.89681">
        <ele>73</ele>
        <time>2021-05-29 17:41:05</time>
      </trkpt>
      <trkpt lat="43.18471" lon="-2.89688">
        <ele>73.4</ele>
        <time>2021-05-29 17:41:06</time>
      </trkpt>
      <trkpt lat="43.18464" lon="-2.89695">
        <ele>73.6</ele>
        <time>2021-05-29 17:41:07</time>
      </trkpt>
      <trkpt lat="43.18457" lon="-2.89702">
        <ele>73.6</ele>
        <time>2021-05-29 17:41:08</time>
      </trkpt>
      <trkpt lat="43.1845" lon="-2.89709">
        <ele>73.8</ele>
        <time>2021-05-29 17:41:09</time>
      </trkpt>
      <trkpt lat="43.18442" lon="-2.89717">
        <ele>73.8</ele>
        <time>2021-05-29 17:41:10</time>
      </trkpt>
      <trkpt lat="43.18434" lon="-2.89724">
        <ele>73.8</ele>
        <time>2021-05-29 17:41:11</time>
      </trkpt>
      <trkpt lat="43.18427" lon="-2.89731">
        <ele>73.8</ele>
        <time>2021-05-29 17:41:12</time>
      </trkpt>
      <trkpt lat="43.18419" lon="-2.89739">
        <ele>73.8</ele>
        <time>2021-05-29 17:41:13</time>
      </trkpt>
      <trkpt lat="43.18411" lon="-2.89747">
        <ele>73.8</ele>
        <time>2021-05-29 17:41:14</time>
      </trkpt>
      <trkpt lat="43.18403" lon="-2.89754">
        <ele>73.8</ele>
        <time>2021-05-29 17:41:15</time>
      </trkpt>
      <trkpt lat="43.18395" lon="-2.89762">
        <ele>73.8</ele>
        <time>2021-05-29 17:41:16</time>
      </trkpt>
      <trkpt lat="43.18387" lon="-2.8977">
        <ele>73.8</ele>
        <time>2021-05-29 17:41:17</time>
      </trkpt>
      <trkpt lat="43.1838" lon="-2.89779">
        <ele>73.8</ele>
        <time>2021-05-29 17:41:18</time>
      </trkpt>
      <trkpt lat="43.18372" lon="-2.89788">
        <ele>73.4</ele>
        <time>2021-05-29 17:41:19</time>
      </trkpt>
      <trkpt lat="43.18366" lon="-2.89799">
        <ele>73.2</ele>
        <time>2021-05-29 17:41:20</time>
      </trkpt>
      <trkpt lat="43.1836" lon="-2.89811">
        <ele>72.8</ele>
        <time>2021-05-29 17:41:21</time>
      </trkpt>
      <trkpt lat="43.18355" lon="-2.89824">
        <ele>72.6</ele>
        <time>2021-05-29 17:41:22</time>
      </trkpt>
      <trkpt lat="43.18351" lon="-2.89837">
        <ele>72.2</ele>
        <time>2021-05-29 17:41:23</time>
      </trkpt>
      <trkpt lat="43.18349" lon="-2.89851">
        <ele>72</ele>
        <time>2021-05-29 17:41:24</time>
      </trkpt>
      <trkpt lat="43.18347" lon="-2.89864">
        <ele>72</ele>
        <time>2021-05-29 17:41:25</time>
      </trkpt>
      <trkpt lat="43.18347" lon="-2.89878">
        <ele>71.6</ele>
        <time>2021-05-29 17:41:26</time>
      </trkpt>
      <trkpt lat="43.18348" lon="-2.89892">
        <ele>70.8</ele>
        <time>2021-05-29 17:41:27</time>
      </trkpt>
      <trkpt lat="43.1835" lon="-2.89905">
        <ele>70.4</ele>
        <time>2021-05-29 17:41:28</time>
      </trkpt>
      <trkpt lat="43.18353" lon="-2.89918">
        <ele>70.2</ele>
        <time>2021-05-29 17:41:29</time>
      </trkpt>
      <trkpt lat="43.18358" lon="-2.8993">
        <ele>70.2</ele>
        <time>2021-05-29 17:41:30</time>
      </trkpt>
      <trkpt lat="43.18363" lon="-2.89941">
        <ele>70</ele>
        <time>2021-05-29 17:41:31</time>
      </trkpt>
      <trkpt lat="43.1837" lon="-2.89951">
        <ele>70</ele>
        <time>2021-05-29 17:41:32</time>
      </trkpt>
      <trkpt lat="43.18377" lon="-2.89961">
        <ele>69.8</ele>
        <time>2021-05-29 17:41:33</time>
      </trkpt>
      <trkpt lat="43.18384" lon="-2.89969">
        <ele>69.8</ele>
        <time>2021-05-29 17:41:34</time>
      </trkpt>
      <trkpt lat="43.18392" lon="-2.89976">
        <ele>69.8</ele>
        <time>2021-05-29 17:41:35</time>
      </trkpt>
      <trkpt lat="43.18401" lon="-2.89982">
        <ele>69.6</ele>
        <time>2021-05-29 17:41:36</time>
      </trkpt>
      <trkpt lat="43.18409" lon="-2.89989">
        <ele>69.6</ele>
        <time>2021-05-29 17:41:37</time>
      </trkpt>
      <trkpt lat="43.18417" lon="-2.89996">
        <ele>69.4</ele>
        <time>2021-05-29 17:41:38</time>
      </trkpt>
      <trkpt lat="43.18425" lon="-2.90003">
        <ele>69.4</ele>
        <time>2021-05-29 17:41:39</time>
      </trkpt>
      <trkpt lat="43.18433" lon="-2.90011">
        <ele>69.4</ele>
        <time>2021-05-29 17:41:40</time>
      </trkpt>
      <trkpt lat="43.18441" lon="-2.90019">
        <ele>69.4</ele>
        <time>2021-05-29 17:41:41</time>
      </trkpt>
      <trkpt lat="43.18448" lon="-2.90027">
        <ele>69.2</ele>
        <time>2021-05-29 17:41:42</time>
      </trkpt>
      <trkpt lat="43.18456" lon="-2.90035">
        <ele>69.2</ele>
        <time>2021-05-29 17:41:43</time>
      </trkpt>
      <trkpt lat="43.18463" lon="-2.90042">
        <ele>69.2</ele>
        <time>2021-05-29 17:41:44</time>
      </trkpt>
      <trkpt lat="43.1847" lon="-2.9005">
        <ele>69.2</ele>
        <time>2021-05-29 17:41:45</time>
      </trkpt>
      <trkpt lat="43.18477" lon="-2.90058">
        <ele>69.2</ele>
        <time>2021-05-29 17:41:46</time>
      </trkpt>
      <trkpt lat="43.18484" lon="-2.90066">
        <ele>69.2</ele>
        <time>2021-05-29 17:41:47</time>
      </trkpt>
      <trkpt lat="43.18489" lon="-2.90075">
        <ele>69.2</ele>
        <time>2021-05-29 17:41:48</time>
      </trkpt>
      <trkpt lat="43.18495" lon="-2.90083">
        <ele>69.2</ele>
        <time>2021-05-29 17:41:49</time>
      </trkpt>
      <trkpt lat="43.185" lon="-2.90092">
        <ele>69.2</ele>
        <time>2021-05-29 17:41:50</time>
      </trkpt>
      <trkpt lat="43.18506" lon="-2.901">
        <ele>69.2</ele>
        <time>2021-05-29 17:41:51</time>
      </trkpt>
      <trkpt lat="43.18511" lon="-2.90109">
        <ele>69.2</ele>
        <time>2021-05-29 17:41:52</time>
      </trkpt>
      <trkpt lat="43.18516" lon="-2.90118">
        <ele>69.2</ele>
        <time>2021-05-29 17:41:53</time>
      </trkpt>
      <trkpt lat="43.1852" lon="-2.90128">
        <ele>69.4</ele>
        <time>2021-05-29 17:41:54</time>
      </trkpt>
      <trkpt lat="43.18524" lon="-2.90138">
        <ele>69.8</ele>
        <time>2021-05-29 17:41:55</time>
      </trkpt>
      <trkpt lat="43.18526" lon="-2.9015">
        <ele>70.2</ele>
        <time>2021-05-29 17:41:56</time>
      </trkpt>
      <trkpt lat="43.18529" lon="-2.9016">
        <ele>70.4</ele>
        <time>2021-05-29 17:41:57</time>
      </trkpt>
      <trkpt lat="43.18532" lon="-2.9017">
        <ele>70.4</ele>
        <time>2021-05-29 17:41:58</time>
      </trkpt>
      <trkpt lat="43.18534" lon="-2.9018">
        <ele>70.6</ele>
        <time>2021-05-29 17:41:59</time>
      </trkpt>
      <trkpt lat="43.18535" lon="-2.90191">
        <ele>70.8</ele>
        <time>2021-05-29 17:42:00</time>
      </trkpt>
      <trkpt lat="43.18535" lon="-2.90202">
        <ele>71</ele>
        <time>2021-05-29 17:42:01</time>
      </trkpt>
      <trkpt lat="43.18534" lon="-2.90213">
        <ele>71.2</ele>
        <time>2021-05-29 17:42:02</time>
      </trkpt>
      <trkpt lat="43.18533" lon="-2.90224">
        <ele>71.4</ele>
        <time>2021-05-29 17:42:03</time>
      </trkpt>
      <trkpt lat="43.18532" lon="-2.90234">
        <ele>71.6</ele>
        <time>2021-05-29 17:42:04</time>
      </trkpt>
      <trkpt lat="43.1853" lon="-2.90245">
        <ele>71.8</ele>
        <time>2021-05-29 17:42:05</time>
      </trkpt>
      <trkpt lat="43.18526" lon="-2.90256">
        <ele>72</ele>
        <time>2021-05-29 17:42:06</time>
      </trkpt>
      <trkpt lat="43.18523" lon="-2.90266">
        <ele>72.2</ele>
        <time>2021-05-29 17:42:07</time>
      </trkpt>
      <trkpt lat="43.18519" lon="-2.90276">
        <ele>72.4</ele>
        <time>2021-05-29 17:42:08</time>
      </trkpt>
      <trkpt lat="43.18515" lon="-2.90286">
        <ele>72.4</ele>
        <time>2021-05-29 17:42:09</time>
      </trkpt>
      <trkpt lat="43.1851" lon="-2.90295">
        <ele>72.6</ele>
        <time>2021-05-29 17:42:10</time>
      </trkpt>
      <trkpt lat="43.18504" lon="-2.90304">
        <ele>72.8</ele>
        <time>2021-05-29 17:42:11</time>
      </trkpt>
      <trkpt lat="43.18497" lon="-2.90312">
        <ele>72.8</ele>
        <time>2021-05-29 17:42:12</time>
      </trkpt>
      <trkpt lat="43.18489" lon="-2.90319">
        <ele>72.8</ele>
        <time>2021-05-29 17:42:13</time>
      </trkpt>
      <trkpt lat="43.18481" lon="-2.90325">
        <ele>72.8</ele>
        <time>2021-05-29 17:42:14</time>
      </trkpt>
      <trkpt lat="43.18472" lon="-2.90331">
        <ele>72.8</ele>
        <time>2021-05-29 17:42:15</time>
      </trkpt>
      <trkpt lat="43.18463" lon="-2.90336">
        <ele>72.8</ele>
        <time>2021-05-29 17:42:16</time>
      </trkpt>
      <trkpt lat="43.18453" lon="-2.9034">
        <ele>72.8</ele>
        <time>2021-05-29 17:42:17</time>
      </trkpt>
      <trkpt lat="43.18444" lon="-2.90344">
        <ele>72.8</ele>
        <time>2021-05-29 17:42:18</time>
      </trkpt>
      <trkpt lat="43.18434" lon="-2.90348">
        <ele>72.8</ele>
        <time>2021-05-29 17:42:19</time>
      </trkpt>
      <trkpt lat="43.18425" lon="-2.90352">
        <ele>72.6</ele>
        <time>2021-05-29 17:42:20</time>
      </trkpt>
      <trkpt lat="43.18416" lon="-2.90355">
        <ele>72.6</ele>
        <time>2021-05-29 17:42:21</time>
      </trkpt>
      <trkpt lat="43.18406" lon="-2.90359">
        <ele>72.2</ele>
        <time>2021-05-29 17:42:22</time>
      </trkpt>
      <trkpt lat="43.18397" lon="-2.90362">
        <ele>72</ele>
        <time>2021-05-29 17:42:23</time>
      </trkpt>
      <trkpt lat="43.18388" lon="-2.90366">
        <ele>71.8</ele>
        <time>2021-05-29 17:42:24</time>
      </trkpt>
      <trkpt lat="43.18379" lon="-2.90369">
        <ele>71.6</ele>
        <time>2021-05-29 17:42:25</time>
      </trkpt>
      <trkpt lat="43.18371" lon="-2.90373">
        <ele>71.6</ele>
        <time>2021-05-29 17:42:26</time>
      </trkpt>
      <trkpt lat="43.18362" lon="-2.90376">
        <ele>71.6</ele>
        <time>2021-05-29 17:42:27</time>
      </trkpt>
      <trkpt lat="43.18354" lon="-2.90379">
        <ele>71.6</ele>
        <time>2021-05-29 17:42:28</time>
      </trkpt>
      <trkpt lat="43.18346" lon="-2.90382">
        <ele>71.6</ele>
        <time>2021-05-29 17:42:29</time>
      </trkpt>
      <trkpt lat="43.18337" lon="-2.90385">
        <ele>71.6</ele>
        <time>2021-05-29 17:42:30</time>
      </trkpt>
      <trkpt lat="43.18329" lon="-2.90388">
        <ele>71.6</ele>
        <time>2021-05-29 17:42:31</time>
      </trkpt>
      <trkpt lat="43.18321" lon="-2.90391">
        <ele>71.6</ele>
        <time>2021-05-29 17:42:32</time>
      </trkpt>
      <trkpt lat="43.18313" lon="-2.90394">
        <ele>71.6</ele>
        <time>2021-05-29 17:42:33</time>
      </trkpt>
      <trkpt lat="43.18305" lon="-2.90397">
        <ele>71.6</ele>
        <time>2021-05-29 17:42:34</time>
      </trkpt>
      <trkpt lat="43.18297" lon="-2.904">
        <ele>71.6</ele>
        <time>2021-05-29 17:42:35</time>
      </trkpt>
      <trkpt lat="43.18289" lon="-2.90403">
        <ele>71.6</ele>
        <time>2021-05-29 17:42:36</time>
      </trkpt>
      <trkpt lat="43.18281" lon="-2.90407">
        <ele>71.8</ele>
        <time>2021-05-29 17:42:37</time>
      </trkpt>
      <trkpt lat="43.18273" lon="-2.9041">
        <ele>72.2</ele>
        <time>2021-05-29 17:42:38</time>
      </trkpt>
      <trkpt lat="43.18265" lon="-2.90413">
        <ele>72.4</ele>
        <time>2021-05-29 17:42:39</time>
      </trkpt>
      <trkpt lat="43.18257" lon="-2.90416">
        <ele>72.4</ele>
        <time>2021-05-29 17:42:40</time>
      </trkpt>
      <trkpt lat="43.18249" lon="-2.90419">
        <ele>72.6</ele>
        <time>2021-05-29 17:42:41</time>
      </trkpt>
      <trkpt lat="43.18241" lon="-2.90423">
        <ele>73</ele>
        <time>2021-05-29 17:42:42</time>
      </trkpt>
      <trkpt lat="43.18233" lon="-2.90426">
        <ele>73</ele>
        <time>2021-05-29 17:42:43</time>
      </trkpt>
      <trkpt lat="43.18225" lon="-2.90429">
        <ele>73.2</ele>
        <time>2021-05-29 17:42:44</time>
      </trkpt>
      <trkpt lat="43.18217" lon="-2.90431">
        <ele>73.6</ele>
        <time>2021-05-29 17:42:45</time>
      </trkpt>
      <trkpt lat="43.18209" lon="-2.90434">
        <ele>74</ele>
        <time>2021-05-29 17:42:46</time>
      </trkpt>
      <trkpt lat="43.18201" lon="-2.90436">
        <ele>74.4</ele>
        <time>2021-05-29 17:42:47</time>
      </trkpt>
      <trkpt lat="43.18193" lon="-2.90438">
        <ele>74.6</ele>
        <time>2021-05-29 17:42:48</time>
      </trkpt>
      <trkpt lat="43.18186" lon="-2.9044">
        <ele>75</ele>
        <time>2021-05-29 17:42:49</time>
      </trkpt>
      <trkpt lat="43.18178" lon="-2.90441">
        <ele>75.4</ele>
        <time>2021-05-29 17:42:50</time>
      </trkpt>
      <trkpt lat="43.18171" lon="-2.90442">
        <ele>75.6</ele>
        <time>2021-05-29 17:42:51</time>
      </trkpt>
      <trkpt lat="43.18163" lon="-2.90442">
        <ele>75.8</ele>
        <time>2021-05-29 17:42:52</time>
      </trkpt>
      <trkpt lat="43.18156" lon="-2.90443">
        <ele>76</ele>
        <time>2021-05-29 17:42:53</time>
      </trkpt>
      <trkpt lat="43.18148" lon="-2.90443">
        <ele>76.4</ele>
        <time>2021-05-29 17:42:54</time>
      </trkpt>
      <trkpt lat="43.18141" lon="-2.90443">
        <ele>76.6</ele>
        <time>2021-05-29 17:42:55</time>
      </trkpt>
      <trkpt lat="43.18134" lon="-2.90443">
        <ele>76.8</ele>
        <time>2021-05-29 17:42:56</time>
      </trkpt>
      <trkpt lat="43.18127" lon="-2.90442">
        <ele>77.2</ele>
        <time>2021-05-29 17:42:57</time>
      </trkpt>
      <trkpt lat="43.1812" lon="-2.90442">
        <ele>77.4</ele>
        <time>2021-05-29 17:42:58</time>
      </trkpt>
      <trkpt lat="43.18113" lon="-2.90442">
        <ele>77.8</ele>
        <time>2021-05-29 17:42:59</time>
      </trkpt>
      <trkpt lat="43.18106" lon="-2.90442">
        <ele>78</ele>
        <time>2021-05-29 17:43:00</time>
      </trkpt>
      <trkpt lat="43.18099" lon="-2.90442">
        <ele>78.4</ele>
        <time>2021-05-29 17:43:01</time>
      </trkpt>
      <trkpt lat="43.18092" lon="-2.90442">
        <ele>78.8</ele>
        <time>2021-05-29 17:43:02</time>
      </trkpt>
      <trkpt lat="43.18085" lon="-2.90442">
        <ele>79</ele>
        <time>2021-05-29 17:43:03</time>
      </trkpt>
      <trkpt lat="43.18078" lon="-2.90442">
        <ele>79.4</ele>
        <time>2021-05-29 17:43:04</time>
      </trkpt>
      <trkpt lat="43.18071" lon="-2.90442">
        <ele>79.6</ele>
        <time>2021-05-29 17:43:05</time>
      </trkpt>
      <trkpt lat="43.18064" lon="-2.90442">
        <ele>80</ele>
        <time>2021-05-29 17:43:06</time>
      </trkpt>
      <trkpt lat="43.18057" lon="-2.90443">
        <ele>80.4</ele>
        <time>2021-05-29 17:43:07</time>
      </trkpt>
      <trkpt lat="43.1805" lon="-2.90444">
        <ele>80.8</ele>
        <time>2021-05-29 17:43:08</time>
      </trkpt>
      <trkpt lat="43.18044" lon="-2.90445">
        <ele>81.2</ele>
        <time>2021-05-29 17:43:09</time>
      </trkpt>
      <trkpt lat="43.18037" lon="-2.90447">
        <ele>81.6</ele>
        <time>2021-05-29 17:43:10</time>
      </trkpt>
      <trkpt lat="43.1803" lon="-2.9045">
        <ele>81.8</ele>
        <time>2021-05-29 17:43:11</time>
      </trkpt>
      <trkpt lat="43.18024" lon="-2.90453">
        <ele>82.2</ele>
        <time>2021-05-29 17:43:12</time>
      </trkpt>
      <trkpt lat="43.18017" lon="-2.90456">
        <ele>82.6</ele>
        <time>2021-05-29 17:43:13</time>
      </trkpt>
      <trkpt lat="43.18011" lon="-2.90458">
        <ele>82.8</ele>
        <time>2021-05-29 17:43:14</time>
      </trkpt>
      <trkpt lat="43.18005" lon="-2.90461">
        <ele>83.2</ele>
        <time>2021-05-29 17:43:15</time>
      </trkpt>
      <trkpt lat="43.17999" lon="-2.90463">
        <ele>83.6</ele>
        <time>2021-05-29 17:43:16</time>
      </trkpt>
      <trkpt lat="43.17993" lon="-2.90466">
        <ele>84</ele>
        <time>2021-05-29 17:43:17</time>
      </trkpt>
      <trkpt lat="43.17987" lon="-2.9047">
        <ele>84.2</ele>
        <time>2021-05-29 17:43:18</time>
      </trkpt>
      <trkpt lat="43.17981" lon="-2.90473">
        <ele>84.8</ele>
        <time>2021-05-29 17:43:19</time>
      </trkpt>
      <trkpt lat="43.17975" lon="-2.90476">
        <ele>85.2</ele>
        <time>2021-05-29 17:43:20</time>
      </trkpt>
      <trkpt lat="43.1797" lon="-2.9048">
        <ele>85.6</ele>
        <time>2021-05-29 17:43:21</time>
      </trkpt>
      <trkpt lat="43.17964" lon="-2.90483">
        <ele>86</ele>
        <time>2021-05-29 17:43:22</time>
      </trkpt>
      <trkpt lat="43.17958" lon="-2.90486">
        <ele>86.4</ele>
        <time>2021-05-29 17:43:23</time>
      </trkpt>
      <trkpt lat="43.17952" lon="-2.9049">
        <ele>86.8</ele>
        <time>2021-05-29 17:43:24</time>
      </trkpt>
      <trkpt lat="43.17945" lon="-2.90493">
        <ele>87</ele>
        <time>2021-05-29 17:43:25</time>
      </trkpt>
      <trkpt lat="43.17939" lon="-2.90497">
        <ele>87.4</ele>
        <time>2021-05-29 17:43:26</time>
      </trkpt>
      <trkpt lat="43.17933" lon="-2.905">
        <ele>87.6</ele>
        <time>2021-05-29 17:43:27</time>
      </trkpt>
      <trkpt lat="43.17927" lon="-2.90504">
        <ele>87.8</ele>
        <time>2021-05-29 17:43:28</time>
      </trkpt>
      <trkpt lat="43.17921" lon="-2.90507">
        <ele>88</ele>
        <time>2021-05-29 17:43:29</time>
      </trkpt>
      <trkpt lat="43.17915" lon="-2.90511">
        <ele>88.4</ele>
        <time>2021-05-29 17:43:30</time>
      </trkpt>
      <trkpt lat="43.17909" lon="-2.90515">
        <ele>88.6</ele>
        <time>2021-05-29 17:43:31</time>
      </trkpt>
      <trkpt lat="43.17903" lon="-2.90519">
        <ele>89</ele>
        <time>2021-05-29 17:43:32</time>
      </trkpt>
      <trkpt lat="43.17897" lon="-2.90523">
        <ele>89.2</ele>
        <time>2021-05-29 17:43:33</time>
      </trkpt>
      <trkpt lat="43.17891" lon="-2.90526">
        <ele>89.4</ele>
        <time>2021-05-29 17:43:34</time>
      </trkpt>
      <trkpt lat="43.17884" lon="-2.9053">
        <ele>89.6</ele>
        <time>2021-05-29 17:43:35</time>
      </trkpt>
      <trkpt lat="43.17878" lon="-2.90534">
        <ele>89.8</ele>
        <time>2021-05-29 17:43:36</time>
      </trkpt>
      <trkpt lat="43.17871" lon="-2.90537">
        <ele>90</ele>
        <time>2021-05-29 17:43:37</time>
      </trkpt>
      <trkpt lat="43.17865" lon="-2.90541">
        <ele>90.2</ele>
        <time>2021-05-29 17:43:38</time>
      </trkpt>
      <trkpt lat="43.17858" lon="-2.90545">
        <ele>90.6</ele>
        <time>2021-05-29 17:43:39</time>
      </trkpt>
      <trkpt lat="43.17852" lon="-2.90549">
        <ele>90.8</ele>
        <time>2021-05-29 17:43:40</time>
      </trkpt>
      <trkpt lat="43.17845" lon="-2.90553">
        <ele>91</ele>
        <time>2021-05-29 17:43:41</time>
      </trkpt>
      <trkpt lat="43.17838" lon="-2.90557">
        <ele>91.2</ele>
        <time>2021-05-29 17:43:42</time>
      </trkpt>
      <trkpt lat="43.1783" lon="-2.90561">
        <ele>91.4</ele>
        <time>2021-05-29 17:43:43</time>
      </trkpt>
      <trkpt lat="43.17823" lon="-2.90565">
        <ele>91.6</ele>
        <time>2021-05-29 17:43:44</time>
      </trkpt>
      <trkpt lat="43.17816" lon="-2.9057">
        <ele>91.8</ele>
        <time>2021-05-29 17:43:45</time>
      </trkpt>
      <trkpt lat="43.17808" lon="-2.90575">
        <ele>92</ele>
        <time>2021-05-29 17:43:46</time>
      </trkpt>
      <trkpt lat="43.178" lon="-2.9058">
        <ele>92.2</ele>
        <time>2021-05-29 17:43:47</time>
      </trkpt>
      <trkpt lat="43.17793" lon="-2.90586">
        <ele>92.2</ele>
        <time>2021-05-29 17:43:48</time>
      </trkpt>
      <trkpt lat="43.17786" lon="-2.90592">
        <ele>92.2</ele>
        <time>2021-05-29 17:43:49</time>
      </trkpt>
      <trkpt lat="43.17779" lon="-2.90599">
        <ele>92.2</ele>
        <time>2021-05-29 17:43:50</time>
      </trkpt>
      <trkpt lat="43.17772" lon="-2.90607">
        <ele>92.4</ele>
        <time>2021-05-29 17:43:51</time>
      </trkpt>
      <trkpt lat="43.17766" lon="-2.90616">
        <ele>92.4</ele>
        <time>2021-05-29 17:43:52</time>
      </trkpt>
      <trkpt lat="43.17761" lon="-2.90626">
        <ele>92.4</ele>
        <time>2021-05-29 17:43:53</time>
      </trkpt>
      <trkpt lat="43.17756" lon="-2.90637">
        <ele>92.4</ele>
        <time>2021-05-29 17:43:54</time>
      </trkpt>
      <trkpt lat="43.17753" lon="-2.90648">
        <ele>92.4</ele>
        <time>2021-05-29 17:43:55</time>
      </trkpt>
      <trkpt lat="43.1775" lon="-2.9066">
        <ele>92.4</ele>
        <time>2021-05-29 17:43:56</time>
      </trkpt>
      <trkpt lat="43.17748" lon="-2.90673">
        <ele>92.4</ele>
        <time>2021-05-29 17:43:57</time>
      </trkpt>
      <trkpt lat="43.17746" lon="-2.90686">
        <ele>92.2</ele>
        <time>2021-05-29 17:43:58</time>
      </trkpt>
      <trkpt lat="43.17746" lon="-2.90699">
        <ele>92</ele>
        <time>2021-05-29 17:43:59</time>
      </trkpt>
      <trkpt lat="43.17746" lon="-2.90712">
        <ele>92</ele>
        <time>2021-05-29 17:44:00</time>
      </trkpt>
      <trkpt lat="43.17747" lon="-2.90725">
        <ele>92</ele>
        <time>2021-05-29 17:44:01</time>
      </trkpt>
      <trkpt lat="43.17749" lon="-2.90738">
        <ele>92</ele>
        <time>2021-05-29 17:44:02</time>
      </trkpt>
      <trkpt lat="43.1775" lon="-2.90752">
        <ele>92</ele>
        <time>2021-05-29 17:44:03</time>
      </trkpt>
      <trkpt lat="43.17752" lon="-2.90765">
        <ele>92</ele>
        <time>2021-05-29 17:44:04</time>
      </trkpt>
      <trkpt lat="43.17753" lon="-2.90779">
        <ele>92</ele>
        <time>2021-05-29 17:44:05</time>
      </trkpt>
      <trkpt lat="43.17755" lon="-2.90793">
        <ele>91.8</ele>
        <time>2021-05-29 17:44:06</time>
      </trkpt>
      <trkpt lat="43.17756" lon="-2.90807">
        <ele>91.8</ele>
        <time>2021-05-29 17:44:07</time>
      </trkpt>
      <trkpt lat="43.17758" lon="-2.90822">
        <ele>91.8</ele>
        <time>2021-05-29 17:44:08</time>
      </trkpt>
      <trkpt lat="43.1776" lon="-2.90837">
        <ele>91.8</ele>
        <time>2021-05-29 17:44:09</time>
      </trkpt>
      <trkpt lat="43.17762" lon="-2.90853">
        <ele>91.6</ele>
        <time>2021-05-29 17:44:10</time>
      </trkpt>
      <trkpt lat="43.17764" lon="-2.90868">
        <ele>91.4</ele>
        <time>2021-05-29 17:44:11</time>
      </trkpt>
      <trkpt lat="43.17766" lon="-2.90884">
        <ele>91</ele>
        <time>2021-05-29 17:44:12</time>
      </trkpt>
      <trkpt lat="43.17769" lon="-2.909">
        <ele>90.8</ele>
        <time>2021-05-29 17:44:13</time>
      </trkpt>
      <trkpt lat="43.17772" lon="-2.90916">
        <ele>90.4</ele>
        <time>2021-05-29 17:44:14</time>
      </trkpt>
      <trkpt lat="43.17777" lon="-2.90932">
        <ele>90.2</ele>
        <time>2021-05-29 17:44:15</time>
      </trkpt>
      <trkpt lat="43.17783" lon="-2.90947">
        <ele>89.8</ele>
        <time>2021-05-29 17:44:16</time>
      </trkpt>
      <trkpt lat="43.1779" lon="-2.90962">
        <ele>89</ele>
        <time>2021-05-29 17:44:17</time>
      </trkpt>
      <trkpt lat="43.17797" lon="-2.90976">
        <ele>88.2</ele>
        <time>2021-05-29 17:44:18</time>
      </trkpt>
      <trkpt lat="43.17805" lon="-2.90989">
        <ele>87.4</ele>
        <time>2021-05-29 17:44:19</time>
      </trkpt>
      <trkpt lat="43.17813" lon="-2.91002">
        <ele>86.4</ele>
        <time>2021-05-29 17:44:20</time>
      </trkpt>
      <trkpt lat="43.17822" lon="-2.91015">
        <ele>85.4</ele>
        <time>2021-05-29 17:44:21</time>
      </trkpt>
      <trkpt lat="43.17833" lon="-2.91026">
        <ele>84.4</ele>
        <time>2021-05-29 17:44:22</time>
      </trkpt>
      <trkpt lat="43.17843" lon="-2.91037">
        <ele>83.8</ele>
        <time>2021-05-29 17:44:23</time>
      </trkpt>
      <trkpt lat="43.17854" lon="-2.91046">
        <ele>83</ele>
        <time>2021-05-29 17:44:24</time>
      </trkpt>
      <trkpt lat="43.17866" lon="-2.91054">
        <ele>82.6</ele>
        <time>2021-05-29 17:44:25</time>
      </trkpt>
      <trkpt lat="43.17878" lon="-2.9106">
        <ele>82</ele>
        <time>2021-05-29 17:44:26</time>
      </trkpt>
      <trkpt lat="43.1789" lon="-2.91066">
        <ele>81.2</ele>
        <time>2021-05-29 17:44:27</time>
      </trkpt>
      <trkpt lat="43.17901" lon="-2.91072">
        <ele>80.8</ele>
        <time>2021-05-29 17:44:28</time>
      </trkpt>
      <trkpt lat="43.17913" lon="-2.91077">
        <ele>80.4</ele>
        <time>2021-05-29 17:44:29</time>
      </trkpt>
      <trkpt lat="43.17924" lon="-2.91083">
        <ele>80</ele>
        <time>2021-05-29 17:44:30</time>
      </trkpt>
      <trkpt lat="43.17934" lon="-2.9109">
        <ele>79.6</ele>
        <time>2021-05-29 17:44:31</time>
      </trkpt>
      <trkpt lat="43.17944" lon="-2.91096">
        <ele>79.6</ele>
        <time>2021-05-29 17:44:32</time>
      </trkpt>
      <trkpt lat="43.17954" lon="-2.91103">
        <ele>79.4</ele>
        <time>2021-05-29 17:44:33</time>
      </trkpt>
      <trkpt lat="43.17964" lon="-2.9111">
        <ele>79.4</ele>
        <time>2021-05-29 17:44:34</time>
      </trkpt>
      <trkpt lat="43.17973" lon="-2.91118">
        <ele>79.4</ele>
        <time>2021-05-29 17:44:35</time>
      </trkpt>
      <trkpt lat="43.17982" lon="-2.91126">
        <ele>79.4</ele>
        <time>2021-05-29 17:44:36</time>
      </trkpt>
      <trkpt lat="43.17991" lon="-2.91135">
        <ele>79.4</ele>
        <time>2021-05-29 17:44:37</time>
      </trkpt>
      <trkpt lat="43.17998" lon="-2.91144">
        <ele>79.4</ele>
        <time>2021-05-29 17:44:38</time>
      </trkpt>
      <trkpt lat="43.18005" lon="-2.91155">
        <ele>79.4</ele>
        <time>2021-05-29 17:44:39</time>
      </trkpt>
      <trkpt lat="43.1801" lon="-2.91166">
        <ele>79.4</ele>
        <time>2021-05-29 17:44:40</time>
      </trkpt>
      <trkpt lat="43.18015" lon="-2.91178">
        <ele>79.6</ele>
        <time>2021-05-29 17:44:41</time>
      </trkpt>
      <trkpt lat="43.18019" lon="-2.9119">
        <ele>79.8</ele>
        <time>2021-05-29 17:44:42</time>
      </trkpt>
      <trkpt lat="43.18022" lon="-2.91203">
        <ele>79.8</ele>
        <time>2021-05-29 17:44:43</time>
      </trkpt>
      <trkpt lat="43.18023" lon="-2.91217">
        <ele>80</ele>
        <time>2021-05-29 17:44:44</time>
      </trkpt>
      <trkpt lat="43.18024" lon="-2.9123">
        <ele>80</ele>
        <time>2021-05-29 17:44:45</time>
      </trkpt>
      <trkpt lat="43.18024" lon="-2.91243">
        <ele>80.2</ele>
        <time>2021-05-29 17:44:46</time>
      </trkpt>
      <trkpt lat="43.18023" lon="-2.91256">
        <ele>80.2</ele>
        <time>2021-05-29 17:44:47</time>
      </trkpt>
      <trkpt lat="43.18022" lon="-2.91269">
        <ele>80.4</ele>
        <time>2021-05-29 17:44:48</time>
      </trkpt>
      <trkpt lat="43.18021" lon="-2.91282">
        <ele>80.4</ele>
        <time>2021-05-29 17:44:49</time>
      </trkpt>
      <trkpt lat="43.1802" lon="-2.91295">
        <ele>80.4</ele>
        <time>2021-05-29 17:44:50</time>
      </trkpt>
      <trkpt lat="43.18018" lon="-2.91308">
        <ele>80.4</ele>
        <time>2021-05-29 17:44:51</time>
      </trkpt>
      <trkpt lat="43.18015" lon="-2.9132">
        <ele>80.6</ele>
        <time>2021-05-29 17:44:52</time>
      </trkpt>
      <trkpt lat="43.18011" lon="-2.91333">
        <ele>80.8</ele>
        <time>2021-05-29 17:44:53</time>
      </trkpt>
      <trkpt lat="43.18007" lon="-2.91344">
        <ele>80.8</ele>
        <time>2021-05-29 17:44:54</time>
      </trkpt>
      <trkpt lat="43.18003" lon="-2.91356">
        <ele>81</ele>
        <time>2021-05-29 17:44:55</time>
      </trkpt>
      <trkpt lat="43.17998" lon="-2.91367">
        <ele>81</ele>
        <time>2021-05-29 17:44:56</time>
      </trkpt>
      <trkpt lat="43.17992" lon="-2.91377">
        <ele>81.2</ele>
        <time>2021-05-29 17:44:57</time>
      </trkpt>
      <trkpt lat="43.17986" lon="-2.91387">
        <ele>81.2</ele>
        <time>2021-05-29 17:44:58</time>
      </trkpt>
      <trkpt lat="43.17979" lon="-2.91397">
        <ele>81.2</ele>
        <time>2021-05-29 17:44:59</time>
      </trkpt>
      <trkpt lat="43.17972" lon="-2.91406">
        <ele>81.2</ele>
        <time>2021-05-29 17:45:00</time>
      </trkpt>
      <trkpt lat="43.17965" lon="-2.91415">
        <ele>81.4</ele>
        <time>2021-05-29 17:45:01</time>
      </trkpt>
      <trkpt lat="43.17958" lon="-2.91424">
        <ele>81.4</ele>
        <time>2021-05-29 17:45:02</time>
      </trkpt>
      <trkpt lat="43.17951" lon="-2.91433">
        <ele>81.4</ele>
        <time>2021-05-29 17:45:03</time>
      </trkpt>
      <trkpt lat="43.17944" lon="-2.91442">
        <ele>81.4</ele>
        <time>2021-05-29 17:45:04</time>
      </trkpt>
      <trkpt lat="43.17937" lon="-2.9145">
        <ele>81.4</ele>
        <time>2021-05-29 17:45:05</time>
      </trkpt>
      <trkpt lat="43.17931" lon="-2.91459">
        <ele>81.4</ele>
        <time>2021-05-29 17:45:06</time>
      </trkpt>
      <trkpt lat="43.17923" lon="-2.91467">
        <ele>81.4</ele>
        <time>2021-05-29 17:45:07</time>
      </trkpt>
      <trkpt lat="43.17916" lon="-2.91476">
        <ele>81.4</ele>
        <time>2021-05-29 17:45:08</time>
      </trkpt>
      <trkpt lat="43.17909" lon="-2.91484">
        <ele>81.4</ele>
        <time>2021-05-29 17:45:09</time>
      </trkpt>
      <trkpt lat="43.17901" lon="-2.91491">
        <ele>81.4</ele>
        <time>2021-05-29 17:45:10</time>
      </trkpt>
      <trkpt lat="43.17893" lon="-2.91498">
        <ele>81.4</ele>
        <time>2021-05-29 17:45:11</time>
      </trkpt>
      <trkpt lat="43.17884" lon="-2.91503">
        <ele>81.4</ele>
        <time>2021-05-29 17:45:12</time>
      </trkpt>
      <trkpt lat="43.17875" lon="-2.91508">
        <ele>81.4</ele>
        <time>2021-05-29 17:45:13</time>
      </trkpt>
      <trkpt lat="43.17865" lon="-2.91512">
        <ele>81.6</ele>
        <time>2021-05-29 17:45:14</time>
      </trkpt>
      <trkpt lat="43.17856" lon="-2.91516">
        <ele>81.6</ele>
        <time>2021-05-29 17:45:15</time>
      </trkpt>
      <trkpt lat="43.17846" lon="-2.91519">
        <ele>81.6</ele>
        <time>2021-05-29 17:45:16</time>
      </trkpt>
      <trkpt lat="43.17837" lon="-2.91523">
        <ele>81.6</ele>
        <time>2021-05-29 17:45:17</time>
      </trkpt>
      <trkpt lat="43.17827" lon="-2.91525">
        <ele>81.6</ele>
        <time>2021-05-29 17:45:18</time>
      </trkpt>
      <trkpt lat="43.17818" lon="-2.91527">
        <ele>81.6</ele>
        <time>2021-05-29 17:45:19</time>
      </trkpt>
      <trkpt lat="43.17809" lon="-2.91529">
        <ele>81.6</ele>
        <time>2021-05-29 17:45:20</time>
      </trkpt>
      <trkpt lat="43.17799" lon="-2.91529">
        <ele>81.6</ele>
        <time>2021-05-29 17:45:21</time>
      </trkpt>
      <trkpt lat="43.1779" lon="-2.91529">
        <ele>81.8</ele>
        <time>2021-05-29 17:45:22</time>
      </trkpt>
      <trkpt lat="43.17781" lon="-2.91527">
        <ele>81.8</ele>
        <time>2021-05-29 17:45:23</time>
      </trkpt>
      <trkpt lat="43.17772" lon="-2.91525">
        <ele>81.8</ele>
        <time>2021-05-29 17:45:24</time>
      </trkpt>
      <trkpt lat="43.17763" lon="-2.91522">
        <ele>81.8</ele>
        <time>2021-05-29 17:45:25</time>
      </trkpt>
      <trkpt lat="43.17755" lon="-2.91518">
        <ele>81.8</ele>
        <time>2021-05-29 17:45:26</time>
      </trkpt>
      <trkpt lat="43.17747" lon="-2.91514">
        <ele>81.8</ele>
        <time>2021-05-29 17:45:27</time>
      </trkpt>
      <trkpt lat="43.17739" lon="-2.9151">
        <ele>81.8</ele>
        <time>2021-05-29 17:45:28</time>
      </trkpt>
      <trkpt lat="43.17731" lon="-2.91506">
        <ele>82</ele>
        <time>2021-05-29 17:45:29</time>
      </trkpt>
      <trkpt lat="43.17723" lon="-2.91502">
        <ele>82</ele>
        <time>2021-05-29 17:45:30</time>
      </trkpt>
      <trkpt lat="43.17715" lon="-2.91499">
        <ele>82</ele>
        <time>2021-05-29 17:45:31</time>
      </trkpt>
      <trkpt lat="43.17707" lon="-2.91495">
        <ele>82.2</ele>
        <time>2021-05-29 17:45:32</time>
      </trkpt>
      <trkpt lat="43.17699" lon="-2.91492">
        <ele>82.4</ele>
        <time>2021-05-29 17:45:33</time>
      </trkpt>
      <trkpt lat="43.17692" lon="-2.91489">
        <ele>82.4</ele>
        <time>2021-05-29 17:45:34</time>
      </trkpt>
      <trkpt lat="43.17685" lon="-2.91486">
        <ele>82.6</ele>
        <time>2021-05-29 17:45:35</time>
      </trkpt>
      <trkpt lat="43.17678" lon="-2.91485">
        <ele>82.6</ele>
        <time>2021-05-29 17:45:36</time>
      </trkpt>
      <trkpt lat="43.17672" lon="-2.91483">
        <ele>82.6</ele>
        <time>2021-05-29 17:45:37</time>
      </trkpt>
      <trkpt lat="43.17666" lon="-2.91483">
        <ele>82.8</ele>
        <time>2021-05-29 17:45:38</time>
      </trkpt>
      <trkpt lat="43.1766" lon="-2.91483">
        <ele>82.8</ele>
        <time>2021-05-29 17:45:39</time>
      </trkpt>
      <trkpt lat="43.17654" lon="-2.91482">
        <ele>83.2</ele>
        <time>2021-05-29 17:45:40</time>
      </trkpt>
      <trkpt lat="43.17649" lon="-2.91482">
        <ele>83.6</ele>
        <time>2021-05-29 17:45:41</time>
      </trkpt>
      <trkpt lat="43.17645" lon="-2.91482">
        <ele>84</ele>
        <time>2021-05-29 17:45:42</time>
      </trkpt>
      <trkpt lat="43.1764" lon="-2.91482">
        <ele>84.4</ele>
        <time>2021-05-29 17:45:43</time>
      </trkpt>
      <trkpt lat="43.17636" lon="-2.91482">
        <ele>84.8</ele>
        <time>2021-05-29 17:45:44</time>
      </trkpt>
      <trkpt lat="43.17631" lon="-2.91481">
        <ele>85.2</ele>
        <time>2021-05-29 17:45:45</time>
      </trkpt>
      <trkpt lat="43.17627" lon="-2.9148">
        <ele>85.6</ele>
        <time>2021-05-29 17:45:46</time>
      </trkpt>
      <trkpt lat="43.17623" lon="-2.9148">
        <ele>86.2</ele>
        <time>2021-05-29 17:45:47</time>
      </trkpt>
      <trkpt lat="43.17619" lon="-2.9148">
        <ele>86.6</ele>
        <time>2021-05-29 17:45:48</time>
      </trkpt>
      <trkpt lat="43.17615" lon="-2.91479">
        <ele>87.2</ele>
        <time>2021-05-29 17:45:49</time>
      </trkpt>
      <trkpt lat="43.17611" lon="-2.91479">
        <ele>87.8</ele>
        <time>2021-05-29 17:45:50</time>
      </trkpt>
      <trkpt lat="43.17608" lon="-2.91479">
        <ele>88.4</ele>
        <time>2021-05-29 17:45:51</time>
      </trkpt>
      <trkpt lat="43.17604" lon="-2.91479">
        <ele>88.8</ele>
        <time>2021-05-29 17:45:52</time>
      </trkpt>
      <trkpt lat="43.17601" lon="-2.91479">
        <ele>89.2</ele>
        <time>2021-05-29 17:45:53</time>
      </trkpt>
      <trkpt lat="43.17597" lon="-2.91479">
        <ele>89.6</ele>
        <time>2021-05-29 17:45:54</time>
      </trkpt>
      <trkpt lat="43.17594" lon="-2.9148">
        <ele>90</ele>
        <time>2021-05-29 17:45:55</time>
      </trkpt>
      <trkpt lat="43.1759" lon="-2.9148">
        <ele>90.4</ele>
        <time>2021-05-29 17:45:56</time>
      </trkpt>
      <trkpt lat="43.17587" lon="-2.91481">
        <ele>90.6</ele>
        <time>2021-05-29 17:45:57</time>
      </trkpt>
      <trkpt lat="43.17583" lon="-2.91482">
        <ele>91</ele>
        <time>2021-05-29 17:45:58</time>
      </trkpt>
      <trkpt lat="43.1758" lon="-2.91483">
        <ele>91.4</ele>
        <time>2021-05-29 17:45:59</time>
      </trkpt>
      <trkpt lat="43.17577" lon="-2.91484">
        <ele>91.8</ele>
        <time>2021-05-29 17:46:00</time>
      </trkpt>
      <trkpt lat="43.17573" lon="-2.91485">
        <ele>92.2</ele>
        <time>2021-05-29 17:46:01</time>
      </trkpt>
      <trkpt lat="43.1757" lon="-2.91487">
        <ele>92.6</ele>
        <time>2021-05-29 17:46:02</time>
      </trkpt>
      <trkpt lat="43.17567" lon="-2.91488">
        <ele>93</ele>
        <time>2021-05-29 17:46:03</time>
      </trkpt>
      <trkpt lat="43.17564" lon="-2.9149">
        <ele>93.2</ele>
        <time>2021-05-29 17:46:04</time>
      </trkpt>
      <trkpt lat="43.17561" lon="-2.91491">
        <ele>93.6</ele>
        <time>2021-05-29 17:46:05</time>
      </trkpt>
      <trkpt lat="43.17558" lon="-2.91493">
        <ele>94</ele>
        <time>2021-05-29 17:46:06</time>
      </trkpt>
      <trkpt lat="43.17555" lon="-2.91495">
        <ele>94.4</ele>
        <time>2021-05-29 17:46:07</time>
      </trkpt>
      <trkpt lat="43.17552" lon="-2.91497">
        <ele>94.6</ele>
        <time>2021-05-29 17:46:08</time>
      </trkpt>
      <trkpt lat="43.17549" lon="-2.91499">
        <ele>95</ele>
        <time>2021-05-29 17:46:09</time>
      </trkpt>
      <trkpt lat="43.17546" lon="-2.91501">
        <ele>96</ele>
        <time>2021-05-29 17:46:10</time>
      </trkpt>
      <trkpt lat="43.17542" lon="-2.91504">
        <ele>96.4</ele>
        <time>2021-05-29 17:46:11</time>
      </trkpt>
      <trkpt lat="43.1754" lon="-2.91506">
        <ele>96.8</ele>
        <time>2021-05-29 17:46:12</time>
      </trkpt>
      <trkpt lat="43.17537" lon="-2.91508">
        <ele>97.2</ele>
        <time>2021-05-29 17:46:13</time>
      </trkpt>
      <trkpt lat="43.17534" lon="-2.91511">
        <ele>97.6</ele>
        <time>2021-05-29 17:46:14</time>
      </trkpt>
      <trkpt lat="43.17532" lon="-2.91514">
        <ele>97.8</ele>
        <time>2021-05-29 17:46:15</time>
      </trkpt>
      <trkpt lat="43.17529" lon="-2.91516">
        <ele>98.2</ele>
        <time>2021-05-29 17:46:16</time>
      </trkpt>
      <trkpt lat="43.17526" lon="-2.91519">
        <ele>98.4</ele>
        <time>2021-05-29 17:46:17</time>
      </trkpt>
      <trkpt lat="43.17523" lon="-2.91522">
        <ele>98.8</ele>
        <time>2021-05-29 17:46:18</time>
      </trkpt>
      <trkpt lat="43.1752" lon="-2.91524">
        <ele>99</ele>
        <time>2021-05-29 17:46:19</time>
      </trkpt>
      <trkpt lat="43.17518" lon="-2.91528">
        <ele>99.4</ele>
        <time>2021-05-29 17:46:20</time>
      </trkpt>
      <trkpt lat="43.17515" lon="-2.91531">
        <ele>99.6</ele>
        <time>2021-05-29 17:46:21</time>
      </trkpt>
      <trkpt lat="43.17513" lon="-2.91534">
        <ele>100</ele>
        <time>2021-05-29 17:46:22</time>
      </trkpt>
      <trkpt lat="43.1751" lon="-2.91537">
        <ele>100.4</ele>
        <time>2021-05-29 17:46:23</time>
      </trkpt>
      <trkpt lat="43.17508" lon="-2.9154">
        <ele>100.6</ele>
        <time>2021-05-29 17:46:24</time>
      </trkpt>
      <trkpt lat="43.17505" lon="-2.91544">
        <ele>101</ele>
        <time>2021-05-29 17:46:25</time>
      </trkpt>
      <trkpt lat="43.17503" lon="-2.91548">
        <ele>101.2</ele>
        <time>2021-05-29 17:46:26</time>
      </trkpt>
      <trkpt lat="43.175" lon="-2.91552">
        <ele>101.4</ele>
        <time>2021-05-29 17:46:27</time>
      </trkpt>
      <trkpt lat="43.17497" lon="-2.91557">
        <ele>101.8</ele>
        <time>2021-05-29 17:46:28</time>
      </trkpt>
      <trkpt lat="43.17495" lon="-2.91562">
        <ele>102</ele>
        <time>2021-05-29 17:46:29</time>
      </trkpt>
      <trkpt lat="43.17492" lon="-2.91567">
        <ele>102.4</ele>
        <time>2021-05-29 17:46:30</time>
      </trkpt>
      <trkpt lat="43.17489" lon="-2.91573">
        <ele>102.8</ele>
        <time>2021-05-29 17:46:31</time>
      </trkpt>
      <trkpt lat="43.17487" lon="-2.9158">
        <ele>103.2</ele>
        <time>2021-05-29 17:46:32</time>
      </trkpt>
      <trkpt lat="43.17485" lon="-2.91588">
        <ele>103.4</ele>
        <time>2021-05-29 17:46:33</time>
      </trkpt>
      <trkpt lat="43.17482" lon="-2.91597">
        <ele>103.6</ele>
        <time>2021-05-29 17:46:34</time>
      </trkpt>
      <trkpt lat="43.17479" lon="-2.91607">
        <ele>103.6</ele>
        <time>2021-05-29 17:46:35</time>
      </trkpt>
      <trkpt lat="43.17476" lon="-2.91618">
        <ele>103.6</ele>
        <time>2021-05-29 17:46:36</time>
      </trkpt>
      <trkpt lat="43.17473" lon="-2.91629">
        <ele>103.6</ele>
        <time>2021-05-29 17:46:37</time>
      </trkpt>
      <trkpt lat="43.17469" lon="-2.9164">
        <ele>103.6</ele>
        <time>2021-05-29 17:46:38</time>
      </trkpt>
      <trkpt lat="43.17465" lon="-2.9165">
        <ele>103.6</ele>
        <time>2021-05-29 17:46:39</time>
      </trkpt>
      <trkpt lat="43.17461" lon="-2.91661">
        <ele>103.6</ele>
        <time>2021-05-29 17:46:40</time>
      </trkpt>
      <trkpt lat="43.17457" lon="-2.91672">
        <ele>103.6</ele>
        <time>2021-05-29 17:46:41</time>
      </trkpt>
      <trkpt lat="43.17453" lon="-2.91683">
        <ele>103.6</ele>
        <time>2021-05-29 17:46:42</time>
      </trkpt>
      <trkpt lat="43.17449" lon="-2.91694">
        <ele>103.4</ele>
        <time>2021-05-29 17:46:43</time>
      </trkpt>
      <trkpt lat="43.17444" lon="-2.91705">
        <ele>102.4</ele>
        <time>2021-05-29 17:46:44</time>
      </trkpt>
      <trkpt lat="43.1744" lon="-2.91716">
        <ele>102</ele>
        <time>2021-05-29 17:46:45</time>
      </trkpt>
      <trkpt lat="43.17436" lon="-2.91727">
        <ele>101.8</ele>
        <time>2021-05-29 17:46:46</time>
      </trkpt>
      <trkpt lat="43.17432" lon="-2.91738">
        <ele>101.6</ele>
        <time>2021-05-29 17:46:47</time>
      </trkpt>
      <trkpt lat="43.17427" lon="-2.9175">
        <ele>101.6</ele>
        <time>2021-05-29 17:46:48</time>
      </trkpt>
      <trkpt lat="43.17422" lon="-2.91761">
        <ele>101.6</ele>
        <time>2021-05-29 17:46:49</time>
      </trkpt>
      <trkpt lat="43.17416" lon="-2.91773">
        <ele>101.4</ele>
        <time>2021-05-29 17:46:50</time>
      </trkpt>
      <trkpt lat="43.17411" lon="-2.91785">
        <ele>101.4</ele>
        <time>2021-05-29 17:46:51</time>
      </trkpt>
      <trkpt lat="43.17405" lon="-2.91797">
        <ele>101.2</ele>
        <time>2021-05-29 17:46:52</time>
      </trkpt>
      <trkpt lat="43.17399" lon="-2.91809">
        <ele>101.2</ele>
        <time>2021-05-29 17:46:53</time>
      </trkpt>
      <trkpt lat="43.17394" lon="-2.91821">
        <ele>101</ele>
        <time>2021-05-29 17:46:54</time>
      </trkpt>
      <trkpt lat="43.17388" lon="-2.91833">
        <ele>100.8</ele>
        <time>2021-05-29 17:46:55</time>
      </trkpt>
      <trkpt lat="43.17382" lon="-2.91845">
        <ele>100.4</ele>
        <time>2021-05-29 17:46:56</time>
      </trkpt>
      <trkpt lat="43.17376" lon="-2.91857">
        <ele>100</ele>
        <time>2021-05-29 17:46:57</time>
      </trkpt>
      <trkpt lat="43.17371" lon="-2.91869">
        <ele>99.6</ele>
        <time>2021-05-29 17:46:58</time>
      </trkpt>
      <trkpt lat="43.17365" lon="-2.91882">
        <ele>99.2</ele>
        <time>2021-05-29 17:46:59</time>
      </trkpt>
      <trkpt lat="43.17359" lon="-2.91894">
        <ele>99</ele>
        <time>2021-05-29 17:47:00</time>
      </trkpt>
      <trkpt lat="43.17354" lon="-2.91906">
        <ele>98.6</ele>
        <time>2021-05-29 17:47:01</time>
      </trkpt>
      <trkpt lat="43.17348" lon="-2.91918">
        <ele>98.4</ele>
        <time>2021-05-29 17:47:02</time>
      </trkpt>
      <trkpt lat="43.17343" lon="-2.9193">
        <ele>98</ele>
        <time>2021-05-29 17:47:03</time>
      </trkpt>
      <trkpt lat="43.17339" lon="-2.91941">
        <ele>97.8</ele>
        <time>2021-05-29 17:47:04</time>
      </trkpt>
      <trkpt lat="43.17335" lon="-2.91952">
        <ele>97.6</ele>
        <time>2021-05-29 17:47:05</time>
      </trkpt>
      <trkpt lat="43.1733" lon="-2.91962">
        <ele>97.6</ele>
        <time>2021-05-29 17:47:06</time>
      </trkpt>
      <trkpt lat="43.17326" lon="-2.91971">
        <ele>97.6</ele>
        <time>2021-05-29 17:47:07</time>
      </trkpt>
      <trkpt lat="43.17322" lon="-2.91979">
        <ele>97.6</ele>
        <time>2021-05-29 17:47:08</time>
      </trkpt>
      <trkpt lat="43.17317" lon="-2.91986">
        <ele>97.4</ele>
        <time>2021-05-29 17:47:09</time>
      </trkpt>
      <trkpt lat="43.17312" lon="-2.91993">
        <ele>97.4</ele>
        <time>2021-05-29 17:47:10</time>
      </trkpt>
      <trkpt lat="43.17307" lon="-2.91998">
        <ele>97.4</ele>
        <time>2021-05-29 17:47:11</time>
      </trkpt>
      <trkpt lat="43.17301" lon="-2.92002">
        <ele>97.4</ele>
        <time>2021-05-29 17:47:12</time>
      </trkpt>
      <trkpt lat="43.17296" lon="-2.92006">
        <ele>97.6</ele>
        <time>2021-05-29 17:47:13</time>
      </trkpt>
      <trkpt lat="43.1729" lon="-2.9201">
        <ele>97.8</ele>
        <time>2021-05-29 17:47:14</time>
      </trkpt>
      <trkpt lat="43.17285" lon="-2.92013">
        <ele>98.2</ele>
        <time>2021-05-29 17:47:15</time>
      </trkpt>
      <trkpt lat="43.17279" lon="-2.92016">
        <ele>98.8</ele>
        <time>2021-05-29 17:47:16</time>
      </trkpt>
      <trkpt lat="43.17273" lon="-2.92018">
        <ele>99.2</ele>
        <time>2021-05-29 17:47:17</time>
      </trkpt>
      <trkpt lat="43.17266" lon="-2.92019">
        <ele>99.8</ele>
        <time>2021-05-29 17:47:18</time>
      </trkpt>
      <trkpt lat="43.1726" lon="-2.9202">
        <ele>100.8</ele>
        <time>2021-05-29 17:47:19</time>
      </trkpt>
      <trkpt lat="43.17254" lon="-2.92021">
        <ele>101.2</ele>
        <time>2021-05-29 17:47:20</time>
      </trkpt>
      <trkpt lat="43.17247" lon="-2.92022">
        <ele>101.6</ele>
        <time>2021-05-29 17:47:21</time>
      </trkpt>
      <trkpt lat="43.1724" lon="-2.92024">
        <ele>102</ele>
        <time>2021-05-29 17:47:22</time>
      </trkpt>
      <trkpt lat="43.17233" lon="-2.92025">
        <ele>102.2</ele>
        <time>2021-05-29 17:47:23</time>
      </trkpt>
      <trkpt lat="43.17226" lon="-2.92027">
        <ele>102.4</ele>
        <time>2021-05-29 17:47:24</time>
      </trkpt>
      <trkpt lat="43.17219" lon="-2.92028">
        <ele>102.6</ele>
        <time>2021-05-29 17:47:25</time>
      </trkpt>
      <trkpt lat="43.17211" lon="-2.9203">
        <ele>102.6</ele>
        <time>2021-05-29 17:47:26</time>
      </trkpt>
      <trkpt lat="43.17203" lon="-2.92032">
        <ele>102.6</ele>
        <time>2021-05-29 17:47:27</time>
      </trkpt>
      <trkpt lat="43.17195" lon="-2.92035">
        <ele>102.6</ele>
        <time>2021-05-29 17:47:28</time>
      </trkpt>
      <trkpt lat="43.17186" lon="-2.92037">
        <ele>102.6</ele>
        <time>2021-05-29 17:47:29</time>
      </trkpt>
      <trkpt lat="43.17176" lon="-2.92039">
        <ele>102.6</ele>
        <time>2021-05-29 17:47:30</time>
      </trkpt>
      <trkpt lat="43.17166" lon="-2.92042">
        <ele>102.6</ele>
        <time>2021-05-29 17:47:31</time>
      </trkpt>
      <trkpt lat="43.17156" lon="-2.92045">
        <ele>102.6</ele>
        <time>2021-05-29 17:47:32</time>
      </trkpt>
      <trkpt lat="43.17145" lon="-2.92048">
        <ele>102.6</ele>
        <time>2021-05-29 17:47:33</time>
      </trkpt>
      <trkpt lat="43.17134" lon="-2.92051">
        <ele>102.4</ele>
        <time>2021-05-29 17:47:34</time>
      </trkpt>
      <trkpt lat="43.17122" lon="-2.92054">
        <ele>102.2</ele>
        <time>2021-05-29 17:47:35</time>
      </trkpt>
      <trkpt lat="43.1711" lon="-2.92058">
        <ele>102</ele>
        <time>2021-05-29 17:47:36</time>
      </trkpt>
      <trkpt lat="43.17098" lon="-2.92061">
        <ele>101.6</ele>
        <time>2021-05-29 17:47:37</time>
      </trkpt>
      <trkpt lat="43.17086" lon="-2.92063">
        <ele>101</ele>
        <time>2021-05-29 17:47:38</time>
      </trkpt>
      <trkpt lat="43.17074" lon="-2.92066">
        <ele>100.4</ele>
        <time>2021-05-29 17:47:39</time>
      </trkpt>
      <trkpt lat="43.17064" lon="-2.92068">
        <ele>99.8</ele>
        <time>2021-05-29 17:47:40</time>
      </trkpt>
      <trkpt lat="43.17053" lon="-2.9207">
        <ele>99</ele>
        <time>2021-05-29 17:47:41</time>
      </trkpt>
      <trkpt lat="43.17043" lon="-2.9207">
        <ele>98.6</ele>
        <time>2021-05-29 17:47:42</time>
      </trkpt>
      <trkpt lat="43.17034" lon="-2.9207">
        <ele>98.4</ele>
        <time>2021-05-29 17:47:43</time>
      </trkpt>
      <trkpt lat="43.17025" lon="-2.9207">
        <ele>98.2</ele>
        <time>2021-05-29 17:47:44</time>
      </trkpt>
      <trkpt lat="43.17016" lon="-2.9207">
        <ele>98.2</ele>
        <time>2021-05-29 17:47:45</time>
      </trkpt>
      <trkpt lat="43.17009" lon="-2.92069">
        <ele>98.2</ele>
        <time>2021-05-29 17:47:46</time>
      </trkpt>
      <trkpt lat="43.17001" lon="-2.92069">
        <ele>98</ele>
        <time>2021-05-29 17:47:47</time>
      </trkpt>
      <trkpt lat="43.16994" lon="-2.92068">
        <ele>98</ele>
        <time>2021-05-29 17:47:48</time>
      </trkpt>
      <trkpt lat="43.16988" lon="-2.92068">
        <ele>98</ele>
        <time>2021-05-29 17:47:49</time>
      </trkpt>
      <trkpt lat="43.16981" lon="-2.92068">
        <ele>98</ele>
        <time>2021-05-29 17:47:50</time>
      </trkpt>
      <trkpt lat="43.16975" lon="-2.92069">
        <ele>98</ele>
        <time>2021-05-29 17:47:51</time>
      </trkpt>
      <trkpt lat="43.1697" lon="-2.92069">
        <ele>98.4</ele>
        <time>2021-05-29 17:47:52</time>
      </trkpt>
      <trkpt lat="43.16964" lon="-2.92071">
        <ele>98.8</ele>
        <time>2021-05-29 17:47:53</time>
      </trkpt>
      <trkpt lat="43.16959" lon="-2.92072">
        <ele>99.6</ele>
        <time>2021-05-29 17:47:54</time>
      </trkpt>
      <trkpt lat="43.16954" lon="-2.92074">
        <ele>100.2</ele>
        <time>2021-05-29 17:47:55</time>
      </trkpt>
      <trkpt lat="43.16949" lon="-2.92076">
        <ele>100.4</ele>
        <time>2021-05-29 17:47:56</time>
      </trkpt>
      <trkpt lat="43.16944" lon="-2.92078">
        <ele>100.8</ele>
        <time>2021-05-29 17:47:57</time>
      </trkpt>
      <trkpt lat="43.1694" lon="-2.9208">
        <ele>101</ele>
        <time>2021-05-29 17:47:58</time>
      </trkpt>
      <trkpt lat="43.16936" lon="-2.92083">
        <ele>101.4</ele>
        <time>2021-05-29 17:47:59</time>
      </trkpt>
      <trkpt lat="43.16931" lon="-2.92085">
        <ele>102</ele>
        <time>2021-05-29 17:48:00</time>
      </trkpt>
      <trkpt lat="43.16927" lon="-2.92087">
        <ele>102.2</ele>
        <time>2021-05-29 17:48:01</time>
      </trkpt>
      <trkpt lat="43.16923" lon="-2.9209">
        <ele>102.6</ele>
        <time>2021-05-29 17:48:02</time>
      </trkpt>
      <trkpt lat="43.1692" lon="-2.92092">
        <ele>103</ele>
        <time>2021-05-29 17:48:03</time>
      </trkpt>
      <trkpt lat="43.16916" lon="-2.92094">
        <ele>103.2</ele>
        <time>2021-05-29 17:48:04</time>
      </trkpt>
      <trkpt lat="43.16912" lon="-2.92096">
        <ele>103.6</ele>
        <time>2021-05-29 17:48:05</time>
      </trkpt>
      <trkpt lat="43.16908" lon="-2.92099">
        <ele>103.8</ele>
        <time>2021-05-29 17:48:06</time>
      </trkpt>
      <trkpt lat="43.16905" lon="-2.92101">
        <ele>104.2</ele>
        <time>2021-05-29 17:48:07</time>
      </trkpt>
      <trkpt lat="43.16901" lon="-2.92103">
        <ele>104.6</ele>
        <time>2021-05-29 17:48:08</time>
      </trkpt>
      <trkpt lat="43.16897" lon="-2.92105">
        <ele>105.2</ele>
        <time>2021-05-29 17:48:09</time>
      </trkpt>
      <trkpt lat="43.16894" lon="-2.92107">
        <ele>105.4</ele>
        <time>2021-05-29 17:48:10</time>
      </trkpt>
      <trkpt lat="43.1689" lon="-2.92109">
        <ele>105.8</ele>
        <time>2021-05-29 17:48:11</time>
      </trkpt>
      <trkpt lat="43.16886" lon="-2.92111">
        <ele>106.2</ele>
        <time>2021-05-29 17:48:12</time>
      </trkpt>
      <trkpt lat="43.16883" lon="-2.92114">
        <ele>106.6</ele>
        <time>2021-05-29 17:48:13</time>
      </trkpt>
      <trkpt lat="43.16879" lon="-2.92116">
        <ele>106.8</ele>
        <time>2021-05-29 17:48:14</time>
      </trkpt>
      <trkpt lat="43.16875" lon="-2.92118">
        <ele>107</ele>
        <time>2021-05-29 17:48:15</time>
      </trkpt>
      <trkpt lat="43.16872" lon="-2.9212">
        <ele>107.2</ele>
        <time>2021-05-29 17:48:16</time>
      </trkpt>
      <trkpt lat="43.16869" lon="-2.92122">
        <ele>107.6</ele>
        <time>2021-05-29 17:48:17</time>
      </trkpt>
      <trkpt lat="43.16866" lon="-2.92124">
        <ele>107.8</ele>
        <time>2021-05-29 17:48:18</time>
      </trkpt>
      <trkpt lat="43.16863" lon="-2.92126">
        <ele>108</ele>
        <time>2021-05-29 17:48:19</time>
      </trkpt>
      <trkpt lat="43.1686" lon="-2.92128">
        <ele>108.4</ele>
        <time>2021-05-29 17:48:20</time>
      </trkpt>
      <trkpt lat="43.16857" lon="-2.9213">
        <ele>108.8</ele>
        <time>2021-05-29 17:48:21</time>
      </trkpt>
      <trkpt lat="43.16854" lon="-2.92132">
        <ele>109</ele>
        <time>2021-05-29 17:48:22</time>
      </trkpt>
      <trkpt lat="43.16851" lon="-2.92134">
        <ele>109.4</ele>
        <time>2021-05-29 17:48:23</time>
      </trkpt>
      <trkpt lat="43.16848" lon="-2.92136">
        <ele>109.8</ele>
        <time>2021-05-29 17:48:24</time>
      </trkpt>
      <trkpt lat="43.16846" lon="-2.92138">
        <ele>110.2</ele>
        <time>2021-05-29 17:48:25</time>
      </trkpt>
      <trkpt lat="43.16843" lon="-2.9214">
        <ele>110.4</ele>
        <time>2021-05-29 17:48:26</time>
      </trkpt>
      <trkpt lat="43.1684" lon="-2.92142">
        <ele>110.8</ele>
        <time>2021-05-29 17:48:27</time>
      </trkpt>
      <trkpt lat="43.16837" lon="-2.92145">
        <ele>111.6</ele>
        <time>2021-05-29 17:48:28</time>
      </trkpt>
      <trkpt lat="43.16834" lon="-2.92148">
        <ele>111.8</ele>
        <time>2021-05-29 17:48:29</time>
      </trkpt>
      <trkpt lat="43.16831" lon="-2.9215">
        <ele>112</ele>
        <time>2021-05-29 17:48:30</time>
      </trkpt>
      <trkpt lat="43.16829" lon="-2.92153">
        <ele>112.4</ele>
        <time>2021-05-29 17:48:31</time>
      </trkpt>
      <trkpt lat="43.16826" lon="-2.92156">
        <ele>112.8</ele>
        <time>2021-05-29 17:48:32</time>
      </trkpt>
      <trkpt lat="43.16824" lon="-2.92159">
        <ele>113.4</ele>
        <time>2021-05-29 17:48:33</time>
      </trkpt>
      <trkpt lat="43.16821" lon="-2.92162">
        <ele>113.8</ele>
        <time>2021-05-29 17:48:34</time>
      </trkpt>
      <trkpt lat="43.16819" lon="-2.92166">
        <ele>114.2</ele>
        <time>2021-05-29 17:48:35</time>
      </trkpt>
      <trkpt lat="43.16816" lon="-2.92169">
        <ele>114.6</ele>
        <time>2021-05-29 17:48:36</time>
      </trkpt>
      <trkpt lat="43.16814" lon="-2.92173">
        <ele>115</ele>
        <time>2021-05-29 17:48:37</time>
      </trkpt>
      <trkpt lat="43.16812" lon="-2.92176">
        <ele>115.4</ele>
        <time>2021-05-29 17:48:38</time>
      </trkpt>
      <trkpt lat="43.1681" lon="-2.9218">
        <ele>115.6</ele>
        <time>2021-05-29 17:48:39</time>
      </trkpt>
      <trkpt lat="43.16808" lon="-2.92184">
        <ele>116</ele>
        <time>2021-05-29 17:48:40</time>
      </trkpt>
      <trkpt lat="43.16807" lon="-2.92187">
        <ele>116.2</ele>
        <time>2021-05-29 17:48:41</time>
      </trkpt>
      <trkpt lat="43.16805" lon="-2.92191">
        <ele>116.4</ele>
        <time>2021-05-29 17:48:42</time>
      </trkpt>
      <trkpt lat="43.16803" lon="-2.92194">
        <ele>116.8</ele>
        <time>2021-05-29 17:48:43</time>
      </trkpt>
      <trkpt lat="43.16801" lon="-2.92198">
        <ele>117.2</ele>
        <time>2021-05-29 17:48:44</time>
      </trkpt>
      <trkpt lat="43.16799" lon="-2.92201">
        <ele>117.4</ele>
        <time>2021-05-29 17:48:45</time>
      </trkpt>
      <trkpt lat="43.16797" lon="-2.92205">
        <ele>117.8</ele>
        <time>2021-05-29 17:48:46</time>
      </trkpt>
      <trkpt lat="43.16796" lon="-2.92209">
        <ele>118</ele>
        <time>2021-05-29 17:48:47</time>
      </trkpt>
      <trkpt lat="43.16794" lon="-2.92212">
        <ele>118.4</ele>
        <time>2021-05-29 17:48:48</time>
      </trkpt>
      <trkpt lat="43.16792" lon="-2.92216">
        <ele>118.8</ele>
        <time>2021-05-29 17:48:49</time>
      </trkpt>
      <trkpt lat="43.1679" lon="-2.9222">
        <ele>119</ele>
        <time>2021-05-29 17:48:50</time>
      </trkpt>
      <trkpt lat="43.16789" lon="-2.92224">
        <ele>119.4</ele>
        <time>2021-05-29 17:48:51</time>
      </trkpt>
      <trkpt lat="43.16787" lon="-2.92227">
        <ele>119.6</ele>
        <time>2021-05-29 17:48:52</time>
      </trkpt>
      <trkpt lat="43.16785" lon="-2.92231">
        <ele>119.8</ele>
        <time>2021-05-29 17:48:53</time>
      </trkpt>
      <trkpt lat="43.16783" lon="-2.92235">
        <ele>120.2</ele>
        <time>2021-05-29 17:48:54</time>
      </trkpt>
      <trkpt lat="43.16782" lon="-2.92238">
        <ele>120.4</ele>
        <time>2021-05-29 17:48:55</time>
      </trkpt>
      <trkpt lat="43.1678" lon="-2.92242">
        <ele>120.8</ele>
        <time>2021-05-29 17:48:56</time>
      </trkpt>
      <trkpt lat="43.16778" lon="-2.92246">
        <ele>121</ele>
        <time>2021-05-29 17:48:57</time>
      </trkpt>
      <trkpt lat="43.16776" lon="-2.92249">
        <ele>121.4</ele>
        <time>2021-05-29 17:48:58</time>
      </trkpt>
      <trkpt lat="43.16774" lon="-2.92253">
        <ele>121.6</ele>
        <time>2021-05-29 17:48:59</time>
      </trkpt>
      <trkpt lat="43.16772" lon="-2.92257">
        <ele>122</ele>
        <time>2021-05-29 17:49:00</time>
      </trkpt>
      <trkpt lat="43.1677" lon="-2.9226">
        <ele>122.2</ele>
        <time>2021-05-29 17:49:01</time>
      </trkpt>
      <trkpt lat="43.16768" lon="-2.92264">
        <ele>122.6</ele>
        <time>2021-05-29 17:49:02</time>
      </trkpt>
      <trkpt lat="43.16766" lon="-2.92267">
        <ele>123.4</ele>
        <time>2021-05-29 17:49:03</time>
      </trkpt>
      <trkpt lat="43.16764" lon="-2.92271">
        <ele>123.8</ele>
        <time>2021-05-29 17:49:04</time>
      </trkpt>
      <trkpt lat="43.16762" lon="-2.92274">
        <ele>124.2</ele>
        <time>2021-05-29 17:49:05</time>
      </trkpt>
      <trkpt lat="43.16759" lon="-2.92278">
        <ele>124.6</ele>
        <time>2021-05-29 17:49:06</time>
      </trkpt>
      <trkpt lat="43.16757" lon="-2.92282">
        <ele>125</ele>
        <time>2021-05-29 17:49:07</time>
      </trkpt>
      <trkpt lat="43.16754" lon="-2.92285">
        <ele>125.2</ele>
        <time>2021-05-29 17:49:08</time>
      </trkpt>
      <trkpt lat="43.16752" lon="-2.92289">
        <ele>125.6</ele>
        <time>2021-05-29 17:49:09</time>
      </trkpt>
      <trkpt lat="43.1675" lon="-2.92292">
        <ele>125.8</ele>
        <time>2021-05-29 17:49:10</time>
      </trkpt>
      <trkpt lat="43.16747" lon="-2.92296">
        <ele>126.2</ele>
        <time>2021-05-29 17:49:11</time>
      </trkpt>
      <trkpt lat="43.16744" lon="-2.923">
        <ele>126.6</ele>
        <time>2021-05-29 17:49:12</time>
      </trkpt>
      <trkpt lat="43.16742" lon="-2.92304">
        <ele>126.8</ele>
        <time>2021-05-29 17:49:13</time>
      </trkpt>
      <trkpt lat="43.16739" lon="-2.92307">
        <ele>127</ele>
        <time>2021-05-29 17:49:14</time>
      </trkpt>
      <trkpt lat="43.16736" lon="-2.92311">
        <ele>127.4</ele>
        <time>2021-05-29 17:49:15</time>
      </trkpt>
      <trkpt lat="43.16733" lon="-2.92315">
        <ele>127.6</ele>
        <time>2021-05-29 17:49:16</time>
      </trkpt>
      <trkpt lat="43.1673" lon="-2.92319">
        <ele>128</ele>
        <time>2021-05-29 17:49:17</time>
      </trkpt>
      <trkpt lat="43.16727" lon="-2.92323">
        <ele>128.2</ele>
        <time>2021-05-29 17:49:18</time>
      </trkpt>
      <trkpt lat="43.16724" lon="-2.92327">
        <ele>128.6</ele>
        <time>2021-05-29 17:49:19</time>
      </trkpt>
      <trkpt lat="43.16721" lon="-2.92331">
        <ele>129</ele>
        <time>2021-05-29 17:49:20</time>
      </trkpt>
      <trkpt lat="43.16718" lon="-2.92335">
        <ele>129.2</ele>
        <time>2021-05-29 17:49:21</time>
      </trkpt>
      <trkpt lat="43.16715" lon="-2.9234">
        <ele>129.4</ele>
        <time>2021-05-29 17:49:22</time>
      </trkpt>
      <trkpt lat="43.16711" lon="-2.92345">
        <ele>129.8</ele>
        <time>2021-05-29 17:49:23</time>
      </trkpt>
      <trkpt lat="43.16708" lon="-2.9235">
        <ele>130</ele>
        <time>2021-05-29 17:49:24</time>
      </trkpt>
      <trkpt lat="43.16705" lon="-2.92355">
        <ele>130.2</ele>
        <time>2021-05-29 17:49:25</time>
      </trkpt>
      <trkpt lat="43.16702" lon="-2.9236">
        <ele>130.6</ele>
        <time>2021-05-29 17:49:26</time>
      </trkpt>
      <trkpt lat="43.16699" lon="-2.92366">
        <ele>130.8</ele>
        <time>2021-05-29 17:49:27</time>
      </trkpt>
      <trkpt lat="43.16696" lon="-2.92373">
        <ele>131</ele>
        <time>2021-05-29 17:49:28</time>
      </trkpt>
      <trkpt lat="43.16694" lon="-2.9238">
        <ele>131.2</ele>
        <time>2021-05-29 17:49:29</time>
      </trkpt>
      <trkpt lat="43.16691" lon="-2.92387">
        <ele>131.4</ele>
        <time>2021-05-29 17:49:30</time>
      </trkpt>
      <trkpt lat="43.16689" lon="-2.92394">
        <ele>131.6</ele>
        <time>2021-05-29 17:49:31</time>
      </trkpt>
      <trkpt lat="43.16688" lon="-2.92402">
        <ele>131.8</ele>
        <time>2021-05-29 17:49:32</time>
      </trkpt>
      <trkpt lat="43.16687" lon="-2.9241">
        <ele>132</ele>
        <time>2021-05-29 17:49:33</time>
      </trkpt>
      <trkpt lat="43.16686" lon="-2.92419">
        <ele>132</ele>
        <time>2021-05-29 17:49:34</time>
      </trkpt>
      <trkpt lat="43.16685" lon="-2.92427">
        <ele>132</ele>
        <time>2021-05-29 17:49:35</time>
      </trkpt>
      <trkpt lat="43.16684" lon="-2.92436">
        <ele>132.2</ele>
        <time>2021-05-29 17:49:36</time>
      </trkpt>
      <trkpt lat="43.16684" lon="-2.92445">
        <ele>132.2</ele>
        <time>2021-05-29 17:49:37</time>
      </trkpt>
      <trkpt lat="43.16683" lon="-2.92455">
        <ele>132.2</ele>
        <time>2021-05-29 17:49:38</time>
      </trkpt>
      <trkpt lat="43.16683" lon="-2.92465">
        <ele>132.2</ele>
        <time>2021-05-29 17:49:39</time>
      </trkpt>
      <trkpt lat="43.16682" lon="-2.92476">
        <ele>132.2</ele>
        <time>2021-05-29 17:49:40</time>
      </trkpt>
      <trkpt lat="43.16681" lon="-2.92487">
        <ele>132.2</ele>
        <time>2021-05-29 17:49:41</time>
      </trkpt>
      <trkpt lat="43.1668" lon="-2.92498">
        <ele>132.2</ele>
        <time>2021-05-29 17:49:42</time>
      </trkpt>
      <trkpt lat="43.16678" lon="-2.92509">
        <ele>132.2</ele>
        <time>2021-05-29 17:49:43</time>
      </trkpt>
      <trkpt lat="43.16676" lon="-2.92521">
        <ele>132.2</ele>
        <time>2021-05-29 17:49:44</time>
      </trkpt>
      <trkpt lat="43.16673" lon="-2.92534">
        <ele>131.8</ele>
        <time>2021-05-29 17:49:45</time>
      </trkpt>
      <trkpt lat="43.1667" lon="-2.92546">
        <ele>131.8</ele>
        <time>2021-05-29 17:49:46</time>
      </trkpt>
      <trkpt lat="43.16666" lon="-2.92559">
        <ele>131.6</ele>
        <time>2021-05-29 17:49:47</time>
      </trkpt>
      <trkpt lat="43.16662" lon="-2.92571">
        <ele>131.4</ele>
        <time>2021-05-29 17:49:48</time>
      </trkpt>
      <trkpt lat="43.16658" lon="-2.92584">
        <ele>131</ele>
        <time>2021-05-29 17:49:49</time>
      </trkpt>
      <trkpt lat="43.16654" lon="-2.92598">
        <ele>130.4</ele>
        <time>2021-05-29 17:49:50</time>
      </trkpt>
      <trkpt lat="43.16651" lon="-2.92611">
        <ele>130</ele>
        <time>2021-05-29 17:49:51</time>
      </trkpt>
      <trkpt lat="43.16646" lon="-2.92625">
        <ele>129.8</ele>
        <time>2021-05-29 17:49:52</time>
      </trkpt>
      <trkpt lat="43.16642" lon="-2.92639">
        <ele>129.4</ele>
        <time>2021-05-29 17:49:53</time>
      </trkpt>
      <trkpt lat="43.16637" lon="-2.92653">
        <ele>128.6</ele>
        <time>2021-05-29 17:49:54</time>
      </trkpt>
      <trkpt lat="43.16633" lon="-2.92668">
        <ele>128.2</ele>
        <time>2021-05-29 17:49:55</time>
      </trkpt>
      <trkpt lat="43.16628" lon="-2.92682">
        <ele>128</ele>
        <time>2021-05-29 17:49:56</time>
      </trkpt>
      <trkpt lat="43.16623" lon="-2.92697">
        <ele>127.6</ele>
        <time>2021-05-29 17:49:57</time>
      </trkpt>
      <trkpt lat="43.16618" lon="-2.92712">
        <ele>127</ele>
        <time>2021-05-29 17:49:58</time>
      </trkpt>
      <trkpt lat="43.16611" lon="-2.92727">
        <ele>126.6</ele>
        <time>2021-05-29 17:49:59</time>
      </trkpt>
      <trkpt lat="43.16605" lon="-2.92742">
        <ele>126.2</ele>
        <time>2021-05-29 17:50:00</time>
      </trkpt>
      <trkpt lat="43.16598" lon="-2.92758">
        <ele>125.6</ele>
        <time>2021-05-29 17:50:01</time>
      </trkpt>
      <trkpt lat="43.1659" lon="-2.92774">
        <ele>125.2</ele>
        <time>2021-05-29 17:50:02</time>
      </trkpt>
      <trkpt lat="43.16583" lon="-2.92789">
        <ele>124.6</ele>
        <time>2021-05-29 17:50:03</time>
      </trkpt>
      <trkpt lat="43.16576" lon="-2.92805">
        <ele>124</ele>
        <time>2021-05-29 17:50:04</time>
      </trkpt>
      <trkpt lat="43.16569" lon="-2.9282">
        <ele>123.2</ele>
        <time>2021-05-29 17:50:05</time>
      </trkpt>
      <trkpt lat="43.16561" lon="-2.92834">
        <ele>122.6</ele>
        <time>2021-05-29 17:50:06</time>
      </trkpt>
      <trkpt lat="43.16552" lon="-2.92847">
        <ele>122</ele>
        <time>2021-05-29 17:50:07</time>
      </trkpt>
      <trkpt lat="43.16543" lon="-2.92859">
        <ele>121.2</ele>
        <time>2021-05-29 17:50:08</time>
      </trkpt>
      <trkpt lat="43.16533" lon="-2.92869">
        <ele>120</ele>
        <time>2021-05-29 17:50:09</time>
      </trkpt>
      <trkpt lat="43.16524" lon="-2.92879">
        <ele>119.2</ele>
        <time>2021-05-29 17:50:10</time>
      </trkpt>
      <trkpt lat="43.16514" lon="-2.92889">
        <ele>118.4</ele>
        <time>2021-05-29 17:50:11</time>
      </trkpt>
      <trkpt lat="43.16505" lon="-2.92898">
        <ele>116.4</ele>
        <time>2021-05-29 17:50:12</time>
      </trkpt>
      <trkpt lat="43.16497" lon="-2.92907">
        <ele>115.6</ele>
        <time>2021-05-29 17:50:13</time>
      </trkpt>
      <trkpt lat="43.16488" lon="-2.92916">
        <ele>115.4</ele>
        <time>2021-05-29 17:50:14</time>
      </trkpt>
      <trkpt lat="43.1648" lon="-2.92924">
        <ele>115.2</ele>
        <time>2021-05-29 17:50:15</time>
      </trkpt>
      <trkpt lat="43.16472" lon="-2.92932">
        <ele>115</ele>
        <time>2021-05-29 17:50:16</time>
      </trkpt>
      <trkpt lat="43.16464" lon="-2.92939">
        <ele>115</ele>
        <time>2021-05-29 17:50:17</time>
      </trkpt>
      <trkpt lat="43.16457" lon="-2.92947">
        <ele>115</ele>
        <time>2021-05-29 17:50:18</time>
      </trkpt>
      <trkpt lat="43.1645" lon="-2.92954">
        <ele>115</ele>
        <time>2021-05-29 17:50:19</time>
      </trkpt>
      <trkpt lat="43.16443" lon="-2.92961">
        <ele>115</ele>
        <time>2021-05-29 17:50:20</time>
      </trkpt>
      <trkpt lat="43.16436" lon="-2.92968">
        <ele>115</ele>
        <time>2021-05-29 17:50:21</time>
      </trkpt>
      <trkpt lat="43.16429" lon="-2.92976">
        <ele>115</ele>
        <time>2021-05-29 17:50:22</time>
      </trkpt>
      <trkpt lat="43.16422" lon="-2.92983">
        <ele>115.4</ele>
        <time>2021-05-29 17:50:23</time>
      </trkpt>
      <trkpt lat="43.16415" lon="-2.9299">
        <ele>115.6</ele>
        <time>2021-05-29 17:50:24</time>
      </trkpt>
      <trkpt lat="43.16408" lon="-2.92997">
        <ele>116</ele>
        <time>2021-05-29 17:50:25</time>
      </trkpt>
      <trkpt lat="43.164" lon="-2.93004">
        <ele>116.2</ele>
        <time>2021-05-29 17:50:26</time>
      </trkpt>
      <trkpt lat="43.16392" lon="-2.93011">
        <ele>116.4</ele>
        <time>2021-05-29 17:50:27</time>
      </trkpt>
      <trkpt lat="43.16384" lon="-2.93018">
        <ele>116.4</ele>
        <time>2021-05-29 17:50:28</time>
      </trkpt>
      <trkpt lat="43.16376" lon="-2.93026">
        <ele>116.4</ele>
        <time>2021-05-29 17:50:29</time>
      </trkpt>
      <trkpt lat="43.16368" lon="-2.93033">
        <ele>116.4</ele>
        <time>2021-05-29 17:50:30</time>
      </trkpt>
      <trkpt lat="43.16358" lon="-2.9304">
        <ele>116.4</ele>
        <time>2021-05-29 17:50:31</time>
      </trkpt>
      <trkpt lat="43.16348" lon="-2.93046">
        <ele>116.4</ele>
        <time>2021-05-29 17:50:32</time>
      </trkpt>
      <trkpt lat="43.16338" lon="-2.93051">
        <ele>116.4</ele>
        <time>2021-05-29 17:50:33</time>
      </trkpt>
      <trkpt lat="43.16327" lon="-2.93056">
        <ele>116.4</ele>
        <time>2021-05-29 17:50:34</time>
      </trkpt>
      <trkpt lat="43.16315" lon="-2.93061">
        <ele>116.4</ele>
        <time>2021-05-29 17:50:35</time>
      </trkpt>
      <trkpt lat="43.16303" lon="-2.93066">
        <ele>116.4</ele>
        <time>2021-05-29 17:50:36</time>
      </trkpt>
      <trkpt lat="43.16291" lon="-2.93071">
        <ele>116</ele>
        <time>2021-05-29 17:50:37</time>
      </trkpt>
      <trkpt lat="43.16278" lon="-2.93075">
        <ele>115.6</ele>
        <time>2021-05-29 17:50:38</time>
      </trkpt>
      <trkpt lat="43.16265" lon="-2.93077">
        <ele>115.2</ele>
        <time>2021-05-29 17:50:39</time>
      </trkpt>
      <trkpt lat="43.16252" lon="-2.93078">
        <ele>114.6</ele>
        <time>2021-05-29 17:50:40</time>
      </trkpt>
      <trkpt lat="43.16239" lon="-2.93079">
        <ele>113.8</ele>
        <time>2021-05-29 17:50:41</time>
      </trkpt>
      <trkpt lat="43.16227" lon="-2.93081">
        <ele>113</ele>
        <time>2021-05-29 17:50:42</time>
      </trkpt>
      <trkpt lat="43.16215" lon="-2.93082">
        <ele>112.2</ele>
        <time>2021-05-29 17:50:43</time>
      </trkpt>
      <trkpt lat="43.16204" lon="-2.93084">
        <ele>111.4</ele>
        <time>2021-05-29 17:50:44</time>
      </trkpt>
      <trkpt lat="43.16193" lon="-2.93086">
        <ele>110.2</ele>
        <time>2021-05-29 17:50:45</time>
      </trkpt>
      <trkpt lat="43.16182" lon="-2.93088">
        <ele>109.6</ele>
        <time>2021-05-29 17:50:46</time>
      </trkpt>
      <trkpt lat="43.16172" lon="-2.93089">
        <ele>108.6</ele>
        <time>2021-05-29 17:50:47</time>
      </trkpt>
      <trkpt lat="43.16162" lon="-2.93091">
        <ele>108.6</ele>
        <time>2021-05-29 17:50:48</time>
      </trkpt>
      <trkpt lat="43.16152" lon="-2.93092">
        <ele>108.4</ele>
        <time>2021-05-29 17:50:49</time>
      </trkpt>
      <trkpt lat="43.16142" lon="-2.93094">
        <ele>108.4</ele>
        <time>2021-05-29 17:50:50</time>
      </trkpt>
      <trkpt lat="43.16133" lon="-2.93095">
        <ele>108.4</ele>
        <time>2021-05-29 17:50:51</time>
      </trkpt>
      <trkpt lat="43.16124" lon="-2.93097">
        <ele>108.4</ele>
        <time>2021-05-29 17:50:52</time>
      </trkpt>
      <trkpt lat="43.16115" lon="-2.93098">
        <ele>108.4</ele>
        <time>2021-05-29 17:50:53</time>
      </trkpt>
      <trkpt lat="43.16106" lon="-2.931">
        <ele>108.4</ele>
        <time>2021-05-29 17:50:54</time>
      </trkpt>
      <trkpt lat="43.16097" lon="-2.93101">
        <ele>108.4</ele>
        <time>2021-05-29 17:50:55</time>
      </trkpt>
      <trkpt lat="43.16089" lon="-2.93103">
        <ele>108.6</ele>
        <time>2021-05-29 17:50:56</time>
      </trkpt>
      <trkpt lat="43.16081" lon="-2.93104">
        <ele>108.8</ele>
        <time>2021-05-29 17:50:57</time>
      </trkpt>
      <trkpt lat="43.16073" lon="-2.93104">
        <ele>109</ele>
        <time>2021-05-29 17:50:58</time>
      </trkpt>
      <trkpt lat="43.16065" lon="-2.93103">
        <ele>109.2</ele>
        <time>2021-05-29 17:50:59</time>
      </trkpt>
      <trkpt lat="43.16057" lon="-2.93104">
        <ele>109.4</ele>
        <time>2021-05-29 17:51:00</time>
      </trkpt>
      <trkpt lat="43.16049" lon="-2.93104">
        <ele>109.6</ele>
        <time>2021-05-29 17:51:01</time>
      </trkpt>
      <trkpt lat="43.16042" lon="-2.93105">
        <ele>110</ele>
        <time>2021-05-29 17:51:02</time>
      </trkpt>
      <trkpt lat="43.16035" lon="-2.93105">
        <ele>110.2</ele>
        <time>2021-05-29 17:51:03</time>
      </trkpt>
      <trkpt lat="43.16028" lon="-2.93105">
        <ele>110.4</ele>
        <time>2021-05-29 17:51:04</time>
      </trkpt>
      <trkpt lat="43.16022" lon="-2.93105">
        <ele>111</ele>
        <time>2021-05-29 17:51:05</time>
      </trkpt>
      <trkpt lat="43.16016" lon="-2.93105">
        <ele>111.2</ele>
        <time>2021-05-29 17:51:06</time>
      </trkpt>
      <trkpt lat="43.1601" lon="-2.93104">
        <ele>111.6</ele>
        <time>2021-05-29 17:51:07</time>
      </trkpt>
      <trkpt lat="43.16004" lon="-2.93102">
        <ele>112</ele>
        <time>2021-05-29 17:51:08</time>
      </trkpt>
      <trkpt lat="43.15999" lon="-2.93101">
        <ele>112.2</ele>
        <time>2021-05-29 17:51:09</time>
      </trkpt>
      <trkpt lat="43.15994" lon="-2.93099">
        <ele>112.6</ele>
        <time>2021-05-29 17:51:10</time>
      </trkpt>
      <trkpt lat="43.15989" lon="-2.93097">
        <ele>113</ele>
        <time>2021-05-29 17:51:11</time>
      </trkpt>
      <trkpt lat="43.15984" lon="-2.93095">
        <ele>113.4</ele>
        <time>2021-05-29 17:51:12</time>
      </trkpt>
      <trkpt lat="43.15979" lon="-2.93093">
        <ele>113.8</ele>
        <time>2021-05-29 17:51:13</time>
      </trkpt>
      <trkpt lat="43.15974" lon="-2.93091">
        <ele>114.2</ele>
        <time>2021-05-29 17:51:14</time>
      </trkpt>
      <trkpt lat="43.15969" lon="-2.93089">
        <ele>114.8</ele>
        <time>2021-05-29 17:51:15</time>
      </trkpt>
      <trkpt lat="43.15965" lon="-2.93088">
        <ele>115.2</ele>
        <time>2021-05-29 17:51:16</time>
      </trkpt>
      <trkpt lat="43.1596" lon="-2.93086">
        <ele>115.6</ele>
        <time>2021-05-29 17:51:17</time>
      </trkpt>
      <trkpt lat="43.15955" lon="-2.93084">
        <ele>116</ele>
        <time>2021-05-29 17:51:18</time>
      </trkpt>
      <trkpt lat="43.15951" lon="-2.93081">
        <ele>116.4</ele>
        <time>2021-05-29 17:51:19</time>
      </trkpt>
      <trkpt lat="43.15946" lon="-2.9308">
        <ele>117</ele>
        <time>2021-05-29 17:51:20</time>
      </trkpt>
      <trkpt lat="43.15941" lon="-2.93078">
        <ele>118</ele>
        <time>2021-05-29 17:51:21</time>
      </trkpt>
      <trkpt lat="43.15937" lon="-2.93077">
        <ele>118.4</ele>
        <time>2021-05-29 17:51:22</time>
      </trkpt>
      <trkpt lat="43.15932" lon="-2.93077">
        <ele>118.6</ele>
        <time>2021-05-29 17:51:23</time>
      </trkpt>
      <trkpt lat="43.15927" lon="-2.93076">
        <ele>119</ele>
        <time>2021-05-29 17:51:24</time>
      </trkpt>
      <trkpt lat="43.15923" lon="-2.93076">
        <ele>119.4</ele>
        <time>2021-05-29 17:51:25</time>
      </trkpt>
      <trkpt lat="43.15918" lon="-2.93076">
        <ele>119.6</ele>
        <time>2021-05-29 17:51:26</time>
      </trkpt>
      <trkpt lat="43.15914" lon="-2.93077">
        <ele>120</ele>
        <time>2021-05-29 17:51:27</time>
      </trkpt>
      <trkpt lat="43.1591" lon="-2.93078">
        <ele>120.4</ele>
        <time>2021-05-29 17:51:28</time>
      </trkpt>
      <trkpt lat="43.15906" lon="-2.9308">
        <ele>120.6</ele>
        <time>2021-05-29 17:51:29</time>
      </trkpt>
      <trkpt lat="43.15902" lon="-2.93082">
        <ele>121</ele>
        <time>2021-05-29 17:51:30</time>
      </trkpt>
      <trkpt lat="43.15898" lon="-2.93084">
        <ele>121.4</ele>
        <time>2021-05-29 17:51:31</time>
      </trkpt>
      <trkpt lat="43.15894" lon="-2.93087">
        <ele>121.8</ele>
        <time>2021-05-29 17:51:32</time>
      </trkpt>
      <trkpt lat="43.15891" lon="-2.93091">
        <ele>122.2</ele>
        <time>2021-05-29 17:51:33</time>
      </trkpt>
      <trkpt lat="43.15887" lon="-2.93094">
        <ele>122.4</ele>
        <time>2021-05-29 17:51:34</time>
      </trkpt>
      <trkpt lat="43.15884" lon="-2.93098">
        <ele>122.8</ele>
        <time>2021-05-29 17:51:35</time>
      </trkpt>
      <trkpt lat="43.15881" lon="-2.93102">
        <ele>123.2</ele>
        <time>2021-05-29 17:51:36</time>
      </trkpt>
      <trkpt lat="43.15878" lon="-2.93106">
        <ele>123.6</ele>
        <time>2021-05-29 17:51:37</time>
      </trkpt>
      <trkpt lat="43.15876" lon="-2.9311">
        <ele>124</ele>
        <time>2021-05-29 17:51:38</time>
      </trkpt>
      <trkpt lat="43.15874" lon="-2.93114">
        <ele>124.2</ele>
        <time>2021-05-29 17:51:39</time>
      </trkpt>
      <trkpt lat="43.15872" lon="-2.93119">
        <ele>124.6</ele>
        <time>2021-05-29 17:51:40</time>
      </trkpt>
      <trkpt lat="43.15871" lon="-2.93124">
        <ele>125</ele>
        <time>2021-05-29 17:51:41</time>
      </trkpt>
      <trkpt lat="43.15869" lon="-2.93129">
        <ele>125.4</ele>
        <time>2021-05-29 17:51:42</time>
      </trkpt>
      <trkpt lat="43.15867" lon="-2.93134">
        <ele>125.8</ele>
        <time>2021-05-29 17:51:43</time>
      </trkpt>
      <trkpt lat="43.15866" lon="-2.9314">
        <ele>126.4</ele>
        <time>2021-05-29 17:51:44</time>
      </trkpt>
      <trkpt lat="43.15865" lon="-2.93145">
        <ele>126.6</ele>
        <time>2021-05-29 17:51:45</time>
      </trkpt>
      <trkpt lat="43.15863" lon="-2.93151">
        <ele>127</ele>
        <time>2021-05-29 17:51:46</time>
      </trkpt>
      <trkpt lat="43.15863" lon="-2.93157">
        <ele>127.4</ele>
        <time>2021-05-29 17:51:47</time>
      </trkpt>
      <trkpt lat="43.15862" lon="-2.93164">
        <ele>127.8</ele>
        <time>2021-05-29 17:51:48</time>
      </trkpt>
      <trkpt lat="43.15862" lon="-2.9317">
        <ele>128.2</ele>
        <time>2021-05-29 17:51:49</time>
      </trkpt>
      <trkpt lat="43.15862" lon="-2.93177">
        <ele>128.4</ele>
        <time>2021-05-29 17:51:50</time>
      </trkpt>
      <trkpt lat="43.15863" lon="-2.93183">
        <ele>128.8</ele>
        <time>2021-05-29 17:51:51</time>
      </trkpt>
      <trkpt lat="43.15864" lon="-2.93189">
        <ele>129</ele>
        <time>2021-05-29 17:51:52</time>
      </trkpt>
      <trkpt lat="43.15865" lon="-2.93195">
        <ele>129.2</ele>
        <time>2021-05-29 17:51:53</time>
      </trkpt>
      <trkpt lat="43.15866" lon="-2.93201">
        <ele>129.6</ele>
        <time>2021-05-29 17:51:54</time>
      </trkpt>
      <trkpt lat="43.15867" lon="-2.93208">
        <ele>130</ele>
        <time>2021-05-29 17:51:55</time>
      </trkpt>
      <trkpt lat="43.15869" lon="-2.93215">
        <ele>130.4</ele>
        <time>2021-05-29 17:51:56</time>
      </trkpt>
      <trkpt lat="43.15871" lon="-2.93221">
        <ele>130.6</ele>
        <time>2021-05-29 17:51:57</time>
      </trkpt>
      <trkpt lat="43.15873" lon="-2.93228">
        <ele>130.8</ele>
        <time>2021-05-29 17:51:58</time>
      </trkpt>
      <trkpt lat="43.15875" lon="-2.93235">
        <ele>131</ele>
        <time>2021-05-29 17:51:59</time>
      </trkpt>
      <trkpt lat="43.15877" lon="-2.93241">
        <ele>131.2</ele>
        <time>2021-05-29 17:52:00</time>
      </trkpt>
      <trkpt lat="43.15879" lon="-2.93248">
        <ele>131.4</ele>
        <time>2021-05-29 17:52:01</time>
      </trkpt>
      <trkpt lat="43.15881" lon="-2.93256">
        <ele>131.6</ele>
        <time>2021-05-29 17:52:02</time>
      </trkpt>
      <trkpt lat="43.15883" lon="-2.93264">
        <ele>132</ele>
        <time>2021-05-29 17:52:03</time>
      </trkpt>
      <trkpt lat="43.15885" lon="-2.93272">
        <ele>132.2</ele>
        <time>2021-05-29 17:52:04</time>
      </trkpt>
      <trkpt lat="43.15886" lon="-2.9328">
        <ele>132.2</ele>
        <time>2021-05-29 17:52:05</time>
      </trkpt>
      <trkpt lat="43.15887" lon="-2.93289">
        <ele>132.4</ele>
        <time>2021-05-29 17:52:06</time>
      </trkpt>
      <trkpt lat="43.15888" lon="-2.93298">
        <ele>132.6</ele>
        <time>2021-05-29 17:52:07</time>
      </trkpt>
      <trkpt lat="43.15889" lon="-2.93307">
        <ele>132.6</ele>
        <time>2021-05-29 17:52:08</time>
      </trkpt>
      <trkpt lat="43.15889" lon="-2.93316">
        <ele>132.8</ele>
        <time>2021-05-29 17:52:09</time>
      </trkpt>
      <trkpt lat="43.15889" lon="-2.93326">
        <ele>133.2</ele>
        <time>2021-05-29 17:52:10</time>
      </trkpt>
      <trkpt lat="43.15888" lon="-2.93335">
        <ele>133.4</ele>
        <time>2021-05-29 17:52:11</time>
      </trkpt>
      <trkpt lat="43.15887" lon="-2.93346">
        <ele>133.2</ele>
        <time>2021-05-29 17:52:12</time>
      </trkpt>
      <trkpt lat="43.15886" lon="-2.93356">
        <ele>133.4</ele>
        <time>2021-05-29 17:52:13</time>
      </trkpt>
      <trkpt lat="43.15885" lon="-2.93366">
        <ele>133.4</ele>
        <time>2021-05-29 17:52:14</time>
      </trkpt>
      <trkpt lat="43.15882" lon="-2.93377">
        <ele>133.6</ele>
        <time>2021-05-29 17:52:15</time>
      </trkpt>
      <trkpt lat="43.1588" lon="-2.93388">
        <ele>133.4</ele>
        <time>2021-05-29 17:52:16</time>
      </trkpt>
      <trkpt lat="43.15877" lon="-2.93399">
        <ele>133.6</ele>
        <time>2021-05-29 17:52:17</time>
      </trkpt>
      <trkpt lat="43.15874" lon="-2.9341">
        <ele>133.6</ele>
        <time>2021-05-29 17:52:18</time>
      </trkpt>
      <trkpt lat="43.1587" lon="-2.93423">
        <ele>133.6</ele>
        <time>2021-05-29 17:52:19</time>
      </trkpt>
      <trkpt lat="43.15866" lon="-2.93435">
        <ele>133.6</ele>
        <time>2021-05-29 17:52:20</time>
      </trkpt>
      <trkpt lat="43.15862" lon="-2.93448">
        <ele>133.2</ele>
        <time>2021-05-29 17:52:21</time>
      </trkpt>
      <trkpt lat="43.15857" lon="-2.93461">
        <ele>133.2</ele>
        <time>2021-05-29 17:52:22</time>
      </trkpt>
      <trkpt lat="43.15853" lon="-2.93474">
        <ele>132.6</ele>
        <time>2021-05-29 17:52:23</time>
      </trkpt>
      <trkpt lat="43.15848" lon="-2.93487">
        <ele>132.4</ele>
        <time>2021-05-29 17:52:24</time>
      </trkpt>
      <trkpt lat="43.15843" lon="-2.935">
        <ele>132</ele>
        <time>2021-05-29 17:52:25</time>
      </trkpt>
      <trkpt lat="43.15838" lon="-2.93514">
        <ele>131.8</ele>
        <time>2021-05-29 17:52:26</time>
      </trkpt>
      <trkpt lat="43.15833" lon="-2.93528">
        <ele>131.4</ele>
        <time>2021-05-29 17:52:27</time>
      </trkpt>
      <trkpt lat="43.15828" lon="-2.93541">
        <ele>130.8</ele>
        <time>2021-05-29 17:52:28</time>
      </trkpt>
      <trkpt lat="43.15823" lon="-2.93555">
        <ele>130.4</ele>
        <time>2021-05-29 17:52:29</time>
      </trkpt>
      <trkpt lat="43.15818" lon="-2.9357">
        <ele>129.6</ele>
        <time>2021-05-29 17:52:30</time>
      </trkpt>
      <trkpt lat="43.15812" lon="-2.93584">
        <ele>129.2</ele>
        <time>2021-05-29 17:52:31</time>
      </trkpt>
      <trkpt lat="43.15807" lon="-2.93598">
        <ele>128.8</ele>
        <time>2021-05-29 17:52:32</time>
      </trkpt>
      <trkpt lat="43.15801" lon="-2.93612">
        <ele>128.6</ele>
        <time>2021-05-29 17:52:33</time>
      </trkpt>
      <trkpt lat="43.15794" lon="-2.93627">
        <ele>128.4</ele>
        <time>2021-05-29 17:52:34</time>
      </trkpt>
      <trkpt lat="43.15787" lon="-2.93641">
        <ele>128.2</ele>
        <time>2021-05-29 17:52:35</time>
      </trkpt>
      <trkpt lat="43.1578" lon="-2.93656">
        <ele>128</ele>
        <time>2021-05-29 17:52:36</time>
      </trkpt>
      <trkpt lat="43.15773" lon="-2.93672">
        <ele>127.8</ele>
        <time>2021-05-29 17:52:37</time>
      </trkpt>
      <trkpt lat="43.15766" lon="-2.93688">
        <ele>127.6</ele>
        <time>2021-05-29 17:52:38</time>
      </trkpt>
      <trkpt lat="43.15758" lon="-2.93704">
        <ele>127.4</ele>
        <time>2021-05-29 17:52:39</time>
      </trkpt>
      <trkpt lat="43.15751" lon="-2.93721">
        <ele>126.8</ele>
        <time>2021-05-29 17:52:40</time>
      </trkpt>
      <trkpt lat="43.15743" lon="-2.93738">
        <ele>126.4</ele>
        <time>2021-05-29 17:52:41</time>
      </trkpt>
      <trkpt lat="43.15736" lon="-2.93755">
        <ele>125.6</ele>
        <time>2021-05-29 17:52:42</time>
      </trkpt>
      <trkpt lat="43.15729" lon="-2.93773">
        <ele>125</ele>
        <time>2021-05-29 17:52:43</time>
      </trkpt>
      <trkpt lat="43.15723" lon="-2.93792">
        <ele>124.4</ele>
        <time>2021-05-29 17:52:44</time>
      </trkpt>
      <trkpt lat="43.15715" lon="-2.9381">
        <ele>123.6</ele>
        <time>2021-05-29 17:52:45</time>
      </trkpt>
      <trkpt lat="43.15707" lon="-2.93827">
        <ele>122.8</ele>
        <time>2021-05-29 17:52:46</time>
      </trkpt>
      <trkpt lat="43.15698" lon="-2.93844">
        <ele>122.2</ele>
        <time>2021-05-29 17:52:47</time>
      </trkpt>
      <trkpt lat="43.15688" lon="-2.93859">
        <ele>121.2</ele>
        <time>2021-05-29 17:52:48</time>
      </trkpt>
      <trkpt lat="43.15678" lon="-2.93874">
        <ele>120.2</ele>
        <time>2021-05-29 17:52:49</time>
      </trkpt>
      <trkpt lat="43.15668" lon="-2.93887">
        <ele>119</ele>
        <time>2021-05-29 17:52:50</time>
      </trkpt>
      <trkpt lat="43.15658" lon="-2.939">
        <ele>117.8</ele>
        <time>2021-05-29 17:52:51</time>
      </trkpt>
      <trkpt lat="43.15647" lon="-2.93912">
        <ele>116.8</ele>
        <time>2021-05-29 17:52:52</time>
      </trkpt>
      <trkpt lat="43.15638" lon="-2.93924">
        <ele>115.4</ele>
        <time>2021-05-29 17:52:53</time>
      </trkpt>
      <trkpt lat="43.15628" lon="-2.93935">
        <ele>114.8</ele>
        <time>2021-05-29 17:52:54</time>
      </trkpt>
      <trkpt lat="43.15619" lon="-2.93946">
        <ele>114.4</ele>
        <time>2021-05-29 17:52:55</time>
      </trkpt>
      <trkpt lat="43.1561" lon="-2.93956">
        <ele>114</ele>
        <time>2021-05-29 17:52:56</time>
      </trkpt>
      <trkpt lat="43.15602" lon="-2.93966">
        <ele>114</ele>
        <time>2021-05-29 17:52:57</time>
      </trkpt>
      <trkpt lat="43.15593" lon="-2.93975">
        <ele>114</ele>
        <time>2021-05-29 17:52:58</time>
      </trkpt>
      <trkpt lat="43.15584" lon="-2.93985">
        <ele>114</ele>
        <time>2021-05-29 17:52:59</time>
      </trkpt>
      <trkpt lat="43.15576" lon="-2.93994">
        <ele>114</ele>
        <time>2021-05-29 17:53:00</time>
      </trkpt>
      <trkpt lat="43.15568" lon="-2.94003">
        <ele>114</ele>
        <time>2021-05-29 17:53:01</time>
      </trkpt>
      <trkpt lat="43.1556" lon="-2.94011">
        <ele>113.8</ele>
        <time>2021-05-29 17:53:02</time>
      </trkpt>
      <trkpt lat="43.15551" lon="-2.9402">
        <ele>113.8</ele>
        <time>2021-05-29 17:53:03</time>
      </trkpt>
      <trkpt lat="43.15543" lon="-2.94028">
        <ele>114</ele>
        <time>2021-05-29 17:53:04</time>
      </trkpt>
      <trkpt lat="43.15534" lon="-2.94036">
        <ele>114.6</ele>
        <time>2021-05-29 17:53:05</time>
      </trkpt>
      <trkpt lat="43.15525" lon="-2.94043">
        <ele>114.6</ele>
        <time>2021-05-29 17:53:06</time>
      </trkpt>
      <trkpt lat="43.15515" lon="-2.9405">
        <ele>114.6</ele>
        <time>2021-05-29 17:53:07</time>
      </trkpt>
      <trkpt lat="43.15506" lon="-2.94057">
        <ele>114.6</ele>
        <time>2021-05-29 17:53:08</time>
      </trkpt>
      <trkpt lat="43.15496" lon="-2.94062">
        <ele>114.6</ele>
        <time>2021-05-29 17:53:09</time>
      </trkpt>
      <trkpt lat="43.15486" lon="-2.94067">
        <ele>114.6</ele>
        <time>2021-05-29 17:53:10</time>
      </trkpt>
      <trkpt lat="43.15476" lon="-2.94072">
        <ele>114.6</ele>
        <time>2021-05-29 17:53:11</time>
      </trkpt>
      <trkpt lat="43.15466" lon="-2.94076">
        <ele>114.6</ele>
        <time>2021-05-29 17:53:12</time>
      </trkpt>
      <trkpt lat="43.15455" lon="-2.9408">
        <ele>114.6</ele>
        <time>2021-05-29 17:53:13</time>
      </trkpt>
      <trkpt lat="43.15445" lon="-2.94083">
        <ele>114.6</ele>
        <time>2021-05-29 17:53:14</time>
      </trkpt>
      <trkpt lat="43.15434" lon="-2.94086">
        <ele>114.4</ele>
        <time>2021-05-29 17:53:15</time>
      </trkpt>
      <trkpt lat="43.15423" lon="-2.94089">
        <ele>114.2</ele>
        <time>2021-05-29 17:53:16</time>
      </trkpt>
      <trkpt lat="43.15412" lon="-2.94092">
        <ele>113.8</ele>
        <time>2021-05-29 17:53:17</time>
      </trkpt>
      <trkpt lat="43.15401" lon="-2.94094">
        <ele>113.6</ele>
        <time>2021-05-29 17:53:18</time>
      </trkpt>
      <trkpt lat="43.1539" lon="-2.94097">
        <ele>113</ele>
        <time>2021-05-29 17:53:19</time>
      </trkpt>
      <trkpt lat="43.15378" lon="-2.94099">
        <ele>112.6</ele>
        <time>2021-05-29 17:53:20</time>
      </trkpt>
      <trkpt lat="43.15367" lon="-2.94101">
        <ele>112.4</ele>
        <time>2021-05-29 17:53:21</time>
      </trkpt>
      <trkpt lat="43.15356" lon="-2.94103">
        <ele>112.2</ele>
        <time>2021-05-29 17:53:22</time>
      </trkpt>
      <trkpt lat="43.15345" lon="-2.94105">
        <ele>112</ele>
        <time>2021-05-29 17:53:23</time>
      </trkpt>
      <trkpt lat="43.15333" lon="-2.94107">
        <ele>111.8</ele>
        <time>2021-05-29 17:53:24</time>
      </trkpt>
      <trkpt lat="43.15322" lon="-2.94108">
        <ele>111.8</ele>
        <time>2021-05-29 17:53:25</time>
      </trkpt>
      <trkpt lat="43.15312" lon="-2.9411">
        <ele>111.6</ele>
        <time>2021-05-29 17:53:26</time>
      </trkpt>
      <trkpt lat="43.15301" lon="-2.94111">
        <ele>111.4</ele>
        <time>2021-05-29 17:53:27</time>
      </trkpt>
      <trkpt lat="43.1529" lon="-2.94113">
        <ele>111.4</ele>
        <time>2021-05-29 17:53:28</time>
      </trkpt>
      <trkpt lat="43.1528" lon="-2.94114">
        <ele>111.2</ele>
        <time>2021-05-29 17:53:29</time>
      </trkpt>
      <trkpt lat="43.15269" lon="-2.94115">
        <ele>111.2</ele>
        <time>2021-05-29 17:53:30</time>
      </trkpt>
      <trkpt lat="43.15259" lon="-2.94116">
        <ele>111.2</ele>
        <time>2021-05-29 17:53:31</time>
      </trkpt>
      <trkpt lat="43.15248" lon="-2.94117">
        <ele>111.2</ele>
        <time>2021-05-29 17:53:32</time>
      </trkpt>
      <trkpt lat="43.15237" lon="-2.94117">
        <ele>111.2</ele>
        <time>2021-05-29 17:53:33</time>
      </trkpt>
      <trkpt lat="43.15227" lon="-2.94117">
        <ele>111.2</ele>
        <time>2021-05-29 17:53:34</time>
      </trkpt>
      <trkpt lat="43.15216" lon="-2.94116">
        <ele>111.2</ele>
        <time>2021-05-29 17:53:35</time>
      </trkpt>
      <trkpt lat="43.15206" lon="-2.94114">
        <ele>111.2</ele>
        <time>2021-05-29 17:53:36</time>
      </trkpt>
      <trkpt lat="43.15195" lon="-2.94113">
        <ele>111.2</ele>
        <time>2021-05-29 17:53:37</time>
      </trkpt>
      <trkpt lat="43.15185" lon="-2.94109">
        <ele>111.2</ele>
        <time>2021-05-29 17:53:38</time>
      </trkpt>
      <trkpt lat="43.15175" lon="-2.94106">
        <ele>111.2</ele>
        <time>2021-05-29 17:53:39</time>
      </trkpt>
      <trkpt lat="43.15164" lon="-2.94104">
        <ele>111.2</ele>
        <time>2021-05-29 17:53:40</time>
      </trkpt>
      <trkpt lat="43.15154" lon="-2.94102">
        <ele>111.2</ele>
        <time>2021-05-29 17:53:41</time>
      </trkpt>
      <trkpt lat="43.15144" lon="-2.941">
        <ele>111.4</ele>
        <time>2021-05-29 17:53:42</time>
      </trkpt>
      <trkpt lat="43.15133" lon="-2.94099">
        <ele>111.4</ele>
        <time>2021-05-29 17:53:43</time>
      </trkpt>
      <trkpt lat="43.15123" lon="-2.94097">
        <ele>111.4</ele>
        <time>2021-05-29 17:53:44</time>
      </trkpt>
      <trkpt lat="43.15113" lon="-2.94097">
        <ele>111.4</ele>
        <time>2021-05-29 17:53:45</time>
      </trkpt>
      <trkpt lat="43.15103" lon="-2.94098">
        <ele>111.6</ele>
        <time>2021-05-29 17:53:46</time>
      </trkpt>
      <trkpt lat="43.15094" lon="-2.94101">
        <ele>111.6</ele>
        <time>2021-05-29 17:53:47</time>
      </trkpt>
      <trkpt lat="43.15085" lon="-2.94105">
        <ele>111.8</ele>
        <time>2021-05-29 17:53:48</time>
      </trkpt>
      <trkpt lat="43.15076" lon="-2.9411">
        <ele>112</ele>
        <time>2021-05-29 17:53:49</time>
      </trkpt>
      <trkpt lat="43.15068" lon="-2.94116">
        <ele>112</ele>
        <time>2021-05-29 17:53:50</time>
      </trkpt>
      <trkpt lat="43.1506" lon="-2.94122">
        <ele>112</ele>
        <time>2021-05-29 17:53:51</time>
      </trkpt>
      <trkpt lat="43.15053" lon="-2.9413">
        <ele>112</ele>
        <time>2021-05-29 17:53:52</time>
      </trkpt>
      <trkpt lat="43.15047" lon="-2.94138">
        <ele>112</ele>
        <time>2021-05-29 17:53:53</time>
      </trkpt>
      <trkpt lat="43.15041" lon="-2.94146">
        <ele>112.2</ele>
        <time>2021-05-29 17:53:54</time>
      </trkpt>
      <trkpt lat="43.15034" lon="-2.94152">
        <ele>112.2</ele>
        <time>2021-05-29 17:53:55</time>
      </trkpt>
      <trkpt lat="43.15026" lon="-2.94157">
        <ele>112.2</ele>
        <time>2021-05-29 17:53:56</time>
      </trkpt>
      <trkpt lat="43.15017" lon="-2.9416">
        <ele>112.2</ele>
        <time>2021-05-29 17:53:57</time>
      </trkpt>
      <trkpt lat="43.15008" lon="-2.9416">
        <ele>112.2</ele>
        <time>2021-05-29 17:53:58</time>
      </trkpt>
      <trkpt lat="43.14999" lon="-2.94159">
        <ele>112.4</ele>
        <time>2021-05-29 17:53:59</time>
      </trkpt>
      <trkpt lat="43.14991" lon="-2.94156">
        <ele>112.4</ele>
        <time>2021-05-29 17:54:00</time>
      </trkpt>
      <trkpt lat="43.14982" lon="-2.94153">
        <ele>112.4</ele>
        <time>2021-05-29 17:54:01</time>
      </trkpt>
      <trkpt lat="43.14973" lon="-2.94149">
        <ele>112.4</ele>
        <time>2021-05-29 17:54:02</time>
      </trkpt>
      <trkpt lat="43.14965" lon="-2.94145">
        <ele>112.8</ele>
        <time>2021-05-29 17:54:03</time>
      </trkpt>
      <trkpt lat="43.14956" lon="-2.94141">
        <ele>112.8</ele>
        <time>2021-05-29 17:54:04</time>
      </trkpt>
      <trkpt lat="43.14948" lon="-2.94137">
        <ele>113</ele>
        <time>2021-05-29 17:54:05</time>
      </trkpt>
      <trkpt lat="43.14939" lon="-2.94134">
        <ele>113</ele>
        <time>2021-05-29 17:54:06</time>
      </trkpt>
      <trkpt lat="43.14931" lon="-2.9413">
        <ele>113</ele>
        <time>2021-05-29 17:54:07</time>
      </trkpt>
      <trkpt lat="43.14922" lon="-2.94126">
        <ele>113</ele>
        <time>2021-05-29 17:54:08</time>
      </trkpt>
      <trkpt lat="43.14914" lon="-2.94122">
        <ele>113</ele>
        <time>2021-05-29 17:54:09</time>
      </trkpt>
      <trkpt lat="43.14906" lon="-2.94117">
        <ele>113.2</ele>
        <time>2021-05-29 17:54:10</time>
      </trkpt>
      <trkpt lat="43.14898" lon="-2.94113">
        <ele>113.2</ele>
        <time>2021-05-29 17:54:11</time>
      </trkpt>
      <trkpt lat="43.1489" lon="-2.94107">
        <ele>113.2</ele>
        <time>2021-05-29 17:54:12</time>
      </trkpt>
      <trkpt lat="43.14882" lon="-2.94101">
        <ele>113.4</ele>
        <time>2021-05-29 17:54:13</time>
      </trkpt>
      <trkpt lat="43.14875" lon="-2.94093">
        <ele>113.4</ele>
        <time>2021-05-29 17:54:14</time>
      </trkpt>
      <trkpt lat="43.14869" lon="-2.94085">
        <ele>113.4</ele>
        <time>2021-05-29 17:54:15</time>
      </trkpt>
      <trkpt lat="43.14862" lon="-2.94075">
        <ele>113.4</ele>
        <time>2021-05-29 17:54:16</time>
      </trkpt>
      <trkpt lat="43.14856" lon="-2.94065">
        <ele>113.4</ele>
        <time>2021-05-29 17:54:17</time>
      </trkpt>
      <trkpt lat="43.14849" lon="-2.94056">
        <ele>113.6</ele>
        <time>2021-05-29 17:54:18</time>
      </trkpt>
      <trkpt lat="43.14842" lon="-2.94048">
        <ele>113.6</ele>
        <time>2021-05-29 17:54:19</time>
      </trkpt>
      <trkpt lat="43.14834" lon="-2.9404">
        <ele>113.6</ele>
        <time>2021-05-29 17:54:20</time>
      </trkpt>
      <trkpt lat="43.14825" lon="-2.94036">
        <ele>113.6</ele>
        <time>2021-05-29 17:54:21</time>
      </trkpt>
      <trkpt lat="43.14816" lon="-2.94033">
        <ele>113.6</ele>
        <time>2021-05-29 17:54:22</time>
      </trkpt>
      <trkpt lat="43.14807" lon="-2.94033">
        <ele>113.6</ele>
        <time>2021-05-29 17:54:23</time>
      </trkpt>
      <trkpt lat="43.14798" lon="-2.94034">
        <ele>113.6</ele>
        <time>2021-05-29 17:54:24</time>
      </trkpt>
      <trkpt lat="43.14789" lon="-2.94035">
        <ele>113.6</ele>
        <time>2021-05-29 17:54:25</time>
      </trkpt>
      <trkpt lat="43.14781" lon="-2.94037">
        <ele>113.6</ele>
        <time>2021-05-29 17:54:26</time>
      </trkpt>
      <trkpt lat="43.14772" lon="-2.94038">
        <ele>113.6</ele>
        <time>2021-05-29 17:54:27</time>
      </trkpt>
      <trkpt lat="43.14764" lon="-2.94039">
        <ele>113.6</ele>
        <time>2021-05-29 17:54:28</time>
      </trkpt>
      <trkpt lat="43.14756" lon="-2.94041">
        <ele>113.8</ele>
        <time>2021-05-29 17:54:29</time>
      </trkpt>
      <trkpt lat="43.14748" lon="-2.94042">
        <ele>113.8</ele>
        <time>2021-05-29 17:54:30</time>
      </trkpt>
      <trkpt lat="43.14741" lon="-2.94044">
        <ele>113.8</ele>
        <time>2021-05-29 17:54:31</time>
      </trkpt>
      <trkpt lat="43.14734" lon="-2.94046">
        <ele>113.8</ele>
        <time>2021-05-29 17:54:32</time>
      </trkpt>
      <trkpt lat="43.14728" lon="-2.94048">
        <ele>113.8</ele>
        <time>2021-05-29 17:54:33</time>
      </trkpt>
      <trkpt lat="43.14722" lon="-2.94052">
        <ele>113.8</ele>
        <time>2021-05-29 17:54:34</time>
      </trkpt>
      <trkpt lat="43.14718" lon="-2.94056">
        <ele>113.8</ele>
        <time>2021-05-29 17:54:35</time>
      </trkpt>
      <trkpt lat="43.14713" lon="-2.94061">
        <ele>114</ele>
        <time>2021-05-29 17:54:36</time>
      </trkpt>
      <trkpt lat="43.14708" lon="-2.94066">
        <ele>114.2</ele>
        <time>2021-05-29 17:54:37</time>
      </trkpt>
      <trkpt lat="43.14703" lon="-2.94072">
        <ele>114.8</ele>
        <time>2021-05-29 17:54:38</time>
      </trkpt>
      <trkpt lat="43.14698" lon="-2.94078">
        <ele>115.4</ele>
        <time>2021-05-29 17:54:39</time>
      </trkpt>
      <trkpt lat="43.14694" lon="-2.94084">
        <ele>115.8</ele>
        <time>2021-05-29 17:54:40</time>
      </trkpt>
      <trkpt lat="43.14689" lon="-2.94089">
        <ele>116.4</ele>
        <time>2021-05-29 17:54:41</time>
      </trkpt>
      <trkpt lat="43.14685" lon="-2.94095">
        <ele>117</ele>
        <time>2021-05-29 17:54:42</time>
      </trkpt>
      <trkpt lat="43.14681" lon="-2.94102">
        <ele>117.8</ele>
        <time>2021-05-29 17:54:43</time>
      </trkpt>
      <trkpt lat="43.14679" lon="-2.9411">
        <ele>118.4</ele>
        <time>2021-05-29 17:54:44</time>
      </trkpt>
      <trkpt lat="43.14676" lon="-2.94118">
        <ele>119</ele>
        <time>2021-05-29 17:54:45</time>
      </trkpt>
      <trkpt lat="43.14675" lon="-2.94128">
        <ele>119.6</ele>
        <time>2021-05-29 17:54:46</time>
      </trkpt>
      <trkpt lat="43.14675" lon="-2.94137">
        <ele>120</ele>
        <time>2021-05-29 17:54:47</time>
      </trkpt>
      <trkpt lat="43.14677" lon="-2.94148">
        <ele>121</ele>
        <time>2021-05-29 17:54:48</time>
      </trkpt>
      <trkpt lat="43.14679" lon="-2.94158">
        <ele>121.4</ele>
        <time>2021-05-29 17:54:49</time>
      </trkpt>
      <trkpt lat="43.14681" lon="-2.94169">
        <ele>121.4</ele>
        <time>2021-05-29 17:54:50</time>
      </trkpt>
      <trkpt lat="43.14684" lon="-2.94181">
        <ele>121.4</ele>
        <time>2021-05-29 17:54:51</time>
      </trkpt>
      <trkpt lat="43.14686" lon="-2.94192">
        <ele>121.6</ele>
        <time>2021-05-29 17:54:52</time>
      </trkpt>
      <trkpt lat="43.14688" lon="-2.94205">
        <ele>121.6</ele>
        <time>2021-05-29 17:54:53</time>
      </trkpt>
      <trkpt lat="43.14691" lon="-2.94217">
        <ele>121.6</ele>
        <time>2021-05-29 17:54:54</time>
      </trkpt>
      <trkpt lat="43.14694" lon="-2.9423">
        <ele>121.6</ele>
        <time>2021-05-29 17:54:55</time>
      </trkpt>
      <trkpt lat="43.14696" lon="-2.94242">
        <ele>121.6</ele>
        <time>2021-05-29 17:54:56</time>
      </trkpt>
      <trkpt lat="43.14699" lon="-2.94255">
        <ele>121.6</ele>
        <time>2021-05-29 17:54:57</time>
      </trkpt>
      <trkpt lat="43.14702" lon="-2.94268">
        <ele>121.2</ele>
        <time>2021-05-29 17:54:58</time>
      </trkpt>
      <trkpt lat="43.14704" lon="-2.9428">
        <ele>121</ele>
        <time>2021-05-29 17:54:59</time>
      </trkpt>
      <trkpt lat="43.14705" lon="-2.94293">
        <ele>120.8</ele>
        <time>2021-05-29 17:55:00</time>
      </trkpt>
      <trkpt lat="43.14702" lon="-2.94303">
        <ele>120.4</ele>
        <time>2021-05-29 17:55:01</time>
      </trkpt>
      <trkpt lat="43.14697" lon="-2.94311">
        <ele>119.8</ele>
        <time>2021-05-29 17:55:02</time>
      </trkpt>
      <trkpt lat="43.14689" lon="-2.94316">
        <ele>119.4</ele>
        <time>2021-05-29 17:55:03</time>
      </trkpt>
      <trkpt lat="43.14681" lon="-2.94321">
        <ele>119</ele>
        <time>2021-05-29 17:55:04</time>
      </trkpt>
      <trkpt lat="43.14672" lon="-2.94325">
        <ele>118.6</ele>
        <time>2021-05-29 17:55:05</time>
      </trkpt>
      <trkpt lat="43.14663" lon="-2.94329">
        <ele>118.4</ele>
        <time>2021-05-29 17:55:06</time>
      </trkpt>
      <trkpt lat="43.14653" lon="-2.94332">
        <ele>118.4</ele>
        <time>2021-05-29 17:55:07</time>
      </trkpt>
      <trkpt lat="43.14644" lon="-2.94335">
        <ele>118.2</ele>
        <time>2021-05-29 17:55:08</time>
      </trkpt>
      <trkpt lat="43.14635" lon="-2.94336">
        <ele>118.2</ele>
        <time>2021-05-29 17:55:09</time>
      </trkpt>
      <trkpt lat="43.14626" lon="-2.94333">
        <ele>118</ele>
        <time>2021-05-29 17:55:10</time>
      </trkpt>
      <trkpt lat="43.14618" lon="-2.94327">
        <ele>118</ele>
        <time>2021-05-29 17:55:11</time>
      </trkpt>
      <trkpt lat="43.1461" lon="-2.9432">
        <ele>117.8</ele>
        <time>2021-05-29 17:55:12</time>
      </trkpt>
      <trkpt lat="43.14603" lon="-2.94311">
        <ele>117.8</ele>
        <time>2021-05-29 17:55:13</time>
      </trkpt>
      <trkpt lat="43.14596" lon="-2.94302">
        <ele>117.6</ele>
        <time>2021-05-29 17:55:14</time>
      </trkpt>
      <trkpt lat="43.14589" lon="-2.94294">
        <ele>117.6</ele>
        <time>2021-05-29 17:55:15</time>
      </trkpt>
      <trkpt lat="43.14582" lon="-2.94286">
        <ele>117.6</ele>
        <time>2021-05-29 17:55:16</time>
      </trkpt>
      <trkpt lat="43.14575" lon="-2.94279">
        <ele>117.4</ele>
        <time>2021-05-29 17:55:17</time>
      </trkpt>
      <trkpt lat="43.14568" lon="-2.94271">
        <ele>117.4</ele>
        <time>2021-05-29 17:55:18</time>
      </trkpt>
      <trkpt lat="43.14561" lon="-2.94264">
        <ele>117.2</ele>
        <time>2021-05-29 17:55:19</time>
      </trkpt>
      <trkpt lat="43.14554" lon="-2.94257">
        <ele>117</ele>
        <time>2021-05-29 17:55:20</time>
      </trkpt>
      <trkpt lat="43.14546" lon="-2.94251">
        <ele>116.6</ele>
        <time>2021-05-29 17:55:21</time>
      </trkpt>
      <trkpt lat="43.14538" lon="-2.94246">
        <ele>116.4</ele>
        <time>2021-05-29 17:55:22</time>
      </trkpt>
      <trkpt lat="43.14529" lon="-2.9424">
        <ele>116.2</ele>
        <time>2021-05-29 17:55:23</time>
      </trkpt>
      <trkpt lat="43.14521" lon="-2.94235">
        <ele>116.2</ele>
        <time>2021-05-29 17:55:24</time>
      </trkpt>
      <trkpt lat="43.14513" lon="-2.94229">
        <ele>116.2</ele>
        <time>2021-05-29 17:55:25</time>
      </trkpt>
      <trkpt lat="43.14505" lon="-2.94224">
        <ele>116.2</ele>
        <time>2021-05-29 17:55:26</time>
      </trkpt>
      <trkpt lat="43.14497" lon="-2.94218">
        <ele>116.2</ele>
        <time>2021-05-29 17:55:27</time>
      </trkpt>
      <trkpt lat="43.14489" lon="-2.94212">
        <ele>116</ele>
        <time>2021-05-29 17:55:28</time>
      </trkpt>
      <trkpt lat="43.14481" lon="-2.94206">
        <ele>116</ele>
        <time>2021-05-29 17:55:29</time>
      </trkpt>
      <trkpt lat="43.14474" lon="-2.942">
        <ele>116</ele>
        <time>2021-05-29 17:55:30</time>
      </trkpt>
      <trkpt lat="43.14466" lon="-2.94194">
        <ele>116</ele>
        <time>2021-05-29 17:55:31</time>
      </trkpt>
      <trkpt lat="43.14458" lon="-2.94187">
        <ele>116</ele>
        <time>2021-05-29 17:55:32</time>
      </trkpt>
      <trkpt lat="43.14451" lon="-2.94181">
        <ele>116</ele>
        <time>2021-05-29 17:55:33</time>
      </trkpt>
      <trkpt lat="43.14443" lon="-2.94176">
        <ele>116</ele>
        <time>2021-05-29 17:55:34</time>
      </trkpt>
      <trkpt lat="43.14436" lon="-2.94171">
        <ele>116</ele>
        <time>2021-05-29 17:55:35</time>
      </trkpt>
      <trkpt lat="43.14429" lon="-2.94166">
        <ele>116</ele>
        <time>2021-05-29 17:55:36</time>
      </trkpt>
      <trkpt lat="43.14422" lon="-2.94162">
        <ele>116</ele>
        <time>2021-05-29 17:55:37</time>
      </trkpt>
      <trkpt lat="43.14415" lon="-2.94157">
        <ele>116</ele>
        <time>2021-05-29 17:55:38</time>
      </trkpt>
      <trkpt lat="43.14408" lon="-2.94152">
        <ele>116.2</ele>
        <time>2021-05-29 17:55:39</time>
      </trkpt>
      <trkpt lat="43.14401" lon="-2.94148">
        <ele>116.2</ele>
        <time>2021-05-29 17:55:40</time>
      </trkpt>
      <trkpt lat="43.14393" lon="-2.94143">
        <ele>116.2</ele>
        <time>2021-05-29 17:55:41</time>
      </trkpt>
      <trkpt lat="43.14386" lon="-2.94138">
        <ele>116.4</ele>
        <time>2021-05-29 17:55:42</time>
      </trkpt>
      <trkpt lat="43.14379" lon="-2.94133">
        <ele>116.6</ele>
        <time>2021-05-29 17:55:43</time>
      </trkpt>
      <trkpt lat="43.14372" lon="-2.94129">
        <ele>116.8</ele>
        <time>2021-05-29 17:55:44</time>
      </trkpt>
      <trkpt lat="43.14365" lon="-2.94124">
        <ele>116.8</ele>
        <time>2021-05-29 17:55:45</time>
      </trkpt>
      <trkpt lat="43.14358" lon="-2.94119">
        <ele>117</ele>
        <time>2021-05-29 17:55:46</time>
      </trkpt>
      <trkpt lat="43.14352" lon="-2.94114">
        <ele>117</ele>
        <time>2021-05-29 17:55:47</time>
      </trkpt>
      <trkpt lat="43.14344" lon="-2.9411">
        <ele>117</ele>
        <time>2021-05-29 17:55:48</time>
      </trkpt>
      <trkpt lat="43.14338" lon="-2.94105">
        <ele>117</ele>
        <time>2021-05-29 17:55:49</time>
      </trkpt>
      <trkpt lat="43.14331" lon="-2.941">
        <ele>117.2</ele>
        <time>2021-05-29 17:55:50</time>
      </trkpt>
      <trkpt lat="43.14324" lon="-2.94095">
        <ele>117.2</ele>
        <time>2021-05-29 17:55:51</time>
      </trkpt>
      <trkpt lat="43.14317" lon="-2.9409">
        <ele>117.2</ele>
        <time>2021-05-29 17:55:52</time>
      </trkpt>
      <trkpt lat="43.1431" lon="-2.94085">
        <ele>117.4</ele>
        <time>2021-05-29 17:55:53</time>
      </trkpt>
      <trkpt lat="43.14304" lon="-2.94081">
        <ele>117.4</ele>
        <time>2021-05-29 17:55:54</time>
      </trkpt>
      <trkpt lat="43.14297" lon="-2.94076">
        <ele>117.6</ele>
        <time>2021-05-29 17:55:55</time>
      </trkpt>
      <trkpt lat="43.14291" lon="-2.94072">
        <ele>117.8</ele>
        <time>2021-05-29 17:55:56</time>
      </trkpt>
      <trkpt lat="43.14284" lon="-2.94067">
        <ele>118</ele>
        <time>2021-05-29 17:55:57</time>
      </trkpt>
      <trkpt lat="43.14278" lon="-2.94063">
        <ele>118.2</ele>
        <time>2021-05-29 17:55:58</time>
      </trkpt>
      <trkpt lat="43.14272" lon="-2.94059">
        <ele>118.6</ele>
        <time>2021-05-29 17:55:59</time>
      </trkpt>
      <trkpt lat="43.14266" lon="-2.94055">
        <ele>118.8</ele>
        <time>2021-05-29 17:56:00</time>
      </trkpt>
      <trkpt lat="43.1426" lon="-2.94051">
        <ele>119</ele>
        <time>2021-05-29 17:56:01</time>
      </trkpt>
      <trkpt lat="43.14254" lon="-2.94048">
        <ele>119.4</ele>
        <time>2021-05-29 17:56:02</time>
      </trkpt>
      <trkpt lat="43.14248" lon="-2.94044">
        <ele>119.6</ele>
        <time>2021-05-29 17:56:03</time>
      </trkpt>
      <trkpt lat="43.14242" lon="-2.94041">
        <ele>119.8</ele>
        <time>2021-05-29 17:56:04</time>
      </trkpt>
      <trkpt lat="43.14236" lon="-2.94038">
        <ele>120.2</ele>
        <time>2021-05-29 17:56:05</time>
      </trkpt>
      <trkpt lat="43.14229" lon="-2.94035">
        <ele>120.4</ele>
        <time>2021-05-29 17:56:06</time>
      </trkpt>
      <trkpt lat="43.14223" lon="-2.94032">
        <ele>120.8</ele>
        <time>2021-05-29 17:56:07</time>
      </trkpt>
      <trkpt lat="43.14216" lon="-2.9403">
        <ele>121</ele>
        <time>2021-05-29 17:56:08</time>
      </trkpt>
      <trkpt lat="43.1421" lon="-2.94027">
        <ele>121.2</ele>
        <time>2021-05-29 17:56:09</time>
      </trkpt>
      <trkpt lat="43.14203" lon="-2.94023">
        <ele>121.6</ele>
        <time>2021-05-29 17:56:10</time>
      </trkpt>
      <trkpt lat="43.14197" lon="-2.9402">
        <ele>122</ele>
        <time>2021-05-29 17:56:11</time>
      </trkpt>
      <trkpt lat="43.14191" lon="-2.94017">
        <ele>122.2</ele>
        <time>2021-05-29 17:56:12</time>
      </trkpt>
      <trkpt lat="43.14184" lon="-2.94014">
        <ele>122.6</ele>
        <time>2021-05-29 17:56:13</time>
      </trkpt>
      <trkpt lat="43.14178" lon="-2.9401">
        <ele>122.8</ele>
        <time>2021-05-29 17:56:14</time>
      </trkpt>
      <trkpt lat="43.14171" lon="-2.94006">
        <ele>123</ele>
        <time>2021-05-29 17:56:15</time>
      </trkpt>
      <trkpt lat="43.14164" lon="-2.94003">
        <ele>123.2</ele>
        <time>2021-05-29 17:56:16</time>
      </trkpt>
      <trkpt lat="43.14158" lon="-2.94">
        <ele>123.2</ele>
        <time>2021-05-29 17:56:17</time>
      </trkpt>
      <trkpt lat="43.14151" lon="-2.93997">
        <ele>123.4</ele>
        <time>2021-05-29 17:56:18</time>
      </trkpt>
      <trkpt lat="43.14145" lon="-2.93995">
        <ele>123.6</ele>
        <time>2021-05-29 17:56:19</time>
      </trkpt>
      <trkpt lat="43.14139" lon="-2.93992">
        <ele>123.6</ele>
        <time>2021-05-29 17:56:20</time>
      </trkpt>
      <trkpt lat="43.14133" lon="-2.93988">
        <ele>123.6</ele>
        <time>2021-05-29 17:56:21</time>
      </trkpt>
      <trkpt lat="43.14126" lon="-2.93985">
        <ele>123.8</ele>
        <time>2021-05-29 17:56:22</time>
      </trkpt>
      <trkpt lat="43.14121" lon="-2.93983">
        <ele>124.2</ele>
        <time>2021-05-29 17:56:23</time>
      </trkpt>
      <trkpt lat="43.14114" lon="-2.93979">
        <ele>124.6</ele>
        <time>2021-05-29 17:56:24</time>
      </trkpt>
      <trkpt lat="43.14108" lon="-2.93977">
        <ele>124.8</ele>
        <time>2021-05-29 17:56:25</time>
      </trkpt>
      <trkpt lat="43.14102" lon="-2.93977">
        <ele>124.8</ele>
        <time>2021-05-29 17:56:26</time>
      </trkpt>
      <trkpt lat="43.14096" lon="-2.93977">
        <ele>125.2</ele>
        <time>2021-05-29 17:56:27</time>
      </trkpt>
      <trkpt lat="43.1409" lon="-2.93979">
        <ele>125.2</ele>
        <time>2021-05-29 17:56:28</time>
      </trkpt>
      <trkpt lat="43.14084" lon="-2.93982">
        <ele>125.4</ele>
        <time>2021-05-29 17:56:29</time>
      </trkpt>
      <trkpt lat="43.1408" lon="-2.93984">
        <ele>125.4</ele>
        <time>2021-05-29 17:56:30</time>
      </trkpt>
      <trkpt lat="43.14076" lon="-2.93991">
        <ele>125.4</ele>
        <time>2021-05-29 17:56:31</time>
      </trkpt>
      <trkpt lat="43.14072" lon="-2.93997">
        <ele>125.4</ele>
        <time>2021-05-29 17:56:32</time>
      </trkpt>
      <trkpt lat="43.14068" lon="-2.94003">
        <ele>125.4</ele>
        <time>2021-05-29 17:56:33</time>
      </trkpt>
      <trkpt lat="43.14064" lon="-2.9401">
        <ele>125.4</ele>
        <time>2021-05-29 17:56:34</time>
      </trkpt>
      <trkpt lat="43.14057" lon="-2.94015">
        <ele>125.4</ele>
        <time>2021-05-29 17:56:35</time>
      </trkpt>
      <trkpt lat="43.1405" lon="-2.94019">
        <ele>125.4</ele>
        <time>2021-05-29 17:56:36</time>
      </trkpt>
      <trkpt lat="43.14041" lon="-2.9402">
        <ele>125.4</ele>
        <time>2021-05-29 17:56:37</time>
      </trkpt>
      <trkpt lat="43.14032" lon="-2.94019">
        <ele>125.2</ele>
        <time>2021-05-29 17:56:38</time>
      </trkpt>
      <trkpt lat="43.14023" lon="-2.94016">
        <ele>125</ele>
        <time>2021-05-29 17:56:39</time>
      </trkpt>
      <trkpt lat="43.14014" lon="-2.94013">
        <ele>124.6</ele>
        <time>2021-05-29 17:56:40</time>
      </trkpt>
      <trkpt lat="43.14005" lon="-2.94009">
        <ele>124.6</ele>
        <time>2021-05-29 17:56:41</time>
      </trkpt>
      <trkpt lat="43.13996" lon="-2.94006">
        <ele>124.4</ele>
        <time>2021-05-29 17:56:42</time>
      </trkpt>
      <trkpt lat="43.13988" lon="-2.94001">
        <ele>124.4</ele>
        <time>2021-05-29 17:56:43</time>
      </trkpt>
      <trkpt lat="43.13979" lon="-2.93997">
        <ele>124.2</ele>
        <time>2021-05-29 17:56:44</time>
      </trkpt>
      <trkpt lat="43.13971" lon="-2.93993">
        <ele>123.8</ele>
        <time>2021-05-29 17:56:45</time>
      </trkpt>
      <trkpt lat="43.13962" lon="-2.93989">
        <ele>123.6</ele>
        <time>2021-05-29 17:56:46</time>
      </trkpt>
      <trkpt lat="43.13954" lon="-2.93985">
        <ele>123.4</ele>
        <time>2021-05-29 17:56:47</time>
      </trkpt>
      <trkpt lat="43.13946" lon="-2.9398">
        <ele>123.4</ele>
        <time>2021-05-29 17:56:48</time>
      </trkpt>
      <trkpt lat="43.13938" lon="-2.93976">
        <ele>123</ele>
        <time>2021-05-29 17:56:49</time>
      </trkpt>
      <trkpt lat="43.1393" lon="-2.93972">
        <ele>122.8</ele>
        <time>2021-05-29 17:56:50</time>
      </trkpt>
      <trkpt lat="43.13922" lon="-2.93967">
        <ele>122.8</ele>
        <time>2021-05-29 17:56:51</time>
      </trkpt>
      <trkpt lat="43.13914" lon="-2.93963">
        <ele>122.8</ele>
        <time>2021-05-29 17:56:52</time>
      </trkpt>
      <trkpt lat="43.13907" lon="-2.93958">
        <ele>122.6</ele>
        <time>2021-05-29 17:56:53</time>
      </trkpt>
      <trkpt lat="43.139" lon="-2.93953">
        <ele>122.6</ele>
        <time>2021-05-29 17:56:54</time>
      </trkpt>
      <trkpt lat="43.13893" lon="-2.93948">
        <ele>122.6</ele>
        <time>2021-05-29 17:56:55</time>
      </trkpt>
      <trkpt lat="43.13886" lon="-2.93942">
        <ele>122.6</ele>
        <time>2021-05-29 17:56:56</time>
      </trkpt>
      <trkpt lat="43.13879" lon="-2.93937">
        <ele>122.6</ele>
        <time>2021-05-29 17:56:57</time>
      </trkpt>
      <trkpt lat="43.13872" lon="-2.93931">
        <ele>122.6</ele>
        <time>2021-05-29 17:56:58</time>
      </trkpt>
      <trkpt lat="43.13865" lon="-2.93925">
        <ele>122.8</ele>
        <time>2021-05-29 17:56:59</time>
      </trkpt>
      <trkpt lat="43.13859" lon="-2.93919">
        <ele>123</ele>
        <time>2021-05-29 17:57:00</time>
      </trkpt>
      <trkpt lat="43.13853" lon="-2.93912">
        <ele>123.2</ele>
        <time>2021-05-29 17:57:01</time>
      </trkpt>
      <trkpt lat="43.13846" lon="-2.93906">
        <ele>123.4</ele>
        <time>2021-05-29 17:57:02</time>
      </trkpt>
      <trkpt lat="43.1384" lon="-2.939">
        <ele>123.6</ele>
        <time>2021-05-29 17:57:03</time>
      </trkpt>
      <trkpt lat="43.13834" lon="-2.93893">
        <ele>123.8</ele>
        <time>2021-05-29 17:57:04</time>
      </trkpt>
      <trkpt lat="43.13828" lon="-2.93887">
        <ele>124</ele>
        <time>2021-05-29 17:57:05</time>
      </trkpt>
      <trkpt lat="43.13822" lon="-2.93881">
        <ele>124.2</ele>
        <time>2021-05-29 17:57:06</time>
      </trkpt>
      <trkpt lat="43.13815" lon="-2.93875">
        <ele>124.4</ele>
        <time>2021-05-29 17:57:07</time>
      </trkpt>
      <trkpt lat="43.13809" lon="-2.93869">
        <ele>124.4</ele>
        <time>2021-05-29 17:57:08</time>
      </trkpt>
      <trkpt lat="43.13803" lon="-2.93864">
        <ele>124.6</ele>
        <time>2021-05-29 17:57:09</time>
      </trkpt>
      <trkpt lat="43.13797" lon="-2.93858">
        <ele>125</ele>
        <time>2021-05-29 17:57:10</time>
      </trkpt>
      <trkpt lat="43.13791" lon="-2.93851">
        <ele>125.2</ele>
        <time>2021-05-29 17:57:11</time>
      </trkpt>
      <trkpt lat="43.13786" lon="-2.93845">
        <ele>125.4</ele>
        <time>2021-05-29 17:57:12</time>
      </trkpt>
      <trkpt lat="43.1378" lon="-2.93839">
        <ele>125.8</ele>
        <time>2021-05-29 17:57:13</time>
      </trkpt>
      <trkpt lat="43.13775" lon="-2.93833">
        <ele>126</ele>
        <time>2021-05-29 17:57:14</time>
      </trkpt>
      <trkpt lat="43.1377" lon="-2.93826">
        <ele>126.2</ele>
        <time>2021-05-29 17:57:15</time>
      </trkpt>
      <trkpt lat="43.13765" lon="-2.93819">
        <ele>126.6</ele>
        <time>2021-05-29 17:57:16</time>
      </trkpt>
      <trkpt lat="43.1376" lon="-2.93811">
        <ele>126.8</ele>
        <time>2021-05-29 17:57:17</time>
      </trkpt>
      <trkpt lat="43.13755" lon="-2.93803">
        <ele>127.2</ele>
        <time>2021-05-29 17:57:18</time>
      </trkpt>
      <trkpt lat="43.1375" lon="-2.93795">
        <ele>127.6</ele>
        <time>2021-05-29 17:57:19</time>
      </trkpt>
      <trkpt lat="43.13745" lon="-2.93786">
        <ele>127.8</ele>
        <time>2021-05-29 17:57:20</time>
      </trkpt>
      <trkpt lat="43.1374" lon="-2.93778">
        <ele>128.4</ele>
        <time>2021-05-29 17:57:21</time>
      </trkpt>
      <trkpt lat="43.13736" lon="-2.93769">
        <ele>128.6</ele>
        <time>2021-05-29 17:57:22</time>
      </trkpt>
      <trkpt lat="43.13731" lon="-2.93761">
        <ele>128.6</ele>
        <time>2021-05-29 17:57:23</time>
      </trkpt>
      <trkpt lat="43.13727" lon="-2.93752">
        <ele>128.8</ele>
        <time>2021-05-29 17:57:24</time>
      </trkpt>
      <trkpt lat="43.13722" lon="-2.93743">
        <ele>129</ele>
        <time>2021-05-29 17:57:25</time>
      </trkpt>
      <trkpt lat="43.13718" lon="-2.93734">
        <ele>129</ele>
        <time>2021-05-29 17:57:26</time>
      </trkpt>
      <trkpt lat="43.13714" lon="-2.93725">
        <ele>129</ele>
        <time>2021-05-29 17:57:27</time>
      </trkpt>
      <trkpt lat="43.1371" lon="-2.93717">
        <ele>129.2</ele>
        <time>2021-05-29 17:57:28</time>
      </trkpt>
      <trkpt lat="43.13706" lon="-2.93709">
        <ele>129.2</ele>
        <time>2021-05-29 17:57:29</time>
      </trkpt>
      <trkpt lat="43.13702" lon="-2.937">
        <ele>129.2</ele>
        <time>2021-05-29 17:57:30</time>
      </trkpt>
      <trkpt lat="43.13697" lon="-2.93692">
        <ele>129.2</ele>
        <time>2021-05-29 17:57:31</time>
      </trkpt>
      <trkpt lat="43.13693" lon="-2.93684">
        <ele>129.2</ele>
        <time>2021-05-29 17:57:32</time>
      </trkpt>
      <trkpt lat="43.13689" lon="-2.93676">
        <ele>129.2</ele>
        <time>2021-05-29 17:57:33</time>
      </trkpt>
      <trkpt lat="43.13684" lon="-2.93668">
        <ele>129.4</ele>
        <time>2021-05-29 17:57:34</time>
      </trkpt>
      <trkpt lat="43.13679" lon="-2.9366">
        <ele>129.4</ele>
        <time>2021-05-29 17:57:35</time>
      </trkpt>
      <trkpt lat="43.13674" lon="-2.93651">
        <ele>129.6</ele>
        <time>2021-05-29 17:57:36</time>
      </trkpt>
      <trkpt lat="43.13669" lon="-2.93643">
        <ele>129.6</ele>
        <time>2021-05-29 17:57:37</time>
      </trkpt>
      <trkpt lat="43.13665" lon="-2.93634">
        <ele>129.8</ele>
        <time>2021-05-29 17:57:38</time>
      </trkpt>
      <trkpt lat="43.1366" lon="-2.93625">
        <ele>129.8</ele>
        <time>2021-05-29 17:57:39</time>
      </trkpt>
      <trkpt lat="43.13654" lon="-2.93617">
        <ele>129.8</ele>
        <time>2021-05-29 17:57:40</time>
      </trkpt>
      <trkpt lat="43.13649" lon="-2.93608">
        <ele>130</ele>
        <time>2021-05-29 17:57:41</time>
      </trkpt>
      <trkpt lat="43.13643" lon="-2.93599">
        <ele>130</ele>
        <time>2021-05-29 17:57:42</time>
      </trkpt>
      <trkpt lat="43.13638" lon="-2.93589">
        <ele>130</ele>
        <time>2021-05-29 17:57:43</time>
      </trkpt>
      <trkpt lat="43.13632" lon="-2.9358">
        <ele>130</ele>
        <time>2021-05-29 17:57:44</time>
      </trkpt>
      <trkpt lat="43.13627" lon="-2.93571">
        <ele>130</ele>
        <time>2021-05-29 17:57:45</time>
      </trkpt>
      <trkpt lat="43.13621" lon="-2.93561">
        <ele>129.8</ele>
        <time>2021-05-29 17:57:46</time>
      </trkpt>
      <trkpt lat="43.13616" lon="-2.93553">
        <ele>129.8</ele>
        <time>2021-05-29 17:57:47</time>
      </trkpt>
      <trkpt lat="43.1361" lon="-2.93544">
        <ele>129.6</ele>
        <time>2021-05-29 17:57:48</time>
      </trkpt>
      <trkpt lat="43.13604" lon="-2.93536">
        <ele>129.6</ele>
        <time>2021-05-29 17:57:49</time>
      </trkpt>
      <trkpt lat="43.13599" lon="-2.93528">
        <ele>129.6</ele>
        <time>2021-05-29 17:57:50</time>
      </trkpt>
      <trkpt lat="43.13594" lon="-2.9352">
        <ele>129.6</ele>
        <time>2021-05-29 17:57:51</time>
      </trkpt>
      <trkpt lat="43.13589" lon="-2.93513">
        <ele>129.6</ele>
        <time>2021-05-29 17:57:52</time>
      </trkpt>
      <trkpt lat="43.13584" lon="-2.93507">
        <ele>129.6</ele>
        <time>2021-05-29 17:57:53</time>
      </trkpt>
      <trkpt lat="43.1358" lon="-2.935">
        <ele>129.8</ele>
        <time>2021-05-29 17:57:54</time>
      </trkpt>
      <trkpt lat="43.13575" lon="-2.93494">
        <ele>129.8</ele>
        <time>2021-05-29 17:57:55</time>
      </trkpt>
      <trkpt lat="43.13571" lon="-2.93487">
        <ele>129.8</ele>
        <time>2021-05-29 17:57:56</time>
      </trkpt>
      <trkpt lat="43.13567" lon="-2.9348">
        <ele>130</ele>
        <time>2021-05-29 17:57:57</time>
      </trkpt>
      <trkpt lat="43.13563" lon="-2.93474">
        <ele>130.4</ele>
        <time>2021-05-29 17:57:58</time>
      </trkpt>
      <trkpt lat="43.13558" lon="-2.93468">
        <ele>131</ele>
        <time>2021-05-29 17:57:59</time>
      </trkpt>
      <trkpt lat="43.13554" lon="-2.93463">
        <ele>131.4</ele>
        <time>2021-05-29 17:58:00</time>
      </trkpt>
      <trkpt lat="43.1355" lon="-2.93458">
        <ele>131.8</ele>
        <time>2021-05-29 17:58:01</time>
      </trkpt>
      <trkpt lat="43.13546" lon="-2.93451">
        <ele>132.6</ele>
        <time>2021-05-29 17:58:02</time>
      </trkpt>
      <trkpt lat="43.13542" lon="-2.93446">
        <ele>133.2</ele>
        <time>2021-05-29 17:58:03</time>
      </trkpt>
      <trkpt lat="43.13539" lon="-2.9344">
        <ele>133.6</ele>
        <time>2021-05-29 17:58:04</time>
      </trkpt>
      <trkpt lat="43.13535" lon="-2.93435">
        <ele>134</ele>
        <time>2021-05-29 17:58:05</time>
      </trkpt>
      <trkpt lat="43.13531" lon="-2.93429">
        <ele>134.4</ele>
        <time>2021-05-29 17:58:06</time>
      </trkpt>
      <trkpt lat="43.13527" lon="-2.93425">
        <ele>135.2</ele>
        <time>2021-05-29 17:58:07</time>
      </trkpt>
      <trkpt lat="43.13523" lon="-2.9342">
        <ele>135.8</ele>
        <time>2021-05-29 17:58:08</time>
      </trkpt>
      <trkpt lat="43.13519" lon="-2.93415">
        <ele>136.4</ele>
        <time>2021-05-29 17:58:09</time>
      </trkpt>
      <trkpt lat="43.13515" lon="-2.9341">
        <ele>136.8</ele>
        <time>2021-05-29 17:58:10</time>
      </trkpt>
      <trkpt lat="43.13511" lon="-2.93406">
        <ele>137.2</ele>
        <time>2021-05-29 17:58:11</time>
      </trkpt>
      <trkpt lat="43.13507" lon="-2.934">
        <ele>137.6</ele>
        <time>2021-05-29 17:58:12</time>
      </trkpt>
      <trkpt lat="43.13502" lon="-2.93395">
        <ele>137.8</ele>
        <time>2021-05-29 17:58:13</time>
      </trkpt>
      <trkpt lat="43.13497" lon="-2.9339">
        <ele>138</ele>
        <time>2021-05-29 17:58:14</time>
      </trkpt>
      <trkpt lat="43.13492" lon="-2.93385">
        <ele>138.8</ele>
        <time>2021-05-29 17:58:15</time>
      </trkpt>
      <trkpt lat="43.13487" lon="-2.9338">
        <ele>139</ele>
        <time>2021-05-29 17:58:16</time>
      </trkpt>
      <trkpt lat="43.13481" lon="-2.93375">
        <ele>139.2</ele>
        <time>2021-05-29 17:58:17</time>
      </trkpt>
      <trkpt lat="43.13476" lon="-2.9337">
        <ele>139.4</ele>
        <time>2021-05-29 17:58:18</time>
      </trkpt>
      <trkpt lat="43.1347" lon="-2.93365">
        <ele>139.4</ele>
        <time>2021-05-29 17:58:19</time>
      </trkpt>
      <trkpt lat="43.13464" lon="-2.93359">
        <ele>139.6</ele>
        <time>2021-05-29 17:58:20</time>
      </trkpt>
      <trkpt lat="43.13458" lon="-2.93353">
        <ele>139.6</ele>
        <time>2021-05-29 17:58:21</time>
      </trkpt>
      <trkpt lat="43.13452" lon="-2.93348">
        <ele>139.6</ele>
        <time>2021-05-29 17:58:22</time>
      </trkpt>
      <trkpt lat="43.13445" lon="-2.93342">
        <ele>139.6</ele>
        <time>2021-05-29 17:58:23</time>
      </trkpt>
      <trkpt lat="43.13438" lon="-2.93336">
        <ele>139.6</ele>
        <time>2021-05-29 17:58:24</time>
      </trkpt>
      <trkpt lat="43.13431" lon="-2.9333">
        <ele>139.6</ele>
        <time>2021-05-29 17:58:25</time>
      </trkpt>
      <trkpt lat="43.13422" lon="-2.93324">
        <ele>139.6</ele>
        <time>2021-05-29 17:58:26</time>
      </trkpt>
      <trkpt lat="43.13414" lon="-2.93318">
        <ele>139.6</ele>
        <time>2021-05-29 17:58:27</time>
      </trkpt>
      <trkpt lat="43.13404" lon="-2.93313">
        <ele>139.6</ele>
        <time>2021-05-29 17:58:28</time>
      </trkpt>
      <trkpt lat="43.13395" lon="-2.93308">
        <ele>139.8</ele>
        <time>2021-05-29 17:58:29</time>
      </trkpt>
      <trkpt lat="43.13385" lon="-2.93302">
        <ele>139.8</ele>
        <time>2021-05-29 17:58:30</time>
      </trkpt>
      <trkpt lat="43.13375" lon="-2.93296">
        <ele>139.6</ele>
        <time>2021-05-29 17:58:31</time>
      </trkpt>
      <trkpt lat="43.13365" lon="-2.9329">
        <ele>139.4</ele>
        <time>2021-05-29 17:58:32</time>
      </trkpt>
      <trkpt lat="43.13355" lon="-2.93283">
        <ele>139.2</ele>
        <time>2021-05-29 17:58:33</time>
      </trkpt>
      <trkpt lat="43.13345" lon="-2.93276">
        <ele>138.6</ele>
        <time>2021-05-29 17:58:34</time>
      </trkpt>
      <trkpt lat="43.13334" lon="-2.93269">
        <ele>138</ele>
        <time>2021-05-29 17:58:35</time>
      </trkpt>
      <trkpt lat="43.13324" lon="-2.93261">
        <ele>137.6</ele>
        <time>2021-05-29 17:58:36</time>
      </trkpt>
      <trkpt lat="43.13314" lon="-2.93254">
        <ele>136.8</ele>
        <time>2021-05-29 17:58:37</time>
      </trkpt>
      <trkpt lat="43.13304" lon="-2.93246">
        <ele>136</ele>
        <time>2021-05-29 17:58:38</time>
      </trkpt>
      <trkpt lat="43.13295" lon="-2.93238">
        <ele>135.4</ele>
        <time>2021-05-29 17:58:39</time>
      </trkpt>
      <trkpt lat="43.13286" lon="-2.9323">
        <ele>134.6</ele>
        <time>2021-05-29 17:58:40</time>
      </trkpt>
      <trkpt lat="43.13277" lon="-2.9322">
        <ele>133.8</ele>
        <time>2021-05-29 17:58:41</time>
      </trkpt>
      <trkpt lat="43.1327" lon="-2.9321">
        <ele>133.4</ele>
        <time>2021-05-29 17:58:42</time>
      </trkpt>
      <trkpt lat="43.13263" lon="-2.932">
        <ele>132.8</ele>
        <time>2021-05-29 17:58:43</time>
      </trkpt>
      <trkpt lat="43.13256" lon="-2.9319">
        <ele>132.4</ele>
        <time>2021-05-29 17:58:44</time>
      </trkpt>
      <trkpt lat="43.1325" lon="-2.93179">
        <ele>132</ele>
        <time>2021-05-29 17:58:45</time>
      </trkpt>
      <trkpt lat="43.13245" lon="-2.93168">
        <ele>132</ele>
        <time>2021-05-29 17:58:46</time>
      </trkpt>
      <trkpt lat="43.13239" lon="-2.93157">
        <ele>131.8</ele>
        <time>2021-05-29 17:58:47</time>
      </trkpt>
      <trkpt lat="43.13234" lon="-2.93146">
        <ele>131.8</ele>
        <time>2021-05-29 17:58:48</time>
      </trkpt>
      <trkpt lat="43.13229" lon="-2.93134">
        <ele>131.6</ele>
        <time>2021-05-29 17:58:49</time>
      </trkpt>
      <trkpt lat="43.13224" lon="-2.93123">
        <ele>131.6</ele>
        <time>2021-05-29 17:58:50</time>
      </trkpt>
      <trkpt lat="43.13219" lon="-2.93112">
        <ele>131.4</ele>
        <time>2021-05-29 17:58:51</time>
      </trkpt>
      <trkpt lat="43.13214" lon="-2.931">
        <ele>131.2</ele>
        <time>2021-05-29 17:58:52</time>
      </trkpt>
      <trkpt lat="43.13209" lon="-2.93089">
        <ele>131</ele>
        <time>2021-05-29 17:58:53</time>
      </trkpt>
      <trkpt lat="43.13204" lon="-2.93077">
        <ele>131</ele>
        <time>2021-05-29 17:58:54</time>
      </trkpt>
      <trkpt lat="43.13199" lon="-2.93066">
        <ele>131</ele>
        <time>2021-05-29 17:58:55</time>
      </trkpt>
      <trkpt lat="43.13194" lon="-2.93055">
        <ele>131</ele>
        <time>2021-05-29 17:58:56</time>
      </trkpt>
      <trkpt lat="43.13189" lon="-2.93044">
        <ele>131</ele>
        <time>2021-05-29 17:58:57</time>
      </trkpt>
      <trkpt lat="43.13185" lon="-2.93032">
        <ele>131</ele>
        <time>2021-05-29 17:58:58</time>
      </trkpt>
      <trkpt lat="43.1318" lon="-2.93021">
        <ele>131</ele>
        <time>2021-05-29 17:58:59</time>
      </trkpt>
      <trkpt lat="43.13175" lon="-2.93011">
        <ele>131</ele>
        <time>2021-05-29 17:59:00</time>
      </trkpt>
      <trkpt lat="43.1317" lon="-2.93">
        <ele>131</ele>
        <time>2021-05-29 17:59:01</time>
      </trkpt>
      <trkpt lat="43.13165" lon="-2.92989">
        <ele>131</ele>
        <time>2021-05-29 17:59:02</time>
      </trkpt>
      <trkpt lat="43.13161" lon="-2.92978">
        <ele>131</ele>
        <time>2021-05-29 17:59:03</time>
      </trkpt>
      <trkpt lat="43.13156" lon="-2.92968">
        <ele>131</ele>
        <time>2021-05-29 17:59:04</time>
      </trkpt>
      <trkpt lat="43.13151" lon="-2.92957">
        <ele>131</ele>
        <time>2021-05-29 17:59:05</time>
      </trkpt>
      <trkpt lat="43.13146" lon="-2.92946">
        <ele>131</ele>
        <time>2021-05-29 17:59:06</time>
      </trkpt>
      <trkpt lat="43.13141" lon="-2.92936">
        <ele>131</ele>
        <time>2021-05-29 17:59:07</time>
      </trkpt>
      <trkpt lat="43.13136" lon="-2.92925">
        <ele>131</ele>
        <time>2021-05-29 17:59:08</time>
      </trkpt>
      <trkpt lat="43.13131" lon="-2.92915">
        <ele>131</ele>
        <time>2021-05-29 17:59:09</time>
      </trkpt>
      <trkpt lat="43.13126" lon="-2.92905">
        <ele>131</ele>
        <time>2021-05-29 17:59:10</time>
      </trkpt>
      <trkpt lat="43.13121" lon="-2.92895">
        <ele>130.8</ele>
        <time>2021-05-29 17:59:11</time>
      </trkpt>
      <trkpt lat="43.13116" lon="-2.92885">
        <ele>130.8</ele>
        <time>2021-05-29 17:59:12</time>
      </trkpt>
      <trkpt lat="43.1311" lon="-2.92876">
        <ele>130.8</ele>
        <time>2021-05-29 17:59:13</time>
      </trkpt>
      <trkpt lat="43.13104" lon="-2.92867">
        <ele>130.8</ele>
        <time>2021-05-29 17:59:14</time>
      </trkpt>
      <trkpt lat="43.13099" lon="-2.92858">
        <ele>130.8</ele>
        <time>2021-05-29 17:59:15</time>
      </trkpt>
      <trkpt lat="43.13093" lon="-2.9285">
        <ele>130.8</ele>
        <time>2021-05-29 17:59:16</time>
      </trkpt>
      <trkpt lat="43.13087" lon="-2.92841">
        <ele>130.8</ele>
        <time>2021-05-29 17:59:17</time>
      </trkpt>
      <trkpt lat="43.13082" lon="-2.92832">
        <ele>130.8</ele>
        <time>2021-05-29 17:59:18</time>
      </trkpt>
      <trkpt lat="43.13076" lon="-2.92824">
        <ele>130.8</ele>
        <time>2021-05-29 17:59:19</time>
      </trkpt>
      <trkpt lat="43.1307" lon="-2.92815">
        <ele>130.8</ele>
        <time>2021-05-29 17:59:20</time>
      </trkpt>
      <trkpt lat="43.13065" lon="-2.92806">
        <ele>131</ele>
        <time>2021-05-29 17:59:21</time>
      </trkpt>
      <trkpt lat="43.1306" lon="-2.92797">
        <ele>131</ele>
        <time>2021-05-29 17:59:22</time>
      </trkpt>
      <trkpt lat="43.13054" lon="-2.92788">
        <ele>130.8</ele>
        <time>2021-05-29 17:59:23</time>
      </trkpt>
      <trkpt lat="43.13049" lon="-2.92779">
        <ele>130.8</ele>
        <time>2021-05-29 17:59:24</time>
      </trkpt>
      <trkpt lat="43.13044" lon="-2.92769">
        <ele>131.2</ele>
        <time>2021-05-29 17:59:25</time>
      </trkpt>
      <trkpt lat="43.1304" lon="-2.92758">
        <ele>131.2</ele>
        <time>2021-05-29 17:59:26</time>
      </trkpt>
      <trkpt lat="43.13037" lon="-2.92748">
        <ele>131.2</ele>
        <time>2021-05-29 17:59:27</time>
      </trkpt>
      <trkpt lat="43.13034" lon="-2.92736">
        <ele>131.2</ele>
        <time>2021-05-29 17:59:28</time>
      </trkpt>
      <trkpt lat="43.13031" lon="-2.92725">
        <ele>131.2</ele>
        <time>2021-05-29 17:59:29</time>
      </trkpt>
      <trkpt lat="43.13029" lon="-2.92714">
        <ele>131.2</ele>
        <time>2021-05-29 17:59:30</time>
      </trkpt>
      <trkpt lat="43.13027" lon="-2.92702">
        <ele>131.2</ele>
        <time>2021-05-29 17:59:31</time>
      </trkpt>
      <trkpt lat="43.13026" lon="-2.9269">
        <ele>131.4</ele>
        <time>2021-05-29 17:59:32</time>
      </trkpt>
      <trkpt lat="43.13025" lon="-2.92678">
        <ele>131.4</ele>
        <time>2021-05-29 17:59:33</time>
      </trkpt>
      <trkpt lat="43.13025" lon="-2.92667">
        <ele>131.4</ele>
        <time>2021-05-29 17:59:34</time>
      </trkpt>
      <trkpt lat="43.13025" lon="-2.92655">
        <ele>131.4</ele>
        <time>2021-05-29 17:59:35</time>
      </trkpt>
      <trkpt lat="43.13026" lon="-2.92645">
        <ele>131.4</ele>
        <time>2021-05-29 17:59:36</time>
      </trkpt>
      <trkpt lat="43.13026" lon="-2.92633">
        <ele>131.6</ele>
        <time>2021-05-29 17:59:37</time>
      </trkpt>
      <trkpt lat="43.13026" lon="-2.92622">
        <ele>131.6</ele>
        <time>2021-05-29 17:59:38</time>
      </trkpt>
      <trkpt lat="43.13027" lon="-2.9261">
        <ele>131.6</ele>
        <time>2021-05-29 17:59:39</time>
      </trkpt>
      <trkpt lat="43.13027" lon="-2.92599">
        <ele>131.6</ele>
        <time>2021-05-29 17:59:40</time>
      </trkpt>
      <trkpt lat="43.13027" lon="-2.92589">
        <ele>131.6</ele>
        <time>2021-05-29 17:59:41</time>
      </trkpt>
      <trkpt lat="43.13024" lon="-2.92579">
        <ele>131.6</ele>
        <time>2021-05-29 17:59:42</time>
      </trkpt>
      <trkpt lat="43.13026" lon="-2.92568">
        <ele>131.6</ele>
        <time>2021-05-29 17:59:43</time>
      </trkpt>
      <trkpt lat="43.13027" lon="-2.92555">
        <ele>131.8</ele>
        <time>2021-05-29 17:59:44</time>
      </trkpt>
      <trkpt lat="43.13028" lon="-2.92543">
        <ele>131.8</ele>
        <time>2021-05-29 17:59:45</time>
      </trkpt>
      <trkpt lat="43.13029" lon="-2.92531">
        <ele>131.8</ele>
        <time>2021-05-29 17:59:46</time>
      </trkpt>
      <trkpt lat="43.13029" lon="-2.92519">
        <ele>132</ele>
        <time>2021-05-29 17:59:47</time>
      </trkpt>
      <trkpt lat="43.13027" lon="-2.92507">
        <ele>132</ele>
        <time>2021-05-29 17:59:48</time>
      </trkpt>
      <trkpt lat="43.13025" lon="-2.92495">
        <ele>132</ele>
        <time>2021-05-29 17:59:49</time>
      </trkpt>
      <trkpt lat="43.13022" lon="-2.92484">
        <ele>132.2</ele>
        <time>2021-05-29 17:59:50</time>
      </trkpt>
      <trkpt lat="43.13018" lon="-2.92474">
        <ele>132.2</ele>
        <time>2021-05-29 17:59:51</time>
      </trkpt>
      <trkpt lat="43.13014" lon="-2.92464">
        <ele>132.2</ele>
        <time>2021-05-29 17:59:52</time>
      </trkpt>
      <trkpt lat="43.13009" lon="-2.92454">
        <ele>132.2</ele>
        <time>2021-05-29 17:59:53</time>
      </trkpt>
      <trkpt lat="43.13003" lon="-2.92446">
        <ele>132.4</ele>
        <time>2021-05-29 17:59:54</time>
      </trkpt>
      <trkpt lat="43.12997" lon="-2.92438">
        <ele>132.4</ele>
        <time>2021-05-29 17:59:55</time>
      </trkpt>
      <trkpt lat="43.1299" lon="-2.9243">
        <ele>132.4</ele>
        <time>2021-05-29 17:59:56</time>
      </trkpt>
      <trkpt lat="43.12983" lon="-2.92423">
        <ele>132.4</ele>
        <time>2021-05-29 17:59:57</time>
      </trkpt>
      <trkpt lat="43.12977" lon="-2.92416">
        <ele>132.4</ele>
        <time>2021-05-29 17:59:58</time>
      </trkpt>
      <trkpt lat="43.1297" lon="-2.92409">
        <ele>132.4</ele>
        <time>2021-05-29 17:59:59</time>
      </trkpt>
      <trkpt lat="43.12963" lon="-2.92403">
        <ele>132.6</ele>
        <time>2021-05-29 18:00:00</time>
      </trkpt>
      <trkpt lat="43.12955" lon="-2.92397">
        <ele>132.8</ele>
        <time>2021-05-29 18:00:01</time>
      </trkpt>
      <trkpt lat="43.12948" lon="-2.92391">
        <ele>132.8</ele>
        <time>2021-05-29 18:00:02</time>
      </trkpt>
      <trkpt lat="43.12941" lon="-2.92386">
        <ele>133</ele>
        <time>2021-05-29 18:00:03</time>
      </trkpt>
      <trkpt lat="43.12933" lon="-2.92381">
        <ele>133</ele>
        <time>2021-05-29 18:00:04</time>
      </trkpt>
      <trkpt lat="43.12926" lon="-2.92377">
        <ele>133.4</ele>
        <time>2021-05-29 18:00:05</time>
      </trkpt>
      <trkpt lat="43.12919" lon="-2.92372">
        <ele>133.6</ele>
        <time>2021-05-29 18:00:06</time>
      </trkpt>
      <trkpt lat="43.12912" lon="-2.92368">
        <ele>133.8</ele>
        <time>2021-05-29 18:00:07</time>
      </trkpt>
      <trkpt lat="43.12905" lon="-2.92363">
        <ele>134</ele>
        <time>2021-05-29 18:00:08</time>
      </trkpt>
      <trkpt lat="43.12898" lon="-2.92357">
        <ele>134.2</ele>
        <time>2021-05-29 18:00:09</time>
      </trkpt>
      <trkpt lat="43.12892" lon="-2.92351">
        <ele>134.4</ele>
        <time>2021-05-29 18:00:10</time>
      </trkpt>
      <trkpt lat="43.12887" lon="-2.92344">
        <ele>134.6</ele>
        <time>2021-05-29 18:00:11</time>
      </trkpt>
      <trkpt lat="43.12881" lon="-2.92337">
        <ele>134.8</ele>
        <time>2021-05-29 18:00:12</time>
      </trkpt>
      <trkpt lat="43.12875" lon="-2.9233">
        <ele>134.8</ele>
        <time>2021-05-29 18:00:13</time>
      </trkpt>
      <trkpt lat="43.1287" lon="-2.92323">
        <ele>134.8</ele>
        <time>2021-05-29 18:00:14</time>
      </trkpt>
      <trkpt lat="43.12864" lon="-2.92316">
        <ele>135</ele>
        <time>2021-05-29 18:00:15</time>
      </trkpt>
      <trkpt lat="43.12859" lon="-2.92309">
        <ele>135.2</ele>
        <time>2021-05-29 18:00:16</time>
      </trkpt>
      <trkpt lat="43.12853" lon="-2.92302">
        <ele>135.6</ele>
        <time>2021-05-29 18:00:17</time>
      </trkpt>
      <trkpt lat="43.12847" lon="-2.92295">
        <ele>135.8</ele>
        <time>2021-05-29 18:00:18</time>
      </trkpt>
      <trkpt lat="43.12842" lon="-2.92287">
        <ele>136.2</ele>
        <time>2021-05-29 18:00:19</time>
      </trkpt>
      <trkpt lat="43.12837" lon="-2.92279">
        <ele>136.4</ele>
        <time>2021-05-29 18:00:20</time>
      </trkpt>
      <trkpt lat="43.1283" lon="-2.92272">
        <ele>136.4</ele>
        <time>2021-05-29 18:00:21</time>
      </trkpt>
      <trkpt lat="43.12824" lon="-2.92265">
        <ele>136.8</ele>
        <time>2021-05-29 18:00:22</time>
      </trkpt>
      <trkpt lat="43.12817" lon="-2.92258">
        <ele>137</ele>
        <time>2021-05-29 18:00:23</time>
      </trkpt>
      <trkpt lat="43.12811" lon="-2.92251">
        <ele>137</ele>
        <time>2021-05-29 18:00:24</time>
      </trkpt>
      <trkpt lat="43.12803" lon="-2.92244">
        <ele>137.2</ele>
        <time>2021-05-29 18:00:25</time>
      </trkpt>
      <trkpt lat="43.12796" lon="-2.92238">
        <ele>137.2</ele>
        <time>2021-05-29 18:00:26</time>
      </trkpt>
      <trkpt lat="43.1279" lon="-2.92231">
        <ele>137.2</ele>
        <time>2021-05-29 18:00:27</time>
      </trkpt>
      <trkpt lat="43.12782" lon="-2.92225">
        <ele>137.2</ele>
        <time>2021-05-29 18:00:28</time>
      </trkpt>
      <trkpt lat="43.12774" lon="-2.9222">
        <ele>137.2</ele>
        <time>2021-05-29 18:00:29</time>
      </trkpt>
      <trkpt lat="43.12767" lon="-2.92214">
        <ele>137.2</ele>
        <time>2021-05-29 18:00:30</time>
      </trkpt>
      <trkpt lat="43.12759" lon="-2.92207">
        <ele>137.2</ele>
        <time>2021-05-29 18:00:31</time>
      </trkpt>
      <trkpt lat="43.12752" lon="-2.92201">
        <ele>137.2</ele>
        <time>2021-05-29 18:00:32</time>
      </trkpt>
      <trkpt lat="43.12745" lon="-2.92193">
        <ele>137.2</ele>
        <time>2021-05-29 18:00:33</time>
      </trkpt>
      <trkpt lat="43.12738" lon="-2.92185">
        <ele>137.2</ele>
        <time>2021-05-29 18:00:34</time>
      </trkpt>
      <trkpt lat="43.12733" lon="-2.92176">
        <ele>137.2</ele>
        <time>2021-05-29 18:00:35</time>
      </trkpt>
      <trkpt lat="43.12728" lon="-2.92166">
        <ele>137.2</ele>
        <time>2021-05-29 18:00:36</time>
      </trkpt>
      <trkpt lat="43.12723" lon="-2.92156">
        <ele>137.2</ele>
        <time>2021-05-29 18:00:37</time>
      </trkpt>
      <trkpt lat="43.1272" lon="-2.92146">
        <ele>137.2</ele>
        <time>2021-05-29 18:00:38</time>
      </trkpt>
      <trkpt lat="43.12716" lon="-2.92135">
        <ele>137.2</ele>
        <time>2021-05-29 18:00:39</time>
      </trkpt>
      <trkpt lat="43.12714" lon="-2.92125">
        <ele>137.2</ele>
        <time>2021-05-29 18:00:40</time>
      </trkpt>
      <trkpt lat="43.12711" lon="-2.92114">
        <ele>137.2</ele>
        <time>2021-05-29 18:00:41</time>
      </trkpt>
      <trkpt lat="43.12708" lon="-2.92104">
        <ele>137</ele>
        <time>2021-05-29 18:00:42</time>
      </trkpt>
      <trkpt lat="43.12705" lon="-2.92094">
        <ele>136.8</ele>
        <time>2021-05-29 18:00:43</time>
      </trkpt>
      <trkpt lat="43.12702" lon="-2.92083">
        <ele>136.8</ele>
        <time>2021-05-29 18:00:44</time>
      </trkpt>
      <trkpt lat="43.12699" lon="-2.92073">
        <ele>136.8</ele>
        <time>2021-05-29 18:00:45</time>
      </trkpt>
      <trkpt lat="43.12696" lon="-2.92063">
        <ele>136.8</ele>
        <time>2021-05-29 18:00:46</time>
      </trkpt>
      <trkpt lat="43.12693" lon="-2.92052">
        <ele>136.8</ele>
        <time>2021-05-29 18:00:47</time>
      </trkpt>
      <trkpt lat="43.1269" lon="-2.92042">
        <ele>136.8</ele>
        <time>2021-05-29 18:00:48</time>
      </trkpt>
      <trkpt lat="43.12687" lon="-2.92031">
        <ele>136.8</ele>
        <time>2021-05-29 18:00:49</time>
      </trkpt>
      <trkpt lat="43.12685" lon="-2.92021">
        <ele>136.8</ele>
        <time>2021-05-29 18:00:50</time>
      </trkpt>
      <trkpt lat="43.12682" lon="-2.92011">
        <ele>136.8</ele>
        <time>2021-05-29 18:00:51</time>
      </trkpt>
      <trkpt lat="43.12679" lon="-2.92">
        <ele>136.8</ele>
        <time>2021-05-29 18:00:52</time>
      </trkpt>
      <trkpt lat="43.12676" lon="-2.9199">
        <ele>136.8</ele>
        <time>2021-05-29 18:00:53</time>
      </trkpt>
      <trkpt lat="43.12673" lon="-2.91979">
        <ele>136.8</ele>
        <time>2021-05-29 18:00:54</time>
      </trkpt>
      <trkpt lat="43.1267" lon="-2.91968">
        <ele>136.8</ele>
        <time>2021-05-29 18:00:55</time>
      </trkpt>
      <trkpt lat="43.12667" lon="-2.91958">
        <ele>136.8</ele>
        <time>2021-05-29 18:00:56</time>
      </trkpt>
      <trkpt lat="43.12664" lon="-2.91947">
        <ele>136.8</ele>
        <time>2021-05-29 18:00:57</time>
      </trkpt>
      <trkpt lat="43.12661" lon="-2.91936">
        <ele>136.8</ele>
        <time>2021-05-29 18:00:58</time>
      </trkpt>
      <trkpt lat="43.12658" lon="-2.91926">
        <ele>137</ele>
        <time>2021-05-29 18:00:59</time>
      </trkpt>
      <trkpt lat="43.12655" lon="-2.91915">
        <ele>137</ele>
        <time>2021-05-29 18:01:00</time>
      </trkpt>
      <trkpt lat="43.12652" lon="-2.91905">
        <ele>137</ele>
        <time>2021-05-29 18:01:01</time>
      </trkpt>
      <trkpt lat="43.12649" lon="-2.91894">
        <ele>137</ele>
        <time>2021-05-29 18:01:02</time>
      </trkpt>
      <trkpt lat="43.12646" lon="-2.91884">
        <ele>137</ele>
        <time>2021-05-29 18:01:03</time>
      </trkpt>
      <trkpt lat="43.12643" lon="-2.91873">
        <ele>137</ele>
        <time>2021-05-29 18:01:04</time>
      </trkpt>
      <trkpt lat="43.12641" lon="-2.91863">
        <ele>137.2</ele>
        <time>2021-05-29 18:01:05</time>
      </trkpt>
      <trkpt lat="43.12639" lon="-2.91852">
        <ele>137</ele>
        <time>2021-05-29 18:01:06</time>
      </trkpt>
      <trkpt lat="43.12637" lon="-2.91842">
        <ele>137</ele>
        <time>2021-05-29 18:01:07</time>
      </trkpt>
      <trkpt lat="43.12634" lon="-2.91831">
        <ele>137.2</ele>
        <time>2021-05-29 18:01:08</time>
      </trkpt>
      <trkpt lat="43.12632" lon="-2.9182">
        <ele>137.2</ele>
        <time>2021-05-29 18:01:09</time>
      </trkpt>
      <trkpt lat="43.1263" lon="-2.9181">
        <ele>137.2</ele>
        <time>2021-05-29 18:01:10</time>
      </trkpt>
      <trkpt lat="43.12628" lon="-2.91799">
        <ele>137.2</ele>
        <time>2021-05-29 18:01:11</time>
      </trkpt>
      <trkpt lat="43.12625" lon="-2.91789">
        <ele>137.2</ele>
        <time>2021-05-29 18:01:12</time>
      </trkpt>
      <trkpt lat="43.12623" lon="-2.91778">
        <ele>137.2</ele>
        <time>2021-05-29 18:01:13</time>
      </trkpt>
      <trkpt lat="43.12621" lon="-2.91768">
        <ele>137.4</ele>
        <time>2021-05-29 18:01:14</time>
      </trkpt>
      <trkpt lat="43.12619" lon="-2.91758">
        <ele>137.4</ele>
        <time>2021-05-29 18:01:15</time>
      </trkpt>
      <trkpt lat="43.12617" lon="-2.91748">
        <ele>137.4</ele>
        <time>2021-05-29 18:01:16</time>
      </trkpt>
      <trkpt lat="43.12615" lon="-2.91737">
        <ele>137.4</ele>
        <time>2021-05-29 18:01:17</time>
      </trkpt>
      <trkpt lat="43.12613" lon="-2.91727">
        <ele>137.4</ele>
        <time>2021-05-29 18:01:18</time>
      </trkpt>
      <trkpt lat="43.12611" lon="-2.91717">
        <ele>137.4</ele>
        <time>2021-05-29 18:01:19</time>
      </trkpt>
      <trkpt lat="43.12609" lon="-2.91707">
        <ele>137.6</ele>
        <time>2021-05-29 18:01:20</time>
      </trkpt>
      <trkpt lat="43.12606" lon="-2.91697">
        <ele>137.6</ele>
        <time>2021-05-29 18:01:21</time>
      </trkpt>
      <trkpt lat="43.12604" lon="-2.91687">
        <ele>137.6</ele>
        <time>2021-05-29 18:01:22</time>
      </trkpt>
      <trkpt lat="43.12601" lon="-2.91678">
        <ele>137.6</ele>
        <time>2021-05-29 18:01:23</time>
      </trkpt>
      <trkpt lat="43.12597" lon="-2.91668">
        <ele>137.8</ele>
        <time>2021-05-29 18:01:24</time>
      </trkpt>
      <trkpt lat="43.12594" lon="-2.91659">
        <ele>137.8</ele>
        <time>2021-05-29 18:01:25</time>
      </trkpt>
      <trkpt lat="43.1259" lon="-2.9165">
        <ele>137.8</ele>
        <time>2021-05-29 18:01:26</time>
      </trkpt>
      <trkpt lat="43.12585" lon="-2.91641">
        <ele>137.8</ele>
        <time>2021-05-29 18:01:27</time>
      </trkpt>
      <trkpt lat="43.12581" lon="-2.91633">
        <ele>137.8</ele>
        <time>2021-05-29 18:01:28</time>
      </trkpt>
      <trkpt lat="43.12576" lon="-2.91625">
        <ele>137.8</ele>
        <time>2021-05-29 18:01:29</time>
      </trkpt>
      <trkpt lat="43.1257" lon="-2.91618">
        <ele>138</ele>
        <time>2021-05-29 18:01:30</time>
      </trkpt>
      <trkpt lat="43.12565" lon="-2.91611">
        <ele>138</ele>
        <time>2021-05-29 18:01:31</time>
      </trkpt>
      <trkpt lat="43.1256" lon="-2.91604">
        <ele>138</ele>
        <time>2021-05-29 18:01:32</time>
      </trkpt>
      <trkpt lat="43.12554" lon="-2.91597">
        <ele>138</ele>
        <time>2021-05-29 18:01:33</time>
      </trkpt>
      <trkpt lat="43.12548" lon="-2.91591">
        <ele>138</ele>
        <time>2021-05-29 18:01:34</time>
      </trkpt>
      <trkpt lat="43.12543" lon="-2.91584">
        <ele>138</ele>
        <time>2021-05-29 18:01:35</time>
      </trkpt>
      <trkpt lat="43.12538" lon="-2.91578">
        <ele>138</ele>
        <time>2021-05-29 18:01:36</time>
      </trkpt>
      <trkpt lat="43.12532" lon="-2.91573">
        <ele>138</ele>
        <time>2021-05-29 18:01:37</time>
      </trkpt>
      <trkpt lat="43.12526" lon="-2.91567">
        <ele>138.2</ele>
        <time>2021-05-29 18:01:38</time>
      </trkpt>
      <trkpt lat="43.12521" lon="-2.91562">
        <ele>138.4</ele>
        <time>2021-05-29 18:01:39</time>
      </trkpt>
      <trkpt lat="43.12515" lon="-2.91557">
        <ele>138.6</ele>
        <time>2021-05-29 18:01:40</time>
      </trkpt>
      <trkpt lat="43.12509" lon="-2.91552">
        <ele>138.6</ele>
        <time>2021-05-29 18:01:41</time>
      </trkpt>
      <trkpt lat="43.12503" lon="-2.91547">
        <ele>138.8</ele>
        <time>2021-05-29 18:01:42</time>
      </trkpt>
      <trkpt lat="43.12497" lon="-2.91543">
        <ele>139</ele>
        <time>2021-05-29 18:01:43</time>
      </trkpt>
      <trkpt lat="43.12491" lon="-2.91538">
        <ele>139.2</ele>
        <time>2021-05-29 18:01:44</time>
      </trkpt>
      <trkpt lat="43.12485" lon="-2.91534">
        <ele>139.4</ele>
        <time>2021-05-29 18:01:45</time>
      </trkpt>
      <trkpt lat="43.12478" lon="-2.9153">
        <ele>139.4</ele>
        <time>2021-05-29 18:01:46</time>
      </trkpt>
      <trkpt lat="43.12472" lon="-2.91525">
        <ele>139.6</ele>
        <time>2021-05-29 18:01:47</time>
      </trkpt>
      <trkpt lat="43.12466" lon="-2.9152">
        <ele>139.8</ele>
        <time>2021-05-29 18:01:48</time>
      </trkpt>
      <trkpt lat="43.12459" lon="-2.91515">
        <ele>140</ele>
        <time>2021-05-29 18:01:49</time>
      </trkpt>
      <trkpt lat="43.12453" lon="-2.9151">
        <ele>140</ele>
        <time>2021-05-29 18:01:50</time>
      </trkpt>
      <trkpt lat="43.12447" lon="-2.91505">
        <ele>140.2</ele>
        <time>2021-05-29 18:01:51</time>
      </trkpt>
      <trkpt lat="43.12441" lon="-2.915">
        <ele>140.4</ele>
        <time>2021-05-29 18:01:52</time>
      </trkpt>
      <trkpt lat="43.12435" lon="-2.91495">
        <ele>140.4</ele>
        <time>2021-05-29 18:01:53</time>
      </trkpt>
      <trkpt lat="43.12428" lon="-2.9149">
        <ele>140.6</ele>
        <time>2021-05-29 18:01:54</time>
      </trkpt>
      <trkpt lat="43.12422" lon="-2.91485">
        <ele>140.6</ele>
        <time>2021-05-29 18:01:55</time>
      </trkpt>
      <trkpt lat="43.12416" lon="-2.9148">
        <ele>140.8</ele>
        <time>2021-05-29 18:01:56</time>
      </trkpt>
      <trkpt lat="43.12409" lon="-2.91475">
        <ele>140.8</ele>
        <time>2021-05-29 18:01:57</time>
      </trkpt>
      <trkpt lat="43.12403" lon="-2.9147">
        <ele>141</ele>
        <time>2021-05-29 18:01:58</time>
      </trkpt>
      <trkpt lat="43.12397" lon="-2.91465">
        <ele>140.8</ele>
        <time>2021-05-29 18:01:59</time>
      </trkpt>
      <trkpt lat="43.12391" lon="-2.9146">
        <ele>141</ele>
        <time>2021-05-29 18:02:00</time>
      </trkpt>
      <trkpt lat="43.12384" lon="-2.91455">
        <ele>141</ele>
        <time>2021-05-29 18:02:01</time>
      </trkpt>
      <trkpt lat="43.12378" lon="-2.91451">
        <ele>141</ele>
        <time>2021-05-29 18:02:02</time>
      </trkpt>
      <trkpt lat="43.12371" lon="-2.91446">
        <ele>141.2</ele>
        <time>2021-05-29 18:02:03</time>
      </trkpt>
      <trkpt lat="43.12365" lon="-2.91441">
        <ele>141.2</ele>
        <time>2021-05-29 18:02:04</time>
      </trkpt>
      <trkpt lat="43.12358" lon="-2.91436">
        <ele>141.2</ele>
        <time>2021-05-29 18:02:05</time>
      </trkpt>
      <trkpt lat="43.12351" lon="-2.91431">
        <ele>141.2</ele>
        <time>2021-05-29 18:02:06</time>
      </trkpt>
      <trkpt lat="43.12344" lon="-2.91426">
        <ele>141.4</ele>
        <time>2021-05-29 18:02:07</time>
      </trkpt>
      <trkpt lat="43.12338" lon="-2.91421">
        <ele>141.4</ele>
        <time>2021-05-29 18:02:08</time>
      </trkpt>
      <trkpt lat="43.12331" lon="-2.91416">
        <ele>141.4</ele>
        <time>2021-05-29 18:02:09</time>
      </trkpt>
      <trkpt lat="43.12325" lon="-2.91411">
        <ele>141.6</ele>
        <time>2021-05-29 18:02:10</time>
      </trkpt>
      <trkpt lat="43.12318" lon="-2.91406">
        <ele>141.6</ele>
        <time>2021-05-29 18:02:11</time>
      </trkpt>
      <trkpt lat="43.12312" lon="-2.91401">
        <ele>141.8</ele>
        <time>2021-05-29 18:02:12</time>
      </trkpt>
      <trkpt lat="43.12305" lon="-2.91397">
        <ele>141.8</ele>
        <time>2021-05-29 18:02:13</time>
      </trkpt>
      <trkpt lat="43.12298" lon="-2.91392">
        <ele>142</ele>
        <time>2021-05-29 18:02:14</time>
      </trkpt>
      <trkpt lat="43.12291" lon="-2.91388">
        <ele>142</ele>
        <time>2021-05-29 18:02:15</time>
      </trkpt>
      <trkpt lat="43.12284" lon="-2.91384">
        <ele>142</ele>
        <time>2021-05-29 18:02:16</time>
      </trkpt>
      <trkpt lat="43.12277" lon="-2.91379">
        <ele>142.2</ele>
        <time>2021-05-29 18:02:17</time>
      </trkpt>
      <trkpt lat="43.1227" lon="-2.91374">
        <ele>142.4</ele>
        <time>2021-05-29 18:02:18</time>
      </trkpt>
      <trkpt lat="43.12263" lon="-2.91369">
        <ele>142.6</ele>
        <time>2021-05-29 18:02:19</time>
      </trkpt>
      <trkpt lat="43.12256" lon="-2.91364">
        <ele>142.6</ele>
        <time>2021-05-29 18:02:20</time>
      </trkpt>
      <trkpt lat="43.1225" lon="-2.91359">
        <ele>142.6</ele>
        <time>2021-05-29 18:02:21</time>
      </trkpt>
      <trkpt lat="43.12243" lon="-2.91354">
        <ele>142.8</ele>
        <time>2021-05-29 18:02:22</time>
      </trkpt>
      <trkpt lat="43.12235" lon="-2.91348">
        <ele>142.8</ele>
        <time>2021-05-29 18:02:23</time>
      </trkpt>
      <trkpt lat="43.12228" lon="-2.91344">
        <ele>142.8</ele>
        <time>2021-05-29 18:02:24</time>
      </trkpt>
      <trkpt lat="43.12221" lon="-2.9134">
        <ele>143</ele>
        <time>2021-05-29 18:02:25</time>
      </trkpt>
      <trkpt lat="43.12214" lon="-2.91336">
        <ele>143.2</ele>
        <time>2021-05-29 18:02:26</time>
      </trkpt>
      <trkpt lat="43.12206" lon="-2.91332">
        <ele>143.4</ele>
        <time>2021-05-29 18:02:27</time>
      </trkpt>
      <trkpt lat="43.12199" lon="-2.91329">
        <ele>143.6</ele>
        <time>2021-05-29 18:02:28</time>
      </trkpt>
      <trkpt lat="43.12192" lon="-2.91325">
        <ele>143.8</ele>
        <time>2021-05-29 18:02:29</time>
      </trkpt>
      <trkpt lat="43.12185" lon="-2.91321">
        <ele>143.8</ele>
        <time>2021-05-29 18:02:30</time>
      </trkpt>
      <trkpt lat="43.12177" lon="-2.91318">
        <ele>143.8</ele>
        <time>2021-05-29 18:02:31</time>
      </trkpt>
      <trkpt lat="43.1217" lon="-2.91314">
        <ele>144</ele>
        <time>2021-05-29 18:02:32</time>
      </trkpt>
      <trkpt lat="43.12163" lon="-2.9131">
        <ele>144</ele>
        <time>2021-05-29 18:02:33</time>
      </trkpt>
      <trkpt lat="43.12155" lon="-2.91306">
        <ele>144</ele>
        <time>2021-05-29 18:02:34</time>
      </trkpt>
      <trkpt lat="43.12148" lon="-2.91301">
        <ele>144</ele>
        <time>2021-05-29 18:02:35</time>
      </trkpt>
      <trkpt lat="43.12141" lon="-2.91296">
        <ele>144</ele>
        <time>2021-05-29 18:02:36</time>
      </trkpt>
      <trkpt lat="43.12134" lon="-2.91292">
        <ele>144</ele>
        <time>2021-05-29 18:02:37</time>
      </trkpt>
      <trkpt lat="43.12127" lon="-2.91288">
        <ele>144.2</ele>
        <time>2021-05-29 18:02:38</time>
      </trkpt>
      <trkpt lat="43.12119" lon="-2.91283">
        <ele>144.2</ele>
        <time>2021-05-29 18:02:39</time>
      </trkpt>
      <trkpt lat="43.12112" lon="-2.91279">
        <ele>144.2</ele>
        <time>2021-05-29 18:02:40</time>
      </trkpt>
      <trkpt lat="43.12105" lon="-2.91274">
        <ele>144.4</ele>
        <time>2021-05-29 18:02:41</time>
      </trkpt>
      <trkpt lat="43.12098" lon="-2.9127">
        <ele>144.4</ele>
        <time>2021-05-29 18:02:42</time>
      </trkpt>
      <trkpt lat="43.1209" lon="-2.91266">
        <ele>144.4</ele>
        <time>2021-05-29 18:02:43</time>
      </trkpt>
      <trkpt lat="43.12083" lon="-2.91261">
        <ele>144.6</ele>
        <time>2021-05-29 18:02:44</time>
      </trkpt>
      <trkpt lat="43.12076" lon="-2.91257">
        <ele>144.6</ele>
        <time>2021-05-29 18:02:45</time>
      </trkpt>
      <trkpt lat="43.12069" lon="-2.91253">
        <ele>144.6</ele>
        <time>2021-05-29 18:02:46</time>
      </trkpt>
      <trkpt lat="43.12062" lon="-2.91249">
        <ele>144.6</ele>
        <time>2021-05-29 18:02:47</time>
      </trkpt>
      <trkpt lat="43.12055" lon="-2.91244">
        <ele>144.6</ele>
        <time>2021-05-29 18:02:48</time>
      </trkpt>
      <trkpt lat="43.12047" lon="-2.9124">
        <ele>144.6</ele>
        <time>2021-05-29 18:02:49</time>
      </trkpt>
      <trkpt lat="43.1204" lon="-2.91236">
        <ele>144.6</ele>
        <time>2021-05-29 18:02:50</time>
      </trkpt>
      <trkpt lat="43.12033" lon="-2.91232">
        <ele>144.6</ele>
        <time>2021-05-29 18:02:51</time>
      </trkpt>
      <trkpt lat="43.12026" lon="-2.91228">
        <ele>144.6</ele>
        <time>2021-05-29 18:02:52</time>
      </trkpt>
      <trkpt lat="43.12019" lon="-2.91224">
        <ele>144.6</ele>
        <time>2021-05-29 18:02:53</time>
      </trkpt>
      <trkpt lat="43.12012" lon="-2.91221">
        <ele>144.6</ele>
        <time>2021-05-29 18:02:54</time>
      </trkpt>
      <trkpt lat="43.12005" lon="-2.91217">
        <ele>144.8</ele>
        <time>2021-05-29 18:02:55</time>
      </trkpt>
      <trkpt lat="43.11999" lon="-2.91214">
        <ele>144.8</ele>
        <time>2021-05-29 18:02:56</time>
      </trkpt>
      <trkpt lat="43.11993" lon="-2.91211">
        <ele>144.8</ele>
        <time>2021-05-29 18:02:57</time>
      </trkpt>
      <trkpt lat="43.11987" lon="-2.91209">
        <ele>144.8</ele>
        <time>2021-05-29 18:02:58</time>
      </trkpt>
      <trkpt lat="43.11982" lon="-2.91206">
        <ele>144.8</ele>
        <time>2021-05-29 18:02:59</time>
      </trkpt>
      <trkpt lat="43.11977" lon="-2.91204">
        <ele>145</ele>
        <time>2021-05-29 18:03:00</time>
      </trkpt>
      <trkpt lat="43.11973" lon="-2.91202">
        <ele>145</ele>
        <time>2021-05-29 18:03:01</time>
      </trkpt>
      <trkpt lat="43.11968" lon="-2.91201">
        <ele>145</ele>
        <time>2021-05-29 18:03:02</time>
      </trkpt>
      <trkpt lat="43.11964" lon="-2.912">
        <ele>145.2</ele>
        <time>2021-05-29 18:03:03</time>
      </trkpt>
      <trkpt lat="43.11961" lon="-2.91199">
        <ele>145.2</ele>
        <time>2021-05-29 18:03:04</time>
      </trkpt>
      <trkpt lat="43.11957" lon="-2.91197">
        <ele>145.2</ele>
        <time>2021-05-29 18:03:05</time>
      </trkpt>
      <trkpt lat="43.11954" lon="-2.91196">
        <ele>145.2</ele>
        <time>2021-05-29 18:03:06</time>
      </trkpt>
      <trkpt lat="43.11951" lon="-2.91196">
        <ele>145.2</ele>
        <time>2021-05-29 18:03:07</time>
      </trkpt>
      <trkpt lat="43.11948" lon="-2.91195">
        <ele>145.4</ele>
        <time>2021-05-29 18:03:08</time>
      </trkpt>
      <trkpt lat="43.11946" lon="-2.91194">
        <ele>145.4</ele>
        <time>2021-05-29 18:03:09</time>
      </trkpt>
      <trkpt lat="43.11943" lon="-2.91194">
        <ele>145.4</ele>
        <time>2021-05-29 18:03:10</time>
      </trkpt>
      <trkpt lat="43.11941" lon="-2.91193">
        <ele>145.6</ele>
        <time>2021-05-29 18:03:11</time>
      </trkpt>
      <trkpt lat="43.1194" lon="-2.91193">
        <ele>145.6</ele>
        <time>2021-05-29 18:03:12</time>
      </trkpt>
      <trkpt lat="43.11939" lon="-2.91193">
        <ele>145.8</ele>
        <time>2021-05-29 18:03:13</time>
      </trkpt>
      <trkpt lat="43.11937" lon="-2.91192">
        <ele>145.8</ele>
        <time>2021-05-29 18:03:14</time>
      </trkpt>
      <trkpt lat="43.11936" lon="-2.91192">
        <ele>146</ele>
        <time>2021-05-29 18:03:15</time>
      </trkpt>
      <trkpt lat="43.11935" lon="-2.91192">
        <ele>146</ele>
        <time>2021-05-29 18:03:16</time>
      </trkpt>
      <trkpt lat="43.11934" lon="-2.91192">
        <ele>146.2</ele>
        <time>2021-05-29 18:03:17</time>
      </trkpt>
      <trkpt lat="43.11934" lon="-2.91191">
        <ele>146.2</ele>
        <time>2021-05-29 18:03:18</time>
      </trkpt>
      <trkpt lat="43.11933" lon="-2.91191">
        <ele>146.2</ele>
        <time>2021-05-29 18:03:19</time>
      </trkpt>
      <trkpt lat="43.11928" lon="-2.9119">
        <ele>146.6</ele>
        <time>2021-05-29 18:06:46</time>
      </trkpt>
      <trkpt lat="43.11927" lon="-2.91189">
        <ele>146.6</ele>
        <time>2021-05-29 18:06:47</time>
      </trkpt>
      <trkpt lat="43.11925" lon="-2.91189">
        <ele>146.6</ele>
        <time>2021-05-29 18:06:48</time>
      </trkpt>
      <trkpt lat="43.11924" lon="-2.91189">
        <ele>146.6</ele>
        <time>2021-05-29 18:06:49</time>
      </trkpt>
      <trkpt lat="43.11922" lon="-2.91188">
        <ele>146.6</ele>
        <time>2021-05-29 18:06:50</time>
      </trkpt>
      <trkpt lat="43.1192" lon="-2.91188">
        <ele>146.6</ele>
        <time>2021-05-29 18:06:51</time>
      </trkpt>
      <trkpt lat="43.11918" lon="-2.91187">
        <ele>146.8</ele>
        <time>2021-05-29 18:06:52</time>
      </trkpt>
      <trkpt lat="43.11915" lon="-2.91186">
        <ele>146.8</ele>
        <time>2021-05-29 18:06:53</time>
      </trkpt>
      <trkpt lat="43.11912" lon="-2.91185">
        <ele>146.8</ele>
        <time>2021-05-29 18:06:54</time>
      </trkpt>
      <trkpt lat="43.11908" lon="-2.91184">
        <ele>146.8</ele>
        <time>2021-05-29 18:06:55</time>
      </trkpt>
      <trkpt lat="43.11905" lon="-2.91183">
        <ele>146.8</ele>
        <time>2021-05-29 18:06:56</time>
      </trkpt>
      <trkpt lat="43.11902" lon="-2.91182">
        <ele>146.8</ele>
        <time>2021-05-29 18:06:57</time>
      </trkpt>
      <trkpt lat="43.11898" lon="-2.91182">
        <ele>146.8</ele>
        <time>2021-05-29 18:06:58</time>
      </trkpt>
      <trkpt lat="43.11895" lon="-2.91181">
        <ele>147</ele>
        <time>2021-05-29 18:06:59</time>
      </trkpt>
      <trkpt lat="43.11891" lon="-2.9118">
        <ele>147</ele>
        <time>2021-05-29 18:07:00</time>
      </trkpt>
      <trkpt lat="43.11886" lon="-2.91179">
        <ele>147</ele>
        <time>2021-05-29 18:07:01</time>
      </trkpt>
      <trkpt lat="43.11882" lon="-2.91177">
        <ele>147</ele>
        <time>2021-05-29 18:07:02</time>
      </trkpt>
      <trkpt lat="43.11876" lon="-2.91176">
        <ele>147.2</ele>
        <time>2021-05-29 18:07:03</time>
      </trkpt>
      <trkpt lat="43.11871" lon="-2.91175">
        <ele>147.2</ele>
        <time>2021-05-29 18:07:04</time>
      </trkpt>
      <trkpt lat="43.11866" lon="-2.91173">
        <ele>147.2</ele>
        <time>2021-05-29 18:07:05</time>
      </trkpt>
      <trkpt lat="43.1186" lon="-2.91172">
        <ele>147.2</ele>
        <time>2021-05-29 18:07:06</time>
      </trkpt>
      <trkpt lat="43.11854" lon="-2.9117">
        <ele>147.2</ele>
        <time>2021-05-29 18:07:07</time>
      </trkpt>
      <trkpt lat="43.11849" lon="-2.91169">
        <ele>147.4</ele>
        <time>2021-05-29 18:07:08</time>
      </trkpt>
      <trkpt lat="43.11842" lon="-2.91167">
        <ele>147.4</ele>
        <time>2021-05-29 18:07:09</time>
      </trkpt>
      <trkpt lat="43.11836" lon="-2.91165">
        <ele>147.4</ele>
        <time>2021-05-29 18:07:10</time>
      </trkpt>
      <trkpt lat="43.1183" lon="-2.91164">
        <ele>147.4</ele>
        <time>2021-05-29 18:07:11</time>
      </trkpt>
      <trkpt lat="43.11823" lon="-2.91162">
        <ele>147.6</ele>
        <time>2021-05-29 18:07:12</time>
      </trkpt>
      <trkpt lat="43.11817" lon="-2.9116">
        <ele>147.6</ele>
        <time>2021-05-29 18:07:13</time>
      </trkpt>
      <trkpt lat="43.1181" lon="-2.91158">
        <ele>147.6</ele>
        <time>2021-05-29 18:07:14</time>
      </trkpt>
      <trkpt lat="43.11803" lon="-2.91157">
        <ele>147.6</ele>
        <time>2021-05-29 18:07:15</time>
      </trkpt>
      <trkpt lat="43.11796" lon="-2.91155">
        <ele>147.8</ele>
        <time>2021-05-29 18:07:16</time>
      </trkpt>
      <trkpt lat="43.11789" lon="-2.91153">
        <ele>147.8</ele>
        <time>2021-05-29 18:07:17</time>
      </trkpt>
      <trkpt lat="43.11782" lon="-2.91152">
        <ele>148</ele>
        <time>2021-05-29 18:07:18</time>
      </trkpt>
      <trkpt lat="43.11775" lon="-2.9115">
        <ele>148</ele>
        <time>2021-05-29 18:07:19</time>
      </trkpt>
      <trkpt lat="43.11767" lon="-2.91149">
        <ele>148.2</ele>
        <time>2021-05-29 18:07:20</time>
      </trkpt>
      <trkpt lat="43.1176" lon="-2.91148">
        <ele>148.2</ele>
        <time>2021-05-29 18:07:21</time>
      </trkpt>
      <trkpt lat="43.11752" lon="-2.91148">
        <ele>148.2</ele>
        <time>2021-05-29 18:07:22</time>
      </trkpt>
      <trkpt lat="43.11745" lon="-2.91148">
        <ele>148.4</ele>
        <time>2021-05-29 18:07:23</time>
      </trkpt>
      <trkpt lat="43.11737" lon="-2.91148">
        <ele>148.4</ele>
        <time>2021-05-29 18:07:24</time>
      </trkpt>
      <trkpt lat="43.11729" lon="-2.91148">
        <ele>148.6</ele>
        <time>2021-05-29 18:07:25</time>
      </trkpt>
      <trkpt lat="43.11722" lon="-2.91149">
        <ele>148.6</ele>
        <time>2021-05-29 18:07:26</time>
      </trkpt>
      <trkpt lat="43.11714" lon="-2.9115">
        <ele>149</ele>
        <time>2021-05-29 18:07:27</time>
      </trkpt>
      <trkpt lat="43.11707" lon="-2.91152">
        <ele>149</ele>
        <time>2021-05-29 18:07:28</time>
      </trkpt>
      <trkpt lat="43.11699" lon="-2.91153">
        <ele>149.2</ele>
        <time>2021-05-29 18:07:29</time>
      </trkpt>
      <trkpt lat="43.11691" lon="-2.91154">
        <ele>149.2</ele>
        <time>2021-05-29 18:07:30</time>
      </trkpt>
      <trkpt lat="43.11684" lon="-2.91156">
        <ele>149.2</ele>
        <time>2021-05-29 18:07:31</time>
      </trkpt>
      <trkpt lat="43.11676" lon="-2.91157">
        <ele>149.2</ele>
        <time>2021-05-29 18:07:32</time>
      </trkpt>
      <trkpt lat="43.11668" lon="-2.91159">
        <ele>149.2</ele>
        <time>2021-05-29 18:07:33</time>
      </trkpt>
      <trkpt lat="43.11661" lon="-2.9116">
        <ele>149.2</ele>
        <time>2021-05-29 18:07:34</time>
      </trkpt>
      <trkpt lat="43.11653" lon="-2.91162">
        <ele>149.4</ele>
        <time>2021-05-29 18:07:35</time>
      </trkpt>
      <trkpt lat="43.11645" lon="-2.91163">
        <ele>149.6</ele>
        <time>2021-05-29 18:07:36</time>
      </trkpt>
      <trkpt lat="43.11638" lon="-2.91165">
        <ele>149.8</ele>
        <time>2021-05-29 18:07:37</time>
      </trkpt>
      <trkpt lat="43.1163" lon="-2.91166">
        <ele>150</ele>
        <time>2021-05-29 18:07:38</time>
      </trkpt>
      <trkpt lat="43.11622" lon="-2.91167">
        <ele>150.2</ele>
        <time>2021-05-29 18:07:39</time>
      </trkpt>
      <trkpt lat="43.11615" lon="-2.91168">
        <ele>150.2</ele>
        <time>2021-05-29 18:07:40</time>
      </trkpt>
      <trkpt lat="43.11607" lon="-2.91169">
        <ele>150.4</ele>
        <time>2021-05-29 18:07:41</time>
      </trkpt>
      <trkpt lat="43.11599" lon="-2.91169">
        <ele>150.4</ele>
        <time>2021-05-29 18:07:42</time>
      </trkpt>
      <trkpt lat="43.11592" lon="-2.91168">
        <ele>150.6</ele>
        <time>2021-05-29 18:07:43</time>
      </trkpt>
      <trkpt lat="43.11584" lon="-2.91167">
        <ele>150.6</ele>
        <time>2021-05-29 18:07:44</time>
      </trkpt>
      <trkpt lat="43.11576" lon="-2.91166">
        <ele>150.8</ele>
        <time>2021-05-29 18:07:45</time>
      </trkpt>
      <trkpt lat="43.11569" lon="-2.91164">
        <ele>151</ele>
        <time>2021-05-29 18:07:46</time>
      </trkpt>
      <trkpt lat="43.11561" lon="-2.91163">
        <ele>151.2</ele>
        <time>2021-05-29 18:07:47</time>
      </trkpt>
      <trkpt lat="43.11553" lon="-2.91161">
        <ele>151.4</ele>
        <time>2021-05-29 18:07:48</time>
      </trkpt>
      <trkpt lat="43.11546" lon="-2.91159">
        <ele>151.6</ele>
        <time>2021-05-29 18:07:49</time>
      </trkpt>
      <trkpt lat="43.11538" lon="-2.91157">
        <ele>151.6</ele>
        <time>2021-05-29 18:07:50</time>
      </trkpt>
      <trkpt lat="43.11531" lon="-2.91155">
        <ele>151.8</ele>
        <time>2021-05-29 18:07:51</time>
      </trkpt>
      <trkpt lat="43.11523" lon="-2.91153">
        <ele>151.8</ele>
        <time>2021-05-29 18:07:52</time>
      </trkpt>
      <trkpt lat="43.11516" lon="-2.9115">
        <ele>151.8</ele>
        <time>2021-05-29 18:07:53</time>
      </trkpt>
      <trkpt lat="43.11508" lon="-2.91148">
        <ele>152</ele>
        <time>2021-05-29 18:07:54</time>
      </trkpt>
      <trkpt lat="43.11501" lon="-2.91146">
        <ele>152</ele>
        <time>2021-05-29 18:07:55</time>
      </trkpt>
      <trkpt lat="43.11493" lon="-2.91144">
        <ele>152</ele>
        <time>2021-05-29 18:07:56</time>
      </trkpt>
      <trkpt lat="43.11486" lon="-2.91142">
        <ele>152.2</ele>
        <time>2021-05-29 18:07:57</time>
      </trkpt>
      <trkpt lat="43.11478" lon="-2.9114">
        <ele>152.4</ele>
        <time>2021-05-29 18:07:58</time>
      </trkpt>
      <trkpt lat="43.11471" lon="-2.91138">
        <ele>152.6</ele>
        <time>2021-05-29 18:07:59</time>
      </trkpt>
      <trkpt lat="43.11464" lon="-2.91136">
        <ele>152.6</ele>
        <time>2021-05-29 18:08:00</time>
      </trkpt>
      <trkpt lat="43.11456" lon="-2.91135">
        <ele>152.8</ele>
        <time>2021-05-29 18:08:01</time>
      </trkpt>
      <trkpt lat="43.11448" lon="-2.91134">
        <ele>152.8</ele>
        <time>2021-05-29 18:08:02</time>
      </trkpt>
      <trkpt lat="43.11441" lon="-2.91133">
        <ele>153</ele>
        <time>2021-05-29 18:08:03</time>
      </trkpt>
      <trkpt lat="43.11433" lon="-2.91133">
        <ele>153.2</ele>
        <time>2021-05-29 18:08:04</time>
      </trkpt>
      <trkpt lat="43.11426" lon="-2.91133">
        <ele>153.2</ele>
        <time>2021-05-29 18:08:05</time>
      </trkpt>
      <trkpt lat="43.11418" lon="-2.91133">
        <ele>153.4</ele>
        <time>2021-05-29 18:08:06</time>
      </trkpt>
      <trkpt lat="43.11411" lon="-2.91135">
        <ele>153.6</ele>
        <time>2021-05-29 18:08:07</time>
      </trkpt>
      <trkpt lat="43.11404" lon="-2.91136">
        <ele>153.8</ele>
        <time>2021-05-29 18:08:08</time>
      </trkpt>
      <trkpt lat="43.11397" lon="-2.91139">
        <ele>153.8</ele>
        <time>2021-05-29 18:08:09</time>
      </trkpt>
      <trkpt lat="43.1139" lon="-2.91142">
        <ele>154</ele>
        <time>2021-05-29 18:08:10</time>
      </trkpt>
      <trkpt lat="43.11383" lon="-2.91146">
        <ele>154</ele>
        <time>2021-05-29 18:08:11</time>
      </trkpt>
      <trkpt lat="43.11376" lon="-2.9115">
        <ele>154.2</ele>
        <time>2021-05-29 18:08:12</time>
      </trkpt>
      <trkpt lat="43.1137" lon="-2.91155">
        <ele>154.4</ele>
        <time>2021-05-29 18:08:13</time>
      </trkpt>
      <trkpt lat="43.11363" lon="-2.9116">
        <ele>154.4</ele>
        <time>2021-05-29 18:08:14</time>
      </trkpt>
      <trkpt lat="43.11357" lon="-2.91165">
        <ele>154.4</ele>
        <time>2021-05-29 18:08:15</time>
      </trkpt>
      <trkpt lat="43.11351" lon="-2.91171">
        <ele>154.6</ele>
        <time>2021-05-29 18:08:16</time>
      </trkpt>
      <trkpt lat="43.11345" lon="-2.91176">
        <ele>154.6</ele>
        <time>2021-05-29 18:08:17</time>
      </trkpt>
      <trkpt lat="43.11339" lon="-2.91182">
        <ele>154.8</ele>
        <time>2021-05-29 18:08:18</time>
      </trkpt>
      <trkpt lat="43.11333" lon="-2.91187">
        <ele>155</ele>
        <time>2021-05-29 18:08:19</time>
      </trkpt>
      <trkpt lat="43.11328" lon="-2.91193">
        <ele>155.2</ele>
        <time>2021-05-29 18:08:20</time>
      </trkpt>
      <trkpt lat="43.11322" lon="-2.91198">
        <ele>155.4</ele>
        <time>2021-05-29 18:08:21</time>
      </trkpt>
      <trkpt lat="43.11317" lon="-2.91204">
        <ele>155.6</ele>
        <time>2021-05-29 18:08:22</time>
      </trkpt>
      <trkpt lat="43.11311" lon="-2.9121">
        <ele>155.8</ele>
        <time>2021-05-29 18:08:23</time>
      </trkpt>
      <trkpt lat="43.11306" lon="-2.91215">
        <ele>156.2</ele>
        <time>2021-05-29 18:08:24</time>
      </trkpt>
      <trkpt lat="43.11301" lon="-2.91221">
        <ele>156.4</ele>
        <time>2021-05-29 18:08:25</time>
      </trkpt>
      <trkpt lat="43.11296" lon="-2.91226">
        <ele>156.8</ele>
        <time>2021-05-29 18:08:26</time>
      </trkpt>
      <trkpt lat="43.11291" lon="-2.91232">
        <ele>157.2</ele>
        <time>2021-05-29 18:08:27</time>
      </trkpt>
      <trkpt lat="43.11286" lon="-2.91237">
        <ele>157.4</ele>
        <time>2021-05-29 18:08:28</time>
      </trkpt>
      <trkpt lat="43.11282" lon="-2.91243">
        <ele>157.8</ele>
        <time>2021-05-29 18:08:29</time>
      </trkpt>
      <trkpt lat="43.11277" lon="-2.91249">
        <ele>158</ele>
        <time>2021-05-29 18:08:30</time>
      </trkpt>
      <trkpt lat="43.11273" lon="-2.91255">
        <ele>158.4</ele>
        <time>2021-05-29 18:08:31</time>
      </trkpt>
      <trkpt lat="43.11268" lon="-2.91261">
        <ele>158.6</ele>
        <time>2021-05-29 18:08:32</time>
      </trkpt>
      <trkpt lat="43.11264" lon="-2.91267">
        <ele>159</ele>
        <time>2021-05-29 18:08:33</time>
      </trkpt>
      <trkpt lat="43.11259" lon="-2.91274">
        <ele>159.4</ele>
        <time>2021-05-29 18:08:34</time>
      </trkpt>
      <trkpt lat="43.11255" lon="-2.9128">
        <ele>159.8</ele>
        <time>2021-05-29 18:08:35</time>
      </trkpt>
      <trkpt lat="43.1125" lon="-2.91286">
        <ele>160.4</ele>
        <time>2021-05-29 18:08:36</time>
      </trkpt>
      <trkpt lat="43.11245" lon="-2.91292">
        <ele>160.8</ele>
        <time>2021-05-29 18:08:37</time>
      </trkpt>
      <trkpt lat="43.11241" lon="-2.91298">
        <ele>161.2</ele>
        <time>2021-05-29 18:08:38</time>
      </trkpt>
      <trkpt lat="43.11236" lon="-2.91303">
        <ele>161.6</ele>
        <time>2021-05-29 18:08:39</time>
      </trkpt>
      <trkpt lat="43.11231" lon="-2.91309">
        <ele>162</ele>
        <time>2021-05-29 18:08:40</time>
      </trkpt>
      <trkpt lat="43.11226" lon="-2.91314">
        <ele>162.2</ele>
        <time>2021-05-29 18:08:41</time>
      </trkpt>
      <trkpt lat="43.11221" lon="-2.91319">
        <ele>162.6</ele>
        <time>2021-05-29 18:08:42</time>
      </trkpt>
      <trkpt lat="43.11215" lon="-2.91324">
        <ele>163</ele>
        <time>2021-05-29 18:08:43</time>
      </trkpt>
      <trkpt lat="43.1121" lon="-2.91329">
        <ele>163.4</ele>
        <time>2021-05-29 18:08:44</time>
      </trkpt>
      <trkpt lat="43.11204" lon="-2.91333">
        <ele>164</ele>
        <time>2021-05-29 18:08:45</time>
      </trkpt>
      <trkpt lat="43.11198" lon="-2.91337">
        <ele>164.2</ele>
        <time>2021-05-29 18:08:46</time>
      </trkpt>
      <trkpt lat="43.11192" lon="-2.91341">
        <ele>164.6</ele>
        <time>2021-05-29 18:08:47</time>
      </trkpt>
      <trkpt lat="43.11185" lon="-2.91344">
        <ele>165</ele>
        <time>2021-05-29 18:08:48</time>
      </trkpt>
      <trkpt lat="43.11179" lon="-2.91347">
        <ele>165.4</ele>
        <time>2021-05-29 18:08:49</time>
      </trkpt>
      <trkpt lat="43.11172" lon="-2.9135">
        <ele>165.8</ele>
        <time>2021-05-29 18:08:50</time>
      </trkpt>
      <trkpt lat="43.11166" lon="-2.91353">
        <ele>166.2</ele>
        <time>2021-05-29 18:08:51</time>
      </trkpt>
      <trkpt lat="43.11159" lon="-2.91356">
        <ele>166.6</ele>
        <time>2021-05-29 18:08:52</time>
      </trkpt>
      <trkpt lat="43.11153" lon="-2.91358">
        <ele>167</ele>
        <time>2021-05-29 18:08:53</time>
      </trkpt>
      <trkpt lat="43.11146" lon="-2.9136">
        <ele>167.2</ele>
        <time>2021-05-29 18:08:54</time>
      </trkpt>
      <trkpt lat="43.11139" lon="-2.91362">
        <ele>167.6</ele>
        <time>2021-05-29 18:08:55</time>
      </trkpt>
      <trkpt lat="43.11132" lon="-2.91364">
        <ele>168</ele>
        <time>2021-05-29 18:08:56</time>
      </trkpt>
      <trkpt lat="43.11126" lon="-2.91366">
        <ele>168.4</ele>
        <time>2021-05-29 18:08:57</time>
      </trkpt>
      <trkpt lat="43.11119" lon="-2.91368">
        <ele>168.6</ele>
        <time>2021-05-29 18:08:58</time>
      </trkpt>
      <trkpt lat="43.11113" lon="-2.9137">
        <ele>168.8</ele>
        <time>2021-05-29 18:08:59</time>
      </trkpt>
      <trkpt lat="43.11106" lon="-2.91371">
        <ele>169.2</ele>
        <time>2021-05-29 18:09:00</time>
      </trkpt>
      <trkpt lat="43.11099" lon="-2.91373">
        <ele>169.4</ele>
        <time>2021-05-29 18:09:01</time>
      </trkpt>
      <trkpt lat="43.11092" lon="-2.91375">
        <ele>169.8</ele>
        <time>2021-05-29 18:09:02</time>
      </trkpt>
      <trkpt lat="43.11086" lon="-2.91377">
        <ele>170</ele>
        <time>2021-05-29 18:09:03</time>
      </trkpt>
      <trkpt lat="43.11079" lon="-2.91379">
        <ele>170.4</ele>
        <time>2021-05-29 18:09:04</time>
      </trkpt>
      <trkpt lat="43.11072" lon="-2.91381">
        <ele>170.8</ele>
        <time>2021-05-29 18:09:05</time>
      </trkpt>
      <trkpt lat="43.11065" lon="-2.91383">
        <ele>171.2</ele>
        <time>2021-05-29 18:09:06</time>
      </trkpt>
      <trkpt lat="43.11057" lon="-2.91385">
        <ele>171.4</ele>
        <time>2021-05-29 18:09:07</time>
      </trkpt>
      <trkpt lat="43.1105" lon="-2.91387">
        <ele>171.6</ele>
        <time>2021-05-29 18:09:08</time>
      </trkpt>
      <trkpt lat="43.11043" lon="-2.91388">
        <ele>171.8</ele>
        <time>2021-05-29 18:09:09</time>
      </trkpt>
      <trkpt lat="43.11036" lon="-2.9139">
        <ele>172.4</ele>
        <time>2021-05-29 18:09:10</time>
      </trkpt>
      <trkpt lat="43.11029" lon="-2.91393">
        <ele>172.6</ele>
        <time>2021-05-29 18:09:11</time>
      </trkpt>
      <trkpt lat="43.11021" lon="-2.91395">
        <ele>172.8</ele>
        <time>2021-05-29 18:09:12</time>
      </trkpt>
      <trkpt lat="43.11014" lon="-2.91397">
        <ele>173</ele>
        <time>2021-05-29 18:09:13</time>
      </trkpt>
      <trkpt lat="43.11006" lon="-2.91399">
        <ele>173.2</ele>
        <time>2021-05-29 18:09:14</time>
      </trkpt>
      <trkpt lat="43.10998" lon="-2.91402">
        <ele>173.2</ele>
        <time>2021-05-29 18:09:15</time>
      </trkpt>
      <trkpt lat="43.10991" lon="-2.91404">
        <ele>173.4</ele>
        <time>2021-05-29 18:09:16</time>
      </trkpt>
      <trkpt lat="43.10983" lon="-2.91407">
        <ele>173.4</ele>
        <time>2021-05-29 18:09:17</time>
      </trkpt>
      <trkpt lat="43.10974" lon="-2.9141">
        <ele>173.4</ele>
        <time>2021-05-29 18:09:18</time>
      </trkpt>
      <trkpt lat="43.10966" lon="-2.91413">
        <ele>173.4</ele>
        <time>2021-05-29 18:09:19</time>
      </trkpt>
      <trkpt lat="43.10958" lon="-2.91416">
        <ele>173.4</ele>
        <time>2021-05-29 18:09:20</time>
      </trkpt>
      <trkpt lat="43.1095" lon="-2.91419">
        <ele>173.4</ele>
        <time>2021-05-29 18:09:21</time>
      </trkpt>
      <trkpt lat="43.10941" lon="-2.91422">
        <ele>173.4</ele>
        <time>2021-05-29 18:09:22</time>
      </trkpt>
      <trkpt lat="43.10932" lon="-2.91425">
        <ele>173.4</ele>
        <time>2021-05-29 18:09:23</time>
      </trkpt>
      <trkpt lat="43.10923" lon="-2.91428">
        <ele>173.4</ele>
        <time>2021-05-29 18:09:24</time>
      </trkpt>
      <trkpt lat="43.10914" lon="-2.91432">
        <ele>173.4</ele>
        <time>2021-05-29 18:09:25</time>
      </trkpt>
      <trkpt lat="43.10905" lon="-2.91435">
        <ele>173.4</ele>
        <time>2021-05-29 18:09:26</time>
      </trkpt>
      <trkpt lat="43.10896" lon="-2.91438">
        <ele>173.4</ele>
        <time>2021-05-29 18:09:27</time>
      </trkpt>
      <trkpt lat="43.10887" lon="-2.91441">
        <ele>173.4</ele>
        <time>2021-05-29 18:09:28</time>
      </trkpt>
      <trkpt lat="43.10878" lon="-2.91444">
        <ele>173.2</ele>
        <time>2021-05-29 18:09:29</time>
      </trkpt>
      <trkpt lat="43.10868" lon="-2.91447">
        <ele>173</ele>
        <time>2021-05-29 18:09:30</time>
      </trkpt>
      <trkpt lat="43.10858" lon="-2.91451">
        <ele>172.8</ele>
        <time>2021-05-29 18:09:31</time>
      </trkpt>
      <trkpt lat="43.10848" lon="-2.91455">
        <ele>172.6</ele>
        <time>2021-05-29 18:09:32</time>
      </trkpt>
      <trkpt lat="43.10839" lon="-2.91459">
        <ele>172.4</ele>
        <time>2021-05-29 18:09:33</time>
      </trkpt>
      <trkpt lat="43.10829" lon="-2.91462">
        <ele>172.2</ele>
        <time>2021-05-29 18:09:34</time>
      </trkpt>
      <trkpt lat="43.1082" lon="-2.91464">
        <ele>172.2</ele>
        <time>2021-05-29 18:09:35</time>
      </trkpt>
      <trkpt lat="43.1081" lon="-2.91467">
        <ele>172</ele>
        <time>2021-05-29 18:09:36</time>
      </trkpt>
      <trkpt lat="43.10801" lon="-2.91469">
        <ele>172</ele>
        <time>2021-05-29 18:09:37</time>
      </trkpt>
      <trkpt lat="43.10791" lon="-2.91471">
        <ele>171.8</ele>
        <time>2021-05-29 18:09:38</time>
      </trkpt>
      <trkpt lat="43.10782" lon="-2.91473">
        <ele>171.6</ele>
        <time>2021-05-29 18:09:39</time>
      </trkpt>
      <trkpt lat="43.10772" lon="-2.91475">
        <ele>171.6</ele>
        <time>2021-05-29 18:09:40</time>
      </trkpt>
      <trkpt lat="43.10763" lon="-2.91477">
        <ele>171.4</ele>
        <time>2021-05-29 18:09:41</time>
      </trkpt>
      <trkpt lat="43.10753" lon="-2.91478">
        <ele>171.2</ele>
        <time>2021-05-29 18:09:42</time>
      </trkpt>
      <trkpt lat="43.10744" lon="-2.91479">
        <ele>171.2</ele>
        <time>2021-05-29 18:09:43</time>
      </trkpt>
      <trkpt lat="43.10735" lon="-2.9148">
        <ele>171.2</ele>
        <time>2021-05-29 18:09:44</time>
      </trkpt>
      <trkpt lat="43.10725" lon="-2.91481">
        <ele>171.2</ele>
        <time>2021-05-29 18:09:45</time>
      </trkpt>
      <trkpt lat="43.10715" lon="-2.91481">
        <ele>171.2</ele>
        <time>2021-05-29 18:09:46</time>
      </trkpt>
      <trkpt lat="43.10705" lon="-2.91482">
        <ele>171.2</ele>
        <time>2021-05-29 18:09:47</time>
      </trkpt>
      <trkpt lat="43.10695" lon="-2.91482">
        <ele>171.2</ele>
        <time>2021-05-29 18:09:48</time>
      </trkpt>
      <trkpt lat="43.10685" lon="-2.91483">
        <ele>171.2</ele>
        <time>2021-05-29 18:09:49</time>
      </trkpt>
      <trkpt lat="43.10675" lon="-2.91483">
        <ele>171.2</ele>
        <time>2021-05-29 18:09:50</time>
      </trkpt>
      <trkpt lat="43.10666" lon="-2.91484">
        <ele>171.2</ele>
        <time>2021-05-29 18:09:51</time>
      </trkpt>
      <trkpt lat="43.10656" lon="-2.91485">
        <ele>171.2</ele>
        <time>2021-05-29 18:09:52</time>
      </trkpt>
      <trkpt lat="43.10647" lon="-2.91485">
        <ele>171.2</ele>
        <time>2021-05-29 18:09:53</time>
      </trkpt>
      <trkpt lat="43.10637" lon="-2.91485">
        <ele>171.2</ele>
        <time>2021-05-29 18:09:54</time>
      </trkpt>
      <trkpt lat="43.10627" lon="-2.91485">
        <ele>171.2</ele>
        <time>2021-05-29 18:09:55</time>
      </trkpt>
      <trkpt lat="43.10618" lon="-2.91485">
        <ele>171.2</ele>
        <time>2021-05-29 18:09:56</time>
      </trkpt>
      <trkpt lat="43.10609" lon="-2.91485">
        <ele>171.2</ele>
        <time>2021-05-29 18:09:57</time>
      </trkpt>
      <trkpt lat="43.10599" lon="-2.91485">
        <ele>171.2</ele>
        <time>2021-05-29 18:09:58</time>
      </trkpt>
      <trkpt lat="43.1059" lon="-2.91485">
        <ele>171.2</ele>
        <time>2021-05-29 18:09:59</time>
      </trkpt>
      <trkpt lat="43.1058" lon="-2.91484">
        <ele>171.2</ele>
        <time>2021-05-29 18:10:00</time>
      </trkpt>
      <trkpt lat="43.10571" lon="-2.91483">
        <ele>171.2</ele>
        <time>2021-05-29 18:10:01</time>
      </trkpt>
      <trkpt lat="43.10561" lon="-2.91483">
        <ele>171.2</ele>
        <time>2021-05-29 18:10:02</time>
      </trkpt>
      <trkpt lat="43.10552" lon="-2.91482">
        <ele>171.2</ele>
        <time>2021-05-29 18:10:03</time>
      </trkpt>
      <trkpt lat="43.10543" lon="-2.9148">
        <ele>171.2</ele>
        <time>2021-05-29 18:10:04</time>
      </trkpt>
      <trkpt lat="43.10534" lon="-2.91478">
        <ele>171</ele>
        <time>2021-05-29 18:10:05</time>
      </trkpt>
      <trkpt lat="43.10524" lon="-2.91476">
        <ele>171</ele>
        <time>2021-05-29 18:10:06</time>
      </trkpt>
      <trkpt lat="43.10515" lon="-2.91474">
        <ele>171</ele>
        <time>2021-05-29 18:10:07</time>
      </trkpt>
      <trkpt lat="43.10504" lon="-2.91472">
        <ele>170.8</ele>
        <time>2021-05-29 18:10:08</time>
      </trkpt>
      <trkpt lat="43.10494" lon="-2.91469">
        <ele>170.6</ele>
        <time>2021-05-29 18:10:09</time>
      </trkpt>
      <trkpt lat="43.10483" lon="-2.91467">
        <ele>170.6</ele>
        <time>2021-05-29 18:10:10</time>
      </trkpt>
      <trkpt lat="43.10472" lon="-2.91466">
        <ele>170.2</ele>
        <time>2021-05-29 18:10:11</time>
      </trkpt>
      <trkpt lat="43.10461" lon="-2.91464">
        <ele>170</ele>
        <time>2021-05-29 18:10:12</time>
      </trkpt>
      <trkpt lat="43.10451" lon="-2.91461">
        <ele>169.8</ele>
        <time>2021-05-29 18:10:13</time>
      </trkpt>
      <trkpt lat="43.1044" lon="-2.91459">
        <ele>169.6</ele>
        <time>2021-05-29 18:10:14</time>
      </trkpt>
      <trkpt lat="43.10429" lon="-2.91458">
        <ele>169.4</ele>
        <time>2021-05-29 18:10:15</time>
      </trkpt>
      <trkpt lat="43.10419" lon="-2.91458">
        <ele>169</ele>
        <time>2021-05-29 18:10:16</time>
      </trkpt>
      <trkpt lat="43.10408" lon="-2.91458">
        <ele>168.6</ele>
        <time>2021-05-29 18:10:17</time>
      </trkpt>
      <trkpt lat="43.10398" lon="-2.91459">
        <ele>168.2</ele>
        <time>2021-05-29 18:10:18</time>
      </trkpt>
      <trkpt lat="43.10388" lon="-2.91461">
        <ele>167</ele>
        <time>2021-05-29 18:10:19</time>
      </trkpt>
      <trkpt lat="43.10378" lon="-2.91461">
        <ele>166.6</ele>
        <time>2021-05-29 18:10:20</time>
      </trkpt>
      <trkpt lat="43.10368" lon="-2.91462">
        <ele>166.4</ele>
        <time>2021-05-29 18:10:21</time>
      </trkpt>
      <trkpt lat="43.10358" lon="-2.91463">
        <ele>166</ele>
        <time>2021-05-29 18:10:22</time>
      </trkpt>
      <trkpt lat="43.10349" lon="-2.91464">
        <ele>166</ele>
        <time>2021-05-29 18:10:23</time>
      </trkpt>
      <trkpt lat="43.10339" lon="-2.91465">
        <ele>165.8</ele>
        <time>2021-05-29 18:10:24</time>
      </trkpt>
      <trkpt lat="43.1033" lon="-2.91467">
        <ele>165.8</ele>
        <time>2021-05-29 18:10:25</time>
      </trkpt>
      <trkpt lat="43.10321" lon="-2.9147">
        <ele>165.8</ele>
        <time>2021-05-29 18:10:26</time>
      </trkpt>
      <trkpt lat="43.10312" lon="-2.91473">
        <ele>165.8</ele>
        <time>2021-05-29 18:10:27</time>
      </trkpt>
      <trkpt lat="43.10304" lon="-2.91477">
        <ele>165.8</ele>
        <time>2021-05-29 18:10:28</time>
      </trkpt>
      <trkpt lat="43.10296" lon="-2.91481">
        <ele>165.8</ele>
        <time>2021-05-29 18:10:29</time>
      </trkpt>
      <trkpt lat="43.10287" lon="-2.91485">
        <ele>165.8</ele>
        <time>2021-05-29 18:10:30</time>
      </trkpt>
      <trkpt lat="43.10278" lon="-2.91488">
        <ele>165.8</ele>
        <time>2021-05-29 18:10:31</time>
      </trkpt>
      <trkpt lat="43.1027" lon="-2.91492">
        <ele>165.8</ele>
        <time>2021-05-29 18:10:32</time>
      </trkpt>
      <trkpt lat="43.10261" lon="-2.91495">
        <ele>166</ele>
        <time>2021-05-29 18:10:33</time>
      </trkpt>
      <trkpt lat="43.10252" lon="-2.91498">
        <ele>166.2</ele>
        <time>2021-05-29 18:10:34</time>
      </trkpt>
      <trkpt lat="43.10244" lon="-2.915">
        <ele>166.2</ele>
        <time>2021-05-29 18:10:35</time>
      </trkpt>
      <trkpt lat="43.10235" lon="-2.91503">
        <ele>166.4</ele>
        <time>2021-05-29 18:10:36</time>
      </trkpt>
      <trkpt lat="43.10227" lon="-2.91505">
        <ele>166.6</ele>
        <time>2021-05-29 18:10:37</time>
      </trkpt>
      <trkpt lat="43.10218" lon="-2.91508">
        <ele>166.8</ele>
        <time>2021-05-29 18:10:38</time>
      </trkpt>
      <trkpt lat="43.1021" lon="-2.9151">
        <ele>167</ele>
        <time>2021-05-29 18:10:39</time>
      </trkpt>
      <trkpt lat="43.10201" lon="-2.91513">
        <ele>167.2</ele>
        <time>2021-05-29 18:10:40</time>
      </trkpt>
      <trkpt lat="43.10192" lon="-2.91516">
        <ele>167.2</ele>
        <time>2021-05-29 18:10:41</time>
      </trkpt>
      <trkpt lat="43.10184" lon="-2.91519">
        <ele>167.4</ele>
        <time>2021-05-29 18:10:42</time>
      </trkpt>
      <trkpt lat="43.10176" lon="-2.91523">
        <ele>167.4</ele>
        <time>2021-05-29 18:10:43</time>
      </trkpt>
      <trkpt lat="43.10168" lon="-2.91528">
        <ele>167.6</ele>
        <time>2021-05-29 18:10:44</time>
      </trkpt>
      <trkpt lat="43.1016" lon="-2.91533">
        <ele>167.8</ele>
        <time>2021-05-29 18:10:45</time>
      </trkpt>
      <trkpt lat="43.10152" lon="-2.91537">
        <ele>168</ele>
        <time>2021-05-29 18:10:46</time>
      </trkpt>
      <trkpt lat="43.10145" lon="-2.91542">
        <ele>168</ele>
        <time>2021-05-29 18:10:47</time>
      </trkpt>
      <trkpt lat="43.10137" lon="-2.91547">
        <ele>168</ele>
        <time>2021-05-29 18:10:48</time>
      </trkpt>
      <trkpt lat="43.10129" lon="-2.91551">
        <ele>168</ele>
        <time>2021-05-29 18:10:49</time>
      </trkpt>
      <trkpt lat="43.10121" lon="-2.91556">
        <ele>168.2</ele>
        <time>2021-05-29 18:10:50</time>
      </trkpt>
      <trkpt lat="43.10113" lon="-2.91561">
        <ele>168.2</ele>
        <time>2021-05-29 18:10:51</time>
      </trkpt>
      <trkpt lat="43.10105" lon="-2.91565">
        <ele>168.2</ele>
        <time>2021-05-29 18:10:52</time>
      </trkpt>
      <trkpt lat="43.10097" lon="-2.91568">
        <ele>168.2</ele>
        <time>2021-05-29 18:10:53</time>
      </trkpt>
      <trkpt lat="43.10088" lon="-2.9157">
        <ele>168.4</ele>
        <time>2021-05-29 18:10:54</time>
      </trkpt>
      <trkpt lat="43.10079" lon="-2.91571">
        <ele>168.4</ele>
        <time>2021-05-29 18:10:55</time>
      </trkpt>
      <trkpt lat="43.1007" lon="-2.91571">
        <ele>168.4</ele>
        <time>2021-05-29 18:10:56</time>
      </trkpt>
      <trkpt lat="43.10061" lon="-2.91571">
        <ele>168.4</ele>
        <time>2021-05-29 18:10:57</time>
      </trkpt>
      <trkpt lat="43.10052" lon="-2.91571">
        <ele>168.4</ele>
        <time>2021-05-29 18:10:58</time>
      </trkpt>
      <trkpt lat="43.10043" lon="-2.91572">
        <ele>168.4</ele>
        <time>2021-05-29 18:10:59</time>
      </trkpt>
      <trkpt lat="43.10034" lon="-2.91572">
        <ele>168.4</ele>
        <time>2021-05-29 18:11:00</time>
      </trkpt>
      <trkpt lat="43.10025" lon="-2.91573">
        <ele>168.4</ele>
        <time>2021-05-29 18:11:01</time>
      </trkpt>
      <trkpt lat="43.10017" lon="-2.91574">
        <ele>168.2</ele>
        <time>2021-05-29 18:11:02</time>
      </trkpt>
      <trkpt lat="43.10008" lon="-2.91576">
        <ele>168.2</ele>
        <time>2021-05-29 18:11:03</time>
      </trkpt>
      <trkpt lat="43.1" lon="-2.91578">
        <ele>168.2</ele>
        <time>2021-05-29 18:11:04</time>
      </trkpt>
      <trkpt lat="43.09992" lon="-2.9158">
        <ele>168.2</ele>
        <time>2021-05-29 18:11:05</time>
      </trkpt>
      <trkpt lat="43.09983" lon="-2.91583">
        <ele>168.2</ele>
        <time>2021-05-29 18:11:06</time>
      </trkpt>
      <trkpt lat="43.09975" lon="-2.91585">
        <ele>168.2</ele>
        <time>2021-05-29 18:11:07</time>
      </trkpt>
      <trkpt lat="43.09967" lon="-2.91588">
        <ele>168.2</ele>
        <time>2021-05-29 18:11:08</time>
      </trkpt>
      <trkpt lat="43.09959" lon="-2.91591">
        <ele>168.2</ele>
        <time>2021-05-29 18:11:09</time>
      </trkpt>
      <trkpt lat="43.09951" lon="-2.91595">
        <ele>168.2</ele>
        <time>2021-05-29 18:11:10</time>
      </trkpt>
      <trkpt lat="43.09944" lon="-2.91599">
        <ele>168.2</ele>
        <time>2021-05-29 18:11:11</time>
      </trkpt>
      <trkpt lat="43.09936" lon="-2.91603">
        <ele>168.2</ele>
        <time>2021-05-29 18:11:12</time>
      </trkpt>
      <trkpt lat="43.09929" lon="-2.91609">
        <ele>168.2</ele>
        <time>2021-05-29 18:11:13</time>
      </trkpt>
      <trkpt lat="43.09923" lon="-2.91614">
        <ele>168.4</ele>
        <time>2021-05-29 18:11:14</time>
      </trkpt>
      <trkpt lat="43.09917" lon="-2.91619">
        <ele>168.6</ele>
        <time>2021-05-29 18:11:15</time>
      </trkpt>
      <trkpt lat="43.09911" lon="-2.91626">
        <ele>168.8</ele>
        <time>2021-05-29 18:11:16</time>
      </trkpt>
      <trkpt lat="43.09905" lon="-2.91633">
        <ele>169</ele>
        <time>2021-05-29 18:11:17</time>
      </trkpt>
      <trkpt lat="43.09899" lon="-2.91639">
        <ele>169</ele>
        <time>2021-05-29 18:11:18</time>
      </trkpt>
      <trkpt lat="43.09892" lon="-2.91646">
        <ele>169.2</ele>
        <time>2021-05-29 18:11:19</time>
      </trkpt>
      <trkpt lat="43.09886" lon="-2.91652">
        <ele>169.4</ele>
        <time>2021-05-29 18:11:20</time>
      </trkpt>
      <trkpt lat="43.09879" lon="-2.91658">
        <ele>169.6</ele>
        <time>2021-05-29 18:11:21</time>
      </trkpt>
      <trkpt lat="43.09872" lon="-2.91664">
        <ele>169.6</ele>
        <time>2021-05-29 18:11:22</time>
      </trkpt>
      <trkpt lat="43.09865" lon="-2.9167">
        <ele>169.8</ele>
        <time>2021-05-29 18:11:23</time>
      </trkpt>
      <trkpt lat="43.09859" lon="-2.91675">
        <ele>170</ele>
        <time>2021-05-29 18:11:24</time>
      </trkpt>
      <trkpt lat="43.09853" lon="-2.91681">
        <ele>170.2</ele>
        <time>2021-05-29 18:11:25</time>
      </trkpt>
      <trkpt lat="43.09847" lon="-2.91686">
        <ele>170.4</ele>
        <time>2021-05-29 18:11:26</time>
      </trkpt>
      <trkpt lat="43.09842" lon="-2.91691">
        <ele>170.4</ele>
        <time>2021-05-29 18:11:27</time>
      </trkpt>
      <trkpt lat="43.09836" lon="-2.91695">
        <ele>170.6</ele>
        <time>2021-05-29 18:11:28</time>
      </trkpt>
      <trkpt lat="43.09831" lon="-2.917">
        <ele>170.8</ele>
        <time>2021-05-29 18:11:29</time>
      </trkpt>
      <trkpt lat="43.09827" lon="-2.91704">
        <ele>171</ele>
        <time>2021-05-29 18:11:30</time>
      </trkpt>
      <trkpt lat="43.09823" lon="-2.91708">
        <ele>171.2</ele>
        <time>2021-05-29 18:11:31</time>
      </trkpt>
      <trkpt lat="43.09819" lon="-2.91711">
        <ele>171.6</ele>
        <time>2021-05-29 18:11:32</time>
      </trkpt>
      <trkpt lat="43.09817" lon="-2.91713">
        <ele>171.8</ele>
        <time>2021-05-29 18:11:33</time>
      </trkpt>
      <trkpt lat="43.09815" lon="-2.91715">
        <ele>172.2</ele>
        <time>2021-05-29 18:11:34</time>
      </trkpt>
      <trkpt lat="43.09813" lon="-2.91716">
        <ele>172.4</ele>
        <time>2021-05-29 18:11:35</time>
      </trkpt>
      <trkpt lat="43.09812" lon="-2.91717">
        <ele>172.6</ele>
        <time>2021-05-29 18:11:36</time>
      </trkpt>
      <trkpt lat="43.09811" lon="-2.91717">
        <ele>172.8</ele>
        <time>2021-05-29 18:11:37</time>
      </trkpt>
      <trkpt lat="43.0981" lon="-2.91718">
        <ele>173</ele>
        <time>2021-05-29 18:11:38</time>
      </trkpt>
      <trkpt lat="43.09809" lon="-2.91719">
        <ele>173</ele>
        <time>2021-05-29 18:11:39</time>
      </trkpt>
      <trkpt lat="43.09808" lon="-2.9172">
        <ele>173.2</ele>
        <time>2021-05-29 18:11:40</time>
      </trkpt>
      <trkpt lat="43.09807" lon="-2.91722">
        <ele>173.2</ele>
        <time>2021-05-29 18:11:41</time>
      </trkpt>
      <trkpt lat="43.09806" lon="-2.91723">
        <ele>173.4</ele>
        <time>2021-05-29 18:11:42</time>
      </trkpt>
      <trkpt lat="43.09805" lon="-2.91724">
        <ele>173.4</ele>
        <time>2021-05-29 18:11:43</time>
      </trkpt>
      <trkpt lat="43.09804" lon="-2.91725">
        <ele>173.4</ele>
        <time>2021-05-29 18:11:44</time>
      </trkpt>
      <trkpt lat="43.09804" lon="-2.91725">
        <ele>173.4</ele>
        <time>2021-05-29 18:11:45</time>
      </trkpt>
      <trkpt lat="43.09803" lon="-2.91724">
        <ele>173.4</ele>
        <time>2021-05-29 18:11:46</time>
      </trkpt>
      <trkpt lat="43.098" lon="-2.91728">
        <ele>173</ele>
        <time>2021-05-29 18:14:54</time>
      </trkpt>
      <trkpt lat="43.09797" lon="-2.9173">
        <ele>173</ele>
        <time>2021-05-29 18:14:55</time>
      </trkpt>
      <trkpt lat="43.09795" lon="-2.91732">
        <ele>173</ele>
        <time>2021-05-29 18:14:56</time>
      </trkpt>
      <trkpt lat="43.09792" lon="-2.91734">
        <ele>173</ele>
        <time>2021-05-29 18:14:57</time>
      </trkpt>
      <trkpt lat="43.09789" lon="-2.91736">
        <ele>173</ele>
        <time>2021-05-29 18:14:58</time>
      </trkpt>
      <trkpt lat="43.09787" lon="-2.91738">
        <ele>173</ele>
        <time>2021-05-29 18:14:59</time>
      </trkpt>
      <trkpt lat="43.09784" lon="-2.9174">
        <ele>173</ele>
        <time>2021-05-29 18:15:00</time>
      </trkpt>
      <trkpt lat="43.0978" lon="-2.91743">
        <ele>173.2</ele>
        <time>2021-05-29 18:15:01</time>
      </trkpt>
      <trkpt lat="43.09777" lon="-2.91746">
        <ele>173.2</ele>
        <time>2021-05-29 18:15:02</time>
      </trkpt>
      <trkpt lat="43.09773" lon="-2.91748">
        <ele>173.2</ele>
        <time>2021-05-29 18:15:03</time>
      </trkpt>
      <trkpt lat="43.09769" lon="-2.91751">
        <ele>173.2</ele>
        <time>2021-05-29 18:15:04</time>
      </trkpt>
      <trkpt lat="43.09765" lon="-2.91754">
        <ele>173.4</ele>
        <time>2021-05-29 18:15:05</time>
      </trkpt>
      <trkpt lat="43.0976" lon="-2.91756">
        <ele>173.4</ele>
        <time>2021-05-29 18:15:06</time>
      </trkpt>
      <trkpt lat="43.09756" lon="-2.91759">
        <ele>173.4</ele>
        <time>2021-05-29 18:15:07</time>
      </trkpt>
      <trkpt lat="43.09751" lon="-2.91762">
        <ele>173.6</ele>
        <time>2021-05-29 18:15:08</time>
      </trkpt>
      <trkpt lat="43.09747" lon="-2.91764">
        <ele>173.6</ele>
        <time>2021-05-29 18:15:09</time>
      </trkpt>
      <trkpt lat="43.09741" lon="-2.91766">
        <ele>173.8</ele>
        <time>2021-05-29 18:15:10</time>
      </trkpt>
      <trkpt lat="43.09736" lon="-2.91768">
        <ele>173.8</ele>
        <time>2021-05-29 18:15:11</time>
      </trkpt>
      <trkpt lat="43.0973" lon="-2.9177">
        <ele>174</ele>
        <time>2021-05-29 18:15:12</time>
      </trkpt>
      <trkpt lat="43.09724" lon="-2.91772">
        <ele>174</ele>
        <time>2021-05-29 18:15:13</time>
      </trkpt>
      <trkpt lat="43.09719" lon="-2.91774">
        <ele>174</ele>
        <time>2021-05-29 18:15:14</time>
      </trkpt>
      <trkpt lat="43.09713" lon="-2.91775">
        <ele>174.4</ele>
        <time>2021-05-29 18:15:15</time>
      </trkpt>
      <trkpt lat="43.09707" lon="-2.91777">
        <ele>174.4</ele>
        <time>2021-05-29 18:15:16</time>
      </trkpt>
      <trkpt lat="43.09701" lon="-2.91779">
        <ele>174.6</ele>
        <time>2021-05-29 18:15:17</time>
      </trkpt>
      <trkpt lat="43.09694" lon="-2.9178">
        <ele>174.8</ele>
        <time>2021-05-29 18:15:18</time>
      </trkpt>
      <trkpt lat="43.09688" lon="-2.91782">
        <ele>175</ele>
        <time>2021-05-29 18:15:19</time>
      </trkpt>
      <trkpt lat="43.09682" lon="-2.91784">
        <ele>175</ele>
        <time>2021-05-29 18:15:20</time>
      </trkpt>
      <trkpt lat="43.09675" lon="-2.91785">
        <ele>175.2</ele>
        <time>2021-05-29 18:15:21</time>
      </trkpt>
      <trkpt lat="43.09668" lon="-2.91786">
        <ele>175.2</ele>
        <time>2021-05-29 18:15:22</time>
      </trkpt>
      <trkpt lat="43.09661" lon="-2.91787">
        <ele>175.2</ele>
        <time>2021-05-29 18:15:23</time>
      </trkpt>
      <trkpt lat="43.09654" lon="-2.91787">
        <ele>175.4</ele>
        <time>2021-05-29 18:15:24</time>
      </trkpt>
      <trkpt lat="43.09646" lon="-2.91786">
        <ele>175.4</ele>
        <time>2021-05-29 18:15:25</time>
      </trkpt>
      <trkpt lat="43.09639" lon="-2.91786">
        <ele>175.4</ele>
        <time>2021-05-29 18:15:26</time>
      </trkpt>
      <trkpt lat="43.09631" lon="-2.91785">
        <ele>175.6</ele>
        <time>2021-05-29 18:15:27</time>
      </trkpt>
      <trkpt lat="43.09624" lon="-2.91784">
        <ele>175.8</ele>
        <time>2021-05-29 18:15:28</time>
      </trkpt>
      <trkpt lat="43.09616" lon="-2.91783">
        <ele>175.8</ele>
        <time>2021-05-29 18:15:29</time>
      </trkpt>
      <trkpt lat="43.09608" lon="-2.91781">
        <ele>176.2</ele>
        <time>2021-05-29 18:15:30</time>
      </trkpt>
      <trkpt lat="43.096" lon="-2.9178">
        <ele>176.4</ele>
        <time>2021-05-29 18:15:31</time>
      </trkpt>
      <trkpt lat="43.09592" lon="-2.91778">
        <ele>176.8</ele>
        <time>2021-05-29 18:15:32</time>
      </trkpt>
      <trkpt lat="43.09584" lon="-2.91777">
        <ele>176.8</ele>
        <time>2021-05-29 18:15:33</time>
      </trkpt>
      <trkpt lat="43.09577" lon="-2.91775">
        <ele>177</ele>
        <time>2021-05-29 18:15:34</time>
      </trkpt>
      <trkpt lat="43.09569" lon="-2.91774">
        <ele>177</ele>
        <time>2021-05-29 18:15:35</time>
      </trkpt>
      <trkpt lat="43.09561" lon="-2.91772">
        <ele>177.2</ele>
        <time>2021-05-29 18:15:36</time>
      </trkpt>
      <trkpt lat="43.09554" lon="-2.9177">
        <ele>177.2</ele>
        <time>2021-05-29 18:15:37</time>
      </trkpt>
      <trkpt lat="43.09546" lon="-2.91769">
        <ele>177.2</ele>
        <time>2021-05-29 18:15:38</time>
      </trkpt>
      <trkpt lat="43.09539" lon="-2.91768">
        <ele>177.4</ele>
        <time>2021-05-29 18:15:39</time>
      </trkpt>
      <trkpt lat="43.09532" lon="-2.91767">
        <ele>177.6</ele>
        <time>2021-05-29 18:15:40</time>
      </trkpt>
      <trkpt lat="43.09525" lon="-2.91766">
        <ele>177.8</ele>
        <time>2021-05-29 18:15:41</time>
      </trkpt>
      <trkpt lat="43.09518" lon="-2.91765">
        <ele>177.8</ele>
        <time>2021-05-29 18:15:42</time>
      </trkpt>
      <trkpt lat="43.09511" lon="-2.91764">
        <ele>178</ele>
        <time>2021-05-29 18:15:43</time>
      </trkpt>
      <trkpt lat="43.09503" lon="-2.91763">
        <ele>178.2</ele>
        <time>2021-05-29 18:15:44</time>
      </trkpt>
      <trkpt lat="43.09496" lon="-2.91762">
        <ele>178.2</ele>
        <time>2021-05-29 18:15:45</time>
      </trkpt>
      <trkpt lat="43.09489" lon="-2.91761">
        <ele>178.4</ele>
        <time>2021-05-29 18:15:46</time>
      </trkpt>
      <trkpt lat="43.09481" lon="-2.9176">
        <ele>178.6</ele>
        <time>2021-05-29 18:15:47</time>
      </trkpt>
      <trkpt lat="43.09474" lon="-2.91759">
        <ele>178.8</ele>
        <time>2021-05-29 18:15:48</time>
      </trkpt>
      <trkpt lat="43.09467" lon="-2.91758">
        <ele>179</ele>
        <time>2021-05-29 18:15:49</time>
      </trkpt>
      <trkpt lat="43.0946" lon="-2.91758">
        <ele>179.4</ele>
        <time>2021-05-29 18:15:50</time>
      </trkpt>
      <trkpt lat="43.09453" lon="-2.91757">
        <ele>179.6</ele>
        <time>2021-05-29 18:15:51</time>
      </trkpt>
      <trkpt lat="43.09447" lon="-2.91757">
        <ele>179.6</ele>
        <time>2021-05-29 18:15:52</time>
      </trkpt>
      <trkpt lat="43.0944" lon="-2.91757">
        <ele>179.8</ele>
        <time>2021-05-29 18:15:53</time>
      </trkpt>
      <trkpt lat="43.09433" lon="-2.91758">
        <ele>179.8</ele>
        <time>2021-05-29 18:15:54</time>
      </trkpt>
      <trkpt lat="43.09427" lon="-2.91758">
        <ele>180</ele>
        <time>2021-05-29 18:15:55</time>
      </trkpt>
      <trkpt lat="43.0942" lon="-2.91759">
        <ele>180.4</ele>
        <time>2021-05-29 18:15:56</time>
      </trkpt>
      <trkpt lat="43.09414" lon="-2.9176">
        <ele>180.6</ele>
        <time>2021-05-29 18:15:57</time>
      </trkpt>
      <trkpt lat="43.09407" lon="-2.9176">
        <ele>180.8</ele>
        <time>2021-05-29 18:15:58</time>
      </trkpt>
      <trkpt lat="43.09401" lon="-2.9176">
        <ele>181.2</ele>
        <time>2021-05-29 18:15:59</time>
      </trkpt>
      <trkpt lat="43.09394" lon="-2.91759">
        <ele>181.6</ele>
        <time>2021-05-29 18:16:00</time>
      </trkpt>
      <trkpt lat="43.09388" lon="-2.91758">
        <ele>182</ele>
        <time>2021-05-29 18:16:01</time>
      </trkpt>
      <trkpt lat="43.09381" lon="-2.91757">
        <ele>182.4</ele>
        <time>2021-05-29 18:16:02</time>
      </trkpt>
      <trkpt lat="43.09374" lon="-2.91755">
        <ele>182.8</ele>
        <time>2021-05-29 18:16:03</time>
      </trkpt>
      <trkpt lat="43.09368" lon="-2.91753">
        <ele>183.2</ele>
        <time>2021-05-29 18:16:04</time>
      </trkpt>
      <trkpt lat="43.09361" lon="-2.91751">
        <ele>183.4</ele>
        <time>2021-05-29 18:16:05</time>
      </trkpt>
      <trkpt lat="43.09355" lon="-2.91749">
        <ele>183.6</ele>
        <time>2021-05-29 18:16:06</time>
      </trkpt>
      <trkpt lat="43.09349" lon="-2.91747">
        <ele>184</ele>
        <time>2021-05-29 18:16:07</time>
      </trkpt>
      <trkpt lat="43.09343" lon="-2.91744">
        <ele>184.2</ele>
        <time>2021-05-29 18:16:08</time>
      </trkpt>
      <trkpt lat="43.09337" lon="-2.91742">
        <ele>184.2</ele>
        <time>2021-05-29 18:16:09</time>
      </trkpt>
      <trkpt lat="43.09332" lon="-2.9174">
        <ele>184.4</ele>
        <time>2021-05-29 18:16:10</time>
      </trkpt>
      <trkpt lat="43.09325" lon="-2.91739">
        <ele>184.6</ele>
        <time>2021-05-29 18:16:11</time>
      </trkpt>
      <trkpt lat="43.0932" lon="-2.91736">
        <ele>184.8</ele>
        <time>2021-05-29 18:16:12</time>
      </trkpt>
      <trkpt lat="43.09314" lon="-2.91734">
        <ele>185</ele>
        <time>2021-05-29 18:16:13</time>
      </trkpt>
      <trkpt lat="43.09308" lon="-2.91732">
        <ele>185.2</ele>
        <time>2021-05-29 18:16:14</time>
      </trkpt>
      <trkpt lat="43.09303" lon="-2.9173">
        <ele>185.4</ele>
        <time>2021-05-29 18:16:15</time>
      </trkpt>
      <trkpt lat="43.09297" lon="-2.91728">
        <ele>185.2</ele>
        <time>2021-05-29 18:16:16</time>
      </trkpt>
      <trkpt lat="43.09291" lon="-2.91726">
        <ele>185.4</ele>
        <time>2021-05-29 18:16:17</time>
      </trkpt>
      <trkpt lat="43.09286" lon="-2.91723">
        <ele>185.6</ele>
        <time>2021-05-29 18:16:18</time>
      </trkpt>
      <trkpt lat="43.0928" lon="-2.91721">
        <ele>186</ele>
        <time>2021-05-29 18:16:19</time>
      </trkpt>
      <trkpt lat="43.09275" lon="-2.91719">
        <ele>186.2</ele>
        <time>2021-05-29 18:16:20</time>
      </trkpt>
      <trkpt lat="43.0927" lon="-2.91717">
        <ele>186.2</ele>
        <time>2021-05-29 18:16:21</time>
      </trkpt>
      <trkpt lat="43.09264" lon="-2.91715">
        <ele>186.4</ele>
        <time>2021-05-29 18:16:22</time>
      </trkpt>
      <trkpt lat="43.09259" lon="-2.91713">
        <ele>186.6</ele>
        <time>2021-05-29 18:16:23</time>
      </trkpt>
      <trkpt lat="43.09254" lon="-2.91712">
        <ele>187</ele>
        <time>2021-05-29 18:16:24</time>
      </trkpt>
      <trkpt lat="43.09249" lon="-2.91711">
        <ele>187.2</ele>
        <time>2021-05-29 18:16:25</time>
      </trkpt>
      <trkpt lat="43.09243" lon="-2.91711">
        <ele>187.6</ele>
        <time>2021-05-29 18:16:26</time>
      </trkpt>
      <trkpt lat="43.09238" lon="-2.91712">
        <ele>187.8</ele>
        <time>2021-05-29 18:16:27</time>
      </trkpt>
      <trkpt lat="43.09233" lon="-2.91713">
        <ele>188</ele>
        <time>2021-05-29 18:16:28</time>
      </trkpt>
      <trkpt lat="43.09229" lon="-2.91715">
        <ele>188.4</ele>
        <time>2021-05-29 18:16:29</time>
      </trkpt>
      <trkpt lat="43.09225" lon="-2.91718">
        <ele>188.6</ele>
        <time>2021-05-29 18:16:30</time>
      </trkpt>
      <trkpt lat="43.09222" lon="-2.91721">
        <ele>189</ele>
        <time>2021-05-29 18:16:31</time>
      </trkpt>
      <trkpt lat="43.09218" lon="-2.91724">
        <ele>189.2</ele>
        <time>2021-05-29 18:16:32</time>
      </trkpt>
      <trkpt lat="43.09215" lon="-2.91728">
        <ele>189.6</ele>
        <time>2021-05-29 18:16:33</time>
      </trkpt>
      <trkpt lat="43.09211" lon="-2.91732">
        <ele>190</ele>
        <time>2021-05-29 18:16:34</time>
      </trkpt>
      <trkpt lat="43.09207" lon="-2.91737">
        <ele>190.4</ele>
        <time>2021-05-29 18:16:35</time>
      </trkpt>
      <trkpt lat="43.09202" lon="-2.91742">
        <ele>190.8</ele>
        <time>2021-05-29 18:16:36</time>
      </trkpt>
      <trkpt lat="43.09198" lon="-2.91748">
        <ele>191.2</ele>
        <time>2021-05-29 18:16:37</time>
      </trkpt>
      <trkpt lat="43.09193" lon="-2.91754">
        <ele>191.4</ele>
        <time>2021-05-29 18:16:38</time>
      </trkpt>
      <trkpt lat="43.09187" lon="-2.91761">
        <ele>191.6</ele>
        <time>2021-05-29 18:16:39</time>
      </trkpt>
      <trkpt lat="43.09181" lon="-2.91767">
        <ele>191.6</ele>
        <time>2021-05-29 18:16:40</time>
      </trkpt>
      <trkpt lat="43.09176" lon="-2.91773">
        <ele>191.6</ele>
        <time>2021-05-29 18:16:41</time>
      </trkpt>
      <trkpt lat="43.0917" lon="-2.91781">
        <ele>191.6</ele>
        <time>2021-05-29 18:16:42</time>
      </trkpt>
      <trkpt lat="43.09163" lon="-2.91789">
        <ele>191.6</ele>
        <time>2021-05-29 18:16:43</time>
      </trkpt>
      <trkpt lat="43.09157" lon="-2.91798">
        <ele>191.6</ele>
        <time>2021-05-29 18:16:44</time>
      </trkpt>
      <trkpt lat="43.09149" lon="-2.91806">
        <ele>191.6</ele>
        <time>2021-05-29 18:16:45</time>
      </trkpt>
      <trkpt lat="43.09141" lon="-2.91812">
        <ele>191.6</ele>
        <time>2021-05-29 18:16:46</time>
      </trkpt>
      <trkpt lat="43.09133" lon="-2.91818">
        <ele>191.2</ele>
        <time>2021-05-29 18:16:47</time>
      </trkpt>
      <trkpt lat="43.09124" lon="-2.91823">
        <ele>190.8</ele>
        <time>2021-05-29 18:16:48</time>
      </trkpt>
      <trkpt lat="43.09114" lon="-2.91828">
        <ele>190.2</ele>
        <time>2021-05-29 18:16:49</time>
      </trkpt>
      <trkpt lat="43.09103" lon="-2.91832">
        <ele>189.8</ele>
        <time>2021-05-29 18:16:50</time>
      </trkpt>
      <trkpt lat="43.09094" lon="-2.91837">
        <ele>189.6</ele>
        <time>2021-05-29 18:16:51</time>
      </trkpt>
      <trkpt lat="43.09085" lon="-2.91841">
        <ele>189.4</ele>
        <time>2021-05-29 18:16:52</time>
      </trkpt>
      <trkpt lat="43.09075" lon="-2.91846">
        <ele>189.4</ele>
        <time>2021-05-29 18:16:53</time>
      </trkpt>
      <trkpt lat="43.09067" lon="-2.91851">
        <ele>189.4</ele>
        <time>2021-05-29 18:16:54</time>
      </trkpt>
      <trkpt lat="43.09059" lon="-2.91857">
        <ele>189.4</ele>
        <time>2021-05-29 18:16:55</time>
      </trkpt>
      <trkpt lat="43.09051" lon="-2.91861">
        <ele>189.4</ele>
        <time>2021-05-29 18:16:56</time>
      </trkpt>
      <trkpt lat="43.09042" lon="-2.91864">
        <ele>189.4</ele>
        <time>2021-05-29 18:16:57</time>
      </trkpt>
      <trkpt lat="43.09033" lon="-2.91866">
        <ele>189.4</ele>
        <time>2021-05-29 18:16:58</time>
      </trkpt>
      <trkpt lat="43.09025" lon="-2.91867">
        <ele>189.4</ele>
        <time>2021-05-29 18:16:59</time>
      </trkpt>
      <trkpt lat="43.09017" lon="-2.91868">
        <ele>189.4</ele>
        <time>2021-05-29 18:17:00</time>
      </trkpt>
      <trkpt lat="43.09008" lon="-2.91868">
        <ele>189.4</ele>
        <time>2021-05-29 18:17:01</time>
      </trkpt>
      <trkpt lat="43.08999" lon="-2.91867">
        <ele>189.4</ele>
        <time>2021-05-29 18:17:02</time>
      </trkpt>
      <trkpt lat="43.08991" lon="-2.91866">
        <ele>189.6</ele>
        <time>2021-05-29 18:17:03</time>
      </trkpt>
      <trkpt lat="43.08984" lon="-2.91865">
        <ele>189.8</ele>
        <time>2021-05-29 18:17:04</time>
      </trkpt>
      <trkpt lat="43.08978" lon="-2.91864">
        <ele>190</ele>
        <time>2021-05-29 18:17:05</time>
      </trkpt>
      <trkpt lat="43.08971" lon="-2.91862">
        <ele>190.2</ele>
        <time>2021-05-29 18:17:06</time>
      </trkpt>
      <trkpt lat="43.08965" lon="-2.9186">
        <ele>190.4</ele>
        <time>2021-05-29 18:17:07</time>
      </trkpt>
      <trkpt lat="43.08958" lon="-2.91857">
        <ele>190.8</ele>
        <time>2021-05-29 18:17:08</time>
      </trkpt>
      <trkpt lat="43.08952" lon="-2.91855">
        <ele>191</ele>
        <time>2021-05-29 18:17:09</time>
      </trkpt>
      <trkpt lat="43.08945" lon="-2.91853">
        <ele>191.4</ele>
        <time>2021-05-29 18:17:10</time>
      </trkpt>
      <trkpt lat="43.08938" lon="-2.91851">
        <ele>191.8</ele>
        <time>2021-05-29 18:17:11</time>
      </trkpt>
      <trkpt lat="43.08931" lon="-2.91848">
        <ele>192.4</ele>
        <time>2021-05-29 18:17:12</time>
      </trkpt>
      <trkpt lat="43.08924" lon="-2.91846">
        <ele>193.2</ele>
        <time>2021-05-29 18:17:13</time>
      </trkpt>
      <trkpt lat="43.08916" lon="-2.91843">
        <ele>193.4</ele>
        <time>2021-05-29 18:17:14</time>
      </trkpt>
      <trkpt lat="43.08909" lon="-2.91839">
        <ele>193.6</ele>
        <time>2021-05-29 18:17:15</time>
      </trkpt>
      <trkpt lat="43.08901" lon="-2.91836">
        <ele>193.6</ele>
        <time>2021-05-29 18:17:16</time>
      </trkpt>
      <trkpt lat="43.08894" lon="-2.91832">
        <ele>193.8</ele>
        <time>2021-05-29 18:17:17</time>
      </trkpt>
      <trkpt lat="43.08887" lon="-2.91827">
        <ele>194</ele>
        <time>2021-05-29 18:17:18</time>
      </trkpt>
      <trkpt lat="43.0888" lon="-2.91823">
        <ele>194</ele>
        <time>2021-05-29 18:17:19</time>
      </trkpt>
      <trkpt lat="43.08873" lon="-2.91818">
        <ele>194</ele>
        <time>2021-05-29 18:17:20</time>
      </trkpt>
      <trkpt lat="43.08866" lon="-2.91813">
        <ele>194</ele>
        <time>2021-05-29 18:17:21</time>
      </trkpt>
      <trkpt lat="43.08859" lon="-2.91808">
        <ele>194.2</ele>
        <time>2021-05-29 18:17:22</time>
      </trkpt>
      <trkpt lat="43.08852" lon="-2.91802">
        <ele>194.4</ele>
        <time>2021-05-29 18:17:23</time>
      </trkpt>
      <trkpt lat="43.08845" lon="-2.91797">
        <ele>194.4</ele>
        <time>2021-05-29 18:17:24</time>
      </trkpt>
      <trkpt lat="43.08838" lon="-2.91791">
        <ele>194.4</ele>
        <time>2021-05-29 18:17:25</time>
      </trkpt>
      <trkpt lat="43.08831" lon="-2.91786">
        <ele>194.4</ele>
        <time>2021-05-29 18:17:26</time>
      </trkpt>
      <trkpt lat="43.08824" lon="-2.9178">
        <ele>194.6</ele>
        <time>2021-05-29 18:17:27</time>
      </trkpt>
      <trkpt lat="43.08816" lon="-2.91775">
        <ele>195</ele>
        <time>2021-05-29 18:17:28</time>
      </trkpt>
      <trkpt lat="43.08809" lon="-2.9177">
        <ele>195</ele>
        <time>2021-05-29 18:17:29</time>
      </trkpt>
      <trkpt lat="43.08801" lon="-2.91765">
        <ele>195.2</ele>
        <time>2021-05-29 18:17:30</time>
      </trkpt>
      <trkpt lat="43.08793" lon="-2.9176">
        <ele>195.2</ele>
        <time>2021-05-29 18:17:31</time>
      </trkpt>
      <trkpt lat="43.08784" lon="-2.91756">
        <ele>195.2</ele>
        <time>2021-05-29 18:17:32</time>
      </trkpt>
      <trkpt lat="43.08776" lon="-2.91751">
        <ele>195.2</ele>
        <time>2021-05-29 18:17:33</time>
      </trkpt>
      <trkpt lat="43.08769" lon="-2.91746">
        <ele>195.2</ele>
        <time>2021-05-29 18:17:34</time>
      </trkpt>
      <trkpt lat="43.08761" lon="-2.91741">
        <ele>195.2</ele>
        <time>2021-05-29 18:17:35</time>
      </trkpt>
      <trkpt lat="43.08753" lon="-2.91737">
        <ele>195.2</ele>
        <time>2021-05-29 18:17:36</time>
      </trkpt>
      <trkpt lat="43.08745" lon="-2.91732">
        <ele>195.2</ele>
        <time>2021-05-29 18:17:37</time>
      </trkpt>
      <trkpt lat="43.08738" lon="-2.91728">
        <ele>195.2</ele>
        <time>2021-05-29 18:17:38</time>
      </trkpt>
      <trkpt lat="43.08731" lon="-2.91724">
        <ele>195.2</ele>
        <time>2021-05-29 18:17:39</time>
      </trkpt>
      <trkpt lat="43.08724" lon="-2.91719">
        <ele>195.4</ele>
        <time>2021-05-29 18:17:40</time>
      </trkpt>
      <trkpt lat="43.08717" lon="-2.91715">
        <ele>195.4</ele>
        <time>2021-05-29 18:17:41</time>
      </trkpt>
      <trkpt lat="43.08711" lon="-2.91711">
        <ele>195.4</ele>
        <time>2021-05-29 18:17:42</time>
      </trkpt>
      <trkpt lat="43.08705" lon="-2.91707">
        <ele>195.4</ele>
        <time>2021-05-29 18:17:43</time>
      </trkpt>
      <trkpt lat="43.08699" lon="-2.91703">
        <ele>195.4</ele>
        <time>2021-05-29 18:17:44</time>
      </trkpt>
      <trkpt lat="43.08693" lon="-2.917">
        <ele>195.4</ele>
        <time>2021-05-29 18:17:45</time>
      </trkpt>
      <trkpt lat="43.08687" lon="-2.91696">
        <ele>195.6</ele>
        <time>2021-05-29 18:17:46</time>
      </trkpt>
      <trkpt lat="43.0868" lon="-2.91693">
        <ele>196.2</ele>
        <time>2021-05-29 18:17:47</time>
      </trkpt>
      <trkpt lat="43.08673" lon="-2.9169">
        <ele>196.8</ele>
        <time>2021-05-29 18:17:48</time>
      </trkpt>
      <trkpt lat="43.08665" lon="-2.91687">
        <ele>197</ele>
        <time>2021-05-29 18:17:49</time>
      </trkpt>
      <trkpt lat="43.08657" lon="-2.91683">
        <ele>197</ele>
        <time>2021-05-29 18:17:50</time>
      </trkpt>
      <trkpt lat="43.08648" lon="-2.9168">
        <ele>197.2</ele>
        <time>2021-05-29 18:17:51</time>
      </trkpt>
      <trkpt lat="43.08638" lon="-2.91677">
        <ele>197.2</ele>
        <time>2021-05-29 18:17:52</time>
      </trkpt>
      <trkpt lat="43.08628" lon="-2.91674">
        <ele>197.2</ele>
        <time>2021-05-29 18:17:53</time>
      </trkpt>
      <trkpt lat="43.08618" lon="-2.91671">
        <ele>197.2</ele>
        <time>2021-05-29 18:17:54</time>
      </trkpt>
      <trkpt lat="43.08608" lon="-2.91669">
        <ele>197.2</ele>
        <time>2021-05-29 18:17:55</time>
      </trkpt>
      <trkpt lat="43.08598" lon="-2.91666">
        <ele>197.2</ele>
        <time>2021-05-29 18:17:56</time>
      </trkpt>
      <trkpt lat="43.08589" lon="-2.91664">
        <ele>197.2</ele>
        <time>2021-05-29 18:17:57</time>
      </trkpt>
      <trkpt lat="43.08579" lon="-2.91661">
        <ele>197</ele>
        <time>2021-05-29 18:17:58</time>
      </trkpt>
      <trkpt lat="43.08569" lon="-2.91659">
        <ele>196.6</ele>
        <time>2021-05-29 18:17:59</time>
      </trkpt>
      <trkpt lat="43.0856" lon="-2.91657">
        <ele>196.6</ele>
        <time>2021-05-29 18:18:00</time>
      </trkpt>
      <trkpt lat="43.08551" lon="-2.91655">
        <ele>196.4</ele>
        <time>2021-05-29 18:18:01</time>
      </trkpt>
      <trkpt lat="43.08542" lon="-2.91653">
        <ele>196.4</ele>
        <time>2021-05-29 18:18:02</time>
      </trkpt>
      <trkpt lat="43.08533" lon="-2.91651">
        <ele>196.4</ele>
        <time>2021-05-29 18:18:03</time>
      </trkpt>
      <trkpt lat="43.08525" lon="-2.91648">
        <ele>196.4</ele>
        <time>2021-05-29 18:18:04</time>
      </trkpt>
      <trkpt lat="43.08517" lon="-2.91644">
        <ele>196.4</ele>
        <time>2021-05-29 18:18:05</time>
      </trkpt>
      <trkpt lat="43.08509" lon="-2.9164">
        <ele>196.4</ele>
        <time>2021-05-29 18:18:06</time>
      </trkpt>
      <trkpt lat="43.08501" lon="-2.91636">
        <ele>196.4</ele>
        <time>2021-05-29 18:18:07</time>
      </trkpt>
      <trkpt lat="43.08493" lon="-2.9163">
        <ele>196.4</ele>
        <time>2021-05-29 18:18:08</time>
      </trkpt>
      <trkpt lat="43.08485" lon="-2.91625">
        <ele>196.4</ele>
        <time>2021-05-29 18:18:09</time>
      </trkpt>
      <trkpt lat="43.08478" lon="-2.91619">
        <ele>196.4</ele>
        <time>2021-05-29 18:18:10</time>
      </trkpt>
      <trkpt lat="43.08471" lon="-2.91613">
        <ele>196.4</ele>
        <time>2021-05-29 18:18:11</time>
      </trkpt>
      <trkpt lat="43.08464" lon="-2.91607">
        <ele>196.4</ele>
        <time>2021-05-29 18:18:12</time>
      </trkpt>
      <trkpt lat="43.08458" lon="-2.91602">
        <ele>196.6</ele>
        <time>2021-05-29 18:18:13</time>
      </trkpt>
      <trkpt lat="43.08451" lon="-2.91599">
        <ele>196.6</ele>
        <time>2021-05-29 18:18:14</time>
      </trkpt>
      <trkpt lat="43.08444" lon="-2.91595">
        <ele>196.6</ele>
        <time>2021-05-29 18:18:15</time>
      </trkpt>
      <trkpt lat="43.08438" lon="-2.91592">
        <ele>196.8</ele>
        <time>2021-05-29 18:18:16</time>
      </trkpt>
      <trkpt lat="43.08431" lon="-2.91589">
        <ele>196.8</ele>
        <time>2021-05-29 18:18:17</time>
      </trkpt>
      <trkpt lat="43.08424" lon="-2.91588">
        <ele>197</ele>
        <time>2021-05-29 18:18:18</time>
      </trkpt>
      <trkpt lat="43.08417" lon="-2.91587">
        <ele>197.2</ele>
        <time>2021-05-29 18:18:19</time>
      </trkpt>
      <trkpt lat="43.08411" lon="-2.91587">
        <ele>197.4</ele>
        <time>2021-05-29 18:18:20</time>
      </trkpt>
      <trkpt lat="43.08404" lon="-2.91588">
        <ele>197.8</ele>
        <time>2021-05-29 18:18:21</time>
      </trkpt>
      <trkpt lat="43.08397" lon="-2.9159">
        <ele>198.8</ele>
        <time>2021-05-29 18:18:22</time>
      </trkpt>
      <trkpt lat="43.0839" lon="-2.91594">
        <ele>199</ele>
        <time>2021-05-29 18:18:23</time>
      </trkpt>
      <trkpt lat="43.08384" lon="-2.91599">
        <ele>199.6</ele>
        <time>2021-05-29 18:18:24</time>
      </trkpt>
      <trkpt lat="43.08377" lon="-2.91605">
        <ele>199.8</ele>
        <time>2021-05-29 18:18:25</time>
      </trkpt>
      <trkpt lat="43.08369" lon="-2.91612">
        <ele>200.2</ele>
        <time>2021-05-29 18:18:26</time>
      </trkpt>
      <trkpt lat="43.08361" lon="-2.9162">
        <ele>200.4</ele>
        <time>2021-05-29 18:18:27</time>
      </trkpt>
      <trkpt lat="43.08352" lon="-2.91627">
        <ele>200.4</ele>
        <time>2021-05-29 18:18:28</time>
      </trkpt>
      <trkpt lat="43.08344" lon="-2.91634">
        <ele>200.4</ele>
        <time>2021-05-29 18:18:29</time>
      </trkpt>
      <trkpt lat="43.08335" lon="-2.91641">
        <ele>200.4</ele>
        <time>2021-05-29 18:18:30</time>
      </trkpt>
      <trkpt lat="43.08327" lon="-2.91647">
        <ele>200.4</ele>
        <time>2021-05-29 18:18:31</time>
      </trkpt>
      <trkpt lat="43.08318" lon="-2.91653">
        <ele>200.4</ele>
        <time>2021-05-29 18:18:32</time>
      </trkpt>
      <trkpt lat="43.08309" lon="-2.9166">
        <ele>200.4</ele>
        <time>2021-05-29 18:18:33</time>
      </trkpt>
      <trkpt lat="43.083" lon="-2.91666">
        <ele>200.4</ele>
        <time>2021-05-29 18:18:34</time>
      </trkpt>
      <trkpt lat="43.08292" lon="-2.91673">
        <ele>200.4</ele>
        <time>2021-05-29 18:18:35</time>
      </trkpt>
      <trkpt lat="43.08284" lon="-2.91679">
        <ele>200.4</ele>
        <time>2021-05-29 18:18:36</time>
      </trkpt>
      <trkpt lat="43.08275" lon="-2.91685">
        <ele>200.4</ele>
        <time>2021-05-29 18:18:37</time>
      </trkpt>
      <trkpt lat="43.08268" lon="-2.91691">
        <ele>200.4</ele>
        <time>2021-05-29 18:18:38</time>
      </trkpt>
      <trkpt lat="43.0826" lon="-2.91696">
        <ele>200.4</ele>
        <time>2021-05-29 18:18:39</time>
      </trkpt>
      <trkpt lat="43.08252" lon="-2.91702">
        <ele>200.4</ele>
        <time>2021-05-29 18:18:40</time>
      </trkpt>
      <trkpt lat="43.08244" lon="-2.91707">
        <ele>200.4</ele>
        <time>2021-05-29 18:18:41</time>
      </trkpt>
      <trkpt lat="43.08237" lon="-2.91712">
        <ele>200.4</ele>
        <time>2021-05-29 18:18:42</time>
      </trkpt>
      <trkpt lat="43.08231" lon="-2.91716">
        <ele>200.4</ele>
        <time>2021-05-29 18:18:43</time>
      </trkpt>
      <trkpt lat="43.08225" lon="-2.9172">
        <ele>200.4</ele>
        <time>2021-05-29 18:18:44</time>
      </trkpt>
      <trkpt lat="43.08219" lon="-2.91724">
        <ele>200.4</ele>
        <time>2021-05-29 18:18:45</time>
      </trkpt>
      <trkpt lat="43.08213" lon="-2.91727">
        <ele>200.6</ele>
        <time>2021-05-29 18:18:46</time>
      </trkpt>
      <trkpt lat="43.08207" lon="-2.91731">
        <ele>200.8</ele>
        <time>2021-05-29 18:18:47</time>
      </trkpt>
      <trkpt lat="43.08201" lon="-2.91734">
        <ele>201</ele>
        <time>2021-05-29 18:18:48</time>
      </trkpt>
      <trkpt lat="43.08194" lon="-2.91738">
        <ele>201.2</ele>
        <time>2021-05-29 18:18:49</time>
      </trkpt>
      <trkpt lat="43.08188" lon="-2.91741">
        <ele>201.6</ele>
        <time>2021-05-29 18:18:50</time>
      </trkpt>
      <trkpt lat="43.08181" lon="-2.91744">
        <ele>202</ele>
        <time>2021-05-29 18:18:51</time>
      </trkpt>
      <trkpt lat="43.08173" lon="-2.91747">
        <ele>202.6</ele>
        <time>2021-05-29 18:18:52</time>
      </trkpt>
      <trkpt lat="43.08166" lon="-2.91748">
        <ele>203.2</ele>
        <time>2021-05-29 18:18:53</time>
      </trkpt>
      <trkpt lat="43.08158" lon="-2.9175">
        <ele>203.6</ele>
        <time>2021-05-29 18:18:54</time>
      </trkpt>
      <trkpt lat="43.08151" lon="-2.91752">
        <ele>204.2</ele>
        <time>2021-05-29 18:18:55</time>
      </trkpt>
      <trkpt lat="43.08143" lon="-2.91754">
        <ele>204.8</ele>
        <time>2021-05-29 18:18:56</time>
      </trkpt>
      <trkpt lat="43.08134" lon="-2.91756">
        <ele>205</ele>
        <time>2021-05-29 18:18:57</time>
      </trkpt>
      <trkpt lat="43.08126" lon="-2.91758">
        <ele>205</ele>
        <time>2021-05-29 18:18:58</time>
      </trkpt>
      <trkpt lat="43.08117" lon="-2.9176">
        <ele>205.2</ele>
        <time>2021-05-29 18:18:59</time>
      </trkpt>
      <trkpt lat="43.08108" lon="-2.91763">
        <ele>205.2</ele>
        <time>2021-05-29 18:19:00</time>
      </trkpt>
      <trkpt lat="43.08099" lon="-2.91765">
        <ele>205.2</ele>
        <time>2021-05-29 18:19:01</time>
      </trkpt>
      <trkpt lat="43.08089" lon="-2.91767">
        <ele>205.2</ele>
        <time>2021-05-29 18:19:02</time>
      </trkpt>
      <trkpt lat="43.0808" lon="-2.91768">
        <ele>205.2</ele>
        <time>2021-05-29 18:19:03</time>
      </trkpt>
      <trkpt lat="43.08071" lon="-2.91768">
        <ele>205.2</ele>
        <time>2021-05-29 18:19:04</time>
      </trkpt>
      <trkpt lat="43.08061" lon="-2.91768">
        <ele>205.2</ele>
        <time>2021-05-29 18:19:05</time>
      </trkpt>
      <trkpt lat="43.08052" lon="-2.91768">
        <ele>205</ele>
        <time>2021-05-29 18:19:06</time>
      </trkpt>
      <trkpt lat="43.08043" lon="-2.91768">
        <ele>204.6</ele>
        <time>2021-05-29 18:19:07</time>
      </trkpt>
      <trkpt lat="43.08035" lon="-2.91768">
        <ele>204.4</ele>
        <time>2021-05-29 18:19:08</time>
      </trkpt>
      <trkpt lat="43.08026" lon="-2.91766">
        <ele>204.4</ele>
        <time>2021-05-29 18:19:09</time>
      </trkpt>
      <trkpt lat="43.08018" lon="-2.91764">
        <ele>204.4</ele>
        <time>2021-05-29 18:19:10</time>
      </trkpt>
      <trkpt lat="43.08009" lon="-2.91762">
        <ele>204.4</ele>
        <time>2021-05-29 18:19:11</time>
      </trkpt>
      <trkpt lat="43.08001" lon="-2.9176">
        <ele>204.4</ele>
        <time>2021-05-29 18:19:12</time>
      </trkpt>
      <trkpt lat="43.07992" lon="-2.91757">
        <ele>204.2</ele>
        <time>2021-05-29 18:19:13</time>
      </trkpt>
      <trkpt lat="43.07984" lon="-2.91755">
        <ele>204.2</ele>
        <time>2021-05-29 18:19:14</time>
      </trkpt>
      <trkpt lat="43.07975" lon="-2.91753">
        <ele>204.2</ele>
        <time>2021-05-29 18:19:15</time>
      </trkpt>
      <trkpt lat="43.07966" lon="-2.91751">
        <ele>204.2</ele>
        <time>2021-05-29 18:19:16</time>
      </trkpt>
      <trkpt lat="43.07957" lon="-2.91748">
        <ele>204.4</ele>
        <time>2021-05-29 18:19:17</time>
      </trkpt>
      <trkpt lat="43.07949" lon="-2.91746">
        <ele>204.6</ele>
        <time>2021-05-29 18:19:18</time>
      </trkpt>
      <trkpt lat="43.0794" lon="-2.91744">
        <ele>204.6</ele>
        <time>2021-05-29 18:19:19</time>
      </trkpt>
      <trkpt lat="43.07932" lon="-2.91742">
        <ele>204.6</ele>
        <time>2021-05-29 18:19:20</time>
      </trkpt>
      <trkpt lat="43.07923" lon="-2.9174">
        <ele>204.8</ele>
        <time>2021-05-29 18:19:21</time>
      </trkpt>
      <trkpt lat="43.07915" lon="-2.91737">
        <ele>204.8</ele>
        <time>2021-05-29 18:19:22</time>
      </trkpt>
      <trkpt lat="43.07907" lon="-2.91735">
        <ele>204.8</ele>
        <time>2021-05-29 18:19:23</time>
      </trkpt>
      <trkpt lat="43.07898" lon="-2.91733">
        <ele>204.8</ele>
        <time>2021-05-29 18:19:24</time>
      </trkpt>
      <trkpt lat="43.07889" lon="-2.91732">
        <ele>205.2</ele>
        <time>2021-05-29 18:19:25</time>
      </trkpt>
      <trkpt lat="43.07881" lon="-2.91731">
        <ele>205.2</ele>
        <time>2021-05-29 18:19:26</time>
      </trkpt>
      <trkpt lat="43.07872" lon="-2.91732">
        <ele>205.2</ele>
        <time>2021-05-29 18:19:27</time>
      </trkpt>
      <trkpt lat="43.07864" lon="-2.91734">
        <ele>205.8</ele>
        <time>2021-05-29 18:19:28</time>
      </trkpt>
      <trkpt lat="43.07856" lon="-2.91737">
        <ele>205.8</ele>
        <time>2021-05-29 18:19:29</time>
      </trkpt>
      <trkpt lat="43.07848" lon="-2.91741">
        <ele>205.8</ele>
        <time>2021-05-29 18:19:30</time>
      </trkpt>
      <trkpt lat="43.0784" lon="-2.91746">
        <ele>206</ele>
        <time>2021-05-29 18:19:31</time>
      </trkpt>
      <trkpt lat="43.07832" lon="-2.91751">
        <ele>206</ele>
        <time>2021-05-29 18:19:32</time>
      </trkpt>
      <trkpt lat="43.07825" lon="-2.91758">
        <ele>206.4</ele>
        <time>2021-05-29 18:19:33</time>
      </trkpt>
      <trkpt lat="43.07818" lon="-2.91765">
        <ele>206.4</ele>
        <time>2021-05-29 18:19:34</time>
      </trkpt>
      <trkpt lat="43.07812" lon="-2.91774">
        <ele>206.4</ele>
        <time>2021-05-29 18:19:35</time>
      </trkpt>
      <trkpt lat="43.07807" lon="-2.91784">
        <ele>206.6</ele>
        <time>2021-05-29 18:19:36</time>
      </trkpt>
      <trkpt lat="43.07801" lon="-2.91793">
        <ele>206.6</ele>
        <time>2021-05-29 18:19:37</time>
      </trkpt>
      <trkpt lat="43.07797" lon="-2.91803">
        <ele>206.8</ele>
        <time>2021-05-29 18:19:38</time>
      </trkpt>
      <trkpt lat="43.07792" lon="-2.91812">
        <ele>206.8</ele>
        <time>2021-05-29 18:19:39</time>
      </trkpt>
      <trkpt lat="43.07788" lon="-2.91822">
        <ele>206.8</ele>
        <time>2021-05-29 18:19:40</time>
      </trkpt>
      <trkpt lat="43.07783" lon="-2.91832">
        <ele>206.8</ele>
        <time>2021-05-29 18:19:41</time>
      </trkpt>
      <trkpt lat="43.07779" lon="-2.91842">
        <ele>207</ele>
        <time>2021-05-29 18:19:42</time>
      </trkpt>
      <trkpt lat="43.07775" lon="-2.91852">
        <ele>207.2</ele>
        <time>2021-05-29 18:19:43</time>
      </trkpt>
      <trkpt lat="43.07771" lon="-2.91862">
        <ele>207.4</ele>
        <time>2021-05-29 18:19:44</time>
      </trkpt>
      <trkpt lat="43.07767" lon="-2.91871">
        <ele>207.6</ele>
        <time>2021-05-29 18:19:45</time>
      </trkpt>
      <trkpt lat="43.07763" lon="-2.91882">
        <ele>207.8</ele>
        <time>2021-05-29 18:19:46</time>
      </trkpt>
      <trkpt lat="43.0776" lon="-2.91892">
        <ele>208.2</ele>
        <time>2021-05-29 18:19:47</time>
      </trkpt>
      <trkpt lat="43.07757" lon="-2.91903">
        <ele>208.4</ele>
        <time>2021-05-29 18:19:48</time>
      </trkpt>
      <trkpt lat="43.07754" lon="-2.91915">
        <ele>208.8</ele>
        <time>2021-05-29 18:19:49</time>
      </trkpt>
      <trkpt lat="43.07752" lon="-2.91928">
        <ele>209</ele>
        <time>2021-05-29 18:19:50</time>
      </trkpt>
      <trkpt lat="43.0775" lon="-2.9194">
        <ele>209</ele>
        <time>2021-05-29 18:19:51</time>
      </trkpt>
      <trkpt lat="43.07748" lon="-2.91952">
        <ele>209.2</ele>
        <time>2021-05-29 18:19:52</time>
      </trkpt>
      <trkpt lat="43.07747" lon="-2.91964">
        <ele>209.2</ele>
        <time>2021-05-29 18:19:53</time>
      </trkpt>
      <trkpt lat="43.07746" lon="-2.91975">
        <ele>209.4</ele>
        <time>2021-05-29 18:19:54</time>
      </trkpt>
      <trkpt lat="43.07745" lon="-2.91986">
        <ele>209.4</ele>
        <time>2021-05-29 18:19:55</time>
      </trkpt>
      <trkpt lat="43.07744" lon="-2.91997">
        <ele>209.4</ele>
        <time>2021-05-29 18:19:56</time>
      </trkpt>
      <trkpt lat="43.07744" lon="-2.92008">
        <ele>209.6</ele>
        <time>2021-05-29 18:19:57</time>
      </trkpt>
      <trkpt lat="43.07744" lon="-2.92018">
        <ele>209.6</ele>
        <time>2021-05-29 18:19:58</time>
      </trkpt>
      <trkpt lat="43.07744" lon="-2.92027">
        <ele>209.6</ele>
        <time>2021-05-29 18:19:59</time>
      </trkpt>
      <trkpt lat="43.07744" lon="-2.92037">
        <ele>209.8</ele>
        <time>2021-05-29 18:20:00</time>
      </trkpt>
      <trkpt lat="43.07744" lon="-2.92046">
        <ele>209.8</ele>
        <time>2021-05-29 18:20:01</time>
      </trkpt>
      <trkpt lat="43.07744" lon="-2.92056">
        <ele>209.8</ele>
        <time>2021-05-29 18:20:02</time>
      </trkpt>
      <trkpt lat="43.07745" lon="-2.92065">
        <ele>210</ele>
        <time>2021-05-29 18:20:03</time>
      </trkpt>
      <trkpt lat="43.07746" lon="-2.92074">
        <ele>210.4</ele>
        <time>2021-05-29 18:20:04</time>
      </trkpt>
      <trkpt lat="43.07746" lon="-2.92083">
        <ele>211</ele>
        <time>2021-05-29 18:20:05</time>
      </trkpt>
      <trkpt lat="43.07746" lon="-2.92091">
        <ele>211.4</ele>
        <time>2021-05-29 18:20:06</time>
      </trkpt>
      <trkpt lat="43.07746" lon="-2.92099">
        <ele>211.6</ele>
        <time>2021-05-29 18:20:07</time>
      </trkpt>
      <trkpt lat="43.07747" lon="-2.92107">
        <ele>212</ele>
        <time>2021-05-29 18:20:08</time>
      </trkpt>
      <trkpt lat="43.07747" lon="-2.92115">
        <ele>212.4</ele>
        <time>2021-05-29 18:20:09</time>
      </trkpt>
      <trkpt lat="43.07748" lon="-2.92124">
        <ele>212.8</ele>
        <time>2021-05-29 18:20:10</time>
      </trkpt>
      <trkpt lat="43.07748" lon="-2.92133">
        <ele>213.2</ele>
        <time>2021-05-29 18:20:11</time>
      </trkpt>
      <trkpt lat="43.07748" lon="-2.92141">
        <ele>213.4</ele>
        <time>2021-05-29 18:20:12</time>
      </trkpt>
      <trkpt lat="43.07748" lon="-2.9215">
        <ele>213.8</ele>
        <time>2021-05-29 18:20:13</time>
      </trkpt>
      <trkpt lat="43.07749" lon="-2.9216">
        <ele>214.2</ele>
        <time>2021-05-29 18:20:14</time>
      </trkpt>
      <trkpt lat="43.0775" lon="-2.92169">
        <ele>214.6</ele>
        <time>2021-05-29 18:20:15</time>
      </trkpt>
      <trkpt lat="43.07751" lon="-2.92179">
        <ele>215</ele>
        <time>2021-05-29 18:20:16</time>
      </trkpt>
      <trkpt lat="43.07753" lon="-2.92189">
        <ele>215.4</ele>
        <time>2021-05-29 18:20:17</time>
      </trkpt>
      <trkpt lat="43.07755" lon="-2.92199">
        <ele>215.8</ele>
        <time>2021-05-29 18:20:18</time>
      </trkpt>
      <trkpt lat="43.07756" lon="-2.9221">
        <ele>216.2</ele>
        <time>2021-05-29 18:20:19</time>
      </trkpt>
      <trkpt lat="43.07756" lon="-2.9222">
        <ele>216.4</ele>
        <time>2021-05-29 18:20:20</time>
      </trkpt>
      <trkpt lat="43.07755" lon="-2.92232">
        <ele>216.6</ele>
        <time>2021-05-29 18:20:21</time>
      </trkpt>
      <trkpt lat="43.07753" lon="-2.92243">
        <ele>216.8</ele>
        <time>2021-05-29 18:20:22</time>
      </trkpt>
      <trkpt lat="43.0775" lon="-2.92253">
        <ele>217</ele>
        <time>2021-05-29 18:20:23</time>
      </trkpt>
      <trkpt lat="43.07746" lon="-2.92263">
        <ele>217</ele>
        <time>2021-05-29 18:20:24</time>
      </trkpt>
      <trkpt lat="43.0774" lon="-2.92272">
        <ele>217</ele>
        <time>2021-05-29 18:20:25</time>
      </trkpt>
      <trkpt lat="43.07734" lon="-2.9228">
        <ele>217</ele>
        <time>2021-05-29 18:20:26</time>
      </trkpt>
      <trkpt lat="43.07726" lon="-2.92287">
        <ele>217</ele>
        <time>2021-05-29 18:20:27</time>
      </trkpt>
      <trkpt lat="43.07718" lon="-2.92291">
        <ele>217</ele>
        <time>2021-05-29 18:20:28</time>
      </trkpt>
      <trkpt lat="43.07709" lon="-2.92295">
        <ele>217</ele>
        <time>2021-05-29 18:20:29</time>
      </trkpt>
      <trkpt lat="43.077" lon="-2.92297">
        <ele>217</ele>
        <time>2021-05-29 18:20:30</time>
      </trkpt>
      <trkpt lat="43.07691" lon="-2.92296">
        <ele>217</ele>
        <time>2021-05-29 18:20:31</time>
      </trkpt>
      <trkpt lat="43.07683" lon="-2.92294">
        <ele>216.8</ele>
        <time>2021-05-29 18:20:32</time>
      </trkpt>
      <trkpt lat="43.07674" lon="-2.92291">
        <ele>216.8</ele>
        <time>2021-05-29 18:20:33</time>
      </trkpt>
      <trkpt lat="43.07666" lon="-2.92286">
        <ele>216.8</ele>
        <time>2021-05-29 18:20:34</time>
      </trkpt>
      <trkpt lat="43.07658" lon="-2.92281">
        <ele>216.6</ele>
        <time>2021-05-29 18:20:35</time>
      </trkpt>
      <trkpt lat="43.0765" lon="-2.92276">
        <ele>216.4</ele>
        <time>2021-05-29 18:20:36</time>
      </trkpt>
      <trkpt lat="43.07642" lon="-2.92271">
        <ele>216.4</ele>
        <time>2021-05-29 18:20:37</time>
      </trkpt>
      <trkpt lat="43.07634" lon="-2.92266">
        <ele>216</ele>
        <time>2021-05-29 18:20:38</time>
      </trkpt>
      <trkpt lat="43.07626" lon="-2.92261">
        <ele>216</ele>
        <time>2021-05-29 18:20:39</time>
      </trkpt>
      <trkpt lat="43.07617" lon="-2.92257">
        <ele>216</ele>
        <time>2021-05-29 18:20:40</time>
      </trkpt>
      <trkpt lat="43.07609" lon="-2.92253">
        <ele>216</ele>
        <time>2021-05-29 18:20:41</time>
      </trkpt>
      <trkpt lat="43.07601" lon="-2.9225">
        <ele>215.8</ele>
        <time>2021-05-29 18:20:42</time>
      </trkpt>
      <trkpt lat="43.07593" lon="-2.92247">
        <ele>215.8</ele>
        <time>2021-05-29 18:20:43</time>
      </trkpt>
      <trkpt lat="43.07584" lon="-2.92245">
        <ele>215.8</ele>
        <time>2021-05-29 18:20:44</time>
      </trkpt>
      <trkpt lat="43.07576" lon="-2.92242">
        <ele>215.8</ele>
        <time>2021-05-29 18:20:45</time>
      </trkpt>
      <trkpt lat="43.07567" lon="-2.92241">
        <ele>215.8</ele>
        <time>2021-05-29 18:20:46</time>
      </trkpt>
      <trkpt lat="43.07559" lon="-2.92239">
        <ele>215.8</ele>
        <time>2021-05-29 18:20:47</time>
      </trkpt>
      <trkpt lat="43.07552" lon="-2.92238">
        <ele>215.8</ele>
        <time>2021-05-29 18:20:48</time>
      </trkpt>
      <trkpt lat="43.07544" lon="-2.92237">
        <ele>215.8</ele>
        <time>2021-05-29 18:20:49</time>
      </trkpt>
      <trkpt lat="43.07537" lon="-2.92236">
        <ele>215.8</ele>
        <time>2021-05-29 18:20:50</time>
      </trkpt>
      <trkpt lat="43.0753" lon="-2.92235">
        <ele>215.8</ele>
        <time>2021-05-29 18:20:51</time>
      </trkpt>
      <trkpt lat="43.07523" lon="-2.92233">
        <ele>215.8</ele>
        <time>2021-05-29 18:20:52</time>
      </trkpt>
      <trkpt lat="43.07516" lon="-2.92231">
        <ele>216</ele>
        <time>2021-05-29 18:20:53</time>
      </trkpt>
      <trkpt lat="43.07509" lon="-2.92229">
        <ele>216.4</ele>
        <time>2021-05-29 18:20:54</time>
      </trkpt>
      <trkpt lat="43.07501" lon="-2.92226">
        <ele>216.4</ele>
        <time>2021-05-29 18:20:55</time>
      </trkpt>
      <trkpt lat="43.07493" lon="-2.92223">
        <ele>216.6</ele>
        <time>2021-05-29 18:20:56</time>
      </trkpt>
      <trkpt lat="43.07486" lon="-2.92219">
        <ele>216.8</ele>
        <time>2021-05-29 18:20:57</time>
      </trkpt>
      <trkpt lat="43.07478" lon="-2.92216">
        <ele>217</ele>
        <time>2021-05-29 18:20:58</time>
      </trkpt>
      <trkpt lat="43.0747" lon="-2.92212">
        <ele>217.2</ele>
        <time>2021-05-29 18:20:59</time>
      </trkpt>
      <trkpt lat="43.07463" lon="-2.92206">
        <ele>217.4</ele>
        <time>2021-05-29 18:21:00</time>
      </trkpt>
      <trkpt lat="43.07456" lon="-2.922">
        <ele>217.6</ele>
        <time>2021-05-29 18:21:01</time>
      </trkpt>
      <trkpt lat="43.0745" lon="-2.92193">
        <ele>217.8</ele>
        <time>2021-05-29 18:21:02</time>
      </trkpt>
      <trkpt lat="43.07443" lon="-2.92186">
        <ele>218</ele>
        <time>2021-05-29 18:21:03</time>
      </trkpt>
      <trkpt lat="43.07437" lon="-2.9218">
        <ele>218.2</ele>
        <time>2021-05-29 18:21:04</time>
      </trkpt>
      <trkpt lat="43.07431" lon="-2.92173">
        <ele>218.2</ele>
        <time>2021-05-29 18:21:05</time>
      </trkpt>
      <trkpt lat="43.07424" lon="-2.92166">
        <ele>218.4</ele>
        <time>2021-05-29 18:21:06</time>
      </trkpt>
      <trkpt lat="43.07418" lon="-2.92159">
        <ele>218.4</ele>
        <time>2021-05-29 18:21:07</time>
      </trkpt>
      <trkpt lat="43.07412" lon="-2.92153">
        <ele>218.6</ele>
        <time>2021-05-29 18:21:08</time>
      </trkpt>
      <trkpt lat="43.07406" lon="-2.92146">
        <ele>218.6</ele>
        <time>2021-05-29 18:21:09</time>
      </trkpt>
      <trkpt lat="43.074" lon="-2.92139">
        <ele>218.8</ele>
        <time>2021-05-29 18:21:10</time>
      </trkpt>
      <trkpt lat="43.07394" lon="-2.92132">
        <ele>218.8</ele>
        <time>2021-05-29 18:21:11</time>
      </trkpt>
      <trkpt lat="43.07387" lon="-2.92126">
        <ele>219</ele>
        <time>2021-05-29 18:21:12</time>
      </trkpt>
      <trkpt lat="43.07381" lon="-2.9212">
        <ele>219.2</ele>
        <time>2021-05-29 18:21:13</time>
      </trkpt>
      <trkpt lat="43.07374" lon="-2.92115">
        <ele>219.4</ele>
        <time>2021-05-29 18:21:14</time>
      </trkpt>
      <trkpt lat="43.07367" lon="-2.92111">
        <ele>219.4</ele>
        <time>2021-05-29 18:21:15</time>
      </trkpt>
      <trkpt lat="43.0736" lon="-2.92107">
        <ele>219.6</ele>
        <time>2021-05-29 18:21:16</time>
      </trkpt>
      <trkpt lat="43.07352" lon="-2.92105">
        <ele>219.6</ele>
        <time>2021-05-29 18:21:17</time>
      </trkpt>
      <trkpt lat="43.07345" lon="-2.92104">
        <ele>219.8</ele>
        <time>2021-05-29 18:21:18</time>
      </trkpt>
      <trkpt lat="43.07336" lon="-2.92104">
        <ele>220</ele>
        <time>2021-05-29 18:21:19</time>
      </trkpt>
      <trkpt lat="43.07328" lon="-2.92104">
        <ele>220.2</ele>
        <time>2021-05-29 18:21:20</time>
      </trkpt>
      <trkpt lat="43.0732" lon="-2.92105">
        <ele>220.2</ele>
        <time>2021-05-29 18:21:21</time>
      </trkpt>
      <trkpt lat="43.07312" lon="-2.92106">
        <ele>220.4</ele>
        <time>2021-05-29 18:21:22</time>
      </trkpt>
      <trkpt lat="43.07305" lon="-2.92108">
        <ele>220.4</ele>
        <time>2021-05-29 18:21:23</time>
      </trkpt>
      <trkpt lat="43.07298" lon="-2.9211">
        <ele>220.6</ele>
        <time>2021-05-29 18:21:24</time>
      </trkpt>
      <trkpt lat="43.07291" lon="-2.92113">
        <ele>220.6</ele>
        <time>2021-05-29 18:21:25</time>
      </trkpt>
      <trkpt lat="43.07284" lon="-2.92117">
        <ele>220.8</ele>
        <time>2021-05-29 18:21:26</time>
      </trkpt>
      <trkpt lat="43.07278" lon="-2.9212">
        <ele>220.8</ele>
        <time>2021-05-29 18:21:27</time>
      </trkpt>
      <trkpt lat="43.07273" lon="-2.92124">
        <ele>221</ele>
        <time>2021-05-29 18:21:28</time>
      </trkpt>
      <trkpt lat="43.07267" lon="-2.92128">
        <ele>221.2</ele>
        <time>2021-05-29 18:21:29</time>
      </trkpt>
      <trkpt lat="43.07262" lon="-2.92132">
        <ele>221.6</ele>
        <time>2021-05-29 18:21:30</time>
      </trkpt>
      <trkpt lat="43.07257" lon="-2.92136">
        <ele>221.6</ele>
        <time>2021-05-29 18:21:31</time>
      </trkpt>
      <trkpt lat="43.07253" lon="-2.92141">
        <ele>222</ele>
        <time>2021-05-29 18:21:32</time>
      </trkpt>
      <trkpt lat="43.07248" lon="-2.92146">
        <ele>222.4</ele>
        <time>2021-05-29 18:21:33</time>
      </trkpt>
      <trkpt lat="43.07243" lon="-2.92151">
        <ele>222.6</ele>
        <time>2021-05-29 18:21:34</time>
      </trkpt>
      <trkpt lat="43.07239" lon="-2.92157">
        <ele>222.8</ele>
        <time>2021-05-29 18:21:35</time>
      </trkpt>
      <trkpt lat="43.07235" lon="-2.92163">
        <ele>223.2</ele>
        <time>2021-05-29 18:21:36</time>
      </trkpt>
      <trkpt lat="43.07232" lon="-2.92169">
        <ele>223.6</ele>
        <time>2021-05-29 18:21:37</time>
      </trkpt>
      <trkpt lat="43.07229" lon="-2.92176">
        <ele>224</ele>
        <time>2021-05-29 18:21:38</time>
      </trkpt>
      <trkpt lat="43.07225" lon="-2.92182">
        <ele>224.4</ele>
        <time>2021-05-29 18:21:39</time>
      </trkpt>
      <trkpt lat="43.07222" lon="-2.92188">
        <ele>224.8</ele>
        <time>2021-05-29 18:21:40</time>
      </trkpt>
      <trkpt lat="43.07219" lon="-2.92195">
        <ele>225.2</ele>
        <time>2021-05-29 18:21:41</time>
      </trkpt>
      <trkpt lat="43.07217" lon="-2.92201">
        <ele>225.4</ele>
        <time>2021-05-29 18:21:42</time>
      </trkpt>
      <trkpt lat="43.07215" lon="-2.92208">
        <ele>225.8</ele>
        <time>2021-05-29 18:21:43</time>
      </trkpt>
      <trkpt lat="43.07213" lon="-2.92214">
        <ele>226.4</ele>
        <time>2021-05-29 18:21:44</time>
      </trkpt>
      <trkpt lat="43.07212" lon="-2.92221">
        <ele>226.8</ele>
        <time>2021-05-29 18:21:45</time>
      </trkpt>
      <trkpt lat="43.07211" lon="-2.92228">
        <ele>227.2</ele>
        <time>2021-05-29 18:21:46</time>
      </trkpt>
      <trkpt lat="43.07209" lon="-2.92236">
        <ele>227.8</ele>
        <time>2021-05-29 18:21:47</time>
      </trkpt>
      <trkpt lat="43.07207" lon="-2.92244">
        <ele>228.6</ele>
        <time>2021-05-29 18:21:48</time>
      </trkpt>
      <trkpt lat="43.07205" lon="-2.92253">
        <ele>229</ele>
        <time>2021-05-29 18:21:49</time>
      </trkpt>
      <trkpt lat="43.07202" lon="-2.92263">
        <ele>229.4</ele>
        <time>2021-05-29 18:21:50</time>
      </trkpt>
      <trkpt lat="43.07198" lon="-2.92273">
        <ele>229.8</ele>
        <time>2021-05-29 18:21:51</time>
      </trkpt>
      <trkpt lat="43.07194" lon="-2.92283">
        <ele>229.8</ele>
        <time>2021-05-29 18:21:52</time>
      </trkpt>
      <trkpt lat="43.07188" lon="-2.92292">
        <ele>230</ele>
        <time>2021-05-29 18:21:53</time>
      </trkpt>
      <trkpt lat="43.07182" lon="-2.92302">
        <ele>230</ele>
        <time>2021-05-29 18:21:54</time>
      </trkpt>
      <trkpt lat="43.07176" lon="-2.92311">
        <ele>230</ele>
        <time>2021-05-29 18:21:55</time>
      </trkpt>
      <trkpt lat="43.0717" lon="-2.9232">
        <ele>230</ele>
        <time>2021-05-29 18:21:56</time>
      </trkpt>
      <trkpt lat="43.07164" lon="-2.9233">
        <ele>230</ele>
        <time>2021-05-29 18:21:57</time>
      </trkpt>
      <trkpt lat="43.07157" lon="-2.92338">
        <ele>230</ele>
        <time>2021-05-29 18:21:58</time>
      </trkpt>
      <trkpt lat="43.0715" lon="-2.92346">
        <ele>230</ele>
        <time>2021-05-29 18:21:59</time>
      </trkpt>
      <trkpt lat="43.07142" lon="-2.92353">
        <ele>229.8</ele>
        <time>2021-05-29 18:22:00</time>
      </trkpt>
      <trkpt lat="43.07135" lon="-2.92358">
        <ele>229.4</ele>
        <time>2021-05-29 18:22:01</time>
      </trkpt>
      <trkpt lat="43.07128" lon="-2.92363">
        <ele>229.4</ele>
        <time>2021-05-29 18:22:02</time>
      </trkpt>
      <trkpt lat="43.07121" lon="-2.92366">
        <ele>229.4</ele>
        <time>2021-05-29 18:22:03</time>
      </trkpt>
      <trkpt lat="43.07114" lon="-2.9237">
        <ele>229.4</ele>
        <time>2021-05-29 18:22:04</time>
      </trkpt>
      <trkpt lat="43.07107" lon="-2.92372">
        <ele>229.4</ele>
        <time>2021-05-29 18:22:05</time>
      </trkpt>
      <trkpt lat="43.07099" lon="-2.92373">
        <ele>229.4</ele>
        <time>2021-05-29 18:22:06</time>
      </trkpt>
      <trkpt lat="43.07092" lon="-2.92373">
        <ele>229.4</ele>
        <time>2021-05-29 18:22:07</time>
      </trkpt>
      <trkpt lat="43.07085" lon="-2.92373">
        <ele>229.4</ele>
        <time>2021-05-29 18:22:08</time>
      </trkpt>
      <trkpt lat="43.07078" lon="-2.92372">
        <ele>229.4</ele>
        <time>2021-05-29 18:22:09</time>
      </trkpt>
      <trkpt lat="43.07071" lon="-2.92371">
        <ele>229.4</ele>
        <time>2021-05-29 18:22:10</time>
      </trkpt>
      <trkpt lat="43.07063" lon="-2.92371">
        <ele>229.8</ele>
        <time>2021-05-29 18:22:11</time>
      </trkpt>
      <trkpt lat="43.07056" lon="-2.92371">
        <ele>230</ele>
        <time>2021-05-29 18:22:12</time>
      </trkpt>
      <trkpt lat="43.07049" lon="-2.92372">
        <ele>230.4</ele>
        <time>2021-05-29 18:22:13</time>
      </trkpt>
      <trkpt lat="43.07042" lon="-2.92373">
        <ele>230.6</ele>
        <time>2021-05-29 18:22:14</time>
      </trkpt>
      <trkpt lat="43.07035" lon="-2.92374">
        <ele>231</ele>
        <time>2021-05-29 18:22:15</time>
      </trkpt>
      <trkpt lat="43.07028" lon="-2.92376">
        <ele>231</ele>
        <time>2021-05-29 18:22:16</time>
      </trkpt>
      <trkpt lat="43.07022" lon="-2.92377">
        <ele>231.2</ele>
        <time>2021-05-29 18:22:17</time>
      </trkpt>
      <trkpt lat="43.07015" lon="-2.92379">
        <ele>231.2</ele>
        <time>2021-05-29 18:22:18</time>
      </trkpt>
      <trkpt lat="43.07008" lon="-2.9238">
        <ele>231.2</ele>
        <time>2021-05-29 18:22:19</time>
      </trkpt>
      <trkpt lat="43.07002" lon="-2.92382">
        <ele>231.4</ele>
        <time>2021-05-29 18:22:20</time>
      </trkpt>
      <trkpt lat="43.06995" lon="-2.92383">
        <ele>231.6</ele>
        <time>2021-05-29 18:22:21</time>
      </trkpt>
      <trkpt lat="43.06988" lon="-2.92385">
        <ele>231.8</ele>
        <time>2021-05-29 18:22:22</time>
      </trkpt>
      <trkpt lat="43.0698" lon="-2.92387">
        <ele>232.6</ele>
        <time>2021-05-29 18:22:23</time>
      </trkpt>
      <trkpt lat="43.06973" lon="-2.92389">
        <ele>233</ele>
        <time>2021-05-29 18:22:24</time>
      </trkpt>
      <trkpt lat="43.06966" lon="-2.92391">
        <ele>233.4</ele>
        <time>2021-05-29 18:22:25</time>
      </trkpt>
      <trkpt lat="43.06959" lon="-2.92393">
        <ele>233.6</ele>
        <time>2021-05-29 18:22:26</time>
      </trkpt>
      <trkpt lat="43.06952" lon="-2.92395">
        <ele>233.8</ele>
        <time>2021-05-29 18:22:27</time>
      </trkpt>
      <trkpt lat="43.06945" lon="-2.92396">
        <ele>234</ele>
        <time>2021-05-29 18:22:28</time>
      </trkpt>
      <trkpt lat="43.06937" lon="-2.92397">
        <ele>234.2</ele>
        <time>2021-05-29 18:22:29</time>
      </trkpt>
      <trkpt lat="43.0693" lon="-2.92398">
        <ele>234.4</ele>
        <time>2021-05-29 18:22:30</time>
      </trkpt>
      <trkpt lat="43.06922" lon="-2.92399">
        <ele>234.4</ele>
        <time>2021-05-29 18:22:31</time>
      </trkpt>
      <trkpt lat="43.06914" lon="-2.92399">
        <ele>234.6</ele>
        <time>2021-05-29 18:22:32</time>
      </trkpt>
      <trkpt lat="43.06906" lon="-2.924">
        <ele>235</ele>
        <time>2021-05-29 18:22:33</time>
      </trkpt>
      <trkpt lat="43.06899" lon="-2.92401">
        <ele>235</ele>
        <time>2021-05-29 18:22:34</time>
      </trkpt>
      <trkpt lat="43.06892" lon="-2.92406">
        <ele>235.2</ele>
        <time>2021-05-29 18:22:35</time>
      </trkpt>
      <trkpt lat="43.06886" lon="-2.92414">
        <ele>235.4</ele>
        <time>2021-05-29 18:22:36</time>
      </trkpt>
      <trkpt lat="43.06883" lon="-2.92424">
        <ele>235.4</ele>
        <time>2021-05-29 18:22:37</time>
      </trkpt>
      <trkpt lat="43.0688" lon="-2.92434">
        <ele>235.4</ele>
        <time>2021-05-29 18:22:38</time>
      </trkpt>
      <trkpt lat="43.06878" lon="-2.92444">
        <ele>235.4</ele>
        <time>2021-05-29 18:22:39</time>
      </trkpt>
      <trkpt lat="43.06876" lon="-2.92454">
        <ele>235.6</ele>
        <time>2021-05-29 18:22:40</time>
      </trkpt>
      <trkpt lat="43.06874" lon="-2.92463">
        <ele>235.6</ele>
        <time>2021-05-29 18:22:41</time>
      </trkpt>
      <trkpt lat="43.06872" lon="-2.92471">
        <ele>235.6</ele>
        <time>2021-05-29 18:22:42</time>
      </trkpt>
      <trkpt lat="43.0687" lon="-2.92479">
        <ele>235.6</ele>
        <time>2021-05-29 18:22:43</time>
      </trkpt>
      <trkpt lat="43.06868" lon="-2.92486">
        <ele>235.8</ele>
        <time>2021-05-29 18:22:44</time>
      </trkpt>
      <trkpt lat="43.06865" lon="-2.92493">
        <ele>235.8</ele>
        <time>2021-05-29 18:22:45</time>
      </trkpt>
      <trkpt lat="43.06862" lon="-2.92499">
        <ele>235.8</ele>
        <time>2021-05-29 18:22:46</time>
      </trkpt>
      <trkpt lat="43.06859" lon="-2.92506">
        <ele>236</ele>
        <time>2021-05-29 18:22:47</time>
      </trkpt>
      <trkpt lat="43.06855" lon="-2.92512">
        <ele>236.4</ele>
        <time>2021-05-29 18:22:48</time>
      </trkpt>
      <trkpt lat="43.06851" lon="-2.92518">
        <ele>236.8</ele>
        <time>2021-05-29 18:22:49</time>
      </trkpt>
      <trkpt lat="43.06846" lon="-2.92524">
        <ele>237.4</ele>
        <time>2021-05-29 18:22:50</time>
      </trkpt>
      <trkpt lat="43.06842" lon="-2.9253">
        <ele>237.8</ele>
        <time>2021-05-29 18:22:51</time>
      </trkpt>
      <trkpt lat="43.06837" lon="-2.92535">
        <ele>238.4</ele>
        <time>2021-05-29 18:22:52</time>
      </trkpt>
      <trkpt lat="43.06832" lon="-2.92541">
        <ele>238.8</ele>
        <time>2021-05-29 18:22:53</time>
      </trkpt>
      <trkpt lat="43.06827" lon="-2.92546">
        <ele>239.2</ele>
        <time>2021-05-29 18:22:54</time>
      </trkpt>
      <trkpt lat="43.06822" lon="-2.9255">
        <ele>239.6</ele>
        <time>2021-05-29 18:22:55</time>
      </trkpt>
      <trkpt lat="43.06816" lon="-2.92554">
        <ele>240</ele>
        <time>2021-05-29 18:22:56</time>
      </trkpt>
      <trkpt lat="43.06811" lon="-2.92559">
        <ele>240.6</ele>
        <time>2021-05-29 18:22:57</time>
      </trkpt>
      <trkpt lat="43.06805" lon="-2.92563">
        <ele>240.8</ele>
        <time>2021-05-29 18:22:58</time>
      </trkpt>
      <trkpt lat="43.06799" lon="-2.92569">
        <ele>241.2</ele>
        <time>2021-05-29 18:22:59</time>
      </trkpt>
      <trkpt lat="43.06794" lon="-2.92575">
        <ele>241.4</ele>
        <time>2021-05-29 18:23:00</time>
      </trkpt>
      <trkpt lat="43.06788" lon="-2.92582">
        <ele>241.8</ele>
        <time>2021-05-29 18:23:01</time>
      </trkpt>
      <trkpt lat="43.06782" lon="-2.92589">
        <ele>242.2</ele>
        <time>2021-05-29 18:23:02</time>
      </trkpt>
      <trkpt lat="43.06776" lon="-2.92597">
        <ele>242.4</ele>
        <time>2021-05-29 18:23:03</time>
      </trkpt>
      <trkpt lat="43.06771" lon="-2.92606">
        <ele>242.4</ele>
        <time>2021-05-29 18:23:04</time>
      </trkpt>
      <trkpt lat="43.06766" lon="-2.92615">
        <ele>242.4</ele>
        <time>2021-05-29 18:23:05</time>
      </trkpt>
      <trkpt lat="43.06761" lon="-2.92625">
        <ele>242.4</ele>
        <time>2021-05-29 18:23:06</time>
      </trkpt>
      <trkpt lat="43.06757" lon="-2.92634">
        <ele>242.4</ele>
        <time>2021-05-29 18:23:07</time>
      </trkpt>
      <trkpt lat="43.06753" lon="-2.92645">
        <ele>242.4</ele>
        <time>2021-05-29 18:23:08</time>
      </trkpt>
      <trkpt lat="43.06749" lon="-2.92654">
        <ele>242.6</ele>
        <time>2021-05-29 18:23:09</time>
      </trkpt>
      <trkpt lat="43.06746" lon="-2.92664">
        <ele>242.6</ele>
        <time>2021-05-29 18:23:10</time>
      </trkpt>
      <trkpt lat="43.06742" lon="-2.92672">
        <ele>242.8</ele>
        <time>2021-05-29 18:23:11</time>
      </trkpt>
      <trkpt lat="43.06739" lon="-2.9268">
        <ele>242.8</ele>
        <time>2021-05-29 18:23:12</time>
      </trkpt>
      <trkpt lat="43.06737" lon="-2.92688">
        <ele>243</ele>
        <time>2021-05-29 18:23:13</time>
      </trkpt>
      <trkpt lat="43.06734" lon="-2.92696">
        <ele>243</ele>
        <time>2021-05-29 18:23:14</time>
      </trkpt>
      <trkpt lat="43.06732" lon="-2.92704">
        <ele>243</ele>
        <time>2021-05-29 18:23:15</time>
      </trkpt>
      <trkpt lat="43.0673" lon="-2.92712">
        <ele>243</ele>
        <time>2021-05-29 18:23:16</time>
      </trkpt>
      <trkpt lat="43.06729" lon="-2.92719">
        <ele>243</ele>
        <time>2021-05-29 18:23:17</time>
      </trkpt>
      <trkpt lat="43.06727" lon="-2.92726">
        <ele>243</ele>
        <time>2021-05-29 18:23:18</time>
      </trkpt>
      <trkpt lat="43.06725" lon="-2.92733">
        <ele>243</ele>
        <time>2021-05-29 18:23:19</time>
      </trkpt>
      <trkpt lat="43.06722" lon="-2.92739">
        <ele>243.2</ele>
        <time>2021-05-29 18:23:20</time>
      </trkpt>
      <trkpt lat="43.06719" lon="-2.92745">
        <ele>243.6</ele>
        <time>2021-05-29 18:23:21</time>
      </trkpt>
      <trkpt lat="43.06716" lon="-2.9275">
        <ele>244</ele>
        <time>2021-05-29 18:23:22</time>
      </trkpt>
      <trkpt lat="43.06712" lon="-2.92755">
        <ele>244.6</ele>
        <time>2021-05-29 18:23:23</time>
      </trkpt>
      <trkpt lat="43.06708" lon="-2.92759">
        <ele>245.2</ele>
        <time>2021-05-29 18:23:24</time>
      </trkpt>
      <trkpt lat="43.06703" lon="-2.92762">
        <ele>245.8</ele>
        <time>2021-05-29 18:23:25</time>
      </trkpt>
      <trkpt lat="43.06698" lon="-2.92765">
        <ele>246.2</ele>
        <time>2021-05-29 18:23:26</time>
      </trkpt>
      <trkpt lat="43.06693" lon="-2.92766">
        <ele>246.8</ele>
        <time>2021-05-29 18:23:27</time>
      </trkpt>
      <trkpt lat="43.06687" lon="-2.92767">
        <ele>247.4</ele>
        <time>2021-05-29 18:23:28</time>
      </trkpt>
      <trkpt lat="43.0668" lon="-2.92767">
        <ele>248</ele>
        <time>2021-05-29 18:23:29</time>
      </trkpt>
      <trkpt lat="43.06673" lon="-2.92766">
        <ele>248.6</ele>
        <time>2021-05-29 18:23:30</time>
      </trkpt>
      <trkpt lat="43.06666" lon="-2.92766">
        <ele>249</ele>
        <time>2021-05-29 18:23:31</time>
      </trkpt>
      <trkpt lat="43.06659" lon="-2.92766">
        <ele>249.6</ele>
        <time>2021-05-29 18:23:32</time>
      </trkpt>
      <trkpt lat="43.06652" lon="-2.92766">
        <ele>249.8</ele>
        <time>2021-05-29 18:23:33</time>
      </trkpt>
      <trkpt lat="43.06644" lon="-2.92767">
        <ele>250</ele>
        <time>2021-05-29 18:23:34</time>
      </trkpt>
      <trkpt lat="43.06636" lon="-2.92768">
        <ele>250.2</ele>
        <time>2021-05-29 18:23:35</time>
      </trkpt>
      <trkpt lat="43.06628" lon="-2.92769">
        <ele>250.4</ele>
        <time>2021-05-29 18:23:36</time>
      </trkpt>
      <trkpt lat="43.0662" lon="-2.92771">
        <ele>250.4</ele>
        <time>2021-05-29 18:23:37</time>
      </trkpt>
      <trkpt lat="43.06611" lon="-2.92773">
        <ele>250.4</ele>
        <time>2021-05-29 18:23:38</time>
      </trkpt>
      <trkpt lat="43.06602" lon="-2.92776">
        <ele>250.4</ele>
        <time>2021-05-29 18:23:39</time>
      </trkpt>
      <trkpt lat="43.06594" lon="-2.9278">
        <ele>250.4</ele>
        <time>2021-05-29 18:23:40</time>
      </trkpt>
      <trkpt lat="43.06585" lon="-2.92786">
        <ele>250.4</ele>
        <time>2021-05-29 18:23:41</time>
      </trkpt>
      <trkpt lat="43.06578" lon="-2.92794">
        <ele>250.4</ele>
        <time>2021-05-29 18:23:42</time>
      </trkpt>
      <trkpt lat="43.06572" lon="-2.92802">
        <ele>250.4</ele>
        <time>2021-05-29 18:23:43</time>
      </trkpt>
      <trkpt lat="43.06566" lon="-2.92811">
        <ele>250.4</ele>
        <time>2021-05-29 18:23:44</time>
      </trkpt>
      <trkpt lat="43.06561" lon="-2.9282">
        <ele>250.2</ele>
        <time>2021-05-29 18:23:45</time>
      </trkpt>
      <trkpt lat="43.06556" lon="-2.92829">
        <ele>250</ele>
        <time>2021-05-29 18:23:46</time>
      </trkpt>
      <trkpt lat="43.06551" lon="-2.92838">
        <ele>249.6</ele>
        <time>2021-05-29 18:23:47</time>
      </trkpt>
      <trkpt lat="43.06546" lon="-2.92847">
        <ele>249.4</ele>
        <time>2021-05-29 18:23:48</time>
      </trkpt>
      <trkpt lat="43.06541" lon="-2.92856">
        <ele>249.4</ele>
        <time>2021-05-29 18:23:49</time>
      </trkpt>
      <trkpt lat="43.06537" lon="-2.92866">
        <ele>249.4</ele>
        <time>2021-05-29 18:23:50</time>
      </trkpt>
      <trkpt lat="43.06533" lon="-2.92875">
        <ele>249.2</ele>
        <time>2021-05-29 18:23:51</time>
      </trkpt>
      <trkpt lat="43.06529" lon="-2.92884">
        <ele>249.2</ele>
        <time>2021-05-29 18:23:52</time>
      </trkpt>
      <trkpt lat="43.06524" lon="-2.92894">
        <ele>249.2</ele>
        <time>2021-05-29 18:23:53</time>
      </trkpt>
      <trkpt lat="43.0652" lon="-2.92903">
        <ele>249.2</ele>
        <time>2021-05-29 18:23:54</time>
      </trkpt>
      <trkpt lat="43.06516" lon="-2.92911">
        <ele>249.2</ele>
        <time>2021-05-29 18:23:55</time>
      </trkpt>
      <trkpt lat="43.06512" lon="-2.9292">
        <ele>249.2</ele>
        <time>2021-05-29 18:23:56</time>
      </trkpt>
      <trkpt lat="43.06507" lon="-2.92927">
        <ele>249.4</ele>
        <time>2021-05-29 18:23:57</time>
      </trkpt>
      <trkpt lat="43.06502" lon="-2.92934">
        <ele>249.4</ele>
        <time>2021-05-29 18:23:58</time>
      </trkpt>
      <trkpt lat="43.06497" lon="-2.92941">
        <ele>249.4</ele>
        <time>2021-05-29 18:23:59</time>
      </trkpt>
      <trkpt lat="43.06491" lon="-2.92948">
        <ele>249.6</ele>
        <time>2021-05-29 18:24:00</time>
      </trkpt>
      <trkpt lat="43.06486" lon="-2.92953">
        <ele>249.6</ele>
        <time>2021-05-29 18:24:01</time>
      </trkpt>
      <trkpt lat="43.0648" lon="-2.92959">
        <ele>249.8</ele>
        <time>2021-05-29 18:24:02</time>
      </trkpt>
      <trkpt lat="43.06474" lon="-2.92965">
        <ele>250</ele>
        <time>2021-05-29 18:24:03</time>
      </trkpt>
      <trkpt lat="43.06468" lon="-2.9297">
        <ele>250.2</ele>
        <time>2021-05-29 18:24:04</time>
      </trkpt>
      <trkpt lat="43.06461" lon="-2.92974">
        <ele>250.4</ele>
        <time>2021-05-29 18:24:05</time>
      </trkpt>
      <trkpt lat="43.06455" lon="-2.92977">
        <ele>250.6</ele>
        <time>2021-05-29 18:24:06</time>
      </trkpt>
      <trkpt lat="43.06449" lon="-2.9298">
        <ele>250.8</ele>
        <time>2021-05-29 18:24:07</time>
      </trkpt>
      <trkpt lat="43.06442" lon="-2.92981">
        <ele>251.2</ele>
        <time>2021-05-29 18:24:08</time>
      </trkpt>
      <trkpt lat="43.06435" lon="-2.92982">
        <ele>251.4</ele>
        <time>2021-05-29 18:24:09</time>
      </trkpt>
      <trkpt lat="43.06428" lon="-2.92982">
        <ele>251.8</ele>
        <time>2021-05-29 18:24:10</time>
      </trkpt>
      <trkpt lat="43.0642" lon="-2.92983">
        <ele>252.2</ele>
        <time>2021-05-29 18:24:11</time>
      </trkpt>
      <trkpt lat="43.06412" lon="-2.92983">
        <ele>252.4</ele>
        <time>2021-05-29 18:24:12</time>
      </trkpt>
      <trkpt lat="43.06403" lon="-2.92983">
        <ele>252.6</ele>
        <time>2021-05-29 18:24:13</time>
      </trkpt>
      <trkpt lat="43.06395" lon="-2.92981">
        <ele>252.6</ele>
        <time>2021-05-29 18:24:14</time>
      </trkpt>
      <trkpt lat="43.06385" lon="-2.9298">
        <ele>252.6</ele>
        <time>2021-05-29 18:24:15</time>
      </trkpt>
      <trkpt lat="43.06376" lon="-2.9298">
        <ele>252.6</ele>
        <time>2021-05-29 18:24:16</time>
      </trkpt>
      <trkpt lat="43.06366" lon="-2.92979">
        <ele>252.6</ele>
        <time>2021-05-29 18:24:17</time>
      </trkpt>
      <trkpt lat="43.06355" lon="-2.92976">
        <ele>252.6</ele>
        <time>2021-05-29 18:24:18</time>
      </trkpt>
      <trkpt lat="43.06344" lon="-2.92974">
        <ele>252.6</ele>
        <time>2021-05-29 18:24:19</time>
      </trkpt>
      <trkpt lat="43.06333" lon="-2.92971">
        <ele>252.6</ele>
        <time>2021-05-29 18:24:20</time>
      </trkpt>
      <trkpt lat="43.06322" lon="-2.92967">
        <ele>252.6</ele>
        <time>2021-05-29 18:24:21</time>
      </trkpt>
      <trkpt lat="43.06311" lon="-2.92963">
        <ele>252.6</ele>
        <time>2021-05-29 18:24:22</time>
      </trkpt>
      <trkpt lat="43.063" lon="-2.92958">
        <ele>252.4</ele>
        <time>2021-05-29 18:24:23</time>
      </trkpt>
      <trkpt lat="43.06289" lon="-2.92953">
        <ele>252</ele>
        <time>2021-05-29 18:24:24</time>
      </trkpt>
      <trkpt lat="43.06277" lon="-2.92948">
        <ele>251.4</ele>
        <time>2021-05-29 18:24:25</time>
      </trkpt>
      <trkpt lat="43.06266" lon="-2.92944">
        <ele>250.8</ele>
        <time>2021-05-29 18:24:26</time>
      </trkpt>
      <trkpt lat="43.06255" lon="-2.9294">
        <ele>250.4</ele>
        <time>2021-05-29 18:24:27</time>
      </trkpt>
      <trkpt lat="43.06244" lon="-2.92938">
        <ele>250</ele>
        <time>2021-05-29 18:24:28</time>
      </trkpt>
      <trkpt lat="43.06233" lon="-2.92935">
        <ele>249.4</ele>
        <time>2021-05-29 18:24:29</time>
      </trkpt>
      <trkpt lat="43.06222" lon="-2.92933">
        <ele>248.8</ele>
        <time>2021-05-29 18:24:30</time>
      </trkpt>
      <trkpt lat="43.06212" lon="-2.92932">
        <ele>248.4</ele>
        <time>2021-05-29 18:24:31</time>
      </trkpt>
      <trkpt lat="43.06203" lon="-2.9293">
        <ele>247.8</ele>
        <time>2021-05-29 18:24:32</time>
      </trkpt>
      <trkpt lat="43.06194" lon="-2.9293">
        <ele>247.2</ele>
        <time>2021-05-29 18:24:33</time>
      </trkpt>
      <trkpt lat="43.06185" lon="-2.9293">
        <ele>246.8</ele>
        <time>2021-05-29 18:24:34</time>
      </trkpt>
      <trkpt lat="43.06177" lon="-2.92932">
        <ele>246.6</ele>
        <time>2021-05-29 18:24:35</time>
      </trkpt>
      <trkpt lat="43.06169" lon="-2.92935">
        <ele>246.6</ele>
        <time>2021-05-29 18:24:36</time>
      </trkpt>
      <trkpt lat="43.06161" lon="-2.92938">
        <ele>246.6</ele>
        <time>2021-05-29 18:24:37</time>
      </trkpt>
      <trkpt lat="43.06155" lon="-2.92941">
        <ele>246.6</ele>
        <time>2021-05-29 18:24:38</time>
      </trkpt>
      <trkpt lat="43.06148" lon="-2.92946">
        <ele>246.6</ele>
        <time>2021-05-29 18:24:39</time>
      </trkpt>
      <trkpt lat="43.06141" lon="-2.9295">
        <ele>246.4</ele>
        <time>2021-05-29 18:24:40</time>
      </trkpt>
      <trkpt lat="43.06134" lon="-2.92955">
        <ele>246.4</ele>
        <time>2021-05-29 18:24:41</time>
      </trkpt>
      <trkpt lat="43.06127" lon="-2.9296">
        <ele>246.6</ele>
        <time>2021-05-29 18:24:42</time>
      </trkpt>
      <trkpt lat="43.0612" lon="-2.92964">
        <ele>246.8</ele>
        <time>2021-05-29 18:24:43</time>
      </trkpt>
      <trkpt lat="43.06114" lon="-2.92969">
        <ele>247.4</ele>
        <time>2021-05-29 18:24:44</time>
      </trkpt>
      <trkpt lat="43.06107" lon="-2.92974">
        <ele>248.2</ele>
        <time>2021-05-29 18:24:45</time>
      </trkpt>
      <trkpt lat="43.061" lon="-2.92979">
        <ele>248.6</ele>
        <time>2021-05-29 18:24:46</time>
      </trkpt>
      <trkpt lat="43.06093" lon="-2.92985">
        <ele>249</ele>
        <time>2021-05-29 18:24:47</time>
      </trkpt>
      <trkpt lat="43.06086" lon="-2.9299">
        <ele>249.4</ele>
        <time>2021-05-29 18:24:48</time>
      </trkpt>
      <trkpt lat="43.0608" lon="-2.92996">
        <ele>249.6</ele>
        <time>2021-05-29 18:24:49</time>
      </trkpt>
      <trkpt lat="43.06073" lon="-2.93002">
        <ele>249.8</ele>
        <time>2021-05-29 18:24:50</time>
      </trkpt>
      <trkpt lat="43.06066" lon="-2.93008">
        <ele>250</ele>
        <time>2021-05-29 18:24:51</time>
      </trkpt>
      <trkpt lat="43.0606" lon="-2.93015">
        <ele>250.2</ele>
        <time>2021-05-29 18:24:52</time>
      </trkpt>
      <trkpt lat="43.06054" lon="-2.93021">
        <ele>250.2</ele>
        <time>2021-05-29 18:24:53</time>
      </trkpt>
      <trkpt lat="43.06047" lon="-2.93027">
        <ele>250.4</ele>
        <time>2021-05-29 18:24:54</time>
      </trkpt>
      <trkpt lat="43.0604" lon="-2.93033">
        <ele>250.6</ele>
        <time>2021-05-29 18:24:55</time>
      </trkpt>
      <trkpt lat="43.06034" lon="-2.9304">
        <ele>251</ele>
        <time>2021-05-29 18:24:56</time>
      </trkpt>
      <trkpt lat="43.06027" lon="-2.93046">
        <ele>251.2</ele>
        <time>2021-05-29 18:24:57</time>
      </trkpt>
      <trkpt lat="43.0602" lon="-2.93053">
        <ele>251.4</ele>
        <time>2021-05-29 18:24:58</time>
      </trkpt>
      <trkpt lat="43.06014" lon="-2.93059">
        <ele>251.6</ele>
        <time>2021-05-29 18:24:59</time>
      </trkpt>
      <trkpt lat="43.06007" lon="-2.93065">
        <ele>251.8</ele>
        <time>2021-05-29 18:25:00</time>
      </trkpt>
      <trkpt lat="43.05999" lon="-2.9307">
        <ele>252</ele>
        <time>2021-05-29 18:25:01</time>
      </trkpt>
      <trkpt lat="43.05992" lon="-2.93077">
        <ele>252.2</ele>
        <time>2021-05-29 18:25:02</time>
      </trkpt>
      <trkpt lat="43.05984" lon="-2.93083">
        <ele>252.2</ele>
        <time>2021-05-29 18:25:03</time>
      </trkpt>
      <trkpt lat="43.05976" lon="-2.93089">
        <ele>252.2</ele>
        <time>2021-05-29 18:25:04</time>
      </trkpt>
      <trkpt lat="43.05968" lon="-2.93095">
        <ele>252.2</ele>
        <time>2021-05-29 18:25:05</time>
      </trkpt>
      <trkpt lat="43.05959" lon="-2.931">
        <ele>252.2</ele>
        <time>2021-05-29 18:25:06</time>
      </trkpt>
      <trkpt lat="43.0595" lon="-2.93104">
        <ele>252.2</ele>
        <time>2021-05-29 18:25:07</time>
      </trkpt>
      <trkpt lat="43.05941" lon="-2.93106">
        <ele>252.2</ele>
        <time>2021-05-29 18:25:08</time>
      </trkpt>
      <trkpt lat="43.05931" lon="-2.93107">
        <ele>252.2</ele>
        <time>2021-05-29 18:25:09</time>
      </trkpt>
      <trkpt lat="43.05921" lon="-2.93107">
        <ele>252.2</ele>
        <time>2021-05-29 18:25:10</time>
      </trkpt>
      <trkpt lat="43.05911" lon="-2.93107">
        <ele>252.2</ele>
        <time>2021-05-29 18:25:11</time>
      </trkpt>
      <trkpt lat="43.05902" lon="-2.93106">
        <ele>252.2</ele>
        <time>2021-05-29 18:25:12</time>
      </trkpt>
      <trkpt lat="43.05893" lon="-2.93106">
        <ele>252.2</ele>
        <time>2021-05-29 18:25:13</time>
      </trkpt>
      <trkpt lat="43.05883" lon="-2.93105">
        <ele>252.2</ele>
        <time>2021-05-29 18:25:14</time>
      </trkpt>
      <trkpt lat="43.05874" lon="-2.93104">
        <ele>252.2</ele>
        <time>2021-05-29 18:25:15</time>
      </trkpt>
      <trkpt lat="43.05866" lon="-2.93104">
        <ele>252.2</ele>
        <time>2021-05-29 18:25:16</time>
      </trkpt>
      <trkpt lat="43.05858" lon="-2.93103">
        <ele>252.2</ele>
        <time>2021-05-29 18:25:17</time>
      </trkpt>
      <trkpt lat="43.0585" lon="-2.93102">
        <ele>252.2</ele>
        <time>2021-05-29 18:25:18</time>
      </trkpt>
      <trkpt lat="43.05843" lon="-2.93102">
        <ele>252.2</ele>
        <time>2021-05-29 18:25:19</time>
      </trkpt>
      <trkpt lat="43.05836" lon="-2.93103">
        <ele>252.2</ele>
        <time>2021-05-29 18:25:20</time>
      </trkpt>
      <trkpt lat="43.05829" lon="-2.93103">
        <ele>252.2</ele>
        <time>2021-05-29 18:25:21</time>
      </trkpt>
      <trkpt lat="43.05822" lon="-2.93103">
        <ele>252.2</ele>
        <time>2021-05-29 18:25:22</time>
      </trkpt>
      <trkpt lat="43.05815" lon="-2.93104">
        <ele>252.2</ele>
        <time>2021-05-29 18:25:23</time>
      </trkpt>
      <trkpt lat="43.05808" lon="-2.93104">
        <ele>252.6</ele>
        <time>2021-05-29 18:25:24</time>
      </trkpt>
      <trkpt lat="43.05801" lon="-2.93104">
        <ele>253</ele>
        <time>2021-05-29 18:25:25</time>
      </trkpt>
      <trkpt lat="43.05794" lon="-2.93103">
        <ele>253.4</ele>
        <time>2021-05-29 18:25:26</time>
      </trkpt>
      <trkpt lat="43.05787" lon="-2.93103">
        <ele>254</ele>
        <time>2021-05-29 18:25:27</time>
      </trkpt>
      <trkpt lat="43.0578" lon="-2.93103">
        <ele>254.6</ele>
        <time>2021-05-29 18:25:28</time>
      </trkpt>
      <trkpt lat="43.05773" lon="-2.93103">
        <ele>255.2</ele>
        <time>2021-05-29 18:25:29</time>
      </trkpt>
      <trkpt lat="43.05765" lon="-2.93102">
        <ele>255.4</ele>
        <time>2021-05-29 18:25:30</time>
      </trkpt>
      <trkpt lat="43.05757" lon="-2.93101">
        <ele>255.6</ele>
        <time>2021-05-29 18:25:31</time>
      </trkpt>
      <trkpt lat="43.0575" lon="-2.93101">
        <ele>255.8</ele>
        <time>2021-05-29 18:25:32</time>
      </trkpt>
      <trkpt lat="43.05742" lon="-2.931">
        <ele>256</ele>
        <time>2021-05-29 18:25:33</time>
      </trkpt>
      <trkpt lat="43.05734" lon="-2.93099">
        <ele>256</ele>
        <time>2021-05-29 18:25:34</time>
      </trkpt>
      <trkpt lat="43.05726" lon="-2.93098">
        <ele>256.2</ele>
        <time>2021-05-29 18:25:35</time>
      </trkpt>
      <trkpt lat="43.05718" lon="-2.93097">
        <ele>256.2</ele>
        <time>2021-05-29 18:25:36</time>
      </trkpt>
      <trkpt lat="43.05711" lon="-2.93095">
        <ele>256.2</ele>
        <time>2021-05-29 18:25:37</time>
      </trkpt>
      <trkpt lat="43.05703" lon="-2.93094">
        <ele>256.2</ele>
        <time>2021-05-29 18:25:38</time>
      </trkpt>
      <trkpt lat="43.05696" lon="-2.93093">
        <ele>256.4</ele>
        <time>2021-05-29 18:25:39</time>
      </trkpt>
      <trkpt lat="43.05689" lon="-2.93092">
        <ele>256.4</ele>
        <time>2021-05-29 18:25:40</time>
      </trkpt>
      <trkpt lat="43.05681" lon="-2.9309">
        <ele>256.4</ele>
        <time>2021-05-29 18:25:41</time>
      </trkpt>
      <trkpt lat="43.05674" lon="-2.93089">
        <ele>256.4</ele>
        <time>2021-05-29 18:25:42</time>
      </trkpt>
      <trkpt lat="43.05666" lon="-2.93088">
        <ele>256.4</ele>
        <time>2021-05-29 18:25:43</time>
      </trkpt>
      <trkpt lat="43.05659" lon="-2.93086">
        <ele>256.6</ele>
        <time>2021-05-29 18:25:44</time>
      </trkpt>
      <trkpt lat="43.05651" lon="-2.93085">
        <ele>256.8</ele>
        <time>2021-05-29 18:25:45</time>
      </trkpt>
      <trkpt lat="43.05643" lon="-2.93084">
        <ele>257</ele>
        <time>2021-05-29 18:25:46</time>
      </trkpt>
      <trkpt lat="43.05635" lon="-2.93083">
        <ele>257.4</ele>
        <time>2021-05-29 18:25:47</time>
      </trkpt>
      <trkpt lat="43.05627" lon="-2.93082">
        <ele>257.6</ele>
        <time>2021-05-29 18:25:48</time>
      </trkpt>
      <trkpt lat="43.05619" lon="-2.93081">
        <ele>257.8</ele>
        <time>2021-05-29 18:25:49</time>
      </trkpt>
      <trkpt lat="43.05611" lon="-2.9308">
        <ele>258</ele>
        <time>2021-05-29 18:25:50</time>
      </trkpt>
      <trkpt lat="43.05603" lon="-2.93078">
        <ele>258</ele>
        <time>2021-05-29 18:25:51</time>
      </trkpt>
      <trkpt lat="43.05595" lon="-2.93077">
        <ele>258</ele>
        <time>2021-05-29 18:25:52</time>
      </trkpt>
      <trkpt lat="43.05586" lon="-2.93076">
        <ele>258</ele>
        <time>2021-05-29 18:25:53</time>
      </trkpt>
      <trkpt lat="43.05577" lon="-2.93075">
        <ele>258</ele>
        <time>2021-05-29 18:25:54</time>
      </trkpt>
      <trkpt lat="43.05568" lon="-2.93074">
        <ele>258</ele>
        <time>2021-05-29 18:25:55</time>
      </trkpt>
      <trkpt lat="43.05559" lon="-2.93073">
        <ele>258</ele>
        <time>2021-05-29 18:25:56</time>
      </trkpt>
      <trkpt lat="43.0555" lon="-2.93071">
        <ele>258</ele>
        <time>2021-05-29 18:25:57</time>
      </trkpt>
      <trkpt lat="43.05542" lon="-2.93067">
        <ele>258</ele>
        <time>2021-05-29 18:25:58</time>
      </trkpt>
      <trkpt lat="43.05534" lon="-2.93061">
        <ele>258</ele>
        <time>2021-05-29 18:25:59</time>
      </trkpt>
      <trkpt lat="43.05528" lon="-2.93053">
        <ele>257.6</ele>
        <time>2021-05-29 18:26:00</time>
      </trkpt>
      <trkpt lat="43.05522" lon="-2.93044">
        <ele>257.4</ele>
        <time>2021-05-29 18:26:01</time>
      </trkpt>
      <trkpt lat="43.05518" lon="-2.93034">
        <ele>257.2</ele>
        <time>2021-05-29 18:26:02</time>
      </trkpt>
      <trkpt lat="43.05514" lon="-2.93022">
        <ele>257</ele>
        <time>2021-05-29 18:26:03</time>
      </trkpt>
      <trkpt lat="43.05511" lon="-2.9301">
        <ele>257</ele>
        <time>2021-05-29 18:26:04</time>
      </trkpt>
      <trkpt lat="43.05508" lon="-2.92999">
        <ele>256.8</ele>
        <time>2021-05-29 18:26:05</time>
      </trkpt>
      <trkpt lat="43.05504" lon="-2.92988">
        <ele>256.8</ele>
        <time>2021-05-29 18:26:06</time>
      </trkpt>
      <trkpt lat="43.05501" lon="-2.92977">
        <ele>256.8</ele>
        <time>2021-05-29 18:26:07</time>
      </trkpt>
      <trkpt lat="43.05497" lon="-2.92967">
        <ele>256.8</ele>
        <time>2021-05-29 18:26:08</time>
      </trkpt>
      <trkpt lat="43.05494" lon="-2.92956">
        <ele>256.8</ele>
        <time>2021-05-29 18:26:09</time>
      </trkpt>
      <trkpt lat="43.0549" lon="-2.92946">
        <ele>256.8</ele>
        <time>2021-05-29 18:26:10</time>
      </trkpt>
      <trkpt lat="43.05487" lon="-2.92936">
        <ele>256.8</ele>
        <time>2021-05-29 18:26:11</time>
      </trkpt>
      <trkpt lat="43.05483" lon="-2.92927">
        <ele>256.8</ele>
        <time>2021-05-29 18:26:12</time>
      </trkpt>
      <trkpt lat="43.05479" lon="-2.92918">
        <ele>256.8</ele>
        <time>2021-05-29 18:26:13</time>
      </trkpt>
      <trkpt lat="43.05476" lon="-2.92909">
        <ele>256.8</ele>
        <time>2021-05-29 18:26:14</time>
      </trkpt>
      <trkpt lat="43.05473" lon="-2.929">
        <ele>256.8</ele>
        <time>2021-05-29 18:26:15</time>
      </trkpt>
      <trkpt lat="43.0547" lon="-2.92892">
        <ele>257</ele>
        <time>2021-05-29 18:26:16</time>
      </trkpt>
      <trkpt lat="43.05467" lon="-2.92883">
        <ele>257</ele>
        <time>2021-05-29 18:26:17</time>
      </trkpt>
      <trkpt lat="43.05464" lon="-2.92874">
        <ele>257.2</ele>
        <time>2021-05-29 18:26:18</time>
      </trkpt>
      <trkpt lat="43.05461" lon="-2.92866">
        <ele>257.6</ele>
        <time>2021-05-29 18:26:19</time>
      </trkpt>
      <trkpt lat="43.05458" lon="-2.92859">
        <ele>257.8</ele>
        <time>2021-05-29 18:26:20</time>
      </trkpt>
      <trkpt lat="43.05455" lon="-2.92851">
        <ele>258</ele>
        <time>2021-05-29 18:26:21</time>
      </trkpt>
      <trkpt lat="43.05453" lon="-2.92844">
        <ele>258.4</ele>
        <time>2021-05-29 18:26:22</time>
      </trkpt>
      <trkpt lat="43.0545" lon="-2.92837">
        <ele>258.8</ele>
        <time>2021-05-29 18:26:23</time>
      </trkpt>
      <trkpt lat="43.05447" lon="-2.9283">
        <ele>259.6</ele>
        <time>2021-05-29 18:26:24</time>
      </trkpt>
      <trkpt lat="43.05444" lon="-2.92823">
        <ele>260.2</ele>
        <time>2021-05-29 18:26:25</time>
      </trkpt>
      <trkpt lat="43.05441" lon="-2.92816">
        <ele>260.6</ele>
        <time>2021-05-29 18:26:26</time>
      </trkpt>
      <trkpt lat="43.05439" lon="-2.92808">
        <ele>261</ele>
        <time>2021-05-29 18:26:27</time>
      </trkpt>
      <trkpt lat="43.05436" lon="-2.92801">
        <ele>261.4</ele>
        <time>2021-05-29 18:26:28</time>
      </trkpt>
      <trkpt lat="43.05433" lon="-2.92793">
        <ele>262</ele>
        <time>2021-05-29 18:26:29</time>
      </trkpt>
      <trkpt lat="43.0543" lon="-2.92785">
        <ele>262.4</ele>
        <time>2021-05-29 18:26:30</time>
      </trkpt>
      <trkpt lat="43.05427" lon="-2.92778">
        <ele>263</ele>
        <time>2021-05-29 18:26:31</time>
      </trkpt>
      <trkpt lat="43.05424" lon="-2.9277">
        <ele>263.4</ele>
        <time>2021-05-29 18:26:32</time>
      </trkpt>
      <trkpt lat="43.05421" lon="-2.92762">
        <ele>263.8</ele>
        <time>2021-05-29 18:26:33</time>
      </trkpt>
      <trkpt lat="43.05418" lon="-2.92755">
        <ele>264.2</ele>
        <time>2021-05-29 18:26:34</time>
      </trkpt>
      <trkpt lat="43.05415" lon="-2.92747">
        <ele>264.4</ele>
        <time>2021-05-29 18:26:35</time>
      </trkpt>
      <trkpt lat="43.05411" lon="-2.92739">
        <ele>264.6</ele>
        <time>2021-05-29 18:26:36</time>
      </trkpt>
      <trkpt lat="43.05408" lon="-2.92731">
        <ele>264.8</ele>
        <time>2021-05-29 18:26:37</time>
      </trkpt>
      <trkpt lat="43.05404" lon="-2.92724">
        <ele>265</ele>
        <time>2021-05-29 18:26:38</time>
      </trkpt>
      <trkpt lat="43.054" lon="-2.92715">
        <ele>265.2</ele>
        <time>2021-05-29 18:26:39</time>
      </trkpt>
      <trkpt lat="43.05397" lon="-2.92707">
        <ele>265.6</ele>
        <time>2021-05-29 18:26:40</time>
      </trkpt>
      <trkpt lat="43.05393" lon="-2.92698">
        <ele>265.8</ele>
        <time>2021-05-29 18:26:41</time>
      </trkpt>
      <trkpt lat="43.05389" lon="-2.92689">
        <ele>265.8</ele>
        <time>2021-05-29 18:26:42</time>
      </trkpt>
      <trkpt lat="43.05385" lon="-2.92681">
        <ele>266</ele>
        <time>2021-05-29 18:26:43</time>
      </trkpt>
      <trkpt lat="43.05381" lon="-2.92672">
        <ele>266</ele>
        <time>2021-05-29 18:26:44</time>
      </trkpt>
      <trkpt lat="43.05377" lon="-2.92664">
        <ele>266</ele>
        <time>2021-05-29 18:26:45</time>
      </trkpt>
      <trkpt lat="43.05373" lon="-2.92655">
        <ele>266.2</ele>
        <time>2021-05-29 18:26:46</time>
      </trkpt>
      <trkpt lat="43.05369" lon="-2.92646">
        <ele>266.2</ele>
        <time>2021-05-29 18:26:47</time>
      </trkpt>
      <trkpt lat="43.05365" lon="-2.92637">
        <ele>266.4</ele>
        <time>2021-05-29 18:26:48</time>
      </trkpt>
      <trkpt lat="43.05362" lon="-2.92627">
        <ele>266.4</ele>
        <time>2021-05-29 18:26:49</time>
      </trkpt>
      <trkpt lat="43.05358" lon="-2.92617">
        <ele>266.4</ele>
        <time>2021-05-29 18:26:50</time>
      </trkpt>
      <trkpt lat="43.05353" lon="-2.92607">
        <ele>266.4</ele>
        <time>2021-05-29 18:26:51</time>
      </trkpt>
      <trkpt lat="43.05348" lon="-2.92598">
        <ele>266.4</ele>
        <time>2021-05-29 18:26:52</time>
      </trkpt>
      <trkpt lat="43.05343" lon="-2.92588">
        <ele>266.4</ele>
        <time>2021-05-29 18:26:53</time>
      </trkpt>
      <trkpt lat="43.05337" lon="-2.92579">
        <ele>266.4</ele>
        <time>2021-05-29 18:26:54</time>
      </trkpt>
      <trkpt lat="43.05332" lon="-2.92571">
        <ele>266.4</ele>
        <time>2021-05-29 18:26:55</time>
      </trkpt>
      <trkpt lat="43.05326" lon="-2.92562">
        <ele>266.4</ele>
        <time>2021-05-29 18:26:56</time>
      </trkpt>
      <trkpt lat="43.0532" lon="-2.92554">
        <ele>266.4</ele>
        <time>2021-05-29 18:26:57</time>
      </trkpt>
      <trkpt lat="43.05314" lon="-2.92546">
        <ele>266.2</ele>
        <time>2021-05-29 18:26:58</time>
      </trkpt>
      <trkpt lat="43.05308" lon="-2.92538">
        <ele>266.2</ele>
        <time>2021-05-29 18:26:59</time>
      </trkpt>
      <trkpt lat="43.05303" lon="-2.92529">
        <ele>266.2</ele>
        <time>2021-05-29 18:27:00</time>
      </trkpt>
      <trkpt lat="43.05297" lon="-2.92521">
        <ele>266.2</ele>
        <time>2021-05-29 18:27:01</time>
      </trkpt>
      <trkpt lat="43.05291" lon="-2.92512">
        <ele>266.2</ele>
        <time>2021-05-29 18:27:02</time>
      </trkpt>
      <trkpt lat="43.05286" lon="-2.92502">
        <ele>266.2</ele>
        <time>2021-05-29 18:27:03</time>
      </trkpt>
      <trkpt lat="43.0528" lon="-2.92492">
        <ele>266.2</ele>
        <time>2021-05-29 18:27:04</time>
      </trkpt>
      <trkpt lat="43.05275" lon="-2.92481">
        <ele>266.2</ele>
        <time>2021-05-29 18:27:05</time>
      </trkpt>
      <trkpt lat="43.05269" lon="-2.92469">
        <ele>266</ele>
        <time>2021-05-29 18:27:06</time>
      </trkpt>
      <trkpt lat="43.05264" lon="-2.92458">
        <ele>266</ele>
        <time>2021-05-29 18:27:07</time>
      </trkpt>
      <trkpt lat="43.05258" lon="-2.92447">
        <ele>266</ele>
        <time>2021-05-29 18:27:08</time>
      </trkpt>
      <trkpt lat="43.05251" lon="-2.92436">
        <ele>266</ele>
        <time>2021-05-29 18:27:09</time>
      </trkpt>
      <trkpt lat="43.05244" lon="-2.92425">
        <ele>265.8</ele>
        <time>2021-05-29 18:27:10</time>
      </trkpt>
      <trkpt lat="43.05236" lon="-2.92415">
        <ele>265.4</ele>
        <time>2021-05-29 18:27:11</time>
      </trkpt>
      <trkpt lat="43.05227" lon="-2.92407">
        <ele>265.2</ele>
        <time>2021-05-29 18:27:12</time>
      </trkpt>
      <trkpt lat="43.05218" lon="-2.92399">
        <ele>265</ele>
        <time>2021-05-29 18:27:13</time>
      </trkpt>
      <trkpt lat="43.05209" lon="-2.92393">
        <ele>264.8</ele>
        <time>2021-05-29 18:27:14</time>
      </trkpt>
      <trkpt lat="43.05199" lon="-2.92389">
        <ele>264.4</ele>
        <time>2021-05-29 18:27:15</time>
      </trkpt>
      <trkpt lat="43.0519" lon="-2.92384">
        <ele>263.8</ele>
        <time>2021-05-29 18:27:16</time>
      </trkpt>
      <trkpt lat="43.05182" lon="-2.9238">
        <ele>263.4</ele>
        <time>2021-05-29 18:27:17</time>
      </trkpt>
      <trkpt lat="43.05173" lon="-2.92375">
        <ele>263.2</ele>
        <time>2021-05-29 18:27:18</time>
      </trkpt>
      <trkpt lat="43.05166" lon="-2.92369">
        <ele>263</ele>
        <time>2021-05-29 18:27:19</time>
      </trkpt>
      <trkpt lat="43.05159" lon="-2.92362">
        <ele>263</ele>
        <time>2021-05-29 18:27:20</time>
      </trkpt>
      <trkpt lat="43.05153" lon="-2.92354">
        <ele>263</ele>
        <time>2021-05-29 18:27:21</time>
      </trkpt>
      <trkpt lat="43.05148" lon="-2.92345">
        <ele>263</ele>
        <time>2021-05-29 18:27:22</time>
      </trkpt>
      <trkpt lat="43.05144" lon="-2.92335">
        <ele>263</ele>
        <time>2021-05-29 18:27:23</time>
      </trkpt>
      <trkpt lat="43.0514" lon="-2.92325">
        <ele>263</ele>
        <time>2021-05-29 18:27:24</time>
      </trkpt>
      <trkpt lat="43.05136" lon="-2.92316">
        <ele>263</ele>
        <time>2021-05-29 18:27:25</time>
      </trkpt>
      <trkpt lat="43.05133" lon="-2.92307">
        <ele>263</ele>
        <time>2021-05-29 18:27:26</time>
      </trkpt>
      <trkpt lat="43.05129" lon="-2.92297">
        <ele>263</ele>
        <time>2021-05-29 18:27:27</time>
      </trkpt>
      <trkpt lat="43.05126" lon="-2.92287">
        <ele>263.2</ele>
        <time>2021-05-29 18:27:28</time>
      </trkpt>
      <trkpt lat="43.05122" lon="-2.92277">
        <ele>263.6</ele>
        <time>2021-05-29 18:27:29</time>
      </trkpt>
      <trkpt lat="43.05117" lon="-2.92267">
        <ele>263.8</ele>
        <time>2021-05-29 18:27:30</time>
      </trkpt>
      <trkpt lat="43.05113" lon="-2.92257">
        <ele>263.8</ele>
        <time>2021-05-29 18:27:31</time>
      </trkpt>
      <trkpt lat="43.05108" lon="-2.92247">
        <ele>264.2</ele>
        <time>2021-05-29 18:27:32</time>
      </trkpt>
      <trkpt lat="43.05103" lon="-2.92237">
        <ele>264.6</ele>
        <time>2021-05-29 18:27:33</time>
      </trkpt>
      <trkpt lat="43.05097" lon="-2.92228">
        <ele>265</ele>
        <time>2021-05-29 18:27:34</time>
      </trkpt>
      <trkpt lat="43.05091" lon="-2.92219">
        <ele>265.2</ele>
        <time>2021-05-29 18:27:35</time>
      </trkpt>
      <trkpt lat="43.05084" lon="-2.92211">
        <ele>265.4</ele>
        <time>2021-05-29 18:27:36</time>
      </trkpt>
      <trkpt lat="43.05076" lon="-2.92203">
        <ele>265.4</ele>
        <time>2021-05-29 18:27:37</time>
      </trkpt>
      <trkpt lat="43.05068" lon="-2.92195">
        <ele>265.4</ele>
        <time>2021-05-29 18:27:38</time>
      </trkpt>
      <trkpt lat="43.0506" lon="-2.9219">
        <ele>265.4</ele>
        <time>2021-05-29 18:27:39</time>
      </trkpt>
      <trkpt lat="43.05052" lon="-2.92183">
        <ele>265.4</ele>
        <time>2021-05-29 18:27:40</time>
      </trkpt>
      <trkpt lat="43.05044" lon="-2.92178">
        <ele>265.4</ele>
        <time>2021-05-29 18:27:41</time>
      </trkpt>
      <trkpt lat="43.05035" lon="-2.92174">
        <ele>265.4</ele>
        <time>2021-05-29 18:27:42</time>
      </trkpt>
      <trkpt lat="43.05027" lon="-2.92171">
        <ele>265.6</ele>
        <time>2021-05-29 18:27:43</time>
      </trkpt>
      <trkpt lat="43.05018" lon="-2.92168">
        <ele>265.6</ele>
        <time>2021-05-29 18:27:44</time>
      </trkpt>
      <trkpt lat="43.0501" lon="-2.92164">
        <ele>265.8</ele>
        <time>2021-05-29 18:27:45</time>
      </trkpt>
      <trkpt lat="43.05002" lon="-2.92161">
        <ele>265.8</ele>
        <time>2021-05-29 18:27:46</time>
      </trkpt>
      <trkpt lat="43.04994" lon="-2.92158">
        <ele>265.8</ele>
        <time>2021-05-29 18:27:47</time>
      </trkpt>
      <trkpt lat="43.04986" lon="-2.92155">
        <ele>265.8</ele>
        <time>2021-05-29 18:27:48</time>
      </trkpt>
      <trkpt lat="43.04979" lon="-2.92152">
        <ele>265.8</ele>
        <time>2021-05-29 18:27:49</time>
      </trkpt>
      <trkpt lat="43.04972" lon="-2.92149">
        <ele>265.8</ele>
        <time>2021-05-29 18:27:50</time>
      </trkpt>
      <trkpt lat="43.04964" lon="-2.92146">
        <ele>265.8</ele>
        <time>2021-05-29 18:27:51</time>
      </trkpt>
      <trkpt lat="43.04957" lon="-2.92143">
        <ele>265.8</ele>
        <time>2021-05-29 18:27:52</time>
      </trkpt>
      <trkpt lat="43.0495" lon="-2.9214">
        <ele>265.8</ele>
        <time>2021-05-29 18:27:53</time>
      </trkpt>
      <trkpt lat="43.04943" lon="-2.92137">
        <ele>266.2</ele>
        <time>2021-05-29 18:27:54</time>
      </trkpt>
      <trkpt lat="43.04936" lon="-2.92134">
        <ele>266.4</ele>
        <time>2021-05-29 18:27:55</time>
      </trkpt>
      <trkpt lat="43.04928" lon="-2.92131">
        <ele>266.4</ele>
        <time>2021-05-29 18:27:56</time>
      </trkpt>
      <trkpt lat="43.04921" lon="-2.92128">
        <ele>266.6</ele>
        <time>2021-05-29 18:27:57</time>
      </trkpt>
      <trkpt lat="43.04914" lon="-2.92125">
        <ele>267</ele>
        <time>2021-05-29 18:27:58</time>
      </trkpt>
      <trkpt lat="43.04906" lon="-2.92121">
        <ele>267.4</ele>
        <time>2021-05-29 18:27:59</time>
      </trkpt>
      <trkpt lat="43.04899" lon="-2.92118">
        <ele>267.6</ele>
        <time>2021-05-29 18:28:00</time>
      </trkpt>
      <trkpt lat="43.04892" lon="-2.92115">
        <ele>268</ele>
        <time>2021-05-29 18:28:01</time>
      </trkpt>
      <trkpt lat="43.04885" lon="-2.92111">
        <ele>268.4</ele>
        <time>2021-05-29 18:28:02</time>
      </trkpt>
      <trkpt lat="43.04877" lon="-2.92106">
        <ele>268.4</ele>
        <time>2021-05-29 18:28:03</time>
      </trkpt>
      <trkpt lat="43.0487" lon="-2.92102">
        <ele>268.8</ele>
        <time>2021-05-29 18:28:04</time>
      </trkpt>
      <trkpt lat="43.04863" lon="-2.92098">
        <ele>269</ele>
        <time>2021-05-29 18:28:05</time>
      </trkpt>
      <trkpt lat="43.04855" lon="-2.92094">
        <ele>269</ele>
        <time>2021-05-29 18:28:06</time>
      </trkpt>
      <trkpt lat="43.04848" lon="-2.92089">
        <ele>268.8</ele>
        <time>2021-05-29 18:28:07</time>
      </trkpt>
      <trkpt lat="43.04841" lon="-2.92084">
        <ele>269.2</ele>
        <time>2021-05-29 18:28:08</time>
      </trkpt>
      <trkpt lat="43.04833" lon="-2.9208">
        <ele>269.2</ele>
        <time>2021-05-29 18:28:09</time>
      </trkpt>
      <trkpt lat="43.04826" lon="-2.92075">
        <ele>269.2</ele>
        <time>2021-05-29 18:28:10</time>
      </trkpt>
      <trkpt lat="43.04818" lon="-2.92071">
        <ele>269.2</ele>
        <time>2021-05-29 18:28:11</time>
      </trkpt>
      <trkpt lat="43.0481" lon="-2.92067">
        <ele>269.4</ele>
        <time>2021-05-29 18:28:12</time>
      </trkpt>
      <trkpt lat="43.04802" lon="-2.92064">
        <ele>269.4</ele>
        <time>2021-05-29 18:28:13</time>
      </trkpt>
      <trkpt lat="43.04795" lon="-2.92061">
        <ele>269.4</ele>
        <time>2021-05-29 18:28:14</time>
      </trkpt>
      <trkpt lat="43.04787" lon="-2.92058">
        <ele>269.4</ele>
        <time>2021-05-29 18:28:15</time>
      </trkpt>
      <trkpt lat="43.0478" lon="-2.92056">
        <ele>269.4</ele>
        <time>2021-05-29 18:28:16</time>
      </trkpt>
      <trkpt lat="43.04773" lon="-2.92053">
        <ele>269.6</ele>
        <time>2021-05-29 18:28:17</time>
      </trkpt>
      <trkpt lat="43.04766" lon="-2.92052">
        <ele>269.6</ele>
        <time>2021-05-29 18:28:18</time>
      </trkpt>
      <trkpt lat="43.04759" lon="-2.92051">
        <ele>269.8</ele>
        <time>2021-05-29 18:28:19</time>
      </trkpt>
      <trkpt lat="43.04752" lon="-2.92051">
        <ele>269.8</ele>
        <time>2021-05-29 18:28:20</time>
      </trkpt>
      <trkpt lat="43.04745" lon="-2.92052">
        <ele>270</ele>
        <time>2021-05-29 18:28:21</time>
      </trkpt>
      <trkpt lat="43.04738" lon="-2.92052">
        <ele>269.8</ele>
        <time>2021-05-29 18:28:22</time>
      </trkpt>
      <trkpt lat="43.0473" lon="-2.92052">
        <ele>270</ele>
        <time>2021-05-29 18:28:23</time>
      </trkpt>
      <trkpt lat="43.04723" lon="-2.9205">
        <ele>270.4</ele>
        <time>2021-05-29 18:28:24</time>
      </trkpt>
      <trkpt lat="43.04715" lon="-2.92049">
        <ele>270.6</ele>
        <time>2021-05-29 18:28:25</time>
      </trkpt>
      <trkpt lat="43.04707" lon="-2.92047">
        <ele>271</ele>
        <time>2021-05-29 18:28:26</time>
      </trkpt>
      <trkpt lat="43.04699" lon="-2.92045">
        <ele>271.2</ele>
        <time>2021-05-29 18:28:27</time>
      </trkpt>
      <trkpt lat="43.04691" lon="-2.92043">
        <ele>271.4</ele>
        <time>2021-05-29 18:28:28</time>
      </trkpt>
      <trkpt lat="43.04683" lon="-2.92042">
        <ele>271.6</ele>
        <time>2021-05-29 18:28:29</time>
      </trkpt>
      <trkpt lat="43.04674" lon="-2.92042">
        <ele>271.8</ele>
        <time>2021-05-29 18:28:30</time>
      </trkpt>
      <trkpt lat="43.04667" lon="-2.92043">
        <ele>272</ele>
        <time>2021-05-29 18:28:31</time>
      </trkpt>
      <trkpt lat="43.04659" lon="-2.92045">
        <ele>271.8</ele>
        <time>2021-05-29 18:28:32</time>
      </trkpt>
      <trkpt lat="43.04653" lon="-2.92048">
        <ele>271.8</ele>
        <time>2021-05-29 18:28:33</time>
      </trkpt>
      <trkpt lat="43.04646" lon="-2.92052">
        <ele>272</ele>
        <time>2021-05-29 18:28:34</time>
      </trkpt>
      <trkpt lat="43.0464" lon="-2.92058">
        <ele>272</ele>
        <time>2021-05-29 18:28:35</time>
      </trkpt>
      <trkpt lat="43.04634" lon="-2.92064">
        <ele>272</ele>
        <time>2021-05-29 18:28:36</time>
      </trkpt>
      <trkpt lat="43.04628" lon="-2.9207">
        <ele>272.2</ele>
        <time>2021-05-29 18:28:37</time>
      </trkpt>
      <trkpt lat="43.04623" lon="-2.92078">
        <ele>272.2</ele>
        <time>2021-05-29 18:28:38</time>
      </trkpt>
      <trkpt lat="43.04617" lon="-2.92085">
        <ele>272.2</ele>
        <time>2021-05-29 18:28:39</time>
      </trkpt>
      <trkpt lat="43.04612" lon="-2.92093">
        <ele>272.4</ele>
        <time>2021-05-29 18:28:40</time>
      </trkpt>
      <trkpt lat="43.04606" lon="-2.92101">
        <ele>272.6</ele>
        <time>2021-05-29 18:28:41</time>
      </trkpt>
      <trkpt lat="43.04601" lon="-2.92109">
        <ele>272.8</ele>
        <time>2021-05-29 18:28:42</time>
      </trkpt>
      <trkpt lat="43.04596" lon="-2.92117">
        <ele>273.2</ele>
        <time>2021-05-29 18:28:43</time>
      </trkpt>
      <trkpt lat="43.04591" lon="-2.92125">
        <ele>273.2</ele>
        <time>2021-05-29 18:28:44</time>
      </trkpt>
      <trkpt lat="43.04585" lon="-2.92132">
        <ele>273.4</ele>
        <time>2021-05-29 18:28:45</time>
      </trkpt>
      <trkpt lat="43.0458" lon="-2.9214">
        <ele>273.4</ele>
        <time>2021-05-29 18:28:46</time>
      </trkpt>
      <trkpt lat="43.04574" lon="-2.92147">
        <ele>273.6</ele>
        <time>2021-05-29 18:28:47</time>
      </trkpt>
      <trkpt lat="43.04569" lon="-2.92155">
        <ele>273.6</ele>
        <time>2021-05-29 18:28:48</time>
      </trkpt>
      <trkpt lat="43.04563" lon="-2.92162">
        <ele>273.8</ele>
        <time>2021-05-29 18:28:49</time>
      </trkpt>
      <trkpt lat="43.04558" lon="-2.9217">
        <ele>273.8</ele>
        <time>2021-05-29 18:28:50</time>
      </trkpt>
      <trkpt lat="43.04551" lon="-2.92177">
        <ele>273.8</ele>
        <time>2021-05-29 18:28:51</time>
      </trkpt>
      <trkpt lat="43.04545" lon="-2.92183">
        <ele>274</ele>
        <time>2021-05-29 18:28:52</time>
      </trkpt>
      <trkpt lat="43.04537" lon="-2.92188">
        <ele>274.2</ele>
        <time>2021-05-29 18:28:53</time>
      </trkpt>
      <trkpt lat="43.04529" lon="-2.92192">
        <ele>274.4</ele>
        <time>2021-05-29 18:28:54</time>
      </trkpt>
      <trkpt lat="43.04521" lon="-2.92196">
        <ele>274.4</ele>
        <time>2021-05-29 18:28:55</time>
      </trkpt>
      <trkpt lat="43.04512" lon="-2.922">
        <ele>274.4</ele>
        <time>2021-05-29 18:28:56</time>
      </trkpt>
      <trkpt lat="43.04503" lon="-2.92204">
        <ele>274.6</ele>
        <time>2021-05-29 18:28:57</time>
      </trkpt>
      <trkpt lat="43.04494" lon="-2.92206">
        <ele>274.6</ele>
        <time>2021-05-29 18:28:58</time>
      </trkpt>
      <trkpt lat="43.04485" lon="-2.92208">
        <ele>274.6</ele>
        <time>2021-05-29 18:28:59</time>
      </trkpt>
      <trkpt lat="43.04477" lon="-2.92209">
        <ele>274.6</ele>
        <time>2021-05-29 18:29:00</time>
      </trkpt>
      <trkpt lat="43.04468" lon="-2.9221">
        <ele>274.6</ele>
        <time>2021-05-29 18:29:01</time>
      </trkpt>
      <trkpt lat="43.04458" lon="-2.92209">
        <ele>274.6</ele>
        <time>2021-05-29 18:29:02</time>
      </trkpt>
      <trkpt lat="43.04449" lon="-2.92208">
        <ele>274.6</ele>
        <time>2021-05-29 18:29:03</time>
      </trkpt>
      <trkpt lat="43.0444" lon="-2.92206">
        <ele>274.6</ele>
        <time>2021-05-29 18:29:04</time>
      </trkpt>
      <trkpt lat="43.04431" lon="-2.92204">
        <ele>274.6</ele>
        <time>2021-05-29 18:29:05</time>
      </trkpt>
      <trkpt lat="43.04422" lon="-2.92202">
        <ele>274.6</ele>
        <time>2021-05-29 18:29:06</time>
      </trkpt>
      <trkpt lat="43.04414" lon="-2.922">
        <ele>274.6</ele>
        <time>2021-05-29 18:29:07</time>
      </trkpt>
      <trkpt lat="43.04405" lon="-2.92198">
        <ele>274.6</ele>
        <time>2021-05-29 18:29:08</time>
      </trkpt>
      <trkpt lat="43.04397" lon="-2.92198">
        <ele>274.6</ele>
        <time>2021-05-29 18:29:09</time>
      </trkpt>
      <trkpt lat="43.04389" lon="-2.92199">
        <ele>274.6</ele>
        <time>2021-05-29 18:29:10</time>
      </trkpt>
      <trkpt lat="43.04381" lon="-2.92201">
        <ele>274.6</ele>
        <time>2021-05-29 18:29:11</time>
      </trkpt>
      <trkpt lat="43.04375" lon="-2.92204">
        <ele>274.6</ele>
        <time>2021-05-29 18:29:12</time>
      </trkpt>
      <trkpt lat="43.04368" lon="-2.92207">
        <ele>274.6</ele>
        <time>2021-05-29 18:29:13</time>
      </trkpt>
      <trkpt lat="43.04363" lon="-2.92211">
        <ele>274.6</ele>
        <time>2021-05-29 18:29:14</time>
      </trkpt>
      <trkpt lat="43.04357" lon="-2.92214">
        <ele>274.6</ele>
        <time>2021-05-29 18:29:15</time>
      </trkpt>
      <trkpt lat="43.04352" lon="-2.92218">
        <ele>274.6</ele>
        <time>2021-05-29 18:29:16</time>
      </trkpt>
      <trkpt lat="43.04348" lon="-2.92222">
        <ele>274.6</ele>
        <time>2021-05-29 18:29:17</time>
      </trkpt>
      <trkpt lat="43.04344" lon="-2.92222">
        <ele>274.8</ele>
        <time>2021-05-29 18:29:18</time>
      </trkpt>
      <trkpt lat="43.0434" lon="-2.92224">
        <ele>275.2</ele>
        <time>2021-05-29 18:29:19</time>
      </trkpt>
      <trkpt lat="43.04336" lon="-2.92227">
        <ele>275.8</ele>
        <time>2021-05-29 18:29:20</time>
      </trkpt>
      <trkpt lat="43.04331" lon="-2.92229">
        <ele>276.2</ele>
        <time>2021-05-29 18:29:21</time>
      </trkpt>
      <trkpt lat="43.04327" lon="-2.92232">
        <ele>276.8</ele>
        <time>2021-05-29 18:29:22</time>
      </trkpt>
      <trkpt lat="43.04323" lon="-2.92235">
        <ele>277.4</ele>
        <time>2021-05-29 18:29:23</time>
      </trkpt>
      <trkpt lat="43.04319" lon="-2.92238">
        <ele>278</ele>
        <time>2021-05-29 18:29:24</time>
      </trkpt>
      <trkpt lat="43.04316" lon="-2.92241">
        <ele>278.4</ele>
        <time>2021-05-29 18:29:25</time>
      </trkpt>
      <trkpt lat="43.04312" lon="-2.92244">
        <ele>278.8</ele>
        <time>2021-05-29 18:29:26</time>
      </trkpt>
      <trkpt lat="43.04309" lon="-2.92247">
        <ele>279.2</ele>
        <time>2021-05-29 18:29:27</time>
      </trkpt>
      <trkpt lat="43.04306" lon="-2.92249">
        <ele>279.8</ele>
        <time>2021-05-29 18:29:28</time>
      </trkpt>
      <trkpt lat="43.04302" lon="-2.92251">
        <ele>280.2</ele>
        <time>2021-05-29 18:29:29</time>
      </trkpt>
      <trkpt lat="43.04299" lon="-2.92254">
        <ele>280.8</ele>
        <time>2021-05-29 18:29:30</time>
      </trkpt>
      <trkpt lat="43.04296" lon="-2.92256">
        <ele>281.2</ele>
        <time>2021-05-29 18:29:31</time>
      </trkpt>
      <trkpt lat="43.04293" lon="-2.92259">
        <ele>281.8</ele>
        <time>2021-05-29 18:29:32</time>
      </trkpt>
      <trkpt lat="43.04289" lon="-2.92262">
        <ele>282.2</ele>
        <time>2021-05-29 18:29:33</time>
      </trkpt>
      <trkpt lat="43.04285" lon="-2.92264">
        <ele>282.6</ele>
        <time>2021-05-29 18:29:34</time>
      </trkpt>
      <trkpt lat="43.04282" lon="-2.92265">
        <ele>283</ele>
        <time>2021-05-29 18:29:35</time>
      </trkpt>
      <trkpt lat="43.04278" lon="-2.92267">
        <ele>283.4</ele>
        <time>2021-05-29 18:29:36</time>
      </trkpt>
      <trkpt lat="43.04274" lon="-2.9227">
        <ele>283.8</ele>
        <time>2021-05-29 18:29:37</time>
      </trkpt>
      <trkpt lat="43.0427" lon="-2.92272">
        <ele>284</ele>
        <time>2021-05-29 18:29:38</time>
      </trkpt>
      <trkpt lat="43.04267" lon="-2.92274">
        <ele>284.4</ele>
        <time>2021-05-29 18:29:39</time>
      </trkpt>
      <trkpt lat="43.04263" lon="-2.92277">
        <ele>284.8</ele>
        <time>2021-05-29 18:29:40</time>
      </trkpt>
      <trkpt lat="43.04259" lon="-2.92278">
        <ele>285</ele>
        <time>2021-05-29 18:29:41</time>
      </trkpt>
      <trkpt lat="43.04255" lon="-2.92279">
        <ele>285.6</ele>
        <time>2021-05-29 18:29:42</time>
      </trkpt>
      <trkpt lat="43.04251" lon="-2.9228">
        <ele>286</ele>
        <time>2021-05-29 18:29:43</time>
      </trkpt>
      <trkpt lat="43.04247" lon="-2.92281">
        <ele>286.4</ele>
        <time>2021-05-29 18:29:44</time>
      </trkpt>
      <trkpt lat="43.04243" lon="-2.92281">
        <ele>286.8</ele>
        <time>2021-05-29 18:29:45</time>
      </trkpt>
      <trkpt lat="43.04239" lon="-2.92281">
        <ele>287.2</ele>
        <time>2021-05-29 18:29:46</time>
      </trkpt>
      <trkpt lat="43.04234" lon="-2.9228">
        <ele>287.6</ele>
        <time>2021-05-29 18:29:47</time>
      </trkpt>
      <trkpt lat="43.0423" lon="-2.92279">
        <ele>287.8</ele>
        <time>2021-05-29 18:29:48</time>
      </trkpt>
      <trkpt lat="43.04226" lon="-2.92278">
        <ele>288.2</ele>
        <time>2021-05-29 18:29:49</time>
      </trkpt>
      <trkpt lat="43.04221" lon="-2.92278">
        <ele>288.6</ele>
        <time>2021-05-29 18:29:50</time>
      </trkpt>
      <trkpt lat="43.04217" lon="-2.92277">
        <ele>288.8</ele>
        <time>2021-05-29 18:29:51</time>
      </trkpt>
      <trkpt lat="43.04213" lon="-2.92276">
        <ele>289.4</ele>
        <time>2021-05-29 18:29:52</time>
      </trkpt>
      <trkpt lat="43.04208" lon="-2.92273">
        <ele>289.6</ele>
        <time>2021-05-29 18:29:53</time>
      </trkpt>
      <trkpt lat="43.04204" lon="-2.92271">
        <ele>290</ele>
        <time>2021-05-29 18:29:54</time>
      </trkpt>
      <trkpt lat="43.04201" lon="-2.92268">
        <ele>290.2</ele>
        <time>2021-05-29 18:29:55</time>
      </trkpt>
      <trkpt lat="43.04197" lon="-2.92266">
        <ele>290.8</ele>
        <time>2021-05-29 18:29:56</time>
      </trkpt>
      <trkpt lat="43.04193" lon="-2.92263">
        <ele>291.2</ele>
        <time>2021-05-29 18:29:57</time>
      </trkpt>
      <trkpt lat="43.04189" lon="-2.9226">
        <ele>291.6</ele>
        <time>2021-05-29 18:29:58</time>
      </trkpt>
      <trkpt lat="43.04186" lon="-2.92257">
        <ele>292</ele>
        <time>2021-05-29 18:29:59</time>
      </trkpt>
      <trkpt lat="43.04182" lon="-2.92254">
        <ele>292.2</ele>
        <time>2021-05-29 18:30:00</time>
      </trkpt>
      <trkpt lat="43.04179" lon="-2.9225">
        <ele>292.6</ele>
        <time>2021-05-29 18:30:01</time>
      </trkpt>
      <trkpt lat="43.04175" lon="-2.92247">
        <ele>293</ele>
        <time>2021-05-29 18:30:02</time>
      </trkpt>
      <trkpt lat="43.04172" lon="-2.92243">
        <ele>293.4</ele>
        <time>2021-05-29 18:30:03</time>
      </trkpt>
      <trkpt lat="43.04169" lon="-2.92239">
        <ele>293.8</ele>
        <time>2021-05-29 18:30:04</time>
      </trkpt>
      <trkpt lat="43.04166" lon="-2.92235">
        <ele>294</ele>
        <time>2021-05-29 18:30:05</time>
      </trkpt>
      <trkpt lat="43.04163" lon="-2.92231">
        <ele>294.4</ele>
        <time>2021-05-29 18:30:06</time>
      </trkpt>
      <trkpt lat="43.04159" lon="-2.92227">
        <ele>295</ele>
        <time>2021-05-29 18:30:07</time>
      </trkpt>
      <trkpt lat="43.04156" lon="-2.92224">
        <ele>295.4</ele>
        <time>2021-05-29 18:30:08</time>
      </trkpt>
      <trkpt lat="43.04153" lon="-2.9222">
        <ele>295.6</ele>
        <time>2021-05-29 18:30:09</time>
      </trkpt>
      <trkpt lat="43.04149" lon="-2.92216">
        <ele>296</ele>
        <time>2021-05-29 18:30:10</time>
      </trkpt>
      <trkpt lat="43.04146" lon="-2.92212">
        <ele>296.4</ele>
        <time>2021-05-29 18:30:11</time>
      </trkpt>
      <trkpt lat="43.04143" lon="-2.92208">
        <ele>296.6</ele>
        <time>2021-05-29 18:30:12</time>
      </trkpt>
      <trkpt lat="43.0414" lon="-2.92204">
        <ele>296.8</ele>
        <time>2021-05-29 18:30:13</time>
      </trkpt>
      <trkpt lat="43.04136" lon="-2.922">
        <ele>297</ele>
        <time>2021-05-29 18:30:14</time>
      </trkpt>
      <trkpt lat="43.04133" lon="-2.92196">
        <ele>297.4</ele>
        <time>2021-05-29 18:30:15</time>
      </trkpt>
      <trkpt lat="43.04129" lon="-2.92193">
        <ele>297.6</ele>
        <time>2021-05-29 18:30:16</time>
      </trkpt>
      <trkpt lat="43.04126" lon="-2.92189">
        <ele>297.8</ele>
        <time>2021-05-29 18:30:17</time>
      </trkpt>
      <trkpt lat="43.04122" lon="-2.92186">
        <ele>298.2</ele>
        <time>2021-05-29 18:30:18</time>
      </trkpt>
      <trkpt lat="43.04118" lon="-2.92182">
        <ele>298.4</ele>
        <time>2021-05-29 18:30:19</time>
      </trkpt>
      <trkpt lat="43.04114" lon="-2.92179">
        <ele>298.4</ele>
        <time>2021-05-29 18:30:20</time>
      </trkpt>
      <trkpt lat="43.0411" lon="-2.92175">
        <ele>298.8</ele>
        <time>2021-05-29 18:30:21</time>
      </trkpt>
      <trkpt lat="43.04106" lon="-2.92172">
        <ele>299</ele>
        <time>2021-05-29 18:30:22</time>
      </trkpt>
      <trkpt lat="43.04102" lon="-2.92169">
        <ele>299.4</ele>
        <time>2021-05-29 18:30:23</time>
      </trkpt>
      <trkpt lat="43.04098" lon="-2.92166">
        <ele>299.8</ele>
        <time>2021-05-29 18:30:24</time>
      </trkpt>
      <trkpt lat="43.04093" lon="-2.92164">
        <ele>300</ele>
        <time>2021-05-29 18:30:25</time>
      </trkpt>
      <trkpt lat="43.04089" lon="-2.92161">
        <ele>300</ele>
        <time>2021-05-29 18:30:26</time>
      </trkpt>
      <trkpt lat="43.04085" lon="-2.92159">
        <ele>300.4</ele>
        <time>2021-05-29 18:30:27</time>
      </trkpt>
      <trkpt lat="43.0408" lon="-2.92157">
        <ele>300.6</ele>
        <time>2021-05-29 18:30:28</time>
      </trkpt>
      <trkpt lat="43.04076" lon="-2.92154">
        <ele>301</ele>
        <time>2021-05-29 18:30:29</time>
      </trkpt>
      <trkpt lat="43.04071" lon="-2.92152">
        <ele>301.2</ele>
        <time>2021-05-29 18:30:30</time>
      </trkpt>
      <trkpt lat="43.04066" lon="-2.9215">
        <ele>301.4</ele>
        <time>2021-05-29 18:30:31</time>
      </trkpt>
      <trkpt lat="43.04062" lon="-2.92148">
        <ele>301.6</ele>
        <time>2021-05-29 18:30:32</time>
      </trkpt>
      <trkpt lat="43.04057" lon="-2.92146">
        <ele>301.8</ele>
        <time>2021-05-29 18:30:33</time>
      </trkpt>
      <trkpt lat="43.04052" lon="-2.92144">
        <ele>302</ele>
        <time>2021-05-29 18:30:34</time>
      </trkpt>
      <trkpt lat="43.04046" lon="-2.92142">
        <ele>302</ele>
        <time>2021-05-29 18:30:35</time>
      </trkpt>
      <trkpt lat="43.04041" lon="-2.9214">
        <ele>302.2</ele>
        <time>2021-05-29 18:30:36</time>
      </trkpt>
      <trkpt lat="43.04036" lon="-2.92139">
        <ele>302.4</ele>
        <time>2021-05-29 18:30:37</time>
      </trkpt>
      <trkpt lat="43.0403" lon="-2.92137">
        <ele>302.4</ele>
        <time>2021-05-29 18:30:38</time>
      </trkpt>
      <trkpt lat="43.04025" lon="-2.92135">
        <ele>302.6</ele>
        <time>2021-05-29 18:30:39</time>
      </trkpt>
      <trkpt lat="43.04019" lon="-2.92134">
        <ele>302.8</ele>
        <time>2021-05-29 18:30:40</time>
      </trkpt>
      <trkpt lat="43.04013" lon="-2.92132">
        <ele>303</ele>
        <time>2021-05-29 18:30:41</time>
      </trkpt>
      <trkpt lat="43.04007" lon="-2.9213">
        <ele>303.2</ele>
        <time>2021-05-29 18:30:42</time>
      </trkpt>
      <trkpt lat="43.04001" lon="-2.92128">
        <ele>303.2</ele>
        <time>2021-05-29 18:30:43</time>
      </trkpt>
      <trkpt lat="43.03995" lon="-2.92126">
        <ele>303.4</ele>
        <time>2021-05-29 18:30:44</time>
      </trkpt>
      <trkpt lat="43.03989" lon="-2.92124">
        <ele>303.4</ele>
        <time>2021-05-29 18:30:45</time>
      </trkpt>
      <trkpt lat="43.03984" lon="-2.92121">
        <ele>303.4</ele>
        <time>2021-05-29 18:30:46</time>
      </trkpt>
      <trkpt lat="43.03978" lon="-2.92119">
        <ele>303.6</ele>
        <time>2021-05-29 18:30:47</time>
      </trkpt>
      <trkpt lat="43.03972" lon="-2.92117">
        <ele>303.6</ele>
        <time>2021-05-29 18:30:48</time>
      </trkpt>
      <trkpt lat="43.03967" lon="-2.92115">
        <ele>303.6</ele>
        <time>2021-05-29 18:30:49</time>
      </trkpt>
      <trkpt lat="43.03961" lon="-2.92113">
        <ele>303.6</ele>
        <time>2021-05-29 18:30:50</time>
      </trkpt>
      <trkpt lat="43.03956" lon="-2.9211">
        <ele>303.8</ele>
        <time>2021-05-29 18:30:51</time>
      </trkpt>
      <trkpt lat="43.0395" lon="-2.92108">
        <ele>303.8</ele>
        <time>2021-05-29 18:30:52</time>
      </trkpt>
      <trkpt lat="43.03944" lon="-2.92106">
        <ele>303.8</ele>
        <time>2021-05-29 18:30:53</time>
      </trkpt>
      <trkpt lat="43.03938" lon="-2.92103">
        <ele>303.8</ele>
        <time>2021-05-29 18:30:54</time>
      </trkpt>
      <trkpt lat="43.03932" lon="-2.92101">
        <ele>303.8</ele>
        <time>2021-05-29 18:30:55</time>
      </trkpt>
      <trkpt lat="43.03925" lon="-2.92099">
        <ele>303.8</ele>
        <time>2021-05-29 18:30:56</time>
      </trkpt>
      <trkpt lat="43.03918" lon="-2.92097">
        <ele>303.8</ele>
        <time>2021-05-29 18:30:57</time>
      </trkpt>
      <trkpt lat="43.03911" lon="-2.92094">
        <ele>303.8</ele>
        <time>2021-05-29 18:30:58</time>
      </trkpt>
      <trkpt lat="43.03904" lon="-2.92092">
        <ele>303.6</ele>
        <time>2021-05-29 18:30:59</time>
      </trkpt>
      <trkpt lat="43.03896" lon="-2.9209">
        <ele>303.6</ele>
        <time>2021-05-29 18:31:00</time>
      </trkpt>
      <trkpt lat="43.03889" lon="-2.92088">
        <ele>303.4</ele>
        <time>2021-05-29 18:31:01</time>
      </trkpt>
      <trkpt lat="43.03881" lon="-2.92085">
        <ele>303.4</ele>
        <time>2021-05-29 18:31:02</time>
      </trkpt>
      <trkpt lat="43.03872" lon="-2.92083">
        <ele>303.2</ele>
        <time>2021-05-29 18:31:03</time>
      </trkpt>
      <trkpt lat="43.03864" lon="-2.9208">
        <ele>303</ele>
        <time>2021-05-29 18:31:04</time>
      </trkpt>
      <trkpt lat="43.03855" lon="-2.92077">
        <ele>302.6</ele>
        <time>2021-05-29 18:31:05</time>
      </trkpt>
      <trkpt lat="43.03846" lon="-2.92074">
        <ele>302.4</ele>
        <time>2021-05-29 18:31:06</time>
      </trkpt>
      <trkpt lat="43.03837" lon="-2.92071">
        <ele>302.2</ele>
        <time>2021-05-29 18:31:07</time>
      </trkpt>
      <trkpt lat="43.03828" lon="-2.92068">
        <ele>302</ele>
        <time>2021-05-29 18:31:08</time>
      </trkpt>
      <trkpt lat="43.03818" lon="-2.92064">
        <ele>301.6</ele>
        <time>2021-05-29 18:31:09</time>
      </trkpt>
      <trkpt lat="43.03808" lon="-2.92061">
        <ele>301.2</ele>
        <time>2021-05-29 18:31:10</time>
      </trkpt>
      <trkpt lat="43.03798" lon="-2.92058">
        <ele>301</ele>
        <time>2021-05-29 18:31:11</time>
      </trkpt>
      <trkpt lat="43.03787" lon="-2.92054">
        <ele>300.8</ele>
        <time>2021-05-29 18:31:12</time>
      </trkpt>
      <trkpt lat="43.03777" lon="-2.92049">
        <ele>300.4</ele>
        <time>2021-05-29 18:31:13</time>
      </trkpt>
      <trkpt lat="43.03766" lon="-2.92045">
        <ele>300</ele>
        <time>2021-05-29 18:31:14</time>
      </trkpt>
      <trkpt lat="43.03756" lon="-2.92039">
        <ele>299.6</ele>
        <time>2021-05-29 18:31:15</time>
      </trkpt>
      <trkpt lat="43.03745" lon="-2.92034">
        <ele>299</ele>
        <time>2021-05-29 18:31:16</time>
      </trkpt>
      <trkpt lat="43.03735" lon="-2.92028">
        <ele>298.6</ele>
        <time>2021-05-29 18:31:17</time>
      </trkpt>
      <trkpt lat="43.03725" lon="-2.92022">
        <ele>298.4</ele>
        <time>2021-05-29 18:31:18</time>
      </trkpt>
      <trkpt lat="43.03716" lon="-2.92015">
        <ele>297.8</ele>
        <time>2021-05-29 18:31:19</time>
      </trkpt>
      <trkpt lat="43.03707" lon="-2.92008">
        <ele>297.4</ele>
        <time>2021-05-29 18:31:20</time>
      </trkpt>
      <trkpt lat="43.03697" lon="-2.92">
        <ele>296.6</ele>
        <time>2021-05-29 18:31:21</time>
      </trkpt>
      <trkpt lat="43.03689" lon="-2.91992">
        <ele>296.2</ele>
        <time>2021-05-29 18:31:22</time>
      </trkpt>
      <trkpt lat="43.0368" lon="-2.91983">
        <ele>295.8</ele>
        <time>2021-05-29 18:31:23</time>
      </trkpt>
      <trkpt lat="43.03672" lon="-2.91974">
        <ele>295.4</ele>
        <time>2021-05-29 18:31:24</time>
      </trkpt>
      <trkpt lat="43.03664" lon="-2.91964">
        <ele>295</ele>
        <time>2021-05-29 18:31:25</time>
      </trkpt>
      <trkpt lat="43.03656" lon="-2.91954">
        <ele>294.2</ele>
        <time>2021-05-29 18:31:26</time>
      </trkpt>
      <trkpt lat="43.03648" lon="-2.91943">
        <ele>293.6</ele>
        <time>2021-05-29 18:31:27</time>
      </trkpt>
      <trkpt lat="43.03641" lon="-2.91932">
        <ele>293.2</ele>
        <time>2021-05-29 18:31:28</time>
      </trkpt>
      <trkpt lat="43.03634" lon="-2.91921">
        <ele>292.8</ele>
        <time>2021-05-29 18:31:29</time>
      </trkpt>
      <trkpt lat="43.03628" lon="-2.9191">
        <ele>292.4</ele>
        <time>2021-05-29 18:31:30</time>
      </trkpt>
      <trkpt lat="43.03621" lon="-2.91898">
        <ele>292</ele>
        <time>2021-05-29 18:31:31</time>
      </trkpt>
      <trkpt lat="43.03616" lon="-2.91887">
        <ele>291.6</ele>
        <time>2021-05-29 18:31:32</time>
      </trkpt>
      <trkpt lat="43.0361" lon="-2.91875">
        <ele>291.2</ele>
        <time>2021-05-29 18:31:33</time>
      </trkpt>
      <trkpt lat="43.03605" lon="-2.91863">
        <ele>291</ele>
        <time>2021-05-29 18:31:34</time>
      </trkpt>
      <trkpt lat="43.036" lon="-2.91851">
        <ele>290.6</ele>
        <time>2021-05-29 18:31:35</time>
      </trkpt>
      <trkpt lat="43.03595" lon="-2.91839">
        <ele>290</ele>
        <time>2021-05-29 18:31:36</time>
      </trkpt>
      <trkpt lat="43.03591" lon="-2.91827">
        <ele>290</ele>
        <time>2021-05-29 18:31:37</time>
      </trkpt>
      <trkpt lat="43.03586" lon="-2.91815">
        <ele>289.8</ele>
        <time>2021-05-29 18:31:38</time>
      </trkpt>
      <trkpt lat="43.03582" lon="-2.91804">
        <ele>289.8</ele>
        <time>2021-05-29 18:31:39</time>
      </trkpt>
      <trkpt lat="43.03578" lon="-2.91793">
        <ele>289.6</ele>
        <time>2021-05-29 18:31:40</time>
      </trkpt>
      <trkpt lat="43.03574" lon="-2.91782">
        <ele>289.6</ele>
        <time>2021-05-29 18:31:41</time>
      </trkpt>
      <trkpt lat="43.0357" lon="-2.91771">
        <ele>289.6</ele>
        <time>2021-05-29 18:31:42</time>
      </trkpt>
      <trkpt lat="43.03566" lon="-2.9176">
        <ele>289.6</ele>
        <time>2021-05-29 18:31:43</time>
      </trkpt>
      <trkpt lat="43.03562" lon="-2.9175">
        <ele>289.6</ele>
        <time>2021-05-29 18:31:44</time>
      </trkpt>
      <trkpt lat="43.03557" lon="-2.9174">
        <ele>289.6</ele>
        <time>2021-05-29 18:31:45</time>
      </trkpt>
      <trkpt lat="43.03553" lon="-2.9173">
        <ele>289.6</ele>
        <time>2021-05-29 18:31:46</time>
      </trkpt>
      <trkpt lat="43.03548" lon="-2.91721">
        <ele>289.6</ele>
        <time>2021-05-29 18:31:47</time>
      </trkpt>
      <trkpt lat="43.03543" lon="-2.91713">
        <ele>289.8</ele>
        <time>2021-05-29 18:31:48</time>
      </trkpt>
      <trkpt lat="43.03538" lon="-2.91706">
        <ele>290</ele>
        <time>2021-05-29 18:31:49</time>
      </trkpt>
      <trkpt lat="43.03533" lon="-2.91698">
        <ele>290</ele>
        <time>2021-05-29 18:31:50</time>
      </trkpt>
      <trkpt lat="43.03528" lon="-2.91691">
        <ele>290.2</ele>
        <time>2021-05-29 18:31:51</time>
      </trkpt>
      <trkpt lat="43.03523" lon="-2.91685">
        <ele>290.4</ele>
        <time>2021-05-29 18:31:52</time>
      </trkpt>
      <trkpt lat="43.03518" lon="-2.91679">
        <ele>290.6</ele>
        <time>2021-05-29 18:31:53</time>
      </trkpt>
      <trkpt lat="43.03513" lon="-2.91673">
        <ele>290.8</ele>
        <time>2021-05-29 18:31:54</time>
      </trkpt>
      <trkpt lat="43.03508" lon="-2.91668">
        <ele>291</ele>
        <time>2021-05-29 18:31:55</time>
      </trkpt>
      <trkpt lat="43.03502" lon="-2.91663">
        <ele>291.4</ele>
        <time>2021-05-29 18:31:56</time>
      </trkpt>
      <trkpt lat="43.03496" lon="-2.91659">
        <ele>291.6</ele>
        <time>2021-05-29 18:31:57</time>
      </trkpt>
      <trkpt lat="43.03491" lon="-2.91655">
        <ele>291.8</ele>
        <time>2021-05-29 18:31:58</time>
      </trkpt>
      <trkpt lat="43.03485" lon="-2.91651">
        <ele>292</ele>
        <time>2021-05-29 18:31:59</time>
      </trkpt>
      <trkpt lat="43.0348" lon="-2.91648">
        <ele>292.4</ele>
        <time>2021-05-29 18:32:00</time>
      </trkpt>
      <trkpt lat="43.03475" lon="-2.91645">
        <ele>292.6</ele>
        <time>2021-05-29 18:32:01</time>
      </trkpt>
      <trkpt lat="43.0347" lon="-2.91642">
        <ele>293.2</ele>
        <time>2021-05-29 18:32:02</time>
      </trkpt>
      <trkpt lat="43.03465" lon="-2.91639">
        <ele>293.6</ele>
        <time>2021-05-29 18:32:03</time>
      </trkpt>
      <trkpt lat="43.0346" lon="-2.91636">
        <ele>294</ele>
        <time>2021-05-29 18:32:04</time>
      </trkpt>
      <trkpt lat="43.03455" lon="-2.91633">
        <ele>294.6</ele>
        <time>2021-05-29 18:32:05</time>
      </trkpt>
      <trkpt lat="43.0345" lon="-2.9163">
        <ele>295</ele>
        <time>2021-05-29 18:32:06</time>
      </trkpt>
      <trkpt lat="43.03446" lon="-2.91627">
        <ele>295.4</ele>
        <time>2021-05-29 18:32:07</time>
      </trkpt>
      <trkpt lat="43.03441" lon="-2.91624">
        <ele>295.6</ele>
        <time>2021-05-29 18:32:08</time>
      </trkpt>
      <trkpt lat="43.03436" lon="-2.91621">
        <ele>296</ele>
        <time>2021-05-29 18:32:09</time>
      </trkpt>
      <trkpt lat="43.03431" lon="-2.91618">
        <ele>296.8</ele>
        <time>2021-05-29 18:32:10</time>
      </trkpt>
      <trkpt lat="43.03426" lon="-2.91614">
        <ele>297.2</ele>
        <time>2021-05-29 18:32:11</time>
      </trkpt>
      <trkpt lat="43.03421" lon="-2.91611">
        <ele>297.4</ele>
        <time>2021-05-29 18:32:12</time>
      </trkpt>
      <trkpt lat="43.03416" lon="-2.91607">
        <ele>297.8</ele>
        <time>2021-05-29 18:32:13</time>
      </trkpt>
      <trkpt lat="43.03412" lon="-2.91603">
        <ele>298.2</ele>
        <time>2021-05-29 18:32:14</time>
      </trkpt>
      <trkpt lat="43.03407" lon="-2.91599">
        <ele>298.6</ele>
        <time>2021-05-29 18:32:15</time>
      </trkpt>
      <trkpt lat="43.03402" lon="-2.91595">
        <ele>299</ele>
        <time>2021-05-29 18:32:16</time>
      </trkpt>
      <trkpt lat="43.03397" lon="-2.91592">
        <ele>299.4</ele>
        <time>2021-05-29 18:32:17</time>
      </trkpt>
      <trkpt lat="43.03392" lon="-2.91588">
        <ele>299.8</ele>
        <time>2021-05-29 18:32:18</time>
      </trkpt>
      <trkpt lat="43.03387" lon="-2.91585">
        <ele>300.2</ele>
        <time>2021-05-29 18:32:19</time>
      </trkpt>
      <trkpt lat="43.03381" lon="-2.91583">
        <ele>300.6</ele>
        <time>2021-05-29 18:32:20</time>
      </trkpt>
      <trkpt lat="43.03375" lon="-2.91581">
        <ele>300.8</ele>
        <time>2021-05-29 18:32:21</time>
      </trkpt>
      <trkpt lat="43.0337" lon="-2.91581">
        <ele>301.2</ele>
        <time>2021-05-29 18:32:22</time>
      </trkpt>
      <trkpt lat="43.03363" lon="-2.91581">
        <ele>301.4</ele>
        <time>2021-05-29 18:32:23</time>
      </trkpt>
      <trkpt lat="43.03357" lon="-2.91581">
        <ele>301.8</ele>
        <time>2021-05-29 18:32:24</time>
      </trkpt>
      <trkpt lat="43.03351" lon="-2.9158">
        <ele>302</ele>
        <time>2021-05-29 18:32:25</time>
      </trkpt>
      <trkpt lat="43.03344" lon="-2.9158">
        <ele>302.2</ele>
        <time>2021-05-29 18:32:26</time>
      </trkpt>
      <trkpt lat="43.03338" lon="-2.91578">
        <ele>302.6</ele>
        <time>2021-05-29 18:32:27</time>
      </trkpt>
      <trkpt lat="43.03331" lon="-2.91576">
        <ele>303</ele>
        <time>2021-05-29 18:32:28</time>
      </trkpt>
      <trkpt lat="43.03325" lon="-2.91574">
        <ele>303.2</ele>
        <time>2021-05-29 18:32:29</time>
      </trkpt>
      <trkpt lat="43.03318" lon="-2.91571">
        <ele>303.6</ele>
        <time>2021-05-29 18:32:30</time>
      </trkpt>
      <trkpt lat="43.03311" lon="-2.91569">
        <ele>303.6</ele>
        <time>2021-05-29 18:32:31</time>
      </trkpt>
      <trkpt lat="43.03304" lon="-2.91566">
        <ele>303.8</ele>
        <time>2021-05-29 18:32:32</time>
      </trkpt>
      <trkpt lat="43.03297" lon="-2.91563">
        <ele>303.8</ele>
        <time>2021-05-29 18:32:33</time>
      </trkpt>
      <trkpt lat="43.0329" lon="-2.9156">
        <ele>303.8</ele>
        <time>2021-05-29 18:32:34</time>
      </trkpt>
      <trkpt lat="43.03282" lon="-2.91557">
        <ele>303.8</ele>
        <time>2021-05-29 18:32:35</time>
      </trkpt>
      <trkpt lat="43.03274" lon="-2.91554">
        <ele>303.8</ele>
        <time>2021-05-29 18:32:36</time>
      </trkpt>
      <trkpt lat="43.03266" lon="-2.91551">
        <ele>303.8</ele>
        <time>2021-05-29 18:32:37</time>
      </trkpt>
      <trkpt lat="43.03259" lon="-2.91548">
        <ele>303.8</ele>
        <time>2021-05-29 18:32:38</time>
      </trkpt>
      <trkpt lat="43.03251" lon="-2.91545">
        <ele>303.8</ele>
        <time>2021-05-29 18:32:39</time>
      </trkpt>
      <trkpt lat="43.03243" lon="-2.9154">
        <ele>303.8</ele>
        <time>2021-05-29 18:32:40</time>
      </trkpt>
      <trkpt lat="43.03236" lon="-2.91535">
        <ele>303.8</ele>
        <time>2021-05-29 18:32:41</time>
      </trkpt>
      <trkpt lat="43.03228" lon="-2.91528">
        <ele>303.6</ele>
        <time>2021-05-29 18:32:42</time>
      </trkpt>
      <trkpt lat="43.03221" lon="-2.91521">
        <ele>303.6</ele>
        <time>2021-05-29 18:32:43</time>
      </trkpt>
      <trkpt lat="43.03213" lon="-2.91514">
        <ele>303.4</ele>
        <time>2021-05-29 18:32:44</time>
      </trkpt>
      <trkpt lat="43.03205" lon="-2.91507">
        <ele>303.2</ele>
        <time>2021-05-29 18:32:45</time>
      </trkpt>
      <trkpt lat="43.03197" lon="-2.915">
        <ele>303</ele>
        <time>2021-05-29 18:32:46</time>
      </trkpt>
      <trkpt lat="43.03188" lon="-2.91494">
        <ele>302.8</ele>
        <time>2021-05-29 18:32:47</time>
      </trkpt>
      <trkpt lat="43.0318" lon="-2.91488">
        <ele>302.8</ele>
        <time>2021-05-29 18:32:48</time>
      </trkpt>
      <trkpt lat="43.03171" lon="-2.91482">
        <ele>302.4</ele>
        <time>2021-05-29 18:32:49</time>
      </trkpt>
      <trkpt lat="43.03162" lon="-2.91478">
        <ele>302.2</ele>
        <time>2021-05-29 18:32:50</time>
      </trkpt>
      <trkpt lat="43.03152" lon="-2.91476">
        <ele>302</ele>
        <time>2021-05-29 18:32:51</time>
      </trkpt>
      <trkpt lat="43.03142" lon="-2.91474">
        <ele>301.6</ele>
        <time>2021-05-29 18:32:52</time>
      </trkpt>
      <trkpt lat="43.03133" lon="-2.91472">
        <ele>301.4</ele>
        <time>2021-05-29 18:32:53</time>
      </trkpt>
      <trkpt lat="43.03124" lon="-2.91469">
        <ele>301.2</ele>
        <time>2021-05-29 18:32:54</time>
      </trkpt>
      <trkpt lat="43.03115" lon="-2.91466">
        <ele>300.8</ele>
        <time>2021-05-29 18:32:55</time>
      </trkpt>
      <trkpt lat="43.03106" lon="-2.91462">
        <ele>300.6</ele>
        <time>2021-05-29 18:32:56</time>
      </trkpt>
      <trkpt lat="43.03097" lon="-2.91458">
        <ele>300.6</ele>
        <time>2021-05-29 18:32:57</time>
      </trkpt>
      <trkpt lat="43.03088" lon="-2.91454">
        <ele>300.6</ele>
        <time>2021-05-29 18:32:58</time>
      </trkpt>
      <trkpt lat="43.03079" lon="-2.91449">
        <ele>300.6</ele>
        <time>2021-05-29 18:32:59</time>
      </trkpt>
      <trkpt lat="43.03071" lon="-2.91446">
        <ele>300.6</ele>
        <time>2021-05-29 18:33:00</time>
      </trkpt>
      <trkpt lat="43.03062" lon="-2.91442">
        <ele>300.6</ele>
        <time>2021-05-29 18:33:01</time>
      </trkpt>
      <trkpt lat="43.03054" lon="-2.91439">
        <ele>300.6</ele>
        <time>2021-05-29 18:33:02</time>
      </trkpt>
      <trkpt lat="43.03045" lon="-2.91436">
        <ele>300.6</ele>
        <time>2021-05-29 18:33:03</time>
      </trkpt>
      <trkpt lat="43.03037" lon="-2.91433">
        <ele>300.6</ele>
        <time>2021-05-29 18:33:04</time>
      </trkpt>
      <trkpt lat="43.03028" lon="-2.91431">
        <ele>300.6</ele>
        <time>2021-05-29 18:33:05</time>
      </trkpt>
      <trkpt lat="43.0302" lon="-2.9143">
        <ele>300.6</ele>
        <time>2021-05-29 18:33:06</time>
      </trkpt>
      <trkpt lat="43.03011" lon="-2.9143">
        <ele>300.8</ele>
        <time>2021-05-29 18:33:07</time>
      </trkpt>
      <trkpt lat="43.03002" lon="-2.91429">
        <ele>300.8</ele>
        <time>2021-05-29 18:33:08</time>
      </trkpt>
      <trkpt lat="43.02994" lon="-2.91429">
        <ele>301</ele>
        <time>2021-05-29 18:33:09</time>
      </trkpt>
      <trkpt lat="43.02986" lon="-2.91429">
        <ele>301.2</ele>
        <time>2021-05-29 18:33:10</time>
      </trkpt>
      <trkpt lat="43.02977" lon="-2.91429">
        <ele>301.4</ele>
        <time>2021-05-29 18:33:11</time>
      </trkpt>
      <trkpt lat="43.02969" lon="-2.91429">
        <ele>301.6</ele>
        <time>2021-05-29 18:33:12</time>
      </trkpt>
      <trkpt lat="43.02961" lon="-2.91429">
        <ele>301.6</ele>
        <time>2021-05-29 18:33:13</time>
      </trkpt>
      <trkpt lat="43.02953" lon="-2.9143">
        <ele>301.8</ele>
        <time>2021-05-29 18:33:14</time>
      </trkpt>
      <trkpt lat="43.02945" lon="-2.9143">
        <ele>302</ele>
        <time>2021-05-29 18:33:15</time>
      </trkpt>
      <trkpt lat="43.02937" lon="-2.91431">
        <ele>302.2</ele>
        <time>2021-05-29 18:33:16</time>
      </trkpt>
      <trkpt lat="43.02929" lon="-2.91431">
        <ele>302.4</ele>
        <time>2021-05-29 18:33:17</time>
      </trkpt>
      <trkpt lat="43.02921" lon="-2.91432">
        <ele>302.8</ele>
        <time>2021-05-29 18:33:18</time>
      </trkpt>
      <trkpt lat="43.02913" lon="-2.91432">
        <ele>303.2</ele>
        <time>2021-05-29 18:33:19</time>
      </trkpt>
      <trkpt lat="43.02906" lon="-2.91432">
        <ele>303.4</ele>
        <time>2021-05-29 18:33:20</time>
      </trkpt>
      <trkpt lat="43.02898" lon="-2.91432">
        <ele>303.4</ele>
        <time>2021-05-29 18:33:21</time>
      </trkpt>
      <trkpt lat="43.0289" lon="-2.91432">
        <ele>303.6</ele>
        <time>2021-05-29 18:33:22</time>
      </trkpt>
      <trkpt lat="43.02882" lon="-2.91433">
        <ele>303.8</ele>
        <time>2021-05-29 18:33:23</time>
      </trkpt>
      <trkpt lat="43.02874" lon="-2.91433">
        <ele>304</ele>
        <time>2021-05-29 18:33:24</time>
      </trkpt>
      <trkpt lat="43.02866" lon="-2.91434">
        <ele>304.4</ele>
        <time>2021-05-29 18:33:25</time>
      </trkpt>
      <trkpt lat="43.02858" lon="-2.91434">
        <ele>304.6</ele>
        <time>2021-05-29 18:33:26</time>
      </trkpt>
      <trkpt lat="43.0285" lon="-2.91434">
        <ele>304.8</ele>
        <time>2021-05-29 18:33:27</time>
      </trkpt>
      <trkpt lat="43.02842" lon="-2.91435">
        <ele>305</ele>
        <time>2021-05-29 18:33:28</time>
      </trkpt>
      <trkpt lat="43.02834" lon="-2.91435">
        <ele>305</ele>
        <time>2021-05-29 18:33:29</time>
      </trkpt>
      <trkpt lat="43.02826" lon="-2.91435">
        <ele>305.2</ele>
        <time>2021-05-29 18:33:30</time>
      </trkpt>
      <trkpt lat="43.02818" lon="-2.91436">
        <ele>305.2</ele>
        <time>2021-05-29 18:33:31</time>
      </trkpt>
      <trkpt lat="43.02811" lon="-2.91436">
        <ele>305.4</ele>
        <time>2021-05-29 18:33:32</time>
      </trkpt>
      <trkpt lat="43.02803" lon="-2.91436">
        <ele>305.4</ele>
        <time>2021-05-29 18:33:33</time>
      </trkpt>
      <trkpt lat="43.02796" lon="-2.91437">
        <ele>305.4</ele>
        <time>2021-05-29 18:33:34</time>
      </trkpt>
      <trkpt lat="43.02789" lon="-2.91437">
        <ele>305.4</ele>
        <time>2021-05-29 18:33:35</time>
      </trkpt>
      <trkpt lat="43.02781" lon="-2.91437">
        <ele>305.4</ele>
        <time>2021-05-29 18:33:36</time>
      </trkpt>
      <trkpt lat="43.02774" lon="-2.91438">
        <ele>305.6</ele>
        <time>2021-05-29 18:33:37</time>
      </trkpt>
      <trkpt lat="43.02767" lon="-2.91439">
        <ele>305.6</ele>
        <time>2021-05-29 18:33:38</time>
      </trkpt>
      <trkpt lat="43.02761" lon="-2.91439">
        <ele>305.6</ele>
        <time>2021-05-29 18:33:39</time>
      </trkpt>
      <trkpt lat="43.02754" lon="-2.9144">
        <ele>305.8</ele>
        <time>2021-05-29 18:33:40</time>
      </trkpt>
      <trkpt lat="43.02747" lon="-2.91441">
        <ele>306</ele>
        <time>2021-05-29 18:33:41</time>
      </trkpt>
      <trkpt lat="43.0274" lon="-2.91443">
        <ele>306.2</ele>
        <time>2021-05-29 18:33:42</time>
      </trkpt>
      <trkpt lat="43.02734" lon="-2.91445">
        <ele>306.4</ele>
        <time>2021-05-29 18:33:43</time>
      </trkpt>
      <trkpt lat="43.02727" lon="-2.91447">
        <ele>306.6</ele>
        <time>2021-05-29 18:33:44</time>
      </trkpt>
      <trkpt lat="43.02721" lon="-2.91451">
        <ele>306.6</ele>
        <time>2021-05-29 18:33:45</time>
      </trkpt>
      <trkpt lat="43.02714" lon="-2.91455">
        <ele>306.8</ele>
        <time>2021-05-29 18:33:46</time>
      </trkpt>
      <trkpt lat="43.02708" lon="-2.91459">
        <ele>307</ele>
        <time>2021-05-29 18:33:47</time>
      </trkpt>
      <trkpt lat="43.02702" lon="-2.91464">
        <ele>307.2</ele>
        <time>2021-05-29 18:33:48</time>
      </trkpt>
      <trkpt lat="43.02696" lon="-2.91469">
        <ele>307.4</ele>
        <time>2021-05-29 18:33:49</time>
      </trkpt>
      <trkpt lat="43.02689" lon="-2.91474">
        <ele>307.8</ele>
        <time>2021-05-29 18:33:50</time>
      </trkpt>
      <trkpt lat="43.02683" lon="-2.9148">
        <ele>308</ele>
        <time>2021-05-29 18:33:51</time>
      </trkpt>
      <trkpt lat="43.02677" lon="-2.91487">
        <ele>308.2</ele>
        <time>2021-05-29 18:33:52</time>
      </trkpt>
      <trkpt lat="43.02672" lon="-2.91493">
        <ele>308.4</ele>
        <time>2021-05-29 18:33:53</time>
      </trkpt>
      <trkpt lat="43.02666" lon="-2.915">
        <ele>308.4</ele>
        <time>2021-05-29 18:33:54</time>
      </trkpt>
      <trkpt lat="43.0266" lon="-2.91507">
        <ele>308.4</ele>
        <time>2021-05-29 18:33:55</time>
      </trkpt>
      <trkpt lat="43.02655" lon="-2.91514">
        <ele>308.4</ele>
        <time>2021-05-29 18:33:56</time>
      </trkpt>
      <trkpt lat="43.02649" lon="-2.91521">
        <ele>308.4</ele>
        <time>2021-05-29 18:33:57</time>
      </trkpt>
      <trkpt lat="43.02644" lon="-2.91528">
        <ele>308.6</ele>
        <time>2021-05-29 18:33:58</time>
      </trkpt>
      <trkpt lat="43.02638" lon="-2.91535">
        <ele>308.6</ele>
        <time>2021-05-29 18:33:59</time>
      </trkpt>
      <trkpt lat="43.02633" lon="-2.91542">
        <ele>308.6</ele>
        <time>2021-05-29 18:34:00</time>
      </trkpt>
      <trkpt lat="43.02627" lon="-2.91549">
        <ele>308.6</ele>
        <time>2021-05-29 18:34:01</time>
      </trkpt>
      <trkpt lat="43.02621" lon="-2.91555">
        <ele>308.6</ele>
        <time>2021-05-29 18:34:02</time>
      </trkpt>
      <trkpt lat="43.02614" lon="-2.91561">
        <ele>308.4</ele>
        <time>2021-05-29 18:34:03</time>
      </trkpt>
      <trkpt lat="43.02607" lon="-2.91567">
        <ele>308.8</ele>
        <time>2021-05-29 18:34:04</time>
      </trkpt>
      <trkpt lat="43.026" lon="-2.91572">
        <ele>308.8</ele>
        <time>2021-05-29 18:34:05</time>
      </trkpt>
      <trkpt lat="43.02593" lon="-2.91576">
        <ele>308.8</ele>
        <time>2021-05-29 18:34:06</time>
      </trkpt>
      <trkpt lat="43.02586" lon="-2.91581">
        <ele>308.8</ele>
        <time>2021-05-29 18:34:07</time>
      </trkpt>
      <trkpt lat="43.02579" lon="-2.91584">
        <ele>308.6</ele>
        <time>2021-05-29 18:34:08</time>
      </trkpt>
      <trkpt lat="43.02572" lon="-2.91588">
        <ele>308.8</ele>
        <time>2021-05-29 18:34:09</time>
      </trkpt>
      <trkpt lat="43.02565" lon="-2.91591">
        <ele>308.8</ele>
        <time>2021-05-29 18:34:10</time>
      </trkpt>
      <trkpt lat="43.02558" lon="-2.91593">
        <ele>308.8</ele>
        <time>2021-05-29 18:34:11</time>
      </trkpt>
      <trkpt lat="43.0255" lon="-2.91594">
        <ele>308.8</ele>
        <time>2021-05-29 18:34:12</time>
      </trkpt>
      <trkpt lat="43.02543" lon="-2.91594">
        <ele>309</ele>
        <time>2021-05-29 18:34:13</time>
      </trkpt>
      <trkpt lat="43.02535" lon="-2.91594">
        <ele>309</ele>
        <time>2021-05-29 18:34:14</time>
      </trkpt>
      <trkpt lat="43.02527" lon="-2.91593">
        <ele>309</ele>
        <time>2021-05-29 18:34:15</time>
      </trkpt>
      <trkpt lat="43.02519" lon="-2.91592">
        <ele>309</ele>
        <time>2021-05-29 18:34:16</time>
      </trkpt>
      <trkpt lat="43.02511" lon="-2.9159">
        <ele>309</ele>
        <time>2021-05-29 18:34:17</time>
      </trkpt>
      <trkpt lat="43.02504" lon="-2.91587">
        <ele>309.2</ele>
        <time>2021-05-29 18:34:18</time>
      </trkpt>
      <trkpt lat="43.02496" lon="-2.91583">
        <ele>309.2</ele>
        <time>2021-05-29 18:34:19</time>
      </trkpt>
      <trkpt lat="43.02488" lon="-2.9158">
        <ele>309.2</ele>
        <time>2021-05-29 18:34:20</time>
      </trkpt>
      <trkpt lat="43.02481" lon="-2.91576">
        <ele>309.2</ele>
        <time>2021-05-29 18:34:21</time>
      </trkpt>
      <trkpt lat="43.02473" lon="-2.91572">
        <ele>309.2</ele>
        <time>2021-05-29 18:34:22</time>
      </trkpt>
      <trkpt lat="43.02466" lon="-2.91568">
        <ele>309.2</ele>
        <time>2021-05-29 18:34:23</time>
      </trkpt>
      <trkpt lat="43.02458" lon="-2.91565">
        <ele>309.2</ele>
        <time>2021-05-29 18:34:24</time>
      </trkpt>
      <trkpt lat="43.0245" lon="-2.91562">
        <ele>309.2</ele>
        <time>2021-05-29 18:34:25</time>
      </trkpt>
      <trkpt lat="43.02442" lon="-2.91558">
        <ele>309.4</ele>
        <time>2021-05-29 18:34:26</time>
      </trkpt>
      <trkpt lat="43.02434" lon="-2.91554">
        <ele>309.4</ele>
        <time>2021-05-29 18:34:27</time>
      </trkpt>
      <trkpt lat="43.02425" lon="-2.9155">
        <ele>309.4</ele>
        <time>2021-05-29 18:34:28</time>
      </trkpt>
      <trkpt lat="43.02418" lon="-2.91546">
        <ele>309.4</ele>
        <time>2021-05-29 18:34:29</time>
      </trkpt>
      <trkpt lat="43.0241" lon="-2.91542">
        <ele>309.4</ele>
        <time>2021-05-29 18:34:30</time>
      </trkpt>
      <trkpt lat="43.02402" lon="-2.91539">
        <ele>309.4</ele>
        <time>2021-05-29 18:34:31</time>
      </trkpt>
      <trkpt lat="43.02395" lon="-2.91537">
        <ele>309.4</ele>
        <time>2021-05-29 18:34:32</time>
      </trkpt>
      <trkpt lat="43.02388" lon="-2.91534">
        <ele>309.4</ele>
        <time>2021-05-29 18:34:33</time>
      </trkpt>
      <trkpt lat="43.02381" lon="-2.91532">
        <ele>309.6</ele>
        <time>2021-05-29 18:34:34</time>
      </trkpt>
      <trkpt lat="43.02375" lon="-2.9153">
        <ele>309.6</ele>
        <time>2021-05-29 18:34:35</time>
      </trkpt>
      <trkpt lat="43.02368" lon="-2.91528">
        <ele>309.6</ele>
        <time>2021-05-29 18:34:36</time>
      </trkpt>
      <trkpt lat="43.02361" lon="-2.91526">
        <ele>309.6</ele>
        <time>2021-05-29 18:34:37</time>
      </trkpt>
      <trkpt lat="43.02354" lon="-2.91524">
        <ele>309.8</ele>
        <time>2021-05-29 18:34:38</time>
      </trkpt>
      <trkpt lat="43.02348" lon="-2.91522">
        <ele>310</ele>
        <time>2021-05-29 18:34:39</time>
      </trkpt>
      <trkpt lat="43.02341" lon="-2.9152">
        <ele>310.2</ele>
        <time>2021-05-29 18:34:40</time>
      </trkpt>
      <trkpt lat="43.02334" lon="-2.91519">
        <ele>310.8</ele>
        <time>2021-05-29 18:34:41</time>
      </trkpt>
      <trkpt lat="43.02327" lon="-2.91517">
        <ele>311.2</ele>
        <time>2021-05-29 18:34:42</time>
      </trkpt>
      <trkpt lat="43.02321" lon="-2.91515">
        <ele>311.6</ele>
        <time>2021-05-29 18:34:43</time>
      </trkpt>
      <trkpt lat="43.02314" lon="-2.91513">
        <ele>312</ele>
        <time>2021-05-29 18:34:44</time>
      </trkpt>
      <trkpt lat="43.02307" lon="-2.91511">
        <ele>312.4</ele>
        <time>2021-05-29 18:34:45</time>
      </trkpt>
      <trkpt lat="43.02301" lon="-2.91509">
        <ele>312.8</ele>
        <time>2021-05-29 18:34:46</time>
      </trkpt>
      <trkpt lat="43.02294" lon="-2.91507">
        <ele>313</ele>
        <time>2021-05-29 18:34:47</time>
      </trkpt>
      <trkpt lat="43.02287" lon="-2.91505">
        <ele>313.2</ele>
        <time>2021-05-29 18:34:48</time>
      </trkpt>
      <trkpt lat="43.0228" lon="-2.91504">
        <ele>313.4</ele>
        <time>2021-05-29 18:34:49</time>
      </trkpt>
      <trkpt lat="43.02272" lon="-2.91503">
        <ele>313.8</ele>
        <time>2021-05-29 18:34:50</time>
      </trkpt>
      <trkpt lat="43.02265" lon="-2.91502">
        <ele>314</ele>
        <time>2021-05-29 18:34:51</time>
      </trkpt>
      <trkpt lat="43.02257" lon="-2.91502">
        <ele>314.2</ele>
        <time>2021-05-29 18:34:52</time>
      </trkpt>
      <trkpt lat="43.0225" lon="-2.91502">
        <ele>314.4</ele>
        <time>2021-05-29 18:34:53</time>
      </trkpt>
      <trkpt lat="43.02242" lon="-2.91503">
        <ele>314.4</ele>
        <time>2021-05-29 18:34:54</time>
      </trkpt>
      <trkpt lat="43.02235" lon="-2.91504">
        <ele>314.6</ele>
        <time>2021-05-29 18:34:55</time>
      </trkpt>
      <trkpt lat="43.02227" lon="-2.91505">
        <ele>314.6</ele>
        <time>2021-05-29 18:34:56</time>
      </trkpt>
      <trkpt lat="43.0222" lon="-2.91507">
        <ele>314.6</ele>
        <time>2021-05-29 18:34:57</time>
      </trkpt>
      <trkpt lat="43.02212" lon="-2.91508">
        <ele>314.6</ele>
        <time>2021-05-29 18:34:58</time>
      </trkpt>
      <trkpt lat="43.02204" lon="-2.91508">
        <ele>314.6</ele>
        <time>2021-05-29 18:34:59</time>
      </trkpt>
      <trkpt lat="43.02196" lon="-2.91509">
        <ele>314.6</ele>
        <time>2021-05-29 18:35:00</time>
      </trkpt>
      <trkpt lat="43.02189" lon="-2.91511">
        <ele>314.6</ele>
        <time>2021-05-29 18:35:01</time>
      </trkpt>
      <trkpt lat="43.02182" lon="-2.91512">
        <ele>314.6</ele>
        <time>2021-05-29 18:35:02</time>
      </trkpt>
      <trkpt lat="43.02175" lon="-2.91513">
        <ele>314.8</ele>
        <time>2021-05-29 18:35:03</time>
      </trkpt>
      <trkpt lat="43.02168" lon="-2.91514">
        <ele>314.8</ele>
        <time>2021-05-29 18:35:04</time>
      </trkpt>
      <trkpt lat="43.02161" lon="-2.91515">
        <ele>314.8</ele>
        <time>2021-05-29 18:35:05</time>
      </trkpt>
      <trkpt lat="43.02155" lon="-2.91515">
        <ele>314.8</ele>
        <time>2021-05-29 18:35:06</time>
      </trkpt>
      <trkpt lat="43.02148" lon="-2.91515">
        <ele>314.8</ele>
        <time>2021-05-29 18:35:07</time>
      </trkpt>
      <trkpt lat="43.02142" lon="-2.91515">
        <ele>314.8</ele>
        <time>2021-05-29 18:35:08</time>
      </trkpt>
      <trkpt lat="43.02135" lon="-2.91515">
        <ele>314.8</ele>
        <time>2021-05-29 18:35:09</time>
      </trkpt>
      <trkpt lat="43.02129" lon="-2.91514">
        <ele>315.2</ele>
        <time>2021-05-29 18:35:10</time>
      </trkpt>
      <trkpt lat="43.02122" lon="-2.91512">
        <ele>315.4</ele>
        <time>2021-05-29 18:35:11</time>
      </trkpt>
      <trkpt lat="43.02116" lon="-2.9151">
        <ele>315.8</ele>
        <time>2021-05-29 18:35:12</time>
      </trkpt>
      <trkpt lat="43.02109" lon="-2.91508">
        <ele>316.2</ele>
        <time>2021-05-29 18:35:13</time>
      </trkpt>
      <trkpt lat="43.02103" lon="-2.91506">
        <ele>316.4</ele>
        <time>2021-05-29 18:35:14</time>
      </trkpt>
      <trkpt lat="43.02096" lon="-2.91503">
        <ele>316.8</ele>
        <time>2021-05-29 18:35:15</time>
      </trkpt>
      <trkpt lat="43.0209" lon="-2.915">
        <ele>317.2</ele>
        <time>2021-05-29 18:35:16</time>
      </trkpt>
      <trkpt lat="43.02083" lon="-2.91497">
        <ele>317.6</ele>
        <time>2021-05-29 18:35:17</time>
      </trkpt>
      <trkpt lat="43.02077" lon="-2.91493">
        <ele>317.8</ele>
        <time>2021-05-29 18:35:18</time>
      </trkpt>
      <trkpt lat="43.02071" lon="-2.91489">
        <ele>318</ele>
        <time>2021-05-29 18:35:19</time>
      </trkpt>
      <trkpt lat="43.02064" lon="-2.91485">
        <ele>318.2</ele>
        <time>2021-05-29 18:35:20</time>
      </trkpt>
      <trkpt lat="43.02058" lon="-2.91481">
        <ele>318.4</ele>
        <time>2021-05-29 18:35:21</time>
      </trkpt>
      <trkpt lat="43.02051" lon="-2.91477">
        <ele>318.6</ele>
        <time>2021-05-29 18:35:22</time>
      </trkpt>
      <trkpt lat="43.02045" lon="-2.91473">
        <ele>319</ele>
        <time>2021-05-29 18:35:23</time>
      </trkpt>
      <trkpt lat="43.02038" lon="-2.91469">
        <ele>319.2</ele>
        <time>2021-05-29 18:35:24</time>
      </trkpt>
      <trkpt lat="43.02031" lon="-2.91464">
        <ele>319.2</ele>
        <time>2021-05-29 18:35:25</time>
      </trkpt>
      <trkpt lat="43.02025" lon="-2.9146">
        <ele>319.4</ele>
        <time>2021-05-29 18:35:26</time>
      </trkpt>
      <trkpt lat="43.02018" lon="-2.91456">
        <ele>319.4</ele>
        <time>2021-05-29 18:35:27</time>
      </trkpt>
      <trkpt lat="43.02011" lon="-2.91451">
        <ele>319.6</ele>
        <time>2021-05-29 18:35:28</time>
      </trkpt>
      <trkpt lat="43.02005" lon="-2.91447">
        <ele>319.4</ele>
        <time>2021-05-29 18:35:29</time>
      </trkpt>
      <trkpt lat="43.01998" lon="-2.91443">
        <ele>319.6</ele>
        <time>2021-05-29 18:35:30</time>
      </trkpt>
      <trkpt lat="43.01991" lon="-2.91439">
        <ele>319.6</ele>
        <time>2021-05-29 18:35:31</time>
      </trkpt>
      <trkpt lat="43.01984" lon="-2.91435">
        <ele>319.6</ele>
        <time>2021-05-29 18:35:32</time>
      </trkpt>
      <trkpt lat="43.01977" lon="-2.9143">
        <ele>319.8</ele>
        <time>2021-05-29 18:35:33</time>
      </trkpt>
      <trkpt lat="43.01971" lon="-2.91426">
        <ele>319.8</ele>
        <time>2021-05-29 18:35:34</time>
      </trkpt>
      <trkpt lat="43.01964" lon="-2.91422">
        <ele>319.8</ele>
        <time>2021-05-29 18:35:35</time>
      </trkpt>
      <trkpt lat="43.01958" lon="-2.91417">
        <ele>319.8</ele>
        <time>2021-05-29 18:35:36</time>
      </trkpt>
      <trkpt lat="43.01951" lon="-2.91413">
        <ele>320</ele>
        <time>2021-05-29 18:35:37</time>
      </trkpt>
      <trkpt lat="43.01945" lon="-2.91409">
        <ele>320</ele>
        <time>2021-05-29 18:35:38</time>
      </trkpt>
      <trkpt lat="43.01938" lon="-2.91405">
        <ele>320.2</ele>
        <time>2021-05-29 18:35:39</time>
      </trkpt>
      <trkpt lat="43.01931" lon="-2.91401">
        <ele>320.4</ele>
        <time>2021-05-29 18:35:40</time>
      </trkpt>
      <trkpt lat="43.01925" lon="-2.91397">
        <ele>320.4</ele>
        <time>2021-05-29 18:35:41</time>
      </trkpt>
      <trkpt lat="43.01918" lon="-2.91393">
        <ele>320.6</ele>
        <time>2021-05-29 18:35:42</time>
      </trkpt>
      <trkpt lat="43.01912" lon="-2.91388">
        <ele>320.6</ele>
        <time>2021-05-29 18:35:43</time>
      </trkpt>
      <trkpt lat="43.01905" lon="-2.91384">
        <ele>320.8</ele>
        <time>2021-05-29 18:35:44</time>
      </trkpt>
      <trkpt lat="43.01899" lon="-2.9138">
        <ele>320.8</ele>
        <time>2021-05-29 18:35:45</time>
      </trkpt>
      <trkpt lat="43.01892" lon="-2.91375">
        <ele>321</ele>
        <time>2021-05-29 18:35:46</time>
      </trkpt>
      <trkpt lat="43.01886" lon="-2.91371">
        <ele>321.2</ele>
        <time>2021-05-29 18:35:47</time>
      </trkpt>
      <trkpt lat="43.01879" lon="-2.91367">
        <ele>321.4</ele>
        <time>2021-05-29 18:35:48</time>
      </trkpt>
      <trkpt lat="43.01873" lon="-2.91362">
        <ele>321.2</ele>
        <time>2021-05-29 18:35:49</time>
      </trkpt>
      <trkpt lat="43.01867" lon="-2.91358">
        <ele>321.4</ele>
        <time>2021-05-29 18:35:50</time>
      </trkpt>
      <trkpt lat="43.0186" lon="-2.91353">
        <ele>321.6</ele>
        <time>2021-05-29 18:35:51</time>
      </trkpt>
      <trkpt lat="43.01854" lon="-2.91349">
        <ele>321.6</ele>
        <time>2021-05-29 18:35:52</time>
      </trkpt>
      <trkpt lat="43.01848" lon="-2.91343">
        <ele>321.8</ele>
        <time>2021-05-29 18:35:53</time>
      </trkpt>
      <trkpt lat="43.01842" lon="-2.91338">
        <ele>321.8</ele>
        <time>2021-05-29 18:35:54</time>
      </trkpt>
      <trkpt lat="43.01836" lon="-2.91333">
        <ele>322</ele>
        <time>2021-05-29 18:35:55</time>
      </trkpt>
      <trkpt lat="43.0183" lon="-2.91327">
        <ele>322</ele>
        <time>2021-05-29 18:35:56</time>
      </trkpt>
      <trkpt lat="43.01825" lon="-2.9132">
        <ele>322.2</ele>
        <time>2021-05-29 18:35:57</time>
      </trkpt>
      <trkpt lat="43.0182" lon="-2.91314">
        <ele>322.4</ele>
        <time>2021-05-29 18:35:58</time>
      </trkpt>
      <trkpt lat="43.01815" lon="-2.91307">
        <ele>322.6</ele>
        <time>2021-05-29 18:35:59</time>
      </trkpt>
      <trkpt lat="43.0181" lon="-2.91301">
        <ele>322.8</ele>
        <time>2021-05-29 18:36:00</time>
      </trkpt>
      <trkpt lat="43.01805" lon="-2.91294">
        <ele>323</ele>
        <time>2021-05-29 18:36:01</time>
      </trkpt>
      <trkpt lat="43.018" lon="-2.91287">
        <ele>323</ele>
        <time>2021-05-29 18:36:02</time>
      </trkpt>
      <trkpt lat="43.01796" lon="-2.9128">
        <ele>323</ele>
        <time>2021-05-29 18:36:03</time>
      </trkpt>
      <trkpt lat="43.01791" lon="-2.91274">
        <ele>323</ele>
        <time>2021-05-29 18:36:04</time>
      </trkpt>
      <trkpt lat="43.01787" lon="-2.91267">
        <ele>323.2</ele>
        <time>2021-05-29 18:36:05</time>
      </trkpt>
      <trkpt lat="43.01782" lon="-2.9126">
        <ele>323.4</ele>
        <time>2021-05-29 18:36:06</time>
      </trkpt>
      <trkpt lat="43.01778" lon="-2.91253">
        <ele>323.4</ele>
        <time>2021-05-29 18:36:07</time>
      </trkpt>
      <trkpt lat="43.01774" lon="-2.91247">
        <ele>323.8</ele>
        <time>2021-05-29 18:36:08</time>
      </trkpt>
      <trkpt lat="43.01769" lon="-2.91241">
        <ele>324.4</ele>
        <time>2021-05-29 18:36:09</time>
      </trkpt>
      <trkpt lat="43.01765" lon="-2.91234">
        <ele>325</ele>
        <time>2021-05-29 18:36:10</time>
      </trkpt>
      <trkpt lat="43.0176" lon="-2.91227">
        <ele>325.4</ele>
        <time>2021-05-29 18:36:11</time>
      </trkpt>
      <trkpt lat="43.01756" lon="-2.91221">
        <ele>325.8</ele>
        <time>2021-05-29 18:36:12</time>
      </trkpt>
      <trkpt lat="43.01751" lon="-2.91214">
        <ele>326</ele>
        <time>2021-05-29 18:36:13</time>
      </trkpt>
      <trkpt lat="43.01746" lon="-2.91208">
        <ele>326.2</ele>
        <time>2021-05-29 18:36:14</time>
      </trkpt>
      <trkpt lat="43.01741" lon="-2.91201">
        <ele>326.4</ele>
        <time>2021-05-29 18:36:15</time>
      </trkpt>
      <trkpt lat="43.01736" lon="-2.91194">
        <ele>326.6</ele>
        <time>2021-05-29 18:36:16</time>
      </trkpt>
      <trkpt lat="43.01731" lon="-2.91188">
        <ele>326.8</ele>
        <time>2021-05-29 18:36:17</time>
      </trkpt>
      <trkpt lat="43.01726" lon="-2.91181">
        <ele>327</ele>
        <time>2021-05-29 18:36:18</time>
      </trkpt>
      <trkpt lat="43.01721" lon="-2.91175">
        <ele>327.2</ele>
        <time>2021-05-29 18:36:19</time>
      </trkpt>
      <trkpt lat="43.01715" lon="-2.91168">
        <ele>327.4</ele>
        <time>2021-05-29 18:36:20</time>
      </trkpt>
      <trkpt lat="43.0171" lon="-2.91162">
        <ele>327.6</ele>
        <time>2021-05-29 18:36:21</time>
      </trkpt>
      <trkpt lat="43.01704" lon="-2.91156">
        <ele>327.6</ele>
        <time>2021-05-29 18:36:22</time>
      </trkpt>
      <trkpt lat="43.01698" lon="-2.9115">
        <ele>327.8</ele>
        <time>2021-05-29 18:36:23</time>
      </trkpt>
      <trkpt lat="43.01692" lon="-2.91143">
        <ele>328</ele>
        <time>2021-05-29 18:36:24</time>
      </trkpt>
      <trkpt lat="43.01686" lon="-2.91137">
        <ele>328</ele>
        <time>2021-05-29 18:36:25</time>
      </trkpt>
      <trkpt lat="43.01679" lon="-2.9113">
        <ele>328</ele>
        <time>2021-05-29 18:36:26</time>
      </trkpt>
      <trkpt lat="43.01672" lon="-2.91124">
        <ele>328</ele>
        <time>2021-05-29 18:36:27</time>
      </trkpt>
      <trkpt lat="43.01666" lon="-2.91118">
        <ele>328</ele>
        <time>2021-05-29 18:36:28</time>
      </trkpt>
      <trkpt lat="43.01659" lon="-2.91111">
        <ele>328.2</ele>
        <time>2021-05-29 18:36:29</time>
      </trkpt>
      <trkpt lat="43.01652" lon="-2.91105">
        <ele>328.2</ele>
        <time>2021-05-29 18:36:30</time>
      </trkpt>
      <trkpt lat="43.01646" lon="-2.91099">
        <ele>328.2</ele>
        <time>2021-05-29 18:36:31</time>
      </trkpt>
      <trkpt lat="43.01639" lon="-2.91092">
        <ele>328.2</ele>
        <time>2021-05-29 18:36:32</time>
      </trkpt>
      <trkpt lat="43.01633" lon="-2.91086">
        <ele>328.2</ele>
        <time>2021-05-29 18:36:33</time>
      </trkpt>
      <trkpt lat="43.01626" lon="-2.9108">
        <ele>328.2</ele>
        <time>2021-05-29 18:36:34</time>
      </trkpt>
      <trkpt lat="43.01619" lon="-2.91074">
        <ele>328.2</ele>
        <time>2021-05-29 18:36:35</time>
      </trkpt>
      <trkpt lat="43.01612" lon="-2.91067">
        <ele>328.2</ele>
        <time>2021-05-29 18:36:36</time>
      </trkpt>
      <trkpt lat="43.01606" lon="-2.91061">
        <ele>328.2</ele>
        <time>2021-05-29 18:36:37</time>
      </trkpt>
      <trkpt lat="43.01599" lon="-2.91055">
        <ele>328</ele>
        <time>2021-05-29 18:36:38</time>
      </trkpt>
      <trkpt lat="43.01593" lon="-2.91048">
        <ele>328</ele>
        <time>2021-05-29 18:36:39</time>
      </trkpt>
      <trkpt lat="43.01587" lon="-2.91041">
        <ele>328</ele>
        <time>2021-05-29 18:36:40</time>
      </trkpt>
      <trkpt lat="43.0158" lon="-2.91034">
        <ele>328</ele>
        <time>2021-05-29 18:36:41</time>
      </trkpt>
      <trkpt lat="43.01574" lon="-2.91028">
        <ele>328</ele>
        <time>2021-05-29 18:36:42</time>
      </trkpt>
      <trkpt lat="43.01568" lon="-2.91021">
        <ele>328</ele>
        <time>2021-05-29 18:36:43</time>
      </trkpt>
      <trkpt lat="43.01562" lon="-2.91013">
        <ele>328</ele>
        <time>2021-05-29 18:36:44</time>
      </trkpt>
      <trkpt lat="43.01557" lon="-2.91005">
        <ele>328</ele>
        <time>2021-05-29 18:36:45</time>
      </trkpt>
      <trkpt lat="43.01551" lon="-2.90998">
        <ele>328</ele>
        <time>2021-05-29 18:36:46</time>
      </trkpt>
      <trkpt lat="43.01546" lon="-2.9099">
        <ele>328</ele>
        <time>2021-05-29 18:36:47</time>
      </trkpt>
      <trkpt lat="43.0154" lon="-2.90982">
        <ele>328</ele>
        <time>2021-05-29 18:36:48</time>
      </trkpt>
      <trkpt lat="43.01535" lon="-2.90974">
        <ele>327.8</ele>
        <time>2021-05-29 18:36:49</time>
      </trkpt>
      <trkpt lat="43.0153" lon="-2.90965">
        <ele>327.8</ele>
        <time>2021-05-29 18:36:50</time>
      </trkpt>
      <trkpt lat="43.01524" lon="-2.90957">
        <ele>327.8</ele>
        <time>2021-05-29 18:36:51</time>
      </trkpt>
      <trkpt lat="43.01519" lon="-2.90948">
        <ele>327.8</ele>
        <time>2021-05-29 18:36:52</time>
      </trkpt>
      <trkpt lat="43.01514" lon="-2.9094">
        <ele>327.8</ele>
        <time>2021-05-29 18:36:53</time>
      </trkpt>
      <trkpt lat="43.01508" lon="-2.90931">
        <ele>327.8</ele>
        <time>2021-05-29 18:36:54</time>
      </trkpt>
      <trkpt lat="43.01503" lon="-2.90923">
        <ele>327.8</ele>
        <time>2021-05-29 18:36:55</time>
      </trkpt>
      <trkpt lat="43.01498" lon="-2.90915">
        <ele>328</ele>
        <time>2021-05-29 18:36:56</time>
      </trkpt>
      <trkpt lat="43.01493" lon="-2.90907">
        <ele>327.8</ele>
        <time>2021-05-29 18:36:57</time>
      </trkpt>
      <trkpt lat="43.01487" lon="-2.90899">
        <ele>327.8</ele>
        <time>2021-05-29 18:36:58</time>
      </trkpt>
      <trkpt lat="43.01482" lon="-2.90891">
        <ele>327.8</ele>
        <time>2021-05-29 18:36:59</time>
      </trkpt>
      <trkpt lat="43.01477" lon="-2.90883">
        <ele>328</ele>
        <time>2021-05-29 18:37:00</time>
      </trkpt>
      <trkpt lat="43.01472" lon="-2.90876">
        <ele>328</ele>
        <time>2021-05-29 18:37:01</time>
      </trkpt>
      <trkpt lat="43.01466" lon="-2.90868">
        <ele>328</ele>
        <time>2021-05-29 18:37:02</time>
      </trkpt>
      <trkpt lat="43.01461" lon="-2.90861">
        <ele>328.2</ele>
        <time>2021-05-29 18:37:03</time>
      </trkpt>
      <trkpt lat="43.01456" lon="-2.90854">
        <ele>328.4</ele>
        <time>2021-05-29 18:37:04</time>
      </trkpt>
      <trkpt lat="43.01451" lon="-2.90846">
        <ele>328.6</ele>
        <time>2021-05-29 18:37:05</time>
      </trkpt>
      <trkpt lat="43.01446" lon="-2.90839">
        <ele>328.8</ele>
        <time>2021-05-29 18:37:06</time>
      </trkpt>
      <trkpt lat="43.0144" lon="-2.90832">
        <ele>329</ele>
        <time>2021-05-29 18:37:07</time>
      </trkpt>
      <trkpt lat="43.01435" lon="-2.90824">
        <ele>329.2</ele>
        <time>2021-05-29 18:37:08</time>
      </trkpt>
      <trkpt lat="43.0143" lon="-2.90817">
        <ele>329.4</ele>
        <time>2021-05-29 18:37:09</time>
      </trkpt>
      <trkpt lat="43.01425" lon="-2.9081">
        <ele>329.6</ele>
        <time>2021-05-29 18:37:10</time>
      </trkpt>
      <trkpt lat="43.0142" lon="-2.90803">
        <ele>329.6</ele>
        <time>2021-05-29 18:37:11</time>
      </trkpt>
      <trkpt lat="43.01415" lon="-2.90796">
        <ele>329.8</ele>
        <time>2021-05-29 18:37:12</time>
      </trkpt>
      <trkpt lat="43.01409" lon="-2.90789">
        <ele>330.2</ele>
        <time>2021-05-29 18:37:13</time>
      </trkpt>
      <trkpt lat="43.01404" lon="-2.90782">
        <ele>330.2</ele>
        <time>2021-05-29 18:37:14</time>
      </trkpt>
      <trkpt lat="43.01399" lon="-2.90775">
        <ele>330.4</ele>
        <time>2021-05-29 18:37:15</time>
      </trkpt>
      <trkpt lat="43.01394" lon="-2.90767">
        <ele>330.8</ele>
        <time>2021-05-29 18:37:16</time>
      </trkpt>
      <trkpt lat="43.01389" lon="-2.9076">
        <ele>331</ele>
        <time>2021-05-29 18:37:17</time>
      </trkpt>
      <trkpt lat="43.01384" lon="-2.90753">
        <ele>331</ele>
        <time>2021-05-29 18:37:18</time>
      </trkpt>
      <trkpt lat="43.01379" lon="-2.90745">
        <ele>331.2</ele>
        <time>2021-05-29 18:37:19</time>
      </trkpt>
      <trkpt lat="43.01374" lon="-2.90738">
        <ele>331.6</ele>
        <time>2021-05-29 18:37:20</time>
      </trkpt>
      <trkpt lat="43.01369" lon="-2.90731">
        <ele>331.6</ele>
        <time>2021-05-29 18:37:21</time>
      </trkpt>
      <trkpt lat="43.01363" lon="-2.90723">
        <ele>331.8</ele>
        <time>2021-05-29 18:37:22</time>
      </trkpt>
      <trkpt lat="43.01358" lon="-2.90716">
        <ele>331.8</ele>
        <time>2021-05-29 18:37:23</time>
      </trkpt>
      <trkpt lat="43.01353" lon="-2.90709">
        <ele>331.8</ele>
        <time>2021-05-29 18:37:24</time>
      </trkpt>
      <trkpt lat="43.01348" lon="-2.90701">
        <ele>332</ele>
        <time>2021-05-29 18:37:25</time>
      </trkpt>
      <trkpt lat="43.01343" lon="-2.90694">
        <ele>332.2</ele>
        <time>2021-05-29 18:37:26</time>
      </trkpt>
      <trkpt lat="43.01338" lon="-2.90687">
        <ele>332.2</ele>
        <time>2021-05-29 18:37:27</time>
      </trkpt>
      <trkpt lat="43.01333" lon="-2.9068">
        <ele>332.2</ele>
        <time>2021-05-29 18:37:28</time>
      </trkpt>
      <trkpt lat="43.01327" lon="-2.90673">
        <ele>332.4</ele>
        <time>2021-05-29 18:37:29</time>
      </trkpt>
      <trkpt lat="43.01322" lon="-2.90666">
        <ele>332.4</ele>
        <time>2021-05-29 18:37:30</time>
      </trkpt>
      <trkpt lat="43.01317" lon="-2.9066">
        <ele>332.6</ele>
        <time>2021-05-29 18:37:31</time>
      </trkpt>
      <trkpt lat="43.01312" lon="-2.90653">
        <ele>332.6</ele>
        <time>2021-05-29 18:37:32</time>
      </trkpt>
      <trkpt lat="43.01307" lon="-2.90647">
        <ele>332.8</ele>
        <time>2021-05-29 18:37:33</time>
      </trkpt>
      <trkpt lat="43.01303" lon="-2.9064">
        <ele>333</ele>
        <time>2021-05-29 18:37:34</time>
      </trkpt>
      <trkpt lat="43.01298" lon="-2.90633">
        <ele>333.2</ele>
        <time>2021-05-29 18:37:35</time>
      </trkpt>
      <trkpt lat="43.01293" lon="-2.90626">
        <ele>333.4</ele>
        <time>2021-05-29 18:37:36</time>
      </trkpt>
      <trkpt lat="43.01288" lon="-2.90619">
        <ele>333.4</ele>
        <time>2021-05-29 18:37:37</time>
      </trkpt>
      <trkpt lat="43.01283" lon="-2.90612">
        <ele>333.6</ele>
        <time>2021-05-29 18:37:38</time>
      </trkpt>
      <trkpt lat="43.01279" lon="-2.90606">
        <ele>333.6</ele>
        <time>2021-05-29 18:37:39</time>
      </trkpt>
      <trkpt lat="43.01274" lon="-2.90599">
        <ele>333.8</ele>
        <time>2021-05-29 18:37:40</time>
      </trkpt>
      <trkpt lat="43.01269" lon="-2.90592">
        <ele>334</ele>
        <time>2021-05-29 18:37:41</time>
      </trkpt>
      <trkpt lat="43.01264" lon="-2.90585">
        <ele>334.2</ele>
        <time>2021-05-29 18:37:42</time>
      </trkpt>
      <trkpt lat="43.01259" lon="-2.90578">
        <ele>334.4</ele>
        <time>2021-05-29 18:37:43</time>
      </trkpt>
      <trkpt lat="43.01255" lon="-2.90572">
        <ele>334.6</ele>
        <time>2021-05-29 18:37:44</time>
      </trkpt>
      <trkpt lat="43.0125" lon="-2.90565">
        <ele>334.6</ele>
        <time>2021-05-29 18:37:45</time>
      </trkpt>
      <trkpt lat="43.01245" lon="-2.90558">
        <ele>334.8</ele>
        <time>2021-05-29 18:37:46</time>
      </trkpt>
      <trkpt lat="43.0124" lon="-2.90551">
        <ele>335</ele>
        <time>2021-05-29 18:37:47</time>
      </trkpt>
      <trkpt lat="43.01236" lon="-2.90544">
        <ele>335.4</ele>
        <time>2021-05-29 18:37:48</time>
      </trkpt>
      <trkpt lat="43.01231" lon="-2.90538">
        <ele>335.6</ele>
        <time>2021-05-29 18:37:49</time>
      </trkpt>
      <trkpt lat="43.01226" lon="-2.90531">
        <ele>335.8</ele>
        <time>2021-05-29 18:37:50</time>
      </trkpt>
      <trkpt lat="43.01221" lon="-2.90524">
        <ele>335.8</ele>
        <time>2021-05-29 18:37:51</time>
      </trkpt>
      <trkpt lat="43.01217" lon="-2.90518">
        <ele>336</ele>
        <time>2021-05-29 18:37:52</time>
      </trkpt>
      <trkpt lat="43.01212" lon="-2.90511">
        <ele>336.4</ele>
        <time>2021-05-29 18:37:53</time>
      </trkpt>
      <trkpt lat="43.01207" lon="-2.90505">
        <ele>336.6</ele>
        <time>2021-05-29 18:37:54</time>
      </trkpt>
      <trkpt lat="43.01203" lon="-2.90498">
        <ele>337.2</ele>
        <time>2021-05-29 18:37:55</time>
      </trkpt>
      <trkpt lat="43.01198" lon="-2.90492">
        <ele>337.4</ele>
        <time>2021-05-29 18:37:56</time>
      </trkpt>
      <trkpt lat="43.01193" lon="-2.90486">
        <ele>337.6</ele>
        <time>2021-05-29 18:37:57</time>
      </trkpt>
      <trkpt lat="43.01188" lon="-2.9048">
        <ele>337.8</ele>
        <time>2021-05-29 18:37:58</time>
      </trkpt>
      <trkpt lat="43.01183" lon="-2.90474">
        <ele>338.2</ele>
        <time>2021-05-29 18:37:59</time>
      </trkpt>
      <trkpt lat="43.01177" lon="-2.90468">
        <ele>338.4</ele>
        <time>2021-05-29 18:38:00</time>
      </trkpt>
      <trkpt lat="43.01172" lon="-2.90462">
        <ele>338.6</ele>
        <time>2021-05-29 18:38:01</time>
      </trkpt>
      <trkpt lat="43.01166" lon="-2.90457">
        <ele>338.6</ele>
        <time>2021-05-29 18:38:02</time>
      </trkpt>
      <trkpt lat="43.0116" lon="-2.90452">
        <ele>338.8</ele>
        <time>2021-05-29 18:38:03</time>
      </trkpt>
      <trkpt lat="43.01154" lon="-2.90448">
        <ele>339</ele>
        <time>2021-05-29 18:38:04</time>
      </trkpt>
      <trkpt lat="43.01147" lon="-2.90444">
        <ele>339.2</ele>
        <time>2021-05-29 18:38:05</time>
      </trkpt>
      <trkpt lat="43.01141" lon="-2.90439">
        <ele>339.2</ele>
        <time>2021-05-29 18:38:06</time>
      </trkpt>
      <trkpt lat="43.01134" lon="-2.90434">
        <ele>339.4</ele>
        <time>2021-05-29 18:38:07</time>
      </trkpt>
      <trkpt lat="43.01126" lon="-2.90428">
        <ele>339.4</ele>
        <time>2021-05-29 18:38:08</time>
      </trkpt>
      <trkpt lat="43.01119" lon="-2.90423">
        <ele>339.6</ele>
        <time>2021-05-29 18:38:09</time>
      </trkpt>
      <trkpt lat="43.01112" lon="-2.90418">
        <ele>339.6</ele>
        <time>2021-05-29 18:38:10</time>
      </trkpt>
      <trkpt lat="43.01105" lon="-2.90413">
        <ele>339.6</ele>
        <time>2021-05-29 18:38:11</time>
      </trkpt>
      <trkpt lat="43.01098" lon="-2.90408">
        <ele>339.8</ele>
        <time>2021-05-29 18:38:12</time>
      </trkpt>
      <trkpt lat="43.01091" lon="-2.90404">
        <ele>339.8</ele>
        <time>2021-05-29 18:38:13</time>
      </trkpt>
      <trkpt lat="43.01085" lon="-2.90399">
        <ele>339.8</ele>
        <time>2021-05-29 18:38:14</time>
      </trkpt>
      <trkpt lat="43.01078" lon="-2.90394">
        <ele>339.8</ele>
        <time>2021-05-29 18:38:15</time>
      </trkpt>
      <trkpt lat="43.01071" lon="-2.90389">
        <ele>339.8</ele>
        <time>2021-05-29 18:38:16</time>
      </trkpt>
      <trkpt lat="43.01065" lon="-2.90385">
        <ele>339.8</ele>
        <time>2021-05-29 18:38:17</time>
      </trkpt>
      <trkpt lat="43.01059" lon="-2.9038">
        <ele>339.8</ele>
        <time>2021-05-29 18:38:18</time>
      </trkpt>
      <trkpt lat="43.01053" lon="-2.90376">
        <ele>339.8</ele>
        <time>2021-05-29 18:38:19</time>
      </trkpt>
      <trkpt lat="43.01047" lon="-2.90371">
        <ele>339.8</ele>
        <time>2021-05-29 18:38:20</time>
      </trkpt>
      <trkpt lat="43.01042" lon="-2.90366">
        <ele>339.8</ele>
        <time>2021-05-29 18:38:21</time>
      </trkpt>
      <trkpt lat="43.01036" lon="-2.90361">
        <ele>339.8</ele>
        <time>2021-05-29 18:38:22</time>
      </trkpt>
      <trkpt lat="43.01031" lon="-2.90356">
        <ele>339.8</ele>
        <time>2021-05-29 18:38:23</time>
      </trkpt>
      <trkpt lat="43.01027" lon="-2.9035">
        <ele>340</ele>
        <time>2021-05-29 18:38:24</time>
      </trkpt>
      <trkpt lat="43.01022" lon="-2.90344">
        <ele>340.2</ele>
        <time>2021-05-29 18:38:25</time>
      </trkpt>
      <trkpt lat="43.01018" lon="-2.90339">
        <ele>340.4</ele>
        <time>2021-05-29 18:38:26</time>
      </trkpt>
      <trkpt lat="43.01013" lon="-2.90334">
        <ele>340.6</ele>
        <time>2021-05-29 18:38:27</time>
      </trkpt>
      <trkpt lat="43.01009" lon="-2.90328">
        <ele>340.8</ele>
        <time>2021-05-29 18:38:28</time>
      </trkpt>
      <trkpt lat="43.01005" lon="-2.90323">
        <ele>341.4</ele>
        <time>2021-05-29 18:38:29</time>
      </trkpt>
      <trkpt lat="43.01001" lon="-2.90317">
        <ele>342</ele>
        <time>2021-05-29 18:38:30</time>
      </trkpt>
      <trkpt lat="43.00997" lon="-2.90311">
        <ele>342.4</ele>
        <time>2021-05-29 18:38:31</time>
      </trkpt>
      <trkpt lat="43.00993" lon="-2.90305">
        <ele>342.8</ele>
        <time>2021-05-29 18:38:32</time>
      </trkpt>
      <trkpt lat="43.00988" lon="-2.90298">
        <ele>343.2</ele>
        <time>2021-05-29 18:38:33</time>
      </trkpt>
      <trkpt lat="43.00984" lon="-2.90291">
        <ele>343.4</ele>
        <time>2021-05-29 18:38:34</time>
      </trkpt>
      <trkpt lat="43.0098" lon="-2.90284">
        <ele>343.8</ele>
        <time>2021-05-29 18:38:35</time>
      </trkpt>
      <trkpt lat="43.00975" lon="-2.90277">
        <ele>344</ele>
        <time>2021-05-29 18:38:36</time>
      </trkpt>
      <trkpt lat="43.0097" lon="-2.9027">
        <ele>344.2</ele>
        <time>2021-05-29 18:38:37</time>
      </trkpt>
      <trkpt lat="43.00965" lon="-2.90264">
        <ele>344.6</ele>
        <time>2021-05-29 18:38:38</time>
      </trkpt>
      <trkpt lat="43.00959" lon="-2.90257">
        <ele>344.8</ele>
        <time>2021-05-29 18:38:39</time>
      </trkpt>
      <trkpt lat="43.00954" lon="-2.90251">
        <ele>345</ele>
        <time>2021-05-29 18:38:40</time>
      </trkpt>
      <trkpt lat="43.00948" lon="-2.90245">
        <ele>345.2</ele>
        <time>2021-05-29 18:38:41</time>
      </trkpt>
      <trkpt lat="43.00942" lon="-2.9024">
        <ele>345.2</ele>
        <time>2021-05-29 18:38:42</time>
      </trkpt>
      <trkpt lat="43.00935" lon="-2.90235">
        <ele>345.4</ele>
        <time>2021-05-29 18:38:43</time>
      </trkpt>
      <trkpt lat="43.00929" lon="-2.90231">
        <ele>345.4</ele>
        <time>2021-05-29 18:38:44</time>
      </trkpt>
      <trkpt lat="43.00922" lon="-2.90226">
        <ele>345.4</ele>
        <time>2021-05-29 18:38:45</time>
      </trkpt>
      <trkpt lat="43.00915" lon="-2.90223">
        <ele>345.6</ele>
        <time>2021-05-29 18:38:46</time>
      </trkpt>
      <trkpt lat="43.00908" lon="-2.90219">
        <ele>345.6</ele>
        <time>2021-05-29 18:38:47</time>
      </trkpt>
      <trkpt lat="43.00901" lon="-2.90216">
        <ele>345.6</ele>
        <time>2021-05-29 18:38:48</time>
      </trkpt>
      <trkpt lat="43.00894" lon="-2.90214">
        <ele>345.6</ele>
        <time>2021-05-29 18:38:49</time>
      </trkpt>
      <trkpt lat="43.00887" lon="-2.90211">
        <ele>345.6</ele>
        <time>2021-05-29 18:38:50</time>
      </trkpt>
      <trkpt lat="43.00879" lon="-2.90209">
        <ele>345.6</ele>
        <time>2021-05-29 18:38:51</time>
      </trkpt>
      <trkpt lat="43.00872" lon="-2.90207">
        <ele>345.8</ele>
        <time>2021-05-29 18:38:52</time>
      </trkpt>
      <trkpt lat="43.00865" lon="-2.90205">
        <ele>345.8</ele>
        <time>2021-05-29 18:38:53</time>
      </trkpt>
      <trkpt lat="43.00857" lon="-2.90203">
        <ele>346</ele>
        <time>2021-05-29 18:38:54</time>
      </trkpt>
      <trkpt lat="43.00849" lon="-2.90201">
        <ele>346</ele>
        <time>2021-05-29 18:38:55</time>
      </trkpt>
      <trkpt lat="43.00842" lon="-2.90199">
        <ele>346</ele>
        <time>2021-05-29 18:38:56</time>
      </trkpt>
      <trkpt lat="43.00834" lon="-2.90197">
        <ele>346.2</ele>
        <time>2021-05-29 18:38:57</time>
      </trkpt>
      <trkpt lat="43.00826" lon="-2.90195">
        <ele>346.2</ele>
        <time>2021-05-29 18:38:58</time>
      </trkpt>
      <trkpt lat="43.00818" lon="-2.90193">
        <ele>346.2</ele>
        <time>2021-05-29 18:38:59</time>
      </trkpt>
      <trkpt lat="43.00811" lon="-2.90191">
        <ele>346.2</ele>
        <time>2021-05-29 18:39:00</time>
      </trkpt>
      <trkpt lat="43.00803" lon="-2.90189">
        <ele>346.2</ele>
        <time>2021-05-29 18:39:01</time>
      </trkpt>
      <trkpt lat="43.00795" lon="-2.90187">
        <ele>346.4</ele>
        <time>2021-05-29 18:39:02</time>
      </trkpt>
      <trkpt lat="43.00788" lon="-2.90186">
        <ele>346.4</ele>
        <time>2021-05-29 18:39:03</time>
      </trkpt>
      <trkpt lat="43.0078" lon="-2.90184">
        <ele>346.4</ele>
        <time>2021-05-29 18:39:04</time>
      </trkpt>
      <trkpt lat="43.00772" lon="-2.90182">
        <ele>346.4</ele>
        <time>2021-05-29 18:39:05</time>
      </trkpt>
      <trkpt lat="43.00765" lon="-2.90181">
        <ele>346.4</ele>
        <time>2021-05-29 18:39:06</time>
      </trkpt>
      <trkpt lat="43.00757" lon="-2.9018">
        <ele>346.4</ele>
        <time>2021-05-29 18:39:07</time>
      </trkpt>
      <trkpt lat="43.0075" lon="-2.9018">
        <ele>346.6</ele>
        <time>2021-05-29 18:39:08</time>
      </trkpt>
      <trkpt lat="43.00742" lon="-2.90179">
        <ele>346.8</ele>
        <time>2021-05-29 18:39:09</time>
      </trkpt>
      <trkpt lat="43.00735" lon="-2.90179">
        <ele>346.8</ele>
        <time>2021-05-29 18:39:10</time>
      </trkpt>
      <trkpt lat="43.00728" lon="-2.90179">
        <ele>347.2</ele>
        <time>2021-05-29 18:39:11</time>
      </trkpt>
      <trkpt lat="43.00721" lon="-2.90178">
        <ele>347.4</ele>
        <time>2021-05-29 18:39:12</time>
      </trkpt>
      <trkpt lat="43.00715" lon="-2.90178">
        <ele>347.4</ele>
        <time>2021-05-29 18:39:13</time>
      </trkpt>
      <trkpt lat="43.00708" lon="-2.90178">
        <ele>347.8</ele>
        <time>2021-05-29 18:39:14</time>
      </trkpt>
      <trkpt lat="43.00701" lon="-2.90177">
        <ele>348</ele>
        <time>2021-05-29 18:39:15</time>
      </trkpt>
      <trkpt lat="43.00695" lon="-2.90177">
        <ele>348.2</ele>
        <time>2021-05-29 18:39:16</time>
      </trkpt>
      <trkpt lat="43.00688" lon="-2.90176">
        <ele>348.4</ele>
        <time>2021-05-29 18:39:17</time>
      </trkpt>
      <trkpt lat="43.00681" lon="-2.90174">
        <ele>348.8</ele>
        <time>2021-05-29 18:39:18</time>
      </trkpt>
      <trkpt lat="43.00675" lon="-2.90173">
        <ele>349.2</ele>
        <time>2021-05-29 18:39:19</time>
      </trkpt>
      <trkpt lat="43.00668" lon="-2.9017">
        <ele>349.6</ele>
        <time>2021-05-29 18:39:20</time>
      </trkpt>
      <trkpt lat="43.00661" lon="-2.90168">
        <ele>350</ele>
        <time>2021-05-29 18:39:21</time>
      </trkpt>
      <trkpt lat="43.00654" lon="-2.90165">
        <ele>350.2</ele>
        <time>2021-05-29 18:39:22</time>
      </trkpt>
      <trkpt lat="43.00647" lon="-2.90162">
        <ele>350.4</ele>
        <time>2021-05-29 18:39:23</time>
      </trkpt>
      <trkpt lat="43.0064" lon="-2.90158">
        <ele>350.6</ele>
        <time>2021-05-29 18:39:24</time>
      </trkpt>
      <trkpt lat="43.00633" lon="-2.90155">
        <ele>350.6</ele>
        <time>2021-05-29 18:39:25</time>
      </trkpt>
      <trkpt lat="43.00626" lon="-2.90151">
        <ele>351</ele>
        <time>2021-05-29 18:39:26</time>
      </trkpt>
      <trkpt lat="43.0062" lon="-2.90146">
        <ele>351.2</ele>
        <time>2021-05-29 18:39:27</time>
      </trkpt>
      <trkpt lat="43.00613" lon="-2.9014">
        <ele>351.4</ele>
        <time>2021-05-29 18:39:28</time>
      </trkpt>
      <trkpt lat="43.00607" lon="-2.90135">
        <ele>351.6</ele>
        <time>2021-05-29 18:39:29</time>
      </trkpt>
      <trkpt lat="43.00601" lon="-2.90128">
        <ele>351.6</ele>
        <time>2021-05-29 18:39:30</time>
      </trkpt>
      <trkpt lat="43.00595" lon="-2.90121">
        <ele>351.6</ele>
        <time>2021-05-29 18:39:31</time>
      </trkpt>
      <trkpt lat="43.00589" lon="-2.90114">
        <ele>351.6</ele>
        <time>2021-05-29 18:39:32</time>
      </trkpt>
      <trkpt lat="43.00584" lon="-2.90106">
        <ele>351.6</ele>
        <time>2021-05-29 18:39:33</time>
      </trkpt>
      <trkpt lat="43.00578" lon="-2.90098">
        <ele>351.6</ele>
        <time>2021-05-29 18:39:34</time>
      </trkpt>
      <trkpt lat="43.00573" lon="-2.90089">
        <ele>351.6</ele>
        <time>2021-05-29 18:39:35</time>
      </trkpt>
      <trkpt lat="43.00568" lon="-2.9008">
        <ele>351.6</ele>
        <time>2021-05-29 18:39:36</time>
      </trkpt>
      <trkpt lat="43.00563" lon="-2.90071">
        <ele>351.6</ele>
        <time>2021-05-29 18:39:37</time>
      </trkpt>
      <trkpt lat="43.00558" lon="-2.90063">
        <ele>351.6</ele>
        <time>2021-05-29 18:39:38</time>
      </trkpt>
      <trkpt lat="43.00553" lon="-2.90054">
        <ele>351.6</ele>
        <time>2021-05-29 18:39:39</time>
      </trkpt>
      <trkpt lat="43.00548" lon="-2.90045">
        <ele>351.6</ele>
        <time>2021-05-29 18:39:40</time>
      </trkpt>
      <trkpt lat="43.00543" lon="-2.90036">
        <ele>351.6</ele>
        <time>2021-05-29 18:39:41</time>
      </trkpt>
      <trkpt lat="43.00539" lon="-2.90028">
        <ele>351.8</ele>
        <time>2021-05-29 18:39:42</time>
      </trkpt>
      <trkpt lat="43.00534" lon="-2.9002">
        <ele>351.8</ele>
        <time>2021-05-29 18:39:43</time>
      </trkpt>
      <trkpt lat="43.0053" lon="-2.90012">
        <ele>351.8</ele>
        <time>2021-05-29 18:39:44</time>
      </trkpt>
      <trkpt lat="43.00526" lon="-2.90004">
        <ele>351.8</ele>
        <time>2021-05-29 18:39:45</time>
      </trkpt>
      <trkpt lat="43.00522" lon="-2.89997">
        <ele>351.8</ele>
        <time>2021-05-29 18:39:46</time>
      </trkpt>
      <trkpt lat="43.00518" lon="-2.89989">
        <ele>351.8</ele>
        <time>2021-05-29 18:39:47</time>
      </trkpt>
      <trkpt lat="43.00514" lon="-2.89982">
        <ele>352</ele>
        <time>2021-05-29 18:39:48</time>
      </trkpt>
      <trkpt lat="43.0051" lon="-2.89974">
        <ele>352</ele>
        <time>2021-05-29 18:39:49</time>
      </trkpt>
      <trkpt lat="43.00505" lon="-2.89967">
        <ele>352</ele>
        <time>2021-05-29 18:39:50</time>
      </trkpt>
      <trkpt lat="43.00501" lon="-2.89959">
        <ele>352.2</ele>
        <time>2021-05-29 18:39:51</time>
      </trkpt>
      <trkpt lat="43.00497" lon="-2.89952">
        <ele>352.6</ele>
        <time>2021-05-29 18:39:52</time>
      </trkpt>
      <trkpt lat="43.00492" lon="-2.89945">
        <ele>352.8</ele>
        <time>2021-05-29 18:39:53</time>
      </trkpt>
      <trkpt lat="43.00488" lon="-2.89938">
        <ele>353.2</ele>
        <time>2021-05-29 18:39:54</time>
      </trkpt>
      <trkpt lat="43.00483" lon="-2.89931">
        <ele>353.6</ele>
        <time>2021-05-29 18:39:55</time>
      </trkpt>
      <trkpt lat="43.00479" lon="-2.89925">
        <ele>353.8</ele>
        <time>2021-05-29 18:39:56</time>
      </trkpt>
      <trkpt lat="43.00474" lon="-2.89919">
        <ele>354</ele>
        <time>2021-05-29 18:39:57</time>
      </trkpt>
      <trkpt lat="43.00469" lon="-2.89913">
        <ele>354.2</ele>
        <time>2021-05-29 18:39:58</time>
      </trkpt>
      <trkpt lat="43.00463" lon="-2.89907">
        <ele>354.6</ele>
        <time>2021-05-29 18:39:59</time>
      </trkpt>
      <trkpt lat="43.00458" lon="-2.89902">
        <ele>354.8</ele>
        <time>2021-05-29 18:40:00</time>
      </trkpt>
      <trkpt lat="43.00453" lon="-2.89898">
        <ele>355</ele>
        <time>2021-05-29 18:40:01</time>
      </trkpt>
      <trkpt lat="43.00448" lon="-2.89893">
        <ele>355.4</ele>
        <time>2021-05-29 18:40:02</time>
      </trkpt>
      <trkpt lat="43.00442" lon="-2.89889">
        <ele>355.4</ele>
        <time>2021-05-29 18:40:03</time>
      </trkpt>
      <trkpt lat="43.00437" lon="-2.89886">
        <ele>355.6</ele>
        <time>2021-05-29 18:40:04</time>
      </trkpt>
      <trkpt lat="43.00432" lon="-2.89883">
        <ele>356</ele>
        <time>2021-05-29 18:40:05</time>
      </trkpt>
      <trkpt lat="43.00427" lon="-2.8988">
        <ele>356.2</ele>
        <time>2021-05-29 18:40:06</time>
      </trkpt>
      <trkpt lat="43.00422" lon="-2.89877">
        <ele>356.4</ele>
        <time>2021-05-29 18:40:07</time>
      </trkpt>
      <trkpt lat="43.00417" lon="-2.89874">
        <ele>356.8</ele>
        <time>2021-05-29 18:40:08</time>
      </trkpt>
      <trkpt lat="43.00413" lon="-2.8987">
        <ele>357.2</ele>
        <time>2021-05-29 18:40:09</time>
      </trkpt>
      <trkpt lat="43.00408" lon="-2.89867">
        <ele>357.6</ele>
        <time>2021-05-29 18:40:10</time>
      </trkpt>
      <trkpt lat="43.00403" lon="-2.89864">
        <ele>358</ele>
        <time>2021-05-29 18:40:11</time>
      </trkpt>
      <trkpt lat="43.00398" lon="-2.8986">
        <ele>358.2</ele>
        <time>2021-05-29 18:40:12</time>
      </trkpt>
      <trkpt lat="43.00394" lon="-2.89857">
        <ele>358.8</ele>
        <time>2021-05-29 18:40:13</time>
      </trkpt>
      <trkpt lat="43.00389" lon="-2.89853">
        <ele>359.6</ele>
        <time>2021-05-29 18:40:14</time>
      </trkpt>
      <trkpt lat="43.00385" lon="-2.89849">
        <ele>359.8</ele>
        <time>2021-05-29 18:40:15</time>
      </trkpt>
      <trkpt lat="43.00381" lon="-2.89845">
        <ele>360.4</ele>
        <time>2021-05-29 18:40:16</time>
      </trkpt>
      <trkpt lat="43.00376" lon="-2.89841">
        <ele>360.8</ele>
        <time>2021-05-29 18:40:17</time>
      </trkpt>
      <trkpt lat="43.00372" lon="-2.89836">
        <ele>361.2</ele>
        <time>2021-05-29 18:40:18</time>
      </trkpt>
      <trkpt lat="43.00368" lon="-2.89832">
        <ele>361.4</ele>
        <time>2021-05-29 18:40:19</time>
      </trkpt>
      <trkpt lat="43.00364" lon="-2.89827">
        <ele>361.8</ele>
        <time>2021-05-29 18:40:20</time>
      </trkpt>
      <trkpt lat="43.0036" lon="-2.89822">
        <ele>362.4</ele>
        <time>2021-05-29 18:40:21</time>
      </trkpt>
      <trkpt lat="43.00356" lon="-2.89817">
        <ele>362.8</ele>
        <time>2021-05-29 18:40:22</time>
      </trkpt>
      <trkpt lat="43.00352" lon="-2.89812">
        <ele>363.2</ele>
        <time>2021-05-29 18:40:23</time>
      </trkpt>
      <trkpt lat="43.00349" lon="-2.89806">
        <ele>363.4</ele>
        <time>2021-05-29 18:40:24</time>
      </trkpt>
      <trkpt lat="43.00345" lon="-2.898">
        <ele>363.8</ele>
        <time>2021-05-29 18:40:25</time>
      </trkpt>
      <trkpt lat="43.00341" lon="-2.89793">
        <ele>364</ele>
        <time>2021-05-29 18:40:26</time>
      </trkpt>
      <trkpt lat="43.00338" lon="-2.89786">
        <ele>364.2</ele>
        <time>2021-05-29 18:40:27</time>
      </trkpt>
      <trkpt lat="43.00334" lon="-2.8978">
        <ele>364.6</ele>
        <time>2021-05-29 18:40:28</time>
      </trkpt>
      <trkpt lat="43.0033" lon="-2.89773">
        <ele>365</ele>
        <time>2021-05-29 18:40:29</time>
      </trkpt>
      <trkpt lat="43.00327" lon="-2.89766">
        <ele>365.2</ele>
        <time>2021-05-29 18:40:30</time>
      </trkpt>
      <trkpt lat="43.00324" lon="-2.89759">
        <ele>365.6</ele>
        <time>2021-05-29 18:40:31</time>
      </trkpt>
      <trkpt lat="43.0032" lon="-2.89753">
        <ele>365.8</ele>
        <time>2021-05-29 18:40:32</time>
      </trkpt>
      <trkpt lat="43.00317" lon="-2.89746">
        <ele>366</ele>
        <time>2021-05-29 18:40:33</time>
      </trkpt>
      <trkpt lat="43.00313" lon="-2.89739">
        <ele>366.2</ele>
        <time>2021-05-29 18:40:34</time>
      </trkpt>
      <trkpt lat="43.00309" lon="-2.89733">
        <ele>366.6</ele>
        <time>2021-05-29 18:40:35</time>
      </trkpt>
      <trkpt lat="43.00306" lon="-2.89726">
        <ele>366.8</ele>
        <time>2021-05-29 18:40:36</time>
      </trkpt>
      <trkpt lat="43.00303" lon="-2.8972">
        <ele>367</ele>
        <time>2021-05-29 18:40:37</time>
      </trkpt>
      <trkpt lat="43.003" lon="-2.89714">
        <ele>367.4</ele>
        <time>2021-05-29 18:40:38</time>
      </trkpt>
      <trkpt lat="43.00296" lon="-2.89708">
        <ele>367.8</ele>
        <time>2021-05-29 18:40:39</time>
      </trkpt>
      <trkpt lat="43.00293" lon="-2.89702">
        <ele>368.2</ele>
        <time>2021-05-29 18:40:40</time>
      </trkpt>
      <trkpt lat="43.0029" lon="-2.89695">
        <ele>368.4</ele>
        <time>2021-05-29 18:40:41</time>
      </trkpt>
      <trkpt lat="43.00287" lon="-2.89689">
        <ele>368.8</ele>
        <time>2021-05-29 18:40:42</time>
      </trkpt>
      <trkpt lat="43.00284" lon="-2.89683">
        <ele>369.2</ele>
        <time>2021-05-29 18:40:43</time>
      </trkpt>
      <trkpt lat="43.00281" lon="-2.89677">
        <ele>369.2</ele>
        <time>2021-05-29 18:40:44</time>
      </trkpt>
      <trkpt lat="43.00278" lon="-2.89671">
        <ele>369.4</ele>
        <time>2021-05-29 18:40:45</time>
      </trkpt>
      <trkpt lat="43.00275" lon="-2.89665">
        <ele>369.8</ele>
        <time>2021-05-29 18:40:46</time>
      </trkpt>
      <trkpt lat="43.00272" lon="-2.89659">
        <ele>370</ele>
        <time>2021-05-29 18:40:47</time>
      </trkpt>
      <trkpt lat="43.00269" lon="-2.89653">
        <ele>370.6</ele>
        <time>2021-05-29 18:40:48</time>
      </trkpt>
      <trkpt lat="43.00266" lon="-2.89647">
        <ele>371</ele>
        <time>2021-05-29 18:40:49</time>
      </trkpt>
      <trkpt lat="43.00263" lon="-2.89641">
        <ele>371.4</ele>
        <time>2021-05-29 18:40:50</time>
      </trkpt>
      <trkpt lat="43.0026" lon="-2.89635">
        <ele>371.6</ele>
        <time>2021-05-29 18:40:51</time>
      </trkpt>
      <trkpt lat="43.00257" lon="-2.89629">
        <ele>371.8</ele>
        <time>2021-05-29 18:40:52</time>
      </trkpt>
      <trkpt lat="43.00254" lon="-2.89623">
        <ele>372.2</ele>
        <time>2021-05-29 18:40:53</time>
      </trkpt>
      <trkpt lat="43.0025" lon="-2.89617">
        <ele>372.4</ele>
        <time>2021-05-29 18:40:54</time>
      </trkpt>
      <trkpt lat="43.00247" lon="-2.89611">
        <ele>372.8</ele>
        <time>2021-05-29 18:40:55</time>
      </trkpt>
      <trkpt lat="43.00244" lon="-2.89605">
        <ele>373</ele>
        <time>2021-05-29 18:40:56</time>
      </trkpt>
      <trkpt lat="43.00241" lon="-2.89599">
        <ele>373.2</ele>
        <time>2021-05-29 18:40:57</time>
      </trkpt>
      <trkpt lat="43.00238" lon="-2.89593">
        <ele>373.6</ele>
        <time>2021-05-29 18:40:58</time>
      </trkpt>
      <trkpt lat="43.00235" lon="-2.89587">
        <ele>373.8</ele>
        <time>2021-05-29 18:40:59</time>
      </trkpt>
      <trkpt lat="43.00232" lon="-2.89582">
        <ele>374</ele>
        <time>2021-05-29 18:41:00</time>
      </trkpt>
      <trkpt lat="43.00229" lon="-2.89576">
        <ele>374.4</ele>
        <time>2021-05-29 18:41:01</time>
      </trkpt>
      <trkpt lat="43.00226" lon="-2.8957">
        <ele>374.8</ele>
        <time>2021-05-29 18:41:02</time>
      </trkpt>
      <trkpt lat="43.00223" lon="-2.89564">
        <ele>375</ele>
        <time>2021-05-29 18:41:03</time>
      </trkpt>
      <trkpt lat="43.00219" lon="-2.89558">
        <ele>375.4</ele>
        <time>2021-05-29 18:41:04</time>
      </trkpt>
      <trkpt lat="43.00216" lon="-2.89552">
        <ele>375.8</ele>
        <time>2021-05-29 18:41:05</time>
      </trkpt>
      <trkpt lat="43.00213" lon="-2.89546">
        <ele>376.2</ele>
        <time>2021-05-29 18:41:06</time>
      </trkpt>
      <trkpt lat="43.0021" lon="-2.89539">
        <ele>376.6</ele>
        <time>2021-05-29 18:41:07</time>
      </trkpt>
      <trkpt lat="43.00207" lon="-2.89533">
        <ele>376.8</ele>
        <time>2021-05-29 18:41:08</time>
      </trkpt>
      <trkpt lat="43.00203" lon="-2.89527">
        <ele>377.2</ele>
        <time>2021-05-29 18:41:09</time>
      </trkpt>
      <trkpt lat="43.002" lon="-2.89522">
        <ele>377.6</ele>
        <time>2021-05-29 18:41:10</time>
      </trkpt>
      <trkpt lat="43.00197" lon="-2.89516">
        <ele>377.8</ele>
        <time>2021-05-29 18:41:11</time>
      </trkpt>
      <trkpt lat="43.00194" lon="-2.8951">
        <ele>378</ele>
        <time>2021-05-29 18:41:12</time>
      </trkpt>
      <trkpt lat="43.00191" lon="-2.89504">
        <ele>378.2</ele>
        <time>2021-05-29 18:41:13</time>
      </trkpt>
      <trkpt lat="43.00188" lon="-2.89498">
        <ele>378.6</ele>
        <time>2021-05-29 18:41:14</time>
      </trkpt>
      <trkpt lat="43.00185" lon="-2.89492">
        <ele>378.8</ele>
        <time>2021-05-29 18:41:15</time>
      </trkpt>
      <trkpt lat="43.00181" lon="-2.89486">
        <ele>379.2</ele>
        <time>2021-05-29 18:41:16</time>
      </trkpt>
      <trkpt lat="43.00178" lon="-2.8948">
        <ele>379.4</ele>
        <time>2021-05-29 18:41:17</time>
      </trkpt>
      <trkpt lat="43.00175" lon="-2.89474">
        <ele>379.6</ele>
        <time>2021-05-29 18:41:18</time>
      </trkpt>
      <trkpt lat="43.00172" lon="-2.89469">
        <ele>379.8</ele>
        <time>2021-05-29 18:41:19</time>
      </trkpt>
      <trkpt lat="43.00169" lon="-2.89463">
        <ele>380.2</ele>
        <time>2021-05-29 18:41:20</time>
      </trkpt>
      <trkpt lat="43.00166" lon="-2.89457">
        <ele>380.4</ele>
        <time>2021-05-29 18:41:21</time>
      </trkpt>
      <trkpt lat="43.00162" lon="-2.89451">
        <ele>381</ele>
        <time>2021-05-29 18:41:22</time>
      </trkpt>
      <trkpt lat="43.00159" lon="-2.89446">
        <ele>381.2</ele>
        <time>2021-05-29 18:41:23</time>
      </trkpt>
      <trkpt lat="43.00156" lon="-2.8944">
        <ele>381.6</ele>
        <time>2021-05-29 18:41:24</time>
      </trkpt>
      <trkpt lat="43.00153" lon="-2.89434">
        <ele>381.8</ele>
        <time>2021-05-29 18:41:25</time>
      </trkpt>
      <trkpt lat="43.0015" lon="-2.89428">
        <ele>382.2</ele>
        <time>2021-05-29 18:41:26</time>
      </trkpt>
      <trkpt lat="43.00147" lon="-2.89423">
        <ele>382.4</ele>
        <time>2021-05-29 18:41:27</time>
      </trkpt>
      <trkpt lat="43.00144" lon="-2.89417">
        <ele>382.8</ele>
        <time>2021-05-29 18:41:28</time>
      </trkpt>
      <trkpt lat="43.0014" lon="-2.89411">
        <ele>383</ele>
        <time>2021-05-29 18:41:29</time>
      </trkpt>
      <trkpt lat="43.00137" lon="-2.89405">
        <ele>383.2</ele>
        <time>2021-05-29 18:41:30</time>
      </trkpt>
      <trkpt lat="43.00134" lon="-2.89399">
        <ele>383.4</ele>
        <time>2021-05-29 18:41:31</time>
      </trkpt>
      <trkpt lat="43.0013" lon="-2.89393">
        <ele>383.6</ele>
        <time>2021-05-29 18:41:32</time>
      </trkpt>
      <trkpt lat="43.00127" lon="-2.89387">
        <ele>384</ele>
        <time>2021-05-29 18:41:33</time>
      </trkpt>
      <trkpt lat="43.00124" lon="-2.89381">
        <ele>384.2</ele>
        <time>2021-05-29 18:41:34</time>
      </trkpt>
      <trkpt lat="43.0012" lon="-2.89375">
        <ele>384.4</ele>
        <time>2021-05-29 18:41:35</time>
      </trkpt>
      <trkpt lat="43.00117" lon="-2.89369">
        <ele>384.6</ele>
        <time>2021-05-29 18:41:36</time>
      </trkpt>
      <trkpt lat="43.00114" lon="-2.89363">
        <ele>384.8</ele>
        <time>2021-05-29 18:41:37</time>
      </trkpt>
      <trkpt lat="43.0011" lon="-2.89356">
        <ele>385</ele>
        <time>2021-05-29 18:41:38</time>
      </trkpt>
      <trkpt lat="43.00107" lon="-2.8935">
        <ele>385.2</ele>
        <time>2021-05-29 18:41:39</time>
      </trkpt>
      <trkpt lat="43.00103" lon="-2.89344">
        <ele>385.6</ele>
        <time>2021-05-29 18:41:40</time>
      </trkpt>
      <trkpt lat="43.001" lon="-2.89337">
        <ele>385.6</ele>
        <time>2021-05-29 18:41:41</time>
      </trkpt>
      <trkpt lat="43.00096" lon="-2.89331">
        <ele>385.8</ele>
        <time>2021-05-29 18:41:42</time>
      </trkpt>
      <trkpt lat="43.00093" lon="-2.89325">
        <ele>386</ele>
        <time>2021-05-29 18:41:43</time>
      </trkpt>
      <trkpt lat="43.0009" lon="-2.89318">
        <ele>386.2</ele>
        <time>2021-05-29 18:41:44</time>
      </trkpt>
      <trkpt lat="43.00086" lon="-2.89311">
        <ele>386.2</ele>
        <time>2021-05-29 18:41:45</time>
      </trkpt>
      <trkpt lat="43.00083" lon="-2.89305">
        <ele>386.4</ele>
        <time>2021-05-29 18:41:46</time>
      </trkpt>
      <trkpt lat="43.00079" lon="-2.89298">
        <ele>386.6</ele>
        <time>2021-05-29 18:41:47</time>
      </trkpt>
      <trkpt lat="43.00076" lon="-2.89292">
        <ele>386.6</ele>
        <time>2021-05-29 18:41:48</time>
      </trkpt>
      <trkpt lat="43.00072" lon="-2.89285">
        <ele>386.8</ele>
        <time>2021-05-29 18:41:49</time>
      </trkpt>
      <trkpt lat="43.00069" lon="-2.89279">
        <ele>387.2</ele>
        <time>2021-05-29 18:41:50</time>
      </trkpt>
      <trkpt lat="43.00066" lon="-2.89272">
        <ele>387.6</ele>
        <time>2021-05-29 18:41:51</time>
      </trkpt>
      <trkpt lat="43.00062" lon="-2.89265">
        <ele>388</ele>
        <time>2021-05-29 18:41:52</time>
      </trkpt>
      <trkpt lat="43.00059" lon="-2.89258">
        <ele>388.2</ele>
        <time>2021-05-29 18:41:53</time>
      </trkpt>
      <trkpt lat="43.00056" lon="-2.89251">
        <ele>388.4</ele>
        <time>2021-05-29 18:41:54</time>
      </trkpt>
      <trkpt lat="43.00053" lon="-2.89244">
        <ele>388.6</ele>
        <time>2021-05-29 18:41:55</time>
      </trkpt>
      <trkpt lat="43.0005" lon="-2.89237">
        <ele>389</ele>
        <time>2021-05-29 18:41:56</time>
      </trkpt>
      <trkpt lat="43.00047" lon="-2.8923">
        <ele>389.6</ele>
        <time>2021-05-29 18:41:57</time>
      </trkpt>
      <trkpt lat="43.00044" lon="-2.89223">
        <ele>390</ele>
        <time>2021-05-29 18:41:58</time>
      </trkpt>
      <trkpt lat="43.00041" lon="-2.89216">
        <ele>390.2</ele>
        <time>2021-05-29 18:41:59</time>
      </trkpt>
      <trkpt lat="43.00039" lon="-2.89208">
        <ele>390.6</ele>
        <time>2021-05-29 18:42:00</time>
      </trkpt>
      <trkpt lat="43.00036" lon="-2.89201">
        <ele>390.8</ele>
        <time>2021-05-29 18:42:01</time>
      </trkpt>
      <trkpt lat="43.00033" lon="-2.89194">
        <ele>390.8</ele>
        <time>2021-05-29 18:42:02</time>
      </trkpt>
      <trkpt lat="43.0003" lon="-2.89186">
        <ele>391</ele>
        <time>2021-05-29 18:42:03</time>
      </trkpt>
      <trkpt lat="43.00027" lon="-2.89179">
        <ele>391.4</ele>
        <time>2021-05-29 18:42:04</time>
      </trkpt>
      <trkpt lat="43.00025" lon="-2.89171">
        <ele>391.6</ele>
        <time>2021-05-29 18:42:05</time>
      </trkpt>
      <trkpt lat="43.00022" lon="-2.89164">
        <ele>392</ele>
        <time>2021-05-29 18:42:06</time>
      </trkpt>
      <trkpt lat="43.0002" lon="-2.89156">
        <ele>392.2</ele>
        <time>2021-05-29 18:42:07</time>
      </trkpt>
      <trkpt lat="43.00017" lon="-2.89149">
        <ele>392.6</ele>
        <time>2021-05-29 18:42:08</time>
      </trkpt>
      <trkpt lat="43.00014" lon="-2.89141">
        <ele>392.8</ele>
        <time>2021-05-29 18:42:09</time>
      </trkpt>
      <trkpt lat="43.00012" lon="-2.89134">
        <ele>393</ele>
        <time>2021-05-29 18:42:10</time>
      </trkpt>
      <trkpt lat="43.00009" lon="-2.89127">
        <ele>393.4</ele>
        <time>2021-05-29 18:42:11</time>
      </trkpt>
      <trkpt lat="43.00006" lon="-2.8912">
        <ele>393.6</ele>
        <time>2021-05-29 18:42:12</time>
      </trkpt>
      <trkpt lat="43.00004" lon="-2.89112">
        <ele>393.8</ele>
        <time>2021-05-29 18:42:13</time>
      </trkpt>
      <trkpt lat="43.00001" lon="-2.89105">
        <ele>394.2</ele>
        <time>2021-05-29 18:42:14</time>
      </trkpt>
      <trkpt lat="42.99998" lon="-2.89097">
        <ele>394.6</ele>
        <time>2021-05-29 18:42:15</time>
      </trkpt>
      <trkpt lat="42.99995" lon="-2.8909">
        <ele>394.8</ele>
        <time>2021-05-29 18:42:16</time>
      </trkpt>
      <trkpt lat="42.99992" lon="-2.89082">
        <ele>395.2</ele>
        <time>2021-05-29 18:42:17</time>
      </trkpt>
      <trkpt lat="42.99989" lon="-2.89075">
        <ele>395.4</ele>
        <time>2021-05-29 18:42:18</time>
      </trkpt>
      <trkpt lat="42.99986" lon="-2.89067">
        <ele>395.6</ele>
        <time>2021-05-29 18:42:19</time>
      </trkpt>
      <trkpt lat="42.99982" lon="-2.8906">
        <ele>395.8</ele>
        <time>2021-05-29 18:42:20</time>
      </trkpt>
      <trkpt lat="42.99979" lon="-2.89053">
        <ele>396.2</ele>
        <time>2021-05-29 18:42:21</time>
      </trkpt>
      <trkpt lat="42.99976" lon="-2.89045">
        <ele>396.6</ele>
        <time>2021-05-29 18:42:22</time>
      </trkpt>
      <trkpt lat="42.99972" lon="-2.89038">
        <ele>397</ele>
        <time>2021-05-29 18:42:23</time>
      </trkpt>
      <trkpt lat="42.99969" lon="-2.89031">
        <ele>397.2</ele>
        <time>2021-05-29 18:42:24</time>
      </trkpt>
      <trkpt lat="42.99966" lon="-2.89024">
        <ele>397.6</ele>
        <time>2021-05-29 18:42:25</time>
      </trkpt>
      <trkpt lat="42.99963" lon="-2.89017">
        <ele>398</ele>
        <time>2021-05-29 18:42:26</time>
      </trkpt>
      <trkpt lat="42.99959" lon="-2.8901">
        <ele>398.2</ele>
        <time>2021-05-29 18:42:27</time>
      </trkpt>
      <trkpt lat="42.99956" lon="-2.89003">
        <ele>398.4</ele>
        <time>2021-05-29 18:42:28</time>
      </trkpt>
      <trkpt lat="42.99953" lon="-2.88996">
        <ele>398.8</ele>
        <time>2021-05-29 18:42:29</time>
      </trkpt>
      <trkpt lat="42.9995" lon="-2.88989">
        <ele>399.2</ele>
        <time>2021-05-29 18:42:30</time>
      </trkpt>
      <trkpt lat="42.99946" lon="-2.88983">
        <ele>399.8</ele>
        <time>2021-05-29 18:42:31</time>
      </trkpt>
      <trkpt lat="42.99943" lon="-2.88976">
        <ele>400.2</ele>
        <time>2021-05-29 18:42:32</time>
      </trkpt>
      <trkpt lat="42.9994" lon="-2.88969">
        <ele>400.4</ele>
        <time>2021-05-29 18:42:33</time>
      </trkpt>
      <trkpt lat="42.99936" lon="-2.88962">
        <ele>400.8</ele>
        <time>2021-05-29 18:42:34</time>
      </trkpt>
      <trkpt lat="42.99933" lon="-2.88954">
        <ele>401</ele>
        <time>2021-05-29 18:42:35</time>
      </trkpt>
      <trkpt lat="42.99929" lon="-2.88947">
        <ele>401.2</ele>
        <time>2021-05-29 18:42:36</time>
      </trkpt>
      <trkpt lat="42.99926" lon="-2.8894">
        <ele>401.8</ele>
        <time>2021-05-29 18:42:37</time>
      </trkpt>
      <trkpt lat="42.99923" lon="-2.88933">
        <ele>402.2</ele>
        <time>2021-05-29 18:42:38</time>
      </trkpt>
      <trkpt lat="42.99919" lon="-2.88926">
        <ele>402.4</ele>
        <time>2021-05-29 18:42:39</time>
      </trkpt>
      <trkpt lat="42.99916" lon="-2.88918">
        <ele>402.8</ele>
        <time>2021-05-29 18:42:40</time>
      </trkpt>
      <trkpt lat="42.99912" lon="-2.88911">
        <ele>403.2</ele>
        <time>2021-05-29 18:42:41</time>
      </trkpt>
      <trkpt lat="42.99909" lon="-2.88904">
        <ele>403.6</ele>
        <time>2021-05-29 18:42:42</time>
      </trkpt>
      <trkpt lat="42.99906" lon="-2.88896">
        <ele>404</ele>
        <time>2021-05-29 18:42:43</time>
      </trkpt>
      <trkpt lat="42.99902" lon="-2.88889">
        <ele>404.2</ele>
        <time>2021-05-29 18:42:44</time>
      </trkpt>
      <trkpt lat="42.99899" lon="-2.88882">
        <ele>404.4</ele>
        <time>2021-05-29 18:42:45</time>
      </trkpt>
      <trkpt lat="42.99896" lon="-2.88875">
        <ele>404.6</ele>
        <time>2021-05-29 18:42:46</time>
      </trkpt>
      <trkpt lat="42.99892" lon="-2.88867">
        <ele>404.8</ele>
        <time>2021-05-29 18:42:47</time>
      </trkpt>
      <trkpt lat="42.99889" lon="-2.8886">
        <ele>405</ele>
        <time>2021-05-29 18:42:48</time>
      </trkpt>
      <trkpt lat="42.99885" lon="-2.88852">
        <ele>405.4</ele>
        <time>2021-05-29 18:42:49</time>
      </trkpt>
      <trkpt lat="42.99882" lon="-2.88845">
        <ele>406</ele>
        <time>2021-05-29 18:42:50</time>
      </trkpt>
      <trkpt lat="42.99879" lon="-2.88838">
        <ele>406.4</ele>
        <time>2021-05-29 18:42:51</time>
      </trkpt>
      <trkpt lat="42.99875" lon="-2.88831">
        <ele>406.6</ele>
        <time>2021-05-29 18:42:52</time>
      </trkpt>
      <trkpt lat="42.99872" lon="-2.88824">
        <ele>407</ele>
        <time>2021-05-29 18:42:53</time>
      </trkpt>
      <trkpt lat="42.99869" lon="-2.88817">
        <ele>407.2</ele>
        <time>2021-05-29 18:42:54</time>
      </trkpt>
      <trkpt lat="42.99866" lon="-2.88811">
        <ele>407.4</ele>
        <time>2021-05-29 18:42:55</time>
      </trkpt>
      <trkpt lat="42.99862" lon="-2.88805">
        <ele>407.6</ele>
        <time>2021-05-29 18:42:56</time>
      </trkpt>
      <trkpt lat="42.99859" lon="-2.88798">
        <ele>407.8</ele>
        <time>2021-05-29 18:42:57</time>
      </trkpt>
      <trkpt lat="42.99856" lon="-2.88792">
        <ele>408</ele>
        <time>2021-05-29 18:42:58</time>
      </trkpt>
      <trkpt lat="42.99853" lon="-2.88786">
        <ele>408.4</ele>
        <time>2021-05-29 18:42:59</time>
      </trkpt>
      <trkpt lat="42.9985" lon="-2.88779">
        <ele>408.8</ele>
        <time>2021-05-29 18:43:00</time>
      </trkpt>
      <trkpt lat="42.99846" lon="-2.88773">
        <ele>409</ele>
        <time>2021-05-29 18:43:01</time>
      </trkpt>
      <trkpt lat="42.99843" lon="-2.88767">
        <ele>409.2</ele>
        <time>2021-05-29 18:43:02</time>
      </trkpt>
      <trkpt lat="42.99839" lon="-2.8876">
        <ele>409.4</ele>
        <time>2021-05-29 18:43:03</time>
      </trkpt>
      <trkpt lat="42.99835" lon="-2.88754">
        <ele>409.8</ele>
        <time>2021-05-29 18:43:04</time>
      </trkpt>
      <trkpt lat="42.99832" lon="-2.88748">
        <ele>410</ele>
        <time>2021-05-29 18:43:05</time>
      </trkpt>
      <trkpt lat="42.99828" lon="-2.88741">
        <ele>410.4</ele>
        <time>2021-05-29 18:43:06</time>
      </trkpt>
      <trkpt lat="42.99825" lon="-2.88735">
        <ele>410.6</ele>
        <time>2021-05-29 18:43:07</time>
      </trkpt>
      <trkpt lat="42.99821" lon="-2.88729">
        <ele>411</ele>
        <time>2021-05-29 18:43:08</time>
      </trkpt>
      <trkpt lat="42.99817" lon="-2.88723">
        <ele>411.2</ele>
        <time>2021-05-29 18:43:09</time>
      </trkpt>
      <trkpt lat="42.99813" lon="-2.88716">
        <ele>411.4</ele>
        <time>2021-05-29 18:43:10</time>
      </trkpt>
      <trkpt lat="42.99809" lon="-2.88711">
        <ele>411.8</ele>
        <time>2021-05-29 18:43:11</time>
      </trkpt>
      <trkpt lat="42.99805" lon="-2.88705">
        <ele>412</ele>
        <time>2021-05-29 18:43:12</time>
      </trkpt>
      <trkpt lat="42.99801" lon="-2.88699">
        <ele>412.2</ele>
        <time>2021-05-29 18:43:13</time>
      </trkpt>
      <trkpt lat="42.99797" lon="-2.88693">
        <ele>412.4</ele>
        <time>2021-05-29 18:43:14</time>
      </trkpt>
      <trkpt lat="42.99793" lon="-2.88687">
        <ele>412.6</ele>
        <time>2021-05-29 18:43:15</time>
      </trkpt>
      <trkpt lat="42.99789" lon="-2.8868">
        <ele>412.6</ele>
        <time>2021-05-29 18:43:16</time>
      </trkpt>
      <trkpt lat="42.99785" lon="-2.88674">
        <ele>413</ele>
        <time>2021-05-29 18:43:17</time>
      </trkpt>
      <trkpt lat="42.99781" lon="-2.88668">
        <ele>413.2</ele>
        <time>2021-05-29 18:43:18</time>
      </trkpt>
      <trkpt lat="42.99777" lon="-2.88661">
        <ele>413.6</ele>
        <time>2021-05-29 18:43:19</time>
      </trkpt>
      <trkpt lat="42.99773" lon="-2.88654">
        <ele>413.8</ele>
        <time>2021-05-29 18:43:20</time>
      </trkpt>
      <trkpt lat="42.99769" lon="-2.88647">
        <ele>414.2</ele>
        <time>2021-05-29 18:43:21</time>
      </trkpt>
      <trkpt lat="42.99765" lon="-2.8864">
        <ele>414.4</ele>
        <time>2021-05-29 18:43:22</time>
      </trkpt>
      <trkpt lat="42.9976" lon="-2.88633">
        <ele>414.6</ele>
        <time>2021-05-29 18:43:23</time>
      </trkpt>
      <trkpt lat="42.99756" lon="-2.88626">
        <ele>414.8</ele>
        <time>2021-05-29 18:43:24</time>
      </trkpt>
      <trkpt lat="42.99752" lon="-2.88619">
        <ele>415</ele>
        <time>2021-05-29 18:43:25</time>
      </trkpt>
      <trkpt lat="42.99748" lon="-2.88612">
        <ele>415.2</ele>
        <time>2021-05-29 18:43:26</time>
      </trkpt>
      <trkpt lat="42.99744" lon="-2.88605">
        <ele>415.4</ele>
        <time>2021-05-29 18:43:27</time>
      </trkpt>
      <trkpt lat="42.9974" lon="-2.88597">
        <ele>415.6</ele>
        <time>2021-05-29 18:43:28</time>
      </trkpt>
      <trkpt lat="42.99736" lon="-2.8859">
        <ele>415.8</ele>
        <time>2021-05-29 18:43:29</time>
      </trkpt>
      <trkpt lat="42.99731" lon="-2.88583">
        <ele>416</ele>
        <time>2021-05-29 18:43:30</time>
      </trkpt>
      <trkpt lat="42.99727" lon="-2.88576">
        <ele>416.4</ele>
        <time>2021-05-29 18:43:31</time>
      </trkpt>
      <trkpt lat="42.99723" lon="-2.88568">
        <ele>416.6</ele>
        <time>2021-05-29 18:43:32</time>
      </trkpt>
      <trkpt lat="42.99719" lon="-2.88561">
        <ele>416.8</ele>
        <time>2021-05-29 18:43:33</time>
      </trkpt>
      <trkpt lat="42.99714" lon="-2.88553">
        <ele>417</ele>
        <time>2021-05-29 18:43:34</time>
      </trkpt>
      <trkpt lat="42.9971" lon="-2.88545">
        <ele>417</ele>
        <time>2021-05-29 18:43:35</time>
      </trkpt>
      <trkpt lat="42.99705" lon="-2.88537">
        <ele>417.2</ele>
        <time>2021-05-29 18:43:36</time>
      </trkpt>
      <trkpt lat="42.99701" lon="-2.88529">
        <ele>417.4</ele>
        <time>2021-05-29 18:43:37</time>
      </trkpt>
      <trkpt lat="42.99696" lon="-2.88521">
        <ele>417.8</ele>
        <time>2021-05-29 18:43:38</time>
      </trkpt>
      <trkpt lat="42.99692" lon="-2.88513">
        <ele>418</ele>
        <time>2021-05-29 18:43:39</time>
      </trkpt>
      <trkpt lat="42.99688" lon="-2.88505">
        <ele>418.2</ele>
        <time>2021-05-29 18:43:40</time>
      </trkpt>
      <trkpt lat="42.99684" lon="-2.88498">
        <ele>418.6</ele>
        <time>2021-05-29 18:43:41</time>
      </trkpt>
      <trkpt lat="42.9968" lon="-2.8849">
        <ele>418.6</ele>
        <time>2021-05-29 18:43:42</time>
      </trkpt>
      <trkpt lat="42.99676" lon="-2.88483">
        <ele>418.8</ele>
        <time>2021-05-29 18:43:43</time>
      </trkpt>
      <trkpt lat="42.99672" lon="-2.88475">
        <ele>419</ele>
        <time>2021-05-29 18:43:44</time>
      </trkpt>
      <trkpt lat="42.99668" lon="-2.88467">
        <ele>419.2</ele>
        <time>2021-05-29 18:43:45</time>
      </trkpt>
      <trkpt lat="42.99664" lon="-2.8846">
        <ele>419.4</ele>
        <time>2021-05-29 18:43:46</time>
      </trkpt>
      <trkpt lat="42.9966" lon="-2.88452">
        <ele>419.8</ele>
        <time>2021-05-29 18:43:47</time>
      </trkpt>
      <trkpt lat="42.99656" lon="-2.88445">
        <ele>420</ele>
        <time>2021-05-29 18:43:48</time>
      </trkpt>
      <trkpt lat="42.99652" lon="-2.88438">
        <ele>420.2</ele>
        <time>2021-05-29 18:43:49</time>
      </trkpt>
      <trkpt lat="42.99648" lon="-2.8843">
        <ele>420.4</ele>
        <time>2021-05-29 18:43:50</time>
      </trkpt>
      <trkpt lat="42.99645" lon="-2.88423">
        <ele>420.8</ele>
        <time>2021-05-29 18:43:51</time>
      </trkpt>
      <trkpt lat="42.99641" lon="-2.88415">
        <ele>421</ele>
        <time>2021-05-29 18:43:52</time>
      </trkpt>
      <trkpt lat="42.99636" lon="-2.88407">
        <ele>421.4</ele>
        <time>2021-05-29 18:43:53</time>
      </trkpt>
      <trkpt lat="42.99632" lon="-2.884">
        <ele>421.4</ele>
        <time>2021-05-29 18:43:54</time>
      </trkpt>
      <trkpt lat="42.99629" lon="-2.88392">
        <ele>421.6</ele>
        <time>2021-05-29 18:43:55</time>
      </trkpt>
      <trkpt lat="42.99625" lon="-2.88384">
        <ele>421.8</ele>
        <time>2021-05-29 18:43:56</time>
      </trkpt>
      <trkpt lat="42.99621" lon="-2.88376">
        <ele>422</ele>
        <time>2021-05-29 18:43:57</time>
      </trkpt>
      <trkpt lat="42.99617" lon="-2.88369">
        <ele>422.4</ele>
        <time>2021-05-29 18:43:58</time>
      </trkpt>
      <trkpt lat="42.99613" lon="-2.88361">
        <ele>422.8</ele>
        <time>2021-05-29 18:43:59</time>
      </trkpt>
      <trkpt lat="42.99608" lon="-2.88354">
        <ele>423</ele>
        <time>2021-05-29 18:44:00</time>
      </trkpt>
      <trkpt lat="42.99604" lon="-2.88346">
        <ele>423.2</ele>
        <time>2021-05-29 18:44:01</time>
      </trkpt>
      <trkpt lat="42.99601" lon="-2.88339">
        <ele>423.4</ele>
        <time>2021-05-29 18:44:02</time>
      </trkpt>
      <trkpt lat="42.99597" lon="-2.88331">
        <ele>423.8</ele>
        <time>2021-05-29 18:44:03</time>
      </trkpt>
      <trkpt lat="42.99592" lon="-2.88324">
        <ele>423.8</ele>
        <time>2021-05-29 18:44:04</time>
      </trkpt>
      <trkpt lat="42.99588" lon="-2.88317">
        <ele>424.2</ele>
        <time>2021-05-29 18:44:05</time>
      </trkpt>
      <trkpt lat="42.99584" lon="-2.88309">
        <ele>424.4</ele>
        <time>2021-05-29 18:44:06</time>
      </trkpt>
      <trkpt lat="42.99579" lon="-2.88302">
        <ele>424.6</ele>
        <time>2021-05-29 18:44:07</time>
      </trkpt>
      <trkpt lat="42.99574" lon="-2.88295">
        <ele>424.8</ele>
        <time>2021-05-29 18:44:08</time>
      </trkpt>
      <trkpt lat="42.9957" lon="-2.88287">
        <ele>425.2</ele>
        <time>2021-05-29 18:44:09</time>
      </trkpt>
      <trkpt lat="42.99565" lon="-2.8828">
        <ele>425.4</ele>
        <time>2021-05-29 18:44:10</time>
      </trkpt>
      <trkpt lat="42.9956" lon="-2.88273">
        <ele>425.6</ele>
        <time>2021-05-29 18:44:11</time>
      </trkpt>
      <trkpt lat="42.99554" lon="-2.88266">
        <ele>425.8</ele>
        <time>2021-05-29 18:44:12</time>
      </trkpt>
      <trkpt lat="42.99549" lon="-2.88259">
        <ele>426</ele>
        <time>2021-05-29 18:44:13</time>
      </trkpt>
      <trkpt lat="42.99543" lon="-2.88252">
        <ele>426.4</ele>
        <time>2021-05-29 18:44:14</time>
      </trkpt>
      <trkpt lat="42.99538" lon="-2.88245">
        <ele>426.6</ele>
        <time>2021-05-29 18:44:15</time>
      </trkpt>
      <trkpt lat="42.99533" lon="-2.88238">
        <ele>426.8</ele>
        <time>2021-05-29 18:44:16</time>
      </trkpt>
      <trkpt lat="42.99527" lon="-2.8823">
        <ele>427</ele>
        <time>2021-05-29 18:44:17</time>
      </trkpt>
      <trkpt lat="42.99522" lon="-2.88223">
        <ele>427.2</ele>
        <time>2021-05-29 18:44:18</time>
      </trkpt>
      <trkpt lat="42.99516" lon="-2.88215">
        <ele>427.2</ele>
        <time>2021-05-29 18:44:19</time>
      </trkpt>
      <trkpt lat="42.99511" lon="-2.88208">
        <ele>427.4</ele>
        <time>2021-05-29 18:44:20</time>
      </trkpt>
      <trkpt lat="42.99505" lon="-2.88201">
        <ele>427.6</ele>
        <time>2021-05-29 18:44:21</time>
      </trkpt>
      <trkpt lat="42.995" lon="-2.88194">
        <ele>427.6</ele>
        <time>2021-05-29 18:44:22</time>
      </trkpt>
      <trkpt lat="42.99495" lon="-2.88187">
        <ele>427.8</ele>
        <time>2021-05-29 18:44:23</time>
      </trkpt>
      <trkpt lat="42.99489" lon="-2.88179">
        <ele>428</ele>
        <time>2021-05-29 18:44:24</time>
      </trkpt>
      <trkpt lat="42.99483" lon="-2.88172">
        <ele>428</ele>
        <time>2021-05-29 18:44:25</time>
      </trkpt>
      <trkpt lat="42.99478" lon="-2.88165">
        <ele>428</ele>
        <time>2021-05-29 18:44:26</time>
      </trkpt>
      <trkpt lat="42.99472" lon="-2.88159">
        <ele>428.2</ele>
        <time>2021-05-29 18:44:27</time>
      </trkpt>
      <trkpt lat="42.99466" lon="-2.88153">
        <ele>428.2</ele>
        <time>2021-05-29 18:44:28</time>
      </trkpt>
      <trkpt lat="42.9946" lon="-2.88148">
        <ele>428.6</ele>
        <time>2021-05-29 18:44:29</time>
      </trkpt>
      <trkpt lat="42.99454" lon="-2.88143">
        <ele>428.8</ele>
        <time>2021-05-29 18:44:30</time>
      </trkpt>
      <trkpt lat="42.99447" lon="-2.88138">
        <ele>428.8</ele>
        <time>2021-05-29 18:44:31</time>
      </trkpt>
      <trkpt lat="42.99441" lon="-2.88134">
        <ele>429</ele>
        <time>2021-05-29 18:44:32</time>
      </trkpt>
      <trkpt lat="42.99434" lon="-2.8813">
        <ele>429.4</ele>
        <time>2021-05-29 18:44:33</time>
      </trkpt>
      <trkpt lat="42.99427" lon="-2.88126">
        <ele>429.8</ele>
        <time>2021-05-29 18:44:34</time>
      </trkpt>
      <trkpt lat="42.99421" lon="-2.88122">
        <ele>430.2</ele>
        <time>2021-05-29 18:44:35</time>
      </trkpt>
      <trkpt lat="42.99414" lon="-2.88118">
        <ele>430.4</ele>
        <time>2021-05-29 18:44:36</time>
      </trkpt>
      <trkpt lat="42.99408" lon="-2.88114">
        <ele>430.6</ele>
        <time>2021-05-29 18:44:37</time>
      </trkpt>
      <trkpt lat="42.99401" lon="-2.88109">
        <ele>430.6</ele>
        <time>2021-05-29 18:44:38</time>
      </trkpt>
      <trkpt lat="42.99395" lon="-2.88104">
        <ele>430.6</ele>
        <time>2021-05-29 18:44:39</time>
      </trkpt>
      <trkpt lat="42.99389" lon="-2.88098">
        <ele>430.8</ele>
        <time>2021-05-29 18:44:40</time>
      </trkpt>
      <trkpt lat="42.99383" lon="-2.88093">
        <ele>430.8</ele>
        <time>2021-05-29 18:44:41</time>
      </trkpt>
      <trkpt lat="42.99377" lon="-2.88086">
        <ele>431.2</ele>
        <time>2021-05-29 18:44:42</time>
      </trkpt>
      <trkpt lat="42.99371" lon="-2.8808">
        <ele>431.4</ele>
        <time>2021-05-29 18:44:43</time>
      </trkpt>
      <trkpt lat="42.99365" lon="-2.88074">
        <ele>431.8</ele>
        <time>2021-05-29 18:44:44</time>
      </trkpt>
      <trkpt lat="42.99359" lon="-2.88067">
        <ele>432</ele>
        <time>2021-05-29 18:44:45</time>
      </trkpt>
      <trkpt lat="42.99353" lon="-2.8806">
        <ele>432.4</ele>
        <time>2021-05-29 18:44:46</time>
      </trkpt>
      <trkpt lat="42.99347" lon="-2.88053">
        <ele>432.6</ele>
        <time>2021-05-29 18:44:47</time>
      </trkpt>
      <trkpt lat="42.99341" lon="-2.88046">
        <ele>432.6</ele>
        <time>2021-05-29 18:44:48</time>
      </trkpt>
      <trkpt lat="42.99335" lon="-2.88039">
        <ele>432.8</ele>
        <time>2021-05-29 18:44:49</time>
      </trkpt>
      <trkpt lat="42.9933" lon="-2.88031">
        <ele>433.4</ele>
        <time>2021-05-29 18:44:50</time>
      </trkpt>
      <trkpt lat="42.99324" lon="-2.88025">
        <ele>433.4</ele>
        <time>2021-05-29 18:44:51</time>
      </trkpt>
      <trkpt lat="42.99318" lon="-2.88017">
        <ele>433.6</ele>
        <time>2021-05-29 18:44:52</time>
      </trkpt>
      <trkpt lat="42.99313" lon="-2.8801">
        <ele>433.6</ele>
        <time>2021-05-29 18:44:53</time>
      </trkpt>
      <trkpt lat="42.99308" lon="-2.88003">
        <ele>433.8</ele>
        <time>2021-05-29 18:44:54</time>
      </trkpt>
      <trkpt lat="42.99303" lon="-2.87995">
        <ele>434</ele>
        <time>2021-05-29 18:44:55</time>
      </trkpt>
      <trkpt lat="42.99297" lon="-2.87988">
        <ele>434.2</ele>
        <time>2021-05-29 18:44:56</time>
      </trkpt>
      <trkpt lat="42.99292" lon="-2.87981">
        <ele>434.4</ele>
        <time>2021-05-29 18:44:57</time>
      </trkpt>
      <trkpt lat="42.99287" lon="-2.87973">
        <ele>434.8</ele>
        <time>2021-05-29 18:44:58</time>
      </trkpt>
      <trkpt lat="42.99282" lon="-2.87966">
        <ele>434.8</ele>
        <time>2021-05-29 18:44:59</time>
      </trkpt>
      <trkpt lat="42.99276" lon="-2.87958">
        <ele>435.2</ele>
        <time>2021-05-29 18:45:00</time>
      </trkpt>
      <trkpt lat="42.9927" lon="-2.87951">
        <ele>435.2</ele>
        <time>2021-05-29 18:45:01</time>
      </trkpt>
      <trkpt lat="42.99264" lon="-2.87944">
        <ele>435.4</ele>
        <time>2021-05-29 18:45:02</time>
      </trkpt>
      <trkpt lat="42.99258" lon="-2.87937">
        <ele>435.4</ele>
        <time>2021-05-29 18:45:03</time>
      </trkpt>
      <trkpt lat="42.99252" lon="-2.87931">
        <ele>435.6</ele>
        <time>2021-05-29 18:45:04</time>
      </trkpt>
      <trkpt lat="42.99246" lon="-2.87925">
        <ele>435.6</ele>
        <time>2021-05-29 18:45:05</time>
      </trkpt>
      <trkpt lat="42.99239" lon="-2.8792">
        <ele>435.8</ele>
        <time>2021-05-29 18:45:06</time>
      </trkpt>
      <trkpt lat="42.99232" lon="-2.87915">
        <ele>436</ele>
        <time>2021-05-29 18:45:07</time>
      </trkpt>
      <trkpt lat="42.99225" lon="-2.87911">
        <ele>436.2</ele>
        <time>2021-05-29 18:45:08</time>
      </trkpt>
      <trkpt lat="42.99218" lon="-2.87907">
        <ele>436.2</ele>
        <time>2021-05-29 18:45:09</time>
      </trkpt>
      <trkpt lat="42.9921" lon="-2.87903">
        <ele>436.4</ele>
        <time>2021-05-29 18:45:10</time>
      </trkpt>
      <trkpt lat="42.99203" lon="-2.87901">
        <ele>436.8</ele>
        <time>2021-05-29 18:45:11</time>
      </trkpt>
      <trkpt lat="42.99196" lon="-2.87898">
        <ele>437</ele>
        <time>2021-05-29 18:45:12</time>
      </trkpt>
      <trkpt lat="42.99188" lon="-2.87896">
        <ele>437.2</ele>
        <time>2021-05-29 18:45:13</time>
      </trkpt>
      <trkpt lat="42.99181" lon="-2.87893">
        <ele>437.4</ele>
        <time>2021-05-29 18:45:14</time>
      </trkpt>
      <trkpt lat="42.99174" lon="-2.87891">
        <ele>437.4</ele>
        <time>2021-05-29 18:45:15</time>
      </trkpt>
      <trkpt lat="42.99168" lon="-2.87889">
        <ele>437.6</ele>
        <time>2021-05-29 18:45:16</time>
      </trkpt>
      <trkpt lat="42.99161" lon="-2.87887">
        <ele>437.8</ele>
        <time>2021-05-29 18:45:17</time>
      </trkpt>
      <trkpt lat="42.99154" lon="-2.87885">
        <ele>438</ele>
        <time>2021-05-29 18:45:18</time>
      </trkpt>
      <trkpt lat="42.99148" lon="-2.87884">
        <ele>438.2</ele>
        <time>2021-05-29 18:45:19</time>
      </trkpt>
      <trkpt lat="42.99141" lon="-2.87883">
        <ele>438.2</ele>
        <time>2021-05-29 18:45:20</time>
      </trkpt>
      <trkpt lat="42.99135" lon="-2.87881">
        <ele>438.4</ele>
        <time>2021-05-29 18:45:21</time>
      </trkpt>
      <trkpt lat="42.99129" lon="-2.87879">
        <ele>438.8</ele>
        <time>2021-05-29 18:45:22</time>
      </trkpt>
      <trkpt lat="42.99122" lon="-2.87878">
        <ele>439.2</ele>
        <time>2021-05-29 18:45:23</time>
      </trkpt>
      <trkpt lat="42.99116" lon="-2.87876">
        <ele>439.6</ele>
        <time>2021-05-29 18:45:24</time>
      </trkpt>
      <trkpt lat="42.9911" lon="-2.87875">
        <ele>440.4</ele>
        <time>2021-05-29 18:45:25</time>
      </trkpt>
      <trkpt lat="42.99104" lon="-2.87873">
        <ele>440.8</ele>
        <time>2021-05-29 18:45:26</time>
      </trkpt>
      <trkpt lat="42.99097" lon="-2.87872">
        <ele>441.2</ele>
        <time>2021-05-29 18:45:27</time>
      </trkpt>
      <trkpt lat="42.99091" lon="-2.87871">
        <ele>441.6</ele>
        <time>2021-05-29 18:45:28</time>
      </trkpt>
      <trkpt lat="42.99085" lon="-2.87869">
        <ele>442</ele>
        <time>2021-05-29 18:45:29</time>
      </trkpt>
      <trkpt lat="42.99079" lon="-2.87867">
        <ele>442.4</ele>
        <time>2021-05-29 18:45:30</time>
      </trkpt>
      <trkpt lat="42.99073" lon="-2.87866">
        <ele>442.8</ele>
        <time>2021-05-29 18:45:31</time>
      </trkpt>
      <trkpt lat="42.99067" lon="-2.87865">
        <ele>443</ele>
        <time>2021-05-29 18:45:32</time>
      </trkpt>
      <trkpt lat="42.99061" lon="-2.87863">
        <ele>443.4</ele>
        <time>2021-05-29 18:45:33</time>
      </trkpt>
      <trkpt lat="42.99056" lon="-2.87861">
        <ele>443.8</ele>
        <time>2021-05-29 18:45:34</time>
      </trkpt>
      <trkpt lat="42.9905" lon="-2.8786">
        <ele>444</ele>
        <time>2021-05-29 18:45:35</time>
      </trkpt>
      <trkpt lat="42.99044" lon="-2.87858">
        <ele>444.4</ele>
        <time>2021-05-29 18:45:36</time>
      </trkpt>
      <trkpt lat="42.99038" lon="-2.87857">
        <ele>444.6</ele>
        <time>2021-05-29 18:45:37</time>
      </trkpt>
      <trkpt lat="42.99032" lon="-2.87855">
        <ele>444.8</ele>
        <time>2021-05-29 18:45:38</time>
      </trkpt>
      <trkpt lat="42.99026" lon="-2.87854">
        <ele>445</ele>
        <time>2021-05-29 18:45:39</time>
      </trkpt>
      <trkpt lat="42.9902" lon="-2.87852">
        <ele>445.2</ele>
        <time>2021-05-29 18:45:40</time>
      </trkpt>
      <trkpt lat="42.99015" lon="-2.8785">
        <ele>445.4</ele>
        <time>2021-05-29 18:45:41</time>
      </trkpt>
      <trkpt lat="42.99009" lon="-2.87848">
        <ele>445.6</ele>
        <time>2021-05-29 18:45:42</time>
      </trkpt>
      <trkpt lat="42.99003" lon="-2.87846">
        <ele>445.8</ele>
        <time>2021-05-29 18:45:43</time>
      </trkpt>
      <trkpt lat="42.98998" lon="-2.87844">
        <ele>446.2</ele>
        <time>2021-05-29 18:45:44</time>
      </trkpt>
      <trkpt lat="42.98993" lon="-2.87842">
        <ele>446.4</ele>
        <time>2021-05-29 18:45:45</time>
      </trkpt>
      <trkpt lat="42.98987" lon="-2.8784">
        <ele>446.8</ele>
        <time>2021-05-29 18:45:46</time>
      </trkpt>
      <trkpt lat="42.98982" lon="-2.87837">
        <ele>447</ele>
        <time>2021-05-29 18:45:47</time>
      </trkpt>
      <trkpt lat="42.98977" lon="-2.87835">
        <ele>447.2</ele>
        <time>2021-05-29 18:45:48</time>
      </trkpt>
      <trkpt lat="42.98972" lon="-2.87832">
        <ele>447.6</ele>
        <time>2021-05-29 18:45:49</time>
      </trkpt>
      <trkpt lat="42.98968" lon="-2.8783">
        <ele>447.8</ele>
        <time>2021-05-29 18:45:50</time>
      </trkpt>
      <trkpt lat="42.98963" lon="-2.87827">
        <ele>448.2</ele>
        <time>2021-05-29 18:45:51</time>
      </trkpt>
      <trkpt lat="42.98959" lon="-2.87823">
        <ele>448.8</ele>
        <time>2021-05-29 18:45:52</time>
      </trkpt>
      <trkpt lat="42.98955" lon="-2.8782">
        <ele>449</ele>
        <time>2021-05-29 18:45:53</time>
      </trkpt>
      <trkpt lat="42.9895" lon="-2.87817">
        <ele>449.2</ele>
        <time>2021-05-29 18:45:54</time>
      </trkpt>
      <trkpt lat="42.98946" lon="-2.87813">
        <ele>449.6</ele>
        <time>2021-05-29 18:45:55</time>
      </trkpt>
      <trkpt lat="42.98942" lon="-2.8781">
        <ele>450</ele>
        <time>2021-05-29 18:45:56</time>
      </trkpt>
      <trkpt lat="42.98938" lon="-2.87806">
        <ele>450.4</ele>
        <time>2021-05-29 18:45:57</time>
      </trkpt>
      <trkpt lat="42.98935" lon="-2.87803">
        <ele>450.8</ele>
        <time>2021-05-29 18:45:58</time>
      </trkpt>
      <trkpt lat="42.98931" lon="-2.87799">
        <ele>451.4</ele>
        <time>2021-05-29 18:45:59</time>
      </trkpt>
      <trkpt lat="42.98927" lon="-2.87796">
        <ele>452</ele>
        <time>2021-05-29 18:46:00</time>
      </trkpt>
      <trkpt lat="42.98924" lon="-2.87792">
        <ele>452.4</ele>
        <time>2021-05-29 18:46:01</time>
      </trkpt>
      <trkpt lat="42.98921" lon="-2.87789">
        <ele>452.8</ele>
        <time>2021-05-29 18:46:02</time>
      </trkpt>
      <trkpt lat="42.98918" lon="-2.87787">
        <ele>453.2</ele>
        <time>2021-05-29 18:46:03</time>
      </trkpt>
      <trkpt lat="42.98915" lon="-2.87784">
        <ele>453.8</ele>
        <time>2021-05-29 18:46:04</time>
      </trkpt>
      <trkpt lat="42.98912" lon="-2.87781">
        <ele>454.2</ele>
        <time>2021-05-29 18:46:05</time>
      </trkpt>
      <trkpt lat="42.98909" lon="-2.87778">
        <ele>454.6</ele>
        <time>2021-05-29 18:46:06</time>
      </trkpt>
      <trkpt lat="42.98906" lon="-2.87774">
        <ele>455</ele>
        <time>2021-05-29 18:46:07</time>
      </trkpt>
      <trkpt lat="42.98903" lon="-2.8777">
        <ele>455.4</ele>
        <time>2021-05-29 18:46:08</time>
      </trkpt>
      <trkpt lat="42.989" lon="-2.87765">
        <ele>455.8</ele>
        <time>2021-05-29 18:46:09</time>
      </trkpt>
      <trkpt lat="42.98897" lon="-2.8776">
        <ele>456.2</ele>
        <time>2021-05-29 18:46:10</time>
      </trkpt>
      <trkpt lat="42.98894" lon="-2.87754">
        <ele>456.6</ele>
        <time>2021-05-29 18:46:11</time>
      </trkpt>
      <trkpt lat="42.98891" lon="-2.87749">
        <ele>457</ele>
        <time>2021-05-29 18:46:12</time>
      </trkpt>
      <trkpt lat="42.98888" lon="-2.87743">
        <ele>457.4</ele>
        <time>2021-05-29 18:46:13</time>
      </trkpt>
      <trkpt lat="42.98885" lon="-2.87737">
        <ele>457.8</ele>
        <time>2021-05-29 18:46:14</time>
      </trkpt>
      <trkpt lat="42.98882" lon="-2.87731">
        <ele>458.2</ele>
        <time>2021-05-29 18:46:15</time>
      </trkpt>
      <trkpt lat="42.9888" lon="-2.87725">
        <ele>458.8</ele>
        <time>2021-05-29 18:46:16</time>
      </trkpt>
      <trkpt lat="42.98877" lon="-2.87718">
        <ele>459.2</ele>
        <time>2021-05-29 18:46:17</time>
      </trkpt>
      <trkpt lat="42.98876" lon="-2.87712">
        <ele>459.6</ele>
        <time>2021-05-29 18:46:18</time>
      </trkpt>
      <trkpt lat="42.98874" lon="-2.87706">
        <ele>460</ele>
        <time>2021-05-29 18:46:19</time>
      </trkpt>
      <trkpt lat="42.98872" lon="-2.877">
        <ele>460.6</ele>
        <time>2021-05-29 18:46:20</time>
      </trkpt>
      <trkpt lat="42.9887" lon="-2.87694">
        <ele>461.2</ele>
        <time>2021-05-29 18:46:21</time>
      </trkpt>
      <trkpt lat="42.98869" lon="-2.87688">
        <ele>461.6</ele>
        <time>2021-05-29 18:46:22</time>
      </trkpt>
      <trkpt lat="42.98867" lon="-2.87682">
        <ele>462.2</ele>
        <time>2021-05-29 18:46:23</time>
      </trkpt>
      <trkpt lat="42.98866" lon="-2.87676">
        <ele>462.6</ele>
        <time>2021-05-29 18:46:24</time>
      </trkpt>
      <trkpt lat="42.98865" lon="-2.8767">
        <ele>463.2</ele>
        <time>2021-05-29 18:46:25</time>
      </trkpt>
      <trkpt lat="42.98863" lon="-2.87664">
        <ele>463.6</ele>
        <time>2021-05-29 18:46:26</time>
      </trkpt>
      <trkpt lat="42.98862" lon="-2.87658">
        <ele>464.2</ele>
        <time>2021-05-29 18:46:27</time>
      </trkpt>
      <trkpt lat="42.98861" lon="-2.87652">
        <ele>464.8</ele>
        <time>2021-05-29 18:46:28</time>
      </trkpt>
      <trkpt lat="42.9886" lon="-2.87646">
        <ele>465.2</ele>
        <time>2021-05-29 18:46:29</time>
      </trkpt>
      <trkpt lat="42.98859" lon="-2.8764">
        <ele>465.6</ele>
        <time>2021-05-29 18:46:30</time>
      </trkpt>
      <trkpt lat="42.98858" lon="-2.87635">
        <ele>466</ele>
        <time>2021-05-29 18:46:31</time>
      </trkpt>
      <trkpt lat="42.98857" lon="-2.87629">
        <ele>466.4</ele>
        <time>2021-05-29 18:46:32</time>
      </trkpt>
      <trkpt lat="42.98856" lon="-2.87623">
        <ele>466.8</ele>
        <time>2021-05-29 18:46:33</time>
      </trkpt>
      <trkpt lat="42.98855" lon="-2.87618">
        <ele>467.8</ele>
        <time>2021-05-29 18:46:34</time>
      </trkpt>
      <trkpt lat="42.98854" lon="-2.87612">
        <ele>468.4</ele>
        <time>2021-05-29 18:46:35</time>
      </trkpt>
      <trkpt lat="42.98853" lon="-2.87607">
        <ele>468.8</ele>
        <time>2021-05-29 18:46:36</time>
      </trkpt>
      <trkpt lat="42.98853" lon="-2.87601">
        <ele>469.2</ele>
        <time>2021-05-29 18:46:37</time>
      </trkpt>
      <trkpt lat="42.98852" lon="-2.87595">
        <ele>469.6</ele>
        <time>2021-05-29 18:46:38</time>
      </trkpt>
      <trkpt lat="42.98851" lon="-2.8759">
        <ele>470</ele>
        <time>2021-05-29 18:46:39</time>
      </trkpt>
      <trkpt lat="42.98851" lon="-2.87585">
        <ele>470.4</ele>
        <time>2021-05-29 18:46:40</time>
      </trkpt>
      <trkpt lat="42.9885" lon="-2.8758">
        <ele>470.8</ele>
        <time>2021-05-29 18:46:41</time>
      </trkpt>
      <trkpt lat="42.9885" lon="-2.87575">
        <ele>471.2</ele>
        <time>2021-05-29 18:46:42</time>
      </trkpt>
      <trkpt lat="42.98849" lon="-2.87571">
        <ele>471.6</ele>
        <time>2021-05-29 18:46:43</time>
      </trkpt>
      <trkpt lat="42.98849" lon="-2.87566">
        <ele>472</ele>
        <time>2021-05-29 18:46:44</time>
      </trkpt>
      <trkpt lat="42.98849" lon="-2.87562">
        <ele>472.4</ele>
        <time>2021-05-29 18:46:45</time>
      </trkpt>
      <trkpt lat="42.98848" lon="-2.87557">
        <ele>472.6</ele>
        <time>2021-05-29 18:46:46</time>
      </trkpt>
      <trkpt lat="42.98847" lon="-2.87553">
        <ele>473</ele>
        <time>2021-05-29 18:46:47</time>
      </trkpt>
      <trkpt lat="42.98847" lon="-2.87548">
        <ele>473.4</ele>
        <time>2021-05-29 18:46:48</time>
      </trkpt>
      <trkpt lat="42.98846" lon="-2.87544">
        <ele>474</ele>
        <time>2021-05-29 18:46:49</time>
      </trkpt>
      <trkpt lat="42.98846" lon="-2.8754">
        <ele>474.4</ele>
        <time>2021-05-29 18:46:50</time>
      </trkpt>
      <trkpt lat="42.98846" lon="-2.87535">
        <ele>474.8</ele>
        <time>2021-05-29 18:46:51</time>
      </trkpt>
      <trkpt lat="42.98846" lon="-2.87531">
        <ele>475</ele>
        <time>2021-05-29 18:46:52</time>
      </trkpt>
      <trkpt lat="42.98846" lon="-2.87527">
        <ele>475.4</ele>
        <time>2021-05-29 18:46:53</time>
      </trkpt>
      <trkpt lat="42.98845" lon="-2.87523">
        <ele>475.8</ele>
        <time>2021-05-29 18:46:54</time>
      </trkpt>
      <trkpt lat="42.98845" lon="-2.87518">
        <ele>476.2</ele>
        <time>2021-05-29 18:46:55</time>
      </trkpt>
      <trkpt lat="42.98844" lon="-2.87514">
        <ele>476.4</ele>
        <time>2021-05-29 18:46:56</time>
      </trkpt>
      <trkpt lat="42.98844" lon="-2.8751">
        <ele>476.8</ele>
        <time>2021-05-29 18:46:57</time>
      </trkpt>
      <trkpt lat="42.98843" lon="-2.87506">
        <ele>477.2</ele>
        <time>2021-05-29 18:46:58</time>
      </trkpt>
      <trkpt lat="42.98842" lon="-2.87502">
        <ele>477.2</ele>
        <time>2021-05-29 18:46:59</time>
      </trkpt>
      <trkpt lat="42.98841" lon="-2.87497">
        <ele>477.6</ele>
        <time>2021-05-29 18:47:00</time>
      </trkpt>
      <trkpt lat="42.98841" lon="-2.87493">
        <ele>478</ele>
        <time>2021-05-29 18:47:01</time>
      </trkpt>
      <trkpt lat="42.9884" lon="-2.87489">
        <ele>478.4</ele>
        <time>2021-05-29 18:47:02</time>
      </trkpt>
      <trkpt lat="42.9884" lon="-2.87484">
        <ele>478.6</ele>
        <time>2021-05-29 18:47:03</time>
      </trkpt>
      <trkpt lat="42.9884" lon="-2.8748">
        <ele>479</ele>
        <time>2021-05-29 18:47:04</time>
      </trkpt>
      <trkpt lat="42.98839" lon="-2.87476">
        <ele>479.2</ele>
        <time>2021-05-29 18:47:05</time>
      </trkpt>
      <trkpt lat="42.98839" lon="-2.87471">
        <ele>479.6</ele>
        <time>2021-05-29 18:47:06</time>
      </trkpt>
      <trkpt lat="42.98838" lon="-2.87467">
        <ele>480</ele>
        <time>2021-05-29 18:47:07</time>
      </trkpt>
      <trkpt lat="42.98838" lon="-2.87463">
        <ele>480.8</ele>
        <time>2021-05-29 18:47:08</time>
      </trkpt>
      <trkpt lat="42.98837" lon="-2.87459">
        <ele>481</ele>
        <time>2021-05-29 18:47:09</time>
      </trkpt>
      <trkpt lat="42.98837" lon="-2.87454">
        <ele>481.4</ele>
        <time>2021-05-29 18:47:10</time>
      </trkpt>
      <trkpt lat="42.98837" lon="-2.8745">
        <ele>481.8</ele>
        <time>2021-05-29 18:47:11</time>
      </trkpt>
      <trkpt lat="42.98836" lon="-2.87446">
        <ele>482.2</ele>
        <time>2021-05-29 18:47:12</time>
      </trkpt>
      <trkpt lat="42.98836" lon="-2.87442">
        <ele>482.6</ele>
        <time>2021-05-29 18:47:13</time>
      </trkpt>
      <trkpt lat="42.98835" lon="-2.87438">
        <ele>483</ele>
        <time>2021-05-29 18:47:14</time>
      </trkpt>
      <trkpt lat="42.98835" lon="-2.87433">
        <ele>483.2</ele>
        <time>2021-05-29 18:47:15</time>
      </trkpt>
      <trkpt lat="42.98834" lon="-2.87429">
        <ele>483.6</ele>
        <time>2021-05-29 18:47:16</time>
      </trkpt>
      <trkpt lat="42.98834" lon="-2.87424">
        <ele>484.2</ele>
        <time>2021-05-29 18:47:17</time>
      </trkpt>
      <trkpt lat="42.98833" lon="-2.8742">
        <ele>484.6</ele>
        <time>2021-05-29 18:47:18</time>
      </trkpt>
      <trkpt lat="42.98832" lon="-2.87415">
        <ele>484.8</ele>
        <time>2021-05-29 18:47:19</time>
      </trkpt>
      <trkpt lat="42.9883" lon="-2.87411">
        <ele>485.2</ele>
        <time>2021-05-29 18:47:20</time>
      </trkpt>
      <trkpt lat="42.98829" lon="-2.87407">
        <ele>485.4</ele>
        <time>2021-05-29 18:47:21</time>
      </trkpt>
      <trkpt lat="42.98828" lon="-2.87403">
        <ele>485.6</ele>
        <time>2021-05-29 18:47:22</time>
      </trkpt>
      <trkpt lat="42.98826" lon="-2.87399">
        <ele>486</ele>
        <time>2021-05-29 18:47:23</time>
      </trkpt>
      <trkpt lat="42.98825" lon="-2.87394">
        <ele>486.4</ele>
        <time>2021-05-29 18:47:24</time>
      </trkpt>
      <trkpt lat="42.98824" lon="-2.8739">
        <ele>486.6</ele>
        <time>2021-05-29 18:47:25</time>
      </trkpt>
      <trkpt lat="42.98823" lon="-2.87385">
        <ele>487</ele>
        <time>2021-05-29 18:47:26</time>
      </trkpt>
      <trkpt lat="42.98822" lon="-2.87381">
        <ele>487.2</ele>
        <time>2021-05-29 18:47:27</time>
      </trkpt>
      <trkpt lat="42.98821" lon="-2.87376">
        <ele>487.6</ele>
        <time>2021-05-29 18:47:28</time>
      </trkpt>
      <trkpt lat="42.9882" lon="-2.87372">
        <ele>488</ele>
        <time>2021-05-29 18:47:29</time>
      </trkpt>
      <trkpt lat="42.98819" lon="-2.87367">
        <ele>488.2</ele>
        <time>2021-05-29 18:47:30</time>
      </trkpt>
      <trkpt lat="42.98818" lon="-2.87362">
        <ele>488.6</ele>
        <time>2021-05-29 18:47:31</time>
      </trkpt>
      <trkpt lat="42.98816" lon="-2.87357">
        <ele>488.8</ele>
        <time>2021-05-29 18:47:32</time>
      </trkpt>
      <trkpt lat="42.98815" lon="-2.87352">
        <ele>489</ele>
        <time>2021-05-29 18:47:33</time>
      </trkpt>
      <trkpt lat="42.98814" lon="-2.87347">
        <ele>489.4</ele>
        <time>2021-05-29 18:47:34</time>
      </trkpt>
      <trkpt lat="42.98812" lon="-2.87343">
        <ele>489.8</ele>
        <time>2021-05-29 18:47:35</time>
      </trkpt>
      <trkpt lat="42.98811" lon="-2.87338">
        <ele>490</ele>
        <time>2021-05-29 18:47:36</time>
      </trkpt>
      <trkpt lat="42.98809" lon="-2.87332">
        <ele>490.2</ele>
        <time>2021-05-29 18:47:37</time>
      </trkpt>
      <trkpt lat="42.98807" lon="-2.87327">
        <ele>490.6</ele>
        <time>2021-05-29 18:47:38</time>
      </trkpt>
      <trkpt lat="42.98805" lon="-2.87322">
        <ele>491</ele>
        <time>2021-05-29 18:47:39</time>
      </trkpt>
      <trkpt lat="42.98804" lon="-2.87317">
        <ele>491.4</ele>
        <time>2021-05-29 18:47:40</time>
      </trkpt>
      <trkpt lat="42.98803" lon="-2.87312">
        <ele>491.6</ele>
        <time>2021-05-29 18:47:41</time>
      </trkpt>
      <trkpt lat="42.98801" lon="-2.87307">
        <ele>492.4</ele>
        <time>2021-05-29 18:47:42</time>
      </trkpt>
      <trkpt lat="42.98799" lon="-2.87301">
        <ele>492.8</ele>
        <time>2021-05-29 18:47:43</time>
      </trkpt>
      <trkpt lat="42.98798" lon="-2.87296">
        <ele>493.2</ele>
        <time>2021-05-29 18:47:44</time>
      </trkpt>
      <trkpt lat="42.98796" lon="-2.8729">
        <ele>493.4</ele>
        <time>2021-05-29 18:47:45</time>
      </trkpt>
      <trkpt lat="42.98794" lon="-2.87285">
        <ele>494</ele>
        <time>2021-05-29 18:47:46</time>
      </trkpt>
      <trkpt lat="42.98792" lon="-2.87279">
        <ele>494.4</ele>
        <time>2021-05-29 18:47:47</time>
      </trkpt>
      <trkpt lat="42.9879" lon="-2.87273">
        <ele>494.8</ele>
        <time>2021-05-29 18:47:48</time>
      </trkpt>
      <trkpt lat="42.98789" lon="-2.87267">
        <ele>495.2</ele>
        <time>2021-05-29 18:47:49</time>
      </trkpt>
      <trkpt lat="42.98787" lon="-2.87262">
        <ele>495.6</ele>
        <time>2021-05-29 18:47:50</time>
      </trkpt>
      <trkpt lat="42.98786" lon="-2.87256">
        <ele>496</ele>
        <time>2021-05-29 18:47:51</time>
      </trkpt>
      <trkpt lat="42.98784" lon="-2.87249">
        <ele>496.4</ele>
        <time>2021-05-29 18:47:52</time>
      </trkpt>
      <trkpt lat="42.98783" lon="-2.87242">
        <ele>496.8</ele>
        <time>2021-05-29 18:47:53</time>
      </trkpt>
      <trkpt lat="42.98781" lon="-2.87236">
        <ele>497.2</ele>
        <time>2021-05-29 18:47:54</time>
      </trkpt>
      <trkpt lat="42.9878" lon="-2.87229">
        <ele>497.4</ele>
        <time>2021-05-29 18:47:55</time>
      </trkpt>
      <trkpt lat="42.98779" lon="-2.87221">
        <ele>497.8</ele>
        <time>2021-05-29 18:47:56</time>
      </trkpt>
      <trkpt lat="42.98778" lon="-2.87214">
        <ele>498</ele>
        <time>2021-05-29 18:47:57</time>
      </trkpt>
      <trkpt lat="42.98777" lon="-2.87207">
        <ele>498.4</ele>
        <time>2021-05-29 18:47:58</time>
      </trkpt>
      <trkpt lat="42.98777" lon="-2.872">
        <ele>498.6</ele>
        <time>2021-05-29 18:47:59</time>
      </trkpt>
      <trkpt lat="42.98777" lon="-2.87192">
        <ele>499</ele>
        <time>2021-05-29 18:48:00</time>
      </trkpt>
      <trkpt lat="42.98777" lon="-2.87185">
        <ele>499.2</ele>
        <time>2021-05-29 18:48:01</time>
      </trkpt>
      <trkpt lat="42.98776" lon="-2.87177">
        <ele>499.4</ele>
        <time>2021-05-29 18:48:02</time>
      </trkpt>
      <trkpt lat="42.98776" lon="-2.87169">
        <ele>499.6</ele>
        <time>2021-05-29 18:48:03</time>
      </trkpt>
      <trkpt lat="42.98776" lon="-2.87161">
        <ele>499.8</ele>
        <time>2021-05-29 18:48:04</time>
      </trkpt>
      <trkpt lat="42.98776" lon="-2.87153">
        <ele>499.8</ele>
        <time>2021-05-29 18:48:05</time>
      </trkpt>
      <trkpt lat="42.98776" lon="-2.87145">
        <ele>500.2</ele>
        <time>2021-05-29 18:48:06</time>
      </trkpt>
      <trkpt lat="42.98776" lon="-2.87137">
        <ele>500.4</ele>
        <time>2021-05-29 18:48:07</time>
      </trkpt>
      <trkpt lat="42.98776" lon="-2.87129">
        <ele>500.4</ele>
        <time>2021-05-29 18:48:08</time>
      </trkpt>
      <trkpt lat="42.98776" lon="-2.87121">
        <ele>500.4</ele>
        <time>2021-05-29 18:48:09</time>
      </trkpt>
      <trkpt lat="42.98776" lon="-2.87113">
        <ele>500.4</ele>
        <time>2021-05-29 18:48:10</time>
      </trkpt>
      <trkpt lat="42.98776" lon="-2.87106">
        <ele>500.6</ele>
        <time>2021-05-29 18:48:11</time>
      </trkpt>
      <trkpt lat="42.98776" lon="-2.87098">
        <ele>500.6</ele>
        <time>2021-05-29 18:48:12</time>
      </trkpt>
      <trkpt lat="42.98776" lon="-2.8709">
        <ele>500.8</ele>
        <time>2021-05-29 18:48:13</time>
      </trkpt>
      <trkpt lat="42.98776" lon="-2.87083">
        <ele>501</ele>
        <time>2021-05-29 18:48:14</time>
      </trkpt>
      <trkpt lat="42.98776" lon="-2.87076">
        <ele>501</ele>
        <time>2021-05-29 18:48:15</time>
      </trkpt>
      <trkpt lat="42.98776" lon="-2.87068">
        <ele>501.2</ele>
        <time>2021-05-29 18:48:16</time>
      </trkpt>
      <trkpt lat="42.98776" lon="-2.87061">
        <ele>501.8</ele>
        <time>2021-05-29 18:48:17</time>
      </trkpt>
      <trkpt lat="42.98776" lon="-2.87054">
        <ele>502</ele>
        <time>2021-05-29 18:48:18</time>
      </trkpt>
      <trkpt lat="42.98776" lon="-2.87047">
        <ele>502</ele>
        <time>2021-05-29 18:48:19</time>
      </trkpt>
      <trkpt lat="42.98776" lon="-2.8704">
        <ele>502.2</ele>
        <time>2021-05-29 18:48:20</time>
      </trkpt>
      <trkpt lat="42.98776" lon="-2.87033">
        <ele>502.6</ele>
        <time>2021-05-29 18:48:21</time>
      </trkpt>
      <trkpt lat="42.98776" lon="-2.87026">
        <ele>502.8</ele>
        <time>2021-05-29 18:48:22</time>
      </trkpt>
      <trkpt lat="42.98776" lon="-2.87019">
        <ele>503</ele>
        <time>2021-05-29 18:48:23</time>
      </trkpt>
      <trkpt lat="42.98776" lon="-2.87013">
        <ele>503.2</ele>
        <time>2021-05-29 18:48:24</time>
      </trkpt>
      <trkpt lat="42.98776" lon="-2.87006">
        <ele>503.8</ele>
        <time>2021-05-29 18:48:25</time>
      </trkpt>
      <trkpt lat="42.98776" lon="-2.87">
        <ele>504.2</ele>
        <time>2021-05-29 18:48:26</time>
      </trkpt>
      <trkpt lat="42.98776" lon="-2.86994">
        <ele>504.6</ele>
        <time>2021-05-29 18:48:27</time>
      </trkpt>
      <trkpt lat="42.98776" lon="-2.86987">
        <ele>505.2</ele>
        <time>2021-05-29 18:48:28</time>
      </trkpt>
      <trkpt lat="42.98776" lon="-2.86981">
        <ele>505.6</ele>
        <time>2021-05-29 18:48:29</time>
      </trkpt>
      <trkpt lat="42.98776" lon="-2.86974">
        <ele>506</ele>
        <time>2021-05-29 18:48:30</time>
      </trkpt>
      <trkpt lat="42.98776" lon="-2.86968">
        <ele>506.4</ele>
        <time>2021-05-29 18:48:31</time>
      </trkpt>
      <trkpt lat="42.98776" lon="-2.86962">
        <ele>506.6</ele>
        <time>2021-05-29 18:48:32</time>
      </trkpt>
      <trkpt lat="42.98775" lon="-2.86955">
        <ele>507</ele>
        <time>2021-05-29 18:48:33</time>
      </trkpt>
      <trkpt lat="42.98775" lon="-2.86949">
        <ele>507.2</ele>
        <time>2021-05-29 18:48:34</time>
      </trkpt>
      <trkpt lat="42.98775" lon="-2.86943">
        <ele>507.6</ele>
        <time>2021-05-29 18:48:35</time>
      </trkpt>
      <trkpt lat="42.98774" lon="-2.86937">
        <ele>508</ele>
        <time>2021-05-29 18:48:36</time>
      </trkpt>
      <trkpt lat="42.98774" lon="-2.86932">
        <ele>508.6</ele>
        <time>2021-05-29 18:48:37</time>
      </trkpt>
      <trkpt lat="42.98773" lon="-2.86926">
        <ele>508.8</ele>
        <time>2021-05-29 18:48:38</time>
      </trkpt>
      <trkpt lat="42.98773" lon="-2.8692">
        <ele>509.2</ele>
        <time>2021-05-29 18:48:39</time>
      </trkpt>
      <trkpt lat="42.98772" lon="-2.86915">
        <ele>509.6</ele>
        <time>2021-05-29 18:48:40</time>
      </trkpt>
      <trkpt lat="42.98771" lon="-2.8691">
        <ele>510</ele>
        <time>2021-05-29 18:48:41</time>
      </trkpt>
      <trkpt lat="42.9877" lon="-2.86905">
        <ele>510.4</ele>
        <time>2021-05-29 18:48:42</time>
      </trkpt>
      <trkpt lat="42.98769" lon="-2.869">
        <ele>510.6</ele>
        <time>2021-05-29 18:48:43</time>
      </trkpt>
      <trkpt lat="42.98768" lon="-2.86895">
        <ele>511</ele>
        <time>2021-05-29 18:48:44</time>
      </trkpt>
      <trkpt lat="42.98766" lon="-2.8689">
        <ele>511.4</ele>
        <time>2021-05-29 18:48:45</time>
      </trkpt>
      <trkpt lat="42.98765" lon="-2.86885">
        <ele>511.8</ele>
        <time>2021-05-29 18:48:46</time>
      </trkpt>
      <trkpt lat="42.98763" lon="-2.86881">
        <ele>512.2</ele>
        <time>2021-05-29 18:48:47</time>
      </trkpt>
      <trkpt lat="42.98761" lon="-2.86877">
        <ele>512.6</ele>
        <time>2021-05-29 18:48:48</time>
      </trkpt>
      <trkpt lat="42.9876" lon="-2.86872">
        <ele>513.2</ele>
        <time>2021-05-29 18:48:49</time>
      </trkpt>
      <trkpt lat="42.98758" lon="-2.86868">
        <ele>513.4</ele>
        <time>2021-05-29 18:48:50</time>
      </trkpt>
      <trkpt lat="42.98756" lon="-2.86864">
        <ele>514</ele>
        <time>2021-05-29 18:48:51</time>
      </trkpt>
      <trkpt lat="42.98754" lon="-2.8686">
        <ele>514.4</ele>
        <time>2021-05-29 18:48:52</time>
      </trkpt>
      <trkpt lat="42.98752" lon="-2.86857">
        <ele>514.8</ele>
        <time>2021-05-29 18:48:53</time>
      </trkpt>
      <trkpt lat="42.9875" lon="-2.86853">
        <ele>515.2</ele>
        <time>2021-05-29 18:48:54</time>
      </trkpt>
      <trkpt lat="42.98748" lon="-2.86849">
        <ele>515.8</ele>
        <time>2021-05-29 18:48:55</time>
      </trkpt>
      <trkpt lat="42.98746" lon="-2.86845">
        <ele>516.4</ele>
        <time>2021-05-29 18:48:56</time>
      </trkpt>
      <trkpt lat="42.98744" lon="-2.86841">
        <ele>516.6</ele>
        <time>2021-05-29 18:48:57</time>
      </trkpt>
      <trkpt lat="42.98741" lon="-2.86838">
        <ele>517</ele>
        <time>2021-05-29 18:48:58</time>
      </trkpt>
      <trkpt lat="42.98739" lon="-2.86834">
        <ele>517.2</ele>
        <time>2021-05-29 18:48:59</time>
      </trkpt>
      <trkpt lat="42.98737" lon="-2.8683">
        <ele>517.6</ele>
        <time>2021-05-29 18:49:00</time>
      </trkpt>
      <trkpt lat="42.98735" lon="-2.86827">
        <ele>518</ele>
        <time>2021-05-29 18:49:01</time>
      </trkpt>
      <trkpt lat="42.98733" lon="-2.86824">
        <ele>518.6</ele>
        <time>2021-05-29 18:49:02</time>
      </trkpt>
      <trkpt lat="42.9873" lon="-2.86821">
        <ele>518.8</ele>
        <time>2021-05-29 18:49:03</time>
      </trkpt>
      <trkpt lat="42.98728" lon="-2.86818">
        <ele>519.2</ele>
        <time>2021-05-29 18:49:04</time>
      </trkpt>
      <trkpt lat="42.98726" lon="-2.86814">
        <ele>519.8</ele>
        <time>2021-05-29 18:49:05</time>
      </trkpt>
      <trkpt lat="42.98723" lon="-2.86811">
        <ele>520.2</ele>
        <time>2021-05-29 18:49:06</time>
      </trkpt>
      <trkpt lat="42.98721" lon="-2.86808">
        <ele>520.4</ele>
        <time>2021-05-29 18:49:07</time>
      </trkpt>
      <trkpt lat="42.98718" lon="-2.86804">
        <ele>520.8</ele>
        <time>2021-05-29 18:49:08</time>
      </trkpt>
      <trkpt lat="42.98716" lon="-2.86801">
        <ele>521</ele>
        <time>2021-05-29 18:49:09</time>
      </trkpt>
      <trkpt lat="42.98713" lon="-2.86798">
        <ele>521.4</ele>
        <time>2021-05-29 18:49:10</time>
      </trkpt>
      <trkpt lat="42.98711" lon="-2.86795">
        <ele>521.8</ele>
        <time>2021-05-29 18:49:11</time>
      </trkpt>
      <trkpt lat="42.98709" lon="-2.86792">
        <ele>522.2</ele>
        <time>2021-05-29 18:49:12</time>
      </trkpt>
      <trkpt lat="42.98706" lon="-2.86789">
        <ele>522.6</ele>
        <time>2021-05-29 18:49:13</time>
      </trkpt>
      <trkpt lat="42.98704" lon="-2.86786">
        <ele>522.8</ele>
        <time>2021-05-29 18:49:14</time>
      </trkpt>
      <trkpt lat="42.98701" lon="-2.86783">
        <ele>523.4</ele>
        <time>2021-05-29 18:49:15</time>
      </trkpt>
      <trkpt lat="42.98699" lon="-2.8678">
        <ele>523.8</ele>
        <time>2021-05-29 18:49:16</time>
      </trkpt>
      <trkpt lat="42.98697" lon="-2.86777">
        <ele>524.2</ele>
        <time>2021-05-29 18:49:17</time>
      </trkpt>
      <trkpt lat="42.98694" lon="-2.86773">
        <ele>524.4</ele>
        <time>2021-05-29 18:49:18</time>
      </trkpt>
      <trkpt lat="42.98692" lon="-2.8677">
        <ele>524.6</ele>
        <time>2021-05-29 18:49:19</time>
      </trkpt>
      <trkpt lat="42.98689" lon="-2.86768">
        <ele>525</ele>
        <time>2021-05-29 18:49:20</time>
      </trkpt>
      <trkpt lat="42.98687" lon="-2.86765">
        <ele>525.4</ele>
        <time>2021-05-29 18:49:21</time>
      </trkpt>
      <trkpt lat="42.98685" lon="-2.86762">
        <ele>525.8</ele>
        <time>2021-05-29 18:49:22</time>
      </trkpt>
      <trkpt lat="42.98682" lon="-2.8676">
        <ele>526.2</ele>
        <time>2021-05-29 18:49:23</time>
      </trkpt>
      <trkpt lat="42.9868" lon="-2.86757">
        <ele>526.4</ele>
        <time>2021-05-29 18:49:24</time>
      </trkpt>
      <trkpt lat="42.98677" lon="-2.86754">
        <ele>526.6</ele>
        <time>2021-05-29 18:49:25</time>
      </trkpt>
      <trkpt lat="42.98675" lon="-2.86752">
        <ele>527.4</ele>
        <time>2021-05-29 18:49:26</time>
      </trkpt>
      <trkpt lat="42.98673" lon="-2.86749">
        <ele>527.8</ele>
        <time>2021-05-29 18:49:27</time>
      </trkpt>
      <trkpt lat="42.9867" lon="-2.86745">
        <ele>528.2</ele>
        <time>2021-05-29 18:49:28</time>
      </trkpt>
      <trkpt lat="42.98668" lon="-2.86743">
        <ele>528.6</ele>
        <time>2021-05-29 18:49:29</time>
      </trkpt>
      <trkpt lat="42.98666" lon="-2.8674">
        <ele>529</ele>
        <time>2021-05-29 18:49:30</time>
      </trkpt>
      <trkpt lat="42.98663" lon="-2.86737">
        <ele>529.2</ele>
        <time>2021-05-29 18:49:31</time>
      </trkpt>
      <trkpt lat="42.9866" lon="-2.86734">
        <ele>529.6</ele>
        <time>2021-05-29 18:49:32</time>
      </trkpt>
      <trkpt lat="42.98658" lon="-2.86732">
        <ele>530</ele>
        <time>2021-05-29 18:49:33</time>
      </trkpt>
      <trkpt lat="42.98655" lon="-2.86729">
        <ele>530.4</ele>
        <time>2021-05-29 18:49:34</time>
      </trkpt>
      <trkpt lat="42.98653" lon="-2.86726">
        <ele>530.6</ele>
        <time>2021-05-29 18:49:35</time>
      </trkpt>
      <trkpt lat="42.9865" lon="-2.86724">
        <ele>531</ele>
        <time>2021-05-29 18:49:36</time>
      </trkpt>
      <trkpt lat="42.98647" lon="-2.86721">
        <ele>531.4</ele>
        <time>2021-05-29 18:49:37</time>
      </trkpt>
      <trkpt lat="42.98644" lon="-2.86719">
        <ele>531.8</ele>
        <time>2021-05-29 18:49:38</time>
      </trkpt>
      <trkpt lat="42.98641" lon="-2.86717">
        <ele>532.2</ele>
        <time>2021-05-29 18:49:39</time>
      </trkpt>
      <trkpt lat="42.98639" lon="-2.86715">
        <ele>532.4</ele>
        <time>2021-05-29 18:49:40</time>
      </trkpt>
      <trkpt lat="42.98636" lon="-2.86714">
        <ele>532.8</ele>
        <time>2021-05-29 18:49:41</time>
      </trkpt>
      <trkpt lat="42.98633" lon="-2.86712">
        <ele>533.2</ele>
        <time>2021-05-29 18:49:42</time>
      </trkpt>
      <trkpt lat="42.9863" lon="-2.86711">
        <ele>533.4</ele>
        <time>2021-05-29 18:49:43</time>
      </trkpt>
      <trkpt lat="42.98627" lon="-2.86709">
        <ele>533.8</ele>
        <time>2021-05-29 18:49:44</time>
      </trkpt>
      <trkpt lat="42.98624" lon="-2.86707">
        <ele>534</ele>
        <time>2021-05-29 18:49:45</time>
      </trkpt>
      <trkpt lat="42.98621" lon="-2.86705">
        <ele>534.4</ele>
        <time>2021-05-29 18:49:46</time>
      </trkpt>
      <trkpt lat="42.98618" lon="-2.86704">
        <ele>534.6</ele>
        <time>2021-05-29 18:49:47</time>
      </trkpt>
      <trkpt lat="42.98615" lon="-2.86703">
        <ele>535</ele>
        <time>2021-05-29 18:49:48</time>
      </trkpt>
      <trkpt lat="42.98612" lon="-2.86702">
        <ele>535.4</ele>
        <time>2021-05-29 18:49:49</time>
      </trkpt>
      <trkpt lat="42.98609" lon="-2.86701">
        <ele>535.8</ele>
        <time>2021-05-29 18:49:50</time>
      </trkpt>
      <trkpt lat="42.98606" lon="-2.867">
        <ele>536</ele>
        <time>2021-05-29 18:49:51</time>
      </trkpt>
      <trkpt lat="42.98603" lon="-2.867">
        <ele>536.4</ele>
        <time>2021-05-29 18:49:52</time>
      </trkpt>
      <trkpt lat="42.986" lon="-2.86699">
        <ele>536.8</ele>
        <time>2021-05-29 18:49:53</time>
      </trkpt>
      <trkpt lat="42.98597" lon="-2.86699">
        <ele>537.2</ele>
        <time>2021-05-29 18:49:54</time>
      </trkpt>
      <trkpt lat="42.98594" lon="-2.86699">
        <ele>537.6</ele>
        <time>2021-05-29 18:49:55</time>
      </trkpt>
      <trkpt lat="42.9859" lon="-2.86699">
        <ele>537.8</ele>
        <time>2021-05-29 18:49:56</time>
      </trkpt>
      <trkpt lat="42.98587" lon="-2.86699">
        <ele>538.2</ele>
        <time>2021-05-29 18:49:57</time>
      </trkpt>
      <trkpt lat="42.98584" lon="-2.86699">
        <ele>538.6</ele>
        <time>2021-05-29 18:49:58</time>
      </trkpt>
      <trkpt lat="42.9858" lon="-2.86698">
        <ele>539</ele>
        <time>2021-05-29 18:49:59</time>
      </trkpt>
      <trkpt lat="42.98577" lon="-2.86697">
        <ele>539.4</ele>
        <time>2021-05-29 18:50:00</time>
      </trkpt>
      <trkpt lat="42.98574" lon="-2.86697">
        <ele>540</ele>
        <time>2021-05-29 18:50:01</time>
      </trkpt>
      <trkpt lat="42.98571" lon="-2.86697">
        <ele>540.4</ele>
        <time>2021-05-29 18:50:02</time>
      </trkpt>
      <trkpt lat="42.98568" lon="-2.86697">
        <ele>540.8</ele>
        <time>2021-05-29 18:50:03</time>
      </trkpt>
      <trkpt lat="42.98564" lon="-2.86697">
        <ele>541</ele>
        <time>2021-05-29 18:50:04</time>
      </trkpt>
      <trkpt lat="42.98561" lon="-2.86696">
        <ele>541.4</ele>
        <time>2021-05-29 18:50:05</time>
      </trkpt>
      <trkpt lat="42.98558" lon="-2.86697">
        <ele>541.6</ele>
        <time>2021-05-29 18:50:06</time>
      </trkpt>
      <trkpt lat="42.98554" lon="-2.86696">
        <ele>541.8</ele>
        <time>2021-05-29 18:50:07</time>
      </trkpt>
      <trkpt lat="42.98551" lon="-2.86696">
        <ele>542.2</ele>
        <time>2021-05-29 18:50:08</time>
      </trkpt>
      <trkpt lat="42.98547" lon="-2.86696">
        <ele>542.6</ele>
        <time>2021-05-29 18:50:09</time>
      </trkpt>
      <trkpt lat="42.98544" lon="-2.86696">
        <ele>543</ele>
        <time>2021-05-29 18:50:10</time>
      </trkpt>
      <trkpt lat="42.9854" lon="-2.86697">
        <ele>543.6</ele>
        <time>2021-05-29 18:50:11</time>
      </trkpt>
      <trkpt lat="42.98537" lon="-2.86697">
        <ele>543.8</ele>
        <time>2021-05-29 18:50:12</time>
      </trkpt>
      <trkpt lat="42.98534" lon="-2.86698">
        <ele>544.2</ele>
        <time>2021-05-29 18:50:13</time>
      </trkpt>
      <trkpt lat="42.9853" lon="-2.86698">
        <ele>544.4</ele>
        <time>2021-05-29 18:50:14</time>
      </trkpt>
      <trkpt lat="42.98527" lon="-2.86698">
        <ele>544.6</ele>
        <time>2021-05-29 18:50:15</time>
      </trkpt>
      <trkpt lat="42.98524" lon="-2.86699">
        <ele>545</ele>
        <time>2021-05-29 18:50:16</time>
      </trkpt>
      <trkpt lat="42.9852" lon="-2.867">
        <ele>545.4</ele>
        <time>2021-05-29 18:50:17</time>
      </trkpt>
      <trkpt lat="42.98517" lon="-2.86701">
        <ele>545.8</ele>
        <time>2021-05-29 18:50:18</time>
      </trkpt>
      <trkpt lat="42.98513" lon="-2.86702">
        <ele>546</ele>
        <time>2021-05-29 18:50:19</time>
      </trkpt>
      <trkpt lat="42.9851" lon="-2.86703">
        <ele>546.2</ele>
        <time>2021-05-29 18:50:20</time>
      </trkpt>
      <trkpt lat="42.98507" lon="-2.86704">
        <ele>546.6</ele>
        <time>2021-05-29 18:50:21</time>
      </trkpt>
      <trkpt lat="42.98503" lon="-2.86705">
        <ele>547</ele>
        <time>2021-05-29 18:50:22</time>
      </trkpt>
      <trkpt lat="42.985" lon="-2.86707">
        <ele>547.4</ele>
        <time>2021-05-29 18:50:23</time>
      </trkpt>
      <trkpt lat="42.98496" lon="-2.86709">
        <ele>547.8</ele>
        <time>2021-05-29 18:50:24</time>
      </trkpt>
      <trkpt lat="42.98493" lon="-2.86711">
        <ele>548</ele>
        <time>2021-05-29 18:50:25</time>
      </trkpt>
      <trkpt lat="42.9849" lon="-2.86712">
        <ele>548.4</ele>
        <time>2021-05-29 18:50:26</time>
      </trkpt>
      <trkpt lat="42.98487" lon="-2.86713">
        <ele>548.8</ele>
        <time>2021-05-29 18:50:27</time>
      </trkpt>
      <trkpt lat="42.98484" lon="-2.86715">
        <ele>549.2</ele>
        <time>2021-05-29 18:50:28</time>
      </trkpt>
      <trkpt lat="42.98481" lon="-2.86717">
        <ele>549.4</ele>
        <time>2021-05-29 18:50:29</time>
      </trkpt>
      <trkpt lat="42.98478" lon="-2.86718">
        <ele>549.8</ele>
        <time>2021-05-29 18:50:30</time>
      </trkpt>
      <trkpt lat="42.98474" lon="-2.8672">
        <ele>550</ele>
        <time>2021-05-29 18:50:31</time>
      </trkpt>
      <trkpt lat="42.98471" lon="-2.86721">
        <ele>550.4</ele>
        <time>2021-05-29 18:50:32</time>
      </trkpt>
      <trkpt lat="42.98468" lon="-2.86723">
        <ele>550.6</ele>
        <time>2021-05-29 18:50:33</time>
      </trkpt>
      <trkpt lat="42.98465" lon="-2.86724">
        <ele>550.8</ele>
        <time>2021-05-29 18:50:34</time>
      </trkpt>
      <trkpt lat="42.98462" lon="-2.86726">
        <ele>551.2</ele>
        <time>2021-05-29 18:50:35</time>
      </trkpt>
      <trkpt lat="42.98459" lon="-2.86727">
        <ele>551.8</ele>
        <time>2021-05-29 18:50:36</time>
      </trkpt>
      <trkpt lat="42.98457" lon="-2.8673">
        <ele>552</ele>
        <time>2021-05-29 18:50:37</time>
      </trkpt>
      <trkpt lat="42.98454" lon="-2.86732">
        <ele>552.4</ele>
        <time>2021-05-29 18:50:38</time>
      </trkpt>
      <trkpt lat="42.98452" lon="-2.86735">
        <ele>552.8</ele>
        <time>2021-05-29 18:50:39</time>
      </trkpt>
      <trkpt lat="42.98449" lon="-2.86737">
        <ele>553.2</ele>
        <time>2021-05-29 18:50:40</time>
      </trkpt>
      <trkpt lat="42.98446" lon="-2.86739">
        <ele>553.4</ele>
        <time>2021-05-29 18:50:41</time>
      </trkpt>
      <trkpt lat="42.98443" lon="-2.86741">
        <ele>553.6</ele>
        <time>2021-05-29 18:50:42</time>
      </trkpt>
      <trkpt lat="42.9844" lon="-2.86742">
        <ele>554</ele>
        <time>2021-05-29 18:50:43</time>
      </trkpt>
      <trkpt lat="42.98436" lon="-2.86744">
        <ele>554.4</ele>
        <time>2021-05-29 18:50:44</time>
      </trkpt>
      <trkpt lat="42.98433" lon="-2.86746">
        <ele>554.6</ele>
        <time>2021-05-29 18:50:45</time>
      </trkpt>
      <trkpt lat="42.9843" lon="-2.86747">
        <ele>555</ele>
        <time>2021-05-29 18:50:46</time>
      </trkpt>
      <trkpt lat="42.98427" lon="-2.86749">
        <ele>555.2</ele>
        <time>2021-05-29 18:50:47</time>
      </trkpt>
      <trkpt lat="42.98424" lon="-2.86751">
        <ele>555.4</ele>
        <time>2021-05-29 18:50:48</time>
      </trkpt>
      <trkpt lat="42.98421" lon="-2.86753">
        <ele>555.6</ele>
        <time>2021-05-29 18:50:49</time>
      </trkpt>
      <trkpt lat="42.98417" lon="-2.86755">
        <ele>556</ele>
        <time>2021-05-29 18:50:50</time>
      </trkpt>
      <trkpt lat="42.98415" lon="-2.86757">
        <ele>556.2</ele>
        <time>2021-05-29 18:50:51</time>
      </trkpt>
      <trkpt lat="42.98412" lon="-2.86759">
        <ele>556.4</ele>
        <time>2021-05-29 18:50:52</time>
      </trkpt>
      <trkpt lat="42.98409" lon="-2.86761">
        <ele>556.6</ele>
        <time>2021-05-29 18:50:53</time>
      </trkpt>
      <trkpt lat="42.98406" lon="-2.86763">
        <ele>556.8</ele>
        <time>2021-05-29 18:50:54</time>
      </trkpt>
      <trkpt lat="42.98403" lon="-2.86766">
        <ele>557</ele>
        <time>2021-05-29 18:50:55</time>
      </trkpt>
      <trkpt lat="42.98399" lon="-2.86768">
        <ele>557.4</ele>
        <time>2021-05-29 18:50:56</time>
      </trkpt>
      <trkpt lat="42.98396" lon="-2.8677">
        <ele>557.6</ele>
        <time>2021-05-29 18:50:57</time>
      </trkpt>
      <trkpt lat="42.98393" lon="-2.86772">
        <ele>557.8</ele>
        <time>2021-05-29 18:50:58</time>
      </trkpt>
      <trkpt lat="42.98389" lon="-2.86775">
        <ele>558</ele>
        <time>2021-05-29 18:50:59</time>
      </trkpt>
      <trkpt lat="42.98386" lon="-2.86777">
        <ele>558.4</ele>
        <time>2021-05-29 18:51:00</time>
      </trkpt>
      <trkpt lat="42.98382" lon="-2.86778">
        <ele>558.8</ele>
        <time>2021-05-29 18:51:01</time>
      </trkpt>
      <trkpt lat="42.98378" lon="-2.86779">
        <ele>559.2</ele>
        <time>2021-05-29 18:51:02</time>
      </trkpt>
      <trkpt lat="42.98374" lon="-2.8678">
        <ele>559.6</ele>
        <time>2021-05-29 18:51:03</time>
      </trkpt>
      <trkpt lat="42.9837" lon="-2.86782">
        <ele>560</ele>
        <time>2021-05-29 18:51:04</time>
      </trkpt>
      <trkpt lat="42.98366" lon="-2.86783">
        <ele>560.2</ele>
        <time>2021-05-29 18:51:05</time>
      </trkpt>
      <trkpt lat="42.98361" lon="-2.86785">
        <ele>560.6</ele>
        <time>2021-05-29 18:51:06</time>
      </trkpt>
      <trkpt lat="42.98357" lon="-2.86786">
        <ele>560.8</ele>
        <time>2021-05-29 18:51:07</time>
      </trkpt>
      <trkpt lat="42.98354" lon="-2.86787">
        <ele>561</ele>
        <time>2021-05-29 18:51:08</time>
      </trkpt>
      <trkpt lat="42.9835" lon="-2.8679">
        <ele>561.2</ele>
        <time>2021-05-29 18:51:09</time>
      </trkpt>
      <trkpt lat="42.98346" lon="-2.86791">
        <ele>562</ele>
        <time>2021-05-29 18:51:10</time>
      </trkpt>
      <trkpt lat="42.98342" lon="-2.86793">
        <ele>562.2</ele>
        <time>2021-05-29 18:51:11</time>
      </trkpt>
      <trkpt lat="42.98339" lon="-2.86795">
        <ele>562.6</ele>
        <time>2021-05-29 18:51:12</time>
      </trkpt>
      <trkpt lat="42.98335" lon="-2.86797">
        <ele>562.8</ele>
        <time>2021-05-29 18:51:13</time>
      </trkpt>
      <trkpt lat="42.98332" lon="-2.86799">
        <ele>563.4</ele>
        <time>2021-05-29 18:51:14</time>
      </trkpt>
      <trkpt lat="42.98328" lon="-2.86801">
        <ele>563.8</ele>
        <time>2021-05-29 18:51:15</time>
      </trkpt>
      <trkpt lat="42.98324" lon="-2.86803">
        <ele>564</ele>
        <time>2021-05-29 18:51:16</time>
      </trkpt>
      <trkpt lat="42.9832" lon="-2.86806">
        <ele>564.2</ele>
        <time>2021-05-29 18:51:17</time>
      </trkpt>
      <trkpt lat="42.98317" lon="-2.86808">
        <ele>564.6</ele>
        <time>2021-05-29 18:51:18</time>
      </trkpt>
      <trkpt lat="42.98313" lon="-2.8681">
        <ele>564.8</ele>
        <time>2021-05-29 18:51:19</time>
      </trkpt>
      <trkpt lat="42.98309" lon="-2.86811">
        <ele>565.2</ele>
        <time>2021-05-29 18:51:20</time>
      </trkpt>
      <trkpt lat="42.98305" lon="-2.86812">
        <ele>565.4</ele>
        <time>2021-05-29 18:51:21</time>
      </trkpt>
      <trkpt lat="42.98302" lon="-2.86813">
        <ele>565.6</ele>
        <time>2021-05-29 18:51:22</time>
      </trkpt>
      <trkpt lat="42.98298" lon="-2.86813">
        <ele>566</ele>
        <time>2021-05-29 18:51:23</time>
      </trkpt>
      <trkpt lat="42.98294" lon="-2.86814">
        <ele>566.2</ele>
        <time>2021-05-29 18:51:24</time>
      </trkpt>
      <trkpt lat="42.9829" lon="-2.86815">
        <ele>566.6</ele>
        <time>2021-05-29 18:51:25</time>
      </trkpt>
      <trkpt lat="42.98285" lon="-2.86816">
        <ele>567</ele>
        <time>2021-05-29 18:51:26</time>
      </trkpt>
      <trkpt lat="42.98281" lon="-2.86817">
        <ele>567.2</ele>
        <time>2021-05-29 18:51:27</time>
      </trkpt>
      <trkpt lat="42.98277" lon="-2.86818">
        <ele>567.6</ele>
        <time>2021-05-29 18:51:28</time>
      </trkpt>
      <trkpt lat="42.98272" lon="-2.86819">
        <ele>567.8</ele>
        <time>2021-05-29 18:51:29</time>
      </trkpt>
      <trkpt lat="42.98267" lon="-2.8682">
        <ele>568.2</ele>
        <time>2021-05-29 18:51:30</time>
      </trkpt>
      <trkpt lat="42.98263" lon="-2.8682">
        <ele>568.4</ele>
        <time>2021-05-29 18:51:31</time>
      </trkpt>
      <trkpt lat="42.98258" lon="-2.86821">
        <ele>568.6</ele>
        <time>2021-05-29 18:51:32</time>
      </trkpt>
      <trkpt lat="42.98253" lon="-2.86821">
        <ele>568.8</ele>
        <time>2021-05-29 18:51:33</time>
      </trkpt>
      <trkpt lat="42.98249" lon="-2.86821">
        <ele>569</ele>
        <time>2021-05-29 18:51:34</time>
      </trkpt>
      <trkpt lat="42.98244" lon="-2.86821">
        <ele>569.2</ele>
        <time>2021-05-29 18:51:35</time>
      </trkpt>
      <trkpt lat="42.98239" lon="-2.86821">
        <ele>569.6</ele>
        <time>2021-05-29 18:51:36</time>
      </trkpt>
      <trkpt lat="42.98234" lon="-2.86822">
        <ele>569.8</ele>
        <time>2021-05-29 18:51:37</time>
      </trkpt>
      <trkpt lat="42.98229" lon="-2.86823">
        <ele>570</ele>
        <time>2021-05-29 18:51:38</time>
      </trkpt>
      <trkpt lat="42.98225" lon="-2.86824">
        <ele>570.2</ele>
        <time>2021-05-29 18:51:39</time>
      </trkpt>
      <trkpt lat="42.9822" lon="-2.86826">
        <ele>570.4</ele>
        <time>2021-05-29 18:51:40</time>
      </trkpt>
      <trkpt lat="42.98216" lon="-2.86827">
        <ele>570.8</ele>
        <time>2021-05-29 18:51:41</time>
      </trkpt>
      <trkpt lat="42.98211" lon="-2.86829">
        <ele>570.8</ele>
        <time>2021-05-29 18:51:42</time>
      </trkpt>
      <trkpt lat="42.98207" lon="-2.8683">
        <ele>571.2</ele>
        <time>2021-05-29 18:51:43</time>
      </trkpt>
      <trkpt lat="42.98203" lon="-2.86832">
        <ele>571.4</ele>
        <time>2021-05-29 18:51:44</time>
      </trkpt>
      <trkpt lat="42.98198" lon="-2.86834">
        <ele>571.6</ele>
        <time>2021-05-29 18:51:45</time>
      </trkpt>
      <trkpt lat="42.98194" lon="-2.86837">
        <ele>571.8</ele>
        <time>2021-05-29 18:51:46</time>
      </trkpt>
      <trkpt lat="42.98191" lon="-2.8684">
        <ele>572</ele>
        <time>2021-05-29 18:51:47</time>
      </trkpt>
      <trkpt lat="42.98187" lon="-2.86843">
        <ele>572.2</ele>
        <time>2021-05-29 18:51:48</time>
      </trkpt>
      <trkpt lat="42.98184" lon="-2.86845">
        <ele>572.4</ele>
        <time>2021-05-29 18:51:49</time>
      </trkpt>
      <trkpt lat="42.9818" lon="-2.86848">
        <ele>572.8</ele>
        <time>2021-05-29 18:51:50</time>
      </trkpt>
      <trkpt lat="42.98177" lon="-2.8685">
        <ele>573</ele>
        <time>2021-05-29 18:51:51</time>
      </trkpt>
      <trkpt lat="42.98173" lon="-2.86853">
        <ele>573.2</ele>
        <time>2021-05-29 18:51:52</time>
      </trkpt>
      <trkpt lat="42.98169" lon="-2.86855">
        <ele>573.6</ele>
        <time>2021-05-29 18:51:53</time>
      </trkpt>
      <trkpt lat="42.98165" lon="-2.86856">
        <ele>574</ele>
        <time>2021-05-29 18:51:54</time>
      </trkpt>
      <trkpt lat="42.98161" lon="-2.86857">
        <ele>574.4</ele>
        <time>2021-05-29 18:51:55</time>
      </trkpt>
      <trkpt lat="42.98156" lon="-2.86858">
        <ele>574.8</ele>
        <time>2021-05-29 18:51:56</time>
      </trkpt>
      <trkpt lat="42.98152" lon="-2.86859">
        <ele>575</ele>
        <time>2021-05-29 18:51:57</time>
      </trkpt>
      <trkpt lat="42.98148" lon="-2.8686">
        <ele>575.4</ele>
        <time>2021-05-29 18:51:58</time>
      </trkpt>
      <trkpt lat="42.98144" lon="-2.86861">
        <ele>576</ele>
        <time>2021-05-29 18:51:59</time>
      </trkpt>
      <trkpt lat="42.9814" lon="-2.86862">
        <ele>576.2</ele>
        <time>2021-05-29 18:52:00</time>
      </trkpt>
      <trkpt lat="42.98136" lon="-2.86862">
        <ele>576.4</ele>
        <time>2021-05-29 18:52:01</time>
      </trkpt>
      <trkpt lat="42.98131" lon="-2.86862">
        <ele>576.8</ele>
        <time>2021-05-29 18:52:02</time>
      </trkpt>
      <trkpt lat="42.98127" lon="-2.86862">
        <ele>577.2</ele>
        <time>2021-05-29 18:52:03</time>
      </trkpt>
      <trkpt lat="42.98122" lon="-2.86862">
        <ele>577.6</ele>
        <time>2021-05-29 18:52:04</time>
      </trkpt>
      <trkpt lat="42.98118" lon="-2.86861">
        <ele>578</ele>
        <time>2021-05-29 18:52:05</time>
      </trkpt>
      <trkpt lat="42.98114" lon="-2.86861">
        <ele>578.2</ele>
        <time>2021-05-29 18:52:06</time>
      </trkpt>
      <trkpt lat="42.98109" lon="-2.86859">
        <ele>578.6</ele>
        <time>2021-05-29 18:52:07</time>
      </trkpt>
      <trkpt lat="42.98104" lon="-2.86858">
        <ele>578.8</ele>
        <time>2021-05-29 18:52:08</time>
      </trkpt>
      <trkpt lat="42.98099" lon="-2.86857">
        <ele>579.2</ele>
        <time>2021-05-29 18:52:09</time>
      </trkpt>
      <trkpt lat="42.98094" lon="-2.86857">
        <ele>579.6</ele>
        <time>2021-05-29 18:52:10</time>
      </trkpt>
      <trkpt lat="42.9809" lon="-2.86858">
        <ele>580</ele>
        <time>2021-05-29 18:52:11</time>
      </trkpt>
      <trkpt lat="42.98086" lon="-2.8686">
        <ele>580.2</ele>
        <time>2021-05-29 18:52:12</time>
      </trkpt>
      <trkpt lat="42.98082" lon="-2.86862">
        <ele>580.6</ele>
        <time>2021-05-29 18:52:13</time>
      </trkpt>
      <trkpt lat="42.98078" lon="-2.86865">
        <ele>581</ele>
        <time>2021-05-29 18:52:14</time>
      </trkpt>
      <trkpt lat="42.98075" lon="-2.86868">
        <ele>581.4</ele>
        <time>2021-05-29 18:52:15</time>
      </trkpt>
      <trkpt lat="42.98072" lon="-2.86872">
        <ele>581.6</ele>
        <time>2021-05-29 18:52:16</time>
      </trkpt>
      <trkpt lat="42.9807" lon="-2.86876">
        <ele>582</ele>
        <time>2021-05-29 18:52:17</time>
      </trkpt>
      <trkpt lat="42.98067" lon="-2.8688">
        <ele>582.2</ele>
        <time>2021-05-29 18:52:18</time>
      </trkpt>
      <trkpt lat="42.98065" lon="-2.86884">
        <ele>582.8</ele>
        <time>2021-05-29 18:52:19</time>
      </trkpt>
      <trkpt lat="42.98063" lon="-2.86889">
        <ele>583</ele>
        <time>2021-05-29 18:52:20</time>
      </trkpt>
      <trkpt lat="42.98061" lon="-2.86893">
        <ele>583.4</ele>
        <time>2021-05-29 18:52:21</time>
      </trkpt>
      <trkpt lat="42.98058" lon="-2.86898">
        <ele>583.6</ele>
        <time>2021-05-29 18:52:22</time>
      </trkpt>
      <trkpt lat="42.98056" lon="-2.86901">
        <ele>584</ele>
        <time>2021-05-29 18:52:23</time>
      </trkpt>
      <trkpt lat="42.98053" lon="-2.86905">
        <ele>584.4</ele>
        <time>2021-05-29 18:52:24</time>
      </trkpt>
      <trkpt lat="42.9805" lon="-2.86909">
        <ele>584.8</ele>
        <time>2021-05-29 18:52:25</time>
      </trkpt>
      <trkpt lat="42.98047" lon="-2.86913">
        <ele>585.4</ele>
        <time>2021-05-29 18:52:26</time>
      </trkpt>
      <trkpt lat="42.98044" lon="-2.86917">
        <ele>585.8</ele>
        <time>2021-05-29 18:52:27</time>
      </trkpt>
      <trkpt lat="42.98041" lon="-2.86921">
        <ele>586.4</ele>
        <time>2021-05-29 18:52:28</time>
      </trkpt>
      <trkpt lat="42.98038" lon="-2.86925">
        <ele>586.8</ele>
        <time>2021-05-29 18:52:29</time>
      </trkpt>
      <trkpt lat="42.98035" lon="-2.86929">
        <ele>587.4</ele>
        <time>2021-05-29 18:52:30</time>
      </trkpt>
      <trkpt lat="42.98032" lon="-2.86932">
        <ele>588</ele>
        <time>2021-05-29 18:52:31</time>
      </trkpt>
      <trkpt lat="42.98029" lon="-2.86937">
        <ele>588.2</ele>
        <time>2021-05-29 18:52:32</time>
      </trkpt>
      <trkpt lat="42.98026" lon="-2.86941">
        <ele>588.6</ele>
        <time>2021-05-29 18:52:33</time>
      </trkpt>
      <trkpt lat="42.98023" lon="-2.86945">
        <ele>589</ele>
        <time>2021-05-29 18:52:34</time>
      </trkpt>
      <trkpt lat="42.9802" lon="-2.8695">
        <ele>589.6</ele>
        <time>2021-05-29 18:52:35</time>
      </trkpt>
      <trkpt lat="42.98017" lon="-2.86954">
        <ele>589.8</ele>
        <time>2021-05-29 18:52:36</time>
      </trkpt>
      <trkpt lat="42.98014" lon="-2.86958">
        <ele>590.2</ele>
        <time>2021-05-29 18:52:37</time>
      </trkpt>
      <trkpt lat="42.9801" lon="-2.86962">
        <ele>590.6</ele>
        <time>2021-05-29 18:52:38</time>
      </trkpt>
      <trkpt lat="42.98007" lon="-2.86966">
        <ele>590.8</ele>
        <time>2021-05-29 18:52:39</time>
      </trkpt>
      <trkpt lat="42.98003" lon="-2.8697">
        <ele>591.2</ele>
        <time>2021-05-29 18:52:40</time>
      </trkpt>
      <trkpt lat="42.98" lon="-2.86974">
        <ele>591.4</ele>
        <time>2021-05-29 18:52:41</time>
      </trkpt>
      <trkpt lat="42.97997" lon="-2.86978">
        <ele>591.8</ele>
        <time>2021-05-29 18:52:42</time>
      </trkpt>
      <trkpt lat="42.97994" lon="-2.86981">
        <ele>592</ele>
        <time>2021-05-29 18:52:43</time>
      </trkpt>
      <trkpt lat="42.97991" lon="-2.86985">
        <ele>592.4</ele>
        <time>2021-05-29 18:52:44</time>
      </trkpt>
      <trkpt lat="42.97988" lon="-2.86989">
        <ele>592.6</ele>
        <time>2021-05-29 18:52:45</time>
      </trkpt>
      <trkpt lat="42.97984" lon="-2.86993">
        <ele>593</ele>
        <time>2021-05-29 18:52:46</time>
      </trkpt>
      <trkpt lat="42.97981" lon="-2.86997">
        <ele>593.4</ele>
        <time>2021-05-29 18:52:47</time>
      </trkpt>
      <trkpt lat="42.97978" lon="-2.87002">
        <ele>593.8</ele>
        <time>2021-05-29 18:52:48</time>
      </trkpt>
      <trkpt lat="42.97975" lon="-2.87005">
        <ele>594</ele>
        <time>2021-05-29 18:52:49</time>
      </trkpt>
      <trkpt lat="42.97972" lon="-2.87009">
        <ele>594.4</ele>
        <time>2021-05-29 18:52:50</time>
      </trkpt>
      <trkpt lat="42.97969" lon="-2.87013">
        <ele>594.6</ele>
        <time>2021-05-29 18:52:51</time>
      </trkpt>
      <trkpt lat="42.97966" lon="-2.87017">
        <ele>595</ele>
        <time>2021-05-29 18:52:52</time>
      </trkpt>
      <trkpt lat="42.97962" lon="-2.8702">
        <ele>595.2</ele>
        <time>2021-05-29 18:52:53</time>
      </trkpt>
      <trkpt lat="42.97959" lon="-2.87024">
        <ele>596</ele>
        <time>2021-05-29 18:52:54</time>
      </trkpt>
      <trkpt lat="42.97956" lon="-2.87027">
        <ele>596.4</ele>
        <time>2021-05-29 18:52:55</time>
      </trkpt>
      <trkpt lat="42.97952" lon="-2.8703">
        <ele>596.6</ele>
        <time>2021-05-29 18:52:56</time>
      </trkpt>
      <trkpt lat="42.97949" lon="-2.87034">
        <ele>596.8</ele>
        <time>2021-05-29 18:52:57</time>
      </trkpt>
      <trkpt lat="42.97945" lon="-2.87037">
        <ele>597</ele>
        <time>2021-05-29 18:52:58</time>
      </trkpt>
      <trkpt lat="42.97942" lon="-2.8704">
        <ele>597.2</ele>
        <time>2021-05-29 18:52:59</time>
      </trkpt>
      <trkpt lat="42.97939" lon="-2.87044">
        <ele>597.6</ele>
        <time>2021-05-29 18:53:00</time>
      </trkpt>
      <trkpt lat="42.97936" lon="-2.87047">
        <ele>597.8</ele>
        <time>2021-05-29 18:53:01</time>
      </trkpt>
      <trkpt lat="42.97932" lon="-2.8705">
        <ele>598</ele>
        <time>2021-05-29 18:53:02</time>
      </trkpt>
      <trkpt lat="42.97928" lon="-2.87054">
        <ele>598.4</ele>
        <time>2021-05-29 18:53:03</time>
      </trkpt>
      <trkpt lat="42.97925" lon="-2.87057">
        <ele>598.6</ele>
        <time>2021-05-29 18:53:04</time>
      </trkpt>
      <trkpt lat="42.97921" lon="-2.87059">
        <ele>599</ele>
        <time>2021-05-29 18:53:05</time>
      </trkpt>
      <trkpt lat="42.97917" lon="-2.87063">
        <ele>599.4</ele>
        <time>2021-05-29 18:53:06</time>
      </trkpt>
      <trkpt lat="42.97914" lon="-2.87065">
        <ele>599.6</ele>
        <time>2021-05-29 18:53:07</time>
      </trkpt>
      <trkpt lat="42.9791" lon="-2.87067">
        <ele>600</ele>
        <time>2021-05-29 18:53:08</time>
      </trkpt>
      <trkpt lat="42.97906" lon="-2.8707">
        <ele>600.2</ele>
        <time>2021-05-29 18:53:09</time>
      </trkpt>
      <trkpt lat="42.97902" lon="-2.87072">
        <ele>600.6</ele>
        <time>2021-05-29 18:53:10</time>
      </trkpt>
      <trkpt lat="42.97899" lon="-2.87074">
        <ele>601</ele>
        <time>2021-05-29 18:53:11</time>
      </trkpt>
      <trkpt lat="42.97894" lon="-2.87075">
        <ele>601.2</ele>
        <time>2021-05-29 18:53:12</time>
      </trkpt>
      <trkpt lat="42.9789" lon="-2.87076">
        <ele>601.6</ele>
        <time>2021-05-29 18:53:13</time>
      </trkpt>
      <trkpt lat="42.97886" lon="-2.87078">
        <ele>602</ele>
        <time>2021-05-29 18:53:14</time>
      </trkpt>
      <trkpt lat="42.97882" lon="-2.87079">
        <ele>602.2</ele>
        <time>2021-05-29 18:53:15</time>
      </trkpt>
      <trkpt lat="42.97878" lon="-2.87081">
        <ele>602.6</ele>
        <time>2021-05-29 18:53:16</time>
      </trkpt>
      <trkpt lat="42.97874" lon="-2.87082">
        <ele>603</ele>
        <time>2021-05-29 18:53:17</time>
      </trkpt>
      <trkpt lat="42.9787" lon="-2.87084">
        <ele>603.4</ele>
        <time>2021-05-29 18:53:18</time>
      </trkpt>
      <trkpt lat="42.97865" lon="-2.87086">
        <ele>603.8</ele>
        <time>2021-05-29 18:53:19</time>
      </trkpt>
      <trkpt lat="42.97861" lon="-2.87087">
        <ele>604</ele>
        <time>2021-05-29 18:53:20</time>
      </trkpt>
      <trkpt lat="42.97856" lon="-2.87089">
        <ele>604.4</ele>
        <time>2021-05-29 18:53:21</time>
      </trkpt>
      <trkpt lat="42.97852" lon="-2.87091">
        <ele>604.6</ele>
        <time>2021-05-29 18:53:22</time>
      </trkpt>
      <trkpt lat="42.97847" lon="-2.87093">
        <ele>605</ele>
        <time>2021-05-29 18:53:23</time>
      </trkpt>
      <trkpt lat="42.97842" lon="-2.87094">
        <ele>605.4</ele>
        <time>2021-05-29 18:53:24</time>
      </trkpt>
      <trkpt lat="42.97837" lon="-2.87097">
        <ele>605.6</ele>
        <time>2021-05-29 18:53:25</time>
      </trkpt>
      <trkpt lat="42.97832" lon="-2.87098">
        <ele>606</ele>
        <time>2021-05-29 18:53:26</time>
      </trkpt>
      <trkpt lat="42.97827" lon="-2.87099">
        <ele>606.2</ele>
        <time>2021-05-29 18:53:27</time>
      </trkpt>
      <trkpt lat="42.97823" lon="-2.87101">
        <ele>606.4</ele>
        <time>2021-05-29 18:53:28</time>
      </trkpt>
      <trkpt lat="42.97818" lon="-2.87102">
        <ele>606.6</ele>
        <time>2021-05-29 18:53:29</time>
      </trkpt>
      <trkpt lat="42.97814" lon="-2.87104">
        <ele>606.8</ele>
        <time>2021-05-29 18:53:30</time>
      </trkpt>
      <trkpt lat="42.9781" lon="-2.87107">
        <ele>606.8</ele>
        <time>2021-05-29 18:53:31</time>
      </trkpt>
      <trkpt lat="42.97807" lon="-2.8711">
        <ele>607</ele>
        <time>2021-05-29 18:53:32</time>
      </trkpt>
      <trkpt lat="42.97803" lon="-2.87113">
        <ele>607.2</ele>
        <time>2021-05-29 18:53:33</time>
      </trkpt>
      <trkpt lat="42.978" lon="-2.87116">
        <ele>607.2</ele>
        <time>2021-05-29 18:53:34</time>
      </trkpt>
      <trkpt lat="42.97796" lon="-2.87119">
        <ele>607.6</ele>
        <time>2021-05-29 18:53:35</time>
      </trkpt>
      <trkpt lat="42.97793" lon="-2.87121">
        <ele>607.8</ele>
        <time>2021-05-29 18:53:36</time>
      </trkpt>
      <trkpt lat="42.97789" lon="-2.87124">
        <ele>608.2</ele>
        <time>2021-05-29 18:53:37</time>
      </trkpt>
      <trkpt lat="42.97786" lon="-2.87125">
        <ele>608.6</ele>
        <time>2021-05-29 18:53:38</time>
      </trkpt>
      <trkpt lat="42.97782" lon="-2.87127">
        <ele>609</ele>
        <time>2021-05-29 18:53:39</time>
      </trkpt>
      <trkpt lat="42.97778" lon="-2.87128">
        <ele>609.4</ele>
        <time>2021-05-29 18:53:40</time>
      </trkpt>
      <trkpt lat="42.97774" lon="-2.87129">
        <ele>609.8</ele>
        <time>2021-05-29 18:53:41</time>
      </trkpt>
      <trkpt lat="42.9777" lon="-2.87129">
        <ele>610.2</ele>
        <time>2021-05-29 18:53:42</time>
      </trkpt>
      <trkpt lat="42.97766" lon="-2.8713">
        <ele>610.6</ele>
        <time>2021-05-29 18:53:43</time>
      </trkpt>
      <trkpt lat="42.97762" lon="-2.8713">
        <ele>610.8</ele>
        <time>2021-05-29 18:53:44</time>
      </trkpt>
      <trkpt lat="42.97758" lon="-2.8713">
        <ele>611.2</ele>
        <time>2021-05-29 18:53:45</time>
      </trkpt>
      <trkpt lat="42.97755" lon="-2.8713">
        <ele>611.4</ele>
        <time>2021-05-29 18:53:46</time>
      </trkpt>
      <trkpt lat="42.97751" lon="-2.8713">
        <ele>611.8</ele>
        <time>2021-05-29 18:53:47</time>
      </trkpt>
      <trkpt lat="42.97748" lon="-2.87129">
        <ele>612</ele>
        <time>2021-05-29 18:53:48</time>
      </trkpt>
      <trkpt lat="42.97744" lon="-2.87127">
        <ele>612.2</ele>
        <time>2021-05-29 18:53:49</time>
      </trkpt>
      <trkpt lat="42.97741" lon="-2.87126">
        <ele>612.4</ele>
        <time>2021-05-29 18:53:50</time>
      </trkpt>
      <trkpt lat="42.97738" lon="-2.87124">
        <ele>612.8</ele>
        <time>2021-05-29 18:53:51</time>
      </trkpt>
      <trkpt lat="42.97735" lon="-2.87122">
        <ele>613</ele>
        <time>2021-05-29 18:53:52</time>
      </trkpt>
      <trkpt lat="42.97732" lon="-2.8712">
        <ele>613.4</ele>
        <time>2021-05-29 18:53:53</time>
      </trkpt>
      <trkpt lat="42.97729" lon="-2.87118">
        <ele>613.6</ele>
        <time>2021-05-29 18:53:54</time>
      </trkpt>
      <trkpt lat="42.97727" lon="-2.87116">
        <ele>614</ele>
        <time>2021-05-29 18:53:55</time>
      </trkpt>
      <trkpt lat="42.97724" lon="-2.87113">
        <ele>614.2</ele>
        <time>2021-05-29 18:53:56</time>
      </trkpt>
      <trkpt lat="42.97722" lon="-2.8711">
        <ele>614.6</ele>
        <time>2021-05-29 18:53:57</time>
      </trkpt>
      <trkpt lat="42.97719" lon="-2.87107">
        <ele>615</ele>
        <time>2021-05-29 18:53:58</time>
      </trkpt>
      <trkpt lat="42.97716" lon="-2.87103">
        <ele>615.4</ele>
        <time>2021-05-29 18:53:59</time>
      </trkpt>
      <trkpt lat="42.97713" lon="-2.871">
        <ele>615.6</ele>
        <time>2021-05-29 18:54:00</time>
      </trkpt>
      <trkpt lat="42.97711" lon="-2.87097">
        <ele>615.8</ele>
        <time>2021-05-29 18:54:01</time>
      </trkpt>
      <trkpt lat="42.97708" lon="-2.87093">
        <ele>616</ele>
        <time>2021-05-29 18:54:02</time>
      </trkpt>
      <trkpt lat="42.97706" lon="-2.87089">
        <ele>616.4</ele>
        <time>2021-05-29 18:54:03</time>
      </trkpt>
      <trkpt lat="42.97704" lon="-2.87086">
        <ele>616.4</ele>
        <time>2021-05-29 18:54:04</time>
      </trkpt>
      <trkpt lat="42.97702" lon="-2.87082">
        <ele>616.6</ele>
        <time>2021-05-29 18:54:05</time>
      </trkpt>
      <trkpt lat="42.97699" lon="-2.87079">
        <ele>616.8</ele>
        <time>2021-05-29 18:54:06</time>
      </trkpt>
      <trkpt lat="42.97697" lon="-2.87075">
        <ele>617</ele>
        <time>2021-05-29 18:54:07</time>
      </trkpt>
      <trkpt lat="42.97695" lon="-2.87072">
        <ele>617</ele>
        <time>2021-05-29 18:54:08</time>
      </trkpt>
      <trkpt lat="42.97692" lon="-2.87069">
        <ele>617.2</ele>
        <time>2021-05-29 18:54:09</time>
      </trkpt>
      <trkpt lat="42.9769" lon="-2.87066">
        <ele>617.2</ele>
        <time>2021-05-29 18:54:10</time>
      </trkpt>
      <trkpt lat="42.97688" lon="-2.87062">
        <ele>617.4</ele>
        <time>2021-05-29 18:54:11</time>
      </trkpt>
      <trkpt lat="42.97686" lon="-2.87058">
        <ele>617.4</ele>
        <time>2021-05-29 18:54:12</time>
      </trkpt>
      <trkpt lat="42.97684" lon="-2.87055">
        <ele>617.6</ele>
        <time>2021-05-29 18:54:13</time>
      </trkpt>
      <trkpt lat="42.97682" lon="-2.87052">
        <ele>617.8</ele>
        <time>2021-05-29 18:54:14</time>
      </trkpt>
      <trkpt lat="42.9768" lon="-2.87049">
        <ele>617.8</ele>
        <time>2021-05-29 18:54:15</time>
      </trkpt>
      <trkpt lat="42.97679" lon="-2.87046">
        <ele>617.8</ele>
        <time>2021-05-29 18:54:16</time>
      </trkpt>
      <trkpt lat="42.97677" lon="-2.87044">
        <ele>618</ele>
        <time>2021-05-29 18:54:17</time>
      </trkpt>
      <trkpt lat="42.97675" lon="-2.87041">
        <ele>618</ele>
        <time>2021-05-29 18:54:18</time>
      </trkpt>
      <trkpt lat="42.97673" lon="-2.87039">
        <ele>618</ele>
        <time>2021-05-29 18:54:19</time>
      </trkpt>
      <trkpt lat="42.97672" lon="-2.87036">
        <ele>618.2</ele>
        <time>2021-05-29 18:54:20</time>
      </trkpt>
      <trkpt lat="42.9767" lon="-2.87034">
        <ele>618.2</ele>
        <time>2021-05-29 18:54:21</time>
      </trkpt>
      <trkpt lat="42.97668" lon="-2.87031">
        <ele>618.2</ele>
        <time>2021-05-29 18:54:22</time>
      </trkpt>
      <trkpt lat="42.97667" lon="-2.87029">
        <ele>618.2</ele>
        <time>2021-05-29 18:54:23</time>
      </trkpt>
      <trkpt lat="42.97665" lon="-2.87026">
        <ele>618.4</ele>
        <time>2021-05-29 18:54:24</time>
      </trkpt>
      <trkpt lat="42.97664" lon="-2.87024">
        <ele>618.4</ele>
        <time>2021-05-29 18:54:25</time>
      </trkpt>
      <trkpt lat="42.97662" lon="-2.87022">
        <ele>618.4</ele>
        <time>2021-05-29 18:54:26</time>
      </trkpt>
      <trkpt lat="42.97661" lon="-2.8702">
        <ele>618.4</ele>
        <time>2021-05-29 18:54:27</time>
      </trkpt>
      <trkpt lat="42.9766" lon="-2.87017">
        <ele>618.4</ele>
        <time>2021-05-29 18:54:28</time>
      </trkpt>
      <trkpt lat="42.97658" lon="-2.87015">
        <ele>618.4</ele>
        <time>2021-05-29 18:54:29</time>
      </trkpt>
      <trkpt lat="42.97656" lon="-2.87013">
        <ele>618.4</ele>
        <time>2021-05-29 18:54:30</time>
      </trkpt>
      <trkpt lat="42.97655" lon="-2.8701">
        <ele>618.4</ele>
        <time>2021-05-29 18:54:31</time>
      </trkpt>
      <trkpt lat="42.97653" lon="-2.87008">
        <ele>618.4</ele>
        <time>2021-05-29 18:54:32</time>
      </trkpt>
      <trkpt lat="42.97652" lon="-2.87005">
        <ele>618.4</ele>
        <time>2021-05-29 18:54:33</time>
      </trkpt>
      <trkpt lat="42.9765" lon="-2.87003">
        <ele>618.4</ele>
        <time>2021-05-29 18:54:34</time>
      </trkpt>
      <trkpt lat="42.97649" lon="-2.87001">
        <ele>618.4</ele>
        <time>2021-05-29 18:54:35</time>
      </trkpt>
      <trkpt lat="42.97647" lon="-2.86999">
        <ele>618.4</ele>
        <time>2021-05-29 18:54:36</time>
      </trkpt>
      <trkpt lat="42.97647" lon="-2.86996">
        <ele>618.4</ele>
        <time>2021-05-29 18:54:37</time>
      </trkpt>
      <trkpt lat="42.97649" lon="-2.86996">
        <ele>618.4</ele>
        <time>2021-05-29 18:54:38</time>
      </trkpt>
      <trkpt lat="42.9765" lon="-2.86997">
        <ele>618.4</ele>
        <time>2021-05-29 18:54:39</time>
      </trkpt>
      <trkpt lat="42.97652" lon="-2.86999">
        <ele>618.4</ele>
        <time>2021-05-29 18:54:40</time>
      </trkpt>
      <trkpt lat="42.97653" lon="-2.87001">
        <ele>618.6</ele>
        <time>2021-05-29 18:54:41</time>
      </trkpt>
      <trkpt lat="42.97654" lon="-2.87002">
        <ele>618.6</ele>
        <time>2021-05-29 18:54:42</time>
      </trkpt>
      <trkpt lat="42.97655" lon="-2.87003">
        <ele>618.6</ele>
        <time>2021-05-29 18:54:43</time>
      </trkpt>
      <trkpt lat="42.97656" lon="-2.87004">
        <ele>618.6</ele>
        <time>2021-05-29 18:54:44</time>
      </trkpt>
      <trkpt lat="42.97657" lon="-2.87005">
        <ele>618.6</ele>
        <time>2021-05-29 18:54:45</time>
      </trkpt>
      <trkpt lat="42.97658" lon="-2.87006">
        <ele>618.6</ele>
        <time>2021-05-29 18:54:46</time>
      </trkpt>
      <trkpt lat="42.97659" lon="-2.87008">
        <ele>618.6</ele>
        <time>2021-05-29 18:54:47</time>
      </trkpt>
      <trkpt lat="42.9766" lon="-2.87009">
        <ele>618.4</ele>
        <time>2021-05-29 18:54:48</time>
      </trkpt>
      <trkpt lat="42.9766" lon="-2.8701">
        <ele>618.4</ele>
        <time>2021-05-29 18:54:49</time>
      </trkpt>
      <trkpt lat="42.97661" lon="-2.87011">
        <ele>618.4</ele>
        <time>2021-05-29 18:54:50</time>
      </trkpt>
      <trkpt lat="42.97662" lon="-2.87013">
        <ele>618.4</ele>
        <time>2021-05-29 18:54:51</time>
      </trkpt>
      <trkpt lat="42.97663" lon="-2.87014">
        <ele>618.4</ele>
        <time>2021-05-29 18:54:52</time>
      </trkpt>
      <trkpt lat="42.97664" lon="-2.87016">
        <ele>618.4</ele>
        <time>2021-05-29 18:54:53</time>
      </trkpt>
      <trkpt lat="42.97665" lon="-2.87017">
        <ele>618.4</ele>
        <time>2021-05-29 18:54:54</time>
      </trkpt>
      <trkpt lat="42.97666" lon="-2.87019">
        <ele>618.6</ele>
        <time>2021-05-29 18:54:55</time>
      </trkpt>
      <trkpt lat="42.97666" lon="-2.8702">
        <ele>618.6</ele>
        <time>2021-05-29 18:54:56</time>
      </trkpt>
      <trkpt lat="42.97667" lon="-2.87023">
        <ele>618.6</ele>
        <time>2021-05-29 18:54:57</time>
      </trkpt>
      <trkpt lat="42.97666" lon="-2.87025">
        <ele>618.6</ele>
        <time>2021-05-29 18:54:58</time>
      </trkpt>
      <trkpt lat="42.97664" lon="-2.87025">
        <ele>618.6</ele>
        <time>2021-05-29 18:54:59</time>
      </trkpt>
      <trkpt lat="42.97663" lon="-2.87023">
        <ele>618.6</ele>
        <time>2021-05-29 18:55:00</time>
      </trkpt>
      <trkpt lat="42.97662" lon="-2.87021">
        <ele>618.4</ele>
        <time>2021-05-29 18:55:01</time>
      </trkpt>
      <trkpt lat="42.97661" lon="-2.87019">
        <ele>618.4</ele>
        <time>2021-05-29 18:55:02</time>
      </trkpt>
      <trkpt lat="42.97659" lon="-2.87018">
        <ele>618.4</ele>
        <time>2021-05-29 18:55:03</time>
      </trkpt>
      <trkpt lat="42.97658" lon="-2.87016">
        <ele>618.4</ele>
        <time>2021-05-29 18:55:04</time>
      </trkpt>
      <trkpt lat="42.97657" lon="-2.87014">
        <ele>618.4</ele>
        <time>2021-05-29 18:55:05</time>
      </trkpt>
      <trkpt lat="42.97656" lon="-2.87013">
        <ele>618.4</ele>
        <time>2021-05-29 18:55:06</time>
      </trkpt>
      <trkpt lat="42.97655" lon="-2.87011">
        <ele>618.4</ele>
        <time>2021-05-29 18:55:07</time>
      </trkpt>
      <trkpt lat="42.97654" lon="-2.8701">
        <ele>618.4</ele>
        <time>2021-05-29 18:55:08</time>
      </trkpt>
      <trkpt lat="42.97653" lon="-2.87009">
        <ele>618.4</ele>
        <time>2021-05-29 18:55:09</time>
      </trkpt>
      <trkpt lat="42.97652" lon="-2.87008">
        <ele>618.4</ele>
        <time>2021-05-29 18:55:10</time>
      </trkpt>
      <trkpt lat="42.97652" lon="-2.87007">
        <ele>618.4</ele>
        <time>2021-05-29 18:55:11</time>
      </trkpt>
      <trkpt lat="42.97652" lon="-2.87007">
        <ele>618.4</ele>
        <time>2021-05-29 18:55:12</time>
      </trkpt>
      <trkpt lat="42.9765" lon="-2.87004">
        <ele>616.6</ele>
        <time>2021-05-29 19:02:18</time>
      </trkpt>
      <trkpt lat="42.97649" lon="-2.87002">
        <ele>616.6</ele>
        <time>2021-05-29 19:02:19</time>
      </trkpt>
      <trkpt lat="42.97648" lon="-2.87">
        <ele>616.6</ele>
        <time>2021-05-29 19:02:20</time>
      </trkpt>
      <trkpt lat="42.97646" lon="-2.86997">
        <ele>616.6</ele>
        <time>2021-05-29 19:02:21</time>
      </trkpt>
      <trkpt lat="42.97644" lon="-2.86993">
        <ele>616.6</ele>
        <time>2021-05-29 19:02:22</time>
      </trkpt>
      <trkpt lat="42.97642" lon="-2.86989">
        <ele>616.6</ele>
        <time>2021-05-29 19:02:23</time>
      </trkpt>
      <trkpt lat="42.97639" lon="-2.86985">
        <ele>616.6</ele>
        <time>2021-05-29 19:02:24</time>
      </trkpt>
      <trkpt lat="42.97636" lon="-2.86981">
        <ele>616.6</ele>
        <time>2021-05-29 19:02:25</time>
      </trkpt>
      <trkpt lat="42.97633" lon="-2.86977">
        <ele>616.6</ele>
        <time>2021-05-29 19:02:26</time>
      </trkpt>
      <trkpt lat="42.9763" lon="-2.86972">
        <ele>616.6</ele>
        <time>2021-05-29 19:02:27</time>
      </trkpt>
      <trkpt lat="42.97626" lon="-2.86968">
        <ele>616.6</ele>
        <time>2021-05-29 19:02:28</time>
      </trkpt>
      <trkpt lat="42.97622" lon="-2.86962">
        <ele>616.6</ele>
        <time>2021-05-29 19:02:29</time>
      </trkpt>
      <trkpt lat="42.97618" lon="-2.86956">
        <ele>616.6</ele>
        <time>2021-05-29 19:02:30</time>
      </trkpt>
      <trkpt lat="42.97613" lon="-2.8695">
        <ele>616.6</ele>
        <time>2021-05-29 19:02:31</time>
      </trkpt>
      <trkpt lat="42.97608" lon="-2.86943">
        <ele>616.6</ele>
        <time>2021-05-29 19:02:32</time>
      </trkpt>
      <trkpt lat="42.97603" lon="-2.86936">
        <ele>616.4</ele>
        <time>2021-05-29 19:02:33</time>
      </trkpt>
      <trkpt lat="42.97598" lon="-2.86929">
        <ele>616.4</ele>
        <time>2021-05-29 19:02:34</time>
      </trkpt>
      <trkpt lat="42.97592" lon="-2.86921">
        <ele>616.4</ele>
        <time>2021-05-29 19:02:35</time>
      </trkpt>
      <trkpt lat="42.97587" lon="-2.86914">
        <ele>616.4</ele>
        <time>2021-05-29 19:02:36</time>
      </trkpt>
      <trkpt lat="42.97582" lon="-2.86906">
        <ele>616.2</ele>
        <time>2021-05-29 19:02:37</time>
      </trkpt>
      <trkpt lat="42.97577" lon="-2.86899">
        <ele>616</ele>
        <time>2021-05-29 19:02:38</time>
      </trkpt>
      <trkpt lat="42.97572" lon="-2.86892">
        <ele>615.8</ele>
        <time>2021-05-29 19:02:39</time>
      </trkpt>
      <trkpt lat="42.97567" lon="-2.86885">
        <ele>615.6</ele>
        <time>2021-05-29 19:02:40</time>
      </trkpt>
      <trkpt lat="42.97562" lon="-2.86878">
        <ele>615.2</ele>
        <time>2021-05-29 19:02:41</time>
      </trkpt>
      <trkpt lat="42.97557" lon="-2.86871">
        <ele>615</ele>
        <time>2021-05-29 19:02:42</time>
      </trkpt>
      <trkpt lat="42.97553" lon="-2.86865">
        <ele>614.8</ele>
        <time>2021-05-29 19:02:43</time>
      </trkpt>
      <trkpt lat="42.97548" lon="-2.86858">
        <ele>614.4</ele>
        <time>2021-05-29 19:02:44</time>
      </trkpt>
      <trkpt lat="42.97543" lon="-2.86851">
        <ele>614.4</ele>
        <time>2021-05-29 19:02:45</time>
      </trkpt>
      <trkpt lat="42.97538" lon="-2.86845">
        <ele>614.4</ele>
        <time>2021-05-29 19:02:46</time>
      </trkpt>
      <trkpt lat="42.97533" lon="-2.86838">
        <ele>614.4</ele>
        <time>2021-05-29 19:02:47</time>
      </trkpt>
      <trkpt lat="42.97529" lon="-2.86831">
        <ele>614.2</ele>
        <time>2021-05-29 19:02:48</time>
      </trkpt>
      <trkpt lat="42.97524" lon="-2.86825">
        <ele>614</ele>
        <time>2021-05-29 19:02:49</time>
      </trkpt>
      <trkpt lat="42.97519" lon="-2.86818">
        <ele>614</ele>
        <time>2021-05-29 19:02:50</time>
      </trkpt>
      <trkpt lat="42.97514" lon="-2.86811">
        <ele>614</ele>
        <time>2021-05-29 19:02:51</time>
      </trkpt>
      <trkpt lat="42.97509" lon="-2.86804">
        <ele>614</ele>
        <time>2021-05-29 19:02:52</time>
      </trkpt>
      <trkpt lat="42.97504" lon="-2.86797">
        <ele>614</ele>
        <time>2021-05-29 19:02:53</time>
      </trkpt>
      <trkpt lat="42.97499" lon="-2.8679">
        <ele>614</ele>
        <time>2021-05-29 19:02:54</time>
      </trkpt>
      <trkpt lat="42.97494" lon="-2.86783">
        <ele>614.2</ele>
        <time>2021-05-29 19:02:55</time>
      </trkpt>
      <trkpt lat="42.97489" lon="-2.86776">
        <ele>614.2</ele>
        <time>2021-05-29 19:02:56</time>
      </trkpt>
      <trkpt lat="42.97484" lon="-2.86769">
        <ele>614.2</ele>
        <time>2021-05-29 19:02:57</time>
      </trkpt>
      <trkpt lat="42.97479" lon="-2.86762">
        <ele>614.2</ele>
        <time>2021-05-29 19:02:58</time>
      </trkpt>
      <trkpt lat="42.97473" lon="-2.86755">
        <ele>614.2</ele>
        <time>2021-05-29 19:02:59</time>
      </trkpt>
      <trkpt lat="42.97468" lon="-2.86747">
        <ele>614.2</ele>
        <time>2021-05-29 19:03:00</time>
      </trkpt>
      <trkpt lat="42.97463" lon="-2.8674">
        <ele>614.2</ele>
        <time>2021-05-29 19:03:01</time>
      </trkpt>
      <trkpt lat="42.97457" lon="-2.86732">
        <ele>614.4</ele>
        <time>2021-05-29 19:03:02</time>
      </trkpt>
      <trkpt lat="42.97452" lon="-2.86724">
        <ele>614.4</ele>
        <time>2021-05-29 19:03:03</time>
      </trkpt>
      <trkpt lat="42.97446" lon="-2.86716">
        <ele>614.4</ele>
        <time>2021-05-29 19:03:04</time>
      </trkpt>
      <trkpt lat="42.9744" lon="-2.86708">
        <ele>614.4</ele>
        <time>2021-05-29 19:03:05</time>
      </trkpt>
      <trkpt lat="42.97433" lon="-2.867">
        <ele>614.4</ele>
        <time>2021-05-29 19:03:06</time>
      </trkpt>
      <trkpt lat="42.97427" lon="-2.86691">
        <ele>614.4</ele>
        <time>2021-05-29 19:03:07</time>
      </trkpt>
      <trkpt lat="42.97421" lon="-2.86683">
        <ele>614.4</ele>
        <time>2021-05-29 19:03:08</time>
      </trkpt>
      <trkpt lat="42.97415" lon="-2.86674">
        <ele>614.4</ele>
        <time>2021-05-29 19:03:09</time>
      </trkpt>
      <trkpt lat="42.97409" lon="-2.86666">
        <ele>614.6</ele>
        <time>2021-05-29 19:03:10</time>
      </trkpt>
      <trkpt lat="42.97403" lon="-2.86657">
        <ele>614.6</ele>
        <time>2021-05-29 19:03:11</time>
      </trkpt>
      <trkpt lat="42.97397" lon="-2.86649">
        <ele>614.6</ele>
        <time>2021-05-29 19:03:12</time>
      </trkpt>
      <trkpt lat="42.97391" lon="-2.86641">
        <ele>614.8</ele>
        <time>2021-05-29 19:03:13</time>
      </trkpt>
      <trkpt lat="42.97386" lon="-2.86634">
        <ele>614.8</ele>
        <time>2021-05-29 19:03:14</time>
      </trkpt>
      <trkpt lat="42.97381" lon="-2.86627">
        <ele>614.8</ele>
        <time>2021-05-29 19:03:15</time>
      </trkpt>
      <trkpt lat="42.97376" lon="-2.86621">
        <ele>615</ele>
        <time>2021-05-29 19:03:16</time>
      </trkpt>
      <trkpt lat="42.97372" lon="-2.86615">
        <ele>615</ele>
        <time>2021-05-29 19:03:17</time>
      </trkpt>
      <trkpt lat="42.97368" lon="-2.86609">
        <ele>615</ele>
        <time>2021-05-29 19:03:18</time>
      </trkpt>
      <trkpt lat="42.97364" lon="-2.86603">
        <ele>615</ele>
        <time>2021-05-29 19:03:19</time>
      </trkpt>
      <trkpt lat="42.9736" lon="-2.86598">
        <ele>615.2</ele>
        <time>2021-05-29 19:03:20</time>
      </trkpt>
      <trkpt lat="42.97357" lon="-2.86593">
        <ele>615.6</ele>
        <time>2021-05-29 19:03:21</time>
      </trkpt>
      <trkpt lat="42.97353" lon="-2.86589">
        <ele>616</ele>
        <time>2021-05-29 19:03:22</time>
      </trkpt>
      <trkpt lat="42.97349" lon="-2.86584">
        <ele>616.4</ele>
        <time>2021-05-29 19:03:23</time>
      </trkpt>
      <trkpt lat="42.97345" lon="-2.86579">
        <ele>617</ele>
        <time>2021-05-29 19:03:24</time>
      </trkpt>
      <trkpt lat="42.97342" lon="-2.86574">
        <ele>617.6</ele>
        <time>2021-05-29 19:03:25</time>
      </trkpt>
      <trkpt lat="42.97338" lon="-2.86569">
        <ele>618.2</ele>
        <time>2021-05-29 19:03:26</time>
      </trkpt>
      <trkpt lat="42.97334" lon="-2.86564">
        <ele>618.8</ele>
        <time>2021-05-29 19:03:27</time>
      </trkpt>
      <trkpt lat="42.97331" lon="-2.86559">
        <ele>619.4</ele>
        <time>2021-05-29 19:03:28</time>
      </trkpt>
      <trkpt lat="42.97326" lon="-2.86555">
        <ele>619.8</ele>
        <time>2021-05-29 19:03:29</time>
      </trkpt>
      <trkpt lat="42.97322" lon="-2.86549">
        <ele>620.2</ele>
        <time>2021-05-29 19:03:30</time>
      </trkpt>
      <trkpt lat="42.97319" lon="-2.86544">
        <ele>620.6</ele>
        <time>2021-05-29 19:03:31</time>
      </trkpt>
      <trkpt lat="42.97314" lon="-2.86538">
        <ele>621</ele>
        <time>2021-05-29 19:03:32</time>
      </trkpt>
      <trkpt lat="42.9731" lon="-2.86532">
        <ele>621.4</ele>
        <time>2021-05-29 19:03:33</time>
      </trkpt>
      <trkpt lat="42.97305" lon="-2.86526">
        <ele>621.8</ele>
        <time>2021-05-29 19:03:34</time>
      </trkpt>
      <trkpt lat="42.97301" lon="-2.8652">
        <ele>622</ele>
        <time>2021-05-29 19:03:35</time>
      </trkpt>
      <trkpt lat="42.97297" lon="-2.86514">
        <ele>622.2</ele>
        <time>2021-05-29 19:03:36</time>
      </trkpt>
      <trkpt lat="42.97292" lon="-2.86507">
        <ele>622.6</ele>
        <time>2021-05-29 19:03:37</time>
      </trkpt>
      <trkpt lat="42.97287" lon="-2.86501">
        <ele>622.8</ele>
        <time>2021-05-29 19:03:38</time>
      </trkpt>
      <trkpt lat="42.97283" lon="-2.86494">
        <ele>623</ele>
        <time>2021-05-29 19:03:39</time>
      </trkpt>
      <trkpt lat="42.97278" lon="-2.86488">
        <ele>623.4</ele>
        <time>2021-05-29 19:03:40</time>
      </trkpt>
      <trkpt lat="42.97273" lon="-2.86482">
        <ele>623.6</ele>
        <time>2021-05-29 19:03:41</time>
      </trkpt>
      <trkpt lat="42.97268" lon="-2.86475">
        <ele>623.8</ele>
        <time>2021-05-29 19:03:42</time>
      </trkpt>
      <trkpt lat="42.97263" lon="-2.86468">
        <ele>624</ele>
        <time>2021-05-29 19:03:43</time>
      </trkpt>
      <trkpt lat="42.97257" lon="-2.86461">
        <ele>624</ele>
        <time>2021-05-29 19:03:44</time>
      </trkpt>
      <trkpt lat="42.97252" lon="-2.86454">
        <ele>624.2</ele>
        <time>2021-05-29 19:03:45</time>
      </trkpt>
      <trkpt lat="42.97247" lon="-2.86447">
        <ele>624.2</ele>
        <time>2021-05-29 19:03:46</time>
      </trkpt>
      <trkpt lat="42.97241" lon="-2.8644">
        <ele>624.2</ele>
        <time>2021-05-29 19:03:47</time>
      </trkpt>
      <trkpt lat="42.97236" lon="-2.86433">
        <ele>624.2</ele>
        <time>2021-05-29 19:03:48</time>
      </trkpt>
      <trkpt lat="42.97231" lon="-2.86425">
        <ele>624.2</ele>
        <time>2021-05-29 19:03:49</time>
      </trkpt>
      <trkpt lat="42.97226" lon="-2.86418">
        <ele>624.2</ele>
        <time>2021-05-29 19:03:50</time>
      </trkpt>
      <trkpt lat="42.9722" lon="-2.86411">
        <ele>624.2</ele>
        <time>2021-05-29 19:03:51</time>
      </trkpt>
      <trkpt lat="42.97214" lon="-2.86403">
        <ele>624.2</ele>
        <time>2021-05-29 19:03:52</time>
      </trkpt>
      <trkpt lat="42.97208" lon="-2.86395">
        <ele>624.2</ele>
        <time>2021-05-29 19:03:53</time>
      </trkpt>
      <trkpt lat="42.97202" lon="-2.86387">
        <ele>624.2</ele>
        <time>2021-05-29 19:03:54</time>
      </trkpt>
      <trkpt lat="42.97196" lon="-2.86379">
        <ele>624.2</ele>
        <time>2021-05-29 19:03:55</time>
      </trkpt>
      <trkpt lat="42.97189" lon="-2.8637">
        <ele>624.2</ele>
        <time>2021-05-29 19:03:56</time>
      </trkpt>
      <trkpt lat="42.97183" lon="-2.86362">
        <ele>624</ele>
        <time>2021-05-29 19:03:57</time>
      </trkpt>
      <trkpt lat="42.97176" lon="-2.86353">
        <ele>624</ele>
        <time>2021-05-29 19:03:58</time>
      </trkpt>
      <trkpt lat="42.97169" lon="-2.86343">
        <ele>623.8</ele>
        <time>2021-05-29 19:03:59</time>
      </trkpt>
      <trkpt lat="42.97162" lon="-2.86334">
        <ele>623.6</ele>
        <time>2021-05-29 19:04:00</time>
      </trkpt>
      <trkpt lat="42.97155" lon="-2.86324">
        <ele>623.4</ele>
        <time>2021-05-29 19:04:01</time>
      </trkpt>
      <trkpt lat="42.97148" lon="-2.86315">
        <ele>623.2</ele>
        <time>2021-05-29 19:04:02</time>
      </trkpt>
      <trkpt lat="42.97141" lon="-2.86305">
        <ele>622.8</ele>
        <time>2021-05-29 19:04:03</time>
      </trkpt>
      <trkpt lat="42.97134" lon="-2.86295">
        <ele>622.6</ele>
        <time>2021-05-29 19:04:04</time>
      </trkpt>
      <trkpt lat="42.97127" lon="-2.86286">
        <ele>622.4</ele>
        <time>2021-05-29 19:04:05</time>
      </trkpt>
      <trkpt lat="42.9712" lon="-2.86277">
        <ele>622.2</ele>
        <time>2021-05-29 19:04:06</time>
      </trkpt>
      <trkpt lat="42.97113" lon="-2.86267">
        <ele>621.8</ele>
        <time>2021-05-29 19:04:07</time>
      </trkpt>
      <trkpt lat="42.97106" lon="-2.86258">
        <ele>621.2</ele>
        <time>2021-05-29 19:04:08</time>
      </trkpt>
      <trkpt lat="42.971" lon="-2.86249">
        <ele>620.8</ele>
        <time>2021-05-29 19:04:09</time>
      </trkpt>
      <trkpt lat="42.97094" lon="-2.8624">
        <ele>620.6</ele>
        <time>2021-05-29 19:04:10</time>
      </trkpt>
      <trkpt lat="42.97087" lon="-2.86232">
        <ele>620.4</ele>
        <time>2021-05-29 19:04:11</time>
      </trkpt>
      <trkpt lat="42.97081" lon="-2.86223">
        <ele>620.4</ele>
        <time>2021-05-29 19:04:12</time>
      </trkpt>
      <trkpt lat="42.97075" lon="-2.86215">
        <ele>620.4</ele>
        <time>2021-05-29 19:04:13</time>
      </trkpt>
      <trkpt lat="42.9707" lon="-2.86208">
        <ele>620.4</ele>
        <time>2021-05-29 19:04:14</time>
      </trkpt>
      <trkpt lat="42.97065" lon="-2.862">
        <ele>620.4</ele>
        <time>2021-05-29 19:04:15</time>
      </trkpt>
      <trkpt lat="42.97059" lon="-2.86193">
        <ele>620.4</ele>
        <time>2021-05-29 19:04:16</time>
      </trkpt>
      <trkpt lat="42.97054" lon="-2.86185">
        <ele>620.4</ele>
        <time>2021-05-29 19:04:17</time>
      </trkpt>
      <trkpt lat="42.97049" lon="-2.86178">
        <ele>620.4</ele>
        <time>2021-05-29 19:04:18</time>
      </trkpt>
      <trkpt lat="42.97044" lon="-2.86171">
        <ele>620.4</ele>
        <time>2021-05-29 19:04:19</time>
      </trkpt>
      <trkpt lat="42.97039" lon="-2.86164">
        <ele>620.6</ele>
        <time>2021-05-29 19:04:20</time>
      </trkpt>
      <trkpt lat="42.97033" lon="-2.86156">
        <ele>620.8</ele>
        <time>2021-05-29 19:04:21</time>
      </trkpt>
      <trkpt lat="42.97028" lon="-2.86149">
        <ele>621.6</ele>
        <time>2021-05-29 19:04:22</time>
      </trkpt>
      <trkpt lat="42.97023" lon="-2.86142">
        <ele>621.8</ele>
        <time>2021-05-29 19:04:23</time>
      </trkpt>
      <trkpt lat="42.97018" lon="-2.86135">
        <ele>622</ele>
        <time>2021-05-29 19:04:24</time>
      </trkpt>
      <trkpt lat="42.97013" lon="-2.86127">
        <ele>622.2</ele>
        <time>2021-05-29 19:04:25</time>
      </trkpt>
      <trkpt lat="42.97007" lon="-2.8612">
        <ele>622.6</ele>
        <time>2021-05-29 19:04:26</time>
      </trkpt>
      <trkpt lat="42.97002" lon="-2.86112">
        <ele>622.8</ele>
        <time>2021-05-29 19:04:27</time>
      </trkpt>
      <trkpt lat="42.96996" lon="-2.86104">
        <ele>622.8</ele>
        <time>2021-05-29 19:04:28</time>
      </trkpt>
      <trkpt lat="42.9699" lon="-2.86097">
        <ele>623</ele>
        <time>2021-05-29 19:04:29</time>
      </trkpt>
      <trkpt lat="42.96984" lon="-2.86089">
        <ele>623</ele>
        <time>2021-05-29 19:04:30</time>
      </trkpt>
      <trkpt lat="42.96977" lon="-2.86081">
        <ele>623</ele>
        <time>2021-05-29 19:04:31</time>
      </trkpt>
      <trkpt lat="42.96971" lon="-2.86073">
        <ele>623</ele>
        <time>2021-05-29 19:04:32</time>
      </trkpt>
      <trkpt lat="42.96964" lon="-2.86064">
        <ele>623</ele>
        <time>2021-05-29 19:04:33</time>
      </trkpt>
      <trkpt lat="42.96958" lon="-2.86056">
        <ele>623</ele>
        <time>2021-05-29 19:04:34</time>
      </trkpt>
      <trkpt lat="42.96952" lon="-2.86048">
        <ele>623</ele>
        <time>2021-05-29 19:04:35</time>
      </trkpt>
      <trkpt lat="42.96945" lon="-2.86039">
        <ele>623</ele>
        <time>2021-05-29 19:04:36</time>
      </trkpt>
      <trkpt lat="42.96938" lon="-2.8603">
        <ele>623</ele>
        <time>2021-05-29 19:04:37</time>
      </trkpt>
      <trkpt lat="42.9693" lon="-2.86021">
        <ele>622.6</ele>
        <time>2021-05-29 19:04:38</time>
      </trkpt>
      <trkpt lat="42.96923" lon="-2.86012">
        <ele>622.8</ele>
        <time>2021-05-29 19:04:39</time>
      </trkpt>
      <trkpt lat="42.96916" lon="-2.86002">
        <ele>622.6</ele>
        <time>2021-05-29 19:04:40</time>
      </trkpt>
      <trkpt lat="42.96909" lon="-2.85993">
        <ele>622.2</ele>
        <time>2021-05-29 19:04:41</time>
      </trkpt>
      <trkpt lat="42.96903" lon="-2.85984">
        <ele>621.6</ele>
        <time>2021-05-29 19:04:42</time>
      </trkpt>
      <trkpt lat="42.96896" lon="-2.85976">
        <ele>621.2</ele>
        <time>2021-05-29 19:04:43</time>
      </trkpt>
      <trkpt lat="42.9689" lon="-2.85967">
        <ele>620.8</ele>
        <time>2021-05-29 19:04:44</time>
      </trkpt>
      <trkpt lat="42.96883" lon="-2.85959">
        <ele>620.6</ele>
        <time>2021-05-29 19:04:45</time>
      </trkpt>
      <trkpt lat="42.96877" lon="-2.8595">
        <ele>620.4</ele>
        <time>2021-05-29 19:04:46</time>
      </trkpt>
      <trkpt lat="42.96871" lon="-2.85942">
        <ele>620.2</ele>
        <time>2021-05-29 19:04:47</time>
      </trkpt>
      <trkpt lat="42.96865" lon="-2.85934">
        <ele>620.2</ele>
        <time>2021-05-29 19:04:48</time>
      </trkpt>
      <trkpt lat="42.96859" lon="-2.85926">
        <ele>620.2</ele>
        <time>2021-05-29 19:04:49</time>
      </trkpt>
      <trkpt lat="42.96853" lon="-2.85918">
        <ele>620.2</ele>
        <time>2021-05-29 19:04:50</time>
      </trkpt>
      <trkpt lat="42.96848" lon="-2.85911">
        <ele>620.2</ele>
        <time>2021-05-29 19:04:51</time>
      </trkpt>
      <trkpt lat="42.96843" lon="-2.85904">
        <ele>620.2</ele>
        <time>2021-05-29 19:04:52</time>
      </trkpt>
      <trkpt lat="42.96838" lon="-2.85897">
        <ele>620.2</ele>
        <time>2021-05-29 19:04:53</time>
      </trkpt>
      <trkpt lat="42.96833" lon="-2.85891">
        <ele>620.2</ele>
        <time>2021-05-29 19:04:54</time>
      </trkpt>
      <trkpt lat="42.96829" lon="-2.85885">
        <ele>620.4</ele>
        <time>2021-05-29 19:04:55</time>
      </trkpt>
      <trkpt lat="42.96825" lon="-2.85879">
        <ele>620.6</ele>
        <time>2021-05-29 19:04:56</time>
      </trkpt>
      <trkpt lat="42.96821" lon="-2.85873">
        <ele>621.2</ele>
        <time>2021-05-29 19:04:57</time>
      </trkpt>
      <trkpt lat="42.96817" lon="-2.85868">
        <ele>621.4</ele>
        <time>2021-05-29 19:04:58</time>
      </trkpt>
      <trkpt lat="42.96813" lon="-2.85863">
        <ele>621.8</ele>
        <time>2021-05-29 19:04:59</time>
      </trkpt>
      <trkpt lat="42.96809" lon="-2.85858">
        <ele>622.4</ele>
        <time>2021-05-29 19:05:00</time>
      </trkpt>
      <trkpt lat="42.96806" lon="-2.85853">
        <ele>622.8</ele>
        <time>2021-05-29 19:05:01</time>
      </trkpt>
      <trkpt lat="42.96802" lon="-2.85848">
        <ele>623.2</ele>
        <time>2021-05-29 19:05:02</time>
      </trkpt>
      <trkpt lat="42.96798" lon="-2.85843">
        <ele>623.8</ele>
        <time>2021-05-29 19:05:03</time>
      </trkpt>
      <trkpt lat="42.96795" lon="-2.85838">
        <ele>624.2</ele>
        <time>2021-05-29 19:05:04</time>
      </trkpt>
      <trkpt lat="42.96791" lon="-2.85833">
        <ele>624.6</ele>
        <time>2021-05-29 19:05:05</time>
      </trkpt>
      <trkpt lat="42.96788" lon="-2.85828">
        <ele>625.2</ele>
        <time>2021-05-29 19:05:06</time>
      </trkpt>
      <trkpt lat="42.96784" lon="-2.85824">
        <ele>625.6</ele>
        <time>2021-05-29 19:05:07</time>
      </trkpt>
      <trkpt lat="42.96781" lon="-2.85819">
        <ele>626.2</ele>
        <time>2021-05-29 19:05:08</time>
      </trkpt>
      <trkpt lat="42.96777" lon="-2.85814">
        <ele>626.4</ele>
        <time>2021-05-29 19:05:09</time>
      </trkpt>
      <trkpt lat="42.96774" lon="-2.8581">
        <ele>626.8</ele>
        <time>2021-05-29 19:05:10</time>
      </trkpt>
      <trkpt lat="42.9677" lon="-2.85805">
        <ele>627.2</ele>
        <time>2021-05-29 19:05:11</time>
      </trkpt>
      <trkpt lat="42.96766" lon="-2.858">
        <ele>627.6</ele>
        <time>2021-05-29 19:05:12</time>
      </trkpt>
      <trkpt lat="42.96763" lon="-2.85796">
        <ele>627.8</ele>
        <time>2021-05-29 19:05:13</time>
      </trkpt>
      <trkpt lat="42.96759" lon="-2.85791">
        <ele>628.2</ele>
        <time>2021-05-29 19:05:14</time>
      </trkpt>
      <trkpt lat="42.96756" lon="-2.85786">
        <ele>628.4</ele>
        <time>2021-05-29 19:05:15</time>
      </trkpt>
      <trkpt lat="42.96752" lon="-2.85781">
        <ele>628.8</ele>
        <time>2021-05-29 19:05:16</time>
      </trkpt>
      <trkpt lat="42.96748" lon="-2.85776">
        <ele>629.2</ele>
        <time>2021-05-29 19:05:17</time>
      </trkpt>
      <trkpt lat="42.96744" lon="-2.85771">
        <ele>629.4</ele>
        <time>2021-05-29 19:05:18</time>
      </trkpt>
      <trkpt lat="42.9674" lon="-2.85765">
        <ele>629.8</ele>
        <time>2021-05-29 19:05:19</time>
      </trkpt>
      <trkpt lat="42.96736" lon="-2.85759">
        <ele>630.2</ele>
        <time>2021-05-29 19:05:20</time>
      </trkpt>
      <trkpt lat="42.96731" lon="-2.85753">
        <ele>630.4</ele>
        <time>2021-05-29 19:05:21</time>
      </trkpt>
      <trkpt lat="42.96726" lon="-2.85747">
        <ele>631</ele>
        <time>2021-05-29 19:05:22</time>
      </trkpt>
      <trkpt lat="42.96722" lon="-2.85741">
        <ele>631</ele>
        <time>2021-05-29 19:05:23</time>
      </trkpt>
      <trkpt lat="42.96717" lon="-2.85734">
        <ele>631.2</ele>
        <time>2021-05-29 19:05:24</time>
      </trkpt>
      <trkpt lat="42.96712" lon="-2.85727">
        <ele>631.2</ele>
        <time>2021-05-29 19:05:25</time>
      </trkpt>
      <trkpt lat="42.96707" lon="-2.85721">
        <ele>631.4</ele>
        <time>2021-05-29 19:05:26</time>
      </trkpt>
      <trkpt lat="42.96701" lon="-2.85714">
        <ele>631.4</ele>
        <time>2021-05-29 19:05:27</time>
      </trkpt>
      <trkpt lat="42.96696" lon="-2.85707">
        <ele>631.4</ele>
        <time>2021-05-29 19:05:28</time>
      </trkpt>
      <trkpt lat="42.96691" lon="-2.857">
        <ele>631.4</ele>
        <time>2021-05-29 19:05:29</time>
      </trkpt>
      <trkpt lat="42.96685" lon="-2.85693">
        <ele>631.4</ele>
        <time>2021-05-29 19:05:30</time>
      </trkpt>
      <trkpt lat="42.9668" lon="-2.85685">
        <ele>631.4</ele>
        <time>2021-05-29 19:05:31</time>
      </trkpt>
      <trkpt lat="42.96675" lon="-2.85678">
        <ele>631.4</ele>
        <time>2021-05-29 19:05:32</time>
      </trkpt>
      <trkpt lat="42.96669" lon="-2.85671">
        <ele>631.4</ele>
        <time>2021-05-29 19:05:33</time>
      </trkpt>
      <trkpt lat="42.96664" lon="-2.85664">
        <ele>631.4</ele>
        <time>2021-05-29 19:05:34</time>
      </trkpt>
      <trkpt lat="42.96659" lon="-2.85657">
        <ele>631.4</ele>
        <time>2021-05-29 19:05:35</time>
      </trkpt>
      <trkpt lat="42.96654" lon="-2.8565">
        <ele>631.4</ele>
        <time>2021-05-29 19:05:36</time>
      </trkpt>
      <trkpt lat="42.96649" lon="-2.85644">
        <ele>631.4</ele>
        <time>2021-05-29 19:05:37</time>
      </trkpt>
      <trkpt lat="42.96644" lon="-2.85637">
        <ele>631.4</ele>
        <time>2021-05-29 19:05:38</time>
      </trkpt>
      <trkpt lat="42.9664" lon="-2.8563">
        <ele>631.4</ele>
        <time>2021-05-29 19:05:39</time>
      </trkpt>
      <trkpt lat="42.96635" lon="-2.85623">
        <ele>631.4</ele>
        <time>2021-05-29 19:05:40</time>
      </trkpt>
      <trkpt lat="42.9663" lon="-2.85617">
        <ele>631.4</ele>
        <time>2021-05-29 19:05:41</time>
      </trkpt>
      <trkpt lat="42.96625" lon="-2.85611">
        <ele>631.4</ele>
        <time>2021-05-29 19:05:42</time>
      </trkpt>
      <trkpt lat="42.9662" lon="-2.85604">
        <ele>631.6</ele>
        <time>2021-05-29 19:05:43</time>
      </trkpt>
      <trkpt lat="42.96615" lon="-2.85598">
        <ele>631.8</ele>
        <time>2021-05-29 19:05:44</time>
      </trkpt>
      <trkpt lat="42.96611" lon="-2.85591">
        <ele>632</ele>
        <time>2021-05-29 19:05:45</time>
      </trkpt>
      <trkpt lat="42.96606" lon="-2.85585">
        <ele>632.2</ele>
        <time>2021-05-29 19:05:46</time>
      </trkpt>
      <trkpt lat="42.96601" lon="-2.85578">
        <ele>632.4</ele>
        <time>2021-05-29 19:05:47</time>
      </trkpt>
      <trkpt lat="42.96596" lon="-2.85572">
        <ele>632.4</ele>
        <time>2021-05-29 19:05:48</time>
      </trkpt>
      <trkpt lat="42.96591" lon="-2.85565">
        <ele>632.6</ele>
        <time>2021-05-29 19:05:49</time>
      </trkpt>
      <trkpt lat="42.96586" lon="-2.85558">
        <ele>632.6</ele>
        <time>2021-05-29 19:05:50</time>
      </trkpt>
      <trkpt lat="42.9658" lon="-2.85551">
        <ele>632.6</ele>
        <time>2021-05-29 19:05:51</time>
      </trkpt>
      <trkpt lat="42.96575" lon="-2.85543">
        <ele>632.8</ele>
        <time>2021-05-29 19:05:52</time>
      </trkpt>
      <trkpt lat="42.96569" lon="-2.85535">
        <ele>632.8</ele>
        <time>2021-05-29 19:05:53</time>
      </trkpt>
      <trkpt lat="42.96563" lon="-2.85527">
        <ele>632.8</ele>
        <time>2021-05-29 19:05:54</time>
      </trkpt>
      <trkpt lat="42.96557" lon="-2.85519">
        <ele>632.8</ele>
        <time>2021-05-29 19:05:55</time>
      </trkpt>
      <trkpt lat="42.96551" lon="-2.85511">
        <ele>632.8</ele>
        <time>2021-05-29 19:05:56</time>
      </trkpt>
      <trkpt lat="42.96545" lon="-2.85503">
        <ele>632.8</ele>
        <time>2021-05-29 19:05:57</time>
      </trkpt>
      <trkpt lat="42.96538" lon="-2.85495">
        <ele>632.8</ele>
        <time>2021-05-29 19:05:58</time>
      </trkpt>
      <trkpt lat="42.96532" lon="-2.85487">
        <ele>632.6</ele>
        <time>2021-05-29 19:05:59</time>
      </trkpt>
      <trkpt lat="42.96526" lon="-2.85478">
        <ele>632.6</ele>
        <time>2021-05-29 19:06:00</time>
      </trkpt>
      <trkpt lat="42.9652" lon="-2.8547">
        <ele>632.4</ele>
        <time>2021-05-29 19:06:01</time>
      </trkpt>
      <trkpt lat="42.96514" lon="-2.85462">
        <ele>632.4</ele>
        <time>2021-05-29 19:06:02</time>
      </trkpt>
      <trkpt lat="42.96508" lon="-2.85455">
        <ele>632.2</ele>
        <time>2021-05-29 19:06:03</time>
      </trkpt>
      <trkpt lat="42.96502" lon="-2.85447">
        <ele>632.2</ele>
        <time>2021-05-29 19:06:04</time>
      </trkpt>
      <trkpt lat="42.96496" lon="-2.85439">
        <ele>632.2</ele>
        <time>2021-05-29 19:06:05</time>
      </trkpt>
      <trkpt lat="42.9649" lon="-2.85431">
        <ele>632</ele>
        <time>2021-05-29 19:06:06</time>
      </trkpt>
      <trkpt lat="42.96484" lon="-2.85423">
        <ele>631.8</ele>
        <time>2021-05-29 19:06:07</time>
      </trkpt>
      <trkpt lat="42.96478" lon="-2.85415">
        <ele>631.8</ele>
        <time>2021-05-29 19:06:08</time>
      </trkpt>
      <trkpt lat="42.96473" lon="-2.85408">
        <ele>631.8</ele>
        <time>2021-05-29 19:06:09</time>
      </trkpt>
      <trkpt lat="42.96467" lon="-2.854">
        <ele>631.8</ele>
        <time>2021-05-29 19:06:10</time>
      </trkpt>
      <trkpt lat="42.96461" lon="-2.85393">
        <ele>631.8</ele>
        <time>2021-05-29 19:06:11</time>
      </trkpt>
      <trkpt lat="42.96455" lon="-2.85385">
        <ele>632</ele>
        <time>2021-05-29 19:06:12</time>
      </trkpt>
      <trkpt lat="42.9645" lon="-2.85377">
        <ele>632</ele>
        <time>2021-05-29 19:06:13</time>
      </trkpt>
      <trkpt lat="42.96444" lon="-2.85369">
        <ele>632</ele>
        <time>2021-05-29 19:06:14</time>
      </trkpt>
      <trkpt lat="42.96438" lon="-2.85361">
        <ele>632.2</ele>
        <time>2021-05-29 19:06:15</time>
      </trkpt>
      <trkpt lat="42.96432" lon="-2.85354">
        <ele>632.2</ele>
        <time>2021-05-29 19:06:16</time>
      </trkpt>
      <trkpt lat="42.96426" lon="-2.85346">
        <ele>632.2</ele>
        <time>2021-05-29 19:06:17</time>
      </trkpt>
      <trkpt lat="42.96421" lon="-2.85338">
        <ele>632.4</ele>
        <time>2021-05-29 19:06:18</time>
      </trkpt>
      <trkpt lat="42.96415" lon="-2.85331">
        <ele>632.4</ele>
        <time>2021-05-29 19:06:19</time>
      </trkpt>
      <trkpt lat="42.96409" lon="-2.85323">
        <ele>632.4</ele>
        <time>2021-05-29 19:06:20</time>
      </trkpt>
      <trkpt lat="42.96404" lon="-2.85316">
        <ele>632.4</ele>
        <time>2021-05-29 19:06:21</time>
      </trkpt>
      <trkpt lat="42.96399" lon="-2.85309">
        <ele>632.4</ele>
        <time>2021-05-29 19:06:22</time>
      </trkpt>
      <trkpt lat="42.96394" lon="-2.85302">
        <ele>632.4</ele>
        <time>2021-05-29 19:06:23</time>
      </trkpt>
      <trkpt lat="42.96389" lon="-2.85296">
        <ele>632.6</ele>
        <time>2021-05-29 19:06:24</time>
      </trkpt>
      <trkpt lat="42.96384" lon="-2.85289">
        <ele>632.6</ele>
        <time>2021-05-29 19:06:25</time>
      </trkpt>
      <trkpt lat="42.96379" lon="-2.85282">
        <ele>632.8</ele>
        <time>2021-05-29 19:06:26</time>
      </trkpt>
      <trkpt lat="42.96374" lon="-2.85276">
        <ele>633</ele>
        <time>2021-05-29 19:06:27</time>
      </trkpt>
      <trkpt lat="42.96369" lon="-2.85269">
        <ele>633.2</ele>
        <time>2021-05-29 19:06:28</time>
      </trkpt>
      <trkpt lat="42.96364" lon="-2.85263">
        <ele>633.6</ele>
        <time>2021-05-29 19:06:29</time>
      </trkpt>
      <trkpt lat="42.96359" lon="-2.85256">
        <ele>633.8</ele>
        <time>2021-05-29 19:06:30</time>
      </trkpt>
      <trkpt lat="42.96353" lon="-2.8525">
        <ele>634</ele>
        <time>2021-05-29 19:06:31</time>
      </trkpt>
      <trkpt lat="42.96347" lon="-2.85244">
        <ele>634.4</ele>
        <time>2021-05-29 19:06:32</time>
      </trkpt>
      <trkpt lat="42.96341" lon="-2.85238">
        <ele>634.6</ele>
        <time>2021-05-29 19:06:33</time>
      </trkpt>
      <trkpt lat="42.96334" lon="-2.85232">
        <ele>634.8</ele>
        <time>2021-05-29 19:06:34</time>
      </trkpt>
      <trkpt lat="42.96327" lon="-2.85227">
        <ele>635</ele>
        <time>2021-05-29 19:06:35</time>
      </trkpt>
      <trkpt lat="42.9632" lon="-2.85222">
        <ele>635.2</ele>
        <time>2021-05-29 19:06:36</time>
      </trkpt>
      <trkpt lat="42.96313" lon="-2.85217">
        <ele>635.2</ele>
        <time>2021-05-29 19:06:37</time>
      </trkpt>
      <trkpt lat="42.96306" lon="-2.85213">
        <ele>635.4</ele>
        <time>2021-05-29 19:06:38</time>
      </trkpt>
      <trkpt lat="42.96298" lon="-2.85209">
        <ele>635.2</ele>
        <time>2021-05-29 19:06:39</time>
      </trkpt>
      <trkpt lat="42.96291" lon="-2.85204">
        <ele>635.2</ele>
        <time>2021-05-29 19:06:40</time>
      </trkpt>
      <trkpt lat="42.96283" lon="-2.852">
        <ele>635.2</ele>
        <time>2021-05-29 19:06:41</time>
      </trkpt>
      <trkpt lat="42.96275" lon="-2.85195">
        <ele>635.2</ele>
        <time>2021-05-29 19:06:42</time>
      </trkpt>
      <trkpt lat="42.96268" lon="-2.85191">
        <ele>635.2</ele>
        <time>2021-05-29 19:06:43</time>
      </trkpt>
      <trkpt lat="42.9626" lon="-2.85186">
        <ele>635.2</ele>
        <time>2021-05-29 19:06:44</time>
      </trkpt>
      <trkpt lat="42.96252" lon="-2.8518">
        <ele>635.2</ele>
        <time>2021-05-29 19:06:45</time>
      </trkpt>
      <trkpt lat="42.96245" lon="-2.85173">
        <ele>635.2</ele>
        <time>2021-05-29 19:06:46</time>
      </trkpt>
      <trkpt lat="42.96238" lon="-2.85165">
        <ele>635.2</ele>
        <time>2021-05-29 19:06:47</time>
      </trkpt>
      <trkpt lat="42.96232" lon="-2.85157">
        <ele>635.2</ele>
        <time>2021-05-29 19:06:48</time>
      </trkpt>
      <trkpt lat="42.96226" lon="-2.85148">
        <ele>635.2</ele>
        <time>2021-05-29 19:06:49</time>
      </trkpt>
      <trkpt lat="42.9622" lon="-2.85138">
        <ele>635.2</ele>
        <time>2021-05-29 19:06:50</time>
      </trkpt>
      <trkpt lat="42.96215" lon="-2.85127">
        <ele>635.2</ele>
        <time>2021-05-29 19:06:51</time>
      </trkpt>
      <trkpt lat="42.9621" lon="-2.85115">
        <ele>635.2</ele>
        <time>2021-05-29 19:06:52</time>
      </trkpt>
      <trkpt lat="42.96206" lon="-2.85102">
        <ele>635</ele>
        <time>2021-05-29 19:06:53</time>
      </trkpt>
      <trkpt lat="42.96203" lon="-2.85088">
        <ele>635</ele>
        <time>2021-05-29 19:06:54</time>
      </trkpt>
      <trkpt lat="42.96201" lon="-2.85073">
        <ele>634.8</ele>
        <time>2021-05-29 19:06:55</time>
      </trkpt>
      <trkpt lat="42.962" lon="-2.85058">
        <ele>634.6</ele>
        <time>2021-05-29 19:06:56</time>
      </trkpt>
      <trkpt lat="42.96199" lon="-2.85043">
        <ele>634.2</ele>
        <time>2021-05-29 19:06:57</time>
      </trkpt>
      <trkpt lat="42.96199" lon="-2.85028">
        <ele>633.8</ele>
        <time>2021-05-29 19:06:58</time>
      </trkpt>
      <trkpt lat="42.96199" lon="-2.85012">
        <ele>633.2</ele>
        <time>2021-05-29 19:06:59</time>
      </trkpt>
      <trkpt lat="42.96198" lon="-2.84997">
        <ele>632.8</ele>
        <time>2021-05-29 19:07:00</time>
      </trkpt>
      <trkpt lat="42.96198" lon="-2.84983">
        <ele>632.2</ele>
        <time>2021-05-29 19:07:01</time>
      </trkpt>
      <trkpt lat="42.96197" lon="-2.84968">
        <ele>631.8</ele>
        <time>2021-05-29 19:07:02</time>
      </trkpt>
      <trkpt lat="42.96195" lon="-2.84954">
        <ele>631.4</ele>
        <time>2021-05-29 19:07:03</time>
      </trkpt>
      <trkpt lat="42.96192" lon="-2.84939">
        <ele>631</ele>
        <time>2021-05-29 19:07:04</time>
      </trkpt>
      <trkpt lat="42.96189" lon="-2.84925">
        <ele>630.8</ele>
        <time>2021-05-29 19:07:05</time>
      </trkpt>
      <trkpt lat="42.96185" lon="-2.84911">
        <ele>630.6</ele>
        <time>2021-05-29 19:07:06</time>
      </trkpt>
      <trkpt lat="42.9618" lon="-2.84896">
        <ele>630.4</ele>
        <time>2021-05-29 19:07:07</time>
      </trkpt>
      <trkpt lat="42.96176" lon="-2.84882">
        <ele>630.4</ele>
        <time>2021-05-29 19:07:08</time>
      </trkpt>
      <trkpt lat="42.96172" lon="-2.84867">
        <ele>630</ele>
        <time>2021-05-29 19:07:09</time>
      </trkpt>
      <trkpt lat="42.96167" lon="-2.84852">
        <ele>630</ele>
        <time>2021-05-29 19:07:10</time>
      </trkpt>
      <trkpt lat="42.96162" lon="-2.84837">
        <ele>629.8</ele>
        <time>2021-05-29 19:07:11</time>
      </trkpt>
      <trkpt lat="42.96157" lon="-2.84822">
        <ele>629.6</ele>
        <time>2021-05-29 19:07:12</time>
      </trkpt>
      <trkpt lat="42.96153" lon="-2.84806">
        <ele>629.2</ele>
        <time>2021-05-29 19:07:13</time>
      </trkpt>
      <trkpt lat="42.96148" lon="-2.8479">
        <ele>628.8</ele>
        <time>2021-05-29 19:07:14</time>
      </trkpt>
      <trkpt lat="42.96143" lon="-2.84774">
        <ele>627.8</ele>
        <time>2021-05-29 19:07:15</time>
      </trkpt>
      <trkpt lat="42.96138" lon="-2.84757">
        <ele>627.2</ele>
        <time>2021-05-29 19:07:16</time>
      </trkpt>
      <trkpt lat="42.96134" lon="-2.8474">
        <ele>626.8</ele>
        <time>2021-05-29 19:07:17</time>
      </trkpt>
      <trkpt lat="42.96129" lon="-2.84722">
        <ele>626</ele>
        <time>2021-05-29 19:07:18</time>
      </trkpt>
      <trkpt lat="42.96125" lon="-2.84704">
        <ele>624.8</ele>
        <time>2021-05-29 19:07:19</time>
      </trkpt>
      <trkpt lat="42.9612" lon="-2.84686">
        <ele>624.2</ele>
        <time>2021-05-29 19:07:20</time>
      </trkpt>
      <trkpt lat="42.96116" lon="-2.84668">
        <ele>623.6</ele>
        <time>2021-05-29 19:07:21</time>
      </trkpt>
      <trkpt lat="42.96111" lon="-2.8465">
        <ele>623</ele>
        <time>2021-05-29 19:07:22</time>
      </trkpt>
      <trkpt lat="42.96106" lon="-2.84632">
        <ele>622.2</ele>
        <time>2021-05-29 19:07:23</time>
      </trkpt>
      <trkpt lat="42.96101" lon="-2.84614">
        <ele>621.4</ele>
        <time>2021-05-29 19:07:24</time>
      </trkpt>
      <trkpt lat="42.96097" lon="-2.84595">
        <ele>620.6</ele>
        <time>2021-05-29 19:07:25</time>
      </trkpt>
      <trkpt lat="42.96092" lon="-2.84577">
        <ele>620.2</ele>
        <time>2021-05-29 19:07:26</time>
      </trkpt>
      <trkpt lat="42.96087" lon="-2.84558">
        <ele>619.2</ele>
        <time>2021-05-29 19:07:27</time>
      </trkpt>
      <trkpt lat="42.96082" lon="-2.84539">
        <ele>618</ele>
        <time>2021-05-29 19:07:28</time>
      </trkpt>
      <trkpt lat="42.96077" lon="-2.8452">
        <ele>616.4</ele>
        <time>2021-05-29 19:07:29</time>
      </trkpt>
      <trkpt lat="42.96072" lon="-2.84501">
        <ele>614.8</ele>
        <time>2021-05-29 19:07:30</time>
      </trkpt>
      <trkpt lat="42.96067" lon="-2.84482">
        <ele>614</ele>
        <time>2021-05-29 19:07:31</time>
      </trkpt>
      <trkpt lat="42.96062" lon="-2.84463">
        <ele>613</ele>
        <time>2021-05-29 19:07:32</time>
      </trkpt>
      <trkpt lat="42.96057" lon="-2.84444">
        <ele>612.6</ele>
        <time>2021-05-29 19:07:33</time>
      </trkpt>
      <trkpt lat="42.96053" lon="-2.84425">
        <ele>612.2</ele>
        <time>2021-05-29 19:07:34</time>
      </trkpt>
      <trkpt lat="42.96048" lon="-2.84407">
        <ele>611.8</ele>
        <time>2021-05-29 19:07:35</time>
      </trkpt>
      <trkpt lat="42.96043" lon="-2.84388">
        <ele>611.2</ele>
        <time>2021-05-29 19:07:36</time>
      </trkpt>
      <trkpt lat="42.96038" lon="-2.8437">
        <ele>610.4</ele>
        <time>2021-05-29 19:07:37</time>
      </trkpt>
      <trkpt lat="42.96034" lon="-2.84352">
        <ele>610</ele>
        <time>2021-05-29 19:07:38</time>
      </trkpt>
      <trkpt lat="42.96029" lon="-2.84334">
        <ele>609.4</ele>
        <time>2021-05-29 19:07:39</time>
      </trkpt>
      <trkpt lat="42.96024" lon="-2.84316">
        <ele>608.8</ele>
        <time>2021-05-29 19:07:40</time>
      </trkpt>
      <trkpt lat="42.9602" lon="-2.84298">
        <ele>608.4</ele>
        <time>2021-05-29 19:07:41</time>
      </trkpt>
      <trkpt lat="42.96016" lon="-2.84281">
        <ele>608.2</ele>
        <time>2021-05-29 19:07:42</time>
      </trkpt>
      <trkpt lat="42.96012" lon="-2.84263">
        <ele>607.8</ele>
        <time>2021-05-29 19:07:43</time>
      </trkpt>
      <trkpt lat="42.96008" lon="-2.84247">
        <ele>607.4</ele>
        <time>2021-05-29 19:07:44</time>
      </trkpt>
      <trkpt lat="42.96003" lon="-2.8423">
        <ele>607.4</ele>
        <time>2021-05-29 19:07:45</time>
      </trkpt>
      <trkpt lat="42.95999" lon="-2.84215">
        <ele>607</ele>
        <time>2021-05-29 19:07:46</time>
      </trkpt>
      <trkpt lat="42.95995" lon="-2.84199">
        <ele>606.8</ele>
        <time>2021-05-29 19:07:47</time>
      </trkpt>
      <trkpt lat="42.95991" lon="-2.84184">
        <ele>606.8</ele>
        <time>2021-05-29 19:07:48</time>
      </trkpt>
      <trkpt lat="42.95987" lon="-2.84169">
        <ele>606.8</ele>
        <time>2021-05-29 19:07:49</time>
      </trkpt>
      <trkpt lat="42.95983" lon="-2.84155">
        <ele>606.8</ele>
        <time>2021-05-29 19:07:50</time>
      </trkpt>
      <trkpt lat="42.95979" lon="-2.84141">
        <ele>606.8</ele>
        <time>2021-05-29 19:07:51</time>
      </trkpt>
      <trkpt lat="42.95976" lon="-2.84127">
        <ele>606.8</ele>
        <time>2021-05-29 19:07:52</time>
      </trkpt>
      <trkpt lat="42.95973" lon="-2.84114">
        <ele>606.8</ele>
        <time>2021-05-29 19:07:53</time>
      </trkpt>
      <trkpt lat="42.95969" lon="-2.84102">
        <ele>606.8</ele>
        <time>2021-05-29 19:07:54</time>
      </trkpt>
      <trkpt lat="42.95966" lon="-2.84089">
        <ele>607</ele>
        <time>2021-05-29 19:07:55</time>
      </trkpt>
      <trkpt lat="42.95962" lon="-2.84077">
        <ele>607.4</ele>
        <time>2021-05-29 19:07:56</time>
      </trkpt>
      <trkpt lat="42.95958" lon="-2.84065">
        <ele>607.8</ele>
        <time>2021-05-29 19:07:57</time>
      </trkpt>
      <trkpt lat="42.95954" lon="-2.84052">
        <ele>608.2</ele>
        <time>2021-05-29 19:07:58</time>
      </trkpt>
      <trkpt lat="42.9595" lon="-2.8404">
        <ele>608.4</ele>
        <time>2021-05-29 19:07:59</time>
      </trkpt>
      <trkpt lat="42.95942" lon="-2.84014">
        <ele>608.6</ele>
        <time>2021-05-29 19:08:02</time>
      </trkpt>
      <trkpt lat="42.95938" lon="-2.84001">
        <ele>608.8</ele>
        <time>2021-05-29 19:08:03</time>
      </trkpt>
      <trkpt lat="42.95933" lon="-2.83988">
        <ele>608.8</ele>
        <time>2021-05-29 19:08:04</time>
      </trkpt>
      <trkpt lat="42.95928" lon="-2.83974">
        <ele>608.8</ele>
        <time>2021-05-29 19:08:05</time>
      </trkpt>
      <trkpt lat="42.95923" lon="-2.83961">
        <ele>608.8</ele>
        <time>2021-05-29 19:08:06</time>
      </trkpt>
      <trkpt lat="42.95918" lon="-2.83947">
        <ele>608.8</ele>
        <time>2021-05-29 19:08:07</time>
      </trkpt>
      <trkpt lat="42.95913" lon="-2.83933">
        <ele>608.8</ele>
        <time>2021-05-29 19:08:08</time>
      </trkpt>
      <trkpt lat="42.95908" lon="-2.83919">
        <ele>608.8</ele>
        <time>2021-05-29 19:08:09</time>
      </trkpt>
      <trkpt lat="42.95903" lon="-2.83905">
        <ele>608.8</ele>
        <time>2021-05-29 19:08:10</time>
      </trkpt>
      <trkpt lat="42.95898" lon="-2.83891">
        <ele>608.8</ele>
        <time>2021-05-29 19:08:11</time>
      </trkpt>
      <trkpt lat="42.95893" lon="-2.83876">
        <ele>608.4</ele>
        <time>2021-05-29 19:08:12</time>
      </trkpt>
      <trkpt lat="42.95888" lon="-2.83862">
        <ele>608.2</ele>
        <time>2021-05-29 19:08:13</time>
      </trkpt>
      <trkpt lat="42.95884" lon="-2.83848">
        <ele>608</ele>
        <time>2021-05-29 19:08:14</time>
      </trkpt>
      <trkpt lat="42.95879" lon="-2.83834">
        <ele>607.8</ele>
        <time>2021-05-29 19:08:15</time>
      </trkpt>
      <trkpt lat="42.95874" lon="-2.8382">
        <ele>607.6</ele>
        <time>2021-05-29 19:08:16</time>
      </trkpt>
      <trkpt lat="42.95869" lon="-2.83807">
        <ele>607</ele>
        <time>2021-05-29 19:08:17</time>
      </trkpt>
      <trkpt lat="42.95865" lon="-2.83793">
        <ele>606.8</ele>
        <time>2021-05-29 19:08:18</time>
      </trkpt>
      <trkpt lat="42.9586" lon="-2.83779">
        <ele>606.6</ele>
        <time>2021-05-29 19:08:19</time>
      </trkpt>
      <trkpt lat="42.95856" lon="-2.83766">
        <ele>606.4</ele>
        <time>2021-05-29 19:08:20</time>
      </trkpt>
      <trkpt lat="42.95851" lon="-2.83752">
        <ele>606</ele>
        <time>2021-05-29 19:08:21</time>
      </trkpt>
      <trkpt lat="42.95847" lon="-2.83738">
        <ele>605.8</ele>
        <time>2021-05-29 19:08:22</time>
      </trkpt>
      <trkpt lat="42.95842" lon="-2.83725">
        <ele>605.6</ele>
        <time>2021-05-29 19:08:23</time>
      </trkpt>
      <trkpt lat="42.95837" lon="-2.83712">
        <ele>605.4</ele>
        <time>2021-05-29 19:08:24</time>
      </trkpt>
      <trkpt lat="42.95833" lon="-2.83698">
        <ele>605.4</ele>
        <time>2021-05-29 19:08:25</time>
      </trkpt>
      <trkpt lat="42.95828" lon="-2.83685">
        <ele>605.4</ele>
        <time>2021-05-29 19:08:26</time>
      </trkpt>
      <trkpt lat="42.95824" lon="-2.83672">
        <ele>605.4</ele>
        <time>2021-05-29 19:08:27</time>
      </trkpt>
      <trkpt lat="42.95819" lon="-2.8366">
        <ele>605.4</ele>
        <time>2021-05-29 19:08:28</time>
      </trkpt>
      <trkpt lat="42.95815" lon="-2.83647">
        <ele>605.4</ele>
        <time>2021-05-29 19:08:29</time>
      </trkpt>
      <trkpt lat="42.95811" lon="-2.83635">
        <ele>605.4</ele>
        <time>2021-05-29 19:08:30</time>
      </trkpt>
      <trkpt lat="42.95806" lon="-2.83622">
        <ele>605.4</ele>
        <time>2021-05-29 19:08:31</time>
      </trkpt>
      <trkpt lat="42.95803" lon="-2.8361">
        <ele>605.4</ele>
        <time>2021-05-29 19:08:32</time>
      </trkpt>
      <trkpt lat="42.95799" lon="-2.83597">
        <ele>605.4</ele>
        <time>2021-05-29 19:08:33</time>
      </trkpt>
      <trkpt lat="42.95797" lon="-2.83585">
        <ele>605.4</ele>
        <time>2021-05-29 19:08:34</time>
      </trkpt>
      <trkpt lat="42.95794" lon="-2.83572">
        <ele>605.4</ele>
        <time>2021-05-29 19:08:35</time>
      </trkpt>
      <trkpt lat="42.95793" lon="-2.8356">
        <ele>605.4</ele>
        <time>2021-05-29 19:08:36</time>
      </trkpt>
      <trkpt lat="42.95792" lon="-2.83547">
        <ele>605.4</ele>
        <time>2021-05-29 19:08:37</time>
      </trkpt>
      <trkpt lat="42.9579" lon="-2.83534">
        <ele>605.4</ele>
        <time>2021-05-29 19:08:38</time>
      </trkpt>
      <trkpt lat="42.9579" lon="-2.83522">
        <ele>605.6</ele>
        <time>2021-05-29 19:08:39</time>
      </trkpt>
      <trkpt lat="42.95789" lon="-2.83509">
        <ele>605.6</ele>
        <time>2021-05-29 19:08:40</time>
      </trkpt>
      <trkpt lat="42.95788" lon="-2.83497">
        <ele>605.6</ele>
        <time>2021-05-29 19:08:41</time>
      </trkpt>
      <trkpt lat="42.95787" lon="-2.83484">
        <ele>605.8</ele>
        <time>2021-05-29 19:08:42</time>
      </trkpt>
      <trkpt lat="42.95785" lon="-2.83472">
        <ele>606</ele>
        <time>2021-05-29 19:08:43</time>
      </trkpt>
      <trkpt lat="42.95784" lon="-2.83459">
        <ele>606.2</ele>
        <time>2021-05-29 19:08:44</time>
      </trkpt>
      <trkpt lat="42.95784" lon="-2.83447">
        <ele>606.4</ele>
        <time>2021-05-29 19:08:45</time>
      </trkpt>
      <trkpt lat="42.95783" lon="-2.83434">
        <ele>606.4</ele>
        <time>2021-05-29 19:08:46</time>
      </trkpt>
      <trkpt lat="42.95782" lon="-2.83421">
        <ele>606.4</ele>
        <time>2021-05-29 19:08:47</time>
      </trkpt>
      <trkpt lat="42.9578" lon="-2.83408">
        <ele>606.4</ele>
        <time>2021-05-29 19:08:48</time>
      </trkpt>
      <trkpt lat="42.95779" lon="-2.83395">
        <ele>606.4</ele>
        <time>2021-05-29 19:08:49</time>
      </trkpt>
      <trkpt lat="42.95779" lon="-2.83382">
        <ele>606.4</ele>
        <time>2021-05-29 19:08:50</time>
      </trkpt>
      <trkpt lat="42.95778" lon="-2.83369">
        <ele>606.6</ele>
        <time>2021-05-29 19:08:51</time>
      </trkpt>
      <trkpt lat="42.95777" lon="-2.83357">
        <ele>606.6</ele>
        <time>2021-05-29 19:08:52</time>
      </trkpt>
      <trkpt lat="42.95776" lon="-2.83344">
        <ele>606.6</ele>
        <time>2021-05-29 19:08:53</time>
      </trkpt>
      <trkpt lat="42.95775" lon="-2.83332">
        <ele>606.6</ele>
        <time>2021-05-29 19:08:54</time>
      </trkpt>
      <trkpt lat="42.95774" lon="-2.8332">
        <ele>606.6</ele>
        <time>2021-05-29 19:08:55</time>
      </trkpt>
      <trkpt lat="42.95773" lon="-2.83307">
        <ele>606.6</ele>
        <time>2021-05-29 19:08:56</time>
      </trkpt>
      <trkpt lat="42.95772" lon="-2.83296">
        <ele>606.6</ele>
        <time>2021-05-29 19:08:57</time>
      </trkpt>
      <trkpt lat="42.95772" lon="-2.83284">
        <ele>606.6</ele>
        <time>2021-05-29 19:08:58</time>
      </trkpt>
      <trkpt lat="42.95771" lon="-2.83272">
        <ele>606.6</ele>
        <time>2021-05-29 19:08:59</time>
      </trkpt>
      <trkpt lat="42.9577" lon="-2.83261">
        <ele>606.8</ele>
        <time>2021-05-29 19:09:00</time>
      </trkpt>
      <trkpt lat="42.95769" lon="-2.83249">
        <ele>606.8</ele>
        <time>2021-05-29 19:09:01</time>
      </trkpt>
      <trkpt lat="42.95768" lon="-2.83238">
        <ele>606.8</ele>
        <time>2021-05-29 19:09:02</time>
      </trkpt>
      <trkpt lat="42.95767" lon="-2.83226">
        <ele>606.8</ele>
        <time>2021-05-29 19:09:03</time>
      </trkpt>
      <trkpt lat="42.95767" lon="-2.83214">
        <ele>606.8</ele>
        <time>2021-05-29 19:09:04</time>
      </trkpt>
      <trkpt lat="42.95765" lon="-2.83203">
        <ele>606.8</ele>
        <time>2021-05-29 19:09:05</time>
      </trkpt>
      <trkpt lat="42.95765" lon="-2.83191">
        <ele>606.6</ele>
        <time>2021-05-29 19:09:06</time>
      </trkpt>
      <trkpt lat="42.95764" lon="-2.83179">
        <ele>606.8</ele>
        <time>2021-05-29 19:09:07</time>
      </trkpt>
      <trkpt lat="42.95763" lon="-2.83167">
        <ele>606.8</ele>
        <time>2021-05-29 19:09:08</time>
      </trkpt>
      <trkpt lat="42.95762" lon="-2.83156">
        <ele>606.8</ele>
        <time>2021-05-29 19:09:09</time>
      </trkpt>
      <trkpt lat="42.95761" lon="-2.83144">
        <ele>607</ele>
        <time>2021-05-29 19:09:10</time>
      </trkpt>
      <trkpt lat="42.9576" lon="-2.83133">
        <ele>607</ele>
        <time>2021-05-29 19:09:11</time>
      </trkpt>
      <trkpt lat="42.95759" lon="-2.83121">
        <ele>607.2</ele>
        <time>2021-05-29 19:09:12</time>
      </trkpt>
      <trkpt lat="42.95758" lon="-2.8311">
        <ele>607.2</ele>
        <time>2021-05-29 19:09:13</time>
      </trkpt>
      <trkpt lat="42.95757" lon="-2.83098">
        <ele>607.2</ele>
        <time>2021-05-29 19:09:14</time>
      </trkpt>
      <trkpt lat="42.95757" lon="-2.83087">
        <ele>607.2</ele>
        <time>2021-05-29 19:09:15</time>
      </trkpt>
      <trkpt lat="42.95756" lon="-2.83076">
        <ele>607.4</ele>
        <time>2021-05-29 19:09:16</time>
      </trkpt>
      <trkpt lat="42.95755" lon="-2.83065">
        <ele>607.4</ele>
        <time>2021-05-29 19:09:17</time>
      </trkpt>
      <trkpt lat="42.95754" lon="-2.83053">
        <ele>607.4</ele>
        <time>2021-05-29 19:09:18</time>
      </trkpt>
      <trkpt lat="42.95753" lon="-2.83041">
        <ele>607.4</ele>
        <time>2021-05-29 19:09:19</time>
      </trkpt>
      <trkpt lat="42.95752" lon="-2.83029">
        <ele>607.4</ele>
        <time>2021-05-29 19:09:20</time>
      </trkpt>
      <trkpt lat="42.95751" lon="-2.83017">
        <ele>607.4</ele>
        <time>2021-05-29 19:09:21</time>
      </trkpt>
      <trkpt lat="42.9575" lon="-2.83005">
        <ele>607.4</ele>
        <time>2021-05-29 19:09:22</time>
      </trkpt>
      <trkpt lat="42.9575" lon="-2.82994">
        <ele>607.4</ele>
        <time>2021-05-29 19:09:23</time>
      </trkpt>
      <trkpt lat="42.95749" lon="-2.82982">
        <ele>607.4</ele>
        <time>2021-05-29 19:09:24</time>
      </trkpt>
      <trkpt lat="42.95748" lon="-2.8297">
        <ele>607.4</ele>
        <time>2021-05-29 19:09:25</time>
      </trkpt>
      <trkpt lat="42.95747" lon="-2.82959">
        <ele>607.4</ele>
        <time>2021-05-29 19:09:26</time>
      </trkpt>
      <trkpt lat="42.95746" lon="-2.82947">
        <ele>607.4</ele>
        <time>2021-05-29 19:09:27</time>
      </trkpt>
      <trkpt lat="42.95745" lon="-2.82936">
        <ele>607.4</ele>
        <time>2021-05-29 19:09:28</time>
      </trkpt>
      <trkpt lat="42.95744" lon="-2.82924">
        <ele>607.4</ele>
        <time>2021-05-29 19:09:29</time>
      </trkpt>
      <trkpt lat="42.95744" lon="-2.82913">
        <ele>607.4</ele>
        <time>2021-05-29 19:09:30</time>
      </trkpt>
      <trkpt lat="42.95743" lon="-2.82901">
        <ele>607.4</ele>
        <time>2021-05-29 19:09:31</time>
      </trkpt>
      <trkpt lat="42.95742" lon="-2.82889">
        <ele>607.4</ele>
        <time>2021-05-29 19:09:32</time>
      </trkpt>
      <trkpt lat="42.95741" lon="-2.82878">
        <ele>607.4</ele>
        <time>2021-05-29 19:09:33</time>
      </trkpt>
      <trkpt lat="42.9574" lon="-2.82866">
        <ele>607.4</ele>
        <time>2021-05-29 19:09:34</time>
      </trkpt>
      <trkpt lat="42.95739" lon="-2.82855">
        <ele>607.4</ele>
        <time>2021-05-29 19:09:35</time>
      </trkpt>
      <trkpt lat="42.95738" lon="-2.82843">
        <ele>607.4</ele>
        <time>2021-05-29 19:09:36</time>
      </trkpt>
      <trkpt lat="42.95738" lon="-2.82832">
        <ele>607.6</ele>
        <time>2021-05-29 19:09:37</time>
      </trkpt>
      <trkpt lat="42.95737" lon="-2.82821">
        <ele>607.6</ele>
        <time>2021-05-29 19:09:38</time>
      </trkpt>
      <trkpt lat="42.95736" lon="-2.8281">
        <ele>607.6</ele>
        <time>2021-05-29 19:09:39</time>
      </trkpt>
      <trkpt lat="42.95735" lon="-2.82799">
        <ele>607.6</ele>
        <time>2021-05-29 19:09:40</time>
      </trkpt>
      <trkpt lat="42.95734" lon="-2.82787">
        <ele>607.8</ele>
        <time>2021-05-29 19:09:41</time>
      </trkpt>
      <trkpt lat="42.95733" lon="-2.82776">
        <ele>607.8</ele>
        <time>2021-05-29 19:09:42</time>
      </trkpt>
      <trkpt lat="42.95733" lon="-2.82765">
        <ele>608</ele>
        <time>2021-05-29 19:09:43</time>
      </trkpt>
      <trkpt lat="42.95732" lon="-2.82754">
        <ele>608</ele>
        <time>2021-05-29 19:09:44</time>
      </trkpt>
      <trkpt lat="42.95731" lon="-2.82742">
        <ele>608.2</ele>
        <time>2021-05-29 19:09:45</time>
      </trkpt>
      <trkpt lat="42.9573" lon="-2.82731">
        <ele>608.2</ele>
        <time>2021-05-29 19:09:46</time>
      </trkpt>
      <trkpt lat="42.9573" lon="-2.8272">
        <ele>608.2</ele>
        <time>2021-05-29 19:09:47</time>
      </trkpt>
      <trkpt lat="42.95729" lon="-2.82709">
        <ele>608.4</ele>
        <time>2021-05-29 19:09:48</time>
      </trkpt>
      <trkpt lat="42.95728" lon="-2.82698">
        <ele>608.4</ele>
        <time>2021-05-29 19:09:49</time>
      </trkpt>
      <trkpt lat="42.95727" lon="-2.82687">
        <ele>608.6</ele>
        <time>2021-05-29 19:09:50</time>
      </trkpt>
      <trkpt lat="42.95727" lon="-2.82676">
        <ele>608.6</ele>
        <time>2021-05-29 19:09:51</time>
      </trkpt>
      <trkpt lat="42.95726" lon="-2.82665">
        <ele>608.6</ele>
        <time>2021-05-29 19:09:52</time>
      </trkpt>
      <trkpt lat="42.95725" lon="-2.82654">
        <ele>608.8</ele>
        <time>2021-05-29 19:09:53</time>
      </trkpt>
      <trkpt lat="42.95724" lon="-2.82643">
        <ele>608.8</ele>
        <time>2021-05-29 19:09:54</time>
      </trkpt>
      <trkpt lat="42.95723" lon="-2.82633">
        <ele>608.8</ele>
        <time>2021-05-29 19:09:55</time>
      </trkpt>
      <trkpt lat="42.95723" lon="-2.82622">
        <ele>609</ele>
        <time>2021-05-29 19:09:56</time>
      </trkpt>
      <trkpt lat="42.95722" lon="-2.82611">
        <ele>609</ele>
        <time>2021-05-29 19:09:57</time>
      </trkpt>
      <trkpt lat="42.95721" lon="-2.826">
        <ele>609.2</ele>
        <time>2021-05-29 19:09:58</time>
      </trkpt>
      <trkpt lat="42.9572" lon="-2.82589">
        <ele>609.2</ele>
        <time>2021-05-29 19:09:59</time>
      </trkpt>
      <trkpt lat="42.95719" lon="-2.82579">
        <ele>609.2</ele>
        <time>2021-05-29 19:10:00</time>
      </trkpt>
      <trkpt lat="42.95718" lon="-2.82568">
        <ele>609.4</ele>
        <time>2021-05-29 19:10:01</time>
      </trkpt>
      <trkpt lat="42.95718" lon="-2.82557">
        <ele>609.4</ele>
        <time>2021-05-29 19:10:02</time>
      </trkpt>
      <trkpt lat="42.95717" lon="-2.82546">
        <ele>609.4</ele>
        <time>2021-05-29 19:10:03</time>
      </trkpt>
      <trkpt lat="42.95716" lon="-2.82536">
        <ele>609.6</ele>
        <time>2021-05-29 19:10:04</time>
      </trkpt>
      <trkpt lat="42.95715" lon="-2.82525">
        <ele>609.6</ele>
        <time>2021-05-29 19:10:05</time>
      </trkpt>
      <trkpt lat="42.95714" lon="-2.82514">
        <ele>609.6</ele>
        <time>2021-05-29 19:10:06</time>
      </trkpt>
      <trkpt lat="42.95714" lon="-2.82503">
        <ele>609.8</ele>
        <time>2021-05-29 19:10:07</time>
      </trkpt>
      <trkpt lat="42.95713" lon="-2.82493">
        <ele>609.8</ele>
        <time>2021-05-29 19:10:08</time>
      </trkpt>
      <trkpt lat="42.95712" lon="-2.82482">
        <ele>609.8</ele>
        <time>2021-05-29 19:10:09</time>
      </trkpt>
      <trkpt lat="42.95711" lon="-2.82472">
        <ele>609.8</ele>
        <time>2021-05-29 19:10:10</time>
      </trkpt>
      <trkpt lat="42.9571" lon="-2.82461">
        <ele>610</ele>
        <time>2021-05-29 19:10:11</time>
      </trkpt>
      <trkpt lat="42.9571" lon="-2.8245">
        <ele>610</ele>
        <time>2021-05-29 19:10:12</time>
      </trkpt>
      <trkpt lat="42.95709" lon="-2.82439">
        <ele>610</ele>
        <time>2021-05-29 19:10:13</time>
      </trkpt>
      <trkpt lat="42.95708" lon="-2.82427">
        <ele>610</ele>
        <time>2021-05-29 19:10:14</time>
      </trkpt>
      <trkpt lat="42.95707" lon="-2.82415">
        <ele>610</ele>
        <time>2021-05-29 19:10:15</time>
      </trkpt>
      <trkpt lat="42.95706" lon="-2.82404">
        <ele>610</ele>
        <time>2021-05-29 19:10:16</time>
      </trkpt>
      <trkpt lat="42.95704" lon="-2.82392">
        <ele>610</ele>
        <time>2021-05-29 19:10:17</time>
      </trkpt>
      <trkpt lat="42.95703" lon="-2.8238">
        <ele>610</ele>
        <time>2021-05-29 19:10:18</time>
      </trkpt>
      <trkpt lat="42.957" lon="-2.82369">
        <ele>610</ele>
        <time>2021-05-29 19:10:19</time>
      </trkpt>
      <trkpt lat="42.95698" lon="-2.82358">
        <ele>610</ele>
        <time>2021-05-29 19:10:20</time>
      </trkpt>
      <trkpt lat="42.95696" lon="-2.82346">
        <ele>610</ele>
        <time>2021-05-29 19:10:21</time>
      </trkpt>
      <trkpt lat="42.95693" lon="-2.82335">
        <ele>610</ele>
        <time>2021-05-29 19:10:22</time>
      </trkpt>
      <trkpt lat="42.95691" lon="-2.82325">
        <ele>610</ele>
        <time>2021-05-29 19:10:23</time>
      </trkpt>
      <trkpt lat="42.95688" lon="-2.82314">
        <ele>609.8</ele>
        <time>2021-05-29 19:10:24</time>
      </trkpt>
      <trkpt lat="42.95685" lon="-2.82303">
        <ele>609.8</ele>
        <time>2021-05-29 19:10:25</time>
      </trkpt>
      <trkpt lat="42.95682" lon="-2.82292">
        <ele>609.8</ele>
        <time>2021-05-29 19:10:26</time>
      </trkpt>
      <trkpt lat="42.9568" lon="-2.82281">
        <ele>609.8</ele>
        <time>2021-05-29 19:10:27</time>
      </trkpt>
      <trkpt lat="42.95677" lon="-2.8227">
        <ele>609.8</ele>
        <time>2021-05-29 19:10:28</time>
      </trkpt>
      <trkpt lat="42.95674" lon="-2.82259">
        <ele>609.8</ele>
        <time>2021-05-29 19:10:29</time>
      </trkpt>
      <trkpt lat="42.95671" lon="-2.82248">
        <ele>609.8</ele>
        <time>2021-05-29 19:10:30</time>
      </trkpt>
      <trkpt lat="42.95668" lon="-2.82237">
        <ele>609.8</ele>
        <time>2021-05-29 19:10:31</time>
      </trkpt>
      <trkpt lat="42.95665" lon="-2.82226">
        <ele>609.8</ele>
        <time>2021-05-29 19:10:32</time>
      </trkpt>
      <trkpt lat="42.95663" lon="-2.82215">
        <ele>609.8</ele>
        <time>2021-05-29 19:10:33</time>
      </trkpt>
      <trkpt lat="42.9566" lon="-2.82204">
        <ele>610</ele>
        <time>2021-05-29 19:10:34</time>
      </trkpt>
      <trkpt lat="42.95657" lon="-2.82193">
        <ele>610</ele>
        <time>2021-05-29 19:10:35</time>
      </trkpt>
      <trkpt lat="42.95655" lon="-2.82181">
        <ele>610</ele>
        <time>2021-05-29 19:10:36</time>
      </trkpt>
      <trkpt lat="42.95652" lon="-2.8217">
        <ele>610</ele>
        <time>2021-05-29 19:10:37</time>
      </trkpt>
      <trkpt lat="42.95649" lon="-2.82159">
        <ele>610</ele>
        <time>2021-05-29 19:10:38</time>
      </trkpt>
      <trkpt lat="42.95646" lon="-2.82147">
        <ele>610</ele>
        <time>2021-05-29 19:10:39</time>
      </trkpt>
      <trkpt lat="42.95644" lon="-2.82136">
        <ele>610</ele>
        <time>2021-05-29 19:10:40</time>
      </trkpt>
      <trkpt lat="42.95641" lon="-2.82124">
        <ele>610</ele>
        <time>2021-05-29 19:10:41</time>
      </trkpt>
      <trkpt lat="42.95638" lon="-2.82112">
        <ele>610</ele>
        <time>2021-05-29 19:10:42</time>
      </trkpt>
      <trkpt lat="42.95635" lon="-2.82101">
        <ele>610</ele>
        <time>2021-05-29 19:10:43</time>
      </trkpt>
      <trkpt lat="42.95632" lon="-2.82089">
        <ele>610</ele>
        <time>2021-05-29 19:10:44</time>
      </trkpt>
      <trkpt lat="42.95629" lon="-2.82077">
        <ele>610</ele>
        <time>2021-05-29 19:10:45</time>
      </trkpt>
      <trkpt lat="42.95626" lon="-2.82066">
        <ele>610.2</ele>
        <time>2021-05-29 19:10:46</time>
      </trkpt>
      <trkpt lat="42.95623" lon="-2.82054">
        <ele>610.2</ele>
        <time>2021-05-29 19:10:47</time>
      </trkpt>
      <trkpt lat="42.95621" lon="-2.82043">
        <ele>610.2</ele>
        <time>2021-05-29 19:10:48</time>
      </trkpt>
      <trkpt lat="42.95619" lon="-2.82031">
        <ele>610.2</ele>
        <time>2021-05-29 19:10:49</time>
      </trkpt>
      <trkpt lat="42.95617" lon="-2.82019">
        <ele>610.4</ele>
        <time>2021-05-29 19:10:50</time>
      </trkpt>
      <trkpt lat="42.95616" lon="-2.82007">
        <ele>610.4</ele>
        <time>2021-05-29 19:10:51</time>
      </trkpt>
      <trkpt lat="42.95615" lon="-2.81995">
        <ele>610.4</ele>
        <time>2021-05-29 19:10:52</time>
      </trkpt>
      <trkpt lat="42.95614" lon="-2.81983">
        <ele>610.4</ele>
        <time>2021-05-29 19:10:53</time>
      </trkpt>
      <trkpt lat="42.95614" lon="-2.81971">
        <ele>610.4</ele>
        <time>2021-05-29 19:10:54</time>
      </trkpt>
      <trkpt lat="42.95614" lon="-2.81959">
        <ele>610.6</ele>
        <time>2021-05-29 19:10:55</time>
      </trkpt>
      <trkpt lat="42.95615" lon="-2.81948">
        <ele>610.6</ele>
        <time>2021-05-29 19:10:56</time>
      </trkpt>
      <trkpt lat="42.95616" lon="-2.81936">
        <ele>610.6</ele>
        <time>2021-05-29 19:10:57</time>
      </trkpt>
      <trkpt lat="42.95618" lon="-2.81925">
        <ele>610.8</ele>
        <time>2021-05-29 19:10:58</time>
      </trkpt>
      <trkpt lat="42.95619" lon="-2.81913">
        <ele>611</ele>
        <time>2021-05-29 19:10:59</time>
      </trkpt>
      <trkpt lat="42.9562" lon="-2.81901">
        <ele>610.8</ele>
        <time>2021-05-29 19:11:00</time>
      </trkpt>
      <trkpt lat="42.95621" lon="-2.81889">
        <ele>611</ele>
        <time>2021-05-29 19:11:01</time>
      </trkpt>
      <trkpt lat="42.95622" lon="-2.81877">
        <ele>611</ele>
        <time>2021-05-29 19:11:02</time>
      </trkpt>
      <trkpt lat="42.95623" lon="-2.81865">
        <ele>611</ele>
        <time>2021-05-29 19:11:03</time>
      </trkpt>
      <trkpt lat="42.95624" lon="-2.81854">
        <ele>611</ele>
        <time>2021-05-29 19:11:04</time>
      </trkpt>
      <trkpt lat="42.95625" lon="-2.81842">
        <ele>611.2</ele>
        <time>2021-05-29 19:11:05</time>
      </trkpt>
      <trkpt lat="42.95626" lon="-2.8183">
        <ele>611.2</ele>
        <time>2021-05-29 19:11:06</time>
      </trkpt>
      <trkpt lat="42.95627" lon="-2.81819">
        <ele>611.2</ele>
        <time>2021-05-29 19:11:07</time>
      </trkpt>
      <trkpt lat="42.95628" lon="-2.81807">
        <ele>611.2</ele>
        <time>2021-05-29 19:11:08</time>
      </trkpt>
      <trkpt lat="42.95629" lon="-2.81795">
        <ele>611.4</ele>
        <time>2021-05-29 19:11:09</time>
      </trkpt>
      <trkpt lat="42.9563" lon="-2.81783">
        <ele>611.4</ele>
        <time>2021-05-29 19:11:10</time>
      </trkpt>
      <trkpt lat="42.95631" lon="-2.81771">
        <ele>611.6</ele>
        <time>2021-05-29 19:11:11</time>
      </trkpt>
      <trkpt lat="42.95632" lon="-2.81759">
        <ele>611.6</ele>
        <time>2021-05-29 19:11:12</time>
      </trkpt>
      <trkpt lat="42.95633" lon="-2.81748">
        <ele>611.6</ele>
        <time>2021-05-29 19:11:13</time>
      </trkpt>
      <trkpt lat="42.95634" lon="-2.81736">
        <ele>611.6</ele>
        <time>2021-05-29 19:11:14</time>
      </trkpt>
      <trkpt lat="42.95635" lon="-2.81724">
        <ele>611.8</ele>
        <time>2021-05-29 19:11:15</time>
      </trkpt>
      <trkpt lat="42.95637" lon="-2.81713">
        <ele>611.8</ele>
        <time>2021-05-29 19:11:16</time>
      </trkpt>
      <trkpt lat="42.95638" lon="-2.81701">
        <ele>612</ele>
        <time>2021-05-29 19:11:17</time>
      </trkpt>
      <trkpt lat="42.95639" lon="-2.8169">
        <ele>612.6</ele>
        <time>2021-05-29 19:11:18</time>
      </trkpt>
      <trkpt lat="42.9564" lon="-2.81679">
        <ele>612.8</ele>
        <time>2021-05-29 19:11:19</time>
      </trkpt>
      <trkpt lat="42.95641" lon="-2.81667">
        <ele>613</ele>
        <time>2021-05-29 19:11:20</time>
      </trkpt>
      <trkpt lat="42.95642" lon="-2.81656">
        <ele>613.2</ele>
        <time>2021-05-29 19:11:21</time>
      </trkpt>
      <trkpt lat="42.95643" lon="-2.81645">
        <ele>613.2</ele>
        <time>2021-05-29 19:11:22</time>
      </trkpt>
      <trkpt lat="42.95644" lon="-2.81634">
        <ele>613.2</ele>
        <time>2021-05-29 19:11:23</time>
      </trkpt>
      <trkpt lat="42.95645" lon="-2.81622">
        <ele>613.4</ele>
        <time>2021-05-29 19:11:24</time>
      </trkpt>
      <trkpt lat="42.95646" lon="-2.8161">
        <ele>613.6</ele>
        <time>2021-05-29 19:11:25</time>
      </trkpt>
      <trkpt lat="42.95647" lon="-2.81598">
        <ele>613.8</ele>
        <time>2021-05-29 19:11:26</time>
      </trkpt>
      <trkpt lat="42.95648" lon="-2.81586">
        <ele>614</ele>
        <time>2021-05-29 19:11:27</time>
      </trkpt>
      <trkpt lat="42.95649" lon="-2.81574">
        <ele>614</ele>
        <time>2021-05-29 19:11:28</time>
      </trkpt>
      <trkpt lat="42.9565" lon="-2.81562">
        <ele>614.2</ele>
        <time>2021-05-29 19:11:29</time>
      </trkpt>
      <trkpt lat="42.95651" lon="-2.8155">
        <ele>614.2</ele>
        <time>2021-05-29 19:11:30</time>
      </trkpt>
      <trkpt lat="42.95652" lon="-2.81537">
        <ele>614.2</ele>
        <time>2021-05-29 19:11:31</time>
      </trkpt>
      <trkpt lat="42.95653" lon="-2.81525">
        <ele>614.2</ele>
        <time>2021-05-29 19:11:32</time>
      </trkpt>
      <trkpt lat="42.95654" lon="-2.81513">
        <ele>614.4</ele>
        <time>2021-05-29 19:11:33</time>
      </trkpt>
      <trkpt lat="42.95655" lon="-2.81501">
        <ele>614.4</ele>
        <time>2021-05-29 19:11:34</time>
      </trkpt>
      <trkpt lat="42.95656" lon="-2.81488">
        <ele>614.4</ele>
        <time>2021-05-29 19:11:35</time>
      </trkpt>
      <trkpt lat="42.95657" lon="-2.81476">
        <ele>614.6</ele>
        <time>2021-05-29 19:11:36</time>
      </trkpt>
      <trkpt lat="42.95659" lon="-2.81464">
        <ele>614.6</ele>
        <time>2021-05-29 19:11:37</time>
      </trkpt>
      <trkpt lat="42.9566" lon="-2.81452">
        <ele>614.6</ele>
        <time>2021-05-29 19:11:38</time>
      </trkpt>
      <trkpt lat="42.95663" lon="-2.8144">
        <ele>614.6</ele>
        <time>2021-05-29 19:11:39</time>
      </trkpt>
      <trkpt lat="42.95665" lon="-2.81429">
        <ele>614.6</ele>
        <time>2021-05-29 19:11:40</time>
      </trkpt>
      <trkpt lat="42.95669" lon="-2.81418">
        <ele>614.6</ele>
        <time>2021-05-29 19:11:41</time>
      </trkpt>
      <trkpt lat="42.95673" lon="-2.81408">
        <ele>614.6</ele>
        <time>2021-05-29 19:11:42</time>
      </trkpt>
      <trkpt lat="42.95678" lon="-2.81398">
        <ele>614.6</ele>
        <time>2021-05-29 19:11:43</time>
      </trkpt>
      <trkpt lat="42.95683" lon="-2.81389">
        <ele>614.6</ele>
        <time>2021-05-29 19:11:44</time>
      </trkpt>
      <trkpt lat="42.95688" lon="-2.8138">
        <ele>614.8</ele>
        <time>2021-05-29 19:11:45</time>
      </trkpt>
      <trkpt lat="42.95693" lon="-2.8137">
        <ele>614.8</ele>
        <time>2021-05-29 19:11:46</time>
      </trkpt>
      <trkpt lat="42.95697" lon="-2.8136">
        <ele>614.6</ele>
        <time>2021-05-29 19:11:47</time>
      </trkpt>
      <trkpt lat="42.95701" lon="-2.8135">
        <ele>614.8</ele>
        <time>2021-05-29 19:11:48</time>
      </trkpt>
      <trkpt lat="42.95704" lon="-2.8134">
        <ele>615.2</ele>
        <time>2021-05-29 19:11:49</time>
      </trkpt>
      <trkpt lat="42.95708" lon="-2.81329">
        <ele>615.4</ele>
        <time>2021-05-29 19:11:50</time>
      </trkpt>
      <trkpt lat="42.95711" lon="-2.81319">
        <ele>615.4</ele>
        <time>2021-05-29 19:11:51</time>
      </trkpt>
      <trkpt lat="42.95714" lon="-2.81308">
        <ele>615.6</ele>
        <time>2021-05-29 19:11:52</time>
      </trkpt>
      <trkpt lat="42.95716" lon="-2.81297">
        <ele>615.8</ele>
        <time>2021-05-29 19:11:53</time>
      </trkpt>
      <trkpt lat="42.95718" lon="-2.81286">
        <ele>615.8</ele>
        <time>2021-05-29 19:11:54</time>
      </trkpt>
      <trkpt lat="42.9572" lon="-2.81276">
        <ele>616</ele>
        <time>2021-05-29 19:11:55</time>
      </trkpt>
      <trkpt lat="42.95721" lon="-2.81265">
        <ele>616.2</ele>
        <time>2021-05-29 19:11:56</time>
      </trkpt>
      <trkpt lat="42.95722" lon="-2.81254">
        <ele>616.2</ele>
        <time>2021-05-29 19:11:57</time>
      </trkpt>
      <trkpt lat="42.95723" lon="-2.81243">
        <ele>616.4</ele>
        <time>2021-05-29 19:11:58</time>
      </trkpt>
      <trkpt lat="42.95724" lon="-2.81233">
        <ele>616.6</ele>
        <time>2021-05-29 19:11:59</time>
      </trkpt>
      <trkpt lat="42.95725" lon="-2.81222">
        <ele>616.6</ele>
        <time>2021-05-29 19:12:00</time>
      </trkpt>
      <trkpt lat="42.95726" lon="-2.81212">
        <ele>616.8</ele>
        <time>2021-05-29 19:12:01</time>
      </trkpt>
      <trkpt lat="42.95727" lon="-2.81201">
        <ele>617</ele>
        <time>2021-05-29 19:12:02</time>
      </trkpt>
      <trkpt lat="42.95728" lon="-2.81191">
        <ele>617</ele>
        <time>2021-05-29 19:12:03</time>
      </trkpt>
      <trkpt lat="42.95729" lon="-2.8118">
        <ele>617.2</ele>
        <time>2021-05-29 19:12:04</time>
      </trkpt>
      <trkpt lat="42.95729" lon="-2.8117">
        <ele>617.2</ele>
        <time>2021-05-29 19:12:05</time>
      </trkpt>
      <trkpt lat="42.9573" lon="-2.81159">
        <ele>617.2</ele>
        <time>2021-05-29 19:12:06</time>
      </trkpt>
      <trkpt lat="42.95731" lon="-2.81149">
        <ele>617.4</ele>
        <time>2021-05-29 19:12:07</time>
      </trkpt>
      <trkpt lat="42.95732" lon="-2.81138">
        <ele>617.4</ele>
        <time>2021-05-29 19:12:08</time>
      </trkpt>
      <trkpt lat="42.95733" lon="-2.81128">
        <ele>617.6</ele>
        <time>2021-05-29 19:12:09</time>
      </trkpt>
      <trkpt lat="42.95734" lon="-2.81117">
        <ele>618</ele>
        <time>2021-05-29 19:12:10</time>
      </trkpt>
      <trkpt lat="42.95735" lon="-2.81107">
        <ele>618</ele>
        <time>2021-05-29 19:12:11</time>
      </trkpt>
      <trkpt lat="42.95736" lon="-2.81096">
        <ele>618.2</ele>
        <time>2021-05-29 19:12:12</time>
      </trkpt>
      <trkpt lat="42.95737" lon="-2.81086">
        <ele>618.2</ele>
        <time>2021-05-29 19:12:13</time>
      </trkpt>
      <trkpt lat="42.95738" lon="-2.81075">
        <ele>618.2</ele>
        <time>2021-05-29 19:12:14</time>
      </trkpt>
      <trkpt lat="42.95738" lon="-2.81065">
        <ele>618.4</ele>
        <time>2021-05-29 19:12:15</time>
      </trkpt>
      <trkpt lat="42.95739" lon="-2.81055">
        <ele>618.4</ele>
        <time>2021-05-29 19:12:16</time>
      </trkpt>
      <trkpt lat="42.95739" lon="-2.81044">
        <ele>618.4</ele>
        <time>2021-05-29 19:12:17</time>
      </trkpt>
      <trkpt lat="42.95739" lon="-2.81034">
        <ele>618.4</ele>
        <time>2021-05-29 19:12:18</time>
      </trkpt>
      <trkpt lat="42.95739" lon="-2.81023">
        <ele>618.8</ele>
        <time>2021-05-29 19:12:19</time>
      </trkpt>
      <trkpt lat="42.95739" lon="-2.81013">
        <ele>618.8</ele>
        <time>2021-05-29 19:12:20</time>
      </trkpt>
      <trkpt lat="42.95738" lon="-2.81002">
        <ele>619</ele>
        <time>2021-05-29 19:12:21</time>
      </trkpt>
      <trkpt lat="42.95737" lon="-2.80991">
        <ele>619</ele>
        <time>2021-05-29 19:12:22</time>
      </trkpt>
      <trkpt lat="42.95736" lon="-2.80981">
        <ele>619.2</ele>
        <time>2021-05-29 19:12:23</time>
      </trkpt>
      <trkpt lat="42.95735" lon="-2.8097">
        <ele>619.2</ele>
        <time>2021-05-29 19:12:24</time>
      </trkpt>
      <trkpt lat="42.95735" lon="-2.8096">
        <ele>619.4</ele>
        <time>2021-05-29 19:12:25</time>
      </trkpt>
      <trkpt lat="42.95734" lon="-2.8095">
        <ele>619.6</ele>
        <time>2021-05-29 19:12:26</time>
      </trkpt>
      <trkpt lat="42.95733" lon="-2.80939">
        <ele>619.8</ele>
        <time>2021-05-29 19:12:27</time>
      </trkpt>
      <trkpt lat="42.95732" lon="-2.80929">
        <ele>619.8</ele>
        <time>2021-05-29 19:12:28</time>
      </trkpt>
      <trkpt lat="42.95731" lon="-2.80918">
        <ele>619.8</ele>
        <time>2021-05-29 19:12:29</time>
      </trkpt>
      <trkpt lat="42.9573" lon="-2.80908">
        <ele>619.8</ele>
        <time>2021-05-29 19:12:30</time>
      </trkpt>
      <trkpt lat="42.95729" lon="-2.80897">
        <ele>620</ele>
        <time>2021-05-29 19:12:31</time>
      </trkpt>
      <trkpt lat="42.95728" lon="-2.80886">
        <ele>620.2</ele>
        <time>2021-05-29 19:12:32</time>
      </trkpt>
      <trkpt lat="42.95727" lon="-2.80876">
        <ele>620.4</ele>
        <time>2021-05-29 19:12:33</time>
      </trkpt>
      <trkpt lat="42.95726" lon="-2.80865">
        <ele>620.6</ele>
        <time>2021-05-29 19:12:34</time>
      </trkpt>
      <trkpt lat="42.95725" lon="-2.80854">
        <ele>620.8</ele>
        <time>2021-05-29 19:12:35</time>
      </trkpt>
      <trkpt lat="42.95724" lon="-2.80843">
        <ele>621</ele>
        <time>2021-05-29 19:12:36</time>
      </trkpt>
      <trkpt lat="42.95723" lon="-2.80832">
        <ele>621.2</ele>
        <time>2021-05-29 19:12:37</time>
      </trkpt>
      <trkpt lat="42.95722" lon="-2.80821">
        <ele>621.4</ele>
        <time>2021-05-29 19:12:38</time>
      </trkpt>
      <trkpt lat="42.95721" lon="-2.8081">
        <ele>621.6</ele>
        <time>2021-05-29 19:12:39</time>
      </trkpt>
      <trkpt lat="42.9572" lon="-2.80798">
        <ele>621.8</ele>
        <time>2021-05-29 19:12:40</time>
      </trkpt>
      <trkpt lat="42.95719" lon="-2.80787">
        <ele>622</ele>
        <time>2021-05-29 19:12:41</time>
      </trkpt>
      <trkpt lat="42.95718" lon="-2.80775">
        <ele>622.2</ele>
        <time>2021-05-29 19:12:42</time>
      </trkpt>
      <trkpt lat="42.95716" lon="-2.80764">
        <ele>622.4</ele>
        <time>2021-05-29 19:12:43</time>
      </trkpt>
      <trkpt lat="42.95715" lon="-2.80753">
        <ele>622.6</ele>
        <time>2021-05-29 19:12:44</time>
      </trkpt>
      <trkpt lat="42.95714" lon="-2.80741">
        <ele>622.6</ele>
        <time>2021-05-29 19:12:45</time>
      </trkpt>
      <trkpt lat="42.95713" lon="-2.8073">
        <ele>622.8</ele>
        <time>2021-05-29 19:12:46</time>
      </trkpt>
      <trkpt lat="42.95712" lon="-2.80718">
        <ele>623</ele>
        <time>2021-05-29 19:12:47</time>
      </trkpt>
      <trkpt lat="42.95711" lon="-2.80707">
        <ele>623.2</ele>
        <time>2021-05-29 19:12:48</time>
      </trkpt>
      <trkpt lat="42.9571" lon="-2.80695">
        <ele>623.6</ele>
        <time>2021-05-29 19:12:49</time>
      </trkpt>
      <trkpt lat="42.95709" lon="-2.80684">
        <ele>623.8</ele>
        <time>2021-05-29 19:12:50</time>
      </trkpt>
      <trkpt lat="42.95708" lon="-2.80673">
        <ele>624</ele>
        <time>2021-05-29 19:12:51</time>
      </trkpt>
      <trkpt lat="42.95707" lon="-2.80662">
        <ele>624.2</ele>
        <time>2021-05-29 19:12:52</time>
      </trkpt>
      <trkpt lat="42.95706" lon="-2.80651">
        <ele>624.2</ele>
        <time>2021-05-29 19:12:53</time>
      </trkpt>
      <trkpt lat="42.95705" lon="-2.8064">
        <ele>624.2</ele>
        <time>2021-05-29 19:12:54</time>
      </trkpt>
      <trkpt lat="42.95704" lon="-2.8063">
        <ele>624.4</ele>
        <time>2021-05-29 19:12:55</time>
      </trkpt>
      <trkpt lat="42.95703" lon="-2.80619">
        <ele>624.6</ele>
        <time>2021-05-29 19:12:56</time>
      </trkpt>
      <trkpt lat="42.95703" lon="-2.80609">
        <ele>624.6</ele>
        <time>2021-05-29 19:12:57</time>
      </trkpt>
      <trkpt lat="42.95702" lon="-2.80599">
        <ele>624.8</ele>
        <time>2021-05-29 19:12:58</time>
      </trkpt>
      <trkpt lat="42.95701" lon="-2.80589">
        <ele>625</ele>
        <time>2021-05-29 19:12:59</time>
      </trkpt>
      <trkpt lat="42.957" lon="-2.80579">
        <ele>625.4</ele>
        <time>2021-05-29 19:13:00</time>
      </trkpt>
      <trkpt lat="42.95699" lon="-2.80569">
        <ele>625.6</ele>
        <time>2021-05-29 19:13:01</time>
      </trkpt>
      <trkpt lat="42.95698" lon="-2.80559">
        <ele>625.8</ele>
        <time>2021-05-29 19:13:02</time>
      </trkpt>
      <trkpt lat="42.95697" lon="-2.80549">
        <ele>626</ele>
        <time>2021-05-29 19:13:03</time>
      </trkpt>
      <trkpt lat="42.95697" lon="-2.80538">
        <ele>626.2</ele>
        <time>2021-05-29 19:13:04</time>
      </trkpt>
      <trkpt lat="42.95696" lon="-2.80528">
        <ele>626.4</ele>
        <time>2021-05-29 19:13:05</time>
      </trkpt>
      <trkpt lat="42.95695" lon="-2.80518">
        <ele>626.6</ele>
        <time>2021-05-29 19:13:06</time>
      </trkpt>
      <trkpt lat="42.95694" lon="-2.80508">
        <ele>626.6</ele>
        <time>2021-05-29 19:13:07</time>
      </trkpt>
      <trkpt lat="42.95693" lon="-2.80498">
        <ele>627</ele>
        <time>2021-05-29 19:13:08</time>
      </trkpt>
      <trkpt lat="42.95692" lon="-2.80487">
        <ele>627.2</ele>
        <time>2021-05-29 19:13:09</time>
      </trkpt>
      <trkpt lat="42.95691" lon="-2.80477">
        <ele>627.2</ele>
        <time>2021-05-29 19:13:10</time>
      </trkpt>
      <trkpt lat="42.95691" lon="-2.80467">
        <ele>627.4</ele>
        <time>2021-05-29 19:13:11</time>
      </trkpt>
      <trkpt lat="42.95689" lon="-2.80458">
        <ele>627.6</ele>
        <time>2021-05-29 19:13:12</time>
      </trkpt>
      <trkpt lat="42.95688" lon="-2.80448">
        <ele>627.8</ele>
        <time>2021-05-29 19:13:13</time>
      </trkpt>
      <trkpt lat="42.95687" lon="-2.80438">
        <ele>628</ele>
        <time>2021-05-29 19:13:14</time>
      </trkpt>
      <trkpt lat="42.95685" lon="-2.80428">
        <ele>628</ele>
        <time>2021-05-29 19:13:15</time>
      </trkpt>
      <trkpt lat="42.95684" lon="-2.80418">
        <ele>628.2</ele>
        <time>2021-05-29 19:13:16</time>
      </trkpt>
      <trkpt lat="42.95682" lon="-2.80407">
        <ele>628.2</ele>
        <time>2021-05-29 19:13:17</time>
      </trkpt>
      <trkpt lat="42.95682" lon="-2.80396">
        <ele>628.2</ele>
        <time>2021-05-29 19:13:18</time>
      </trkpt>
      <trkpt lat="42.95682" lon="-2.80385">
        <ele>628.4</ele>
        <time>2021-05-29 19:13:19</time>
      </trkpt>
      <trkpt lat="42.95681" lon="-2.80374">
        <ele>628.6</ele>
        <time>2021-05-29 19:13:20</time>
      </trkpt>
      <trkpt lat="42.9568" lon="-2.80364">
        <ele>628.8</ele>
        <time>2021-05-29 19:13:21</time>
      </trkpt>
      <trkpt lat="42.9568" lon="-2.80353">
        <ele>628.8</ele>
        <time>2021-05-29 19:13:22</time>
      </trkpt>
      <trkpt lat="42.95679" lon="-2.80342">
        <ele>629</ele>
        <time>2021-05-29 19:13:23</time>
      </trkpt>
      <trkpt lat="42.95678" lon="-2.80332">
        <ele>629.2</ele>
        <time>2021-05-29 19:13:24</time>
      </trkpt>
      <trkpt lat="42.95677" lon="-2.80321">
        <ele>629.4</ele>
        <time>2021-05-29 19:13:25</time>
      </trkpt>
      <trkpt lat="42.95675" lon="-2.8031">
        <ele>629.6</ele>
        <time>2021-05-29 19:13:26</time>
      </trkpt>
      <trkpt lat="42.95674" lon="-2.803">
        <ele>629.6</ele>
        <time>2021-05-29 19:13:27</time>
      </trkpt>
      <trkpt lat="42.95671" lon="-2.8029">
        <ele>629.6</ele>
        <time>2021-05-29 19:13:28</time>
      </trkpt>
      <trkpt lat="42.95669" lon="-2.80279">
        <ele>629.8</ele>
        <time>2021-05-29 19:13:29</time>
      </trkpt>
      <trkpt lat="42.95666" lon="-2.80269">
        <ele>629.8</ele>
        <time>2021-05-29 19:13:30</time>
      </trkpt>
      <trkpt lat="42.95663" lon="-2.80259">
        <ele>630</ele>
        <time>2021-05-29 19:13:31</time>
      </trkpt>
      <trkpt lat="42.95659" lon="-2.80248">
        <ele>630.2</ele>
        <time>2021-05-29 19:13:32</time>
      </trkpt>
      <trkpt lat="42.95655" lon="-2.80238">
        <ele>630.2</ele>
        <time>2021-05-29 19:13:33</time>
      </trkpt>
      <trkpt lat="42.95651" lon="-2.80228">
        <ele>630.4</ele>
        <time>2021-05-29 19:13:34</time>
      </trkpt>
      <trkpt lat="42.95646" lon="-2.80219">
        <ele>630.6</ele>
        <time>2021-05-29 19:13:35</time>
      </trkpt>
      <trkpt lat="42.95641" lon="-2.80209">
        <ele>630.6</ele>
        <time>2021-05-29 19:13:36</time>
      </trkpt>
      <trkpt lat="42.95637" lon="-2.802">
        <ele>630.4</ele>
        <time>2021-05-29 19:13:37</time>
      </trkpt>
      <trkpt lat="42.95632" lon="-2.80191">
        <ele>630.4</ele>
        <time>2021-05-29 19:13:38</time>
      </trkpt>
      <trkpt lat="42.95627" lon="-2.80183">
        <ele>630.4</ele>
        <time>2021-05-29 19:13:39</time>
      </trkpt>
      <trkpt lat="42.95622" lon="-2.80174">
        <ele>630.6</ele>
        <time>2021-05-29 19:13:40</time>
      </trkpt>
      <trkpt lat="42.95617" lon="-2.80166">
        <ele>630.6</ele>
        <time>2021-05-29 19:13:41</time>
      </trkpt>
      <trkpt lat="42.95612" lon="-2.80157">
        <ele>630.8</ele>
        <time>2021-05-29 19:13:42</time>
      </trkpt>
      <trkpt lat="42.95607" lon="-2.80149">
        <ele>631</ele>
        <time>2021-05-29 19:13:43</time>
      </trkpt>
      <trkpt lat="42.95603" lon="-2.8014">
        <ele>631</ele>
        <time>2021-05-29 19:13:44</time>
      </trkpt>
      <trkpt lat="42.95598" lon="-2.80132">
        <ele>631.4</ele>
        <time>2021-05-29 19:13:45</time>
      </trkpt>
      <trkpt lat="42.95593" lon="-2.80124">
        <ele>631.4</ele>
        <time>2021-05-29 19:13:46</time>
      </trkpt>
      <trkpt lat="42.95588" lon="-2.80116">
        <ele>631.6</ele>
        <time>2021-05-29 19:13:47</time>
      </trkpt>
      <trkpt lat="42.95583" lon="-2.80108">
        <ele>631.8</ele>
        <time>2021-05-29 19:13:48</time>
      </trkpt>
      <trkpt lat="42.95579" lon="-2.80099">
        <ele>632</ele>
        <time>2021-05-29 19:13:49</time>
      </trkpt>
      <trkpt lat="42.95574" lon="-2.80091">
        <ele>632.2</ele>
        <time>2021-05-29 19:13:50</time>
      </trkpt>
      <trkpt lat="42.9557" lon="-2.80082">
        <ele>632.4</ele>
        <time>2021-05-29 19:13:51</time>
      </trkpt>
      <trkpt lat="42.95565" lon="-2.80074">
        <ele>632.6</ele>
        <time>2021-05-29 19:13:52</time>
      </trkpt>
      <trkpt lat="42.9556" lon="-2.80066">
        <ele>632.8</ele>
        <time>2021-05-29 19:13:53</time>
      </trkpt>
      <trkpt lat="42.95556" lon="-2.80058">
        <ele>633</ele>
        <time>2021-05-29 19:13:54</time>
      </trkpt>
      <trkpt lat="42.95551" lon="-2.80049">
        <ele>633.2</ele>
        <time>2021-05-29 19:13:55</time>
      </trkpt>
      <trkpt lat="42.95546" lon="-2.80041">
        <ele>633.4</ele>
        <time>2021-05-29 19:13:56</time>
      </trkpt>
      <trkpt lat="42.95541" lon="-2.80033">
        <ele>633.6</ele>
        <time>2021-05-29 19:13:57</time>
      </trkpt>
      <trkpt lat="42.95537" lon="-2.80025">
        <ele>633.8</ele>
        <time>2021-05-29 19:13:58</time>
      </trkpt>
      <trkpt lat="42.95532" lon="-2.80017">
        <ele>634</ele>
        <time>2021-05-29 19:13:59</time>
      </trkpt>
      <trkpt lat="42.95528" lon="-2.80008">
        <ele>634.2</ele>
        <time>2021-05-29 19:14:00</time>
      </trkpt>
      <trkpt lat="42.95523" lon="-2.8">
        <ele>634.2</ele>
        <time>2021-05-29 19:14:01</time>
      </trkpt>
      <trkpt lat="42.95519" lon="-2.79992">
        <ele>634.4</ele>
        <time>2021-05-29 19:14:02</time>
      </trkpt>
      <trkpt lat="42.95514" lon="-2.79984">
        <ele>634.6</ele>
        <time>2021-05-29 19:14:03</time>
      </trkpt>
      <trkpt lat="42.95509" lon="-2.79977">
        <ele>634.8</ele>
        <time>2021-05-29 19:14:04</time>
      </trkpt>
      <trkpt lat="42.95505" lon="-2.79969">
        <ele>635</ele>
        <time>2021-05-29 19:14:05</time>
      </trkpt>
      <trkpt lat="42.95501" lon="-2.79961">
        <ele>635.2</ele>
        <time>2021-05-29 19:14:06</time>
      </trkpt>
      <trkpt lat="42.95496" lon="-2.79953">
        <ele>635.4</ele>
        <time>2021-05-29 19:14:07</time>
      </trkpt>
      <trkpt lat="42.95492" lon="-2.79945">
        <ele>635.6</ele>
        <time>2021-05-29 19:14:08</time>
      </trkpt>
      <trkpt lat="42.95488" lon="-2.79937">
        <ele>635.8</ele>
        <time>2021-05-29 19:14:09</time>
      </trkpt>
      <trkpt lat="42.95483" lon="-2.79929">
        <ele>636.2</ele>
        <time>2021-05-29 19:14:10</time>
      </trkpt>
      <trkpt lat="42.95479" lon="-2.79921">
        <ele>636.4</ele>
        <time>2021-05-29 19:14:11</time>
      </trkpt>
      <trkpt lat="42.95474" lon="-2.79913">
        <ele>636.6</ele>
        <time>2021-05-29 19:14:12</time>
      </trkpt>
      <trkpt lat="42.9547" lon="-2.79906">
        <ele>636.8</ele>
        <time>2021-05-29 19:14:13</time>
      </trkpt>
      <trkpt lat="42.95465" lon="-2.79898">
        <ele>637</ele>
        <time>2021-05-29 19:14:14</time>
      </trkpt>
      <trkpt lat="42.95461" lon="-2.7989">
        <ele>637.2</ele>
        <time>2021-05-29 19:14:15</time>
      </trkpt>
      <trkpt lat="42.95457" lon="-2.79883">
        <ele>637.4</ele>
        <time>2021-05-29 19:14:16</time>
      </trkpt>
      <trkpt lat="42.95452" lon="-2.79875">
        <ele>637.4</ele>
        <time>2021-05-29 19:14:17</time>
      </trkpt>
      <trkpt lat="42.95448" lon="-2.79868">
        <ele>637.6</ele>
        <time>2021-05-29 19:14:18</time>
      </trkpt>
      <trkpt lat="42.95444" lon="-2.79861">
        <ele>637.8</ele>
        <time>2021-05-29 19:14:19</time>
      </trkpt>
      <trkpt lat="42.9544" lon="-2.79854">
        <ele>638.2</ele>
        <time>2021-05-29 19:14:20</time>
      </trkpt>
      <trkpt lat="42.95436" lon="-2.79847">
        <ele>638.4</ele>
        <time>2021-05-29 19:14:21</time>
      </trkpt>
      <trkpt lat="42.95432" lon="-2.79839">
        <ele>638.6</ele>
        <time>2021-05-29 19:14:22</time>
      </trkpt>
      <trkpt lat="42.95428" lon="-2.79832">
        <ele>638.8</ele>
        <time>2021-05-29 19:14:23</time>
      </trkpt>
      <trkpt lat="42.95424" lon="-2.79825">
        <ele>639</ele>
        <time>2021-05-29 19:14:24</time>
      </trkpt>
      <trkpt lat="42.9542" lon="-2.79818">
        <ele>639.4</ele>
        <time>2021-05-29 19:14:25</time>
      </trkpt>
      <trkpt lat="42.95416" lon="-2.79811">
        <ele>639.6</ele>
        <time>2021-05-29 19:14:26</time>
      </trkpt>
      <trkpt lat="42.95412" lon="-2.79804">
        <ele>639.8</ele>
        <time>2021-05-29 19:14:27</time>
      </trkpt>
      <trkpt lat="42.95408" lon="-2.79796">
        <ele>640</ele>
        <time>2021-05-29 19:14:28</time>
      </trkpt>
      <trkpt lat="42.95404" lon="-2.79789">
        <ele>640.2</ele>
        <time>2021-05-29 19:14:29</time>
      </trkpt>
      <trkpt lat="42.954" lon="-2.79782">
        <ele>640.4</ele>
        <time>2021-05-29 19:14:30</time>
      </trkpt>
      <trkpt lat="42.95395" lon="-2.79775">
        <ele>640.8</ele>
        <time>2021-05-29 19:14:31</time>
      </trkpt>
      <trkpt lat="42.95391" lon="-2.79768">
        <ele>641</ele>
        <time>2021-05-29 19:14:32</time>
      </trkpt>
      <trkpt lat="42.95387" lon="-2.79761">
        <ele>641.4</ele>
        <time>2021-05-29 19:14:33</time>
      </trkpt>
      <trkpt lat="42.95383" lon="-2.79754">
        <ele>641.8</ele>
        <time>2021-05-29 19:14:34</time>
      </trkpt>
      <trkpt lat="42.95379" lon="-2.79746">
        <ele>641.8</ele>
        <time>2021-05-29 19:14:35</time>
      </trkpt>
      <trkpt lat="42.95375" lon="-2.79739">
        <ele>642.2</ele>
        <time>2021-05-29 19:14:36</time>
      </trkpt>
      <trkpt lat="42.95371" lon="-2.79732">
        <ele>642.6</ele>
        <time>2021-05-29 19:14:37</time>
      </trkpt>
      <trkpt lat="42.95367" lon="-2.79724">
        <ele>642.8</ele>
        <time>2021-05-29 19:14:38</time>
      </trkpt>
      <trkpt lat="42.95363" lon="-2.79717">
        <ele>642.8</ele>
        <time>2021-05-29 19:14:39</time>
      </trkpt>
      <trkpt lat="42.95359" lon="-2.7971">
        <ele>643.2</ele>
        <time>2021-05-29 19:14:40</time>
      </trkpt>
      <trkpt lat="42.95355" lon="-2.79703">
        <ele>643.4</ele>
        <time>2021-05-29 19:14:41</time>
      </trkpt>
      <trkpt lat="42.95351" lon="-2.79696">
        <ele>643.8</ele>
        <time>2021-05-29 19:14:42</time>
      </trkpt>
      <trkpt lat="42.95347" lon="-2.79689">
        <ele>644</ele>
        <time>2021-05-29 19:14:43</time>
      </trkpt>
      <trkpt lat="42.95343" lon="-2.79682">
        <ele>645</ele>
        <time>2021-05-29 19:14:44</time>
      </trkpt>
      <trkpt lat="42.95339" lon="-2.79675">
        <ele>645.2</ele>
        <time>2021-05-29 19:14:45</time>
      </trkpt>
      <trkpt lat="42.95335" lon="-2.79668">
        <ele>645.4</ele>
        <time>2021-05-29 19:14:46</time>
      </trkpt>
      <trkpt lat="42.95331" lon="-2.79661">
        <ele>645.8</ele>
        <time>2021-05-29 19:14:47</time>
      </trkpt>
      <trkpt lat="42.95327" lon="-2.79653">
        <ele>646.2</ele>
        <time>2021-05-29 19:14:48</time>
      </trkpt>
      <trkpt lat="42.95323" lon="-2.79646">
        <ele>646.4</ele>
        <time>2021-05-29 19:14:49</time>
      </trkpt>
      <trkpt lat="42.95319" lon="-2.79639">
        <ele>646.6</ele>
        <time>2021-05-29 19:14:50</time>
      </trkpt>
      <trkpt lat="42.95315" lon="-2.79631">
        <ele>646.6</ele>
        <time>2021-05-29 19:14:51</time>
      </trkpt>
      <trkpt lat="42.95311" lon="-2.79624">
        <ele>646.8</ele>
        <time>2021-05-29 19:14:52</time>
      </trkpt>
      <trkpt lat="42.95307" lon="-2.79616">
        <ele>647.2</ele>
        <time>2021-05-29 19:14:53</time>
      </trkpt>
      <trkpt lat="42.95303" lon="-2.79609">
        <ele>647.4</ele>
        <time>2021-05-29 19:14:54</time>
      </trkpt>
      <trkpt lat="42.95299" lon="-2.79602">
        <ele>647.6</ele>
        <time>2021-05-29 19:14:55</time>
      </trkpt>
      <trkpt lat="42.95295" lon="-2.79595">
        <ele>647.6</ele>
        <time>2021-05-29 19:14:56</time>
      </trkpt>
      <trkpt lat="42.95291" lon="-2.79588">
        <ele>647.8</ele>
        <time>2021-05-29 19:14:57</time>
      </trkpt>
      <trkpt lat="42.95287" lon="-2.79581">
        <ele>648</ele>
        <time>2021-05-29 19:14:58</time>
      </trkpt>
      <trkpt lat="42.95283" lon="-2.79574">
        <ele>648</ele>
        <time>2021-05-29 19:14:59</time>
      </trkpt>
      <trkpt lat="42.95279" lon="-2.79567">
        <ele>648.2</ele>
        <time>2021-05-29 19:15:00</time>
      </trkpt>
      <trkpt lat="42.95275" lon="-2.7956">
        <ele>648.4</ele>
        <time>2021-05-29 19:15:01</time>
      </trkpt>
      <trkpt lat="42.95271" lon="-2.79553">
        <ele>648.4</ele>
        <time>2021-05-29 19:15:02</time>
      </trkpt>
      <trkpt lat="42.95267" lon="-2.79545">
        <ele>648.6</ele>
        <time>2021-05-29 19:15:03</time>
      </trkpt>
      <trkpt lat="42.95263" lon="-2.79538">
        <ele>648.8</ele>
        <time>2021-05-29 19:15:04</time>
      </trkpt>
      <trkpt lat="42.95259" lon="-2.79531">
        <ele>649</ele>
        <time>2021-05-29 19:15:05</time>
      </trkpt>
      <trkpt lat="42.95255" lon="-2.79524">
        <ele>649.2</ele>
        <time>2021-05-29 19:15:06</time>
      </trkpt>
      <trkpt lat="42.95251" lon="-2.79517">
        <ele>649.2</ele>
        <time>2021-05-29 19:15:07</time>
      </trkpt>
      <trkpt lat="42.95247" lon="-2.7951">
        <ele>649.2</ele>
        <time>2021-05-29 19:15:08</time>
      </trkpt>
      <trkpt lat="42.95243" lon="-2.79503">
        <ele>649.4</ele>
        <time>2021-05-29 19:15:09</time>
      </trkpt>
      <trkpt lat="42.95239" lon="-2.79496">
        <ele>649.6</ele>
        <time>2021-05-29 19:15:10</time>
      </trkpt>
      <trkpt lat="42.95235" lon="-2.79489">
        <ele>649.8</ele>
        <time>2021-05-29 19:15:11</time>
      </trkpt>
      <trkpt lat="42.95231" lon="-2.79482">
        <ele>649.8</ele>
        <time>2021-05-29 19:15:12</time>
      </trkpt>
      <trkpt lat="42.95227" lon="-2.79475">
        <ele>650</ele>
        <time>2021-05-29 19:15:13</time>
      </trkpt>
      <trkpt lat="42.95224" lon="-2.79469">
        <ele>650.2</ele>
        <time>2021-05-29 19:15:14</time>
      </trkpt>
      <trkpt lat="42.9522" lon="-2.79462">
        <ele>650.2</ele>
        <time>2021-05-29 19:15:15</time>
      </trkpt>
      <trkpt lat="42.95216" lon="-2.79455">
        <ele>650.4</ele>
        <time>2021-05-29 19:15:16</time>
      </trkpt>
      <trkpt lat="42.95213" lon="-2.79449">
        <ele>650.6</ele>
        <time>2021-05-29 19:15:17</time>
      </trkpt>
      <trkpt lat="42.95209" lon="-2.79443">
        <ele>650.8</ele>
        <time>2021-05-29 19:15:18</time>
      </trkpt>
      <trkpt lat="42.95206" lon="-2.79436">
        <ele>650.8</ele>
        <time>2021-05-29 19:15:19</time>
      </trkpt>
      <trkpt lat="42.95202" lon="-2.79431">
        <ele>651.2</ele>
        <time>2021-05-29 19:15:20</time>
      </trkpt>
      <trkpt lat="42.95199" lon="-2.79425">
        <ele>651.6</ele>
        <time>2021-05-29 19:15:21</time>
      </trkpt>
      <trkpt lat="42.95196" lon="-2.79419">
        <ele>651.8</ele>
        <time>2021-05-29 19:15:22</time>
      </trkpt>
      <trkpt lat="42.95193" lon="-2.79414">
        <ele>652</ele>
        <time>2021-05-29 19:15:23</time>
      </trkpt>
      <trkpt lat="42.9519" lon="-2.79409">
        <ele>652.4</ele>
        <time>2021-05-29 19:15:24</time>
      </trkpt>
      <trkpt lat="42.95187" lon="-2.79403">
        <ele>652.6</ele>
        <time>2021-05-29 19:15:25</time>
      </trkpt>
      <trkpt lat="42.95184" lon="-2.79398">
        <ele>652.8</ele>
        <time>2021-05-29 19:15:26</time>
      </trkpt>
      <trkpt lat="42.95182" lon="-2.79393">
        <ele>653</ele>
        <time>2021-05-29 19:15:27</time>
      </trkpt>
      <trkpt lat="42.95179" lon="-2.79389">
        <ele>653.4</ele>
        <time>2021-05-29 19:15:28</time>
      </trkpt>
      <trkpt lat="42.95177" lon="-2.79384">
        <ele>653.8</ele>
        <time>2021-05-29 19:15:29</time>
      </trkpt>
      <trkpt lat="42.95175" lon="-2.7938">
        <ele>654.2</ele>
        <time>2021-05-29 19:15:30</time>
      </trkpt>
      <trkpt lat="42.95172" lon="-2.79375">
        <ele>654.6</ele>
        <time>2021-05-29 19:15:31</time>
      </trkpt>
      <trkpt lat="42.9517" lon="-2.79371">
        <ele>655</ele>
        <time>2021-05-29 19:15:32</time>
      </trkpt>
      <trkpt lat="42.95168" lon="-2.79366">
        <ele>655.4</ele>
        <time>2021-05-29 19:15:33</time>
      </trkpt>
      <trkpt lat="42.95165" lon="-2.79362">
        <ele>655.8</ele>
        <time>2021-05-29 19:15:34</time>
      </trkpt>
      <trkpt lat="42.95163" lon="-2.79357">
        <ele>656.2</ele>
        <time>2021-05-29 19:15:35</time>
      </trkpt>
      <trkpt lat="42.9516" lon="-2.79353">
        <ele>656.6</ele>
        <time>2021-05-29 19:15:36</time>
      </trkpt>
      <trkpt lat="42.95157" lon="-2.79349">
        <ele>657</ele>
        <time>2021-05-29 19:15:37</time>
      </trkpt>
      <trkpt lat="42.95155" lon="-2.79344">
        <ele>657</ele>
        <time>2021-05-29 19:15:38</time>
      </trkpt>
      <trkpt lat="42.95152" lon="-2.7934">
        <ele>657.4</ele>
        <time>2021-05-29 19:15:39</time>
      </trkpt>
      <trkpt lat="42.95149" lon="-2.79336">
        <ele>657.6</ele>
        <time>2021-05-29 19:15:40</time>
      </trkpt>
      <trkpt lat="42.95146" lon="-2.79331">
        <ele>658</ele>
        <time>2021-05-29 19:15:41</time>
      </trkpt>
      <trkpt lat="42.95143" lon="-2.79327">
        <ele>658.2</ele>
        <time>2021-05-29 19:15:42</time>
      </trkpt>
      <trkpt lat="42.95141" lon="-2.79323">
        <ele>658.6</ele>
        <time>2021-05-29 19:15:43</time>
      </trkpt>
      <trkpt lat="42.95138" lon="-2.79319">
        <ele>659</ele>
        <time>2021-05-29 19:15:44</time>
      </trkpt>
      <trkpt lat="42.95135" lon="-2.79316">
        <ele>659.2</ele>
        <time>2021-05-29 19:15:45</time>
      </trkpt>
      <trkpt lat="42.95132" lon="-2.79312">
        <ele>659.6</ele>
        <time>2021-05-29 19:15:46</time>
      </trkpt>
      <trkpt lat="42.95129" lon="-2.79308">
        <ele>660</ele>
        <time>2021-05-29 19:15:47</time>
      </trkpt>
      <trkpt lat="42.95127" lon="-2.79305">
        <ele>660.4</ele>
        <time>2021-05-29 19:15:48</time>
      </trkpt>
      <trkpt lat="42.95124" lon="-2.79301">
        <ele>660.8</ele>
        <time>2021-05-29 19:15:49</time>
      </trkpt>
      <trkpt lat="42.95121" lon="-2.79298">
        <ele>661.2</ele>
        <time>2021-05-29 19:15:50</time>
      </trkpt>
      <trkpt lat="42.95118" lon="-2.79295">
        <ele>661.4</ele>
        <time>2021-05-29 19:15:51</time>
      </trkpt>
      <trkpt lat="42.95115" lon="-2.79292">
        <ele>661.8</ele>
        <time>2021-05-29 19:15:52</time>
      </trkpt>
      <trkpt lat="42.95112" lon="-2.79289">
        <ele>662.4</ele>
        <time>2021-05-29 19:15:53</time>
      </trkpt>
      <trkpt lat="42.95108" lon="-2.79286">
        <ele>662.8</ele>
        <time>2021-05-29 19:15:54</time>
      </trkpt>
      <trkpt lat="42.95105" lon="-2.79283">
        <ele>663.2</ele>
        <time>2021-05-29 19:15:55</time>
      </trkpt>
      <trkpt lat="42.95102" lon="-2.7928">
        <ele>663.6</ele>
        <time>2021-05-29 19:15:56</time>
      </trkpt>
      <trkpt lat="42.95099" lon="-2.79277">
        <ele>664</ele>
        <time>2021-05-29 19:15:57</time>
      </trkpt>
      <trkpt lat="42.95096" lon="-2.79274">
        <ele>664.4</ele>
        <time>2021-05-29 19:15:58</time>
      </trkpt>
      <trkpt lat="42.95093" lon="-2.79271">
        <ele>664.8</ele>
        <time>2021-05-29 19:15:59</time>
      </trkpt>
      <trkpt lat="42.9509" lon="-2.79267">
        <ele>665.2</ele>
        <time>2021-05-29 19:16:00</time>
      </trkpt>
      <trkpt lat="42.95087" lon="-2.79264">
        <ele>665.6</ele>
        <time>2021-05-29 19:16:01</time>
      </trkpt>
      <trkpt lat="42.95084" lon="-2.79261">
        <ele>666</ele>
        <time>2021-05-29 19:16:02</time>
      </trkpt>
      <trkpt lat="42.95081" lon="-2.79258">
        <ele>666.4</ele>
        <time>2021-05-29 19:16:03</time>
      </trkpt>
      <trkpt lat="42.95078" lon="-2.79254">
        <ele>666.8</ele>
        <time>2021-05-29 19:16:04</time>
      </trkpt>
      <trkpt lat="42.95075" lon="-2.79251">
        <ele>667</ele>
        <time>2021-05-29 19:16:05</time>
      </trkpt>
      <trkpt lat="42.95072" lon="-2.79248">
        <ele>667.6</ele>
        <time>2021-05-29 19:16:06</time>
      </trkpt>
      <trkpt lat="42.95069" lon="-2.79244">
        <ele>668</ele>
        <time>2021-05-29 19:16:07</time>
      </trkpt>
      <trkpt lat="42.95066" lon="-2.79241">
        <ele>668.2</ele>
        <time>2021-05-29 19:16:08</time>
      </trkpt>
      <trkpt lat="42.95063" lon="-2.79238">
        <ele>668.4</ele>
        <time>2021-05-29 19:16:09</time>
      </trkpt>
      <trkpt lat="42.9506" lon="-2.79234">
        <ele>668.8</ele>
        <time>2021-05-29 19:16:10</time>
      </trkpt>
      <trkpt lat="42.95057" lon="-2.79231">
        <ele>669.2</ele>
        <time>2021-05-29 19:16:11</time>
      </trkpt>
      <trkpt lat="42.95055" lon="-2.79228">
        <ele>669.6</ele>
        <time>2021-05-29 19:16:12</time>
      </trkpt>
      <trkpt lat="42.95052" lon="-2.79224">
        <ele>670</ele>
        <time>2021-05-29 19:16:13</time>
      </trkpt>
      <trkpt lat="42.95049" lon="-2.79221">
        <ele>670.4</ele>
        <time>2021-05-29 19:16:14</time>
      </trkpt>
      <trkpt lat="42.95046" lon="-2.79218">
        <ele>670.6</ele>
        <time>2021-05-29 19:16:15</time>
      </trkpt>
      <trkpt lat="42.95044" lon="-2.79215">
        <ele>670.8</ele>
        <time>2021-05-29 19:16:16</time>
      </trkpt>
      <trkpt lat="42.95041" lon="-2.79212">
        <ele>671</ele>
        <time>2021-05-29 19:16:17</time>
      </trkpt>
      <trkpt lat="42.95039" lon="-2.79209">
        <ele>671.4</ele>
        <time>2021-05-29 19:16:18</time>
      </trkpt>
      <trkpt lat="42.95036" lon="-2.79206">
        <ele>671.8</ele>
        <time>2021-05-29 19:16:19</time>
      </trkpt>
      <trkpt lat="42.95033" lon="-2.79203">
        <ele>672.2</ele>
        <time>2021-05-29 19:16:20</time>
      </trkpt>
      <trkpt lat="42.95031" lon="-2.79199">
        <ele>672.6</ele>
        <time>2021-05-29 19:16:21</time>
      </trkpt>
      <trkpt lat="42.95029" lon="-2.79196">
        <ele>673</ele>
        <time>2021-05-29 19:16:22</time>
      </trkpt>
      <trkpt lat="42.95026" lon="-2.79193">
        <ele>673.4</ele>
        <time>2021-05-29 19:16:23</time>
      </trkpt>
      <trkpt lat="42.95023" lon="-2.79191">
        <ele>673.8</ele>
        <time>2021-05-29 19:16:24</time>
      </trkpt>
      <trkpt lat="42.9502" lon="-2.79188">
        <ele>674.2</ele>
        <time>2021-05-29 19:16:25</time>
      </trkpt>
      <trkpt lat="42.95018" lon="-2.79185">
        <ele>674.4</ele>
        <time>2021-05-29 19:16:26</time>
      </trkpt>
      <trkpt lat="42.95015" lon="-2.79182">
        <ele>675</ele>
        <time>2021-05-29 19:16:27</time>
      </trkpt>
      <trkpt lat="42.95013" lon="-2.79179">
        <ele>675.4</ele>
        <time>2021-05-29 19:16:28</time>
      </trkpt>
      <trkpt lat="42.9501" lon="-2.79176">
        <ele>675.8</ele>
        <time>2021-05-29 19:16:29</time>
      </trkpt>
      <trkpt lat="42.95008" lon="-2.79173">
        <ele>676</ele>
        <time>2021-05-29 19:16:30</time>
      </trkpt>
      <trkpt lat="42.95005" lon="-2.7917">
        <ele>676.4</ele>
        <time>2021-05-29 19:16:31</time>
      </trkpt>
      <trkpt lat="42.95003" lon="-2.79167">
        <ele>676.6</ele>
        <time>2021-05-29 19:16:32</time>
      </trkpt>
      <trkpt lat="42.95" lon="-2.79164">
        <ele>677</ele>
        <time>2021-05-29 19:16:33</time>
      </trkpt>
      <trkpt lat="42.94997" lon="-2.79161">
        <ele>677.2</ele>
        <time>2021-05-29 19:16:34</time>
      </trkpt>
      <trkpt lat="42.94995" lon="-2.79158">
        <ele>677.6</ele>
        <time>2021-05-29 19:16:35</time>
      </trkpt>
      <trkpt lat="42.94992" lon="-2.79155">
        <ele>677.8</ele>
        <time>2021-05-29 19:16:36</time>
      </trkpt>
      <trkpt lat="42.9499" lon="-2.79152">
        <ele>678</ele>
        <time>2021-05-29 19:16:37</time>
      </trkpt>
      <trkpt lat="42.94987" lon="-2.79149">
        <ele>678.2</ele>
        <time>2021-05-29 19:16:38</time>
      </trkpt>
      <trkpt lat="42.94985" lon="-2.79146">
        <ele>678.6</ele>
        <time>2021-05-29 19:16:39</time>
      </trkpt>
      <trkpt lat="42.94982" lon="-2.79142">
        <ele>679</ele>
        <time>2021-05-29 19:16:40</time>
      </trkpt>
      <trkpt lat="42.9498" lon="-2.79139">
        <ele>679.2</ele>
        <time>2021-05-29 19:16:41</time>
      </trkpt>
      <trkpt lat="42.94977" lon="-2.79136">
        <ele>679.6</ele>
        <time>2021-05-29 19:16:42</time>
      </trkpt>
      <trkpt lat="42.94975" lon="-2.79132">
        <ele>680</ele>
        <time>2021-05-29 19:16:43</time>
      </trkpt>
      <trkpt lat="42.94973" lon="-2.79128">
        <ele>680.2</ele>
        <time>2021-05-29 19:16:44</time>
      </trkpt>
      <trkpt lat="42.9497" lon="-2.79124">
        <ele>680.4</ele>
        <time>2021-05-29 19:16:45</time>
      </trkpt>
      <trkpt lat="42.94968" lon="-2.7912">
        <ele>680.6</ele>
        <time>2021-05-29 19:16:46</time>
      </trkpt>
      <trkpt lat="42.94965" lon="-2.79117">
        <ele>681</ele>
        <time>2021-05-29 19:16:47</time>
      </trkpt>
      <trkpt lat="42.94963" lon="-2.79113">
        <ele>681.2</ele>
        <time>2021-05-29 19:16:48</time>
      </trkpt>
      <trkpt lat="42.9496" lon="-2.79108">
        <ele>681.6</ele>
        <time>2021-05-29 19:16:49</time>
      </trkpt>
      <trkpt lat="42.94958" lon="-2.79104">
        <ele>682.2</ele>
        <time>2021-05-29 19:16:50</time>
      </trkpt>
      <trkpt lat="42.94956" lon="-2.791">
        <ele>682.4</ele>
        <time>2021-05-29 19:16:51</time>
      </trkpt>
      <trkpt lat="42.94953" lon="-2.79096">
        <ele>682.8</ele>
        <time>2021-05-29 19:16:52</time>
      </trkpt>
      <trkpt lat="42.94951" lon="-2.79092">
        <ele>683.2</ele>
        <time>2021-05-29 19:16:53</time>
      </trkpt>
      <trkpt lat="42.94948" lon="-2.79088">
        <ele>683.4</ele>
        <time>2021-05-29 19:16:54</time>
      </trkpt>
      <trkpt lat="42.94946" lon="-2.79083">
        <ele>683.8</ele>
        <time>2021-05-29 19:16:55</time>
      </trkpt>
      <trkpt lat="42.94944" lon="-2.79079">
        <ele>684.2</ele>
        <time>2021-05-29 19:16:56</time>
      </trkpt>
      <trkpt lat="42.94941" lon="-2.79075">
        <ele>684.4</ele>
        <time>2021-05-29 19:16:57</time>
      </trkpt>
      <trkpt lat="42.94939" lon="-2.79071">
        <ele>684.8</ele>
        <time>2021-05-29 19:16:58</time>
      </trkpt>
      <trkpt lat="42.94937" lon="-2.79066">
        <ele>685.2</ele>
        <time>2021-05-29 19:16:59</time>
      </trkpt>
      <trkpt lat="42.94935" lon="-2.79062">
        <ele>685.4</ele>
        <time>2021-05-29 19:17:00</time>
      </trkpt>
      <trkpt lat="42.94933" lon="-2.79058">
        <ele>686</ele>
        <time>2021-05-29 19:17:01</time>
      </trkpt>
      <trkpt lat="42.9493" lon="-2.79053">
        <ele>686.4</ele>
        <time>2021-05-29 19:17:02</time>
      </trkpt>
      <trkpt lat="42.94928" lon="-2.79049">
        <ele>686.6</ele>
        <time>2021-05-29 19:17:03</time>
      </trkpt>
      <trkpt lat="42.94926" lon="-2.79044">
        <ele>686.8</ele>
        <time>2021-05-29 19:17:04</time>
      </trkpt>
      <trkpt lat="42.94924" lon="-2.7904">
        <ele>687.2</ele>
        <time>2021-05-29 19:17:05</time>
      </trkpt>
      <trkpt lat="42.94922" lon="-2.79036">
        <ele>687.6</ele>
        <time>2021-05-29 19:17:06</time>
      </trkpt>
      <trkpt lat="42.9492" lon="-2.79031">
        <ele>688</ele>
        <time>2021-05-29 19:17:07</time>
      </trkpt>
      <trkpt lat="42.94918" lon="-2.79027">
        <ele>688.2</ele>
        <time>2021-05-29 19:17:08</time>
      </trkpt>
      <trkpt lat="42.94916" lon="-2.79023">
        <ele>688.6</ele>
        <time>2021-05-29 19:17:09</time>
      </trkpt>
      <trkpt lat="42.94914" lon="-2.79018">
        <ele>689</ele>
        <time>2021-05-29 19:17:10</time>
      </trkpt>
      <trkpt lat="42.94912" lon="-2.79014">
        <ele>689.4</ele>
        <time>2021-05-29 19:17:11</time>
      </trkpt>
      <trkpt lat="42.9491" lon="-2.7901">
        <ele>689.6</ele>
        <time>2021-05-29 19:17:12</time>
      </trkpt>
      <trkpt lat="42.94908" lon="-2.79005">
        <ele>689.8</ele>
        <time>2021-05-29 19:17:13</time>
      </trkpt>
      <trkpt lat="42.94906" lon="-2.79001">
        <ele>690</ele>
        <time>2021-05-29 19:17:14</time>
      </trkpt>
      <trkpt lat="42.94904" lon="-2.78997">
        <ele>690.4</ele>
        <time>2021-05-29 19:17:15</time>
      </trkpt>
      <trkpt lat="42.94902" lon="-2.78992">
        <ele>690.6</ele>
        <time>2021-05-29 19:17:16</time>
      </trkpt>
      <trkpt lat="42.949" lon="-2.78988">
        <ele>691</ele>
        <time>2021-05-29 19:17:17</time>
      </trkpt>
      <trkpt lat="42.94898" lon="-2.78984">
        <ele>691.4</ele>
        <time>2021-05-29 19:17:18</time>
      </trkpt>
      <trkpt lat="42.94895" lon="-2.78979">
        <ele>691.6</ele>
        <time>2021-05-29 19:17:19</time>
      </trkpt>
      <trkpt lat="42.94893" lon="-2.78975">
        <ele>692</ele>
        <time>2021-05-29 19:17:20</time>
      </trkpt>
      <trkpt lat="42.94891" lon="-2.78971">
        <ele>692.4</ele>
        <time>2021-05-29 19:17:21</time>
      </trkpt>
      <trkpt lat="42.94889" lon="-2.78967">
        <ele>692.8</ele>
        <time>2021-05-29 19:17:22</time>
      </trkpt>
      <trkpt lat="42.94887" lon="-2.78963">
        <ele>693</ele>
        <time>2021-05-29 19:17:23</time>
      </trkpt>
      <trkpt lat="42.94884" lon="-2.78959">
        <ele>693.4</ele>
        <time>2021-05-29 19:17:24</time>
      </trkpt>
      <trkpt lat="42.94882" lon="-2.78955">
        <ele>693.8</ele>
        <time>2021-05-29 19:17:25</time>
      </trkpt>
      <trkpt lat="42.9488" lon="-2.78951">
        <ele>694</ele>
        <time>2021-05-29 19:17:26</time>
      </trkpt>
      <trkpt lat="42.94877" lon="-2.78947">
        <ele>694.4</ele>
        <time>2021-05-29 19:17:27</time>
      </trkpt>
      <trkpt lat="42.94875" lon="-2.78943">
        <ele>694.8</ele>
        <time>2021-05-29 19:17:28</time>
      </trkpt>
      <trkpt lat="42.94872" lon="-2.78939">
        <ele>695.2</ele>
        <time>2021-05-29 19:17:29</time>
      </trkpt>
      <trkpt lat="42.94869" lon="-2.78935">
        <ele>695.6</ele>
        <time>2021-05-29 19:17:30</time>
      </trkpt>
      <trkpt lat="42.94867" lon="-2.78931">
        <ele>696</ele>
        <time>2021-05-29 19:17:31</time>
      </trkpt>
      <trkpt lat="42.94864" lon="-2.78927">
        <ele>696.4</ele>
        <time>2021-05-29 19:17:32</time>
      </trkpt>
      <trkpt lat="42.94861" lon="-2.78923">
        <ele>696.8</ele>
        <time>2021-05-29 19:17:33</time>
      </trkpt>
      <trkpt lat="42.94858" lon="-2.78919">
        <ele>697.2</ele>
        <time>2021-05-29 19:17:34</time>
      </trkpt>
      <trkpt lat="42.94855" lon="-2.78915">
        <ele>698</ele>
        <time>2021-05-29 19:17:35</time>
      </trkpt>
      <trkpt lat="42.94851" lon="-2.78911">
        <ele>698.4</ele>
        <time>2021-05-29 19:17:36</time>
      </trkpt>
      <trkpt lat="42.94847" lon="-2.78906">
        <ele>698.8</ele>
        <time>2021-05-29 19:17:37</time>
      </trkpt>
      <trkpt lat="42.94843" lon="-2.78901">
        <ele>699</ele>
        <time>2021-05-29 19:17:38</time>
      </trkpt>
      <trkpt lat="42.94839" lon="-2.78895">
        <ele>699.4</ele>
        <time>2021-05-29 19:17:39</time>
      </trkpt>
      <trkpt lat="42.94834" lon="-2.7889">
        <ele>699.8</ele>
        <time>2021-05-29 19:17:40</time>
      </trkpt>
      <trkpt lat="42.94828" lon="-2.78885">
        <ele>700.2</ele>
        <time>2021-05-29 19:17:41</time>
      </trkpt>
      <trkpt lat="42.94823" lon="-2.7888">
        <ele>700.4</ele>
        <time>2021-05-29 19:17:42</time>
      </trkpt>
      <trkpt lat="42.94817" lon="-2.78875">
        <ele>700.8</ele>
        <time>2021-05-29 19:17:43</time>
      </trkpt>
      <trkpt lat="42.94812" lon="-2.7887">
        <ele>701.2</ele>
        <time>2021-05-29 19:17:44</time>
      </trkpt>
      <trkpt lat="42.94806" lon="-2.78865">
        <ele>701.6</ele>
        <time>2021-05-29 19:17:45</time>
      </trkpt>
      <trkpt lat="42.94801" lon="-2.78861">
        <ele>702.2</ele>
        <time>2021-05-29 19:17:46</time>
      </trkpt>
      <trkpt lat="42.94796" lon="-2.78857">
        <ele>702.8</ele>
        <time>2021-05-29 19:17:47</time>
      </trkpt>
      <trkpt lat="42.94791" lon="-2.78853">
        <ele>703.6</ele>
        <time>2021-05-29 19:17:48</time>
      </trkpt>
      <trkpt lat="42.94786" lon="-2.7885">
        <ele>704.2</ele>
        <time>2021-05-29 19:17:49</time>
      </trkpt>
      <trkpt lat="42.94782" lon="-2.78846">
        <ele>705</ele>
        <time>2021-05-29 19:17:50</time>
      </trkpt>
      <trkpt lat="42.94778" lon="-2.78843">
        <ele>705.8</ele>
        <time>2021-05-29 19:17:51</time>
      </trkpt>
      <trkpt lat="42.94775" lon="-2.78841">
        <ele>706.4</ele>
        <time>2021-05-29 19:17:52</time>
      </trkpt>
      <trkpt lat="42.94771" lon="-2.78838">
        <ele>707.2</ele>
        <time>2021-05-29 19:17:53</time>
      </trkpt>
      <trkpt lat="42.94768" lon="-2.78836">
        <ele>707.8</ele>
        <time>2021-05-29 19:17:54</time>
      </trkpt>
      <trkpt lat="42.94764" lon="-2.78834">
        <ele>708.4</ele>
        <time>2021-05-29 19:17:55</time>
      </trkpt>
      <trkpt lat="42.94761" lon="-2.78831">
        <ele>709</ele>
        <time>2021-05-29 19:17:56</time>
      </trkpt>
      <trkpt lat="42.94758" lon="-2.78829">
        <ele>709.4</ele>
        <time>2021-05-29 19:17:57</time>
      </trkpt>
      <trkpt lat="42.94756" lon="-2.78827">
        <ele>709.8</ele>
        <time>2021-05-29 19:17:58</time>
      </trkpt>
      <trkpt lat="42.94753" lon="-2.78824">
        <ele>710.4</ele>
        <time>2021-05-29 19:17:59</time>
      </trkpt>
      <trkpt lat="42.9475" lon="-2.78822">
        <ele>710.6</ele>
        <time>2021-05-29 19:18:00</time>
      </trkpt>
      <trkpt lat="42.94747" lon="-2.78819">
        <ele>710.8</ele>
        <time>2021-05-29 19:18:01</time>
      </trkpt>
      <trkpt lat="42.94744" lon="-2.78817">
        <ele>711</ele>
        <time>2021-05-29 19:18:02</time>
      </trkpt>
      <trkpt lat="42.94741" lon="-2.78814">
        <ele>711</ele>
        <time>2021-05-29 19:18:03</time>
      </trkpt>
      <trkpt lat="42.94738" lon="-2.78811">
        <ele>711</ele>
        <time>2021-05-29 19:18:04</time>
      </trkpt>
      <trkpt lat="42.94735" lon="-2.78809">
        <ele>711.2</ele>
        <time>2021-05-29 19:18:05</time>
      </trkpt>
      <trkpt lat="42.94732" lon="-2.78806">
        <ele>711.2</ele>
        <time>2021-05-29 19:18:06</time>
      </trkpt>
      <trkpt lat="42.94728" lon="-2.78803">
        <ele>711.4</ele>
        <time>2021-05-29 19:18:07</time>
      </trkpt>
      <trkpt lat="42.94725" lon="-2.788">
        <ele>711.6</ele>
        <time>2021-05-29 19:18:08</time>
      </trkpt>
      <trkpt lat="42.94721" lon="-2.78798">
        <ele>711.6</ele>
        <time>2021-05-29 19:18:09</time>
      </trkpt>
      <trkpt lat="42.94718" lon="-2.78794">
        <ele>712</ele>
        <time>2021-05-29 19:18:10</time>
      </trkpt>
      <trkpt lat="42.94714" lon="-2.78791">
        <ele>712</ele>
        <time>2021-05-29 19:18:11</time>
      </trkpt>
      <trkpt lat="42.94711" lon="-2.78788">
        <ele>712</ele>
        <time>2021-05-29 19:18:12</time>
      </trkpt>
      <trkpt lat="42.94708" lon="-2.78785">
        <ele>712</ele>
        <time>2021-05-29 19:18:13</time>
      </trkpt>
      <trkpt lat="42.94704" lon="-2.78782">
        <ele>712</ele>
        <time>2021-05-29 19:18:14</time>
      </trkpt>
      <trkpt lat="42.94701" lon="-2.78779">
        <ele>712</ele>
        <time>2021-05-29 19:18:15</time>
      </trkpt>
      <trkpt lat="42.94697" lon="-2.78777">
        <ele>712</ele>
        <time>2021-05-29 19:18:16</time>
      </trkpt>
      <trkpt lat="42.94692" lon="-2.78773">
        <ele>712</ele>
        <time>2021-05-29 19:18:17</time>
      </trkpt>
      <trkpt lat="42.94688" lon="-2.7877">
        <ele>712</ele>
        <time>2021-05-29 19:18:18</time>
      </trkpt>
      <trkpt lat="42.94682" lon="-2.78765">
        <ele>712</ele>
        <time>2021-05-29 19:18:19</time>
      </trkpt>
      <trkpt lat="42.94677" lon="-2.78761">
        <ele>712</ele>
        <time>2021-05-29 19:18:20</time>
      </trkpt>
      <trkpt lat="42.9467" lon="-2.78756">
        <ele>712</ele>
        <time>2021-05-29 19:18:21</time>
      </trkpt>
      <trkpt lat="42.94664" lon="-2.7875">
        <ele>711.8</ele>
        <time>2021-05-29 19:18:22</time>
      </trkpt>
      <trkpt lat="42.94656" lon="-2.78745">
        <ele>711.8</ele>
        <time>2021-05-29 19:18:23</time>
      </trkpt>
      <trkpt lat="42.94648" lon="-2.7874">
        <ele>711.6</ele>
        <time>2021-05-29 19:18:24</time>
      </trkpt>
      <trkpt lat="42.94639" lon="-2.78735">
        <ele>711.4</ele>
        <time>2021-05-29 19:18:25</time>
      </trkpt>
      <trkpt lat="42.9463" lon="-2.7873">
        <ele>711.2</ele>
        <time>2021-05-29 19:18:26</time>
      </trkpt>
      <trkpt lat="42.9462" lon="-2.78725">
        <ele>711</ele>
        <time>2021-05-29 19:18:27</time>
      </trkpt>
      <trkpt lat="42.94611" lon="-2.78719">
        <ele>710.6</ele>
        <time>2021-05-29 19:18:28</time>
      </trkpt>
      <trkpt lat="42.94602" lon="-2.7871">
        <ele>710.2</ele>
        <time>2021-05-29 19:18:29</time>
      </trkpt>
      <trkpt lat="42.94594" lon="-2.787">
        <ele>709.8</ele>
        <time>2021-05-29 19:18:30</time>
      </trkpt>
      <trkpt lat="42.94586" lon="-2.78689">
        <ele>709.2</ele>
        <time>2021-05-29 19:18:31</time>
      </trkpt>
      <trkpt lat="42.94578" lon="-2.78677">
        <ele>708.4</ele>
        <time>2021-05-29 19:18:32</time>
      </trkpt>
      <trkpt lat="42.94571" lon="-2.78664">
        <ele>707.6</ele>
        <time>2021-05-29 19:18:33</time>
      </trkpt>
      <trkpt lat="42.94564" lon="-2.78651">
        <ele>706.8</ele>
        <time>2021-05-29 19:18:34</time>
      </trkpt>
      <trkpt lat="42.94557" lon="-2.78638">
        <ele>705.8</ele>
        <time>2021-05-29 19:18:35</time>
      </trkpt>
      <trkpt lat="42.9455" lon="-2.78625">
        <ele>705.2</ele>
        <time>2021-05-29 19:18:36</time>
      </trkpt>
      <trkpt lat="42.94544" lon="-2.7861">
        <ele>704.2</ele>
        <time>2021-05-29 19:18:37</time>
      </trkpt>
      <trkpt lat="42.94538" lon="-2.78596">
        <ele>703.2</ele>
        <time>2021-05-29 19:18:38</time>
      </trkpt>
      <trkpt lat="42.94532" lon="-2.78582">
        <ele>702.4</ele>
        <time>2021-05-29 19:18:39</time>
      </trkpt>
      <trkpt lat="42.94527" lon="-2.78567">
        <ele>701.4</ele>
        <time>2021-05-29 19:18:40</time>
      </trkpt>
      <trkpt lat="42.94522" lon="-2.78552">
        <ele>700.4</ele>
        <time>2021-05-29 19:18:41</time>
      </trkpt>
      <trkpt lat="42.94516" lon="-2.78537">
        <ele>699.8</ele>
        <time>2021-05-29 19:18:42</time>
      </trkpt>
      <trkpt lat="42.94511" lon="-2.78523">
        <ele>699.2</ele>
        <time>2021-05-29 19:18:43</time>
      </trkpt>
      <trkpt lat="42.94505" lon="-2.78508">
        <ele>698.6</ele>
        <time>2021-05-29 19:18:44</time>
      </trkpt>
      <trkpt lat="42.94499" lon="-2.78493">
        <ele>697.4</ele>
        <time>2021-05-29 19:18:45</time>
      </trkpt>
      <trkpt lat="42.94492" lon="-2.78478">
        <ele>696.4</ele>
        <time>2021-05-29 19:18:46</time>
      </trkpt>
      <trkpt lat="42.94486" lon="-2.78462">
        <ele>695.6</ele>
        <time>2021-05-29 19:18:47</time>
      </trkpt>
      <trkpt lat="42.94478" lon="-2.78447">
        <ele>694.8</ele>
        <time>2021-05-29 19:18:48</time>
      </trkpt>
      <trkpt lat="42.9447" lon="-2.78432">
        <ele>694</ele>
        <time>2021-05-29 19:18:49</time>
      </trkpt>
      <trkpt lat="42.94461" lon="-2.78416">
        <ele>693.2</ele>
        <time>2021-05-29 19:18:50</time>
      </trkpt>
      <trkpt lat="42.94451" lon="-2.784">
        <ele>692.6</ele>
        <time>2021-05-29 19:18:51</time>
      </trkpt>
      <trkpt lat="42.94442" lon="-2.78384">
        <ele>691.8</ele>
        <time>2021-05-29 19:18:52</time>
      </trkpt>
      <trkpt lat="42.94432" lon="-2.78366">
        <ele>691</ele>
        <time>2021-05-29 19:18:53</time>
      </trkpt>
      <trkpt lat="42.94423" lon="-2.78348">
        <ele>690</ele>
        <time>2021-05-29 19:18:54</time>
      </trkpt>
      <trkpt lat="42.94414" lon="-2.78329">
        <ele>689</ele>
        <time>2021-05-29 19:18:55</time>
      </trkpt>
      <trkpt lat="42.94404" lon="-2.7831">
        <ele>687.8</ele>
        <time>2021-05-29 19:18:56</time>
      </trkpt>
      <trkpt lat="42.94395" lon="-2.78291">
        <ele>686.6</ele>
        <time>2021-05-29 19:18:57</time>
      </trkpt>
      <trkpt lat="42.94386" lon="-2.78271">
        <ele>685.2</ele>
        <time>2021-05-29 19:18:58</time>
      </trkpt>
      <trkpt lat="42.94376" lon="-2.78252">
        <ele>683.8</ele>
        <time>2021-05-29 19:18:59</time>
      </trkpt>
      <trkpt lat="42.94367" lon="-2.78232">
        <ele>682</ele>
        <time>2021-05-29 19:19:00</time>
      </trkpt>
      <trkpt lat="42.94358" lon="-2.78212">
        <ele>680.4</ele>
        <time>2021-05-29 19:19:01</time>
      </trkpt>
      <trkpt lat="42.94351" lon="-2.78191">
        <ele>678.6</ele>
        <time>2021-05-29 19:19:02</time>
      </trkpt>
      <trkpt lat="42.94346" lon="-2.78169">
        <ele>676.8</ele>
        <time>2021-05-29 19:19:03</time>
      </trkpt>
      <trkpt lat="42.94343" lon="-2.78145">
        <ele>675.6</ele>
        <time>2021-05-29 19:19:04</time>
      </trkpt>
      <trkpt lat="42.94341" lon="-2.78122">
        <ele>674.2</ele>
        <time>2021-05-29 19:19:05</time>
      </trkpt>
      <trkpt lat="42.94342" lon="-2.78098">
        <ele>672.4</ele>
        <time>2021-05-29 19:19:06</time>
      </trkpt>
      <trkpt lat="42.94343" lon="-2.78075">
        <ele>670.8</ele>
        <time>2021-05-29 19:19:07</time>
      </trkpt>
      <trkpt lat="42.94344" lon="-2.78052">
        <ele>669.4</ele>
        <time>2021-05-29 19:19:08</time>
      </trkpt>
      <trkpt lat="42.94345" lon="-2.78028">
        <ele>667.8</ele>
        <time>2021-05-29 19:19:09</time>
      </trkpt>
      <trkpt lat="42.94344" lon="-2.78005">
        <ele>666.2</ele>
        <time>2021-05-29 19:19:10</time>
      </trkpt>
      <trkpt lat="42.94342" lon="-2.77981">
        <ele>664.4</ele>
        <time>2021-05-29 19:19:11</time>
      </trkpt>
      <trkpt lat="42.94338" lon="-2.77958">
        <ele>662.8</ele>
        <time>2021-05-29 19:19:12</time>
      </trkpt>
      <trkpt lat="42.94332" lon="-2.77935">
        <ele>661.2</ele>
        <time>2021-05-29 19:19:13</time>
      </trkpt>
      <trkpt lat="42.94325" lon="-2.77912">
        <ele>659.6</ele>
        <time>2021-05-29 19:19:14</time>
      </trkpt>
      <trkpt lat="42.94317" lon="-2.7789">
        <ele>658.2</ele>
        <time>2021-05-29 19:19:15</time>
      </trkpt>
      <trkpt lat="42.94308" lon="-2.77868">
        <ele>657</ele>
        <time>2021-05-29 19:19:16</time>
      </trkpt>
      <trkpt lat="42.94298" lon="-2.77846">
        <ele>655.6</ele>
        <time>2021-05-29 19:19:17</time>
      </trkpt>
      <trkpt lat="42.94288" lon="-2.77823">
        <ele>654.2</ele>
        <time>2021-05-29 19:19:18</time>
      </trkpt>
      <trkpt lat="42.94278" lon="-2.77801">
        <ele>651</ele>
        <time>2021-05-29 19:19:19</time>
      </trkpt>
      <trkpt lat="42.94268" lon="-2.77779">
        <ele>649</ele>
        <time>2021-05-29 19:19:20</time>
      </trkpt>
      <trkpt lat="42.94258" lon="-2.77756">
        <ele>647.2</ele>
        <time>2021-05-29 19:19:21</time>
      </trkpt>
      <trkpt lat="42.94249" lon="-2.77734">
        <ele>645.6</ele>
        <time>2021-05-29 19:19:22</time>
      </trkpt>
      <trkpt lat="42.94239" lon="-2.77712">
        <ele>643.8</ele>
        <time>2021-05-29 19:19:23</time>
      </trkpt>
      <trkpt lat="42.94229" lon="-2.7769">
        <ele>641.6</ele>
        <time>2021-05-29 19:19:24</time>
      </trkpt>
      <trkpt lat="42.94219" lon="-2.77668">
        <ele>639.4</ele>
        <time>2021-05-29 19:19:25</time>
      </trkpt>
      <trkpt lat="42.94209" lon="-2.77647">
        <ele>637.2</ele>
        <time>2021-05-29 19:19:26</time>
      </trkpt>
      <trkpt lat="42.942" lon="-2.77625">
        <ele>635.2</ele>
        <time>2021-05-29 19:19:27</time>
      </trkpt>
      <trkpt lat="42.9419" lon="-2.77604">
        <ele>633.6</ele>
        <time>2021-05-29 19:19:28</time>
      </trkpt>
      <trkpt lat="42.94181" lon="-2.77582">
        <ele>631.6</ele>
        <time>2021-05-29 19:19:29</time>
      </trkpt>
      <trkpt lat="42.94171" lon="-2.77561">
        <ele>629.6</ele>
        <time>2021-05-29 19:19:30</time>
      </trkpt>
      <trkpt lat="42.94162" lon="-2.7754">
        <ele>627.8</ele>
        <time>2021-05-29 19:19:31</time>
      </trkpt>
      <trkpt lat="42.94153" lon="-2.7752">
        <ele>626.4</ele>
        <time>2021-05-29 19:19:32</time>
      </trkpt>
      <trkpt lat="42.94144" lon="-2.77499">
        <ele>624.4</ele>
        <time>2021-05-29 19:19:33</time>
      </trkpt>
      <trkpt lat="42.94135" lon="-2.77479">
        <ele>622.4</ele>
        <time>2021-05-29 19:19:34</time>
      </trkpt>
      <trkpt lat="42.94126" lon="-2.77459">
        <ele>621</ele>
        <time>2021-05-29 19:19:35</time>
      </trkpt>
      <trkpt lat="42.94118" lon="-2.77439">
        <ele>619.2</ele>
        <time>2021-05-29 19:19:36</time>
      </trkpt>
      <trkpt lat="42.94111" lon="-2.77419">
        <ele>617.2</ele>
        <time>2021-05-29 19:19:37</time>
      </trkpt>
      <trkpt lat="42.94106" lon="-2.77399">
        <ele>615.8</ele>
        <time>2021-05-29 19:19:38</time>
      </trkpt>
      <trkpt lat="42.94102" lon="-2.77379">
        <ele>614.6</ele>
        <time>2021-05-29 19:19:39</time>
      </trkpt>
      <trkpt lat="42.941" lon="-2.77358">
        <ele>613.4</ele>
        <time>2021-05-29 19:19:40</time>
      </trkpt>
      <trkpt lat="42.94099" lon="-2.77337">
        <ele>612.2</ele>
        <time>2021-05-29 19:19:41</time>
      </trkpt>
      <trkpt lat="42.941" lon="-2.77317">
        <ele>610.8</ele>
        <time>2021-05-29 19:19:42</time>
      </trkpt>
      <trkpt lat="42.94104" lon="-2.77297">
        <ele>610.2</ele>
        <time>2021-05-29 19:19:43</time>
      </trkpt>
      <trkpt lat="42.94108" lon="-2.77277">
        <ele>609.6</ele>
        <time>2021-05-29 19:19:44</time>
      </trkpt>
      <trkpt lat="42.94113" lon="-2.77258">
        <ele>608.8</ele>
        <time>2021-05-29 19:19:45</time>
      </trkpt>
      <trkpt lat="42.94119" lon="-2.7724">
        <ele>608.4</ele>
        <time>2021-05-29 19:19:46</time>
      </trkpt>
      <trkpt lat="42.94125" lon="-2.77221">
        <ele>608</ele>
        <time>2021-05-29 19:19:47</time>
      </trkpt>
      <trkpt lat="42.94131" lon="-2.77202">
        <ele>607.2</ele>
        <time>2021-05-29 19:19:48</time>
      </trkpt>
      <trkpt lat="42.94137" lon="-2.77184">
        <ele>606.4</ele>
        <time>2021-05-29 19:19:49</time>
      </trkpt>
      <trkpt lat="42.94144" lon="-2.77165">
        <ele>605.8</ele>
        <time>2021-05-29 19:19:50</time>
      </trkpt>
      <trkpt lat="42.9415" lon="-2.77147">
        <ele>604.8</ele>
        <time>2021-05-29 19:19:51</time>
      </trkpt>
      <trkpt lat="42.94155" lon="-2.77128">
        <ele>604.2</ele>
        <time>2021-05-29 19:19:52</time>
      </trkpt>
      <trkpt lat="42.94158" lon="-2.77109">
        <ele>603.4</ele>
        <time>2021-05-29 19:19:53</time>
      </trkpt>
      <trkpt lat="42.9416" lon="-2.7709">
        <ele>602</ele>
        <time>2021-05-29 19:19:54</time>
      </trkpt>
      <trkpt lat="42.94161" lon="-2.7707">
        <ele>601.2</ele>
        <time>2021-05-29 19:19:55</time>
      </trkpt>
      <trkpt lat="42.9416" lon="-2.77052">
        <ele>600.6</ele>
        <time>2021-05-29 19:19:56</time>
      </trkpt>
      <trkpt lat="42.94157" lon="-2.77033">
        <ele>600</ele>
        <time>2021-05-29 19:19:57</time>
      </trkpt>
      <trkpt lat="42.94155" lon="-2.77014">
        <ele>599.6</ele>
        <time>2021-05-29 19:19:58</time>
      </trkpt>
      <trkpt lat="42.94153" lon="-2.76996">
        <ele>599</ele>
        <time>2021-05-29 19:19:59</time>
      </trkpt>
      <trkpt lat="42.94151" lon="-2.76977">
        <ele>598.4</ele>
        <time>2021-05-29 19:20:00</time>
      </trkpt>
      <trkpt lat="42.94149" lon="-2.76958">
        <ele>597.8</ele>
        <time>2021-05-29 19:20:01</time>
      </trkpt>
      <trkpt lat="42.94147" lon="-2.7694">
        <ele>597.4</ele>
        <time>2021-05-29 19:20:02</time>
      </trkpt>
      <trkpt lat="42.94145" lon="-2.76921">
        <ele>597.2</ele>
        <time>2021-05-29 19:20:03</time>
      </trkpt>
      <trkpt lat="42.94143" lon="-2.76902">
        <ele>597</ele>
        <time>2021-05-29 19:20:04</time>
      </trkpt>
      <trkpt lat="42.94141" lon="-2.76884">
        <ele>597</ele>
        <time>2021-05-29 19:20:05</time>
      </trkpt>
      <trkpt lat="42.94139" lon="-2.76865">
        <ele>596.8</ele>
        <time>2021-05-29 19:20:06</time>
      </trkpt>
      <trkpt lat="42.94137" lon="-2.76847">
        <ele>596.6</ele>
        <time>2021-05-29 19:20:07</time>
      </trkpt>
      <trkpt lat="42.94135" lon="-2.76829">
        <ele>596</ele>
        <time>2021-05-29 19:20:08</time>
      </trkpt>
      <trkpt lat="42.94133" lon="-2.76811">
        <ele>595.6</ele>
        <time>2021-05-29 19:20:09</time>
      </trkpt>
      <trkpt lat="42.94131" lon="-2.76793">
        <ele>595.4</ele>
        <time>2021-05-29 19:20:10</time>
      </trkpt>
      <trkpt lat="42.94129" lon="-2.76775">
        <ele>594.8</ele>
        <time>2021-05-29 19:20:11</time>
      </trkpt>
      <trkpt lat="42.94127" lon="-2.76758">
        <ele>594.2</ele>
        <time>2021-05-29 19:20:12</time>
      </trkpt>
      <trkpt lat="42.94125" lon="-2.76741">
        <ele>594</ele>
        <time>2021-05-29 19:20:13</time>
      </trkpt>
      <trkpt lat="42.94124" lon="-2.76724">
        <ele>593.6</ele>
        <time>2021-05-29 19:20:14</time>
      </trkpt>
      <trkpt lat="42.94122" lon="-2.76707">
        <ele>593.2</ele>
        <time>2021-05-29 19:20:15</time>
      </trkpt>
      <trkpt lat="42.94121" lon="-2.7669">
        <ele>593</ele>
        <time>2021-05-29 19:20:16</time>
      </trkpt>
      <trkpt lat="42.94121" lon="-2.76673">
        <ele>592.8</ele>
        <time>2021-05-29 19:20:17</time>
      </trkpt>
      <trkpt lat="42.94121" lon="-2.76656">
        <ele>592.4</ele>
        <time>2021-05-29 19:20:18</time>
      </trkpt>
      <trkpt lat="42.94122" lon="-2.7664">
        <ele>592</ele>
        <time>2021-05-29 19:20:19</time>
      </trkpt>
      <trkpt lat="42.94122" lon="-2.76623">
        <ele>591.8</ele>
        <time>2021-05-29 19:20:20</time>
      </trkpt>
      <trkpt lat="42.94124" lon="-2.76606">
        <ele>591.4</ele>
        <time>2021-05-29 19:20:21</time>
      </trkpt>
      <trkpt lat="42.94126" lon="-2.7659">
        <ele>591.2</ele>
        <time>2021-05-29 19:20:22</time>
      </trkpt>
      <trkpt lat="42.94128" lon="-2.76574">
        <ele>590.8</ele>
        <time>2021-05-29 19:20:23</time>
      </trkpt>
      <trkpt lat="42.94129" lon="-2.76559">
        <ele>590.6</ele>
        <time>2021-05-29 19:20:24</time>
      </trkpt>
      <trkpt lat="42.94131" lon="-2.76543">
        <ele>590.2</ele>
        <time>2021-05-29 19:20:25</time>
      </trkpt>
      <trkpt lat="42.94133" lon="-2.76527">
        <ele>589.6</ele>
        <time>2021-05-29 19:20:26</time>
      </trkpt>
      <trkpt lat="42.94135" lon="-2.76512">
        <ele>589</ele>
        <time>2021-05-29 19:20:27</time>
      </trkpt>
      <trkpt lat="42.94137" lon="-2.76497">
        <ele>588.4</ele>
        <time>2021-05-29 19:20:28</time>
      </trkpt>
      <trkpt lat="42.94138" lon="-2.76482">
        <ele>587.8</ele>
        <time>2021-05-29 19:20:29</time>
      </trkpt>
      <trkpt lat="42.9414" lon="-2.76467">
        <ele>587.4</ele>
        <time>2021-05-29 19:20:30</time>
      </trkpt>
      <trkpt lat="42.94142" lon="-2.76453">
        <ele>587.2</ele>
        <time>2021-05-29 19:20:31</time>
      </trkpt>
      <trkpt lat="42.94143" lon="-2.76438">
        <ele>586.8</ele>
        <time>2021-05-29 19:20:32</time>
      </trkpt>
      <trkpt lat="42.94145" lon="-2.76423">
        <ele>586.4</ele>
        <time>2021-05-29 19:20:33</time>
      </trkpt>
      <trkpt lat="42.94147" lon="-2.76409">
        <ele>586</ele>
        <time>2021-05-29 19:20:34</time>
      </trkpt>
      <trkpt lat="42.94149" lon="-2.76395">
        <ele>585.6</ele>
        <time>2021-05-29 19:20:35</time>
      </trkpt>
      <trkpt lat="42.94151" lon="-2.76381">
        <ele>585.2</ele>
        <time>2021-05-29 19:20:36</time>
      </trkpt>
      <trkpt lat="42.94152" lon="-2.76367">
        <ele>585</ele>
        <time>2021-05-29 19:20:37</time>
      </trkpt>
      <trkpt lat="42.94154" lon="-2.76353">
        <ele>584.6</ele>
        <time>2021-05-29 19:20:38</time>
      </trkpt>
      <trkpt lat="42.94155" lon="-2.7634">
        <ele>584.2</ele>
        <time>2021-05-29 19:20:39</time>
      </trkpt>
      <trkpt lat="42.94157" lon="-2.76327">
        <ele>584</ele>
        <time>2021-05-29 19:20:40</time>
      </trkpt>
      <trkpt lat="42.94159" lon="-2.76314">
        <ele>583.8</ele>
        <time>2021-05-29 19:20:41</time>
      </trkpt>
      <trkpt lat="42.9416" lon="-2.76302">
        <ele>583.8</ele>
        <time>2021-05-29 19:20:42</time>
      </trkpt>
      <trkpt lat="42.94162" lon="-2.76289">
        <ele>583.6</ele>
        <time>2021-05-29 19:20:43</time>
      </trkpt>
      <trkpt lat="42.94163" lon="-2.76276">
        <ele>583.6</ele>
        <time>2021-05-29 19:20:44</time>
      </trkpt>
      <trkpt lat="42.94165" lon="-2.76262">
        <ele>583.6</ele>
        <time>2021-05-29 19:20:45</time>
      </trkpt>
      <trkpt lat="42.94167" lon="-2.76249">
        <ele>583.6</ele>
        <time>2021-05-29 19:20:46</time>
      </trkpt>
      <trkpt lat="42.94168" lon="-2.76236">
        <ele>583.6</ele>
        <time>2021-05-29 19:20:47</time>
      </trkpt>
      <trkpt lat="42.9417" lon="-2.76222">
        <ele>583.4</ele>
        <time>2021-05-29 19:20:48</time>
      </trkpt>
      <trkpt lat="42.94171" lon="-2.76208">
        <ele>583.4</ele>
        <time>2021-05-29 19:20:49</time>
      </trkpt>
      <trkpt lat="42.94172" lon="-2.76194">
        <ele>583.2</ele>
        <time>2021-05-29 19:20:50</time>
      </trkpt>
      <trkpt lat="42.94174" lon="-2.76179">
        <ele>583.2</ele>
        <time>2021-05-29 19:20:51</time>
      </trkpt>
      <trkpt lat="42.94175" lon="-2.76165">
        <ele>583.2</ele>
        <time>2021-05-29 19:20:52</time>
      </trkpt>
      <trkpt lat="42.94177" lon="-2.76151">
        <ele>583.2</ele>
        <time>2021-05-29 19:20:53</time>
      </trkpt>
      <trkpt lat="42.94178" lon="-2.76136">
        <ele>583.2</ele>
        <time>2021-05-29 19:20:54</time>
      </trkpt>
      <trkpt lat="42.9418" lon="-2.76122">
        <ele>583</ele>
        <time>2021-05-29 19:20:55</time>
      </trkpt>
      <trkpt lat="42.94182" lon="-2.76107">
        <ele>583</ele>
        <time>2021-05-29 19:20:56</time>
      </trkpt>
      <trkpt lat="42.94184" lon="-2.76092">
        <ele>582.8</ele>
        <time>2021-05-29 19:20:57</time>
      </trkpt>
      <trkpt lat="42.94187" lon="-2.76078">
        <ele>582.6</ele>
        <time>2021-05-29 19:20:58</time>
      </trkpt>
      <trkpt lat="42.94189" lon="-2.76064">
        <ele>582.2</ele>
        <time>2021-05-29 19:20:59</time>
      </trkpt>
      <trkpt lat="42.94192" lon="-2.76049">
        <ele>582</ele>
        <time>2021-05-29 19:21:00</time>
      </trkpt>
      <trkpt lat="42.94194" lon="-2.76035">
        <ele>581.6</ele>
        <time>2021-05-29 19:21:01</time>
      </trkpt>
      <trkpt lat="42.94197" lon="-2.76021">
        <ele>580.8</ele>
        <time>2021-05-29 19:21:02</time>
      </trkpt>
      <trkpt lat="42.942" lon="-2.76007">
        <ele>580.4</ele>
        <time>2021-05-29 19:21:03</time>
      </trkpt>
      <trkpt lat="42.94202" lon="-2.75993">
        <ele>580.2</ele>
        <time>2021-05-29 19:21:04</time>
      </trkpt>
      <trkpt lat="42.94205" lon="-2.75979">
        <ele>579.8</ele>
        <time>2021-05-29 19:21:05</time>
      </trkpt>
      <trkpt lat="42.94207" lon="-2.75965">
        <ele>579.6</ele>
        <time>2021-05-29 19:21:06</time>
      </trkpt>
      <trkpt lat="42.9421" lon="-2.75951">
        <ele>579.4</ele>
        <time>2021-05-29 19:21:07</time>
      </trkpt>
      <trkpt lat="42.94212" lon="-2.75938">
        <ele>579.2</ele>
        <time>2021-05-29 19:21:08</time>
      </trkpt>
      <trkpt lat="42.94215" lon="-2.75924">
        <ele>579.2</ele>
        <time>2021-05-29 19:21:09</time>
      </trkpt>
      <trkpt lat="42.94217" lon="-2.75912">
        <ele>579</ele>
        <time>2021-05-29 19:21:10</time>
      </trkpt>
      <trkpt lat="42.94219" lon="-2.75899">
        <ele>579</ele>
        <time>2021-05-29 19:21:11</time>
      </trkpt>
      <trkpt lat="42.94221" lon="-2.75887">
        <ele>579</ele>
        <time>2021-05-29 19:21:12</time>
      </trkpt>
      <trkpt lat="42.94224" lon="-2.75876">
        <ele>579</ele>
        <time>2021-05-29 19:21:13</time>
      </trkpt>
      <trkpt lat="42.94226" lon="-2.75865">
        <ele>579</ele>
        <time>2021-05-29 19:21:14</time>
      </trkpt>
      <trkpt lat="42.94228" lon="-2.75854">
        <ele>579</ele>
        <time>2021-05-29 19:21:15</time>
      </trkpt>
      <trkpt lat="42.9423" lon="-2.75844">
        <ele>579</ele>
        <time>2021-05-29 19:21:16</time>
      </trkpt>
      <trkpt lat="42.94231" lon="-2.75834">
        <ele>579</ele>
        <time>2021-05-29 19:21:17</time>
      </trkpt>
      <trkpt lat="42.94233" lon="-2.75824">
        <ele>579</ele>
        <time>2021-05-29 19:21:18</time>
      </trkpt>
      <trkpt lat="42.94235" lon="-2.75814">
        <ele>579.4</ele>
        <time>2021-05-29 19:21:19</time>
      </trkpt>
      <trkpt lat="42.94237" lon="-2.75805">
        <ele>579.8</ele>
        <time>2021-05-29 19:21:20</time>
      </trkpt>
      <trkpt lat="42.94238" lon="-2.75795">
        <ele>580</ele>
        <time>2021-05-29 19:21:21</time>
      </trkpt>
      <trkpt lat="42.9424" lon="-2.75786">
        <ele>580.6</ele>
        <time>2021-05-29 19:21:22</time>
      </trkpt>
      <trkpt lat="42.94241" lon="-2.75777">
        <ele>581</ele>
        <time>2021-05-29 19:21:23</time>
      </trkpt>
      <trkpt lat="42.94242" lon="-2.75767">
        <ele>581.4</ele>
        <time>2021-05-29 19:21:24</time>
      </trkpt>
      <trkpt lat="42.94244" lon="-2.75758">
        <ele>581.8</ele>
        <time>2021-05-29 19:21:25</time>
      </trkpt>
      <trkpt lat="42.94244" lon="-2.75748">
        <ele>582</ele>
        <time>2021-05-29 19:21:26</time>
      </trkpt>
      <trkpt lat="42.94245" lon="-2.75738">
        <ele>582.4</ele>
        <time>2021-05-29 19:21:27</time>
      </trkpt>
      <trkpt lat="42.94245" lon="-2.75728">
        <ele>582.8</ele>
        <time>2021-05-29 19:21:28</time>
      </trkpt>
      <trkpt lat="42.94244" lon="-2.75718">
        <ele>583.2</ele>
        <time>2021-05-29 19:21:29</time>
      </trkpt>
      <trkpt lat="42.94243" lon="-2.75708">
        <ele>583.4</ele>
        <time>2021-05-29 19:21:30</time>
      </trkpt>
      <trkpt lat="42.94242" lon="-2.75699">
        <ele>583.6</ele>
        <time>2021-05-29 19:21:31</time>
      </trkpt>
      <trkpt lat="42.94239" lon="-2.75689">
        <ele>583.8</ele>
        <time>2021-05-29 19:21:32</time>
      </trkpt>
      <trkpt lat="42.94236" lon="-2.7568">
        <ele>584</ele>
        <time>2021-05-29 19:21:33</time>
      </trkpt>
      <trkpt lat="42.94232" lon="-2.7567">
        <ele>584.2</ele>
        <time>2021-05-29 19:21:34</time>
      </trkpt>
      <trkpt lat="42.94227" lon="-2.75661">
        <ele>584.4</ele>
        <time>2021-05-29 19:21:35</time>
      </trkpt>
      <trkpt lat="42.94222" lon="-2.75653">
        <ele>584.4</ele>
        <time>2021-05-29 19:21:36</time>
      </trkpt>
      <trkpt lat="42.94217" lon="-2.75644">
        <ele>584.4</ele>
        <time>2021-05-29 19:21:37</time>
      </trkpt>
      <trkpt lat="42.94211" lon="-2.75635">
        <ele>584.4</ele>
        <time>2021-05-29 19:21:38</time>
      </trkpt>
      <trkpt lat="42.94204" lon="-2.75626">
        <ele>584.4</ele>
        <time>2021-05-29 19:21:39</time>
      </trkpt>
      <trkpt lat="42.94198" lon="-2.75617">
        <ele>584.4</ele>
        <time>2021-05-29 19:21:40</time>
      </trkpt>
      <trkpt lat="42.94191" lon="-2.75607">
        <ele>584.4</ele>
        <time>2021-05-29 19:21:41</time>
      </trkpt>
      <trkpt lat="42.94184" lon="-2.75597">
        <ele>584.4</ele>
        <time>2021-05-29 19:21:42</time>
      </trkpt>
      <trkpt lat="42.94177" lon="-2.75588">
        <ele>584.4</ele>
        <time>2021-05-29 19:21:43</time>
      </trkpt>
      <trkpt lat="42.9417" lon="-2.75577">
        <ele>584.2</ele>
        <time>2021-05-29 19:21:44</time>
      </trkpt>
      <trkpt lat="42.94163" lon="-2.75567">
        <ele>583.8</ele>
        <time>2021-05-29 19:21:45</time>
      </trkpt>
      <trkpt lat="42.94155" lon="-2.75557">
        <ele>583.6</ele>
        <time>2021-05-29 19:21:46</time>
      </trkpt>
      <trkpt lat="42.94148" lon="-2.75546">
        <ele>583.2</ele>
        <time>2021-05-29 19:21:47</time>
      </trkpt>
      <trkpt lat="42.9414" lon="-2.75536">
        <ele>582.6</ele>
        <time>2021-05-29 19:21:48</time>
      </trkpt>
      <trkpt lat="42.94132" lon="-2.75525">
        <ele>581.8</ele>
        <time>2021-05-29 19:21:49</time>
      </trkpt>
      <trkpt lat="42.94125" lon="-2.75514">
        <ele>581.2</ele>
        <time>2021-05-29 19:21:50</time>
      </trkpt>
      <trkpt lat="42.94117" lon="-2.75503">
        <ele>580.4</ele>
        <time>2021-05-29 19:21:51</time>
      </trkpt>
      <trkpt lat="42.9411" lon="-2.75492">
        <ele>580</ele>
        <time>2021-05-29 19:21:52</time>
      </trkpt>
      <trkpt lat="42.94103" lon="-2.75481">
        <ele>579.4</ele>
        <time>2021-05-29 19:21:53</time>
      </trkpt>
      <trkpt lat="42.94096" lon="-2.7547">
        <ele>578.8</ele>
        <time>2021-05-29 19:21:54</time>
      </trkpt>
      <trkpt lat="42.9409" lon="-2.75458">
        <ele>578</ele>
        <time>2021-05-29 19:21:55</time>
      </trkpt>
      <trkpt lat="42.94085" lon="-2.75445">
        <ele>577.4</ele>
        <time>2021-05-29 19:21:56</time>
      </trkpt>
      <trkpt lat="42.9408" lon="-2.75432">
        <ele>576.8</ele>
        <time>2021-05-29 19:21:57</time>
      </trkpt>
      <trkpt lat="42.94076" lon="-2.75419">
        <ele>576.4</ele>
        <time>2021-05-29 19:21:58</time>
      </trkpt>
      <trkpt lat="42.94072" lon="-2.75406">
        <ele>576</ele>
        <time>2021-05-29 19:21:59</time>
      </trkpt>
      <trkpt lat="42.94069" lon="-2.75391">
        <ele>575.8</ele>
        <time>2021-05-29 19:22:00</time>
      </trkpt>
      <trkpt lat="42.94065" lon="-2.75376">
        <ele>575.6</ele>
        <time>2021-05-29 19:22:01</time>
      </trkpt>
      <trkpt lat="42.94062" lon="-2.75362">
        <ele>575.4</ele>
        <time>2021-05-29 19:22:02</time>
      </trkpt>
      <trkpt lat="42.94057" lon="-2.75348">
        <ele>575.4</ele>
        <time>2021-05-29 19:22:03</time>
      </trkpt>
      <trkpt lat="42.94052" lon="-2.75334">
        <ele>575.2</ele>
        <time>2021-05-29 19:22:04</time>
      </trkpt>
      <trkpt lat="42.94045" lon="-2.7532">
        <ele>574.4</ele>
        <time>2021-05-29 19:22:05</time>
      </trkpt>
      <trkpt lat="42.94038" lon="-2.75308">
        <ele>573.8</ele>
        <time>2021-05-29 19:22:06</time>
      </trkpt>
      <trkpt lat="42.94031" lon="-2.75296">
        <ele>573.2</ele>
        <time>2021-05-29 19:22:07</time>
      </trkpt>
      <trkpt lat="42.94022" lon="-2.75286">
        <ele>572.8</ele>
        <time>2021-05-29 19:22:08</time>
      </trkpt>
      <trkpt lat="42.94014" lon="-2.75276">
        <ele>572.2</ele>
        <time>2021-05-29 19:22:09</time>
      </trkpt>
      <trkpt lat="42.94005" lon="-2.75266">
        <ele>571.8</ele>
        <time>2021-05-29 19:22:10</time>
      </trkpt>
      <trkpt lat="42.93997" lon="-2.75257">
        <ele>570.2</ele>
        <time>2021-05-29 19:22:11</time>
      </trkpt>
      <trkpt lat="42.93988" lon="-2.75247">
        <ele>570</ele>
        <time>2021-05-29 19:22:12</time>
      </trkpt>
      <trkpt lat="42.9398" lon="-2.75238">
        <ele>569.4</ele>
        <time>2021-05-29 19:22:13</time>
      </trkpt>
      <trkpt lat="42.93972" lon="-2.75228">
        <ele>569.2</ele>
        <time>2021-05-29 19:22:14</time>
      </trkpt>
      <trkpt lat="42.93964" lon="-2.75218">
        <ele>568.6</ele>
        <time>2021-05-29 19:22:15</time>
      </trkpt>
      <trkpt lat="42.93957" lon="-2.75208">
        <ele>568.2</ele>
        <time>2021-05-29 19:22:16</time>
      </trkpt>
      <trkpt lat="42.9395" lon="-2.75197">
        <ele>567.8</ele>
        <time>2021-05-29 19:22:17</time>
      </trkpt>
      <trkpt lat="42.93943" lon="-2.75186">
        <ele>567.6</ele>
        <time>2021-05-29 19:22:18</time>
      </trkpt>
      <trkpt lat="42.93936" lon="-2.75174">
        <ele>567.2</ele>
        <time>2021-05-29 19:22:19</time>
      </trkpt>
      <trkpt lat="42.9393" lon="-2.75162">
        <ele>566.8</ele>
        <time>2021-05-29 19:22:20</time>
      </trkpt>
      <trkpt lat="42.93924" lon="-2.75149">
        <ele>566.6</ele>
        <time>2021-05-29 19:22:21</time>
      </trkpt>
      <trkpt lat="42.93919" lon="-2.75136">
        <ele>566.4</ele>
        <time>2021-05-29 19:22:22</time>
      </trkpt>
      <trkpt lat="42.93914" lon="-2.75122">
        <ele>566</ele>
        <time>2021-05-29 19:22:23</time>
      </trkpt>
      <trkpt lat="42.93909" lon="-2.75108">
        <ele>565.6</ele>
        <time>2021-05-29 19:22:24</time>
      </trkpt>
      <trkpt lat="42.93904" lon="-2.75094">
        <ele>565.2</ele>
        <time>2021-05-29 19:22:25</time>
      </trkpt>
      <trkpt lat="42.93898" lon="-2.75081">
        <ele>564.8</ele>
        <time>2021-05-29 19:22:26</time>
      </trkpt>
      <trkpt lat="42.93892" lon="-2.75067">
        <ele>564.4</ele>
        <time>2021-05-29 19:22:27</time>
      </trkpt>
      <trkpt lat="42.93884" lon="-2.75056">
        <ele>564</ele>
        <time>2021-05-29 19:22:28</time>
      </trkpt>
      <trkpt lat="42.93876" lon="-2.75047">
        <ele>563.8</ele>
        <time>2021-05-29 19:22:29</time>
      </trkpt>
      <trkpt lat="42.93866" lon="-2.75042">
        <ele>563.6</ele>
        <time>2021-05-29 19:22:30</time>
      </trkpt>
      <trkpt lat="42.93855" lon="-2.75042">
        <ele>562.8</ele>
        <time>2021-05-29 19:22:31</time>
      </trkpt>
      <trkpt lat="42.93845" lon="-2.75046">
        <ele>562.2</ele>
        <time>2021-05-29 19:22:32</time>
      </trkpt>
      <trkpt lat="42.93837" lon="-2.75052">
        <ele>561.8</ele>
        <time>2021-05-29 19:22:33</time>
      </trkpt>
      <trkpt lat="42.93828" lon="-2.75059">
        <ele>561.4</ele>
        <time>2021-05-29 19:22:34</time>
      </trkpt>
      <trkpt lat="42.93821" lon="-2.75067">
        <ele>560.8</ele>
        <time>2021-05-29 19:22:35</time>
      </trkpt>
      <trkpt lat="42.93814" lon="-2.75076">
        <ele>560.4</ele>
        <time>2021-05-29 19:22:36</time>
      </trkpt>
      <trkpt lat="42.93807" lon="-2.75084">
        <ele>560.2</ele>
        <time>2021-05-29 19:22:37</time>
      </trkpt>
      <trkpt lat="42.938" lon="-2.7509">
        <ele>560</ele>
        <time>2021-05-29 19:22:38</time>
      </trkpt>
      <trkpt lat="42.93792" lon="-2.75093">
        <ele>560</ele>
        <time>2021-05-29 19:22:39</time>
      </trkpt>
      <trkpt lat="42.93784" lon="-2.75095">
        <ele>560</ele>
        <time>2021-05-29 19:22:40</time>
      </trkpt>
      <trkpt lat="42.93776" lon="-2.75093">
        <ele>560</ele>
        <time>2021-05-29 19:22:41</time>
      </trkpt>
      <trkpt lat="42.93769" lon="-2.75089">
        <ele>560</ele>
        <time>2021-05-29 19:22:42</time>
      </trkpt>
      <trkpt lat="42.93762" lon="-2.75083">
        <ele>560</ele>
        <time>2021-05-29 19:22:43</time>
      </trkpt>
      <trkpt lat="42.93757" lon="-2.75076">
        <ele>560</ele>
        <time>2021-05-29 19:22:44</time>
      </trkpt>
      <trkpt lat="42.93753" lon="-2.75067">
        <ele>560</ele>
        <time>2021-05-29 19:22:45</time>
      </trkpt>
      <trkpt lat="42.93751" lon="-2.75057">
        <ele>560.4</ele>
        <time>2021-05-29 19:22:46</time>
      </trkpt>
      <trkpt lat="42.93748" lon="-2.75046">
        <ele>560.2</ele>
        <time>2021-05-29 19:22:47</time>
      </trkpt>
      <trkpt lat="42.93744" lon="-2.75036">
        <ele>560.4</ele>
        <time>2021-05-29 19:22:48</time>
      </trkpt>
      <trkpt lat="42.93741" lon="-2.75027">
        <ele>560.4</ele>
        <time>2021-05-29 19:22:49</time>
      </trkpt>
      <trkpt lat="42.93737" lon="-2.75018">
        <ele>560.6</ele>
        <time>2021-05-29 19:22:50</time>
      </trkpt>
      <trkpt lat="42.93733" lon="-2.7501">
        <ele>560.6</ele>
        <time>2021-05-29 19:22:51</time>
      </trkpt>
      <trkpt lat="42.93729" lon="-2.75002">
        <ele>560.8</ele>
        <time>2021-05-29 19:22:52</time>
      </trkpt>
      <trkpt lat="42.93724" lon="-2.74995">
        <ele>561</ele>
        <time>2021-05-29 19:22:53</time>
      </trkpt>
      <trkpt lat="42.9372" lon="-2.74988">
        <ele>561.2</ele>
        <time>2021-05-29 19:22:54</time>
      </trkpt>
      <trkpt lat="42.93716" lon="-2.74981">
        <ele>561.2</ele>
        <time>2021-05-29 19:22:55</time>
      </trkpt>
      <trkpt lat="42.93711" lon="-2.74975">
        <ele>561.4</ele>
        <time>2021-05-29 19:22:56</time>
      </trkpt>
      <trkpt lat="42.93707" lon="-2.74969">
        <ele>561.6</ele>
        <time>2021-05-29 19:22:57</time>
      </trkpt>
      <trkpt lat="42.93702" lon="-2.74963">
        <ele>561.8</ele>
        <time>2021-05-29 19:22:58</time>
      </trkpt>
      <trkpt lat="42.93698" lon="-2.74957">
        <ele>562</ele>
        <time>2021-05-29 19:22:59</time>
      </trkpt>
      <trkpt lat="42.93695" lon="-2.74951">
        <ele>562.4</ele>
        <time>2021-05-29 19:23:00</time>
      </trkpt>
      <trkpt lat="42.93692" lon="-2.74944">
        <ele>562.6</ele>
        <time>2021-05-29 19:23:01</time>
      </trkpt>
      <trkpt lat="42.93689" lon="-2.74937">
        <ele>563.2</ele>
        <time>2021-05-29 19:23:02</time>
      </trkpt>
      <trkpt lat="42.93687" lon="-2.7493">
        <ele>563.4</ele>
        <time>2021-05-29 19:23:03</time>
      </trkpt>
      <trkpt lat="42.93684" lon="-2.74924">
        <ele>563.6</ele>
        <time>2021-05-29 19:23:04</time>
      </trkpt>
      <trkpt lat="42.93681" lon="-2.74917">
        <ele>564</ele>
        <time>2021-05-29 19:23:05</time>
      </trkpt>
      <trkpt lat="42.93678" lon="-2.74912">
        <ele>564.4</ele>
        <time>2021-05-29 19:23:06</time>
      </trkpt>
      <trkpt lat="42.93677" lon="-2.74907">
        <ele>565</ele>
        <time>2021-05-29 19:23:07</time>
      </trkpt>
      <trkpt lat="42.93675" lon="-2.74902">
        <ele>565.4</ele>
        <time>2021-05-29 19:23:08</time>
      </trkpt>
      <trkpt lat="42.93673" lon="-2.74899">
        <ele>566</ele>
        <time>2021-05-29 19:23:09</time>
      </trkpt>
      <trkpt lat="42.93672" lon="-2.74896">
        <ele>566.2</ele>
        <time>2021-05-29 19:23:10</time>
      </trkpt>
      <trkpt lat="42.93671" lon="-2.74895">
        <ele>566.4</ele>
        <time>2021-05-29 19:23:11</time>
      </trkpt>
      <trkpt lat="42.9367" lon="-2.74893">
        <ele>566.4</ele>
        <time>2021-05-29 19:23:12</time>
      </trkpt>
      <trkpt lat="42.93669" lon="-2.74891">
        <ele>566.4</ele>
        <time>2021-05-29 19:23:13</time>
      </trkpt>
      <trkpt lat="42.93668" lon="-2.74889">
        <ele>566.4</ele>
        <time>2021-05-29 19:23:14</time>
      </trkpt>
      <trkpt lat="42.93667" lon="-2.74886">
        <ele>566.4</ele>
        <time>2021-05-29 19:23:15</time>
      </trkpt>
      <trkpt lat="42.93666" lon="-2.74884">
        <ele>566.4</ele>
        <time>2021-05-29 19:23:16</time>
      </trkpt>
      <trkpt lat="42.93666" lon="-2.74881">
        <ele>566.4</ele>
        <time>2021-05-29 19:23:17</time>
      </trkpt>
      <trkpt lat="42.93665" lon="-2.7488">
        <ele>566.4</ele>
        <time>2021-05-29 19:23:18</time>
      </trkpt>
      <trkpt lat="42.93664" lon="-2.74879">
        <ele>566.4</ele>
        <time>2021-05-29 19:23:19</time>
      </trkpt>
      <trkpt lat="42.93664" lon="-2.74878">
        <ele>566.4</ele>
        <time>2021-05-29 19:23:20</time>
      </trkpt>
      <trkpt lat="42.93664" lon="-2.74878">
        <ele>566.2</ele>
        <time>2021-05-29 19:23:21</time>
      </trkpt>
      <trkpt lat="42.93663" lon="-2.74876">
        <ele>566</ele>
        <time>2021-05-29 19:25:49</time>
      </trkpt>
      <trkpt lat="42.93662" lon="-2.74874">
        <ele>566</ele>
        <time>2021-05-29 19:25:50</time>
      </trkpt>
      <trkpt lat="42.93661" lon="-2.74871">
        <ele>565.8</ele>
        <time>2021-05-29 19:25:51</time>
      </trkpt>
      <trkpt lat="42.93659" lon="-2.74868">
        <ele>565.8</ele>
        <time>2021-05-29 19:25:52</time>
      </trkpt>
      <trkpt lat="42.93656" lon="-2.74864">
        <ele>565.8</ele>
        <time>2021-05-29 19:25:53</time>
      </trkpt>
      <trkpt lat="42.93653" lon="-2.7486">
        <ele>565.8</ele>
        <time>2021-05-29 19:25:54</time>
      </trkpt>
      <trkpt lat="42.93649" lon="-2.74855">
        <ele>565.8</ele>
        <time>2021-05-29 19:25:55</time>
      </trkpt>
      <trkpt lat="42.93646" lon="-2.74851">
        <ele>565.8</ele>
        <time>2021-05-29 19:25:56</time>
      </trkpt>
      <trkpt lat="42.93642" lon="-2.74846">
        <ele>565.8</ele>
        <time>2021-05-29 19:25:57</time>
      </trkpt>
      <trkpt lat="42.93638" lon="-2.74841">
        <ele>565.8</ele>
        <time>2021-05-29 19:25:58</time>
      </trkpt>
      <trkpt lat="42.93634" lon="-2.74836">
        <ele>565.6</ele>
        <time>2021-05-29 19:25:59</time>
      </trkpt>
      <trkpt lat="42.9363" lon="-2.74831">
        <ele>565.6</ele>
        <time>2021-05-29 19:26:00</time>
      </trkpt>
      <trkpt lat="42.93625" lon="-2.74825">
        <ele>565.6</ele>
        <time>2021-05-29 19:26:01</time>
      </trkpt>
      <trkpt lat="42.93621" lon="-2.74819">
        <ele>565.6</ele>
        <time>2021-05-29 19:26:02</time>
      </trkpt>
      <trkpt lat="42.93615" lon="-2.74814">
        <ele>565.4</ele>
        <time>2021-05-29 19:26:03</time>
      </trkpt>
      <trkpt lat="42.9361" lon="-2.74808">
        <ele>565.4</ele>
        <time>2021-05-29 19:26:04</time>
      </trkpt>
      <trkpt lat="42.93604" lon="-2.74801">
        <ele>565.4</ele>
        <time>2021-05-29 19:26:05</time>
      </trkpt>
      <trkpt lat="42.93598" lon="-2.74795">
        <ele>565.2</ele>
        <time>2021-05-29 19:26:06</time>
      </trkpt>
      <trkpt lat="42.93592" lon="-2.74788">
        <ele>565.2</ele>
        <time>2021-05-29 19:26:07</time>
      </trkpt>
      <trkpt lat="42.93585" lon="-2.74781">
        <ele>564.8</ele>
        <time>2021-05-29 19:26:08</time>
      </trkpt>
      <trkpt lat="42.93579" lon="-2.74773">
        <ele>564.8</ele>
        <time>2021-05-29 19:26:09</time>
      </trkpt>
      <trkpt lat="42.93572" lon="-2.74766">
        <ele>564.6</ele>
        <time>2021-05-29 19:26:10</time>
      </trkpt>
      <trkpt lat="42.93565" lon="-2.74758">
        <ele>564</ele>
        <time>2021-05-29 19:26:11</time>
      </trkpt>
      <trkpt lat="42.93557" lon="-2.7475">
        <ele>563.4</ele>
        <time>2021-05-29 19:26:12</time>
      </trkpt>
      <trkpt lat="42.93549" lon="-2.74742">
        <ele>563.2</ele>
        <time>2021-05-29 19:26:13</time>
      </trkpt>
      <trkpt lat="42.93541" lon="-2.74733">
        <ele>563</ele>
        <time>2021-05-29 19:26:14</time>
      </trkpt>
      <trkpt lat="42.93533" lon="-2.74724">
        <ele>562.6</ele>
        <time>2021-05-29 19:26:15</time>
      </trkpt>
      <trkpt lat="42.93525" lon="-2.74715">
        <ele>562.2</ele>
        <time>2021-05-29 19:26:16</time>
      </trkpt>
      <trkpt lat="42.93516" lon="-2.74705">
        <ele>561.6</ele>
        <time>2021-05-29 19:26:17</time>
      </trkpt>
      <trkpt lat="42.93507" lon="-2.74695">
        <ele>561</ele>
        <time>2021-05-29 19:26:18</time>
      </trkpt>
      <trkpt lat="42.93497" lon="-2.74685">
        <ele>560.6</ele>
        <time>2021-05-29 19:26:19</time>
      </trkpt>
      <trkpt lat="42.93487" lon="-2.74675">
        <ele>560</ele>
        <time>2021-05-29 19:26:20</time>
      </trkpt>
      <trkpt lat="42.93478" lon="-2.74664">
        <ele>559.4</ele>
        <time>2021-05-29 19:26:21</time>
      </trkpt>
      <trkpt lat="42.93468" lon="-2.74653">
        <ele>559.2</ele>
        <time>2021-05-29 19:26:22</time>
      </trkpt>
      <trkpt lat="42.93457" lon="-2.74641">
        <ele>558.6</ele>
        <time>2021-05-29 19:26:23</time>
      </trkpt>
      <trkpt lat="42.93447" lon="-2.7463">
        <ele>558</ele>
        <time>2021-05-29 19:26:24</time>
      </trkpt>
      <trkpt lat="42.93436" lon="-2.74619">
        <ele>557.4</ele>
        <time>2021-05-29 19:26:25</time>
      </trkpt>
      <trkpt lat="42.93426" lon="-2.74607">
        <ele>556.6</ele>
        <time>2021-05-29 19:26:26</time>
      </trkpt>
      <trkpt lat="42.93415" lon="-2.74595">
        <ele>556.2</ele>
        <time>2021-05-29 19:26:27</time>
      </trkpt>
      <trkpt lat="42.93404" lon="-2.74584">
        <ele>555.8</ele>
        <time>2021-05-29 19:26:28</time>
      </trkpt>
      <trkpt lat="42.93393" lon="-2.74572">
        <ele>555</ele>
        <time>2021-05-29 19:26:29</time>
      </trkpt>
      <trkpt lat="42.93383" lon="-2.7456">
        <ele>554.4</ele>
        <time>2021-05-29 19:26:30</time>
      </trkpt>
      <trkpt lat="42.93372" lon="-2.74549">
        <ele>553.8</ele>
        <time>2021-05-29 19:26:31</time>
      </trkpt>
      <trkpt lat="42.93362" lon="-2.74538">
        <ele>553.2</ele>
        <time>2021-05-29 19:26:32</time>
      </trkpt>
      <trkpt lat="42.93352" lon="-2.74527">
        <ele>552.8</ele>
        <time>2021-05-29 19:26:33</time>
      </trkpt>
      <trkpt lat="42.93341" lon="-2.74516">
        <ele>552.4</ele>
        <time>2021-05-29 19:26:34</time>
      </trkpt>
      <trkpt lat="42.93331" lon="-2.74504">
        <ele>551.8</ele>
        <time>2021-05-29 19:26:35</time>
      </trkpt>
      <trkpt lat="42.9332" lon="-2.74493">
        <ele>551.2</ele>
        <time>2021-05-29 19:26:36</time>
      </trkpt>
      <trkpt lat="42.9331" lon="-2.74481">
        <ele>551</ele>
        <time>2021-05-29 19:26:37</time>
      </trkpt>
      <trkpt lat="42.93299" lon="-2.7447">
        <ele>550.8</ele>
        <time>2021-05-29 19:26:38</time>
      </trkpt>
      <trkpt lat="42.93289" lon="-2.74459">
        <ele>550.4</ele>
        <time>2021-05-29 19:26:39</time>
      </trkpt>
      <trkpt lat="42.93279" lon="-2.74447">
        <ele>550.2</ele>
        <time>2021-05-29 19:26:40</time>
      </trkpt>
      <trkpt lat="42.93269" lon="-2.74436">
        <ele>549.6</ele>
        <time>2021-05-29 19:26:41</time>
      </trkpt>
      <trkpt lat="42.93259" lon="-2.74425">
        <ele>549.2</ele>
        <time>2021-05-29 19:26:42</time>
      </trkpt>
      <trkpt lat="42.93249" lon="-2.74414">
        <ele>548.8</ele>
        <time>2021-05-29 19:26:43</time>
      </trkpt>
      <trkpt lat="42.93239" lon="-2.74402">
        <ele>548.8</ele>
        <time>2021-05-29 19:26:44</time>
      </trkpt>
      <trkpt lat="42.93229" lon="-2.74391">
        <ele>548.6</ele>
        <time>2021-05-29 19:26:45</time>
      </trkpt>
      <trkpt lat="42.9322" lon="-2.74379">
        <ele>548.6</ele>
        <time>2021-05-29 19:26:46</time>
      </trkpt>
      <trkpt lat="42.9321" lon="-2.74367">
        <ele>548.6</ele>
        <time>2021-05-29 19:26:47</time>
      </trkpt>
      <trkpt lat="42.93201" lon="-2.74355">
        <ele>548.6</ele>
        <time>2021-05-29 19:26:48</time>
      </trkpt>
      <trkpt lat="42.93192" lon="-2.74342">
        <ele>548.6</ele>
        <time>2021-05-29 19:26:49</time>
      </trkpt>
      <trkpt lat="42.93183" lon="-2.7433">
        <ele>548.6</ele>
        <time>2021-05-29 19:26:50</time>
      </trkpt>
      <trkpt lat="42.93174" lon="-2.74317">
        <ele>548.6</ele>
        <time>2021-05-29 19:26:51</time>
      </trkpt>
      <trkpt lat="42.93165" lon="-2.74305">
        <ele>548.8</ele>
        <time>2021-05-29 19:26:52</time>
      </trkpt>
      <trkpt lat="42.93157" lon="-2.74292">
        <ele>549</ele>
        <time>2021-05-29 19:26:53</time>
      </trkpt>
      <trkpt lat="42.93149" lon="-2.7428">
        <ele>549</ele>
        <time>2021-05-29 19:26:54</time>
      </trkpt>
      <trkpt lat="42.93141" lon="-2.74267">
        <ele>549.2</ele>
        <time>2021-05-29 19:26:55</time>
      </trkpt>
      <trkpt lat="42.93134" lon="-2.74255">
        <ele>549.4</ele>
        <time>2021-05-29 19:26:56</time>
      </trkpt>
      <trkpt lat="42.93127" lon="-2.74243">
        <ele>549.6</ele>
        <time>2021-05-29 19:26:57</time>
      </trkpt>
      <trkpt lat="42.9312" lon="-2.74231">
        <ele>549.8</ele>
        <time>2021-05-29 19:26:58</time>
      </trkpt>
      <trkpt lat="42.93113" lon="-2.74218">
        <ele>550.2</ele>
        <time>2021-05-29 19:26:59</time>
      </trkpt>
      <trkpt lat="42.93106" lon="-2.74207">
        <ele>550.6</ele>
        <time>2021-05-29 19:27:00</time>
      </trkpt>
      <trkpt lat="42.931" lon="-2.74195">
        <ele>550.8</ele>
        <time>2021-05-29 19:27:01</time>
      </trkpt>
      <trkpt lat="42.93094" lon="-2.74183">
        <ele>551.2</ele>
        <time>2021-05-29 19:27:02</time>
      </trkpt>
      <trkpt lat="42.93088" lon="-2.74171">
        <ele>551.4</ele>
        <time>2021-05-29 19:27:03</time>
      </trkpt>
      <trkpt lat="42.93082" lon="-2.7416">
        <ele>551.6</ele>
        <time>2021-05-29 19:27:04</time>
      </trkpt>
      <trkpt lat="42.93077" lon="-2.74149">
        <ele>552</ele>
        <time>2021-05-29 19:27:05</time>
      </trkpt>
      <trkpt lat="42.93072" lon="-2.74137">
        <ele>552.4</ele>
        <time>2021-05-29 19:27:06</time>
      </trkpt>
      <trkpt lat="42.93067" lon="-2.74126">
        <ele>552.4</ele>
        <time>2021-05-29 19:27:07</time>
      </trkpt>
      <trkpt lat="42.93062" lon="-2.74116">
        <ele>552.6</ele>
        <time>2021-05-29 19:27:08</time>
      </trkpt>
      <trkpt lat="42.93058" lon="-2.74105">
        <ele>553</ele>
        <time>2021-05-29 19:27:09</time>
      </trkpt>
      <trkpt lat="42.93053" lon="-2.74094">
        <ele>553.2</ele>
        <time>2021-05-29 19:27:10</time>
      </trkpt>
      <trkpt lat="42.93049" lon="-2.74084">
        <ele>553.6</ele>
        <time>2021-05-29 19:27:11</time>
      </trkpt>
      <trkpt lat="42.93045" lon="-2.74074">
        <ele>554</ele>
        <time>2021-05-29 19:27:12</time>
      </trkpt>
      <trkpt lat="42.93041" lon="-2.74064">
        <ele>554.2</ele>
        <time>2021-05-29 19:27:13</time>
      </trkpt>
      <trkpt lat="42.93037" lon="-2.74054">
        <ele>554.6</ele>
        <time>2021-05-29 19:27:14</time>
      </trkpt>
      <trkpt lat="42.93034" lon="-2.74045">
        <ele>555</ele>
        <time>2021-05-29 19:27:15</time>
      </trkpt>
      <trkpt lat="42.9303" lon="-2.74035">
        <ele>555.4</ele>
        <time>2021-05-29 19:27:16</time>
      </trkpt>
      <trkpt lat="42.93027" lon="-2.74026">
        <ele>555.8</ele>
        <time>2021-05-29 19:27:17</time>
      </trkpt>
      <trkpt lat="42.93023" lon="-2.74017">
        <ele>556.2</ele>
        <time>2021-05-29 19:27:18</time>
      </trkpt>
      <trkpt lat="42.9302" lon="-2.74008">
        <ele>556.4</ele>
        <time>2021-05-29 19:27:19</time>
      </trkpt>
      <trkpt lat="42.93017" lon="-2.73999">
        <ele>556.8</ele>
        <time>2021-05-29 19:27:20</time>
      </trkpt>
      <trkpt lat="42.93013" lon="-2.7399">
        <ele>557.6</ele>
        <time>2021-05-29 19:27:21</time>
      </trkpt>
      <trkpt lat="42.9301" lon="-2.73981">
        <ele>557.8</ele>
        <time>2021-05-29 19:27:22</time>
      </trkpt>
      <trkpt lat="42.93007" lon="-2.73972">
        <ele>558.2</ele>
        <time>2021-05-29 19:27:23</time>
      </trkpt>
      <trkpt lat="42.93004" lon="-2.73963">
        <ele>558.6</ele>
        <time>2021-05-29 19:27:24</time>
      </trkpt>
      <trkpt lat="42.93001" lon="-2.73955">
        <ele>559</ele>
        <time>2021-05-29 19:27:25</time>
      </trkpt>
      <trkpt lat="42.92998" lon="-2.73946">
        <ele>559.4</ele>
        <time>2021-05-29 19:27:26</time>
      </trkpt>
      <trkpt lat="42.92995" lon="-2.73938">
        <ele>560</ele>
        <time>2021-05-29 19:27:27</time>
      </trkpt>
      <trkpt lat="42.92992" lon="-2.73929">
        <ele>560.4</ele>
        <time>2021-05-29 19:27:28</time>
      </trkpt>
      <trkpt lat="42.92989" lon="-2.7392">
        <ele>560.6</ele>
        <time>2021-05-29 19:27:29</time>
      </trkpt>
      <trkpt lat="42.92986" lon="-2.73912">
        <ele>561</ele>
        <time>2021-05-29 19:27:30</time>
      </trkpt>
      <trkpt lat="42.92983" lon="-2.73903">
        <ele>561.2</ele>
        <time>2021-05-29 19:27:31</time>
      </trkpt>
      <trkpt lat="42.9298" lon="-2.73894">
        <ele>561.8</ele>
        <time>2021-05-29 19:27:32</time>
      </trkpt>
      <trkpt lat="42.92976" lon="-2.73885">
        <ele>562</ele>
        <time>2021-05-29 19:27:33</time>
      </trkpt>
      <trkpt lat="42.92973" lon="-2.73876">
        <ele>562.4</ele>
        <time>2021-05-29 19:27:34</time>
      </trkpt>
      <trkpt lat="42.9297" lon="-2.73867">
        <ele>562.6</ele>
        <time>2021-05-29 19:27:35</time>
      </trkpt>
      <trkpt lat="42.92967" lon="-2.73858">
        <ele>562.8</ele>
        <time>2021-05-29 19:27:36</time>
      </trkpt>
      <trkpt lat="42.92964" lon="-2.73849">
        <ele>563</ele>
        <time>2021-05-29 19:27:37</time>
      </trkpt>
      <trkpt lat="42.9296" lon="-2.7384">
        <ele>563.2</ele>
        <time>2021-05-29 19:27:38</time>
      </trkpt>
      <trkpt lat="42.92957" lon="-2.7383">
        <ele>563.4</ele>
        <time>2021-05-29 19:27:39</time>
      </trkpt>
      <trkpt lat="42.92954" lon="-2.73821">
        <ele>563.6</ele>
        <time>2021-05-29 19:27:40</time>
      </trkpt>
      <trkpt lat="42.9295" lon="-2.73812">
        <ele>563.8</ele>
        <time>2021-05-29 19:27:41</time>
      </trkpt>
      <trkpt lat="42.92946" lon="-2.73803">
        <ele>564</ele>
        <time>2021-05-29 19:27:42</time>
      </trkpt>
      <trkpt lat="42.92943" lon="-2.73793">
        <ele>564.2</ele>
        <time>2021-05-29 19:27:43</time>
      </trkpt>
      <trkpt lat="42.92939" lon="-2.73784">
        <ele>564.6</ele>
        <time>2021-05-29 19:27:44</time>
      </trkpt>
      <trkpt lat="42.92935" lon="-2.73774">
        <ele>564.8</ele>
        <time>2021-05-29 19:27:45</time>
      </trkpt>
      <trkpt lat="42.92931" lon="-2.73764">
        <ele>565</ele>
        <time>2021-05-29 19:27:46</time>
      </trkpt>
      <trkpt lat="42.92926" lon="-2.73754">
        <ele>565.2</ele>
        <time>2021-05-29 19:27:47</time>
      </trkpt>
      <trkpt lat="42.92922" lon="-2.73745">
        <ele>565.4</ele>
        <time>2021-05-29 19:27:48</time>
      </trkpt>
      <trkpt lat="42.92918" lon="-2.73735">
        <ele>565.6</ele>
        <time>2021-05-29 19:27:49</time>
      </trkpt>
      <trkpt lat="42.92913" lon="-2.73725">
        <ele>565.8</ele>
        <time>2021-05-29 19:27:50</time>
      </trkpt>
      <trkpt lat="42.92909" lon="-2.73715">
        <ele>565.8</ele>
        <time>2021-05-29 19:27:51</time>
      </trkpt>
      <trkpt lat="42.92904" lon="-2.73706">
        <ele>566</ele>
        <time>2021-05-29 19:27:52</time>
      </trkpt>
      <trkpt lat="42.929" lon="-2.73697">
        <ele>566</ele>
        <time>2021-05-29 19:27:53</time>
      </trkpt>
      <trkpt lat="42.92895" lon="-2.73688">
        <ele>566.2</ele>
        <time>2021-05-29 19:27:54</time>
      </trkpt>
      <trkpt lat="42.9289" lon="-2.73679">
        <ele>566.4</ele>
        <time>2021-05-29 19:27:55</time>
      </trkpt>
      <trkpt lat="42.92885" lon="-2.7367">
        <ele>566.6</ele>
        <time>2021-05-29 19:27:56</time>
      </trkpt>
      <trkpt lat="42.9288" lon="-2.73661">
        <ele>566.6</ele>
        <time>2021-05-29 19:27:57</time>
      </trkpt>
      <trkpt lat="42.92875" lon="-2.73651">
        <ele>566.8</ele>
        <time>2021-05-29 19:27:58</time>
      </trkpt>
      <trkpt lat="42.9287" lon="-2.73642">
        <ele>566.8</ele>
        <time>2021-05-29 19:27:59</time>
      </trkpt>
      <trkpt lat="42.92864" lon="-2.73633">
        <ele>567</ele>
        <time>2021-05-29 19:28:00</time>
      </trkpt>
      <trkpt lat="42.92859" lon="-2.73623">
        <ele>567</ele>
        <time>2021-05-29 19:28:01</time>
      </trkpt>
      <trkpt lat="42.92853" lon="-2.73613">
        <ele>567</ele>
        <time>2021-05-29 19:28:02</time>
      </trkpt>
      <trkpt lat="42.92847" lon="-2.73604">
        <ele>567.2</ele>
        <time>2021-05-29 19:28:03</time>
      </trkpt>
      <trkpt lat="42.92841" lon="-2.73594">
        <ele>567.2</ele>
        <time>2021-05-29 19:28:04</time>
      </trkpt>
      <trkpt lat="42.92835" lon="-2.73584">
        <ele>567.2</ele>
        <time>2021-05-29 19:28:05</time>
      </trkpt>
      <trkpt lat="42.92828" lon="-2.73575">
        <ele>567.2</ele>
        <time>2021-05-29 19:28:06</time>
      </trkpt>
      <trkpt lat="42.92822" lon="-2.73565">
        <ele>567.2</ele>
        <time>2021-05-29 19:28:07</time>
      </trkpt>
      <trkpt lat="42.92816" lon="-2.73556">
        <ele>567.2</ele>
        <time>2021-05-29 19:28:08</time>
      </trkpt>
      <trkpt lat="42.92809" lon="-2.73547">
        <ele>567.2</ele>
        <time>2021-05-29 19:28:09</time>
      </trkpt>
      <trkpt lat="42.92802" lon="-2.73538">
        <ele>567.2</ele>
        <time>2021-05-29 19:28:10</time>
      </trkpt>
      <trkpt lat="42.92796" lon="-2.73529">
        <ele>567</ele>
        <time>2021-05-29 19:28:11</time>
      </trkpt>
      <trkpt lat="42.92789" lon="-2.7352">
        <ele>567</ele>
        <time>2021-05-29 19:28:12</time>
      </trkpt>
      <trkpt lat="42.92782" lon="-2.73511">
        <ele>567</ele>
        <time>2021-05-29 19:28:13</time>
      </trkpt>
      <trkpt lat="42.92775" lon="-2.73502">
        <ele>566.8</ele>
        <time>2021-05-29 19:28:14</time>
      </trkpt>
      <trkpt lat="42.92767" lon="-2.73493">
        <ele>566.8</ele>
        <time>2021-05-29 19:28:15</time>
      </trkpt>
      <trkpt lat="42.9276" lon="-2.73484">
        <ele>566.8</ele>
        <time>2021-05-29 19:28:16</time>
      </trkpt>
      <trkpt lat="42.92752" lon="-2.73474">
        <ele>566.6</ele>
        <time>2021-05-29 19:28:17</time>
      </trkpt>
      <trkpt lat="42.92745" lon="-2.73465">
        <ele>566.6</ele>
        <time>2021-05-29 19:28:18</time>
      </trkpt>
      <trkpt lat="42.92737" lon="-2.73455">
        <ele>566.4</ele>
        <time>2021-05-29 19:28:19</time>
      </trkpt>
      <trkpt lat="42.92729" lon="-2.73446">
        <ele>566.4</ele>
        <time>2021-05-29 19:28:20</time>
      </trkpt>
      <trkpt lat="42.92722" lon="-2.73436">
        <ele>566.2</ele>
        <time>2021-05-29 19:28:21</time>
      </trkpt>
      <trkpt lat="42.92714" lon="-2.73426">
        <ele>566</ele>
        <time>2021-05-29 19:28:22</time>
      </trkpt>
      <trkpt lat="42.92706" lon="-2.73417">
        <ele>565.8</ele>
        <time>2021-05-29 19:28:23</time>
      </trkpt>
      <trkpt lat="42.92698" lon="-2.73407">
        <ele>565.6</ele>
        <time>2021-05-29 19:28:24</time>
      </trkpt>
      <trkpt lat="42.9269" lon="-2.73396">
        <ele>565.6</ele>
        <time>2021-05-29 19:28:25</time>
      </trkpt>
      <trkpt lat="42.92682" lon="-2.73386">
        <ele>565.4</ele>
        <time>2021-05-29 19:28:26</time>
      </trkpt>
      <trkpt lat="42.92673" lon="-2.73376">
        <ele>565.2</ele>
        <time>2021-05-29 19:28:27</time>
      </trkpt>
      <trkpt lat="42.92665" lon="-2.73366">
        <ele>565</ele>
        <time>2021-05-29 19:28:28</time>
      </trkpt>
      <trkpt lat="42.92656" lon="-2.73355">
        <ele>564.8</ele>
        <time>2021-05-29 19:28:29</time>
      </trkpt>
      <trkpt lat="42.92648" lon="-2.73344">
        <ele>564.2</ele>
        <time>2021-05-29 19:28:30</time>
      </trkpt>
      <trkpt lat="42.92639" lon="-2.73333">
        <ele>563.8</ele>
        <time>2021-05-29 19:28:31</time>
      </trkpt>
      <trkpt lat="42.9263" lon="-2.73322">
        <ele>563.6</ele>
        <time>2021-05-29 19:28:32</time>
      </trkpt>
      <trkpt lat="42.9262" lon="-2.7331">
        <ele>563</ele>
        <time>2021-05-29 19:28:33</time>
      </trkpt>
      <trkpt lat="42.92611" lon="-2.73298">
        <ele>562.6</ele>
        <time>2021-05-29 19:28:34</time>
      </trkpt>
      <trkpt lat="42.92601" lon="-2.73286">
        <ele>562.2</ele>
        <time>2021-05-29 19:28:35</time>
      </trkpt>
      <trkpt lat="42.92591" lon="-2.73273">
        <ele>561.8</ele>
        <time>2021-05-29 19:28:36</time>
      </trkpt>
      <trkpt lat="42.9258" lon="-2.7326">
        <ele>561.4</ele>
        <time>2021-05-29 19:28:37</time>
      </trkpt>
      <trkpt lat="42.9257" lon="-2.73247">
        <ele>561</ele>
        <time>2021-05-29 19:28:38</time>
      </trkpt>
      <trkpt lat="42.92559" lon="-2.73234">
        <ele>560.2</ele>
        <time>2021-05-29 19:28:39</time>
      </trkpt>
      <trkpt lat="42.92548" lon="-2.73221">
        <ele>559.6</ele>
        <time>2021-05-29 19:28:40</time>
      </trkpt>
      <trkpt lat="42.92538" lon="-2.73208">
        <ele>559</ele>
        <time>2021-05-29 19:28:41</time>
      </trkpt>
      <trkpt lat="42.92528" lon="-2.73196">
        <ele>558.2</ele>
        <time>2021-05-29 19:28:42</time>
      </trkpt>
      <trkpt lat="42.92518" lon="-2.73183">
        <ele>557.6</ele>
        <time>2021-05-29 19:28:43</time>
      </trkpt>
      <trkpt lat="42.92508" lon="-2.73172">
        <ele>557</ele>
        <time>2021-05-29 19:28:44</time>
      </trkpt>
      <trkpt lat="42.92497" lon="-2.7316">
        <ele>556</ele>
        <time>2021-05-29 19:28:45</time>
      </trkpt>
      <trkpt lat="42.92487" lon="-2.73148">
        <ele>555</ele>
        <time>2021-05-29 19:28:46</time>
      </trkpt>
      <trkpt lat="42.92476" lon="-2.73137">
        <ele>553.8</ele>
        <time>2021-05-29 19:28:47</time>
      </trkpt>
      <trkpt lat="42.92465" lon="-2.73126">
        <ele>553</ele>
        <time>2021-05-29 19:28:48</time>
      </trkpt>
      <trkpt lat="42.92454" lon="-2.73115">
        <ele>552.4</ele>
        <time>2021-05-29 19:28:49</time>
      </trkpt>
      <trkpt lat="42.92443" lon="-2.73104">
        <ele>551.2</ele>
        <time>2021-05-29 19:28:50</time>
      </trkpt>
      <trkpt lat="42.92432" lon="-2.73093">
        <ele>550.2</ele>
        <time>2021-05-29 19:28:51</time>
      </trkpt>
      <trkpt lat="42.92422" lon="-2.73082">
        <ele>549.2</ele>
        <time>2021-05-29 19:28:52</time>
      </trkpt>
      <trkpt lat="42.92411" lon="-2.73071">
        <ele>548.6</ele>
        <time>2021-05-29 19:28:53</time>
      </trkpt>
      <trkpt lat="42.92401" lon="-2.73062">
        <ele>547.8</ele>
        <time>2021-05-29 19:28:54</time>
      </trkpt>
      <trkpt lat="42.92391" lon="-2.73052">
        <ele>546.8</ele>
        <time>2021-05-29 19:28:55</time>
      </trkpt>
      <trkpt lat="42.92381" lon="-2.73043">
        <ele>546</ele>
        <time>2021-05-29 19:28:56</time>
      </trkpt>
      <trkpt lat="42.92371" lon="-2.73035">
        <ele>545.8</ele>
        <time>2021-05-29 19:28:57</time>
      </trkpt>
      <trkpt lat="42.92361" lon="-2.73029">
        <ele>545</ele>
        <time>2021-05-29 19:28:58</time>
      </trkpt>
      <trkpt lat="42.9235" lon="-2.73025">
        <ele>544.2</ele>
        <time>2021-05-29 19:28:59</time>
      </trkpt>
      <trkpt lat="42.92339" lon="-2.73025">
        <ele>543.4</ele>
        <time>2021-05-29 19:29:00</time>
      </trkpt>
      <trkpt lat="42.92329" lon="-2.73029">
        <ele>542.8</ele>
        <time>2021-05-29 19:29:01</time>
      </trkpt>
      <trkpt lat="42.92321" lon="-2.73037">
        <ele>542.2</ele>
        <time>2021-05-29 19:29:02</time>
      </trkpt>
      <trkpt lat="42.92315" lon="-2.73047">
        <ele>542</ele>
        <time>2021-05-29 19:29:03</time>
      </trkpt>
      <trkpt lat="42.92312" lon="-2.73059">
        <ele>540.8</ele>
        <time>2021-05-29 19:29:04</time>
      </trkpt>
      <trkpt lat="42.92311" lon="-2.73071">
        <ele>540.2</ele>
        <time>2021-05-29 19:29:05</time>
      </trkpt>
      <trkpt lat="42.92312" lon="-2.73082">
        <ele>540.2</ele>
        <time>2021-05-29 19:29:06</time>
      </trkpt>
      <trkpt lat="42.92312" lon="-2.73091">
        <ele>539.4</ele>
        <time>2021-05-29 19:29:07</time>
      </trkpt>
      <trkpt lat="42.9231" lon="-2.73099">
        <ele>539</ele>
        <time>2021-05-29 19:29:08</time>
      </trkpt>
      <trkpt lat="42.92307" lon="-2.73106">
        <ele>538.6</ele>
        <time>2021-05-29 19:29:09</time>
      </trkpt>
      <trkpt lat="42.92302" lon="-2.7311">
        <ele>538.2</ele>
        <time>2021-05-29 19:29:10</time>
      </trkpt>
      <trkpt lat="42.92296" lon="-2.73114">
        <ele>537.8</ele>
        <time>2021-05-29 19:29:11</time>
      </trkpt>
      <trkpt lat="42.92289" lon="-2.73115">
        <ele>537.6</ele>
        <time>2021-05-29 19:29:12</time>
      </trkpt>
      <trkpt lat="42.92281" lon="-2.73115">
        <ele>537</ele>
        <time>2021-05-29 19:29:13</time>
      </trkpt>
      <trkpt lat="42.92273" lon="-2.73115">
        <ele>536.8</ele>
        <time>2021-05-29 19:29:14</time>
      </trkpt>
      <trkpt lat="42.92265" lon="-2.73115">
        <ele>536.6</ele>
        <time>2021-05-29 19:29:15</time>
      </trkpt>
      <trkpt lat="42.92257" lon="-2.73114">
        <ele>536.4</ele>
        <time>2021-05-29 19:29:16</time>
      </trkpt>
      <trkpt lat="42.92249" lon="-2.73111">
        <ele>536.4</ele>
        <time>2021-05-29 19:29:17</time>
      </trkpt>
      <trkpt lat="42.92242" lon="-2.73106">
        <ele>536.4</ele>
        <time>2021-05-29 19:29:18</time>
      </trkpt>
      <trkpt lat="42.92235" lon="-2.73099">
        <ele>536.4</ele>
        <time>2021-05-29 19:29:19</time>
      </trkpt>
      <trkpt lat="42.92228" lon="-2.73091">
        <ele>536.4</ele>
        <time>2021-05-29 19:29:20</time>
      </trkpt>
      <trkpt lat="42.92222" lon="-2.73082">
        <ele>536.4</ele>
        <time>2021-05-29 19:29:21</time>
      </trkpt>
      <trkpt lat="42.92217" lon="-2.73072">
        <ele>536.4</ele>
        <time>2021-05-29 19:29:22</time>
      </trkpt>
      <trkpt lat="42.92212" lon="-2.73061">
        <ele>536.2</ele>
        <time>2021-05-29 19:29:23</time>
      </trkpt>
      <trkpt lat="42.92208" lon="-2.73049">
        <ele>536.2</ele>
        <time>2021-05-29 19:29:24</time>
      </trkpt>
      <trkpt lat="42.92205" lon="-2.73036">
        <ele>536.2</ele>
        <time>2021-05-29 19:29:25</time>
      </trkpt>
      <trkpt lat="42.92203" lon="-2.73023">
        <ele>536.2</ele>
        <time>2021-05-29 19:29:26</time>
      </trkpt>
      <trkpt lat="42.92202" lon="-2.73009">
        <ele>536.2</ele>
        <time>2021-05-29 19:29:27</time>
      </trkpt>
      <trkpt lat="42.92201" lon="-2.72995">
        <ele>536</ele>
        <time>2021-05-29 19:29:28</time>
      </trkpt>
      <trkpt lat="42.922" lon="-2.7298">
        <ele>536</ele>
        <time>2021-05-29 19:29:29</time>
      </trkpt>
      <trkpt lat="42.92199" lon="-2.72966">
        <ele>536</ele>
        <time>2021-05-29 19:29:30</time>
      </trkpt>
      <trkpt lat="42.92195" lon="-2.72952">
        <ele>535.8</ele>
        <time>2021-05-29 19:29:31</time>
      </trkpt>
      <trkpt lat="42.9219" lon="-2.72938">
        <ele>535.6</ele>
        <time>2021-05-29 19:29:32</time>
      </trkpt>
      <trkpt lat="42.92183" lon="-2.72929">
        <ele>535.6</ele>
        <time>2021-05-29 19:29:33</time>
      </trkpt>
      <trkpt lat="42.92174" lon="-2.72922">
        <ele>535</ele>
        <time>2021-05-29 19:29:34</time>
      </trkpt>
      <trkpt lat="42.92163" lon="-2.72919">
        <ele>534.8</ele>
        <time>2021-05-29 19:29:35</time>
      </trkpt>
      <trkpt lat="42.92153" lon="-2.72922">
        <ele>534.6</ele>
        <time>2021-05-29 19:29:36</time>
      </trkpt>
      <trkpt lat="42.92143" lon="-2.72928">
        <ele>534.4</ele>
        <time>2021-05-29 19:29:37</time>
      </trkpt>
      <trkpt lat="42.92133" lon="-2.72934">
        <ele>534.2</ele>
        <time>2021-05-29 19:29:38</time>
      </trkpt>
      <trkpt lat="42.92122" lon="-2.72938">
        <ele>534</ele>
        <time>2021-05-29 19:29:39</time>
      </trkpt>
      <trkpt lat="42.92111" lon="-2.72939">
        <ele>533.4</ele>
        <time>2021-05-29 19:29:40</time>
      </trkpt>
      <trkpt lat="42.92099" lon="-2.72938">
        <ele>533.2</ele>
        <time>2021-05-29 19:29:41</time>
      </trkpt>
      <trkpt lat="42.92087" lon="-2.72936">
        <ele>533.2</ele>
        <time>2021-05-29 19:29:42</time>
      </trkpt>
      <trkpt lat="42.92075" lon="-2.72932">
        <ele>532.6</ele>
        <time>2021-05-29 19:29:43</time>
      </trkpt>
      <trkpt lat="42.92063" lon="-2.72928">
        <ele>532</ele>
        <time>2021-05-29 19:29:44</time>
      </trkpt>
      <trkpt lat="42.92052" lon="-2.72924">
        <ele>531.4</ele>
        <time>2021-05-29 19:29:45</time>
      </trkpt>
      <trkpt lat="42.9204" lon="-2.7292">
        <ele>530.8</ele>
        <time>2021-05-29 19:29:46</time>
      </trkpt>
      <trkpt lat="42.92029" lon="-2.72916">
        <ele>530</ele>
        <time>2021-05-29 19:29:47</time>
      </trkpt>
      <trkpt lat="42.92018" lon="-2.72913">
        <ele>529.2</ele>
        <time>2021-05-29 19:29:48</time>
      </trkpt>
      <trkpt lat="42.92007" lon="-2.72909">
        <ele>528.8</ele>
        <time>2021-05-29 19:29:49</time>
      </trkpt>
      <trkpt lat="42.91996" lon="-2.72906">
        <ele>528.4</ele>
        <time>2021-05-29 19:29:50</time>
      </trkpt>
      <trkpt lat="42.91985" lon="-2.72903">
        <ele>528.2</ele>
        <time>2021-05-29 19:29:51</time>
      </trkpt>
      <trkpt lat="42.91975" lon="-2.729">
        <ele>528.2</ele>
        <time>2021-05-29 19:29:52</time>
      </trkpt>
      <trkpt lat="42.91965" lon="-2.72898">
        <ele>528.2</ele>
        <time>2021-05-29 19:29:53</time>
      </trkpt>
      <trkpt lat="42.91955" lon="-2.72896">
        <ele>528</ele>
        <time>2021-05-29 19:29:54</time>
      </trkpt>
      <trkpt lat="42.91946" lon="-2.72896">
        <ele>528</ele>
        <time>2021-05-29 19:29:55</time>
      </trkpt>
      <trkpt lat="42.91937" lon="-2.72896">
        <ele>528</ele>
        <time>2021-05-29 19:29:56</time>
      </trkpt>
      <trkpt lat="42.91928" lon="-2.72897">
        <ele>528</ele>
        <time>2021-05-29 19:29:57</time>
      </trkpt>
      <trkpt lat="42.9192" lon="-2.72899">
        <ele>528</ele>
        <time>2021-05-29 19:29:58</time>
      </trkpt>
      <trkpt lat="42.91912" lon="-2.72901">
        <ele>528</ele>
        <time>2021-05-29 19:29:59</time>
      </trkpt>
      <trkpt lat="42.91905" lon="-2.72903">
        <ele>528</ele>
        <time>2021-05-29 19:30:00</time>
      </trkpt>
      <trkpt lat="42.91898" lon="-2.72905">
        <ele>528.2</ele>
        <time>2021-05-29 19:30:01</time>
      </trkpt>
      <trkpt lat="42.91891" lon="-2.72907">
        <ele>528.4</ele>
        <time>2021-05-29 19:30:02</time>
      </trkpt>
      <trkpt lat="42.91884" lon="-2.7291">
        <ele>528.6</ele>
        <time>2021-05-29 19:30:03</time>
      </trkpt>
      <trkpt lat="42.91877" lon="-2.72913">
        <ele>529</ele>
        <time>2021-05-29 19:30:04</time>
      </trkpt>
      <trkpt lat="42.9187" lon="-2.72915">
        <ele>529.4</ele>
        <time>2021-05-29 19:30:05</time>
      </trkpt>
      <trkpt lat="42.91864" lon="-2.72919">
        <ele>530.2</ele>
        <time>2021-05-29 19:30:06</time>
      </trkpt>
      <trkpt lat="42.91858" lon="-2.72922">
        <ele>530.8</ele>
        <time>2021-05-29 19:30:07</time>
      </trkpt>
      <trkpt lat="42.91852" lon="-2.72925">
        <ele>531.4</ele>
        <time>2021-05-29 19:30:08</time>
      </trkpt>
      <trkpt lat="42.91846" lon="-2.72928">
        <ele>532.2</ele>
        <time>2021-05-29 19:30:09</time>
      </trkpt>
      <trkpt lat="42.91842" lon="-2.72932">
        <ele>533</ele>
        <time>2021-05-29 19:30:10</time>
      </trkpt>
      <trkpt lat="42.91837" lon="-2.72937">
        <ele>533.6</ele>
        <time>2021-05-29 19:30:11</time>
      </trkpt>
      <trkpt lat="42.91833" lon="-2.72941">
        <ele>534.2</ele>
        <time>2021-05-29 19:30:12</time>
      </trkpt>
      <trkpt lat="42.91828" lon="-2.72945">
        <ele>534.8</ele>
        <time>2021-05-29 19:30:13</time>
      </trkpt>
      <trkpt lat="42.91824" lon="-2.72948">
        <ele>535.8</ele>
        <time>2021-05-29 19:30:14</time>
      </trkpt>
      <trkpt lat="42.9182" lon="-2.72951">
        <ele>536.2</ele>
        <time>2021-05-29 19:30:15</time>
      </trkpt>
      <trkpt lat="42.91815" lon="-2.72953">
        <ele>536.6</ele>
        <time>2021-05-29 19:30:16</time>
      </trkpt>
      <trkpt lat="42.91811" lon="-2.72955">
        <ele>537.2</ele>
        <time>2021-05-29 19:30:17</time>
      </trkpt>
      <trkpt lat="42.91806" lon="-2.72957">
        <ele>537.8</ele>
        <time>2021-05-29 19:30:18</time>
      </trkpt>
      <trkpt lat="42.91802" lon="-2.7296">
        <ele>538.4</ele>
        <time>2021-05-29 19:30:19</time>
      </trkpt>
      <trkpt lat="42.91797" lon="-2.72962">
        <ele>538.8</ele>
        <time>2021-05-29 19:30:20</time>
      </trkpt>
      <trkpt lat="42.91793" lon="-2.72964">
        <ele>539.2</ele>
        <time>2021-05-29 19:30:21</time>
      </trkpt>
      <trkpt lat="42.91789" lon="-2.72967">
        <ele>539.8</ele>
        <time>2021-05-29 19:30:22</time>
      </trkpt>
      <trkpt lat="42.91785" lon="-2.72969">
        <ele>540.2</ele>
        <time>2021-05-29 19:30:23</time>
      </trkpt>
      <trkpt lat="42.91781" lon="-2.72971">
        <ele>540.6</ele>
        <time>2021-05-29 19:30:24</time>
      </trkpt>
      <trkpt lat="42.91777" lon="-2.72973">
        <ele>541</ele>
        <time>2021-05-29 19:30:25</time>
      </trkpt>
      <trkpt lat="42.91773" lon="-2.72975">
        <ele>541.4</ele>
        <time>2021-05-29 19:30:26</time>
      </trkpt>
      <trkpt lat="42.9177" lon="-2.72976">
        <ele>541.8</ele>
        <time>2021-05-29 19:30:27</time>
      </trkpt>
      <trkpt lat="42.91765" lon="-2.72978">
        <ele>542</ele>
        <time>2021-05-29 19:30:28</time>
      </trkpt>
      <trkpt lat="42.91761" lon="-2.72979">
        <ele>542.2</ele>
        <time>2021-05-29 19:30:29</time>
      </trkpt>
      <trkpt lat="42.91756" lon="-2.72979">
        <ele>542.4</ele>
        <time>2021-05-29 19:30:30</time>
      </trkpt>
      <trkpt lat="42.91751" lon="-2.72976">
        <ele>542.4</ele>
        <time>2021-05-29 19:30:31</time>
      </trkpt>
      <trkpt lat="42.91747" lon="-2.72971">
        <ele>542.4</ele>
        <time>2021-05-29 19:30:32</time>
      </trkpt>
      <trkpt lat="42.91745" lon="-2.72964">
        <ele>542.6</ele>
        <time>2021-05-29 19:30:33</time>
      </trkpt>
      <trkpt lat="42.91745" lon="-2.72956">
        <ele>542.6</ele>
        <time>2021-05-29 19:30:34</time>
      </trkpt>
      <trkpt lat="42.91746" lon="-2.72947">
        <ele>542.6</ele>
        <time>2021-05-29 19:30:35</time>
      </trkpt>
      <trkpt lat="42.91746" lon="-2.72939">
        <ele>542.6</ele>
        <time>2021-05-29 19:30:36</time>
      </trkpt>
      <trkpt lat="42.91748" lon="-2.72931">
        <ele>542.6</ele>
        <time>2021-05-29 19:30:37</time>
      </trkpt>
      <trkpt lat="42.91751" lon="-2.72924">
        <ele>542.6</ele>
        <time>2021-05-29 19:30:38</time>
      </trkpt>
      <trkpt lat="42.91754" lon="-2.72919">
        <ele>542.6</ele>
        <time>2021-05-29 19:30:39</time>
      </trkpt>
      <trkpt lat="42.91758" lon="-2.72915">
        <ele>542.6</ele>
        <time>2021-05-29 19:30:40</time>
      </trkpt>
      <trkpt lat="42.91761" lon="-2.72911">
        <ele>542.6</ele>
        <time>2021-05-29 19:30:41</time>
      </trkpt>
      <trkpt lat="42.91765" lon="-2.72906">
        <ele>542.6</ele>
        <time>2021-05-29 19:30:42</time>
      </trkpt>
      <trkpt lat="42.91768" lon="-2.72901">
        <ele>542.8</ele>
        <time>2021-05-29 19:30:43</time>
      </trkpt>
      <trkpt lat="42.91771" lon="-2.72895">
        <ele>542.8</ele>
        <time>2021-05-29 19:30:44</time>
      </trkpt>
      <trkpt lat="42.91773" lon="-2.72888">
        <ele>542.8</ele>
        <time>2021-05-29 19:30:45</time>
      </trkpt>
      <trkpt lat="42.91776" lon="-2.7288">
        <ele>542.8</ele>
        <time>2021-05-29 19:30:46</time>
      </trkpt>
      <trkpt lat="42.91779" lon="-2.72872">
        <ele>542.8</ele>
        <time>2021-05-29 19:30:47</time>
      </trkpt>
      <trkpt lat="42.91782" lon="-2.72863">
        <ele>543</ele>
        <time>2021-05-29 19:30:48</time>
      </trkpt>
      <trkpt lat="42.91785" lon="-2.72855">
        <ele>543</ele>
        <time>2021-05-29 19:30:49</time>
      </trkpt>
      <trkpt lat="42.91788" lon="-2.72846">
        <ele>543</ele>
        <time>2021-05-29 19:30:50</time>
      </trkpt>
      <trkpt lat="42.91791" lon="-2.72837">
        <ele>543</ele>
        <time>2021-05-29 19:30:51</time>
      </trkpt>
      <trkpt lat="42.91795" lon="-2.72827">
        <ele>543</ele>
        <time>2021-05-29 19:30:52</time>
      </trkpt>
      <trkpt lat="42.91798" lon="-2.72818">
        <ele>543</ele>
        <time>2021-05-29 19:30:53</time>
      </trkpt>
      <trkpt lat="42.91801" lon="-2.72809">
        <ele>543</ele>
        <time>2021-05-29 19:30:54</time>
      </trkpt>
      <trkpt lat="42.91804" lon="-2.72799">
        <ele>543</ele>
        <time>2021-05-29 19:30:55</time>
      </trkpt>
      <trkpt lat="42.91807" lon="-2.72789">
        <ele>543</ele>
        <time>2021-05-29 19:30:56</time>
      </trkpt>
      <trkpt lat="42.9181" lon="-2.72779">
        <ele>542.8</ele>
        <time>2021-05-29 19:30:57</time>
      </trkpt>
      <trkpt lat="42.91813" lon="-2.72769">
        <ele>542.8</ele>
        <time>2021-05-29 19:30:58</time>
      </trkpt>
      <trkpt lat="42.91817" lon="-2.72759">
        <ele>542.6</ele>
        <time>2021-05-29 19:30:59</time>
      </trkpt>
      <trkpt lat="42.9182" lon="-2.72749">
        <ele>542.4</ele>
        <time>2021-05-29 19:31:00</time>
      </trkpt>
      <trkpt lat="42.91823" lon="-2.72739">
        <ele>542</ele>
        <time>2021-05-29 19:31:01</time>
      </trkpt>
      <trkpt lat="42.91827" lon="-2.72729">
        <ele>541.8</ele>
        <time>2021-05-29 19:31:02</time>
      </trkpt>
      <trkpt lat="42.9183" lon="-2.7272">
        <ele>541.6</ele>
        <time>2021-05-29 19:31:03</time>
      </trkpt>
      <trkpt lat="42.91834" lon="-2.7271">
        <ele>541.4</ele>
        <time>2021-05-29 19:31:04</time>
      </trkpt>
      <trkpt lat="42.91837" lon="-2.72702">
        <ele>541.4</ele>
        <time>2021-05-29 19:31:05</time>
      </trkpt>
      <trkpt lat="42.9184" lon="-2.72693">
        <ele>541.2</ele>
        <time>2021-05-29 19:31:06</time>
      </trkpt>
      <trkpt lat="42.91842" lon="-2.72684">
        <ele>540.8</ele>
        <time>2021-05-29 19:31:07</time>
      </trkpt>
      <trkpt lat="42.91841" lon="-2.72675">
        <ele>540.8</ele>
        <time>2021-05-29 19:31:08</time>
      </trkpt>
      <trkpt lat="42.91838" lon="-2.72667">
        <ele>540.8</ele>
        <time>2021-05-29 19:31:09</time>
      </trkpt>
      <trkpt lat="42.91831" lon="-2.72661">
        <ele>540.6</ele>
        <time>2021-05-29 19:31:10</time>
      </trkpt>
      <trkpt lat="42.91824" lon="-2.72657">
        <ele>540.2</ele>
        <time>2021-05-29 19:31:11</time>
      </trkpt>
      <trkpt lat="42.91816" lon="-2.72653">
        <ele>540.2</ele>
        <time>2021-05-29 19:31:12</time>
      </trkpt>
      <trkpt lat="42.91807" lon="-2.72649">
        <ele>540</ele>
        <time>2021-05-29 19:31:13</time>
      </trkpt>
      <trkpt lat="42.91798" lon="-2.72644">
        <ele>539.8</ele>
        <time>2021-05-29 19:31:14</time>
      </trkpt>
      <trkpt lat="42.91789" lon="-2.7264">
        <ele>539.4</ele>
        <time>2021-05-29 19:31:15</time>
      </trkpt>
      <trkpt lat="42.9178" lon="-2.72636">
        <ele>539.4</ele>
        <time>2021-05-29 19:31:16</time>
      </trkpt>
      <trkpt lat="42.9177" lon="-2.72631">
        <ele>539.2</ele>
        <time>2021-05-29 19:31:17</time>
      </trkpt>
      <trkpt lat="42.9176" lon="-2.72627">
        <ele>538.8</ele>
        <time>2021-05-29 19:31:18</time>
      </trkpt>
      <trkpt lat="42.9175" lon="-2.72622">
        <ele>538.2</ele>
        <time>2021-05-29 19:31:19</time>
      </trkpt>
      <trkpt lat="42.9174" lon="-2.72618">
        <ele>537.6</ele>
        <time>2021-05-29 19:31:20</time>
      </trkpt>
      <trkpt lat="42.9173" lon="-2.72613">
        <ele>536.8</ele>
        <time>2021-05-29 19:31:21</time>
      </trkpt>
      <trkpt lat="42.9172" lon="-2.72608">
        <ele>536.4</ele>
        <time>2021-05-29 19:31:22</time>
      </trkpt>
      <trkpt lat="42.9171" lon="-2.72603">
        <ele>535.8</ele>
        <time>2021-05-29 19:31:23</time>
      </trkpt>
      <trkpt lat="42.91701" lon="-2.72599">
        <ele>535.2</ele>
        <time>2021-05-29 19:31:24</time>
      </trkpt>
      <trkpt lat="42.91691" lon="-2.72594">
        <ele>534.8</ele>
        <time>2021-05-29 19:31:25</time>
      </trkpt>
      <trkpt lat="42.91682" lon="-2.7259">
        <ele>534.6</ele>
        <time>2021-05-29 19:31:26</time>
      </trkpt>
      <trkpt lat="42.91672" lon="-2.72585">
        <ele>534.2</ele>
        <time>2021-05-29 19:31:27</time>
      </trkpt>
      <trkpt lat="42.91663" lon="-2.7258">
        <ele>534</ele>
        <time>2021-05-29 19:31:28</time>
      </trkpt>
      <trkpt lat="42.91654" lon="-2.72576">
        <ele>533.6</ele>
        <time>2021-05-29 19:31:29</time>
      </trkpt>
      <trkpt lat="42.91645" lon="-2.72572">
        <ele>533.2</ele>
        <time>2021-05-29 19:31:30</time>
      </trkpt>
      <trkpt lat="42.91636" lon="-2.72567">
        <ele>533</ele>
        <time>2021-05-29 19:31:31</time>
      </trkpt>
      <trkpt lat="42.91626" lon="-2.72562">
        <ele>532.8</ele>
        <time>2021-05-29 19:31:32</time>
      </trkpt>
      <trkpt lat="42.91618" lon="-2.72558">
        <ele>532.6</ele>
        <time>2021-05-29 19:31:33</time>
      </trkpt>
      <trkpt lat="42.91609" lon="-2.72554">
        <ele>532.4</ele>
        <time>2021-05-29 19:31:34</time>
      </trkpt>
      <trkpt lat="42.91601" lon="-2.72551">
        <ele>532.2</ele>
        <time>2021-05-29 19:31:35</time>
      </trkpt>
      <trkpt lat="42.91594" lon="-2.72547">
        <ele>532</ele>
        <time>2021-05-29 19:31:36</time>
      </trkpt>
      <trkpt lat="42.91586" lon="-2.72544">
        <ele>531.8</ele>
        <time>2021-05-29 19:31:37</time>
      </trkpt>
      <trkpt lat="42.91578" lon="-2.7254">
        <ele>531.2</ele>
        <time>2021-05-29 19:31:38</time>
      </trkpt>
      <trkpt lat="42.91571" lon="-2.72536">
        <ele>530.8</ele>
        <time>2021-05-29 19:31:39</time>
      </trkpt>
      <trkpt lat="42.91563" lon="-2.72533">
        <ele>530.2</ele>
        <time>2021-05-29 19:31:40</time>
      </trkpt>
      <trkpt lat="42.91556" lon="-2.7253">
        <ele>529.8</ele>
        <time>2021-05-29 19:31:41</time>
      </trkpt>
      <trkpt lat="42.91548" lon="-2.72527">
        <ele>529.4</ele>
        <time>2021-05-29 19:31:42</time>
      </trkpt>
      <trkpt lat="42.91541" lon="-2.72524">
        <ele>529</ele>
        <time>2021-05-29 19:31:43</time>
      </trkpt>
      <trkpt lat="42.91533" lon="-2.72521">
        <ele>528.6</ele>
        <time>2021-05-29 19:31:44</time>
      </trkpt>
      <trkpt lat="42.91526" lon="-2.72518">
        <ele>528.4</ele>
        <time>2021-05-29 19:31:45</time>
      </trkpt>
      <trkpt lat="42.91519" lon="-2.72515">
        <ele>528.2</ele>
        <time>2021-05-29 19:31:46</time>
      </trkpt>
      <trkpt lat="42.91512" lon="-2.72512">
        <ele>528</ele>
        <time>2021-05-29 19:31:47</time>
      </trkpt>
      <trkpt lat="42.91504" lon="-2.72509">
        <ele>528</ele>
        <time>2021-05-29 19:31:48</time>
      </trkpt>
      <trkpt lat="42.91497" lon="-2.72507">
        <ele>527.8</ele>
        <time>2021-05-29 19:31:49</time>
      </trkpt>
      <trkpt lat="42.9149" lon="-2.72504">
        <ele>527.6</ele>
        <time>2021-05-29 19:31:50</time>
      </trkpt>
      <trkpt lat="42.91482" lon="-2.72502">
        <ele>527.6</ele>
        <time>2021-05-29 19:31:51</time>
      </trkpt>
      <trkpt lat="42.91475" lon="-2.725">
        <ele>527.4</ele>
        <time>2021-05-29 19:31:52</time>
      </trkpt>
      <trkpt lat="42.91468" lon="-2.72498">
        <ele>527.4</ele>
        <time>2021-05-29 19:31:53</time>
      </trkpt>
      <trkpt lat="42.91461" lon="-2.72495">
        <ele>527.2</ele>
        <time>2021-05-29 19:31:54</time>
      </trkpt>
      <trkpt lat="42.91455" lon="-2.72493">
        <ele>527.2</ele>
        <time>2021-05-29 19:31:55</time>
      </trkpt>
      <trkpt lat="42.91448" lon="-2.72491">
        <ele>527</ele>
        <time>2021-05-29 19:31:56</time>
      </trkpt>
      <trkpt lat="42.91441" lon="-2.72489">
        <ele>526.8</ele>
        <time>2021-05-29 19:31:57</time>
      </trkpt>
      <trkpt lat="42.91435" lon="-2.72487">
        <ele>526.6</ele>
        <time>2021-05-29 19:31:58</time>
      </trkpt>
      <trkpt lat="42.91428" lon="-2.72484">
        <ele>526.6</ele>
        <time>2021-05-29 19:31:59</time>
      </trkpt>
      <trkpt lat="42.91422" lon="-2.72482">
        <ele>526.6</ele>
        <time>2021-05-29 19:32:00</time>
      </trkpt>
      <trkpt lat="42.91415" lon="-2.72479">
        <ele>526.6</ele>
        <time>2021-05-29 19:32:01</time>
      </trkpt>
      <trkpt lat="42.91408" lon="-2.72475">
        <ele>526.4</ele>
        <time>2021-05-29 19:32:02</time>
      </trkpt>
      <trkpt lat="42.91402" lon="-2.72471">
        <ele>526.2</ele>
        <time>2021-05-29 19:32:03</time>
      </trkpt>
      <trkpt lat="42.91395" lon="-2.72467">
        <ele>526</ele>
        <time>2021-05-29 19:32:04</time>
      </trkpt>
      <trkpt lat="42.91389" lon="-2.72462">
        <ele>526</ele>
        <time>2021-05-29 19:32:05</time>
      </trkpt>
      <trkpt lat="42.91382" lon="-2.72457">
        <ele>525.8</ele>
        <time>2021-05-29 19:32:06</time>
      </trkpt>
      <trkpt lat="42.91376" lon="-2.72453">
        <ele>525.8</ele>
        <time>2021-05-29 19:32:07</time>
      </trkpt>
      <trkpt lat="42.9137" lon="-2.72448">
        <ele>525.6</ele>
        <time>2021-05-29 19:32:08</time>
      </trkpt>
      <trkpt lat="42.91363" lon="-2.72443">
        <ele>525.4</ele>
        <time>2021-05-29 19:32:09</time>
      </trkpt>
      <trkpt lat="42.91356" lon="-2.72437">
        <ele>525.2</ele>
        <time>2021-05-29 19:32:10</time>
      </trkpt>
      <trkpt lat="42.9135" lon="-2.72432">
        <ele>525</ele>
        <time>2021-05-29 19:32:11</time>
      </trkpt>
      <trkpt lat="42.91343" lon="-2.72427">
        <ele>524.8</ele>
        <time>2021-05-29 19:32:12</time>
      </trkpt>
      <trkpt lat="42.91335" lon="-2.72422">
        <ele>524.8</ele>
        <time>2021-05-29 19:32:13</time>
      </trkpt>
      <trkpt lat="42.91328" lon="-2.72417">
        <ele>524.8</ele>
        <time>2021-05-29 19:32:14</time>
      </trkpt>
      <trkpt lat="42.91321" lon="-2.72413">
        <ele>524.6</ele>
        <time>2021-05-29 19:32:15</time>
      </trkpt>
      <trkpt lat="42.91313" lon="-2.72408">
        <ele>524.4</ele>
        <time>2021-05-29 19:32:16</time>
      </trkpt>
      <trkpt lat="42.91305" lon="-2.72403">
        <ele>524.4</ele>
        <time>2021-05-29 19:32:17</time>
      </trkpt>
      <trkpt lat="42.91297" lon="-2.72399">
        <ele>524.4</ele>
        <time>2021-05-29 19:32:18</time>
      </trkpt>
      <trkpt lat="42.91289" lon="-2.72393">
        <ele>524.4</ele>
        <time>2021-05-29 19:32:19</time>
      </trkpt>
      <trkpt lat="42.91281" lon="-2.72388">
        <ele>524.2</ele>
        <time>2021-05-29 19:32:20</time>
      </trkpt>
      <trkpt lat="42.91274" lon="-2.72381">
        <ele>524</ele>
        <time>2021-05-29 19:32:21</time>
      </trkpt>
      <trkpt lat="42.91266" lon="-2.72374">
        <ele>523.8</ele>
        <time>2021-05-29 19:32:22</time>
      </trkpt>
      <trkpt lat="42.91259" lon="-2.72366">
        <ele>523.6</ele>
        <time>2021-05-29 19:32:23</time>
      </trkpt>
      <trkpt lat="42.91252" lon="-2.72359">
        <ele>523.4</ele>
        <time>2021-05-29 19:32:24</time>
      </trkpt>
      <trkpt lat="42.91245" lon="-2.72352">
        <ele>523.2</ele>
        <time>2021-05-29 19:32:25</time>
      </trkpt>
      <trkpt lat="42.91238" lon="-2.72345">
        <ele>522.8</ele>
        <time>2021-05-29 19:32:26</time>
      </trkpt>
      <trkpt lat="42.91231" lon="-2.72338">
        <ele>522.4</ele>
        <time>2021-05-29 19:32:27</time>
      </trkpt>
      <trkpt lat="42.91224" lon="-2.7233">
        <ele>522.2</ele>
        <time>2021-05-29 19:32:28</time>
      </trkpt>
      <trkpt lat="42.91218" lon="-2.72322">
        <ele>522</ele>
        <time>2021-05-29 19:32:29</time>
      </trkpt>
      <trkpt lat="42.91213" lon="-2.72314">
        <ele>521.8</ele>
        <time>2021-05-29 19:32:30</time>
      </trkpt>
      <trkpt lat="42.91208" lon="-2.72304">
        <ele>521.6</ele>
        <time>2021-05-29 19:32:31</time>
      </trkpt>
      <trkpt lat="42.91205" lon="-2.72295">
        <ele>521.2</ele>
        <time>2021-05-29 19:32:32</time>
      </trkpt>
      <trkpt lat="42.91202" lon="-2.72285">
        <ele>521</ele>
        <time>2021-05-29 19:32:33</time>
      </trkpt>
      <trkpt lat="42.912" lon="-2.72277">
        <ele>521</ele>
        <time>2021-05-29 19:32:34</time>
      </trkpt>
      <trkpt lat="42.91195" lon="-2.72271">
        <ele>521</ele>
        <time>2021-05-29 19:32:35</time>
      </trkpt>
      <trkpt lat="42.91189" lon="-2.7227">
        <ele>520.8</ele>
        <time>2021-05-29 19:32:36</time>
      </trkpt>
      <trkpt lat="42.91183" lon="-2.72271">
        <ele>520.8</ele>
        <time>2021-05-29 19:32:37</time>
      </trkpt>
      <trkpt lat="42.91175" lon="-2.7227">
        <ele>520.6</ele>
        <time>2021-05-29 19:32:38</time>
      </trkpt>
      <trkpt lat="42.91168" lon="-2.72268">
        <ele>520.6</ele>
        <time>2021-05-29 19:32:39</time>
      </trkpt>
      <trkpt lat="42.9116" lon="-2.72264">
        <ele>520.4</ele>
        <time>2021-05-29 19:32:40</time>
      </trkpt>
      <trkpt lat="42.91152" lon="-2.7226">
        <ele>520.4</ele>
        <time>2021-05-29 19:32:41</time>
      </trkpt>
      <trkpt lat="42.91144" lon="-2.72256">
        <ele>520.2</ele>
        <time>2021-05-29 19:32:42</time>
      </trkpt>
      <trkpt lat="42.91136" lon="-2.72252">
        <ele>520.2</ele>
        <time>2021-05-29 19:32:43</time>
      </trkpt>
      <trkpt lat="42.91127" lon="-2.72247">
        <ele>520</ele>
        <time>2021-05-29 19:32:44</time>
      </trkpt>
      <trkpt lat="42.91119" lon="-2.72243">
        <ele>520</ele>
        <time>2021-05-29 19:32:45</time>
      </trkpt>
      <trkpt lat="42.91111" lon="-2.72238">
        <ele>520</ele>
        <time>2021-05-29 19:32:46</time>
      </trkpt>
      <trkpt lat="42.91102" lon="-2.72234">
        <ele>520</ele>
        <time>2021-05-29 19:32:47</time>
      </trkpt>
      <trkpt lat="42.91094" lon="-2.72229">
        <ele>520</ele>
        <time>2021-05-29 19:32:48</time>
      </trkpt>
      <trkpt lat="42.91086" lon="-2.72225">
        <ele>519.8</ele>
        <time>2021-05-29 19:32:49</time>
      </trkpt>
      <trkpt lat="42.91077" lon="-2.7222">
        <ele>519.8</ele>
        <time>2021-05-29 19:32:50</time>
      </trkpt>
      <trkpt lat="42.91069" lon="-2.72215">
        <ele>519.8</ele>
        <time>2021-05-29 19:32:51</time>
      </trkpt>
      <trkpt lat="42.91061" lon="-2.72209">
        <ele>519.6</ele>
        <time>2021-05-29 19:32:52</time>
      </trkpt>
      <trkpt lat="42.91053" lon="-2.72202">
        <ele>519.4</ele>
        <time>2021-05-29 19:32:53</time>
      </trkpt>
      <trkpt lat="42.91046" lon="-2.72193">
        <ele>519.2</ele>
        <time>2021-05-29 19:32:54</time>
      </trkpt>
      <trkpt lat="42.9104" lon="-2.72183">
        <ele>519</ele>
        <time>2021-05-29 19:32:55</time>
      </trkpt>
      <trkpt lat="42.91035" lon="-2.72171">
        <ele>518.8</ele>
        <time>2021-05-29 19:32:56</time>
      </trkpt>
      <trkpt lat="42.91031" lon="-2.72159">
        <ele>518.8</ele>
        <time>2021-05-29 19:32:57</time>
      </trkpt>
      <trkpt lat="42.91029" lon="-2.72146">
        <ele>518.4</ele>
        <time>2021-05-29 19:32:58</time>
      </trkpt>
      <trkpt lat="42.91028" lon="-2.72133">
        <ele>518.2</ele>
        <time>2021-05-29 19:32:59</time>
      </trkpt>
      <trkpt lat="42.91028" lon="-2.7212">
        <ele>518.2</ele>
        <time>2021-05-29 19:33:00</time>
      </trkpt>
      <trkpt lat="42.91029" lon="-2.72106">
        <ele>518</ele>
        <time>2021-05-29 19:33:01</time>
      </trkpt>
      <trkpt lat="42.9103" lon="-2.72093">
        <ele>517.6</ele>
        <time>2021-05-29 19:33:02</time>
      </trkpt>
      <trkpt lat="42.91031" lon="-2.7208">
        <ele>517.2</ele>
        <time>2021-05-29 19:33:03</time>
      </trkpt>
      <trkpt lat="42.91033" lon="-2.72066">
        <ele>517</ele>
        <time>2021-05-29 19:33:04</time>
      </trkpt>
      <trkpt lat="42.91034" lon="-2.72053">
        <ele>516.8</ele>
        <time>2021-05-29 19:33:05</time>
      </trkpt>
      <trkpt lat="42.91035" lon="-2.72039">
        <ele>516.4</ele>
        <time>2021-05-29 19:33:06</time>
      </trkpt>
      <trkpt lat="42.91034" lon="-2.72026">
        <ele>516.2</ele>
        <time>2021-05-29 19:33:07</time>
      </trkpt>
      <trkpt lat="42.91031" lon="-2.72013">
        <ele>516.2</ele>
        <time>2021-05-29 19:33:08</time>
      </trkpt>
      <trkpt lat="42.91027" lon="-2.72001">
        <ele>515.8</ele>
        <time>2021-05-29 19:33:09</time>
      </trkpt>
      <trkpt lat="42.91021" lon="-2.71991">
        <ele>515.6</ele>
        <time>2021-05-29 19:33:10</time>
      </trkpt>
      <trkpt lat="42.91013" lon="-2.71981">
        <ele>515.6</ele>
        <time>2021-05-29 19:33:11</time>
      </trkpt>
      <trkpt lat="42.91005" lon="-2.71974">
        <ele>515.4</ele>
        <time>2021-05-29 19:33:12</time>
      </trkpt>
      <trkpt lat="42.90995" lon="-2.71969">
        <ele>515.2</ele>
        <time>2021-05-29 19:33:13</time>
      </trkpt>
      <trkpt lat="42.90986" lon="-2.71965">
        <ele>515.2</ele>
        <time>2021-05-29 19:33:14</time>
      </trkpt>
      <trkpt lat="42.90976" lon="-2.71961">
        <ele>515</ele>
        <time>2021-05-29 19:33:15</time>
      </trkpt>
      <trkpt lat="42.90966" lon="-2.71958">
        <ele>515</ele>
        <time>2021-05-29 19:33:16</time>
      </trkpt>
      <trkpt lat="42.90956" lon="-2.71955">
        <ele>514.8</ele>
        <time>2021-05-29 19:33:17</time>
      </trkpt>
      <trkpt lat="42.90946" lon="-2.71951">
        <ele>514.8</ele>
        <time>2021-05-29 19:33:18</time>
      </trkpt>
      <trkpt lat="42.90937" lon="-2.71948">
        <ele>514.8</ele>
        <time>2021-05-29 19:33:19</time>
      </trkpt>
      <trkpt lat="42.90927" lon="-2.71945">
        <ele>514.6</ele>
        <time>2021-05-29 19:33:20</time>
      </trkpt>
      <trkpt lat="42.90918" lon="-2.71942">
        <ele>514.6</ele>
        <time>2021-05-29 19:33:21</time>
      </trkpt>
      <trkpt lat="42.90908" lon="-2.71939">
        <ele>514.6</ele>
        <time>2021-05-29 19:33:22</time>
      </trkpt>
      <trkpt lat="42.90899" lon="-2.71936">
        <ele>514.4</ele>
        <time>2021-05-29 19:33:23</time>
      </trkpt>
      <trkpt lat="42.9089" lon="-2.71933">
        <ele>514.4</ele>
        <time>2021-05-29 19:33:24</time>
      </trkpt>
      <trkpt lat="42.9088" lon="-2.7193">
        <ele>514.4</ele>
        <time>2021-05-29 19:33:25</time>
      </trkpt>
      <trkpt lat="42.90871" lon="-2.71926">
        <ele>514.4</ele>
        <time>2021-05-29 19:33:26</time>
      </trkpt>
      <trkpt lat="42.90862" lon="-2.71923">
        <ele>514.2</ele>
        <time>2021-05-29 19:33:27</time>
      </trkpt>
      <trkpt lat="42.90852" lon="-2.71919">
        <ele>514.2</ele>
        <time>2021-05-29 19:33:28</time>
      </trkpt>
      <trkpt lat="42.90843" lon="-2.71915">
        <ele>514</ele>
        <time>2021-05-29 19:33:29</time>
      </trkpt>
      <trkpt lat="42.90834" lon="-2.71911">
        <ele>513.8</ele>
        <time>2021-05-29 19:33:30</time>
      </trkpt>
      <trkpt lat="42.90824" lon="-2.71907">
        <ele>513.8</ele>
        <time>2021-05-29 19:33:31</time>
      </trkpt>
      <trkpt lat="42.90815" lon="-2.71903">
        <ele>513.8</ele>
        <time>2021-05-29 19:33:32</time>
      </trkpt>
      <trkpt lat="42.90806" lon="-2.71899">
        <ele>513.8</ele>
        <time>2021-05-29 19:33:33</time>
      </trkpt>
      <trkpt lat="42.90796" lon="-2.71895">
        <ele>513.6</ele>
        <time>2021-05-29 19:33:34</time>
      </trkpt>
      <trkpt lat="42.90787" lon="-2.71891">
        <ele>513.6</ele>
        <time>2021-05-29 19:33:35</time>
      </trkpt>
      <trkpt lat="42.90778" lon="-2.71887">
        <ele>513.6</ele>
        <time>2021-05-29 19:33:36</time>
      </trkpt>
      <trkpt lat="42.90768" lon="-2.71883">
        <ele>513.6</ele>
        <time>2021-05-29 19:33:37</time>
      </trkpt>
      <trkpt lat="42.90759" lon="-2.71878">
        <ele>513.4</ele>
        <time>2021-05-29 19:33:38</time>
      </trkpt>
      <trkpt lat="42.90749" lon="-2.71874">
        <ele>513.4</ele>
        <time>2021-05-29 19:33:39</time>
      </trkpt>
      <trkpt lat="42.90739" lon="-2.7187">
        <ele>513.4</ele>
        <time>2021-05-29 19:33:40</time>
      </trkpt>
      <trkpt lat="42.9073" lon="-2.71865">
        <ele>513.4</ele>
        <time>2021-05-29 19:33:41</time>
      </trkpt>
      <trkpt lat="42.9072" lon="-2.71861">
        <ele>513.4</ele>
        <time>2021-05-29 19:33:42</time>
      </trkpt>
      <trkpt lat="42.9071" lon="-2.71856">
        <ele>513.4</ele>
        <time>2021-05-29 19:33:43</time>
      </trkpt>
      <trkpt lat="42.907" lon="-2.71852">
        <ele>513.4</ele>
        <time>2021-05-29 19:33:44</time>
      </trkpt>
      <trkpt lat="42.9069" lon="-2.71848">
        <ele>513.4</ele>
        <time>2021-05-29 19:33:45</time>
      </trkpt>
      <trkpt lat="42.90681" lon="-2.71843">
        <ele>513.4</ele>
        <time>2021-05-29 19:33:46</time>
      </trkpt>
      <trkpt lat="42.90671" lon="-2.71839">
        <ele>513.4</ele>
        <time>2021-05-29 19:33:47</time>
      </trkpt>
      <trkpt lat="42.90662" lon="-2.71834">
        <ele>513.4</ele>
        <time>2021-05-29 19:33:48</time>
      </trkpt>
      <trkpt lat="42.90652" lon="-2.7183">
        <ele>513.4</ele>
        <time>2021-05-29 19:33:49</time>
      </trkpt>
      <trkpt lat="42.90643" lon="-2.71826">
        <ele>513.4</ele>
        <time>2021-05-29 19:33:50</time>
      </trkpt>
      <trkpt lat="42.90633" lon="-2.71821">
        <ele>513.4</ele>
        <time>2021-05-29 19:33:51</time>
      </trkpt>
      <trkpt lat="42.90623" lon="-2.71816">
        <ele>513.4</ele>
        <time>2021-05-29 19:33:52</time>
      </trkpt>
      <trkpt lat="42.90614" lon="-2.71811">
        <ele>513.4</ele>
        <time>2021-05-29 19:33:53</time>
      </trkpt>
      <trkpt lat="42.90604" lon="-2.71806">
        <ele>513.4</ele>
        <time>2021-05-29 19:33:54</time>
      </trkpt>
      <trkpt lat="42.90595" lon="-2.718">
        <ele>513.4</ele>
        <time>2021-05-29 19:33:55</time>
      </trkpt>
      <trkpt lat="42.90585" lon="-2.71794">
        <ele>513.4</ele>
        <time>2021-05-29 19:33:56</time>
      </trkpt>
      <trkpt lat="42.90576" lon="-2.71788">
        <ele>513.2</ele>
        <time>2021-05-29 19:33:57</time>
      </trkpt>
      <trkpt lat="42.90568" lon="-2.71781">
        <ele>513.2</ele>
        <time>2021-05-29 19:33:58</time>
      </trkpt>
      <trkpt lat="42.90559" lon="-2.71774">
        <ele>513.2</ele>
        <time>2021-05-29 19:33:59</time>
      </trkpt>
      <trkpt lat="42.90551" lon="-2.71767">
        <ele>513.2</ele>
        <time>2021-05-29 19:34:00</time>
      </trkpt>
      <trkpt lat="42.90543" lon="-2.71759">
        <ele>513</ele>
        <time>2021-05-29 19:34:01</time>
      </trkpt>
      <trkpt lat="42.90535" lon="-2.71752">
        <ele>513</ele>
        <time>2021-05-29 19:34:02</time>
      </trkpt>
      <trkpt lat="42.90527" lon="-2.71744">
        <ele>513</ele>
        <time>2021-05-29 19:34:03</time>
      </trkpt>
      <trkpt lat="42.9052" lon="-2.71736">
        <ele>513</ele>
        <time>2021-05-29 19:34:04</time>
      </trkpt>
      <trkpt lat="42.90513" lon="-2.71728">
        <ele>513</ele>
        <time>2021-05-29 19:34:05</time>
      </trkpt>
      <trkpt lat="42.90506" lon="-2.7172">
        <ele>513</ele>
        <time>2021-05-29 19:34:06</time>
      </trkpt>
      <trkpt lat="42.90498" lon="-2.71711">
        <ele>513</ele>
        <time>2021-05-29 19:34:07</time>
      </trkpt>
      <trkpt lat="42.90491" lon="-2.71702">
        <ele>513</ele>
        <time>2021-05-29 19:34:08</time>
      </trkpt>
      <trkpt lat="42.90484" lon="-2.71693">
        <ele>513</ele>
        <time>2021-05-29 19:34:09</time>
      </trkpt>
      <trkpt lat="42.90477" lon="-2.71685">
        <ele>513</ele>
        <time>2021-05-29 19:34:10</time>
      </trkpt>
      <trkpt lat="42.90469" lon="-2.71676">
        <ele>512.8</ele>
        <time>2021-05-29 19:34:11</time>
      </trkpt>
      <trkpt lat="42.90462" lon="-2.71668">
        <ele>512.8</ele>
        <time>2021-05-29 19:34:12</time>
      </trkpt>
      <trkpt lat="42.90454" lon="-2.7166">
        <ele>512.8</ele>
        <time>2021-05-29 19:34:13</time>
      </trkpt>
      <trkpt lat="42.90446" lon="-2.71651">
        <ele>512.8</ele>
        <time>2021-05-29 19:34:14</time>
      </trkpt>
      <trkpt lat="42.90439" lon="-2.71642">
        <ele>512.8</ele>
        <time>2021-05-29 19:34:15</time>
      </trkpt>
      <trkpt lat="42.90431" lon="-2.71633">
        <ele>512.8</ele>
        <time>2021-05-29 19:34:16</time>
      </trkpt>
      <trkpt lat="42.90423" lon="-2.71624">
        <ele>512.8</ele>
        <time>2021-05-29 19:34:17</time>
      </trkpt>
      <trkpt lat="42.90416" lon="-2.71616">
        <ele>512.8</ele>
        <time>2021-05-29 19:34:18</time>
      </trkpt>
      <trkpt lat="42.90408" lon="-2.71607">
        <ele>512.8</ele>
        <time>2021-05-29 19:34:19</time>
      </trkpt>
      <trkpt lat="42.90401" lon="-2.71598">
        <ele>512.6</ele>
        <time>2021-05-29 19:34:20</time>
      </trkpt>
      <trkpt lat="42.90393" lon="-2.71589">
        <ele>512.6</ele>
        <time>2021-05-29 19:34:21</time>
      </trkpt>
      <trkpt lat="42.90386" lon="-2.7158">
        <ele>512.6</ele>
        <time>2021-05-29 19:34:22</time>
      </trkpt>
      <trkpt lat="42.90379" lon="-2.71571">
        <ele>512.4</ele>
        <time>2021-05-29 19:34:23</time>
      </trkpt>
      <trkpt lat="42.90371" lon="-2.71563">
        <ele>512.4</ele>
        <time>2021-05-29 19:34:24</time>
      </trkpt>
      <trkpt lat="42.90364" lon="-2.71554">
        <ele>512.2</ele>
        <time>2021-05-29 19:34:25</time>
      </trkpt>
      <trkpt lat="42.90357" lon="-2.71545">
        <ele>512.2</ele>
        <time>2021-05-29 19:34:26</time>
      </trkpt>
      <trkpt lat="42.90349" lon="-2.71537">
        <ele>512.2</ele>
        <time>2021-05-29 19:34:27</time>
      </trkpt>
      <trkpt lat="42.90342" lon="-2.71528">
        <ele>512.2</ele>
        <time>2021-05-29 19:34:28</time>
      </trkpt>
      <trkpt lat="42.90335" lon="-2.7152">
        <ele>512.2</ele>
        <time>2021-05-29 19:34:29</time>
      </trkpt>
      <trkpt lat="42.90328" lon="-2.71511">
        <ele>512.2</ele>
        <time>2021-05-29 19:34:30</time>
      </trkpt>
      <trkpt lat="42.90321" lon="-2.71503">
        <ele>512.2</ele>
        <time>2021-05-29 19:34:31</time>
      </trkpt>
      <trkpt lat="42.90314" lon="-2.71496">
        <ele>512</ele>
        <time>2021-05-29 19:34:32</time>
      </trkpt>
      <trkpt lat="42.90306" lon="-2.71491">
        <ele>512</ele>
        <time>2021-05-29 19:34:33</time>
      </trkpt>
      <trkpt lat="42.90297" lon="-2.71491">
        <ele>512</ele>
        <time>2021-05-29 19:34:34</time>
      </trkpt>
      <trkpt lat="42.90288" lon="-2.71495">
        <ele>512</ele>
        <time>2021-05-29 19:34:35</time>
      </trkpt>
      <trkpt lat="42.90281" lon="-2.71503">
        <ele>512</ele>
        <time>2021-05-29 19:34:36</time>
      </trkpt>
      <trkpt lat="42.90275" lon="-2.71512">
        <ele>512</ele>
        <time>2021-05-29 19:34:37</time>
      </trkpt>
      <trkpt lat="42.90269" lon="-2.71522">
        <ele>512</ele>
        <time>2021-05-29 19:34:38</time>
      </trkpt>
      <trkpt lat="42.90263" lon="-2.71531">
        <ele>512</ele>
        <time>2021-05-29 19:34:39</time>
      </trkpt>
      <trkpt lat="42.90257" lon="-2.7154">
        <ele>512</ele>
        <time>2021-05-29 19:34:40</time>
      </trkpt>
      <trkpt lat="42.90251" lon="-2.71549">
        <ele>512</ele>
        <time>2021-05-29 19:34:41</time>
      </trkpt>
      <trkpt lat="42.90245" lon="-2.71558">
        <ele>512</ele>
        <time>2021-05-29 19:34:42</time>
      </trkpt>
      <trkpt lat="42.90239" lon="-2.71567">
        <ele>512</ele>
        <time>2021-05-29 19:34:43</time>
      </trkpt>
      <trkpt lat="42.90233" lon="-2.71576">
        <ele>512</ele>
        <time>2021-05-29 19:34:44</time>
      </trkpt>
      <trkpt lat="42.90227" lon="-2.71586">
        <ele>512</ele>
        <time>2021-05-29 19:34:45</time>
      </trkpt>
      <trkpt lat="42.90222" lon="-2.71595">
        <ele>512</ele>
        <time>2021-05-29 19:34:46</time>
      </trkpt>
      <trkpt lat="42.90216" lon="-2.71605">
        <ele>512</ele>
        <time>2021-05-29 19:34:47</time>
      </trkpt>
      <trkpt lat="42.90211" lon="-2.71615">
        <ele>512</ele>
        <time>2021-05-29 19:34:48</time>
      </trkpt>
      <trkpt lat="42.90205" lon="-2.71625">
        <ele>511.8</ele>
        <time>2021-05-29 19:34:49</time>
      </trkpt>
      <trkpt lat="42.902" lon="-2.71635">
        <ele>511.8</ele>
        <time>2021-05-29 19:34:50</time>
      </trkpt>
      <trkpt lat="42.90194" lon="-2.71645">
        <ele>511.8</ele>
        <time>2021-05-29 19:34:51</time>
      </trkpt>
      <trkpt lat="42.90189" lon="-2.71655">
        <ele>511.8</ele>
        <time>2021-05-29 19:34:52</time>
      </trkpt>
      <trkpt lat="42.90184" lon="-2.71665">
        <ele>511.8</ele>
        <time>2021-05-29 19:34:53</time>
      </trkpt>
      <trkpt lat="42.90178" lon="-2.71675">
        <ele>511.8</ele>
        <time>2021-05-29 19:34:54</time>
      </trkpt>
      <trkpt lat="42.90173" lon="-2.71684">
        <ele>512</ele>
        <time>2021-05-29 19:34:55</time>
      </trkpt>
      <trkpt lat="42.90167" lon="-2.71693">
        <ele>512</ele>
        <time>2021-05-29 19:34:56</time>
      </trkpt>
      <trkpt lat="42.90161" lon="-2.71702">
        <ele>512</ele>
        <time>2021-05-29 19:34:57</time>
      </trkpt>
      <trkpt lat="42.90155" lon="-2.71711">
        <ele>512</ele>
        <time>2021-05-29 19:34:58</time>
      </trkpt>
      <trkpt lat="42.9015" lon="-2.7172">
        <ele>512</ele>
        <time>2021-05-29 19:34:59</time>
      </trkpt>
      <trkpt lat="42.90144" lon="-2.71728">
        <ele>512.2</ele>
        <time>2021-05-29 19:35:00</time>
      </trkpt>
      <trkpt lat="42.90138" lon="-2.71737">
        <ele>512.6</ele>
        <time>2021-05-29 19:35:01</time>
      </trkpt>
      <trkpt lat="42.90132" lon="-2.71746">
        <ele>512.8</ele>
        <time>2021-05-29 19:35:02</time>
      </trkpt>
      <trkpt lat="42.90126" lon="-2.71755">
        <ele>512.8</ele>
        <time>2021-05-29 19:35:03</time>
      </trkpt>
      <trkpt lat="42.9012" lon="-2.71763">
        <ele>512.8</ele>
        <time>2021-05-29 19:35:04</time>
      </trkpt>
      <trkpt lat="42.90114" lon="-2.71772">
        <ele>512.8</ele>
        <time>2021-05-29 19:35:05</time>
      </trkpt>
      <trkpt lat="42.90108" lon="-2.71781">
        <ele>512.8</ele>
        <time>2021-05-29 19:35:06</time>
      </trkpt>
      <trkpt lat="42.90102" lon="-2.7179">
        <ele>512.8</ele>
        <time>2021-05-29 19:35:07</time>
      </trkpt>
      <trkpt lat="42.90096" lon="-2.71798">
        <ele>512.8</ele>
        <time>2021-05-29 19:35:08</time>
      </trkpt>
      <trkpt lat="42.9009" lon="-2.71807">
        <ele>512.8</ele>
        <time>2021-05-29 19:35:09</time>
      </trkpt>
      <trkpt lat="42.90083" lon="-2.71816">
        <ele>512.8</ele>
        <time>2021-05-29 19:35:10</time>
      </trkpt>
      <trkpt lat="42.90077" lon="-2.71825">
        <ele>512.8</ele>
        <time>2021-05-29 19:35:11</time>
      </trkpt>
      <trkpt lat="42.9007" lon="-2.71833">
        <ele>512.8</ele>
        <time>2021-05-29 19:35:12</time>
      </trkpt>
      <trkpt lat="42.90064" lon="-2.71842">
        <ele>512.8</ele>
        <time>2021-05-29 19:35:13</time>
      </trkpt>
      <trkpt lat="42.90057" lon="-2.7185">
        <ele>512.8</ele>
        <time>2021-05-29 19:35:14</time>
      </trkpt>
      <trkpt lat="42.9005" lon="-2.71859">
        <ele>512.8</ele>
        <time>2021-05-29 19:35:15</time>
      </trkpt>
      <trkpt lat="42.90044" lon="-2.71867">
        <ele>512.8</ele>
        <time>2021-05-29 19:35:16</time>
      </trkpt>
      <trkpt lat="42.90037" lon="-2.71875">
        <ele>512.6</ele>
        <time>2021-05-29 19:35:17</time>
      </trkpt>
      <trkpt lat="42.9003" lon="-2.71882">
        <ele>512.6</ele>
        <time>2021-05-29 19:35:18</time>
      </trkpt>
      <trkpt lat="42.90023" lon="-2.7189">
        <ele>512.6</ele>
        <time>2021-05-29 19:35:19</time>
      </trkpt>
      <trkpt lat="42.90016" lon="-2.71898">
        <ele>512.4</ele>
        <time>2021-05-29 19:35:20</time>
      </trkpt>
      <trkpt lat="42.9001" lon="-2.71905">
        <ele>512.4</ele>
        <time>2021-05-29 19:35:21</time>
      </trkpt>
      <trkpt lat="42.90003" lon="-2.71912">
        <ele>512.4</ele>
        <time>2021-05-29 19:35:22</time>
      </trkpt>
      <trkpt lat="42.89996" lon="-2.71919">
        <ele>512.4</ele>
        <time>2021-05-29 19:35:23</time>
      </trkpt>
      <trkpt lat="42.89989" lon="-2.71926">
        <ele>512.4</ele>
        <time>2021-05-29 19:35:24</time>
      </trkpt>
      <trkpt lat="42.89982" lon="-2.71933">
        <ele>512.2</ele>
        <time>2021-05-29 19:35:25</time>
      </trkpt>
      <trkpt lat="42.89975" lon="-2.7194">
        <ele>512.2</ele>
        <time>2021-05-29 19:35:26</time>
      </trkpt>
      <trkpt lat="42.89968" lon="-2.71946">
        <ele>512.2</ele>
        <time>2021-05-29 19:35:27</time>
      </trkpt>
      <trkpt lat="42.89961" lon="-2.71953">
        <ele>512.2</ele>
        <time>2021-05-29 19:35:28</time>
      </trkpt>
      <trkpt lat="42.89953" lon="-2.7196">
        <ele>512.2</ele>
        <time>2021-05-29 19:35:29</time>
      </trkpt>
      <trkpt lat="42.89946" lon="-2.71966">
        <ele>512.2</ele>
        <time>2021-05-29 19:35:30</time>
      </trkpt>
      <trkpt lat="42.89938" lon="-2.71972">
        <ele>512.2</ele>
        <time>2021-05-29 19:35:31</time>
      </trkpt>
      <trkpt lat="42.89931" lon="-2.71979">
        <ele>512.2</ele>
        <time>2021-05-29 19:35:32</time>
      </trkpt>
      <trkpt lat="42.89923" lon="-2.71985">
        <ele>512.2</ele>
        <time>2021-05-29 19:35:33</time>
      </trkpt>
      <trkpt lat="42.89916" lon="-2.71991">
        <ele>512.2</ele>
        <time>2021-05-29 19:35:34</time>
      </trkpt>
      <trkpt lat="42.89908" lon="-2.71997">
        <ele>512.2</ele>
        <time>2021-05-29 19:35:35</time>
      </trkpt>
      <trkpt lat="42.899" lon="-2.72002">
        <ele>512.2</ele>
        <time>2021-05-29 19:35:36</time>
      </trkpt>
      <trkpt lat="42.89893" lon="-2.72008">
        <ele>512.2</ele>
        <time>2021-05-29 19:35:37</time>
      </trkpt>
      <trkpt lat="42.89885" lon="-2.72013">
        <ele>512.2</ele>
        <time>2021-05-29 19:35:38</time>
      </trkpt>
      <trkpt lat="42.89878" lon="-2.72018">
        <ele>512.2</ele>
        <time>2021-05-29 19:35:39</time>
      </trkpt>
      <trkpt lat="42.8987" lon="-2.72023">
        <ele>512.2</ele>
        <time>2021-05-29 19:35:40</time>
      </trkpt>
      <trkpt lat="42.89862" lon="-2.72028">
        <ele>512.2</ele>
        <time>2021-05-29 19:35:41</time>
      </trkpt>
      <trkpt lat="42.89855" lon="-2.72035">
        <ele>512.2</ele>
        <time>2021-05-29 19:35:42</time>
      </trkpt>
      <trkpt lat="42.89848" lon="-2.72041">
        <ele>512.2</ele>
        <time>2021-05-29 19:35:43</time>
      </trkpt>
      <trkpt lat="42.89842" lon="-2.72048">
        <ele>512.2</ele>
        <time>2021-05-29 19:35:44</time>
      </trkpt>
      <trkpt lat="42.89836" lon="-2.72056">
        <ele>512.2</ele>
        <time>2021-05-29 19:35:45</time>
      </trkpt>
      <trkpt lat="42.8983" lon="-2.72063">
        <ele>512.2</ele>
        <time>2021-05-29 19:35:46</time>
      </trkpt>
      <trkpt lat="42.89825" lon="-2.7207">
        <ele>512.2</ele>
        <time>2021-05-29 19:35:47</time>
      </trkpt>
      <trkpt lat="42.8982" lon="-2.72076">
        <ele>512.2</ele>
        <time>2021-05-29 19:35:48</time>
      </trkpt>
      <trkpt lat="42.89816" lon="-2.72081">
        <ele>512.2</ele>
        <time>2021-05-29 19:35:49</time>
      </trkpt>
      <trkpt lat="42.89812" lon="-2.72085">
        <ele>512.2</ele>
        <time>2021-05-29 19:35:50</time>
      </trkpt>
      <trkpt lat="42.89808" lon="-2.72086">
        <ele>512.4</ele>
        <time>2021-05-29 19:35:51</time>
      </trkpt>
      <trkpt lat="42.89805" lon="-2.72085">
        <ele>512.4</ele>
        <time>2021-05-29 19:35:52</time>
      </trkpt>
      <trkpt lat="42.89801" lon="-2.72082">
        <ele>512.4</ele>
        <time>2021-05-29 19:35:53</time>
      </trkpt>
      <trkpt lat="42.89798" lon="-2.72078">
        <ele>512.4</ele>
        <time>2021-05-29 19:35:54</time>
      </trkpt>
      <trkpt lat="42.89794" lon="-2.72072">
        <ele>512.4</ele>
        <time>2021-05-29 19:35:55</time>
      </trkpt>
      <trkpt lat="42.8979" lon="-2.72066">
        <ele>512.4</ele>
        <time>2021-05-29 19:35:56</time>
      </trkpt>
      <trkpt lat="42.89785" lon="-2.7206">
        <ele>512.4</ele>
        <time>2021-05-29 19:35:57</time>
      </trkpt>
      <trkpt lat="42.89779" lon="-2.72055">
        <ele>512.4</ele>
        <time>2021-05-29 19:35:58</time>
      </trkpt>
      <trkpt lat="42.89774" lon="-2.72051">
        <ele>512.6</ele>
        <time>2021-05-29 19:35:59</time>
      </trkpt>
      <trkpt lat="42.8977" lon="-2.72046">
        <ele>512.6</ele>
        <time>2021-05-29 19:36:00</time>
      </trkpt>
      <trkpt lat="42.89766" lon="-2.72041">
        <ele>512.6</ele>
        <time>2021-05-29 19:36:01</time>
      </trkpt>
      <trkpt lat="42.89765" lon="-2.72036">
        <ele>512.6</ele>
        <time>2021-05-29 19:36:02</time>
      </trkpt>
      <trkpt lat="42.89764" lon="-2.7203">
        <ele>512.6</ele>
        <time>2021-05-29 19:36:03</time>
      </trkpt>
      <trkpt lat="42.89764" lon="-2.72026">
        <ele>512.8</ele>
        <time>2021-05-29 19:36:04</time>
      </trkpt>
      <trkpt lat="42.89764" lon="-2.72022">
        <ele>512.8</ele>
        <time>2021-05-29 19:36:05</time>
      </trkpt>
      <trkpt lat="42.89765" lon="-2.72019">
        <ele>512.8</ele>
        <time>2021-05-29 19:36:06</time>
      </trkpt>
      <trkpt lat="42.89765" lon="-2.72017">
        <ele>512.6</ele>
        <time>2021-05-29 19:36:07</time>
      </trkpt>
      <trkpt lat="42.89765" lon="-2.72017">
        <ele>512.6</ele>
        <time>2021-05-29 19:36:08</time>
      </trkpt>
      <trkpt lat="42.89765" lon="-2.72016">
        <ele>512.6</ele>
        <time>2021-05-29 19:36:09</time>
      </trkpt>
      <trkpt lat="42.89768" lon="-2.71994">
        <ele>512.6</ele>
        <time>2021-05-29 19:43:18</time>
      </trkpt>
      <trkpt lat="42.89769" lon="-2.71992">
        <ele>512.6</ele>
        <time>2021-05-29 19:43:19</time>
      </trkpt>
      <trkpt lat="42.8977" lon="-2.7199">
        <ele>512.6</ele>
        <time>2021-05-29 19:43:20</time>
      </trkpt>
      <trkpt lat="42.8977" lon="-2.71986">
        <ele>512.6</ele>
        <time>2021-05-29 19:43:21</time>
      </trkpt>
      <trkpt lat="42.89771" lon="-2.71983">
        <ele>512.6</ele>
        <time>2021-05-29 19:43:22</time>
      </trkpt>
      <trkpt lat="42.89773" lon="-2.71978">
        <ele>512.6</ele>
        <time>2021-05-29 19:43:23</time>
      </trkpt>
      <trkpt lat="42.89775" lon="-2.71974">
        <ele>512.6</ele>
        <time>2021-05-29 19:43:24</time>
      </trkpt>
      <trkpt lat="42.89779" lon="-2.7197">
        <ele>512.6</ele>
        <time>2021-05-29 19:43:25</time>
      </trkpt>
      <trkpt lat="42.89783" lon="-2.71967">
        <ele>512.4</ele>
        <time>2021-05-29 19:43:26</time>
      </trkpt>
      <trkpt lat="42.89788" lon="-2.71964">
        <ele>512.4</ele>
        <time>2021-05-29 19:43:27</time>
      </trkpt>
      <trkpt lat="42.89793" lon="-2.71961">
        <ele>512.4</ele>
        <time>2021-05-29 19:43:28</time>
      </trkpt>
      <trkpt lat="42.89798" lon="-2.71959">
        <ele>512.4</ele>
        <time>2021-05-29 19:43:29</time>
      </trkpt>
      <trkpt lat="42.89802" lon="-2.71956">
        <ele>512.4</ele>
        <time>2021-05-29 19:43:30</time>
      </trkpt>
      <trkpt lat="42.89807" lon="-2.71954">
        <ele>512.4</ele>
        <time>2021-05-29 19:43:31</time>
      </trkpt>
      <trkpt lat="42.89812" lon="-2.71951">
        <ele>512.4</ele>
        <time>2021-05-29 19:43:32</time>
      </trkpt>
      <trkpt lat="42.89817" lon="-2.71947">
        <ele>512.4</ele>
        <time>2021-05-29 19:43:33</time>
      </trkpt>
      <trkpt lat="42.89822" lon="-2.71944">
        <ele>512.4</ele>
        <time>2021-05-29 19:43:34</time>
      </trkpt>
      <trkpt lat="42.89828" lon="-2.7194">
        <ele>512.4</ele>
        <time>2021-05-29 19:43:35</time>
      </trkpt>
      <trkpt lat="42.89833" lon="-2.71937">
        <ele>512.4</ele>
        <time>2021-05-29 19:43:36</time>
      </trkpt>
      <trkpt lat="42.89839" lon="-2.71933">
        <ele>512.2</ele>
        <time>2021-05-29 19:43:37</time>
      </trkpt>
      <trkpt lat="42.89845" lon="-2.71929">
        <ele>512.2</ele>
        <time>2021-05-29 19:43:38</time>
      </trkpt>
      <trkpt lat="42.89851" lon="-2.71926">
        <ele>512.2</ele>
        <time>2021-05-29 19:43:39</time>
      </trkpt>
      <trkpt lat="42.89857" lon="-2.71922">
        <ele>512.2</ele>
        <time>2021-05-29 19:43:40</time>
      </trkpt>
      <trkpt lat="42.89863" lon="-2.71918">
        <ele>512.2</ele>
        <time>2021-05-29 19:43:41</time>
      </trkpt>
      <trkpt lat="42.89869" lon="-2.71913">
        <ele>512.2</ele>
        <time>2021-05-29 19:43:42</time>
      </trkpt>
      <trkpt lat="42.89875" lon="-2.71908">
        <ele>512.2</ele>
        <time>2021-05-29 19:43:43</time>
      </trkpt>
      <trkpt lat="42.89881" lon="-2.71904">
        <ele>512.2</ele>
        <time>2021-05-29 19:43:44</time>
      </trkpt>
      <trkpt lat="42.89887" lon="-2.71899">
        <ele>512.2</ele>
        <time>2021-05-29 19:43:45</time>
      </trkpt>
      <trkpt lat="42.89894" lon="-2.71894">
        <ele>512.2</ele>
        <time>2021-05-29 19:43:46</time>
      </trkpt>
      <trkpt lat="42.899" lon="-2.7189">
        <ele>512.2</ele>
        <time>2021-05-29 19:43:47</time>
      </trkpt>
      <trkpt lat="42.89906" lon="-2.71885">
        <ele>512.2</ele>
        <time>2021-05-29 19:43:48</time>
      </trkpt>
      <trkpt lat="42.89912" lon="-2.71879">
        <ele>512.2</ele>
        <time>2021-05-29 19:43:49</time>
      </trkpt>
      <trkpt lat="42.89918" lon="-2.71874">
        <ele>512.2</ele>
        <time>2021-05-29 19:43:50</time>
      </trkpt>
      <trkpt lat="42.89924" lon="-2.71869">
        <ele>512.2</ele>
        <time>2021-05-29 19:43:51</time>
      </trkpt>
      <trkpt lat="42.8993" lon="-2.71864">
        <ele>512.2</ele>
        <time>2021-05-29 19:43:52</time>
      </trkpt>
      <trkpt lat="42.89936" lon="-2.71859">
        <ele>512.2</ele>
        <time>2021-05-29 19:43:53</time>
      </trkpt>
      <trkpt lat="42.89942" lon="-2.71854">
        <ele>512.2</ele>
        <time>2021-05-29 19:43:54</time>
      </trkpt>
      <trkpt lat="42.89948" lon="-2.71848">
        <ele>512.2</ele>
        <time>2021-05-29 19:43:55</time>
      </trkpt>
      <trkpt lat="42.89953" lon="-2.71842">
        <ele>512.2</ele>
        <time>2021-05-29 19:43:56</time>
      </trkpt>
      <trkpt lat="42.89959" lon="-2.71836">
        <ele>512.2</ele>
        <time>2021-05-29 19:43:57</time>
      </trkpt>
      <trkpt lat="42.89965" lon="-2.7183">
        <ele>512.2</ele>
        <time>2021-05-29 19:43:58</time>
      </trkpt>
      <trkpt lat="42.8997" lon="-2.71824">
        <ele>512.2</ele>
        <time>2021-05-29 19:43:59</time>
      </trkpt>
      <trkpt lat="42.89976" lon="-2.71818">
        <ele>512.2</ele>
        <time>2021-05-29 19:44:00</time>
      </trkpt>
      <trkpt lat="42.89982" lon="-2.71812">
        <ele>512.2</ele>
        <time>2021-05-29 19:44:01</time>
      </trkpt>
      <trkpt lat="42.89988" lon="-2.71806">
        <ele>512.2</ele>
        <time>2021-05-29 19:44:02</time>
      </trkpt>
      <trkpt lat="42.89993" lon="-2.71799">
        <ele>512.2</ele>
        <time>2021-05-29 19:44:03</time>
      </trkpt>
      <trkpt lat="42.89999" lon="-2.71793">
        <ele>512.2</ele>
        <time>2021-05-29 19:44:04</time>
      </trkpt>
      <trkpt lat="42.90004" lon="-2.71786">
        <ele>512.2</ele>
        <time>2021-05-29 19:44:05</time>
      </trkpt>
      <trkpt lat="42.9001" lon="-2.7178">
        <ele>512.2</ele>
        <time>2021-05-29 19:44:06</time>
      </trkpt>
      <trkpt lat="42.90015" lon="-2.71774">
        <ele>512.2</ele>
        <time>2021-05-29 19:44:07</time>
      </trkpt>
      <trkpt lat="42.9002" lon="-2.71768">
        <ele>512.2</ele>
        <time>2021-05-29 19:44:08</time>
      </trkpt>
      <trkpt lat="42.90025" lon="-2.71761">
        <ele>512.2</ele>
        <time>2021-05-29 19:44:09</time>
      </trkpt>
      <trkpt lat="42.9003" lon="-2.71755">
        <ele>512.2</ele>
        <time>2021-05-29 19:44:10</time>
      </trkpt>
      <trkpt lat="42.90035" lon="-2.71748">
        <ele>512.2</ele>
        <time>2021-05-29 19:44:11</time>
      </trkpt>
      <trkpt lat="42.9004" lon="-2.71741">
        <ele>512.2</ele>
        <time>2021-05-29 19:44:12</time>
      </trkpt>
      <trkpt lat="42.90046" lon="-2.71734">
        <ele>512.2</ele>
        <time>2021-05-29 19:44:13</time>
      </trkpt>
      <trkpt lat="42.90051" lon="-2.71727">
        <ele>512.2</ele>
        <time>2021-05-29 19:44:14</time>
      </trkpt>
      <trkpt lat="42.90055" lon="-2.7172">
        <ele>512.2</ele>
        <time>2021-05-29 19:44:15</time>
      </trkpt>
      <trkpt lat="42.9006" lon="-2.71713">
        <ele>512.2</ele>
        <time>2021-05-29 19:44:16</time>
      </trkpt>
      <trkpt lat="42.90065" lon="-2.71706">
        <ele>512.2</ele>
        <time>2021-05-29 19:44:17</time>
      </trkpt>
      <trkpt lat="42.9007" lon="-2.71698">
        <ele>512.2</ele>
        <time>2021-05-29 19:44:18</time>
      </trkpt>
      <trkpt lat="42.90075" lon="-2.71691">
        <ele>512.2</ele>
        <time>2021-05-29 19:44:19</time>
      </trkpt>
      <trkpt lat="42.9008" lon="-2.71683">
        <ele>512.2</ele>
        <time>2021-05-29 19:44:20</time>
      </trkpt>
      <trkpt lat="42.90084" lon="-2.71675">
        <ele>512.2</ele>
        <time>2021-05-29 19:44:21</time>
      </trkpt>
      <trkpt lat="42.90089" lon="-2.71667">
        <ele>512.2</ele>
        <time>2021-05-29 19:44:22</time>
      </trkpt>
      <trkpt lat="42.90094" lon="-2.71658">
        <ele>512.2</ele>
        <time>2021-05-29 19:44:23</time>
      </trkpt>
      <trkpt lat="42.90099" lon="-2.7165">
        <ele>512.2</ele>
        <time>2021-05-29 19:44:24</time>
      </trkpt>
      <trkpt lat="42.90103" lon="-2.71641">
        <ele>512.2</ele>
        <time>2021-05-29 19:44:25</time>
      </trkpt>
      <trkpt lat="42.90108" lon="-2.71632">
        <ele>512.2</ele>
        <time>2021-05-29 19:44:26</time>
      </trkpt>
      <trkpt lat="42.90113" lon="-2.71623">
        <ele>512.2</ele>
        <time>2021-05-29 19:44:27</time>
      </trkpt>
      <trkpt lat="42.90117" lon="-2.71614">
        <ele>512.2</ele>
        <time>2021-05-29 19:44:28</time>
      </trkpt>
      <trkpt lat="42.90121" lon="-2.71605">
        <ele>512.2</ele>
        <time>2021-05-29 19:44:29</time>
      </trkpt>
      <trkpt lat="42.90126" lon="-2.71596">
        <ele>512.2</ele>
        <time>2021-05-29 19:44:30</time>
      </trkpt>
      <trkpt lat="42.9013" lon="-2.71586">
        <ele>512.2</ele>
        <time>2021-05-29 19:44:31</time>
      </trkpt>
      <trkpt lat="42.90134" lon="-2.71577">
        <ele>512.2</ele>
        <time>2021-05-29 19:44:32</time>
      </trkpt>
      <trkpt lat="42.90138" lon="-2.71567">
        <ele>512.2</ele>
        <time>2021-05-29 19:44:33</time>
      </trkpt>
      <trkpt lat="42.90143" lon="-2.71557">
        <ele>512.2</ele>
        <time>2021-05-29 19:44:34</time>
      </trkpt>
      <trkpt lat="42.90147" lon="-2.71547">
        <ele>512.2</ele>
        <time>2021-05-29 19:44:35</time>
      </trkpt>
      <trkpt lat="42.90151" lon="-2.71537">
        <ele>512.2</ele>
        <time>2021-05-29 19:44:36</time>
      </trkpt>
      <trkpt lat="42.90156" lon="-2.71527">
        <ele>512.2</ele>
        <time>2021-05-29 19:44:37</time>
      </trkpt>
      <trkpt lat="42.9016" lon="-2.71517">
        <ele>512.2</ele>
        <time>2021-05-29 19:44:38</time>
      </trkpt>
      <trkpt lat="42.90165" lon="-2.71507">
        <ele>512.2</ele>
        <time>2021-05-29 19:44:39</time>
      </trkpt>
      <trkpt lat="42.9017" lon="-2.71497">
        <ele>512</ele>
        <time>2021-05-29 19:44:40</time>
      </trkpt>
      <trkpt lat="42.90174" lon="-2.71487">
        <ele>511.8</ele>
        <time>2021-05-29 19:44:41</time>
      </trkpt>
      <trkpt lat="42.90179" lon="-2.71478">
        <ele>511.8</ele>
        <time>2021-05-29 19:44:42</time>
      </trkpt>
      <trkpt lat="42.90183" lon="-2.71468">
        <ele>511.8</ele>
        <time>2021-05-29 19:44:43</time>
      </trkpt>
      <trkpt lat="42.90188" lon="-2.71459">
        <ele>511.6</ele>
        <time>2021-05-29 19:44:44</time>
      </trkpt>
      <trkpt lat="42.90191" lon="-2.7145">
        <ele>511.6</ele>
        <time>2021-05-29 19:44:45</time>
      </trkpt>
      <trkpt lat="42.90194" lon="-2.7144">
        <ele>511.6</ele>
        <time>2021-05-29 19:44:46</time>
      </trkpt>
      <trkpt lat="42.90197" lon="-2.7143">
        <ele>511.6</ele>
        <time>2021-05-29 19:44:47</time>
      </trkpt>
      <trkpt lat="42.90199" lon="-2.7142">
        <ele>511.6</ele>
        <time>2021-05-29 19:44:48</time>
      </trkpt>
      <trkpt lat="42.902" lon="-2.71409">
        <ele>511.6</ele>
        <time>2021-05-29 19:44:49</time>
      </trkpt>
      <trkpt lat="42.90201" lon="-2.71399">
        <ele>511.4</ele>
        <time>2021-05-29 19:44:50</time>
      </trkpt>
      <trkpt lat="42.90201" lon="-2.71388">
        <ele>511.4</ele>
        <time>2021-05-29 19:44:51</time>
      </trkpt>
      <trkpt lat="42.90201" lon="-2.71377">
        <ele>511.4</ele>
        <time>2021-05-29 19:44:52</time>
      </trkpt>
      <trkpt lat="42.902" lon="-2.71367">
        <ele>511.4</ele>
        <time>2021-05-29 19:44:53</time>
      </trkpt>
      <trkpt lat="42.90199" lon="-2.71356">
        <ele>511.4</ele>
        <time>2021-05-29 19:44:54</time>
      </trkpt>
      <trkpt lat="42.90197" lon="-2.71346">
        <ele>511.4</ele>
        <time>2021-05-29 19:44:55</time>
      </trkpt>
      <trkpt lat="42.90196" lon="-2.71335">
        <ele>511.4</ele>
        <time>2021-05-29 19:44:56</time>
      </trkpt>
      <trkpt lat="42.90194" lon="-2.71325">
        <ele>511.4</ele>
        <time>2021-05-29 19:44:57</time>
      </trkpt>
      <trkpt lat="42.90192" lon="-2.71315">
        <ele>511.2</ele>
        <time>2021-05-29 19:44:58</time>
      </trkpt>
      <trkpt lat="42.9019" lon="-2.71304">
        <ele>511.2</ele>
        <time>2021-05-29 19:44:59</time>
      </trkpt>
      <trkpt lat="42.90188" lon="-2.71293">
        <ele>511.2</ele>
        <time>2021-05-29 19:45:00</time>
      </trkpt>
      <trkpt lat="42.90186" lon="-2.71283">
        <ele>511.2</ele>
        <time>2021-05-29 19:45:01</time>
      </trkpt>
      <trkpt lat="42.90185" lon="-2.71272">
        <ele>511.2</ele>
        <time>2021-05-29 19:45:02</time>
      </trkpt>
      <trkpt lat="42.90184" lon="-2.7126">
        <ele>511.2</ele>
        <time>2021-05-29 19:45:03</time>
      </trkpt>
      <trkpt lat="42.90182" lon="-2.71249">
        <ele>511.2</ele>
        <time>2021-05-29 19:45:04</time>
      </trkpt>
      <trkpt lat="42.90181" lon="-2.71237">
        <ele>511</ele>
        <time>2021-05-29 19:45:05</time>
      </trkpt>
      <trkpt lat="42.9018" lon="-2.71225">
        <ele>511</ele>
        <time>2021-05-29 19:45:06</time>
      </trkpt>
      <trkpt lat="42.9018" lon="-2.71214">
        <ele>511</ele>
        <time>2021-05-29 19:45:07</time>
      </trkpt>
      <trkpt lat="42.90179" lon="-2.71202">
        <ele>511</ele>
        <time>2021-05-29 19:45:08</time>
      </trkpt>
      <trkpt lat="42.90179" lon="-2.7119">
        <ele>511</ele>
        <time>2021-05-29 19:45:09</time>
      </trkpt>
      <trkpt lat="42.90178" lon="-2.71178">
        <ele>511</ele>
        <time>2021-05-29 19:45:10</time>
      </trkpt>
      <trkpt lat="42.90179" lon="-2.71166">
        <ele>510.8</ele>
        <time>2021-05-29 19:45:11</time>
      </trkpt>
      <trkpt lat="42.90179" lon="-2.71154">
        <ele>510.8</ele>
        <time>2021-05-29 19:45:12</time>
      </trkpt>
      <trkpt lat="42.9018" lon="-2.71142">
        <ele>510.6</ele>
        <time>2021-05-29 19:45:13</time>
      </trkpt>
      <trkpt lat="42.9018" lon="-2.7113">
        <ele>510.6</ele>
        <time>2021-05-29 19:45:14</time>
      </trkpt>
      <trkpt lat="42.90181" lon="-2.71118">
        <ele>510.6</ele>
        <time>2021-05-29 19:45:15</time>
      </trkpt>
      <trkpt lat="42.90181" lon="-2.71106">
        <ele>510.6</ele>
        <time>2021-05-29 19:45:16</time>
      </trkpt>
      <trkpt lat="42.90181" lon="-2.71095">
        <ele>510.6</ele>
        <time>2021-05-29 19:45:17</time>
      </trkpt>
      <trkpt lat="42.9018" lon="-2.71084">
        <ele>510.6</ele>
        <time>2021-05-29 19:45:18</time>
      </trkpt>
      <trkpt lat="42.90179" lon="-2.71072">
        <ele>510.6</ele>
        <time>2021-05-29 19:45:19</time>
      </trkpt>
      <trkpt lat="42.90177" lon="-2.7106">
        <ele>510.6</ele>
        <time>2021-05-29 19:45:20</time>
      </trkpt>
      <trkpt lat="42.90174" lon="-2.71049">
        <ele>510.4</ele>
        <time>2021-05-29 19:45:21</time>
      </trkpt>
      <trkpt lat="42.9017" lon="-2.71038">
        <ele>510.4</ele>
        <time>2021-05-29 19:45:22</time>
      </trkpt>
      <trkpt lat="42.90166" lon="-2.71027">
        <ele>510.4</ele>
        <time>2021-05-29 19:45:23</time>
      </trkpt>
      <trkpt lat="42.90162" lon="-2.71016">
        <ele>510.4</ele>
        <time>2021-05-29 19:45:24</time>
      </trkpt>
      <trkpt lat="42.90158" lon="-2.71005">
        <ele>510.4</ele>
        <time>2021-05-29 19:45:25</time>
      </trkpt>
      <trkpt lat="42.90154" lon="-2.70993">
        <ele>510.4</ele>
        <time>2021-05-29 19:45:26</time>
      </trkpt>
      <trkpt lat="42.9015" lon="-2.70983">
        <ele>510.4</ele>
        <time>2021-05-29 19:45:27</time>
      </trkpt>
      <trkpt lat="42.90144" lon="-2.70973">
        <ele>510.4</ele>
        <time>2021-05-29 19:45:28</time>
      </trkpt>
      <trkpt lat="42.90138" lon="-2.70964">
        <ele>510.4</ele>
        <time>2021-05-29 19:45:29</time>
      </trkpt>
      <trkpt lat="42.90131" lon="-2.70955">
        <ele>510.4</ele>
        <time>2021-05-29 19:45:30</time>
      </trkpt>
      <trkpt lat="42.90123" lon="-2.70946">
        <ele>510.4</ele>
        <time>2021-05-29 19:45:31</time>
      </trkpt>
      <trkpt lat="42.90116" lon="-2.70937">
        <ele>510.2</ele>
        <time>2021-05-29 19:45:32</time>
      </trkpt>
      <trkpt lat="42.90108" lon="-2.70929">
        <ele>510.2</ele>
        <time>2021-05-29 19:45:33</time>
      </trkpt>
      <trkpt lat="42.901" lon="-2.70921">
        <ele>510.2</ele>
        <time>2021-05-29 19:45:34</time>
      </trkpt>
      <trkpt lat="42.90093" lon="-2.70914">
        <ele>510.2</ele>
        <time>2021-05-29 19:45:35</time>
      </trkpt>
      <trkpt lat="42.90085" lon="-2.70906">
        <ele>510.2</ele>
        <time>2021-05-29 19:45:36</time>
      </trkpt>
      <trkpt lat="42.90078" lon="-2.70898">
        <ele>510.2</ele>
        <time>2021-05-29 19:45:37</time>
      </trkpt>
      <trkpt lat="42.9007" lon="-2.70891">
        <ele>510.2</ele>
        <time>2021-05-29 19:45:38</time>
      </trkpt>
      <trkpt lat="42.90062" lon="-2.70883">
        <ele>510.2</ele>
        <time>2021-05-29 19:45:39</time>
      </trkpt>
      <trkpt lat="42.90055" lon="-2.70876">
        <ele>510.2</ele>
        <time>2021-05-29 19:45:40</time>
      </trkpt>
      <trkpt lat="42.90047" lon="-2.70868">
        <ele>510.2</ele>
        <time>2021-05-29 19:45:41</time>
      </trkpt>
      <trkpt lat="42.9004" lon="-2.70861">
        <ele>510.2</ele>
        <time>2021-05-29 19:45:42</time>
      </trkpt>
      <trkpt lat="42.90032" lon="-2.70853">
        <ele>510.2</ele>
        <time>2021-05-29 19:45:43</time>
      </trkpt>
      <trkpt lat="42.90025" lon="-2.70845">
        <ele>510.2</ele>
        <time>2021-05-29 19:45:44</time>
      </trkpt>
      <trkpt lat="42.90017" lon="-2.70837">
        <ele>510</ele>
        <time>2021-05-29 19:45:45</time>
      </trkpt>
      <trkpt lat="42.9001" lon="-2.70829">
        <ele>510</ele>
        <time>2021-05-29 19:45:46</time>
      </trkpt>
      <trkpt lat="42.90002" lon="-2.70822">
        <ele>510</ele>
        <time>2021-05-29 19:45:47</time>
      </trkpt>
      <trkpt lat="42.89995" lon="-2.70814">
        <ele>510</ele>
        <time>2021-05-29 19:45:48</time>
      </trkpt>
      <trkpt lat="42.89987" lon="-2.70806">
        <ele>509.8</ele>
        <time>2021-05-29 19:45:49</time>
      </trkpt>
      <trkpt lat="42.89979" lon="-2.70799">
        <ele>509.8</ele>
        <time>2021-05-29 19:45:50</time>
      </trkpt>
      <trkpt lat="42.89972" lon="-2.70791">
        <ele>509.8</ele>
        <time>2021-05-29 19:45:51</time>
      </trkpt>
      <trkpt lat="42.89964" lon="-2.70783">
        <ele>509.8</ele>
        <time>2021-05-29 19:45:52</time>
      </trkpt>
      <trkpt lat="42.89957" lon="-2.70775">
        <ele>509.8</ele>
        <time>2021-05-29 19:45:53</time>
      </trkpt>
      <trkpt lat="42.89949" lon="-2.70767">
        <ele>509.8</ele>
        <time>2021-05-29 19:45:54</time>
      </trkpt>
      <trkpt lat="42.89941" lon="-2.70759">
        <ele>509.6</ele>
        <time>2021-05-29 19:45:55</time>
      </trkpt>
      <trkpt lat="42.89933" lon="-2.70751">
        <ele>509.6</ele>
        <time>2021-05-29 19:45:56</time>
      </trkpt>
      <trkpt lat="42.89926" lon="-2.70743">
        <ele>509.4</ele>
        <time>2021-05-29 19:45:57</time>
      </trkpt>
      <trkpt lat="42.89918" lon="-2.70735">
        <ele>509.4</ele>
        <time>2021-05-29 19:45:58</time>
      </trkpt>
      <trkpt lat="42.89911" lon="-2.70728">
        <ele>509.4</ele>
        <time>2021-05-29 19:45:59</time>
      </trkpt>
      <trkpt lat="42.89903" lon="-2.7072">
        <ele>509.2</ele>
        <time>2021-05-29 19:46:00</time>
      </trkpt>
      <trkpt lat="42.89896" lon="-2.70712">
        <ele>509.2</ele>
        <time>2021-05-29 19:46:01</time>
      </trkpt>
      <trkpt lat="42.89889" lon="-2.70704">
        <ele>509.2</ele>
        <time>2021-05-29 19:46:02</time>
      </trkpt>
      <trkpt lat="42.89881" lon="-2.70697">
        <ele>509.2</ele>
        <time>2021-05-29 19:46:03</time>
      </trkpt>
      <trkpt lat="42.89874" lon="-2.7069">
        <ele>509.2</ele>
        <time>2021-05-29 19:46:04</time>
      </trkpt>
      <trkpt lat="42.89866" lon="-2.70686">
        <ele>509</ele>
        <time>2021-05-29 19:46:05</time>
      </trkpt>
      <trkpt lat="42.89858" lon="-2.70682">
        <ele>509</ele>
        <time>2021-05-29 19:46:06</time>
      </trkpt>
      <trkpt lat="42.8985" lon="-2.7068">
        <ele>509</ele>
        <time>2021-05-29 19:46:07</time>
      </trkpt>
      <trkpt lat="42.89842" lon="-2.70677">
        <ele>509</ele>
        <time>2021-05-29 19:46:08</time>
      </trkpt>
      <trkpt lat="42.89834" lon="-2.70675">
        <ele>509</ele>
        <time>2021-05-29 19:46:09</time>
      </trkpt>
      <trkpt lat="42.89826" lon="-2.70672">
        <ele>509</ele>
        <time>2021-05-29 19:46:10</time>
      </trkpt>
      <trkpt lat="42.89818" lon="-2.7067">
        <ele>509</ele>
        <time>2021-05-29 19:46:11</time>
      </trkpt>
      <trkpt lat="42.8981" lon="-2.70668">
        <ele>509</ele>
        <time>2021-05-29 19:46:12</time>
      </trkpt>
      <trkpt lat="42.89801" lon="-2.70669">
        <ele>509</ele>
        <time>2021-05-29 19:46:13</time>
      </trkpt>
      <trkpt lat="42.89794" lon="-2.70673">
        <ele>509</ele>
        <time>2021-05-29 19:46:14</time>
      </trkpt>
      <trkpt lat="42.89787" lon="-2.7068">
        <ele>509</ele>
        <time>2021-05-29 19:46:15</time>
      </trkpt>
      <trkpt lat="42.8978" lon="-2.70687">
        <ele>509</ele>
        <time>2021-05-29 19:46:16</time>
      </trkpt>
      <trkpt lat="42.89774" lon="-2.70695">
        <ele>509</ele>
        <time>2021-05-29 19:46:17</time>
      </trkpt>
      <trkpt lat="42.89767" lon="-2.70703">
        <ele>509</ele>
        <time>2021-05-29 19:46:18</time>
      </trkpt>
      <trkpt lat="42.8976" lon="-2.7071">
        <ele>509</ele>
        <time>2021-05-29 19:46:19</time>
      </trkpt>
      <trkpt lat="42.89753" lon="-2.70717">
        <ele>509</ele>
        <time>2021-05-29 19:46:20</time>
      </trkpt>
      <trkpt lat="42.89746" lon="-2.70725">
        <ele>509</ele>
        <time>2021-05-29 19:46:21</time>
      </trkpt>
      <trkpt lat="42.89739" lon="-2.70732">
        <ele>509</ele>
        <time>2021-05-29 19:46:22</time>
      </trkpt>
      <trkpt lat="42.89732" lon="-2.7074">
        <ele>508.8</ele>
        <time>2021-05-29 19:46:23</time>
      </trkpt>
      <trkpt lat="42.89725" lon="-2.70747">
        <ele>508.8</ele>
        <time>2021-05-29 19:46:24</time>
      </trkpt>
      <trkpt lat="42.89718" lon="-2.70755">
        <ele>508.8</ele>
        <time>2021-05-29 19:46:25</time>
      </trkpt>
      <trkpt lat="42.8971" lon="-2.70762">
        <ele>508.8</ele>
        <time>2021-05-29 19:46:26</time>
      </trkpt>
      <trkpt lat="42.89703" lon="-2.70769">
        <ele>508.8</ele>
        <time>2021-05-29 19:46:27</time>
      </trkpt>
      <trkpt lat="42.89696" lon="-2.70776">
        <ele>508.8</ele>
        <time>2021-05-29 19:46:28</time>
      </trkpt>
      <trkpt lat="42.89689" lon="-2.70783">
        <ele>508.8</ele>
        <time>2021-05-29 19:46:29</time>
      </trkpt>
      <trkpt lat="42.89682" lon="-2.70791">
        <ele>508.8</ele>
        <time>2021-05-29 19:46:30</time>
      </trkpt>
      <trkpt lat="42.89675" lon="-2.70798">
        <ele>508.8</ele>
        <time>2021-05-29 19:46:31</time>
      </trkpt>
      <trkpt lat="42.89668" lon="-2.70805">
        <ele>508.8</ele>
        <time>2021-05-29 19:46:32</time>
      </trkpt>
      <trkpt lat="42.89661" lon="-2.70812">
        <ele>508.8</ele>
        <time>2021-05-29 19:46:33</time>
      </trkpt>
      <trkpt lat="42.89654" lon="-2.70819">
        <ele>508.8</ele>
        <time>2021-05-29 19:46:34</time>
      </trkpt>
      <trkpt lat="42.89647" lon="-2.70826">
        <ele>508.8</ele>
        <time>2021-05-29 19:46:35</time>
      </trkpt>
      <trkpt lat="42.8964" lon="-2.70833">
        <ele>508.8</ele>
        <time>2021-05-29 19:46:36</time>
      </trkpt>
      <trkpt lat="42.89633" lon="-2.7084">
        <ele>508.8</ele>
        <time>2021-05-29 19:46:37</time>
      </trkpt>
      <trkpt lat="42.89626" lon="-2.70847">
        <ele>508.8</ele>
        <time>2021-05-29 19:46:38</time>
      </trkpt>
      <trkpt lat="42.89619" lon="-2.70854">
        <ele>508.8</ele>
        <time>2021-05-29 19:46:39</time>
      </trkpt>
      <trkpt lat="42.89612" lon="-2.70861">
        <ele>508.8</ele>
        <time>2021-05-29 19:46:40</time>
      </trkpt>
      <trkpt lat="42.89605" lon="-2.70868">
        <ele>508.8</ele>
        <time>2021-05-29 19:46:41</time>
      </trkpt>
      <trkpt lat="42.89598" lon="-2.70875">
        <ele>508.8</ele>
        <time>2021-05-29 19:46:42</time>
      </trkpt>
      <trkpt lat="42.89591" lon="-2.70882">
        <ele>508.8</ele>
        <time>2021-05-29 19:46:43</time>
      </trkpt>
      <trkpt lat="42.89585" lon="-2.70889">
        <ele>508.8</ele>
        <time>2021-05-29 19:46:44</time>
      </trkpt>
      <trkpt lat="42.89578" lon="-2.70896">
        <ele>508.8</ele>
        <time>2021-05-29 19:46:45</time>
      </trkpt>
      <trkpt lat="42.89571" lon="-2.70903">
        <ele>509</ele>
        <time>2021-05-29 19:46:46</time>
      </trkpt>
      <trkpt lat="42.89563" lon="-2.7091">
        <ele>509</ele>
        <time>2021-05-29 19:46:47</time>
      </trkpt>
      <trkpt lat="42.89556" lon="-2.70917">
        <ele>509</ele>
        <time>2021-05-29 19:46:48</time>
      </trkpt>
      <trkpt lat="42.89549" lon="-2.70924">
        <ele>509</ele>
        <time>2021-05-29 19:46:49</time>
      </trkpt>
      <trkpt lat="42.89542" lon="-2.70931">
        <ele>509.2</ele>
        <time>2021-05-29 19:46:50</time>
      </trkpt>
      <trkpt lat="42.89535" lon="-2.70938">
        <ele>509.2</ele>
        <time>2021-05-29 19:46:51</time>
      </trkpt>
      <trkpt lat="42.89528" lon="-2.70945">
        <ele>509.2</ele>
        <time>2021-05-29 19:46:52</time>
      </trkpt>
      <trkpt lat="42.89521" lon="-2.70952">
        <ele>509.2</ele>
        <time>2021-05-29 19:46:53</time>
      </trkpt>
      <trkpt lat="42.89514" lon="-2.70959">
        <ele>509.4</ele>
        <time>2021-05-29 19:46:54</time>
      </trkpt>
      <trkpt lat="42.89507" lon="-2.70966">
        <ele>509.4</ele>
        <time>2021-05-29 19:46:55</time>
      </trkpt>
      <trkpt lat="42.895" lon="-2.70973">
        <ele>509.4</ele>
        <time>2021-05-29 19:46:56</time>
      </trkpt>
      <trkpt lat="42.89493" lon="-2.7098">
        <ele>509.4</ele>
        <time>2021-05-29 19:46:57</time>
      </trkpt>
      <trkpt lat="42.89486" lon="-2.70987">
        <ele>509.4</ele>
        <time>2021-05-29 19:46:58</time>
      </trkpt>
      <trkpt lat="42.89478" lon="-2.70993">
        <ele>509.4</ele>
        <time>2021-05-29 19:46:59</time>
      </trkpt>
      <trkpt lat="42.89471" lon="-2.70998">
        <ele>509.6</ele>
        <time>2021-05-29 19:47:00</time>
      </trkpt>
      <trkpt lat="42.89463" lon="-2.71004">
        <ele>509.6</ele>
        <time>2021-05-29 19:47:01</time>
      </trkpt>
      <trkpt lat="42.89456" lon="-2.71009">
        <ele>509.6</ele>
        <time>2021-05-29 19:47:02</time>
      </trkpt>
      <trkpt lat="42.89448" lon="-2.71015">
        <ele>509.6</ele>
        <time>2021-05-29 19:47:03</time>
      </trkpt>
      <trkpt lat="42.8944" lon="-2.71019">
        <ele>509.6</ele>
        <time>2021-05-29 19:47:04</time>
      </trkpt>
      <trkpt lat="42.89432" lon="-2.71024">
        <ele>509.6</ele>
        <time>2021-05-29 19:47:05</time>
      </trkpt>
      <trkpt lat="42.89424" lon="-2.71029">
        <ele>509.6</ele>
        <time>2021-05-29 19:47:06</time>
      </trkpt>
      <trkpt lat="42.89416" lon="-2.71033">
        <ele>509.6</ele>
        <time>2021-05-29 19:47:07</time>
      </trkpt>
      <trkpt lat="42.89408" lon="-2.71037">
        <ele>509.6</ele>
        <time>2021-05-29 19:47:08</time>
      </trkpt>
      <trkpt lat="42.89399" lon="-2.71041">
        <ele>509.6</ele>
        <time>2021-05-29 19:47:09</time>
      </trkpt>
      <trkpt lat="42.89391" lon="-2.71043">
        <ele>509.6</ele>
        <time>2021-05-29 19:47:10</time>
      </trkpt>
      <trkpt lat="42.89382" lon="-2.71045">
        <ele>509.6</ele>
        <time>2021-05-29 19:47:11</time>
      </trkpt>
      <trkpt lat="42.89373" lon="-2.71044">
        <ele>509.6</ele>
        <time>2021-05-29 19:47:12</time>
      </trkpt>
      <trkpt lat="42.89364" lon="-2.71042">
        <ele>509.6</ele>
        <time>2021-05-29 19:47:13</time>
      </trkpt>
      <trkpt lat="42.89355" lon="-2.71038">
        <ele>509.6</ele>
        <time>2021-05-29 19:47:14</time>
      </trkpt>
      <trkpt lat="42.89347" lon="-2.71032">
        <ele>509.6</ele>
        <time>2021-05-29 19:47:15</time>
      </trkpt>
      <trkpt lat="42.8934" lon="-2.71024">
        <ele>509.6</ele>
        <time>2021-05-29 19:47:16</time>
      </trkpt>
      <trkpt lat="42.89333" lon="-2.71016">
        <ele>509.6</ele>
        <time>2021-05-29 19:47:17</time>
      </trkpt>
      <trkpt lat="42.89326" lon="-2.71007">
        <ele>509.6</ele>
        <time>2021-05-29 19:47:18</time>
      </trkpt>
      <trkpt lat="42.89319" lon="-2.70997">
        <ele>509.4</ele>
        <time>2021-05-29 19:47:19</time>
      </trkpt>
      <trkpt lat="42.89312" lon="-2.70988">
        <ele>509.4</ele>
        <time>2021-05-29 19:47:20</time>
      </trkpt>
      <trkpt lat="42.89305" lon="-2.70978">
        <ele>509.4</ele>
        <time>2021-05-29 19:47:21</time>
      </trkpt>
      <trkpt lat="42.89298" lon="-2.70969">
        <ele>509.4</ele>
        <time>2021-05-29 19:47:22</time>
      </trkpt>
      <trkpt lat="42.8929" lon="-2.70959">
        <ele>509.2</ele>
        <time>2021-05-29 19:47:23</time>
      </trkpt>
      <trkpt lat="42.89283" lon="-2.70949">
        <ele>509.2</ele>
        <time>2021-05-29 19:47:24</time>
      </trkpt>
      <trkpt lat="42.89276" lon="-2.70939">
        <ele>509</ele>
        <time>2021-05-29 19:47:25</time>
      </trkpt>
      <trkpt lat="42.89269" lon="-2.7093">
        <ele>509</ele>
        <time>2021-05-29 19:47:26</time>
      </trkpt>
      <trkpt lat="42.89262" lon="-2.7092">
        <ele>508.8</ele>
        <time>2021-05-29 19:47:27</time>
      </trkpt>
      <trkpt lat="42.89254" lon="-2.7091">
        <ele>508.4</ele>
        <time>2021-05-29 19:47:28</time>
      </trkpt>
      <trkpt lat="42.89247" lon="-2.70901">
        <ele>508.2</ele>
        <time>2021-05-29 19:47:29</time>
      </trkpt>
      <trkpt lat="42.8924" lon="-2.70891">
        <ele>508</ele>
        <time>2021-05-29 19:47:30</time>
      </trkpt>
      <trkpt lat="42.89233" lon="-2.70881">
        <ele>507.8</ele>
        <time>2021-05-29 19:47:31</time>
      </trkpt>
      <trkpt lat="42.89226" lon="-2.70871">
        <ele>507.6</ele>
        <time>2021-05-29 19:47:32</time>
      </trkpt>
      <trkpt lat="42.89218" lon="-2.70862">
        <ele>507.6</ele>
        <time>2021-05-29 19:47:33</time>
      </trkpt>
      <trkpt lat="42.89211" lon="-2.70852">
        <ele>507.6</ele>
        <time>2021-05-29 19:47:34</time>
      </trkpt>
      <trkpt lat="42.89204" lon="-2.70842">
        <ele>507.4</ele>
        <time>2021-05-29 19:47:35</time>
      </trkpt>
      <trkpt lat="42.89197" lon="-2.70832">
        <ele>507.4</ele>
        <time>2021-05-29 19:47:36</time>
      </trkpt>
      <trkpt lat="42.8919" lon="-2.70823">
        <ele>507.4</ele>
        <time>2021-05-29 19:47:37</time>
      </trkpt>
      <trkpt lat="42.89183" lon="-2.70813">
        <ele>507.4</ele>
        <time>2021-05-29 19:47:38</time>
      </trkpt>
      <trkpt lat="42.89176" lon="-2.70804">
        <ele>507.2</ele>
        <time>2021-05-29 19:47:39</time>
      </trkpt>
      <trkpt lat="42.89168" lon="-2.70794">
        <ele>507.2</ele>
        <time>2021-05-29 19:47:40</time>
      </trkpt>
      <trkpt lat="42.89161" lon="-2.70784">
        <ele>507.2</ele>
        <time>2021-05-29 19:47:41</time>
      </trkpt>
      <trkpt lat="42.89154" lon="-2.70774">
        <ele>507</ele>
        <time>2021-05-29 19:47:42</time>
      </trkpt>
      <trkpt lat="42.89147" lon="-2.70765">
        <ele>507</ele>
        <time>2021-05-29 19:47:43</time>
      </trkpt>
      <trkpt lat="42.8914" lon="-2.70755">
        <ele>507</ele>
        <time>2021-05-29 19:47:44</time>
      </trkpt>
      <trkpt lat="42.89132" lon="-2.70745">
        <ele>507</ele>
        <time>2021-05-29 19:47:45</time>
      </trkpt>
      <trkpt lat="42.89125" lon="-2.70736">
        <ele>506.8</ele>
        <time>2021-05-29 19:47:46</time>
      </trkpt>
      <trkpt lat="42.89118" lon="-2.70726">
        <ele>506.8</ele>
        <time>2021-05-29 19:47:47</time>
      </trkpt>
      <trkpt lat="42.89111" lon="-2.70716">
        <ele>506.8</ele>
        <time>2021-05-29 19:47:48</time>
      </trkpt>
      <trkpt lat="42.89104" lon="-2.70706">
        <ele>506.8</ele>
        <time>2021-05-29 19:47:49</time>
      </trkpt>
      <trkpt lat="42.89096" lon="-2.70697">
        <ele>506.8</ele>
        <time>2021-05-29 19:47:50</time>
      </trkpt>
      <trkpt lat="42.89089" lon="-2.70687">
        <ele>506.8</ele>
        <time>2021-05-29 19:47:51</time>
      </trkpt>
      <trkpt lat="42.89082" lon="-2.70678">
        <ele>506.8</ele>
        <time>2021-05-29 19:47:52</time>
      </trkpt>
      <trkpt lat="42.89074" lon="-2.70668">
        <ele>506.8</ele>
        <time>2021-05-29 19:47:53</time>
      </trkpt>
      <trkpt lat="42.89066" lon="-2.7066">
        <ele>506.8</ele>
        <time>2021-05-29 19:47:54</time>
      </trkpt>
      <trkpt lat="42.89058" lon="-2.70653">
        <ele>506.6</ele>
        <time>2021-05-29 19:47:55</time>
      </trkpt>
      <trkpt lat="42.89048" lon="-2.70647">
        <ele>506.6</ele>
        <time>2021-05-29 19:47:56</time>
      </trkpt>
      <trkpt lat="42.89039" lon="-2.70642">
        <ele>506.6</ele>
        <time>2021-05-29 19:47:57</time>
      </trkpt>
      <trkpt lat="42.89029" lon="-2.70638">
        <ele>506.4</ele>
        <time>2021-05-29 19:47:58</time>
      </trkpt>
      <trkpt lat="42.8902" lon="-2.70635">
        <ele>506.4</ele>
        <time>2021-05-29 19:47:59</time>
      </trkpt>
      <trkpt lat="42.8901" lon="-2.70632">
        <ele>506.4</ele>
        <time>2021-05-29 19:48:00</time>
      </trkpt>
      <trkpt lat="42.89" lon="-2.70629">
        <ele>506.4</ele>
        <time>2021-05-29 19:48:01</time>
      </trkpt>
      <trkpt lat="42.88991" lon="-2.70626">
        <ele>506.2</ele>
        <time>2021-05-29 19:48:02</time>
      </trkpt>
      <trkpt lat="42.88981" lon="-2.70623">
        <ele>506.2</ele>
        <time>2021-05-29 19:48:03</time>
      </trkpt>
      <trkpt lat="42.88971" lon="-2.7062">
        <ele>506</ele>
        <time>2021-05-29 19:48:04</time>
      </trkpt>
      <trkpt lat="42.88962" lon="-2.70616">
        <ele>506</ele>
        <time>2021-05-29 19:48:05</time>
      </trkpt>
      <trkpt lat="42.88953" lon="-2.70614">
        <ele>506</ele>
        <time>2021-05-29 19:48:06</time>
      </trkpt>
      <trkpt lat="42.88943" lon="-2.70611">
        <ele>506</ele>
        <time>2021-05-29 19:48:07</time>
      </trkpt>
      <trkpt lat="42.88934" lon="-2.70609">
        <ele>506</ele>
        <time>2021-05-29 19:48:08</time>
      </trkpt>
      <trkpt lat="42.88925" lon="-2.70608">
        <ele>506</ele>
        <time>2021-05-29 19:48:09</time>
      </trkpt>
      <trkpt lat="42.88916" lon="-2.70608">
        <ele>506</ele>
        <time>2021-05-29 19:48:10</time>
      </trkpt>
      <trkpt lat="42.88906" lon="-2.7061">
        <ele>506</ele>
        <time>2021-05-29 19:48:11</time>
      </trkpt>
      <trkpt lat="42.88897" lon="-2.70613">
        <ele>506</ele>
        <time>2021-05-29 19:48:12</time>
      </trkpt>
      <trkpt lat="42.88889" lon="-2.70617">
        <ele>506</ele>
        <time>2021-05-29 19:48:13</time>
      </trkpt>
      <trkpt lat="42.8888" lon="-2.70622">
        <ele>506</ele>
        <time>2021-05-29 19:48:14</time>
      </trkpt>
      <trkpt lat="42.88873" lon="-2.70628">
        <ele>506</ele>
        <time>2021-05-29 19:48:15</time>
      </trkpt>
      <trkpt lat="42.88866" lon="-2.70635">
        <ele>506</ele>
        <time>2021-05-29 19:48:16</time>
      </trkpt>
      <trkpt lat="42.8886" lon="-2.70642">
        <ele>506</ele>
        <time>2021-05-29 19:48:17</time>
      </trkpt>
      <trkpt lat="42.88854" lon="-2.7065">
        <ele>505.8</ele>
        <time>2021-05-29 19:48:18</time>
      </trkpt>
      <trkpt lat="42.88848" lon="-2.70656">
        <ele>505.8</ele>
        <time>2021-05-29 19:48:19</time>
      </trkpt>
      <trkpt lat="42.88842" lon="-2.7066">
        <ele>505.8</ele>
        <time>2021-05-29 19:48:20</time>
      </trkpt>
      <trkpt lat="42.88836" lon="-2.70664">
        <ele>505.8</ele>
        <time>2021-05-29 19:48:21</time>
      </trkpt>
      <trkpt lat="42.8883" lon="-2.70667">
        <ele>506</ele>
        <time>2021-05-29 19:48:22</time>
      </trkpt>
      <trkpt lat="42.88824" lon="-2.70668">
        <ele>506</ele>
        <time>2021-05-29 19:48:23</time>
      </trkpt>
      <trkpt lat="42.88818" lon="-2.70668">
        <ele>506</ele>
        <time>2021-05-29 19:48:24</time>
      </trkpt>
      <trkpt lat="42.88813" lon="-2.70666">
        <ele>506</ele>
        <time>2021-05-29 19:48:25</time>
      </trkpt>
      <trkpt lat="42.88809" lon="-2.70662">
        <ele>506</ele>
        <time>2021-05-29 19:48:26</time>
      </trkpt>
      <trkpt lat="42.88806" lon="-2.70657">
        <ele>506</ele>
        <time>2021-05-29 19:48:27</time>
      </trkpt>
      <trkpt lat="42.88804" lon="-2.70654">
        <ele>506</ele>
        <time>2021-05-29 19:48:28</time>
      </trkpt>
      <trkpt lat="42.88801" lon="-2.70651">
        <ele>506</ele>
        <time>2021-05-29 19:48:29</time>
      </trkpt>
      <trkpt lat="42.88798" lon="-2.70651">
        <ele>506</ele>
        <time>2021-05-29 19:48:30</time>
      </trkpt>
      <trkpt lat="42.88794" lon="-2.70651">
        <ele>506</ele>
        <time>2021-05-29 19:48:31</time>
      </trkpt>
      <trkpt lat="42.8879" lon="-2.70653">
        <ele>505.8</ele>
        <time>2021-05-29 19:48:32</time>
      </trkpt>
      <trkpt lat="42.88786" lon="-2.70654">
        <ele>505.8</ele>
        <time>2021-05-29 19:48:33</time>
      </trkpt>
      <trkpt lat="42.88781" lon="-2.70656">
        <ele>505.8</ele>
        <time>2021-05-29 19:48:34</time>
      </trkpt>
      <trkpt lat="42.88776" lon="-2.70658">
        <ele>505.8</ele>
        <time>2021-05-29 19:48:35</time>
      </trkpt>
      <trkpt lat="42.8877" lon="-2.70659">
        <ele>505.8</ele>
        <time>2021-05-29 19:48:36</time>
      </trkpt>
      <trkpt lat="42.88765" lon="-2.7066">
        <ele>505.6</ele>
        <time>2021-05-29 19:48:37</time>
      </trkpt>
      <trkpt lat="42.8876" lon="-2.70662">
        <ele>505.6</ele>
        <time>2021-05-29 19:48:38</time>
      </trkpt>
      <trkpt lat="42.88754" lon="-2.70663">
        <ele>505.6</ele>
        <time>2021-05-29 19:48:39</time>
      </trkpt>
      <trkpt lat="42.88747" lon="-2.70664">
        <ele>505.6</ele>
        <time>2021-05-29 19:48:40</time>
      </trkpt>
      <trkpt lat="42.88741" lon="-2.70665">
        <ele>505.6</ele>
        <time>2021-05-29 19:48:41</time>
      </trkpt>
      <trkpt lat="42.88734" lon="-2.70667">
        <ele>505.6</ele>
        <time>2021-05-29 19:48:42</time>
      </trkpt>
      <trkpt lat="42.88727" lon="-2.70668">
        <ele>505.6</ele>
        <time>2021-05-29 19:48:43</time>
      </trkpt>
      <trkpt lat="42.8872" lon="-2.7067">
        <ele>505.6</ele>
        <time>2021-05-29 19:48:44</time>
      </trkpt>
      <trkpt lat="42.88713" lon="-2.70671">
        <ele>505.6</ele>
        <time>2021-05-29 19:48:45</time>
      </trkpt>
      <trkpt lat="42.88706" lon="-2.70673">
        <ele>505.6</ele>
        <time>2021-05-29 19:48:46</time>
      </trkpt>
      <trkpt lat="42.88698" lon="-2.70674">
        <ele>505.6</ele>
        <time>2021-05-29 19:48:47</time>
      </trkpt>
      <trkpt lat="42.88691" lon="-2.70675">
        <ele>505.4</ele>
        <time>2021-05-29 19:48:48</time>
      </trkpt>
      <trkpt lat="42.88683" lon="-2.70677">
        <ele>505.4</ele>
        <time>2021-05-29 19:48:49</time>
      </trkpt>
      <trkpt lat="42.88675" lon="-2.70679">
        <ele>505.4</ele>
        <time>2021-05-29 19:48:50</time>
      </trkpt>
      <trkpt lat="42.88668" lon="-2.7068">
        <ele>505.4</ele>
        <time>2021-05-29 19:48:51</time>
      </trkpt>
      <trkpt lat="42.8866" lon="-2.70682">
        <ele>505.4</ele>
        <time>2021-05-29 19:48:52</time>
      </trkpt>
      <trkpt lat="42.88652" lon="-2.70684">
        <ele>505.4</ele>
        <time>2021-05-29 19:48:53</time>
      </trkpt>
      <trkpt lat="42.88644" lon="-2.70686">
        <ele>505.4</ele>
        <time>2021-05-29 19:48:54</time>
      </trkpt>
      <trkpt lat="42.88636" lon="-2.70687">
        <ele>505.4</ele>
        <time>2021-05-29 19:48:55</time>
      </trkpt>
      <trkpt lat="42.88629" lon="-2.70689">
        <ele>505.4</ele>
        <time>2021-05-29 19:48:56</time>
      </trkpt>
      <trkpt lat="42.88621" lon="-2.7069">
        <ele>505.4</ele>
        <time>2021-05-29 19:48:57</time>
      </trkpt>
      <trkpt lat="42.88613" lon="-2.70692">
        <ele>505.4</ele>
        <time>2021-05-29 19:48:58</time>
      </trkpt>
      <trkpt lat="42.88605" lon="-2.70694">
        <ele>505.2</ele>
        <time>2021-05-29 19:48:59</time>
      </trkpt>
      <trkpt lat="42.88597" lon="-2.70696">
        <ele>505.2</ele>
        <time>2021-05-29 19:49:00</time>
      </trkpt>
      <trkpt lat="42.88589" lon="-2.70697">
        <ele>505.2</ele>
        <time>2021-05-29 19:49:01</time>
      </trkpt>
      <trkpt lat="42.8858" lon="-2.70699">
        <ele>505</ele>
        <time>2021-05-29 19:49:02</time>
      </trkpt>
      <trkpt lat="42.88572" lon="-2.70701">
        <ele>505</ele>
        <time>2021-05-29 19:49:03</time>
      </trkpt>
      <trkpt lat="42.88564" lon="-2.70703">
        <ele>505</ele>
        <time>2021-05-29 19:49:04</time>
      </trkpt>
      <trkpt lat="42.88556" lon="-2.70704">
        <ele>505</ele>
        <time>2021-05-29 19:49:05</time>
      </trkpt>
      <trkpt lat="42.88548" lon="-2.70705">
        <ele>505</ele>
        <time>2021-05-29 19:49:06</time>
      </trkpt>
      <trkpt lat="42.8854" lon="-2.70706">
        <ele>504.8</ele>
        <time>2021-05-29 19:49:07</time>
      </trkpt>
      <trkpt lat="42.88533" lon="-2.70706">
        <ele>504.8</ele>
        <time>2021-05-29 19:49:08</time>
      </trkpt>
      <trkpt lat="42.88527" lon="-2.70708">
        <ele>504.8</ele>
        <time>2021-05-29 19:49:09</time>
      </trkpt>
      <trkpt lat="42.88522" lon="-2.70708">
        <ele>504.6</ele>
        <time>2021-05-29 19:49:10</time>
      </trkpt>
      <trkpt lat="42.88519" lon="-2.70709">
        <ele>504.6</ele>
        <time>2021-05-29 19:49:11</time>
      </trkpt>
      <trkpt lat="42.88517" lon="-2.70709">
        <ele>504.4</ele>
        <time>2021-05-29 19:49:12</time>
      </trkpt>
      <trkpt lat="42.88516" lon="-2.7071">
        <ele>504.4</ele>
        <time>2021-05-29 19:49:13</time>
      </trkpt>
      <trkpt lat="42.88515" lon="-2.70712">
        <ele>504.4</ele>
        <time>2021-05-29 19:49:14</time>
      </trkpt>
      <trkpt lat="42.88516" lon="-2.70714">
        <ele>504.4</ele>
        <time>2021-05-29 19:49:15</time>
      </trkpt>
      <trkpt lat="42.88518" lon="-2.70714">
        <ele>504.4</ele>
        <time>2021-05-29 19:49:16</time>
      </trkpt>
      <trkpt lat="42.88522" lon="-2.70712">
        <ele>504.4</ele>
        <time>2021-05-29 19:49:17</time>
      </trkpt>
      <trkpt lat="42.88525" lon="-2.70711">
        <ele>504.2</ele>
        <time>2021-05-29 19:49:18</time>
      </trkpt>
      <trkpt lat="42.8853" lon="-2.7071">
        <ele>504.2</ele>
        <time>2021-05-29 19:49:19</time>
      </trkpt>
      <trkpt lat="42.88535" lon="-2.70709">
        <ele>504.2</ele>
        <time>2021-05-29 19:49:20</time>
      </trkpt>
      <trkpt lat="42.8854" lon="-2.70708">
        <ele>504.2</ele>
        <time>2021-05-29 19:49:21</time>
      </trkpt>
      <trkpt lat="42.88545" lon="-2.70707">
        <ele>504.2</ele>
        <time>2021-05-29 19:49:22</time>
      </trkpt>
      <trkpt lat="42.8855" lon="-2.70705">
        <ele>504.2</ele>
        <time>2021-05-29 19:49:23</time>
      </trkpt>
      <trkpt lat="42.88555" lon="-2.70704">
        <ele>504.2</ele>
        <time>2021-05-29 19:49:24</time>
      </trkpt>
      <trkpt lat="42.8856" lon="-2.70704">
        <ele>504.2</ele>
        <time>2021-05-29 19:49:25</time>
      </trkpt>
      <trkpt lat="42.88565" lon="-2.70703">
        <ele>504.2</ele>
        <time>2021-05-29 19:49:26</time>
      </trkpt>
      <trkpt lat="42.88569" lon="-2.70703">
        <ele>504.4</ele>
        <time>2021-05-29 19:49:27</time>
      </trkpt>
      <trkpt lat="42.88574" lon="-2.70702">
        <ele>504.4</ele>
        <time>2021-05-29 19:49:28</time>
      </trkpt>
      <trkpt lat="42.88577" lon="-2.70701">
        <ele>504.4</ele>
        <time>2021-05-29 19:49:29</time>
      </trkpt>
      <trkpt lat="42.88581" lon="-2.707">
        <ele>504.4</ele>
        <time>2021-05-29 19:49:30</time>
      </trkpt>
      <trkpt lat="42.88584" lon="-2.707">
        <ele>504.6</ele>
        <time>2021-05-29 19:49:31</time>
      </trkpt>
      <trkpt lat="42.88587" lon="-2.70699">
        <ele>504.6</ele>
        <time>2021-05-29 19:49:32</time>
      </trkpt>
      <trkpt lat="42.8859" lon="-2.70698">
        <ele>504.6</ele>
        <time>2021-05-29 19:49:33</time>
      </trkpt>
      <trkpt lat="42.88593" lon="-2.70698">
        <ele>504.6</ele>
        <time>2021-05-29 19:49:34</time>
      </trkpt>
      <trkpt lat="42.88595" lon="-2.70697">
        <ele>504.6</ele>
        <time>2021-05-29 19:49:35</time>
      </trkpt>
      <trkpt lat="42.88596" lon="-2.70697">
        <ele>504.6</ele>
        <time>2021-05-29 19:49:36</time>
      </trkpt>
      <trkpt lat="42.88596" lon="-2.70697">
        <ele>504.6</ele>
        <time>2021-05-29 19:49:37</time>
      </trkpt>
      <trkpt lat="42.88588" lon="-2.70695">
        <ele>504.6</ele>
        <time>2021-05-29 19:49:44</time>
      </trkpt>
      <trkpt lat="42.88586" lon="-2.70696">
        <ele>504.6</ele>
        <time>2021-05-29 19:49:45</time>
      </trkpt>
      <trkpt lat="42.88582" lon="-2.70697">
        <ele>504.6</ele>
        <time>2021-05-29 19:49:46</time>
      </trkpt>
      <trkpt lat="42.88578" lon="-2.70698">
        <ele>504.6</ele>
        <time>2021-05-29 19:49:47</time>
      </trkpt>
      <trkpt lat="42.88575" lon="-2.707">
        <ele>504.6</ele>
        <time>2021-05-29 19:49:48</time>
      </trkpt>
      <trkpt lat="42.88571" lon="-2.70701">
        <ele>504.6</ele>
        <time>2021-05-29 19:49:49</time>
      </trkpt>
      <trkpt lat="42.88567" lon="-2.70702">
        <ele>504.6</ele>
        <time>2021-05-29 19:49:50</time>
      </trkpt>
      <trkpt lat="42.88563" lon="-2.70703">
        <ele>504.6</ele>
        <time>2021-05-29 19:49:51</time>
      </trkpt>
      <trkpt lat="42.88559" lon="-2.70704">
        <ele>504.6</ele>
        <time>2021-05-29 19:49:52</time>
      </trkpt>
      <trkpt lat="42.88554" lon="-2.70705">
        <ele>504.6</ele>
        <time>2021-05-29 19:49:53</time>
      </trkpt>
      <trkpt lat="42.8855" lon="-2.70705">
        <ele>504.6</ele>
        <time>2021-05-29 19:49:54</time>
      </trkpt>
      <trkpt lat="42.88544" lon="-2.70706">
        <ele>504.4</ele>
        <time>2021-05-29 19:49:55</time>
      </trkpt>
      <trkpt lat="42.88539" lon="-2.70707">
        <ele>504.4</ele>
        <time>2021-05-29 19:49:56</time>
      </trkpt>
      <trkpt lat="42.88533" lon="-2.70708">
        <ele>504.4</ele>
        <time>2021-05-29 19:49:57</time>
      </trkpt>
      <trkpt lat="42.88527" lon="-2.7071">
        <ele>504.4</ele>
        <time>2021-05-29 19:49:58</time>
      </trkpt>
      <trkpt lat="42.8852" lon="-2.70711">
        <ele>504.4</ele>
        <time>2021-05-29 19:49:59</time>
      </trkpt>
      <trkpt lat="42.88514" lon="-2.70713">
        <ele>504.2</ele>
        <time>2021-05-29 19:50:00</time>
      </trkpt>
      <trkpt lat="42.88507" lon="-2.70714">
        <ele>504.2</ele>
        <time>2021-05-29 19:50:01</time>
      </trkpt>
      <trkpt lat="42.885" lon="-2.70716">
        <ele>504.2</ele>
        <time>2021-05-29 19:50:02</time>
      </trkpt>
      <trkpt lat="42.88493" lon="-2.70718">
        <ele>504.2</ele>
        <time>2021-05-29 19:50:03</time>
      </trkpt>
      <trkpt lat="42.88486" lon="-2.70721">
        <ele>504.2</ele>
        <time>2021-05-29 19:50:04</time>
      </trkpt>
      <trkpt lat="42.88479" lon="-2.70724">
        <ele>504.2</ele>
        <time>2021-05-29 19:50:05</time>
      </trkpt>
      <trkpt lat="42.88472" lon="-2.70727">
        <ele>504.2</ele>
        <time>2021-05-29 19:50:06</time>
      </trkpt>
      <trkpt lat="42.88465" lon="-2.70731">
        <ele>504.2</ele>
        <time>2021-05-29 19:50:07</time>
      </trkpt>
      <trkpt lat="42.88458" lon="-2.70736">
        <ele>504.2</ele>
        <time>2021-05-29 19:50:08</time>
      </trkpt>
      <trkpt lat="42.8845" lon="-2.7074">
        <ele>504</ele>
        <time>2021-05-29 19:50:09</time>
      </trkpt>
      <trkpt lat="42.88443" lon="-2.70744">
        <ele>504</ele>
        <time>2021-05-29 19:50:10</time>
      </trkpt>
      <trkpt lat="42.88436" lon="-2.70748">
        <ele>504</ele>
        <time>2021-05-29 19:50:11</time>
      </trkpt>
      <trkpt lat="42.88428" lon="-2.70752">
        <ele>504</ele>
        <time>2021-05-29 19:50:12</time>
      </trkpt>
      <trkpt lat="42.88421" lon="-2.70756">
        <ele>504</ele>
        <time>2021-05-29 19:50:13</time>
      </trkpt>
      <trkpt lat="42.88414" lon="-2.7076">
        <ele>504</ele>
        <time>2021-05-29 19:50:14</time>
      </trkpt>
      <trkpt lat="42.88407" lon="-2.70765">
        <ele>504</ele>
        <time>2021-05-29 19:50:15</time>
      </trkpt>
      <trkpt lat="42.88399" lon="-2.70769">
        <ele>504</ele>
        <time>2021-05-29 19:50:16</time>
      </trkpt>
      <trkpt lat="42.88392" lon="-2.70774">
        <ele>503.8</ele>
        <time>2021-05-29 19:50:17</time>
      </trkpt>
      <trkpt lat="42.88385" lon="-2.70778">
        <ele>503.8</ele>
        <time>2021-05-29 19:50:18</time>
      </trkpt>
      <trkpt lat="42.88377" lon="-2.70782">
        <ele>503.8</ele>
        <time>2021-05-29 19:50:19</time>
      </trkpt>
      <trkpt lat="42.8837" lon="-2.70787">
        <ele>503.8</ele>
        <time>2021-05-29 19:50:20</time>
      </trkpt>
      <trkpt lat="42.88363" lon="-2.70791">
        <ele>503.8</ele>
        <time>2021-05-29 19:50:21</time>
      </trkpt>
      <trkpt lat="42.88355" lon="-2.70795">
        <ele>503.8</ele>
        <time>2021-05-29 19:50:22</time>
      </trkpt>
      <trkpt lat="42.88348" lon="-2.70799">
        <ele>503.6</ele>
        <time>2021-05-29 19:50:23</time>
      </trkpt>
      <trkpt lat="42.88341" lon="-2.70804">
        <ele>503.6</ele>
        <time>2021-05-29 19:50:24</time>
      </trkpt>
      <trkpt lat="42.88333" lon="-2.70808">
        <ele>503.6</ele>
        <time>2021-05-29 19:50:25</time>
      </trkpt>
      <trkpt lat="42.88326" lon="-2.70812">
        <ele>503.6</ele>
        <time>2021-05-29 19:50:26</time>
      </trkpt>
      <trkpt lat="42.88318" lon="-2.70816">
        <ele>503.6</ele>
        <time>2021-05-29 19:50:27</time>
      </trkpt>
      <trkpt lat="42.88311" lon="-2.70821">
        <ele>503.6</ele>
        <time>2021-05-29 19:50:28</time>
      </trkpt>
      <trkpt lat="42.88304" lon="-2.70825">
        <ele>503.6</ele>
        <time>2021-05-29 19:50:29</time>
      </trkpt>
      <trkpt lat="42.88296" lon="-2.70829">
        <ele>503.6</ele>
        <time>2021-05-29 19:50:30</time>
      </trkpt>
      <trkpt lat="42.88289" lon="-2.70834">
        <ele>503.6</ele>
        <time>2021-05-29 19:50:31</time>
      </trkpt>
      <trkpt lat="42.88281" lon="-2.70838">
        <ele>503.6</ele>
        <time>2021-05-29 19:50:32</time>
      </trkpt>
      <trkpt lat="42.88274" lon="-2.70843">
        <ele>503.6</ele>
        <time>2021-05-29 19:50:33</time>
      </trkpt>
      <trkpt lat="42.88267" lon="-2.70847">
        <ele>503.6</ele>
        <time>2021-05-29 19:50:34</time>
      </trkpt>
      <trkpt lat="42.88259" lon="-2.70851">
        <ele>503.6</ele>
        <time>2021-05-29 19:50:35</time>
      </trkpt>
      <trkpt lat="42.88252" lon="-2.70855">
        <ele>503.6</ele>
        <time>2021-05-29 19:50:36</time>
      </trkpt>
      <trkpt lat="42.88244" lon="-2.7086">
        <ele>503.6</ele>
        <time>2021-05-29 19:50:37</time>
      </trkpt>
      <trkpt lat="42.88237" lon="-2.70864">
        <ele>503.6</ele>
        <time>2021-05-29 19:50:38</time>
      </trkpt>
      <trkpt lat="42.88229" lon="-2.70868">
        <ele>503.6</ele>
        <time>2021-05-29 19:50:39</time>
      </trkpt>
      <trkpt lat="42.88222" lon="-2.70873">
        <ele>503.6</ele>
        <time>2021-05-29 19:50:40</time>
      </trkpt>
      <trkpt lat="42.88214" lon="-2.70877">
        <ele>503.6</ele>
        <time>2021-05-29 19:50:41</time>
      </trkpt>
      <trkpt lat="42.88207" lon="-2.70881">
        <ele>503.4</ele>
        <time>2021-05-29 19:50:42</time>
      </trkpt>
      <trkpt lat="42.88199" lon="-2.70885">
        <ele>503.4</ele>
        <time>2021-05-29 19:50:43</time>
      </trkpt>
      <trkpt lat="42.88191" lon="-2.70889">
        <ele>503.4</ele>
        <time>2021-05-29 19:50:44</time>
      </trkpt>
      <trkpt lat="42.88184" lon="-2.70893">
        <ele>503.4</ele>
        <time>2021-05-29 19:50:45</time>
      </trkpt>
      <trkpt lat="42.88176" lon="-2.70896">
        <ele>503.4</ele>
        <time>2021-05-29 19:50:46</time>
      </trkpt>
      <trkpt lat="42.88168" lon="-2.70899">
        <ele>503.4</ele>
        <time>2021-05-29 19:50:47</time>
      </trkpt>
      <trkpt lat="42.8816" lon="-2.70902">
        <ele>503.4</ele>
        <time>2021-05-29 19:50:48</time>
      </trkpt>
      <trkpt lat="42.88152" lon="-2.70904">
        <ele>503.4</ele>
        <time>2021-05-29 19:50:49</time>
      </trkpt>
      <trkpt lat="42.88145" lon="-2.70905">
        <ele>503.4</ele>
        <time>2021-05-29 19:50:50</time>
      </trkpt>
      <trkpt lat="42.88137" lon="-2.70905">
        <ele>503.4</ele>
        <time>2021-05-29 19:50:51</time>
      </trkpt>
      <trkpt lat="42.88129" lon="-2.70906">
        <ele>503.4</ele>
        <time>2021-05-29 19:50:52</time>
      </trkpt>
      <trkpt lat="42.88122" lon="-2.70905">
        <ele>503.6</ele>
        <time>2021-05-29 19:50:53</time>
      </trkpt>
      <trkpt lat="42.88115" lon="-2.70905">
        <ele>503.6</ele>
        <time>2021-05-29 19:50:54</time>
      </trkpt>
      <trkpt lat="42.88108" lon="-2.70904">
        <ele>503.6</ele>
        <time>2021-05-29 19:50:55</time>
      </trkpt>
      <trkpt lat="42.88101" lon="-2.70903">
        <ele>503.6</ele>
        <time>2021-05-29 19:50:56</time>
      </trkpt>
      <trkpt lat="42.88094" lon="-2.70901">
        <ele>503.8</ele>
        <time>2021-05-29 19:50:57</time>
      </trkpt>
      <trkpt lat="42.88088" lon="-2.709">
        <ele>504</ele>
        <time>2021-05-29 19:50:58</time>
      </trkpt>
      <trkpt lat="42.88081" lon="-2.70898">
        <ele>504.2</ele>
        <time>2021-05-29 19:50:59</time>
      </trkpt>
      <trkpt lat="42.88075" lon="-2.70896">
        <ele>504.4</ele>
        <time>2021-05-29 19:51:00</time>
      </trkpt>
      <trkpt lat="42.88069" lon="-2.70895">
        <ele>504.8</ele>
        <time>2021-05-29 19:51:01</time>
      </trkpt>
      <trkpt lat="42.88063" lon="-2.70893">
        <ele>505</ele>
        <time>2021-05-29 19:51:02</time>
      </trkpt>
      <trkpt lat="42.88056" lon="-2.70891">
        <ele>505.4</ele>
        <time>2021-05-29 19:51:03</time>
      </trkpt>
      <trkpt lat="42.8805" lon="-2.70889">
        <ele>505.6</ele>
        <time>2021-05-29 19:51:04</time>
      </trkpt>
      <trkpt lat="42.88044" lon="-2.70887">
        <ele>505.8</ele>
        <time>2021-05-29 19:51:05</time>
      </trkpt>
      <trkpt lat="42.88038" lon="-2.70885">
        <ele>506.2</ele>
        <time>2021-05-29 19:51:06</time>
      </trkpt>
      <trkpt lat="42.88032" lon="-2.70883">
        <ele>506.6</ele>
        <time>2021-05-29 19:51:07</time>
      </trkpt>
      <trkpt lat="42.88026" lon="-2.70881">
        <ele>506.8</ele>
        <time>2021-05-29 19:51:08</time>
      </trkpt>
      <trkpt lat="42.88019" lon="-2.70879">
        <ele>507.2</ele>
        <time>2021-05-29 19:51:09</time>
      </trkpt>
      <trkpt lat="42.88013" lon="-2.70877">
        <ele>507.4</ele>
        <time>2021-05-29 19:51:10</time>
      </trkpt>
      <trkpt lat="42.88006" lon="-2.70876">
        <ele>507.8</ele>
        <time>2021-05-29 19:51:11</time>
      </trkpt>
      <trkpt lat="42.88" lon="-2.70874">
        <ele>508.2</ele>
        <time>2021-05-29 19:51:12</time>
      </trkpt>
      <trkpt lat="42.87993" lon="-2.70873">
        <ele>508.6</ele>
        <time>2021-05-29 19:51:13</time>
      </trkpt>
      <trkpt lat="42.87986" lon="-2.70872">
        <ele>509</ele>
        <time>2021-05-29 19:51:14</time>
      </trkpt>
      <trkpt lat="42.8798" lon="-2.70872">
        <ele>509.2</ele>
        <time>2021-05-29 19:51:15</time>
      </trkpt>
      <trkpt lat="42.87973" lon="-2.70872">
        <ele>509.6</ele>
        <time>2021-05-29 19:51:16</time>
      </trkpt>
      <trkpt lat="42.87966" lon="-2.70873">
        <ele>509.8</ele>
        <time>2021-05-29 19:51:17</time>
      </trkpt>
      <trkpt lat="42.87959" lon="-2.70873">
        <ele>510</ele>
        <time>2021-05-29 19:51:18</time>
      </trkpt>
      <trkpt lat="42.87952" lon="-2.70875">
        <ele>510.2</ele>
        <time>2021-05-29 19:51:19</time>
      </trkpt>
      <trkpt lat="42.87945" lon="-2.70876">
        <ele>510.4</ele>
        <time>2021-05-29 19:51:20</time>
      </trkpt>
      <trkpt lat="42.87938" lon="-2.70878">
        <ele>510.4</ele>
        <time>2021-05-29 19:51:21</time>
      </trkpt>
      <trkpt lat="42.87931" lon="-2.70879">
        <ele>510.6</ele>
        <time>2021-05-29 19:51:22</time>
      </trkpt>
      <trkpt lat="42.87924" lon="-2.7088">
        <ele>510.6</ele>
        <time>2021-05-29 19:51:23</time>
      </trkpt>
      <trkpt lat="42.87917" lon="-2.70878">
        <ele>510.8</ele>
        <time>2021-05-29 19:51:24</time>
      </trkpt>
      <trkpt lat="42.8791" lon="-2.70875">
        <ele>510.8</ele>
        <time>2021-05-29 19:51:25</time>
      </trkpt>
      <trkpt lat="42.87905" lon="-2.70869">
        <ele>510.8</ele>
        <time>2021-05-29 19:51:26</time>
      </trkpt>
      <trkpt lat="42.87901" lon="-2.70862">
        <ele>510.8</ele>
        <time>2021-05-29 19:51:27</time>
      </trkpt>
      <trkpt lat="42.87898" lon="-2.70853">
        <ele>511</ele>
        <time>2021-05-29 19:51:28</time>
      </trkpt>
      <trkpt lat="42.87896" lon="-2.70844">
        <ele>511</ele>
        <time>2021-05-29 19:51:29</time>
      </trkpt>
      <trkpt lat="42.87895" lon="-2.70834">
        <ele>511</ele>
        <time>2021-05-29 19:51:30</time>
      </trkpt>
      <trkpt lat="42.87894" lon="-2.70825">
        <ele>511</ele>
        <time>2021-05-29 19:51:31</time>
      </trkpt>
      <trkpt lat="42.87893" lon="-2.70815">
        <ele>511.2</ele>
        <time>2021-05-29 19:51:32</time>
      </trkpt>
      <trkpt lat="42.87892" lon="-2.70805">
        <ele>511.4</ele>
        <time>2021-05-29 19:51:33</time>
      </trkpt>
      <trkpt lat="42.87891" lon="-2.70795">
        <ele>511.4</ele>
        <time>2021-05-29 19:51:34</time>
      </trkpt>
      <trkpt lat="42.87891" lon="-2.70784">
        <ele>511.6</ele>
        <time>2021-05-29 19:51:35</time>
      </trkpt>
      <trkpt lat="42.8789" lon="-2.70774">
        <ele>511.6</ele>
        <time>2021-05-29 19:51:36</time>
      </trkpt>
      <trkpt lat="42.87889" lon="-2.70763">
        <ele>511.6</ele>
        <time>2021-05-29 19:51:37</time>
      </trkpt>
      <trkpt lat="42.87888" lon="-2.70751">
        <ele>511.6</ele>
        <time>2021-05-29 19:51:38</time>
      </trkpt>
      <trkpt lat="42.87888" lon="-2.70739">
        <ele>511.6</ele>
        <time>2021-05-29 19:51:39</time>
      </trkpt>
      <trkpt lat="42.87887" lon="-2.70727">
        <ele>511.6</ele>
        <time>2021-05-29 19:51:40</time>
      </trkpt>
      <trkpt lat="42.87887" lon="-2.70715">
        <ele>511.6</ele>
        <time>2021-05-29 19:51:41</time>
      </trkpt>
      <trkpt lat="42.87887" lon="-2.70702">
        <ele>511.6</ele>
        <time>2021-05-29 19:51:42</time>
      </trkpt>
      <trkpt lat="42.87886" lon="-2.70689">
        <ele>511.6</ele>
        <time>2021-05-29 19:51:43</time>
      </trkpt>
      <trkpt lat="42.87886" lon="-2.70676">
        <ele>511.6</ele>
        <time>2021-05-29 19:51:44</time>
      </trkpt>
      <trkpt lat="42.87885" lon="-2.70663">
        <ele>511.4</ele>
        <time>2021-05-29 19:51:45</time>
      </trkpt>
      <trkpt lat="42.87884" lon="-2.70649">
        <ele>511.2</ele>
        <time>2021-05-29 19:51:46</time>
      </trkpt>
      <trkpt lat="42.87882" lon="-2.70635">
        <ele>511</ele>
        <time>2021-05-29 19:51:47</time>
      </trkpt>
      <trkpt lat="42.8788" lon="-2.70622">
        <ele>510.6</ele>
        <time>2021-05-29 19:51:48</time>
      </trkpt>
      <trkpt lat="42.87877" lon="-2.70608">
        <ele>509.8</ele>
        <time>2021-05-29 19:51:49</time>
      </trkpt>
      <trkpt lat="42.87874" lon="-2.70594">
        <ele>509</ele>
        <time>2021-05-29 19:51:50</time>
      </trkpt>
      <trkpt lat="42.87872" lon="-2.70581">
        <ele>508.4</ele>
        <time>2021-05-29 19:51:51</time>
      </trkpt>
      <trkpt lat="42.87869" lon="-2.70567">
        <ele>507.8</ele>
        <time>2021-05-29 19:51:52</time>
      </trkpt>
      <trkpt lat="42.87865" lon="-2.70554">
        <ele>507.4</ele>
        <time>2021-05-29 19:51:53</time>
      </trkpt>
      <trkpt lat="42.87862" lon="-2.7054">
        <ele>507</ele>
        <time>2021-05-29 19:51:54</time>
      </trkpt>
      <trkpt lat="42.87858" lon="-2.70527">
        <ele>506.2</ele>
        <time>2021-05-29 19:51:55</time>
      </trkpt>
      <trkpt lat="42.87854" lon="-2.70514">
        <ele>505.6</ele>
        <time>2021-05-29 19:51:56</time>
      </trkpt>
      <trkpt lat="42.87851" lon="-2.70501">
        <ele>504.8</ele>
        <time>2021-05-29 19:51:57</time>
      </trkpt>
      <trkpt lat="42.87847" lon="-2.70488">
        <ele>504.2</ele>
        <time>2021-05-29 19:51:58</time>
      </trkpt>
      <trkpt lat="42.87843" lon="-2.70475">
        <ele>503.6</ele>
        <time>2021-05-29 19:51:59</time>
      </trkpt>
      <trkpt lat="42.8784" lon="-2.70462">
        <ele>503.2</ele>
        <time>2021-05-29 19:52:00</time>
      </trkpt>
      <trkpt lat="42.87836" lon="-2.7045">
        <ele>503</ele>
        <time>2021-05-29 19:52:01</time>
      </trkpt>
      <trkpt lat="42.87833" lon="-2.70437">
        <ele>502.8</ele>
        <time>2021-05-29 19:52:02</time>
      </trkpt>
      <trkpt lat="42.8783" lon="-2.70424">
        <ele>502.6</ele>
        <time>2021-05-29 19:52:03</time>
      </trkpt>
      <trkpt lat="42.87826" lon="-2.70412">
        <ele>502.6</ele>
        <time>2021-05-29 19:52:04</time>
      </trkpt>
      <trkpt lat="42.87823" lon="-2.70399">
        <ele>502.6</ele>
        <time>2021-05-29 19:52:05</time>
      </trkpt>
      <trkpt lat="42.8782" lon="-2.70387">
        <ele>502.6</ele>
        <time>2021-05-29 19:52:06</time>
      </trkpt>
      <trkpt lat="42.87816" lon="-2.70374">
        <ele>502.6</ele>
        <time>2021-05-29 19:52:07</time>
      </trkpt>
      <trkpt lat="42.87812" lon="-2.70362">
        <ele>502.6</ele>
        <time>2021-05-29 19:52:08</time>
      </trkpt>
      <trkpt lat="42.87808" lon="-2.70351">
        <ele>502.6</ele>
        <time>2021-05-29 19:52:09</time>
      </trkpt>
      <trkpt lat="42.87803" lon="-2.7034">
        <ele>502.6</ele>
        <time>2021-05-29 19:52:10</time>
      </trkpt>
      <trkpt lat="42.87797" lon="-2.70329">
        <ele>502.6</ele>
        <time>2021-05-29 19:52:11</time>
      </trkpt>
      <trkpt lat="42.87791" lon="-2.7032">
        <ele>502.6</ele>
        <time>2021-05-29 19:52:12</time>
      </trkpt>
      <trkpt lat="42.87784" lon="-2.70311">
        <ele>502.6</ele>
        <time>2021-05-29 19:52:13</time>
      </trkpt>
      <trkpt lat="42.87776" lon="-2.70303">
        <ele>502.4</ele>
        <time>2021-05-29 19:52:14</time>
      </trkpt>
      <trkpt lat="42.87769" lon="-2.70296">
        <ele>502.6</ele>
        <time>2021-05-29 19:52:15</time>
      </trkpt>
      <trkpt lat="42.87761" lon="-2.70289">
        <ele>502.6</ele>
        <time>2021-05-29 19:52:16</time>
      </trkpt>
      <trkpt lat="42.87754" lon="-2.70282">
        <ele>502.6</ele>
        <time>2021-05-29 19:52:17</time>
      </trkpt>
      <trkpt lat="42.87747" lon="-2.70276">
        <ele>502.6</ele>
        <time>2021-05-29 19:52:18</time>
      </trkpt>
      <trkpt lat="42.87741" lon="-2.70269">
        <ele>502.6</ele>
        <time>2021-05-29 19:52:19</time>
      </trkpt>
      <trkpt lat="42.87735" lon="-2.70261">
        <ele>502.6</ele>
        <time>2021-05-29 19:52:20</time>
      </trkpt>
      <trkpt lat="42.8773" lon="-2.70253">
        <ele>502.6</ele>
        <time>2021-05-29 19:52:21</time>
      </trkpt>
      <trkpt lat="42.87726" lon="-2.70244">
        <ele>502.6</ele>
        <time>2021-05-29 19:52:22</time>
      </trkpt>
      <trkpt lat="42.87721" lon="-2.70234">
        <ele>502.6</ele>
        <time>2021-05-29 19:52:23</time>
      </trkpt>
      <trkpt lat="42.87716" lon="-2.70226">
        <ele>502.8</ele>
        <time>2021-05-29 19:52:24</time>
      </trkpt>
      <trkpt lat="42.8771" lon="-2.70218">
        <ele>502.8</ele>
        <time>2021-05-29 19:52:25</time>
      </trkpt>
      <trkpt lat="42.87703" lon="-2.70211">
        <ele>503.2</ele>
        <time>2021-05-29 19:52:26</time>
      </trkpt>
      <trkpt lat="42.87697" lon="-2.70204">
        <ele>503.4</ele>
        <time>2021-05-29 19:52:27</time>
      </trkpt>
      <trkpt lat="42.87691" lon="-2.70196">
        <ele>503.6</ele>
        <time>2021-05-29 19:52:28</time>
      </trkpt>
      <trkpt lat="42.87686" lon="-2.70187">
        <ele>503.6</ele>
        <time>2021-05-29 19:52:29</time>
      </trkpt>
      <trkpt lat="42.87682" lon="-2.70177">
        <ele>503.8</ele>
        <time>2021-05-29 19:52:30</time>
      </trkpt>
      <trkpt lat="42.87678" lon="-2.70166">
        <ele>503.8</ele>
        <time>2021-05-29 19:52:31</time>
      </trkpt>
      <trkpt lat="42.87676" lon="-2.70155">
        <ele>503.8</ele>
        <time>2021-05-29 19:52:32</time>
      </trkpt>
      <trkpt lat="42.87674" lon="-2.70143">
        <ele>504</ele>
        <time>2021-05-29 19:52:33</time>
      </trkpt>
      <trkpt lat="42.87672" lon="-2.70131">
        <ele>504</ele>
        <time>2021-05-29 19:52:34</time>
      </trkpt>
      <trkpt lat="42.8767" lon="-2.7012">
        <ele>504.2</ele>
        <time>2021-05-29 19:52:35</time>
      </trkpt>
      <trkpt lat="42.87668" lon="-2.70108">
        <ele>504.2</ele>
        <time>2021-05-29 19:52:36</time>
      </trkpt>
      <trkpt lat="42.87667" lon="-2.70095">
        <ele>504.2</ele>
        <time>2021-05-29 19:52:37</time>
      </trkpt>
      <trkpt lat="42.87665" lon="-2.70083">
        <ele>504.2</ele>
        <time>2021-05-29 19:52:38</time>
      </trkpt>
      <trkpt lat="42.87664" lon="-2.70071">
        <ele>504.2</ele>
        <time>2021-05-29 19:52:39</time>
      </trkpt>
      <trkpt lat="42.87663" lon="-2.70058">
        <ele>504.2</ele>
        <time>2021-05-29 19:52:40</time>
      </trkpt>
      <trkpt lat="42.87662" lon="-2.70046">
        <ele>504</ele>
        <time>2021-05-29 19:52:41</time>
      </trkpt>
      <trkpt lat="42.87659" lon="-2.70035">
        <ele>504</ele>
        <time>2021-05-29 19:52:42</time>
      </trkpt>
      <trkpt lat="42.87656" lon="-2.70023">
        <ele>504</ele>
        <time>2021-05-29 19:52:43</time>
      </trkpt>
      <trkpt lat="42.87652" lon="-2.70012">
        <ele>504</ele>
        <time>2021-05-29 19:52:44</time>
      </trkpt>
      <trkpt lat="42.87648" lon="-2.70001">
        <ele>504</ele>
        <time>2021-05-29 19:52:45</time>
      </trkpt>
      <trkpt lat="42.87644" lon="-2.6999">
        <ele>504</ele>
        <time>2021-05-29 19:52:46</time>
      </trkpt>
      <trkpt lat="42.8764" lon="-2.69978">
        <ele>504</ele>
        <time>2021-05-29 19:52:47</time>
      </trkpt>
      <trkpt lat="42.87636" lon="-2.69967">
        <ele>504</ele>
        <time>2021-05-29 19:52:48</time>
      </trkpt>
      <trkpt lat="42.87632" lon="-2.69955">
        <ele>503.8</ele>
        <time>2021-05-29 19:52:49</time>
      </trkpt>
      <trkpt lat="42.87628" lon="-2.69943">
        <ele>503.8</ele>
        <time>2021-05-29 19:52:50</time>
      </trkpt>
      <trkpt lat="42.87624" lon="-2.69931">
        <ele>503.8</ele>
        <time>2021-05-29 19:52:51</time>
      </trkpt>
      <trkpt lat="42.87619" lon="-2.69919">
        <ele>503.8</ele>
        <time>2021-05-29 19:52:52</time>
      </trkpt>
      <trkpt lat="42.87614" lon="-2.69909">
        <ele>503.6</ele>
        <time>2021-05-29 19:52:53</time>
      </trkpt>
      <trkpt lat="42.87608" lon="-2.69899">
        <ele>503.6</ele>
        <time>2021-05-29 19:52:54</time>
      </trkpt>
      <trkpt lat="42.87601" lon="-2.69889">
        <ele>503.6</ele>
        <time>2021-05-29 19:52:55</time>
      </trkpt>
      <trkpt lat="42.87594" lon="-2.69881">
        <ele>503.6</ele>
        <time>2021-05-29 19:52:56</time>
      </trkpt>
      <trkpt lat="42.87586" lon="-2.69874">
        <ele>503.4</ele>
        <time>2021-05-29 19:52:57</time>
      </trkpt>
      <trkpt lat="42.87578" lon="-2.69866">
        <ele>503.2</ele>
        <time>2021-05-29 19:52:58</time>
      </trkpt>
      <trkpt lat="42.8757" lon="-2.69859">
        <ele>503.2</ele>
        <time>2021-05-29 19:52:59</time>
      </trkpt>
      <trkpt lat="42.87562" lon="-2.69852">
        <ele>502.8</ele>
        <time>2021-05-29 19:53:00</time>
      </trkpt>
      <trkpt lat="42.87554" lon="-2.69845">
        <ele>502.8</ele>
        <time>2021-05-29 19:53:01</time>
      </trkpt>
      <trkpt lat="42.87546" lon="-2.69838">
        <ele>503</ele>
        <time>2021-05-29 19:53:02</time>
      </trkpt>
      <trkpt lat="42.87538" lon="-2.69831">
        <ele>503</ele>
        <time>2021-05-29 19:53:03</time>
      </trkpt>
      <trkpt lat="42.8753" lon="-2.69824">
        <ele>503</ele>
        <time>2021-05-29 19:53:04</time>
      </trkpt>
      <trkpt lat="42.87522" lon="-2.69817">
        <ele>503</ele>
        <time>2021-05-29 19:53:05</time>
      </trkpt>
      <trkpt lat="42.87514" lon="-2.69811">
        <ele>503</ele>
        <time>2021-05-29 19:53:06</time>
      </trkpt>
      <trkpt lat="42.87506" lon="-2.69804">
        <ele>503</ele>
        <time>2021-05-29 19:53:07</time>
      </trkpt>
      <trkpt lat="42.87498" lon="-2.69797">
        <ele>503</ele>
        <time>2021-05-29 19:53:08</time>
      </trkpt>
      <trkpt lat="42.8749" lon="-2.69791">
        <ele>503</ele>
        <time>2021-05-29 19:53:09</time>
      </trkpt>
      <trkpt lat="42.87482" lon="-2.69784">
        <ele>503</ele>
        <time>2021-05-29 19:53:10</time>
      </trkpt>
      <trkpt lat="42.87474" lon="-2.69778">
        <ele>503</ele>
        <time>2021-05-29 19:53:11</time>
      </trkpt>
      <trkpt lat="42.87465" lon="-2.69772">
        <ele>503</ele>
        <time>2021-05-29 19:53:12</time>
      </trkpt>
      <trkpt lat="42.87457" lon="-2.69766">
        <ele>503</ele>
        <time>2021-05-29 19:53:13</time>
      </trkpt>
      <trkpt lat="42.87449" lon="-2.69759">
        <ele>503</ele>
        <time>2021-05-29 19:53:14</time>
      </trkpt>
      <trkpt lat="42.87441" lon="-2.69753">
        <ele>503</ele>
        <time>2021-05-29 19:53:15</time>
      </trkpt>
      <trkpt lat="42.87432" lon="-2.69746">
        <ele>503</ele>
        <time>2021-05-29 19:53:16</time>
      </trkpt>
      <trkpt lat="42.87424" lon="-2.6974">
        <ele>503</ele>
        <time>2021-05-29 19:53:17</time>
      </trkpt>
      <trkpt lat="42.87416" lon="-2.69734">
        <ele>503.2</ele>
        <time>2021-05-29 19:53:18</time>
      </trkpt>
      <trkpt lat="42.87408" lon="-2.69729">
        <ele>503.2</ele>
        <time>2021-05-29 19:53:19</time>
      </trkpt>
      <trkpt lat="42.87399" lon="-2.69723">
        <ele>503.2</ele>
        <time>2021-05-29 19:53:20</time>
      </trkpt>
      <trkpt lat="42.87391" lon="-2.69718">
        <ele>503.2</ele>
        <time>2021-05-29 19:53:21</time>
      </trkpt>
      <trkpt lat="42.87383" lon="-2.69714">
        <ele>503.2</ele>
        <time>2021-05-29 19:53:22</time>
      </trkpt>
      <trkpt lat="42.87375" lon="-2.69709">
        <ele>503.2</ele>
        <time>2021-05-29 19:53:23</time>
      </trkpt>
      <trkpt lat="42.87367" lon="-2.69706">
        <ele>503.2</ele>
        <time>2021-05-29 19:53:24</time>
      </trkpt>
      <trkpt lat="42.87359" lon="-2.69702">
        <ele>503.2</ele>
        <time>2021-05-29 19:53:25</time>
      </trkpt>
      <trkpt lat="42.87351" lon="-2.69697">
        <ele>503</ele>
        <time>2021-05-29 19:53:26</time>
      </trkpt>
      <trkpt lat="42.87343" lon="-2.69692">
        <ele>503</ele>
        <time>2021-05-29 19:53:27</time>
      </trkpt>
      <trkpt lat="42.87336" lon="-2.69687">
        <ele>502.8</ele>
        <time>2021-05-29 19:53:28</time>
      </trkpt>
      <trkpt lat="42.87327" lon="-2.69683">
        <ele>502.8</ele>
        <time>2021-05-29 19:53:29</time>
      </trkpt>
      <trkpt lat="42.87319" lon="-2.69679">
        <ele>503</ele>
        <time>2021-05-29 19:53:30</time>
      </trkpt>
      <trkpt lat="42.8731" lon="-2.69676">
        <ele>502.6</ele>
        <time>2021-05-29 19:53:31</time>
      </trkpt>
      <trkpt lat="42.87302" lon="-2.69672">
        <ele>502.6</ele>
        <time>2021-05-29 19:53:32</time>
      </trkpt>
      <trkpt lat="42.87294" lon="-2.69669">
        <ele>502.6</ele>
        <time>2021-05-29 19:53:33</time>
      </trkpt>
      <trkpt lat="42.87285" lon="-2.69665">
        <ele>502.6</ele>
        <time>2021-05-29 19:53:34</time>
      </trkpt>
      <trkpt lat="42.87277" lon="-2.6966">
        <ele>502.6</ele>
        <time>2021-05-29 19:53:35</time>
      </trkpt>
      <trkpt lat="42.87269" lon="-2.69654">
        <ele>502.6</ele>
        <time>2021-05-29 19:53:36</time>
      </trkpt>
      <trkpt lat="42.87262" lon="-2.69648">
        <ele>502.6</ele>
        <time>2021-05-29 19:53:37</time>
      </trkpt>
      <trkpt lat="42.87256" lon="-2.69639">
        <ele>502.6</ele>
        <time>2021-05-29 19:53:38</time>
      </trkpt>
      <trkpt lat="42.87252" lon="-2.6963">
        <ele>502.6</ele>
        <time>2021-05-29 19:53:39</time>
      </trkpt>
      <trkpt lat="42.8725" lon="-2.69619">
        <ele>502.6</ele>
        <time>2021-05-29 19:53:40</time>
      </trkpt>
      <trkpt lat="42.8725" lon="-2.69608">
        <ele>502.6</ele>
        <time>2021-05-29 19:53:41</time>
      </trkpt>
      <trkpt lat="42.87249" lon="-2.69597">
        <ele>502.8</ele>
        <time>2021-05-29 19:53:42</time>
      </trkpt>
      <trkpt lat="42.87249" lon="-2.69585">
        <ele>502.8</ele>
        <time>2021-05-29 19:53:43</time>
      </trkpt>
      <trkpt lat="42.87249" lon="-2.69574">
        <ele>502.8</ele>
        <time>2021-05-29 19:53:44</time>
      </trkpt>
      <trkpt lat="42.87248" lon="-2.69562">
        <ele>502.8</ele>
        <time>2021-05-29 19:53:45</time>
      </trkpt>
      <trkpt lat="42.87247" lon="-2.6955">
        <ele>502.8</ele>
        <time>2021-05-29 19:53:46</time>
      </trkpt>
      <trkpt lat="42.87247" lon="-2.69538">
        <ele>503.4</ele>
        <time>2021-05-29 19:53:47</time>
      </trkpt>
      <trkpt lat="42.87246" lon="-2.69526">
        <ele>503.6</ele>
        <time>2021-05-29 19:53:48</time>
      </trkpt>
      <trkpt lat="42.87245" lon="-2.69514">
        <ele>503.6</ele>
        <time>2021-05-29 19:53:49</time>
      </trkpt>
      <trkpt lat="42.87243" lon="-2.69502">
        <ele>503.8</ele>
        <time>2021-05-29 19:53:50</time>
      </trkpt>
      <trkpt lat="42.87242" lon="-2.6949">
        <ele>503.8</ele>
        <time>2021-05-29 19:53:51</time>
      </trkpt>
      <trkpt lat="42.8724" lon="-2.69479">
        <ele>504</ele>
        <time>2021-05-29 19:53:52</time>
      </trkpt>
      <trkpt lat="42.87238" lon="-2.69468">
        <ele>504</ele>
        <time>2021-05-29 19:53:53</time>
      </trkpt>
      <trkpt lat="42.87235" lon="-2.69458">
        <ele>504</ele>
        <time>2021-05-29 19:53:54</time>
      </trkpt>
      <trkpt lat="42.87231" lon="-2.69449">
        <ele>504.2</ele>
        <time>2021-05-29 19:53:55</time>
      </trkpt>
      <trkpt lat="42.87227" lon="-2.69441">
        <ele>504.2</ele>
        <time>2021-05-29 19:53:56</time>
      </trkpt>
      <trkpt lat="42.87222" lon="-2.69433">
        <ele>504.2</ele>
        <time>2021-05-29 19:53:57</time>
      </trkpt>
      <trkpt lat="42.87217" lon="-2.69426">
        <ele>504.2</ele>
        <time>2021-05-29 19:53:58</time>
      </trkpt>
      <trkpt lat="42.87212" lon="-2.69419">
        <ele>504.2</ele>
        <time>2021-05-29 19:53:59</time>
      </trkpt>
      <trkpt lat="42.87208" lon="-2.69413">
        <ele>504.4</ele>
        <time>2021-05-29 19:54:00</time>
      </trkpt>
      <trkpt lat="42.87205" lon="-2.69406">
        <ele>504.6</ele>
        <time>2021-05-29 19:54:01</time>
      </trkpt>
      <trkpt lat="42.87203" lon="-2.69398">
        <ele>504.8</ele>
        <time>2021-05-29 19:54:02</time>
      </trkpt>
      <trkpt lat="42.87203" lon="-2.6939">
        <ele>505</ele>
        <time>2021-05-29 19:54:03</time>
      </trkpt>
      <trkpt lat="42.87204" lon="-2.69381">
        <ele>505.4</ele>
        <time>2021-05-29 19:54:04</time>
      </trkpt>
      <trkpt lat="42.87205" lon="-2.69373">
        <ele>505.6</ele>
        <time>2021-05-29 19:54:05</time>
      </trkpt>
      <trkpt lat="42.87208" lon="-2.69364">
        <ele>505.8</ele>
        <time>2021-05-29 19:54:06</time>
      </trkpt>
      <trkpt lat="42.87211" lon="-2.69356">
        <ele>506</ele>
        <time>2021-05-29 19:54:07</time>
      </trkpt>
      <trkpt lat="42.87214" lon="-2.69347">
        <ele>506.2</ele>
        <time>2021-05-29 19:54:08</time>
      </trkpt>
      <trkpt lat="42.87218" lon="-2.69338">
        <ele>506.4</ele>
        <time>2021-05-29 19:54:09</time>
      </trkpt>
      <trkpt lat="42.87221" lon="-2.69329">
        <ele>506.6</ele>
        <time>2021-05-29 19:54:10</time>
      </trkpt>
      <trkpt lat="42.87225" lon="-2.69321">
        <ele>506.8</ele>
        <time>2021-05-29 19:54:11</time>
      </trkpt>
      <trkpt lat="42.87228" lon="-2.69312">
        <ele>506.8</ele>
        <time>2021-05-29 19:54:12</time>
      </trkpt>
      <trkpt lat="42.87232" lon="-2.69303">
        <ele>506.8</ele>
        <time>2021-05-29 19:54:13</time>
      </trkpt>
      <trkpt lat="42.87236" lon="-2.69295">
        <ele>506.8</ele>
        <time>2021-05-29 19:54:14</time>
      </trkpt>
      <trkpt lat="42.8724" lon="-2.69287">
        <ele>506.8</ele>
        <time>2021-05-29 19:54:15</time>
      </trkpt>
      <trkpt lat="42.87245" lon="-2.6928">
        <ele>506.8</ele>
        <time>2021-05-29 19:54:16</time>
      </trkpt>
      <trkpt lat="42.8725" lon="-2.69274">
        <ele>507</ele>
        <time>2021-05-29 19:54:17</time>
      </trkpt>
      <trkpt lat="42.87254" lon="-2.69267">
        <ele>507</ele>
        <time>2021-05-29 19:54:18</time>
      </trkpt>
      <trkpt lat="42.87257" lon="-2.69261">
        <ele>507</ele>
        <time>2021-05-29 19:54:19</time>
      </trkpt>
      <trkpt lat="42.8726" lon="-2.69256">
        <ele>507</ele>
        <time>2021-05-29 19:54:20</time>
      </trkpt>
      <trkpt lat="42.8726" lon="-2.6925">
        <ele>506.8</ele>
        <time>2021-05-29 19:54:21</time>
      </trkpt>
      <trkpt lat="42.87259" lon="-2.69243">
        <ele>506.8</ele>
        <time>2021-05-29 19:54:22</time>
      </trkpt>
      <trkpt lat="42.87259" lon="-2.69237">
        <ele>506.6</ele>
        <time>2021-05-29 19:54:23</time>
      </trkpt>
      <trkpt lat="42.87261" lon="-2.69231">
        <ele>506.6</ele>
        <time>2021-05-29 19:54:24</time>
      </trkpt>
      <trkpt lat="42.87263" lon="-2.69224">
        <ele>506.6</ele>
        <time>2021-05-29 19:54:25</time>
      </trkpt>
      <trkpt lat="42.87266" lon="-2.69218">
        <ele>506.6</ele>
        <time>2021-05-29 19:54:26</time>
      </trkpt>
      <trkpt lat="42.87269" lon="-2.69211">
        <ele>506.4</ele>
        <time>2021-05-29 19:54:27</time>
      </trkpt>
      <trkpt lat="42.87271" lon="-2.69205">
        <ele>506.4</ele>
        <time>2021-05-29 19:54:28</time>
      </trkpt>
      <trkpt lat="42.87272" lon="-2.69199">
        <ele>506.6</ele>
        <time>2021-05-29 19:54:29</time>
      </trkpt>
      <trkpt lat="42.87271" lon="-2.69193">
        <ele>506.4</ele>
        <time>2021-05-29 19:54:30</time>
      </trkpt>
      <trkpt lat="42.87268" lon="-2.69189">
        <ele>506.4</ele>
        <time>2021-05-29 19:54:31</time>
      </trkpt>
      <trkpt lat="42.87265" lon="-2.69187">
        <ele>506.4</ele>
        <time>2021-05-29 19:54:32</time>
      </trkpt>
      <trkpt lat="42.87262" lon="-2.69184">
        <ele>506.4</ele>
        <time>2021-05-29 19:54:33</time>
      </trkpt>
      <trkpt lat="42.8726" lon="-2.6918">
        <ele>506.2</ele>
        <time>2021-05-29 19:54:34</time>
      </trkpt>
      <trkpt lat="42.87259" lon="-2.69174">
        <ele>506.2</ele>
        <time>2021-05-29 19:54:35</time>
      </trkpt>
      <trkpt lat="42.87259" lon="-2.69166">
        <ele>506.2</ele>
        <time>2021-05-29 19:54:36</time>
      </trkpt>
      <trkpt lat="42.87258" lon="-2.69158">
        <ele>506.2</ele>
        <time>2021-05-29 19:54:37</time>
      </trkpt>
      <trkpt lat="42.87255" lon="-2.69149">
        <ele>506</ele>
        <time>2021-05-29 19:54:38</time>
      </trkpt>
      <trkpt lat="42.87251" lon="-2.69142">
        <ele>506</ele>
        <time>2021-05-29 19:54:39</time>
      </trkpt>
      <trkpt lat="42.87246" lon="-2.69135">
        <ele>506</ele>
        <time>2021-05-29 19:54:40</time>
      </trkpt>
      <trkpt lat="42.8724" lon="-2.6913">
        <ele>505.8</ele>
        <time>2021-05-29 19:54:41</time>
      </trkpt>
      <trkpt lat="42.87233" lon="-2.69125">
        <ele>505.8</ele>
        <time>2021-05-29 19:54:42</time>
      </trkpt>
      <trkpt lat="42.87227" lon="-2.69121">
        <ele>505.8</ele>
        <time>2021-05-29 19:54:43</time>
      </trkpt>
      <trkpt lat="42.8722" lon="-2.69116">
        <ele>505.8</ele>
        <time>2021-05-29 19:54:44</time>
      </trkpt>
      <trkpt lat="42.87214" lon="-2.69112">
        <ele>505.8</ele>
        <time>2021-05-29 19:54:45</time>
      </trkpt>
      <trkpt lat="42.87207" lon="-2.69108">
        <ele>505.8</ele>
        <time>2021-05-29 19:54:46</time>
      </trkpt>
      <trkpt lat="42.87201" lon="-2.69103">
        <ele>505.8</ele>
        <time>2021-05-29 19:54:47</time>
      </trkpt>
      <trkpt lat="42.87194" lon="-2.69099">
        <ele>505.8</ele>
        <time>2021-05-29 19:54:48</time>
      </trkpt>
      <trkpt lat="42.87187" lon="-2.69094">
        <ele>505.8</ele>
        <time>2021-05-29 19:54:49</time>
      </trkpt>
      <trkpt lat="42.8718" lon="-2.6909">
        <ele>505.8</ele>
        <time>2021-05-29 19:54:50</time>
      </trkpt>
      <trkpt lat="42.87173" lon="-2.69086">
        <ele>506</ele>
        <time>2021-05-29 19:54:51</time>
      </trkpt>
      <trkpt lat="42.87166" lon="-2.69081">
        <ele>506</ele>
        <time>2021-05-29 19:54:52</time>
      </trkpt>
      <trkpt lat="42.87159" lon="-2.69076">
        <ele>506</ele>
        <time>2021-05-29 19:54:53</time>
      </trkpt>
      <trkpt lat="42.87152" lon="-2.69072">
        <ele>506</ele>
        <time>2021-05-29 19:54:54</time>
      </trkpt>
      <trkpt lat="42.87145" lon="-2.69067">
        <ele>506</ele>
        <time>2021-05-29 19:54:55</time>
      </trkpt>
      <trkpt lat="42.87138" lon="-2.69062">
        <ele>506.2</ele>
        <time>2021-05-29 19:54:56</time>
      </trkpt>
      <trkpt lat="42.87131" lon="-2.69058">
        <ele>506.2</ele>
        <time>2021-05-29 19:54:57</time>
      </trkpt>
      <trkpt lat="42.87124" lon="-2.69053">
        <ele>506.4</ele>
        <time>2021-05-29 19:54:58</time>
      </trkpt>
      <trkpt lat="42.87117" lon="-2.69049">
        <ele>506.4</ele>
        <time>2021-05-29 19:54:59</time>
      </trkpt>
      <trkpt lat="42.8711" lon="-2.69044">
        <ele>506.6</ele>
        <time>2021-05-29 19:55:00</time>
      </trkpt>
      <trkpt lat="42.87103" lon="-2.6904">
        <ele>506.6</ele>
        <time>2021-05-29 19:55:01</time>
      </trkpt>
      <trkpt lat="42.87095" lon="-2.69036">
        <ele>506.6</ele>
        <time>2021-05-29 19:55:02</time>
      </trkpt>
      <trkpt lat="42.87089" lon="-2.69032">
        <ele>506.8</ele>
        <time>2021-05-29 19:55:03</time>
      </trkpt>
      <trkpt lat="42.87081" lon="-2.69027">
        <ele>506.8</ele>
        <time>2021-05-29 19:55:04</time>
      </trkpt>
      <trkpt lat="42.87074" lon="-2.69023">
        <ele>506.8</ele>
        <time>2021-05-29 19:55:05</time>
      </trkpt>
      <trkpt lat="42.87067" lon="-2.69018">
        <ele>506.8</ele>
        <time>2021-05-29 19:55:06</time>
      </trkpt>
      <trkpt lat="42.8706" lon="-2.69014">
        <ele>507</ele>
        <time>2021-05-29 19:55:07</time>
      </trkpt>
      <trkpt lat="42.87052" lon="-2.69009">
        <ele>507</ele>
        <time>2021-05-29 19:55:08</time>
      </trkpt>
      <trkpt lat="42.87045" lon="-2.69004">
        <ele>507</ele>
        <time>2021-05-29 19:55:09</time>
      </trkpt>
      <trkpt lat="42.87038" lon="-2.68999">
        <ele>507.2</ele>
        <time>2021-05-29 19:55:10</time>
      </trkpt>
      <trkpt lat="42.87031" lon="-2.68994">
        <ele>507.2</ele>
        <time>2021-05-29 19:55:11</time>
      </trkpt>
      <trkpt lat="42.87024" lon="-2.6899">
        <ele>507.4</ele>
        <time>2021-05-29 19:55:12</time>
      </trkpt>
      <trkpt lat="42.87017" lon="-2.68985">
        <ele>507.4</ele>
        <time>2021-05-29 19:55:13</time>
      </trkpt>
      <trkpt lat="42.87011" lon="-2.68981">
        <ele>507.4</ele>
        <time>2021-05-29 19:55:14</time>
      </trkpt>
      <trkpt lat="42.87005" lon="-2.68977">
        <ele>507.6</ele>
        <time>2021-05-29 19:55:15</time>
      </trkpt>
      <trkpt lat="42.87" lon="-2.68974">
        <ele>507.6</ele>
        <time>2021-05-29 19:55:16</time>
      </trkpt>
      <trkpt lat="42.86996" lon="-2.68972">
        <ele>507.6</ele>
        <time>2021-05-29 19:55:17</time>
      </trkpt>
      <trkpt lat="42.86993" lon="-2.6897">
        <ele>507.6</ele>
        <time>2021-05-29 19:55:18</time>
      </trkpt>
      <trkpt lat="42.86991" lon="-2.68968">
        <ele>507.6</ele>
        <time>2021-05-29 19:55:19</time>
      </trkpt>
      <trkpt lat="42.8699" lon="-2.68967">
        <ele>507.8</ele>
        <time>2021-05-29 19:55:20</time>
      </trkpt>
      <trkpt lat="42.8699" lon="-2.68967">
        <ele>507.8</ele>
        <time>2021-05-29 19:55:21</time>
      </trkpt>
      <trkpt lat="42.86985" lon="-2.68969">
        <ele>508.2</ele>
        <time>2021-05-29 19:55:26</time>
      </trkpt>
      <trkpt lat="42.86984" lon="-2.68969">
        <ele>508.2</ele>
        <time>2021-05-29 19:55:27</time>
      </trkpt>
      <trkpt lat="42.86983" lon="-2.68968">
        <ele>508.2</ele>
        <time>2021-05-29 19:55:28</time>
      </trkpt>
      <trkpt lat="42.86982" lon="-2.68968">
        <ele>508.2</ele>
        <time>2021-05-29 19:55:29</time>
      </trkpt>
      <trkpt lat="42.8698" lon="-2.68967">
        <ele>508.2</ele>
        <time>2021-05-29 19:55:30</time>
      </trkpt>
      <trkpt lat="42.86977" lon="-2.68967">
        <ele>508.4</ele>
        <time>2021-05-29 19:55:31</time>
      </trkpt>
      <trkpt lat="42.86974" lon="-2.68966">
        <ele>508.4</ele>
        <time>2021-05-29 19:55:32</time>
      </trkpt>
      <trkpt lat="42.86971" lon="-2.68964">
        <ele>508.4</ele>
        <time>2021-05-29 19:55:33</time>
      </trkpt>
      <trkpt lat="42.86968" lon="-2.68963">
        <ele>508.4</ele>
        <time>2021-05-29 19:55:34</time>
      </trkpt>
      <trkpt lat="42.86964" lon="-2.68961">
        <ele>508.4</ele>
        <time>2021-05-29 19:55:35</time>
      </trkpt>
      <trkpt lat="42.8696" lon="-2.68959">
        <ele>508.4</ele>
        <time>2021-05-29 19:55:36</time>
      </trkpt>
      <trkpt lat="42.86956" lon="-2.68957">
        <ele>508.4</ele>
        <time>2021-05-29 19:55:37</time>
      </trkpt>
      <trkpt lat="42.86952" lon="-2.68954">
        <ele>508.4</ele>
        <time>2021-05-29 19:55:38</time>
      </trkpt>
      <trkpt lat="42.86947" lon="-2.6895">
        <ele>508.4</ele>
        <time>2021-05-29 19:55:39</time>
      </trkpt>
      <trkpt lat="42.86943" lon="-2.68944">
        <ele>508.4</ele>
        <time>2021-05-29 19:55:40</time>
      </trkpt>
      <trkpt lat="42.86938" lon="-2.68937">
        <ele>508.4</ele>
        <time>2021-05-29 19:55:41</time>
      </trkpt>
      <trkpt lat="42.86932" lon="-2.68932">
        <ele>508.4</ele>
        <time>2021-05-29 19:55:42</time>
      </trkpt>
      <trkpt lat="42.86926" lon="-2.68926">
        <ele>508.4</ele>
        <time>2021-05-29 19:55:43</time>
      </trkpt>
      <trkpt lat="42.86919" lon="-2.68922">
        <ele>508.4</ele>
        <time>2021-05-29 19:55:44</time>
      </trkpt>
      <trkpt lat="42.86912" lon="-2.68917">
        <ele>508.4</ele>
        <time>2021-05-29 19:55:45</time>
      </trkpt>
      <trkpt lat="42.86905" lon="-2.68912">
        <ele>508.4</ele>
        <time>2021-05-29 19:55:46</time>
      </trkpt>
      <trkpt lat="42.86898" lon="-2.68906">
        <ele>508.4</ele>
        <time>2021-05-29 19:55:47</time>
      </trkpt>
      <trkpt lat="42.86891" lon="-2.68901">
        <ele>508.4</ele>
        <time>2021-05-29 19:55:48</time>
      </trkpt>
      <trkpt lat="42.86883" lon="-2.68896">
        <ele>508.4</ele>
        <time>2021-05-29 19:55:49</time>
      </trkpt>
      <trkpt lat="42.86875" lon="-2.68891">
        <ele>508.2</ele>
        <time>2021-05-29 19:55:50</time>
      </trkpt>
      <trkpt lat="42.86868" lon="-2.68886">
        <ele>508.2</ele>
        <time>2021-05-29 19:55:51</time>
      </trkpt>
      <trkpt lat="42.86861" lon="-2.68881">
        <ele>508</ele>
        <time>2021-05-29 19:55:52</time>
      </trkpt>
      <trkpt lat="42.86854" lon="-2.68876">
        <ele>508</ele>
        <time>2021-05-29 19:55:53</time>
      </trkpt>
      <trkpt lat="42.86847" lon="-2.68871">
        <ele>508</ele>
        <time>2021-05-29 19:55:54</time>
      </trkpt>
      <trkpt lat="42.8684" lon="-2.68868">
        <ele>508</ele>
        <time>2021-05-29 19:55:55</time>
      </trkpt>
      <trkpt lat="42.86833" lon="-2.68866">
        <ele>508</ele>
        <time>2021-05-29 19:55:56</time>
      </trkpt>
      <trkpt lat="42.86827" lon="-2.68865">
        <ele>508</ele>
        <time>2021-05-29 19:55:57</time>
      </trkpt>
      <trkpt lat="42.86821" lon="-2.68863">
        <ele>508</ele>
        <time>2021-05-29 19:55:58</time>
      </trkpt>
      <trkpt lat="42.86815" lon="-2.68859">
        <ele>507.8</ele>
        <time>2021-05-29 19:55:59</time>
      </trkpt>
      <trkpt lat="42.86809" lon="-2.68855">
        <ele>507.8</ele>
        <time>2021-05-29 19:56:00</time>
      </trkpt>
      <trkpt lat="42.86803" lon="-2.68851">
        <ele>507.8</ele>
        <time>2021-05-29 19:56:01</time>
      </trkpt>
      <trkpt lat="42.86798" lon="-2.68848">
        <ele>507.8</ele>
        <time>2021-05-29 19:56:02</time>
      </trkpt>
      <trkpt lat="42.86792" lon="-2.68844">
        <ele>507.8</ele>
        <time>2021-05-29 19:56:03</time>
      </trkpt>
      <trkpt lat="42.86787" lon="-2.6884">
        <ele>507.8</ele>
        <time>2021-05-29 19:56:04</time>
      </trkpt>
      <trkpt lat="42.86781" lon="-2.68835">
        <ele>507.8</ele>
        <time>2021-05-29 19:56:05</time>
      </trkpt>
      <trkpt lat="42.86775" lon="-2.68831">
        <ele>507.8</ele>
        <time>2021-05-29 19:56:06</time>
      </trkpt>
      <trkpt lat="42.86769" lon="-2.68826">
        <ele>507.8</ele>
        <time>2021-05-29 19:56:07</time>
      </trkpt>
      <trkpt lat="42.86763" lon="-2.68822">
        <ele>507.8</ele>
        <time>2021-05-29 19:56:08</time>
      </trkpt>
      <trkpt lat="42.86756" lon="-2.68817">
        <ele>507.8</ele>
        <time>2021-05-29 19:56:09</time>
      </trkpt>
      <trkpt lat="42.8675" lon="-2.68813">
        <ele>507.8</ele>
        <time>2021-05-29 19:56:10</time>
      </trkpt>
      <trkpt lat="42.86744" lon="-2.68809">
        <ele>507.8</ele>
        <time>2021-05-29 19:56:11</time>
      </trkpt>
      <trkpt lat="42.86738" lon="-2.68805">
        <ele>507.6</ele>
        <time>2021-05-29 19:56:12</time>
      </trkpt>
      <trkpt lat="42.86733" lon="-2.68801">
        <ele>507.6</ele>
        <time>2021-05-29 19:56:13</time>
      </trkpt>
      <trkpt lat="42.86727" lon="-2.68797">
        <ele>507.6</ele>
        <time>2021-05-29 19:56:14</time>
      </trkpt>
      <trkpt lat="42.86721" lon="-2.68793">
        <ele>507.6</ele>
        <time>2021-05-29 19:56:15</time>
      </trkpt>
      <trkpt lat="42.86716" lon="-2.6879">
        <ele>507.6</ele>
        <time>2021-05-29 19:56:16</time>
      </trkpt>
      <trkpt lat="42.8671" lon="-2.68788">
        <ele>507.6</ele>
        <time>2021-05-29 19:56:17</time>
      </trkpt>
      <trkpt lat="42.86704" lon="-2.68785">
        <ele>507.6</ele>
        <time>2021-05-29 19:56:18</time>
      </trkpt>
      <trkpt lat="42.86698" lon="-2.68784">
        <ele>507.6</ele>
        <time>2021-05-29 19:56:19</time>
      </trkpt>
      <trkpt lat="42.86692" lon="-2.68784">
        <ele>507.6</ele>
        <time>2021-05-29 19:56:20</time>
      </trkpt>
      <trkpt lat="42.86687" lon="-2.68784">
        <ele>507.4</ele>
        <time>2021-05-29 19:56:21</time>
      </trkpt>
      <trkpt lat="42.86683" lon="-2.68781">
        <ele>507.4</ele>
        <time>2021-05-29 19:56:22</time>
      </trkpt>
      <trkpt lat="42.8668" lon="-2.68777">
        <ele>507.4</ele>
        <time>2021-05-29 19:56:23</time>
      </trkpt>
      <trkpt lat="42.86676" lon="-2.68772">
        <ele>507.4</ele>
        <time>2021-05-29 19:56:24</time>
      </trkpt>
      <trkpt lat="42.86673" lon="-2.68767">
        <ele>507.4</ele>
        <time>2021-05-29 19:56:25</time>
      </trkpt>
      <trkpt lat="42.86669" lon="-2.68762">
        <ele>507.4</ele>
        <time>2021-05-29 19:56:26</time>
      </trkpt>
      <trkpt lat="42.86666" lon="-2.68759">
        <ele>507.4</ele>
        <time>2021-05-29 19:56:27</time>
      </trkpt>
      <trkpt lat="42.86663" lon="-2.68757">
        <ele>507.4</ele>
        <time>2021-05-29 19:56:28</time>
      </trkpt>
      <trkpt lat="42.8666" lon="-2.68755">
        <ele>507.4</ele>
        <time>2021-05-29 19:56:29</time>
      </trkpt>
      <trkpt lat="42.86656" lon="-2.68752">
        <ele>507.2</ele>
        <time>2021-05-29 19:56:30</time>
      </trkpt>
      <trkpt lat="42.86652" lon="-2.68747">
        <ele>507.2</ele>
        <time>2021-05-29 19:56:31</time>
      </trkpt>
      <trkpt lat="42.86647" lon="-2.68742">
        <ele>507.2</ele>
        <time>2021-05-29 19:56:32</time>
      </trkpt>
      <trkpt lat="42.86642" lon="-2.68737">
        <ele>507.2</ele>
        <time>2021-05-29 19:56:33</time>
      </trkpt>
      <trkpt lat="42.86636" lon="-2.68732">
        <ele>507.2</ele>
        <time>2021-05-29 19:56:34</time>
      </trkpt>
      <trkpt lat="42.86629" lon="-2.68726">
        <ele>507.2</ele>
        <time>2021-05-29 19:56:35</time>
      </trkpt>
      <trkpt lat="42.86622" lon="-2.6872">
        <ele>507</ele>
        <time>2021-05-29 19:56:36</time>
      </trkpt>
      <trkpt lat="42.86615" lon="-2.68715">
        <ele>507</ele>
        <time>2021-05-29 19:56:37</time>
      </trkpt>
      <trkpt lat="42.86607" lon="-2.68709">
        <ele>507</ele>
        <time>2021-05-29 19:56:38</time>
      </trkpt>
      <trkpt lat="42.866" lon="-2.68703">
        <ele>506.8</ele>
        <time>2021-05-29 19:56:39</time>
      </trkpt>
      <trkpt lat="42.86592" lon="-2.68698">
        <ele>506.8</ele>
        <time>2021-05-29 19:56:40</time>
      </trkpt>
      <trkpt lat="42.86584" lon="-2.68692">
        <ele>506.8</ele>
        <time>2021-05-29 19:56:41</time>
      </trkpt>
      <trkpt lat="42.86576" lon="-2.68687">
        <ele>506.6</ele>
        <time>2021-05-29 19:56:42</time>
      </trkpt>
      <trkpt lat="42.86568" lon="-2.68682">
        <ele>506.6</ele>
        <time>2021-05-29 19:56:43</time>
      </trkpt>
      <trkpt lat="42.8656" lon="-2.68676">
        <ele>506.6</ele>
        <time>2021-05-29 19:56:44</time>
      </trkpt>
      <trkpt lat="42.86552" lon="-2.68671">
        <ele>506.6</ele>
        <time>2021-05-29 19:56:45</time>
      </trkpt>
      <trkpt lat="42.86544" lon="-2.68665">
        <ele>506.6</ele>
        <time>2021-05-29 19:56:46</time>
      </trkpt>
      <trkpt lat="42.86535" lon="-2.6866">
        <ele>506.6</ele>
        <time>2021-05-29 19:56:47</time>
      </trkpt>
      <trkpt lat="42.86527" lon="-2.68654">
        <ele>506.6</ele>
        <time>2021-05-29 19:56:48</time>
      </trkpt>
      <trkpt lat="42.86519" lon="-2.68649">
        <ele>506.6</ele>
        <time>2021-05-29 19:56:49</time>
      </trkpt>
      <trkpt lat="42.8651" lon="-2.68643">
        <ele>506.6</ele>
        <time>2021-05-29 19:56:50</time>
      </trkpt>
      <trkpt lat="42.86502" lon="-2.68638">
        <ele>506.6</ele>
        <time>2021-05-29 19:56:51</time>
      </trkpt>
      <trkpt lat="42.86493" lon="-2.68633">
        <ele>506.6</ele>
        <time>2021-05-29 19:56:52</time>
      </trkpt>
      <trkpt lat="42.86485" lon="-2.68627">
        <ele>506.6</ele>
        <time>2021-05-29 19:56:53</time>
      </trkpt>
      <trkpt lat="42.86477" lon="-2.68621">
        <ele>506.6</ele>
        <time>2021-05-29 19:56:54</time>
      </trkpt>
      <trkpt lat="42.86469" lon="-2.68615">
        <ele>506.4</ele>
        <time>2021-05-29 19:56:55</time>
      </trkpt>
      <trkpt lat="42.8646" lon="-2.6861">
        <ele>506.4</ele>
        <time>2021-05-29 19:56:56</time>
      </trkpt>
      <trkpt lat="42.86452" lon="-2.68604">
        <ele>506.4</ele>
        <time>2021-05-29 19:56:57</time>
      </trkpt>
      <trkpt lat="42.86444" lon="-2.68598">
        <ele>506.4</ele>
        <time>2021-05-29 19:56:58</time>
      </trkpt>
      <trkpt lat="42.86436" lon="-2.68593">
        <ele>506.4</ele>
        <time>2021-05-29 19:56:59</time>
      </trkpt>
      <trkpt lat="42.86428" lon="-2.68587">
        <ele>506.4</ele>
        <time>2021-05-29 19:57:00</time>
      </trkpt>
      <trkpt lat="42.8642" lon="-2.68582">
        <ele>506.4</ele>
        <time>2021-05-29 19:57:01</time>
      </trkpt>
      <trkpt lat="42.86413" lon="-2.68577">
        <ele>506.2</ele>
        <time>2021-05-29 19:57:02</time>
      </trkpt>
      <trkpt lat="42.86405" lon="-2.68572">
        <ele>506</ele>
        <time>2021-05-29 19:57:03</time>
      </trkpt>
      <trkpt lat="42.86398" lon="-2.68567">
        <ele>506</ele>
        <time>2021-05-29 19:57:04</time>
      </trkpt>
      <trkpt lat="42.86392" lon="-2.68563">
        <ele>506</ele>
        <time>2021-05-29 19:57:05</time>
      </trkpt>
      <trkpt lat="42.86385" lon="-2.68559">
        <ele>506</ele>
        <time>2021-05-29 19:57:06</time>
      </trkpt>
      <trkpt lat="42.86379" lon="-2.68557">
        <ele>506</ele>
        <time>2021-05-29 19:57:07</time>
      </trkpt>
      <trkpt lat="42.86373" lon="-2.68557">
        <ele>505.8</ele>
        <time>2021-05-29 19:57:08</time>
      </trkpt>
      <trkpt lat="42.86368" lon="-2.68557">
        <ele>505.8</ele>
        <time>2021-05-29 19:57:09</time>
      </trkpt>
      <trkpt lat="42.86364" lon="-2.68556">
        <ele>505.8</ele>
        <time>2021-05-29 19:57:10</time>
      </trkpt>
      <trkpt lat="42.86361" lon="-2.68556">
        <ele>505.8</ele>
        <time>2021-05-29 19:57:11</time>
      </trkpt>
      <trkpt lat="42.86359" lon="-2.68556">
        <ele>505.8</ele>
        <time>2021-05-29 19:57:12</time>
      </trkpt>
      <trkpt lat="42.86358" lon="-2.68556">
        <ele>505.8</ele>
        <time>2021-05-29 19:57:13</time>
      </trkpt>
      <trkpt lat="42.86357" lon="-2.68555">
        <ele>505.6</ele>
        <time>2021-05-29 19:57:14</time>
      </trkpt>
      <trkpt lat="42.86356" lon="-2.68555">
        <ele>505.4</ele>
        <time>2021-05-29 19:57:15</time>
      </trkpt>
      <trkpt lat="42.86356" lon="-2.68554">
        <ele>505.4</ele>
        <time>2021-05-29 19:57:16</time>
      </trkpt>
      <trkpt lat="42.86356" lon="-2.68553">
        <ele>505.4</ele>
        <time>2021-05-29 19:57:17</time>
      </trkpt>
      <trkpt lat="42.86344" lon="-2.68548">
        <ele>505.4</ele>
        <time>2021-05-29 19:57:23</time>
      </trkpt>
      <trkpt lat="42.8634" lon="-2.68541">
        <ele>505.4</ele>
        <time>2021-05-29 19:57:24</time>
      </trkpt>
      <trkpt lat="42.86335" lon="-2.68535">
        <ele>505.4</ele>
        <time>2021-05-29 19:57:25</time>
      </trkpt>
      <trkpt lat="42.86328" lon="-2.68529">
        <ele>505.4</ele>
        <time>2021-05-29 19:57:26</time>
      </trkpt>
      <trkpt lat="42.86321" lon="-2.68524">
        <ele>505.4</ele>
        <time>2021-05-29 19:57:27</time>
      </trkpt>
      <trkpt lat="42.86313" lon="-2.68516">
        <ele>505.4</ele>
        <time>2021-05-29 19:57:28</time>
      </trkpt>
      <trkpt lat="42.86305" lon="-2.6851">
        <ele>505.4</ele>
        <time>2021-05-29 19:57:29</time>
      </trkpt>
      <trkpt lat="42.86297" lon="-2.68504">
        <ele>505.4</ele>
        <time>2021-05-29 19:57:30</time>
      </trkpt>
      <trkpt lat="42.8629" lon="-2.68498">
        <ele>505.4</ele>
        <time>2021-05-29 19:57:31</time>
      </trkpt>
      <trkpt lat="42.86282" lon="-2.68492">
        <ele>505.4</ele>
        <time>2021-05-29 19:57:32</time>
      </trkpt>
      <trkpt lat="42.86274" lon="-2.68485">
        <ele>505.4</ele>
        <time>2021-05-29 19:57:33</time>
      </trkpt>
      <trkpt lat="42.86266" lon="-2.68479">
        <ele>505.4</ele>
        <time>2021-05-29 19:57:34</time>
      </trkpt>
      <trkpt lat="42.86259" lon="-2.68472">
        <ele>505.4</ele>
        <time>2021-05-29 19:57:35</time>
      </trkpt>
      <trkpt lat="42.86251" lon="-2.68465">
        <ele>505.4</ele>
        <time>2021-05-29 19:57:36</time>
      </trkpt>
      <trkpt lat="42.86244" lon="-2.68458">
        <ele>505.4</ele>
        <time>2021-05-29 19:57:37</time>
      </trkpt>
      <trkpt lat="42.86236" lon="-2.68452">
        <ele>505.4</ele>
        <time>2021-05-29 19:57:38</time>
      </trkpt>
      <trkpt lat="42.86228" lon="-2.68447">
        <ele>505.4</ele>
        <time>2021-05-29 19:57:39</time>
      </trkpt>
      <trkpt lat="42.86222" lon="-2.68443">
        <ele>505.6</ele>
        <time>2021-05-29 19:57:40</time>
      </trkpt>
      <trkpt lat="42.86215" lon="-2.68438">
        <ele>505.6</ele>
        <time>2021-05-29 19:57:41</time>
      </trkpt>
      <trkpt lat="42.86208" lon="-2.68433">
        <ele>505.6</ele>
        <time>2021-05-29 19:57:42</time>
      </trkpt>
      <trkpt lat="42.86201" lon="-2.68428">
        <ele>505.8</ele>
        <time>2021-05-29 19:57:43</time>
      </trkpt>
      <trkpt lat="42.86194" lon="-2.68423">
        <ele>505.8</ele>
        <time>2021-05-29 19:57:44</time>
      </trkpt>
      <trkpt lat="42.86187" lon="-2.68417">
        <ele>505.8</ele>
        <time>2021-05-29 19:57:45</time>
      </trkpt>
      <trkpt lat="42.8618" lon="-2.68411">
        <ele>505.8</ele>
        <time>2021-05-29 19:57:46</time>
      </trkpt>
      <trkpt lat="42.86172" lon="-2.68406">
        <ele>505.8</ele>
        <time>2021-05-29 19:57:47</time>
      </trkpt>
      <trkpt lat="42.86166" lon="-2.68401">
        <ele>506</ele>
        <time>2021-05-29 19:57:48</time>
      </trkpt>
      <trkpt lat="42.86159" lon="-2.68396">
        <ele>506</ele>
        <time>2021-05-29 19:57:49</time>
      </trkpt>
      <trkpt lat="42.86152" lon="-2.68393">
        <ele>506</ele>
        <time>2021-05-29 19:57:50</time>
      </trkpt>
      <trkpt lat="42.86146" lon="-2.6839">
        <ele>506.2</ele>
        <time>2021-05-29 19:57:51</time>
      </trkpt>
      <trkpt lat="42.8614" lon="-2.68385">
        <ele>506.2</ele>
        <time>2021-05-29 19:57:52</time>
      </trkpt>
      <trkpt lat="42.86133" lon="-2.68381">
        <ele>506.2</ele>
        <time>2021-05-29 19:57:53</time>
      </trkpt>
      <trkpt lat="42.86127" lon="-2.68377">
        <ele>506.4</ele>
        <time>2021-05-29 19:57:54</time>
      </trkpt>
      <trkpt lat="42.86121" lon="-2.68373">
        <ele>506.4</ele>
        <time>2021-05-29 19:57:55</time>
      </trkpt>
      <trkpt lat="42.86115" lon="-2.68369">
        <ele>506.4</ele>
        <time>2021-05-29 19:57:56</time>
      </trkpt>
      <trkpt lat="42.86109" lon="-2.68365">
        <ele>506.4</ele>
        <time>2021-05-29 19:57:57</time>
      </trkpt>
      <trkpt lat="42.86103" lon="-2.68361">
        <ele>506.6</ele>
        <time>2021-05-29 19:57:58</time>
      </trkpt>
      <trkpt lat="42.86097" lon="-2.68357">
        <ele>506.6</ele>
        <time>2021-05-29 19:57:59</time>
      </trkpt>
      <trkpt lat="42.86091" lon="-2.68353">
        <ele>506.6</ele>
        <time>2021-05-29 19:58:00</time>
      </trkpt>
      <trkpt lat="42.86086" lon="-2.68349">
        <ele>506.6</ele>
        <time>2021-05-29 19:58:01</time>
      </trkpt>
      <trkpt lat="42.8608" lon="-2.68345">
        <ele>506.6</ele>
        <time>2021-05-29 19:58:02</time>
      </trkpt>
      <trkpt lat="42.86074" lon="-2.68341">
        <ele>506.6</ele>
        <time>2021-05-29 19:58:03</time>
      </trkpt>
      <trkpt lat="42.86069" lon="-2.68338">
        <ele>506.6</ele>
        <time>2021-05-29 19:58:04</time>
      </trkpt>
      <trkpt lat="42.86063" lon="-2.68333">
        <ele>506.6</ele>
        <time>2021-05-29 19:58:05</time>
      </trkpt>
      <trkpt lat="42.86057" lon="-2.68329">
        <ele>506.6</ele>
        <time>2021-05-29 19:58:06</time>
      </trkpt>
      <trkpt lat="42.86052" lon="-2.68325">
        <ele>506.6</ele>
        <time>2021-05-29 19:58:07</time>
      </trkpt>
      <trkpt lat="42.86046" lon="-2.6832">
        <ele>506.8</ele>
        <time>2021-05-29 19:58:08</time>
      </trkpt>
      <trkpt lat="42.86041" lon="-2.68316">
        <ele>506.8</ele>
        <time>2021-05-29 19:58:09</time>
      </trkpt>
      <trkpt lat="42.86036" lon="-2.68312">
        <ele>506.8</ele>
        <time>2021-05-29 19:58:10</time>
      </trkpt>
      <trkpt lat="42.86031" lon="-2.68309">
        <ele>506.8</ele>
        <time>2021-05-29 19:58:11</time>
      </trkpt>
      <trkpt lat="42.86026" lon="-2.68305">
        <ele>506.8</ele>
        <time>2021-05-29 19:58:12</time>
      </trkpt>
      <trkpt lat="42.86021" lon="-2.68302">
        <ele>506.8</ele>
        <time>2021-05-29 19:58:13</time>
      </trkpt>
      <trkpt lat="42.86017" lon="-2.68299">
        <ele>506.8</ele>
        <time>2021-05-29 19:58:14</time>
      </trkpt>
      <trkpt lat="42.86013" lon="-2.68296">
        <ele>506.8</ele>
        <time>2021-05-29 19:58:15</time>
      </trkpt>
      <trkpt lat="42.8601" lon="-2.68294">
        <ele>507</ele>
        <time>2021-05-29 19:58:16</time>
      </trkpt>
      <trkpt lat="42.86007" lon="-2.68292">
        <ele>507</ele>
        <time>2021-05-29 19:58:17</time>
      </trkpt>
      <trkpt lat="42.86004" lon="-2.68291">
        <ele>507</ele>
        <time>2021-05-29 19:58:18</time>
      </trkpt>
      <trkpt lat="42.86002" lon="-2.6829">
        <ele>507</ele>
        <time>2021-05-29 19:58:19</time>
      </trkpt>
      <trkpt lat="42.86" lon="-2.68289">
        <ele>507.2</ele>
        <time>2021-05-29 19:58:20</time>
      </trkpt>
      <trkpt lat="42.85998" lon="-2.68288">
        <ele>507.2</ele>
        <time>2021-05-29 19:58:21</time>
      </trkpt>
      <trkpt lat="42.85997" lon="-2.68287">
        <ele>507.2</ele>
        <time>2021-05-29 19:58:22</time>
      </trkpt>
      <trkpt lat="42.85995" lon="-2.68287">
        <ele>507.2</ele>
        <time>2021-05-29 19:58:23</time>
      </trkpt>
      <trkpt lat="42.85994" lon="-2.68286">
        <ele>507.2</ele>
        <time>2021-05-29 19:58:24</time>
      </trkpt>
      <trkpt lat="42.85993" lon="-2.68285">
        <ele>507.2</ele>
        <time>2021-05-29 19:58:25</time>
      </trkpt>
      <trkpt lat="42.85993" lon="-2.68285">
        <ele>507.2</ele>
        <time>2021-05-29 19:58:26</time>
      </trkpt>
      <trkpt lat="42.85987" lon="-2.68283">
        <ele>507.8</ele>
        <time>2021-05-29 19:58:55</time>
      </trkpt>
      <trkpt lat="42.85984" lon="-2.68282">
        <ele>507.8</ele>
        <time>2021-05-29 19:58:56</time>
      </trkpt>
      <trkpt lat="42.85981" lon="-2.6828">
        <ele>507.8</ele>
        <time>2021-05-29 19:58:57</time>
      </trkpt>
      <trkpt lat="42.85978" lon="-2.68277">
        <ele>507.8</ele>
        <time>2021-05-29 19:58:58</time>
      </trkpt>
      <trkpt lat="42.85974" lon="-2.68275">
        <ele>507.8</ele>
        <time>2021-05-29 19:58:59</time>
      </trkpt>
      <trkpt lat="42.8597" lon="-2.68272">
        <ele>507.8</ele>
        <time>2021-05-29 19:59:00</time>
      </trkpt>
      <trkpt lat="42.85965" lon="-2.68269">
        <ele>507.8</ele>
        <time>2021-05-29 19:59:01</time>
      </trkpt>
      <trkpt lat="42.8596" lon="-2.68265">
        <ele>507.8</ele>
        <time>2021-05-29 19:59:02</time>
      </trkpt>
      <trkpt lat="42.85954" lon="-2.68261">
        <ele>507.8</ele>
        <time>2021-05-29 19:59:03</time>
      </trkpt>
      <trkpt lat="42.85949" lon="-2.68257">
        <ele>507.8</ele>
        <time>2021-05-29 19:59:04</time>
      </trkpt>
      <trkpt lat="42.85943" lon="-2.68254">
        <ele>507.8</ele>
        <time>2021-05-29 19:59:05</time>
      </trkpt>
      <trkpt lat="42.85938" lon="-2.68251">
        <ele>507.8</ele>
        <time>2021-05-29 19:59:06</time>
      </trkpt>
      <trkpt lat="42.85932" lon="-2.68249">
        <ele>507.8</ele>
        <time>2021-05-29 19:59:07</time>
      </trkpt>
      <trkpt lat="42.85926" lon="-2.68247">
        <ele>507.8</ele>
        <time>2021-05-29 19:59:08</time>
      </trkpt>
      <trkpt lat="42.8592" lon="-2.68245">
        <ele>507.8</ele>
        <time>2021-05-29 19:59:09</time>
      </trkpt>
      <trkpt lat="42.85914" lon="-2.68244">
        <ele>507.8</ele>
        <time>2021-05-29 19:59:10</time>
      </trkpt>
      <trkpt lat="42.85908" lon="-2.68243">
        <ele>507.8</ele>
        <time>2021-05-29 19:59:11</time>
      </trkpt>
      <trkpt lat="42.85901" lon="-2.6824">
        <ele>507.8</ele>
        <time>2021-05-29 19:59:12</time>
      </trkpt>
      <trkpt lat="42.85894" lon="-2.68237">
        <ele>507.8</ele>
        <time>2021-05-29 19:59:13</time>
      </trkpt>
      <trkpt lat="42.85887" lon="-2.68233">
        <ele>507.8</ele>
        <time>2021-05-29 19:59:14</time>
      </trkpt>
      <trkpt lat="42.85881" lon="-2.68229">
        <ele>508</ele>
        <time>2021-05-29 19:59:15</time>
      </trkpt>
      <trkpt lat="42.85876" lon="-2.68222">
        <ele>508</ele>
        <time>2021-05-29 19:59:16</time>
      </trkpt>
      <trkpt lat="42.85872" lon="-2.68214">
        <ele>508.2</ele>
        <time>2021-05-29 19:59:17</time>
      </trkpt>
      <trkpt lat="42.85868" lon="-2.68206">
        <ele>508.2</ele>
        <time>2021-05-29 19:59:18</time>
      </trkpt>
      <trkpt lat="42.85864" lon="-2.68198">
        <ele>508.2</ele>
        <time>2021-05-29 19:59:19</time>
      </trkpt>
      <trkpt lat="42.85861" lon="-2.68189">
        <ele>508.2</ele>
        <time>2021-05-29 19:59:20</time>
      </trkpt>
      <trkpt lat="42.85858" lon="-2.68181">
        <ele>508.4</ele>
        <time>2021-05-29 19:59:21</time>
      </trkpt>
      <trkpt lat="42.85854" lon="-2.68173">
        <ele>508.4</ele>
        <time>2021-05-29 19:59:22</time>
      </trkpt>
      <trkpt lat="42.8585" lon="-2.68166">
        <ele>508.6</ele>
        <time>2021-05-29 19:59:23</time>
      </trkpt>
      <trkpt lat="42.85844" lon="-2.68159">
        <ele>508.6</ele>
        <time>2021-05-29 19:59:24</time>
      </trkpt>
      <trkpt lat="42.85838" lon="-2.68154">
        <ele>508.8</ele>
        <time>2021-05-29 19:59:25</time>
      </trkpt>
      <trkpt lat="42.85832" lon="-2.68149">
        <ele>508.8</ele>
        <time>2021-05-29 19:59:26</time>
      </trkpt>
      <trkpt lat="42.85826" lon="-2.68145">
        <ele>509</ele>
        <time>2021-05-29 19:59:27</time>
      </trkpt>
      <trkpt lat="42.85819" lon="-2.68142">
        <ele>509</ele>
        <time>2021-05-29 19:59:28</time>
      </trkpt>
      <trkpt lat="42.85812" lon="-2.6814">
        <ele>509.2</ele>
        <time>2021-05-29 19:59:29</time>
      </trkpt>
      <trkpt lat="42.85806" lon="-2.68137">
        <ele>509.2</ele>
        <time>2021-05-29 19:59:30</time>
      </trkpt>
      <trkpt lat="42.85799" lon="-2.68134">
        <ele>509.2</ele>
        <time>2021-05-29 19:59:31</time>
      </trkpt>
      <trkpt lat="42.85792" lon="-2.68131">
        <ele>509.2</ele>
        <time>2021-05-29 19:59:32</time>
      </trkpt>
      <trkpt lat="42.85785" lon="-2.68128">
        <ele>509.4</ele>
        <time>2021-05-29 19:59:33</time>
      </trkpt>
      <trkpt lat="42.85779" lon="-2.68124">
        <ele>509.6</ele>
        <time>2021-05-29 19:59:34</time>
      </trkpt>
      <trkpt lat="42.85772" lon="-2.68121">
        <ele>509.6</ele>
        <time>2021-05-29 19:59:35</time>
      </trkpt>
      <trkpt lat="42.85765" lon="-2.68118">
        <ele>509.8</ele>
        <time>2021-05-29 19:59:36</time>
      </trkpt>
      <trkpt lat="42.85759" lon="-2.68115">
        <ele>509.8</ele>
        <time>2021-05-29 19:59:37</time>
      </trkpt>
      <trkpt lat="42.85752" lon="-2.68112">
        <ele>509.8</ele>
        <time>2021-05-29 19:59:38</time>
      </trkpt>
      <trkpt lat="42.85745" lon="-2.68109">
        <ele>510</ele>
        <time>2021-05-29 19:59:39</time>
      </trkpt>
      <trkpt lat="42.85738" lon="-2.68106">
        <ele>510.2</ele>
        <time>2021-05-29 19:59:40</time>
      </trkpt>
      <trkpt lat="42.85731" lon="-2.68102">
        <ele>510.2</ele>
        <time>2021-05-29 19:59:41</time>
      </trkpt>
      <trkpt lat="42.85724" lon="-2.68099">
        <ele>510.4</ele>
        <time>2021-05-29 19:59:42</time>
      </trkpt>
      <trkpt lat="42.85717" lon="-2.68096">
        <ele>510.4</ele>
        <time>2021-05-29 19:59:43</time>
      </trkpt>
      <trkpt lat="42.8571" lon="-2.68093">
        <ele>510.4</ele>
        <time>2021-05-29 19:59:44</time>
      </trkpt>
      <trkpt lat="42.85703" lon="-2.68089">
        <ele>510.4</ele>
        <time>2021-05-29 19:59:45</time>
      </trkpt>
      <trkpt lat="42.85695" lon="-2.68086">
        <ele>510.4</ele>
        <time>2021-05-29 19:59:46</time>
      </trkpt>
      <trkpt lat="42.85688" lon="-2.68082">
        <ele>510.4</ele>
        <time>2021-05-29 19:59:47</time>
      </trkpt>
      <trkpt lat="42.85681" lon="-2.68079">
        <ele>510.4</ele>
        <time>2021-05-29 19:59:48</time>
      </trkpt>
      <trkpt lat="42.85674" lon="-2.68076">
        <ele>510.4</ele>
        <time>2021-05-29 19:59:49</time>
      </trkpt>
      <trkpt lat="42.85667" lon="-2.68072">
        <ele>510.6</ele>
        <time>2021-05-29 19:59:50</time>
      </trkpt>
      <trkpt lat="42.8566" lon="-2.68069">
        <ele>510.6</ele>
        <time>2021-05-29 19:59:51</time>
      </trkpt>
      <trkpt lat="42.85653" lon="-2.68065">
        <ele>510.6</ele>
        <time>2021-05-29 19:59:52</time>
      </trkpt>
      <trkpt lat="42.85646" lon="-2.68061">
        <ele>510.6</ele>
        <time>2021-05-29 19:59:53</time>
      </trkpt>
      <trkpt lat="42.8564" lon="-2.68058">
        <ele>510.6</ele>
        <time>2021-05-29 19:59:54</time>
      </trkpt>
      <trkpt lat="42.85633" lon="-2.68055">
        <ele>510.6</ele>
        <time>2021-05-29 19:59:55</time>
      </trkpt>
      <trkpt lat="42.85627" lon="-2.68052">
        <ele>510.6</ele>
        <time>2021-05-29 19:59:56</time>
      </trkpt>
      <trkpt lat="42.85621" lon="-2.68049">
        <ele>510.6</ele>
        <time>2021-05-29 19:59:57</time>
      </trkpt>
      <trkpt lat="42.85615" lon="-2.68047">
        <ele>510.6</ele>
        <time>2021-05-29 19:59:58</time>
      </trkpt>
      <trkpt lat="42.8561" lon="-2.68044">
        <ele>510.8</ele>
        <time>2021-05-29 19:59:59</time>
      </trkpt>
      <trkpt lat="42.85604" lon="-2.68041">
        <ele>510.8</ele>
        <time>2021-05-29 20:00:00</time>
      </trkpt>
      <trkpt lat="42.85599" lon="-2.68039">
        <ele>510.8</ele>
        <time>2021-05-29 20:00:01</time>
      </trkpt>
      <trkpt lat="42.85594" lon="-2.68037">
        <ele>510.8</ele>
        <time>2021-05-29 20:00:02</time>
      </trkpt>
      <trkpt lat="42.85589" lon="-2.68034">
        <ele>510.8</ele>
        <time>2021-05-29 20:00:03</time>
      </trkpt>
      <trkpt lat="42.85585" lon="-2.68032">
        <ele>510.8</ele>
        <time>2021-05-29 20:00:04</time>
      </trkpt>
      <trkpt lat="42.85581" lon="-2.68031">
        <ele>510.8</ele>
        <time>2021-05-29 20:00:05</time>
      </trkpt>
      <trkpt lat="42.85578" lon="-2.68029">
        <ele>510.8</ele>
        <time>2021-05-29 20:00:06</time>
      </trkpt>
      <trkpt lat="42.85575" lon="-2.68028">
        <ele>511</ele>
        <time>2021-05-29 20:00:07</time>
      </trkpt>
      <trkpt lat="42.85573" lon="-2.68027">
        <ele>511</ele>
        <time>2021-05-29 20:00:08</time>
      </trkpt>
      <trkpt lat="42.85571" lon="-2.68027">
        <ele>511</ele>
        <time>2021-05-29 20:00:09</time>
      </trkpt>
      <trkpt lat="42.85569" lon="-2.68027">
        <ele>511</ele>
        <time>2021-05-29 20:00:10</time>
      </trkpt>
      <trkpt lat="42.85568" lon="-2.68026">
        <ele>511</ele>
        <time>2021-05-29 20:00:11</time>
      </trkpt>
      <trkpt lat="42.85567" lon="-2.68026">
        <ele>511.2</ele>
        <time>2021-05-29 20:00:12</time>
      </trkpt>
      <trkpt lat="42.85566" lon="-2.68025">
        <ele>511.2</ele>
        <time>2021-05-29 20:00:13</time>
      </trkpt>
      <trkpt lat="42.85566" lon="-2.68025">
        <ele>511.2</ele>
        <time>2021-05-29 20:00:14</time>
      </trkpt>
      <trkpt lat="42.85563" lon="-2.68024">
        <ele>511.2</ele>
        <time>2021-05-29 20:00:52</time>
      </trkpt>
      <trkpt lat="42.85561" lon="-2.68023">
        <ele>511.2</ele>
        <time>2021-05-29 20:00:53</time>
      </trkpt>
      <trkpt lat="42.85559" lon="-2.68022">
        <ele>511.2</ele>
        <time>2021-05-29 20:00:54</time>
      </trkpt>
      <trkpt lat="42.85556" lon="-2.68021">
        <ele>511.2</ele>
        <time>2021-05-29 20:00:55</time>
      </trkpt>
      <trkpt lat="42.85552" lon="-2.6802">
        <ele>511.2</ele>
        <time>2021-05-29 20:00:56</time>
      </trkpt>
      <trkpt lat="42.85548" lon="-2.68018">
        <ele>511.2</ele>
        <time>2021-05-29 20:00:57</time>
      </trkpt>
      <trkpt lat="42.85543" lon="-2.68017">
        <ele>511.2</ele>
        <time>2021-05-29 20:00:58</time>
      </trkpt>
      <trkpt lat="42.85538" lon="-2.68016">
        <ele>511.2</ele>
        <time>2021-05-29 20:00:59</time>
      </trkpt>
      <trkpt lat="42.85533" lon="-2.68016">
        <ele>511.2</ele>
        <time>2021-05-29 20:01:00</time>
      </trkpt>
      <trkpt lat="42.85528" lon="-2.68015">
        <ele>511.2</ele>
        <time>2021-05-29 20:01:01</time>
      </trkpt>
      <trkpt lat="42.85522" lon="-2.68014">
        <ele>511.2</ele>
        <time>2021-05-29 20:01:02</time>
      </trkpt>
      <trkpt lat="42.85516" lon="-2.68013">
        <ele>511.2</ele>
        <time>2021-05-29 20:01:03</time>
      </trkpt>
      <trkpt lat="42.85509" lon="-2.68012">
        <ele>511.2</ele>
        <time>2021-05-29 20:01:04</time>
      </trkpt>
      <trkpt lat="42.85503" lon="-2.68011">
        <ele>511.2</ele>
        <time>2021-05-29 20:01:05</time>
      </trkpt>
      <trkpt lat="42.85496" lon="-2.6801">
        <ele>511.2</ele>
        <time>2021-05-29 20:01:06</time>
      </trkpt>
      <trkpt lat="42.8549" lon="-2.6801">
        <ele>511.2</ele>
        <time>2021-05-29 20:01:07</time>
      </trkpt>
      <trkpt lat="42.85484" lon="-2.68009">
        <ele>511.2</ele>
        <time>2021-05-29 20:01:08</time>
      </trkpt>
      <trkpt lat="42.85478" lon="-2.68009">
        <ele>511.2</ele>
        <time>2021-05-29 20:01:09</time>
      </trkpt>
      <trkpt lat="42.85472" lon="-2.68009">
        <ele>511.2</ele>
        <time>2021-05-29 20:01:10</time>
      </trkpt>
      <trkpt lat="42.85465" lon="-2.68008">
        <ele>511.4</ele>
        <time>2021-05-29 20:01:11</time>
      </trkpt>
      <trkpt lat="42.8546" lon="-2.68009">
        <ele>511.4</ele>
        <time>2021-05-29 20:01:12</time>
      </trkpt>
      <trkpt lat="42.85454" lon="-2.68009">
        <ele>511.4</ele>
        <time>2021-05-29 20:01:13</time>
      </trkpt>
      <trkpt lat="42.85448" lon="-2.6801">
        <ele>511.4</ele>
        <time>2021-05-29 20:01:14</time>
      </trkpt>
      <trkpt lat="42.85442" lon="-2.68011">
        <ele>511.4</ele>
        <time>2021-05-29 20:01:15</time>
      </trkpt>
      <trkpt lat="42.85436" lon="-2.68012">
        <ele>511.4</ele>
        <time>2021-05-29 20:01:16</time>
      </trkpt>
      <trkpt lat="42.85429" lon="-2.68013">
        <ele>511.6</ele>
        <time>2021-05-29 20:01:17</time>
      </trkpt>
      <trkpt lat="42.85423" lon="-2.68015">
        <ele>511.6</ele>
        <time>2021-05-29 20:01:18</time>
      </trkpt>
      <trkpt lat="42.85416" lon="-2.68015">
        <ele>511.6</ele>
        <time>2021-05-29 20:01:19</time>
      </trkpt>
      <trkpt lat="42.8541" lon="-2.68016">
        <ele>511.6</ele>
        <time>2021-05-29 20:01:20</time>
      </trkpt>
      <trkpt lat="42.85403" lon="-2.68017">
        <ele>511.6</ele>
        <time>2021-05-29 20:01:21</time>
      </trkpt>
      <trkpt lat="42.85396" lon="-2.68019">
        <ele>511.8</ele>
        <time>2021-05-29 20:01:22</time>
      </trkpt>
      <trkpt lat="42.85389" lon="-2.6802">
        <ele>511.8</ele>
        <time>2021-05-29 20:01:23</time>
      </trkpt>
      <trkpt lat="42.85382" lon="-2.68021">
        <ele>511.8</ele>
        <time>2021-05-29 20:01:24</time>
      </trkpt>
      <trkpt lat="42.85375" lon="-2.68022">
        <ele>512</ele>
        <time>2021-05-29 20:01:25</time>
      </trkpt>
      <trkpt lat="42.85368" lon="-2.68023">
        <ele>512</ele>
        <time>2021-05-29 20:01:26</time>
      </trkpt>
      <trkpt lat="42.85361" lon="-2.68024">
        <ele>512</ele>
        <time>2021-05-29 20:01:27</time>
      </trkpt>
      <trkpt lat="42.85354" lon="-2.68025">
        <ele>512.2</ele>
        <time>2021-05-29 20:01:28</time>
      </trkpt>
      <trkpt lat="42.85348" lon="-2.68026">
        <ele>512.2</ele>
        <time>2021-05-29 20:01:29</time>
      </trkpt>
      <trkpt lat="42.85341" lon="-2.68027">
        <ele>512.2</ele>
        <time>2021-05-29 20:01:30</time>
      </trkpt>
      <trkpt lat="42.85335" lon="-2.68028">
        <ele>512.2</ele>
        <time>2021-05-29 20:01:31</time>
      </trkpt>
      <trkpt lat="42.85328" lon="-2.68029">
        <ele>512.2</ele>
        <time>2021-05-29 20:01:32</time>
      </trkpt>
      <trkpt lat="42.85322" lon="-2.68031">
        <ele>512.2</ele>
        <time>2021-05-29 20:01:33</time>
      </trkpt>
      <trkpt lat="42.85316" lon="-2.68032">
        <ele>512.2</ele>
        <time>2021-05-29 20:01:34</time>
      </trkpt>
      <trkpt lat="42.8531" lon="-2.68033">
        <ele>512.2</ele>
        <time>2021-05-29 20:01:35</time>
      </trkpt>
      <trkpt lat="42.85305" lon="-2.68034">
        <ele>512.4</ele>
        <time>2021-05-29 20:01:36</time>
      </trkpt>
      <trkpt lat="42.853" lon="-2.68035">
        <ele>512.4</ele>
        <time>2021-05-29 20:01:37</time>
      </trkpt>
      <trkpt lat="42.85296" lon="-2.68036">
        <ele>512.4</ele>
        <time>2021-05-29 20:01:38</time>
      </trkpt>
      <trkpt lat="42.85293" lon="-2.68037">
        <ele>512.4</ele>
        <time>2021-05-29 20:01:39</time>
      </trkpt>
      <trkpt lat="42.85291" lon="-2.68038">
        <ele>512.6</ele>
        <time>2021-05-29 20:01:40</time>
      </trkpt>
      <trkpt lat="42.85289" lon="-2.68038">
        <ele>512.6</ele>
        <time>2021-05-29 20:01:41</time>
      </trkpt>
      <trkpt lat="42.85288" lon="-2.68039">
        <ele>512.6</ele>
        <time>2021-05-29 20:01:42</time>
      </trkpt>
      <trkpt lat="42.85287" lon="-2.68039">
        <ele>512.6</ele>
        <time>2021-05-29 20:01:43</time>
      </trkpt>
      <trkpt lat="42.85277" lon="-2.68041">
        <ele>512.8</ele>
        <time>2021-05-29 20:02:13</time>
      </trkpt>
      <trkpt lat="42.85274" lon="-2.68041">
        <ele>512.8</ele>
        <time>2021-05-29 20:02:14</time>
      </trkpt>
      <trkpt lat="42.85271" lon="-2.68042">
        <ele>512.8</ele>
        <time>2021-05-29 20:02:15</time>
      </trkpt>
      <trkpt lat="42.85267" lon="-2.68043">
        <ele>512.8</ele>
        <time>2021-05-29 20:02:16</time>
      </trkpt>
      <trkpt lat="42.85262" lon="-2.68043">
        <ele>512.8</ele>
        <time>2021-05-29 20:02:17</time>
      </trkpt>
      <trkpt lat="42.85257" lon="-2.68043">
        <ele>512.8</ele>
        <time>2021-05-29 20:02:18</time>
      </trkpt>
      <trkpt lat="42.85251" lon="-2.68044">
        <ele>512.8</ele>
        <time>2021-05-29 20:02:19</time>
      </trkpt>
      <trkpt lat="42.85245" lon="-2.68045">
        <ele>512.8</ele>
        <time>2021-05-29 20:02:20</time>
      </trkpt>
      <trkpt lat="42.8524" lon="-2.68047">
        <ele>512.8</ele>
        <time>2021-05-29 20:02:21</time>
      </trkpt>
      <trkpt lat="42.85233" lon="-2.68049">
        <ele>513</ele>
        <time>2021-05-29 20:02:22</time>
      </trkpt>
      <trkpt lat="42.85227" lon="-2.6805">
        <ele>513</ele>
        <time>2021-05-29 20:02:23</time>
      </trkpt>
      <trkpt lat="42.85221" lon="-2.68052">
        <ele>513</ele>
        <time>2021-05-29 20:02:24</time>
      </trkpt>
      <trkpt lat="42.85215" lon="-2.68053">
        <ele>513</ele>
        <time>2021-05-29 20:02:25</time>
      </trkpt>
      <trkpt lat="42.85209" lon="-2.68054">
        <ele>513</ele>
        <time>2021-05-29 20:02:26</time>
      </trkpt>
      <trkpt lat="42.85203" lon="-2.68055">
        <ele>513.2</ele>
        <time>2021-05-29 20:02:27</time>
      </trkpt>
      <trkpt lat="42.85197" lon="-2.68056">
        <ele>513.2</ele>
        <time>2021-05-29 20:02:28</time>
      </trkpt>
      <trkpt lat="42.85192" lon="-2.68057">
        <ele>513.2</ele>
        <time>2021-05-29 20:02:29</time>
      </trkpt>
      <trkpt lat="42.85186" lon="-2.68058">
        <ele>513.2</ele>
        <time>2021-05-29 20:02:30</time>
      </trkpt>
      <trkpt lat="42.85181" lon="-2.68058">
        <ele>513.2</ele>
        <time>2021-05-29 20:02:31</time>
      </trkpt>
      <trkpt lat="42.85177" lon="-2.68058">
        <ele>513.2</ele>
        <time>2021-05-29 20:02:32</time>
      </trkpt>
      <trkpt lat="42.85174" lon="-2.68058">
        <ele>513.4</ele>
        <time>2021-05-29 20:02:33</time>
      </trkpt>
      <trkpt lat="42.8517" lon="-2.68059">
        <ele>513.4</ele>
        <time>2021-05-29 20:02:34</time>
      </trkpt>
      <trkpt lat="42.85168" lon="-2.68059">
        <ele>513.4</ele>
        <time>2021-05-29 20:02:35</time>
      </trkpt>
      <trkpt lat="42.85166" lon="-2.6806">
        <ele>513.4</ele>
        <time>2021-05-29 20:02:36</time>
      </trkpt>
      <trkpt lat="42.85164" lon="-2.6806">
        <ele>513.4</ele>
        <time>2021-05-29 20:02:37</time>
      </trkpt>
      <trkpt lat="42.85163" lon="-2.68061">
        <ele>513.4</ele>
        <time>2021-05-29 20:02:38</time>
      </trkpt>
      <trkpt lat="42.85162" lon="-2.68061">
        <ele>513.4</ele>
        <time>2021-05-29 20:02:39</time>
      </trkpt>
      <trkpt lat="42.85162" lon="-2.68061">
        <ele>513.4</ele>
        <time>2021-05-29 20:02:40</time>
      </trkpt>
      <trkpt lat="42.85161" lon="-2.68061">
        <ele>513.4</ele>
        <time>2021-05-29 20:02:53</time>
      </trkpt>
      <trkpt lat="42.85159" lon="-2.68061">
        <ele>513.4</ele>
        <time>2021-05-29 20:02:54</time>
      </trkpt>
      <trkpt lat="42.85156" lon="-2.68062">
        <ele>513.4</ele>
        <time>2021-05-29 20:02:55</time>
      </trkpt>
      <trkpt lat="42.85154" lon="-2.68062">
        <ele>513.4</ele>
        <time>2021-05-29 20:02:56</time>
      </trkpt>
      <trkpt lat="42.8515" lon="-2.68064">
        <ele>513.4</ele>
        <time>2021-05-29 20:02:57</time>
      </trkpt>
      <trkpt lat="42.85146" lon="-2.68065">
        <ele>513.4</ele>
        <time>2021-05-29 20:02:58</time>
      </trkpt>
      <trkpt lat="42.85142" lon="-2.68066">
        <ele>513.4</ele>
        <time>2021-05-29 20:02:59</time>
      </trkpt>
      <trkpt lat="42.85137" lon="-2.68067">
        <ele>513.4</ele>
        <time>2021-05-29 20:03:00</time>
      </trkpt>
      <trkpt lat="42.85132" lon="-2.68068">
        <ele>513.6</ele>
        <time>2021-05-29 20:03:01</time>
      </trkpt>
      <trkpt lat="42.85127" lon="-2.6807">
        <ele>513.6</ele>
        <time>2021-05-29 20:03:02</time>
      </trkpt>
      <trkpt lat="42.85121" lon="-2.68072">
        <ele>513.6</ele>
        <time>2021-05-29 20:03:03</time>
      </trkpt>
      <trkpt lat="42.85115" lon="-2.68074">
        <ele>513.6</ele>
        <time>2021-05-29 20:03:04</time>
      </trkpt>
      <trkpt lat="42.85109" lon="-2.68076">
        <ele>513.6</ele>
        <time>2021-05-29 20:03:05</time>
      </trkpt>
      <trkpt lat="42.85102" lon="-2.68077">
        <ele>513.6</ele>
        <time>2021-05-29 20:03:06</time>
      </trkpt>
      <trkpt lat="42.85095" lon="-2.68078">
        <ele>513.6</ele>
        <time>2021-05-29 20:03:07</time>
      </trkpt>
      <trkpt lat="42.85088" lon="-2.68078">
        <ele>513.8</ele>
        <time>2021-05-29 20:03:08</time>
      </trkpt>
      <trkpt lat="42.85081" lon="-2.68079">
        <ele>513.8</ele>
        <time>2021-05-29 20:03:09</time>
      </trkpt>
      <trkpt lat="42.85075" lon="-2.6808">
        <ele>513.8</ele>
        <time>2021-05-29 20:03:10</time>
      </trkpt>
      <trkpt lat="42.85068" lon="-2.68082">
        <ele>513.8</ele>
        <time>2021-05-29 20:03:11</time>
      </trkpt>
      <trkpt lat="42.85062" lon="-2.68083">
        <ele>513.8</ele>
        <time>2021-05-29 20:03:12</time>
      </trkpt>
      <trkpt lat="42.85056" lon="-2.68084">
        <ele>513.8</ele>
        <time>2021-05-29 20:03:13</time>
      </trkpt>
      <trkpt lat="42.8505" lon="-2.68085">
        <ele>513.8</ele>
        <time>2021-05-29 20:03:14</time>
      </trkpt>
      <trkpt lat="42.85045" lon="-2.68086">
        <ele>514</ele>
        <time>2021-05-29 20:03:15</time>
      </trkpt>
      <trkpt lat="42.8504" lon="-2.68087">
        <ele>514</ele>
        <time>2021-05-29 20:03:16</time>
      </trkpt>
      <trkpt lat="42.85036" lon="-2.68087">
        <ele>514</ele>
        <time>2021-05-29 20:03:17</time>
      </trkpt>
      <trkpt lat="42.85032" lon="-2.68088">
        <ele>514.2</ele>
        <time>2021-05-29 20:03:18</time>
      </trkpt>
      <trkpt lat="42.85029" lon="-2.68088">
        <ele>514.2</ele>
        <time>2021-05-29 20:03:19</time>
      </trkpt>
      <trkpt lat="42.85026" lon="-2.68088">
        <ele>514.2</ele>
        <time>2021-05-29 20:03:20</time>
      </trkpt>
      <trkpt lat="42.85022" lon="-2.68086">
        <ele>514.2</ele>
        <time>2021-05-29 20:03:21</time>
      </trkpt>
      <trkpt lat="42.85018" lon="-2.68083">
        <ele>514.4</ele>
        <time>2021-05-29 20:03:22</time>
      </trkpt>
      <trkpt lat="42.85015" lon="-2.6808">
        <ele>514.4</ele>
        <time>2021-05-29 20:03:23</time>
      </trkpt>
      <trkpt lat="42.85011" lon="-2.68078">
        <ele>514.6</ele>
        <time>2021-05-29 20:03:24</time>
      </trkpt>
      <trkpt lat="42.85007" lon="-2.68077">
        <ele>514.6</ele>
        <time>2021-05-29 20:03:25</time>
      </trkpt>
      <trkpt lat="42.85004" lon="-2.68076">
        <ele>514.6</ele>
        <time>2021-05-29 20:03:26</time>
      </trkpt>
      <trkpt lat="42.85001" lon="-2.68076">
        <ele>514.6</ele>
        <time>2021-05-29 20:03:27</time>
      </trkpt>
      <trkpt lat="42.84998" lon="-2.68077">
        <ele>514.6</ele>
        <time>2021-05-29 20:03:28</time>
      </trkpt>
      <trkpt lat="42.84994" lon="-2.68078">
        <ele>514.6</ele>
        <time>2021-05-29 20:03:29</time>
      </trkpt>
      <trkpt lat="42.84991" lon="-2.68079">
        <ele>514.8</ele>
        <time>2021-05-29 20:03:30</time>
      </trkpt>
      <trkpt lat="42.84987" lon="-2.68081">
        <ele>514.8</ele>
        <time>2021-05-29 20:03:31</time>
      </trkpt>
      <trkpt lat="42.84982" lon="-2.68083">
        <ele>514.8</ele>
        <time>2021-05-29 20:03:32</time>
      </trkpt>
      <trkpt lat="42.84978" lon="-2.68085">
        <ele>515</ele>
        <time>2021-05-29 20:03:33</time>
      </trkpt>
      <trkpt lat="42.84974" lon="-2.68087">
        <ele>515</ele>
        <time>2021-05-29 20:03:34</time>
      </trkpt>
      <trkpt lat="42.84969" lon="-2.68088">
        <ele>515.2</ele>
        <time>2021-05-29 20:03:35</time>
      </trkpt>
      <trkpt lat="42.84965" lon="-2.6809">
        <ele>515</ele>
        <time>2021-05-29 20:03:36</time>
      </trkpt>
      <trkpt lat="42.8496" lon="-2.68092">
        <ele>515.2</ele>
        <time>2021-05-29 20:03:37</time>
      </trkpt>
      <trkpt lat="42.84956" lon="-2.68094">
        <ele>515.2</ele>
        <time>2021-05-29 20:03:38</time>
      </trkpt>
      <trkpt lat="42.84951" lon="-2.68097">
        <ele>515.2</ele>
        <time>2021-05-29 20:03:39</time>
      </trkpt>
      <trkpt lat="42.84946" lon="-2.681">
        <ele>515.2</ele>
        <time>2021-05-29 20:03:40</time>
      </trkpt>
      <trkpt lat="42.84941" lon="-2.68103">
        <ele>515.2</ele>
        <time>2021-05-29 20:03:41</time>
      </trkpt>
      <trkpt lat="42.84937" lon="-2.68105">
        <ele>515.2</ele>
        <time>2021-05-29 20:03:42</time>
      </trkpt>
      <trkpt lat="42.84933" lon="-2.68108">
        <ele>515.2</ele>
        <time>2021-05-29 20:03:43</time>
      </trkpt>
      <trkpt lat="42.84928" lon="-2.6811">
        <ele>515.4</ele>
        <time>2021-05-29 20:03:44</time>
      </trkpt>
      <trkpt lat="42.84924" lon="-2.68111">
        <ele>515.4</ele>
        <time>2021-05-29 20:03:45</time>
      </trkpt>
      <trkpt lat="42.8492" lon="-2.68114">
        <ele>515.4</ele>
        <time>2021-05-29 20:03:46</time>
      </trkpt>
      <trkpt lat="42.84917" lon="-2.68115">
        <ele>515.4</ele>
        <time>2021-05-29 20:03:47</time>
      </trkpt>
      <trkpt lat="42.84913" lon="-2.68116">
        <ele>515.4</ele>
        <time>2021-05-29 20:03:48</time>
      </trkpt>
      <trkpt lat="42.84909" lon="-2.68118">
        <ele>515.4</ele>
        <time>2021-05-29 20:03:49</time>
      </trkpt>
      <trkpt lat="42.84905" lon="-2.68119">
        <ele>515.4</ele>
        <time>2021-05-29 20:03:50</time>
      </trkpt>
      <trkpt lat="42.84902" lon="-2.6812">
        <ele>515.6</ele>
        <time>2021-05-29 20:03:51</time>
      </trkpt>
      <trkpt lat="42.84899" lon="-2.6812">
        <ele>515.6</ele>
        <time>2021-05-29 20:03:52</time>
      </trkpt>
      <trkpt lat="42.84895" lon="-2.68121">
        <ele>515.8</ele>
        <time>2021-05-29 20:03:53</time>
      </trkpt>
      <trkpt lat="42.84892" lon="-2.68121">
        <ele>515.8</ele>
        <time>2021-05-29 20:03:54</time>
      </trkpt>
      <trkpt lat="42.84889" lon="-2.68121">
        <ele>515.8</ele>
        <time>2021-05-29 20:03:55</time>
      </trkpt>
      <trkpt lat="42.84886" lon="-2.68122">
        <ele>515.8</ele>
        <time>2021-05-29 20:03:56</time>
      </trkpt>
      <trkpt lat="42.84884" lon="-2.68122">
        <ele>515.8</ele>
        <time>2021-05-29 20:03:57</time>
      </trkpt>
      <trkpt lat="42.8488" lon="-2.68123">
        <ele>516</ele>
        <time>2021-05-29 20:03:58</time>
      </trkpt>
      <trkpt lat="42.84876" lon="-2.68123">
        <ele>516</ele>
        <time>2021-05-29 20:03:59</time>
      </trkpt>
      <trkpt lat="42.84872" lon="-2.68122">
        <ele>516</ele>
        <time>2021-05-29 20:04:00</time>
      </trkpt>
      <trkpt lat="42.84866" lon="-2.68127">
        <ele>516</ele>
        <time>2021-05-29 20:04:01</time>
      </trkpt>
      <trkpt lat="42.8486" lon="-2.68132">
        <ele>516</ele>
        <time>2021-05-29 20:04:02</time>
      </trkpt>
      <trkpt lat="42.84855" lon="-2.68137">
        <ele>516</ele>
        <time>2021-05-29 20:04:03</time>
      </trkpt>
      <trkpt lat="42.8485" lon="-2.68137">
        <ele>516</ele>
        <time>2021-05-29 20:04:04</time>
      </trkpt>
      <trkpt lat="42.84846" lon="-2.68139">
        <ele>516</ele>
        <time>2021-05-29 20:04:05</time>
      </trkpt>
      <trkpt lat="42.84841" lon="-2.68143">
        <ele>516</ele>
        <time>2021-05-29 20:04:06</time>
      </trkpt>
      <trkpt lat="42.84836" lon="-2.68146">
        <ele>516.2</ele>
        <time>2021-05-29 20:04:07</time>
      </trkpt>
      <trkpt lat="42.84831" lon="-2.68148">
        <ele>516.4</ele>
        <time>2021-05-29 20:04:08</time>
      </trkpt>
      <trkpt lat="42.84825" lon="-2.68147">
        <ele>516.4</ele>
        <time>2021-05-29 20:04:09</time>
      </trkpt>
      <trkpt lat="42.84819" lon="-2.68146">
        <ele>516.4</ele>
        <time>2021-05-29 20:04:10</time>
      </trkpt>
      <trkpt lat="42.84814" lon="-2.68146">
        <ele>516.2</ele>
        <time>2021-05-29 20:04:11</time>
      </trkpt>
      <trkpt lat="42.84808" lon="-2.68145">
        <ele>516.4</ele>
        <time>2021-05-29 20:04:12</time>
      </trkpt>
      <trkpt lat="42.84801" lon="-2.68146">
        <ele>516.4</ele>
        <time>2021-05-29 20:04:13</time>
      </trkpt>
      <trkpt lat="42.84794" lon="-2.68148">
        <ele>516.4</ele>
        <time>2021-05-29 20:04:14</time>
      </trkpt>
      <trkpt lat="42.84789" lon="-2.68148">
        <ele>516.4</ele>
        <time>2021-05-29 20:04:15</time>
      </trkpt>
      <trkpt lat="42.84783" lon="-2.68148">
        <ele>516.6</ele>
        <time>2021-05-29 20:04:16</time>
      </trkpt>
      <trkpt lat="42.84778" lon="-2.68149">
        <ele>516.6</ele>
        <time>2021-05-29 20:04:17</time>
      </trkpt>
      <trkpt lat="42.84773" lon="-2.68151">
        <ele>516.6</ele>
        <time>2021-05-29 20:04:18</time>
      </trkpt>
      <trkpt lat="42.84768" lon="-2.68152">
        <ele>516.8</ele>
        <time>2021-05-29 20:04:19</time>
      </trkpt>
      <trkpt lat="42.84763" lon="-2.68153">
        <ele>516.8</ele>
        <time>2021-05-29 20:04:20</time>
      </trkpt>
      <trkpt lat="42.84758" lon="-2.68154">
        <ele>516.8</ele>
        <time>2021-05-29 20:04:21</time>
      </trkpt>
      <trkpt lat="42.84754" lon="-2.68156">
        <ele>517</ele>
        <time>2021-05-29 20:04:22</time>
      </trkpt>
      <trkpt lat="42.8475" lon="-2.68158">
        <ele>517</ele>
        <time>2021-05-29 20:04:23</time>
      </trkpt>
      <trkpt lat="42.84747" lon="-2.68159">
        <ele>517.2</ele>
        <time>2021-05-29 20:04:24</time>
      </trkpt>
      <trkpt lat="42.84744" lon="-2.68159">
        <ele>517.2</ele>
        <time>2021-05-29 20:04:25</time>
      </trkpt>
      <trkpt lat="42.84741" lon="-2.68159">
        <ele>517.4</ele>
        <time>2021-05-29 20:04:26</time>
      </trkpt>
      <trkpt lat="42.84738" lon="-2.68158">
        <ele>517.4</ele>
        <time>2021-05-29 20:04:27</time>
      </trkpt>
      <trkpt lat="42.84736" lon="-2.68158">
        <ele>517.4</ele>
        <time>2021-05-29 20:04:28</time>
      </trkpt>
      <trkpt lat="42.84735" lon="-2.68157">
        <ele>517.4</ele>
        <time>2021-05-29 20:04:29</time>
      </trkpt>
      <trkpt lat="42.84725" lon="-2.68169">
        <ele>517.6</ele>
        <time>2021-05-29 20:04:36</time>
      </trkpt>
      <trkpt lat="42.84723" lon="-2.68171">
        <ele>517.6</ele>
        <time>2021-05-29 20:04:37</time>
      </trkpt>
      <trkpt lat="42.84722" lon="-2.68173">
        <ele>517.6</ele>
        <time>2021-05-29 20:04:38</time>
      </trkpt>
      <trkpt lat="42.84719" lon="-2.68173">
        <ele>517.6</ele>
        <time>2021-05-29 20:04:39</time>
      </trkpt>
      <trkpt lat="42.84717" lon="-2.68173">
        <ele>517.6</ele>
        <time>2021-05-29 20:04:40</time>
      </trkpt>
      <trkpt lat="42.84714" lon="-2.68173">
        <ele>517.6</ele>
        <time>2021-05-29 20:04:41</time>
      </trkpt>
      <trkpt lat="42.84711" lon="-2.68172">
        <ele>517.6</ele>
        <time>2021-05-29 20:04:42</time>
      </trkpt>
      <trkpt lat="42.84709" lon="-2.68172">
        <ele>517.6</ele>
        <time>2021-05-29 20:04:43</time>
      </trkpt>
      <trkpt lat="42.86977" lon="-2.68194">
        <ele>506.2</ele>
        <time>2021-05-29 06:17:07</time>
      </trkpt>
      <trkpt lat="42.86975" lon="-2.68193">
        <ele>506.2</ele>
        <time>2021-05-29 06:17:08</time>
      </trkpt>
      <trkpt lat="42.86974" lon="-2.68192">
        <ele>506</ele>
        <time>2021-05-29 06:17:09</time>
      </trkpt>
      <trkpt lat="42.86972" lon="-2.6819">
        <ele>506</ele>
        <time>2021-05-29 06:17:10</time>
      </trkpt>
      <trkpt lat="42.8697" lon="-2.68188">
        <ele>506</ele>
        <time>2021-05-29 06:17:11</time>
      </trkpt>
      <trkpt lat="42.86968" lon="-2.68186">
        <ele>506.2</ele>
        <time>2021-05-29 06:17:12</time>
      </trkpt>
      <trkpt lat="42.86966" lon="-2.68184">
        <ele>506.2</ele>
        <time>2021-05-29 06:17:13</time>
      </trkpt>
      <trkpt lat="42.86963" lon="-2.68182">
        <ele>506.2</ele>
        <time>2021-05-29 06:17:14</time>
      </trkpt>
      <trkpt lat="42.8696" lon="-2.6818">
        <ele>506.2</ele>
        <time>2021-05-29 06:17:15</time>
      </trkpt>
      <trkpt lat="42.86957" lon="-2.68177">
        <ele>506.2</ele>
        <time>2021-05-29 06:17:16</time>
      </trkpt>
      <trkpt lat="42.86954" lon="-2.68175">
        <ele>506.2</ele>
        <time>2021-05-29 06:17:17</time>
      </trkpt>
      <trkpt lat="42.86951" lon="-2.68173">
        <ele>506.4</ele>
        <time>2021-05-29 06:17:18</time>
      </trkpt>
      <trkpt lat="42.86947" lon="-2.68171">
        <ele>506.4</ele>
        <time>2021-05-29 06:17:19</time>
      </trkpt>
      <trkpt lat="42.86944" lon="-2.68168">
        <ele>506.6</ele>
        <time>2021-05-29 06:17:20</time>
      </trkpt>
      <trkpt lat="42.86941" lon="-2.68166">
        <ele>506.6</ele>
        <time>2021-05-29 06:17:21</time>
      </trkpt>
      <trkpt lat="42.86938" lon="-2.68163">
        <ele>506.6</ele>
        <time>2021-05-29 06:17:22</time>
      </trkpt>
      <trkpt lat="42.86935" lon="-2.68161">
        <ele>506.6</ele>
        <time>2021-05-29 06:17:23</time>
      </trkpt>
      <trkpt lat="42.86931" lon="-2.68159">
        <ele>506.4</ele>
        <time>2021-05-29 06:17:24</time>
      </trkpt>
      <trkpt lat="42.86928" lon="-2.68156">
        <ele>506.4</ele>
        <time>2021-05-29 06:17:25</time>
      </trkpt>
      <trkpt lat="42.86924" lon="-2.68154">
        <ele>506.4</ele>
        <time>2021-05-29 06:17:26</time>
      </trkpt>
      <trkpt lat="42.8692" lon="-2.68151">
        <ele>506.4</ele>
        <time>2021-05-29 06:17:27</time>
      </trkpt>
      <trkpt lat="42.86917" lon="-2.68149">
        <ele>506.4</ele>
        <time>2021-05-29 06:17:28</time>
      </trkpt>
      <trkpt lat="42.86913" lon="-2.68147">
        <ele>506.4</ele>
        <time>2021-05-29 06:17:29</time>
      </trkpt>
      <trkpt lat="42.8691" lon="-2.68145">
        <ele>506.6</ele>
        <time>2021-05-29 06:17:30</time>
      </trkpt>
      <trkpt lat="42.86906" lon="-2.68143">
        <ele>506.6</ele>
        <time>2021-05-29 06:17:31</time>
      </trkpt>
      <trkpt lat="42.86902" lon="-2.68141">
        <ele>506.6</ele>
        <time>2021-05-29 06:17:32</time>
      </trkpt>
      <trkpt lat="42.86899" lon="-2.68138">
        <ele>506.6</ele>
        <time>2021-05-29 06:17:33</time>
      </trkpt>
      <trkpt lat="42.86896" lon="-2.68136">
        <ele>506.8</ele>
        <time>2021-05-29 06:17:34</time>
      </trkpt>
      <trkpt lat="42.86893" lon="-2.68133">
        <ele>506.8</ele>
        <time>2021-05-29 06:17:35</time>
      </trkpt>
      <trkpt lat="42.8689" lon="-2.68131">
        <ele>506.8</ele>
        <time>2021-05-29 06:17:36</time>
      </trkpt>
      <trkpt lat="42.86887" lon="-2.68128">
        <ele>506.8</ele>
        <time>2021-05-29 06:17:37</time>
      </trkpt>
      <trkpt lat="42.86884" lon="-2.68125">
        <ele>506.8</ele>
        <time>2021-05-29 06:17:38</time>
      </trkpt>
      <trkpt lat="42.86882" lon="-2.68122">
        <ele>506.8</ele>
        <time>2021-05-29 06:17:39</time>
      </trkpt>
      <trkpt lat="42.8688" lon="-2.68117">
        <ele>506.8</ele>
        <time>2021-05-29 06:17:40</time>
      </trkpt>
      <trkpt lat="42.86879" lon="-2.68112">
        <ele>507</ele>
        <time>2021-05-29 06:17:41</time>
      </trkpt>
      <trkpt lat="42.8688" lon="-2.68106">
        <ele>507</ele>
        <time>2021-05-29 06:17:42</time>
      </trkpt>
      <trkpt lat="42.86881" lon="-2.681">
        <ele>507</ele>
        <time>2021-05-29 06:17:43</time>
      </trkpt>
      <trkpt lat="42.86882" lon="-2.68093">
        <ele>507</ele>
        <time>2021-05-29 06:17:44</time>
      </trkpt>
      <trkpt lat="42.86883" lon="-2.68086">
        <ele>507</ele>
        <time>2021-05-29 06:17:45</time>
      </trkpt>
      <trkpt lat="42.86883" lon="-2.6808">
        <ele>507.2</ele>
        <time>2021-05-29 06:17:46</time>
      </trkpt>
      <trkpt lat="42.86884" lon="-2.68074">
        <ele>507.2</ele>
        <time>2021-05-29 06:17:47</time>
      </trkpt>
      <trkpt lat="42.86885" lon="-2.68068">
        <ele>507.2</ele>
        <time>2021-05-29 06:17:48</time>
      </trkpt>
      <trkpt lat="42.86885" lon="-2.68062">
        <ele>507.2</ele>
        <time>2021-05-29 06:17:49</time>
      </trkpt>
      <trkpt lat="42.86886" lon="-2.68055">
        <ele>507.2</ele>
        <time>2021-05-29 06:17:50</time>
      </trkpt>
      <trkpt lat="42.86886" lon="-2.68049">
        <ele>507.2</ele>
        <time>2021-05-29 06:17:51</time>
      </trkpt>
      <trkpt lat="42.86887" lon="-2.68042">
        <ele>507.2</ele>
        <time>2021-05-29 06:17:52</time>
      </trkpt>
      <trkpt lat="42.86888" lon="-2.68036">
        <ele>507.4</ele>
        <time>2021-05-29 06:17:53</time>
      </trkpt>
      <trkpt lat="42.86889" lon="-2.6803">
        <ele>507.4</ele>
        <time>2021-05-29 06:17:54</time>
      </trkpt>
      <trkpt lat="42.86889" lon="-2.68023">
        <ele>507.4</ele>
        <time>2021-05-29 06:17:55</time>
      </trkpt>
      <trkpt lat="42.8689" lon="-2.68018">
        <ele>507.4</ele>
        <time>2021-05-29 06:17:56</time>
      </trkpt>
      <trkpt lat="42.8689" lon="-2.68012">
        <ele>507.4</ele>
        <time>2021-05-29 06:17:57</time>
      </trkpt>
      <trkpt lat="42.86891" lon="-2.68007">
        <ele>507.4</ele>
        <time>2021-05-29 06:17:58</time>
      </trkpt>
      <trkpt lat="42.86891" lon="-2.68001">
        <ele>507.6</ele>
        <time>2021-05-29 06:17:59</time>
      </trkpt>
      <trkpt lat="42.86891" lon="-2.67996">
        <ele>507.6</ele>
        <time>2021-05-29 06:18:00</time>
      </trkpt>
      <trkpt lat="42.8689" lon="-2.67991">
        <ele>507.6</ele>
        <time>2021-05-29 06:18:01</time>
      </trkpt>
      <trkpt lat="42.86888" lon="-2.67987">
        <ele>507.6</ele>
        <time>2021-05-29 06:18:02</time>
      </trkpt>
      <trkpt lat="42.86886" lon="-2.67985">
        <ele>507.6</ele>
        <time>2021-05-29 06:18:03</time>
      </trkpt>
      <trkpt lat="42.86882" lon="-2.67983">
        <ele>507.6</ele>
        <time>2021-05-29 06:18:04</time>
      </trkpt>
      <trkpt lat="42.86879" lon="-2.67982">
        <ele>507.6</ele>
        <time>2021-05-29 06:18:05</time>
      </trkpt>
      <trkpt lat="42.86876" lon="-2.67981">
        <ele>507.8</ele>
        <time>2021-05-29 06:18:06</time>
      </trkpt>
      <trkpt lat="42.86874" lon="-2.67978">
        <ele>507.8</ele>
        <time>2021-05-29 06:18:07</time>
      </trkpt>
      <trkpt lat="42.86873" lon="-2.67974">
        <ele>507.8</ele>
        <time>2021-05-29 06:18:08</time>
      </trkpt>
      <trkpt lat="42.86872" lon="-2.67969">
        <ele>507.8</ele>
        <time>2021-05-29 06:18:09</time>
      </trkpt>
      <trkpt lat="42.86873" lon="-2.67964">
        <ele>507.8</ele>
        <time>2021-05-29 06:18:10</time>
      </trkpt>
      <trkpt lat="42.86873" lon="-2.67959">
        <ele>507.8</ele>
        <time>2021-05-29 06:18:11</time>
      </trkpt>
      <trkpt lat="42.86873" lon="-2.67954">
        <ele>508</ele>
        <time>2021-05-29 06:18:12</time>
      </trkpt>
      <trkpt lat="42.86873" lon="-2.67949">
        <ele>508</ele>
        <time>2021-05-29 06:18:13</time>
      </trkpt>
      <trkpt lat="42.86873" lon="-2.67944">
        <ele>508</ele>
        <time>2021-05-29 06:18:14</time>
      </trkpt>
      <trkpt lat="42.86873" lon="-2.67939">
        <ele>508</ele>
        <time>2021-05-29 06:18:15</time>
      </trkpt>
      <trkpt lat="42.86873" lon="-2.67934">
        <ele>508</ele>
        <time>2021-05-29 06:18:16</time>
      </trkpt>
      <trkpt lat="42.86871" lon="-2.6793">
        <ele>508.2</ele>
        <time>2021-05-29 06:18:17</time>
      </trkpt>
      <trkpt lat="42.8687" lon="-2.67925">
        <ele>508.2</ele>
        <time>2021-05-29 06:18:18</time>
      </trkpt>
      <trkpt lat="42.86868" lon="-2.6792">
        <ele>508.4</ele>
        <time>2021-05-29 06:18:19</time>
      </trkpt>
      <trkpt lat="42.86866" lon="-2.67915">
        <ele>508.4</ele>
        <time>2021-05-29 06:18:20</time>
      </trkpt>
      <trkpt lat="42.86865" lon="-2.6791">
        <ele>508.6</ele>
        <time>2021-05-29 06:18:21</time>
      </trkpt>
      <trkpt lat="42.86862" lon="-2.67904">
        <ele>508.6</ele>
        <time>2021-05-29 06:18:22</time>
      </trkpt>
      <trkpt lat="42.86859" lon="-2.67899">
        <ele>508.6</ele>
        <time>2021-05-29 06:18:23</time>
      </trkpt>
      <trkpt lat="42.86856" lon="-2.67894">
        <ele>508.6</ele>
        <time>2021-05-29 06:18:24</time>
      </trkpt>
      <trkpt lat="42.86853" lon="-2.67888">
        <ele>508.6</ele>
        <time>2021-05-29 06:18:25</time>
      </trkpt>
      <trkpt lat="42.86849" lon="-2.67883">
        <ele>508.8</ele>
        <time>2021-05-29 06:18:26</time>
      </trkpt>
      <trkpt lat="42.86845" lon="-2.67879">
        <ele>508.8</ele>
        <time>2021-05-29 06:18:27</time>
      </trkpt>
      <trkpt lat="42.86841" lon="-2.67874">
        <ele>508.8</ele>
        <time>2021-05-29 06:18:28</time>
      </trkpt>
      <trkpt lat="42.86837" lon="-2.6787">
        <ele>509</ele>
        <time>2021-05-29 06:18:29</time>
      </trkpt>
      <trkpt lat="42.86832" lon="-2.67865">
        <ele>509</ele>
        <time>2021-05-29 06:18:30</time>
      </trkpt>
      <trkpt lat="42.86828" lon="-2.67861">
        <ele>509</ele>
        <time>2021-05-29 06:18:31</time>
      </trkpt>
      <trkpt lat="42.86823" lon="-2.67857">
        <ele>509.2</ele>
        <time>2021-05-29 06:18:32</time>
      </trkpt>
      <trkpt lat="42.86818" lon="-2.67853">
        <ele>509.4</ele>
        <time>2021-05-29 06:18:33</time>
      </trkpt>
      <trkpt lat="42.86813" lon="-2.67849">
        <ele>509.4</ele>
        <time>2021-05-29 06:18:34</time>
      </trkpt>
      <trkpt lat="42.86808" lon="-2.67844">
        <ele>509.4</ele>
        <time>2021-05-29 06:18:35</time>
      </trkpt>
      <trkpt lat="42.86803" lon="-2.6784">
        <ele>509.6</ele>
        <time>2021-05-29 06:18:36</time>
      </trkpt>
      <trkpt lat="42.86798" lon="-2.67836">
        <ele>509.6</ele>
        <time>2021-05-29 06:18:37</time>
      </trkpt>
      <trkpt lat="42.86793" lon="-2.67831">
        <ele>509.6</ele>
        <time>2021-05-29 06:18:38</time>
      </trkpt>
      <trkpt lat="42.86788" lon="-2.67827">
        <ele>509.8</ele>
        <time>2021-05-29 06:18:39</time>
      </trkpt>
      <trkpt lat="42.86783" lon="-2.67823">
        <ele>509.8</ele>
        <time>2021-05-29 06:18:40</time>
      </trkpt>
      <trkpt lat="42.86778" lon="-2.67819">
        <ele>510</ele>
        <time>2021-05-29 06:18:41</time>
      </trkpt>
      <trkpt lat="42.86773" lon="-2.67815">
        <ele>510</ele>
        <time>2021-05-29 06:18:42</time>
      </trkpt>
      <trkpt lat="42.86768" lon="-2.6781">
        <ele>510</ele>
        <time>2021-05-29 06:18:43</time>
      </trkpt>
      <trkpt lat="42.86763" lon="-2.67806">
        <ele>510.2</ele>
        <time>2021-05-29 06:18:44</time>
      </trkpt>
      <trkpt lat="42.86758" lon="-2.67801">
        <ele>510.2</ele>
        <time>2021-05-29 06:18:45</time>
      </trkpt>
      <trkpt lat="42.86753" lon="-2.67796">
        <ele>510.2</ele>
        <time>2021-05-29 06:18:46</time>
      </trkpt>
      <trkpt lat="42.86748" lon="-2.67792">
        <ele>510.2</ele>
        <time>2021-05-29 06:18:47</time>
      </trkpt>
      <trkpt lat="42.86743" lon="-2.67788">
        <ele>510.4</ele>
        <time>2021-05-29 06:18:48</time>
      </trkpt>
      <trkpt lat="42.86739" lon="-2.67784">
        <ele>510.6</ele>
        <time>2021-05-29 06:18:49</time>
      </trkpt>
      <trkpt lat="42.86734" lon="-2.6778">
        <ele>510.6</ele>
        <time>2021-05-29 06:18:50</time>
      </trkpt>
      <trkpt lat="42.8673" lon="-2.67776">
        <ele>510.8</ele>
        <time>2021-05-29 06:18:51</time>
      </trkpt>
      <trkpt lat="42.86725" lon="-2.67772">
        <ele>511</ele>
        <time>2021-05-29 06:18:52</time>
      </trkpt>
      <trkpt lat="42.86721" lon="-2.67769">
        <ele>511</ele>
        <time>2021-05-29 06:18:53</time>
      </trkpt>
      <trkpt lat="42.86716" lon="-2.67766">
        <ele>511.2</ele>
        <time>2021-05-29 06:18:54</time>
      </trkpt>
      <trkpt lat="42.86712" lon="-2.67762">
        <ele>511.2</ele>
        <time>2021-05-29 06:18:55</time>
      </trkpt>
      <trkpt lat="42.86708" lon="-2.67759">
        <ele>511.2</ele>
        <time>2021-05-29 06:18:56</time>
      </trkpt>
      <trkpt lat="42.86704" lon="-2.67755">
        <ele>511.2</ele>
        <time>2021-05-29 06:18:57</time>
      </trkpt>
      <trkpt lat="42.86701" lon="-2.67751">
        <ele>511.4</ele>
        <time>2021-05-29 06:18:58</time>
      </trkpt>
      <trkpt lat="42.86697" lon="-2.67747">
        <ele>511.4</ele>
        <time>2021-05-29 06:18:59</time>
      </trkpt>
      <trkpt lat="42.86692" lon="-2.67744">
        <ele>511.4</ele>
        <time>2021-05-29 06:19:00</time>
      </trkpt>
      <trkpt lat="42.86688" lon="-2.67741">
        <ele>511.4</ele>
        <time>2021-05-29 06:19:01</time>
      </trkpt>
      <trkpt lat="42.86683" lon="-2.67738">
        <ele>511.4</ele>
        <time>2021-05-29 06:19:02</time>
      </trkpt>
      <trkpt lat="42.86678" lon="-2.67735">
        <ele>511.4</ele>
        <time>2021-05-29 06:19:03</time>
      </trkpt>
      <trkpt lat="42.86673" lon="-2.67733">
        <ele>511.6</ele>
        <time>2021-05-29 06:19:04</time>
      </trkpt>
      <trkpt lat="42.86668" lon="-2.6773">
        <ele>511.6</ele>
        <time>2021-05-29 06:19:05</time>
      </trkpt>
      <trkpt lat="42.86663" lon="-2.67728">
        <ele>511.6</ele>
        <time>2021-05-29 06:19:06</time>
      </trkpt>
      <trkpt lat="42.86659" lon="-2.67725">
        <ele>511.6</ele>
        <time>2021-05-29 06:19:07</time>
      </trkpt>
      <trkpt lat="42.86654" lon="-2.67722">
        <ele>511.6</ele>
        <time>2021-05-29 06:19:08</time>
      </trkpt>
      <trkpt lat="42.8665" lon="-2.67719">
        <ele>511.4</ele>
        <time>2021-05-29 06:19:09</time>
      </trkpt>
      <trkpt lat="42.86645" lon="-2.67716">
        <ele>511.4</ele>
        <time>2021-05-29 06:19:10</time>
      </trkpt>
      <trkpt lat="42.86642" lon="-2.67714">
        <ele>511.4</ele>
        <time>2021-05-29 06:19:11</time>
      </trkpt>
      <trkpt lat="42.86639" lon="-2.67712">
        <ele>511.6</ele>
        <time>2021-05-29 06:19:12</time>
      </trkpt>
      <trkpt lat="42.86636" lon="-2.6771">
        <ele>511.6</ele>
        <time>2021-05-29 06:19:13</time>
      </trkpt>
      <trkpt lat="42.86633" lon="-2.67708">
        <ele>511.6</ele>
        <time>2021-05-29 06:19:14</time>
      </trkpt>
      <trkpt lat="42.86632" lon="-2.67707">
        <ele>511.6</ele>
        <time>2021-05-29 06:19:15</time>
      </trkpt>
      <trkpt lat="42.8663" lon="-2.67705">
        <ele>511.6</ele>
        <time>2021-05-29 06:19:16</time>
      </trkpt>
      <trkpt lat="42.86628" lon="-2.67704">
        <ele>511.6</ele>
        <time>2021-05-29 06:19:17</time>
      </trkpt>
      <trkpt lat="42.86626" lon="-2.67703">
        <ele>511.6</ele>
        <time>2021-05-29 06:19:18</time>
      </trkpt>
      <trkpt lat="42.86623" lon="-2.67702">
        <ele>511.6</ele>
        <time>2021-05-29 06:19:19</time>
      </trkpt>
      <trkpt lat="42.8662" lon="-2.67701">
        <ele>511.6</ele>
        <time>2021-05-29 06:19:20</time>
      </trkpt>
      <trkpt lat="42.86616" lon="-2.677">
        <ele>511.6</ele>
        <time>2021-05-29 06:19:21</time>
      </trkpt>
      <trkpt lat="42.86612" lon="-2.67697">
        <ele>511.6</ele>
        <time>2021-05-29 06:19:22</time>
      </trkpt>
      <trkpt lat="42.86608" lon="-2.67694">
        <ele>511.6</ele>
        <time>2021-05-29 06:19:23</time>
      </trkpt>
      <trkpt lat="42.86603" lon="-2.67691">
        <ele>511.6</ele>
        <time>2021-05-29 06:19:24</time>
      </trkpt>
      <trkpt lat="42.86598" lon="-2.67688">
        <ele>511.8</ele>
        <time>2021-05-29 06:19:25</time>
      </trkpt>
      <trkpt lat="42.86594" lon="-2.67685">
        <ele>511.8</ele>
        <time>2021-05-29 06:19:26</time>
      </trkpt>
      <trkpt lat="42.86588" lon="-2.67682">
        <ele>511.8</ele>
        <time>2021-05-29 06:19:27</time>
      </trkpt>
      <trkpt lat="42.86583" lon="-2.67679">
        <ele>511.8</ele>
        <time>2021-05-29 06:19:28</time>
      </trkpt>
      <trkpt lat="42.86578" lon="-2.67676">
        <ele>511.8</ele>
        <time>2021-05-29 06:19:29</time>
      </trkpt>
      <trkpt lat="42.86572" lon="-2.67673">
        <ele>511.8</ele>
        <time>2021-05-29 06:19:30</time>
      </trkpt>
      <trkpt lat="42.86567" lon="-2.6767">
        <ele>511.8</ele>
        <time>2021-05-29 06:19:31</time>
      </trkpt>
      <trkpt lat="42.86561" lon="-2.67667">
        <ele>511.8</ele>
        <time>2021-05-29 06:19:32</time>
      </trkpt>
      <trkpt lat="42.86556" lon="-2.67665">
        <ele>511.8</ele>
        <time>2021-05-29 06:19:33</time>
      </trkpt>
      <trkpt lat="42.86549" lon="-2.67662">
        <ele>511.8</ele>
        <time>2021-05-29 06:19:34</time>
      </trkpt>
      <trkpt lat="42.86543" lon="-2.67659">
        <ele>511.8</ele>
        <time>2021-05-29 06:19:35</time>
      </trkpt>
      <trkpt lat="42.86537" lon="-2.67656">
        <ele>511.8</ele>
        <time>2021-05-29 06:19:36</time>
      </trkpt>
      <trkpt lat="42.86531" lon="-2.67654">
        <ele>511.8</ele>
        <time>2021-05-29 06:19:37</time>
      </trkpt>
      <trkpt lat="42.86525" lon="-2.67651">
        <ele>511.8</ele>
        <time>2021-05-29 06:19:38</time>
      </trkpt>
      <trkpt lat="42.86519" lon="-2.67648">
        <ele>511.8</ele>
        <time>2021-05-29 06:19:39</time>
      </trkpt>
      <trkpt lat="42.86513" lon="-2.67646">
        <ele>511.8</ele>
        <time>2021-05-29 06:19:40</time>
      </trkpt>
      <trkpt lat="42.86507" lon="-2.67643">
        <ele>511.8</ele>
        <time>2021-05-29 06:19:41</time>
      </trkpt>
      <trkpt lat="42.86501" lon="-2.6764">
        <ele>511.8</ele>
        <time>2021-05-29 06:19:42</time>
      </trkpt>
      <trkpt lat="42.86495" lon="-2.67638">
        <ele>511.8</ele>
        <time>2021-05-29 06:19:43</time>
      </trkpt>
      <trkpt lat="42.86489" lon="-2.67635">
        <ele>511.8</ele>
        <time>2021-05-29 06:19:44</time>
      </trkpt>
      <trkpt lat="42.86482" lon="-2.67632">
        <ele>511.8</ele>
        <time>2021-05-29 06:19:45</time>
      </trkpt>
      <trkpt lat="42.86476" lon="-2.6763">
        <ele>511.8</ele>
        <time>2021-05-29 06:19:46</time>
      </trkpt>
      <trkpt lat="42.86469" lon="-2.67627">
        <ele>512</ele>
        <time>2021-05-29 06:19:47</time>
      </trkpt>
      <trkpt lat="42.86463" lon="-2.67624">
        <ele>512</ele>
        <time>2021-05-29 06:19:48</time>
      </trkpt>
      <trkpt lat="42.86457" lon="-2.67622">
        <ele>512</ele>
        <time>2021-05-29 06:19:49</time>
      </trkpt>
      <trkpt lat="42.86451" lon="-2.67619">
        <ele>512</ele>
        <time>2021-05-29 06:19:50</time>
      </trkpt>
      <trkpt lat="42.86444" lon="-2.67616">
        <ele>512</ele>
        <time>2021-05-29 06:19:51</time>
      </trkpt>
      <trkpt lat="42.86438" lon="-2.67614">
        <ele>512</ele>
        <time>2021-05-29 06:19:52</time>
      </trkpt>
      <trkpt lat="42.86431" lon="-2.67611">
        <ele>512</ele>
        <time>2021-05-29 06:19:53</time>
      </trkpt>
      <trkpt lat="42.86425" lon="-2.67608">
        <ele>512</ele>
        <time>2021-05-29 06:19:54</time>
      </trkpt>
      <trkpt lat="42.86418" lon="-2.67606">
        <ele>512</ele>
        <time>2021-05-29 06:19:55</time>
      </trkpt>
      <trkpt lat="42.86412" lon="-2.67603">
        <ele>512.2</ele>
        <time>2021-05-29 06:19:56</time>
      </trkpt>
      <trkpt lat="42.86406" lon="-2.67601">
        <ele>512.2</ele>
        <time>2021-05-29 06:19:57</time>
      </trkpt>
      <trkpt lat="42.86399" lon="-2.67598">
        <ele>512.2</ele>
        <time>2021-05-29 06:19:58</time>
      </trkpt>
      <trkpt lat="42.86393" lon="-2.67596">
        <ele>512.2</ele>
        <time>2021-05-29 06:19:59</time>
      </trkpt>
      <trkpt lat="42.86386" lon="-2.67595">
        <ele>512.4</ele>
        <time>2021-05-29 06:20:00</time>
      </trkpt>
      <trkpt lat="42.8638" lon="-2.67593">
        <ele>512.4</ele>
        <time>2021-05-29 06:20:01</time>
      </trkpt>
      <trkpt lat="42.86373" lon="-2.67591">
        <ele>512.4</ele>
        <time>2021-05-29 06:20:02</time>
      </trkpt>
      <trkpt lat="42.86367" lon="-2.67588">
        <ele>512.4</ele>
        <time>2021-05-29 06:20:03</time>
      </trkpt>
      <trkpt lat="42.8636" lon="-2.67586">
        <ele>512.4</ele>
        <time>2021-05-29 06:20:04</time>
      </trkpt>
      <trkpt lat="42.86354" lon="-2.67584">
        <ele>512.4</ele>
        <time>2021-05-29 06:20:05</time>
      </trkpt>
      <trkpt lat="42.86347" lon="-2.67581">
        <ele>512.4</ele>
        <time>2021-05-29 06:20:06</time>
      </trkpt>
      <trkpt lat="42.86341" lon="-2.67579">
        <ele>512.4</ele>
        <time>2021-05-29 06:20:07</time>
      </trkpt>
      <trkpt lat="42.86334" lon="-2.67576">
        <ele>512.4</ele>
        <time>2021-05-29 06:20:08</time>
      </trkpt>
      <trkpt lat="42.86328" lon="-2.67574">
        <ele>512.4</ele>
        <time>2021-05-29 06:20:09</time>
      </trkpt>
      <trkpt lat="42.86321" lon="-2.67571">
        <ele>512.4</ele>
        <time>2021-05-29 06:20:10</time>
      </trkpt>
      <trkpt lat="42.86315" lon="-2.67569">
        <ele>512.4</ele>
        <time>2021-05-29 06:20:11</time>
      </trkpt>
      <trkpt lat="42.86309" lon="-2.67566">
        <ele>512.4</ele>
        <time>2021-05-29 06:20:12</time>
      </trkpt>
      <trkpt lat="42.86302" lon="-2.67563">
        <ele>512.4</ele>
        <time>2021-05-29 06:20:13</time>
      </trkpt>
      <trkpt lat="42.86296" lon="-2.67561">
        <ele>512.4</ele>
        <time>2021-05-29 06:20:14</time>
      </trkpt>
      <trkpt lat="42.86289" lon="-2.67559">
        <ele>512.4</ele>
        <time>2021-05-29 06:20:15</time>
      </trkpt>
      <trkpt lat="42.86282" lon="-2.67556">
        <ele>512.4</ele>
        <time>2021-05-29 06:20:16</time>
      </trkpt>
      <trkpt lat="42.86276" lon="-2.67554">
        <ele>512.4</ele>
        <time>2021-05-29 06:20:17</time>
      </trkpt>
      <trkpt lat="42.86269" lon="-2.67551">
        <ele>512.4</ele>
        <time>2021-05-29 06:20:18</time>
      </trkpt>
      <trkpt lat="42.86262" lon="-2.67549">
        <ele>512.4</ele>
        <time>2021-05-29 06:20:19</time>
      </trkpt>
      <trkpt lat="42.86256" lon="-2.67546">
        <ele>512.4</ele>
        <time>2021-05-29 06:20:20</time>
      </trkpt>
      <trkpt lat="42.86249" lon="-2.67544">
        <ele>512.4</ele>
        <time>2021-05-29 06:20:21</time>
      </trkpt>
      <trkpt lat="42.86243" lon="-2.67541">
        <ele>512.6</ele>
        <time>2021-05-29 06:20:22</time>
      </trkpt>
      <trkpt lat="42.86237" lon="-2.67538">
        <ele>512.6</ele>
        <time>2021-05-29 06:20:23</time>
      </trkpt>
      <trkpt lat="42.8623" lon="-2.67536">
        <ele>512.6</ele>
        <time>2021-05-29 06:20:24</time>
      </trkpt>
      <trkpt lat="42.86224" lon="-2.67533">
        <ele>512.8</ele>
        <time>2021-05-29 06:20:25</time>
      </trkpt>
      <trkpt lat="42.86217" lon="-2.67531">
        <ele>512.8</ele>
        <time>2021-05-29 06:20:26</time>
      </trkpt>
      <trkpt lat="42.86211" lon="-2.67529">
        <ele>512.8</ele>
        <time>2021-05-29 06:20:27</time>
      </trkpt>
      <trkpt lat="42.86205" lon="-2.67526">
        <ele>513</ele>
        <time>2021-05-29 06:20:28</time>
      </trkpt>
      <trkpt lat="42.86199" lon="-2.67524">
        <ele>513</ele>
        <time>2021-05-29 06:20:29</time>
      </trkpt>
      <trkpt lat="42.86192" lon="-2.67521">
        <ele>513</ele>
        <time>2021-05-29 06:20:30</time>
      </trkpt>
      <trkpt lat="42.86186" lon="-2.67519">
        <ele>513</ele>
        <time>2021-05-29 06:20:31</time>
      </trkpt>
      <trkpt lat="42.8618" lon="-2.67516">
        <ele>513</ele>
        <time>2021-05-29 06:20:32</time>
      </trkpt>
      <trkpt lat="42.86174" lon="-2.67514">
        <ele>513</ele>
        <time>2021-05-29 06:20:33</time>
      </trkpt>
      <trkpt lat="42.86168" lon="-2.67512">
        <ele>513</ele>
        <time>2021-05-29 06:20:34</time>
      </trkpt>
      <trkpt lat="42.86162" lon="-2.6751">
        <ele>513</ele>
        <time>2021-05-29 06:20:35</time>
      </trkpt>
      <trkpt lat="42.86156" lon="-2.67508">
        <ele>513</ele>
        <time>2021-05-29 06:20:36</time>
      </trkpt>
      <trkpt lat="42.8615" lon="-2.67508">
        <ele>513</ele>
        <time>2021-05-29 06:20:37</time>
      </trkpt>
      <trkpt lat="42.86144" lon="-2.67509">
        <ele>513</ele>
        <time>2021-05-29 06:20:38</time>
      </trkpt>
      <trkpt lat="42.86138" lon="-2.67512">
        <ele>513</ele>
        <time>2021-05-29 06:20:39</time>
      </trkpt>
      <trkpt lat="42.86131" lon="-2.67515">
        <ele>513</ele>
        <time>2021-05-29 06:20:40</time>
      </trkpt>
      <trkpt lat="42.86125" lon="-2.67518">
        <ele>513</ele>
        <time>2021-05-29 06:20:41</time>
      </trkpt>
      <trkpt lat="42.86119" lon="-2.67518">
        <ele>513</ele>
        <time>2021-05-29 06:20:42</time>
      </trkpt>
      <trkpt lat="42.86112" lon="-2.67516">
        <ele>513</ele>
        <time>2021-05-29 06:20:43</time>
      </trkpt>
      <trkpt lat="42.86107" lon="-2.67512">
        <ele>513</ele>
        <time>2021-05-29 06:20:44</time>
      </trkpt>
      <trkpt lat="42.86102" lon="-2.67507">
        <ele>513</ele>
        <time>2021-05-29 06:20:45</time>
      </trkpt>
      <trkpt lat="42.86098" lon="-2.67499">
        <ele>513</ele>
        <time>2021-05-29 06:20:46</time>
      </trkpt>
      <trkpt lat="42.86096" lon="-2.67491">
        <ele>513</ele>
        <time>2021-05-29 06:20:47</time>
      </trkpt>
      <trkpt lat="42.86096" lon="-2.67482">
        <ele>513</ele>
        <time>2021-05-29 06:20:48</time>
      </trkpt>
      <trkpt lat="42.86096" lon="-2.67473">
        <ele>513</ele>
        <time>2021-05-29 06:20:49</time>
      </trkpt>
      <trkpt lat="42.86098" lon="-2.67465">
        <ele>513</ele>
        <time>2021-05-29 06:20:50</time>
      </trkpt>
      <trkpt lat="42.86101" lon="-2.67457">
        <ele>513</ele>
        <time>2021-05-29 06:20:51</time>
      </trkpt>
      <trkpt lat="42.86105" lon="-2.6745">
        <ele>513.2</ele>
        <time>2021-05-29 06:20:52</time>
      </trkpt>
      <trkpt lat="42.86109" lon="-2.67442">
        <ele>513.2</ele>
        <time>2021-05-29 06:20:53</time>
      </trkpt>
      <trkpt lat="42.86113" lon="-2.67434">
        <ele>513.2</ele>
        <time>2021-05-29 06:20:54</time>
      </trkpt>
      <trkpt lat="42.86115" lon="-2.67425">
        <ele>513.2</ele>
        <time>2021-05-29 06:20:55</time>
      </trkpt>
      <trkpt lat="42.86118" lon="-2.67416">
        <ele>513.2</ele>
        <time>2021-05-29 06:20:56</time>
      </trkpt>
      <trkpt lat="42.8612" lon="-2.67406">
        <ele>513.2</ele>
        <time>2021-05-29 06:20:57</time>
      </trkpt>
      <trkpt lat="42.86123" lon="-2.67397">
        <ele>513.2</ele>
        <time>2021-05-29 06:20:58</time>
      </trkpt>
      <trkpt lat="42.86126" lon="-2.67387">
        <ele>513.2</ele>
        <time>2021-05-29 06:20:59</time>
      </trkpt>
      <trkpt lat="42.86128" lon="-2.67378">
        <ele>513.2</ele>
        <time>2021-05-29 06:21:00</time>
      </trkpt>
      <trkpt lat="42.86131" lon="-2.67368">
        <ele>513.2</ele>
        <time>2021-05-29 06:21:01</time>
      </trkpt>
      <trkpt lat="42.86133" lon="-2.67359">
        <ele>513.2</ele>
        <time>2021-05-29 06:21:02</time>
      </trkpt>
      <trkpt lat="42.86136" lon="-2.6735">
        <ele>513.2</ele>
        <time>2021-05-29 06:21:03</time>
      </trkpt>
      <trkpt lat="42.86138" lon="-2.67341">
        <ele>513.2</ele>
        <time>2021-05-29 06:21:04</time>
      </trkpt>
      <trkpt lat="42.86141" lon="-2.67331">
        <ele>513.2</ele>
        <time>2021-05-29 06:21:05</time>
      </trkpt>
      <trkpt lat="42.86144" lon="-2.67322">
        <ele>513.2</ele>
        <time>2021-05-29 06:21:06</time>
      </trkpt>
      <trkpt lat="42.86146" lon="-2.67313">
        <ele>513.2</ele>
        <time>2021-05-29 06:21:07</time>
      </trkpt>
      <trkpt lat="42.86149" lon="-2.67304">
        <ele>513.2</ele>
        <time>2021-05-29 06:21:08</time>
      </trkpt>
      <trkpt lat="42.86151" lon="-2.67295">
        <ele>513.2</ele>
        <time>2021-05-29 06:21:09</time>
      </trkpt>
      <trkpt lat="42.86154" lon="-2.67285">
        <ele>513.2</ele>
        <time>2021-05-29 06:21:10</time>
      </trkpt>
      <trkpt lat="42.86157" lon="-2.67276">
        <ele>513.2</ele>
        <time>2021-05-29 06:21:11</time>
      </trkpt>
      <trkpt lat="42.86159" lon="-2.67267">
        <ele>513.2</ele>
        <time>2021-05-29 06:21:12</time>
      </trkpt>
      <trkpt lat="42.86162" lon="-2.67258">
        <ele>513.2</ele>
        <time>2021-05-29 06:21:13</time>
      </trkpt>
      <trkpt lat="42.86164" lon="-2.67249">
        <ele>513.2</ele>
        <time>2021-05-29 06:21:14</time>
      </trkpt>
      <trkpt lat="42.86165" lon="-2.67239">
        <ele>513.2</ele>
        <time>2021-05-29 06:21:15</time>
      </trkpt>
      <trkpt lat="42.86166" lon="-2.67229">
        <ele>513</ele>
        <time>2021-05-29 06:21:16</time>
      </trkpt>
      <trkpt lat="42.86165" lon="-2.6722">
        <ele>513</ele>
        <time>2021-05-29 06:21:17</time>
      </trkpt>
      <trkpt lat="42.86164" lon="-2.6721">
        <ele>513</ele>
        <time>2021-05-29 06:21:18</time>
      </trkpt>
      <trkpt lat="42.86162" lon="-2.672">
        <ele>513</ele>
        <time>2021-05-29 06:21:19</time>
      </trkpt>
      <trkpt lat="42.8616" lon="-2.67191">
        <ele>513</ele>
        <time>2021-05-29 06:21:20</time>
      </trkpt>
      <trkpt lat="42.86158" lon="-2.67181">
        <ele>513</ele>
        <time>2021-05-29 06:21:21</time>
      </trkpt>
      <trkpt lat="42.86157" lon="-2.67172">
        <ele>513</ele>
        <time>2021-05-29 06:21:22</time>
      </trkpt>
      <trkpt lat="42.86155" lon="-2.67163">
        <ele>512.8</ele>
        <time>2021-05-29 06:21:23</time>
      </trkpt>
      <trkpt lat="42.86153" lon="-2.67153">
        <ele>512.8</ele>
        <time>2021-05-29 06:21:24</time>
      </trkpt>
      <trkpt lat="42.86152" lon="-2.67144">
        <ele>512.8</ele>
        <time>2021-05-29 06:21:25</time>
      </trkpt>
      <trkpt lat="42.8615" lon="-2.67135">
        <ele>512.8</ele>
        <time>2021-05-29 06:21:26</time>
      </trkpt>
      <trkpt lat="42.86148" lon="-2.67126">
        <ele>512.6</ele>
        <time>2021-05-29 06:21:27</time>
      </trkpt>
      <trkpt lat="42.86147" lon="-2.67117">
        <ele>512.6</ele>
        <time>2021-05-29 06:21:28</time>
      </trkpt>
      <trkpt lat="42.86145" lon="-2.67109">
        <ele>512.6</ele>
        <time>2021-05-29 06:21:29</time>
      </trkpt>
      <trkpt lat="42.86144" lon="-2.671">
        <ele>512.6</ele>
        <time>2021-05-29 06:21:30</time>
      </trkpt>
      <trkpt lat="42.86142" lon="-2.6709">
        <ele>512.6</ele>
        <time>2021-05-29 06:21:31</time>
      </trkpt>
      <trkpt lat="42.8614" lon="-2.67081">
        <ele>512.6</ele>
        <time>2021-05-29 06:21:32</time>
      </trkpt>
      <trkpt lat="42.86139" lon="-2.67072">
        <ele>512.6</ele>
        <time>2021-05-29 06:21:33</time>
      </trkpt>
      <trkpt lat="42.86137" lon="-2.67063">
        <ele>512.6</ele>
        <time>2021-05-29 06:21:34</time>
      </trkpt>
      <trkpt lat="42.86136" lon="-2.67054">
        <ele>512.6</ele>
        <time>2021-05-29 06:21:35</time>
      </trkpt>
      <trkpt lat="42.86134" lon="-2.67044">
        <ele>512.6</ele>
        <time>2021-05-29 06:21:36</time>
      </trkpt>
      <trkpt lat="42.86132" lon="-2.67035">
        <ele>512.8</ele>
        <time>2021-05-29 06:21:37</time>
      </trkpt>
      <trkpt lat="42.86131" lon="-2.67026">
        <ele>512.8</ele>
        <time>2021-05-29 06:21:38</time>
      </trkpt>
      <trkpt lat="42.86129" lon="-2.67016">
        <ele>512.8</ele>
        <time>2021-05-29 06:21:39</time>
      </trkpt>
      <trkpt lat="42.86127" lon="-2.67007">
        <ele>512.8</ele>
        <time>2021-05-29 06:21:40</time>
      </trkpt>
      <trkpt lat="42.86126" lon="-2.66998">
        <ele>512.8</ele>
        <time>2021-05-29 06:21:41</time>
      </trkpt>
      <trkpt lat="42.86124" lon="-2.66989">
        <ele>512.8</ele>
        <time>2021-05-29 06:21:42</time>
      </trkpt>
      <trkpt lat="42.86122" lon="-2.6698">
        <ele>512.6</ele>
        <time>2021-05-29 06:21:43</time>
      </trkpt>
      <trkpt lat="42.86121" lon="-2.6697">
        <ele>512.6</ele>
        <time>2021-05-29 06:21:44</time>
      </trkpt>
      <trkpt lat="42.86119" lon="-2.66961">
        <ele>512.6</ele>
        <time>2021-05-29 06:21:45</time>
      </trkpt>
      <trkpt lat="42.86118" lon="-2.66952">
        <ele>512.6</ele>
        <time>2021-05-29 06:21:46</time>
      </trkpt>
      <trkpt lat="42.86116" lon="-2.66944">
        <ele>512.8</ele>
        <time>2021-05-29 06:21:47</time>
      </trkpt>
      <trkpt lat="42.86114" lon="-2.66934">
        <ele>512.8</ele>
        <time>2021-05-29 06:21:48</time>
      </trkpt>
      <trkpt lat="42.86113" lon="-2.66925">
        <ele>512.8</ele>
        <time>2021-05-29 06:21:49</time>
      </trkpt>
      <trkpt lat="42.86111" lon="-2.66916">
        <ele>512.8</ele>
        <time>2021-05-29 06:21:50</time>
      </trkpt>
      <trkpt lat="42.86109" lon="-2.66907">
        <ele>512.8</ele>
        <time>2021-05-29 06:21:51</time>
      </trkpt>
      <trkpt lat="42.86108" lon="-2.66897">
        <ele>513</ele>
        <time>2021-05-29 06:21:52</time>
      </trkpt>
      <trkpt lat="42.86106" lon="-2.66888">
        <ele>513</ele>
        <time>2021-05-29 06:21:53</time>
      </trkpt>
      <trkpt lat="42.86104" lon="-2.66879">
        <ele>513</ele>
        <time>2021-05-29 06:21:54</time>
      </trkpt>
      <trkpt lat="42.86102" lon="-2.6687">
        <ele>513</ele>
        <time>2021-05-29 06:21:55</time>
      </trkpt>
      <trkpt lat="42.861" lon="-2.6686">
        <ele>513</ele>
        <time>2021-05-29 06:21:56</time>
      </trkpt>
      <trkpt lat="42.86099" lon="-2.66851">
        <ele>513</ele>
        <time>2021-05-29 06:21:57</time>
      </trkpt>
      <trkpt lat="42.86097" lon="-2.66842">
        <ele>513</ele>
        <time>2021-05-29 06:21:58</time>
      </trkpt>
      <trkpt lat="42.86095" lon="-2.66833">
        <ele>513</ele>
        <time>2021-05-29 06:21:59</time>
      </trkpt>
      <trkpt lat="42.86093" lon="-2.66824">
        <ele>513</ele>
        <time>2021-05-29 06:22:00</time>
      </trkpt>
      <trkpt lat="42.86091" lon="-2.66815">
        <ele>513</ele>
        <time>2021-05-29 06:22:01</time>
      </trkpt>
      <trkpt lat="42.8609" lon="-2.66806">
        <ele>513</ele>
        <time>2021-05-29 06:22:02</time>
      </trkpt>
      <trkpt lat="42.86088" lon="-2.66797">
        <ele>513</ele>
        <time>2021-05-29 06:22:03</time>
      </trkpt>
      <trkpt lat="42.86086" lon="-2.66788">
        <ele>513.2</ele>
        <time>2021-05-29 06:22:04</time>
      </trkpt>
      <trkpt lat="42.86084" lon="-2.66778">
        <ele>513.2</ele>
        <time>2021-05-29 06:22:05</time>
      </trkpt>
      <trkpt lat="42.86082" lon="-2.66769">
        <ele>513.2</ele>
        <time>2021-05-29 06:22:06</time>
      </trkpt>
      <trkpt lat="42.86081" lon="-2.6676">
        <ele>513.2</ele>
        <time>2021-05-29 06:22:07</time>
      </trkpt>
      <trkpt lat="42.86079" lon="-2.6675">
        <ele>513.2</ele>
        <time>2021-05-29 06:22:08</time>
      </trkpt>
      <trkpt lat="42.86077" lon="-2.66741">
        <ele>513.2</ele>
        <time>2021-05-29 06:22:09</time>
      </trkpt>
      <trkpt lat="42.86075" lon="-2.66732">
        <ele>513.2</ele>
        <time>2021-05-29 06:22:10</time>
      </trkpt>
      <trkpt lat="42.86074" lon="-2.66723">
        <ele>513.2</ele>
        <time>2021-05-29 06:22:11</time>
      </trkpt>
      <trkpt lat="42.86072" lon="-2.66713">
        <ele>513.2</ele>
        <time>2021-05-29 06:22:12</time>
      </trkpt>
      <trkpt lat="42.86071" lon="-2.66704">
        <ele>513.2</ele>
        <time>2021-05-29 06:22:13</time>
      </trkpt>
      <trkpt lat="42.86069" lon="-2.66695">
        <ele>513.2</ele>
        <time>2021-05-29 06:22:14</time>
      </trkpt>
      <trkpt lat="42.86067" lon="-2.66686">
        <ele>513.2</ele>
        <time>2021-05-29 06:22:15</time>
      </trkpt>
      <trkpt lat="42.86065" lon="-2.66677">
        <ele>513.2</ele>
        <time>2021-05-29 06:22:16</time>
      </trkpt>
      <trkpt lat="42.86064" lon="-2.66668">
        <ele>513.2</ele>
        <time>2021-05-29 06:22:17</time>
      </trkpt>
      <trkpt lat="42.86062" lon="-2.66659">
        <ele>513.2</ele>
        <time>2021-05-29 06:22:18</time>
      </trkpt>
      <trkpt lat="42.8606" lon="-2.6665">
        <ele>513.2</ele>
        <time>2021-05-29 06:22:19</time>
      </trkpt>
      <trkpt lat="42.86058" lon="-2.6664">
        <ele>513</ele>
        <time>2021-05-29 06:22:20</time>
      </trkpt>
      <trkpt lat="42.86056" lon="-2.66631">
        <ele>513</ele>
        <time>2021-05-29 06:22:21</time>
      </trkpt>
      <trkpt lat="42.86054" lon="-2.66622">
        <ele>513</ele>
        <time>2021-05-29 06:22:22</time>
      </trkpt>
      <trkpt lat="42.86052" lon="-2.66612">
        <ele>513</ele>
        <time>2021-05-29 06:22:23</time>
      </trkpt>
      <trkpt lat="42.86051" lon="-2.66603">
        <ele>513</ele>
        <time>2021-05-29 06:22:24</time>
      </trkpt>
      <trkpt lat="42.86049" lon="-2.66593">
        <ele>513</ele>
        <time>2021-05-29 06:22:25</time>
      </trkpt>
      <trkpt lat="42.86047" lon="-2.66584">
        <ele>513</ele>
        <time>2021-05-29 06:22:26</time>
      </trkpt>
      <trkpt lat="42.86045" lon="-2.66575">
        <ele>513</ele>
        <time>2021-05-29 06:22:27</time>
      </trkpt>
      <trkpt lat="42.86043" lon="-2.66565">
        <ele>513</ele>
        <time>2021-05-29 06:22:28</time>
      </trkpt>
      <trkpt lat="42.86042" lon="-2.66556">
        <ele>513.2</ele>
        <time>2021-05-29 06:22:29</time>
      </trkpt>
      <trkpt lat="42.8604" lon="-2.66546">
        <ele>513</ele>
        <time>2021-05-29 06:22:30</time>
      </trkpt>
      <trkpt lat="42.86038" lon="-2.66537">
        <ele>513.2</ele>
        <time>2021-05-29 06:22:31</time>
      </trkpt>
      <trkpt lat="42.86037" lon="-2.66528">
        <ele>513.2</ele>
        <time>2021-05-29 06:22:32</time>
      </trkpt>
      <trkpt lat="42.86034" lon="-2.66519">
        <ele>513.2</ele>
        <time>2021-05-29 06:22:33</time>
      </trkpt>
      <trkpt lat="42.86033" lon="-2.6651">
        <ele>513.2</ele>
        <time>2021-05-29 06:22:34</time>
      </trkpt>
      <trkpt lat="42.86031" lon="-2.66501">
        <ele>513.2</ele>
        <time>2021-05-29 06:22:35</time>
      </trkpt>
      <trkpt lat="42.86029" lon="-2.66491">
        <ele>513.2</ele>
        <time>2021-05-29 06:22:36</time>
      </trkpt>
      <trkpt lat="42.86027" lon="-2.66482">
        <ele>513.2</ele>
        <time>2021-05-29 06:22:37</time>
      </trkpt>
      <trkpt lat="42.86026" lon="-2.66473">
        <ele>513.2</ele>
        <time>2021-05-29 06:22:38</time>
      </trkpt>
      <trkpt lat="42.86024" lon="-2.66463">
        <ele>513.2</ele>
        <time>2021-05-29 06:22:39</time>
      </trkpt>
      <trkpt lat="42.86022" lon="-2.66454">
        <ele>513.2</ele>
        <time>2021-05-29 06:22:40</time>
      </trkpt>
      <trkpt lat="42.8602" lon="-2.66444">
        <ele>513.2</ele>
        <time>2021-05-29 06:22:41</time>
      </trkpt>
      <trkpt lat="42.86018" lon="-2.66435">
        <ele>513.2</ele>
        <time>2021-05-29 06:22:42</time>
      </trkpt>
      <trkpt lat="42.86016" lon="-2.66425">
        <ele>513.2</ele>
        <time>2021-05-29 06:22:43</time>
      </trkpt>
      <trkpt lat="42.86013" lon="-2.66416">
        <ele>513.2</ele>
        <time>2021-05-29 06:22:44</time>
      </trkpt>
      <trkpt lat="42.86011" lon="-2.66406">
        <ele>513.2</ele>
        <time>2021-05-29 06:22:45</time>
      </trkpt>
      <trkpt lat="42.86008" lon="-2.66397">
        <ele>513.2</ele>
        <time>2021-05-29 06:22:46</time>
      </trkpt>
      <trkpt lat="42.86005" lon="-2.66388">
        <ele>513.2</ele>
        <time>2021-05-29 06:22:47</time>
      </trkpt>
      <trkpt lat="42.86002" lon="-2.6638">
        <ele>513.2</ele>
        <time>2021-05-29 06:22:48</time>
      </trkpt>
      <trkpt lat="42.85998" lon="-2.66371">
        <ele>513.2</ele>
        <time>2021-05-29 06:22:49</time>
      </trkpt>
      <trkpt lat="42.85994" lon="-2.66363">
        <ele>513.4</ele>
        <time>2021-05-29 06:22:50</time>
      </trkpt>
      <trkpt lat="42.8599" lon="-2.66355">
        <ele>513.4</ele>
        <time>2021-05-29 06:22:51</time>
      </trkpt>
      <trkpt lat="42.85986" lon="-2.66348">
        <ele>513.4</ele>
        <time>2021-05-29 06:22:52</time>
      </trkpt>
      <trkpt lat="42.85982" lon="-2.66341">
        <ele>513.4</ele>
        <time>2021-05-29 06:22:53</time>
      </trkpt>
      <trkpt lat="42.85978" lon="-2.66334">
        <ele>513.4</ele>
        <time>2021-05-29 06:22:54</time>
      </trkpt>
      <trkpt lat="42.85973" lon="-2.66327">
        <ele>513.4</ele>
        <time>2021-05-29 06:22:55</time>
      </trkpt>
      <trkpt lat="42.85969" lon="-2.66321">
        <ele>513.4</ele>
        <time>2021-05-29 06:22:56</time>
      </trkpt>
      <trkpt lat="42.85965" lon="-2.66315">
        <ele>513.4</ele>
        <time>2021-05-29 06:22:57</time>
      </trkpt>
      <trkpt lat="42.8596" lon="-2.66309">
        <ele>513.4</ele>
        <time>2021-05-29 06:22:58</time>
      </trkpt>
      <trkpt lat="42.85955" lon="-2.66303">
        <ele>513.4</ele>
        <time>2021-05-29 06:22:59</time>
      </trkpt>
      <trkpt lat="42.85951" lon="-2.66298">
        <ele>513.4</ele>
        <time>2021-05-29 06:23:00</time>
      </trkpt>
      <trkpt lat="42.85946" lon="-2.66292">
        <ele>513.4</ele>
        <time>2021-05-29 06:23:01</time>
      </trkpt>
      <trkpt lat="42.85941" lon="-2.66286">
        <ele>513.4</ele>
        <time>2021-05-29 06:23:02</time>
      </trkpt>
      <trkpt lat="42.85936" lon="-2.6628">
        <ele>513.4</ele>
        <time>2021-05-29 06:23:03</time>
      </trkpt>
      <trkpt lat="42.85932" lon="-2.66274">
        <ele>513.4</ele>
        <time>2021-05-29 06:23:04</time>
      </trkpt>
      <trkpt lat="42.85927" lon="-2.66268">
        <ele>513.6</ele>
        <time>2021-05-29 06:23:05</time>
      </trkpt>
      <trkpt lat="42.85922" lon="-2.66261">
        <ele>513.6</ele>
        <time>2021-05-29 06:23:06</time>
      </trkpt>
      <trkpt lat="42.85917" lon="-2.66255">
        <ele>513.6</ele>
        <time>2021-05-29 06:23:07</time>
      </trkpt>
      <trkpt lat="42.85912" lon="-2.66248">
        <ele>513.6</ele>
        <time>2021-05-29 06:23:08</time>
      </trkpt>
      <trkpt lat="42.85907" lon="-2.66242">
        <ele>513.6</ele>
        <time>2021-05-29 06:23:09</time>
      </trkpt>
      <trkpt lat="42.85902" lon="-2.66236">
        <ele>513.6</ele>
        <time>2021-05-29 06:23:10</time>
      </trkpt>
      <trkpt lat="42.85897" lon="-2.66229">
        <ele>513.6</ele>
        <time>2021-05-29 06:23:11</time>
      </trkpt>
      <trkpt lat="42.85892" lon="-2.66223">
        <ele>513.6</ele>
        <time>2021-05-29 06:23:12</time>
      </trkpt>
      <trkpt lat="42.85887" lon="-2.66216">
        <ele>513.6</ele>
        <time>2021-05-29 06:23:13</time>
      </trkpt>
      <trkpt lat="42.85882" lon="-2.6621">
        <ele>513.6</ele>
        <time>2021-05-29 06:23:14</time>
      </trkpt>
      <trkpt lat="42.85878" lon="-2.66203">
        <ele>513.6</ele>
        <time>2021-05-29 06:23:15</time>
      </trkpt>
      <trkpt lat="42.85873" lon="-2.66197">
        <ele>513.6</ele>
        <time>2021-05-29 06:23:16</time>
      </trkpt>
      <trkpt lat="42.85869" lon="-2.66191">
        <ele>513.6</ele>
        <time>2021-05-29 06:23:17</time>
      </trkpt>
      <trkpt lat="42.85864" lon="-2.66185">
        <ele>513.6</ele>
        <time>2021-05-29 06:23:18</time>
      </trkpt>
      <trkpt lat="42.85859" lon="-2.66179">
        <ele>513.6</ele>
        <time>2021-05-29 06:23:19</time>
      </trkpt>
      <trkpt lat="42.85855" lon="-2.66174">
        <ele>513.6</ele>
        <time>2021-05-29 06:23:20</time>
      </trkpt>
      <trkpt lat="42.85851" lon="-2.66169">
        <ele>513.6</ele>
        <time>2021-05-29 06:23:21</time>
      </trkpt>
      <trkpt lat="42.85847" lon="-2.66164">
        <ele>513.6</ele>
        <time>2021-05-29 06:23:22</time>
      </trkpt>
      <trkpt lat="42.85844" lon="-2.66159">
        <ele>513.6</ele>
        <time>2021-05-29 06:23:23</time>
      </trkpt>
      <trkpt lat="42.85843" lon="-2.66152">
        <ele>513.6</ele>
        <time>2021-05-29 06:23:24</time>
      </trkpt>
      <trkpt lat="42.85843" lon="-2.66146">
        <ele>513.6</ele>
        <time>2021-05-29 06:23:25</time>
      </trkpt>
      <trkpt lat="42.85846" lon="-2.66139">
        <ele>513.6</ele>
        <time>2021-05-29 06:23:26</time>
      </trkpt>
      <trkpt lat="42.85849" lon="-2.66133">
        <ele>513.6</ele>
        <time>2021-05-29 06:23:27</time>
      </trkpt>
      <trkpt lat="42.85854" lon="-2.66127">
        <ele>513.6</ele>
        <time>2021-05-29 06:23:28</time>
      </trkpt>
      <trkpt lat="42.85859" lon="-2.66121">
        <ele>513.6</ele>
        <time>2021-05-29 06:23:29</time>
      </trkpt>
      <trkpt lat="42.85865" lon="-2.66115">
        <ele>513.6</ele>
        <time>2021-05-29 06:23:30</time>
      </trkpt>
      <trkpt lat="42.8587" lon="-2.66107">
        <ele>513.6</ele>
        <time>2021-05-29 06:23:31</time>
      </trkpt>
      <trkpt lat="42.85875" lon="-2.661">
        <ele>513.6</ele>
        <time>2021-05-29 06:23:32</time>
      </trkpt>
      <trkpt lat="42.8588" lon="-2.66092">
        <ele>513.6</ele>
        <time>2021-05-29 06:23:33</time>
      </trkpt>
      <trkpt lat="42.85885" lon="-2.66084">
        <ele>513.6</ele>
        <time>2021-05-29 06:23:34</time>
      </trkpt>
      <trkpt lat="42.8589" lon="-2.66077">
        <ele>513.6</ele>
        <time>2021-05-29 06:23:35</time>
      </trkpt>
      <trkpt lat="42.85895" lon="-2.66069">
        <ele>513.6</ele>
        <time>2021-05-29 06:23:36</time>
      </trkpt>
      <trkpt lat="42.859" lon="-2.66062">
        <ele>513.6</ele>
        <time>2021-05-29 06:23:37</time>
      </trkpt>
      <trkpt lat="42.85905" lon="-2.66055">
        <ele>513.6</ele>
        <time>2021-05-29 06:23:38</time>
      </trkpt>
      <trkpt lat="42.85911" lon="-2.66048">
        <ele>513.6</ele>
        <time>2021-05-29 06:23:39</time>
      </trkpt>
      <trkpt lat="42.85916" lon="-2.66041">
        <ele>513.4</ele>
        <time>2021-05-29 06:23:40</time>
      </trkpt>
      <trkpt lat="42.85921" lon="-2.66033">
        <ele>513.4</ele>
        <time>2021-05-29 06:23:41</time>
      </trkpt>
      <trkpt lat="42.85926" lon="-2.66026">
        <ele>513.2</ele>
        <time>2021-05-29 06:23:42</time>
      </trkpt>
      <trkpt lat="42.85932" lon="-2.66019">
        <ele>513.2</ele>
        <time>2021-05-29 06:23:43</time>
      </trkpt>
      <trkpt lat="42.85937" lon="-2.66012">
        <ele>513</ele>
        <time>2021-05-29 06:23:44</time>
      </trkpt>
      <trkpt lat="42.85943" lon="-2.66005">
        <ele>513</ele>
        <time>2021-05-29 06:23:45</time>
      </trkpt>
      <trkpt lat="42.85948" lon="-2.65998">
        <ele>512.8</ele>
        <time>2021-05-29 06:23:46</time>
      </trkpt>
      <trkpt lat="42.85953" lon="-2.65991">
        <ele>512.8</ele>
        <time>2021-05-29 06:23:47</time>
      </trkpt>
      <trkpt lat="42.85959" lon="-2.65983">
        <ele>512.4</ele>
        <time>2021-05-29 06:23:48</time>
      </trkpt>
      <trkpt lat="42.85964" lon="-2.65976">
        <ele>512.4</ele>
        <time>2021-05-29 06:23:49</time>
      </trkpt>
      <trkpt lat="42.85969" lon="-2.65969">
        <ele>512.2</ele>
        <time>2021-05-29 06:23:50</time>
      </trkpt>
      <trkpt lat="42.85974" lon="-2.65961">
        <ele>512.2</ele>
        <time>2021-05-29 06:23:51</time>
      </trkpt>
      <trkpt lat="42.8598" lon="-2.65954">
        <ele>512.2</ele>
        <time>2021-05-29 06:23:52</time>
      </trkpt>
      <trkpt lat="42.85985" lon="-2.65946">
        <ele>512.2</ele>
        <time>2021-05-29 06:23:53</time>
      </trkpt>
      <trkpt lat="42.8599" lon="-2.65939">
        <ele>512</ele>
        <time>2021-05-29 06:23:54</time>
      </trkpt>
      <trkpt lat="42.85995" lon="-2.65931">
        <ele>511.8</ele>
        <time>2021-05-29 06:23:55</time>
      </trkpt>
      <trkpt lat="42.86001" lon="-2.65923">
        <ele>511.6</ele>
        <time>2021-05-29 06:23:56</time>
      </trkpt>
      <trkpt lat="42.86006" lon="-2.65916">
        <ele>511.6</ele>
        <time>2021-05-29 06:23:57</time>
      </trkpt>
      <trkpt lat="42.86011" lon="-2.65908">
        <ele>511.4</ele>
        <time>2021-05-29 06:23:58</time>
      </trkpt>
      <trkpt lat="42.86017" lon="-2.659">
        <ele>511.2</ele>
        <time>2021-05-29 06:23:59</time>
      </trkpt>
      <trkpt lat="42.86022" lon="-2.65893">
        <ele>511</ele>
        <time>2021-05-29 06:24:00</time>
      </trkpt>
      <trkpt lat="42.86028" lon="-2.65885">
        <ele>510.8</ele>
        <time>2021-05-29 06:24:01</time>
      </trkpt>
      <trkpt lat="42.86033" lon="-2.65878">
        <ele>510.6</ele>
        <time>2021-05-29 06:24:02</time>
      </trkpt>
      <trkpt lat="42.86038" lon="-2.6587">
        <ele>510.6</ele>
        <time>2021-05-29 06:24:03</time>
      </trkpt>
      <trkpt lat="42.86044" lon="-2.65863">
        <ele>510.6</ele>
        <time>2021-05-29 06:24:04</time>
      </trkpt>
      <trkpt lat="42.86049" lon="-2.65856">
        <ele>510.2</ele>
        <time>2021-05-29 06:24:05</time>
      </trkpt>
      <trkpt lat="42.86054" lon="-2.65848">
        <ele>510</ele>
        <time>2021-05-29 06:24:06</time>
      </trkpt>
      <trkpt lat="42.8606" lon="-2.65841">
        <ele>509.8</ele>
        <time>2021-05-29 06:24:07</time>
      </trkpt>
      <trkpt lat="42.86065" lon="-2.65834">
        <ele>509.8</ele>
        <time>2021-05-29 06:24:08</time>
      </trkpt>
      <trkpt lat="42.8607" lon="-2.65826">
        <ele>509.6</ele>
        <time>2021-05-29 06:24:09</time>
      </trkpt>
      <trkpt lat="42.86075" lon="-2.65819">
        <ele>509.4</ele>
        <time>2021-05-29 06:24:10</time>
      </trkpt>
      <trkpt lat="42.8608" lon="-2.65811">
        <ele>509.4</ele>
        <time>2021-05-29 06:24:11</time>
      </trkpt>
      <trkpt lat="42.86086" lon="-2.65804">
        <ele>509.4</ele>
        <time>2021-05-29 06:24:12</time>
      </trkpt>
      <trkpt lat="42.86091" lon="-2.65797">
        <ele>509.2</ele>
        <time>2021-05-29 06:24:13</time>
      </trkpt>
      <trkpt lat="42.86096" lon="-2.65789">
        <ele>509.2</ele>
        <time>2021-05-29 06:24:14</time>
      </trkpt>
      <trkpt lat="42.86102" lon="-2.65782">
        <ele>509.2</ele>
        <time>2021-05-29 06:24:15</time>
      </trkpt>
      <trkpt lat="42.86107" lon="-2.65774">
        <ele>509</ele>
        <time>2021-05-29 06:24:16</time>
      </trkpt>
      <trkpt lat="42.86113" lon="-2.65766">
        <ele>509</ele>
        <time>2021-05-29 06:24:17</time>
      </trkpt>
      <trkpt lat="42.86119" lon="-2.65759">
        <ele>509</ele>
        <time>2021-05-29 06:24:18</time>
      </trkpt>
      <trkpt lat="42.86125" lon="-2.65751">
        <ele>509</ele>
        <time>2021-05-29 06:24:19</time>
      </trkpt>
      <trkpt lat="42.8613" lon="-2.65743">
        <ele>509</ele>
        <time>2021-05-29 06:24:20</time>
      </trkpt>
      <trkpt lat="42.86136" lon="-2.65736">
        <ele>508.8</ele>
        <time>2021-05-29 06:24:21</time>
      </trkpt>
      <trkpt lat="42.86142" lon="-2.65728">
        <ele>508.8</ele>
        <time>2021-05-29 06:24:22</time>
      </trkpt>
      <trkpt lat="42.86147" lon="-2.6572">
        <ele>508.8</ele>
        <time>2021-05-29 06:24:23</time>
      </trkpt>
      <trkpt lat="42.86153" lon="-2.65713">
        <ele>508.8</ele>
        <time>2021-05-29 06:24:24</time>
      </trkpt>
      <trkpt lat="42.86159" lon="-2.65705">
        <ele>508.8</ele>
        <time>2021-05-29 06:24:25</time>
      </trkpt>
      <trkpt lat="42.86164" lon="-2.65697">
        <ele>508.8</ele>
        <time>2021-05-29 06:24:26</time>
      </trkpt>
      <trkpt lat="42.8617" lon="-2.6569">
        <ele>508.8</ele>
        <time>2021-05-29 06:24:27</time>
      </trkpt>
      <trkpt lat="42.86175" lon="-2.65682">
        <ele>508.8</ele>
        <time>2021-05-29 06:24:28</time>
      </trkpt>
      <trkpt lat="42.86181" lon="-2.65675">
        <ele>508.8</ele>
        <time>2021-05-29 06:24:29</time>
      </trkpt>
      <trkpt lat="42.86186" lon="-2.65668">
        <ele>508.8</ele>
        <time>2021-05-29 06:24:30</time>
      </trkpt>
      <trkpt lat="42.86191" lon="-2.6566">
        <ele>508.6</ele>
        <time>2021-05-29 06:24:31</time>
      </trkpt>
      <trkpt lat="42.86197" lon="-2.65653">
        <ele>508.8</ele>
        <time>2021-05-29 06:24:32</time>
      </trkpt>
      <trkpt lat="42.86202" lon="-2.65646">
        <ele>508.8</ele>
        <time>2021-05-29 06:24:33</time>
      </trkpt>
      <trkpt lat="42.86207" lon="-2.65638">
        <ele>508.8</ele>
        <time>2021-05-29 06:24:34</time>
      </trkpt>
      <trkpt lat="42.86212" lon="-2.65631">
        <ele>508.8</ele>
        <time>2021-05-29 06:24:35</time>
      </trkpt>
      <trkpt lat="42.86218" lon="-2.65624">
        <ele>508.8</ele>
        <time>2021-05-29 06:24:36</time>
      </trkpt>
      <trkpt lat="42.86223" lon="-2.65617">
        <ele>508.8</ele>
        <time>2021-05-29 06:24:37</time>
      </trkpt>
      <trkpt lat="42.86228" lon="-2.6561">
        <ele>508.8</ele>
        <time>2021-05-29 06:24:38</time>
      </trkpt>
      <trkpt lat="42.86234" lon="-2.65603">
        <ele>508.8</ele>
        <time>2021-05-29 06:24:39</time>
      </trkpt>
      <trkpt lat="42.86239" lon="-2.65596">
        <ele>508.8</ele>
        <time>2021-05-29 06:24:40</time>
      </trkpt>
      <trkpt lat="42.86244" lon="-2.65589">
        <ele>508.8</ele>
        <time>2021-05-29 06:24:41</time>
      </trkpt>
      <trkpt lat="42.86248" lon="-2.65582">
        <ele>508.8</ele>
        <time>2021-05-29 06:24:42</time>
      </trkpt>
      <trkpt lat="42.86253" lon="-2.65575">
        <ele>508.8</ele>
        <time>2021-05-29 06:24:43</time>
      </trkpt>
      <trkpt lat="42.86258" lon="-2.65569">
        <ele>508.8</ele>
        <time>2021-05-29 06:24:44</time>
      </trkpt>
      <trkpt lat="42.86263" lon="-2.65562">
        <ele>508.8</ele>
        <time>2021-05-29 06:24:45</time>
      </trkpt>
      <trkpt lat="42.86268" lon="-2.65555">
        <ele>508.8</ele>
        <time>2021-05-29 06:24:46</time>
      </trkpt>
      <trkpt lat="42.86273" lon="-2.65548">
        <ele>508.8</ele>
        <time>2021-05-29 06:24:47</time>
      </trkpt>
      <trkpt lat="42.86278" lon="-2.65541">
        <ele>509</ele>
        <time>2021-05-29 06:24:48</time>
      </trkpt>
      <trkpt lat="42.86282" lon="-2.65533">
        <ele>509</ele>
        <time>2021-05-29 06:24:49</time>
      </trkpt>
      <trkpt lat="42.86287" lon="-2.65526">
        <ele>509</ele>
        <time>2021-05-29 06:24:50</time>
      </trkpt>
      <trkpt lat="42.86292" lon="-2.65519">
        <ele>509.2</ele>
        <time>2021-05-29 06:24:51</time>
      </trkpt>
      <trkpt lat="42.86297" lon="-2.65512">
        <ele>509.2</ele>
        <time>2021-05-29 06:24:52</time>
      </trkpt>
      <trkpt lat="42.86302" lon="-2.65504">
        <ele>509.4</ele>
        <time>2021-05-29 06:24:53</time>
      </trkpt>
      <trkpt lat="42.86308" lon="-2.65497">
        <ele>509.4</ele>
        <time>2021-05-29 06:24:54</time>
      </trkpt>
      <trkpt lat="42.86313" lon="-2.6549">
        <ele>509.4</ele>
        <time>2021-05-29 06:24:55</time>
      </trkpt>
      <trkpt lat="42.86318" lon="-2.65483">
        <ele>509.4</ele>
        <time>2021-05-29 06:24:56</time>
      </trkpt>
      <trkpt lat="42.86324" lon="-2.65476">
        <ele>509.4</ele>
        <time>2021-05-29 06:24:57</time>
      </trkpt>
      <trkpt lat="42.86329" lon="-2.65469">
        <ele>509.4</ele>
        <time>2021-05-29 06:24:58</time>
      </trkpt>
      <trkpt lat="42.86335" lon="-2.65462">
        <ele>509.4</ele>
        <time>2021-05-29 06:24:59</time>
      </trkpt>
      <trkpt lat="42.86341" lon="-2.65456">
        <ele>509.4</ele>
        <time>2021-05-29 06:25:00</time>
      </trkpt>
      <trkpt lat="42.86347" lon="-2.65449">
        <ele>509.4</ele>
        <time>2021-05-29 06:25:01</time>
      </trkpt>
      <trkpt lat="42.86353" lon="-2.65443">
        <ele>509.4</ele>
        <time>2021-05-29 06:25:02</time>
      </trkpt>
      <trkpt lat="42.86358" lon="-2.65437">
        <ele>509.4</ele>
        <time>2021-05-29 06:25:03</time>
      </trkpt>
      <trkpt lat="42.86365" lon="-2.65431">
        <ele>509.4</ele>
        <time>2021-05-29 06:25:04</time>
      </trkpt>
      <trkpt lat="42.86371" lon="-2.65425">
        <ele>509.4</ele>
        <time>2021-05-29 06:25:05</time>
      </trkpt>
      <trkpt lat="42.86377" lon="-2.6542">
        <ele>509.4</ele>
        <time>2021-05-29 06:25:06</time>
      </trkpt>
      <trkpt lat="42.86384" lon="-2.65414">
        <ele>509.2</ele>
        <time>2021-05-29 06:25:07</time>
      </trkpt>
      <trkpt lat="42.8639" lon="-2.65409">
        <ele>509.2</ele>
        <time>2021-05-29 06:25:08</time>
      </trkpt>
      <trkpt lat="42.86396" lon="-2.65404">
        <ele>509.2</ele>
        <time>2021-05-29 06:25:09</time>
      </trkpt>
      <trkpt lat="42.86402" lon="-2.65399">
        <ele>509</ele>
        <time>2021-05-29 06:25:10</time>
      </trkpt>
      <trkpt lat="42.86407" lon="-2.65393">
        <ele>509</ele>
        <time>2021-05-29 06:25:11</time>
      </trkpt>
      <trkpt lat="42.86411" lon="-2.65386">
        <ele>509</ele>
        <time>2021-05-29 06:25:12</time>
      </trkpt>
      <trkpt lat="42.86415" lon="-2.65377">
        <ele>508.8</ele>
        <time>2021-05-29 06:25:13</time>
      </trkpt>
      <trkpt lat="42.86417" lon="-2.65368">
        <ele>508.8</ele>
        <time>2021-05-29 06:25:14</time>
      </trkpt>
      <trkpt lat="42.86418" lon="-2.65359">
        <ele>508.8</ele>
        <time>2021-05-29 06:25:15</time>
      </trkpt>
      <trkpt lat="42.86419" lon="-2.65349">
        <ele>508.6</ele>
        <time>2021-05-29 06:25:16</time>
      </trkpt>
      <trkpt lat="42.8642" lon="-2.65339">
        <ele>508.6</ele>
        <time>2021-05-29 06:25:17</time>
      </trkpt>
      <trkpt lat="42.86422" lon="-2.6533">
        <ele>508.6</ele>
        <time>2021-05-29 06:25:18</time>
      </trkpt>
      <trkpt lat="42.86424" lon="-2.6532">
        <ele>508.4</ele>
        <time>2021-05-29 06:25:19</time>
      </trkpt>
      <trkpt lat="42.86425" lon="-2.65309">
        <ele>508.4</ele>
        <time>2021-05-29 06:25:20</time>
      </trkpt>
      <trkpt lat="42.86424" lon="-2.65299">
        <ele>508.4</ele>
        <time>2021-05-29 06:25:21</time>
      </trkpt>
      <trkpt lat="42.86423" lon="-2.65289">
        <ele>508.2</ele>
        <time>2021-05-29 06:25:22</time>
      </trkpt>
      <trkpt lat="42.86422" lon="-2.65278">
        <ele>508.2</ele>
        <time>2021-05-29 06:25:23</time>
      </trkpt>
      <trkpt lat="42.86421" lon="-2.65268">
        <ele>508</ele>
        <time>2021-05-29 06:25:24</time>
      </trkpt>
      <trkpt lat="42.86419" lon="-2.65258">
        <ele>508</ele>
        <time>2021-05-29 06:25:25</time>
      </trkpt>
      <trkpt lat="42.86418" lon="-2.65248">
        <ele>507.8</ele>
        <time>2021-05-29 06:25:26</time>
      </trkpt>
      <trkpt lat="42.86417" lon="-2.65237">
        <ele>507.6</ele>
        <time>2021-05-29 06:25:27</time>
      </trkpt>
      <trkpt lat="42.86416" lon="-2.65227">
        <ele>507.6</ele>
        <time>2021-05-29 06:25:28</time>
      </trkpt>
      <trkpt lat="42.86415" lon="-2.65217">
        <ele>507.4</ele>
        <time>2021-05-29 06:25:29</time>
      </trkpt>
      <trkpt lat="42.86414" lon="-2.65207">
        <ele>507.4</ele>
        <time>2021-05-29 06:25:30</time>
      </trkpt>
      <trkpt lat="42.86413" lon="-2.65197">
        <ele>507.4</ele>
        <time>2021-05-29 06:25:31</time>
      </trkpt>
      <trkpt lat="42.86412" lon="-2.65186">
        <ele>507.4</ele>
        <time>2021-05-29 06:25:32</time>
      </trkpt>
      <trkpt lat="42.86411" lon="-2.65176">
        <ele>507.4</ele>
        <time>2021-05-29 06:25:33</time>
      </trkpt>
      <trkpt lat="42.8641" lon="-2.65166">
        <ele>507.4</ele>
        <time>2021-05-29 06:25:34</time>
      </trkpt>
      <trkpt lat="42.86409" lon="-2.65156">
        <ele>507.4</ele>
        <time>2021-05-29 06:25:35</time>
      </trkpt>
      <trkpt lat="42.86408" lon="-2.65146">
        <ele>507.4</ele>
        <time>2021-05-29 06:25:36</time>
      </trkpt>
      <trkpt lat="42.86407" lon="-2.65136">
        <ele>507.2</ele>
        <time>2021-05-29 06:25:37</time>
      </trkpt>
      <trkpt lat="42.86406" lon="-2.65126">
        <ele>507.2</ele>
        <time>2021-05-29 06:25:38</time>
      </trkpt>
      <trkpt lat="42.86405" lon="-2.65116">
        <ele>507.2</ele>
        <time>2021-05-29 06:25:39</time>
      </trkpt>
      <trkpt lat="42.86404" lon="-2.65106">
        <ele>507.2</ele>
        <time>2021-05-29 06:25:40</time>
      </trkpt>
      <trkpt lat="42.86403" lon="-2.65096">
        <ele>507.2</ele>
        <time>2021-05-29 06:25:41</time>
      </trkpt>
      <trkpt lat="42.86401" lon="-2.65086">
        <ele>507.2</ele>
        <time>2021-05-29 06:25:42</time>
      </trkpt>
      <trkpt lat="42.86401" lon="-2.65076">
        <ele>507.4</ele>
        <time>2021-05-29 06:25:43</time>
      </trkpt>
      <trkpt lat="42.864" lon="-2.65067">
        <ele>507.4</ele>
        <time>2021-05-29 06:25:44</time>
      </trkpt>
      <trkpt lat="42.86399" lon="-2.65057">
        <ele>507.4</ele>
        <time>2021-05-29 06:25:45</time>
      </trkpt>
      <trkpt lat="42.86398" lon="-2.65047">
        <ele>507.4</ele>
        <time>2021-05-29 06:25:46</time>
      </trkpt>
      <trkpt lat="42.86397" lon="-2.65037">
        <ele>507.4</ele>
        <time>2021-05-29 06:25:47</time>
      </trkpt>
      <trkpt lat="42.86396" lon="-2.65028">
        <ele>507.4</ele>
        <time>2021-05-29 06:25:48</time>
      </trkpt>
      <trkpt lat="42.86395" lon="-2.65018">
        <ele>507.4</ele>
        <time>2021-05-29 06:25:49</time>
      </trkpt>
      <trkpt lat="42.86394" lon="-2.65008">
        <ele>507.4</ele>
        <time>2021-05-29 06:25:50</time>
      </trkpt>
      <trkpt lat="42.86393" lon="-2.64998">
        <ele>507.4</ele>
        <time>2021-05-29 06:25:51</time>
      </trkpt>
      <trkpt lat="42.86392" lon="-2.64988">
        <ele>507.4</ele>
        <time>2021-05-29 06:25:52</time>
      </trkpt>
      <trkpt lat="42.86391" lon="-2.64979">
        <ele>507.4</ele>
        <time>2021-05-29 06:25:53</time>
      </trkpt>
      <trkpt lat="42.8639" lon="-2.64969">
        <ele>507.4</ele>
        <time>2021-05-29 06:25:54</time>
      </trkpt>
      <trkpt lat="42.86389" lon="-2.64959">
        <ele>507.6</ele>
        <time>2021-05-29 06:25:55</time>
      </trkpt>
      <trkpt lat="42.86388" lon="-2.6495">
        <ele>507.6</ele>
        <time>2021-05-29 06:25:56</time>
      </trkpt>
      <trkpt lat="42.86387" lon="-2.6494">
        <ele>507.6</ele>
        <time>2021-05-29 06:25:57</time>
      </trkpt>
      <trkpt lat="42.86386" lon="-2.6493">
        <ele>507.6</ele>
        <time>2021-05-29 06:25:58</time>
      </trkpt>
      <trkpt lat="42.86385" lon="-2.64921">
        <ele>507.6</ele>
        <time>2021-05-29 06:25:59</time>
      </trkpt>
      <trkpt lat="42.86384" lon="-2.64912">
        <ele>507.6</ele>
        <time>2021-05-29 06:26:00</time>
      </trkpt>
      <trkpt lat="42.86383" lon="-2.64903">
        <ele>507.6</ele>
        <time>2021-05-29 06:26:01</time>
      </trkpt>
      <trkpt lat="42.86379" lon="-2.64895">
        <ele>507.6</ele>
        <time>2021-05-29 06:26:02</time>
      </trkpt>
      <trkpt lat="42.86374" lon="-2.6489">
        <ele>507.6</ele>
        <time>2021-05-29 06:26:03</time>
      </trkpt>
      <trkpt lat="42.86367" lon="-2.64886">
        <ele>507.6</ele>
        <time>2021-05-29 06:26:04</time>
      </trkpt>
      <trkpt lat="42.86361" lon="-2.64882">
        <ele>507.6</ele>
        <time>2021-05-29 06:26:05</time>
      </trkpt>
      <trkpt lat="42.86355" lon="-2.64877">
        <ele>507.6</ele>
        <time>2021-05-29 06:26:06</time>
      </trkpt>
      <trkpt lat="42.86351" lon="-2.64871">
        <ele>507.8</ele>
        <time>2021-05-29 06:26:07</time>
      </trkpt>
      <trkpt lat="42.86347" lon="-2.64863">
        <ele>507.8</ele>
        <time>2021-05-29 06:26:08</time>
      </trkpt>
      <trkpt lat="42.86345" lon="-2.64855">
        <ele>507.8</ele>
        <time>2021-05-29 06:26:09</time>
      </trkpt>
      <trkpt lat="42.86345" lon="-2.64846">
        <ele>507.8</ele>
        <time>2021-05-29 06:26:10</time>
      </trkpt>
      <trkpt lat="42.86346" lon="-2.64837">
        <ele>507.8</ele>
        <time>2021-05-29 06:26:11</time>
      </trkpt>
      <trkpt lat="42.86349" lon="-2.64829">
        <ele>508</ele>
        <time>2021-05-29 06:26:12</time>
      </trkpt>
      <trkpt lat="42.86353" lon="-2.64822">
        <ele>508</ele>
        <time>2021-05-29 06:26:13</time>
      </trkpt>
      <trkpt lat="42.86358" lon="-2.64817">
        <ele>508</ele>
        <time>2021-05-29 06:26:14</time>
      </trkpt>
      <trkpt lat="42.86363" lon="-2.64811">
        <ele>508</ele>
        <time>2021-05-29 06:26:15</time>
      </trkpt>
      <trkpt lat="42.86368" lon="-2.64805">
        <ele>508</ele>
        <time>2021-05-29 06:26:16</time>
      </trkpt>
      <trkpt lat="42.86371" lon="-2.64798">
        <ele>508</ele>
        <time>2021-05-29 06:26:17</time>
      </trkpt>
      <trkpt lat="42.86373" lon="-2.64789">
        <ele>508.2</ele>
        <time>2021-05-29 06:26:18</time>
      </trkpt>
      <trkpt lat="42.86372" lon="-2.64781">
        <ele>508.2</ele>
        <time>2021-05-29 06:26:19</time>
      </trkpt>
      <trkpt lat="42.86371" lon="-2.64772">
        <ele>508.2</ele>
        <time>2021-05-29 06:26:20</time>
      </trkpt>
      <trkpt lat="42.86369" lon="-2.64764">
        <ele>508.2</ele>
        <time>2021-05-29 06:26:21</time>
      </trkpt>
      <trkpt lat="42.86368" lon="-2.64755">
        <ele>508.4</ele>
        <time>2021-05-29 06:26:22</time>
      </trkpt>
      <trkpt lat="42.86367" lon="-2.64747">
        <ele>508.4</ele>
        <time>2021-05-29 06:26:23</time>
      </trkpt>
      <trkpt lat="42.86367" lon="-2.64738">
        <ele>508.4</ele>
        <time>2021-05-29 06:26:24</time>
      </trkpt>
      <trkpt lat="42.86366" lon="-2.6473">
        <ele>508.6</ele>
        <time>2021-05-29 06:26:25</time>
      </trkpt>
      <trkpt lat="42.86366" lon="-2.64721">
        <ele>508.6</ele>
        <time>2021-05-29 06:26:26</time>
      </trkpt>
      <trkpt lat="42.86365" lon="-2.64713">
        <ele>508.8</ele>
        <time>2021-05-29 06:26:27</time>
      </trkpt>
      <trkpt lat="42.86365" lon="-2.64704">
        <ele>508.8</ele>
        <time>2021-05-29 06:26:28</time>
      </trkpt>
      <trkpt lat="42.86365" lon="-2.64696">
        <ele>509</ele>
        <time>2021-05-29 06:26:29</time>
      </trkpt>
      <trkpt lat="42.86365" lon="-2.64688">
        <ele>509</ele>
        <time>2021-05-29 06:26:30</time>
      </trkpt>
      <trkpt lat="42.86364" lon="-2.64679">
        <ele>509.2</ele>
        <time>2021-05-29 06:26:31</time>
      </trkpt>
      <trkpt lat="42.86365" lon="-2.64671">
        <ele>509.2</ele>
        <time>2021-05-29 06:26:32</time>
      </trkpt>
      <trkpt lat="42.86365" lon="-2.64663">
        <ele>509.2</ele>
        <time>2021-05-29 06:26:33</time>
      </trkpt>
      <trkpt lat="42.86365" lon="-2.64655">
        <ele>509.2</ele>
        <time>2021-05-29 06:26:34</time>
      </trkpt>
      <trkpt lat="42.86365" lon="-2.64646">
        <ele>509.4</ele>
        <time>2021-05-29 06:26:35</time>
      </trkpt>
      <trkpt lat="42.86366" lon="-2.64638">
        <ele>509.4</ele>
        <time>2021-05-29 06:26:36</time>
      </trkpt>
      <trkpt lat="42.86366" lon="-2.6463">
        <ele>509.4</ele>
        <time>2021-05-29 06:26:37</time>
      </trkpt>
      <trkpt lat="42.86367" lon="-2.64623">
        <ele>509.4</ele>
        <time>2021-05-29 06:26:38</time>
      </trkpt>
      <trkpt lat="42.86368" lon="-2.64615">
        <ele>509.6</ele>
        <time>2021-05-29 06:26:39</time>
      </trkpt>
      <trkpt lat="42.86369" lon="-2.64607">
        <ele>509.8</ele>
        <time>2021-05-29 06:26:40</time>
      </trkpt>
      <trkpt lat="42.8637" lon="-2.64599">
        <ele>509.8</ele>
        <time>2021-05-29 06:26:41</time>
      </trkpt>
      <trkpt lat="42.86371" lon="-2.6459">
        <ele>510</ele>
        <time>2021-05-29 06:26:42</time>
      </trkpt>
      <trkpt lat="42.86372" lon="-2.64582">
        <ele>510</ele>
        <time>2021-05-29 06:26:43</time>
      </trkpt>
      <trkpt lat="42.86373" lon="-2.64574">
        <ele>510.2</ele>
        <time>2021-05-29 06:26:44</time>
      </trkpt>
      <trkpt lat="42.86374" lon="-2.64566">
        <ele>510.2</ele>
        <time>2021-05-29 06:26:45</time>
      </trkpt>
      <trkpt lat="42.86375" lon="-2.64558">
        <ele>510.2</ele>
        <time>2021-05-29 06:26:46</time>
      </trkpt>
      <trkpt lat="42.86377" lon="-2.64549">
        <ele>510.2</ele>
        <time>2021-05-29 06:26:47</time>
      </trkpt>
      <trkpt lat="42.86378" lon="-2.64541">
        <ele>510.4</ele>
        <time>2021-05-29 06:26:48</time>
      </trkpt>
      <trkpt lat="42.8638" lon="-2.64533">
        <ele>510.4</ele>
        <time>2021-05-29 06:26:49</time>
      </trkpt>
      <trkpt lat="42.86381" lon="-2.64525">
        <ele>510.6</ele>
        <time>2021-05-29 06:26:50</time>
      </trkpt>
      <trkpt lat="42.86383" lon="-2.64516">
        <ele>510.6</ele>
        <time>2021-05-29 06:26:51</time>
      </trkpt>
      <trkpt lat="42.86385" lon="-2.64508">
        <ele>510.6</ele>
        <time>2021-05-29 06:26:52</time>
      </trkpt>
      <trkpt lat="42.86387" lon="-2.645">
        <ele>510.6</ele>
        <time>2021-05-29 06:26:53</time>
      </trkpt>
      <trkpt lat="42.86389" lon="-2.64492">
        <ele>510.8</ele>
        <time>2021-05-29 06:26:54</time>
      </trkpt>
      <trkpt lat="42.86391" lon="-2.64483">
        <ele>510.8</ele>
        <time>2021-05-29 06:26:55</time>
      </trkpt>
      <trkpt lat="42.86393" lon="-2.64475">
        <ele>511</ele>
        <time>2021-05-29 06:26:56</time>
      </trkpt>
      <trkpt lat="42.86395" lon="-2.64467">
        <ele>511</ele>
        <time>2021-05-29 06:26:57</time>
      </trkpt>
      <trkpt lat="42.86397" lon="-2.64459">
        <ele>511</ele>
        <time>2021-05-29 06:26:58</time>
      </trkpt>
      <trkpt lat="42.86399" lon="-2.64451">
        <ele>511.2</ele>
        <time>2021-05-29 06:26:59</time>
      </trkpt>
      <trkpt lat="42.86402" lon="-2.64442">
        <ele>511.2</ele>
        <time>2021-05-29 06:27:00</time>
      </trkpt>
      <trkpt lat="42.86404" lon="-2.64434">
        <ele>511.2</ele>
        <time>2021-05-29 06:27:01</time>
      </trkpt>
      <trkpt lat="42.86407" lon="-2.64426">
        <ele>511.4</ele>
        <time>2021-05-29 06:27:02</time>
      </trkpt>
      <trkpt lat="42.86409" lon="-2.64418">
        <ele>511.4</ele>
        <time>2021-05-29 06:27:03</time>
      </trkpt>
      <trkpt lat="42.86412" lon="-2.6441">
        <ele>511.4</ele>
        <time>2021-05-29 06:27:04</time>
      </trkpt>
      <trkpt lat="42.86415" lon="-2.64402">
        <ele>511.4</ele>
        <time>2021-05-29 06:27:05</time>
      </trkpt>
      <trkpt lat="42.86418" lon="-2.64394">
        <ele>511.6</ele>
        <time>2021-05-29 06:27:06</time>
      </trkpt>
      <trkpt lat="42.86421" lon="-2.64387">
        <ele>511.6</ele>
        <time>2021-05-29 06:27:07</time>
      </trkpt>
      <trkpt lat="42.86423" lon="-2.64379">
        <ele>511.6</ele>
        <time>2021-05-29 06:27:08</time>
      </trkpt>
      <trkpt lat="42.86426" lon="-2.64371">
        <ele>511.8</ele>
        <time>2021-05-29 06:27:09</time>
      </trkpt>
      <trkpt lat="42.86429" lon="-2.64363">
        <ele>511.8</ele>
        <time>2021-05-29 06:27:10</time>
      </trkpt>
      <trkpt lat="42.86432" lon="-2.64355">
        <ele>511.8</ele>
        <time>2021-05-29 06:27:11</time>
      </trkpt>
      <trkpt lat="42.86435" lon="-2.64347">
        <ele>512</ele>
        <time>2021-05-29 06:27:12</time>
      </trkpt>
      <trkpt lat="42.86438" lon="-2.6434">
        <ele>512</ele>
        <time>2021-05-29 06:27:13</time>
      </trkpt>
      <trkpt lat="42.86441" lon="-2.64332">
        <ele>512</ele>
        <time>2021-05-29 06:27:14</time>
      </trkpt>
      <trkpt lat="42.86444" lon="-2.64324">
        <ele>512.2</ele>
        <time>2021-05-29 06:27:15</time>
      </trkpt>
      <trkpt lat="42.86447" lon="-2.64316">
        <ele>512.4</ele>
        <time>2021-05-29 06:27:16</time>
      </trkpt>
      <trkpt lat="42.8645" lon="-2.64308">
        <ele>512.4</ele>
        <time>2021-05-29 06:27:17</time>
      </trkpt>
      <trkpt lat="42.86453" lon="-2.643">
        <ele>512.6</ele>
        <time>2021-05-29 06:27:18</time>
      </trkpt>
      <trkpt lat="42.86456" lon="-2.64292">
        <ele>512.6</ele>
        <time>2021-05-29 06:27:19</time>
      </trkpt>
      <trkpt lat="42.86459" lon="-2.64285">
        <ele>512.8</ele>
        <time>2021-05-29 06:27:20</time>
      </trkpt>
      <trkpt lat="42.86462" lon="-2.64277">
        <ele>512.8</ele>
        <time>2021-05-29 06:27:21</time>
      </trkpt>
      <trkpt lat="42.86466" lon="-2.64269">
        <ele>512.8</ele>
        <time>2021-05-29 06:27:22</time>
      </trkpt>
      <trkpt lat="42.86469" lon="-2.64261">
        <ele>512.8</ele>
        <time>2021-05-29 06:27:23</time>
      </trkpt>
      <trkpt lat="42.86472" lon="-2.64254">
        <ele>513</ele>
        <time>2021-05-29 06:27:24</time>
      </trkpt>
      <trkpt lat="42.86475" lon="-2.64246">
        <ele>513</ele>
        <time>2021-05-29 06:27:25</time>
      </trkpt>
      <trkpt lat="42.86477" lon="-2.64238">
        <ele>513.2</ele>
        <time>2021-05-29 06:27:26</time>
      </trkpt>
      <trkpt lat="42.8648" lon="-2.6423">
        <ele>513.2</ele>
        <time>2021-05-29 06:27:27</time>
      </trkpt>
      <trkpt lat="42.86483" lon="-2.64222">
        <ele>513.2</ele>
        <time>2021-05-29 06:27:28</time>
      </trkpt>
      <trkpt lat="42.86486" lon="-2.64215">
        <ele>513.4</ele>
        <time>2021-05-29 06:27:29</time>
      </trkpt>
      <trkpt lat="42.86489" lon="-2.64207">
        <ele>513.4</ele>
        <time>2021-05-29 06:27:30</time>
      </trkpt>
      <trkpt lat="42.86492" lon="-2.642">
        <ele>513.4</ele>
        <time>2021-05-29 06:27:31</time>
      </trkpt>
      <trkpt lat="42.86495" lon="-2.64192">
        <ele>513.4</ele>
        <time>2021-05-29 06:27:32</time>
      </trkpt>
      <trkpt lat="42.86497" lon="-2.64185">
        <ele>513.6</ele>
        <time>2021-05-29 06:27:33</time>
      </trkpt>
      <trkpt lat="42.865" lon="-2.64177">
        <ele>513.8</ele>
        <time>2021-05-29 06:27:34</time>
      </trkpt>
      <trkpt lat="42.86503" lon="-2.6417">
        <ele>514</ele>
        <time>2021-05-29 06:27:35</time>
      </trkpt>
      <trkpt lat="42.86506" lon="-2.64163">
        <ele>514</ele>
        <time>2021-05-29 06:27:36</time>
      </trkpt>
      <trkpt lat="42.86509" lon="-2.64155">
        <ele>514.2</ele>
        <time>2021-05-29 06:27:37</time>
      </trkpt>
      <trkpt lat="42.86512" lon="-2.64148">
        <ele>514.4</ele>
        <time>2021-05-29 06:27:38</time>
      </trkpt>
      <trkpt lat="42.86515" lon="-2.6414">
        <ele>514.4</ele>
        <time>2021-05-29 06:27:39</time>
      </trkpt>
      <trkpt lat="42.86518" lon="-2.64133">
        <ele>514.6</ele>
        <time>2021-05-29 06:27:40</time>
      </trkpt>
      <trkpt lat="42.86521" lon="-2.64125">
        <ele>514.6</ele>
        <time>2021-05-29 06:27:41</time>
      </trkpt>
      <trkpt lat="42.86524" lon="-2.64118">
        <ele>514.8</ele>
        <time>2021-05-29 06:27:42</time>
      </trkpt>
      <trkpt lat="42.86526" lon="-2.64111">
        <ele>514.8</ele>
        <time>2021-05-29 06:27:43</time>
      </trkpt>
      <trkpt lat="42.86529" lon="-2.64104">
        <ele>514.8</ele>
        <time>2021-05-29 06:27:44</time>
      </trkpt>
      <trkpt lat="42.86532" lon="-2.64097">
        <ele>515</ele>
        <time>2021-05-29 06:27:45</time>
      </trkpt>
      <trkpt lat="42.86535" lon="-2.6409">
        <ele>515</ele>
        <time>2021-05-29 06:27:46</time>
      </trkpt>
      <trkpt lat="42.86538" lon="-2.64083">
        <ele>515.2</ele>
        <time>2021-05-29 06:27:47</time>
      </trkpt>
      <trkpt lat="42.86541" lon="-2.64076">
        <ele>515.2</ele>
        <time>2021-05-29 06:27:48</time>
      </trkpt>
      <trkpt lat="42.86543" lon="-2.64069">
        <ele>515.4</ele>
        <time>2021-05-29 06:27:49</time>
      </trkpt>
      <trkpt lat="42.86546" lon="-2.64063">
        <ele>515.4</ele>
        <time>2021-05-29 06:27:50</time>
      </trkpt>
      <trkpt lat="42.86548" lon="-2.64056">
        <ele>515.6</ele>
        <time>2021-05-29 06:27:51</time>
      </trkpt>
      <trkpt lat="42.86548" lon="-2.64049">
        <ele>515.6</ele>
        <time>2021-05-29 06:27:52</time>
      </trkpt>
      <trkpt lat="42.86545" lon="-2.64044">
        <ele>515.6</ele>
        <time>2021-05-29 06:27:53</time>
      </trkpt>
      <trkpt lat="42.86542" lon="-2.6404">
        <ele>515.8</ele>
        <time>2021-05-29 06:27:54</time>
      </trkpt>
      <trkpt lat="42.86538" lon="-2.64038">
        <ele>515.8</ele>
        <time>2021-05-29 06:27:55</time>
      </trkpt>
      <trkpt lat="42.86533" lon="-2.64038">
        <ele>516</ele>
        <time>2021-05-29 06:27:56</time>
      </trkpt>
      <trkpt lat="42.86528" lon="-2.64039">
        <ele>516</ele>
        <time>2021-05-29 06:27:57</time>
      </trkpt>
      <trkpt lat="42.86524" lon="-2.64041">
        <ele>516.2</ele>
        <time>2021-05-29 06:27:58</time>
      </trkpt>
      <trkpt lat="42.86521" lon="-2.64042">
        <ele>516.4</ele>
        <time>2021-05-29 06:27:59</time>
      </trkpt>
      <trkpt lat="42.86518" lon="-2.64044">
        <ele>516.4</ele>
        <time>2021-05-29 06:28:00</time>
      </trkpt>
      <trkpt lat="42.86515" lon="-2.64044">
        <ele>516.6</ele>
        <time>2021-05-29 06:28:01</time>
      </trkpt>
      <trkpt lat="42.86513" lon="-2.64044">
        <ele>516.6</ele>
        <time>2021-05-29 06:28:02</time>
      </trkpt>
      <trkpt lat="42.86512" lon="-2.64043">
        <ele>516.8</ele>
        <time>2021-05-29 06:28:03</time>
      </trkpt>
      <trkpt lat="42.86512" lon="-2.64043">
        <ele>517</ele>
        <time>2021-05-29 06:28:04</time>
      </trkpt>
      <trkpt lat="42.86511" lon="-2.64043">
        <ele>517.2</ele>
        <time>2021-05-29 06:28:05</time>
      </trkpt>
      <trkpt lat="42.86511" lon="-2.64043">
        <ele>517.2</ele>
        <time>2021-05-29 06:28:06</time>
      </trkpt>
      <trkpt lat="42.86519" lon="-2.64045">
        <ele>515.4</ele>
        <time>2021-05-29 06:32:48</time>
      </trkpt>
      <trkpt lat="42.86521" lon="-2.64044">
        <ele>515.4</ele>
        <time>2021-05-29 06:32:49</time>
      </trkpt>
      <trkpt lat="42.86523" lon="-2.64042">
        <ele>515.4</ele>
        <time>2021-05-29 06:32:50</time>
      </trkpt>
      <trkpt lat="42.86525" lon="-2.6404">
        <ele>515.4</ele>
        <time>2021-05-29 06:32:51</time>
      </trkpt>
      <trkpt lat="42.86527" lon="-2.64039">
        <ele>515.4</ele>
        <time>2021-05-29 06:32:52</time>
      </trkpt>
      <trkpt lat="42.8653" lon="-2.64039">
        <ele>515.4</ele>
        <time>2021-05-29 06:32:53</time>
      </trkpt>
      <trkpt lat="42.86532" lon="-2.64039">
        <ele>515.4</ele>
        <time>2021-05-29 06:32:54</time>
      </trkpt>
      <trkpt lat="42.86535" lon="-2.6404">
        <ele>515.4</ele>
        <time>2021-05-29 06:32:55</time>
      </trkpt>
      <trkpt lat="42.86538" lon="-2.64041">
        <ele>515.4</ele>
        <time>2021-05-29 06:32:56</time>
      </trkpt>
      <trkpt lat="42.86541" lon="-2.64042">
        <ele>515.4</ele>
        <time>2021-05-29 06:32:57</time>
      </trkpt>
      <trkpt lat="42.86544" lon="-2.64042">
        <ele>515.4</ele>
        <time>2021-05-29 06:32:58</time>
      </trkpt>
      <trkpt lat="42.86547" lon="-2.64042">
        <ele>515.4</ele>
        <time>2021-05-29 06:32:59</time>
      </trkpt>
      <trkpt lat="42.86551" lon="-2.6404">
        <ele>515.4</ele>
        <time>2021-05-29 06:33:00</time>
      </trkpt>
      <trkpt lat="42.86554" lon="-2.64036">
        <ele>515.4</ele>
        <time>2021-05-29 06:33:01</time>
      </trkpt>
      <trkpt lat="42.86557" lon="-2.64032">
        <ele>515.4</ele>
        <time>2021-05-29 06:33:02</time>
      </trkpt>
      <trkpt lat="42.86559" lon="-2.64027">
        <ele>515.2</ele>
        <time>2021-05-29 06:33:03</time>
      </trkpt>
      <trkpt lat="42.86561" lon="-2.64021">
        <ele>515.2</ele>
        <time>2021-05-29 06:33:04</time>
      </trkpt>
      <trkpt lat="42.86563" lon="-2.64015">
        <ele>515.2</ele>
        <time>2021-05-29 06:33:05</time>
      </trkpt>
      <trkpt lat="42.86565" lon="-2.6401">
        <ele>515.2</ele>
        <time>2021-05-29 06:33:06</time>
      </trkpt>
      <trkpt lat="42.86567" lon="-2.64004">
        <ele>515.2</ele>
        <time>2021-05-29 06:33:07</time>
      </trkpt>
      <trkpt lat="42.86569" lon="-2.63998">
        <ele>515.2</ele>
        <time>2021-05-29 06:33:08</time>
      </trkpt>
      <trkpt lat="42.86571" lon="-2.63992">
        <ele>515.2</ele>
        <time>2021-05-29 06:33:09</time>
      </trkpt>
      <trkpt lat="42.86573" lon="-2.63986">
        <ele>515.2</ele>
        <time>2021-05-29 06:33:10</time>
      </trkpt>
      <trkpt lat="42.86575" lon="-2.6398">
        <ele>515</ele>
        <time>2021-05-29 06:33:11</time>
      </trkpt>
      <trkpt lat="42.86578" lon="-2.63973">
        <ele>514.8</ele>
        <time>2021-05-29 06:33:12</time>
      </trkpt>
      <trkpt lat="42.8658" lon="-2.63967">
        <ele>514.8</ele>
        <time>2021-05-29 06:33:13</time>
      </trkpt>
      <trkpt lat="42.86582" lon="-2.6396">
        <ele>514.8</ele>
        <time>2021-05-29 06:33:14</time>
      </trkpt>
      <trkpt lat="42.86584" lon="-2.63954">
        <ele>514.8</ele>
        <time>2021-05-29 06:33:15</time>
      </trkpt>
      <trkpt lat="42.86586" lon="-2.63947">
        <ele>514.8</ele>
        <time>2021-05-29 06:33:16</time>
      </trkpt>
      <trkpt lat="42.86589" lon="-2.6394">
        <ele>514.8</ele>
        <time>2021-05-29 06:33:17</time>
      </trkpt>
      <trkpt lat="42.86591" lon="-2.63933">
        <ele>514.8</ele>
        <time>2021-05-29 06:33:18</time>
      </trkpt>
      <trkpt lat="42.86594" lon="-2.63926">
        <ele>514.8</ele>
        <time>2021-05-29 06:33:19</time>
      </trkpt>
      <trkpt lat="42.86596" lon="-2.6392">
        <ele>514.8</ele>
        <time>2021-05-29 06:33:20</time>
      </trkpt>
      <trkpt lat="42.86599" lon="-2.63913">
        <ele>514.8</ele>
        <time>2021-05-29 06:33:21</time>
      </trkpt>
      <trkpt lat="42.86602" lon="-2.63906">
        <ele>514.8</ele>
        <time>2021-05-29 06:33:22</time>
      </trkpt>
      <trkpt lat="42.86604" lon="-2.63899">
        <ele>514.8</ele>
        <time>2021-05-29 06:33:23</time>
      </trkpt>
      <trkpt lat="42.86606" lon="-2.63892">
        <ele>514.8</ele>
        <time>2021-05-29 06:33:24</time>
      </trkpt>
      <trkpt lat="42.86609" lon="-2.63885">
        <ele>514.8</ele>
        <time>2021-05-29 06:33:25</time>
      </trkpt>
      <trkpt lat="42.86611" lon="-2.63877">
        <ele>514.8</ele>
        <time>2021-05-29 06:33:26</time>
      </trkpt>
      <trkpt lat="42.86614" lon="-2.63871">
        <ele>514.8</ele>
        <time>2021-05-29 06:33:27</time>
      </trkpt>
      <trkpt lat="42.86617" lon="-2.63864">
        <ele>514.8</ele>
        <time>2021-05-29 06:33:28</time>
      </trkpt>
      <trkpt lat="42.86619" lon="-2.63856">
        <ele>515</ele>
        <time>2021-05-29 06:33:29</time>
      </trkpt>
      <trkpt lat="42.86622" lon="-2.63849">
        <ele>515</ele>
        <time>2021-05-29 06:33:30</time>
      </trkpt>
      <trkpt lat="42.86624" lon="-2.63842">
        <ele>514.8</ele>
        <time>2021-05-29 06:33:31</time>
      </trkpt>
      <trkpt lat="42.86627" lon="-2.63835">
        <ele>514.8</ele>
        <time>2021-05-29 06:33:32</time>
      </trkpt>
      <trkpt lat="42.8663" lon="-2.63828">
        <ele>515</ele>
        <time>2021-05-29 06:33:33</time>
      </trkpt>
      <trkpt lat="42.86633" lon="-2.63821">
        <ele>514.8</ele>
        <time>2021-05-29 06:33:34</time>
      </trkpt>
      <trkpt lat="42.86635" lon="-2.63814">
        <ele>514.8</ele>
        <time>2021-05-29 06:33:35</time>
      </trkpt>
      <trkpt lat="42.86637" lon="-2.63808">
        <ele>514.8</ele>
        <time>2021-05-29 06:33:36</time>
      </trkpt>
      <trkpt lat="42.8664" lon="-2.63801">
        <ele>514.8</ele>
        <time>2021-05-29 06:33:37</time>
      </trkpt>
      <trkpt lat="42.86642" lon="-2.63794">
        <ele>514.8</ele>
        <time>2021-05-29 06:33:38</time>
      </trkpt>
      <trkpt lat="42.86644" lon="-2.63788">
        <ele>514.8</ele>
        <time>2021-05-29 06:33:39</time>
      </trkpt>
      <trkpt lat="42.86645" lon="-2.63781">
        <ele>514.8</ele>
        <time>2021-05-29 06:33:40</time>
      </trkpt>
      <trkpt lat="42.86645" lon="-2.63774">
        <ele>515</ele>
        <time>2021-05-29 06:33:41</time>
      </trkpt>
      <trkpt lat="42.86647" lon="-2.63766">
        <ele>515</ele>
        <time>2021-05-29 06:33:42</time>
      </trkpt>
      <trkpt lat="42.86649" lon="-2.63759">
        <ele>515</ele>
        <time>2021-05-29 06:33:43</time>
      </trkpt>
      <trkpt lat="42.86652" lon="-2.63753">
        <ele>515</ele>
        <time>2021-05-29 06:33:44</time>
      </trkpt>
      <trkpt lat="42.86657" lon="-2.63748">
        <ele>515</ele>
        <time>2021-05-29 06:33:45</time>
      </trkpt>
      <trkpt lat="42.86661" lon="-2.63742">
        <ele>514.8</ele>
        <time>2021-05-29 06:33:46</time>
      </trkpt>
      <trkpt lat="42.86665" lon="-2.63735">
        <ele>514.8</ele>
        <time>2021-05-29 06:33:47</time>
      </trkpt>
      <trkpt lat="42.86668" lon="-2.63728">
        <ele>514.8</ele>
        <time>2021-05-29 06:33:48</time>
      </trkpt>
      <trkpt lat="42.8667" lon="-2.6372">
        <ele>515</ele>
        <time>2021-05-29 06:33:49</time>
      </trkpt>
      <trkpt lat="42.86673" lon="-2.63713">
        <ele>515.2</ele>
        <time>2021-05-29 06:33:50</time>
      </trkpt>
      <trkpt lat="42.86675" lon="-2.63705">
        <ele>515.4</ele>
        <time>2021-05-29 06:33:51</time>
      </trkpt>
      <trkpt lat="42.86678" lon="-2.63697">
        <ele>515.4</ele>
        <time>2021-05-29 06:33:52</time>
      </trkpt>
      <trkpt lat="42.86681" lon="-2.63689">
        <ele>515.6</ele>
        <time>2021-05-29 06:33:53</time>
      </trkpt>
      <trkpt lat="42.86684" lon="-2.63682">
        <ele>515.6</ele>
        <time>2021-05-29 06:33:54</time>
      </trkpt>
      <trkpt lat="42.86687" lon="-2.63674">
        <ele>515.6</ele>
        <time>2021-05-29 06:33:55</time>
      </trkpt>
      <trkpt lat="42.86689" lon="-2.63666">
        <ele>515.6</ele>
        <time>2021-05-29 06:33:56</time>
      </trkpt>
      <trkpt lat="42.86692" lon="-2.63658">
        <ele>515.6</ele>
        <time>2021-05-29 06:33:57</time>
      </trkpt>
      <trkpt lat="42.86695" lon="-2.6365">
        <ele>515.4</ele>
        <time>2021-05-29 06:33:58</time>
      </trkpt>
      <trkpt lat="42.86698" lon="-2.63642">
        <ele>515.2</ele>
        <time>2021-05-29 06:33:59</time>
      </trkpt>
      <trkpt lat="42.867" lon="-2.63634">
        <ele>515</ele>
        <time>2021-05-29 06:34:00</time>
      </trkpt>
      <trkpt lat="42.86703" lon="-2.63627">
        <ele>515</ele>
        <time>2021-05-29 06:34:01</time>
      </trkpt>
      <trkpt lat="42.86706" lon="-2.63619">
        <ele>515.2</ele>
        <time>2021-05-29 06:34:02</time>
      </trkpt>
      <trkpt lat="42.86709" lon="-2.63612">
        <ele>515.2</ele>
        <time>2021-05-29 06:34:03</time>
      </trkpt>
      <trkpt lat="42.86711" lon="-2.63604">
        <ele>515.4</ele>
        <time>2021-05-29 06:34:04</time>
      </trkpt>
      <trkpt lat="42.86714" lon="-2.63596">
        <ele>515.6</ele>
        <time>2021-05-29 06:34:05</time>
      </trkpt>
      <trkpt lat="42.86717" lon="-2.63589">
        <ele>515.6</ele>
        <time>2021-05-29 06:34:06</time>
      </trkpt>
      <trkpt lat="42.86719" lon="-2.63581">
        <ele>515.6</ele>
        <time>2021-05-29 06:34:07</time>
      </trkpt>
      <trkpt lat="42.86722" lon="-2.63573">
        <ele>515.6</ele>
        <time>2021-05-29 06:34:08</time>
      </trkpt>
      <trkpt lat="42.86725" lon="-2.63565">
        <ele>515.4</ele>
        <time>2021-05-29 06:34:09</time>
      </trkpt>
      <trkpt lat="42.86727" lon="-2.63557">
        <ele>515.4</ele>
        <time>2021-05-29 06:34:10</time>
      </trkpt>
      <trkpt lat="42.8673" lon="-2.63549">
        <ele>515.4</ele>
        <time>2021-05-29 06:34:11</time>
      </trkpt>
      <trkpt lat="42.86733" lon="-2.63541">
        <ele>515.2</ele>
        <time>2021-05-29 06:34:12</time>
      </trkpt>
      <trkpt lat="42.86735" lon="-2.63533">
        <ele>515.2</ele>
        <time>2021-05-29 06:34:13</time>
      </trkpt>
      <trkpt lat="42.86738" lon="-2.63525">
        <ele>515.2</ele>
        <time>2021-05-29 06:34:14</time>
      </trkpt>
      <trkpt lat="42.86741" lon="-2.63517">
        <ele>515.2</ele>
        <time>2021-05-29 06:34:15</time>
      </trkpt>
      <trkpt lat="42.86743" lon="-2.63508">
        <ele>515.2</ele>
        <time>2021-05-29 06:34:16</time>
      </trkpt>
      <trkpt lat="42.86746" lon="-2.635">
        <ele>515.2</ele>
        <time>2021-05-29 06:34:17</time>
      </trkpt>
      <trkpt lat="42.86749" lon="-2.63491">
        <ele>515</ele>
        <time>2021-05-29 06:34:18</time>
      </trkpt>
      <trkpt lat="42.86751" lon="-2.63482">
        <ele>515</ele>
        <time>2021-05-29 06:34:19</time>
      </trkpt>
      <trkpt lat="42.86754" lon="-2.63473">
        <ele>515</ele>
        <time>2021-05-29 06:34:20</time>
      </trkpt>
      <trkpt lat="42.86756" lon="-2.63464">
        <ele>515</ele>
        <time>2021-05-29 06:34:21</time>
      </trkpt>
      <trkpt lat="42.86759" lon="-2.63454">
        <ele>515</ele>
        <time>2021-05-29 06:34:22</time>
      </trkpt>
      <trkpt lat="42.86762" lon="-2.63445">
        <ele>514.8</ele>
        <time>2021-05-29 06:34:23</time>
      </trkpt>
      <trkpt lat="42.86764" lon="-2.63435">
        <ele>514.8</ele>
        <time>2021-05-29 06:34:24</time>
      </trkpt>
      <trkpt lat="42.86767" lon="-2.63425">
        <ele>514.6</ele>
        <time>2021-05-29 06:34:25</time>
      </trkpt>
      <trkpt lat="42.86769" lon="-2.63416">
        <ele>514.6</ele>
        <time>2021-05-29 06:34:26</time>
      </trkpt>
      <trkpt lat="42.86772" lon="-2.63406">
        <ele>514.4</ele>
        <time>2021-05-29 06:34:27</time>
      </trkpt>
      <trkpt lat="42.86774" lon="-2.63396">
        <ele>514.4</ele>
        <time>2021-05-29 06:34:28</time>
      </trkpt>
      <trkpt lat="42.86776" lon="-2.63386">
        <ele>514.4</ele>
        <time>2021-05-29 06:34:29</time>
      </trkpt>
      <trkpt lat="42.86778" lon="-2.63376">
        <ele>514.4</ele>
        <time>2021-05-29 06:34:30</time>
      </trkpt>
      <trkpt lat="42.8678" lon="-2.63366">
        <ele>514.4</ele>
        <time>2021-05-29 06:34:31</time>
      </trkpt>
      <trkpt lat="42.86782" lon="-2.63355">
        <ele>514.2</ele>
        <time>2021-05-29 06:34:32</time>
      </trkpt>
      <trkpt lat="42.86784" lon="-2.63345">
        <ele>514.2</ele>
        <time>2021-05-29 06:34:33</time>
      </trkpt>
      <trkpt lat="42.86786" lon="-2.63334">
        <ele>514.2</ele>
        <time>2021-05-29 06:34:34</time>
      </trkpt>
      <trkpt lat="42.86788" lon="-2.63323">
        <ele>514.2</ele>
        <time>2021-05-29 06:34:35</time>
      </trkpt>
      <trkpt lat="42.86789" lon="-2.63312">
        <ele>514.2</ele>
        <time>2021-05-29 06:34:36</time>
      </trkpt>
      <trkpt lat="42.86791" lon="-2.63301">
        <ele>514.2</ele>
        <time>2021-05-29 06:34:37</time>
      </trkpt>
      <trkpt lat="42.86793" lon="-2.6329">
        <ele>514.2</ele>
        <time>2021-05-29 06:34:38</time>
      </trkpt>
      <trkpt lat="42.86794" lon="-2.6328">
        <ele>514</ele>
        <time>2021-05-29 06:34:39</time>
      </trkpt>
      <trkpt lat="42.86796" lon="-2.63269">
        <ele>514</ele>
        <time>2021-05-29 06:34:40</time>
      </trkpt>
      <trkpt lat="42.86797" lon="-2.63259">
        <ele>513.8</ele>
        <time>2021-05-29 06:34:41</time>
      </trkpt>
      <trkpt lat="42.86798" lon="-2.6325">
        <ele>513.4</ele>
        <time>2021-05-29 06:34:42</time>
      </trkpt>
      <trkpt lat="42.86799" lon="-2.6324">
        <ele>513.2</ele>
        <time>2021-05-29 06:34:43</time>
      </trkpt>
      <trkpt lat="42.868" lon="-2.63231">
        <ele>513</ele>
        <time>2021-05-29 06:34:44</time>
      </trkpt>
      <trkpt lat="42.868" lon="-2.63221">
        <ele>512.8</ele>
        <time>2021-05-29 06:34:45</time>
      </trkpt>
      <trkpt lat="42.86801" lon="-2.63212">
        <ele>512.8</ele>
        <time>2021-05-29 06:34:46</time>
      </trkpt>
      <trkpt lat="42.86802" lon="-2.63202">
        <ele>512.6</ele>
        <time>2021-05-29 06:34:47</time>
      </trkpt>
      <trkpt lat="42.86803" lon="-2.63192">
        <ele>512.6</ele>
        <time>2021-05-29 06:34:48</time>
      </trkpt>
      <trkpt lat="42.86803" lon="-2.63182">
        <ele>512.6</ele>
        <time>2021-05-29 06:34:49</time>
      </trkpt>
      <trkpt lat="42.86804" lon="-2.63173">
        <ele>512.6</ele>
        <time>2021-05-29 06:34:50</time>
      </trkpt>
      <trkpt lat="42.86805" lon="-2.63163">
        <ele>512.6</ele>
        <time>2021-05-29 06:34:51</time>
      </trkpt>
      <trkpt lat="42.86806" lon="-2.63153">
        <ele>512.6</ele>
        <time>2021-05-29 06:34:52</time>
      </trkpt>
      <trkpt lat="42.86807" lon="-2.63143">
        <ele>512.8</ele>
        <time>2021-05-29 06:34:53</time>
      </trkpt>
      <trkpt lat="42.86808" lon="-2.63134">
        <ele>512.8</ele>
        <time>2021-05-29 06:34:54</time>
      </trkpt>
      <trkpt lat="42.86808" lon="-2.63124">
        <ele>513</ele>
        <time>2021-05-29 06:34:55</time>
      </trkpt>
      <trkpt lat="42.86809" lon="-2.63115">
        <ele>513</ele>
        <time>2021-05-29 06:34:56</time>
      </trkpt>
      <trkpt lat="42.8681" lon="-2.63105">
        <ele>513.2</ele>
        <time>2021-05-29 06:34:57</time>
      </trkpt>
      <trkpt lat="42.86811" lon="-2.63096">
        <ele>513.2</ele>
        <time>2021-05-29 06:34:58</time>
      </trkpt>
      <trkpt lat="42.86811" lon="-2.63087">
        <ele>513.4</ele>
        <time>2021-05-29 06:34:59</time>
      </trkpt>
      <trkpt lat="42.86812" lon="-2.63078">
        <ele>513.4</ele>
        <time>2021-05-29 06:35:00</time>
      </trkpt>
      <trkpt lat="42.86813" lon="-2.63068">
        <ele>513.4</ele>
        <time>2021-05-29 06:35:01</time>
      </trkpt>
      <trkpt lat="42.86814" lon="-2.63059">
        <ele>513.4</ele>
        <time>2021-05-29 06:35:02</time>
      </trkpt>
      <trkpt lat="42.86815" lon="-2.6305">
        <ele>513.6</ele>
        <time>2021-05-29 06:35:03</time>
      </trkpt>
      <trkpt lat="42.86815" lon="-2.6304">
        <ele>513.6</ele>
        <time>2021-05-29 06:35:04</time>
      </trkpt>
      <trkpt lat="42.86816" lon="-2.6303">
        <ele>513.6</ele>
        <time>2021-05-29 06:35:05</time>
      </trkpt>
      <trkpt lat="42.86817" lon="-2.63021">
        <ele>513.6</ele>
        <time>2021-05-29 06:35:06</time>
      </trkpt>
      <trkpt lat="42.86818" lon="-2.63011">
        <ele>513.6</ele>
        <time>2021-05-29 06:35:07</time>
      </trkpt>
      <trkpt lat="42.86819" lon="-2.63001">
        <ele>513.6</ele>
        <time>2021-05-29 06:35:08</time>
      </trkpt>
      <trkpt lat="42.8682" lon="-2.62991">
        <ele>513.8</ele>
        <time>2021-05-29 06:35:09</time>
      </trkpt>
      <trkpt lat="42.86821" lon="-2.62981">
        <ele>513.8</ele>
        <time>2021-05-29 06:35:10</time>
      </trkpt>
      <trkpt lat="42.86821" lon="-2.62971">
        <ele>514.4</ele>
        <time>2021-05-29 06:35:11</time>
      </trkpt>
      <trkpt lat="42.86822" lon="-2.62961">
        <ele>514.8</ele>
        <time>2021-05-29 06:35:12</time>
      </trkpt>
      <trkpt lat="42.86823" lon="-2.62951">
        <ele>515</ele>
        <time>2021-05-29 06:35:13</time>
      </trkpt>
      <trkpt lat="42.86824" lon="-2.62941">
        <ele>515</ele>
        <time>2021-05-29 06:35:14</time>
      </trkpt>
      <trkpt lat="42.86824" lon="-2.6293">
        <ele>515.2</ele>
        <time>2021-05-29 06:35:15</time>
      </trkpt>
      <trkpt lat="42.86825" lon="-2.6292">
        <ele>515.2</ele>
        <time>2021-05-29 06:35:16</time>
      </trkpt>
      <trkpt lat="42.86826" lon="-2.6291">
        <ele>515.2</ele>
        <time>2021-05-29 06:35:17</time>
      </trkpt>
      <trkpt lat="42.86827" lon="-2.629">
        <ele>515.2</ele>
        <time>2021-05-29 06:35:18</time>
      </trkpt>
      <trkpt lat="42.86828" lon="-2.62889">
        <ele>515.2</ele>
        <time>2021-05-29 06:35:19</time>
      </trkpt>
      <trkpt lat="42.86829" lon="-2.62879">
        <ele>515.2</ele>
        <time>2021-05-29 06:35:20</time>
      </trkpt>
      <trkpt lat="42.8683" lon="-2.62869">
        <ele>515.2</ele>
        <time>2021-05-29 06:35:21</time>
      </trkpt>
      <trkpt lat="42.86831" lon="-2.62858">
        <ele>515.2</ele>
        <time>2021-05-29 06:35:22</time>
      </trkpt>
      <trkpt lat="42.86831" lon="-2.62848">
        <ele>515.2</ele>
        <time>2021-05-29 06:35:23</time>
      </trkpt>
      <trkpt lat="42.86832" lon="-2.62838">
        <ele>515.2</ele>
        <time>2021-05-29 06:35:24</time>
      </trkpt>
      <trkpt lat="42.86833" lon="-2.62827">
        <ele>515.2</ele>
        <time>2021-05-29 06:35:25</time>
      </trkpt>
      <trkpt lat="42.86834" lon="-2.62817">
        <ele>515</ele>
        <time>2021-05-29 06:35:26</time>
      </trkpt>
      <trkpt lat="42.86835" lon="-2.62807">
        <ele>515</ele>
        <time>2021-05-29 06:35:27</time>
      </trkpt>
      <trkpt lat="42.86836" lon="-2.62797">
        <ele>515</ele>
        <time>2021-05-29 06:35:28</time>
      </trkpt>
      <trkpt lat="42.86836" lon="-2.62788">
        <ele>515</ele>
        <time>2021-05-29 06:35:29</time>
      </trkpt>
      <trkpt lat="42.86835" lon="-2.62778">
        <ele>515</ele>
        <time>2021-05-29 06:35:30</time>
      </trkpt>
      <trkpt lat="42.86834" lon="-2.62768">
        <ele>515</ele>
        <time>2021-05-29 06:35:31</time>
      </trkpt>
      <trkpt lat="42.86831" lon="-2.62759">
        <ele>515</ele>
        <time>2021-05-29 06:35:32</time>
      </trkpt>
      <trkpt lat="42.86828" lon="-2.6275">
        <ele>515</ele>
        <time>2021-05-29 06:35:33</time>
      </trkpt>
      <trkpt lat="42.86823" lon="-2.62743">
        <ele>514.8</ele>
        <time>2021-05-29 06:35:34</time>
      </trkpt>
      <trkpt lat="42.86818" lon="-2.62736">
        <ele>514.8</ele>
        <time>2021-05-29 06:35:35</time>
      </trkpt>
      <trkpt lat="42.86813" lon="-2.6273">
        <ele>514.8</ele>
        <time>2021-05-29 06:35:36</time>
      </trkpt>
      <trkpt lat="42.86807" lon="-2.62725">
        <ele>514.8</ele>
        <time>2021-05-29 06:35:37</time>
      </trkpt>
      <trkpt lat="42.86801" lon="-2.6272">
        <ele>514.8</ele>
        <time>2021-05-29 06:35:38</time>
      </trkpt>
      <trkpt lat="42.86795" lon="-2.62715">
        <ele>514.6</ele>
        <time>2021-05-29 06:35:39</time>
      </trkpt>
      <trkpt lat="42.86789" lon="-2.6271">
        <ele>514.6</ele>
        <time>2021-05-29 06:35:40</time>
      </trkpt>
      <trkpt lat="42.86783" lon="-2.62706">
        <ele>514.6</ele>
        <time>2021-05-29 06:35:41</time>
      </trkpt>
      <trkpt lat="42.86777" lon="-2.62701">
        <ele>514.8</ele>
        <time>2021-05-29 06:35:42</time>
      </trkpt>
      <trkpt lat="42.86771" lon="-2.62697">
        <ele>514.6</ele>
        <time>2021-05-29 06:35:43</time>
      </trkpt>
      <trkpt lat="42.86765" lon="-2.62692">
        <ele>514.2</ele>
        <time>2021-05-29 06:35:44</time>
      </trkpt>
      <trkpt lat="42.86758" lon="-2.62687">
        <ele>514</ele>
        <time>2021-05-29 06:35:45</time>
      </trkpt>
      <trkpt lat="42.86752" lon="-2.62683">
        <ele>514</ele>
        <time>2021-05-29 06:35:46</time>
      </trkpt>
      <trkpt lat="42.86746" lon="-2.62678">
        <ele>514</ele>
        <time>2021-05-29 06:35:47</time>
      </trkpt>
      <trkpt lat="42.8674" lon="-2.62674">
        <ele>513.8</ele>
        <time>2021-05-29 06:35:48</time>
      </trkpt>
      <trkpt lat="42.86734" lon="-2.62669">
        <ele>513.8</ele>
        <time>2021-05-29 06:35:49</time>
      </trkpt>
      <trkpt lat="42.86728" lon="-2.62664">
        <ele>513.8</ele>
        <time>2021-05-29 06:35:50</time>
      </trkpt>
      <trkpt lat="42.86722" lon="-2.62659">
        <ele>513.8</ele>
        <time>2021-05-29 06:35:51</time>
      </trkpt>
      <trkpt lat="42.86716" lon="-2.62654">
        <ele>513.8</ele>
        <time>2021-05-29 06:35:52</time>
      </trkpt>
      <trkpt lat="42.8671" lon="-2.62649">
        <ele>513.8</ele>
        <time>2021-05-29 06:35:53</time>
      </trkpt>
      <trkpt lat="42.86704" lon="-2.62644">
        <ele>513.8</ele>
        <time>2021-05-29 06:35:54</time>
      </trkpt>
      <trkpt lat="42.86698" lon="-2.62639">
        <ele>514</ele>
        <time>2021-05-29 06:35:55</time>
      </trkpt>
      <trkpt lat="42.86692" lon="-2.62633">
        <ele>514.4</ele>
        <time>2021-05-29 06:35:56</time>
      </trkpt>
      <trkpt lat="42.86687" lon="-2.62627">
        <ele>514.6</ele>
        <time>2021-05-29 06:35:57</time>
      </trkpt>
      <trkpt lat="42.86681" lon="-2.6262">
        <ele>514.8</ele>
        <time>2021-05-29 06:35:58</time>
      </trkpt>
      <trkpt lat="42.86676" lon="-2.62614">
        <ele>515.2</ele>
        <time>2021-05-29 06:35:59</time>
      </trkpt>
      <trkpt lat="42.86671" lon="-2.62607">
        <ele>515.4</ele>
        <time>2021-05-29 06:36:00</time>
      </trkpt>
      <trkpt lat="42.86666" lon="-2.626">
        <ele>515.4</ele>
        <time>2021-05-29 06:36:01</time>
      </trkpt>
      <trkpt lat="42.86661" lon="-2.62592">
        <ele>515.6</ele>
        <time>2021-05-29 06:36:02</time>
      </trkpt>
      <trkpt lat="42.86656" lon="-2.62584">
        <ele>515.6</ele>
        <time>2021-05-29 06:36:03</time>
      </trkpt>
      <trkpt lat="42.86651" lon="-2.62577">
        <ele>515.8</ele>
        <time>2021-05-29 06:36:04</time>
      </trkpt>
      <trkpt lat="42.86647" lon="-2.62568">
        <ele>515.8</ele>
        <time>2021-05-29 06:36:05</time>
      </trkpt>
      <trkpt lat="42.86642" lon="-2.6256">
        <ele>516</ele>
        <time>2021-05-29 06:36:06</time>
      </trkpt>
      <trkpt lat="42.86638" lon="-2.62551">
        <ele>516</ele>
        <time>2021-05-29 06:36:07</time>
      </trkpt>
      <trkpt lat="42.86635" lon="-2.62543">
        <ele>516</ele>
        <time>2021-05-29 06:36:08</time>
      </trkpt>
      <trkpt lat="42.86631" lon="-2.62534">
        <ele>516.2</ele>
        <time>2021-05-29 06:36:09</time>
      </trkpt>
      <trkpt lat="42.86627" lon="-2.62525">
        <ele>516.2</ele>
        <time>2021-05-29 06:36:10</time>
      </trkpt>
      <trkpt lat="42.86624" lon="-2.62516">
        <ele>516.4</ele>
        <time>2021-05-29 06:36:11</time>
      </trkpt>
      <trkpt lat="42.86621" lon="-2.62507">
        <ele>516.4</ele>
        <time>2021-05-29 06:36:12</time>
      </trkpt>
      <trkpt lat="42.86618" lon="-2.62497">
        <ele>516.6</ele>
        <time>2021-05-29 06:36:13</time>
      </trkpt>
      <trkpt lat="42.86615" lon="-2.62488">
        <ele>516.6</ele>
        <time>2021-05-29 06:36:14</time>
      </trkpt>
      <trkpt lat="42.86613" lon="-2.62478">
        <ele>516.8</ele>
        <time>2021-05-29 06:36:15</time>
      </trkpt>
      <trkpt lat="42.86611" lon="-2.62468">
        <ele>516.8</ele>
        <time>2021-05-29 06:36:16</time>
      </trkpt>
      <trkpt lat="42.86609" lon="-2.62458">
        <ele>517</ele>
        <time>2021-05-29 06:36:17</time>
      </trkpt>
      <trkpt lat="42.86608" lon="-2.62447">
        <ele>517</ele>
        <time>2021-05-29 06:36:18</time>
      </trkpt>
      <trkpt lat="42.86606" lon="-2.62437">
        <ele>517</ele>
        <time>2021-05-29 06:36:19</time>
      </trkpt>
      <trkpt lat="42.86605" lon="-2.62426">
        <ele>517</ele>
        <time>2021-05-29 06:36:20</time>
      </trkpt>
      <trkpt lat="42.86605" lon="-2.62415">
        <ele>517.2</ele>
        <time>2021-05-29 06:36:21</time>
      </trkpt>
      <trkpt lat="42.86604" lon="-2.62404">
        <ele>517.2</ele>
        <time>2021-05-29 06:36:22</time>
      </trkpt>
      <trkpt lat="42.86604" lon="-2.62394">
        <ele>517.2</ele>
        <time>2021-05-29 06:36:23</time>
      </trkpt>
      <trkpt lat="42.86604" lon="-2.62383">
        <ele>517.4</ele>
        <time>2021-05-29 06:36:24</time>
      </trkpt>
      <trkpt lat="42.86604" lon="-2.62372">
        <ele>517.4</ele>
        <time>2021-05-29 06:36:25</time>
      </trkpt>
      <trkpt lat="42.86604" lon="-2.62361">
        <ele>517.6</ele>
        <time>2021-05-29 06:36:26</time>
      </trkpt>
      <trkpt lat="42.86605" lon="-2.62351">
        <ele>517.6</ele>
        <time>2021-05-29 06:36:27</time>
      </trkpt>
      <trkpt lat="42.86606" lon="-2.6234">
        <ele>517.8</ele>
        <time>2021-05-29 06:36:28</time>
      </trkpt>
      <trkpt lat="42.86607" lon="-2.62329">
        <ele>517.8</ele>
        <time>2021-05-29 06:36:29</time>
      </trkpt>
      <trkpt lat="42.86608" lon="-2.62318">
        <ele>517.8</ele>
        <time>2021-05-29 06:36:30</time>
      </trkpt>
      <trkpt lat="42.86609" lon="-2.62307">
        <ele>517.8</ele>
        <time>2021-05-29 06:36:31</time>
      </trkpt>
      <trkpt lat="42.8661" lon="-2.62296">
        <ele>518</ele>
        <time>2021-05-29 06:36:32</time>
      </trkpt>
      <trkpt lat="42.86611" lon="-2.62286">
        <ele>518</ele>
        <time>2021-05-29 06:36:33</time>
      </trkpt>
      <trkpt lat="42.86612" lon="-2.62275">
        <ele>518</ele>
        <time>2021-05-29 06:36:34</time>
      </trkpt>
      <trkpt lat="42.86613" lon="-2.62264">
        <ele>518.2</ele>
        <time>2021-05-29 06:36:35</time>
      </trkpt>
      <trkpt lat="42.86614" lon="-2.62253">
        <ele>518.6</ele>
        <time>2021-05-29 06:36:36</time>
      </trkpt>
      <trkpt lat="42.86615" lon="-2.62243">
        <ele>518.6</ele>
        <time>2021-05-29 06:36:37</time>
      </trkpt>
      <trkpt lat="42.86616" lon="-2.62232">
        <ele>518.6</ele>
        <time>2021-05-29 06:36:38</time>
      </trkpt>
      <trkpt lat="42.86617" lon="-2.62222">
        <ele>518.8</ele>
        <time>2021-05-29 06:36:39</time>
      </trkpt>
      <trkpt lat="42.86618" lon="-2.62211">
        <ele>518.8</ele>
        <time>2021-05-29 06:36:40</time>
      </trkpt>
      <trkpt lat="42.86619" lon="-2.622">
        <ele>518.8</ele>
        <time>2021-05-29 06:36:41</time>
      </trkpt>
      <trkpt lat="42.8662" lon="-2.6219">
        <ele>519</ele>
        <time>2021-05-29 06:36:42</time>
      </trkpt>
      <trkpt lat="42.86621" lon="-2.62179">
        <ele>519</ele>
        <time>2021-05-29 06:36:43</time>
      </trkpt>
      <trkpt lat="42.86622" lon="-2.62169">
        <ele>519</ele>
        <time>2021-05-29 06:36:44</time>
      </trkpt>
      <trkpt lat="42.86623" lon="-2.62158">
        <ele>519</ele>
        <time>2021-05-29 06:36:45</time>
      </trkpt>
      <trkpt lat="42.86624" lon="-2.62148">
        <ele>519</ele>
        <time>2021-05-29 06:36:46</time>
      </trkpt>
      <trkpt lat="42.86625" lon="-2.62137">
        <ele>519.2</ele>
        <time>2021-05-29 06:36:47</time>
      </trkpt>
      <trkpt lat="42.86625" lon="-2.62127">
        <ele>519.2</ele>
        <time>2021-05-29 06:36:48</time>
      </trkpt>
      <trkpt lat="42.86627" lon="-2.62116">
        <ele>519.4</ele>
        <time>2021-05-29 06:36:49</time>
      </trkpt>
      <trkpt lat="42.86627" lon="-2.62106">
        <ele>519.4</ele>
        <time>2021-05-29 06:36:50</time>
      </trkpt>
      <trkpt lat="42.86628" lon="-2.62095">
        <ele>519.6</ele>
        <time>2021-05-29 06:36:51</time>
      </trkpt>
      <trkpt lat="42.8663" lon="-2.62085">
        <ele>519.6</ele>
        <time>2021-05-29 06:36:52</time>
      </trkpt>
      <trkpt lat="42.86631" lon="-2.62075">
        <ele>519.8</ele>
        <time>2021-05-29 06:36:53</time>
      </trkpt>
      <trkpt lat="42.86631" lon="-2.62064">
        <ele>519.8</ele>
        <time>2021-05-29 06:36:54</time>
      </trkpt>
      <trkpt lat="42.86632" lon="-2.62053">
        <ele>520</ele>
        <time>2021-05-29 06:36:55</time>
      </trkpt>
      <trkpt lat="42.86634" lon="-2.62042">
        <ele>520</ele>
        <time>2021-05-29 06:36:56</time>
      </trkpt>
      <trkpt lat="42.86635" lon="-2.62031">
        <ele>520.2</ele>
        <time>2021-05-29 06:36:57</time>
      </trkpt>
      <trkpt lat="42.86636" lon="-2.6202">
        <ele>520.2</ele>
        <time>2021-05-29 06:36:58</time>
      </trkpt>
      <trkpt lat="42.86637" lon="-2.6201">
        <ele>520.2</ele>
        <time>2021-05-29 06:36:59</time>
      </trkpt>
      <trkpt lat="42.86638" lon="-2.61998">
        <ele>520.2</ele>
        <time>2021-05-29 06:37:00</time>
      </trkpt>
      <trkpt lat="42.86639" lon="-2.61987">
        <ele>520.2</ele>
        <time>2021-05-29 06:37:01</time>
      </trkpt>
      <trkpt lat="42.8664" lon="-2.61976">
        <ele>520.2</ele>
        <time>2021-05-29 06:37:02</time>
      </trkpt>
      <trkpt lat="42.86641" lon="-2.61965">
        <ele>520.4</ele>
        <time>2021-05-29 06:37:03</time>
      </trkpt>
      <trkpt lat="42.86642" lon="-2.61954">
        <ele>520.6</ele>
        <time>2021-05-29 06:37:04</time>
      </trkpt>
      <trkpt lat="42.86643" lon="-2.61943">
        <ele>520.8</ele>
        <time>2021-05-29 06:37:05</time>
      </trkpt>
      <trkpt lat="42.86644" lon="-2.61931">
        <ele>520.8</ele>
        <time>2021-05-29 06:37:06</time>
      </trkpt>
      <trkpt lat="42.86645" lon="-2.6192">
        <ele>521</ele>
        <time>2021-05-29 06:37:07</time>
      </trkpt>
      <trkpt lat="42.86646" lon="-2.61909">
        <ele>521.2</ele>
        <time>2021-05-29 06:37:08</time>
      </trkpt>
      <trkpt lat="42.86647" lon="-2.61898">
        <ele>521.2</ele>
        <time>2021-05-29 06:37:09</time>
      </trkpt>
      <trkpt lat="42.86649" lon="-2.61887">
        <ele>521.2</ele>
        <time>2021-05-29 06:37:10</time>
      </trkpt>
      <trkpt lat="42.8665" lon="-2.61876">
        <ele>521.4</ele>
        <time>2021-05-29 06:37:11</time>
      </trkpt>
      <trkpt lat="42.86651" lon="-2.61865">
        <ele>521.4</ele>
        <time>2021-05-29 06:37:12</time>
      </trkpt>
      <trkpt lat="42.86652" lon="-2.61854">
        <ele>521.4</ele>
        <time>2021-05-29 06:37:13</time>
      </trkpt>
      <trkpt lat="42.86652" lon="-2.61843">
        <ele>521.4</ele>
        <time>2021-05-29 06:37:14</time>
      </trkpt>
      <trkpt lat="42.86653" lon="-2.61832">
        <ele>521.6</ele>
        <time>2021-05-29 06:37:15</time>
      </trkpt>
      <trkpt lat="42.86653" lon="-2.61821">
        <ele>521.8</ele>
        <time>2021-05-29 06:37:16</time>
      </trkpt>
      <trkpt lat="42.86654" lon="-2.6181">
        <ele>522</ele>
        <time>2021-05-29 06:37:17</time>
      </trkpt>
      <trkpt lat="42.86653" lon="-2.61799">
        <ele>522</ele>
        <time>2021-05-29 06:37:18</time>
      </trkpt>
      <trkpt lat="42.86653" lon="-2.61788">
        <ele>522.2</ele>
        <time>2021-05-29 06:37:19</time>
      </trkpt>
      <trkpt lat="42.86652" lon="-2.61777">
        <ele>522.2</ele>
        <time>2021-05-29 06:37:20</time>
      </trkpt>
      <trkpt lat="42.86651" lon="-2.61766">
        <ele>522.2</ele>
        <time>2021-05-29 06:37:21</time>
      </trkpt>
      <trkpt lat="42.86649" lon="-2.61755">
        <ele>522.2</ele>
        <time>2021-05-29 06:37:22</time>
      </trkpt>
      <trkpt lat="42.86647" lon="-2.61745">
        <ele>522.4</ele>
        <time>2021-05-29 06:37:23</time>
      </trkpt>
      <trkpt lat="42.86645" lon="-2.61734">
        <ele>522.4</ele>
        <time>2021-05-29 06:37:24</time>
      </trkpt>
      <trkpt lat="42.86643" lon="-2.61724">
        <ele>522.4</ele>
        <time>2021-05-29 06:37:25</time>
      </trkpt>
      <trkpt lat="42.8664" lon="-2.61714">
        <ele>522.4</ele>
        <time>2021-05-29 06:37:26</time>
      </trkpt>
      <trkpt lat="42.86636" lon="-2.61704">
        <ele>522.6</ele>
        <time>2021-05-29 06:37:27</time>
      </trkpt>
      <trkpt lat="42.86633" lon="-2.61694">
        <ele>522.6</ele>
        <time>2021-05-29 06:37:28</time>
      </trkpt>
      <trkpt lat="42.86629" lon="-2.61685">
        <ele>522.8</ele>
        <time>2021-05-29 06:37:29</time>
      </trkpt>
      <trkpt lat="42.86625" lon="-2.61675">
        <ele>522.8</ele>
        <time>2021-05-29 06:37:30</time>
      </trkpt>
      <trkpt lat="42.8662" lon="-2.61666">
        <ele>523</ele>
        <time>2021-05-29 06:37:31</time>
      </trkpt>
      <trkpt lat="42.86616" lon="-2.61658">
        <ele>523</ele>
        <time>2021-05-29 06:37:32</time>
      </trkpt>
      <trkpt lat="42.86611" lon="-2.6165">
        <ele>523.2</ele>
        <time>2021-05-29 06:37:33</time>
      </trkpt>
      <trkpt lat="42.86605" lon="-2.61642">
        <ele>523.2</ele>
        <time>2021-05-29 06:37:34</time>
      </trkpt>
      <trkpt lat="42.866" lon="-2.61634">
        <ele>523.2</ele>
        <time>2021-05-29 06:37:35</time>
      </trkpt>
      <trkpt lat="42.86594" lon="-2.61627">
        <ele>523.4</ele>
        <time>2021-05-29 06:37:36</time>
      </trkpt>
      <trkpt lat="42.86588" lon="-2.6162">
        <ele>523.4</ele>
        <time>2021-05-29 06:37:37</time>
      </trkpt>
      <trkpt lat="42.86582" lon="-2.61614">
        <ele>523.4</ele>
        <time>2021-05-29 06:37:38</time>
      </trkpt>
      <trkpt lat="42.86575" lon="-2.61607">
        <ele>523.4</ele>
        <time>2021-05-29 06:37:39</time>
      </trkpt>
      <trkpt lat="42.86568" lon="-2.61602">
        <ele>523.4</ele>
        <time>2021-05-29 06:37:40</time>
      </trkpt>
      <trkpt lat="42.86562" lon="-2.61596">
        <ele>523.4</ele>
        <time>2021-05-29 06:37:41</time>
      </trkpt>
      <trkpt lat="42.86555" lon="-2.61592">
        <ele>523.4</ele>
        <time>2021-05-29 06:37:42</time>
      </trkpt>
      <trkpt lat="42.86548" lon="-2.61587">
        <ele>523.4</ele>
        <time>2021-05-29 06:37:43</time>
      </trkpt>
      <trkpt lat="42.8654" lon="-2.61583">
        <ele>523.6</ele>
        <time>2021-05-29 06:37:44</time>
      </trkpt>
      <trkpt lat="42.86533" lon="-2.6158">
        <ele>523.8</ele>
        <time>2021-05-29 06:37:45</time>
      </trkpt>
      <trkpt lat="42.86526" lon="-2.61577">
        <ele>523.8</ele>
        <time>2021-05-29 06:37:46</time>
      </trkpt>
      <trkpt lat="42.86518" lon="-2.61574">
        <ele>523.8</ele>
        <time>2021-05-29 06:37:47</time>
      </trkpt>
      <trkpt lat="42.8651" lon="-2.61571">
        <ele>523.8</ele>
        <time>2021-05-29 06:37:48</time>
      </trkpt>
      <trkpt lat="42.86503" lon="-2.61568">
        <ele>523.8</ele>
        <time>2021-05-29 06:37:49</time>
      </trkpt>
      <trkpt lat="42.86495" lon="-2.61566">
        <ele>523.8</ele>
        <time>2021-05-29 06:37:50</time>
      </trkpt>
      <trkpt lat="42.86487" lon="-2.61564">
        <ele>523.8</ele>
        <time>2021-05-29 06:37:51</time>
      </trkpt>
      <trkpt lat="42.86479" lon="-2.61562">
        <ele>523.8</ele>
        <time>2021-05-29 06:37:52</time>
      </trkpt>
      <trkpt lat="42.86471" lon="-2.6156">
        <ele>524</ele>
        <time>2021-05-29 06:37:53</time>
      </trkpt>
      <trkpt lat="42.86463" lon="-2.61558">
        <ele>524</ele>
        <time>2021-05-29 06:37:54</time>
      </trkpt>
      <trkpt lat="42.86455" lon="-2.61555">
        <ele>524.2</ele>
        <time>2021-05-29 06:37:55</time>
      </trkpt>
      <trkpt lat="42.86448" lon="-2.61553">
        <ele>524.2</ele>
        <time>2021-05-29 06:37:56</time>
      </trkpt>
      <trkpt lat="42.8644" lon="-2.61551">
        <ele>524.2</ele>
        <time>2021-05-29 06:37:57</time>
      </trkpt>
      <trkpt lat="42.86432" lon="-2.61549">
        <ele>524.4</ele>
        <time>2021-05-29 06:37:58</time>
      </trkpt>
      <trkpt lat="42.86425" lon="-2.61547">
        <ele>524.4</ele>
        <time>2021-05-29 06:37:59</time>
      </trkpt>
      <trkpt lat="42.86417" lon="-2.61545">
        <ele>524.4</ele>
        <time>2021-05-29 06:38:00</time>
      </trkpt>
      <trkpt lat="42.86409" lon="-2.61543">
        <ele>524.4</ele>
        <time>2021-05-29 06:38:01</time>
      </trkpt>
      <trkpt lat="42.86402" lon="-2.61541">
        <ele>524.4</ele>
        <time>2021-05-29 06:38:02</time>
      </trkpt>
      <trkpt lat="42.86394" lon="-2.61539">
        <ele>524.6</ele>
        <time>2021-05-29 06:38:03</time>
      </trkpt>
      <trkpt lat="42.86386" lon="-2.61537">
        <ele>524.6</ele>
        <time>2021-05-29 06:38:04</time>
      </trkpt>
      <trkpt lat="42.86379" lon="-2.61535">
        <ele>524.6</ele>
        <time>2021-05-29 06:38:05</time>
      </trkpt>
      <trkpt lat="42.86372" lon="-2.61533">
        <ele>524.8</ele>
        <time>2021-05-29 06:38:06</time>
      </trkpt>
      <trkpt lat="42.86364" lon="-2.61531">
        <ele>524.8</ele>
        <time>2021-05-29 06:38:07</time>
      </trkpt>
      <trkpt lat="42.86357" lon="-2.61529">
        <ele>524.8</ele>
        <time>2021-05-29 06:38:08</time>
      </trkpt>
      <trkpt lat="42.86349" lon="-2.61527">
        <ele>525</ele>
        <time>2021-05-29 06:38:09</time>
      </trkpt>
      <trkpt lat="42.86342" lon="-2.61525">
        <ele>525.2</ele>
        <time>2021-05-29 06:38:10</time>
      </trkpt>
      <trkpt lat="42.86334" lon="-2.61523">
        <ele>525.2</ele>
        <time>2021-05-29 06:38:11</time>
      </trkpt>
      <trkpt lat="42.86327" lon="-2.61521">
        <ele>525.2</ele>
        <time>2021-05-29 06:38:12</time>
      </trkpt>
      <trkpt lat="42.86319" lon="-2.61519">
        <ele>525.2</ele>
        <time>2021-05-29 06:38:13</time>
      </trkpt>
      <trkpt lat="42.86312" lon="-2.61517">
        <ele>525.2</ele>
        <time>2021-05-29 06:38:14</time>
      </trkpt>
      <trkpt lat="42.86304" lon="-2.61515">
        <ele>525.2</ele>
        <time>2021-05-29 06:38:15</time>
      </trkpt>
      <trkpt lat="42.86297" lon="-2.61513">
        <ele>525.2</ele>
        <time>2021-05-29 06:38:16</time>
      </trkpt>
      <trkpt lat="42.86289" lon="-2.61511">
        <ele>525.2</ele>
        <time>2021-05-29 06:38:17</time>
      </trkpt>
      <trkpt lat="42.86282" lon="-2.61508">
        <ele>525.4</ele>
        <time>2021-05-29 06:38:18</time>
      </trkpt>
      <trkpt lat="42.86274" lon="-2.61506">
        <ele>525.4</ele>
        <time>2021-05-29 06:38:19</time>
      </trkpt>
      <trkpt lat="42.86267" lon="-2.61504">
        <ele>525.4</ele>
        <time>2021-05-29 06:38:20</time>
      </trkpt>
      <trkpt lat="42.86259" lon="-2.61502">
        <ele>525.4</ele>
        <time>2021-05-29 06:38:21</time>
      </trkpt>
      <trkpt lat="42.86252" lon="-2.615">
        <ele>525.6</ele>
        <time>2021-05-29 06:38:22</time>
      </trkpt>
      <trkpt lat="42.86244" lon="-2.61498">
        <ele>525.6</ele>
        <time>2021-05-29 06:38:23</time>
      </trkpt>
      <trkpt lat="42.86236" lon="-2.61496">
        <ele>525.6</ele>
        <time>2021-05-29 06:38:24</time>
      </trkpt>
      <trkpt lat="42.86229" lon="-2.61494">
        <ele>525.6</ele>
        <time>2021-05-29 06:38:25</time>
      </trkpt>
      <trkpt lat="42.86221" lon="-2.61491">
        <ele>525.6</ele>
        <time>2021-05-29 06:38:26</time>
      </trkpt>
      <trkpt lat="42.86213" lon="-2.61489">
        <ele>525.6</ele>
        <time>2021-05-29 06:38:27</time>
      </trkpt>
      <trkpt lat="42.86206" lon="-2.61487">
        <ele>525.6</ele>
        <time>2021-05-29 06:38:28</time>
      </trkpt>
      <trkpt lat="42.86198" lon="-2.61485">
        <ele>525.8</ele>
        <time>2021-05-29 06:38:29</time>
      </trkpt>
      <trkpt lat="42.8619" lon="-2.61483">
        <ele>525.8</ele>
        <time>2021-05-29 06:38:30</time>
      </trkpt>
      <trkpt lat="42.86183" lon="-2.6148">
        <ele>525.8</ele>
        <time>2021-05-29 06:38:31</time>
      </trkpt>
      <trkpt lat="42.86175" lon="-2.61478">
        <ele>526</ele>
        <time>2021-05-29 06:38:32</time>
      </trkpt>
      <trkpt lat="42.86168" lon="-2.61475">
        <ele>526</ele>
        <time>2021-05-29 06:38:33</time>
      </trkpt>
      <trkpt lat="42.8616" lon="-2.61472">
        <ele>526</ele>
        <time>2021-05-29 06:38:34</time>
      </trkpt>
      <trkpt lat="42.86153" lon="-2.61468">
        <ele>526</ele>
        <time>2021-05-29 06:38:35</time>
      </trkpt>
      <trkpt lat="42.86145" lon="-2.61465">
        <ele>526</ele>
        <time>2021-05-29 06:38:36</time>
      </trkpt>
      <trkpt lat="42.86138" lon="-2.61461">
        <ele>526</ele>
        <time>2021-05-29 06:38:37</time>
      </trkpt>
      <trkpt lat="42.86131" lon="-2.61456">
        <ele>526</ele>
        <time>2021-05-29 06:38:38</time>
      </trkpt>
      <trkpt lat="42.86124" lon="-2.61452">
        <ele>526</ele>
        <time>2021-05-29 06:38:39</time>
      </trkpt>
      <trkpt lat="42.86116" lon="-2.61447">
        <ele>526</ele>
        <time>2021-05-29 06:38:40</time>
      </trkpt>
      <trkpt lat="42.86109" lon="-2.61443">
        <ele>526</ele>
        <time>2021-05-29 06:38:41</time>
      </trkpt>
      <trkpt lat="42.86103" lon="-2.61438">
        <ele>526.2</ele>
        <time>2021-05-29 06:38:42</time>
      </trkpt>
      <trkpt lat="42.86096" lon="-2.61433">
        <ele>526.2</ele>
        <time>2021-05-29 06:38:43</time>
      </trkpt>
      <trkpt lat="42.86089" lon="-2.61427">
        <ele>526.2</ele>
        <time>2021-05-29 06:38:44</time>
      </trkpt>
      <trkpt lat="42.86083" lon="-2.61422">
        <ele>526.4</ele>
        <time>2021-05-29 06:38:45</time>
      </trkpt>
      <trkpt lat="42.86077" lon="-2.61416">
        <ele>526.4</ele>
        <time>2021-05-29 06:38:46</time>
      </trkpt>
      <trkpt lat="42.8607" lon="-2.61409">
        <ele>526.4</ele>
        <time>2021-05-29 06:38:47</time>
      </trkpt>
      <trkpt lat="42.86064" lon="-2.61403">
        <ele>526.4</ele>
        <time>2021-05-29 06:38:48</time>
      </trkpt>
      <trkpt lat="42.86058" lon="-2.61396">
        <ele>526.4</ele>
        <time>2021-05-29 06:38:49</time>
      </trkpt>
      <trkpt lat="42.86052" lon="-2.6139">
        <ele>526.6</ele>
        <time>2021-05-29 06:38:50</time>
      </trkpt>
      <trkpt lat="42.86046" lon="-2.61383">
        <ele>526.6</ele>
        <time>2021-05-29 06:38:51</time>
      </trkpt>
      <trkpt lat="42.8604" lon="-2.61376">
        <ele>526.6</ele>
        <time>2021-05-29 06:38:52</time>
      </trkpt>
      <trkpt lat="42.86035" lon="-2.61369">
        <ele>526.6</ele>
        <time>2021-05-29 06:38:53</time>
      </trkpt>
      <trkpt lat="42.86029" lon="-2.61362">
        <ele>526.8</ele>
        <time>2021-05-29 06:38:54</time>
      </trkpt>
      <trkpt lat="42.86024" lon="-2.61354">
        <ele>526.8</ele>
        <time>2021-05-29 06:38:55</time>
      </trkpt>
      <trkpt lat="42.86018" lon="-2.61346">
        <ele>526.8</ele>
        <time>2021-05-29 06:38:56</time>
      </trkpt>
      <trkpt lat="42.86013" lon="-2.61339">
        <ele>526.8</ele>
        <time>2021-05-29 06:38:57</time>
      </trkpt>
      <trkpt lat="42.86007" lon="-2.61331">
        <ele>527</ele>
        <time>2021-05-29 06:38:58</time>
      </trkpt>
      <trkpt lat="42.86002" lon="-2.61323">
        <ele>527</ele>
        <time>2021-05-29 06:38:59</time>
      </trkpt>
      <trkpt lat="42.85997" lon="-2.61315">
        <ele>527</ele>
        <time>2021-05-29 06:39:00</time>
      </trkpt>
      <trkpt lat="42.85991" lon="-2.61307">
        <ele>527</ele>
        <time>2021-05-29 06:39:01</time>
      </trkpt>
      <trkpt lat="42.85986" lon="-2.61299">
        <ele>527</ele>
        <time>2021-05-29 06:39:02</time>
      </trkpt>
      <trkpt lat="42.8598" lon="-2.61292">
        <ele>527.2</ele>
        <time>2021-05-29 06:39:03</time>
      </trkpt>
      <trkpt lat="42.85974" lon="-2.61284">
        <ele>527.2</ele>
        <time>2021-05-29 06:39:04</time>
      </trkpt>
      <trkpt lat="42.85968" lon="-2.61277">
        <ele>527.2</ele>
        <time>2021-05-29 06:39:05</time>
      </trkpt>
      <trkpt lat="42.85962" lon="-2.61269">
        <ele>527.2</ele>
        <time>2021-05-29 06:39:06</time>
      </trkpt>
      <trkpt lat="42.85955" lon="-2.61262">
        <ele>527.2</ele>
        <time>2021-05-29 06:39:07</time>
      </trkpt>
      <trkpt lat="42.85949" lon="-2.61255">
        <ele>527.2</ele>
        <time>2021-05-29 06:39:08</time>
      </trkpt>
      <trkpt lat="42.85942" lon="-2.61249">
        <ele>527.2</ele>
        <time>2021-05-29 06:39:09</time>
      </trkpt>
      <trkpt lat="42.85936" lon="-2.61242">
        <ele>527.4</ele>
        <time>2021-05-29 06:39:10</time>
      </trkpt>
      <trkpt lat="42.85929" lon="-2.61236">
        <ele>527.4</ele>
        <time>2021-05-29 06:39:11</time>
      </trkpt>
      <trkpt lat="42.85922" lon="-2.6123">
        <ele>527.4</ele>
        <time>2021-05-29 06:39:12</time>
      </trkpt>
      <trkpt lat="42.85916" lon="-2.61224">
        <ele>527.4</ele>
        <time>2021-05-29 06:39:13</time>
      </trkpt>
      <trkpt lat="42.85909" lon="-2.61219">
        <ele>527.4</ele>
        <time>2021-05-29 06:39:14</time>
      </trkpt>
      <trkpt lat="42.85901" lon="-2.61214">
        <ele>527.4</ele>
        <time>2021-05-29 06:39:15</time>
      </trkpt>
      <trkpt lat="42.85894" lon="-2.61209">
        <ele>527.6</ele>
        <time>2021-05-29 06:39:16</time>
      </trkpt>
      <trkpt lat="42.85886" lon="-2.61205">
        <ele>527.6</ele>
        <time>2021-05-29 06:39:17</time>
      </trkpt>
      <trkpt lat="42.85878" lon="-2.61201">
        <ele>527.6</ele>
        <time>2021-05-29 06:39:18</time>
      </trkpt>
      <trkpt lat="42.8587" lon="-2.61198">
        <ele>527.6</ele>
        <time>2021-05-29 06:39:19</time>
      </trkpt>
      <trkpt lat="42.85863" lon="-2.61196">
        <ele>527.6</ele>
        <time>2021-05-29 06:39:20</time>
      </trkpt>
      <trkpt lat="42.85855" lon="-2.61194">
        <ele>527.8</ele>
        <time>2021-05-29 06:39:21</time>
      </trkpt>
      <trkpt lat="42.85848" lon="-2.61192">
        <ele>527.8</ele>
        <time>2021-05-29 06:39:22</time>
      </trkpt>
      <trkpt lat="42.85841" lon="-2.6119">
        <ele>528</ele>
        <time>2021-05-29 06:39:23</time>
      </trkpt>
      <trkpt lat="42.85834" lon="-2.61189">
        <ele>528</ele>
        <time>2021-05-29 06:39:24</time>
      </trkpt>
      <trkpt lat="42.85828" lon="-2.61189">
        <ele>528</ele>
        <time>2021-05-29 06:39:25</time>
      </trkpt>
      <trkpt lat="42.85823" lon="-2.61188">
        <ele>528</ele>
        <time>2021-05-29 06:39:26</time>
      </trkpt>
      <trkpt lat="42.85818" lon="-2.61187">
        <ele>528</ele>
        <time>2021-05-29 06:39:27</time>
      </trkpt>
      <trkpt lat="42.85813" lon="-2.61186">
        <ele>528</ele>
        <time>2021-05-29 06:39:28</time>
      </trkpt>
      <trkpt lat="42.85808" lon="-2.61184">
        <ele>528</ele>
        <time>2021-05-29 06:39:29</time>
      </trkpt>
      <trkpt lat="42.85804" lon="-2.61181">
        <ele>528.4</ele>
        <time>2021-05-29 06:39:30</time>
      </trkpt>
      <trkpt lat="42.858" lon="-2.61177">
        <ele>528.4</ele>
        <time>2021-05-29 06:39:31</time>
      </trkpt>
      <trkpt lat="42.85797" lon="-2.61171">
        <ele>528.2</ele>
        <time>2021-05-29 06:39:32</time>
      </trkpt>
      <trkpt lat="42.85795" lon="-2.61164">
        <ele>528.2</ele>
        <time>2021-05-29 06:39:33</time>
      </trkpt>
      <trkpt lat="42.85794" lon="-2.61156">
        <ele>528.4</ele>
        <time>2021-05-29 06:39:34</time>
      </trkpt>
      <trkpt lat="42.85793" lon="-2.61147">
        <ele>528.4</ele>
        <time>2021-05-29 06:39:35</time>
      </trkpt>
      <trkpt lat="42.85793" lon="-2.61138">
        <ele>528.4</ele>
        <time>2021-05-29 06:39:36</time>
      </trkpt>
      <trkpt lat="42.85794" lon="-2.61129">
        <ele>528.4</ele>
        <time>2021-05-29 06:39:37</time>
      </trkpt>
      <trkpt lat="42.85796" lon="-2.6112">
        <ele>528.4</ele>
        <time>2021-05-29 06:39:38</time>
      </trkpt>
      <trkpt lat="42.85797" lon="-2.6111">
        <ele>528.4</ele>
        <time>2021-05-29 06:39:39</time>
      </trkpt>
      <trkpt lat="42.85799" lon="-2.61101">
        <ele>528.4</ele>
        <time>2021-05-29 06:39:40</time>
      </trkpt>
      <trkpt lat="42.85801" lon="-2.61091">
        <ele>528.4</ele>
        <time>2021-05-29 06:39:41</time>
      </trkpt>
      <trkpt lat="42.85803" lon="-2.61082">
        <ele>528.4</ele>
        <time>2021-05-29 06:39:42</time>
      </trkpt>
      <trkpt lat="42.85804" lon="-2.61073">
        <ele>528.4</ele>
        <time>2021-05-29 06:39:43</time>
      </trkpt>
      <trkpt lat="42.85806" lon="-2.61064">
        <ele>528.4</ele>
        <time>2021-05-29 06:39:44</time>
      </trkpt>
      <trkpt lat="42.85807" lon="-2.61056">
        <ele>528.4</ele>
        <time>2021-05-29 06:39:45</time>
      </trkpt>
      <trkpt lat="42.85809" lon="-2.61046">
        <ele>528.4</ele>
        <time>2021-05-29 06:39:46</time>
      </trkpt>
      <trkpt lat="42.8581" lon="-2.61037">
        <ele>528.4</ele>
        <time>2021-05-29 06:39:47</time>
      </trkpt>
      <trkpt lat="42.85812" lon="-2.61028">
        <ele>528.4</ele>
        <time>2021-05-29 06:39:48</time>
      </trkpt>
      <trkpt lat="42.85813" lon="-2.61019">
        <ele>528.6</ele>
        <time>2021-05-29 06:39:49</time>
      </trkpt>
      <trkpt lat="42.85815" lon="-2.61011">
        <ele>528.6</ele>
        <time>2021-05-29 06:39:50</time>
      </trkpt>
      <trkpt lat="42.85817" lon="-2.61002">
        <ele>528.6</ele>
        <time>2021-05-29 06:39:51</time>
      </trkpt>
      <trkpt lat="42.85818" lon="-2.60993">
        <ele>528.6</ele>
        <time>2021-05-29 06:39:52</time>
      </trkpt>
      <trkpt lat="42.8582" lon="-2.60984">
        <ele>528.6</ele>
        <time>2021-05-29 06:39:53</time>
      </trkpt>
      <trkpt lat="42.85821" lon="-2.60975">
        <ele>528.6</ele>
        <time>2021-05-29 06:39:54</time>
      </trkpt>
      <trkpt lat="42.85823" lon="-2.60966">
        <ele>528.6</ele>
        <time>2021-05-29 06:39:55</time>
      </trkpt>
      <trkpt lat="42.85824" lon="-2.60957">
        <ele>528.6</ele>
        <time>2021-05-29 06:39:56</time>
      </trkpt>
      <trkpt lat="42.85826" lon="-2.60948">
        <ele>528.6</ele>
        <time>2021-05-29 06:39:57</time>
      </trkpt>
      <trkpt lat="42.85827" lon="-2.60939">
        <ele>528.6</ele>
        <time>2021-05-29 06:39:58</time>
      </trkpt>
      <trkpt lat="42.85829" lon="-2.6093">
        <ele>528.8</ele>
        <time>2021-05-29 06:39:59</time>
      </trkpt>
      <trkpt lat="42.8583" lon="-2.6092">
        <ele>528.8</ele>
        <time>2021-05-29 06:40:00</time>
      </trkpt>
      <trkpt lat="42.85832" lon="-2.60911">
        <ele>528.8</ele>
        <time>2021-05-29 06:40:01</time>
      </trkpt>
      <trkpt lat="42.85833" lon="-2.60902">
        <ele>528.8</ele>
        <time>2021-05-29 06:40:02</time>
      </trkpt>
      <trkpt lat="42.85835" lon="-2.60893">
        <ele>529</ele>
        <time>2021-05-29 06:40:03</time>
      </trkpt>
      <trkpt lat="42.85836" lon="-2.60884">
        <ele>529</ele>
        <time>2021-05-29 06:40:04</time>
      </trkpt>
      <trkpt lat="42.85838" lon="-2.60875">
        <ele>529</ele>
        <time>2021-05-29 06:40:05</time>
      </trkpt>
      <trkpt lat="42.8584" lon="-2.60865">
        <ele>529</ele>
        <time>2021-05-29 06:40:06</time>
      </trkpt>
      <trkpt lat="42.85841" lon="-2.60856">
        <ele>529</ele>
        <time>2021-05-29 06:40:07</time>
      </trkpt>
      <trkpt lat="42.85843" lon="-2.60847">
        <ele>529</ele>
        <time>2021-05-29 06:40:08</time>
      </trkpt>
      <trkpt lat="42.85845" lon="-2.60838">
        <ele>529</ele>
        <time>2021-05-29 06:40:09</time>
      </trkpt>
      <trkpt lat="42.85846" lon="-2.60829">
        <ele>529</ele>
        <time>2021-05-29 06:40:10</time>
      </trkpt>
      <trkpt lat="42.85848" lon="-2.60819">
        <ele>529</ele>
        <time>2021-05-29 06:40:11</time>
      </trkpt>
      <trkpt lat="42.85849" lon="-2.6081">
        <ele>529</ele>
        <time>2021-05-29 06:40:12</time>
      </trkpt>
      <trkpt lat="42.85851" lon="-2.60801">
        <ele>529</ele>
        <time>2021-05-29 06:40:13</time>
      </trkpt>
      <trkpt lat="42.85853" lon="-2.60791">
        <ele>529</ele>
        <time>2021-05-29 06:40:14</time>
      </trkpt>
      <trkpt lat="42.85854" lon="-2.60782">
        <ele>529.2</ele>
        <time>2021-05-29 06:40:15</time>
      </trkpt>
      <trkpt lat="42.85856" lon="-2.60772">
        <ele>529.2</ele>
        <time>2021-05-29 06:40:16</time>
      </trkpt>
      <trkpt lat="42.85858" lon="-2.60762">
        <ele>529.2</ele>
        <time>2021-05-29 06:40:17</time>
      </trkpt>
      <trkpt lat="42.8586" lon="-2.60753">
        <ele>529.4</ele>
        <time>2021-05-29 06:40:18</time>
      </trkpt>
      <trkpt lat="42.85862" lon="-2.60743">
        <ele>529.4</ele>
        <time>2021-05-29 06:40:19</time>
      </trkpt>
      <trkpt lat="42.85864" lon="-2.60733">
        <ele>529.4</ele>
        <time>2021-05-29 06:40:20</time>
      </trkpt>
      <trkpt lat="42.85865" lon="-2.60723">
        <ele>529.4</ele>
        <time>2021-05-29 06:40:21</time>
      </trkpt>
      <trkpt lat="42.85867" lon="-2.60714">
        <ele>529.4</ele>
        <time>2021-05-29 06:40:22</time>
      </trkpt>
      <trkpt lat="42.85869" lon="-2.60704">
        <ele>529.4</ele>
        <time>2021-05-29 06:40:23</time>
      </trkpt>
      <trkpt lat="42.85871" lon="-2.60694">
        <ele>529.4</ele>
        <time>2021-05-29 06:40:24</time>
      </trkpt>
      <trkpt lat="42.85873" lon="-2.60684">
        <ele>529.4</ele>
        <time>2021-05-29 06:40:25</time>
      </trkpt>
      <trkpt lat="42.85875" lon="-2.60674">
        <ele>529.4</ele>
        <time>2021-05-29 06:40:26</time>
      </trkpt>
      <trkpt lat="42.85877" lon="-2.60664">
        <ele>529.4</ele>
        <time>2021-05-29 06:40:27</time>
      </trkpt>
      <trkpt lat="42.85879" lon="-2.60654">
        <ele>529.6</ele>
        <time>2021-05-29 06:40:28</time>
      </trkpt>
      <trkpt lat="42.8588" lon="-2.60645">
        <ele>529.6</ele>
        <time>2021-05-29 06:40:29</time>
      </trkpt>
      <trkpt lat="42.85882" lon="-2.60635">
        <ele>529.6</ele>
        <time>2021-05-29 06:40:30</time>
      </trkpt>
      <trkpt lat="42.85884" lon="-2.60625">
        <ele>529.6</ele>
        <time>2021-05-29 06:40:31</time>
      </trkpt>
      <trkpt lat="42.85886" lon="-2.60615">
        <ele>529.6</ele>
        <time>2021-05-29 06:40:32</time>
      </trkpt>
      <trkpt lat="42.85888" lon="-2.60606">
        <ele>529.6</ele>
        <time>2021-05-29 06:40:33</time>
      </trkpt>
      <trkpt lat="42.8589" lon="-2.60596">
        <ele>529.6</ele>
        <time>2021-05-29 06:40:34</time>
      </trkpt>
      <trkpt lat="42.85891" lon="-2.60587">
        <ele>529.8</ele>
        <time>2021-05-29 06:40:35</time>
      </trkpt>
      <trkpt lat="42.85893" lon="-2.60577">
        <ele>529.8</ele>
        <time>2021-05-29 06:40:36</time>
      </trkpt>
      <trkpt lat="42.85895" lon="-2.60568">
        <ele>529.8</ele>
        <time>2021-05-29 06:40:37</time>
      </trkpt>
      <trkpt lat="42.85897" lon="-2.60559">
        <ele>529.8</ele>
        <time>2021-05-29 06:40:38</time>
      </trkpt>
      <trkpt lat="42.85899" lon="-2.60549">
        <ele>529.8</ele>
        <time>2021-05-29 06:40:39</time>
      </trkpt>
      <trkpt lat="42.859" lon="-2.6054">
        <ele>530</ele>
        <time>2021-05-29 06:40:40</time>
      </trkpt>
      <trkpt lat="42.85902" lon="-2.6053">
        <ele>530</ele>
        <time>2021-05-29 06:40:41</time>
      </trkpt>
      <trkpt lat="42.85903" lon="-2.60521">
        <ele>530</ele>
        <time>2021-05-29 06:40:42</time>
      </trkpt>
      <trkpt lat="42.85905" lon="-2.60511">
        <ele>530</ele>
        <time>2021-05-29 06:40:43</time>
      </trkpt>
      <trkpt lat="42.85907" lon="-2.60502">
        <ele>530</ele>
        <time>2021-05-29 06:40:44</time>
      </trkpt>
      <trkpt lat="42.85908" lon="-2.60492">
        <ele>530</ele>
        <time>2021-05-29 06:40:45</time>
      </trkpt>
      <trkpt lat="42.8591" lon="-2.60483">
        <ele>530</ele>
        <time>2021-05-29 06:40:46</time>
      </trkpt>
      <trkpt lat="42.85912" lon="-2.60473">
        <ele>530</ele>
        <time>2021-05-29 06:40:47</time>
      </trkpt>
      <trkpt lat="42.85913" lon="-2.60463">
        <ele>530.4</ele>
        <time>2021-05-29 06:40:48</time>
      </trkpt>
      <trkpt lat="42.85915" lon="-2.60453">
        <ele>530.4</ele>
        <time>2021-05-29 06:40:49</time>
      </trkpt>
      <trkpt lat="42.85917" lon="-2.60443">
        <ele>530.4</ele>
        <time>2021-05-29 06:40:50</time>
      </trkpt>
      <trkpt lat="42.85918" lon="-2.60434">
        <ele>530.4</ele>
        <time>2021-05-29 06:40:51</time>
      </trkpt>
      <trkpt lat="42.8592" lon="-2.60424">
        <ele>530.4</ele>
        <time>2021-05-29 06:40:52</time>
      </trkpt>
      <trkpt lat="42.85921" lon="-2.60414">
        <ele>530.4</ele>
        <time>2021-05-29 06:40:53</time>
      </trkpt>
      <trkpt lat="42.85923" lon="-2.60404">
        <ele>530.6</ele>
        <time>2021-05-29 06:40:54</time>
      </trkpt>
      <trkpt lat="42.85924" lon="-2.60394">
        <ele>530.6</ele>
        <time>2021-05-29 06:40:55</time>
      </trkpt>
      <trkpt lat="42.85924" lon="-2.60384">
        <ele>530.6</ele>
        <time>2021-05-29 06:40:56</time>
      </trkpt>
      <trkpt lat="42.85925" lon="-2.60374">
        <ele>530.6</ele>
        <time>2021-05-29 06:40:57</time>
      </trkpt>
      <trkpt lat="42.85926" lon="-2.60364">
        <ele>530.6</ele>
        <time>2021-05-29 06:40:58</time>
      </trkpt>
      <trkpt lat="42.85926" lon="-2.60355">
        <ele>530.6</ele>
        <time>2021-05-29 06:40:59</time>
      </trkpt>
      <trkpt lat="42.85927" lon="-2.60345">
        <ele>530.6</ele>
        <time>2021-05-29 06:41:00</time>
      </trkpt>
      <trkpt lat="42.85927" lon="-2.60336">
        <ele>530.6</ele>
        <time>2021-05-29 06:41:01</time>
      </trkpt>
      <trkpt lat="42.85928" lon="-2.60326">
        <ele>530.6</ele>
        <time>2021-05-29 06:41:02</time>
      </trkpt>
      <trkpt lat="42.85928" lon="-2.60317">
        <ele>530.8</ele>
        <time>2021-05-29 06:41:03</time>
      </trkpt>
      <trkpt lat="42.85929" lon="-2.60308">
        <ele>530.8</ele>
        <time>2021-05-29 06:41:04</time>
      </trkpt>
      <trkpt lat="42.85929" lon="-2.60298">
        <ele>530.8</ele>
        <time>2021-05-29 06:41:05</time>
      </trkpt>
      <trkpt lat="42.8593" lon="-2.60289">
        <ele>530.8</ele>
        <time>2021-05-29 06:41:06</time>
      </trkpt>
      <trkpt lat="42.8593" lon="-2.6028">
        <ele>530.8</ele>
        <time>2021-05-29 06:41:07</time>
      </trkpt>
      <trkpt lat="42.8593" lon="-2.6027">
        <ele>530.8</ele>
        <time>2021-05-29 06:41:08</time>
      </trkpt>
      <trkpt lat="42.85931" lon="-2.6026">
        <ele>530.8</ele>
        <time>2021-05-29 06:41:09</time>
      </trkpt>
      <trkpt lat="42.85931" lon="-2.60251">
        <ele>530.8</ele>
        <time>2021-05-29 06:41:10</time>
      </trkpt>
      <trkpt lat="42.85932" lon="-2.60241">
        <ele>531</ele>
        <time>2021-05-29 06:41:11</time>
      </trkpt>
      <trkpt lat="42.85932" lon="-2.60231">
        <ele>531</ele>
        <time>2021-05-29 06:41:12</time>
      </trkpt>
      <trkpt lat="42.85932" lon="-2.60222">
        <ele>531</ele>
        <time>2021-05-29 06:41:13</time>
      </trkpt>
      <trkpt lat="42.85933" lon="-2.60212">
        <ele>531</ele>
        <time>2021-05-29 06:41:14</time>
      </trkpt>
      <trkpt lat="42.85933" lon="-2.60202">
        <ele>531</ele>
        <time>2021-05-29 06:41:15</time>
      </trkpt>
      <trkpt lat="42.85933" lon="-2.60191">
        <ele>531</ele>
        <time>2021-05-29 06:41:16</time>
      </trkpt>
      <trkpt lat="42.85934" lon="-2.60181">
        <ele>531</ele>
        <time>2021-05-29 06:41:17</time>
      </trkpt>
      <trkpt lat="42.85934" lon="-2.60171">
        <ele>531</ele>
        <time>2021-05-29 06:41:18</time>
      </trkpt>
      <trkpt lat="42.85934" lon="-2.60161">
        <ele>531</ele>
        <time>2021-05-29 06:41:19</time>
      </trkpt>
      <trkpt lat="42.85935" lon="-2.60151">
        <ele>531</ele>
        <time>2021-05-29 06:41:20</time>
      </trkpt>
      <trkpt lat="42.85935" lon="-2.6014">
        <ele>531</ele>
        <time>2021-05-29 06:41:21</time>
      </trkpt>
      <trkpt lat="42.85935" lon="-2.6013">
        <ele>531</ele>
        <time>2021-05-29 06:41:22</time>
      </trkpt>
      <trkpt lat="42.85935" lon="-2.6012">
        <ele>531.2</ele>
        <time>2021-05-29 06:41:23</time>
      </trkpt>
      <trkpt lat="42.85935" lon="-2.60109">
        <ele>531</ele>
        <time>2021-05-29 06:41:24</time>
      </trkpt>
      <trkpt lat="42.85936" lon="-2.60099">
        <ele>530.6</ele>
        <time>2021-05-29 06:41:25</time>
      </trkpt>
      <trkpt lat="42.85936" lon="-2.60088">
        <ele>530.2</ele>
        <time>2021-05-29 06:41:26</time>
      </trkpt>
      <trkpt lat="42.85936" lon="-2.60078">
        <ele>529.8</ele>
        <time>2021-05-29 06:41:27</time>
      </trkpt>
      <trkpt lat="42.85937" lon="-2.60068">
        <ele>529</ele>
        <time>2021-05-29 06:41:28</time>
      </trkpt>
      <trkpt lat="42.85937" lon="-2.60058">
        <ele>528</ele>
        <time>2021-05-29 06:41:29</time>
      </trkpt>
      <trkpt lat="42.85937" lon="-2.60048">
        <ele>526.6</ele>
        <time>2021-05-29 06:41:30</time>
      </trkpt>
      <trkpt lat="42.85937" lon="-2.60038">
        <ele>525.2</ele>
        <time>2021-05-29 06:41:31</time>
      </trkpt>
      <trkpt lat="42.85937" lon="-2.60028">
        <ele>524.4</ele>
        <time>2021-05-29 06:41:32</time>
      </trkpt>
      <trkpt lat="42.85937" lon="-2.60018">
        <ele>523.6</ele>
        <time>2021-05-29 06:41:33</time>
      </trkpt>
      <trkpt lat="42.85937" lon="-2.60007">
        <ele>522.6</ele>
        <time>2021-05-29 06:41:34</time>
      </trkpt>
      <trkpt lat="42.85937" lon="-2.59997">
        <ele>521.8</ele>
        <time>2021-05-29 06:41:35</time>
      </trkpt>
      <trkpt lat="42.85937" lon="-2.59987">
        <ele>521.2</ele>
        <time>2021-05-29 06:41:36</time>
      </trkpt>
      <trkpt lat="42.85938" lon="-2.59976">
        <ele>520.6</ele>
        <time>2021-05-29 06:41:37</time>
      </trkpt>
      <trkpt lat="42.85938" lon="-2.59966">
        <ele>520.2</ele>
        <time>2021-05-29 06:41:38</time>
      </trkpt>
      <trkpt lat="42.85938" lon="-2.59956">
        <ele>519.8</ele>
        <time>2021-05-29 06:41:39</time>
      </trkpt>
      <trkpt lat="42.85938" lon="-2.59945">
        <ele>519.4</ele>
        <time>2021-05-29 06:41:40</time>
      </trkpt>
      <trkpt lat="42.85939" lon="-2.59934">
        <ele>519.2</ele>
        <time>2021-05-29 06:41:41</time>
      </trkpt>
      <trkpt lat="42.85939" lon="-2.59923">
        <ele>518.8</ele>
        <time>2021-05-29 06:41:42</time>
      </trkpt>
      <trkpt lat="42.85939" lon="-2.59913">
        <ele>518.4</ele>
        <time>2021-05-29 06:41:43</time>
      </trkpt>
      <trkpt lat="42.85939" lon="-2.59902">
        <ele>518</ele>
        <time>2021-05-29 06:41:44</time>
      </trkpt>
      <trkpt lat="42.85939" lon="-2.5989">
        <ele>518</ele>
        <time>2021-05-29 06:41:45</time>
      </trkpt>
      <trkpt lat="42.85939" lon="-2.59879">
        <ele>517.8</ele>
        <time>2021-05-29 06:41:46</time>
      </trkpt>
      <trkpt lat="42.8594" lon="-2.59868">
        <ele>517.8</ele>
        <time>2021-05-29 06:41:47</time>
      </trkpt>
      <trkpt lat="42.8594" lon="-2.59857">
        <ele>517.6</ele>
        <time>2021-05-29 06:41:48</time>
      </trkpt>
      <trkpt lat="42.8594" lon="-2.59846">
        <ele>517.6</ele>
        <time>2021-05-29 06:41:49</time>
      </trkpt>
      <trkpt lat="42.8594" lon="-2.59834">
        <ele>517.4</ele>
        <time>2021-05-29 06:41:50</time>
      </trkpt>
      <trkpt lat="42.8594" lon="-2.59823">
        <ele>517.4</ele>
        <time>2021-05-29 06:41:51</time>
      </trkpt>
      <trkpt lat="42.8594" lon="-2.59812">
        <ele>517.2</ele>
        <time>2021-05-29 06:41:52</time>
      </trkpt>
      <trkpt lat="42.85941" lon="-2.598">
        <ele>517.2</ele>
        <time>2021-05-29 06:41:53</time>
      </trkpt>
      <trkpt lat="42.85941" lon="-2.59789">
        <ele>517.2</ele>
        <time>2021-05-29 06:41:54</time>
      </trkpt>
      <trkpt lat="42.85942" lon="-2.59777">
        <ele>517.2</ele>
        <time>2021-05-29 06:41:55</time>
      </trkpt>
      <trkpt lat="42.85942" lon="-2.59766">
        <ele>517.2</ele>
        <time>2021-05-29 06:41:56</time>
      </trkpt>
      <trkpt lat="42.85943" lon="-2.59754">
        <ele>517.2</ele>
        <time>2021-05-29 06:41:57</time>
      </trkpt>
      <trkpt lat="42.85944" lon="-2.59742">
        <ele>517.2</ele>
        <time>2021-05-29 06:41:58</time>
      </trkpt>
      <trkpt lat="42.85946" lon="-2.5973">
        <ele>517</ele>
        <time>2021-05-29 06:41:59</time>
      </trkpt>
      <trkpt lat="42.85947" lon="-2.59719">
        <ele>517</ele>
        <time>2021-05-29 06:42:00</time>
      </trkpt>
      <trkpt lat="42.85948" lon="-2.59707">
        <ele>517</ele>
        <time>2021-05-29 06:42:01</time>
      </trkpt>
      <trkpt lat="42.8595" lon="-2.59695">
        <ele>517</ele>
        <time>2021-05-29 06:42:02</time>
      </trkpt>
      <trkpt lat="42.85951" lon="-2.59683">
        <ele>517</ele>
        <time>2021-05-29 06:42:03</time>
      </trkpt>
      <trkpt lat="42.85953" lon="-2.59671">
        <ele>517</ele>
        <time>2021-05-29 06:42:04</time>
      </trkpt>
      <trkpt lat="42.85954" lon="-2.59659">
        <ele>517</ele>
        <time>2021-05-29 06:42:05</time>
      </trkpt>
      <trkpt lat="42.85956" lon="-2.59647">
        <ele>517</ele>
        <time>2021-05-29 06:42:06</time>
      </trkpt>
      <trkpt lat="42.85957" lon="-2.59635">
        <ele>517</ele>
        <time>2021-05-29 06:42:07</time>
      </trkpt>
      <trkpt lat="42.85959" lon="-2.59623">
        <ele>517</ele>
        <time>2021-05-29 06:42:08</time>
      </trkpt>
      <trkpt lat="42.8596" lon="-2.59611">
        <ele>517</ele>
        <time>2021-05-29 06:42:09</time>
      </trkpt>
      <trkpt lat="42.8596" lon="-2.59598">
        <ele>517</ele>
        <time>2021-05-29 06:42:10</time>
      </trkpt>
      <trkpt lat="42.85961" lon="-2.59586">
        <ele>517.2</ele>
        <time>2021-05-29 06:42:11</time>
      </trkpt>
      <trkpt lat="42.85961" lon="-2.59574">
        <ele>517.2</ele>
        <time>2021-05-29 06:42:12</time>
      </trkpt>
      <trkpt lat="42.85961" lon="-2.59561">
        <ele>517.2</ele>
        <time>2021-05-29 06:42:13</time>
      </trkpt>
      <trkpt lat="42.85961" lon="-2.59549">
        <ele>517.2</ele>
        <time>2021-05-29 06:42:14</time>
      </trkpt>
      <trkpt lat="42.85961" lon="-2.59536">
        <ele>517.2</ele>
        <time>2021-05-29 06:42:15</time>
      </trkpt>
      <trkpt lat="42.85961" lon="-2.59524">
        <ele>517.2</ele>
        <time>2021-05-29 06:42:16</time>
      </trkpt>
      <trkpt lat="42.85961" lon="-2.59511">
        <ele>517.2</ele>
        <time>2021-05-29 06:42:17</time>
      </trkpt>
      <trkpt lat="42.85961" lon="-2.59498">
        <ele>517.2</ele>
        <time>2021-05-29 06:42:18</time>
      </trkpt>
      <trkpt lat="42.85961" lon="-2.59485">
        <ele>517.2</ele>
        <time>2021-05-29 06:42:19</time>
      </trkpt>
      <trkpt lat="42.85961" lon="-2.59472">
        <ele>517.2</ele>
        <time>2021-05-29 06:42:20</time>
      </trkpt>
      <trkpt lat="42.85961" lon="-2.5946">
        <ele>517.2</ele>
        <time>2021-05-29 06:42:21</time>
      </trkpt>
      <trkpt lat="42.85961" lon="-2.59447">
        <ele>517.2</ele>
        <time>2021-05-29 06:42:22</time>
      </trkpt>
      <trkpt lat="42.85961" lon="-2.59435">
        <ele>517.4</ele>
        <time>2021-05-29 06:42:23</time>
      </trkpt>
      <trkpt lat="42.85961" lon="-2.59422">
        <ele>517.4</ele>
        <time>2021-05-29 06:42:24</time>
      </trkpt>
      <trkpt lat="42.85961" lon="-2.5941">
        <ele>517.4</ele>
        <time>2021-05-29 06:42:25</time>
      </trkpt>
      <trkpt lat="42.85961" lon="-2.59398">
        <ele>517.4</ele>
        <time>2021-05-29 06:42:26</time>
      </trkpt>
      <trkpt lat="42.85961" lon="-2.59385">
        <ele>517.4</ele>
        <time>2021-05-29 06:42:27</time>
      </trkpt>
      <trkpt lat="42.85961" lon="-2.59373">
        <ele>517.4</ele>
        <time>2021-05-29 06:42:28</time>
      </trkpt>
      <trkpt lat="42.85961" lon="-2.59361">
        <ele>517.4</ele>
        <time>2021-05-29 06:42:29</time>
      </trkpt>
      <trkpt lat="42.85961" lon="-2.59349">
        <ele>517.4</ele>
        <time>2021-05-29 06:42:30</time>
      </trkpt>
      <trkpt lat="42.85961" lon="-2.59337">
        <ele>517.4</ele>
        <time>2021-05-29 06:42:31</time>
      </trkpt>
      <trkpt lat="42.85961" lon="-2.59325">
        <ele>517.6</ele>
        <time>2021-05-29 06:42:32</time>
      </trkpt>
      <trkpt lat="42.85961" lon="-2.59313">
        <ele>517.6</ele>
        <time>2021-05-29 06:42:33</time>
      </trkpt>
      <trkpt lat="42.85962" lon="-2.59301">
        <ele>517.6</ele>
        <time>2021-05-29 06:42:34</time>
      </trkpt>
      <trkpt lat="42.85962" lon="-2.59289">
        <ele>517.6</ele>
        <time>2021-05-29 06:42:35</time>
      </trkpt>
      <trkpt lat="42.85962" lon="-2.59278">
        <ele>517.8</ele>
        <time>2021-05-29 06:42:36</time>
      </trkpt>
      <trkpt lat="42.85962" lon="-2.59267">
        <ele>517.8</ele>
        <time>2021-05-29 06:42:37</time>
      </trkpt>
      <trkpt lat="42.85962" lon="-2.59256">
        <ele>517.8</ele>
        <time>2021-05-29 06:42:38</time>
      </trkpt>
      <trkpt lat="42.85962" lon="-2.59245">
        <ele>517.8</ele>
        <time>2021-05-29 06:42:39</time>
      </trkpt>
      <trkpt lat="42.85962" lon="-2.59234">
        <ele>518</ele>
        <time>2021-05-29 06:42:40</time>
      </trkpt>
      <trkpt lat="42.85963" lon="-2.59223">
        <ele>518</ele>
        <time>2021-05-29 06:42:41</time>
      </trkpt>
      <trkpt lat="42.85963" lon="-2.59212">
        <ele>518</ele>
        <time>2021-05-29 06:42:42</time>
      </trkpt>
      <trkpt lat="42.85963" lon="-2.59201">
        <ele>518</ele>
        <time>2021-05-29 06:42:43</time>
      </trkpt>
      <trkpt lat="42.85963" lon="-2.59191">
        <ele>518</ele>
        <time>2021-05-29 06:42:44</time>
      </trkpt>
      <trkpt lat="42.85963" lon="-2.59181">
        <ele>518.2</ele>
        <time>2021-05-29 06:42:45</time>
      </trkpt>
      <trkpt lat="42.85963" lon="-2.5917">
        <ele>518.2</ele>
        <time>2021-05-29 06:42:46</time>
      </trkpt>
      <trkpt lat="42.85963" lon="-2.5916">
        <ele>518.2</ele>
        <time>2021-05-29 06:42:47</time>
      </trkpt>
      <trkpt lat="42.85963" lon="-2.5915">
        <ele>518.2</ele>
        <time>2021-05-29 06:42:48</time>
      </trkpt>
      <trkpt lat="42.85963" lon="-2.59139">
        <ele>518.2</ele>
        <time>2021-05-29 06:42:49</time>
      </trkpt>
      <trkpt lat="42.85963" lon="-2.59129">
        <ele>518.2</ele>
        <time>2021-05-29 06:42:50</time>
      </trkpt>
      <trkpt lat="42.85963" lon="-2.59119">
        <ele>518.4</ele>
        <time>2021-05-29 06:42:51</time>
      </trkpt>
      <trkpt lat="42.85963" lon="-2.59108">
        <ele>518.4</ele>
        <time>2021-05-29 06:42:52</time>
      </trkpt>
      <trkpt lat="42.85963" lon="-2.59098">
        <ele>518.4</ele>
        <time>2021-05-29 06:42:53</time>
      </trkpt>
      <trkpt lat="42.85963" lon="-2.59087">
        <ele>518.6</ele>
        <time>2021-05-29 06:42:54</time>
      </trkpt>
      <trkpt lat="42.85964" lon="-2.59076">
        <ele>518.6</ele>
        <time>2021-05-29 06:42:55</time>
      </trkpt>
      <trkpt lat="42.85964" lon="-2.59066">
        <ele>518.6</ele>
        <time>2021-05-29 06:42:56</time>
      </trkpt>
      <trkpt lat="42.85964" lon="-2.59055">
        <ele>518.6</ele>
        <time>2021-05-29 06:42:57</time>
      </trkpt>
      <trkpt lat="42.85964" lon="-2.59045">
        <ele>518.6</ele>
        <time>2021-05-29 06:42:58</time>
      </trkpt>
      <trkpt lat="42.85964" lon="-2.59035">
        <ele>518.6</ele>
        <time>2021-05-29 06:42:59</time>
      </trkpt>
      <trkpt lat="42.85964" lon="-2.59025">
        <ele>518.6</ele>
        <time>2021-05-29 06:43:00</time>
      </trkpt>
      <trkpt lat="42.85964" lon="-2.59014">
        <ele>518.6</ele>
        <time>2021-05-29 06:43:01</time>
      </trkpt>
      <trkpt lat="42.85964" lon="-2.59004">
        <ele>518.6</ele>
        <time>2021-05-29 06:43:02</time>
      </trkpt>
      <trkpt lat="42.85964" lon="-2.58994">
        <ele>518.6</ele>
        <time>2021-05-29 06:43:03</time>
      </trkpt>
      <trkpt lat="42.85964" lon="-2.58984">
        <ele>518.6</ele>
        <time>2021-05-29 06:43:04</time>
      </trkpt>
      <trkpt lat="42.85965" lon="-2.58974">
        <ele>518.6</ele>
        <time>2021-05-29 06:43:05</time>
      </trkpt>
      <trkpt lat="42.85965" lon="-2.58964">
        <ele>518.6</ele>
        <time>2021-05-29 06:43:06</time>
      </trkpt>
      <trkpt lat="42.85965" lon="-2.58954">
        <ele>518.6</ele>
        <time>2021-05-29 06:43:07</time>
      </trkpt>
      <trkpt lat="42.85965" lon="-2.58944">
        <ele>518.6</ele>
        <time>2021-05-29 06:43:08</time>
      </trkpt>
      <trkpt lat="42.85965" lon="-2.58933">
        <ele>518.6</ele>
        <time>2021-05-29 06:43:09</time>
      </trkpt>
      <trkpt lat="42.85965" lon="-2.58923">
        <ele>518.6</ele>
        <time>2021-05-29 06:43:10</time>
      </trkpt>
      <trkpt lat="42.85965" lon="-2.58913">
        <ele>518.6</ele>
        <time>2021-05-29 06:43:11</time>
      </trkpt>
      <trkpt lat="42.85965" lon="-2.58903">
        <ele>518.6</ele>
        <time>2021-05-29 06:43:12</time>
      </trkpt>
      <trkpt lat="42.85965" lon="-2.58893">
        <ele>518.6</ele>
        <time>2021-05-29 06:43:13</time>
      </trkpt>
      <trkpt lat="42.85965" lon="-2.58883">
        <ele>518.6</ele>
        <time>2021-05-29 06:43:14</time>
      </trkpt>
      <trkpt lat="42.85965" lon="-2.58873">
        <ele>518.6</ele>
        <time>2021-05-29 06:43:15</time>
      </trkpt>
      <trkpt lat="42.85966" lon="-2.58863">
        <ele>518.8</ele>
        <time>2021-05-29 06:43:16</time>
      </trkpt>
      <trkpt lat="42.85966" lon="-2.58853">
        <ele>518.8</ele>
        <time>2021-05-29 06:43:17</time>
      </trkpt>
      <trkpt lat="42.85966" lon="-2.58844">
        <ele>518.8</ele>
        <time>2021-05-29 06:43:18</time>
      </trkpt>
      <trkpt lat="42.85967" lon="-2.58834">
        <ele>519</ele>
        <time>2021-05-29 06:43:19</time>
      </trkpt>
      <trkpt lat="42.85968" lon="-2.58824">
        <ele>518.8</ele>
        <time>2021-05-29 06:43:20</time>
      </trkpt>
      <trkpt lat="42.85968" lon="-2.58815">
        <ele>518.8</ele>
        <time>2021-05-29 06:43:21</time>
      </trkpt>
      <trkpt lat="42.85969" lon="-2.58805">
        <ele>518.8</ele>
        <time>2021-05-29 06:43:22</time>
      </trkpt>
      <trkpt lat="42.8597" lon="-2.58795">
        <ele>519</ele>
        <time>2021-05-29 06:43:23</time>
      </trkpt>
      <trkpt lat="42.85972" lon="-2.58785">
        <ele>519</ele>
        <time>2021-05-29 06:43:24</time>
      </trkpt>
      <trkpt lat="42.85973" lon="-2.58775">
        <ele>519</ele>
        <time>2021-05-29 06:43:25</time>
      </trkpt>
      <trkpt lat="42.85974" lon="-2.58765">
        <ele>519</ele>
        <time>2021-05-29 06:43:26</time>
      </trkpt>
      <trkpt lat="42.85975" lon="-2.58755">
        <ele>518.8</ele>
        <time>2021-05-29 06:43:27</time>
      </trkpt>
      <trkpt lat="42.85977" lon="-2.58745">
        <ele>519</ele>
        <time>2021-05-29 06:43:28</time>
      </trkpt>
      <trkpt lat="42.85978" lon="-2.58735">
        <ele>519</ele>
        <time>2021-05-29 06:43:29</time>
      </trkpt>
      <trkpt lat="42.85979" lon="-2.58725">
        <ele>519</ele>
        <time>2021-05-29 06:43:30</time>
      </trkpt>
      <trkpt lat="42.85981" lon="-2.58715">
        <ele>519.2</ele>
        <time>2021-05-29 06:43:31</time>
      </trkpt>
      <trkpt lat="42.85983" lon="-2.58704">
        <ele>519.2</ele>
        <time>2021-05-29 06:43:32</time>
      </trkpt>
      <trkpt lat="42.85984" lon="-2.58694">
        <ele>519.4</ele>
        <time>2021-05-29 06:43:33</time>
      </trkpt>
      <trkpt lat="42.85986" lon="-2.58685">
        <ele>519.4</ele>
        <time>2021-05-29 06:43:34</time>
      </trkpt>
      <trkpt lat="42.85988" lon="-2.58675">
        <ele>519.6</ele>
        <time>2021-05-29 06:43:35</time>
      </trkpt>
      <trkpt lat="42.85989" lon="-2.58665">
        <ele>519.6</ele>
        <time>2021-05-29 06:43:36</time>
      </trkpt>
      <trkpt lat="42.85991" lon="-2.58655">
        <ele>519.6</ele>
        <time>2021-05-29 06:43:37</time>
      </trkpt>
      <trkpt lat="42.85993" lon="-2.58644">
        <ele>519.8</ele>
        <time>2021-05-29 06:43:38</time>
      </trkpt>
      <trkpt lat="42.85995" lon="-2.58634">
        <ele>519.8</ele>
        <time>2021-05-29 06:43:39</time>
      </trkpt>
      <trkpt lat="42.85997" lon="-2.58624">
        <ele>520</ele>
        <time>2021-05-29 06:43:40</time>
      </trkpt>
      <trkpt lat="42.85999" lon="-2.58614">
        <ele>520</ele>
        <time>2021-05-29 06:43:41</time>
      </trkpt>
      <trkpt lat="42.86001" lon="-2.58604">
        <ele>520.2</ele>
        <time>2021-05-29 06:43:42</time>
      </trkpt>
      <trkpt lat="42.86003" lon="-2.58593">
        <ele>520.2</ele>
        <time>2021-05-29 06:43:43</time>
      </trkpt>
      <trkpt lat="42.86005" lon="-2.58583">
        <ele>520.2</ele>
        <time>2021-05-29 06:43:44</time>
      </trkpt>
      <trkpt lat="42.86007" lon="-2.58573">
        <ele>520.2</ele>
        <time>2021-05-29 06:43:45</time>
      </trkpt>
      <trkpt lat="42.8601" lon="-2.58563">
        <ele>520.2</ele>
        <time>2021-05-29 06:43:46</time>
      </trkpt>
      <trkpt lat="42.86012" lon="-2.58552">
        <ele>520.4</ele>
        <time>2021-05-29 06:43:47</time>
      </trkpt>
      <trkpt lat="42.86014" lon="-2.58542">
        <ele>520.4</ele>
        <time>2021-05-29 06:43:48</time>
      </trkpt>
      <trkpt lat="42.86016" lon="-2.58531">
        <ele>520.4</ele>
        <time>2021-05-29 06:43:49</time>
      </trkpt>
      <trkpt lat="42.86018" lon="-2.58521">
        <ele>520.4</ele>
        <time>2021-05-29 06:43:50</time>
      </trkpt>
      <trkpt lat="42.86021" lon="-2.58511">
        <ele>520.6</ele>
        <time>2021-05-29 06:43:51</time>
      </trkpt>
      <trkpt lat="42.86023" lon="-2.585">
        <ele>520.6</ele>
        <time>2021-05-29 06:43:52</time>
      </trkpt>
      <trkpt lat="42.86025" lon="-2.58489">
        <ele>520.6</ele>
        <time>2021-05-29 06:43:53</time>
      </trkpt>
      <trkpt lat="42.86028" lon="-2.58479">
        <ele>520.6</ele>
        <time>2021-05-29 06:43:54</time>
      </trkpt>
      <trkpt lat="42.8603" lon="-2.58469">
        <ele>520.6</ele>
        <time>2021-05-29 06:43:55</time>
      </trkpt>
      <trkpt lat="42.86032" lon="-2.58459">
        <ele>520.8</ele>
        <time>2021-05-29 06:43:56</time>
      </trkpt>
      <trkpt lat="42.86034" lon="-2.58449">
        <ele>520.8</ele>
        <time>2021-05-29 06:43:57</time>
      </trkpt>
      <trkpt lat="42.86037" lon="-2.58438">
        <ele>520.8</ele>
        <time>2021-05-29 06:43:58</time>
      </trkpt>
      <trkpt lat="42.86039" lon="-2.58428">
        <ele>520.8</ele>
        <time>2021-05-29 06:43:59</time>
      </trkpt>
      <trkpt lat="42.86041" lon="-2.58418">
        <ele>520.8</ele>
        <time>2021-05-29 06:44:00</time>
      </trkpt>
      <trkpt lat="42.86043" lon="-2.58407">
        <ele>520.8</ele>
        <time>2021-05-29 06:44:01</time>
      </trkpt>
      <trkpt lat="42.86046" lon="-2.58397">
        <ele>520.8</ele>
        <time>2021-05-29 06:44:02</time>
      </trkpt>
      <trkpt lat="42.86048" lon="-2.58387">
        <ele>520.8</ele>
        <time>2021-05-29 06:44:03</time>
      </trkpt>
      <trkpt lat="42.8605" lon="-2.58376">
        <ele>521</ele>
        <time>2021-05-29 06:44:04</time>
      </trkpt>
      <trkpt lat="42.86052" lon="-2.58366">
        <ele>521</ele>
        <time>2021-05-29 06:44:05</time>
      </trkpt>
      <trkpt lat="42.86055" lon="-2.58355">
        <ele>521</ele>
        <time>2021-05-29 06:44:06</time>
      </trkpt>
      <trkpt lat="42.86057" lon="-2.58345">
        <ele>521</ele>
        <time>2021-05-29 06:44:07</time>
      </trkpt>
      <trkpt lat="42.86059" lon="-2.58334">
        <ele>521</ele>
        <time>2021-05-29 06:44:08</time>
      </trkpt>
      <trkpt lat="42.86062" lon="-2.58324">
        <ele>521</ele>
        <time>2021-05-29 06:44:09</time>
      </trkpt>
      <trkpt lat="42.86064" lon="-2.58313">
        <ele>521</ele>
        <time>2021-05-29 06:44:10</time>
      </trkpt>
      <trkpt lat="42.86066" lon="-2.58303">
        <ele>521</ele>
        <time>2021-05-29 06:44:11</time>
      </trkpt>
      <trkpt lat="42.86068" lon="-2.58293">
        <ele>521</ele>
        <time>2021-05-29 06:44:12</time>
      </trkpt>
      <trkpt lat="42.86071" lon="-2.58283">
        <ele>521.2</ele>
        <time>2021-05-29 06:44:13</time>
      </trkpt>
      <trkpt lat="42.86073" lon="-2.58273">
        <ele>521.2</ele>
        <time>2021-05-29 06:44:14</time>
      </trkpt>
      <trkpt lat="42.86075" lon="-2.58263">
        <ele>521.2</ele>
        <time>2021-05-29 06:44:15</time>
      </trkpt>
      <trkpt lat="42.86077" lon="-2.58253">
        <ele>521.2</ele>
        <time>2021-05-29 06:44:16</time>
      </trkpt>
      <trkpt lat="42.8608" lon="-2.58243">
        <ele>521.2</ele>
        <time>2021-05-29 06:44:17</time>
      </trkpt>
      <trkpt lat="42.86082" lon="-2.58232">
        <ele>521.2</ele>
        <time>2021-05-29 06:44:18</time>
      </trkpt>
      <trkpt lat="42.86084" lon="-2.58222">
        <ele>521.2</ele>
        <time>2021-05-29 06:44:19</time>
      </trkpt>
      <trkpt lat="42.86086" lon="-2.58212">
        <ele>521.4</ele>
        <time>2021-05-29 06:44:20</time>
      </trkpt>
      <trkpt lat="42.86089" lon="-2.58202">
        <ele>521.2</ele>
        <time>2021-05-29 06:44:21</time>
      </trkpt>
      <trkpt lat="42.86091" lon="-2.58192">
        <ele>521.2</ele>
        <time>2021-05-29 06:44:22</time>
      </trkpt>
      <trkpt lat="42.86093" lon="-2.58181">
        <ele>521.4</ele>
        <time>2021-05-29 06:44:23</time>
      </trkpt>
      <trkpt lat="42.86095" lon="-2.58171">
        <ele>521.4</ele>
        <time>2021-05-29 06:44:24</time>
      </trkpt>
      <trkpt lat="42.86097" lon="-2.58161">
        <ele>521.4</ele>
        <time>2021-05-29 06:44:25</time>
      </trkpt>
      <trkpt lat="42.861" lon="-2.58151">
        <ele>521.4</ele>
        <time>2021-05-29 06:44:26</time>
      </trkpt>
      <trkpt lat="42.86102" lon="-2.58141">
        <ele>521.4</ele>
        <time>2021-05-29 06:44:27</time>
      </trkpt>
      <trkpt lat="42.86104" lon="-2.58131">
        <ele>521.4</ele>
        <time>2021-05-29 06:44:28</time>
      </trkpt>
      <trkpt lat="42.86106" lon="-2.58122">
        <ele>521.4</ele>
        <time>2021-05-29 06:44:29</time>
      </trkpt>
      <trkpt lat="42.86108" lon="-2.58112">
        <ele>521.6</ele>
        <time>2021-05-29 06:44:30</time>
      </trkpt>
      <trkpt lat="42.8611" lon="-2.58102">
        <ele>521.6</ele>
        <time>2021-05-29 06:44:31</time>
      </trkpt>
      <trkpt lat="42.86112" lon="-2.58092">
        <ele>521.6</ele>
        <time>2021-05-29 06:44:32</time>
      </trkpt>
      <trkpt lat="42.86114" lon="-2.58082">
        <ele>521.6</ele>
        <time>2021-05-29 06:44:33</time>
      </trkpt>
      <trkpt lat="42.86116" lon="-2.58072">
        <ele>521.8</ele>
        <time>2021-05-29 06:44:34</time>
      </trkpt>
      <trkpt lat="42.86119" lon="-2.58062">
        <ele>521.8</ele>
        <time>2021-05-29 06:44:35</time>
      </trkpt>
      <trkpt lat="42.86121" lon="-2.58052">
        <ele>521.8</ele>
        <time>2021-05-29 06:44:36</time>
      </trkpt>
      <trkpt lat="42.86123" lon="-2.58042">
        <ele>522</ele>
        <time>2021-05-29 06:44:37</time>
      </trkpt>
      <trkpt lat="42.86125" lon="-2.58032">
        <ele>522</ele>
        <time>2021-05-29 06:44:38</time>
      </trkpt>
      <trkpt lat="42.86127" lon="-2.58022">
        <ele>522</ele>
        <time>2021-05-29 06:44:39</time>
      </trkpt>
      <trkpt lat="42.86129" lon="-2.58011">
        <ele>522</ele>
        <time>2021-05-29 06:44:40</time>
      </trkpt>
      <trkpt lat="42.86132" lon="-2.58001">
        <ele>522.2</ele>
        <time>2021-05-29 06:44:41</time>
      </trkpt>
      <trkpt lat="42.86134" lon="-2.5799">
        <ele>522.2</ele>
        <time>2021-05-29 06:44:42</time>
      </trkpt>
      <trkpt lat="42.86136" lon="-2.5798">
        <ele>522.2</ele>
        <time>2021-05-29 06:44:43</time>
      </trkpt>
      <trkpt lat="42.86138" lon="-2.57969">
        <ele>522.4</ele>
        <time>2021-05-29 06:44:44</time>
      </trkpt>
      <trkpt lat="42.86141" lon="-2.57959">
        <ele>522.4</ele>
        <time>2021-05-29 06:44:45</time>
      </trkpt>
      <trkpt lat="42.86143" lon="-2.57948">
        <ele>522.6</ele>
        <time>2021-05-29 06:44:46</time>
      </trkpt>
      <trkpt lat="42.86145" lon="-2.57938">
        <ele>522.6</ele>
        <time>2021-05-29 06:44:47</time>
      </trkpt>
      <trkpt lat="42.86148" lon="-2.57927">
        <ele>522.6</ele>
        <time>2021-05-29 06:44:48</time>
      </trkpt>
      <trkpt lat="42.8615" lon="-2.57917">
        <ele>522.6</ele>
        <time>2021-05-29 06:44:49</time>
      </trkpt>
      <trkpt lat="42.86152" lon="-2.57907">
        <ele>522.8</ele>
        <time>2021-05-29 06:44:50</time>
      </trkpt>
      <trkpt lat="42.86154" lon="-2.57896">
        <ele>522.8</ele>
        <time>2021-05-29 06:44:51</time>
      </trkpt>
      <trkpt lat="42.86157" lon="-2.57886">
        <ele>522.8</ele>
        <time>2021-05-29 06:44:52</time>
      </trkpt>
      <trkpt lat="42.86159" lon="-2.57876">
        <ele>522.8</ele>
        <time>2021-05-29 06:44:53</time>
      </trkpt>
      <trkpt lat="42.86161" lon="-2.57866">
        <ele>522.8</ele>
        <time>2021-05-29 06:44:54</time>
      </trkpt>
      <trkpt lat="42.86163" lon="-2.57856">
        <ele>522.8</ele>
        <time>2021-05-29 06:44:55</time>
      </trkpt>
      <trkpt lat="42.86165" lon="-2.57845">
        <ele>522.8</ele>
        <time>2021-05-29 06:44:56</time>
      </trkpt>
      <trkpt lat="42.86168" lon="-2.57835">
        <ele>522.8</ele>
        <time>2021-05-29 06:44:57</time>
      </trkpt>
      <trkpt lat="42.8617" lon="-2.57825">
        <ele>522.8</ele>
        <time>2021-05-29 06:44:58</time>
      </trkpt>
      <trkpt lat="42.86172" lon="-2.57814">
        <ele>522.8</ele>
        <time>2021-05-29 06:44:59</time>
      </trkpt>
      <trkpt lat="42.86175" lon="-2.57804">
        <ele>522.8</ele>
        <time>2021-05-29 06:45:00</time>
      </trkpt>
      <trkpt lat="42.86177" lon="-2.57793">
        <ele>522.8</ele>
        <time>2021-05-29 06:45:01</time>
      </trkpt>
      <trkpt lat="42.86179" lon="-2.57783">
        <ele>522.6</ele>
        <time>2021-05-29 06:45:02</time>
      </trkpt>
      <trkpt lat="42.86181" lon="-2.57772">
        <ele>522.6</ele>
        <time>2021-05-29 06:45:03</time>
      </trkpt>
      <trkpt lat="42.86184" lon="-2.57762">
        <ele>522.8</ele>
        <time>2021-05-29 06:45:04</time>
      </trkpt>
      <trkpt lat="42.86186" lon="-2.57751">
        <ele>522.8</ele>
        <time>2021-05-29 06:45:05</time>
      </trkpt>
      <trkpt lat="42.86188" lon="-2.57741">
        <ele>522.8</ele>
        <time>2021-05-29 06:45:06</time>
      </trkpt>
      <trkpt lat="42.86191" lon="-2.5773">
        <ele>522.8</ele>
        <time>2021-05-29 06:45:07</time>
      </trkpt>
      <trkpt lat="42.86193" lon="-2.5772">
        <ele>522.8</ele>
        <time>2021-05-29 06:45:08</time>
      </trkpt>
      <trkpt lat="42.86195" lon="-2.57709">
        <ele>522.8</ele>
        <time>2021-05-29 06:45:09</time>
      </trkpt>
      <trkpt lat="42.86197" lon="-2.57698">
        <ele>522.8</ele>
        <time>2021-05-29 06:45:10</time>
      </trkpt>
      <trkpt lat="42.862" lon="-2.57688">
        <ele>522.8</ele>
        <time>2021-05-29 06:45:11</time>
      </trkpt>
      <trkpt lat="42.86202" lon="-2.57677">
        <ele>522.8</ele>
        <time>2021-05-29 06:45:12</time>
      </trkpt>
      <trkpt lat="42.86204" lon="-2.57666">
        <ele>522.8</ele>
        <time>2021-05-29 06:45:13</time>
      </trkpt>
      <trkpt lat="42.86207" lon="-2.57656">
        <ele>522.8</ele>
        <time>2021-05-29 06:45:14</time>
      </trkpt>
      <trkpt lat="42.86209" lon="-2.57645">
        <ele>522.8</ele>
        <time>2021-05-29 06:45:15</time>
      </trkpt>
      <trkpt lat="42.86211" lon="-2.57635">
        <ele>522.8</ele>
        <time>2021-05-29 06:45:16</time>
      </trkpt>
      <trkpt lat="42.86214" lon="-2.57624">
        <ele>522.8</ele>
        <time>2021-05-29 06:45:17</time>
      </trkpt>
      <trkpt lat="42.86216" lon="-2.57614">
        <ele>522.8</ele>
        <time>2021-05-29 06:45:18</time>
      </trkpt>
      <trkpt lat="42.86218" lon="-2.57603">
        <ele>522.8</ele>
        <time>2021-05-29 06:45:19</time>
      </trkpt>
      <trkpt lat="42.86221" lon="-2.57592">
        <ele>522.8</ele>
        <time>2021-05-29 06:45:20</time>
      </trkpt>
      <trkpt lat="42.86223" lon="-2.57582">
        <ele>522.8</ele>
        <time>2021-05-29 06:45:21</time>
      </trkpt>
      <trkpt lat="42.86225" lon="-2.57572">
        <ele>523</ele>
        <time>2021-05-29 06:45:22</time>
      </trkpt>
      <trkpt lat="42.86227" lon="-2.57561">
        <ele>523</ele>
        <time>2021-05-29 06:45:23</time>
      </trkpt>
      <trkpt lat="42.8623" lon="-2.57551">
        <ele>523</ele>
        <time>2021-05-29 06:45:24</time>
      </trkpt>
      <trkpt lat="42.86232" lon="-2.57541">
        <ele>523</ele>
        <time>2021-05-29 06:45:25</time>
      </trkpt>
      <trkpt lat="42.86234" lon="-2.57531">
        <ele>523</ele>
        <time>2021-05-29 06:45:26</time>
      </trkpt>
      <trkpt lat="42.86236" lon="-2.57521">
        <ele>523</ele>
        <time>2021-05-29 06:45:27</time>
      </trkpt>
      <trkpt lat="42.86239" lon="-2.57511">
        <ele>523</ele>
        <time>2021-05-29 06:45:28</time>
      </trkpt>
      <trkpt lat="42.86241" lon="-2.57501">
        <ele>523</ele>
        <time>2021-05-29 06:45:29</time>
      </trkpt>
      <trkpt lat="42.86243" lon="-2.57491">
        <ele>523</ele>
        <time>2021-05-29 06:45:30</time>
      </trkpt>
      <trkpt lat="42.86245" lon="-2.57481">
        <ele>523.2</ele>
        <time>2021-05-29 06:45:31</time>
      </trkpt>
      <trkpt lat="42.86247" lon="-2.57471">
        <ele>523.2</ele>
        <time>2021-05-29 06:45:32</time>
      </trkpt>
      <trkpt lat="42.8625" lon="-2.57461">
        <ele>523.2</ele>
        <time>2021-05-29 06:45:33</time>
      </trkpt>
      <trkpt lat="42.86252" lon="-2.57451">
        <ele>523.2</ele>
        <time>2021-05-29 06:45:34</time>
      </trkpt>
      <trkpt lat="42.86255" lon="-2.57441">
        <ele>523.2</ele>
        <time>2021-05-29 06:45:35</time>
      </trkpt>
      <trkpt lat="42.86257" lon="-2.57431">
        <ele>523.2</ele>
        <time>2021-05-29 06:45:36</time>
      </trkpt>
      <trkpt lat="42.8626" lon="-2.57422">
        <ele>523.4</ele>
        <time>2021-05-29 06:45:37</time>
      </trkpt>
      <trkpt lat="42.86262" lon="-2.57412">
        <ele>523.4</ele>
        <time>2021-05-29 06:45:38</time>
      </trkpt>
      <trkpt lat="42.86265" lon="-2.57402">
        <ele>523.6</ele>
        <time>2021-05-29 06:45:39</time>
      </trkpt>
      <trkpt lat="42.86268" lon="-2.57393">
        <ele>523.6</ele>
        <time>2021-05-29 06:45:40</time>
      </trkpt>
      <trkpt lat="42.86271" lon="-2.57383">
        <ele>523.6</ele>
        <time>2021-05-29 06:45:41</time>
      </trkpt>
      <trkpt lat="42.86274" lon="-2.57373">
        <ele>523.8</ele>
        <time>2021-05-29 06:45:42</time>
      </trkpt>
      <trkpt lat="42.86278" lon="-2.57364">
        <ele>523.8</ele>
        <time>2021-05-29 06:45:43</time>
      </trkpt>
      <trkpt lat="42.86281" lon="-2.57354">
        <ele>523.8</ele>
        <time>2021-05-29 06:45:44</time>
      </trkpt>
      <trkpt lat="42.86285" lon="-2.57344">
        <ele>524</ele>
        <time>2021-05-29 06:45:45</time>
      </trkpt>
      <trkpt lat="42.86288" lon="-2.57334">
        <ele>524</ele>
        <time>2021-05-29 06:45:46</time>
      </trkpt>
      <trkpt lat="42.86292" lon="-2.57324">
        <ele>524.2</ele>
        <time>2021-05-29 06:45:47</time>
      </trkpt>
      <trkpt lat="42.86295" lon="-2.57314">
        <ele>524.4</ele>
        <time>2021-05-29 06:45:48</time>
      </trkpt>
      <trkpt lat="42.86299" lon="-2.57305">
        <ele>524.4</ele>
        <time>2021-05-29 06:45:49</time>
      </trkpt>
      <trkpt lat="42.86304" lon="-2.57295">
        <ele>524.4</ele>
        <time>2021-05-29 06:45:50</time>
      </trkpt>
      <trkpt lat="42.86308" lon="-2.57285">
        <ele>524.6</ele>
        <time>2021-05-29 06:45:51</time>
      </trkpt>
      <trkpt lat="42.86312" lon="-2.57275">
        <ele>524.4</ele>
        <time>2021-05-29 06:45:52</time>
      </trkpt>
      <trkpt lat="42.86317" lon="-2.57265">
        <ele>524.4</ele>
        <time>2021-05-29 06:45:53</time>
      </trkpt>
      <trkpt lat="42.86322" lon="-2.57255">
        <ele>524.4</ele>
        <time>2021-05-29 06:45:54</time>
      </trkpt>
      <trkpt lat="42.86327" lon="-2.57246">
        <ele>524.4</ele>
        <time>2021-05-29 06:45:55</time>
      </trkpt>
      <trkpt lat="42.86332" lon="-2.57236">
        <ele>524.4</ele>
        <time>2021-05-29 06:45:56</time>
      </trkpt>
      <trkpt lat="42.86337" lon="-2.57226">
        <ele>524.6</ele>
        <time>2021-05-29 06:45:57</time>
      </trkpt>
      <trkpt lat="42.86342" lon="-2.57216">
        <ele>524.6</ele>
        <time>2021-05-29 06:45:58</time>
      </trkpt>
      <trkpt lat="42.86348" lon="-2.57207">
        <ele>524.6</ele>
        <time>2021-05-29 06:45:59</time>
      </trkpt>
      <trkpt lat="42.86353" lon="-2.57197">
        <ele>524.6</ele>
        <time>2021-05-29 06:46:00</time>
      </trkpt>
      <trkpt lat="42.86358" lon="-2.57187">
        <ele>524.6</ele>
        <time>2021-05-29 06:46:01</time>
      </trkpt>
      <trkpt lat="42.86363" lon="-2.57177">
        <ele>524.6</ele>
        <time>2021-05-29 06:46:02</time>
      </trkpt>
      <trkpt lat="42.86368" lon="-2.57167">
        <ele>524.6</ele>
        <time>2021-05-29 06:46:03</time>
      </trkpt>
      <trkpt lat="42.86373" lon="-2.57157">
        <ele>524.4</ele>
        <time>2021-05-29 06:46:04</time>
      </trkpt>
      <trkpt lat="42.86378" lon="-2.57148">
        <ele>524.4</ele>
        <time>2021-05-29 06:46:05</time>
      </trkpt>
      <trkpt lat="42.86383" lon="-2.57138">
        <ele>524.4</ele>
        <time>2021-05-29 06:46:06</time>
      </trkpt>
      <trkpt lat="42.86388" lon="-2.57128">
        <ele>524.4</ele>
        <time>2021-05-29 06:46:07</time>
      </trkpt>
      <trkpt lat="42.86393" lon="-2.57119">
        <ele>524.2</ele>
        <time>2021-05-29 06:46:08</time>
      </trkpt>
      <trkpt lat="42.86398" lon="-2.57109">
        <ele>524.2</ele>
        <time>2021-05-29 06:46:09</time>
      </trkpt>
      <trkpt lat="42.86403" lon="-2.57099">
        <ele>524.2</ele>
        <time>2021-05-29 06:46:10</time>
      </trkpt>
      <trkpt lat="42.86408" lon="-2.5709">
        <ele>524.2</ele>
        <time>2021-05-29 06:46:11</time>
      </trkpt>
      <trkpt lat="42.86413" lon="-2.5708">
        <ele>524.2</ele>
        <time>2021-05-29 06:46:12</time>
      </trkpt>
      <trkpt lat="42.86418" lon="-2.57071">
        <ele>524.2</ele>
        <time>2021-05-29 06:46:13</time>
      </trkpt>
      <trkpt lat="42.86423" lon="-2.57062">
        <ele>524.2</ele>
        <time>2021-05-29 06:46:14</time>
      </trkpt>
      <trkpt lat="42.86428" lon="-2.57052">
        <ele>524.2</ele>
        <time>2021-05-29 06:46:15</time>
      </trkpt>
      <trkpt lat="42.86433" lon="-2.57043">
        <ele>524.2</ele>
        <time>2021-05-29 06:46:16</time>
      </trkpt>
      <trkpt lat="42.86438" lon="-2.57034">
        <ele>524.2</ele>
        <time>2021-05-29 06:46:17</time>
      </trkpt>
      <trkpt lat="42.86443" lon="-2.57024">
        <ele>524</ele>
        <time>2021-05-29 06:46:18</time>
      </trkpt>
      <trkpt lat="42.86447" lon="-2.57015">
        <ele>524</ele>
        <time>2021-05-29 06:46:19</time>
      </trkpt>
      <trkpt lat="42.86452" lon="-2.57005">
        <ele>524</ele>
        <time>2021-05-29 06:46:20</time>
      </trkpt>
      <trkpt lat="42.86457" lon="-2.56996">
        <ele>524</ele>
        <time>2021-05-29 06:46:21</time>
      </trkpt>
      <trkpt lat="42.86462" lon="-2.56987">
        <ele>524</ele>
        <time>2021-05-29 06:46:22</time>
      </trkpt>
      <trkpt lat="42.86467" lon="-2.56977">
        <ele>524</ele>
        <time>2021-05-29 06:46:23</time>
      </trkpt>
      <trkpt lat="42.86472" lon="-2.56968">
        <ele>524</ele>
        <time>2021-05-29 06:46:24</time>
      </trkpt>
      <trkpt lat="42.86477" lon="-2.56959">
        <ele>524</ele>
        <time>2021-05-29 06:46:25</time>
      </trkpt>
      <trkpt lat="42.86482" lon="-2.56949">
        <ele>523.8</ele>
        <time>2021-05-29 06:46:26</time>
      </trkpt>
      <trkpt lat="42.86487" lon="-2.5694">
        <ele>523.8</ele>
        <time>2021-05-29 06:46:27</time>
      </trkpt>
      <trkpt lat="42.86492" lon="-2.56931">
        <ele>523.8</ele>
        <time>2021-05-29 06:46:28</time>
      </trkpt>
      <trkpt lat="42.86497" lon="-2.56921">
        <ele>523.8</ele>
        <time>2021-05-29 06:46:29</time>
      </trkpt>
      <trkpt lat="42.86502" lon="-2.56912">
        <ele>523.8</ele>
        <time>2021-05-29 06:46:30</time>
      </trkpt>
      <trkpt lat="42.86507" lon="-2.56902">
        <ele>523.8</ele>
        <time>2021-05-29 06:46:31</time>
      </trkpt>
      <trkpt lat="42.86512" lon="-2.56893">
        <ele>523.8</ele>
        <time>2021-05-29 06:46:32</time>
      </trkpt>
      <trkpt lat="42.86517" lon="-2.56884">
        <ele>523.8</ele>
        <time>2021-05-29 06:46:33</time>
      </trkpt>
      <trkpt lat="42.86522" lon="-2.56874">
        <ele>523.6</ele>
        <time>2021-05-29 06:46:34</time>
      </trkpt>
      <trkpt lat="42.86527" lon="-2.56865">
        <ele>523.6</ele>
        <time>2021-05-29 06:46:35</time>
      </trkpt>
      <trkpt lat="42.86532" lon="-2.56856">
        <ele>523.6</ele>
        <time>2021-05-29 06:46:36</time>
      </trkpt>
      <trkpt lat="42.86537" lon="-2.56847">
        <ele>523.6</ele>
        <time>2021-05-29 06:46:37</time>
      </trkpt>
      <trkpt lat="42.86542" lon="-2.56837">
        <ele>523.6</ele>
        <time>2021-05-29 06:46:38</time>
      </trkpt>
      <trkpt lat="42.86547" lon="-2.56828">
        <ele>523.6</ele>
        <time>2021-05-29 06:46:39</time>
      </trkpt>
      <trkpt lat="42.86551" lon="-2.56818">
        <ele>523.6</ele>
        <time>2021-05-29 06:46:40</time>
      </trkpt>
      <trkpt lat="42.86556" lon="-2.56809">
        <ele>523.6</ele>
        <time>2021-05-29 06:46:41</time>
      </trkpt>
      <trkpt lat="42.86561" lon="-2.568">
        <ele>523.6</ele>
        <time>2021-05-29 06:46:42</time>
      </trkpt>
      <trkpt lat="42.86566" lon="-2.5679">
        <ele>523.6</ele>
        <time>2021-05-29 06:46:43</time>
      </trkpt>
      <trkpt lat="42.86571" lon="-2.56781">
        <ele>523.6</ele>
        <time>2021-05-29 06:46:44</time>
      </trkpt>
      <trkpt lat="42.86576" lon="-2.56771">
        <ele>523.6</ele>
        <time>2021-05-29 06:46:45</time>
      </trkpt>
      <trkpt lat="42.86581" lon="-2.56762">
        <ele>523.6</ele>
        <time>2021-05-29 06:46:46</time>
      </trkpt>
      <trkpt lat="42.86586" lon="-2.56753">
        <ele>523.6</ele>
        <time>2021-05-29 06:46:47</time>
      </trkpt>
      <trkpt lat="42.8659" lon="-2.56743">
        <ele>523.6</ele>
        <time>2021-05-29 06:46:48</time>
      </trkpt>
      <trkpt lat="42.86595" lon="-2.56734">
        <ele>523.6</ele>
        <time>2021-05-29 06:46:49</time>
      </trkpt>
      <trkpt lat="42.866" lon="-2.56725">
        <ele>523.6</ele>
        <time>2021-05-29 06:46:50</time>
      </trkpt>
      <trkpt lat="42.86605" lon="-2.56716">
        <ele>523.6</ele>
        <time>2021-05-29 06:46:51</time>
      </trkpt>
      <trkpt lat="42.86609" lon="-2.56706">
        <ele>523.6</ele>
        <time>2021-05-29 06:46:52</time>
      </trkpt>
      <trkpt lat="42.86614" lon="-2.56697">
        <ele>523.6</ele>
        <time>2021-05-29 06:46:53</time>
      </trkpt>
      <trkpt lat="42.86619" lon="-2.56688">
        <ele>523.6</ele>
        <time>2021-05-29 06:46:54</time>
      </trkpt>
      <trkpt lat="42.86624" lon="-2.56679">
        <ele>523.8</ele>
        <time>2021-05-29 06:46:55</time>
      </trkpt>
      <trkpt lat="42.86629" lon="-2.5667">
        <ele>523.8</ele>
        <time>2021-05-29 06:46:56</time>
      </trkpt>
      <trkpt lat="42.86633" lon="-2.56661">
        <ele>523.8</ele>
        <time>2021-05-29 06:46:57</time>
      </trkpt>
      <trkpt lat="42.86638" lon="-2.56651">
        <ele>523.8</ele>
        <time>2021-05-29 06:46:58</time>
      </trkpt>
      <trkpt lat="42.86643" lon="-2.56642">
        <ele>523.8</ele>
        <time>2021-05-29 06:46:59</time>
      </trkpt>
      <trkpt lat="42.86648" lon="-2.56633">
        <ele>523.8</ele>
        <time>2021-05-29 06:47:00</time>
      </trkpt>
      <trkpt lat="42.86653" lon="-2.56623">
        <ele>523.8</ele>
        <time>2021-05-29 06:47:01</time>
      </trkpt>
      <trkpt lat="42.86658" lon="-2.56614">
        <ele>523.8</ele>
        <time>2021-05-29 06:47:02</time>
      </trkpt>
      <trkpt lat="42.86663" lon="-2.56604">
        <ele>523.8</ele>
        <time>2021-05-29 06:47:03</time>
      </trkpt>
      <trkpt lat="42.86668" lon="-2.56595">
        <ele>523.8</ele>
        <time>2021-05-29 06:47:04</time>
      </trkpt>
      <trkpt lat="42.86673" lon="-2.56585">
        <ele>523.8</ele>
        <time>2021-05-29 06:47:05</time>
      </trkpt>
      <trkpt lat="42.86678" lon="-2.56576">
        <ele>523.8</ele>
        <time>2021-05-29 06:47:06</time>
      </trkpt>
      <trkpt lat="42.86682" lon="-2.56567">
        <ele>523.8</ele>
        <time>2021-05-29 06:47:07</time>
      </trkpt>
      <trkpt lat="42.86687" lon="-2.56557">
        <ele>523.8</ele>
        <time>2021-05-29 06:47:08</time>
      </trkpt>
      <trkpt lat="42.86692" lon="-2.56548">
        <ele>523.8</ele>
        <time>2021-05-29 06:47:09</time>
      </trkpt>
      <trkpt lat="42.86697" lon="-2.56539">
        <ele>523.8</ele>
        <time>2021-05-29 06:47:10</time>
      </trkpt>
      <trkpt lat="42.86702" lon="-2.56529">
        <ele>523.8</ele>
        <time>2021-05-29 06:47:11</time>
      </trkpt>
      <trkpt lat="42.86707" lon="-2.5652">
        <ele>523.8</ele>
        <time>2021-05-29 06:47:12</time>
      </trkpt>
      <trkpt lat="42.86712" lon="-2.5651">
        <ele>523.8</ele>
        <time>2021-05-29 06:47:13</time>
      </trkpt>
      <trkpt lat="42.86717" lon="-2.56501">
        <ele>523.8</ele>
        <time>2021-05-29 06:47:14</time>
      </trkpt>
      <trkpt lat="42.86722" lon="-2.56492">
        <ele>523.8</ele>
        <time>2021-05-29 06:47:15</time>
      </trkpt>
      <trkpt lat="42.86726" lon="-2.56482">
        <ele>523.8</ele>
        <time>2021-05-29 06:47:16</time>
      </trkpt>
      <trkpt lat="42.86731" lon="-2.56473">
        <ele>523.8</ele>
        <time>2021-05-29 06:47:17</time>
      </trkpt>
      <trkpt lat="42.86736" lon="-2.56464">
        <ele>523.8</ele>
        <time>2021-05-29 06:47:18</time>
      </trkpt>
      <trkpt lat="42.86741" lon="-2.56455">
        <ele>523.8</ele>
        <time>2021-05-29 06:47:19</time>
      </trkpt>
      <trkpt lat="42.86746" lon="-2.56445">
        <ele>523.8</ele>
        <time>2021-05-29 06:47:20</time>
      </trkpt>
      <trkpt lat="42.86751" lon="-2.56436">
        <ele>523.8</ele>
        <time>2021-05-29 06:47:21</time>
      </trkpt>
      <trkpt lat="42.86755" lon="-2.56427">
        <ele>523.8</ele>
        <time>2021-05-29 06:47:22</time>
      </trkpt>
      <trkpt lat="42.8676" lon="-2.56418">
        <ele>523.8</ele>
        <time>2021-05-29 06:47:23</time>
      </trkpt>
      <trkpt lat="42.86765" lon="-2.56409">
        <ele>523.8</ele>
        <time>2021-05-29 06:47:24</time>
      </trkpt>
      <trkpt lat="42.8677" lon="-2.564">
        <ele>523.8</ele>
        <time>2021-05-29 06:47:25</time>
      </trkpt>
      <trkpt lat="42.86774" lon="-2.56391">
        <ele>523.8</ele>
        <time>2021-05-29 06:47:26</time>
      </trkpt>
      <trkpt lat="42.86779" lon="-2.56382">
        <ele>523.8</ele>
        <time>2021-05-29 06:47:27</time>
      </trkpt>
      <trkpt lat="42.86784" lon="-2.56373">
        <ele>523.6</ele>
        <time>2021-05-29 06:47:28</time>
      </trkpt>
      <trkpt lat="42.86789" lon="-2.56363">
        <ele>523.6</ele>
        <time>2021-05-29 06:47:29</time>
      </trkpt>
      <trkpt lat="42.86794" lon="-2.56354">
        <ele>523.6</ele>
        <time>2021-05-29 06:47:30</time>
      </trkpt>
      <trkpt lat="42.86798" lon="-2.56345">
        <ele>523.6</ele>
        <time>2021-05-29 06:47:31</time>
      </trkpt>
      <trkpt lat="42.86803" lon="-2.56336">
        <ele>523.6</ele>
        <time>2021-05-29 06:47:32</time>
      </trkpt>
      <trkpt lat="42.86808" lon="-2.56327">
        <ele>523.6</ele>
        <time>2021-05-29 06:47:33</time>
      </trkpt>
      <trkpt lat="42.86813" lon="-2.56318">
        <ele>523.6</ele>
        <time>2021-05-29 06:47:34</time>
      </trkpt>
      <trkpt lat="42.86818" lon="-2.56309">
        <ele>523.6</ele>
        <time>2021-05-29 06:47:35</time>
      </trkpt>
      <trkpt lat="42.86823" lon="-2.563">
        <ele>523.6</ele>
        <time>2021-05-29 06:47:36</time>
      </trkpt>
      <trkpt lat="42.86827" lon="-2.56291">
        <ele>523.4</ele>
        <time>2021-05-29 06:47:37</time>
      </trkpt>
      <trkpt lat="42.86832" lon="-2.56282">
        <ele>523.4</ele>
        <time>2021-05-29 06:47:38</time>
      </trkpt>
      <trkpt lat="42.86837" lon="-2.56273">
        <ele>523.4</ele>
        <time>2021-05-29 06:47:39</time>
      </trkpt>
      <trkpt lat="42.86841" lon="-2.56264">
        <ele>523.4</ele>
        <time>2021-05-29 06:47:40</time>
      </trkpt>
      <trkpt lat="42.86846" lon="-2.56255">
        <ele>523.4</ele>
        <time>2021-05-29 06:47:41</time>
      </trkpt>
      <trkpt lat="42.86851" lon="-2.56245">
        <ele>523.4</ele>
        <time>2021-05-29 06:47:42</time>
      </trkpt>
      <trkpt lat="42.86856" lon="-2.56236">
        <ele>523.4</ele>
        <time>2021-05-29 06:47:43</time>
      </trkpt>
      <trkpt lat="42.86861" lon="-2.56227">
        <ele>523.4</ele>
        <time>2021-05-29 06:47:44</time>
      </trkpt>
      <trkpt lat="42.86865" lon="-2.56218">
        <ele>523.4</ele>
        <time>2021-05-29 06:47:45</time>
      </trkpt>
      <trkpt lat="42.8687" lon="-2.56209">
        <ele>523.4</ele>
        <time>2021-05-29 06:47:46</time>
      </trkpt>
      <trkpt lat="42.86875" lon="-2.56199">
        <ele>523.4</ele>
        <time>2021-05-29 06:47:47</time>
      </trkpt>
      <trkpt lat="42.8688" lon="-2.5619">
        <ele>523.4</ele>
        <time>2021-05-29 06:47:48</time>
      </trkpt>
      <trkpt lat="42.86885" lon="-2.56181">
        <ele>523.4</ele>
        <time>2021-05-29 06:47:49</time>
      </trkpt>
      <trkpt lat="42.8689" lon="-2.56171">
        <ele>523.4</ele>
        <time>2021-05-29 06:47:50</time>
      </trkpt>
      <trkpt lat="42.86894" lon="-2.56162">
        <ele>523.4</ele>
        <time>2021-05-29 06:47:51</time>
      </trkpt>
      <trkpt lat="42.86899" lon="-2.56153">
        <ele>523.4</ele>
        <time>2021-05-29 06:47:52</time>
      </trkpt>
      <trkpt lat="42.86904" lon="-2.56143">
        <ele>523.4</ele>
        <time>2021-05-29 06:47:53</time>
      </trkpt>
      <trkpt lat="42.86908" lon="-2.56134">
        <ele>523.4</ele>
        <time>2021-05-29 06:47:54</time>
      </trkpt>
      <trkpt lat="42.86913" lon="-2.56125">
        <ele>523.4</ele>
        <time>2021-05-29 06:47:55</time>
      </trkpt>
      <trkpt lat="42.86918" lon="-2.56115">
        <ele>523.4</ele>
        <time>2021-05-29 06:47:56</time>
      </trkpt>
      <trkpt lat="42.86922" lon="-2.56106">
        <ele>523.4</ele>
        <time>2021-05-29 06:47:57</time>
      </trkpt>
      <trkpt lat="42.86927" lon="-2.56097">
        <ele>523.4</ele>
        <time>2021-05-29 06:47:58</time>
      </trkpt>
      <trkpt lat="42.86932" lon="-2.56088">
        <ele>523.4</ele>
        <time>2021-05-29 06:47:59</time>
      </trkpt>
      <trkpt lat="42.86937" lon="-2.56079">
        <ele>523.4</ele>
        <time>2021-05-29 06:48:00</time>
      </trkpt>
      <trkpt lat="42.86942" lon="-2.56069">
        <ele>523.4</ele>
        <time>2021-05-29 06:48:01</time>
      </trkpt>
      <trkpt lat="42.86947" lon="-2.5606">
        <ele>523.4</ele>
        <time>2021-05-29 06:48:02</time>
      </trkpt>
      <trkpt lat="42.86952" lon="-2.56051">
        <ele>523.4</ele>
        <time>2021-05-29 06:48:03</time>
      </trkpt>
      <trkpt lat="42.86957" lon="-2.56041">
        <ele>523.4</ele>
        <time>2021-05-29 06:48:04</time>
      </trkpt>
      <trkpt lat="42.86962" lon="-2.56032">
        <ele>523.4</ele>
        <time>2021-05-29 06:48:05</time>
      </trkpt>
      <trkpt lat="42.86966" lon="-2.56023">
        <ele>523.4</ele>
        <time>2021-05-29 06:48:06</time>
      </trkpt>
      <trkpt lat="42.86971" lon="-2.56014">
        <ele>523.4</ele>
        <time>2021-05-29 06:48:07</time>
      </trkpt>
      <trkpt lat="42.86976" lon="-2.56004">
        <ele>523.4</ele>
        <time>2021-05-29 06:48:08</time>
      </trkpt>
      <trkpt lat="42.86981" lon="-2.55995">
        <ele>523.4</ele>
        <time>2021-05-29 06:48:09</time>
      </trkpt>
      <trkpt lat="42.86986" lon="-2.55985">
        <ele>523.4</ele>
        <time>2021-05-29 06:48:10</time>
      </trkpt>
      <trkpt lat="42.86991" lon="-2.55976">
        <ele>523.4</ele>
        <time>2021-05-29 06:48:11</time>
      </trkpt>
      <trkpt lat="42.86996" lon="-2.55967">
        <ele>523.6</ele>
        <time>2021-05-29 06:48:12</time>
      </trkpt>
      <trkpt lat="42.87" lon="-2.55957">
        <ele>523.6</ele>
        <time>2021-05-29 06:48:13</time>
      </trkpt>
      <trkpt lat="42.87005" lon="-2.55948">
        <ele>523.6</ele>
        <time>2021-05-29 06:48:14</time>
      </trkpt>
      <trkpt lat="42.8701" lon="-2.55939">
        <ele>523.6</ele>
        <time>2021-05-29 06:48:15</time>
      </trkpt>
      <trkpt lat="42.87015" lon="-2.5593">
        <ele>523.6</ele>
        <time>2021-05-29 06:48:16</time>
      </trkpt>
      <trkpt lat="42.8702" lon="-2.55921">
        <ele>523.6</ele>
        <time>2021-05-29 06:48:17</time>
      </trkpt>
      <trkpt lat="42.87025" lon="-2.55911">
        <ele>523.6</ele>
        <time>2021-05-29 06:48:18</time>
      </trkpt>
      <trkpt lat="42.87029" lon="-2.55902">
        <ele>523.6</ele>
        <time>2021-05-29 06:48:19</time>
      </trkpt>
      <trkpt lat="42.87034" lon="-2.55892">
        <ele>523.6</ele>
        <time>2021-05-29 06:48:20</time>
      </trkpt>
      <trkpt lat="42.87039" lon="-2.55883">
        <ele>523.6</ele>
        <time>2021-05-29 06:48:21</time>
      </trkpt>
      <trkpt lat="42.87044" lon="-2.55874">
        <ele>523.6</ele>
        <time>2021-05-29 06:48:22</time>
      </trkpt>
      <trkpt lat="42.87049" lon="-2.55865">
        <ele>523.6</ele>
        <time>2021-05-29 06:48:23</time>
      </trkpt>
      <trkpt lat="42.87053" lon="-2.55855">
        <ele>523.6</ele>
        <time>2021-05-29 06:48:24</time>
      </trkpt>
      <trkpt lat="42.87058" lon="-2.55846">
        <ele>523.6</ele>
        <time>2021-05-29 06:48:25</time>
      </trkpt>
      <trkpt lat="42.87063" lon="-2.55837">
        <ele>523.4</ele>
        <time>2021-05-29 06:48:26</time>
      </trkpt>
      <trkpt lat="42.87068" lon="-2.55828">
        <ele>523.4</ele>
        <time>2021-05-29 06:48:27</time>
      </trkpt>
      <trkpt lat="42.87072" lon="-2.55818">
        <ele>523.4</ele>
        <time>2021-05-29 06:48:28</time>
      </trkpt>
      <trkpt lat="42.87077" lon="-2.55809">
        <ele>523.6</ele>
        <time>2021-05-29 06:48:29</time>
      </trkpt>
      <trkpt lat="42.87082" lon="-2.558">
        <ele>523.6</ele>
        <time>2021-05-29 06:48:30</time>
      </trkpt>
      <trkpt lat="42.87087" lon="-2.55791">
        <ele>523.6</ele>
        <time>2021-05-29 06:48:31</time>
      </trkpt>
      <trkpt lat="42.87092" lon="-2.55782">
        <ele>523.6</ele>
        <time>2021-05-29 06:48:32</time>
      </trkpt>
      <trkpt lat="42.87096" lon="-2.55773">
        <ele>523.6</ele>
        <time>2021-05-29 06:48:33</time>
      </trkpt>
      <trkpt lat="42.87101" lon="-2.55763">
        <ele>523.6</ele>
        <time>2021-05-29 06:48:34</time>
      </trkpt>
      <trkpt lat="42.87106" lon="-2.55754">
        <ele>523.6</ele>
        <time>2021-05-29 06:48:35</time>
      </trkpt>
      <trkpt lat="42.87111" lon="-2.55745">
        <ele>523.6</ele>
        <time>2021-05-29 06:48:36</time>
      </trkpt>
      <trkpt lat="42.87116" lon="-2.55736">
        <ele>523.6</ele>
        <time>2021-05-29 06:48:37</time>
      </trkpt>
      <trkpt lat="42.87121" lon="-2.55727">
        <ele>523.8</ele>
        <time>2021-05-29 06:48:38</time>
      </trkpt>
      <trkpt lat="42.87126" lon="-2.55718">
        <ele>523.8</ele>
        <time>2021-05-29 06:48:39</time>
      </trkpt>
      <trkpt lat="42.8713" lon="-2.55708">
        <ele>524</ele>
        <time>2021-05-29 06:48:40</time>
      </trkpt>
      <trkpt lat="42.87135" lon="-2.55699">
        <ele>524</ele>
        <time>2021-05-29 06:48:41</time>
      </trkpt>
      <trkpt lat="42.8714" lon="-2.5569">
        <ele>524</ele>
        <time>2021-05-29 06:48:42</time>
      </trkpt>
      <trkpt lat="42.87144" lon="-2.5568">
        <ele>524.2</ele>
        <time>2021-05-29 06:48:43</time>
      </trkpt>
      <trkpt lat="42.87149" lon="-2.55671">
        <ele>524.2</ele>
        <time>2021-05-29 06:48:44</time>
      </trkpt>
      <trkpt lat="42.87154" lon="-2.55662">
        <ele>524.2</ele>
        <time>2021-05-29 06:48:45</time>
      </trkpt>
      <trkpt lat="42.87159" lon="-2.55653">
        <ele>524.4</ele>
        <time>2021-05-29 06:48:46</time>
      </trkpt>
      <trkpt lat="42.87163" lon="-2.55645">
        <ele>524.4</ele>
        <time>2021-05-29 06:48:47</time>
      </trkpt>
      <trkpt lat="42.87168" lon="-2.55636">
        <ele>524.4</ele>
        <time>2021-05-29 06:48:48</time>
      </trkpt>
      <trkpt lat="42.87173" lon="-2.55627">
        <ele>524.4</ele>
        <time>2021-05-29 06:48:49</time>
      </trkpt>
      <trkpt lat="42.87177" lon="-2.55618">
        <ele>524.4</ele>
        <time>2021-05-29 06:48:50</time>
      </trkpt>
      <trkpt lat="42.87181" lon="-2.55609">
        <ele>524.6</ele>
        <time>2021-05-29 06:48:51</time>
      </trkpt>
      <trkpt lat="42.87186" lon="-2.55601">
        <ele>524.6</ele>
        <time>2021-05-29 06:48:52</time>
      </trkpt>
      <trkpt lat="42.8719" lon="-2.55593">
        <ele>524.6</ele>
        <time>2021-05-29 06:48:53</time>
      </trkpt>
      <trkpt lat="42.87194" lon="-2.55585">
        <ele>524.6</ele>
        <time>2021-05-29 06:48:54</time>
      </trkpt>
      <trkpt lat="42.87198" lon="-2.55577">
        <ele>524.8</ele>
        <time>2021-05-29 06:48:55</time>
      </trkpt>
      <trkpt lat="42.87202" lon="-2.55569">
        <ele>524.8</ele>
        <time>2021-05-29 06:48:56</time>
      </trkpt>
      <trkpt lat="42.87206" lon="-2.55561">
        <ele>525</ele>
        <time>2021-05-29 06:48:57</time>
      </trkpt>
      <trkpt lat="42.8721" lon="-2.55554">
        <ele>525</ele>
        <time>2021-05-29 06:48:58</time>
      </trkpt>
      <trkpt lat="42.87214" lon="-2.55546">
        <ele>525.2</ele>
        <time>2021-05-29 06:48:59</time>
      </trkpt>
      <trkpt lat="42.87218" lon="-2.55539">
        <ele>525.2</ele>
        <time>2021-05-29 06:49:00</time>
      </trkpt>
      <trkpt lat="42.87222" lon="-2.55531">
        <ele>525.4</ele>
        <time>2021-05-29 06:49:01</time>
      </trkpt>
      <trkpt lat="42.87226" lon="-2.55524">
        <ele>525.4</ele>
        <time>2021-05-29 06:49:02</time>
      </trkpt>
      <trkpt lat="42.8723" lon="-2.55516">
        <ele>525.4</ele>
        <time>2021-05-29 06:49:03</time>
      </trkpt>
      <trkpt lat="42.87234" lon="-2.55509">
        <ele>525.6</ele>
        <time>2021-05-29 06:49:04</time>
      </trkpt>
      <trkpt lat="42.87237" lon="-2.55502">
        <ele>525.8</ele>
        <time>2021-05-29 06:49:05</time>
      </trkpt>
      <trkpt lat="42.87241" lon="-2.55495">
        <ele>526</ele>
        <time>2021-05-29 06:49:06</time>
      </trkpt>
      <trkpt lat="42.87245" lon="-2.55487">
        <ele>526.2</ele>
        <time>2021-05-29 06:49:07</time>
      </trkpt>
      <trkpt lat="42.87249" lon="-2.5548">
        <ele>526.4</ele>
        <time>2021-05-29 06:49:08</time>
      </trkpt>
      <trkpt lat="42.87252" lon="-2.55473">
        <ele>526.4</ele>
        <time>2021-05-29 06:49:09</time>
      </trkpt>
      <trkpt lat="42.87256" lon="-2.55466">
        <ele>526.6</ele>
        <time>2021-05-29 06:49:10</time>
      </trkpt>
      <trkpt lat="42.8726" lon="-2.55458">
        <ele>526.6</ele>
        <time>2021-05-29 06:49:11</time>
      </trkpt>
      <trkpt lat="42.87263" lon="-2.55451">
        <ele>526.8</ele>
        <time>2021-05-29 06:49:12</time>
      </trkpt>
      <trkpt lat="42.87267" lon="-2.55444">
        <ele>526.8</ele>
        <time>2021-05-29 06:49:13</time>
      </trkpt>
      <trkpt lat="42.87271" lon="-2.55437">
        <ele>527</ele>
        <time>2021-05-29 06:49:14</time>
      </trkpt>
      <trkpt lat="42.87274" lon="-2.5543">
        <ele>527</ele>
        <time>2021-05-29 06:49:15</time>
      </trkpt>
      <trkpt lat="42.87278" lon="-2.55423">
        <ele>527.2</ele>
        <time>2021-05-29 06:49:16</time>
      </trkpt>
      <trkpt lat="42.87282" lon="-2.55416">
        <ele>527.4</ele>
        <time>2021-05-29 06:49:17</time>
      </trkpt>
      <trkpt lat="42.87285" lon="-2.55409">
        <ele>527.6</ele>
        <time>2021-05-29 06:49:18</time>
      </trkpt>
      <trkpt lat="42.87289" lon="-2.55402">
        <ele>527.8</ele>
        <time>2021-05-29 06:49:19</time>
      </trkpt>
      <trkpt lat="42.87293" lon="-2.55395">
        <ele>527.8</ele>
        <time>2021-05-29 06:49:20</time>
      </trkpt>
      <trkpt lat="42.87296" lon="-2.55388">
        <ele>528</ele>
        <time>2021-05-29 06:49:21</time>
      </trkpt>
      <trkpt lat="42.873" lon="-2.55381">
        <ele>528.2</ele>
        <time>2021-05-29 06:49:22</time>
      </trkpt>
      <trkpt lat="42.87304" lon="-2.55374">
        <ele>528.4</ele>
        <time>2021-05-29 06:49:23</time>
      </trkpt>
      <trkpt lat="42.87307" lon="-2.55367">
        <ele>528.6</ele>
        <time>2021-05-29 06:49:24</time>
      </trkpt>
      <trkpt lat="42.87311" lon="-2.55361">
        <ele>528.6</ele>
        <time>2021-05-29 06:49:25</time>
      </trkpt>
      <trkpt lat="42.87314" lon="-2.55354">
        <ele>528.6</ele>
        <time>2021-05-29 06:49:26</time>
      </trkpt>
      <trkpt lat="42.87318" lon="-2.55347">
        <ele>528.8</ele>
        <time>2021-05-29 06:49:27</time>
      </trkpt>
      <trkpt lat="42.87321" lon="-2.5534">
        <ele>529</ele>
        <time>2021-05-29 06:49:28</time>
      </trkpt>
      <trkpt lat="42.87325" lon="-2.55334">
        <ele>529</ele>
        <time>2021-05-29 06:49:29</time>
      </trkpt>
      <trkpt lat="42.87328" lon="-2.55328">
        <ele>529.2</ele>
        <time>2021-05-29 06:49:30</time>
      </trkpt>
      <trkpt lat="42.87332" lon="-2.55321">
        <ele>529.4</ele>
        <time>2021-05-29 06:49:31</time>
      </trkpt>
      <trkpt lat="42.87335" lon="-2.55315">
        <ele>529.6</ele>
        <time>2021-05-29 06:49:32</time>
      </trkpt>
      <trkpt lat="42.87338" lon="-2.55309">
        <ele>529.8</ele>
        <time>2021-05-29 06:49:33</time>
      </trkpt>
      <trkpt lat="42.87341" lon="-2.55303">
        <ele>530</ele>
        <time>2021-05-29 06:49:34</time>
      </trkpt>
      <trkpt lat="42.87344" lon="-2.55297">
        <ele>530.2</ele>
        <time>2021-05-29 06:49:35</time>
      </trkpt>
      <trkpt lat="42.87348" lon="-2.55291">
        <ele>530.6</ele>
        <time>2021-05-29 06:49:36</time>
      </trkpt>
      <trkpt lat="42.87351" lon="-2.55285">
        <ele>530.8</ele>
        <time>2021-05-29 06:49:37</time>
      </trkpt>
      <trkpt lat="42.87354" lon="-2.5528">
        <ele>531</ele>
        <time>2021-05-29 06:49:38</time>
      </trkpt>
      <trkpt lat="42.87357" lon="-2.55274">
        <ele>531.2</ele>
        <time>2021-05-29 06:49:39</time>
      </trkpt>
      <trkpt lat="42.87361" lon="-2.55269">
        <ele>531.4</ele>
        <time>2021-05-29 06:49:40</time>
      </trkpt>
      <trkpt lat="42.87364" lon="-2.55263">
        <ele>531.6</ele>
        <time>2021-05-29 06:49:41</time>
      </trkpt>
      <trkpt lat="42.87367" lon="-2.55259">
        <ele>532</ele>
        <time>2021-05-29 06:49:42</time>
      </trkpt>
      <trkpt lat="42.87371" lon="-2.55254">
        <ele>532.2</ele>
        <time>2021-05-29 06:49:43</time>
      </trkpt>
      <trkpt lat="42.87374" lon="-2.55249">
        <ele>532.4</ele>
        <time>2021-05-29 06:49:44</time>
      </trkpt>
      <trkpt lat="42.87377" lon="-2.55245">
        <ele>532.6</ele>
        <time>2021-05-29 06:49:45</time>
      </trkpt>
      <trkpt lat="42.87381" lon="-2.5524">
        <ele>533.2</ele>
        <time>2021-05-29 06:49:46</time>
      </trkpt>
      <trkpt lat="42.87384" lon="-2.55236">
        <ele>533.4</ele>
        <time>2021-05-29 06:49:47</time>
      </trkpt>
      <trkpt lat="42.87387" lon="-2.55231">
        <ele>533.8</ele>
        <time>2021-05-29 06:49:48</time>
      </trkpt>
      <trkpt lat="42.87391" lon="-2.55227">
        <ele>534</ele>
        <time>2021-05-29 06:49:49</time>
      </trkpt>
      <trkpt lat="42.87394" lon="-2.55222">
        <ele>534.4</ele>
        <time>2021-05-29 06:49:50</time>
      </trkpt>
      <trkpt lat="42.87398" lon="-2.55218">
        <ele>534.6</ele>
        <time>2021-05-29 06:49:51</time>
      </trkpt>
      <trkpt lat="42.87401" lon="-2.55213">
        <ele>534.8</ele>
        <time>2021-05-29 06:49:52</time>
      </trkpt>
      <trkpt lat="42.87405" lon="-2.55209">
        <ele>535</ele>
        <time>2021-05-29 06:49:53</time>
      </trkpt>
      <trkpt lat="42.87409" lon="-2.55205">
        <ele>535.2</ele>
        <time>2021-05-29 06:49:54</time>
      </trkpt>
      <trkpt lat="42.87412" lon="-2.552">
        <ele>535.4</ele>
        <time>2021-05-29 06:49:55</time>
      </trkpt>
      <trkpt lat="42.87416" lon="-2.55195">
        <ele>535.6</ele>
        <time>2021-05-29 06:49:56</time>
      </trkpt>
      <trkpt lat="42.8742" lon="-2.5519">
        <ele>535.8</ele>
        <time>2021-05-29 06:49:57</time>
      </trkpt>
      <trkpt lat="42.87423" lon="-2.55186">
        <ele>536</ele>
        <time>2021-05-29 06:49:58</time>
      </trkpt>
      <trkpt lat="42.87427" lon="-2.55181">
        <ele>536.4</ele>
        <time>2021-05-29 06:49:59</time>
      </trkpt>
      <trkpt lat="42.87431" lon="-2.55176">
        <ele>536.6</ele>
        <time>2021-05-29 06:50:00</time>
      </trkpt>
      <trkpt lat="42.87434" lon="-2.55172">
        <ele>537</ele>
        <time>2021-05-29 06:50:01</time>
      </trkpt>
      <trkpt lat="42.87438" lon="-2.55167">
        <ele>537</ele>
        <time>2021-05-29 06:50:02</time>
      </trkpt>
      <trkpt lat="42.87442" lon="-2.55162">
        <ele>537.2</ele>
        <time>2021-05-29 06:50:03</time>
      </trkpt>
      <trkpt lat="42.87446" lon="-2.55157">
        <ele>537.4</ele>
        <time>2021-05-29 06:50:04</time>
      </trkpt>
      <trkpt lat="42.87449" lon="-2.55151">
        <ele>537.6</ele>
        <time>2021-05-29 06:50:05</time>
      </trkpt>
      <trkpt lat="42.87453" lon="-2.55146">
        <ele>537.8</ele>
        <time>2021-05-29 06:50:06</time>
      </trkpt>
      <trkpt lat="42.87457" lon="-2.55141">
        <ele>538</ele>
        <time>2021-05-29 06:50:07</time>
      </trkpt>
      <trkpt lat="42.87461" lon="-2.55136">
        <ele>538.2</ele>
        <time>2021-05-29 06:50:08</time>
      </trkpt>
      <trkpt lat="42.87464" lon="-2.55131">
        <ele>538.4</ele>
        <time>2021-05-29 06:50:09</time>
      </trkpt>
      <trkpt lat="42.87468" lon="-2.55125">
        <ele>538.6</ele>
        <time>2021-05-29 06:50:10</time>
      </trkpt>
      <trkpt lat="42.87471" lon="-2.5512">
        <ele>539</ele>
        <time>2021-05-29 06:50:11</time>
      </trkpt>
      <trkpt lat="42.87475" lon="-2.55115">
        <ele>539</ele>
        <time>2021-05-29 06:50:12</time>
      </trkpt>
      <trkpt lat="42.87479" lon="-2.5511">
        <ele>539.4</ele>
        <time>2021-05-29 06:50:13</time>
      </trkpt>
      <trkpt lat="42.87482" lon="-2.55106">
        <ele>539.4</ele>
        <time>2021-05-29 06:50:14</time>
      </trkpt>
      <trkpt lat="42.87486" lon="-2.55101">
        <ele>539.6</ele>
        <time>2021-05-29 06:50:15</time>
      </trkpt>
      <trkpt lat="42.8749" lon="-2.55096">
        <ele>539.8</ele>
        <time>2021-05-29 06:50:16</time>
      </trkpt>
      <trkpt lat="42.87494" lon="-2.55092">
        <ele>540</ele>
        <time>2021-05-29 06:50:17</time>
      </trkpt>
      <trkpt lat="42.87498" lon="-2.55087">
        <ele>540.4</ele>
        <time>2021-05-29 06:50:18</time>
      </trkpt>
      <trkpt lat="42.87501" lon="-2.55082">
        <ele>540.6</ele>
        <time>2021-05-29 06:50:19</time>
      </trkpt>
      <trkpt lat="42.87505" lon="-2.55077">
        <ele>540.6</ele>
        <time>2021-05-29 06:50:20</time>
      </trkpt>
      <trkpt lat="42.87509" lon="-2.55073">
        <ele>540.8</ele>
        <time>2021-05-29 06:50:21</time>
      </trkpt>
      <trkpt lat="42.87512" lon="-2.55068">
        <ele>541.2</ele>
        <time>2021-05-29 06:50:22</time>
      </trkpt>
      <trkpt lat="42.87516" lon="-2.55064">
        <ele>541.6</ele>
        <time>2021-05-29 06:50:23</time>
      </trkpt>
      <trkpt lat="42.87519" lon="-2.55059">
        <ele>541.8</ele>
        <time>2021-05-29 06:50:24</time>
      </trkpt>
      <trkpt lat="42.87523" lon="-2.55055">
        <ele>542</ele>
        <time>2021-05-29 06:50:25</time>
      </trkpt>
      <trkpt lat="42.87527" lon="-2.5505">
        <ele>542.2</ele>
        <time>2021-05-29 06:50:26</time>
      </trkpt>
      <trkpt lat="42.8753" lon="-2.55046">
        <ele>542.6</ele>
        <time>2021-05-29 06:50:27</time>
      </trkpt>
      <trkpt lat="42.87533" lon="-2.55042">
        <ele>542.8</ele>
        <time>2021-05-29 06:50:28</time>
      </trkpt>
      <trkpt lat="42.87537" lon="-2.55037">
        <ele>543</ele>
        <time>2021-05-29 06:50:29</time>
      </trkpt>
      <trkpt lat="42.8754" lon="-2.55033">
        <ele>543.2</ele>
        <time>2021-05-29 06:50:30</time>
      </trkpt>
      <trkpt lat="42.87544" lon="-2.55029">
        <ele>543.4</ele>
        <time>2021-05-29 06:50:31</time>
      </trkpt>
      <trkpt lat="42.87547" lon="-2.55024">
        <ele>543.6</ele>
        <time>2021-05-29 06:50:32</time>
      </trkpt>
      <trkpt lat="42.8755" lon="-2.5502">
        <ele>543.8</ele>
        <time>2021-05-29 06:50:33</time>
      </trkpt>
      <trkpt lat="42.87554" lon="-2.55015">
        <ele>544</ele>
        <time>2021-05-29 06:50:34</time>
      </trkpt>
      <trkpt lat="42.87557" lon="-2.55011">
        <ele>544.2</ele>
        <time>2021-05-29 06:50:35</time>
      </trkpt>
      <trkpt lat="42.8756" lon="-2.55006">
        <ele>544.4</ele>
        <time>2021-05-29 06:50:36</time>
      </trkpt>
      <trkpt lat="42.87564" lon="-2.55002">
        <ele>544.8</ele>
        <time>2021-05-29 06:50:37</time>
      </trkpt>
      <trkpt lat="42.87568" lon="-2.54997">
        <ele>545</ele>
        <time>2021-05-29 06:50:38</time>
      </trkpt>
      <trkpt lat="42.87571" lon="-2.54993">
        <ele>545.2</ele>
        <time>2021-05-29 06:50:39</time>
      </trkpt>
      <trkpt lat="42.87574" lon="-2.54988">
        <ele>545.6</ele>
        <time>2021-05-29 06:50:40</time>
      </trkpt>
      <trkpt lat="42.87578" lon="-2.54983">
        <ele>545.8</ele>
        <time>2021-05-29 06:50:41</time>
      </trkpt>
      <trkpt lat="42.87581" lon="-2.54978">
        <ele>545.8</ele>
        <time>2021-05-29 06:50:42</time>
      </trkpt>
      <trkpt lat="42.87585" lon="-2.54973">
        <ele>546</ele>
        <time>2021-05-29 06:50:43</time>
      </trkpt>
      <trkpt lat="42.87588" lon="-2.54968">
        <ele>546.2</ele>
        <time>2021-05-29 06:50:44</time>
      </trkpt>
      <trkpt lat="42.87591" lon="-2.54962">
        <ele>546.4</ele>
        <time>2021-05-29 06:50:45</time>
      </trkpt>
      <trkpt lat="42.87595" lon="-2.54957">
        <ele>546.4</ele>
        <time>2021-05-29 06:50:46</time>
      </trkpt>
      <trkpt lat="42.87598" lon="-2.54952">
        <ele>546.6</ele>
        <time>2021-05-29 06:50:47</time>
      </trkpt>
      <trkpt lat="42.87602" lon="-2.54946">
        <ele>546.8</ele>
        <time>2021-05-29 06:50:48</time>
      </trkpt>
      <trkpt lat="42.87605" lon="-2.5494">
        <ele>547.2</ele>
        <time>2021-05-29 06:50:49</time>
      </trkpt>
      <trkpt lat="42.87608" lon="-2.54934">
        <ele>547.4</ele>
        <time>2021-05-29 06:50:50</time>
      </trkpt>
      <trkpt lat="42.87612" lon="-2.54928">
        <ele>547.6</ele>
        <time>2021-05-29 06:50:51</time>
      </trkpt>
      <trkpt lat="42.87615" lon="-2.54922">
        <ele>547.8</ele>
        <time>2021-05-29 06:50:52</time>
      </trkpt>
      <trkpt lat="42.87618" lon="-2.54915">
        <ele>547.8</ele>
        <time>2021-05-29 06:50:53</time>
      </trkpt>
      <trkpt lat="42.87621" lon="-2.54908">
        <ele>548</ele>
        <time>2021-05-29 06:50:54</time>
      </trkpt>
      <trkpt lat="42.87624" lon="-2.54901">
        <ele>548.2</ele>
        <time>2021-05-29 06:50:55</time>
      </trkpt>
      <trkpt lat="42.87627" lon="-2.54894">
        <ele>548.4</ele>
        <time>2021-05-29 06:50:56</time>
      </trkpt>
      <trkpt lat="42.8763" lon="-2.54887">
        <ele>548.6</ele>
        <time>2021-05-29 06:50:57</time>
      </trkpt>
      <trkpt lat="42.87634" lon="-2.5488">
        <ele>548.8</ele>
        <time>2021-05-29 06:50:58</time>
      </trkpt>
      <trkpt lat="42.87637" lon="-2.54873">
        <ele>548.8</ele>
        <time>2021-05-29 06:50:59</time>
      </trkpt>
      <trkpt lat="42.8764" lon="-2.54866">
        <ele>549</ele>
        <time>2021-05-29 06:51:00</time>
      </trkpt>
      <trkpt lat="42.87643" lon="-2.5486">
        <ele>549.2</ele>
        <time>2021-05-29 06:51:01</time>
      </trkpt>
      <trkpt lat="42.87645" lon="-2.54853">
        <ele>549.4</ele>
        <time>2021-05-29 06:51:02</time>
      </trkpt>
      <trkpt lat="42.87648" lon="-2.54846">
        <ele>549.6</ele>
        <time>2021-05-29 06:51:03</time>
      </trkpt>
      <trkpt lat="42.87651" lon="-2.54839">
        <ele>549.6</ele>
        <time>2021-05-29 06:51:04</time>
      </trkpt>
      <trkpt lat="42.87653" lon="-2.54831">
        <ele>549.6</ele>
        <time>2021-05-29 06:51:05</time>
      </trkpt>
      <trkpt lat="42.87655" lon="-2.54824">
        <ele>549.6</ele>
        <time>2021-05-29 06:51:06</time>
      </trkpt>
      <trkpt lat="42.87657" lon="-2.54816">
        <ele>549.6</ele>
        <time>2021-05-29 06:51:07</time>
      </trkpt>
      <trkpt lat="42.87658" lon="-2.54808">
        <ele>549.8</ele>
        <time>2021-05-29 06:51:08</time>
      </trkpt>
      <trkpt lat="42.8766" lon="-2.548">
        <ele>549.8</ele>
        <time>2021-05-29 06:51:09</time>
      </trkpt>
      <trkpt lat="42.87661" lon="-2.54793">
        <ele>550</ele>
        <time>2021-05-29 06:51:10</time>
      </trkpt>
      <trkpt lat="42.87662" lon="-2.54785">
        <ele>550</ele>
        <time>2021-05-29 06:51:11</time>
      </trkpt>
      <trkpt lat="42.87663" lon="-2.54777">
        <ele>550.2</ele>
        <time>2021-05-29 06:51:12</time>
      </trkpt>
      <trkpt lat="42.87665" lon="-2.54768">
        <ele>550.4</ele>
        <time>2021-05-29 06:51:13</time>
      </trkpt>
      <trkpt lat="42.87669" lon="-2.54758">
        <ele>550.6</ele>
        <time>2021-05-29 06:51:14</time>
      </trkpt>
      <trkpt lat="42.87672" lon="-2.54749">
        <ele>550.8</ele>
        <time>2021-05-29 06:51:15</time>
      </trkpt>
      <trkpt lat="42.87677" lon="-2.54739">
        <ele>550.6</ele>
        <time>2021-05-29 06:51:16</time>
      </trkpt>
      <trkpt lat="42.8768" lon="-2.54729">
        <ele>550.8</ele>
        <time>2021-05-29 06:51:17</time>
      </trkpt>
      <trkpt lat="42.87682" lon="-2.54719">
        <ele>550.8</ele>
        <time>2021-05-29 06:51:18</time>
      </trkpt>
      <trkpt lat="42.87684" lon="-2.54709">
        <ele>550.8</ele>
        <time>2021-05-29 06:51:19</time>
      </trkpt>
      <trkpt lat="42.87685" lon="-2.54699">
        <ele>551</ele>
        <time>2021-05-29 06:51:20</time>
      </trkpt>
      <trkpt lat="42.87686" lon="-2.54689">
        <ele>551.2</ele>
        <time>2021-05-29 06:51:21</time>
      </trkpt>
      <trkpt lat="42.87688" lon="-2.5468">
        <ele>551.2</ele>
        <time>2021-05-29 06:51:22</time>
      </trkpt>
      <trkpt lat="42.87689" lon="-2.5467">
        <ele>551.4</ele>
        <time>2021-05-29 06:51:23</time>
      </trkpt>
      <trkpt lat="42.87691" lon="-2.5466">
        <ele>551.6</ele>
        <time>2021-05-29 06:51:24</time>
      </trkpt>
      <trkpt lat="42.87692" lon="-2.5465">
        <ele>551.8</ele>
        <time>2021-05-29 06:51:25</time>
      </trkpt>
      <trkpt lat="42.87694" lon="-2.54641">
        <ele>552</ele>
        <time>2021-05-29 06:51:26</time>
      </trkpt>
      <trkpt lat="42.87695" lon="-2.54631">
        <ele>552.2</ele>
        <time>2021-05-29 06:51:27</time>
      </trkpt>
      <trkpt lat="42.87697" lon="-2.54621">
        <ele>552.4</ele>
        <time>2021-05-29 06:51:28</time>
      </trkpt>
      <trkpt lat="42.87699" lon="-2.54611">
        <ele>552.6</ele>
        <time>2021-05-29 06:51:29</time>
      </trkpt>
      <trkpt lat="42.87701" lon="-2.54602">
        <ele>552.6</ele>
        <time>2021-05-29 06:51:30</time>
      </trkpt>
      <trkpt lat="42.87702" lon="-2.54592">
        <ele>552.6</ele>
        <time>2021-05-29 06:51:31</time>
      </trkpt>
      <trkpt lat="42.87704" lon="-2.54582">
        <ele>552.6</ele>
        <time>2021-05-29 06:51:32</time>
      </trkpt>
      <trkpt lat="42.87706" lon="-2.54572">
        <ele>552.6</ele>
        <time>2021-05-29 06:51:33</time>
      </trkpt>
      <trkpt lat="42.87708" lon="-2.54562">
        <ele>552.6</ele>
        <time>2021-05-29 06:51:34</time>
      </trkpt>
      <trkpt lat="42.87709" lon="-2.54551">
        <ele>552.6</ele>
        <time>2021-05-29 06:51:35</time>
      </trkpt>
      <trkpt lat="42.87711" lon="-2.54541">
        <ele>552.6</ele>
        <time>2021-05-29 06:51:36</time>
      </trkpt>
      <trkpt lat="42.87713" lon="-2.54531">
        <ele>552.6</ele>
        <time>2021-05-29 06:51:37</time>
      </trkpt>
      <trkpt lat="42.87715" lon="-2.5452">
        <ele>552.6</ele>
        <time>2021-05-29 06:51:38</time>
      </trkpt>
      <trkpt lat="42.87717" lon="-2.5451">
        <ele>552.6</ele>
        <time>2021-05-29 06:51:39</time>
      </trkpt>
      <trkpt lat="42.87719" lon="-2.545">
        <ele>552.6</ele>
        <time>2021-05-29 06:51:40</time>
      </trkpt>
      <trkpt lat="42.87721" lon="-2.54489">
        <ele>552.6</ele>
        <time>2021-05-29 06:51:41</time>
      </trkpt>
      <trkpt lat="42.87722" lon="-2.54479">
        <ele>552.6</ele>
        <time>2021-05-29 06:51:42</time>
      </trkpt>
      <trkpt lat="42.87724" lon="-2.54469">
        <ele>552.4</ele>
        <time>2021-05-29 06:51:43</time>
      </trkpt>
      <trkpt lat="42.87726" lon="-2.54459">
        <ele>552.4</ele>
        <time>2021-05-29 06:51:44</time>
      </trkpt>
      <trkpt lat="42.87728" lon="-2.54449">
        <ele>552</ele>
        <time>2021-05-29 06:51:45</time>
      </trkpt>
      <trkpt lat="42.8773" lon="-2.54438">
        <ele>551.8</ele>
        <time>2021-05-29 06:51:46</time>
      </trkpt>
      <trkpt lat="42.87732" lon="-2.54428">
        <ele>551.6</ele>
        <time>2021-05-29 06:51:47</time>
      </trkpt>
      <trkpt lat="42.87734" lon="-2.54418">
        <ele>551.6</ele>
        <time>2021-05-29 06:51:48</time>
      </trkpt>
      <trkpt lat="42.87735" lon="-2.54407">
        <ele>551.6</ele>
        <time>2021-05-29 06:51:49</time>
      </trkpt>
      <trkpt lat="42.87737" lon="-2.54397">
        <ele>551.4</ele>
        <time>2021-05-29 06:51:50</time>
      </trkpt>
      <trkpt lat="42.87739" lon="-2.54386">
        <ele>551.4</ele>
        <time>2021-05-29 06:51:51</time>
      </trkpt>
      <trkpt lat="42.87741" lon="-2.54375">
        <ele>551.4</ele>
        <time>2021-05-29 06:51:52</time>
      </trkpt>
      <trkpt lat="42.87742" lon="-2.54364">
        <ele>551.4</ele>
        <time>2021-05-29 06:51:53</time>
      </trkpt>
      <trkpt lat="42.87744" lon="-2.54353">
        <ele>551.4</ele>
        <time>2021-05-29 06:51:54</time>
      </trkpt>
      <trkpt lat="42.87745" lon="-2.54342">
        <ele>551.4</ele>
        <time>2021-05-29 06:51:55</time>
      </trkpt>
      <trkpt lat="42.87746" lon="-2.54331">
        <ele>551.4</ele>
        <time>2021-05-29 06:51:56</time>
      </trkpt>
      <trkpt lat="42.87748" lon="-2.54319">
        <ele>551.4</ele>
        <time>2021-05-29 06:51:57</time>
      </trkpt>
      <trkpt lat="42.87749" lon="-2.54308">
        <ele>551.4</ele>
        <time>2021-05-29 06:51:58</time>
      </trkpt>
      <trkpt lat="42.8775" lon="-2.54296">
        <ele>551.4</ele>
        <time>2021-05-29 06:51:59</time>
      </trkpt>
      <trkpt lat="42.87751" lon="-2.54284">
        <ele>551.4</ele>
        <time>2021-05-29 06:52:00</time>
      </trkpt>
      <trkpt lat="42.87751" lon="-2.54271">
        <ele>551.4</ele>
        <time>2021-05-29 06:52:01</time>
      </trkpt>
      <trkpt lat="42.87752" lon="-2.54259">
        <ele>551.2</ele>
        <time>2021-05-29 06:52:02</time>
      </trkpt>
      <trkpt lat="42.87752" lon="-2.54247">
        <ele>551</ele>
        <time>2021-05-29 06:52:03</time>
      </trkpt>
      <trkpt lat="42.87753" lon="-2.54234">
        <ele>551</ele>
        <time>2021-05-29 06:52:04</time>
      </trkpt>
      <trkpt lat="42.87753" lon="-2.54221">
        <ele>551</ele>
        <time>2021-05-29 06:52:05</time>
      </trkpt>
      <trkpt lat="42.87754" lon="-2.54208">
        <ele>551</ele>
        <time>2021-05-29 06:52:06</time>
      </trkpt>
      <trkpt lat="42.87755" lon="-2.54195">
        <ele>550.8</ele>
        <time>2021-05-29 06:52:07</time>
      </trkpt>
      <trkpt lat="42.87755" lon="-2.54182">
        <ele>550.8</ele>
        <time>2021-05-29 06:52:08</time>
      </trkpt>
      <trkpt lat="42.87756" lon="-2.54169">
        <ele>550.6</ele>
        <time>2021-05-29 06:52:09</time>
      </trkpt>
      <trkpt lat="42.87757" lon="-2.54156">
        <ele>550.4</ele>
        <time>2021-05-29 06:52:10</time>
      </trkpt>
      <trkpt lat="42.87758" lon="-2.54143">
        <ele>550.4</ele>
        <time>2021-05-29 06:52:11</time>
      </trkpt>
      <trkpt lat="42.87759" lon="-2.5413">
        <ele>550</ele>
        <time>2021-05-29 06:52:12</time>
      </trkpt>
      <trkpt lat="42.8776" lon="-2.54117">
        <ele>549.8</ele>
        <time>2021-05-29 06:52:13</time>
      </trkpt>
      <trkpt lat="42.87761" lon="-2.54104">
        <ele>549.6</ele>
        <time>2021-05-29 06:52:14</time>
      </trkpt>
      <trkpt lat="42.87761" lon="-2.54091">
        <ele>549.6</ele>
        <time>2021-05-29 06:52:15</time>
      </trkpt>
      <trkpt lat="42.87762" lon="-2.54079">
        <ele>549.2</ele>
        <time>2021-05-29 06:52:16</time>
      </trkpt>
      <trkpt lat="42.87762" lon="-2.54067">
        <ele>549</ele>
        <time>2021-05-29 06:52:17</time>
      </trkpt>
      <trkpt lat="42.87762" lon="-2.54055">
        <ele>548.8</ele>
        <time>2021-05-29 06:52:18</time>
      </trkpt>
      <trkpt lat="42.87763" lon="-2.54044">
        <ele>548.8</ele>
        <time>2021-05-29 06:52:19</time>
      </trkpt>
      <trkpt lat="42.87763" lon="-2.54032">
        <ele>548.6</ele>
        <time>2021-05-29 06:52:20</time>
      </trkpt>
      <trkpt lat="42.87764" lon="-2.54021">
        <ele>548.4</ele>
        <time>2021-05-29 06:52:21</time>
      </trkpt>
      <trkpt lat="42.87764" lon="-2.5401">
        <ele>548.4</ele>
        <time>2021-05-29 06:52:22</time>
      </trkpt>
      <trkpt lat="42.87765" lon="-2.54">
        <ele>548.2</ele>
        <time>2021-05-29 06:52:23</time>
      </trkpt>
      <trkpt lat="42.87765" lon="-2.5399">
        <ele>548</ele>
        <time>2021-05-29 06:52:24</time>
      </trkpt>
      <trkpt lat="42.87765" lon="-2.53981">
        <ele>547.8</ele>
        <time>2021-05-29 06:52:25</time>
      </trkpt>
      <trkpt lat="42.87762" lon="-2.53972">
        <ele>547.6</ele>
        <time>2021-05-29 06:52:26</time>
      </trkpt>
      <trkpt lat="42.87757" lon="-2.53966">
        <ele>547.6</ele>
        <time>2021-05-29 06:52:27</time>
      </trkpt>
      <trkpt lat="42.8775" lon="-2.53963">
        <ele>547.4</ele>
        <time>2021-05-29 06:52:28</time>
      </trkpt>
      <trkpt lat="42.87743" lon="-2.53963">
        <ele>547.4</ele>
        <time>2021-05-29 06:52:29</time>
      </trkpt>
      <trkpt lat="42.87736" lon="-2.53966">
        <ele>547.4</ele>
        <time>2021-05-29 06:52:30</time>
      </trkpt>
      <trkpt lat="42.87729" lon="-2.53969">
        <ele>547.4</ele>
        <time>2021-05-29 06:52:31</time>
      </trkpt>
      <trkpt lat="42.87722" lon="-2.53971">
        <ele>547.2</ele>
        <time>2021-05-29 06:52:32</time>
      </trkpt>
      <trkpt lat="42.87715" lon="-2.53973">
        <ele>547</ele>
        <time>2021-05-29 06:52:33</time>
      </trkpt>
      <trkpt lat="42.87708" lon="-2.53975">
        <ele>547</ele>
        <time>2021-05-29 06:52:34</time>
      </trkpt>
      <trkpt lat="42.87701" lon="-2.53978">
        <ele>547</ele>
        <time>2021-05-29 06:52:35</time>
      </trkpt>
      <trkpt lat="42.87694" lon="-2.5398">
        <ele>547</ele>
        <time>2021-05-29 06:52:36</time>
      </trkpt>
      <trkpt lat="42.87687" lon="-2.53982">
        <ele>547</ele>
        <time>2021-05-29 06:52:37</time>
      </trkpt>
      <trkpt lat="42.8768" lon="-2.53984">
        <ele>547</ele>
        <time>2021-05-29 06:52:38</time>
      </trkpt>
      <trkpt lat="42.87673" lon="-2.53986">
        <ele>547</ele>
        <time>2021-05-29 06:52:39</time>
      </trkpt>
      <trkpt lat="42.87667" lon="-2.53988">
        <ele>547</ele>
        <time>2021-05-29 06:52:40</time>
      </trkpt>
      <trkpt lat="42.87661" lon="-2.53989">
        <ele>547</ele>
        <time>2021-05-29 06:52:41</time>
      </trkpt>
      <trkpt lat="42.87654" lon="-2.53991">
        <ele>547</ele>
        <time>2021-05-29 06:52:42</time>
      </trkpt>
      <trkpt lat="42.87649" lon="-2.53992">
        <ele>547</ele>
        <time>2021-05-29 06:52:43</time>
      </trkpt>
      <trkpt lat="42.87643" lon="-2.53994">
        <ele>547</ele>
        <time>2021-05-29 06:52:44</time>
      </trkpt>
      <trkpt lat="42.87638" lon="-2.53996">
        <ele>547</ele>
        <time>2021-05-29 06:52:45</time>
      </trkpt>
      <trkpt lat="42.87633" lon="-2.53999">
        <ele>547.2</ele>
        <time>2021-05-29 06:52:46</time>
      </trkpt>
      <trkpt lat="42.87628" lon="-2.54001">
        <ele>547.4</ele>
        <time>2021-05-29 06:52:47</time>
      </trkpt>
      <trkpt lat="42.87623" lon="-2.54002">
        <ele>547.6</ele>
        <time>2021-05-29 06:52:48</time>
      </trkpt>
      <trkpt lat="42.87617" lon="-2.54004">
        <ele>547.8</ele>
        <time>2021-05-29 06:52:49</time>
      </trkpt>
      <trkpt lat="42.87612" lon="-2.54005">
        <ele>548</ele>
        <time>2021-05-29 06:52:50</time>
      </trkpt>
      <trkpt lat="42.87606" lon="-2.54004">
        <ele>548.2</ele>
        <time>2021-05-29 06:52:51</time>
      </trkpt>
      <trkpt lat="42.87601" lon="-2.54001">
        <ele>548.6</ele>
        <time>2021-05-29 06:52:52</time>
      </trkpt>
      <trkpt lat="42.87597" lon="-2.53996">
        <ele>548.8</ele>
        <time>2021-05-29 06:52:53</time>
      </trkpt>
      <trkpt lat="42.87594" lon="-2.53989">
        <ele>549</ele>
        <time>2021-05-29 06:52:54</time>
      </trkpt>
      <trkpt lat="42.87593" lon="-2.53981">
        <ele>549.2</ele>
        <time>2021-05-29 06:52:55</time>
      </trkpt>
      <trkpt lat="42.87593" lon="-2.53972">
        <ele>549.4</ele>
        <time>2021-05-29 06:52:56</time>
      </trkpt>
      <trkpt lat="42.87593" lon="-2.53963">
        <ele>549.6</ele>
        <time>2021-05-29 06:52:57</time>
      </trkpt>
      <trkpt lat="42.87594" lon="-2.53954">
        <ele>549.8</ele>
        <time>2021-05-29 06:52:58</time>
      </trkpt>
      <trkpt lat="42.87595" lon="-2.53945">
        <ele>550.4</ele>
        <time>2021-05-29 06:52:59</time>
      </trkpt>
      <trkpt lat="42.87595" lon="-2.53936">
        <ele>550.6</ele>
        <time>2021-05-29 06:53:00</time>
      </trkpt>
      <trkpt lat="42.87596" lon="-2.53927">
        <ele>551.2</ele>
        <time>2021-05-29 06:53:01</time>
      </trkpt>
      <trkpt lat="42.87597" lon="-2.53917">
        <ele>551.2</ele>
        <time>2021-05-29 06:53:02</time>
      </trkpt>
      <trkpt lat="42.87598" lon="-2.53908">
        <ele>551.4</ele>
        <time>2021-05-29 06:53:03</time>
      </trkpt>
      <trkpt lat="42.87599" lon="-2.53899">
        <ele>551.8</ele>
        <time>2021-05-29 06:53:04</time>
      </trkpt>
      <trkpt lat="42.876" lon="-2.5389">
        <ele>551.8</ele>
        <time>2021-05-29 06:53:05</time>
      </trkpt>
      <trkpt lat="42.876" lon="-2.53881">
        <ele>552</ele>
        <time>2021-05-29 06:53:06</time>
      </trkpt>
      <trkpt lat="42.87601" lon="-2.53872">
        <ele>552.4</ele>
        <time>2021-05-29 06:53:07</time>
      </trkpt>
      <trkpt lat="42.87602" lon="-2.53862">
        <ele>552.6</ele>
        <time>2021-05-29 06:53:08</time>
      </trkpt>
      <trkpt lat="42.87604" lon="-2.53853">
        <ele>552.6</ele>
        <time>2021-05-29 06:53:09</time>
      </trkpt>
      <trkpt lat="42.87605" lon="-2.53843">
        <ele>553</ele>
        <time>2021-05-29 06:53:10</time>
      </trkpt>
      <trkpt lat="42.87606" lon="-2.53834">
        <ele>553</ele>
        <time>2021-05-29 06:53:11</time>
      </trkpt>
      <trkpt lat="42.87607" lon="-2.53824">
        <ele>553.2</ele>
        <time>2021-05-29 06:53:12</time>
      </trkpt>
      <trkpt lat="42.87608" lon="-2.53814">
        <ele>553</ele>
        <time>2021-05-29 06:53:13</time>
      </trkpt>
      <trkpt lat="42.8761" lon="-2.53805">
        <ele>553.2</ele>
        <time>2021-05-29 06:53:14</time>
      </trkpt>
      <trkpt lat="42.87611" lon="-2.53795">
        <ele>553</ele>
        <time>2021-05-29 06:53:15</time>
      </trkpt>
      <trkpt lat="42.87613" lon="-2.53785">
        <ele>553.2</ele>
        <time>2021-05-29 06:53:16</time>
      </trkpt>
      <trkpt lat="42.87614" lon="-2.53775">
        <ele>553.2</ele>
        <time>2021-05-29 06:53:17</time>
      </trkpt>
      <trkpt lat="42.87615" lon="-2.53766">
        <ele>553.2</ele>
        <time>2021-05-29 06:53:18</time>
      </trkpt>
      <trkpt lat="42.87617" lon="-2.53756">
        <ele>553.2</ele>
        <time>2021-05-29 06:53:19</time>
      </trkpt>
      <trkpt lat="42.87618" lon="-2.53746">
        <ele>553.4</ele>
        <time>2021-05-29 06:53:20</time>
      </trkpt>
      <trkpt lat="42.8762" lon="-2.53737">
        <ele>553.4</ele>
        <time>2021-05-29 06:53:21</time>
      </trkpt>
      <trkpt lat="42.87621" lon="-2.53727">
        <ele>553.4</ele>
        <time>2021-05-29 06:53:22</time>
      </trkpt>
      <trkpt lat="42.87622" lon="-2.53717">
        <ele>553.4</ele>
        <time>2021-05-29 06:53:23</time>
      </trkpt>
      <trkpt lat="42.87623" lon="-2.53708">
        <ele>553.4</ele>
        <time>2021-05-29 06:53:24</time>
      </trkpt>
      <trkpt lat="42.87625" lon="-2.53698">
        <ele>553.6</ele>
        <time>2021-05-29 06:53:25</time>
      </trkpt>
      <trkpt lat="42.87626" lon="-2.53689">
        <ele>553.6</ele>
        <time>2021-05-29 06:53:26</time>
      </trkpt>
      <trkpt lat="42.87627" lon="-2.5368">
        <ele>553.6</ele>
        <time>2021-05-29 06:53:27</time>
      </trkpt>
      <trkpt lat="42.87628" lon="-2.5367">
        <ele>553.6</ele>
        <time>2021-05-29 06:53:28</time>
      </trkpt>
      <trkpt lat="42.87629" lon="-2.53662">
        <ele>553.6</ele>
        <time>2021-05-29 06:53:29</time>
      </trkpt>
      <trkpt lat="42.8763" lon="-2.53653">
        <ele>553.8</ele>
        <time>2021-05-29 06:53:30</time>
      </trkpt>
      <trkpt lat="42.87631" lon="-2.53644">
        <ele>553.8</ele>
        <time>2021-05-29 06:53:31</time>
      </trkpt>
      <trkpt lat="42.87632" lon="-2.53635">
        <ele>554</ele>
        <time>2021-05-29 06:53:32</time>
      </trkpt>
      <trkpt lat="42.87632" lon="-2.53626">
        <ele>554.2</ele>
        <time>2021-05-29 06:53:33</time>
      </trkpt>
      <trkpt lat="42.87633" lon="-2.53618">
        <ele>554.2</ele>
        <time>2021-05-29 06:53:34</time>
      </trkpt>
      <trkpt lat="42.87634" lon="-2.53609">
        <ele>554.4</ele>
        <time>2021-05-29 06:53:35</time>
      </trkpt>
      <trkpt lat="42.87635" lon="-2.53601">
        <ele>554.6</ele>
        <time>2021-05-29 06:53:36</time>
      </trkpt>
      <trkpt lat="42.87635" lon="-2.53592">
        <ele>554.8</ele>
        <time>2021-05-29 06:53:37</time>
      </trkpt>
      <trkpt lat="42.87636" lon="-2.53584">
        <ele>555</ele>
        <time>2021-05-29 06:53:38</time>
      </trkpt>
      <trkpt lat="42.87636" lon="-2.53576">
        <ele>555.2</ele>
        <time>2021-05-29 06:53:39</time>
      </trkpt>
      <trkpt lat="42.87637" lon="-2.53568">
        <ele>555.4</ele>
        <time>2021-05-29 06:53:40</time>
      </trkpt>
      <trkpt lat="42.87637" lon="-2.5356">
        <ele>555.4</ele>
        <time>2021-05-29 06:53:41</time>
      </trkpt>
      <trkpt lat="42.87638" lon="-2.53553">
        <ele>555.6</ele>
        <time>2021-05-29 06:53:42</time>
      </trkpt>
      <trkpt lat="42.87638" lon="-2.53545">
        <ele>555.8</ele>
        <time>2021-05-29 06:53:43</time>
      </trkpt>
      <trkpt lat="42.87638" lon="-2.53537">
        <ele>556.2</ele>
        <time>2021-05-29 06:53:44</time>
      </trkpt>
      <trkpt lat="42.87639" lon="-2.53529">
        <ele>556.4</ele>
        <time>2021-05-29 06:53:45</time>
      </trkpt>
      <trkpt lat="42.87639" lon="-2.53521">
        <ele>557.2</ele>
        <time>2021-05-29 06:53:46</time>
      </trkpt>
      <trkpt lat="42.8764" lon="-2.53514">
        <ele>557.4</ele>
        <time>2021-05-29 06:53:47</time>
      </trkpt>
      <trkpt lat="42.8764" lon="-2.53507">
        <ele>557.6</ele>
        <time>2021-05-29 06:53:48</time>
      </trkpt>
      <trkpt lat="42.8764" lon="-2.53499">
        <ele>557.8</ele>
        <time>2021-05-29 06:53:49</time>
      </trkpt>
      <trkpt lat="42.87641" lon="-2.53492">
        <ele>558.2</ele>
        <time>2021-05-29 06:53:50</time>
      </trkpt>
      <trkpt lat="42.87641" lon="-2.53484">
        <ele>558.4</ele>
        <time>2021-05-29 06:53:51</time>
      </trkpt>
      <trkpt lat="42.87642" lon="-2.53477">
        <ele>558.6</ele>
        <time>2021-05-29 06:53:52</time>
      </trkpt>
      <trkpt lat="42.87642" lon="-2.53469">
        <ele>559</ele>
        <time>2021-05-29 06:53:53</time>
      </trkpt>
      <trkpt lat="42.87642" lon="-2.53461">
        <ele>559</ele>
        <time>2021-05-29 06:53:54</time>
      </trkpt>
      <trkpt lat="42.87643" lon="-2.53453">
        <ele>559.2</ele>
        <time>2021-05-29 06:53:55</time>
      </trkpt>
      <trkpt lat="42.87644" lon="-2.53445">
        <ele>559.6</ele>
        <time>2021-05-29 06:53:56</time>
      </trkpt>
      <trkpt lat="42.87644" lon="-2.53436">
        <ele>560</ele>
        <time>2021-05-29 06:53:57</time>
      </trkpt>
      <trkpt lat="42.87645" lon="-2.53428">
        <ele>560.4</ele>
        <time>2021-05-29 06:53:58</time>
      </trkpt>
      <trkpt lat="42.87646" lon="-2.5342">
        <ele>560.6</ele>
        <time>2021-05-29 06:53:59</time>
      </trkpt>
      <trkpt lat="42.87647" lon="-2.53411">
        <ele>560.8</ele>
        <time>2021-05-29 06:54:00</time>
      </trkpt>
      <trkpt lat="42.87648" lon="-2.53402">
        <ele>561</ele>
        <time>2021-05-29 06:54:01</time>
      </trkpt>
      <trkpt lat="42.87649" lon="-2.53394">
        <ele>561.2</ele>
        <time>2021-05-29 06:54:02</time>
      </trkpt>
      <trkpt lat="42.8765" lon="-2.53385">
        <ele>561.4</ele>
        <time>2021-05-29 06:54:03</time>
      </trkpt>
      <trkpt lat="42.87651" lon="-2.53376">
        <ele>561.6</ele>
        <time>2021-05-29 06:54:04</time>
      </trkpt>
      <trkpt lat="42.87652" lon="-2.53367">
        <ele>561.8</ele>
        <time>2021-05-29 06:54:05</time>
      </trkpt>
      <trkpt lat="42.87653" lon="-2.53357">
        <ele>562</ele>
        <time>2021-05-29 06:54:06</time>
      </trkpt>
      <trkpt lat="42.87655" lon="-2.53348">
        <ele>562.2</ele>
        <time>2021-05-29 06:54:07</time>
      </trkpt>
      <trkpt lat="42.87656" lon="-2.53338">
        <ele>562.4</ele>
        <time>2021-05-29 06:54:08</time>
      </trkpt>
      <trkpt lat="42.87658" lon="-2.53329">
        <ele>562.6</ele>
        <time>2021-05-29 06:54:09</time>
      </trkpt>
      <trkpt lat="42.8766" lon="-2.53319">
        <ele>562.8</ele>
        <time>2021-05-29 06:54:10</time>
      </trkpt>
      <trkpt lat="42.87661" lon="-2.53309">
        <ele>563</ele>
        <time>2021-05-29 06:54:11</time>
      </trkpt>
      <trkpt lat="42.87663" lon="-2.53299">
        <ele>563.2</ele>
        <time>2021-05-29 06:54:12</time>
      </trkpt>
      <trkpt lat="42.87665" lon="-2.53289">
        <ele>563.2</ele>
        <time>2021-05-29 06:54:13</time>
      </trkpt>
      <trkpt lat="42.87668" lon="-2.53278">
        <ele>563.2</ele>
        <time>2021-05-29 06:54:14</time>
      </trkpt>
      <trkpt lat="42.8767" lon="-2.53267">
        <ele>563.4</ele>
        <time>2021-05-29 06:54:15</time>
      </trkpt>
      <trkpt lat="42.87672" lon="-2.53256">
        <ele>563.4</ele>
        <time>2021-05-29 06:54:16</time>
      </trkpt>
      <trkpt lat="42.87675" lon="-2.53246">
        <ele>563.4</ele>
        <time>2021-05-29 06:54:17</time>
      </trkpt>
      <trkpt lat="42.87678" lon="-2.53234">
        <ele>563.4</ele>
        <time>2021-05-29 06:54:18</time>
      </trkpt>
      <trkpt lat="42.8768" lon="-2.53223">
        <ele>563.4</ele>
        <time>2021-05-29 06:54:19</time>
      </trkpt>
      <trkpt lat="42.87683" lon="-2.53211">
        <ele>563.4</ele>
        <time>2021-05-29 06:54:20</time>
      </trkpt>
      <trkpt lat="42.87686" lon="-2.53199">
        <ele>563.4</ele>
        <time>2021-05-29 06:54:21</time>
      </trkpt>
      <trkpt lat="42.87689" lon="-2.53186">
        <ele>563.4</ele>
        <time>2021-05-29 06:54:22</time>
      </trkpt>
      <trkpt lat="42.87692" lon="-2.53174">
        <ele>563.4</ele>
        <time>2021-05-29 06:54:23</time>
      </trkpt>
      <trkpt lat="42.87695" lon="-2.53161">
        <ele>563.4</ele>
        <time>2021-05-29 06:54:24</time>
      </trkpt>
      <trkpt lat="42.87698" lon="-2.53148">
        <ele>563.2</ele>
        <time>2021-05-29 06:54:25</time>
      </trkpt>
      <trkpt lat="42.87701" lon="-2.53135">
        <ele>563.2</ele>
        <time>2021-05-29 06:54:26</time>
      </trkpt>
      <trkpt lat="42.87704" lon="-2.53121">
        <ele>563</ele>
        <time>2021-05-29 06:54:27</time>
      </trkpt>
      <trkpt lat="42.87706" lon="-2.53108">
        <ele>562.8</ele>
        <time>2021-05-29 06:54:28</time>
      </trkpt>
      <trkpt lat="42.87709" lon="-2.53094">
        <ele>562.6</ele>
        <time>2021-05-29 06:54:29</time>
      </trkpt>
      <trkpt lat="42.87712" lon="-2.5308">
        <ele>562.2</ele>
        <time>2021-05-29 06:54:30</time>
      </trkpt>
      <trkpt lat="42.87715" lon="-2.53065">
        <ele>562</ele>
        <time>2021-05-29 06:54:31</time>
      </trkpt>
      <trkpt lat="42.87718" lon="-2.53051">
        <ele>561.8</ele>
        <time>2021-05-29 06:54:32</time>
      </trkpt>
      <trkpt lat="42.8772" lon="-2.53037">
        <ele>561.6</ele>
        <time>2021-05-29 06:54:33</time>
      </trkpt>
      <trkpt lat="42.87723" lon="-2.53022">
        <ele>561.4</ele>
        <time>2021-05-29 06:54:34</time>
      </trkpt>
      <trkpt lat="42.87725" lon="-2.53008">
        <ele>561.2</ele>
        <time>2021-05-29 06:54:35</time>
      </trkpt>
      <trkpt lat="42.87727" lon="-2.52993">
        <ele>561</ele>
        <time>2021-05-29 06:54:36</time>
      </trkpt>
      <trkpt lat="42.8773" lon="-2.52979">
        <ele>560.6</ele>
        <time>2021-05-29 06:54:37</time>
      </trkpt>
      <trkpt lat="42.87732" lon="-2.52964">
        <ele>560.2</ele>
        <time>2021-05-29 06:54:38</time>
      </trkpt>
      <trkpt lat="42.87734" lon="-2.5295">
        <ele>559.8</ele>
        <time>2021-05-29 06:54:39</time>
      </trkpt>
      <trkpt lat="42.87736" lon="-2.52935">
        <ele>559.4</ele>
        <time>2021-05-29 06:54:40</time>
      </trkpt>
      <trkpt lat="42.87738" lon="-2.52921">
        <ele>559</ele>
        <time>2021-05-29 06:54:41</time>
      </trkpt>
      <trkpt lat="42.87739" lon="-2.52907">
        <ele>558.6</ele>
        <time>2021-05-29 06:54:42</time>
      </trkpt>
      <trkpt lat="42.87741" lon="-2.52893">
        <ele>558.4</ele>
        <time>2021-05-29 06:54:43</time>
      </trkpt>
      <trkpt lat="42.87743" lon="-2.52879">
        <ele>558</ele>
        <time>2021-05-29 06:54:44</time>
      </trkpt>
      <trkpt lat="42.87745" lon="-2.52865">
        <ele>557.8</ele>
        <time>2021-05-29 06:54:45</time>
      </trkpt>
      <trkpt lat="42.87747" lon="-2.52851">
        <ele>557.8</ele>
        <time>2021-05-29 06:54:46</time>
      </trkpt>
      <trkpt lat="42.87749" lon="-2.52838">
        <ele>557.4</ele>
        <time>2021-05-29 06:54:47</time>
      </trkpt>
      <trkpt lat="42.87751" lon="-2.52824">
        <ele>557</ele>
        <time>2021-05-29 06:54:48</time>
      </trkpt>
      <trkpt lat="42.87754" lon="-2.5281">
        <ele>556.8</ele>
        <time>2021-05-29 06:54:49</time>
      </trkpt>
      <trkpt lat="42.87756" lon="-2.52797">
        <ele>556.8</ele>
        <time>2021-05-29 06:54:50</time>
      </trkpt>
      <trkpt lat="42.87758" lon="-2.52783">
        <ele>556.4</ele>
        <time>2021-05-29 06:54:51</time>
      </trkpt>
      <trkpt lat="42.8776" lon="-2.5277">
        <ele>556.4</ele>
        <time>2021-05-29 06:54:52</time>
      </trkpt>
      <trkpt lat="42.87762" lon="-2.52757">
        <ele>556.4</ele>
        <time>2021-05-29 06:54:53</time>
      </trkpt>
      <trkpt lat="42.87764" lon="-2.52743">
        <ele>556.2</ele>
        <time>2021-05-29 06:54:54</time>
      </trkpt>
      <trkpt lat="42.87766" lon="-2.5273">
        <ele>555.8</ele>
        <time>2021-05-29 06:54:55</time>
      </trkpt>
      <trkpt lat="42.87768" lon="-2.52717">
        <ele>555.6</ele>
        <time>2021-05-29 06:54:56</time>
      </trkpt>
      <trkpt lat="42.8777" lon="-2.52704">
        <ele>555.6</ele>
        <time>2021-05-29 06:54:57</time>
      </trkpt>
      <trkpt lat="42.87772" lon="-2.52691">
        <ele>555.6</ele>
        <time>2021-05-29 06:54:58</time>
      </trkpt>
      <trkpt lat="42.87773" lon="-2.52678">
        <ele>555.4</ele>
        <time>2021-05-29 06:54:59</time>
      </trkpt>
      <trkpt lat="42.87775" lon="-2.52665">
        <ele>555.4</ele>
        <time>2021-05-29 06:55:00</time>
      </trkpt>
      <trkpt lat="42.87776" lon="-2.52652">
        <ele>555.4</ele>
        <time>2021-05-29 06:55:01</time>
      </trkpt>
      <trkpt lat="42.87778" lon="-2.52639">
        <ele>555.2</ele>
        <time>2021-05-29 06:55:02</time>
      </trkpt>
      <trkpt lat="42.87779" lon="-2.52626">
        <ele>555.2</ele>
        <time>2021-05-29 06:55:03</time>
      </trkpt>
      <trkpt lat="42.87781" lon="-2.52613">
        <ele>555.2</ele>
        <time>2021-05-29 06:55:04</time>
      </trkpt>
      <trkpt lat="42.87783" lon="-2.52601">
        <ele>555.2</ele>
        <time>2021-05-29 06:55:05</time>
      </trkpt>
      <trkpt lat="42.87784" lon="-2.52588">
        <ele>555.2</ele>
        <time>2021-05-29 06:55:06</time>
      </trkpt>
      <trkpt lat="42.87786" lon="-2.52575">
        <ele>555</ele>
        <time>2021-05-29 06:55:07</time>
      </trkpt>
      <trkpt lat="42.87788" lon="-2.52563">
        <ele>555</ele>
        <time>2021-05-29 06:55:08</time>
      </trkpt>
      <trkpt lat="42.8779" lon="-2.5255">
        <ele>555</ele>
        <time>2021-05-29 06:55:09</time>
      </trkpt>
      <trkpt lat="42.87791" lon="-2.52537">
        <ele>555</ele>
        <time>2021-05-29 06:55:10</time>
      </trkpt>
      <trkpt lat="42.87793" lon="-2.52525">
        <ele>555</ele>
        <time>2021-05-29 06:55:11</time>
      </trkpt>
      <trkpt lat="42.87795" lon="-2.52512">
        <ele>555</ele>
        <time>2021-05-29 06:55:12</time>
      </trkpt>
      <trkpt lat="42.87797" lon="-2.52499">
        <ele>555</ele>
        <time>2021-05-29 06:55:13</time>
      </trkpt>
      <trkpt lat="42.87798" lon="-2.52487">
        <ele>555</ele>
        <time>2021-05-29 06:55:14</time>
      </trkpt>
      <trkpt lat="42.878" lon="-2.52474">
        <ele>555</ele>
        <time>2021-05-29 06:55:15</time>
      </trkpt>
      <trkpt lat="42.87802" lon="-2.52461">
        <ele>554.8</ele>
        <time>2021-05-29 06:55:16</time>
      </trkpt>
      <trkpt lat="42.87803" lon="-2.52449">
        <ele>554.8</ele>
        <time>2021-05-29 06:55:17</time>
      </trkpt>
      <trkpt lat="42.87805" lon="-2.52436">
        <ele>554.8</ele>
        <time>2021-05-29 06:55:18</time>
      </trkpt>
      <trkpt lat="42.87807" lon="-2.52424">
        <ele>554.8</ele>
        <time>2021-05-29 06:55:19</time>
      </trkpt>
      <trkpt lat="42.87808" lon="-2.52412">
        <ele>554.8</ele>
        <time>2021-05-29 06:55:20</time>
      </trkpt>
      <trkpt lat="42.8781" lon="-2.52399">
        <ele>554.8</ele>
        <time>2021-05-29 06:55:21</time>
      </trkpt>
      <trkpt lat="42.87811" lon="-2.52387">
        <ele>554.8</ele>
        <time>2021-05-29 06:55:22</time>
      </trkpt>
      <trkpt lat="42.87812" lon="-2.52375">
        <ele>554.8</ele>
        <time>2021-05-29 06:55:23</time>
      </trkpt>
      <trkpt lat="42.87814" lon="-2.52362">
        <ele>554.8</ele>
        <time>2021-05-29 06:55:24</time>
      </trkpt>
      <trkpt lat="42.87815" lon="-2.5235">
        <ele>554.8</ele>
        <time>2021-05-29 06:55:25</time>
      </trkpt>
      <trkpt lat="42.87816" lon="-2.52338">
        <ele>554.8</ele>
        <time>2021-05-29 06:55:26</time>
      </trkpt>
      <trkpt lat="42.87817" lon="-2.52326">
        <ele>554.8</ele>
        <time>2021-05-29 06:55:27</time>
      </trkpt>
      <trkpt lat="42.87819" lon="-2.52313">
        <ele>554.6</ele>
        <time>2021-05-29 06:55:28</time>
      </trkpt>
      <trkpt lat="42.8782" lon="-2.52301">
        <ele>554.6</ele>
        <time>2021-05-29 06:55:29</time>
      </trkpt>
      <trkpt lat="42.87821" lon="-2.52289">
        <ele>554.6</ele>
        <time>2021-05-29 06:55:30</time>
      </trkpt>
      <trkpt lat="42.87822" lon="-2.52277">
        <ele>554.6</ele>
        <time>2021-05-29 06:55:31</time>
      </trkpt>
      <trkpt lat="42.87824" lon="-2.52265">
        <ele>554.8</ele>
        <time>2021-05-29 06:55:32</time>
      </trkpt>
      <trkpt lat="42.87825" lon="-2.52253">
        <ele>554.8</ele>
        <time>2021-05-29 06:55:33</time>
      </trkpt>
      <trkpt lat="42.87825" lon="-2.5224">
        <ele>554.8</ele>
        <time>2021-05-29 06:55:34</time>
      </trkpt>
      <trkpt lat="42.87826" lon="-2.52228">
        <ele>554.8</ele>
        <time>2021-05-29 06:55:35</time>
      </trkpt>
      <trkpt lat="42.87827" lon="-2.52216">
        <ele>554.8</ele>
        <time>2021-05-29 06:55:36</time>
      </trkpt>
      <trkpt lat="42.87828" lon="-2.52204">
        <ele>554.8</ele>
        <time>2021-05-29 06:55:37</time>
      </trkpt>
      <trkpt lat="42.87829" lon="-2.52192">
        <ele>554.8</ele>
        <time>2021-05-29 06:55:38</time>
      </trkpt>
      <trkpt lat="42.8783" lon="-2.5218">
        <ele>554.8</ele>
        <time>2021-05-29 06:55:39</time>
      </trkpt>
      <trkpt lat="42.8783" lon="-2.52168">
        <ele>554.8</ele>
        <time>2021-05-29 06:55:40</time>
      </trkpt>
      <trkpt lat="42.87831" lon="-2.52156">
        <ele>554.8</ele>
        <time>2021-05-29 06:55:41</time>
      </trkpt>
      <trkpt lat="42.87831" lon="-2.52144">
        <ele>555</ele>
        <time>2021-05-29 06:55:42</time>
      </trkpt>
      <trkpt lat="42.87831" lon="-2.52131">
        <ele>555</ele>
        <time>2021-05-29 06:55:43</time>
      </trkpt>
      <trkpt lat="42.8783" lon="-2.5212">
        <ele>555</ele>
        <time>2021-05-29 06:55:44</time>
      </trkpt>
      <trkpt lat="42.87829" lon="-2.52108">
        <ele>555</ele>
        <time>2021-05-29 06:55:45</time>
      </trkpt>
      <trkpt lat="42.87828" lon="-2.52097">
        <ele>555</ele>
        <time>2021-05-29 06:55:46</time>
      </trkpt>
      <trkpt lat="42.87826" lon="-2.52085">
        <ele>555</ele>
        <time>2021-05-29 06:55:47</time>
      </trkpt>
      <trkpt lat="42.87825" lon="-2.52074">
        <ele>555</ele>
        <time>2021-05-29 06:55:48</time>
      </trkpt>
      <trkpt lat="42.87823" lon="-2.52063">
        <ele>555</ele>
        <time>2021-05-29 06:55:49</time>
      </trkpt>
      <trkpt lat="42.87821" lon="-2.52052">
        <ele>555</ele>
        <time>2021-05-29 06:55:50</time>
      </trkpt>
      <trkpt lat="42.87819" lon="-2.52041">
        <ele>555</ele>
        <time>2021-05-29 06:55:51</time>
      </trkpt>
      <trkpt lat="42.87817" lon="-2.5203">
        <ele>555</ele>
        <time>2021-05-29 06:55:52</time>
      </trkpt>
      <trkpt lat="42.87814" lon="-2.52019">
        <ele>555</ele>
        <time>2021-05-29 06:55:53</time>
      </trkpt>
      <trkpt lat="42.87812" lon="-2.52008">
        <ele>555</ele>
        <time>2021-05-29 06:55:54</time>
      </trkpt>
      <trkpt lat="42.8781" lon="-2.51997">
        <ele>555</ele>
        <time>2021-05-29 06:55:55</time>
      </trkpt>
      <trkpt lat="42.87808" lon="-2.51986">
        <ele>555</ele>
        <time>2021-05-29 06:55:56</time>
      </trkpt>
      <trkpt lat="42.87806" lon="-2.51976">
        <ele>555</ele>
        <time>2021-05-29 06:55:57</time>
      </trkpt>
      <trkpt lat="42.87804" lon="-2.51965">
        <ele>555</ele>
        <time>2021-05-29 06:55:58</time>
      </trkpt>
      <trkpt lat="42.87802" lon="-2.51954">
        <ele>555.2</ele>
        <time>2021-05-29 06:55:59</time>
      </trkpt>
      <trkpt lat="42.87801" lon="-2.51944">
        <ele>555.2</ele>
        <time>2021-05-29 06:56:00</time>
      </trkpt>
      <trkpt lat="42.87799" lon="-2.51933">
        <ele>555.4</ele>
        <time>2021-05-29 06:56:01</time>
      </trkpt>
      <trkpt lat="42.87798" lon="-2.51923">
        <ele>555.4</ele>
        <time>2021-05-29 06:56:02</time>
      </trkpt>
      <trkpt lat="42.87798" lon="-2.51912">
        <ele>555.4</ele>
        <time>2021-05-29 06:56:03</time>
      </trkpt>
      <trkpt lat="42.87798" lon="-2.51901">
        <ele>555.6</ele>
        <time>2021-05-29 06:56:04</time>
      </trkpt>
      <trkpt lat="42.87798" lon="-2.51891">
        <ele>555.6</ele>
        <time>2021-05-29 06:56:05</time>
      </trkpt>
      <trkpt lat="42.87798" lon="-2.5188">
        <ele>555.6</ele>
        <time>2021-05-29 06:56:06</time>
      </trkpt>
      <trkpt lat="42.87798" lon="-2.51869">
        <ele>555.6</ele>
        <time>2021-05-29 06:56:07</time>
      </trkpt>
      <trkpt lat="42.87799" lon="-2.51858">
        <ele>555.6</ele>
        <time>2021-05-29 06:56:08</time>
      </trkpt>
      <trkpt lat="42.878" lon="-2.51847">
        <ele>555.8</ele>
        <time>2021-05-29 06:56:09</time>
      </trkpt>
      <trkpt lat="42.87802" lon="-2.51836">
        <ele>555.8</ele>
        <time>2021-05-29 06:56:10</time>
      </trkpt>
      <trkpt lat="42.87803" lon="-2.51826">
        <ele>556</ele>
        <time>2021-05-29 06:56:11</time>
      </trkpt>
      <trkpt lat="42.87805" lon="-2.51815">
        <ele>556</ele>
        <time>2021-05-29 06:56:12</time>
      </trkpt>
      <trkpt lat="42.87807" lon="-2.51805">
        <ele>556.2</ele>
        <time>2021-05-29 06:56:13</time>
      </trkpt>
      <trkpt lat="42.8781" lon="-2.51794">
        <ele>556.2</ele>
        <time>2021-05-29 06:56:14</time>
      </trkpt>
      <trkpt lat="42.87812" lon="-2.51784">
        <ele>556.2</ele>
        <time>2021-05-29 06:56:15</time>
      </trkpt>
      <trkpt lat="42.87815" lon="-2.51774">
        <ele>556.2</ele>
        <time>2021-05-29 06:56:16</time>
      </trkpt>
      <trkpt lat="42.87818" lon="-2.51763">
        <ele>556.2</ele>
        <time>2021-05-29 06:56:17</time>
      </trkpt>
      <trkpt lat="42.87821" lon="-2.51753">
        <ele>556.4</ele>
        <time>2021-05-29 06:56:18</time>
      </trkpt>
      <trkpt lat="42.87824" lon="-2.51743">
        <ele>556.4</ele>
        <time>2021-05-29 06:56:19</time>
      </trkpt>
      <trkpt lat="42.87828" lon="-2.51733">
        <ele>556.4</ele>
        <time>2021-05-29 06:56:20</time>
      </trkpt>
      <trkpt lat="42.87831" lon="-2.51723">
        <ele>556.4</ele>
        <time>2021-05-29 06:56:21</time>
      </trkpt>
      <trkpt lat="42.87835" lon="-2.51713">
        <ele>556.6</ele>
        <time>2021-05-29 06:56:22</time>
      </trkpt>
      <trkpt lat="42.87838" lon="-2.51703">
        <ele>556.6</ele>
        <time>2021-05-29 06:56:23</time>
      </trkpt>
      <trkpt lat="42.87841" lon="-2.51693">
        <ele>556.6</ele>
        <time>2021-05-29 06:56:24</time>
      </trkpt>
      <trkpt lat="42.87844" lon="-2.51683">
        <ele>556.6</ele>
        <time>2021-05-29 06:56:25</time>
      </trkpt>
      <trkpt lat="42.87848" lon="-2.51673">
        <ele>556.8</ele>
        <time>2021-05-29 06:56:26</time>
      </trkpt>
      <trkpt lat="42.87851" lon="-2.51662">
        <ele>556.8</ele>
        <time>2021-05-29 06:56:27</time>
      </trkpt>
      <trkpt lat="42.87854" lon="-2.51652">
        <ele>557</ele>
        <time>2021-05-29 06:56:28</time>
      </trkpt>
      <trkpt lat="42.87857" lon="-2.51642">
        <ele>557</ele>
        <time>2021-05-29 06:56:29</time>
      </trkpt>
      <trkpt lat="42.8786" lon="-2.51632">
        <ele>557</ele>
        <time>2021-05-29 06:56:30</time>
      </trkpt>
      <trkpt lat="42.87863" lon="-2.51621">
        <ele>557</ele>
        <time>2021-05-29 06:56:31</time>
      </trkpt>
      <trkpt lat="42.87865" lon="-2.51611">
        <ele>557.2</ele>
        <time>2021-05-29 06:56:32</time>
      </trkpt>
      <trkpt lat="42.87868" lon="-2.51601">
        <ele>557.2</ele>
        <time>2021-05-29 06:56:33</time>
      </trkpt>
      <trkpt lat="42.8787" lon="-2.5159">
        <ele>557.2</ele>
        <time>2021-05-29 06:56:34</time>
      </trkpt>
      <trkpt lat="42.87872" lon="-2.5158">
        <ele>557.2</ele>
        <time>2021-05-29 06:56:35</time>
      </trkpt>
      <trkpt lat="42.87875" lon="-2.51569">
        <ele>557.2</ele>
        <time>2021-05-29 06:56:36</time>
      </trkpt>
      <trkpt lat="42.87877" lon="-2.51558">
        <ele>557</ele>
        <time>2021-05-29 06:56:37</time>
      </trkpt>
      <trkpt lat="42.87878" lon="-2.51548">
        <ele>557.2</ele>
        <time>2021-05-29 06:56:38</time>
      </trkpt>
      <trkpt lat="42.8788" lon="-2.51537">
        <ele>557.2</ele>
        <time>2021-05-29 06:56:39</time>
      </trkpt>
      <trkpt lat="42.87881" lon="-2.51526">
        <ele>557.4</ele>
        <time>2021-05-29 06:56:40</time>
      </trkpt>
      <trkpt lat="42.87883" lon="-2.51516">
        <ele>557.4</ele>
        <time>2021-05-29 06:56:41</time>
      </trkpt>
      <trkpt lat="42.87884" lon="-2.51505">
        <ele>557.4</ele>
        <time>2021-05-29 06:56:42</time>
      </trkpt>
      <trkpt lat="42.87885" lon="-2.51494">
        <ele>557.6</ele>
        <time>2021-05-29 06:56:43</time>
      </trkpt>
      <trkpt lat="42.87886" lon="-2.51483">
        <ele>557.6</ele>
        <time>2021-05-29 06:56:44</time>
      </trkpt>
      <trkpt lat="42.87887" lon="-2.51473">
        <ele>557.6</ele>
        <time>2021-05-29 06:56:45</time>
      </trkpt>
      <trkpt lat="42.87887" lon="-2.51462">
        <ele>557.6</ele>
        <time>2021-05-29 06:56:46</time>
      </trkpt>
      <trkpt lat="42.87888" lon="-2.51451">
        <ele>557.8</ele>
        <time>2021-05-29 06:56:47</time>
      </trkpt>
      <trkpt lat="42.87888" lon="-2.51441">
        <ele>557.8</ele>
        <time>2021-05-29 06:56:48</time>
      </trkpt>
      <trkpt lat="42.87888" lon="-2.5143">
        <ele>558</ele>
        <time>2021-05-29 06:56:49</time>
      </trkpt>
      <trkpt lat="42.87888" lon="-2.51419">
        <ele>558</ele>
        <time>2021-05-29 06:56:50</time>
      </trkpt>
      <trkpt lat="42.87888" lon="-2.51408">
        <ele>558.2</ele>
        <time>2021-05-29 06:56:51</time>
      </trkpt>
      <trkpt lat="42.87888" lon="-2.51398">
        <ele>558.4</ele>
        <time>2021-05-29 06:56:52</time>
      </trkpt>
      <trkpt lat="42.87888" lon="-2.51387">
        <ele>558.6</ele>
        <time>2021-05-29 06:56:53</time>
      </trkpt>
      <trkpt lat="42.87887" lon="-2.51377">
        <ele>558.6</ele>
        <time>2021-05-29 06:56:54</time>
      </trkpt>
      <trkpt lat="42.87887" lon="-2.51367">
        <ele>558.6</ele>
        <time>2021-05-29 06:56:55</time>
      </trkpt>
      <trkpt lat="42.87886" lon="-2.51356">
        <ele>558.8</ele>
        <time>2021-05-29 06:56:56</time>
      </trkpt>
      <trkpt lat="42.87885" lon="-2.51346">
        <ele>558.8</ele>
        <time>2021-05-29 06:56:57</time>
      </trkpt>
      <trkpt lat="42.87884" lon="-2.51335">
        <ele>558.8</ele>
        <time>2021-05-29 06:56:58</time>
      </trkpt>
      <trkpt lat="42.87883" lon="-2.51325">
        <ele>558.8</ele>
        <time>2021-05-29 06:56:59</time>
      </trkpt>
      <trkpt lat="42.87882" lon="-2.51314">
        <ele>559</ele>
        <time>2021-05-29 06:57:00</time>
      </trkpt>
      <trkpt lat="42.8788" lon="-2.51304">
        <ele>559</ele>
        <time>2021-05-29 06:57:01</time>
      </trkpt>
      <trkpt lat="42.87879" lon="-2.51294">
        <ele>559.2</ele>
        <time>2021-05-29 06:57:02</time>
      </trkpt>
      <trkpt lat="42.87877" lon="-2.51283">
        <ele>559.4</ele>
        <time>2021-05-29 06:57:03</time>
      </trkpt>
      <trkpt lat="42.87875" lon="-2.51273">
        <ele>559.4</ele>
        <time>2021-05-29 06:57:04</time>
      </trkpt>
      <trkpt lat="42.87874" lon="-2.51263">
        <ele>559.6</ele>
        <time>2021-05-29 06:57:05</time>
      </trkpt>
      <trkpt lat="42.87872" lon="-2.51254">
        <ele>559.8</ele>
        <time>2021-05-29 06:57:06</time>
      </trkpt>
      <trkpt lat="42.8787" lon="-2.51244">
        <ele>559.8</ele>
        <time>2021-05-29 06:57:07</time>
      </trkpt>
      <trkpt lat="42.87868" lon="-2.51234">
        <ele>559.8</ele>
        <time>2021-05-29 06:57:08</time>
      </trkpt>
      <trkpt lat="42.87866" lon="-2.51225">
        <ele>559.8</ele>
        <time>2021-05-29 06:57:09</time>
      </trkpt>
      <trkpt lat="42.87863" lon="-2.51215">
        <ele>559.8</ele>
        <time>2021-05-29 06:57:10</time>
      </trkpt>
      <trkpt lat="42.87861" lon="-2.51206">
        <ele>560</ele>
        <time>2021-05-29 06:57:11</time>
      </trkpt>
      <trkpt lat="42.87858" lon="-2.51196">
        <ele>560</ele>
        <time>2021-05-29 06:57:12</time>
      </trkpt>
      <trkpt lat="42.87856" lon="-2.51186">
        <ele>560</ele>
        <time>2021-05-29 06:57:13</time>
      </trkpt>
      <trkpt lat="42.87854" lon="-2.51176">
        <ele>560.4</ele>
        <time>2021-05-29 06:57:14</time>
      </trkpt>
      <trkpt lat="42.87851" lon="-2.51166">
        <ele>560.4</ele>
        <time>2021-05-29 06:57:15</time>
      </trkpt>
      <trkpt lat="42.87849" lon="-2.51156">
        <ele>560.6</ele>
        <time>2021-05-29 06:57:16</time>
      </trkpt>
      <trkpt lat="42.87846" lon="-2.51147">
        <ele>560.8</ele>
        <time>2021-05-29 06:57:17</time>
      </trkpt>
      <trkpt lat="42.87844" lon="-2.51137">
        <ele>560.8</ele>
        <time>2021-05-29 06:57:18</time>
      </trkpt>
      <trkpt lat="42.87842" lon="-2.51127">
        <ele>561</ele>
        <time>2021-05-29 06:57:19</time>
      </trkpt>
      <trkpt lat="42.87839" lon="-2.51117">
        <ele>561</ele>
        <time>2021-05-29 06:57:20</time>
      </trkpt>
      <trkpt lat="42.87837" lon="-2.51107">
        <ele>561</ele>
        <time>2021-05-29 06:57:21</time>
      </trkpt>
      <trkpt lat="42.87834" lon="-2.51098">
        <ele>561.2</ele>
        <time>2021-05-29 06:57:22</time>
      </trkpt>
      <trkpt lat="42.87832" lon="-2.51088">
        <ele>561.2</ele>
        <time>2021-05-29 06:57:23</time>
      </trkpt>
      <trkpt lat="42.87829" lon="-2.51078">
        <ele>561.2</ele>
        <time>2021-05-29 06:57:24</time>
      </trkpt>
      <trkpt lat="42.87827" lon="-2.51068">
        <ele>561.2</ele>
        <time>2021-05-29 06:57:25</time>
      </trkpt>
      <trkpt lat="42.87825" lon="-2.51058">
        <ele>561.4</ele>
        <time>2021-05-29 06:57:26</time>
      </trkpt>
      <trkpt lat="42.87822" lon="-2.51048">
        <ele>561.6</ele>
        <time>2021-05-29 06:57:27</time>
      </trkpt>
      <trkpt lat="42.8782" lon="-2.51038">
        <ele>561.6</ele>
        <time>2021-05-29 06:57:28</time>
      </trkpt>
      <trkpt lat="42.87817" lon="-2.51028">
        <ele>561.8</ele>
        <time>2021-05-29 06:57:29</time>
      </trkpt>
      <trkpt lat="42.87815" lon="-2.51018">
        <ele>561.8</ele>
        <time>2021-05-29 06:57:30</time>
      </trkpt>
      <trkpt lat="42.87812" lon="-2.51008">
        <ele>561.8</ele>
        <time>2021-05-29 06:57:31</time>
      </trkpt>
      <trkpt lat="42.8781" lon="-2.50998">
        <ele>562</ele>
        <time>2021-05-29 06:57:32</time>
      </trkpt>
      <trkpt lat="42.87807" lon="-2.50988">
        <ele>562</ele>
        <time>2021-05-29 06:57:33</time>
      </trkpt>
      <trkpt lat="42.87805" lon="-2.50978">
        <ele>562</ele>
        <time>2021-05-29 06:57:34</time>
      </trkpt>
      <trkpt lat="42.87803" lon="-2.50968">
        <ele>562</ele>
        <time>2021-05-29 06:57:35</time>
      </trkpt>
      <trkpt lat="42.878" lon="-2.50958">
        <ele>562.2</ele>
        <time>2021-05-29 06:57:36</time>
      </trkpt>
      <trkpt lat="42.87798" lon="-2.50947">
        <ele>562.2</ele>
        <time>2021-05-29 06:57:37</time>
      </trkpt>
      <trkpt lat="42.87795" lon="-2.50937">
        <ele>562.2</ele>
        <time>2021-05-29 06:57:38</time>
      </trkpt>
      <trkpt lat="42.87793" lon="-2.50926">
        <ele>562</ele>
        <time>2021-05-29 06:57:39</time>
      </trkpt>
      <trkpt lat="42.8779" lon="-2.50915">
        <ele>562.2</ele>
        <time>2021-05-29 06:57:40</time>
      </trkpt>
      <trkpt lat="42.87788" lon="-2.50904">
        <ele>562.2</ele>
        <time>2021-05-29 06:57:41</time>
      </trkpt>
      <trkpt lat="42.87785" lon="-2.50894">
        <ele>562.2</ele>
        <time>2021-05-29 06:57:42</time>
      </trkpt>
      <trkpt lat="42.87783" lon="-2.50882">
        <ele>562.2</ele>
        <time>2021-05-29 06:57:43</time>
      </trkpt>
      <trkpt lat="42.8778" lon="-2.50871">
        <ele>562.2</ele>
        <time>2021-05-29 06:57:44</time>
      </trkpt>
      <trkpt lat="42.87777" lon="-2.5086">
        <ele>562.2</ele>
        <time>2021-05-29 06:57:45</time>
      </trkpt>
      <trkpt lat="42.87774" lon="-2.50848">
        <ele>562.2</ele>
        <time>2021-05-29 06:57:46</time>
      </trkpt>
      <trkpt lat="42.87772" lon="-2.50837">
        <ele>562.2</ele>
        <time>2021-05-29 06:57:47</time>
      </trkpt>
      <trkpt lat="42.87769" lon="-2.50825">
        <ele>562</ele>
        <time>2021-05-29 06:57:48</time>
      </trkpt>
      <trkpt lat="42.87766" lon="-2.50814">
        <ele>561.8</ele>
        <time>2021-05-29 06:57:49</time>
      </trkpt>
      <trkpt lat="42.87764" lon="-2.50802">
        <ele>561.8</ele>
        <time>2021-05-29 06:57:50</time>
      </trkpt>
      <trkpt lat="42.87761" lon="-2.50791">
        <ele>561.6</ele>
        <time>2021-05-29 06:57:51</time>
      </trkpt>
      <trkpt lat="42.87758" lon="-2.50779">
        <ele>561.4</ele>
        <time>2021-05-29 06:57:52</time>
      </trkpt>
      <trkpt lat="42.87755" lon="-2.50767">
        <ele>561.2</ele>
        <time>2021-05-29 06:57:53</time>
      </trkpt>
      <trkpt lat="42.87753" lon="-2.50755">
        <ele>561</ele>
        <time>2021-05-29 06:57:54</time>
      </trkpt>
      <trkpt lat="42.8775" lon="-2.50743">
        <ele>560.8</ele>
        <time>2021-05-29 06:57:55</time>
      </trkpt>
      <trkpt lat="42.87747" lon="-2.50732">
        <ele>560.6</ele>
        <time>2021-05-29 06:57:56</time>
      </trkpt>
      <trkpt lat="42.87744" lon="-2.5072">
        <ele>560.4</ele>
        <time>2021-05-29 06:57:57</time>
      </trkpt>
      <trkpt lat="42.87741" lon="-2.50708">
        <ele>560.4</ele>
        <time>2021-05-29 06:57:58</time>
      </trkpt>
      <trkpt lat="42.87739" lon="-2.50696">
        <ele>560.2</ele>
        <time>2021-05-29 06:57:59</time>
      </trkpt>
      <trkpt lat="42.87736" lon="-2.50684">
        <ele>560</ele>
        <time>2021-05-29 06:58:00</time>
      </trkpt>
      <trkpt lat="42.87734" lon="-2.50672">
        <ele>559.6</ele>
        <time>2021-05-29 06:58:01</time>
      </trkpt>
      <trkpt lat="42.87731" lon="-2.5066">
        <ele>559.4</ele>
        <time>2021-05-29 06:58:02</time>
      </trkpt>
      <trkpt lat="42.87729" lon="-2.50648">
        <ele>559.4</ele>
        <time>2021-05-29 06:58:03</time>
      </trkpt>
      <trkpt lat="42.87728" lon="-2.50636">
        <ele>559.2</ele>
        <time>2021-05-29 06:58:04</time>
      </trkpt>
      <trkpt lat="42.87726" lon="-2.50624">
        <ele>559.2</ele>
        <time>2021-05-29 06:58:05</time>
      </trkpt>
      <trkpt lat="42.87724" lon="-2.50611">
        <ele>559.2</ele>
        <time>2021-05-29 06:58:06</time>
      </trkpt>
      <trkpt lat="42.87723" lon="-2.50597">
        <ele>559</ele>
        <time>2021-05-29 06:58:07</time>
      </trkpt>
      <trkpt lat="42.87722" lon="-2.50584">
        <ele>559</ele>
        <time>2021-05-29 06:58:08</time>
      </trkpt>
      <trkpt lat="42.8772" lon="-2.5057">
        <ele>559</ele>
        <time>2021-05-29 06:58:09</time>
      </trkpt>
      <trkpt lat="42.87719" lon="-2.50557">
        <ele>558.8</ele>
        <time>2021-05-29 06:58:10</time>
      </trkpt>
      <trkpt lat="42.87717" lon="-2.50543">
        <ele>558.8</ele>
        <time>2021-05-29 06:58:11</time>
      </trkpt>
      <trkpt lat="42.87716" lon="-2.50529">
        <ele>558.6</ele>
        <time>2021-05-29 06:58:12</time>
      </trkpt>
      <trkpt lat="42.87714" lon="-2.50515">
        <ele>558.4</ele>
        <time>2021-05-29 06:58:13</time>
      </trkpt>
      <trkpt lat="42.87713" lon="-2.50501">
        <ele>558.2</ele>
        <time>2021-05-29 06:58:14</time>
      </trkpt>
      <trkpt lat="42.87712" lon="-2.50488">
        <ele>557.8</ele>
        <time>2021-05-29 06:58:15</time>
      </trkpt>
      <trkpt lat="42.8771" lon="-2.50474">
        <ele>557.6</ele>
        <time>2021-05-29 06:58:16</time>
      </trkpt>
      <trkpt lat="42.87709" lon="-2.5046">
        <ele>557.2</ele>
        <time>2021-05-29 06:58:17</time>
      </trkpt>
      <trkpt lat="42.87707" lon="-2.50447">
        <ele>557.2</ele>
        <time>2021-05-29 06:58:18</time>
      </trkpt>
      <trkpt lat="42.87706" lon="-2.50434">
        <ele>557</ele>
        <time>2021-05-29 06:58:19</time>
      </trkpt>
      <trkpt lat="42.87705" lon="-2.50421">
        <ele>556.6</ele>
        <time>2021-05-29 06:58:20</time>
      </trkpt>
      <trkpt lat="42.87703" lon="-2.50408">
        <ele>556.4</ele>
        <time>2021-05-29 06:58:21</time>
      </trkpt>
      <trkpt lat="42.87702" lon="-2.50396">
        <ele>556</ele>
        <time>2021-05-29 06:58:22</time>
      </trkpt>
      <trkpt lat="42.87701" lon="-2.50383">
        <ele>555.6</ele>
        <time>2021-05-29 06:58:23</time>
      </trkpt>
      <trkpt lat="42.87701" lon="-2.50371">
        <ele>555.4</ele>
        <time>2021-05-29 06:58:24</time>
      </trkpt>
      <trkpt lat="42.877" lon="-2.50358">
        <ele>555.2</ele>
        <time>2021-05-29 06:58:25</time>
      </trkpt>
      <trkpt lat="42.87699" lon="-2.50346">
        <ele>555.2</ele>
        <time>2021-05-29 06:58:26</time>
      </trkpt>
      <trkpt lat="42.87699" lon="-2.50333">
        <ele>555.2</ele>
        <time>2021-05-29 06:58:27</time>
      </trkpt>
      <trkpt lat="42.87699" lon="-2.5032">
        <ele>555</ele>
        <time>2021-05-29 06:58:28</time>
      </trkpt>
      <trkpt lat="42.87698" lon="-2.50306">
        <ele>555</ele>
        <time>2021-05-29 06:58:29</time>
      </trkpt>
      <trkpt lat="42.87698" lon="-2.50293">
        <ele>555</ele>
        <time>2021-05-29 06:58:30</time>
      </trkpt>
      <trkpt lat="42.87697" lon="-2.50279">
        <ele>555</ele>
        <time>2021-05-29 06:58:31</time>
      </trkpt>
      <trkpt lat="42.87697" lon="-2.50266">
        <ele>554.8</ele>
        <time>2021-05-29 06:58:32</time>
      </trkpt>
      <trkpt lat="42.87696" lon="-2.50252">
        <ele>554.8</ele>
        <time>2021-05-29 06:58:33</time>
      </trkpt>
      <trkpt lat="42.87696" lon="-2.50238">
        <ele>554.8</ele>
        <time>2021-05-29 06:58:34</time>
      </trkpt>
      <trkpt lat="42.87695" lon="-2.50225">
        <ele>554.6</ele>
        <time>2021-05-29 06:58:35</time>
      </trkpt>
      <trkpt lat="42.87695" lon="-2.50211">
        <ele>554.4</ele>
        <time>2021-05-29 06:58:36</time>
      </trkpt>
      <trkpt lat="42.87695" lon="-2.50197">
        <ele>554.2</ele>
        <time>2021-05-29 06:58:37</time>
      </trkpt>
      <trkpt lat="42.87694" lon="-2.50183">
        <ele>553.8</ele>
        <time>2021-05-29 06:58:38</time>
      </trkpt>
      <trkpt lat="42.87694" lon="-2.50169">
        <ele>553.6</ele>
        <time>2021-05-29 06:58:39</time>
      </trkpt>
      <trkpt lat="42.87693" lon="-2.50154">
        <ele>553.2</ele>
        <time>2021-05-29 06:58:40</time>
      </trkpt>
      <trkpt lat="42.87693" lon="-2.5014">
        <ele>552.8</ele>
        <time>2021-05-29 06:58:41</time>
      </trkpt>
      <trkpt lat="42.87693" lon="-2.50126">
        <ele>552.6</ele>
        <time>2021-05-29 06:58:42</time>
      </trkpt>
      <trkpt lat="42.87692" lon="-2.50111">
        <ele>552.4</ele>
        <time>2021-05-29 06:58:43</time>
      </trkpt>
      <trkpt lat="42.87692" lon="-2.50097">
        <ele>552</ele>
        <time>2021-05-29 06:58:44</time>
      </trkpt>
      <trkpt lat="42.87691" lon="-2.50083">
        <ele>551.8</ele>
        <time>2021-05-29 06:58:45</time>
      </trkpt>
      <trkpt lat="42.8769" lon="-2.50069">
        <ele>551.4</ele>
        <time>2021-05-29 06:58:46</time>
      </trkpt>
      <trkpt lat="42.87689" lon="-2.50055">
        <ele>550.8</ele>
        <time>2021-05-29 06:58:47</time>
      </trkpt>
      <trkpt lat="42.87688" lon="-2.50041">
        <ele>550.6</ele>
        <time>2021-05-29 06:58:48</time>
      </trkpt>
      <trkpt lat="42.87686" lon="-2.50028">
        <ele>550.2</ele>
        <time>2021-05-29 06:58:49</time>
      </trkpt>
      <trkpt lat="42.87684" lon="-2.50015">
        <ele>550</ele>
        <time>2021-05-29 06:58:50</time>
      </trkpt>
      <trkpt lat="42.87682" lon="-2.50002">
        <ele>549.6</ele>
        <time>2021-05-29 06:58:51</time>
      </trkpt>
      <trkpt lat="42.8768" lon="-2.49989">
        <ele>549.4</ele>
        <time>2021-05-29 06:58:52</time>
      </trkpt>
      <trkpt lat="42.87677" lon="-2.49977">
        <ele>549.2</ele>
        <time>2021-05-29 06:58:53</time>
      </trkpt>
      <trkpt lat="42.87674" lon="-2.49965">
        <ele>549.2</ele>
        <time>2021-05-29 06:58:54</time>
      </trkpt>
      <trkpt lat="42.87672" lon="-2.49953">
        <ele>549.2</ele>
        <time>2021-05-29 06:58:55</time>
      </trkpt>
      <trkpt lat="42.87669" lon="-2.49942">
        <ele>549.2</ele>
        <time>2021-05-29 06:58:56</time>
      </trkpt>
      <trkpt lat="42.87666" lon="-2.49931">
        <ele>549.2</ele>
        <time>2021-05-29 06:58:57</time>
      </trkpt>
      <trkpt lat="42.87663" lon="-2.49919">
        <ele>549.2</ele>
        <time>2021-05-29 06:58:58</time>
      </trkpt>
      <trkpt lat="42.8766" lon="-2.49908">
        <ele>549.2</ele>
        <time>2021-05-29 06:58:59</time>
      </trkpt>
      <trkpt lat="42.87657" lon="-2.49897">
        <ele>549.2</ele>
        <time>2021-05-29 06:59:00</time>
      </trkpt>
      <trkpt lat="42.87654" lon="-2.49886">
        <ele>549.2</ele>
        <time>2021-05-29 06:59:01</time>
      </trkpt>
      <trkpt lat="42.87651" lon="-2.49875">
        <ele>549.2</ele>
        <time>2021-05-29 06:59:02</time>
      </trkpt>
      <trkpt lat="42.87648" lon="-2.49865">
        <ele>549.2</ele>
        <time>2021-05-29 06:59:03</time>
      </trkpt>
      <trkpt lat="42.87645" lon="-2.49854">
        <ele>549.2</ele>
        <time>2021-05-29 06:59:04</time>
      </trkpt>
      <trkpt lat="42.87642" lon="-2.49843">
        <ele>549.6</ele>
        <time>2021-05-29 06:59:05</time>
      </trkpt>
      <trkpt lat="42.8764" lon="-2.49832">
        <ele>549.6</ele>
        <time>2021-05-29 06:59:06</time>
      </trkpt>
      <trkpt lat="42.87637" lon="-2.49822">
        <ele>549.8</ele>
        <time>2021-05-29 06:59:07</time>
      </trkpt>
      <trkpt lat="42.87634" lon="-2.49811">
        <ele>550</ele>
        <time>2021-05-29 06:59:08</time>
      </trkpt>
      <trkpt lat="42.87631" lon="-2.498">
        <ele>550</ele>
        <time>2021-05-29 06:59:09</time>
      </trkpt>
      <trkpt lat="42.87628" lon="-2.4979">
        <ele>550.2</ele>
        <time>2021-05-29 06:59:10</time>
      </trkpt>
      <trkpt lat="42.87625" lon="-2.49779">
        <ele>550.4</ele>
        <time>2021-05-29 06:59:11</time>
      </trkpt>
      <trkpt lat="42.87622" lon="-2.49769">
        <ele>550.4</ele>
        <time>2021-05-29 06:59:12</time>
      </trkpt>
      <trkpt lat="42.8762" lon="-2.49759">
        <ele>550.6</ele>
        <time>2021-05-29 06:59:13</time>
      </trkpt>
      <trkpt lat="42.87617" lon="-2.49748">
        <ele>550.8</ele>
        <time>2021-05-29 06:59:14</time>
      </trkpt>
      <trkpt lat="42.87614" lon="-2.49738">
        <ele>550.8</ele>
        <time>2021-05-29 06:59:15</time>
      </trkpt>
      <trkpt lat="42.87611" lon="-2.49727">
        <ele>550.8</ele>
        <time>2021-05-29 06:59:16</time>
      </trkpt>
      <trkpt lat="42.87608" lon="-2.49717">
        <ele>551.2</ele>
        <time>2021-05-29 06:59:17</time>
      </trkpt>
      <trkpt lat="42.87606" lon="-2.49706">
        <ele>551.2</ele>
        <time>2021-05-29 06:59:18</time>
      </trkpt>
      <trkpt lat="42.87603" lon="-2.49696">
        <ele>551.4</ele>
        <time>2021-05-29 06:59:19</time>
      </trkpt>
      <trkpt lat="42.876" lon="-2.49686">
        <ele>551.6</ele>
        <time>2021-05-29 06:59:20</time>
      </trkpt>
      <trkpt lat="42.87597" lon="-2.49675">
        <ele>551.8</ele>
        <time>2021-05-29 06:59:21</time>
      </trkpt>
      <trkpt lat="42.87595" lon="-2.49665">
        <ele>552</ele>
        <time>2021-05-29 06:59:22</time>
      </trkpt>
      <trkpt lat="42.87592" lon="-2.49655">
        <ele>552.2</ele>
        <time>2021-05-29 06:59:23</time>
      </trkpt>
      <trkpt lat="42.87589" lon="-2.49645">
        <ele>552.2</ele>
        <time>2021-05-29 06:59:24</time>
      </trkpt>
      <trkpt lat="42.87587" lon="-2.49635">
        <ele>552.2</ele>
        <time>2021-05-29 06:59:25</time>
      </trkpt>
      <trkpt lat="42.87584" lon="-2.49625">
        <ele>552.4</ele>
        <time>2021-05-29 06:59:26</time>
      </trkpt>
      <trkpt lat="42.87581" lon="-2.49615">
        <ele>552.4</ele>
        <time>2021-05-29 06:59:27</time>
      </trkpt>
      <trkpt lat="42.87579" lon="-2.49606">
        <ele>552.4</ele>
        <time>2021-05-29 06:59:28</time>
      </trkpt>
      <trkpt lat="42.87576" lon="-2.49596">
        <ele>552.4</ele>
        <time>2021-05-29 06:59:29</time>
      </trkpt>
      <trkpt lat="42.87573" lon="-2.49586">
        <ele>552.6</ele>
        <time>2021-05-29 06:59:30</time>
      </trkpt>
      <trkpt lat="42.87571" lon="-2.49576">
        <ele>552.8</ele>
        <time>2021-05-29 06:59:31</time>
      </trkpt>
      <trkpt lat="42.87568" lon="-2.49566">
        <ele>553</ele>
        <time>2021-05-29 06:59:32</time>
      </trkpt>
      <trkpt lat="42.87565" lon="-2.49557">
        <ele>553.2</ele>
        <time>2021-05-29 06:59:33</time>
      </trkpt>
      <trkpt lat="42.87562" lon="-2.49548">
        <ele>553.4</ele>
        <time>2021-05-29 06:59:34</time>
      </trkpt>
      <trkpt lat="42.8756" lon="-2.49538">
        <ele>553.4</ele>
        <time>2021-05-29 06:59:35</time>
      </trkpt>
      <trkpt lat="42.87556" lon="-2.49529">
        <ele>553.4</ele>
        <time>2021-05-29 06:59:36</time>
      </trkpt>
      <trkpt lat="42.87553" lon="-2.4952">
        <ele>553.6</ele>
        <time>2021-05-29 06:59:37</time>
      </trkpt>
      <trkpt lat="42.8755" lon="-2.49511">
        <ele>553.8</ele>
        <time>2021-05-29 06:59:38</time>
      </trkpt>
      <trkpt lat="42.87546" lon="-2.49502">
        <ele>553.8</ele>
        <time>2021-05-29 06:59:39</time>
      </trkpt>
      <trkpt lat="42.87542" lon="-2.49493">
        <ele>554</ele>
        <time>2021-05-29 06:59:40</time>
      </trkpt>
      <trkpt lat="42.87538" lon="-2.49484">
        <ele>554</ele>
        <time>2021-05-29 06:59:41</time>
      </trkpt>
      <trkpt lat="42.87534" lon="-2.49476">
        <ele>554.2</ele>
        <time>2021-05-29 06:59:42</time>
      </trkpt>
      <trkpt lat="42.8753" lon="-2.49467">
        <ele>554.2</ele>
        <time>2021-05-29 06:59:43</time>
      </trkpt>
      <trkpt lat="42.87526" lon="-2.49459">
        <ele>554.2</ele>
        <time>2021-05-29 06:59:44</time>
      </trkpt>
      <trkpt lat="42.87522" lon="-2.49451">
        <ele>554.2</ele>
        <time>2021-05-29 06:59:45</time>
      </trkpt>
      <trkpt lat="42.87518" lon="-2.49442">
        <ele>554.4</ele>
        <time>2021-05-29 06:59:46</time>
      </trkpt>
      <trkpt lat="42.87514" lon="-2.49434">
        <ele>554.6</ele>
        <time>2021-05-29 06:59:47</time>
      </trkpt>
      <trkpt lat="42.8751" lon="-2.49426">
        <ele>554.6</ele>
        <time>2021-05-29 06:59:48</time>
      </trkpt>
      <trkpt lat="42.87506" lon="-2.49418">
        <ele>554.8</ele>
        <time>2021-05-29 06:59:49</time>
      </trkpt>
      <trkpt lat="42.87502" lon="-2.49409">
        <ele>554.8</ele>
        <time>2021-05-29 06:59:50</time>
      </trkpt>
      <trkpt lat="42.87497" lon="-2.49401">
        <ele>555</ele>
        <time>2021-05-29 06:59:51</time>
      </trkpt>
      <trkpt lat="42.87493" lon="-2.49393">
        <ele>555</ele>
        <time>2021-05-29 06:59:52</time>
      </trkpt>
      <trkpt lat="42.87489" lon="-2.49384">
        <ele>555</ele>
        <time>2021-05-29 06:59:53</time>
      </trkpt>
      <trkpt lat="42.87484" lon="-2.49376">
        <ele>555</ele>
        <time>2021-05-29 06:59:54</time>
      </trkpt>
      <trkpt lat="42.87479" lon="-2.49368">
        <ele>555</ele>
        <time>2021-05-29 06:59:55</time>
      </trkpt>
      <trkpt lat="42.87475" lon="-2.4936">
        <ele>555</ele>
        <time>2021-05-29 06:59:56</time>
      </trkpt>
      <trkpt lat="42.8747" lon="-2.49351">
        <ele>555</ele>
        <time>2021-05-29 06:59:57</time>
      </trkpt>
      <trkpt lat="42.87465" lon="-2.49343">
        <ele>555</ele>
        <time>2021-05-29 06:59:58</time>
      </trkpt>
      <trkpt lat="42.8746" lon="-2.49335">
        <ele>555</ele>
        <time>2021-05-29 06:59:59</time>
      </trkpt>
      <trkpt lat="42.87455" lon="-2.49326">
        <ele>555</ele>
        <time>2021-05-29 07:00:00</time>
      </trkpt>
      <trkpt lat="42.87451" lon="-2.49318">
        <ele>555</ele>
        <time>2021-05-29 07:00:01</time>
      </trkpt>
      <trkpt lat="42.87446" lon="-2.4931">
        <ele>555</ele>
        <time>2021-05-29 07:00:02</time>
      </trkpt>
      <trkpt lat="42.87441" lon="-2.49301">
        <ele>555</ele>
        <time>2021-05-29 07:00:03</time>
      </trkpt>
      <trkpt lat="42.87436" lon="-2.49293">
        <ele>555.2</ele>
        <time>2021-05-29 07:00:04</time>
      </trkpt>
      <trkpt lat="42.87431" lon="-2.49285">
        <ele>555.2</ele>
        <time>2021-05-29 07:00:05</time>
      </trkpt>
      <trkpt lat="42.87427" lon="-2.49276">
        <ele>555.2</ele>
        <time>2021-05-29 07:00:06</time>
      </trkpt>
      <trkpt lat="42.87422" lon="-2.49268">
        <ele>555.2</ele>
        <time>2021-05-29 07:00:07</time>
      </trkpt>
      <trkpt lat="42.87417" lon="-2.4926">
        <ele>555.2</ele>
        <time>2021-05-29 07:00:08</time>
      </trkpt>
      <trkpt lat="42.87412" lon="-2.49251">
        <ele>555.2</ele>
        <time>2021-05-29 07:00:09</time>
      </trkpt>
      <trkpt lat="42.87407" lon="-2.49243">
        <ele>555.2</ele>
        <time>2021-05-29 07:00:10</time>
      </trkpt>
      <trkpt lat="42.87403" lon="-2.49234">
        <ele>555.2</ele>
        <time>2021-05-29 07:00:11</time>
      </trkpt>
      <trkpt lat="42.87398" lon="-2.49226">
        <ele>555.2</ele>
        <time>2021-05-29 07:00:12</time>
      </trkpt>
      <trkpt lat="42.87394" lon="-2.49217">
        <ele>555.2</ele>
        <time>2021-05-29 07:00:13</time>
      </trkpt>
      <trkpt lat="42.87389" lon="-2.49208">
        <ele>555.2</ele>
        <time>2021-05-29 07:00:14</time>
      </trkpt>
      <trkpt lat="42.87385" lon="-2.49199">
        <ele>555.2</ele>
        <time>2021-05-29 07:00:15</time>
      </trkpt>
      <trkpt lat="42.87381" lon="-2.4919">
        <ele>555.4</ele>
        <time>2021-05-29 07:00:16</time>
      </trkpt>
      <trkpt lat="42.87378" lon="-2.49181">
        <ele>555.4</ele>
        <time>2021-05-29 07:00:17</time>
      </trkpt>
      <trkpt lat="42.87374" lon="-2.49172">
        <ele>555.4</ele>
        <time>2021-05-29 07:00:18</time>
      </trkpt>
      <trkpt lat="42.8737" lon="-2.49162">
        <ele>555.6</ele>
        <time>2021-05-29 07:00:19</time>
      </trkpt>
      <trkpt lat="42.87367" lon="-2.49153">
        <ele>555.6</ele>
        <time>2021-05-29 07:00:20</time>
      </trkpt>
      <trkpt lat="42.87364" lon="-2.49143">
        <ele>555.6</ele>
        <time>2021-05-29 07:00:21</time>
      </trkpt>
      <trkpt lat="42.87361" lon="-2.49133">
        <ele>555.6</ele>
        <time>2021-05-29 07:00:22</time>
      </trkpt>
      <trkpt lat="42.87358" lon="-2.49123">
        <ele>555.6</ele>
        <time>2021-05-29 07:00:23</time>
      </trkpt>
      <trkpt lat="42.87355" lon="-2.49113">
        <ele>555.6</ele>
        <time>2021-05-29 07:00:24</time>
      </trkpt>
      <trkpt lat="42.87352" lon="-2.49103">
        <ele>555.6</ele>
        <time>2021-05-29 07:00:25</time>
      </trkpt>
      <trkpt lat="42.87349" lon="-2.49093">
        <ele>555.6</ele>
        <time>2021-05-29 07:00:26</time>
      </trkpt>
      <trkpt lat="42.87346" lon="-2.49082">
        <ele>555.6</ele>
        <time>2021-05-29 07:00:27</time>
      </trkpt>
      <trkpt lat="42.87343" lon="-2.49072">
        <ele>555.4</ele>
        <time>2021-05-29 07:00:28</time>
      </trkpt>
      <trkpt lat="42.8734" lon="-2.49062">
        <ele>555.4</ele>
        <time>2021-05-29 07:00:29</time>
      </trkpt>
      <trkpt lat="42.87337" lon="-2.49051">
        <ele>555.4</ele>
        <time>2021-05-29 07:00:30</time>
      </trkpt>
      <trkpt lat="42.87334" lon="-2.49041">
        <ele>555.4</ele>
        <time>2021-05-29 07:00:31</time>
      </trkpt>
      <trkpt lat="42.87331" lon="-2.4903">
        <ele>555.6</ele>
        <time>2021-05-29 07:00:32</time>
      </trkpt>
      <trkpt lat="42.87328" lon="-2.4902">
        <ele>555.6</ele>
        <time>2021-05-29 07:00:33</time>
      </trkpt>
      <trkpt lat="42.87325" lon="-2.49009">
        <ele>555.4</ele>
        <time>2021-05-29 07:00:34</time>
      </trkpt>
      <trkpt lat="42.87322" lon="-2.48999">
        <ele>555.4</ele>
        <time>2021-05-29 07:00:35</time>
      </trkpt>
      <trkpt lat="42.87319" lon="-2.48988">
        <ele>555.4</ele>
        <time>2021-05-29 07:00:36</time>
      </trkpt>
      <trkpt lat="42.87316" lon="-2.48978">
        <ele>555.4</ele>
        <time>2021-05-29 07:00:37</time>
      </trkpt>
      <trkpt lat="42.87313" lon="-2.48967">
        <ele>555.4</ele>
        <time>2021-05-29 07:00:38</time>
      </trkpt>
      <trkpt lat="42.8731" lon="-2.48957">
        <ele>555.4</ele>
        <time>2021-05-29 07:00:39</time>
      </trkpt>
      <trkpt lat="42.87307" lon="-2.48947">
        <ele>555.4</ele>
        <time>2021-05-29 07:00:40</time>
      </trkpt>
      <trkpt lat="42.87303" lon="-2.48936">
        <ele>555.4</ele>
        <time>2021-05-29 07:00:41</time>
      </trkpt>
      <trkpt lat="42.873" lon="-2.48926">
        <ele>555.4</ele>
        <time>2021-05-29 07:00:42</time>
      </trkpt>
      <trkpt lat="42.87297" lon="-2.48916">
        <ele>555.4</ele>
        <time>2021-05-29 07:00:43</time>
      </trkpt>
      <trkpt lat="42.87293" lon="-2.48906">
        <ele>555.4</ele>
        <time>2021-05-29 07:00:44</time>
      </trkpt>
      <trkpt lat="42.87289" lon="-2.48897">
        <ele>555.4</ele>
        <time>2021-05-29 07:00:45</time>
      </trkpt>
      <trkpt lat="42.87286" lon="-2.48887">
        <ele>555.6</ele>
        <time>2021-05-29 07:00:46</time>
      </trkpt>
      <trkpt lat="42.87282" lon="-2.48877">
        <ele>555.6</ele>
        <time>2021-05-29 07:00:47</time>
      </trkpt>
      <trkpt lat="42.87278" lon="-2.48867">
        <ele>555.6</ele>
        <time>2021-05-29 07:00:48</time>
      </trkpt>
      <trkpt lat="42.87274" lon="-2.48858">
        <ele>555.6</ele>
        <time>2021-05-29 07:00:49</time>
      </trkpt>
      <trkpt lat="42.8727" lon="-2.48848">
        <ele>555.6</ele>
        <time>2021-05-29 07:00:50</time>
      </trkpt>
      <trkpt lat="42.87267" lon="-2.48839">
        <ele>555.6</ele>
        <time>2021-05-29 07:00:51</time>
      </trkpt>
      <trkpt lat="42.87263" lon="-2.4883">
        <ele>555.6</ele>
        <time>2021-05-29 07:00:52</time>
      </trkpt>
      <trkpt lat="42.87259" lon="-2.48821">
        <ele>555.6</ele>
        <time>2021-05-29 07:00:53</time>
      </trkpt>
      <trkpt lat="42.87255" lon="-2.48812">
        <ele>555.6</ele>
        <time>2021-05-29 07:00:54</time>
      </trkpt>
      <trkpt lat="42.87251" lon="-2.48802">
        <ele>555.6</ele>
        <time>2021-05-29 07:00:55</time>
      </trkpt>
      <trkpt lat="42.87247" lon="-2.48793">
        <ele>555.8</ele>
        <time>2021-05-29 07:00:56</time>
      </trkpt>
      <trkpt lat="42.87243" lon="-2.48784">
        <ele>555.8</ele>
        <time>2021-05-29 07:00:57</time>
      </trkpt>
      <trkpt lat="42.87239" lon="-2.48775">
        <ele>555.8</ele>
        <time>2021-05-29 07:00:58</time>
      </trkpt>
      <trkpt lat="42.87234" lon="-2.48766">
        <ele>556</ele>
        <time>2021-05-29 07:00:59</time>
      </trkpt>
      <trkpt lat="42.8723" lon="-2.48757">
        <ele>556</ele>
        <time>2021-05-29 07:01:00</time>
      </trkpt>
      <trkpt lat="42.87226" lon="-2.48748">
        <ele>556</ele>
        <time>2021-05-29 07:01:01</time>
      </trkpt>
      <trkpt lat="42.87222" lon="-2.48739">
        <ele>556.2</ele>
        <time>2021-05-29 07:01:02</time>
      </trkpt>
      <trkpt lat="42.87217" lon="-2.4873">
        <ele>556.2</ele>
        <time>2021-05-29 07:01:03</time>
      </trkpt>
      <trkpt lat="42.87213" lon="-2.48722">
        <ele>556.4</ele>
        <time>2021-05-29 07:01:04</time>
      </trkpt>
      <trkpt lat="42.87209" lon="-2.48713">
        <ele>556.4</ele>
        <time>2021-05-29 07:01:05</time>
      </trkpt>
      <trkpt lat="42.87205" lon="-2.48704">
        <ele>556.6</ele>
        <time>2021-05-29 07:01:06</time>
      </trkpt>
      <trkpt lat="42.87201" lon="-2.48696">
        <ele>556.6</ele>
        <time>2021-05-29 07:01:07</time>
      </trkpt>
      <trkpt lat="42.87196" lon="-2.48688">
        <ele>556.6</ele>
        <time>2021-05-29 07:01:08</time>
      </trkpt>
      <trkpt lat="42.87192" lon="-2.48679">
        <ele>556.6</ele>
        <time>2021-05-29 07:01:09</time>
      </trkpt>
      <trkpt lat="42.87188" lon="-2.48671">
        <ele>556.6</ele>
        <time>2021-05-29 07:01:10</time>
      </trkpt>
      <trkpt lat="42.87184" lon="-2.48662">
        <ele>556.8</ele>
        <time>2021-05-29 07:01:11</time>
      </trkpt>
      <trkpt lat="42.8718" lon="-2.48654">
        <ele>556.8</ele>
        <time>2021-05-29 07:01:12</time>
      </trkpt>
      <trkpt lat="42.87175" lon="-2.48645">
        <ele>557</ele>
        <time>2021-05-29 07:01:13</time>
      </trkpt>
      <trkpt lat="42.87171" lon="-2.48637">
        <ele>557.2</ele>
        <time>2021-05-29 07:01:14</time>
      </trkpt>
      <trkpt lat="42.87167" lon="-2.48628">
        <ele>557.2</ele>
        <time>2021-05-29 07:01:15</time>
      </trkpt>
      <trkpt lat="42.87163" lon="-2.48619">
        <ele>557.2</ele>
        <time>2021-05-29 07:01:16</time>
      </trkpt>
      <trkpt lat="42.87158" lon="-2.48611">
        <ele>557.2</ele>
        <time>2021-05-29 07:01:17</time>
      </trkpt>
      <trkpt lat="42.87154" lon="-2.48603">
        <ele>557.4</ele>
        <time>2021-05-29 07:01:18</time>
      </trkpt>
      <trkpt lat="42.8715" lon="-2.48595">
        <ele>557.4</ele>
        <time>2021-05-29 07:01:19</time>
      </trkpt>
      <trkpt lat="42.87146" lon="-2.48586">
        <ele>557.4</ele>
        <time>2021-05-29 07:01:20</time>
      </trkpt>
      <trkpt lat="42.87142" lon="-2.48578">
        <ele>557.6</ele>
        <time>2021-05-29 07:01:21</time>
      </trkpt>
      <trkpt lat="42.87138" lon="-2.4857">
        <ele>557.6</ele>
        <time>2021-05-29 07:01:22</time>
      </trkpt>
      <trkpt lat="42.87134" lon="-2.48561">
        <ele>557.6</ele>
        <time>2021-05-29 07:01:23</time>
      </trkpt>
      <trkpt lat="42.8713" lon="-2.48553">
        <ele>557.8</ele>
        <time>2021-05-29 07:01:24</time>
      </trkpt>
      <trkpt lat="42.87126" lon="-2.48545">
        <ele>557.8</ele>
        <time>2021-05-29 07:01:25</time>
      </trkpt>
      <trkpt lat="42.87121" lon="-2.48536">
        <ele>558</ele>
        <time>2021-05-29 07:01:26</time>
      </trkpt>
      <trkpt lat="42.87117" lon="-2.48528">
        <ele>558</ele>
        <time>2021-05-29 07:01:27</time>
      </trkpt>
      <trkpt lat="42.87113" lon="-2.48519">
        <ele>558</ele>
        <time>2021-05-29 07:01:28</time>
      </trkpt>
      <trkpt lat="42.87108" lon="-2.4851">
        <ele>558.2</ele>
        <time>2021-05-29 07:01:29</time>
      </trkpt>
      <trkpt lat="42.87104" lon="-2.48501">
        <ele>558.2</ele>
        <time>2021-05-29 07:01:30</time>
      </trkpt>
      <trkpt lat="42.87099" lon="-2.48492">
        <ele>558.2</ele>
        <time>2021-05-29 07:01:31</time>
      </trkpt>
      <trkpt lat="42.87094" lon="-2.48483">
        <ele>558.2</ele>
        <time>2021-05-29 07:01:32</time>
      </trkpt>
      <trkpt lat="42.8709" lon="-2.48474">
        <ele>558.2</ele>
        <time>2021-05-29 07:01:33</time>
      </trkpt>
      <trkpt lat="42.87085" lon="-2.48465">
        <ele>558.2</ele>
        <time>2021-05-29 07:01:34</time>
      </trkpt>
      <trkpt lat="42.8708" lon="-2.48456">
        <ele>558.2</ele>
        <time>2021-05-29 07:01:35</time>
      </trkpt>
      <trkpt lat="42.87076" lon="-2.48447">
        <ele>558.2</ele>
        <time>2021-05-29 07:01:36</time>
      </trkpt>
      <trkpt lat="42.87071" lon="-2.48438">
        <ele>558.2</ele>
        <time>2021-05-29 07:01:37</time>
      </trkpt>
      <trkpt lat="42.87066" lon="-2.48429">
        <ele>558.2</ele>
        <time>2021-05-29 07:01:38</time>
      </trkpt>
      <trkpt lat="42.87061" lon="-2.4842">
        <ele>558.2</ele>
        <time>2021-05-29 07:01:39</time>
      </trkpt>
      <trkpt lat="42.87056" lon="-2.48411">
        <ele>558.2</ele>
        <time>2021-05-29 07:01:40</time>
      </trkpt>
      <trkpt lat="42.87051" lon="-2.48402">
        <ele>558.2</ele>
        <time>2021-05-29 07:01:41</time>
      </trkpt>
      <trkpt lat="42.87046" lon="-2.48394">
        <ele>558</ele>
        <time>2021-05-29 07:01:42</time>
      </trkpt>
      <trkpt lat="42.87041" lon="-2.48385">
        <ele>558</ele>
        <time>2021-05-29 07:01:43</time>
      </trkpt>
      <trkpt lat="42.87036" lon="-2.48376">
        <ele>558</ele>
        <time>2021-05-29 07:01:44</time>
      </trkpt>
      <trkpt lat="42.87031" lon="-2.48367">
        <ele>558</ele>
        <time>2021-05-29 07:01:45</time>
      </trkpt>
      <trkpt lat="42.87026" lon="-2.48359">
        <ele>558</ele>
        <time>2021-05-29 07:01:46</time>
      </trkpt>
      <trkpt lat="42.87021" lon="-2.4835">
        <ele>558</ele>
        <time>2021-05-29 07:01:47</time>
      </trkpt>
      <trkpt lat="42.87016" lon="-2.48341">
        <ele>557.8</ele>
        <time>2021-05-29 07:01:48</time>
      </trkpt>
      <trkpt lat="42.87011" lon="-2.48333">
        <ele>557.8</ele>
        <time>2021-05-29 07:01:49</time>
      </trkpt>
      <trkpt lat="42.87006" lon="-2.48325">
        <ele>557.8</ele>
        <time>2021-05-29 07:01:50</time>
      </trkpt>
      <trkpt lat="42.87001" lon="-2.48318">
        <ele>557.8</ele>
        <time>2021-05-29 07:01:51</time>
      </trkpt>
      <trkpt lat="42.86997" lon="-2.4831">
        <ele>558</ele>
        <time>2021-05-29 07:01:52</time>
      </trkpt>
      <trkpt lat="42.86992" lon="-2.48303">
        <ele>558</ele>
        <time>2021-05-29 07:01:53</time>
      </trkpt>
      <trkpt lat="42.86988" lon="-2.48296">
        <ele>558</ele>
        <time>2021-05-29 07:01:54</time>
      </trkpt>
      <trkpt lat="42.86984" lon="-2.4829">
        <ele>558</ele>
        <time>2021-05-29 07:01:55</time>
      </trkpt>
      <trkpt lat="42.8698" lon="-2.48283">
        <ele>558</ele>
        <time>2021-05-29 07:01:56</time>
      </trkpt>
      <trkpt lat="42.86976" lon="-2.48277">
        <ele>558</ele>
        <time>2021-05-29 07:01:57</time>
      </trkpt>
      <trkpt lat="42.86972" lon="-2.48271">
        <ele>558</ele>
        <time>2021-05-29 07:01:58</time>
      </trkpt>
      <trkpt lat="42.86968" lon="-2.48265">
        <ele>558.2</ele>
        <time>2021-05-29 07:01:59</time>
      </trkpt>
      <trkpt lat="42.86964" lon="-2.48259">
        <ele>558.2</ele>
        <time>2021-05-29 07:02:00</time>
      </trkpt>
      <trkpt lat="42.86961" lon="-2.48253">
        <ele>558.4</ele>
        <time>2021-05-29 07:02:01</time>
      </trkpt>
      <trkpt lat="42.86957" lon="-2.48247">
        <ele>558.6</ele>
        <time>2021-05-29 07:02:02</time>
      </trkpt>
      <trkpt lat="42.86954" lon="-2.48241">
        <ele>558.8</ele>
        <time>2021-05-29 07:02:03</time>
      </trkpt>
      <trkpt lat="42.8695" lon="-2.48236">
        <ele>559</ele>
        <time>2021-05-29 07:02:04</time>
      </trkpt>
      <trkpt lat="42.86946" lon="-2.4823">
        <ele>559.2</ele>
        <time>2021-05-29 07:02:05</time>
      </trkpt>
      <trkpt lat="42.86943" lon="-2.48225">
        <ele>559.4</ele>
        <time>2021-05-29 07:02:06</time>
      </trkpt>
      <trkpt lat="42.86939" lon="-2.48219">
        <ele>559.6</ele>
        <time>2021-05-29 07:02:07</time>
      </trkpt>
      <trkpt lat="42.86936" lon="-2.48214">
        <ele>559.8</ele>
        <time>2021-05-29 07:02:08</time>
      </trkpt>
      <trkpt lat="42.86932" lon="-2.48208">
        <ele>560</ele>
        <time>2021-05-29 07:02:09</time>
      </trkpt>
      <trkpt lat="42.86929" lon="-2.48203">
        <ele>560.2</ele>
        <time>2021-05-29 07:02:10</time>
      </trkpt>
      <trkpt lat="42.86925" lon="-2.48197">
        <ele>560.4</ele>
        <time>2021-05-29 07:02:11</time>
      </trkpt>
      <trkpt lat="42.86921" lon="-2.48192">
        <ele>560.4</ele>
        <time>2021-05-29 07:02:12</time>
      </trkpt>
      <trkpt lat="42.86918" lon="-2.48186">
        <ele>560.4</ele>
        <time>2021-05-29 07:02:13</time>
      </trkpt>
      <trkpt lat="42.86914" lon="-2.48181">
        <ele>560.6</ele>
        <time>2021-05-29 07:02:14</time>
      </trkpt>
      <trkpt lat="42.8691" lon="-2.48175">
        <ele>561</ele>
        <time>2021-05-29 07:02:15</time>
      </trkpt>
      <trkpt lat="42.86907" lon="-2.48169">
        <ele>561</ele>
        <time>2021-05-29 07:02:16</time>
      </trkpt>
      <trkpt lat="42.86903" lon="-2.48164">
        <ele>561.2</ele>
        <time>2021-05-29 07:02:17</time>
      </trkpt>
      <trkpt lat="42.86899" lon="-2.48158">
        <ele>561.2</ele>
        <time>2021-05-29 07:02:18</time>
      </trkpt>
      <trkpt lat="42.86895" lon="-2.48152">
        <ele>561.6</ele>
        <time>2021-05-29 07:02:19</time>
      </trkpt>
      <trkpt lat="42.86892" lon="-2.48147">
        <ele>561.6</ele>
        <time>2021-05-29 07:02:20</time>
      </trkpt>
      <trkpt lat="42.86888" lon="-2.48141">
        <ele>561.8</ele>
        <time>2021-05-29 07:02:21</time>
      </trkpt>
      <trkpt lat="42.86884" lon="-2.48136">
        <ele>562.2</ele>
        <time>2021-05-29 07:02:22</time>
      </trkpt>
      <trkpt lat="42.8688" lon="-2.4813">
        <ele>562.2</ele>
        <time>2021-05-29 07:02:23</time>
      </trkpt>
      <trkpt lat="42.86875" lon="-2.48124">
        <ele>562.4</ele>
        <time>2021-05-29 07:02:24</time>
      </trkpt>
      <trkpt lat="42.86871" lon="-2.48118">
        <ele>562.6</ele>
        <time>2021-05-29 07:02:25</time>
      </trkpt>
      <trkpt lat="42.86866" lon="-2.48112">
        <ele>562.8</ele>
        <time>2021-05-29 07:02:26</time>
      </trkpt>
      <trkpt lat="42.86861" lon="-2.48106">
        <ele>563</ele>
        <time>2021-05-29 07:02:27</time>
      </trkpt>
      <trkpt lat="42.86856" lon="-2.481">
        <ele>563.2</ele>
        <time>2021-05-29 07:02:28</time>
      </trkpt>
      <trkpt lat="42.86851" lon="-2.48094">
        <ele>563.4</ele>
        <time>2021-05-29 07:02:29</time>
      </trkpt>
      <trkpt lat="42.86845" lon="-2.48088">
        <ele>563.6</ele>
        <time>2021-05-29 07:02:30</time>
      </trkpt>
      <trkpt lat="42.8684" lon="-2.48082">
        <ele>563.8</ele>
        <time>2021-05-29 07:02:31</time>
      </trkpt>
      <trkpt lat="42.86834" lon="-2.48076">
        <ele>563.8</ele>
        <time>2021-05-29 07:02:32</time>
      </trkpt>
      <trkpt lat="42.86828" lon="-2.4807">
        <ele>563.8</ele>
        <time>2021-05-29 07:02:33</time>
      </trkpt>
      <trkpt lat="42.86822" lon="-2.48064">
        <ele>563.8</ele>
        <time>2021-05-29 07:02:34</time>
      </trkpt>
      <trkpt lat="42.86816" lon="-2.48058">
        <ele>563.8</ele>
        <time>2021-05-29 07:02:35</time>
      </trkpt>
      <trkpt lat="42.8681" lon="-2.48053">
        <ele>563.8</ele>
        <time>2021-05-29 07:02:36</time>
      </trkpt>
      <trkpt lat="42.86804" lon="-2.48047">
        <ele>563.8</ele>
        <time>2021-05-29 07:02:37</time>
      </trkpt>
      <trkpt lat="42.86798" lon="-2.48042">
        <ele>563.8</ele>
        <time>2021-05-29 07:02:38</time>
      </trkpt>
      <trkpt lat="42.86792" lon="-2.48036">
        <ele>563.8</ele>
        <time>2021-05-29 07:02:39</time>
      </trkpt>
      <trkpt lat="42.86785" lon="-2.4803">
        <ele>563.8</ele>
        <time>2021-05-29 07:02:40</time>
      </trkpt>
      <trkpt lat="42.86779" lon="-2.48025">
        <ele>563.8</ele>
        <time>2021-05-29 07:02:41</time>
      </trkpt>
      <trkpt lat="42.86772" lon="-2.48019">
        <ele>563.8</ele>
        <time>2021-05-29 07:02:42</time>
      </trkpt>
      <trkpt lat="42.86766" lon="-2.48013">
        <ele>563.8</ele>
        <time>2021-05-29 07:02:43</time>
      </trkpt>
      <trkpt lat="42.86759" lon="-2.48007">
        <ele>563.8</ele>
        <time>2021-05-29 07:02:44</time>
      </trkpt>
      <trkpt lat="42.86753" lon="-2.48001">
        <ele>563.8</ele>
        <time>2021-05-29 07:02:45</time>
      </trkpt>
      <trkpt lat="42.86746" lon="-2.47996">
        <ele>563.8</ele>
        <time>2021-05-29 07:02:46</time>
      </trkpt>
      <trkpt lat="42.8674" lon="-2.4799">
        <ele>563.6</ele>
        <time>2021-05-29 07:02:47</time>
      </trkpt>
      <trkpt lat="42.86733" lon="-2.47984">
        <ele>563.6</ele>
        <time>2021-05-29 07:02:48</time>
      </trkpt>
      <trkpt lat="42.86726" lon="-2.47978">
        <ele>563.6</ele>
        <time>2021-05-29 07:02:49</time>
      </trkpt>
      <trkpt lat="42.8672" lon="-2.47973">
        <ele>563.4</ele>
        <time>2021-05-29 07:02:50</time>
      </trkpt>
      <trkpt lat="42.86713" lon="-2.47967">
        <ele>563.4</ele>
        <time>2021-05-29 07:02:51</time>
      </trkpt>
      <trkpt lat="42.86707" lon="-2.47961">
        <ele>563.4</ele>
        <time>2021-05-29 07:02:52</time>
      </trkpt>
      <trkpt lat="42.867" lon="-2.47955">
        <ele>563.4</ele>
        <time>2021-05-29 07:02:53</time>
      </trkpt>
      <trkpt lat="42.86694" lon="-2.4795">
        <ele>563.4</ele>
        <time>2021-05-29 07:02:54</time>
      </trkpt>
      <trkpt lat="42.86687" lon="-2.47944">
        <ele>563.4</ele>
        <time>2021-05-29 07:02:55</time>
      </trkpt>
      <trkpt lat="42.86681" lon="-2.47938">
        <ele>563.2</ele>
        <time>2021-05-29 07:02:56</time>
      </trkpt>
      <trkpt lat="42.86674" lon="-2.47932">
        <ele>563.2</ele>
        <time>2021-05-29 07:02:57</time>
      </trkpt>
      <trkpt lat="42.86667" lon="-2.47926">
        <ele>563</ele>
        <time>2021-05-29 07:02:58</time>
      </trkpt>
      <trkpt lat="42.86661" lon="-2.47921">
        <ele>563</ele>
        <time>2021-05-29 07:02:59</time>
      </trkpt>
      <trkpt lat="42.86654" lon="-2.47915">
        <ele>562.8</ele>
        <time>2021-05-29 07:03:00</time>
      </trkpt>
      <trkpt lat="42.86647" lon="-2.47909">
        <ele>562.8</ele>
        <time>2021-05-29 07:03:01</time>
      </trkpt>
      <trkpt lat="42.8664" lon="-2.47904">
        <ele>562.8</ele>
        <time>2021-05-29 07:03:02</time>
      </trkpt>
      <trkpt lat="42.86633" lon="-2.47898">
        <ele>562.6</ele>
        <time>2021-05-29 07:03:03</time>
      </trkpt>
      <trkpt lat="42.86626" lon="-2.47893">
        <ele>562.6</ele>
        <time>2021-05-29 07:03:04</time>
      </trkpt>
      <trkpt lat="42.86619" lon="-2.47888">
        <ele>562.6</ele>
        <time>2021-05-29 07:03:05</time>
      </trkpt>
      <trkpt lat="42.86612" lon="-2.47882">
        <ele>562.6</ele>
        <time>2021-05-29 07:03:06</time>
      </trkpt>
      <trkpt lat="42.86605" lon="-2.47877">
        <ele>562.4</ele>
        <time>2021-05-29 07:03:07</time>
      </trkpt>
      <trkpt lat="42.86598" lon="-2.47872">
        <ele>562.4</ele>
        <time>2021-05-29 07:03:08</time>
      </trkpt>
      <trkpt lat="42.86591" lon="-2.47866">
        <ele>562.4</ele>
        <time>2021-05-29 07:03:09</time>
      </trkpt>
      <trkpt lat="42.86584" lon="-2.47861">
        <ele>562.2</ele>
        <time>2021-05-29 07:03:10</time>
      </trkpt>
      <trkpt lat="42.86578" lon="-2.47856">
        <ele>562.2</ele>
        <time>2021-05-29 07:03:11</time>
      </trkpt>
      <trkpt lat="42.86571" lon="-2.4785">
        <ele>562.2</ele>
        <time>2021-05-29 07:03:12</time>
      </trkpt>
      <trkpt lat="42.86564" lon="-2.47845">
        <ele>562.2</ele>
        <time>2021-05-29 07:03:13</time>
      </trkpt>
      <trkpt lat="42.86557" lon="-2.4784">
        <ele>562.2</ele>
        <time>2021-05-29 07:03:14</time>
      </trkpt>
      <trkpt lat="42.8655" lon="-2.47835">
        <ele>562.2</ele>
        <time>2021-05-29 07:03:15</time>
      </trkpt>
      <trkpt lat="42.86544" lon="-2.4783">
        <ele>562.2</ele>
        <time>2021-05-29 07:03:16</time>
      </trkpt>
      <trkpt lat="42.86537" lon="-2.47824">
        <ele>562.2</ele>
        <time>2021-05-29 07:03:17</time>
      </trkpt>
      <trkpt lat="42.8653" lon="-2.47819">
        <ele>562.2</ele>
        <time>2021-05-29 07:03:18</time>
      </trkpt>
      <trkpt lat="42.86524" lon="-2.47813">
        <ele>562.2</ele>
        <time>2021-05-29 07:03:19</time>
      </trkpt>
      <trkpt lat="42.86517" lon="-2.47807">
        <ele>562.2</ele>
        <time>2021-05-29 07:03:20</time>
      </trkpt>
      <trkpt lat="42.86511" lon="-2.47801">
        <ele>562</ele>
        <time>2021-05-29 07:03:21</time>
      </trkpt>
      <trkpt lat="42.86505" lon="-2.47795">
        <ele>562</ele>
        <time>2021-05-29 07:03:22</time>
      </trkpt>
      <trkpt lat="42.86499" lon="-2.47789">
        <ele>562</ele>
        <time>2021-05-29 07:03:23</time>
      </trkpt>
      <trkpt lat="42.86493" lon="-2.47782">
        <ele>562</ele>
        <time>2021-05-29 07:03:24</time>
      </trkpt>
      <trkpt lat="42.86488" lon="-2.47775">
        <ele>562</ele>
        <time>2021-05-29 07:03:25</time>
      </trkpt>
      <trkpt lat="42.86483" lon="-2.47768">
        <ele>562</ele>
        <time>2021-05-29 07:03:26</time>
      </trkpt>
      <trkpt lat="42.86477" lon="-2.47761">
        <ele>562.2</ele>
        <time>2021-05-29 07:03:27</time>
      </trkpt>
      <trkpt lat="42.86472" lon="-2.47754">
        <ele>562.2</ele>
        <time>2021-05-29 07:03:28</time>
      </trkpt>
      <trkpt lat="42.86467" lon="-2.47747">
        <ele>562.2</ele>
        <time>2021-05-29 07:03:29</time>
      </trkpt>
      <trkpt lat="42.86462" lon="-2.47739">
        <ele>562.2</ele>
        <time>2021-05-29 07:03:30</time>
      </trkpt>
      <trkpt lat="42.86458" lon="-2.47732">
        <ele>562.6</ele>
        <time>2021-05-29 07:03:31</time>
      </trkpt>
      <trkpt lat="42.86453" lon="-2.47724">
        <ele>562.8</ele>
        <time>2021-05-29 07:03:32</time>
      </trkpt>
      <trkpt lat="42.86449" lon="-2.47717">
        <ele>563</ele>
        <time>2021-05-29 07:03:33</time>
      </trkpt>
      <trkpt lat="42.86444" lon="-2.4771">
        <ele>563</ele>
        <time>2021-05-29 07:03:34</time>
      </trkpt>
      <trkpt lat="42.8644" lon="-2.47703">
        <ele>563.2</ele>
        <time>2021-05-29 07:03:35</time>
      </trkpt>
      <trkpt lat="42.86436" lon="-2.47697">
        <ele>563.2</ele>
        <time>2021-05-29 07:03:36</time>
      </trkpt>
      <trkpt lat="42.86432" lon="-2.4769">
        <ele>563.4</ele>
        <time>2021-05-29 07:03:37</time>
      </trkpt>
      <trkpt lat="42.86428" lon="-2.47684">
        <ele>563.4</ele>
        <time>2021-05-29 07:03:38</time>
      </trkpt>
      <trkpt lat="42.86425" lon="-2.47678">
        <ele>563.4</ele>
        <time>2021-05-29 07:03:39</time>
      </trkpt>
      <trkpt lat="42.86421" lon="-2.47671">
        <ele>563.4</ele>
        <time>2021-05-29 07:03:40</time>
      </trkpt>
      <trkpt lat="42.86417" lon="-2.47665">
        <ele>563.6</ele>
        <time>2021-05-29 07:03:41</time>
      </trkpt>
      <trkpt lat="42.86413" lon="-2.47659">
        <ele>564</ele>
        <time>2021-05-29 07:03:42</time>
      </trkpt>
      <trkpt lat="42.8641" lon="-2.47653">
        <ele>564.2</ele>
        <time>2021-05-29 07:03:43</time>
      </trkpt>
      <trkpt lat="42.86406" lon="-2.47647">
        <ele>564.4</ele>
        <time>2021-05-29 07:03:44</time>
      </trkpt>
      <trkpt lat="42.86402" lon="-2.47641">
        <ele>564.6</ele>
        <time>2021-05-29 07:03:45</time>
      </trkpt>
      <trkpt lat="42.86399" lon="-2.47636">
        <ele>564.8</ele>
        <time>2021-05-29 07:03:46</time>
      </trkpt>
      <trkpt lat="42.86395" lon="-2.4763">
        <ele>565</ele>
        <time>2021-05-29 07:03:47</time>
      </trkpt>
      <trkpt lat="42.86392" lon="-2.47624">
        <ele>565</ele>
        <time>2021-05-29 07:03:48</time>
      </trkpt>
      <trkpt lat="42.86388" lon="-2.47618">
        <ele>565</ele>
        <time>2021-05-29 07:03:49</time>
      </trkpt>
      <trkpt lat="42.86385" lon="-2.47612">
        <ele>565.4</ele>
        <time>2021-05-29 07:03:50</time>
      </trkpt>
      <trkpt lat="42.86381" lon="-2.47606">
        <ele>565.6</ele>
        <time>2021-05-29 07:03:51</time>
      </trkpt>
      <trkpt lat="42.86377" lon="-2.47599">
        <ele>565.8</ele>
        <time>2021-05-29 07:03:52</time>
      </trkpt>
      <trkpt lat="42.86373" lon="-2.47593">
        <ele>566</ele>
        <time>2021-05-29 07:03:53</time>
      </trkpt>
      <trkpt lat="42.86369" lon="-2.47587">
        <ele>566.2</ele>
        <time>2021-05-29 07:03:54</time>
      </trkpt>
      <trkpt lat="42.86365" lon="-2.47581">
        <ele>566.4</ele>
        <time>2021-05-29 07:03:55</time>
      </trkpt>
      <trkpt lat="42.86361" lon="-2.47574">
        <ele>566.6</ele>
        <time>2021-05-29 07:03:56</time>
      </trkpt>
      <trkpt lat="42.86357" lon="-2.47568">
        <ele>566.8</ele>
        <time>2021-05-29 07:03:57</time>
      </trkpt>
      <trkpt lat="42.86353" lon="-2.47561">
        <ele>567</ele>
        <time>2021-05-29 07:03:58</time>
      </trkpt>
      <trkpt lat="42.86349" lon="-2.47555">
        <ele>567.2</ele>
        <time>2021-05-29 07:03:59</time>
      </trkpt>
      <trkpt lat="42.86345" lon="-2.47549">
        <ele>567.4</ele>
        <time>2021-05-29 07:04:00</time>
      </trkpt>
      <trkpt lat="42.86341" lon="-2.47543">
        <ele>567.6</ele>
        <time>2021-05-29 07:04:01</time>
      </trkpt>
      <trkpt lat="42.86338" lon="-2.47537">
        <ele>567.8</ele>
        <time>2021-05-29 07:04:02</time>
      </trkpt>
      <trkpt lat="42.86334" lon="-2.47531">
        <ele>568.2</ele>
        <time>2021-05-29 07:04:03</time>
      </trkpt>
      <trkpt lat="42.8633" lon="-2.47525">
        <ele>568.4</ele>
        <time>2021-05-29 07:04:04</time>
      </trkpt>
      <trkpt lat="42.86327" lon="-2.47518">
        <ele>568.4</ele>
        <time>2021-05-29 07:04:05</time>
      </trkpt>
      <trkpt lat="42.86323" lon="-2.47512">
        <ele>568.8</ele>
        <time>2021-05-29 07:04:06</time>
      </trkpt>
      <trkpt lat="42.86319" lon="-2.47506">
        <ele>569.2</ele>
        <time>2021-05-29 07:04:07</time>
      </trkpt>
      <trkpt lat="42.86316" lon="-2.475">
        <ele>569.2</ele>
        <time>2021-05-29 07:04:08</time>
      </trkpt>
      <trkpt lat="42.86312" lon="-2.47494">
        <ele>569.4</ele>
        <time>2021-05-29 07:04:09</time>
      </trkpt>
      <trkpt lat="42.86308" lon="-2.47488">
        <ele>569.6</ele>
        <time>2021-05-29 07:04:10</time>
      </trkpt>
      <trkpt lat="42.86305" lon="-2.47482">
        <ele>569.8</ele>
        <time>2021-05-29 07:04:11</time>
      </trkpt>
      <trkpt lat="42.86301" lon="-2.47476">
        <ele>570</ele>
        <time>2021-05-29 07:04:12</time>
      </trkpt>
      <trkpt lat="42.86298" lon="-2.4747">
        <ele>570.2</ele>
        <time>2021-05-29 07:04:13</time>
      </trkpt>
      <trkpt lat="42.86294" lon="-2.47464">
        <ele>570.4</ele>
        <time>2021-05-29 07:04:14</time>
      </trkpt>
      <trkpt lat="42.86291" lon="-2.47458">
        <ele>570.6</ele>
        <time>2021-05-29 07:04:15</time>
      </trkpt>
      <trkpt lat="42.86287" lon="-2.47452">
        <ele>570.8</ele>
        <time>2021-05-29 07:04:16</time>
      </trkpt>
      <trkpt lat="42.86284" lon="-2.47445">
        <ele>571</ele>
        <time>2021-05-29 07:04:17</time>
      </trkpt>
      <trkpt lat="42.8628" lon="-2.47439">
        <ele>571.2</ele>
        <time>2021-05-29 07:04:18</time>
      </trkpt>
      <trkpt lat="42.86277" lon="-2.47433">
        <ele>571.6</ele>
        <time>2021-05-29 07:04:19</time>
      </trkpt>
      <trkpt lat="42.86274" lon="-2.47426">
        <ele>571.8</ele>
        <time>2021-05-29 07:04:20</time>
      </trkpt>
      <trkpt lat="42.86271" lon="-2.47419">
        <ele>572.2</ele>
        <time>2021-05-29 07:04:21</time>
      </trkpt>
      <trkpt lat="42.86267" lon="-2.47412">
        <ele>572.4</ele>
        <time>2021-05-29 07:04:22</time>
      </trkpt>
      <trkpt lat="42.86265" lon="-2.47404">
        <ele>572.6</ele>
        <time>2021-05-29 07:04:23</time>
      </trkpt>
      <trkpt lat="42.86261" lon="-2.47397">
        <ele>572.8</ele>
        <time>2021-05-29 07:04:24</time>
      </trkpt>
      <trkpt lat="42.86258" lon="-2.47389">
        <ele>573</ele>
        <time>2021-05-29 07:04:25</time>
      </trkpt>
      <trkpt lat="42.86255" lon="-2.47381">
        <ele>573.2</ele>
        <time>2021-05-29 07:04:26</time>
      </trkpt>
      <trkpt lat="42.86252" lon="-2.47373">
        <ele>573.4</ele>
        <time>2021-05-29 07:04:27</time>
      </trkpt>
      <trkpt lat="42.86249" lon="-2.47364">
        <ele>573.6</ele>
        <time>2021-05-29 07:04:28</time>
      </trkpt>
      <trkpt lat="42.86246" lon="-2.47356">
        <ele>573.8</ele>
        <time>2021-05-29 07:04:29</time>
      </trkpt>
      <trkpt lat="42.86243" lon="-2.47348">
        <ele>573.8</ele>
        <time>2021-05-29 07:04:30</time>
      </trkpt>
      <trkpt lat="42.8624" lon="-2.4734">
        <ele>574</ele>
        <time>2021-05-29 07:04:31</time>
      </trkpt>
      <trkpt lat="42.86237" lon="-2.47332">
        <ele>574</ele>
        <time>2021-05-29 07:04:32</time>
      </trkpt>
      <trkpt lat="42.86235" lon="-2.47325">
        <ele>574.2</ele>
        <time>2021-05-29 07:04:33</time>
      </trkpt>
      <trkpt lat="42.86232" lon="-2.47318">
        <ele>574.2</ele>
        <time>2021-05-29 07:04:34</time>
      </trkpt>
      <trkpt lat="42.86229" lon="-2.4731">
        <ele>574.4</ele>
        <time>2021-05-29 07:04:35</time>
      </trkpt>
      <trkpt lat="42.86226" lon="-2.47303">
        <ele>574.6</ele>
        <time>2021-05-29 07:04:36</time>
      </trkpt>
      <trkpt lat="42.86224" lon="-2.47295">
        <ele>574.6</ele>
        <time>2021-05-29 07:04:37</time>
      </trkpt>
      <trkpt lat="42.86221" lon="-2.47288">
        <ele>574.6</ele>
        <time>2021-05-29 07:04:38</time>
      </trkpt>
      <trkpt lat="42.86218" lon="-2.4728">
        <ele>574.6</ele>
        <time>2021-05-29 07:04:39</time>
      </trkpt>
      <trkpt lat="42.86215" lon="-2.47272">
        <ele>574.6</ele>
        <time>2021-05-29 07:04:40</time>
      </trkpt>
      <trkpt lat="42.86212" lon="-2.47265">
        <ele>574.6</ele>
        <time>2021-05-29 07:04:41</time>
      </trkpt>
      <trkpt lat="42.86209" lon="-2.47257">
        <ele>574.6</ele>
        <time>2021-05-29 07:04:42</time>
      </trkpt>
      <trkpt lat="42.86206" lon="-2.47249">
        <ele>574.8</ele>
        <time>2021-05-29 07:04:43</time>
      </trkpt>
      <trkpt lat="42.86203" lon="-2.47241">
        <ele>574.8</ele>
        <time>2021-05-29 07:04:44</time>
      </trkpt>
      <trkpt lat="42.86201" lon="-2.47233">
        <ele>574.8</ele>
        <time>2021-05-29 07:04:45</time>
      </trkpt>
      <trkpt lat="42.86198" lon="-2.47226">
        <ele>575</ele>
        <time>2021-05-29 07:04:46</time>
      </trkpt>
      <trkpt lat="42.86195" lon="-2.47218">
        <ele>575</ele>
        <time>2021-05-29 07:04:47</time>
      </trkpt>
      <trkpt lat="42.86192" lon="-2.4721">
        <ele>575.2</ele>
        <time>2021-05-29 07:04:48</time>
      </trkpt>
      <trkpt lat="42.86189" lon="-2.47203">
        <ele>575.4</ele>
        <time>2021-05-29 07:04:49</time>
      </trkpt>
      <trkpt lat="42.86186" lon="-2.47195">
        <ele>575.4</ele>
        <time>2021-05-29 07:04:50</time>
      </trkpt>
      <trkpt lat="42.86183" lon="-2.47187">
        <ele>575.6</ele>
        <time>2021-05-29 07:04:51</time>
      </trkpt>
      <trkpt lat="42.8618" lon="-2.4718">
        <ele>575.6</ele>
        <time>2021-05-29 07:04:52</time>
      </trkpt>
      <trkpt lat="42.86177" lon="-2.47172">
        <ele>575.8</ele>
        <time>2021-05-29 07:04:53</time>
      </trkpt>
      <trkpt lat="42.86175" lon="-2.47164">
        <ele>575.8</ele>
        <time>2021-05-29 07:04:54</time>
      </trkpt>
      <trkpt lat="42.86172" lon="-2.47157">
        <ele>576</ele>
        <time>2021-05-29 07:04:55</time>
      </trkpt>
      <trkpt lat="42.86169" lon="-2.47149">
        <ele>576</ele>
        <time>2021-05-29 07:04:56</time>
      </trkpt>
      <trkpt lat="42.86166" lon="-2.47141">
        <ele>576.2</ele>
        <time>2021-05-29 07:04:57</time>
      </trkpt>
      <trkpt lat="42.86163" lon="-2.47133">
        <ele>576.4</ele>
        <time>2021-05-29 07:04:58</time>
      </trkpt>
      <trkpt lat="42.8616" lon="-2.47124">
        <ele>576.6</ele>
        <time>2021-05-29 07:04:59</time>
      </trkpt>
      <trkpt lat="42.86157" lon="-2.47116">
        <ele>576.6</ele>
        <time>2021-05-29 07:05:00</time>
      </trkpt>
      <trkpt lat="42.86154" lon="-2.47108">
        <ele>576.8</ele>
        <time>2021-05-29 07:05:01</time>
      </trkpt>
      <trkpt lat="42.86151" lon="-2.471">
        <ele>577</ele>
        <time>2021-05-29 07:05:02</time>
      </trkpt>
      <trkpt lat="42.86148" lon="-2.47092">
        <ele>577</ele>
        <time>2021-05-29 07:05:03</time>
      </trkpt>
      <trkpt lat="42.86145" lon="-2.47084">
        <ele>577.2</ele>
        <time>2021-05-29 07:05:04</time>
      </trkpt>
      <trkpt lat="42.86142" lon="-2.47076">
        <ele>577.2</ele>
        <time>2021-05-29 07:05:05</time>
      </trkpt>
      <trkpt lat="42.8614" lon="-2.47068">
        <ele>577.4</ele>
        <time>2021-05-29 07:05:06</time>
      </trkpt>
      <trkpt lat="42.86137" lon="-2.4706">
        <ele>577.4</ele>
        <time>2021-05-29 07:05:07</time>
      </trkpt>
      <trkpt lat="42.86134" lon="-2.47052">
        <ele>577.4</ele>
        <time>2021-05-29 07:05:08</time>
      </trkpt>
      <trkpt lat="42.86132" lon="-2.47044">
        <ele>577.6</ele>
        <time>2021-05-29 07:05:09</time>
      </trkpt>
      <trkpt lat="42.86129" lon="-2.47035">
        <ele>577.8</ele>
        <time>2021-05-29 07:05:10</time>
      </trkpt>
      <trkpt lat="42.86127" lon="-2.47027">
        <ele>578</ele>
        <time>2021-05-29 07:05:11</time>
      </trkpt>
      <trkpt lat="42.86124" lon="-2.47019">
        <ele>578.2</ele>
        <time>2021-05-29 07:05:12</time>
      </trkpt>
      <trkpt lat="42.86122" lon="-2.4701">
        <ele>578.4</ele>
        <time>2021-05-29 07:05:13</time>
      </trkpt>
      <trkpt lat="42.8612" lon="-2.47002">
        <ele>578.8</ele>
        <time>2021-05-29 07:05:14</time>
      </trkpt>
      <trkpt lat="42.86118" lon="-2.46993">
        <ele>578.8</ele>
        <time>2021-05-29 07:05:15</time>
      </trkpt>
      <trkpt lat="42.86116" lon="-2.46984">
        <ele>579</ele>
        <time>2021-05-29 07:05:16</time>
      </trkpt>
      <trkpt lat="42.86114" lon="-2.46974">
        <ele>579</ele>
        <time>2021-05-29 07:05:17</time>
      </trkpt>
      <trkpt lat="42.86112" lon="-2.46965">
        <ele>579.2</ele>
        <time>2021-05-29 07:05:18</time>
      </trkpt>
      <trkpt lat="42.8611" lon="-2.46955">
        <ele>579.4</ele>
        <time>2021-05-29 07:05:19</time>
      </trkpt>
      <trkpt lat="42.86108" lon="-2.46945">
        <ele>579.4</ele>
        <time>2021-05-29 07:05:20</time>
      </trkpt>
      <trkpt lat="42.86106" lon="-2.46935">
        <ele>579.4</ele>
        <time>2021-05-29 07:05:21</time>
      </trkpt>
      <trkpt lat="42.86105" lon="-2.46925">
        <ele>579.4</ele>
        <time>2021-05-29 07:05:22</time>
      </trkpt>
      <trkpt lat="42.86103" lon="-2.46914">
        <ele>579.4</ele>
        <time>2021-05-29 07:05:23</time>
      </trkpt>
      <trkpt lat="42.86101" lon="-2.46904">
        <ele>579.4</ele>
        <time>2021-05-29 07:05:24</time>
      </trkpt>
      <trkpt lat="42.86098" lon="-2.46895">
        <ele>579.4</ele>
        <time>2021-05-29 07:05:25</time>
      </trkpt>
      <trkpt lat="42.86096" lon="-2.46885">
        <ele>579.4</ele>
        <time>2021-05-29 07:05:26</time>
      </trkpt>
      <trkpt lat="42.86094" lon="-2.46876">
        <ele>579.6</ele>
        <time>2021-05-29 07:05:27</time>
      </trkpt>
      <trkpt lat="42.86092" lon="-2.46866">
        <ele>579.6</ele>
        <time>2021-05-29 07:05:28</time>
      </trkpt>
      <trkpt lat="42.8609" lon="-2.46857">
        <ele>579.6</ele>
        <time>2021-05-29 07:05:29</time>
      </trkpt>
      <trkpt lat="42.86087" lon="-2.46848">
        <ele>579.6</ele>
        <time>2021-05-29 07:05:30</time>
      </trkpt>
      <trkpt lat="42.86085" lon="-2.46839">
        <ele>579.6</ele>
        <time>2021-05-29 07:05:31</time>
      </trkpt>
      <trkpt lat="42.86082" lon="-2.46831">
        <ele>579.6</ele>
        <time>2021-05-29 07:05:32</time>
      </trkpt>
      <trkpt lat="42.8608" lon="-2.46822">
        <ele>579.6</ele>
        <time>2021-05-29 07:05:33</time>
      </trkpt>
      <trkpt lat="42.86077" lon="-2.46813">
        <ele>579.6</ele>
        <time>2021-05-29 07:05:34</time>
      </trkpt>
      <trkpt lat="42.86075" lon="-2.46805">
        <ele>579.6</ele>
        <time>2021-05-29 07:05:35</time>
      </trkpt>
      <trkpt lat="42.86072" lon="-2.46797">
        <ele>579.6</ele>
        <time>2021-05-29 07:05:36</time>
      </trkpt>
      <trkpt lat="42.8607" lon="-2.46789">
        <ele>579.8</ele>
        <time>2021-05-29 07:05:37</time>
      </trkpt>
      <trkpt lat="42.86067" lon="-2.46781">
        <ele>579.8</ele>
        <time>2021-05-29 07:05:38</time>
      </trkpt>
      <trkpt lat="42.86065" lon="-2.46773">
        <ele>579.8</ele>
        <time>2021-05-29 07:05:39</time>
      </trkpt>
      <trkpt lat="42.86062" lon="-2.46766">
        <ele>580</ele>
        <time>2021-05-29 07:05:40</time>
      </trkpt>
      <trkpt lat="42.8606" lon="-2.46758">
        <ele>579.8</ele>
        <time>2021-05-29 07:05:41</time>
      </trkpt>
      <trkpt lat="42.86058" lon="-2.46751">
        <ele>580</ele>
        <time>2021-05-29 07:05:42</time>
      </trkpt>
      <trkpt lat="42.86056" lon="-2.46744">
        <ele>580</ele>
        <time>2021-05-29 07:05:43</time>
      </trkpt>
      <trkpt lat="42.86053" lon="-2.46736">
        <ele>580.2</ele>
        <time>2021-05-29 07:05:44</time>
      </trkpt>
      <trkpt lat="42.86051" lon="-2.46729">
        <ele>580.4</ele>
        <time>2021-05-29 07:05:45</time>
      </trkpt>
      <trkpt lat="42.86049" lon="-2.46722">
        <ele>580.6</ele>
        <time>2021-05-29 07:05:46</time>
      </trkpt>
      <trkpt lat="42.86046" lon="-2.46715">
        <ele>580.8</ele>
        <time>2021-05-29 07:05:47</time>
      </trkpt>
      <trkpt lat="42.86044" lon="-2.46708">
        <ele>581.2</ele>
        <time>2021-05-29 07:05:48</time>
      </trkpt>
      <trkpt lat="42.86042" lon="-2.46701">
        <ele>581.4</ele>
        <time>2021-05-29 07:05:49</time>
      </trkpt>
      <trkpt lat="42.8604" lon="-2.46694">
        <ele>581.8</ele>
        <time>2021-05-29 07:05:50</time>
      </trkpt>
      <trkpt lat="42.86037" lon="-2.46687">
        <ele>582</ele>
        <time>2021-05-29 07:05:51</time>
      </trkpt>
      <trkpt lat="42.86035" lon="-2.46679">
        <ele>582.2</ele>
        <time>2021-05-29 07:05:52</time>
      </trkpt>
      <trkpt lat="42.86033" lon="-2.46672">
        <ele>582.2</ele>
        <time>2021-05-29 07:05:53</time>
      </trkpt>
      <trkpt lat="42.86031" lon="-2.46665">
        <ele>582.4</ele>
        <time>2021-05-29 07:05:54</time>
      </trkpt>
      <trkpt lat="42.86029" lon="-2.46658">
        <ele>582.6</ele>
        <time>2021-05-29 07:05:55</time>
      </trkpt>
      <trkpt lat="42.86026" lon="-2.46651">
        <ele>582.8</ele>
        <time>2021-05-29 07:05:56</time>
      </trkpt>
      <trkpt lat="42.86024" lon="-2.46644">
        <ele>583</ele>
        <time>2021-05-29 07:05:57</time>
      </trkpt>
      <trkpt lat="42.86022" lon="-2.46636">
        <ele>583.4</ele>
        <time>2021-05-29 07:05:58</time>
      </trkpt>
      <trkpt lat="42.8602" lon="-2.46629">
        <ele>583.6</ele>
        <time>2021-05-29 07:05:59</time>
      </trkpt>
      <trkpt lat="42.86018" lon="-2.46621">
        <ele>583.8</ele>
        <time>2021-05-29 07:06:00</time>
      </trkpt>
      <trkpt lat="42.86015" lon="-2.46614">
        <ele>584</ele>
        <time>2021-05-29 07:06:01</time>
      </trkpt>
      <trkpt lat="42.86013" lon="-2.46606">
        <ele>584.4</ele>
        <time>2021-05-29 07:06:02</time>
      </trkpt>
      <trkpt lat="42.86011" lon="-2.46598">
        <ele>584.6</ele>
        <time>2021-05-29 07:06:03</time>
      </trkpt>
      <trkpt lat="42.86009" lon="-2.46591">
        <ele>584.8</ele>
        <time>2021-05-29 07:06:04</time>
      </trkpt>
      <trkpt lat="42.86007" lon="-2.46584">
        <ele>585</ele>
        <time>2021-05-29 07:06:05</time>
      </trkpt>
      <trkpt lat="42.86004" lon="-2.46576">
        <ele>585.2</ele>
        <time>2021-05-29 07:06:06</time>
      </trkpt>
      <trkpt lat="42.86002" lon="-2.46569">
        <ele>585.2</ele>
        <time>2021-05-29 07:06:07</time>
      </trkpt>
      <trkpt lat="42.86" lon="-2.46562">
        <ele>585.4</ele>
        <time>2021-05-29 07:06:08</time>
      </trkpt>
      <trkpt lat="42.85998" lon="-2.46555">
        <ele>585.6</ele>
        <time>2021-05-29 07:06:09</time>
      </trkpt>
      <trkpt lat="42.85996" lon="-2.46548">
        <ele>585.8</ele>
        <time>2021-05-29 07:06:10</time>
      </trkpt>
      <trkpt lat="42.85994" lon="-2.46541">
        <ele>585.8</ele>
        <time>2021-05-29 07:06:11</time>
      </trkpt>
      <trkpt lat="42.85992" lon="-2.46534">
        <ele>586</ele>
        <time>2021-05-29 07:06:12</time>
      </trkpt>
      <trkpt lat="42.85991" lon="-2.46528">
        <ele>586.4</ele>
        <time>2021-05-29 07:06:13</time>
      </trkpt>
      <trkpt lat="42.85989" lon="-2.46521">
        <ele>586.6</ele>
        <time>2021-05-29 07:06:14</time>
      </trkpt>
      <trkpt lat="42.85987" lon="-2.46514">
        <ele>586.8</ele>
        <time>2021-05-29 07:06:15</time>
      </trkpt>
      <trkpt lat="42.85984" lon="-2.46507">
        <ele>586.8</ele>
        <time>2021-05-29 07:06:16</time>
      </trkpt>
      <trkpt lat="42.85982" lon="-2.465">
        <ele>586.8</ele>
        <time>2021-05-29 07:06:17</time>
      </trkpt>
      <trkpt lat="42.8598" lon="-2.46492">
        <ele>587</ele>
        <time>2021-05-29 07:06:18</time>
      </trkpt>
      <trkpt lat="42.85978" lon="-2.46485">
        <ele>587.2</ele>
        <time>2021-05-29 07:06:19</time>
      </trkpt>
      <trkpt lat="42.85976" lon="-2.46478">
        <ele>587.4</ele>
        <time>2021-05-29 07:06:20</time>
      </trkpt>
      <trkpt lat="42.85973" lon="-2.4647">
        <ele>587.6</ele>
        <time>2021-05-29 07:06:21</time>
      </trkpt>
      <trkpt lat="42.85971" lon="-2.46462">
        <ele>587.8</ele>
        <time>2021-05-29 07:06:22</time>
      </trkpt>
      <trkpt lat="42.85968" lon="-2.46454">
        <ele>588</ele>
        <time>2021-05-29 07:06:23</time>
      </trkpt>
      <trkpt lat="42.85966" lon="-2.46445">
        <ele>588</ele>
        <time>2021-05-29 07:06:24</time>
      </trkpt>
      <trkpt lat="42.85963" lon="-2.46437">
        <ele>588.2</ele>
        <time>2021-05-29 07:06:25</time>
      </trkpt>
      <trkpt lat="42.85961" lon="-2.46428">
        <ele>588.6</ele>
        <time>2021-05-29 07:06:26</time>
      </trkpt>
      <trkpt lat="42.85958" lon="-2.46419">
        <ele>588.8</ele>
        <time>2021-05-29 07:06:27</time>
      </trkpt>
      <trkpt lat="42.85956" lon="-2.4641">
        <ele>589</ele>
        <time>2021-05-29 07:06:28</time>
      </trkpt>
      <trkpt lat="42.85954" lon="-2.46401">
        <ele>589.2</ele>
        <time>2021-05-29 07:06:29</time>
      </trkpt>
      <trkpt lat="42.85951" lon="-2.46393">
        <ele>589.2</ele>
        <time>2021-05-29 07:06:30</time>
      </trkpt>
      <trkpt lat="42.85949" lon="-2.46384">
        <ele>589.4</ele>
        <time>2021-05-29 07:06:31</time>
      </trkpt>
      <trkpt lat="42.85946" lon="-2.46375">
        <ele>589.6</ele>
        <time>2021-05-29 07:06:32</time>
      </trkpt>
      <trkpt lat="42.85944" lon="-2.46366">
        <ele>589.6</ele>
        <time>2021-05-29 07:06:33</time>
      </trkpt>
      <trkpt lat="42.85941" lon="-2.46357">
        <ele>589.8</ele>
        <time>2021-05-29 07:06:34</time>
      </trkpt>
      <trkpt lat="42.85938" lon="-2.46348">
        <ele>589.8</ele>
        <time>2021-05-29 07:06:35</time>
      </trkpt>
      <trkpt lat="42.85936" lon="-2.46339">
        <ele>589.8</ele>
        <time>2021-05-29 07:06:36</time>
      </trkpt>
      <trkpt lat="42.85934" lon="-2.4633">
        <ele>589.8</ele>
        <time>2021-05-29 07:06:37</time>
      </trkpt>
      <trkpt lat="42.85931" lon="-2.46322">
        <ele>589.8</ele>
        <time>2021-05-29 07:06:38</time>
      </trkpt>
      <trkpt lat="42.85929" lon="-2.46313">
        <ele>589.8</ele>
        <time>2021-05-29 07:06:39</time>
      </trkpt>
      <trkpt lat="42.85927" lon="-2.46305">
        <ele>589.8</ele>
        <time>2021-05-29 07:06:40</time>
      </trkpt>
      <trkpt lat="42.85924" lon="-2.46296">
        <ele>589.8</ele>
        <time>2021-05-29 07:06:41</time>
      </trkpt>
      <trkpt lat="42.85922" lon="-2.46287">
        <ele>590</ele>
        <time>2021-05-29 07:06:42</time>
      </trkpt>
      <trkpt lat="42.85919" lon="-2.46279">
        <ele>590</ele>
        <time>2021-05-29 07:06:43</time>
      </trkpt>
      <trkpt lat="42.85917" lon="-2.4627">
        <ele>590</ele>
        <time>2021-05-29 07:06:44</time>
      </trkpt>
      <trkpt lat="42.85915" lon="-2.46261">
        <ele>590</ele>
        <time>2021-05-29 07:06:45</time>
      </trkpt>
      <trkpt lat="42.85912" lon="-2.46252">
        <ele>590</ele>
        <time>2021-05-29 07:06:46</time>
      </trkpt>
      <trkpt lat="42.8591" lon="-2.46244">
        <ele>590</ele>
        <time>2021-05-29 07:06:47</time>
      </trkpt>
      <trkpt lat="42.85907" lon="-2.46235">
        <ele>590</ele>
        <time>2021-05-29 07:06:48</time>
      </trkpt>
      <trkpt lat="42.85905" lon="-2.46226">
        <ele>590</ele>
        <time>2021-05-29 07:06:49</time>
      </trkpt>
      <trkpt lat="42.85902" lon="-2.46217">
        <ele>590</ele>
        <time>2021-05-29 07:06:50</time>
      </trkpt>
      <trkpt lat="42.859" lon="-2.46208">
        <ele>590</ele>
        <time>2021-05-29 07:06:51</time>
      </trkpt>
      <trkpt lat="42.85897" lon="-2.462">
        <ele>590.2</ele>
        <time>2021-05-29 07:06:52</time>
      </trkpt>
      <trkpt lat="42.85895" lon="-2.46191">
        <ele>590.4</ele>
        <time>2021-05-29 07:06:53</time>
      </trkpt>
      <trkpt lat="42.85893" lon="-2.46182">
        <ele>590.4</ele>
        <time>2021-05-29 07:06:54</time>
      </trkpt>
      <trkpt lat="42.8589" lon="-2.46174">
        <ele>590.4</ele>
        <time>2021-05-29 07:06:55</time>
      </trkpt>
      <trkpt lat="42.85888" lon="-2.46165">
        <ele>590.4</ele>
        <time>2021-05-29 07:06:56</time>
      </trkpt>
      <trkpt lat="42.85885" lon="-2.46156">
        <ele>590.6</ele>
        <time>2021-05-29 07:06:57</time>
      </trkpt>
      <trkpt lat="42.85883" lon="-2.46147">
        <ele>590.6</ele>
        <time>2021-05-29 07:06:58</time>
      </trkpt>
      <trkpt lat="42.8588" lon="-2.46137">
        <ele>590.8</ele>
        <time>2021-05-29 07:06:59</time>
      </trkpt>
      <trkpt lat="42.85878" lon="-2.46128">
        <ele>590.8</ele>
        <time>2021-05-29 07:07:00</time>
      </trkpt>
      <trkpt lat="42.85875" lon="-2.46119">
        <ele>591</ele>
        <time>2021-05-29 07:07:01</time>
      </trkpt>
      <trkpt lat="42.85873" lon="-2.46109">
        <ele>591</ele>
        <time>2021-05-29 07:07:02</time>
      </trkpt>
      <trkpt lat="42.8587" lon="-2.461">
        <ele>591</ele>
        <time>2021-05-29 07:07:03</time>
      </trkpt>
      <trkpt lat="42.85867" lon="-2.4609">
        <ele>591.2</ele>
        <time>2021-05-29 07:07:04</time>
      </trkpt>
      <trkpt lat="42.85865" lon="-2.46081">
        <ele>591.2</ele>
        <time>2021-05-29 07:07:05</time>
      </trkpt>
      <trkpt lat="42.85862" lon="-2.46071">
        <ele>591.2</ele>
        <time>2021-05-29 07:07:06</time>
      </trkpt>
      <trkpt lat="42.8586" lon="-2.46062">
        <ele>591.2</ele>
        <time>2021-05-29 07:07:07</time>
      </trkpt>
      <trkpt lat="42.85857" lon="-2.46053">
        <ele>591.2</ele>
        <time>2021-05-29 07:07:08</time>
      </trkpt>
      <trkpt lat="42.85854" lon="-2.46044">
        <ele>591.2</ele>
        <time>2021-05-29 07:07:09</time>
      </trkpt>
      <trkpt lat="42.85852" lon="-2.46035">
        <ele>591.2</ele>
        <time>2021-05-29 07:07:10</time>
      </trkpt>
      <trkpt lat="42.85849" lon="-2.46025">
        <ele>591.2</ele>
        <time>2021-05-29 07:07:11</time>
      </trkpt>
      <trkpt lat="42.85847" lon="-2.46016">
        <ele>591.2</ele>
        <time>2021-05-29 07:07:12</time>
      </trkpt>
      <trkpt lat="42.85844" lon="-2.46007">
        <ele>591</ele>
        <time>2021-05-29 07:07:13</time>
      </trkpt>
      <trkpt lat="42.85842" lon="-2.45998">
        <ele>591</ele>
        <time>2021-05-29 07:07:14</time>
      </trkpt>
      <trkpt lat="42.8584" lon="-2.45989">
        <ele>591</ele>
        <time>2021-05-29 07:07:15</time>
      </trkpt>
      <trkpt lat="42.85837" lon="-2.45979">
        <ele>591.2</ele>
        <time>2021-05-29 07:07:16</time>
      </trkpt>
      <trkpt lat="42.85834" lon="-2.4597">
        <ele>591.2</ele>
        <time>2021-05-29 07:07:17</time>
      </trkpt>
      <trkpt lat="42.85832" lon="-2.4596">
        <ele>591.2</ele>
        <time>2021-05-29 07:07:18</time>
      </trkpt>
      <trkpt lat="42.85829" lon="-2.45951">
        <ele>591.2</ele>
        <time>2021-05-29 07:07:19</time>
      </trkpt>
      <trkpt lat="42.85827" lon="-2.45942">
        <ele>591.2</ele>
        <time>2021-05-29 07:07:20</time>
      </trkpt>
      <trkpt lat="42.85824" lon="-2.45933">
        <ele>591.2</ele>
        <time>2021-05-29 07:07:21</time>
      </trkpt>
      <trkpt lat="42.85822" lon="-2.45924">
        <ele>591.2</ele>
        <time>2021-05-29 07:07:22</time>
      </trkpt>
      <trkpt lat="42.85819" lon="-2.45915">
        <ele>591.4</ele>
        <time>2021-05-29 07:07:23</time>
      </trkpt>
      <trkpt lat="42.85817" lon="-2.45905">
        <ele>591.4</ele>
        <time>2021-05-29 07:07:24</time>
      </trkpt>
      <trkpt lat="42.85814" lon="-2.45896">
        <ele>591.4</ele>
        <time>2021-05-29 07:07:25</time>
      </trkpt>
      <trkpt lat="42.85812" lon="-2.45887">
        <ele>591.4</ele>
        <time>2021-05-29 07:07:26</time>
      </trkpt>
      <trkpt lat="42.85809" lon="-2.45878">
        <ele>591.4</ele>
        <time>2021-05-29 07:07:27</time>
      </trkpt>
      <trkpt lat="42.85807" lon="-2.45869">
        <ele>591.4</ele>
        <time>2021-05-29 07:07:28</time>
      </trkpt>
      <trkpt lat="42.85804" lon="-2.4586">
        <ele>591.6</ele>
        <time>2021-05-29 07:07:29</time>
      </trkpt>
      <trkpt lat="42.85802" lon="-2.45851">
        <ele>591.6</ele>
        <time>2021-05-29 07:07:30</time>
      </trkpt>
      <trkpt lat="42.858" lon="-2.45843">
        <ele>591.6</ele>
        <time>2021-05-29 07:07:31</time>
      </trkpt>
      <trkpt lat="42.85797" lon="-2.45834">
        <ele>591.8</ele>
        <time>2021-05-29 07:07:32</time>
      </trkpt>
      <trkpt lat="42.85795" lon="-2.45825">
        <ele>591.8</ele>
        <time>2021-05-29 07:07:33</time>
      </trkpt>
      <trkpt lat="42.85793" lon="-2.45816">
        <ele>592</ele>
        <time>2021-05-29 07:07:34</time>
      </trkpt>
      <trkpt lat="42.85791" lon="-2.45807">
        <ele>592</ele>
        <time>2021-05-29 07:07:35</time>
      </trkpt>
      <trkpt lat="42.85789" lon="-2.45798">
        <ele>592</ele>
        <time>2021-05-29 07:07:36</time>
      </trkpt>
      <trkpt lat="42.85787" lon="-2.45789">
        <ele>592.2</ele>
        <time>2021-05-29 07:07:37</time>
      </trkpt>
      <trkpt lat="42.85784" lon="-2.4578">
        <ele>592.4</ele>
        <time>2021-05-29 07:07:38</time>
      </trkpt>
      <trkpt lat="42.85783" lon="-2.45771">
        <ele>592.6</ele>
        <time>2021-05-29 07:07:39</time>
      </trkpt>
      <trkpt lat="42.85781" lon="-2.45762">
        <ele>592.6</ele>
        <time>2021-05-29 07:07:40</time>
      </trkpt>
      <trkpt lat="42.85779" lon="-2.45752">
        <ele>592.8</ele>
        <time>2021-05-29 07:07:41</time>
      </trkpt>
      <trkpt lat="42.85777" lon="-2.45742">
        <ele>593</ele>
        <time>2021-05-29 07:07:42</time>
      </trkpt>
      <trkpt lat="42.85776" lon="-2.45732">
        <ele>593.2</ele>
        <time>2021-05-29 07:07:43</time>
      </trkpt>
      <trkpt lat="42.85774" lon="-2.45722">
        <ele>593.4</ele>
        <time>2021-05-29 07:07:44</time>
      </trkpt>
      <trkpt lat="42.85772" lon="-2.45712">
        <ele>593.4</ele>
        <time>2021-05-29 07:07:45</time>
      </trkpt>
      <trkpt lat="42.8577" lon="-2.45701">
        <ele>593.4</ele>
        <time>2021-05-29 07:07:46</time>
      </trkpt>
      <trkpt lat="42.85768" lon="-2.4569">
        <ele>593.4</ele>
        <time>2021-05-29 07:07:47</time>
      </trkpt>
      <trkpt lat="42.85766" lon="-2.45679">
        <ele>593.4</ele>
        <time>2021-05-29 07:07:48</time>
      </trkpt>
      <trkpt lat="42.85764" lon="-2.45667">
        <ele>593.4</ele>
        <time>2021-05-29 07:07:49</time>
      </trkpt>
      <trkpt lat="42.85762" lon="-2.45656">
        <ele>593.4</ele>
        <time>2021-05-29 07:07:50</time>
      </trkpt>
      <trkpt lat="42.8576" lon="-2.45644">
        <ele>593.4</ele>
        <time>2021-05-29 07:07:51</time>
      </trkpt>
      <trkpt lat="42.85758" lon="-2.45632">
        <ele>593.4</ele>
        <time>2021-05-29 07:07:52</time>
      </trkpt>
      <trkpt lat="42.85756" lon="-2.45621">
        <ele>593.4</ele>
        <time>2021-05-29 07:07:53</time>
      </trkpt>
      <trkpt lat="42.85754" lon="-2.4561">
        <ele>593.4</ele>
        <time>2021-05-29 07:07:54</time>
      </trkpt>
      <trkpt lat="42.85752" lon="-2.45599">
        <ele>593.2</ele>
        <time>2021-05-29 07:07:55</time>
      </trkpt>
      <trkpt lat="42.8575" lon="-2.45588">
        <ele>593</ele>
        <time>2021-05-29 07:07:56</time>
      </trkpt>
      <trkpt lat="42.85748" lon="-2.45577">
        <ele>592.8</ele>
        <time>2021-05-29 07:07:57</time>
      </trkpt>
      <trkpt lat="42.85747" lon="-2.45566">
        <ele>592.4</ele>
        <time>2021-05-29 07:07:58</time>
      </trkpt>
      <trkpt lat="42.85745" lon="-2.45555">
        <ele>592.2</ele>
        <time>2021-05-29 07:07:59</time>
      </trkpt>
      <trkpt lat="42.85743" lon="-2.45545">
        <ele>592</ele>
        <time>2021-05-29 07:08:00</time>
      </trkpt>
      <trkpt lat="42.85741" lon="-2.45535">
        <ele>592</ele>
        <time>2021-05-29 07:08:01</time>
      </trkpt>
      <trkpt lat="42.85739" lon="-2.45525">
        <ele>591.8</ele>
        <time>2021-05-29 07:08:02</time>
      </trkpt>
      <trkpt lat="42.85737" lon="-2.45514">
        <ele>591.8</ele>
        <time>2021-05-29 07:08:03</time>
      </trkpt>
      <trkpt lat="42.85736" lon="-2.45504">
        <ele>591.8</ele>
        <time>2021-05-29 07:08:04</time>
      </trkpt>
      <trkpt lat="42.85734" lon="-2.45494">
        <ele>591.6</ele>
        <time>2021-05-29 07:08:05</time>
      </trkpt>
      <trkpt lat="42.85732" lon="-2.45483">
        <ele>591.4</ele>
        <time>2021-05-29 07:08:06</time>
      </trkpt>
      <trkpt lat="42.8573" lon="-2.45472">
        <ele>591.4</ele>
        <time>2021-05-29 07:08:07</time>
      </trkpt>
      <trkpt lat="42.85728" lon="-2.45462">
        <ele>591.4</ele>
        <time>2021-05-29 07:08:08</time>
      </trkpt>
      <trkpt lat="42.85726" lon="-2.45451">
        <ele>591.4</ele>
        <time>2021-05-29 07:08:09</time>
      </trkpt>
      <trkpt lat="42.85725" lon="-2.45441">
        <ele>591.4</ele>
        <time>2021-05-29 07:08:10</time>
      </trkpt>
      <trkpt lat="42.85723" lon="-2.45431">
        <ele>591.4</ele>
        <time>2021-05-29 07:08:11</time>
      </trkpt>
      <trkpt lat="42.85721" lon="-2.45421">
        <ele>591.4</ele>
        <time>2021-05-29 07:08:12</time>
      </trkpt>
      <trkpt lat="42.85719" lon="-2.45411">
        <ele>591.4</ele>
        <time>2021-05-29 07:08:13</time>
      </trkpt>
      <trkpt lat="42.85718" lon="-2.45401">
        <ele>591.4</ele>
        <time>2021-05-29 07:08:14</time>
      </trkpt>
      <trkpt lat="42.85716" lon="-2.45391">
        <ele>591.4</ele>
        <time>2021-05-29 07:08:15</time>
      </trkpt>
      <trkpt lat="42.85714" lon="-2.45381">
        <ele>591.4</ele>
        <time>2021-05-29 07:08:16</time>
      </trkpt>
      <trkpt lat="42.85712" lon="-2.45371">
        <ele>591.4</ele>
        <time>2021-05-29 07:08:17</time>
      </trkpt>
      <trkpt lat="42.8571" lon="-2.45361">
        <ele>591.4</ele>
        <time>2021-05-29 07:08:18</time>
      </trkpt>
      <trkpt lat="42.85709" lon="-2.45351">
        <ele>591.4</ele>
        <time>2021-05-29 07:08:19</time>
      </trkpt>
      <trkpt lat="42.85707" lon="-2.4534">
        <ele>591.6</ele>
        <time>2021-05-29 07:08:20</time>
      </trkpt>
      <trkpt lat="42.85705" lon="-2.4533">
        <ele>591.6</ele>
        <time>2021-05-29 07:08:21</time>
      </trkpt>
      <trkpt lat="42.85703" lon="-2.45319">
        <ele>591.6</ele>
        <time>2021-05-29 07:08:22</time>
      </trkpt>
      <trkpt lat="42.85701" lon="-2.45308">
        <ele>591.6</ele>
        <time>2021-05-29 07:08:23</time>
      </trkpt>
      <trkpt lat="42.85699" lon="-2.45297">
        <ele>591.6</ele>
        <time>2021-05-29 07:08:24</time>
      </trkpt>
      <trkpt lat="42.85697" lon="-2.45286">
        <ele>591.6</ele>
        <time>2021-05-29 07:08:25</time>
      </trkpt>
      <trkpt lat="42.85695" lon="-2.45275">
        <ele>591.8</ele>
        <time>2021-05-29 07:08:26</time>
      </trkpt>
      <trkpt lat="42.85693" lon="-2.45264">
        <ele>591.8</ele>
        <time>2021-05-29 07:08:27</time>
      </trkpt>
      <trkpt lat="42.85691" lon="-2.45252">
        <ele>591.8</ele>
        <time>2021-05-29 07:08:28</time>
      </trkpt>
      <trkpt lat="42.85689" lon="-2.45241">
        <ele>591.8</ele>
        <time>2021-05-29 07:08:29</time>
      </trkpt>
      <trkpt lat="42.85687" lon="-2.4523">
        <ele>591.8</ele>
        <time>2021-05-29 07:08:30</time>
      </trkpt>
      <trkpt lat="42.85685" lon="-2.45218">
        <ele>591.8</ele>
        <time>2021-05-29 07:08:31</time>
      </trkpt>
      <trkpt lat="42.85683" lon="-2.45207">
        <ele>591.6</ele>
        <time>2021-05-29 07:08:32</time>
      </trkpt>
      <trkpt lat="42.85681" lon="-2.45196">
        <ele>591.6</ele>
        <time>2021-05-29 07:08:33</time>
      </trkpt>
      <trkpt lat="42.85679" lon="-2.45185">
        <ele>591.6</ele>
        <time>2021-05-29 07:08:34</time>
      </trkpt>
      <trkpt lat="42.85677" lon="-2.45174">
        <ele>591.4</ele>
        <time>2021-05-29 07:08:35</time>
      </trkpt>
      <trkpt lat="42.85675" lon="-2.45163">
        <ele>591.2</ele>
        <time>2021-05-29 07:08:36</time>
      </trkpt>
      <trkpt lat="42.85673" lon="-2.45152">
        <ele>591</ele>
        <time>2021-05-29 07:08:37</time>
      </trkpt>
      <trkpt lat="42.85671" lon="-2.45141">
        <ele>590.8</ele>
        <time>2021-05-29 07:08:38</time>
      </trkpt>
      <trkpt lat="42.85669" lon="-2.45131">
        <ele>590.6</ele>
        <time>2021-05-29 07:08:39</time>
      </trkpt>
      <trkpt lat="42.85667" lon="-2.4512">
        <ele>590.4</ele>
        <time>2021-05-29 07:08:40</time>
      </trkpt>
      <trkpt lat="42.85665" lon="-2.4511">
        <ele>590.4</ele>
        <time>2021-05-29 07:08:41</time>
      </trkpt>
      <trkpt lat="42.85663" lon="-2.45099">
        <ele>590.4</ele>
        <time>2021-05-29 07:08:42</time>
      </trkpt>
      <trkpt lat="42.85661" lon="-2.45088">
        <ele>590.2</ele>
        <time>2021-05-29 07:08:43</time>
      </trkpt>
      <trkpt lat="42.85659" lon="-2.45078">
        <ele>590.2</ele>
        <time>2021-05-29 07:08:44</time>
      </trkpt>
      <trkpt lat="42.85657" lon="-2.45067">
        <ele>590.2</ele>
        <time>2021-05-29 07:08:45</time>
      </trkpt>
      <trkpt lat="42.85655" lon="-2.45056">
        <ele>590.2</ele>
        <time>2021-05-29 07:08:46</time>
      </trkpt>
      <trkpt lat="42.85653" lon="-2.45044">
        <ele>590</ele>
        <time>2021-05-29 07:08:47</time>
      </trkpt>
      <trkpt lat="42.85651" lon="-2.45033">
        <ele>589.8</ele>
        <time>2021-05-29 07:08:48</time>
      </trkpt>
      <trkpt lat="42.85649" lon="-2.45021">
        <ele>589.8</ele>
        <time>2021-05-29 07:08:49</time>
      </trkpt>
      <trkpt lat="42.85647" lon="-2.4501">
        <ele>589.6</ele>
        <time>2021-05-29 07:08:50</time>
      </trkpt>
      <trkpt lat="42.85645" lon="-2.44999">
        <ele>589.6</ele>
        <time>2021-05-29 07:08:51</time>
      </trkpt>
      <trkpt lat="42.85643" lon="-2.44988">
        <ele>589.6</ele>
        <time>2021-05-29 07:08:52</time>
      </trkpt>
      <trkpt lat="42.85641" lon="-2.44977">
        <ele>589.6</ele>
        <time>2021-05-29 07:08:53</time>
      </trkpt>
      <trkpt lat="42.85639" lon="-2.44966">
        <ele>589.4</ele>
        <time>2021-05-29 07:08:54</time>
      </trkpt>
      <trkpt lat="42.85637" lon="-2.44955">
        <ele>589.4</ele>
        <time>2021-05-29 07:08:55</time>
      </trkpt>
      <trkpt lat="42.85635" lon="-2.44945">
        <ele>589.4</ele>
        <time>2021-05-29 07:08:56</time>
      </trkpt>
      <trkpt lat="42.85633" lon="-2.44933">
        <ele>589.4</ele>
        <time>2021-05-29 07:08:57</time>
      </trkpt>
      <trkpt lat="42.85631" lon="-2.44922">
        <ele>589.4</ele>
        <time>2021-05-29 07:08:58</time>
      </trkpt>
      <trkpt lat="42.85629" lon="-2.44911">
        <ele>589.4</ele>
        <time>2021-05-29 07:08:59</time>
      </trkpt>
      <trkpt lat="42.85627" lon="-2.449">
        <ele>589.4</ele>
        <time>2021-05-29 07:09:00</time>
      </trkpt>
      <trkpt lat="42.85625" lon="-2.44889">
        <ele>589.2</ele>
        <time>2021-05-29 07:09:01</time>
      </trkpt>
      <trkpt lat="42.85624" lon="-2.44878">
        <ele>589</ele>
        <time>2021-05-29 07:09:02</time>
      </trkpt>
      <trkpt lat="42.85622" lon="-2.44867">
        <ele>589</ele>
        <time>2021-05-29 07:09:03</time>
      </trkpt>
      <trkpt lat="42.8562" lon="-2.44856">
        <ele>589</ele>
        <time>2021-05-29 07:09:04</time>
      </trkpt>
      <trkpt lat="42.85618" lon="-2.44844">
        <ele>588.8</ele>
        <time>2021-05-29 07:09:05</time>
      </trkpt>
      <trkpt lat="42.85616" lon="-2.44833">
        <ele>588.8</ele>
        <time>2021-05-29 07:09:06</time>
      </trkpt>
      <trkpt lat="42.85614" lon="-2.44822">
        <ele>588.8</ele>
        <time>2021-05-29 07:09:07</time>
      </trkpt>
      <trkpt lat="42.85612" lon="-2.44811">
        <ele>588.6</ele>
        <time>2021-05-29 07:09:08</time>
      </trkpt>
      <trkpt lat="42.8561" lon="-2.448">
        <ele>588.6</ele>
        <time>2021-05-29 07:09:09</time>
      </trkpt>
      <trkpt lat="42.85608" lon="-2.44788">
        <ele>588.6</ele>
        <time>2021-05-29 07:09:10</time>
      </trkpt>
      <trkpt lat="42.85606" lon="-2.44777">
        <ele>588.2</ele>
        <time>2021-05-29 07:09:11</time>
      </trkpt>
      <trkpt lat="42.85604" lon="-2.44766">
        <ele>588.2</ele>
        <time>2021-05-29 07:09:12</time>
      </trkpt>
      <trkpt lat="42.85602" lon="-2.44755">
        <ele>588.2</ele>
        <time>2021-05-29 07:09:13</time>
      </trkpt>
      <trkpt lat="42.856" lon="-2.44744">
        <ele>588.2</ele>
        <time>2021-05-29 07:09:14</time>
      </trkpt>
      <trkpt lat="42.85598" lon="-2.44733">
        <ele>588.2</ele>
        <time>2021-05-29 07:09:15</time>
      </trkpt>
      <trkpt lat="42.85596" lon="-2.44723">
        <ele>588.2</ele>
        <time>2021-05-29 07:09:16</time>
      </trkpt>
      <trkpt lat="42.85594" lon="-2.44713">
        <ele>588.2</ele>
        <time>2021-05-29 07:09:17</time>
      </trkpt>
      <trkpt lat="42.85592" lon="-2.44703">
        <ele>588.2</ele>
        <time>2021-05-29 07:09:18</time>
      </trkpt>
      <trkpt lat="42.85591" lon="-2.44693">
        <ele>588.2</ele>
        <time>2021-05-29 07:09:19</time>
      </trkpt>
      <trkpt lat="42.85589" lon="-2.44683">
        <ele>588.2</ele>
        <time>2021-05-29 07:09:20</time>
      </trkpt>
      <trkpt lat="42.85588" lon="-2.44673">
        <ele>588.2</ele>
        <time>2021-05-29 07:09:21</time>
      </trkpt>
      <trkpt lat="42.85586" lon="-2.44663">
        <ele>588.2</ele>
        <time>2021-05-29 07:09:22</time>
      </trkpt>
      <trkpt lat="42.85584" lon="-2.44653">
        <ele>588.2</ele>
        <time>2021-05-29 07:09:23</time>
      </trkpt>
      <trkpt lat="42.85582" lon="-2.44642">
        <ele>588.2</ele>
        <time>2021-05-29 07:09:24</time>
      </trkpt>
      <trkpt lat="42.8558" lon="-2.44632">
        <ele>588.2</ele>
        <time>2021-05-29 07:09:25</time>
      </trkpt>
      <trkpt lat="42.85578" lon="-2.44622">
        <ele>588.2</ele>
        <time>2021-05-29 07:09:26</time>
      </trkpt>
      <trkpt lat="42.85577" lon="-2.44612">
        <ele>588.2</ele>
        <time>2021-05-29 07:09:27</time>
      </trkpt>
      <trkpt lat="42.85575" lon="-2.44602">
        <ele>588.2</ele>
        <time>2021-05-29 07:09:28</time>
      </trkpt>
      <trkpt lat="42.85573" lon="-2.44592">
        <ele>588.2</ele>
        <time>2021-05-29 07:09:29</time>
      </trkpt>
      <trkpt lat="42.85571" lon="-2.44582">
        <ele>588.2</ele>
        <time>2021-05-29 07:09:30</time>
      </trkpt>
      <trkpt lat="42.8557" lon="-2.44572">
        <ele>588.2</ele>
        <time>2021-05-29 07:09:31</time>
      </trkpt>
      <trkpt lat="42.85568" lon="-2.44562">
        <ele>588.6</ele>
        <time>2021-05-29 07:09:32</time>
      </trkpt>
      <trkpt lat="42.85566" lon="-2.44552">
        <ele>588.8</ele>
        <time>2021-05-29 07:09:33</time>
      </trkpt>
      <trkpt lat="42.85565" lon="-2.44542">
        <ele>588.8</ele>
        <time>2021-05-29 07:09:34</time>
      </trkpt>
      <trkpt lat="42.85563" lon="-2.44532">
        <ele>588.8</ele>
        <time>2021-05-29 07:09:35</time>
      </trkpt>
      <trkpt lat="42.85561" lon="-2.44522">
        <ele>589.2</ele>
        <time>2021-05-29 07:09:36</time>
      </trkpt>
      <trkpt lat="42.85559" lon="-2.44512">
        <ele>589</ele>
        <time>2021-05-29 07:09:37</time>
      </trkpt>
      <trkpt lat="42.85557" lon="-2.44502">
        <ele>589.2</ele>
        <time>2021-05-29 07:09:38</time>
      </trkpt>
      <trkpt lat="42.85555" lon="-2.44492">
        <ele>589.2</ele>
        <time>2021-05-29 07:09:39</time>
      </trkpt>
      <trkpt lat="42.85554" lon="-2.44482">
        <ele>589</ele>
        <time>2021-05-29 07:09:40</time>
      </trkpt>
      <trkpt lat="42.85552" lon="-2.44471">
        <ele>589.2</ele>
        <time>2021-05-29 07:09:41</time>
      </trkpt>
      <trkpt lat="42.8555" lon="-2.44461">
        <ele>589.2</ele>
        <time>2021-05-29 07:09:42</time>
      </trkpt>
      <trkpt lat="42.85548" lon="-2.4445">
        <ele>589.2</ele>
        <time>2021-05-29 07:09:43</time>
      </trkpt>
      <trkpt lat="42.85546" lon="-2.4444">
        <ele>589.2</ele>
        <time>2021-05-29 07:09:44</time>
      </trkpt>
      <trkpt lat="42.85544" lon="-2.44429">
        <ele>589.2</ele>
        <time>2021-05-29 07:09:45</time>
      </trkpt>
      <trkpt lat="42.85542" lon="-2.44418">
        <ele>589.2</ele>
        <time>2021-05-29 07:09:46</time>
      </trkpt>
      <trkpt lat="42.8554" lon="-2.44408">
        <ele>589.2</ele>
        <time>2021-05-29 07:09:47</time>
      </trkpt>
      <trkpt lat="42.85538" lon="-2.44397">
        <ele>589.2</ele>
        <time>2021-05-29 07:09:48</time>
      </trkpt>
      <trkpt lat="42.85536" lon="-2.44386">
        <ele>589.2</ele>
        <time>2021-05-29 07:09:49</time>
      </trkpt>
      <trkpt lat="42.85535" lon="-2.44376">
        <ele>589.2</ele>
        <time>2021-05-29 07:09:50</time>
      </trkpt>
      <trkpt lat="42.85533" lon="-2.44365">
        <ele>589.2</ele>
        <time>2021-05-29 07:09:51</time>
      </trkpt>
      <trkpt lat="42.85531" lon="-2.44355">
        <ele>589.2</ele>
        <time>2021-05-29 07:09:52</time>
      </trkpt>
      <trkpt lat="42.85529" lon="-2.44344">
        <ele>589.2</ele>
        <time>2021-05-29 07:09:53</time>
      </trkpt>
      <trkpt lat="42.85527" lon="-2.44334">
        <ele>589.2</ele>
        <time>2021-05-29 07:09:54</time>
      </trkpt>
      <trkpt lat="42.85525" lon="-2.44323">
        <ele>589.2</ele>
        <time>2021-05-29 07:09:55</time>
      </trkpt>
      <trkpt lat="42.85523" lon="-2.44313">
        <ele>589.2</ele>
        <time>2021-05-29 07:09:56</time>
      </trkpt>
      <trkpt lat="42.85521" lon="-2.44302">
        <ele>589.4</ele>
        <time>2021-05-29 07:09:57</time>
      </trkpt>
      <trkpt lat="42.8552" lon="-2.44292">
        <ele>589.4</ele>
        <time>2021-05-29 07:09:58</time>
      </trkpt>
      <trkpt lat="42.85518" lon="-2.44282">
        <ele>589.4</ele>
        <time>2021-05-29 07:09:59</time>
      </trkpt>
      <trkpt lat="42.85516" lon="-2.44271">
        <ele>589.4</ele>
        <time>2021-05-29 07:10:00</time>
      </trkpt>
      <trkpt lat="42.85514" lon="-2.44261">
        <ele>589.4</ele>
        <time>2021-05-29 07:10:01</time>
      </trkpt>
      <trkpt lat="42.85512" lon="-2.44251">
        <ele>589.4</ele>
        <time>2021-05-29 07:10:02</time>
      </trkpt>
      <trkpt lat="42.8551" lon="-2.4424">
        <ele>589.4</ele>
        <time>2021-05-29 07:10:03</time>
      </trkpt>
      <trkpt lat="42.85508" lon="-2.4423">
        <ele>589.4</ele>
        <time>2021-05-29 07:10:04</time>
      </trkpt>
      <trkpt lat="42.85506" lon="-2.4422">
        <ele>589.6</ele>
        <time>2021-05-29 07:10:05</time>
      </trkpt>
      <trkpt lat="42.85504" lon="-2.4421">
        <ele>589.6</ele>
        <time>2021-05-29 07:10:06</time>
      </trkpt>
      <trkpt lat="42.85503" lon="-2.442">
        <ele>589.6</ele>
        <time>2021-05-29 07:10:07</time>
      </trkpt>
      <trkpt lat="42.85501" lon="-2.4419">
        <ele>589.6</ele>
        <time>2021-05-29 07:10:08</time>
      </trkpt>
      <trkpt lat="42.85499" lon="-2.4418">
        <ele>589.6</ele>
        <time>2021-05-29 07:10:09</time>
      </trkpt>
      <trkpt lat="42.85497" lon="-2.4417">
        <ele>589.6</ele>
        <time>2021-05-29 07:10:10</time>
      </trkpt>
      <trkpt lat="42.85496" lon="-2.4416">
        <ele>589.6</ele>
        <time>2021-05-29 07:10:11</time>
      </trkpt>
      <trkpt lat="42.85494" lon="-2.4415">
        <ele>589.8</ele>
        <time>2021-05-29 07:10:12</time>
      </trkpt>
      <trkpt lat="42.85492" lon="-2.44141">
        <ele>589.8</ele>
        <time>2021-05-29 07:10:13</time>
      </trkpt>
      <trkpt lat="42.8549" lon="-2.44131">
        <ele>589.8</ele>
        <time>2021-05-29 07:10:14</time>
      </trkpt>
      <trkpt lat="42.85488" lon="-2.44121">
        <ele>589.8</ele>
        <time>2021-05-29 07:10:15</time>
      </trkpt>
      <trkpt lat="42.85487" lon="-2.44111">
        <ele>589.8</ele>
        <time>2021-05-29 07:10:16</time>
      </trkpt>
      <trkpt lat="42.85485" lon="-2.44101">
        <ele>590</ele>
        <time>2021-05-29 07:10:17</time>
      </trkpt>
      <trkpt lat="42.85483" lon="-2.44091">
        <ele>590</ele>
        <time>2021-05-29 07:10:18</time>
      </trkpt>
      <trkpt lat="42.85481" lon="-2.44081">
        <ele>590</ele>
        <time>2021-05-29 07:10:19</time>
      </trkpt>
      <trkpt lat="42.85479" lon="-2.44071">
        <ele>590</ele>
        <time>2021-05-29 07:10:20</time>
      </trkpt>
      <trkpt lat="42.85477" lon="-2.44061">
        <ele>590.2</ele>
        <time>2021-05-29 07:10:21</time>
      </trkpt>
      <trkpt lat="42.85476" lon="-2.44051">
        <ele>590.2</ele>
        <time>2021-05-29 07:10:22</time>
      </trkpt>
      <trkpt lat="42.85474" lon="-2.44041">
        <ele>590.2</ele>
        <time>2021-05-29 07:10:23</time>
      </trkpt>
      <trkpt lat="42.85472" lon="-2.44031">
        <ele>590.4</ele>
        <time>2021-05-29 07:10:24</time>
      </trkpt>
      <trkpt lat="42.8547" lon="-2.44021">
        <ele>590.4</ele>
        <time>2021-05-29 07:10:25</time>
      </trkpt>
      <trkpt lat="42.85468" lon="-2.4401">
        <ele>590.6</ele>
        <time>2021-05-29 07:10:26</time>
      </trkpt>
      <trkpt lat="42.85466" lon="-2.44">
        <ele>590.6</ele>
        <time>2021-05-29 07:10:27</time>
      </trkpt>
      <trkpt lat="42.85464" lon="-2.43989">
        <ele>590.8</ele>
        <time>2021-05-29 07:10:28</time>
      </trkpt>
      <trkpt lat="42.85463" lon="-2.43979">
        <ele>591</ele>
        <time>2021-05-29 07:10:29</time>
      </trkpt>
      <trkpt lat="42.85461" lon="-2.43968">
        <ele>591</ele>
        <time>2021-05-29 07:10:30</time>
      </trkpt>
      <trkpt lat="42.85459" lon="-2.43958">
        <ele>591.2</ele>
        <time>2021-05-29 07:10:31</time>
      </trkpt>
      <trkpt lat="42.85457" lon="-2.43947">
        <ele>591.2</ele>
        <time>2021-05-29 07:10:32</time>
      </trkpt>
      <trkpt lat="42.85455" lon="-2.43937">
        <ele>591.4</ele>
        <time>2021-05-29 07:10:33</time>
      </trkpt>
      <trkpt lat="42.85453" lon="-2.43926">
        <ele>591.4</ele>
        <time>2021-05-29 07:10:34</time>
      </trkpt>
      <trkpt lat="42.85452" lon="-2.43916">
        <ele>591.6</ele>
        <time>2021-05-29 07:10:35</time>
      </trkpt>
      <trkpt lat="42.8545" lon="-2.43906">
        <ele>591.8</ele>
        <time>2021-05-29 07:10:36</time>
      </trkpt>
      <trkpt lat="42.85448" lon="-2.43895">
        <ele>592</ele>
        <time>2021-05-29 07:10:37</time>
      </trkpt>
      <trkpt lat="42.85446" lon="-2.43885">
        <ele>592.2</ele>
        <time>2021-05-29 07:10:38</time>
      </trkpt>
      <trkpt lat="42.85444" lon="-2.43874">
        <ele>592.4</ele>
        <time>2021-05-29 07:10:39</time>
      </trkpt>
      <trkpt lat="42.85442" lon="-2.43863">
        <ele>592.6</ele>
        <time>2021-05-29 07:10:40</time>
      </trkpt>
      <trkpt lat="42.85441" lon="-2.43851">
        <ele>592.6</ele>
        <time>2021-05-29 07:10:41</time>
      </trkpt>
      <trkpt lat="42.8544" lon="-2.4384">
        <ele>592.6</ele>
        <time>2021-05-29 07:10:42</time>
      </trkpt>
      <trkpt lat="42.85438" lon="-2.43828">
        <ele>592.8</ele>
        <time>2021-05-29 07:10:43</time>
      </trkpt>
      <trkpt lat="42.85437" lon="-2.43815">
        <ele>592.8</ele>
        <time>2021-05-29 07:10:44</time>
      </trkpt>
      <trkpt lat="42.85436" lon="-2.43803">
        <ele>592.8</ele>
        <time>2021-05-29 07:10:45</time>
      </trkpt>
      <trkpt lat="42.85434" lon="-2.4379">
        <ele>592.8</ele>
        <time>2021-05-29 07:10:46</time>
      </trkpt>
      <trkpt lat="42.85433" lon="-2.43778">
        <ele>592.8</ele>
        <time>2021-05-29 07:10:47</time>
      </trkpt>
      <trkpt lat="42.85431" lon="-2.43765">
        <ele>592.8</ele>
        <time>2021-05-29 07:10:48</time>
      </trkpt>
      <trkpt lat="42.8543" lon="-2.43751">
        <ele>592.8</ele>
        <time>2021-05-29 07:10:49</time>
      </trkpt>
      <trkpt lat="42.85429" lon="-2.43738">
        <ele>592.8</ele>
        <time>2021-05-29 07:10:50</time>
      </trkpt>
      <trkpt lat="42.85427" lon="-2.43725">
        <ele>592.8</ele>
        <time>2021-05-29 07:10:51</time>
      </trkpt>
      <trkpt lat="42.85426" lon="-2.43711">
        <ele>592.8</ele>
        <time>2021-05-29 07:10:52</time>
      </trkpt>
      <trkpt lat="42.85424" lon="-2.43698">
        <ele>592.8</ele>
        <time>2021-05-29 07:10:53</time>
      </trkpt>
      <trkpt lat="42.85421" lon="-2.43684">
        <ele>592.6</ele>
        <time>2021-05-29 07:10:54</time>
      </trkpt>
      <trkpt lat="42.85418" lon="-2.43671">
        <ele>592.2</ele>
        <time>2021-05-29 07:10:55</time>
      </trkpt>
      <trkpt lat="42.85414" lon="-2.43658">
        <ele>591.8</ele>
        <time>2021-05-29 07:10:56</time>
      </trkpt>
      <trkpt lat="42.85411" lon="-2.43645">
        <ele>591.6</ele>
        <time>2021-05-29 07:10:57</time>
      </trkpt>
      <trkpt lat="42.85407" lon="-2.43632">
        <ele>590.8</ele>
        <time>2021-05-29 07:10:58</time>
      </trkpt>
      <trkpt lat="42.85404" lon="-2.43619">
        <ele>590.6</ele>
        <time>2021-05-29 07:10:59</time>
      </trkpt>
      <trkpt lat="42.85401" lon="-2.43607">
        <ele>590.4</ele>
        <time>2021-05-29 07:11:00</time>
      </trkpt>
      <trkpt lat="42.85397" lon="-2.43594">
        <ele>590</ele>
        <time>2021-05-29 07:11:01</time>
      </trkpt>
      <trkpt lat="42.85393" lon="-2.43581">
        <ele>589.6</ele>
        <time>2021-05-29 07:11:02</time>
      </trkpt>
      <trkpt lat="42.8539" lon="-2.43568">
        <ele>589.4</ele>
        <time>2021-05-29 07:11:03</time>
      </trkpt>
      <trkpt lat="42.85386" lon="-2.43555">
        <ele>589.2</ele>
        <time>2021-05-29 07:11:04</time>
      </trkpt>
      <trkpt lat="42.85382" lon="-2.43542">
        <ele>589</ele>
        <time>2021-05-29 07:11:05</time>
      </trkpt>
      <trkpt lat="42.85379" lon="-2.43529">
        <ele>589</ele>
        <time>2021-05-29 07:11:06</time>
      </trkpt>
      <trkpt lat="42.85375" lon="-2.43516">
        <ele>588.8</ele>
        <time>2021-05-29 07:11:07</time>
      </trkpt>
      <trkpt lat="42.85372" lon="-2.43504">
        <ele>588.6</ele>
        <time>2021-05-29 07:11:08</time>
      </trkpt>
      <trkpt lat="42.85368" lon="-2.43491">
        <ele>588.4</ele>
        <time>2021-05-29 07:11:09</time>
      </trkpt>
      <trkpt lat="42.85364" lon="-2.43478">
        <ele>588.2</ele>
        <time>2021-05-29 07:11:10</time>
      </trkpt>
      <trkpt lat="42.85361" lon="-2.43465">
        <ele>588</ele>
        <time>2021-05-29 07:11:11</time>
      </trkpt>
      <trkpt lat="42.85357" lon="-2.43452">
        <ele>588</ele>
        <time>2021-05-29 07:11:12</time>
      </trkpt>
      <trkpt lat="42.85354" lon="-2.43439">
        <ele>588</ele>
        <time>2021-05-29 07:11:13</time>
      </trkpt>
      <trkpt lat="42.8535" lon="-2.43426">
        <ele>587.8</ele>
        <time>2021-05-29 07:11:14</time>
      </trkpt>
      <trkpt lat="42.85346" lon="-2.43413">
        <ele>587.8</ele>
        <time>2021-05-29 07:11:15</time>
      </trkpt>
      <trkpt lat="42.85343" lon="-2.434">
        <ele>587.8</ele>
        <time>2021-05-29 07:11:16</time>
      </trkpt>
      <trkpt lat="42.85339" lon="-2.43387">
        <ele>587.6</ele>
        <time>2021-05-29 07:11:17</time>
      </trkpt>
      <trkpt lat="42.85336" lon="-2.43373">
        <ele>587.6</ele>
        <time>2021-05-29 07:11:18</time>
      </trkpt>
      <trkpt lat="42.85332" lon="-2.4336">
        <ele>587.6</ele>
        <time>2021-05-29 07:11:19</time>
      </trkpt>
      <trkpt lat="42.85328" lon="-2.43347">
        <ele>587.4</ele>
        <time>2021-05-29 07:11:20</time>
      </trkpt>
      <trkpt lat="42.85325" lon="-2.43334">
        <ele>587.4</ele>
        <time>2021-05-29 07:11:21</time>
      </trkpt>
      <trkpt lat="42.85321" lon="-2.4332">
        <ele>587.2</ele>
        <time>2021-05-29 07:11:22</time>
      </trkpt>
      <trkpt lat="42.85317" lon="-2.43307">
        <ele>587.2</ele>
        <time>2021-05-29 07:11:23</time>
      </trkpt>
      <trkpt lat="42.85314" lon="-2.43294">
        <ele>587</ele>
        <time>2021-05-29 07:11:24</time>
      </trkpt>
      <trkpt lat="42.8531" lon="-2.43281">
        <ele>587</ele>
        <time>2021-05-29 07:11:25</time>
      </trkpt>
      <trkpt lat="42.85306" lon="-2.43267">
        <ele>587</ele>
        <time>2021-05-29 07:11:26</time>
      </trkpt>
      <trkpt lat="42.85303" lon="-2.43254">
        <ele>586.8</ele>
        <time>2021-05-29 07:11:27</time>
      </trkpt>
      <trkpt lat="42.85299" lon="-2.4324">
        <ele>586.8</ele>
        <time>2021-05-29 07:11:28</time>
      </trkpt>
      <trkpt lat="42.85295" lon="-2.43227">
        <ele>586.8</ele>
        <time>2021-05-29 07:11:29</time>
      </trkpt>
      <trkpt lat="42.85292" lon="-2.43214">
        <ele>586.8</ele>
        <time>2021-05-29 07:11:30</time>
      </trkpt>
      <trkpt lat="42.85288" lon="-2.432">
        <ele>586.6</ele>
        <time>2021-05-29 07:11:31</time>
      </trkpt>
      <trkpt lat="42.85285" lon="-2.43187">
        <ele>586.4</ele>
        <time>2021-05-29 07:11:32</time>
      </trkpt>
      <trkpt lat="42.85281" lon="-2.43174">
        <ele>586.4</ele>
        <time>2021-05-29 07:11:33</time>
      </trkpt>
      <trkpt lat="42.85277" lon="-2.43161">
        <ele>586.2</ele>
        <time>2021-05-29 07:11:34</time>
      </trkpt>
      <trkpt lat="42.85274" lon="-2.43148">
        <ele>586</ele>
        <time>2021-05-29 07:11:35</time>
      </trkpt>
      <trkpt lat="42.8527" lon="-2.43135">
        <ele>585.8</ele>
        <time>2021-05-29 07:11:36</time>
      </trkpt>
      <trkpt lat="42.85267" lon="-2.43122">
        <ele>585.8</ele>
        <time>2021-05-29 07:11:37</time>
      </trkpt>
      <trkpt lat="42.85263" lon="-2.43109">
        <ele>585.6</ele>
        <time>2021-05-29 07:11:38</time>
      </trkpt>
      <trkpt lat="42.8526" lon="-2.43095">
        <ele>585.6</ele>
        <time>2021-05-29 07:11:39</time>
      </trkpt>
      <trkpt lat="42.85256" lon="-2.43082">
        <ele>585.4</ele>
        <time>2021-05-29 07:11:40</time>
      </trkpt>
      <trkpt lat="42.85252" lon="-2.43069">
        <ele>585.4</ele>
        <time>2021-05-29 07:11:41</time>
      </trkpt>
      <trkpt lat="42.85249" lon="-2.43056">
        <ele>585.2</ele>
        <time>2021-05-29 07:11:42</time>
      </trkpt>
      <trkpt lat="42.85245" lon="-2.43043">
        <ele>585.2</ele>
        <time>2021-05-29 07:11:43</time>
      </trkpt>
      <trkpt lat="42.85242" lon="-2.4303">
        <ele>585</ele>
        <time>2021-05-29 07:11:44</time>
      </trkpt>
      <trkpt lat="42.85238" lon="-2.43016">
        <ele>584.8</ele>
        <time>2021-05-29 07:11:45</time>
      </trkpt>
      <trkpt lat="42.85234" lon="-2.43003">
        <ele>584.8</ele>
        <time>2021-05-29 07:11:46</time>
      </trkpt>
      <trkpt lat="42.85231" lon="-2.42989">
        <ele>584.6</ele>
        <time>2021-05-29 07:11:47</time>
      </trkpt>
      <trkpt lat="42.85227" lon="-2.42976">
        <ele>584.6</ele>
        <time>2021-05-29 07:11:48</time>
      </trkpt>
      <trkpt lat="42.85223" lon="-2.42962">
        <ele>584.4</ele>
        <time>2021-05-29 07:11:49</time>
      </trkpt>
      <trkpt lat="42.85219" lon="-2.42949">
        <ele>584.4</ele>
        <time>2021-05-29 07:11:50</time>
      </trkpt>
      <trkpt lat="42.85215" lon="-2.42935">
        <ele>584.2</ele>
        <time>2021-05-29 07:11:51</time>
      </trkpt>
      <trkpt lat="42.85211" lon="-2.4292">
        <ele>584</ele>
        <time>2021-05-29 07:11:52</time>
      </trkpt>
      <trkpt lat="42.85208" lon="-2.42906">
        <ele>583.8</ele>
        <time>2021-05-29 07:11:53</time>
      </trkpt>
      <trkpt lat="42.85204" lon="-2.42892">
        <ele>583.6</ele>
        <time>2021-05-29 07:11:54</time>
      </trkpt>
      <trkpt lat="42.852" lon="-2.42877">
        <ele>583.6</ele>
        <time>2021-05-29 07:11:55</time>
      </trkpt>
      <trkpt lat="42.85196" lon="-2.42863">
        <ele>583.4</ele>
        <time>2021-05-29 07:11:56</time>
      </trkpt>
      <trkpt lat="42.85192" lon="-2.42848">
        <ele>583</ele>
        <time>2021-05-29 07:11:57</time>
      </trkpt>
      <trkpt lat="42.85188" lon="-2.42834">
        <ele>582.6</ele>
        <time>2021-05-29 07:11:58</time>
      </trkpt>
      <trkpt lat="42.85184" lon="-2.4282">
        <ele>582.4</ele>
        <time>2021-05-29 07:11:59</time>
      </trkpt>
      <trkpt lat="42.8518" lon="-2.42806">
        <ele>582</ele>
        <time>2021-05-29 07:12:00</time>
      </trkpt>
      <trkpt lat="42.85176" lon="-2.42791">
        <ele>581.8</ele>
        <time>2021-05-29 07:12:01</time>
      </trkpt>
      <trkpt lat="42.85172" lon="-2.42777">
        <ele>581.4</ele>
        <time>2021-05-29 07:12:02</time>
      </trkpt>
      <trkpt lat="42.85168" lon="-2.42763">
        <ele>581.4</ele>
        <time>2021-05-29 07:12:03</time>
      </trkpt>
      <trkpt lat="42.85164" lon="-2.42748">
        <ele>581</ele>
        <time>2021-05-29 07:12:04</time>
      </trkpt>
      <trkpt lat="42.8516" lon="-2.42734">
        <ele>580.8</ele>
        <time>2021-05-29 07:12:05</time>
      </trkpt>
      <trkpt lat="42.85156" lon="-2.42719">
        <ele>580.6</ele>
        <time>2021-05-29 07:12:06</time>
      </trkpt>
      <trkpt lat="42.85152" lon="-2.42705">
        <ele>580</ele>
        <time>2021-05-29 07:12:07</time>
      </trkpt>
      <trkpt lat="42.85148" lon="-2.4269">
        <ele>579.6</ele>
        <time>2021-05-29 07:12:08</time>
      </trkpt>
      <trkpt lat="42.85144" lon="-2.42675">
        <ele>579.2</ele>
        <time>2021-05-29 07:12:09</time>
      </trkpt>
      <trkpt lat="42.8514" lon="-2.42661">
        <ele>579</ele>
        <time>2021-05-29 07:12:10</time>
      </trkpt>
      <trkpt lat="42.85137" lon="-2.42646">
        <ele>578.6</ele>
        <time>2021-05-29 07:12:11</time>
      </trkpt>
      <trkpt lat="42.85133" lon="-2.42631">
        <ele>578.4</ele>
        <time>2021-05-29 07:12:12</time>
      </trkpt>
      <trkpt lat="42.85129" lon="-2.42617">
        <ele>578</ele>
        <time>2021-05-29 07:12:13</time>
      </trkpt>
      <trkpt lat="42.85125" lon="-2.42603">
        <ele>577.8</ele>
        <time>2021-05-29 07:12:14</time>
      </trkpt>
      <trkpt lat="42.8512" lon="-2.42589">
        <ele>577.6</ele>
        <time>2021-05-29 07:12:15</time>
      </trkpt>
      <trkpt lat="42.85115" lon="-2.42577">
        <ele>577</ele>
        <time>2021-05-29 07:12:16</time>
      </trkpt>
      <trkpt lat="42.85108" lon="-2.42567">
        <ele>576.4</ele>
        <time>2021-05-29 07:12:17</time>
      </trkpt>
      <trkpt lat="42.851" lon="-2.42559">
        <ele>576.2</ele>
        <time>2021-05-29 07:12:18</time>
      </trkpt>
      <trkpt lat="42.85092" lon="-2.42552">
        <ele>576.2</ele>
        <time>2021-05-29 07:12:19</time>
      </trkpt>
      <trkpt lat="42.85085" lon="-2.42543">
        <ele>576.2</ele>
        <time>2021-05-29 07:12:20</time>
      </trkpt>
      <trkpt lat="42.8508" lon="-2.42533">
        <ele>576</ele>
        <time>2021-05-29 07:12:21</time>
      </trkpt>
      <trkpt lat="42.85076" lon="-2.42521">
        <ele>576</ele>
        <time>2021-05-29 07:12:22</time>
      </trkpt>
      <trkpt lat="42.85074" lon="-2.42508">
        <ele>576.2</ele>
        <time>2021-05-29 07:12:23</time>
      </trkpt>
      <trkpt lat="42.85071" lon="-2.42494">
        <ele>576</ele>
        <time>2021-05-29 07:12:24</time>
      </trkpt>
      <trkpt lat="42.85068" lon="-2.42481">
        <ele>576</ele>
        <time>2021-05-29 07:12:25</time>
      </trkpt>
      <trkpt lat="42.85064" lon="-2.42469">
        <ele>576</ele>
        <time>2021-05-29 07:12:26</time>
      </trkpt>
      <trkpt lat="42.85058" lon="-2.42458">
        <ele>576</ele>
        <time>2021-05-29 07:12:27</time>
      </trkpt>
      <trkpt lat="42.85051" lon="-2.4245">
        <ele>576</ele>
        <time>2021-05-29 07:12:28</time>
      </trkpt>
      <trkpt lat="42.85043" lon="-2.42442">
        <ele>576</ele>
        <time>2021-05-29 07:12:29</time>
      </trkpt>
      <trkpt lat="42.85035" lon="-2.42436">
        <ele>576</ele>
        <time>2021-05-29 07:12:30</time>
      </trkpt>
      <trkpt lat="42.85028" lon="-2.42429">
        <ele>576</ele>
        <time>2021-05-29 07:12:31</time>
      </trkpt>
      <trkpt lat="42.85021" lon="-2.42422">
        <ele>576</ele>
        <time>2021-05-29 07:12:32</time>
      </trkpt>
      <trkpt lat="42.85015" lon="-2.42415">
        <ele>576</ele>
        <time>2021-05-29 07:12:33</time>
      </trkpt>
      <trkpt lat="42.85009" lon="-2.42407">
        <ele>576</ele>
        <time>2021-05-29 07:12:34</time>
      </trkpt>
      <trkpt lat="42.85004" lon="-2.424">
        <ele>576.2</ele>
        <time>2021-05-29 07:12:35</time>
      </trkpt>
      <trkpt lat="42.85" lon="-2.42392">
        <ele>576.2</ele>
        <time>2021-05-29 07:12:36</time>
      </trkpt>
      <trkpt lat="42.84996" lon="-2.42384">
        <ele>576.2</ele>
        <time>2021-05-29 07:12:37</time>
      </trkpt>
      <trkpt lat="42.84992" lon="-2.42376">
        <ele>576.2</ele>
        <time>2021-05-29 07:12:38</time>
      </trkpt>
      <trkpt lat="42.84988" lon="-2.42368">
        <ele>576.6</ele>
        <time>2021-05-29 07:12:39</time>
      </trkpt>
      <trkpt lat="42.84984" lon="-2.4236">
        <ele>576.8</ele>
        <time>2021-05-29 07:12:40</time>
      </trkpt>
      <trkpt lat="42.84981" lon="-2.42353">
        <ele>577.6</ele>
        <time>2021-05-29 07:12:41</time>
      </trkpt>
      <trkpt lat="42.84978" lon="-2.42344">
        <ele>578.2</ele>
        <time>2021-05-29 07:12:42</time>
      </trkpt>
      <trkpt lat="42.84974" lon="-2.42336">
        <ele>578.6</ele>
        <time>2021-05-29 07:12:43</time>
      </trkpt>
      <trkpt lat="42.84971" lon="-2.42328">
        <ele>579</ele>
        <time>2021-05-29 07:12:44</time>
      </trkpt>
      <trkpt lat="42.84969" lon="-2.42319">
        <ele>579.4</ele>
        <time>2021-05-29 07:12:45</time>
      </trkpt>
      <trkpt lat="42.84966" lon="-2.42311">
        <ele>579.6</ele>
        <time>2021-05-29 07:12:46</time>
      </trkpt>
      <trkpt lat="42.84964" lon="-2.42303">
        <ele>580</ele>
        <time>2021-05-29 07:12:47</time>
      </trkpt>
      <trkpt lat="42.84961" lon="-2.42294">
        <ele>580.4</ele>
        <time>2021-05-29 07:12:48</time>
      </trkpt>
      <trkpt lat="42.84959" lon="-2.42286">
        <ele>580.6</ele>
        <time>2021-05-29 07:12:49</time>
      </trkpt>
      <trkpt lat="42.84957" lon="-2.42278">
        <ele>580.8</ele>
        <time>2021-05-29 07:12:50</time>
      </trkpt>
      <trkpt lat="42.84955" lon="-2.42269">
        <ele>581</ele>
        <time>2021-05-29 07:12:51</time>
      </trkpt>
      <trkpt lat="42.84953" lon="-2.4226">
        <ele>581.2</ele>
        <time>2021-05-29 07:12:52</time>
      </trkpt>
      <trkpt lat="42.84951" lon="-2.4225">
        <ele>581.6</ele>
        <time>2021-05-29 07:12:53</time>
      </trkpt>
      <trkpt lat="42.8495" lon="-2.4224">
        <ele>581.8</ele>
        <time>2021-05-29 07:12:54</time>
      </trkpt>
      <trkpt lat="42.84949" lon="-2.4223">
        <ele>582</ele>
        <time>2021-05-29 07:12:55</time>
      </trkpt>
      <trkpt lat="42.84948" lon="-2.4222">
        <ele>582.2</ele>
        <time>2021-05-29 07:12:56</time>
      </trkpt>
      <trkpt lat="42.84948" lon="-2.4221">
        <ele>582.2</ele>
        <time>2021-05-29 07:12:57</time>
      </trkpt>
      <trkpt lat="42.84947" lon="-2.422">
        <ele>582.4</ele>
        <time>2021-05-29 07:12:58</time>
      </trkpt>
      <trkpt lat="42.84947" lon="-2.42189">
        <ele>582.4</ele>
        <time>2021-05-29 07:12:59</time>
      </trkpt>
      <trkpt lat="42.84946" lon="-2.42178">
        <ele>582.4</ele>
        <time>2021-05-29 07:13:00</time>
      </trkpt>
      <trkpt lat="42.84946" lon="-2.42168">
        <ele>582.6</ele>
        <time>2021-05-29 07:13:01</time>
      </trkpt>
      <trkpt lat="42.84946" lon="-2.42156">
        <ele>582.6</ele>
        <time>2021-05-29 07:13:02</time>
      </trkpt>
      <trkpt lat="42.84946" lon="-2.42145">
        <ele>582.6</ele>
        <time>2021-05-29 07:13:03</time>
      </trkpt>
      <trkpt lat="42.84947" lon="-2.42134">
        <ele>582.6</ele>
        <time>2021-05-29 07:13:04</time>
      </trkpt>
      <trkpt lat="42.84948" lon="-2.42122">
        <ele>582.6</ele>
        <time>2021-05-29 07:13:05</time>
      </trkpt>
      <trkpt lat="42.84949" lon="-2.4211">
        <ele>582.6</ele>
        <time>2021-05-29 07:13:06</time>
      </trkpt>
      <trkpt lat="42.84951" lon="-2.42098">
        <ele>582.8</ele>
        <time>2021-05-29 07:13:07</time>
      </trkpt>
      <trkpt lat="42.84953" lon="-2.42086">
        <ele>582.8</ele>
        <time>2021-05-29 07:13:08</time>
      </trkpt>
      <trkpt lat="42.84955" lon="-2.42074">
        <ele>582.8</ele>
        <time>2021-05-29 07:13:09</time>
      </trkpt>
      <trkpt lat="42.84956" lon="-2.42061">
        <ele>582.8</ele>
        <time>2021-05-29 07:13:10</time>
      </trkpt>
      <trkpt lat="42.84958" lon="-2.42049">
        <ele>582.8</ele>
        <time>2021-05-29 07:13:11</time>
      </trkpt>
      <trkpt lat="42.8496" lon="-2.42035">
        <ele>582.8</ele>
        <time>2021-05-29 07:13:12</time>
      </trkpt>
      <trkpt lat="42.84962" lon="-2.42022">
        <ele>582.6</ele>
        <time>2021-05-29 07:13:13</time>
      </trkpt>
      <trkpt lat="42.84964" lon="-2.42008">
        <ele>582.6</ele>
        <time>2021-05-29 07:13:14</time>
      </trkpt>
      <trkpt lat="42.84966" lon="-2.41993">
        <ele>582.6</ele>
        <time>2021-05-29 07:13:15</time>
      </trkpt>
      <trkpt lat="42.84968" lon="-2.41978">
        <ele>582.4</ele>
        <time>2021-05-29 07:13:16</time>
      </trkpt>
      <trkpt lat="42.84969" lon="-2.41964">
        <ele>582.4</ele>
        <time>2021-05-29 07:13:17</time>
      </trkpt>
      <trkpt lat="42.84971" lon="-2.41949">
        <ele>582.2</ele>
        <time>2021-05-29 07:13:18</time>
      </trkpt>
      <trkpt lat="42.8497" lon="-2.41935">
        <ele>582.2</ele>
        <time>2021-05-29 07:13:19</time>
      </trkpt>
      <trkpt lat="42.84968" lon="-2.41921">
        <ele>582.2</ele>
        <time>2021-05-29 07:13:20</time>
      </trkpt>
      <trkpt lat="42.84964" lon="-2.41908">
        <ele>582.2</ele>
        <time>2021-05-29 07:13:21</time>
      </trkpt>
      <trkpt lat="42.84958" lon="-2.41897">
        <ele>582.2</ele>
        <time>2021-05-29 07:13:22</time>
      </trkpt>
      <trkpt lat="42.84953" lon="-2.41886">
        <ele>582.2</ele>
        <time>2021-05-29 07:13:23</time>
      </trkpt>
      <trkpt lat="42.8495" lon="-2.41874">
        <ele>582.2</ele>
        <time>2021-05-29 07:13:24</time>
      </trkpt>
      <trkpt lat="42.8495" lon="-2.41862">
        <ele>582</ele>
        <time>2021-05-29 07:13:25</time>
      </trkpt>
      <trkpt lat="42.84953" lon="-2.41851">
        <ele>582</ele>
        <time>2021-05-29 07:13:26</time>
      </trkpt>
      <trkpt lat="42.84957" lon="-2.41839">
        <ele>582</ele>
        <time>2021-05-29 07:13:27</time>
      </trkpt>
      <trkpt lat="42.8496" lon="-2.41829">
        <ele>582</ele>
        <time>2021-05-29 07:13:28</time>
      </trkpt>
      <trkpt lat="42.84963" lon="-2.41817">
        <ele>582</ele>
        <time>2021-05-29 07:13:29</time>
      </trkpt>
      <trkpt lat="42.84964" lon="-2.41805">
        <ele>582</ele>
        <time>2021-05-29 07:13:30</time>
      </trkpt>
      <trkpt lat="42.84963" lon="-2.41793">
        <ele>582</ele>
        <time>2021-05-29 07:13:31</time>
      </trkpt>
      <trkpt lat="42.84962" lon="-2.41781">
        <ele>582</ele>
        <time>2021-05-29 07:13:32</time>
      </trkpt>
      <trkpt lat="42.84961" lon="-2.41768">
        <ele>582</ele>
        <time>2021-05-29 07:13:33</time>
      </trkpt>
      <trkpt lat="42.84959" lon="-2.41756">
        <ele>582.2</ele>
        <time>2021-05-29 07:13:34</time>
      </trkpt>
      <trkpt lat="42.84958" lon="-2.41744">
        <ele>582.2</ele>
        <time>2021-05-29 07:13:35</time>
      </trkpt>
      <trkpt lat="42.84956" lon="-2.41732">
        <ele>582.2</ele>
        <time>2021-05-29 07:13:36</time>
      </trkpt>
      <trkpt lat="42.84954" lon="-2.4172">
        <ele>582.4</ele>
        <time>2021-05-29 07:13:37</time>
      </trkpt>
      <trkpt lat="42.84951" lon="-2.41708">
        <ele>582.4</ele>
        <time>2021-05-29 07:13:38</time>
      </trkpt>
      <trkpt lat="42.84949" lon="-2.41696">
        <ele>582.4</ele>
        <time>2021-05-29 07:13:39</time>
      </trkpt>
      <trkpt lat="42.84947" lon="-2.41684">
        <ele>582.4</ele>
        <time>2021-05-29 07:13:40</time>
      </trkpt>
      <trkpt lat="42.84944" lon="-2.41672">
        <ele>582.4</ele>
        <time>2021-05-29 07:13:41</time>
      </trkpt>
      <trkpt lat="42.84942" lon="-2.4166">
        <ele>582.6</ele>
        <time>2021-05-29 07:13:42</time>
      </trkpt>
      <trkpt lat="42.8494" lon="-2.41648">
        <ele>582.6</ele>
        <time>2021-05-29 07:13:43</time>
      </trkpt>
      <trkpt lat="42.84937" lon="-2.41637">
        <ele>582.6</ele>
        <time>2021-05-29 07:13:44</time>
      </trkpt>
      <trkpt lat="42.84935" lon="-2.41625">
        <ele>582.6</ele>
        <time>2021-05-29 07:13:45</time>
      </trkpt>
      <trkpt lat="42.84933" lon="-2.41613">
        <ele>582.8</ele>
        <time>2021-05-29 07:13:46</time>
      </trkpt>
      <trkpt lat="42.84931" lon="-2.41601">
        <ele>582.8</ele>
        <time>2021-05-29 07:13:47</time>
      </trkpt>
      <trkpt lat="42.84929" lon="-2.4159">
        <ele>582.8</ele>
        <time>2021-05-29 07:13:48</time>
      </trkpt>
      <trkpt lat="42.84926" lon="-2.41578">
        <ele>582.8</ele>
        <time>2021-05-29 07:13:49</time>
      </trkpt>
      <trkpt lat="42.84924" lon="-2.41567">
        <ele>583</ele>
        <time>2021-05-29 07:13:50</time>
      </trkpt>
      <trkpt lat="42.84922" lon="-2.41556">
        <ele>583</ele>
        <time>2021-05-29 07:13:51</time>
      </trkpt>
      <trkpt lat="42.84919" lon="-2.41545">
        <ele>583</ele>
        <time>2021-05-29 07:13:52</time>
      </trkpt>
      <trkpt lat="42.84917" lon="-2.41534">
        <ele>583</ele>
        <time>2021-05-29 07:13:53</time>
      </trkpt>
      <trkpt lat="42.84915" lon="-2.41523">
        <ele>583</ele>
        <time>2021-05-29 07:13:54</time>
      </trkpt>
      <trkpt lat="42.84913" lon="-2.41513">
        <ele>583</ele>
        <time>2021-05-29 07:13:55</time>
      </trkpt>
      <trkpt lat="42.84911" lon="-2.41502">
        <ele>583</ele>
        <time>2021-05-29 07:13:56</time>
      </trkpt>
      <trkpt lat="42.84909" lon="-2.41491">
        <ele>583</ele>
        <time>2021-05-29 07:13:57</time>
      </trkpt>
      <trkpt lat="42.84907" lon="-2.4148">
        <ele>583</ele>
        <time>2021-05-29 07:13:58</time>
      </trkpt>
      <trkpt lat="42.84904" lon="-2.41468">
        <ele>583</ele>
        <time>2021-05-29 07:13:59</time>
      </trkpt>
      <trkpt lat="42.84902" lon="-2.41457">
        <ele>583</ele>
        <time>2021-05-29 07:14:00</time>
      </trkpt>
      <trkpt lat="42.849" lon="-2.41445">
        <ele>583</ele>
        <time>2021-05-29 07:14:01</time>
      </trkpt>
      <trkpt lat="42.84898" lon="-2.41434">
        <ele>583</ele>
        <time>2021-05-29 07:14:02</time>
      </trkpt>
      <trkpt lat="42.84895" lon="-2.41422">
        <ele>583</ele>
        <time>2021-05-29 07:14:03</time>
      </trkpt>
      <trkpt lat="42.84893" lon="-2.4141">
        <ele>583.2</ele>
        <time>2021-05-29 07:14:04</time>
      </trkpt>
      <trkpt lat="42.8489" lon="-2.41398">
        <ele>583.2</ele>
        <time>2021-05-29 07:14:05</time>
      </trkpt>
      <trkpt lat="42.84888" lon="-2.41387">
        <ele>583.2</ele>
        <time>2021-05-29 07:14:06</time>
      </trkpt>
      <trkpt lat="42.84886" lon="-2.41375">
        <ele>583.2</ele>
        <time>2021-05-29 07:14:07</time>
      </trkpt>
      <trkpt lat="42.84883" lon="-2.41363">
        <ele>583.2</ele>
        <time>2021-05-29 07:14:08</time>
      </trkpt>
      <trkpt lat="42.84881" lon="-2.41352">
        <ele>583.2</ele>
        <time>2021-05-29 07:14:09</time>
      </trkpt>
      <trkpt lat="42.84879" lon="-2.41341">
        <ele>583.2</ele>
        <time>2021-05-29 07:14:10</time>
      </trkpt>
      <trkpt lat="42.84877" lon="-2.41329">
        <ele>583.2</ele>
        <time>2021-05-29 07:14:11</time>
      </trkpt>
      <trkpt lat="42.84875" lon="-2.41318">
        <ele>583.2</ele>
        <time>2021-05-29 07:14:12</time>
      </trkpt>
      <trkpt lat="42.84872" lon="-2.41306">
        <ele>583.2</ele>
        <time>2021-05-29 07:14:13</time>
      </trkpt>
      <trkpt lat="42.8487" lon="-2.41295">
        <ele>583.2</ele>
        <time>2021-05-29 07:14:14</time>
      </trkpt>
      <trkpt lat="42.84868" lon="-2.41284">
        <ele>583.4</ele>
        <time>2021-05-29 07:14:15</time>
      </trkpt>
      <trkpt lat="42.84866" lon="-2.41273">
        <ele>583.4</ele>
        <time>2021-05-29 07:14:16</time>
      </trkpt>
      <trkpt lat="42.84864" lon="-2.41262">
        <ele>583.4</ele>
        <time>2021-05-29 07:14:17</time>
      </trkpt>
      <trkpt lat="42.84862" lon="-2.41251">
        <ele>583.4</ele>
        <time>2021-05-29 07:14:18</time>
      </trkpt>
      <trkpt lat="42.8486" lon="-2.4124">
        <ele>583.4</ele>
        <time>2021-05-29 07:14:19</time>
      </trkpt>
      <trkpt lat="42.84857" lon="-2.41229">
        <ele>583.4</ele>
        <time>2021-05-29 07:14:20</time>
      </trkpt>
      <trkpt lat="42.84855" lon="-2.41218">
        <ele>583.6</ele>
        <time>2021-05-29 07:14:21</time>
      </trkpt>
      <trkpt lat="42.84853" lon="-2.41207">
        <ele>583.6</ele>
        <time>2021-05-29 07:14:22</time>
      </trkpt>
      <trkpt lat="42.84851" lon="-2.41196">
        <ele>583.6</ele>
        <time>2021-05-29 07:14:23</time>
      </trkpt>
      <trkpt lat="42.84849" lon="-2.41185">
        <ele>583.6</ele>
        <time>2021-05-29 07:14:24</time>
      </trkpt>
      <trkpt lat="42.84847" lon="-2.41174">
        <ele>583.6</ele>
        <time>2021-05-29 07:14:25</time>
      </trkpt>
      <trkpt lat="42.84845" lon="-2.41163">
        <ele>583.6</ele>
        <time>2021-05-29 07:14:26</time>
      </trkpt>
      <trkpt lat="42.84843" lon="-2.41152">
        <ele>583.6</ele>
        <time>2021-05-29 07:14:27</time>
      </trkpt>
      <trkpt lat="42.8484" lon="-2.41142">
        <ele>583.6</ele>
        <time>2021-05-29 07:14:28</time>
      </trkpt>
      <trkpt lat="42.84838" lon="-2.41131">
        <ele>583.8</ele>
        <time>2021-05-29 07:14:29</time>
      </trkpt>
      <trkpt lat="42.84837" lon="-2.4112">
        <ele>583.8</ele>
        <time>2021-05-29 07:14:30</time>
      </trkpt>
      <trkpt lat="42.84835" lon="-2.4111">
        <ele>583.8</ele>
        <time>2021-05-29 07:14:31</time>
      </trkpt>
      <trkpt lat="42.84833" lon="-2.411">
        <ele>583.8</ele>
        <time>2021-05-29 07:14:32</time>
      </trkpt>
      <trkpt lat="42.84831" lon="-2.41091">
        <ele>583.8</ele>
        <time>2021-05-29 07:14:33</time>
      </trkpt>
      <trkpt lat="42.84829" lon="-2.41081">
        <ele>583.8</ele>
        <time>2021-05-29 07:14:34</time>
      </trkpt>
      <trkpt lat="42.84827" lon="-2.41071">
        <ele>583.8</ele>
        <time>2021-05-29 07:14:35</time>
      </trkpt>
      <trkpt lat="42.84825" lon="-2.41061">
        <ele>583.8</ele>
        <time>2021-05-29 07:14:36</time>
      </trkpt>
      <trkpt lat="42.84823" lon="-2.41052">
        <ele>584</ele>
        <time>2021-05-29 07:14:37</time>
      </trkpt>
      <trkpt lat="42.8482" lon="-2.41043">
        <ele>584</ele>
        <time>2021-05-29 07:14:38</time>
      </trkpt>
      <trkpt lat="42.84816" lon="-2.41035">
        <ele>584</ele>
        <time>2021-05-29 07:14:39</time>
      </trkpt>
      <trkpt lat="42.84811" lon="-2.41027">
        <ele>584</ele>
        <time>2021-05-29 07:14:40</time>
      </trkpt>
      <trkpt lat="42.84806" lon="-2.4102">
        <ele>584</ele>
        <time>2021-05-29 07:14:41</time>
      </trkpt>
      <trkpt lat="42.84802" lon="-2.41011">
        <ele>584</ele>
        <time>2021-05-29 07:14:42</time>
      </trkpt>
      <trkpt lat="42.84799" lon="-2.41001">
        <ele>584</ele>
        <time>2021-05-29 07:14:43</time>
      </trkpt>
      <trkpt lat="42.84799" lon="-2.4099">
        <ele>584</ele>
        <time>2021-05-29 07:14:44</time>
      </trkpt>
      <trkpt lat="42.848" lon="-2.40979">
        <ele>584</ele>
        <time>2021-05-29 07:14:45</time>
      </trkpt>
      <trkpt lat="42.84801" lon="-2.40968">
        <ele>584</ele>
        <time>2021-05-29 07:14:46</time>
      </trkpt>
      <trkpt lat="42.84802" lon="-2.40956">
        <ele>584</ele>
        <time>2021-05-29 07:14:47</time>
      </trkpt>
      <trkpt lat="42.84801" lon="-2.40945">
        <ele>584</ele>
        <time>2021-05-29 07:14:48</time>
      </trkpt>
      <trkpt lat="42.848" lon="-2.40934">
        <ele>584</ele>
        <time>2021-05-29 07:14:49</time>
      </trkpt>
      <trkpt lat="42.84798" lon="-2.40923">
        <ele>584.2</ele>
        <time>2021-05-29 07:14:50</time>
      </trkpt>
      <trkpt lat="42.84796" lon="-2.40912">
        <ele>584.2</ele>
        <time>2021-05-29 07:14:51</time>
      </trkpt>
      <trkpt lat="42.84794" lon="-2.40901">
        <ele>584.2</ele>
        <time>2021-05-29 07:14:52</time>
      </trkpt>
      <trkpt lat="42.84793" lon="-2.4089">
        <ele>584.2</ele>
        <time>2021-05-29 07:14:53</time>
      </trkpt>
      <trkpt lat="42.84791" lon="-2.40878">
        <ele>584.2</ele>
        <time>2021-05-29 07:14:54</time>
      </trkpt>
      <trkpt lat="42.84789" lon="-2.40867">
        <ele>584.2</ele>
        <time>2021-05-29 07:14:55</time>
      </trkpt>
      <trkpt lat="42.84788" lon="-2.40856">
        <ele>584.2</ele>
        <time>2021-05-29 07:14:56</time>
      </trkpt>
      <trkpt lat="42.84787" lon="-2.40844">
        <ele>584.2</ele>
        <time>2021-05-29 07:14:57</time>
      </trkpt>
      <trkpt lat="42.84786" lon="-2.40833">
        <ele>584.4</ele>
        <time>2021-05-29 07:14:58</time>
      </trkpt>
      <trkpt lat="42.84785" lon="-2.40822">
        <ele>584.4</ele>
        <time>2021-05-29 07:14:59</time>
      </trkpt>
      <trkpt lat="42.84785" lon="-2.4081">
        <ele>584.4</ele>
        <time>2021-05-29 07:15:00</time>
      </trkpt>
      <trkpt lat="42.84784" lon="-2.40798">
        <ele>584.4</ele>
        <time>2021-05-29 07:15:01</time>
      </trkpt>
      <trkpt lat="42.84784" lon="-2.40787">
        <ele>584.4</ele>
        <time>2021-05-29 07:15:02</time>
      </trkpt>
      <trkpt lat="42.84784" lon="-2.40775">
        <ele>584.4</ele>
        <time>2021-05-29 07:15:03</time>
      </trkpt>
      <trkpt lat="42.84784" lon="-2.40763">
        <ele>584.4</ele>
        <time>2021-05-29 07:15:04</time>
      </trkpt>
      <trkpt lat="42.84784" lon="-2.40751">
        <ele>584.6</ele>
        <time>2021-05-29 07:15:05</time>
      </trkpt>
      <trkpt lat="42.84785" lon="-2.40739">
        <ele>584.6</ele>
        <time>2021-05-29 07:15:06</time>
      </trkpt>
      <trkpt lat="42.84785" lon="-2.40727">
        <ele>584.6</ele>
        <time>2021-05-29 07:15:07</time>
      </trkpt>
      <trkpt lat="42.84786" lon="-2.40714">
        <ele>584.6</ele>
        <time>2021-05-29 07:15:08</time>
      </trkpt>
      <trkpt lat="42.84786" lon="-2.40702">
        <ele>584.6</ele>
        <time>2021-05-29 07:15:09</time>
      </trkpt>
      <trkpt lat="42.84787" lon="-2.4069">
        <ele>584.6</ele>
        <time>2021-05-29 07:15:10</time>
      </trkpt>
      <trkpt lat="42.84788" lon="-2.40678">
        <ele>584.6</ele>
        <time>2021-05-29 07:15:11</time>
      </trkpt>
      <trkpt lat="42.84789" lon="-2.40665">
        <ele>584.6</ele>
        <time>2021-05-29 07:15:12</time>
      </trkpt>
      <trkpt lat="42.84789" lon="-2.40653">
        <ele>584.6</ele>
        <time>2021-05-29 07:15:13</time>
      </trkpt>
      <trkpt lat="42.8479" lon="-2.4064">
        <ele>584.6</ele>
        <time>2021-05-29 07:15:14</time>
      </trkpt>
      <trkpt lat="42.84791" lon="-2.40628">
        <ele>584.6</ele>
        <time>2021-05-29 07:15:15</time>
      </trkpt>
      <trkpt lat="42.84792" lon="-2.40615">
        <ele>584.6</ele>
        <time>2021-05-29 07:15:16</time>
      </trkpt>
      <trkpt lat="42.84793" lon="-2.40602">
        <ele>584.6</ele>
        <time>2021-05-29 07:15:17</time>
      </trkpt>
      <trkpt lat="42.84794" lon="-2.40589">
        <ele>584.6</ele>
        <time>2021-05-29 07:15:18</time>
      </trkpt>
      <trkpt lat="42.84795" lon="-2.40576">
        <ele>584.6</ele>
        <time>2021-05-29 07:15:19</time>
      </trkpt>
      <trkpt lat="42.84796" lon="-2.40563">
        <ele>584.6</ele>
        <time>2021-05-29 07:15:20</time>
      </trkpt>
      <trkpt lat="42.84797" lon="-2.4055">
        <ele>584.6</ele>
        <time>2021-05-29 07:15:21</time>
      </trkpt>
      <trkpt lat="42.84798" lon="-2.40536">
        <ele>584.6</ele>
        <time>2021-05-29 07:15:22</time>
      </trkpt>
      <trkpt lat="42.84799" lon="-2.40523">
        <ele>584.6</ele>
        <time>2021-05-29 07:15:23</time>
      </trkpt>
      <trkpt lat="42.84799" lon="-2.4051">
        <ele>584.4</ele>
        <time>2021-05-29 07:15:24</time>
      </trkpt>
      <trkpt lat="42.848" lon="-2.40496">
        <ele>584.6</ele>
        <time>2021-05-29 07:15:25</time>
      </trkpt>
      <trkpt lat="42.848" lon="-2.40483">
        <ele>584.4</ele>
        <time>2021-05-29 07:15:26</time>
      </trkpt>
      <trkpt lat="42.848" lon="-2.4047">
        <ele>584.4</ele>
        <time>2021-05-29 07:15:27</time>
      </trkpt>
      <trkpt lat="42.84801" lon="-2.40457">
        <ele>584.4</ele>
        <time>2021-05-29 07:15:28</time>
      </trkpt>
      <trkpt lat="42.84801" lon="-2.40445">
        <ele>584.6</ele>
        <time>2021-05-29 07:15:29</time>
      </trkpt>
      <trkpt lat="42.84801" lon="-2.40432">
        <ele>584.6</ele>
        <time>2021-05-29 07:15:30</time>
      </trkpt>
      <trkpt lat="42.84799" lon="-2.4042">
        <ele>584.6</ele>
        <time>2021-05-29 07:15:31</time>
      </trkpt>
      <trkpt lat="42.84795" lon="-2.40409">
        <ele>584.6</ele>
        <time>2021-05-29 07:15:32</time>
      </trkpt>
      <trkpt lat="42.84792" lon="-2.40398">
        <ele>584.6</ele>
        <time>2021-05-29 07:15:33</time>
      </trkpt>
      <trkpt lat="42.8479" lon="-2.40386">
        <ele>584.6</ele>
        <time>2021-05-29 07:15:34</time>
      </trkpt>
      <trkpt lat="42.84791" lon="-2.40375">
        <ele>584.8</ele>
        <time>2021-05-29 07:15:35</time>
      </trkpt>
      <trkpt lat="42.84794" lon="-2.40364">
        <ele>584.8</ele>
        <time>2021-05-29 07:15:36</time>
      </trkpt>
      <trkpt lat="42.84798" lon="-2.40354">
        <ele>584.8</ele>
        <time>2021-05-29 07:15:37</time>
      </trkpt>
      <trkpt lat="42.84802" lon="-2.40344">
        <ele>584.8</ele>
        <time>2021-05-29 07:15:38</time>
      </trkpt>
      <trkpt lat="42.84805" lon="-2.40332">
        <ele>584.8</ele>
        <time>2021-05-29 07:15:39</time>
      </trkpt>
      <trkpt lat="42.84807" lon="-2.40321">
        <ele>584.8</ele>
        <time>2021-05-29 07:15:40</time>
      </trkpt>
      <trkpt lat="42.84808" lon="-2.40309">
        <ele>584.8</ele>
        <time>2021-05-29 07:15:41</time>
      </trkpt>
      <trkpt lat="42.84809" lon="-2.40297">
        <ele>584.8</ele>
        <time>2021-05-29 07:15:42</time>
      </trkpt>
      <trkpt lat="42.84811" lon="-2.40284">
        <ele>585</ele>
        <time>2021-05-29 07:15:43</time>
      </trkpt>
      <trkpt lat="42.84812" lon="-2.40272">
        <ele>585</ele>
        <time>2021-05-29 07:15:44</time>
      </trkpt>
      <trkpt lat="42.84813" lon="-2.40259">
        <ele>585.2</ele>
        <time>2021-05-29 07:15:45</time>
      </trkpt>
      <trkpt lat="42.84815" lon="-2.40247">
        <ele>585.4</ele>
        <time>2021-05-29 07:15:46</time>
      </trkpt>
      <trkpt lat="42.84816" lon="-2.40234">
        <ele>585.2</ele>
        <time>2021-05-29 07:15:47</time>
      </trkpt>
      <trkpt lat="42.84817" lon="-2.40221">
        <ele>585.2</ele>
        <time>2021-05-29 07:15:48</time>
      </trkpt>
      <trkpt lat="42.84818" lon="-2.40208">
        <ele>585.4</ele>
        <time>2021-05-29 07:15:49</time>
      </trkpt>
      <trkpt lat="42.84819" lon="-2.40196">
        <ele>585.4</ele>
        <time>2021-05-29 07:15:50</time>
      </trkpt>
      <trkpt lat="42.8482" lon="-2.40184">
        <ele>585.6</ele>
        <time>2021-05-29 07:15:51</time>
      </trkpt>
      <trkpt lat="42.8482" lon="-2.40172">
        <ele>585.6</ele>
        <time>2021-05-29 07:15:52</time>
      </trkpt>
      <trkpt lat="42.8482" lon="-2.40161">
        <ele>585.6</ele>
        <time>2021-05-29 07:15:53</time>
      </trkpt>
      <trkpt lat="42.84821" lon="-2.40151">
        <ele>585.6</ele>
        <time>2021-05-29 07:15:54</time>
      </trkpt>
      <trkpt lat="42.84821" lon="-2.40141">
        <ele>585.8</ele>
        <time>2021-05-29 07:15:55</time>
      </trkpt>
      <trkpt lat="42.84821" lon="-2.40131">
        <ele>585.8</ele>
        <time>2021-05-29 07:15:56</time>
      </trkpt>
      <trkpt lat="42.84821" lon="-2.40122">
        <ele>585.8</ele>
        <time>2021-05-29 07:15:57</time>
      </trkpt>
      <trkpt lat="42.84819" lon="-2.40113">
        <ele>585.8</ele>
        <time>2021-05-29 07:15:58</time>
      </trkpt>
      <trkpt lat="42.84816" lon="-2.40104">
        <ele>585.8</ele>
        <time>2021-05-29 07:15:59</time>
      </trkpt>
      <trkpt lat="42.84812" lon="-2.40097">
        <ele>585.8</ele>
        <time>2021-05-29 07:16:00</time>
      </trkpt>
      <trkpt lat="42.84808" lon="-2.40089">
        <ele>586</ele>
        <time>2021-05-29 07:16:01</time>
      </trkpt>
      <trkpt lat="42.84805" lon="-2.40081">
        <ele>586</ele>
        <time>2021-05-29 07:16:02</time>
      </trkpt>
      <trkpt lat="42.84801" lon="-2.40072">
        <ele>586.2</ele>
        <time>2021-05-29 07:16:03</time>
      </trkpt>
      <trkpt lat="42.84798" lon="-2.40063">
        <ele>586.2</ele>
        <time>2021-05-29 07:16:04</time>
      </trkpt>
      <trkpt lat="42.84793" lon="-2.40055">
        <ele>586.4</ele>
        <time>2021-05-29 07:16:05</time>
      </trkpt>
      <trkpt lat="42.84787" lon="-2.40048">
        <ele>586.4</ele>
        <time>2021-05-29 07:16:06</time>
      </trkpt>
      <trkpt lat="42.84781" lon="-2.4004">
        <ele>586.4</ele>
        <time>2021-05-29 07:16:07</time>
      </trkpt>
      <trkpt lat="42.84776" lon="-2.40032">
        <ele>586.4</ele>
        <time>2021-05-29 07:16:08</time>
      </trkpt>
      <trkpt lat="42.8477" lon="-2.40023">
        <ele>586.4</ele>
        <time>2021-05-29 07:16:09</time>
      </trkpt>
      <trkpt lat="42.84765" lon="-2.40014">
        <ele>586.4</ele>
        <time>2021-05-29 07:16:10</time>
      </trkpt>
      <trkpt lat="42.8476" lon="-2.40004">
        <ele>586.4</ele>
        <time>2021-05-29 07:16:11</time>
      </trkpt>
      <trkpt lat="42.84755" lon="-2.39994">
        <ele>586.4</ele>
        <time>2021-05-29 07:16:12</time>
      </trkpt>
      <trkpt lat="42.84751" lon="-2.39984">
        <ele>586.6</ele>
        <time>2021-05-29 07:16:13</time>
      </trkpt>
      <trkpt lat="42.84745" lon="-2.39975">
        <ele>586.8</ele>
        <time>2021-05-29 07:16:14</time>
      </trkpt>
      <trkpt lat="42.8474" lon="-2.39965">
        <ele>586.8</ele>
        <time>2021-05-29 07:16:15</time>
      </trkpt>
      <trkpt lat="42.84735" lon="-2.39956">
        <ele>586.8</ele>
        <time>2021-05-29 07:16:16</time>
      </trkpt>
      <trkpt lat="42.84729" lon="-2.39947">
        <ele>586.8</ele>
        <time>2021-05-29 07:16:17</time>
      </trkpt>
      <trkpt lat="42.84723" lon="-2.39939">
        <ele>587</ele>
        <time>2021-05-29 07:16:18</time>
      </trkpt>
      <trkpt lat="42.84718" lon="-2.39931">
        <ele>587</ele>
        <time>2021-05-29 07:16:19</time>
      </trkpt>
      <trkpt lat="42.84712" lon="-2.39923">
        <ele>587</ele>
        <time>2021-05-29 07:16:20</time>
      </trkpt>
      <trkpt lat="42.84707" lon="-2.39916">
        <ele>587</ele>
        <time>2021-05-29 07:16:21</time>
      </trkpt>
      <trkpt lat="42.84701" lon="-2.39909">
        <ele>587</ele>
        <time>2021-05-29 07:16:22</time>
      </trkpt>
      <trkpt lat="42.84695" lon="-2.39902">
        <ele>587</ele>
        <time>2021-05-29 07:16:23</time>
      </trkpt>
      <trkpt lat="42.8469" lon="-2.39895">
        <ele>587</ele>
        <time>2021-05-29 07:16:24</time>
      </trkpt>
      <trkpt lat="42.84684" lon="-2.39888">
        <ele>587</ele>
        <time>2021-05-29 07:16:25</time>
      </trkpt>
      <trkpt lat="42.84678" lon="-2.39882">
        <ele>587.2</ele>
        <time>2021-05-29 07:16:26</time>
      </trkpt>
      <trkpt lat="42.84672" lon="-2.39876">
        <ele>587.2</ele>
        <time>2021-05-29 07:16:27</time>
      </trkpt>
      <trkpt lat="42.84666" lon="-2.3987">
        <ele>587.2</ele>
        <time>2021-05-29 07:16:28</time>
      </trkpt>
      <trkpt lat="42.8466" lon="-2.39865">
        <ele>587.4</ele>
        <time>2021-05-29 07:16:29</time>
      </trkpt>
      <trkpt lat="42.84654" lon="-2.39859">
        <ele>587.4</ele>
        <time>2021-05-29 07:16:30</time>
      </trkpt>
      <trkpt lat="42.84648" lon="-2.39854">
        <ele>587.4</ele>
        <time>2021-05-29 07:16:31</time>
      </trkpt>
      <trkpt lat="42.84642" lon="-2.39848">
        <ele>587.4</ele>
        <time>2021-05-29 07:16:32</time>
      </trkpt>
      <trkpt lat="42.84636" lon="-2.39843">
        <ele>587.4</ele>
        <time>2021-05-29 07:16:33</time>
      </trkpt>
      <trkpt lat="42.84629" lon="-2.39838">
        <ele>587.4</ele>
        <time>2021-05-29 07:16:34</time>
      </trkpt>
      <trkpt lat="42.84623" lon="-2.39834">
        <ele>587.4</ele>
        <time>2021-05-29 07:16:35</time>
      </trkpt>
      <trkpt lat="42.84617" lon="-2.39829">
        <ele>587.4</ele>
        <time>2021-05-29 07:16:36</time>
      </trkpt>
      <trkpt lat="42.8461" lon="-2.39825">
        <ele>587.4</ele>
        <time>2021-05-29 07:16:37</time>
      </trkpt>
      <trkpt lat="42.84604" lon="-2.39821">
        <ele>587.4</ele>
        <time>2021-05-29 07:16:38</time>
      </trkpt>
      <trkpt lat="42.84597" lon="-2.39817">
        <ele>587.4</ele>
        <time>2021-05-29 07:16:39</time>
      </trkpt>
      <trkpt lat="42.84591" lon="-2.39813">
        <ele>587.6</ele>
        <time>2021-05-29 07:16:40</time>
      </trkpt>
      <trkpt lat="42.84585" lon="-2.39809">
        <ele>587.6</ele>
        <time>2021-05-29 07:16:41</time>
      </trkpt>
      <trkpt lat="42.84579" lon="-2.39806">
        <ele>587.6</ele>
        <time>2021-05-29 07:16:42</time>
      </trkpt>
      <trkpt lat="42.84572" lon="-2.39802">
        <ele>587.6</ele>
        <time>2021-05-29 07:16:43</time>
      </trkpt>
      <trkpt lat="42.84566" lon="-2.39799">
        <ele>587.8</ele>
        <time>2021-05-29 07:16:44</time>
      </trkpt>
      <trkpt lat="42.84559" lon="-2.39796">
        <ele>587.8</ele>
        <time>2021-05-29 07:16:45</time>
      </trkpt>
      <trkpt lat="42.84553" lon="-2.39792">
        <ele>587.8</ele>
        <time>2021-05-29 07:16:46</time>
      </trkpt>
      <trkpt lat="42.84546" lon="-2.39789">
        <ele>587.8</ele>
        <time>2021-05-29 07:16:47</time>
      </trkpt>
      <trkpt lat="42.8454" lon="-2.39786">
        <ele>587.8</ele>
        <time>2021-05-29 07:16:48</time>
      </trkpt>
      <trkpt lat="42.84534" lon="-2.39783">
        <ele>587.8</ele>
        <time>2021-05-29 07:16:49</time>
      </trkpt>
      <trkpt lat="42.84527" lon="-2.39779">
        <ele>587.8</ele>
        <time>2021-05-29 07:16:50</time>
      </trkpt>
      <trkpt lat="42.84521" lon="-2.39776">
        <ele>587.8</ele>
        <time>2021-05-29 07:16:51</time>
      </trkpt>
      <trkpt lat="42.84515" lon="-2.39773">
        <ele>588</ele>
        <time>2021-05-29 07:16:52</time>
      </trkpt>
      <trkpt lat="42.84508" lon="-2.39769">
        <ele>588</ele>
        <time>2021-05-29 07:16:53</time>
      </trkpt>
      <trkpt lat="42.84502" lon="-2.39766">
        <ele>588</ele>
        <time>2021-05-29 07:16:54</time>
      </trkpt>
      <trkpt lat="42.84496" lon="-2.39763">
        <ele>588</ele>
        <time>2021-05-29 07:16:55</time>
      </trkpt>
      <trkpt lat="42.84489" lon="-2.39759">
        <ele>588</ele>
        <time>2021-05-29 07:16:56</time>
      </trkpt>
      <trkpt lat="42.84483" lon="-2.39756">
        <ele>588.2</ele>
        <time>2021-05-29 07:16:57</time>
      </trkpt>
      <trkpt lat="42.84476" lon="-2.39753">
        <ele>588.2</ele>
        <time>2021-05-29 07:16:58</time>
      </trkpt>
      <trkpt lat="42.8447" lon="-2.39749">
        <ele>588.2</ele>
        <time>2021-05-29 07:16:59</time>
      </trkpt>
      <trkpt lat="42.84463" lon="-2.39746">
        <ele>588.2</ele>
        <time>2021-05-29 07:17:00</time>
      </trkpt>
      <trkpt lat="42.84457" lon="-2.39742">
        <ele>588.2</ele>
        <time>2021-05-29 07:17:01</time>
      </trkpt>
      <trkpt lat="42.84451" lon="-2.39738">
        <ele>588.2</ele>
        <time>2021-05-29 07:17:02</time>
      </trkpt>
      <trkpt lat="42.84445" lon="-2.39734">
        <ele>588.2</ele>
        <time>2021-05-29 07:17:03</time>
      </trkpt>
      <trkpt lat="42.84438" lon="-2.3973">
        <ele>588.2</ele>
        <time>2021-05-29 07:17:04</time>
      </trkpt>
      <trkpt lat="42.84432" lon="-2.39726">
        <ele>588.4</ele>
        <time>2021-05-29 07:17:05</time>
      </trkpt>
      <trkpt lat="42.84425" lon="-2.39722">
        <ele>588.4</ele>
        <time>2021-05-29 07:17:06</time>
      </trkpt>
      <trkpt lat="42.84419" lon="-2.39717">
        <ele>588.4</ele>
        <time>2021-05-29 07:17:07</time>
      </trkpt>
      <trkpt lat="42.84413" lon="-2.39712">
        <ele>588.4</ele>
        <time>2021-05-29 07:17:08</time>
      </trkpt>
      <trkpt lat="42.84407" lon="-2.39708">
        <ele>588.4</ele>
        <time>2021-05-29 07:17:09</time>
      </trkpt>
      <trkpt lat="42.844" lon="-2.39702">
        <ele>588.6</ele>
        <time>2021-05-29 07:17:10</time>
      </trkpt>
      <trkpt lat="42.84394" lon="-2.39697">
        <ele>588.6</ele>
        <time>2021-05-29 07:17:11</time>
      </trkpt>
      <trkpt lat="42.84388" lon="-2.39691">
        <ele>588.6</ele>
        <time>2021-05-29 07:17:12</time>
      </trkpt>
      <trkpt lat="42.84382" lon="-2.39686">
        <ele>588.6</ele>
        <time>2021-05-29 07:17:13</time>
      </trkpt>
      <trkpt lat="42.84376" lon="-2.3968">
        <ele>588.6</ele>
        <time>2021-05-29 07:17:14</time>
      </trkpt>
      <trkpt lat="42.8437" lon="-2.39674">
        <ele>588.6</ele>
        <time>2021-05-29 07:17:15</time>
      </trkpt>
      <trkpt lat="42.84364" lon="-2.39667">
        <ele>588.8</ele>
        <time>2021-05-29 07:17:16</time>
      </trkpt>
      <trkpt lat="42.84358" lon="-2.3966">
        <ele>588.8</ele>
        <time>2021-05-29 07:17:17</time>
      </trkpt>
      <trkpt lat="42.84352" lon="-2.39653">
        <ele>588.8</ele>
        <time>2021-05-29 07:17:18</time>
      </trkpt>
      <trkpt lat="42.84347" lon="-2.39646">
        <ele>588.8</ele>
        <time>2021-05-29 07:17:19</time>
      </trkpt>
      <trkpt lat="42.84341" lon="-2.39639">
        <ele>588.8</ele>
        <time>2021-05-29 07:17:20</time>
      </trkpt>
      <trkpt lat="42.84336" lon="-2.39631">
        <ele>588.8</ele>
        <time>2021-05-29 07:17:21</time>
      </trkpt>
      <trkpt lat="42.84331" lon="-2.39624">
        <ele>588.8</ele>
        <time>2021-05-29 07:17:22</time>
      </trkpt>
      <trkpt lat="42.84325" lon="-2.39616">
        <ele>588.8</ele>
        <time>2021-05-29 07:17:23</time>
      </trkpt>
      <trkpt lat="42.8432" lon="-2.39608">
        <ele>588.8</ele>
        <time>2021-05-29 07:17:24</time>
      </trkpt>
      <trkpt lat="42.84315" lon="-2.39599">
        <ele>588.8</ele>
        <time>2021-05-29 07:17:25</time>
      </trkpt>
      <trkpt lat="42.84311" lon="-2.3959">
        <ele>588.8</ele>
        <time>2021-05-29 07:17:26</time>
      </trkpt>
      <trkpt lat="42.84307" lon="-2.3958">
        <ele>588.8</ele>
        <time>2021-05-29 07:17:27</time>
      </trkpt>
      <trkpt lat="42.84304" lon="-2.39569">
        <ele>588.8</ele>
        <time>2021-05-29 07:17:28</time>
      </trkpt>
      <trkpt lat="42.84301" lon="-2.39558">
        <ele>588.8</ele>
        <time>2021-05-29 07:17:29</time>
      </trkpt>
      <trkpt lat="42.84299" lon="-2.39547">
        <ele>588.8</ele>
        <time>2021-05-29 07:17:30</time>
      </trkpt>
      <trkpt lat="42.84298" lon="-2.39535">
        <ele>588.8</ele>
        <time>2021-05-29 07:17:31</time>
      </trkpt>
      <trkpt lat="42.84297" lon="-2.39524">
        <ele>588.8</ele>
        <time>2021-05-29 07:17:32</time>
      </trkpt>
      <trkpt lat="42.84297" lon="-2.39511">
        <ele>588.8</ele>
        <time>2021-05-29 07:17:33</time>
      </trkpt>
      <trkpt lat="42.84297" lon="-2.39499">
        <ele>588.8</ele>
        <time>2021-05-29 07:17:34</time>
      </trkpt>
      <trkpt lat="42.84299" lon="-2.39486">
        <ele>588.8</ele>
        <time>2021-05-29 07:17:35</time>
      </trkpt>
      <trkpt lat="42.84301" lon="-2.39474">
        <ele>588.8</ele>
        <time>2021-05-29 07:17:36</time>
      </trkpt>
      <trkpt lat="42.84305" lon="-2.39461">
        <ele>588.8</ele>
        <time>2021-05-29 07:17:37</time>
      </trkpt>
      <trkpt lat="42.84309" lon="-2.39448">
        <ele>588.8</ele>
        <time>2021-05-29 07:17:38</time>
      </trkpt>
      <trkpt lat="42.84314" lon="-2.39436">
        <ele>588.8</ele>
        <time>2021-05-29 07:17:39</time>
      </trkpt>
      <trkpt lat="42.84319" lon="-2.39423">
        <ele>588.8</ele>
        <time>2021-05-29 07:17:40</time>
      </trkpt>
      <trkpt lat="42.84324" lon="-2.39411">
        <ele>588.8</ele>
        <time>2021-05-29 07:17:41</time>
      </trkpt>
      <trkpt lat="42.8433" lon="-2.39399">
        <ele>588.8</ele>
        <time>2021-05-29 07:17:42</time>
      </trkpt>
      <trkpt lat="42.84336" lon="-2.39387">
        <ele>588.8</ele>
        <time>2021-05-29 07:17:43</time>
      </trkpt>
      <trkpt lat="42.84342" lon="-2.39375">
        <ele>588.8</ele>
        <time>2021-05-29 07:17:44</time>
      </trkpt>
      <trkpt lat="42.84348" lon="-2.39363">
        <ele>588.8</ele>
        <time>2021-05-29 07:17:45</time>
      </trkpt>
      <trkpt lat="42.84354" lon="-2.39351">
        <ele>588.8</ele>
        <time>2021-05-29 07:17:46</time>
      </trkpt>
      <trkpt lat="42.8436" lon="-2.39339">
        <ele>588.8</ele>
        <time>2021-05-29 07:17:47</time>
      </trkpt>
      <trkpt lat="42.84365" lon="-2.39326">
        <ele>588.6</ele>
        <time>2021-05-29 07:17:48</time>
      </trkpt>
      <trkpt lat="42.84371" lon="-2.39314">
        <ele>588.6</ele>
        <time>2021-05-29 07:17:49</time>
      </trkpt>
      <trkpt lat="42.84377" lon="-2.39302">
        <ele>588.6</ele>
        <time>2021-05-29 07:17:50</time>
      </trkpt>
      <trkpt lat="42.84383" lon="-2.3929">
        <ele>588.6</ele>
        <time>2021-05-29 07:17:51</time>
      </trkpt>
      <trkpt lat="42.84389" lon="-2.39278">
        <ele>588.6</ele>
        <time>2021-05-29 07:17:52</time>
      </trkpt>
      <trkpt lat="42.84394" lon="-2.39267">
        <ele>588.6</ele>
        <time>2021-05-29 07:17:53</time>
      </trkpt>
      <trkpt lat="42.844" lon="-2.39255">
        <ele>588.4</ele>
        <time>2021-05-29 07:17:54</time>
      </trkpt>
      <trkpt lat="42.84406" lon="-2.39243">
        <ele>588.4</ele>
        <time>2021-05-29 07:17:55</time>
      </trkpt>
      <trkpt lat="42.84412" lon="-2.39232">
        <ele>588.4</ele>
        <time>2021-05-29 07:17:56</time>
      </trkpt>
      <trkpt lat="42.84417" lon="-2.3922">
        <ele>588.4</ele>
        <time>2021-05-29 07:17:57</time>
      </trkpt>
      <trkpt lat="42.84423" lon="-2.39209">
        <ele>588.4</ele>
        <time>2021-05-29 07:17:58</time>
      </trkpt>
      <trkpt lat="42.84428" lon="-2.39197">
        <ele>588.4</ele>
        <time>2021-05-29 07:17:59</time>
      </trkpt>
      <trkpt lat="42.84434" lon="-2.39186">
        <ele>588.4</ele>
        <time>2021-05-29 07:18:00</time>
      </trkpt>
      <trkpt lat="42.8444" lon="-2.39175">
        <ele>588.4</ele>
        <time>2021-05-29 07:18:01</time>
      </trkpt>
      <trkpt lat="42.84445" lon="-2.39163">
        <ele>588.4</ele>
        <time>2021-05-29 07:18:02</time>
      </trkpt>
      <trkpt lat="42.84451" lon="-2.39152">
        <ele>588.4</ele>
        <time>2021-05-29 07:18:03</time>
      </trkpt>
      <trkpt lat="42.84457" lon="-2.3914">
        <ele>588.4</ele>
        <time>2021-05-29 07:18:04</time>
      </trkpt>
      <trkpt lat="42.84462" lon="-2.39128">
        <ele>588.4</ele>
        <time>2021-05-29 07:18:05</time>
      </trkpt>
      <trkpt lat="42.84468" lon="-2.39117">
        <ele>588.6</ele>
        <time>2021-05-29 07:18:06</time>
      </trkpt>
      <trkpt lat="42.84474" lon="-2.39105">
        <ele>588.6</ele>
        <time>2021-05-29 07:18:07</time>
      </trkpt>
      <trkpt lat="42.84479" lon="-2.39093">
        <ele>588.6</ele>
        <time>2021-05-29 07:18:08</time>
      </trkpt>
      <trkpt lat="42.84485" lon="-2.39081">
        <ele>588.6</ele>
        <time>2021-05-29 07:18:09</time>
      </trkpt>
      <trkpt lat="42.84491" lon="-2.3907">
        <ele>588.6</ele>
        <time>2021-05-29 07:18:10</time>
      </trkpt>
      <trkpt lat="42.84497" lon="-2.39058">
        <ele>588.6</ele>
        <time>2021-05-29 07:18:11</time>
      </trkpt>
      <trkpt lat="42.84503" lon="-2.39046">
        <ele>588.6</ele>
        <time>2021-05-29 07:18:12</time>
      </trkpt>
      <trkpt lat="42.84508" lon="-2.39035">
        <ele>588.6</ele>
        <time>2021-05-29 07:18:13</time>
      </trkpt>
      <trkpt lat="42.84513" lon="-2.39023">
        <ele>588.6</ele>
        <time>2021-05-29 07:18:14</time>
      </trkpt>
      <trkpt lat="42.84518" lon="-2.39011">
        <ele>588.6</ele>
        <time>2021-05-29 07:18:15</time>
      </trkpt>
      <trkpt lat="42.84523" lon="-2.39">
        <ele>588.8</ele>
        <time>2021-05-29 07:18:16</time>
      </trkpt>
      <trkpt lat="42.84529" lon="-2.38988">
        <ele>588.8</ele>
        <time>2021-05-29 07:18:17</time>
      </trkpt>
      <trkpt lat="42.84534" lon="-2.38977">
        <ele>588.8</ele>
        <time>2021-05-29 07:18:18</time>
      </trkpt>
      <trkpt lat="42.84539" lon="-2.38966">
        <ele>589</ele>
        <time>2021-05-29 07:18:19</time>
      </trkpt>
      <trkpt lat="42.84545" lon="-2.38956">
        <ele>589</ele>
        <time>2021-05-29 07:18:20</time>
      </trkpt>
      <trkpt lat="42.8455" lon="-2.38945">
        <ele>589</ele>
        <time>2021-05-29 07:18:21</time>
      </trkpt>
      <trkpt lat="42.84555" lon="-2.38934">
        <ele>589</ele>
        <time>2021-05-29 07:18:22</time>
      </trkpt>
      <trkpt lat="42.8456" lon="-2.38924">
        <ele>589</ele>
        <time>2021-05-29 07:18:23</time>
      </trkpt>
      <trkpt lat="42.84565" lon="-2.38913">
        <ele>589</ele>
        <time>2021-05-29 07:18:24</time>
      </trkpt>
      <trkpt lat="42.8457" lon="-2.38903">
        <ele>589</ele>
        <time>2021-05-29 07:18:25</time>
      </trkpt>
      <trkpt lat="42.84574" lon="-2.38893">
        <ele>589</ele>
        <time>2021-05-29 07:18:26</time>
      </trkpt>
      <trkpt lat="42.84579" lon="-2.38882">
        <ele>589</ele>
        <time>2021-05-29 07:18:27</time>
      </trkpt>
      <trkpt lat="42.84584" lon="-2.38872">
        <ele>589.2</ele>
        <time>2021-05-29 07:18:28</time>
      </trkpt>
      <trkpt lat="42.84589" lon="-2.38862">
        <ele>589.2</ele>
        <time>2021-05-29 07:18:29</time>
      </trkpt>
      <trkpt lat="42.84594" lon="-2.38852">
        <ele>589.2</ele>
        <time>2021-05-29 07:18:30</time>
      </trkpt>
      <trkpt lat="42.84599" lon="-2.38843">
        <ele>589.2</ele>
        <time>2021-05-29 07:18:31</time>
      </trkpt>
      <trkpt lat="42.84603" lon="-2.38833">
        <ele>589.2</ele>
        <time>2021-05-29 07:18:32</time>
      </trkpt>
      <trkpt lat="42.84608" lon="-2.38823">
        <ele>589.2</ele>
        <time>2021-05-29 07:18:33</time>
      </trkpt>
      <trkpt lat="42.84613" lon="-2.38814">
        <ele>589.2</ele>
        <time>2021-05-29 07:18:34</time>
      </trkpt>
      <trkpt lat="42.84617" lon="-2.38804">
        <ele>589.2</ele>
        <time>2021-05-29 07:18:35</time>
      </trkpt>
      <trkpt lat="42.84622" lon="-2.38794">
        <ele>589.2</ele>
        <time>2021-05-29 07:18:36</time>
      </trkpt>
      <trkpt lat="42.84626" lon="-2.38785">
        <ele>589.2</ele>
        <time>2021-05-29 07:18:37</time>
      </trkpt>
      <trkpt lat="42.84631" lon="-2.38775">
        <ele>589.4</ele>
        <time>2021-05-29 07:18:38</time>
      </trkpt>
      <trkpt lat="42.84636" lon="-2.38765">
        <ele>589.4</ele>
        <time>2021-05-29 07:18:39</time>
      </trkpt>
      <trkpt lat="42.84641" lon="-2.38756">
        <ele>589.4</ele>
        <time>2021-05-29 07:18:40</time>
      </trkpt>
      <trkpt lat="42.84646" lon="-2.38745">
        <ele>589.4</ele>
        <time>2021-05-29 07:18:41</time>
      </trkpt>
      <trkpt lat="42.84651" lon="-2.38735">
        <ele>589.4</ele>
        <time>2021-05-29 07:18:42</time>
      </trkpt>
      <trkpt lat="42.84656" lon="-2.38725">
        <ele>589.4</ele>
        <time>2021-05-29 07:18:43</time>
      </trkpt>
      <trkpt lat="42.8466" lon="-2.38715">
        <ele>589.4</ele>
        <time>2021-05-29 07:18:44</time>
      </trkpt>
      <trkpt lat="42.84666" lon="-2.38704">
        <ele>589.4</ele>
        <time>2021-05-29 07:18:45</time>
      </trkpt>
      <trkpt lat="42.84671" lon="-2.38694">
        <ele>589.4</ele>
        <time>2021-05-29 07:18:46</time>
      </trkpt>
      <trkpt lat="42.84676" lon="-2.38684">
        <ele>589.2</ele>
        <time>2021-05-29 07:18:47</time>
      </trkpt>
      <trkpt lat="42.84681" lon="-2.38673">
        <ele>589.2</ele>
        <time>2021-05-29 07:18:48</time>
      </trkpt>
      <trkpt lat="42.84685" lon="-2.38663">
        <ele>589.2</ele>
        <time>2021-05-29 07:18:49</time>
      </trkpt>
      <trkpt lat="42.8469" lon="-2.38653">
        <ele>589.2</ele>
        <time>2021-05-29 07:18:50</time>
      </trkpt>
      <trkpt lat="42.84695" lon="-2.38643">
        <ele>589.4</ele>
        <time>2021-05-29 07:18:51</time>
      </trkpt>
      <trkpt lat="42.847" lon="-2.38633">
        <ele>589.4</ele>
        <time>2021-05-29 07:18:52</time>
      </trkpt>
      <trkpt lat="42.84705" lon="-2.38622">
        <ele>589.4</ele>
        <time>2021-05-29 07:18:53</time>
      </trkpt>
      <trkpt lat="42.8471" lon="-2.38612">
        <ele>589.2</ele>
        <time>2021-05-29 07:18:54</time>
      </trkpt>
      <trkpt lat="42.84715" lon="-2.38603">
        <ele>589.2</ele>
        <time>2021-05-29 07:18:55</time>
      </trkpt>
      <trkpt lat="42.8472" lon="-2.38593">
        <ele>589.2</ele>
        <time>2021-05-29 07:18:56</time>
      </trkpt>
      <trkpt lat="42.84725" lon="-2.38583">
        <ele>589.2</ele>
        <time>2021-05-29 07:18:57</time>
      </trkpt>
      <trkpt lat="42.8473" lon="-2.38572">
        <ele>589.2</ele>
        <time>2021-05-29 07:18:58</time>
      </trkpt>
      <trkpt lat="42.84735" lon="-2.38562">
        <ele>589.2</ele>
        <time>2021-05-29 07:18:59</time>
      </trkpt>
      <trkpt lat="42.8474" lon="-2.38552">
        <ele>589.2</ele>
        <time>2021-05-29 07:19:00</time>
      </trkpt>
      <trkpt lat="42.84745" lon="-2.38542">
        <ele>589.2</ele>
        <time>2021-05-29 07:19:01</time>
      </trkpt>
      <trkpt lat="42.8475" lon="-2.38531">
        <ele>589.2</ele>
        <time>2021-05-29 07:19:02</time>
      </trkpt>
      <trkpt lat="42.84755" lon="-2.38521">
        <ele>589.2</ele>
        <time>2021-05-29 07:19:03</time>
      </trkpt>
      <trkpt lat="42.8476" lon="-2.38511">
        <ele>589.2</ele>
        <time>2021-05-29 07:19:04</time>
      </trkpt>
      <trkpt lat="42.84765" lon="-2.38501">
        <ele>589.2</ele>
        <time>2021-05-29 07:19:05</time>
      </trkpt>
      <trkpt lat="42.8477" lon="-2.38492">
        <ele>589.2</ele>
        <time>2021-05-29 07:19:06</time>
      </trkpt>
      <trkpt lat="42.84775" lon="-2.38482">
        <ele>589.2</ele>
        <time>2021-05-29 07:19:07</time>
      </trkpt>
      <trkpt lat="42.84779" lon="-2.38473">
        <ele>589.2</ele>
        <time>2021-05-29 07:19:08</time>
      </trkpt>
      <trkpt lat="42.84784" lon="-2.38463">
        <ele>589.2</ele>
        <time>2021-05-29 07:19:09</time>
      </trkpt>
      <trkpt lat="42.84788" lon="-2.38454">
        <ele>589.2</ele>
        <time>2021-05-29 07:19:10</time>
      </trkpt>
      <trkpt lat="42.84792" lon="-2.38445">
        <ele>589.2</ele>
        <time>2021-05-29 07:19:11</time>
      </trkpt>
      <trkpt lat="42.84797" lon="-2.38435">
        <ele>589.2</ele>
        <time>2021-05-29 07:19:12</time>
      </trkpt>
      <trkpt lat="42.848" lon="-2.38426">
        <ele>589.2</ele>
        <time>2021-05-29 07:19:13</time>
      </trkpt>
      <trkpt lat="42.84803" lon="-2.38415">
        <ele>589.2</ele>
        <time>2021-05-29 07:19:14</time>
      </trkpt>
      <trkpt lat="42.84805" lon="-2.38405">
        <ele>589.2</ele>
        <time>2021-05-29 07:19:15</time>
      </trkpt>
      <trkpt lat="42.84804" lon="-2.38394">
        <ele>589.2</ele>
        <time>2021-05-29 07:19:16</time>
      </trkpt>
      <trkpt lat="42.84803" lon="-2.38384">
        <ele>589.2</ele>
        <time>2021-05-29 07:19:17</time>
      </trkpt>
      <trkpt lat="42.84801" lon="-2.38374">
        <ele>589.2</ele>
        <time>2021-05-29 07:19:18</time>
      </trkpt>
      <trkpt lat="42.848" lon="-2.38363">
        <ele>589.2</ele>
        <time>2021-05-29 07:19:19</time>
      </trkpt>
      <trkpt lat="42.84798" lon="-2.38353">
        <ele>589.2</ele>
        <time>2021-05-29 07:19:20</time>
      </trkpt>
      <trkpt lat="42.84796" lon="-2.38343">
        <ele>589.2</ele>
        <time>2021-05-29 07:19:21</time>
      </trkpt>
      <trkpt lat="42.84794" lon="-2.38333">
        <ele>589.2</ele>
        <time>2021-05-29 07:19:22</time>
      </trkpt>
      <trkpt lat="42.84793" lon="-2.38323">
        <ele>589.2</ele>
        <time>2021-05-29 07:19:23</time>
      </trkpt>
      <trkpt lat="42.84791" lon="-2.38314">
        <ele>589.2</ele>
        <time>2021-05-29 07:19:24</time>
      </trkpt>
      <trkpt lat="42.84789" lon="-2.38304">
        <ele>589.2</ele>
        <time>2021-05-29 07:19:25</time>
      </trkpt>
      <trkpt lat="42.84788" lon="-2.38294">
        <ele>589.2</ele>
        <time>2021-05-29 07:19:26</time>
      </trkpt>
      <trkpt lat="42.84786" lon="-2.38285">
        <ele>589.2</ele>
        <time>2021-05-29 07:19:27</time>
      </trkpt>
      <trkpt lat="42.84784" lon="-2.38276">
        <ele>589.2</ele>
        <time>2021-05-29 07:19:28</time>
      </trkpt>
      <trkpt lat="42.84781" lon="-2.38267">
        <ele>589.2</ele>
        <time>2021-05-29 07:19:29</time>
      </trkpt>
      <trkpt lat="42.84777" lon="-2.38259">
        <ele>589.2</ele>
        <time>2021-05-29 07:19:30</time>
      </trkpt>
      <trkpt lat="42.84772" lon="-2.38252">
        <ele>589.4</ele>
        <time>2021-05-29 07:19:31</time>
      </trkpt>
      <trkpt lat="42.84766" lon="-2.38247">
        <ele>589.4</ele>
        <time>2021-05-29 07:19:32</time>
      </trkpt>
      <trkpt lat="42.8476" lon="-2.3824">
        <ele>589.6</ele>
        <time>2021-05-29 07:19:33</time>
      </trkpt>
      <trkpt lat="42.84755" lon="-2.38233">
        <ele>589.6</ele>
        <time>2021-05-29 07:19:34</time>
      </trkpt>
      <trkpt lat="42.8475" lon="-2.38225">
        <ele>589.6</ele>
        <time>2021-05-29 07:19:35</time>
      </trkpt>
      <trkpt lat="42.84746" lon="-2.38215">
        <ele>589.6</ele>
        <time>2021-05-29 07:19:36</time>
      </trkpt>
      <trkpt lat="42.84743" lon="-2.38206">
        <ele>589.6</ele>
        <time>2021-05-29 07:19:37</time>
      </trkpt>
      <trkpt lat="42.84741" lon="-2.38195">
        <ele>589.6</ele>
        <time>2021-05-29 07:19:38</time>
      </trkpt>
      <trkpt lat="42.84738" lon="-2.38185">
        <ele>589.6</ele>
        <time>2021-05-29 07:19:39</time>
      </trkpt>
      <trkpt lat="42.84734" lon="-2.38175">
        <ele>589.6</ele>
        <time>2021-05-29 07:19:40</time>
      </trkpt>
      <trkpt lat="42.84729" lon="-2.38165">
        <ele>589.8</ele>
        <time>2021-05-29 07:19:41</time>
      </trkpt>
      <trkpt lat="42.84724" lon="-2.38157">
        <ele>589.8</ele>
        <time>2021-05-29 07:19:42</time>
      </trkpt>
      <trkpt lat="42.84718" lon="-2.3815">
        <ele>589.8</ele>
        <time>2021-05-29 07:19:43</time>
      </trkpt>
      <trkpt lat="42.84713" lon="-2.38144">
        <ele>589.8</ele>
        <time>2021-05-29 07:19:44</time>
      </trkpt>
      <trkpt lat="42.84707" lon="-2.38137">
        <ele>589.8</ele>
        <time>2021-05-29 07:19:45</time>
      </trkpt>
      <trkpt lat="42.84702" lon="-2.38131">
        <ele>589.8</ele>
        <time>2021-05-29 07:19:46</time>
      </trkpt>
      <trkpt lat="42.84697" lon="-2.38125">
        <ele>589.8</ele>
        <time>2021-05-29 07:19:47</time>
      </trkpt>
      <trkpt lat="42.84692" lon="-2.38118">
        <ele>589.6</ele>
        <time>2021-05-29 07:19:48</time>
      </trkpt>
      <trkpt lat="42.84687" lon="-2.38112">
        <ele>589.6</ele>
        <time>2021-05-29 07:19:49</time>
      </trkpt>
      <trkpt lat="42.84682" lon="-2.38106">
        <ele>589.6</ele>
        <time>2021-05-29 07:19:50</time>
      </trkpt>
      <trkpt lat="42.84677" lon="-2.38099">
        <ele>589.6</ele>
        <time>2021-05-29 07:19:51</time>
      </trkpt>
      <trkpt lat="42.84672" lon="-2.38093">
        <ele>589.8</ele>
        <time>2021-05-29 07:19:52</time>
      </trkpt>
      <trkpt lat="42.84667" lon="-2.38086">
        <ele>589.8</ele>
        <time>2021-05-29 07:19:53</time>
      </trkpt>
      <trkpt lat="42.84662" lon="-2.38079">
        <ele>589.8</ele>
        <time>2021-05-29 07:19:54</time>
      </trkpt>
      <trkpt lat="42.84657" lon="-2.38073">
        <ele>589.8</ele>
        <time>2021-05-29 07:19:55</time>
      </trkpt>
      <trkpt lat="42.84652" lon="-2.38066">
        <ele>589.8</ele>
        <time>2021-05-29 07:19:56</time>
      </trkpt>
      <trkpt lat="42.84647" lon="-2.3806">
        <ele>589.8</ele>
        <time>2021-05-29 07:19:57</time>
      </trkpt>
      <trkpt lat="42.84642" lon="-2.38053">
        <ele>589.8</ele>
        <time>2021-05-29 07:19:58</time>
      </trkpt>
      <trkpt lat="42.84638" lon="-2.38046">
        <ele>589.8</ele>
        <time>2021-05-29 07:19:59</time>
      </trkpt>
      <trkpt lat="42.84633" lon="-2.38038">
        <ele>589.8</ele>
        <time>2021-05-29 07:20:00</time>
      </trkpt>
      <trkpt lat="42.84628" lon="-2.38031">
        <ele>589.8</ele>
        <time>2021-05-29 07:20:01</time>
      </trkpt>
      <trkpt lat="42.84623" lon="-2.38024">
        <ele>589.8</ele>
        <time>2021-05-29 07:20:02</time>
      </trkpt>
      <trkpt lat="42.84618" lon="-2.38016">
        <ele>589.8</ele>
        <time>2021-05-29 07:20:03</time>
      </trkpt>
      <trkpt lat="42.84613" lon="-2.38009">
        <ele>589.8</ele>
        <time>2021-05-29 07:20:04</time>
      </trkpt>
      <trkpt lat="42.84609" lon="-2.38001">
        <ele>589.8</ele>
        <time>2021-05-29 07:20:05</time>
      </trkpt>
      <trkpt lat="42.84604" lon="-2.37993">
        <ele>589.8</ele>
        <time>2021-05-29 07:20:06</time>
      </trkpt>
      <trkpt lat="42.84599" lon="-2.37985">
        <ele>589.8</ele>
        <time>2021-05-29 07:20:07</time>
      </trkpt>
      <trkpt lat="42.84595" lon="-2.37976">
        <ele>589.8</ele>
        <time>2021-05-29 07:20:08</time>
      </trkpt>
      <trkpt lat="42.8459" lon="-2.37968">
        <ele>589.8</ele>
        <time>2021-05-29 07:20:09</time>
      </trkpt>
      <trkpt lat="42.84585" lon="-2.3796">
        <ele>589.8</ele>
        <time>2021-05-29 07:20:10</time>
      </trkpt>
      <trkpt lat="42.84581" lon="-2.37951">
        <ele>589.8</ele>
        <time>2021-05-29 07:20:11</time>
      </trkpt>
      <trkpt lat="42.84576" lon="-2.37942">
        <ele>589.8</ele>
        <time>2021-05-29 07:20:12</time>
      </trkpt>
      <trkpt lat="42.84571" lon="-2.37933">
        <ele>589.8</ele>
        <time>2021-05-29 07:20:13</time>
      </trkpt>
      <trkpt lat="42.84567" lon="-2.37924">
        <ele>589.8</ele>
        <time>2021-05-29 07:20:14</time>
      </trkpt>
      <trkpt lat="42.84562" lon="-2.37915">
        <ele>589.8</ele>
        <time>2021-05-29 07:20:15</time>
      </trkpt>
      <trkpt lat="42.84557" lon="-2.37905">
        <ele>589.8</ele>
        <time>2021-05-29 07:20:16</time>
      </trkpt>
      <trkpt lat="42.84552" lon="-2.37896">
        <ele>589.8</ele>
        <time>2021-05-29 07:20:17</time>
      </trkpt>
      <trkpt lat="42.84547" lon="-2.37886">
        <ele>589.8</ele>
        <time>2021-05-29 07:20:18</time>
      </trkpt>
      <trkpt lat="42.84542" lon="-2.37877">
        <ele>589.6</ele>
        <time>2021-05-29 07:20:19</time>
      </trkpt>
      <trkpt lat="42.84538" lon="-2.37867">
        <ele>589.6</ele>
        <time>2021-05-29 07:20:20</time>
      </trkpt>
      <trkpt lat="42.84534" lon="-2.37856">
        <ele>589.6</ele>
        <time>2021-05-29 07:20:21</time>
      </trkpt>
      <trkpt lat="42.84531" lon="-2.37844">
        <ele>589.6</ele>
        <time>2021-05-29 07:20:22</time>
      </trkpt>
      <trkpt lat="42.84529" lon="-2.37832">
        <ele>589.6</ele>
        <time>2021-05-29 07:20:23</time>
      </trkpt>
      <trkpt lat="42.84527" lon="-2.37819">
        <ele>589.6</ele>
        <time>2021-05-29 07:20:24</time>
      </trkpt>
      <trkpt lat="42.84527" lon="-2.37806">
        <ele>589.6</ele>
        <time>2021-05-29 07:20:25</time>
      </trkpt>
      <trkpt lat="42.84527" lon="-2.37793">
        <ele>589.6</ele>
        <time>2021-05-29 07:20:26</time>
      </trkpt>
      <trkpt lat="42.84528" lon="-2.3778">
        <ele>589.6</ele>
        <time>2021-05-29 07:20:27</time>
      </trkpt>
      <trkpt lat="42.84531" lon="-2.37766">
        <ele>589.6</ele>
        <time>2021-05-29 07:20:28</time>
      </trkpt>
      <trkpt lat="42.84534" lon="-2.37753">
        <ele>589.6</ele>
        <time>2021-05-29 07:20:29</time>
      </trkpt>
      <trkpt lat="42.84539" lon="-2.3774">
        <ele>589.6</ele>
        <time>2021-05-29 07:20:30</time>
      </trkpt>
      <trkpt lat="42.84545" lon="-2.37728">
        <ele>589.6</ele>
        <time>2021-05-29 07:20:31</time>
      </trkpt>
      <trkpt lat="42.84552" lon="-2.37717">
        <ele>589.6</ele>
        <time>2021-05-29 07:20:32</time>
      </trkpt>
      <trkpt lat="42.8456" lon="-2.37707">
        <ele>589.6</ele>
        <time>2021-05-29 07:20:33</time>
      </trkpt>
      <trkpt lat="42.84569" lon="-2.37698">
        <ele>589.6</ele>
        <time>2021-05-29 07:20:34</time>
      </trkpt>
      <trkpt lat="42.84579" lon="-2.37691">
        <ele>589.6</ele>
        <time>2021-05-29 07:20:35</time>
      </trkpt>
      <trkpt lat="42.84589" lon="-2.37686">
        <ele>589.4</ele>
        <time>2021-05-29 07:20:36</time>
      </trkpt>
      <trkpt lat="42.846" lon="-2.37682">
        <ele>589.4</ele>
        <time>2021-05-29 07:20:37</time>
      </trkpt>
      <trkpt lat="42.84612" lon="-2.3768">
        <ele>589.4</ele>
        <time>2021-05-29 07:20:38</time>
      </trkpt>
      <trkpt lat="42.84623" lon="-2.3768">
        <ele>589.4</ele>
        <time>2021-05-29 07:20:39</time>
      </trkpt>
      <trkpt lat="42.84634" lon="-2.37681">
        <ele>589.4</ele>
        <time>2021-05-29 07:20:40</time>
      </trkpt>
      <trkpt lat="42.84645" lon="-2.37684">
        <ele>589.2</ele>
        <time>2021-05-29 07:20:41</time>
      </trkpt>
      <trkpt lat="42.84656" lon="-2.37688">
        <ele>589.2</ele>
        <time>2021-05-29 07:20:42</time>
      </trkpt>
      <trkpt lat="42.84667" lon="-2.37692">
        <ele>589.2</ele>
        <time>2021-05-29 07:20:43</time>
      </trkpt>
      <trkpt lat="42.84677" lon="-2.37696">
        <ele>589.2</ele>
        <time>2021-05-29 07:20:44</time>
      </trkpt>
      <trkpt lat="42.84688" lon="-2.37701">
        <ele>589</ele>
        <time>2021-05-29 07:20:45</time>
      </trkpt>
      <trkpt lat="42.84698" lon="-2.37705">
        <ele>589</ele>
        <time>2021-05-29 07:20:46</time>
      </trkpt>
      <trkpt lat="42.84708" lon="-2.37708">
        <ele>589</ele>
        <time>2021-05-29 07:20:47</time>
      </trkpt>
      <trkpt lat="42.84718" lon="-2.3771">
        <ele>589</ele>
        <time>2021-05-29 07:20:48</time>
      </trkpt>
      <trkpt lat="42.84729" lon="-2.37711">
        <ele>589</ele>
        <time>2021-05-29 07:20:49</time>
      </trkpt>
      <trkpt lat="42.84739" lon="-2.37711">
        <ele>589</ele>
        <time>2021-05-29 07:20:50</time>
      </trkpt>
      <trkpt lat="42.8475" lon="-2.3771">
        <ele>589</ele>
        <time>2021-05-29 07:20:51</time>
      </trkpt>
      <trkpt lat="42.8476" lon="-2.37708">
        <ele>588.8</ele>
        <time>2021-05-29 07:20:52</time>
      </trkpt>
      <trkpt lat="42.84771" lon="-2.37705">
        <ele>588.8</ele>
        <time>2021-05-29 07:20:53</time>
      </trkpt>
      <trkpt lat="42.84781" lon="-2.37701">
        <ele>588.8</ele>
        <time>2021-05-29 07:20:54</time>
      </trkpt>
      <trkpt lat="42.84791" lon="-2.37695">
        <ele>588.8</ele>
        <time>2021-05-29 07:20:55</time>
      </trkpt>
      <trkpt lat="42.848" lon="-2.37689">
        <ele>588.8</ele>
        <time>2021-05-29 07:20:56</time>
      </trkpt>
      <trkpt lat="42.84809" lon="-2.37681">
        <ele>588.8</ele>
        <time>2021-05-29 07:20:57</time>
      </trkpt>
      <trkpt lat="42.84818" lon="-2.37673">
        <ele>588.8</ele>
        <time>2021-05-29 07:20:58</time>
      </trkpt>
      <trkpt lat="42.84826" lon="-2.37664">
        <ele>588.8</ele>
        <time>2021-05-29 07:20:59</time>
      </trkpt>
      <trkpt lat="42.84834" lon="-2.37655">
        <ele>588.8</ele>
        <time>2021-05-29 07:21:00</time>
      </trkpt>
      <trkpt lat="42.84842" lon="-2.37646">
        <ele>588.8</ele>
        <time>2021-05-29 07:21:01</time>
      </trkpt>
      <trkpt lat="42.8485" lon="-2.37636">
        <ele>588.8</ele>
        <time>2021-05-29 07:21:02</time>
      </trkpt>
      <trkpt lat="42.84858" lon="-2.37626">
        <ele>588.8</ele>
        <time>2021-05-29 07:21:03</time>
      </trkpt>
      <trkpt lat="42.84866" lon="-2.37616">
        <ele>588.8</ele>
        <time>2021-05-29 07:21:04</time>
      </trkpt>
      <trkpt lat="42.84873" lon="-2.37607">
        <ele>588.8</ele>
        <time>2021-05-29 07:21:05</time>
      </trkpt>
      <trkpt lat="42.84881" lon="-2.37597">
        <ele>588.8</ele>
        <time>2021-05-29 07:21:06</time>
      </trkpt>
      <trkpt lat="42.84889" lon="-2.37588">
        <ele>588.8</ele>
        <time>2021-05-29 07:21:07</time>
      </trkpt>
      <trkpt lat="42.84896" lon="-2.37578">
        <ele>588.8</ele>
        <time>2021-05-29 07:21:08</time>
      </trkpt>
      <trkpt lat="42.84904" lon="-2.37568">
        <ele>588.8</ele>
        <time>2021-05-29 07:21:09</time>
      </trkpt>
      <trkpt lat="42.84912" lon="-2.37559">
        <ele>588.8</ele>
        <time>2021-05-29 07:21:10</time>
      </trkpt>
      <trkpt lat="42.84919" lon="-2.3755">
        <ele>588.8</ele>
        <time>2021-05-29 07:21:11</time>
      </trkpt>
      <trkpt lat="42.84927" lon="-2.3754">
        <ele>588.8</ele>
        <time>2021-05-29 07:21:12</time>
      </trkpt>
      <trkpt lat="42.84934" lon="-2.37531">
        <ele>588.8</ele>
        <time>2021-05-29 07:21:13</time>
      </trkpt>
      <trkpt lat="42.84942" lon="-2.37522">
        <ele>588.8</ele>
        <time>2021-05-29 07:21:14</time>
      </trkpt>
      <trkpt lat="42.84949" lon="-2.37513">
        <ele>588.8</ele>
        <time>2021-05-29 07:21:15</time>
      </trkpt>
      <trkpt lat="42.84957" lon="-2.37503">
        <ele>588.8</ele>
        <time>2021-05-29 07:21:16</time>
      </trkpt>
      <trkpt lat="42.84964" lon="-2.37494">
        <ele>588.8</ele>
        <time>2021-05-29 07:21:17</time>
      </trkpt>
      <trkpt lat="42.84971" lon="-2.37484">
        <ele>588.8</ele>
        <time>2021-05-29 07:21:18</time>
      </trkpt>
      <trkpt lat="42.84978" lon="-2.37474">
        <ele>588.6</ele>
        <time>2021-05-29 07:21:19</time>
      </trkpt>
      <trkpt lat="42.84985" lon="-2.37465">
        <ele>588.6</ele>
        <time>2021-05-29 07:21:20</time>
      </trkpt>
      <trkpt lat="42.84991" lon="-2.37455">
        <ele>588.6</ele>
        <time>2021-05-29 07:21:21</time>
      </trkpt>
      <trkpt lat="42.84998" lon="-2.37446">
        <ele>588.6</ele>
        <time>2021-05-29 07:21:22</time>
      </trkpt>
      <trkpt lat="42.85004" lon="-2.37436">
        <ele>588.6</ele>
        <time>2021-05-29 07:21:23</time>
      </trkpt>
      <trkpt lat="42.85011" lon="-2.37425">
        <ele>588.6</ele>
        <time>2021-05-29 07:21:24</time>
      </trkpt>
      <trkpt lat="42.85017" lon="-2.37414">
        <ele>588.6</ele>
        <time>2021-05-29 07:21:25</time>
      </trkpt>
      <trkpt lat="42.85022" lon="-2.37404">
        <ele>588.6</ele>
        <time>2021-05-29 07:21:26</time>
      </trkpt>
      <trkpt lat="42.85028" lon="-2.37393">
        <ele>588.6</ele>
        <time>2021-05-29 07:21:27</time>
      </trkpt>
      <trkpt lat="42.85034" lon="-2.37382">
        <ele>588.6</ele>
        <time>2021-05-29 07:21:28</time>
      </trkpt>
      <trkpt lat="42.85039" lon="-2.37371">
        <ele>588.4</ele>
        <time>2021-05-29 07:21:29</time>
      </trkpt>
      <trkpt lat="42.85045" lon="-2.3736">
        <ele>588.4</ele>
        <time>2021-05-29 07:21:30</time>
      </trkpt>
      <trkpt lat="42.8505" lon="-2.3735">
        <ele>588.4</ele>
        <time>2021-05-29 07:21:31</time>
      </trkpt>
      <trkpt lat="42.85056" lon="-2.37339">
        <ele>588.4</ele>
        <time>2021-05-29 07:21:32</time>
      </trkpt>
      <trkpt lat="42.85061" lon="-2.37328">
        <ele>588.4</ele>
        <time>2021-05-29 07:21:33</time>
      </trkpt>
      <trkpt lat="42.85066" lon="-2.37318">
        <ele>588.4</ele>
        <time>2021-05-29 07:21:34</time>
      </trkpt>
      <trkpt lat="42.85071" lon="-2.37307">
        <ele>588.4</ele>
        <time>2021-05-29 07:21:35</time>
      </trkpt>
      <trkpt lat="42.85076" lon="-2.37297">
        <ele>588.4</ele>
        <time>2021-05-29 07:21:36</time>
      </trkpt>
      <trkpt lat="42.85081" lon="-2.37286">
        <ele>588.4</ele>
        <time>2021-05-29 07:21:37</time>
      </trkpt>
      <trkpt lat="42.85087" lon="-2.37275">
        <ele>588.4</ele>
        <time>2021-05-29 07:21:38</time>
      </trkpt>
      <trkpt lat="42.85092" lon="-2.37264">
        <ele>588.4</ele>
        <time>2021-05-29 07:21:39</time>
      </trkpt>
      <trkpt lat="42.85097" lon="-2.37253">
        <ele>588.4</ele>
        <time>2021-05-29 07:21:40</time>
      </trkpt>
      <trkpt lat="42.85102" lon="-2.37242">
        <ele>588.4</ele>
        <time>2021-05-29 07:21:41</time>
      </trkpt>
      <trkpt lat="42.85108" lon="-2.37231">
        <ele>588.4</ele>
        <time>2021-05-29 07:21:42</time>
      </trkpt>
      <trkpt lat="42.85113" lon="-2.3722">
        <ele>588.4</ele>
        <time>2021-05-29 07:21:43</time>
      </trkpt>
      <trkpt lat="42.85118" lon="-2.37209">
        <ele>588.4</ele>
        <time>2021-05-29 07:21:44</time>
      </trkpt>
      <trkpt lat="42.85124" lon="-2.37198">
        <ele>588.4</ele>
        <time>2021-05-29 07:21:45</time>
      </trkpt>
      <trkpt lat="42.85129" lon="-2.37188">
        <ele>588.4</ele>
        <time>2021-05-29 07:21:46</time>
      </trkpt>
      <trkpt lat="42.85134" lon="-2.37177">
        <ele>588.4</ele>
        <time>2021-05-29 07:21:47</time>
      </trkpt>
      <trkpt lat="42.85139" lon="-2.37166">
        <ele>588.4</ele>
        <time>2021-05-29 07:21:48</time>
      </trkpt>
      <trkpt lat="42.85145" lon="-2.37156">
        <ele>588.4</ele>
        <time>2021-05-29 07:21:49</time>
      </trkpt>
      <trkpt lat="42.8515" lon="-2.37145">
        <ele>588.4</ele>
        <time>2021-05-29 07:21:50</time>
      </trkpt>
      <trkpt lat="42.85155" lon="-2.37135">
        <ele>588.2</ele>
        <time>2021-05-29 07:21:51</time>
      </trkpt>
      <trkpt lat="42.8516" lon="-2.37124">
        <ele>588.2</ele>
        <time>2021-05-29 07:21:52</time>
      </trkpt>
      <trkpt lat="42.85165" lon="-2.37113">
        <ele>588.2</ele>
        <time>2021-05-29 07:21:53</time>
      </trkpt>
      <trkpt lat="42.85171" lon="-2.37103">
        <ele>588.2</ele>
        <time>2021-05-29 07:21:54</time>
      </trkpt>
      <trkpt lat="42.85176" lon="-2.37092">
        <ele>588.2</ele>
        <time>2021-05-29 07:21:55</time>
      </trkpt>
      <trkpt lat="42.85181" lon="-2.37081">
        <ele>588.2</ele>
        <time>2021-05-29 07:21:56</time>
      </trkpt>
      <trkpt lat="42.85186" lon="-2.37071">
        <ele>588.2</ele>
        <time>2021-05-29 07:21:57</time>
      </trkpt>
      <trkpt lat="42.85192" lon="-2.3706">
        <ele>588.2</ele>
        <time>2021-05-29 07:21:58</time>
      </trkpt>
      <trkpt lat="42.85197" lon="-2.37049">
        <ele>588.2</ele>
        <time>2021-05-29 07:21:59</time>
      </trkpt>
      <trkpt lat="42.85202" lon="-2.37038">
        <ele>588.2</ele>
        <time>2021-05-29 07:22:00</time>
      </trkpt>
      <trkpt lat="42.85208" lon="-2.37027">
        <ele>588.2</ele>
        <time>2021-05-29 07:22:01</time>
      </trkpt>
      <trkpt lat="42.85213" lon="-2.37016">
        <ele>588.2</ele>
        <time>2021-05-29 07:22:02</time>
      </trkpt>
      <trkpt lat="42.85218" lon="-2.37005">
        <ele>588.2</ele>
        <time>2021-05-29 07:22:03</time>
      </trkpt>
      <trkpt lat="42.85223" lon="-2.36995">
        <ele>588</ele>
        <time>2021-05-29 07:22:04</time>
      </trkpt>
      <trkpt lat="42.85229" lon="-2.36984">
        <ele>588</ele>
        <time>2021-05-29 07:22:05</time>
      </trkpt>
      <trkpt lat="42.85234" lon="-2.36973">
        <ele>588</ele>
        <time>2021-05-29 07:22:06</time>
      </trkpt>
      <trkpt lat="42.85239" lon="-2.36962">
        <ele>588</ele>
        <time>2021-05-29 07:22:07</time>
      </trkpt>
      <trkpt lat="42.85244" lon="-2.36951">
        <ele>588</ele>
        <time>2021-05-29 07:22:08</time>
      </trkpt>
      <trkpt lat="42.8525" lon="-2.3694">
        <ele>588</ele>
        <time>2021-05-29 07:22:09</time>
      </trkpt>
      <trkpt lat="42.85255" lon="-2.36929">
        <ele>588</ele>
        <time>2021-05-29 07:22:10</time>
      </trkpt>
      <trkpt lat="42.8526" lon="-2.36918">
        <ele>588</ele>
        <time>2021-05-29 07:22:11</time>
      </trkpt>
      <trkpt lat="42.85266" lon="-2.36907">
        <ele>588</ele>
        <time>2021-05-29 07:22:12</time>
      </trkpt>
      <trkpt lat="42.85271" lon="-2.36896">
        <ele>588</ele>
        <time>2021-05-29 07:22:13</time>
      </trkpt>
      <trkpt lat="42.85276" lon="-2.36885">
        <ele>587.8</ele>
        <time>2021-05-29 07:22:14</time>
      </trkpt>
      <trkpt lat="42.85282" lon="-2.36875">
        <ele>587.8</ele>
        <time>2021-05-29 07:22:15</time>
      </trkpt>
      <trkpt lat="42.85287" lon="-2.36864">
        <ele>587.8</ele>
        <time>2021-05-29 07:22:16</time>
      </trkpt>
      <trkpt lat="42.85292" lon="-2.36853">
        <ele>587.8</ele>
        <time>2021-05-29 07:22:17</time>
      </trkpt>
      <trkpt lat="42.85298" lon="-2.36842">
        <ele>587.8</ele>
        <time>2021-05-29 07:22:18</time>
      </trkpt>
      <trkpt lat="42.85303" lon="-2.36831">
        <ele>587.8</ele>
        <time>2021-05-29 07:22:19</time>
      </trkpt>
      <trkpt lat="42.85308" lon="-2.36821">
        <ele>587.6</ele>
        <time>2021-05-29 07:22:20</time>
      </trkpt>
      <trkpt lat="42.85313" lon="-2.3681">
        <ele>587.6</ele>
        <time>2021-05-29 07:22:21</time>
      </trkpt>
      <trkpt lat="42.85318" lon="-2.368">
        <ele>587.6</ele>
        <time>2021-05-29 07:22:22</time>
      </trkpt>
      <trkpt lat="42.85323" lon="-2.3679">
        <ele>587.6</ele>
        <time>2021-05-29 07:22:23</time>
      </trkpt>
      <trkpt lat="42.85328" lon="-2.3678">
        <ele>587.6</ele>
        <time>2021-05-29 07:22:24</time>
      </trkpt>
      <trkpt lat="42.85333" lon="-2.3677">
        <ele>587.6</ele>
        <time>2021-05-29 07:22:25</time>
      </trkpt>
      <trkpt lat="42.85338" lon="-2.3676">
        <ele>587.6</ele>
        <time>2021-05-29 07:22:26</time>
      </trkpt>
      <trkpt lat="42.85342" lon="-2.36751">
        <ele>587.6</ele>
        <time>2021-05-29 07:22:27</time>
      </trkpt>
      <trkpt lat="42.85346" lon="-2.36742">
        <ele>587.6</ele>
        <time>2021-05-29 07:22:28</time>
      </trkpt>
      <trkpt lat="42.85351" lon="-2.36733">
        <ele>587.6</ele>
        <time>2021-05-29 07:22:29</time>
      </trkpt>
      <trkpt lat="42.85354" lon="-2.36725">
        <ele>587.6</ele>
        <time>2021-05-29 07:22:30</time>
      </trkpt>
      <trkpt lat="42.85358" lon="-2.36717">
        <ele>587.6</ele>
        <time>2021-05-29 07:22:31</time>
      </trkpt>
      <trkpt lat="42.85362" lon="-2.3671">
        <ele>587.6</ele>
        <time>2021-05-29 07:22:32</time>
      </trkpt>
      <trkpt lat="42.85365" lon="-2.36703">
        <ele>587.6</ele>
        <time>2021-05-29 07:22:33</time>
      </trkpt>
      <trkpt lat="42.85368" lon="-2.36697">
        <ele>587.6</ele>
        <time>2021-05-29 07:22:34</time>
      </trkpt>
      <trkpt lat="42.85371" lon="-2.36691">
        <ele>587.6</ele>
        <time>2021-05-29 07:22:35</time>
      </trkpt>
      <trkpt lat="42.85374" lon="-2.36685">
        <ele>587.6</ele>
        <time>2021-05-29 07:22:36</time>
      </trkpt>
      <trkpt lat="42.85378" lon="-2.36678">
        <ele>587.6</ele>
        <time>2021-05-29 07:22:37</time>
      </trkpt>
      <trkpt lat="42.85381" lon="-2.36672">
        <ele>587.8</ele>
        <time>2021-05-29 07:22:38</time>
      </trkpt>
      <trkpt lat="42.85384" lon="-2.36666">
        <ele>587.8</ele>
        <time>2021-05-29 07:22:39</time>
      </trkpt>
      <trkpt lat="42.85386" lon="-2.3666">
        <ele>587.8</ele>
        <time>2021-05-29 07:22:40</time>
      </trkpt>
      <trkpt lat="42.85389" lon="-2.36653">
        <ele>587.8</ele>
        <time>2021-05-29 07:22:41</time>
      </trkpt>
      <trkpt lat="42.85392" lon="-2.36648">
        <ele>587.8</ele>
        <time>2021-05-29 07:22:42</time>
      </trkpt>
      <trkpt lat="42.85396" lon="-2.36642">
        <ele>587.8</ele>
        <time>2021-05-29 07:22:43</time>
      </trkpt>
      <trkpt lat="42.85398" lon="-2.36635">
        <ele>587.8</ele>
        <time>2021-05-29 07:22:44</time>
      </trkpt>
      <trkpt lat="42.85401" lon="-2.36629">
        <ele>587.8</ele>
        <time>2021-05-29 07:22:45</time>
      </trkpt>
      <trkpt lat="42.85404" lon="-2.36623">
        <ele>587.8</ele>
        <time>2021-05-29 07:22:46</time>
      </trkpt>
      <trkpt lat="42.85407" lon="-2.36618">
        <ele>587.8</ele>
        <time>2021-05-29 07:22:47</time>
      </trkpt>
      <trkpt lat="42.85409" lon="-2.36612">
        <ele>587.8</ele>
        <time>2021-05-29 07:22:48</time>
      </trkpt>
      <trkpt lat="42.85412" lon="-2.36606">
        <ele>587.8</ele>
        <time>2021-05-29 07:22:49</time>
      </trkpt>
      <trkpt lat="42.85415" lon="-2.36599">
        <ele>587.8</ele>
        <time>2021-05-29 07:22:50</time>
      </trkpt>
      <trkpt lat="42.85418" lon="-2.36593">
        <ele>587.8</ele>
        <time>2021-05-29 07:22:51</time>
      </trkpt>
      <trkpt lat="42.8542" lon="-2.36587">
        <ele>587.8</ele>
        <time>2021-05-29 07:22:52</time>
      </trkpt>
      <trkpt lat="42.85423" lon="-2.36581">
        <ele>587.8</ele>
        <time>2021-05-29 07:22:53</time>
      </trkpt>
      <trkpt lat="42.85426" lon="-2.36574">
        <ele>587.8</ele>
        <time>2021-05-29 07:22:54</time>
      </trkpt>
      <trkpt lat="42.85429" lon="-2.36568">
        <ele>587.8</ele>
        <time>2021-05-29 07:22:55</time>
      </trkpt>
      <trkpt lat="42.85431" lon="-2.36561">
        <ele>587.8</ele>
        <time>2021-05-29 07:22:56</time>
      </trkpt>
      <trkpt lat="42.85434" lon="-2.36554">
        <ele>587.8</ele>
        <time>2021-05-29 07:22:57</time>
      </trkpt>
      <trkpt lat="42.85437" lon="-2.36547">
        <ele>587.8</ele>
        <time>2021-05-29 07:22:58</time>
      </trkpt>
      <trkpt lat="42.85439" lon="-2.3654">
        <ele>587.8</ele>
        <time>2021-05-29 07:22:59</time>
      </trkpt>
      <trkpt lat="42.85442" lon="-2.36533">
        <ele>587.8</ele>
        <time>2021-05-29 07:23:00</time>
      </trkpt>
      <trkpt lat="42.85444" lon="-2.36525">
        <ele>588</ele>
        <time>2021-05-29 07:23:01</time>
      </trkpt>
      <trkpt lat="42.85446" lon="-2.36518">
        <ele>588</ele>
        <time>2021-05-29 07:23:02</time>
      </trkpt>
      <trkpt lat="42.85449" lon="-2.3651">
        <ele>588</ele>
        <time>2021-05-29 07:23:03</time>
      </trkpt>
      <trkpt lat="42.85452" lon="-2.36502">
        <ele>588</ele>
        <time>2021-05-29 07:23:04</time>
      </trkpt>
      <trkpt lat="42.85454" lon="-2.36493">
        <ele>587.8</ele>
        <time>2021-05-29 07:23:05</time>
      </trkpt>
      <trkpt lat="42.85456" lon="-2.36484">
        <ele>587.8</ele>
        <time>2021-05-29 07:23:06</time>
      </trkpt>
      <trkpt lat="42.85459" lon="-2.36475">
        <ele>587.6</ele>
        <time>2021-05-29 07:23:07</time>
      </trkpt>
      <trkpt lat="42.85461" lon="-2.36465">
        <ele>587.6</ele>
        <time>2021-05-29 07:23:08</time>
      </trkpt>
      <trkpt lat="42.85464" lon="-2.36455">
        <ele>587.6</ele>
        <time>2021-05-29 07:23:09</time>
      </trkpt>
      <trkpt lat="42.85467" lon="-2.36445">
        <ele>587.6</ele>
        <time>2021-05-29 07:23:10</time>
      </trkpt>
      <trkpt lat="42.8547" lon="-2.36434">
        <ele>587.6</ele>
        <time>2021-05-29 07:23:11</time>
      </trkpt>
      <trkpt lat="42.85473" lon="-2.36423">
        <ele>587.6</ele>
        <time>2021-05-29 07:23:12</time>
      </trkpt>
      <trkpt lat="42.85476" lon="-2.36412">
        <ele>587.6</ele>
        <time>2021-05-29 07:23:13</time>
      </trkpt>
      <trkpt lat="42.85479" lon="-2.36401">
        <ele>587.6</ele>
        <time>2021-05-29 07:23:14</time>
      </trkpt>
      <trkpt lat="42.85482" lon="-2.36389">
        <ele>587.6</ele>
        <time>2021-05-29 07:23:15</time>
      </trkpt>
      <trkpt lat="42.85485" lon="-2.36378">
        <ele>587.6</ele>
        <time>2021-05-29 07:23:16</time>
      </trkpt>
      <trkpt lat="42.85488" lon="-2.36366">
        <ele>587.6</ele>
        <time>2021-05-29 07:23:17</time>
      </trkpt>
      <trkpt lat="42.85491" lon="-2.36354">
        <ele>587.6</ele>
        <time>2021-05-29 07:23:18</time>
      </trkpt>
      <trkpt lat="42.85494" lon="-2.36342">
        <ele>587.6</ele>
        <time>2021-05-29 07:23:19</time>
      </trkpt>
      <trkpt lat="42.85497" lon="-2.36331">
        <ele>587.6</ele>
        <time>2021-05-29 07:23:20</time>
      </trkpt>
      <trkpt lat="42.855" lon="-2.36319">
        <ele>587.4</ele>
        <time>2021-05-29 07:23:21</time>
      </trkpt>
      <trkpt lat="42.85503" lon="-2.36308">
        <ele>587.4</ele>
        <time>2021-05-29 07:23:22</time>
      </trkpt>
      <trkpt lat="42.85506" lon="-2.36296">
        <ele>587.4</ele>
        <time>2021-05-29 07:23:23</time>
      </trkpt>
      <trkpt lat="42.85509" lon="-2.36285">
        <ele>587.4</ele>
        <time>2021-05-29 07:23:24</time>
      </trkpt>
      <trkpt lat="42.85512" lon="-2.36274">
        <ele>587.4</ele>
        <time>2021-05-29 07:23:25</time>
      </trkpt>
      <trkpt lat="42.85515" lon="-2.36263">
        <ele>587.4</ele>
        <time>2021-05-29 07:23:26</time>
      </trkpt>
      <trkpt lat="42.85518" lon="-2.36252">
        <ele>587.4</ele>
        <time>2021-05-29 07:23:27</time>
      </trkpt>
      <trkpt lat="42.85521" lon="-2.36242">
        <ele>587.2</ele>
        <time>2021-05-29 07:23:28</time>
      </trkpt>
      <trkpt lat="42.85523" lon="-2.36231">
        <ele>587.2</ele>
        <time>2021-05-29 07:23:29</time>
      </trkpt>
      <trkpt lat="42.85526" lon="-2.36222">
        <ele>587.2</ele>
        <time>2021-05-29 07:23:30</time>
      </trkpt>
      <trkpt lat="42.85528" lon="-2.36213">
        <ele>587.2</ele>
        <time>2021-05-29 07:23:31</time>
      </trkpt>
      <trkpt lat="42.85531" lon="-2.36204">
        <ele>587.2</ele>
        <time>2021-05-29 07:23:32</time>
      </trkpt>
      <trkpt lat="42.85533" lon="-2.36195">
        <ele>587.4</ele>
        <time>2021-05-29 07:23:33</time>
      </trkpt>
      <trkpt lat="42.85535" lon="-2.36186">
        <ele>587.4</ele>
        <time>2021-05-29 07:23:34</time>
      </trkpt>
      <trkpt lat="42.85537" lon="-2.36178">
        <ele>587.4</ele>
        <time>2021-05-29 07:23:35</time>
      </trkpt>
      <trkpt lat="42.85539" lon="-2.3617">
        <ele>587.4</ele>
        <time>2021-05-29 07:23:36</time>
      </trkpt>
      <trkpt lat="42.85542" lon="-2.36162">
        <ele>587.4</ele>
        <time>2021-05-29 07:23:37</time>
      </trkpt>
      <trkpt lat="42.85544" lon="-2.36154">
        <ele>587.4</ele>
        <time>2021-05-29 07:23:38</time>
      </trkpt>
      <trkpt lat="42.85546" lon="-2.36146">
        <ele>587.4</ele>
        <time>2021-05-29 07:23:39</time>
      </trkpt>
      <trkpt lat="42.85548" lon="-2.36137">
        <ele>587.6</ele>
        <time>2021-05-29 07:23:40</time>
      </trkpt>
      <trkpt lat="42.85551" lon="-2.36129">
        <ele>587.6</ele>
        <time>2021-05-29 07:23:41</time>
      </trkpt>
      <trkpt lat="42.85553" lon="-2.36121">
        <ele>587.6</ele>
        <time>2021-05-29 07:23:42</time>
      </trkpt>
      <trkpt lat="42.85555" lon="-2.36113">
        <ele>587.6</ele>
        <time>2021-05-29 07:23:43</time>
      </trkpt>
      <trkpt lat="42.85557" lon="-2.36104">
        <ele>587.6</ele>
        <time>2021-05-29 07:23:44</time>
      </trkpt>
      <trkpt lat="42.85559" lon="-2.36096">
        <ele>587.6</ele>
        <time>2021-05-29 07:23:45</time>
      </trkpt>
      <trkpt lat="42.85561" lon="-2.36088">
        <ele>587.6</ele>
        <time>2021-05-29 07:23:46</time>
      </trkpt>
      <trkpt lat="42.85564" lon="-2.3608">
        <ele>587.6</ele>
        <time>2021-05-29 07:23:47</time>
      </trkpt>
      <trkpt lat="42.85566" lon="-2.36072">
        <ele>587.6</ele>
        <time>2021-05-29 07:23:48</time>
      </trkpt>
      <trkpt lat="42.85568" lon="-2.36063">
        <ele>587.6</ele>
        <time>2021-05-29 07:23:49</time>
      </trkpt>
      <trkpt lat="42.8557" lon="-2.36055">
        <ele>587.6</ele>
        <time>2021-05-29 07:23:50</time>
      </trkpt>
      <trkpt lat="42.85572" lon="-2.36047">
        <ele>587.8</ele>
        <time>2021-05-29 07:23:51</time>
      </trkpt>
      <trkpt lat="42.85575" lon="-2.36039">
        <ele>587.8</ele>
        <time>2021-05-29 07:23:52</time>
      </trkpt>
      <trkpt lat="42.85577" lon="-2.36031">
        <ele>587.8</ele>
        <time>2021-05-29 07:23:53</time>
      </trkpt>
      <trkpt lat="42.85579" lon="-2.36023">
        <ele>587.8</ele>
        <time>2021-05-29 07:23:54</time>
      </trkpt>
      <trkpt lat="42.85581" lon="-2.36015">
        <ele>587.8</ele>
        <time>2021-05-29 07:23:55</time>
      </trkpt>
      <trkpt lat="42.85584" lon="-2.36007">
        <ele>587.8</ele>
        <time>2021-05-29 07:23:56</time>
      </trkpt>
      <trkpt lat="42.85586" lon="-2.35999">
        <ele>587.8</ele>
        <time>2021-05-29 07:23:57</time>
      </trkpt>
      <trkpt lat="42.85588" lon="-2.35991">
        <ele>587.8</ele>
        <time>2021-05-29 07:23:58</time>
      </trkpt>
      <trkpt lat="42.8559" lon="-2.35983">
        <ele>587.6</ele>
        <time>2021-05-29 07:23:59</time>
      </trkpt>
      <trkpt lat="42.85592" lon="-2.35975">
        <ele>587.6</ele>
        <time>2021-05-29 07:24:00</time>
      </trkpt>
      <trkpt lat="42.85594" lon="-2.35968">
        <ele>587.6</ele>
        <time>2021-05-29 07:24:01</time>
      </trkpt>
      <trkpt lat="42.85596" lon="-2.3596">
        <ele>587.8</ele>
        <time>2021-05-29 07:24:02</time>
      </trkpt>
      <trkpt lat="42.85598" lon="-2.35952">
        <ele>587.8</ele>
        <time>2021-05-29 07:24:03</time>
      </trkpt>
      <trkpt lat="42.856" lon="-2.35944">
        <ele>588</ele>
        <time>2021-05-29 07:24:04</time>
      </trkpt>
      <trkpt lat="42.85602" lon="-2.35937">
        <ele>587.8</ele>
        <time>2021-05-29 07:24:05</time>
      </trkpt>
      <trkpt lat="42.85604" lon="-2.35929">
        <ele>588</ele>
        <time>2021-05-29 07:24:06</time>
      </trkpt>
      <trkpt lat="42.85606" lon="-2.35922">
        <ele>587.8</ele>
        <time>2021-05-29 07:24:07</time>
      </trkpt>
      <trkpt lat="42.85608" lon="-2.35915">
        <ele>587.8</ele>
        <time>2021-05-29 07:24:08</time>
      </trkpt>
      <trkpt lat="42.85609" lon="-2.35908">
        <ele>587.8</ele>
        <time>2021-05-29 07:24:09</time>
      </trkpt>
      <trkpt lat="42.85611" lon="-2.35901">
        <ele>587.8</ele>
        <time>2021-05-29 07:24:10</time>
      </trkpt>
      <trkpt lat="42.85613" lon="-2.35894">
        <ele>587.8</ele>
        <time>2021-05-29 07:24:11</time>
      </trkpt>
      <trkpt lat="42.85614" lon="-2.35888">
        <ele>587.8</ele>
        <time>2021-05-29 07:24:12</time>
      </trkpt>
      <trkpt lat="42.85615" lon="-2.35882">
        <ele>588</ele>
        <time>2021-05-29 07:24:13</time>
      </trkpt>
      <trkpt lat="42.85617" lon="-2.35876">
        <ele>588</ele>
        <time>2021-05-29 07:24:14</time>
      </trkpt>
      <trkpt lat="42.85618" lon="-2.3587">
        <ele>588</ele>
        <time>2021-05-29 07:24:15</time>
      </trkpt>
      <trkpt lat="42.8562" lon="-2.35864">
        <ele>588</ele>
        <time>2021-05-29 07:24:16</time>
      </trkpt>
      <trkpt lat="42.85621" lon="-2.35859">
        <ele>588.2</ele>
        <time>2021-05-29 07:24:17</time>
      </trkpt>
      <trkpt lat="42.85622" lon="-2.35853">
        <ele>588.2</ele>
        <time>2021-05-29 07:24:18</time>
      </trkpt>
      <trkpt lat="42.85623" lon="-2.35848">
        <ele>588.2</ele>
        <time>2021-05-29 07:24:19</time>
      </trkpt>
      <trkpt lat="42.85625" lon="-2.35842">
        <ele>588.2</ele>
        <time>2021-05-29 07:24:20</time>
      </trkpt>
      <trkpt lat="42.85626" lon="-2.35837">
        <ele>588.2</ele>
        <time>2021-05-29 07:24:21</time>
      </trkpt>
      <trkpt lat="42.85627" lon="-2.35832">
        <ele>588</ele>
        <time>2021-05-29 07:24:22</time>
      </trkpt>
      <trkpt lat="42.85628" lon="-2.35826">
        <ele>588.2</ele>
        <time>2021-05-29 07:24:23</time>
      </trkpt>
      <trkpt lat="42.85629" lon="-2.35821">
        <ele>588.2</ele>
        <time>2021-05-29 07:24:24</time>
      </trkpt>
      <trkpt lat="42.8563" lon="-2.35816">
        <ele>588.2</ele>
        <time>2021-05-29 07:24:25</time>
      </trkpt>
      <trkpt lat="42.85631" lon="-2.35811">
        <ele>588.2</ele>
        <time>2021-05-29 07:24:26</time>
      </trkpt>
      <trkpt lat="42.85632" lon="-2.35806">
        <ele>588.4</ele>
        <time>2021-05-29 07:24:27</time>
      </trkpt>
      <trkpt lat="42.85633" lon="-2.35801">
        <ele>588.4</ele>
        <time>2021-05-29 07:24:28</time>
      </trkpt>
      <trkpt lat="42.85634" lon="-2.35796">
        <ele>588.4</ele>
        <time>2021-05-29 07:24:29</time>
      </trkpt>
      <trkpt lat="42.85635" lon="-2.3579">
        <ele>588.4</ele>
        <time>2021-05-29 07:24:30</time>
      </trkpt>
      <trkpt lat="42.85636" lon="-2.35785">
        <ele>588.4</ele>
        <time>2021-05-29 07:24:31</time>
      </trkpt>
      <trkpt lat="42.85637" lon="-2.35781">
        <ele>588.4</ele>
        <time>2021-05-29 07:24:32</time>
      </trkpt>
      <trkpt lat="42.85638" lon="-2.35776">
        <ele>588.4</ele>
        <time>2021-05-29 07:24:33</time>
      </trkpt>
      <trkpt lat="42.85639" lon="-2.35771">
        <ele>588.4</ele>
        <time>2021-05-29 07:24:34</time>
      </trkpt>
      <trkpt lat="42.8564" lon="-2.35766">
        <ele>588.6</ele>
        <time>2021-05-29 07:24:35</time>
      </trkpt>
      <trkpt lat="42.85641" lon="-2.35762">
        <ele>588.6</ele>
        <time>2021-05-29 07:24:36</time>
      </trkpt>
      <trkpt lat="42.85642" lon="-2.35757">
        <ele>588.6</ele>
        <time>2021-05-29 07:24:37</time>
      </trkpt>
      <trkpt lat="42.85643" lon="-2.35752">
        <ele>588.6</ele>
        <time>2021-05-29 07:24:38</time>
      </trkpt>
      <trkpt lat="42.85644" lon="-2.35747">
        <ele>588.6</ele>
        <time>2021-05-29 07:24:39</time>
      </trkpt>
      <trkpt lat="42.85645" lon="-2.35742">
        <ele>588.6</ele>
        <time>2021-05-29 07:24:40</time>
      </trkpt>
      <trkpt lat="42.85646" lon="-2.35738">
        <ele>588.6</ele>
        <time>2021-05-29 07:24:41</time>
      </trkpt>
      <trkpt lat="42.85647" lon="-2.35733">
        <ele>588.6</ele>
        <time>2021-05-29 07:24:42</time>
      </trkpt>
      <trkpt lat="42.85648" lon="-2.35728">
        <ele>588.6</ele>
        <time>2021-05-29 07:24:43</time>
      </trkpt>
      <trkpt lat="42.85649" lon="-2.35723">
        <ele>588.6</ele>
        <time>2021-05-29 07:24:44</time>
      </trkpt>
      <trkpt lat="42.8565" lon="-2.35718">
        <ele>588.6</ele>
        <time>2021-05-29 07:24:45</time>
      </trkpt>
      <trkpt lat="42.85651" lon="-2.35713">
        <ele>588.8</ele>
        <time>2021-05-29 07:24:46</time>
      </trkpt>
      <trkpt lat="42.85652" lon="-2.35708">
        <ele>588.6</ele>
        <time>2021-05-29 07:24:47</time>
      </trkpt>
      <trkpt lat="42.85653" lon="-2.35702">
        <ele>588.6</ele>
        <time>2021-05-29 07:24:48</time>
      </trkpt>
      <trkpt lat="42.85654" lon="-2.35697">
        <ele>588.6</ele>
        <time>2021-05-29 07:24:49</time>
      </trkpt>
      <trkpt lat="42.85655" lon="-2.35692">
        <ele>588.6</ele>
        <time>2021-05-29 07:24:50</time>
      </trkpt>
      <trkpt lat="42.85656" lon="-2.35686">
        <ele>588.6</ele>
        <time>2021-05-29 07:24:51</time>
      </trkpt>
      <trkpt lat="42.85657" lon="-2.35681">
        <ele>588.6</ele>
        <time>2021-05-29 07:24:52</time>
      </trkpt>
      <trkpt lat="42.85658" lon="-2.35676">
        <ele>588.6</ele>
        <time>2021-05-29 07:24:53</time>
      </trkpt>
      <trkpt lat="42.85659" lon="-2.3567">
        <ele>588.6</ele>
        <time>2021-05-29 07:24:54</time>
      </trkpt>
      <trkpt lat="42.8566" lon="-2.35664">
        <ele>588.6</ele>
        <time>2021-05-29 07:24:55</time>
      </trkpt>
      <trkpt lat="42.85661" lon="-2.35659">
        <ele>588.8</ele>
        <time>2021-05-29 07:24:56</time>
      </trkpt>
      <trkpt lat="42.85662" lon="-2.35653">
        <ele>588.8</ele>
        <time>2021-05-29 07:24:57</time>
      </trkpt>
      <trkpt lat="42.85663" lon="-2.35646">
        <ele>588.8</ele>
        <time>2021-05-29 07:24:58</time>
      </trkpt>
      <trkpt lat="42.85665" lon="-2.3564">
        <ele>588.8</ele>
        <time>2021-05-29 07:24:59</time>
      </trkpt>
      <trkpt lat="42.85666" lon="-2.35634">
        <ele>588.8</ele>
        <time>2021-05-29 07:25:00</time>
      </trkpt>
      <trkpt lat="42.85667" lon="-2.35628">
        <ele>588.8</ele>
        <time>2021-05-29 07:25:01</time>
      </trkpt>
      <trkpt lat="42.85668" lon="-2.35622">
        <ele>588.8</ele>
        <time>2021-05-29 07:25:02</time>
      </trkpt>
      <trkpt lat="42.8567" lon="-2.35616">
        <ele>588.8</ele>
        <time>2021-05-29 07:25:03</time>
      </trkpt>
      <trkpt lat="42.85671" lon="-2.35609">
        <ele>588.8</ele>
        <time>2021-05-29 07:25:04</time>
      </trkpt>
      <trkpt lat="42.85672" lon="-2.35603">
        <ele>588.8</ele>
        <time>2021-05-29 07:25:05</time>
      </trkpt>
      <trkpt lat="42.85674" lon="-2.35596">
        <ele>588.8</ele>
        <time>2021-05-29 07:25:06</time>
      </trkpt>
      <trkpt lat="42.85675" lon="-2.35589">
        <ele>588.8</ele>
        <time>2021-05-29 07:25:07</time>
      </trkpt>
      <trkpt lat="42.85676" lon="-2.35582">
        <ele>588.6</ele>
        <time>2021-05-29 07:25:08</time>
      </trkpt>
      <trkpt lat="42.85678" lon="-2.35575">
        <ele>588.6</ele>
        <time>2021-05-29 07:25:09</time>
      </trkpt>
      <trkpt lat="42.85679" lon="-2.35567">
        <ele>588.6</ele>
        <time>2021-05-29 07:25:10</time>
      </trkpt>
      <trkpt lat="42.85681" lon="-2.3556">
        <ele>588.8</ele>
        <time>2021-05-29 07:25:11</time>
      </trkpt>
      <trkpt lat="42.85682" lon="-2.35553">
        <ele>588.8</ele>
        <time>2021-05-29 07:25:12</time>
      </trkpt>
      <trkpt lat="42.85684" lon="-2.35545">
        <ele>588.8</ele>
        <time>2021-05-29 07:25:13</time>
      </trkpt>
      <trkpt lat="42.85685" lon="-2.35538">
        <ele>588.6</ele>
        <time>2021-05-29 07:25:14</time>
      </trkpt>
      <trkpt lat="42.85686" lon="-2.3553">
        <ele>588.6</ele>
        <time>2021-05-29 07:25:15</time>
      </trkpt>
      <trkpt lat="42.85688" lon="-2.35522">
        <ele>588.6</ele>
        <time>2021-05-29 07:25:16</time>
      </trkpt>
      <trkpt lat="42.8569" lon="-2.35514">
        <ele>588.8</ele>
        <time>2021-05-29 07:25:17</time>
      </trkpt>
      <trkpt lat="42.85691" lon="-2.35506">
        <ele>588.8</ele>
        <time>2021-05-29 07:25:18</time>
      </trkpt>
      <trkpt lat="42.85693" lon="-2.35497">
        <ele>588.8</ele>
        <time>2021-05-29 07:25:19</time>
      </trkpt>
      <trkpt lat="42.85695" lon="-2.35489">
        <ele>588.8</ele>
        <time>2021-05-29 07:25:20</time>
      </trkpt>
      <trkpt lat="42.85697" lon="-2.35479">
        <ele>588.8</ele>
        <time>2021-05-29 07:25:21</time>
      </trkpt>
      <trkpt lat="42.85699" lon="-2.3547">
        <ele>588.8</ele>
        <time>2021-05-29 07:25:22</time>
      </trkpt>
      <trkpt lat="42.85701" lon="-2.3546">
        <ele>588.8</ele>
        <time>2021-05-29 07:25:23</time>
      </trkpt>
      <trkpt lat="42.85703" lon="-2.3545">
        <ele>588.6</ele>
        <time>2021-05-29 07:25:24</time>
      </trkpt>
      <trkpt lat="42.85704" lon="-2.3544">
        <ele>588.6</ele>
        <time>2021-05-29 07:25:25</time>
      </trkpt>
      <trkpt lat="42.85706" lon="-2.3543">
        <ele>588.6</ele>
        <time>2021-05-29 07:25:26</time>
      </trkpt>
      <trkpt lat="42.85708" lon="-2.35419">
        <ele>588.6</ele>
        <time>2021-05-29 07:25:27</time>
      </trkpt>
      <trkpt lat="42.8571" lon="-2.35408">
        <ele>588.6</ele>
        <time>2021-05-29 07:25:28</time>
      </trkpt>
      <trkpt lat="42.85712" lon="-2.35398">
        <ele>588.6</ele>
        <time>2021-05-29 07:25:29</time>
      </trkpt>
      <trkpt lat="42.85714" lon="-2.35387">
        <ele>588.6</ele>
        <time>2021-05-29 07:25:30</time>
      </trkpt>
      <trkpt lat="42.85716" lon="-2.35376">
        <ele>588.6</ele>
        <time>2021-05-29 07:25:31</time>
      </trkpt>
      <trkpt lat="42.85717" lon="-2.35365">
        <ele>588.6</ele>
        <time>2021-05-29 07:25:32</time>
      </trkpt>
      <trkpt lat="42.85719" lon="-2.35354">
        <ele>588.6</ele>
        <time>2021-05-29 07:25:33</time>
      </trkpt>
      <trkpt lat="42.8572" lon="-2.35343">
        <ele>588.6</ele>
        <time>2021-05-29 07:25:34</time>
      </trkpt>
      <trkpt lat="42.85722" lon="-2.35333">
        <ele>588.6</ele>
        <time>2021-05-29 07:25:35</time>
      </trkpt>
      <trkpt lat="42.85724" lon="-2.35322">
        <ele>588.4</ele>
        <time>2021-05-29 07:25:36</time>
      </trkpt>
      <trkpt lat="42.85725" lon="-2.35312">
        <ele>588.4</ele>
        <time>2021-05-29 07:25:37</time>
      </trkpt>
      <trkpt lat="42.85727" lon="-2.35303">
        <ele>588.4</ele>
        <time>2021-05-29 07:25:38</time>
      </trkpt>
      <trkpt lat="42.85728" lon="-2.35293">
        <ele>588.4</ele>
        <time>2021-05-29 07:25:39</time>
      </trkpt>
      <trkpt lat="42.8573" lon="-2.35283">
        <ele>588.6</ele>
        <time>2021-05-29 07:25:40</time>
      </trkpt>
      <trkpt lat="42.85731" lon="-2.35273">
        <ele>588.6</ele>
        <time>2021-05-29 07:25:41</time>
      </trkpt>
      <trkpt lat="42.85733" lon="-2.35263">
        <ele>588.6</ele>
        <time>2021-05-29 07:25:42</time>
      </trkpt>
      <trkpt lat="42.85734" lon="-2.35252">
        <ele>588.6</ele>
        <time>2021-05-29 07:25:43</time>
      </trkpt>
      <trkpt lat="42.85736" lon="-2.35242">
        <ele>588.6</ele>
        <time>2021-05-29 07:25:44</time>
      </trkpt>
      <trkpt lat="42.85737" lon="-2.3523">
        <ele>588.6</ele>
        <time>2021-05-29 07:25:45</time>
      </trkpt>
      <trkpt lat="42.85739" lon="-2.35219">
        <ele>588.6</ele>
        <time>2021-05-29 07:25:46</time>
      </trkpt>
      <trkpt lat="42.85741" lon="-2.35207">
        <ele>588.6</ele>
        <time>2021-05-29 07:25:47</time>
      </trkpt>
      <trkpt lat="42.85743" lon="-2.35195">
        <ele>588.4</ele>
        <time>2021-05-29 07:25:48</time>
      </trkpt>
      <trkpt lat="42.85745" lon="-2.35182">
        <ele>588.4</ele>
        <time>2021-05-29 07:25:49</time>
      </trkpt>
      <trkpt lat="42.85746" lon="-2.35169">
        <ele>588.4</ele>
        <time>2021-05-29 07:25:50</time>
      </trkpt>
      <trkpt lat="42.85748" lon="-2.35156">
        <ele>588.4</ele>
        <time>2021-05-29 07:25:51</time>
      </trkpt>
      <trkpt lat="42.8575" lon="-2.35142">
        <ele>588.4</ele>
        <time>2021-05-29 07:25:52</time>
      </trkpt>
      <trkpt lat="42.85752" lon="-2.35128">
        <ele>588.4</ele>
        <time>2021-05-29 07:25:53</time>
      </trkpt>
      <trkpt lat="42.85754" lon="-2.35114">
        <ele>588.4</ele>
        <time>2021-05-29 07:25:54</time>
      </trkpt>
      <trkpt lat="42.85756" lon="-2.35099">
        <ele>588.4</ele>
        <time>2021-05-29 07:25:55</time>
      </trkpt>
      <trkpt lat="42.85759" lon="-2.35084">
        <ele>588.4</ele>
        <time>2021-05-29 07:25:56</time>
      </trkpt>
      <trkpt lat="42.85761" lon="-2.35069">
        <ele>588.4</ele>
        <time>2021-05-29 07:25:57</time>
      </trkpt>
      <trkpt lat="42.85763" lon="-2.35053">
        <ele>588.4</ele>
        <time>2021-05-29 07:25:58</time>
      </trkpt>
      <trkpt lat="42.85766" lon="-2.35037">
        <ele>588.2</ele>
        <time>2021-05-29 07:25:59</time>
      </trkpt>
      <trkpt lat="42.85768" lon="-2.3502">
        <ele>588.2</ele>
        <time>2021-05-29 07:26:00</time>
      </trkpt>
      <trkpt lat="42.8577" lon="-2.35003">
        <ele>588.2</ele>
        <time>2021-05-29 07:26:01</time>
      </trkpt>
      <trkpt lat="42.85773" lon="-2.34986">
        <ele>588.2</ele>
        <time>2021-05-29 07:26:02</time>
      </trkpt>
      <trkpt lat="42.85775" lon="-2.34968">
        <ele>588</ele>
        <time>2021-05-29 07:26:03</time>
      </trkpt>
      <trkpt lat="42.85777" lon="-2.34951">
        <ele>588</ele>
        <time>2021-05-29 07:26:04</time>
      </trkpt>
      <trkpt lat="42.8578" lon="-2.34934">
        <ele>588</ele>
        <time>2021-05-29 07:26:05</time>
      </trkpt>
      <trkpt lat="42.85782" lon="-2.34916">
        <ele>588</ele>
        <time>2021-05-29 07:26:06</time>
      </trkpt>
      <trkpt lat="42.85785" lon="-2.349">
        <ele>587.8</ele>
        <time>2021-05-29 07:26:07</time>
      </trkpt>
      <trkpt lat="42.85787" lon="-2.34884">
        <ele>587.8</ele>
        <time>2021-05-29 07:26:08</time>
      </trkpt>
      <trkpt lat="42.85789" lon="-2.34869">
        <ele>587.6</ele>
        <time>2021-05-29 07:26:09</time>
      </trkpt>
      <trkpt lat="42.85791" lon="-2.34854">
        <ele>587.6</ele>
        <time>2021-05-29 07:26:10</time>
      </trkpt>
      <trkpt lat="42.85793" lon="-2.3484">
        <ele>587.6</ele>
        <time>2021-05-29 07:26:11</time>
      </trkpt>
      <trkpt lat="42.85795" lon="-2.34826">
        <ele>587.6</ele>
        <time>2021-05-29 07:26:12</time>
      </trkpt>
      <trkpt lat="42.85797" lon="-2.34813">
        <ele>587.6</ele>
        <time>2021-05-29 07:26:13</time>
      </trkpt>
      <trkpt lat="42.85799" lon="-2.348">
        <ele>587.6</ele>
        <time>2021-05-29 07:26:14</time>
      </trkpt>
      <trkpt lat="42.85801" lon="-2.34787">
        <ele>587.6</ele>
        <time>2021-05-29 07:26:15</time>
      </trkpt>
      <trkpt lat="42.85803" lon="-2.34774">
        <ele>587.6</ele>
        <time>2021-05-29 07:26:16</time>
      </trkpt>
      <trkpt lat="42.85805" lon="-2.34762">
        <ele>587.6</ele>
        <time>2021-05-29 07:26:17</time>
      </trkpt>
      <trkpt lat="42.85806" lon="-2.3475">
        <ele>587.6</ele>
        <time>2021-05-29 07:26:18</time>
      </trkpt>
      <trkpt lat="42.85808" lon="-2.34738">
        <ele>587.6</ele>
        <time>2021-05-29 07:26:19</time>
      </trkpt>
      <trkpt lat="42.8581" lon="-2.34726">
        <ele>587.6</ele>
        <time>2021-05-29 07:26:20</time>
      </trkpt>
      <trkpt lat="42.85812" lon="-2.34714">
        <ele>587.6</ele>
        <time>2021-05-29 07:26:21</time>
      </trkpt>
      <trkpt lat="42.85813" lon="-2.34703">
        <ele>587.6</ele>
        <time>2021-05-29 07:26:22</time>
      </trkpt>
      <trkpt lat="42.85815" lon="-2.34691">
        <ele>587.8</ele>
        <time>2021-05-29 07:26:23</time>
      </trkpt>
      <trkpt lat="42.85816" lon="-2.34681">
        <ele>587.8</ele>
        <time>2021-05-29 07:26:24</time>
      </trkpt>
      <trkpt lat="42.85818" lon="-2.3467">
        <ele>587.8</ele>
        <time>2021-05-29 07:26:25</time>
      </trkpt>
      <trkpt lat="42.85819" lon="-2.34661">
        <ele>587.8</ele>
        <time>2021-05-29 07:26:26</time>
      </trkpt>
      <trkpt lat="42.85821" lon="-2.34651">
        <ele>587.8</ele>
        <time>2021-05-29 07:26:27</time>
      </trkpt>
      <trkpt lat="42.85822" lon="-2.34641">
        <ele>587.8</ele>
        <time>2021-05-29 07:26:28</time>
      </trkpt>
      <trkpt lat="42.85824" lon="-2.34632">
        <ele>587.8</ele>
        <time>2021-05-29 07:26:29</time>
      </trkpt>
      <trkpt lat="42.85825" lon="-2.34623">
        <ele>588</ele>
        <time>2021-05-29 07:26:30</time>
      </trkpt>
      <trkpt lat="42.85826" lon="-2.34613">
        <ele>588</ele>
        <time>2021-05-29 07:26:31</time>
      </trkpt>
      <trkpt lat="42.85828" lon="-2.34604">
        <ele>588</ele>
        <time>2021-05-29 07:26:32</time>
      </trkpt>
      <trkpt lat="42.85829" lon="-2.34594">
        <ele>588</ele>
        <time>2021-05-29 07:26:33</time>
      </trkpt>
      <trkpt lat="42.8583" lon="-2.34585">
        <ele>588</ele>
        <time>2021-05-29 07:26:34</time>
      </trkpt>
      <trkpt lat="42.85832" lon="-2.34575">
        <ele>588.2</ele>
        <time>2021-05-29 07:26:35</time>
      </trkpt>
      <trkpt lat="42.85833" lon="-2.34566">
        <ele>588.2</ele>
        <time>2021-05-29 07:26:36</time>
      </trkpt>
      <trkpt lat="42.85834" lon="-2.34556">
        <ele>588</ele>
        <time>2021-05-29 07:26:37</time>
      </trkpt>
      <trkpt lat="42.85836" lon="-2.34547">
        <ele>588.2</ele>
        <time>2021-05-29 07:26:38</time>
      </trkpt>
      <trkpt lat="42.85837" lon="-2.34537">
        <ele>588.2</ele>
        <time>2021-05-29 07:26:39</time>
      </trkpt>
      <trkpt lat="42.85839" lon="-2.34528">
        <ele>588.2</ele>
        <time>2021-05-29 07:26:40</time>
      </trkpt>
      <trkpt lat="42.8584" lon="-2.34518">
        <ele>588.4</ele>
        <time>2021-05-29 07:26:41</time>
      </trkpt>
      <trkpt lat="42.85842" lon="-2.34508">
        <ele>588.4</ele>
        <time>2021-05-29 07:26:42</time>
      </trkpt>
      <trkpt lat="42.85844" lon="-2.34498">
        <ele>588.4</ele>
        <time>2021-05-29 07:26:43</time>
      </trkpt>
      <trkpt lat="42.85845" lon="-2.34487">
        <ele>588.4</ele>
        <time>2021-05-29 07:26:44</time>
      </trkpt>
      <trkpt lat="42.85847" lon="-2.34476">
        <ele>588.4</ele>
        <time>2021-05-29 07:26:45</time>
      </trkpt>
      <trkpt lat="42.85849" lon="-2.34465">
        <ele>588.6</ele>
        <time>2021-05-29 07:26:46</time>
      </trkpt>
      <trkpt lat="42.8585" lon="-2.34454">
        <ele>588.6</ele>
        <time>2021-05-29 07:26:47</time>
      </trkpt>
      <trkpt lat="42.85852" lon="-2.34442">
        <ele>588.6</ele>
        <time>2021-05-29 07:26:48</time>
      </trkpt>
      <trkpt lat="42.85854" lon="-2.3443">
        <ele>588.4</ele>
        <time>2021-05-29 07:26:49</time>
      </trkpt>
      <trkpt lat="42.85856" lon="-2.34417">
        <ele>588.4</ele>
        <time>2021-05-29 07:26:50</time>
      </trkpt>
      <trkpt lat="42.85857" lon="-2.34404">
        <ele>588.4</ele>
        <time>2021-05-29 07:26:51</time>
      </trkpt>
      <trkpt lat="42.85859" lon="-2.3439">
        <ele>588.4</ele>
        <time>2021-05-29 07:26:52</time>
      </trkpt>
      <trkpt lat="42.85861" lon="-2.34376">
        <ele>588.4</ele>
        <time>2021-05-29 07:26:53</time>
      </trkpt>
      <trkpt lat="42.85863" lon="-2.34361">
        <ele>588.4</ele>
        <time>2021-05-29 07:26:54</time>
      </trkpt>
      <trkpt lat="42.85865" lon="-2.34346">
        <ele>588.4</ele>
        <time>2021-05-29 07:26:55</time>
      </trkpt>
      <trkpt lat="42.85867" lon="-2.34331">
        <ele>588.4</ele>
        <time>2021-05-29 07:26:56</time>
      </trkpt>
      <trkpt lat="42.85869" lon="-2.34315">
        <ele>588.4</ele>
        <time>2021-05-29 07:26:57</time>
      </trkpt>
      <trkpt lat="42.85871" lon="-2.34299">
        <ele>588.4</ele>
        <time>2021-05-29 07:26:58</time>
      </trkpt>
      <trkpt lat="42.85874" lon="-2.34283">
        <ele>588.2</ele>
        <time>2021-05-29 07:26:59</time>
      </trkpt>
      <trkpt lat="42.85876" lon="-2.34267">
        <ele>588</ele>
        <time>2021-05-29 07:27:00</time>
      </trkpt>
      <trkpt lat="42.85878" lon="-2.34252">
        <ele>588.2</ele>
        <time>2021-05-29 07:27:01</time>
      </trkpt>
      <trkpt lat="42.8588" lon="-2.34236">
        <ele>588.2</ele>
        <time>2021-05-29 07:27:02</time>
      </trkpt>
      <trkpt lat="42.85882" lon="-2.34221">
        <ele>588.2</ele>
        <time>2021-05-29 07:27:03</time>
      </trkpt>
      <trkpt lat="42.85884" lon="-2.34206">
        <ele>588.2</ele>
        <time>2021-05-29 07:27:04</time>
      </trkpt>
      <trkpt lat="42.85886" lon="-2.34191">
        <ele>588.2</ele>
        <time>2021-05-29 07:27:05</time>
      </trkpt>
      <trkpt lat="42.85888" lon="-2.34176">
        <ele>588.2</ele>
        <time>2021-05-29 07:27:06</time>
      </trkpt>
      <trkpt lat="42.8589" lon="-2.34161">
        <ele>588.2</ele>
        <time>2021-05-29 07:27:07</time>
      </trkpt>
      <trkpt lat="42.85892" lon="-2.34147">
        <ele>588.2</ele>
        <time>2021-05-29 07:27:08</time>
      </trkpt>
      <trkpt lat="42.85894" lon="-2.34132">
        <ele>588.2</ele>
        <time>2021-05-29 07:27:09</time>
      </trkpt>
      <trkpt lat="42.85896" lon="-2.34118">
        <ele>588.2</ele>
        <time>2021-05-29 07:27:10</time>
      </trkpt>
      <trkpt lat="42.85898" lon="-2.34104">
        <ele>588.2</ele>
        <time>2021-05-29 07:27:11</time>
      </trkpt>
      <trkpt lat="42.859" lon="-2.3409">
        <ele>588.2</ele>
        <time>2021-05-29 07:27:12</time>
      </trkpt>
      <trkpt lat="42.85902" lon="-2.34076">
        <ele>588.2</ele>
        <time>2021-05-29 07:27:13</time>
      </trkpt>
      <trkpt lat="42.85904" lon="-2.34062">
        <ele>588.4</ele>
        <time>2021-05-29 07:27:14</time>
      </trkpt>
      <trkpt lat="42.85906" lon="-2.34049">
        <ele>588.4</ele>
        <time>2021-05-29 07:27:15</time>
      </trkpt>
      <trkpt lat="42.85908" lon="-2.34035">
        <ele>588.4</ele>
        <time>2021-05-29 07:27:16</time>
      </trkpt>
      <trkpt lat="42.8591" lon="-2.34021">
        <ele>588.4</ele>
        <time>2021-05-29 07:27:17</time>
      </trkpt>
      <trkpt lat="42.85912" lon="-2.34007">
        <ele>588.2</ele>
        <time>2021-05-29 07:27:18</time>
      </trkpt>
      <trkpt lat="42.85914" lon="-2.33993">
        <ele>588.2</ele>
        <time>2021-05-29 07:27:19</time>
      </trkpt>
      <trkpt lat="42.85916" lon="-2.33979">
        <ele>588.2</ele>
        <time>2021-05-29 07:27:20</time>
      </trkpt>
      <trkpt lat="42.85918" lon="-2.33965">
        <ele>588.2</ele>
        <time>2021-05-29 07:27:21</time>
      </trkpt>
      <trkpt lat="42.8592" lon="-2.33951">
        <ele>588.2</ele>
        <time>2021-05-29 07:27:22</time>
      </trkpt>
      <trkpt lat="42.85922" lon="-2.33937">
        <ele>588.2</ele>
        <time>2021-05-29 07:27:23</time>
      </trkpt>
      <trkpt lat="42.85924" lon="-2.33922">
        <ele>588.2</ele>
        <time>2021-05-29 07:27:24</time>
      </trkpt>
      <trkpt lat="42.85926" lon="-2.33908">
        <ele>588.4</ele>
        <time>2021-05-29 07:27:25</time>
      </trkpt>
      <trkpt lat="42.85928" lon="-2.33893">
        <ele>588.2</ele>
        <time>2021-05-29 07:27:26</time>
      </trkpt>
      <trkpt lat="42.8593" lon="-2.33879">
        <ele>588.2</ele>
        <time>2021-05-29 07:27:27</time>
      </trkpt>
      <trkpt lat="42.85932" lon="-2.33864">
        <ele>588.2</ele>
        <time>2021-05-29 07:27:28</time>
      </trkpt>
      <trkpt lat="42.85934" lon="-2.33849">
        <ele>588.2</ele>
        <time>2021-05-29 07:27:29</time>
      </trkpt>
      <trkpt lat="42.85936" lon="-2.33834">
        <ele>588</ele>
        <time>2021-05-29 07:27:30</time>
      </trkpt>
      <trkpt lat="42.85938" lon="-2.33819">
        <ele>588</ele>
        <time>2021-05-29 07:27:31</time>
      </trkpt>
      <trkpt lat="42.8594" lon="-2.33804">
        <ele>588</ele>
        <time>2021-05-29 07:27:32</time>
      </trkpt>
      <trkpt lat="42.85942" lon="-2.33789">
        <ele>588</ele>
        <time>2021-05-29 07:27:33</time>
      </trkpt>
      <trkpt lat="42.85944" lon="-2.33774">
        <ele>588</ele>
        <time>2021-05-29 07:27:34</time>
      </trkpt>
      <trkpt lat="42.85946" lon="-2.33759">
        <ele>588.2</ele>
        <time>2021-05-29 07:27:35</time>
      </trkpt>
      <trkpt lat="42.85949" lon="-2.33744">
        <ele>588.2</ele>
        <time>2021-05-29 07:27:36</time>
      </trkpt>
      <trkpt lat="42.85951" lon="-2.33729">
        <ele>588.2</ele>
        <time>2021-05-29 07:27:37</time>
      </trkpt>
      <trkpt lat="42.85953" lon="-2.33714">
        <ele>588.2</ele>
        <time>2021-05-29 07:27:38</time>
      </trkpt>
      <trkpt lat="42.85955" lon="-2.33699">
        <ele>588.2</ele>
        <time>2021-05-29 07:27:39</time>
      </trkpt>
      <trkpt lat="42.85957" lon="-2.33684">
        <ele>588.2</ele>
        <time>2021-05-29 07:27:40</time>
      </trkpt>
      <trkpt lat="42.85959" lon="-2.33669">
        <ele>588.2</ele>
        <time>2021-05-29 07:27:41</time>
      </trkpt>
      <trkpt lat="42.85961" lon="-2.33654">
        <ele>588.2</ele>
        <time>2021-05-29 07:27:42</time>
      </trkpt>
      <trkpt lat="42.85963" lon="-2.33639">
        <ele>588.2</ele>
        <time>2021-05-29 07:27:43</time>
      </trkpt>
      <trkpt lat="42.85965" lon="-2.33624">
        <ele>588.2</ele>
        <time>2021-05-29 07:27:44</time>
      </trkpt>
      <trkpt lat="42.85967" lon="-2.33609">
        <ele>588.2</ele>
        <time>2021-05-29 07:27:45</time>
      </trkpt>
      <trkpt lat="42.85969" lon="-2.33594">
        <ele>588.2</ele>
        <time>2021-05-29 07:27:46</time>
      </trkpt>
      <trkpt lat="42.85972" lon="-2.33579">
        <ele>588.2</ele>
        <time>2021-05-29 07:27:47</time>
      </trkpt>
      <trkpt lat="42.85974" lon="-2.33564">
        <ele>588.2</ele>
        <time>2021-05-29 07:27:48</time>
      </trkpt>
      <trkpt lat="42.85976" lon="-2.33549">
        <ele>588.2</ele>
        <time>2021-05-29 07:27:49</time>
      </trkpt>
      <trkpt lat="42.85978" lon="-2.33534">
        <ele>588.2</ele>
        <time>2021-05-29 07:27:50</time>
      </trkpt>
      <trkpt lat="42.8598" lon="-2.33519">
        <ele>588</ele>
        <time>2021-05-29 07:27:51</time>
      </trkpt>
      <trkpt lat="42.85982" lon="-2.33505">
        <ele>588</ele>
        <time>2021-05-29 07:27:52</time>
      </trkpt>
      <trkpt lat="42.85984" lon="-2.3349">
        <ele>588</ele>
        <time>2021-05-29 07:27:53</time>
      </trkpt>
      <trkpt lat="42.85986" lon="-2.33475">
        <ele>588</ele>
        <time>2021-05-29 07:27:54</time>
      </trkpt>
      <trkpt lat="42.85988" lon="-2.33461">
        <ele>588</ele>
        <time>2021-05-29 07:27:55</time>
      </trkpt>
      <trkpt lat="42.8599" lon="-2.33446">
        <ele>588</ele>
        <time>2021-05-29 07:27:56</time>
      </trkpt>
      <trkpt lat="42.85992" lon="-2.33432">
        <ele>588</ele>
        <time>2021-05-29 07:27:57</time>
      </trkpt>
      <trkpt lat="42.85994" lon="-2.33418">
        <ele>588</ele>
        <time>2021-05-29 07:27:58</time>
      </trkpt>
      <trkpt lat="42.85996" lon="-2.33403">
        <ele>588</ele>
        <time>2021-05-29 07:27:59</time>
      </trkpt>
      <trkpt lat="42.85998" lon="-2.33389">
        <ele>588</ele>
        <time>2021-05-29 07:28:00</time>
      </trkpt>
      <trkpt lat="42.86" lon="-2.33375">
        <ele>588</ele>
        <time>2021-05-29 07:28:01</time>
      </trkpt>
      <trkpt lat="42.86002" lon="-2.33362">
        <ele>588</ele>
        <time>2021-05-29 07:28:02</time>
      </trkpt>
      <trkpt lat="42.86004" lon="-2.33349">
        <ele>588</ele>
        <time>2021-05-29 07:28:03</time>
      </trkpt>
      <trkpt lat="42.86005" lon="-2.33336">
        <ele>588</ele>
        <time>2021-05-29 07:28:04</time>
      </trkpt>
      <trkpt lat="42.86007" lon="-2.33324">
        <ele>588</ele>
        <time>2021-05-29 07:28:05</time>
      </trkpt>
      <trkpt lat="42.86009" lon="-2.33311">
        <ele>588</ele>
        <time>2021-05-29 07:28:06</time>
      </trkpt>
      <trkpt lat="42.86011" lon="-2.33299">
        <ele>588.2</ele>
        <time>2021-05-29 07:28:07</time>
      </trkpt>
      <trkpt lat="42.86013" lon="-2.33288">
        <ele>588.2</ele>
        <time>2021-05-29 07:28:08</time>
      </trkpt>
      <trkpt lat="42.86014" lon="-2.33276">
        <ele>588.2</ele>
        <time>2021-05-29 07:28:09</time>
      </trkpt>
      <trkpt lat="42.86016" lon="-2.33265">
        <ele>588</ele>
        <time>2021-05-29 07:28:10</time>
      </trkpt>
      <trkpt lat="42.86017" lon="-2.33253">
        <ele>588.4</ele>
        <time>2021-05-29 07:28:11</time>
      </trkpt>
      <trkpt lat="42.86019" lon="-2.33241">
        <ele>588.4</ele>
        <time>2021-05-29 07:28:12</time>
      </trkpt>
      <trkpt lat="42.8602" lon="-2.3323">
        <ele>588.4</ele>
        <time>2021-05-29 07:28:13</time>
      </trkpt>
      <trkpt lat="42.86022" lon="-2.33218">
        <ele>588.2</ele>
        <time>2021-05-29 07:28:14</time>
      </trkpt>
      <trkpt lat="42.86024" lon="-2.33206">
        <ele>588.6</ele>
        <time>2021-05-29 07:28:15</time>
      </trkpt>
      <trkpt lat="42.86026" lon="-2.33194">
        <ele>588.4</ele>
        <time>2021-05-29 07:28:16</time>
      </trkpt>
      <trkpt lat="42.86028" lon="-2.33181">
        <ele>588.4</ele>
        <time>2021-05-29 07:28:17</time>
      </trkpt>
      <trkpt lat="42.86029" lon="-2.33168">
        <ele>588.4</ele>
        <time>2021-05-29 07:28:18</time>
      </trkpt>
      <trkpt lat="42.86031" lon="-2.33155">
        <ele>588.4</ele>
        <time>2021-05-29 07:28:19</time>
      </trkpt>
      <trkpt lat="42.86033" lon="-2.33141">
        <ele>588.4</ele>
        <time>2021-05-29 07:28:20</time>
      </trkpt>
      <trkpt lat="42.86035" lon="-2.33128">
        <ele>588.4</ele>
        <time>2021-05-29 07:28:21</time>
      </trkpt>
      <trkpt lat="42.86037" lon="-2.33114">
        <ele>588.6</ele>
        <time>2021-05-29 07:28:22</time>
      </trkpt>
      <trkpt lat="42.86039" lon="-2.331">
        <ele>588.6</ele>
        <time>2021-05-29 07:28:23</time>
      </trkpt>
      <trkpt lat="42.86042" lon="-2.33085">
        <ele>588.6</ele>
        <time>2021-05-29 07:28:24</time>
      </trkpt>
      <trkpt lat="42.86044" lon="-2.33071">
        <ele>588.6</ele>
        <time>2021-05-29 07:28:25</time>
      </trkpt>
      <trkpt lat="42.86046" lon="-2.33056">
        <ele>588.6</ele>
        <time>2021-05-29 07:28:26</time>
      </trkpt>
      <trkpt lat="42.86048" lon="-2.33041">
        <ele>588.6</ele>
        <time>2021-05-29 07:28:27</time>
      </trkpt>
      <trkpt lat="42.8605" lon="-2.33025">
        <ele>588.6</ele>
        <time>2021-05-29 07:28:28</time>
      </trkpt>
      <trkpt lat="42.86052" lon="-2.3301">
        <ele>588.6</ele>
        <time>2021-05-29 07:28:29</time>
      </trkpt>
      <trkpt lat="42.86054" lon="-2.32994">
        <ele>588.6</ele>
        <time>2021-05-29 07:28:30</time>
      </trkpt>
      <trkpt lat="42.86057" lon="-2.32978">
        <ele>588.4</ele>
        <time>2021-05-29 07:28:31</time>
      </trkpt>
      <trkpt lat="42.86059" lon="-2.32963">
        <ele>588.4</ele>
        <time>2021-05-29 07:28:32</time>
      </trkpt>
      <trkpt lat="42.86061" lon="-2.32948">
        <ele>588.4</ele>
        <time>2021-05-29 07:28:33</time>
      </trkpt>
      <trkpt lat="42.86063" lon="-2.32932">
        <ele>588.2</ele>
        <time>2021-05-29 07:28:34</time>
      </trkpt>
      <trkpt lat="42.86066" lon="-2.32917">
        <ele>588.2</ele>
        <time>2021-05-29 07:28:35</time>
      </trkpt>
      <trkpt lat="42.86068" lon="-2.32903">
        <ele>588.2</ele>
        <time>2021-05-29 07:28:36</time>
      </trkpt>
      <trkpt lat="42.8607" lon="-2.32888">
        <ele>588</ele>
        <time>2021-05-29 07:28:37</time>
      </trkpt>
      <trkpt lat="42.86072" lon="-2.32874">
        <ele>588</ele>
        <time>2021-05-29 07:28:38</time>
      </trkpt>
      <trkpt lat="42.86074" lon="-2.3286">
        <ele>588.2</ele>
        <time>2021-05-29 07:28:39</time>
      </trkpt>
      <trkpt lat="42.86076" lon="-2.32846">
        <ele>588.2</ele>
        <time>2021-05-29 07:28:40</time>
      </trkpt>
      <trkpt lat="42.86078" lon="-2.32832">
        <ele>588</ele>
        <time>2021-05-29 07:28:41</time>
      </trkpt>
      <trkpt lat="42.86079" lon="-2.32819">
        <ele>588</ele>
        <time>2021-05-29 07:28:42</time>
      </trkpt>
      <trkpt lat="42.86081" lon="-2.32805">
        <ele>588</ele>
        <time>2021-05-29 07:28:43</time>
      </trkpt>
      <trkpt lat="42.86083" lon="-2.32792">
        <ele>588</ele>
        <time>2021-05-29 07:28:44</time>
      </trkpt>
      <trkpt lat="42.86085" lon="-2.32779">
        <ele>588</ele>
        <time>2021-05-29 07:28:45</time>
      </trkpt>
      <trkpt lat="42.86087" lon="-2.32766">
        <ele>588</ele>
        <time>2021-05-29 07:28:46</time>
      </trkpt>
      <trkpt lat="42.86089" lon="-2.32753">
        <ele>588.2</ele>
        <time>2021-05-29 07:28:47</time>
      </trkpt>
      <trkpt lat="42.86091" lon="-2.3274">
        <ele>588.2</ele>
        <time>2021-05-29 07:28:48</time>
      </trkpt>
      <trkpt lat="42.86093" lon="-2.32727">
        <ele>588.2</ele>
        <time>2021-05-29 07:28:49</time>
      </trkpt>
      <trkpt lat="42.86095" lon="-2.32714">
        <ele>588.2</ele>
        <time>2021-05-29 07:28:50</time>
      </trkpt>
      <trkpt lat="42.86097" lon="-2.32702">
        <ele>588.2</ele>
        <time>2021-05-29 07:28:51</time>
      </trkpt>
      <trkpt lat="42.86099" lon="-2.32689">
        <ele>588.2</ele>
        <time>2021-05-29 07:28:52</time>
      </trkpt>
      <trkpt lat="42.861" lon="-2.32677">
        <ele>588.2</ele>
        <time>2021-05-29 07:28:53</time>
      </trkpt>
      <trkpt lat="42.86102" lon="-2.32665">
        <ele>588.2</ele>
        <time>2021-05-29 07:28:54</time>
      </trkpt>
      <trkpt lat="42.86104" lon="-2.32652">
        <ele>588.2</ele>
        <time>2021-05-29 07:28:55</time>
      </trkpt>
      <trkpt lat="42.86105" lon="-2.3264">
        <ele>588.2</ele>
        <time>2021-05-29 07:28:56</time>
      </trkpt>
      <trkpt lat="42.86107" lon="-2.32628">
        <ele>588.2</ele>
        <time>2021-05-29 07:28:57</time>
      </trkpt>
      <trkpt lat="42.86108" lon="-2.32616">
        <ele>588.2</ele>
        <time>2021-05-29 07:28:58</time>
      </trkpt>
      <trkpt lat="42.8611" lon="-2.32605">
        <ele>588.2</ele>
        <time>2021-05-29 07:28:59</time>
      </trkpt>
      <trkpt lat="42.86112" lon="-2.32593">
        <ele>588.2</ele>
        <time>2021-05-29 07:29:00</time>
      </trkpt>
      <trkpt lat="42.86114" lon="-2.32581">
        <ele>588.2</ele>
        <time>2021-05-29 07:29:01</time>
      </trkpt>
      <trkpt lat="42.86115" lon="-2.32569">
        <ele>588.2</ele>
        <time>2021-05-29 07:29:02</time>
      </trkpt>
      <trkpt lat="42.86117" lon="-2.32558">
        <ele>588.2</ele>
        <time>2021-05-29 07:29:03</time>
      </trkpt>
      <trkpt lat="42.86118" lon="-2.32546">
        <ele>588.2</ele>
        <time>2021-05-29 07:29:04</time>
      </trkpt>
      <trkpt lat="42.8612" lon="-2.32535">
        <ele>588.2</ele>
        <time>2021-05-29 07:29:05</time>
      </trkpt>
      <trkpt lat="42.86121" lon="-2.32523">
        <ele>588.2</ele>
        <time>2021-05-29 07:29:06</time>
      </trkpt>
      <trkpt lat="42.86123" lon="-2.32511">
        <ele>588.2</ele>
        <time>2021-05-29 07:29:07</time>
      </trkpt>
      <trkpt lat="42.86125" lon="-2.325">
        <ele>588.2</ele>
        <time>2021-05-29 07:29:08</time>
      </trkpt>
      <trkpt lat="42.86126" lon="-2.32488">
        <ele>588.2</ele>
        <time>2021-05-29 07:29:09</time>
      </trkpt>
      <trkpt lat="42.86128" lon="-2.32476">
        <ele>588.2</ele>
        <time>2021-05-29 07:29:10</time>
      </trkpt>
      <trkpt lat="42.8613" lon="-2.32464">
        <ele>588.2</ele>
        <time>2021-05-29 07:29:11</time>
      </trkpt>
      <trkpt lat="42.86131" lon="-2.32452">
        <ele>588.2</ele>
        <time>2021-05-29 07:29:12</time>
      </trkpt>
      <trkpt lat="42.86133" lon="-2.3244">
        <ele>588.2</ele>
        <time>2021-05-29 07:29:13</time>
      </trkpt>
      <trkpt lat="42.86134" lon="-2.32427">
        <ele>588.4</ele>
        <time>2021-05-29 07:29:14</time>
      </trkpt>
      <trkpt lat="42.86136" lon="-2.32414">
        <ele>588.4</ele>
        <time>2021-05-29 07:29:15</time>
      </trkpt>
      <trkpt lat="42.86138" lon="-2.32401">
        <ele>588.4</ele>
        <time>2021-05-29 07:29:16</time>
      </trkpt>
      <trkpt lat="42.8614" lon="-2.32387">
        <ele>588.4</ele>
        <time>2021-05-29 07:29:17</time>
      </trkpt>
      <trkpt lat="42.86142" lon="-2.32373">
        <ele>588.4</ele>
        <time>2021-05-29 07:29:18</time>
      </trkpt>
      <trkpt lat="42.86144" lon="-2.32359">
        <ele>588.4</ele>
        <time>2021-05-29 07:29:19</time>
      </trkpt>
      <trkpt lat="42.86146" lon="-2.32345">
        <ele>588.4</ele>
        <time>2021-05-29 07:29:20</time>
      </trkpt>
      <trkpt lat="42.86148" lon="-2.32331">
        <ele>588.4</ele>
        <time>2021-05-29 07:29:21</time>
      </trkpt>
      <trkpt lat="42.8615" lon="-2.32317">
        <ele>588.4</ele>
        <time>2021-05-29 07:29:22</time>
      </trkpt>
      <trkpt lat="42.86152" lon="-2.32304">
        <ele>588.4</ele>
        <time>2021-05-29 07:29:23</time>
      </trkpt>
      <trkpt lat="42.86154" lon="-2.3229">
        <ele>588.4</ele>
        <time>2021-05-29 07:29:24</time>
      </trkpt>
      <trkpt lat="42.86156" lon="-2.32277">
        <ele>588.4</ele>
        <time>2021-05-29 07:29:25</time>
      </trkpt>
      <trkpt lat="42.86158" lon="-2.32264">
        <ele>588.4</ele>
        <time>2021-05-29 07:29:26</time>
      </trkpt>
      <trkpt lat="42.86161" lon="-2.3225">
        <ele>588.2</ele>
        <time>2021-05-29 07:29:27</time>
      </trkpt>
      <trkpt lat="42.86163" lon="-2.32237">
        <ele>588.2</ele>
        <time>2021-05-29 07:29:28</time>
      </trkpt>
      <trkpt lat="42.86165" lon="-2.32225">
        <ele>588.2</ele>
        <time>2021-05-29 07:29:29</time>
      </trkpt>
      <trkpt lat="42.86168" lon="-2.32212">
        <ele>588.2</ele>
        <time>2021-05-29 07:29:30</time>
      </trkpt>
      <trkpt lat="42.8617" lon="-2.32199">
        <ele>588.2</ele>
        <time>2021-05-29 07:29:31</time>
      </trkpt>
      <trkpt lat="42.86173" lon="-2.32187">
        <ele>588.2</ele>
        <time>2021-05-29 07:29:32</time>
      </trkpt>
      <trkpt lat="42.86175" lon="-2.32174">
        <ele>588</ele>
        <time>2021-05-29 07:29:33</time>
      </trkpt>
      <trkpt lat="42.86178" lon="-2.32162">
        <ele>588</ele>
        <time>2021-05-29 07:29:34</time>
      </trkpt>
      <trkpt lat="42.86181" lon="-2.3215">
        <ele>588</ele>
        <time>2021-05-29 07:29:35</time>
      </trkpt>
      <trkpt lat="42.86185" lon="-2.32138">
        <ele>588</ele>
        <time>2021-05-29 07:29:36</time>
      </trkpt>
      <trkpt lat="42.86188" lon="-2.32126">
        <ele>588</ele>
        <time>2021-05-29 07:29:37</time>
      </trkpt>
      <trkpt lat="42.86192" lon="-2.32114">
        <ele>588</ele>
        <time>2021-05-29 07:29:38</time>
      </trkpt>
      <trkpt lat="42.86197" lon="-2.32103">
        <ele>588</ele>
        <time>2021-05-29 07:29:39</time>
      </trkpt>
      <trkpt lat="42.86201" lon="-2.32091">
        <ele>588</ele>
        <time>2021-05-29 07:29:40</time>
      </trkpt>
      <trkpt lat="42.86207" lon="-2.3208">
        <ele>588</ele>
        <time>2021-05-29 07:29:41</time>
      </trkpt>
      <trkpt lat="42.86212" lon="-2.32069">
        <ele>588</ele>
        <time>2021-05-29 07:29:42</time>
      </trkpt>
      <trkpt lat="42.86219" lon="-2.32058">
        <ele>588.2</ele>
        <time>2021-05-29 07:29:43</time>
      </trkpt>
      <trkpt lat="42.86225" lon="-2.32047">
        <ele>588</ele>
        <time>2021-05-29 07:29:44</time>
      </trkpt>
      <trkpt lat="42.86232" lon="-2.32037">
        <ele>588</ele>
        <time>2021-05-29 07:29:45</time>
      </trkpt>
      <trkpt lat="42.86239" lon="-2.32027">
        <ele>588</ele>
        <time>2021-05-29 07:29:46</time>
      </trkpt>
      <trkpt lat="42.86247" lon="-2.32017">
        <ele>588</ele>
        <time>2021-05-29 07:29:47</time>
      </trkpt>
      <trkpt lat="42.86255" lon="-2.32009">
        <ele>588</ele>
        <time>2021-05-29 07:29:48</time>
      </trkpt>
      <trkpt lat="42.86263" lon="-2.32">
        <ele>587.8</ele>
        <time>2021-05-29 07:29:49</time>
      </trkpt>
      <trkpt lat="42.86272" lon="-2.31992">
        <ele>587.8</ele>
        <time>2021-05-29 07:29:50</time>
      </trkpt>
      <trkpt lat="42.86281" lon="-2.31985">
        <ele>587.8</ele>
        <time>2021-05-29 07:29:51</time>
      </trkpt>
      <trkpt lat="42.8629" lon="-2.31978">
        <ele>587.8</ele>
        <time>2021-05-29 07:29:52</time>
      </trkpt>
      <trkpt lat="42.863" lon="-2.31971">
        <ele>587.8</ele>
        <time>2021-05-29 07:29:53</time>
      </trkpt>
      <trkpt lat="42.86309" lon="-2.31965">
        <ele>587.8</ele>
        <time>2021-05-29 07:29:54</time>
      </trkpt>
      <trkpt lat="42.86319" lon="-2.31958">
        <ele>587.6</ele>
        <time>2021-05-29 07:29:55</time>
      </trkpt>
      <trkpt lat="42.86329" lon="-2.31952">
        <ele>587.6</ele>
        <time>2021-05-29 07:29:56</time>
      </trkpt>
      <trkpt lat="42.86339" lon="-2.31947">
        <ele>587.6</ele>
        <time>2021-05-29 07:29:57</time>
      </trkpt>
      <trkpt lat="42.86349" lon="-2.31941">
        <ele>587.6</ele>
        <time>2021-05-29 07:29:58</time>
      </trkpt>
      <trkpt lat="42.86358" lon="-2.31934">
        <ele>587.6</ele>
        <time>2021-05-29 07:29:59</time>
      </trkpt>
      <trkpt lat="42.86368" lon="-2.31928">
        <ele>587.6</ele>
        <time>2021-05-29 07:30:00</time>
      </trkpt>
      <trkpt lat="42.86378" lon="-2.31921">
        <ele>587.6</ele>
        <time>2021-05-29 07:30:01</time>
      </trkpt>
      <trkpt lat="42.86388" lon="-2.31914">
        <ele>587.6</ele>
        <time>2021-05-29 07:30:02</time>
      </trkpt>
      <trkpt lat="42.86397" lon="-2.31905">
        <ele>587.6</ele>
        <time>2021-05-29 07:30:03</time>
      </trkpt>
      <trkpt lat="42.86406" lon="-2.31897">
        <ele>587.6</ele>
        <time>2021-05-29 07:30:04</time>
      </trkpt>
      <trkpt lat="42.86414" lon="-2.31887">
        <ele>587.6</ele>
        <time>2021-05-29 07:30:05</time>
      </trkpt>
      <trkpt lat="42.86422" lon="-2.31876">
        <ele>587.6</ele>
        <time>2021-05-29 07:30:06</time>
      </trkpt>
      <trkpt lat="42.86429" lon="-2.31865">
        <ele>587.6</ele>
        <time>2021-05-29 07:30:07</time>
      </trkpt>
      <trkpt lat="42.86435" lon="-2.31854">
        <ele>587.4</ele>
        <time>2021-05-29 07:30:08</time>
      </trkpt>
      <trkpt lat="42.86443" lon="-2.31843">
        <ele>587.4</ele>
        <time>2021-05-29 07:30:09</time>
      </trkpt>
      <trkpt lat="42.8645" lon="-2.31834">
        <ele>587.4</ele>
        <time>2021-05-29 07:30:10</time>
      </trkpt>
      <trkpt lat="42.86458" lon="-2.31823">
        <ele>587.4</ele>
        <time>2021-05-29 07:30:11</time>
      </trkpt>
      <trkpt lat="42.86464" lon="-2.31812">
        <ele>587.2</ele>
        <time>2021-05-29 07:30:12</time>
      </trkpt>
      <trkpt lat="42.86469" lon="-2.31799">
        <ele>587.2</ele>
        <time>2021-05-29 07:30:13</time>
      </trkpt>
      <trkpt lat="42.86474" lon="-2.31787">
        <ele>587.2</ele>
        <time>2021-05-29 07:30:14</time>
      </trkpt>
      <trkpt lat="42.86478" lon="-2.31774">
        <ele>587.2</ele>
        <time>2021-05-29 07:30:15</time>
      </trkpt>
      <trkpt lat="42.86483" lon="-2.31762">
        <ele>587.2</ele>
        <time>2021-05-29 07:30:16</time>
      </trkpt>
      <trkpt lat="42.86486" lon="-2.31749">
        <ele>587.2</ele>
        <time>2021-05-29 07:30:17</time>
      </trkpt>
      <trkpt lat="42.86489" lon="-2.31736">
        <ele>587.2</ele>
        <time>2021-05-29 07:30:18</time>
      </trkpt>
      <trkpt lat="42.86492" lon="-2.31724">
        <ele>587</ele>
        <time>2021-05-29 07:30:19</time>
      </trkpt>
      <trkpt lat="42.86494" lon="-2.31711">
        <ele>587</ele>
        <time>2021-05-29 07:30:20</time>
      </trkpt>
      <trkpt lat="42.86496" lon="-2.31699">
        <ele>587</ele>
        <time>2021-05-29 07:30:21</time>
      </trkpt>
      <trkpt lat="42.86498" lon="-2.31687">
        <ele>587</ele>
        <time>2021-05-29 07:30:22</time>
      </trkpt>
      <trkpt lat="42.865" lon="-2.31675">
        <ele>587</ele>
        <time>2021-05-29 07:30:23</time>
      </trkpt>
      <trkpt lat="42.86501" lon="-2.31663">
        <ele>587</ele>
        <time>2021-05-29 07:30:24</time>
      </trkpt>
      <trkpt lat="42.86503" lon="-2.31652">
        <ele>587</ele>
        <time>2021-05-29 07:30:25</time>
      </trkpt>
      <trkpt lat="42.86504" lon="-2.31641">
        <ele>587.2</ele>
        <time>2021-05-29 07:30:26</time>
      </trkpt>
      <trkpt lat="42.86505" lon="-2.3163">
        <ele>587.2</ele>
        <time>2021-05-29 07:30:27</time>
      </trkpt>
      <trkpt lat="42.86507" lon="-2.31619">
        <ele>587.2</ele>
        <time>2021-05-29 07:30:28</time>
      </trkpt>
      <trkpt lat="42.86508" lon="-2.31609">
        <ele>587.2</ele>
        <time>2021-05-29 07:30:29</time>
      </trkpt>
      <trkpt lat="42.8651" lon="-2.316">
        <ele>587.2</ele>
        <time>2021-05-29 07:30:30</time>
      </trkpt>
      <trkpt lat="42.86511" lon="-2.3159">
        <ele>587.2</ele>
        <time>2021-05-29 07:30:31</time>
      </trkpt>
      <trkpt lat="42.86512" lon="-2.3158">
        <ele>587.2</ele>
        <time>2021-05-29 07:30:32</time>
      </trkpt>
      <trkpt lat="42.86513" lon="-2.3157">
        <ele>587.2</ele>
        <time>2021-05-29 07:30:33</time>
      </trkpt>
      <trkpt lat="42.86514" lon="-2.31561">
        <ele>587.2</ele>
        <time>2021-05-29 07:30:34</time>
      </trkpt>
      <trkpt lat="42.86515" lon="-2.31551">
        <ele>587.4</ele>
        <time>2021-05-29 07:30:35</time>
      </trkpt>
      <trkpt lat="42.86517" lon="-2.31542">
        <ele>587.4</ele>
        <time>2021-05-29 07:30:36</time>
      </trkpt>
      <trkpt lat="42.86518" lon="-2.31532">
        <ele>587.4</ele>
        <time>2021-05-29 07:30:37</time>
      </trkpt>
      <trkpt lat="42.86519" lon="-2.31523">
        <ele>587.4</ele>
        <time>2021-05-29 07:30:38</time>
      </trkpt>
      <trkpt lat="42.8652" lon="-2.31513">
        <ele>587.4</ele>
        <time>2021-05-29 07:30:39</time>
      </trkpt>
      <trkpt lat="42.86522" lon="-2.31503">
        <ele>587.4</ele>
        <time>2021-05-29 07:30:40</time>
      </trkpt>
      <trkpt lat="42.86523" lon="-2.31494">
        <ele>587.4</ele>
        <time>2021-05-29 07:30:41</time>
      </trkpt>
      <trkpt lat="42.86525" lon="-2.31484">
        <ele>587.4</ele>
        <time>2021-05-29 07:30:42</time>
      </trkpt>
      <trkpt lat="42.86526" lon="-2.31474">
        <ele>587.4</ele>
        <time>2021-05-29 07:30:43</time>
      </trkpt>
      <trkpt lat="42.86527" lon="-2.31465">
        <ele>587.4</ele>
        <time>2021-05-29 07:30:44</time>
      </trkpt>
      <trkpt lat="42.86529" lon="-2.31455">
        <ele>587.4</ele>
        <time>2021-05-29 07:30:45</time>
      </trkpt>
      <trkpt lat="42.86531" lon="-2.31445">
        <ele>587.4</ele>
        <time>2021-05-29 07:30:46</time>
      </trkpt>
      <trkpt lat="42.86532" lon="-2.31436">
        <ele>587.4</ele>
        <time>2021-05-29 07:30:47</time>
      </trkpt>
      <trkpt lat="42.86533" lon="-2.31426">
        <ele>587.4</ele>
        <time>2021-05-29 07:30:48</time>
      </trkpt>
      <trkpt lat="42.86535" lon="-2.31416">
        <ele>587.4</ele>
        <time>2021-05-29 07:30:49</time>
      </trkpt>
      <trkpt lat="42.86536" lon="-2.31407">
        <ele>587.4</ele>
        <time>2021-05-29 07:30:50</time>
      </trkpt>
      <trkpt lat="42.86537" lon="-2.31397">
        <ele>587.4</ele>
        <time>2021-05-29 07:30:51</time>
      </trkpt>
      <trkpt lat="42.86539" lon="-2.31387">
        <ele>587.4</ele>
        <time>2021-05-29 07:30:52</time>
      </trkpt>
      <trkpt lat="42.8654" lon="-2.31377">
        <ele>587.4</ele>
        <time>2021-05-29 07:30:53</time>
      </trkpt>
      <trkpt lat="42.86542" lon="-2.31367">
        <ele>587.4</ele>
        <time>2021-05-29 07:30:54</time>
      </trkpt>
      <trkpt lat="42.86543" lon="-2.31357">
        <ele>587.4</ele>
        <time>2021-05-29 07:30:55</time>
      </trkpt>
      <trkpt lat="42.86545" lon="-2.31347">
        <ele>587.4</ele>
        <time>2021-05-29 07:30:56</time>
      </trkpt>
      <trkpt lat="42.86546" lon="-2.31337">
        <ele>587.4</ele>
        <time>2021-05-29 07:30:57</time>
      </trkpt>
      <trkpt lat="42.86548" lon="-2.31328">
        <ele>587.4</ele>
        <time>2021-05-29 07:30:58</time>
      </trkpt>
      <trkpt lat="42.86549" lon="-2.31318">
        <ele>587.2</ele>
        <time>2021-05-29 07:30:59</time>
      </trkpt>
      <trkpt lat="42.86551" lon="-2.31308">
        <ele>587.2</ele>
        <time>2021-05-29 07:31:00</time>
      </trkpt>
      <trkpt lat="42.86552" lon="-2.31298">
        <ele>587.2</ele>
        <time>2021-05-29 07:31:01</time>
      </trkpt>
      <trkpt lat="42.86553" lon="-2.31288">
        <ele>587.2</ele>
        <time>2021-05-29 07:31:02</time>
      </trkpt>
      <trkpt lat="42.86555" lon="-2.31278">
        <ele>587.2</ele>
        <time>2021-05-29 07:31:03</time>
      </trkpt>
      <trkpt lat="42.86556" lon="-2.31268">
        <ele>587.2</ele>
        <time>2021-05-29 07:31:04</time>
      </trkpt>
      <trkpt lat="42.86557" lon="-2.31257">
        <ele>587.2</ele>
        <time>2021-05-29 07:31:05</time>
      </trkpt>
      <trkpt lat="42.86559" lon="-2.31246">
        <ele>587.2</ele>
        <time>2021-05-29 07:31:06</time>
      </trkpt>
      <trkpt lat="42.86559" lon="-2.31235">
        <ele>587.2</ele>
        <time>2021-05-29 07:31:07</time>
      </trkpt>
      <trkpt lat="42.8656" lon="-2.31223">
        <ele>587.2</ele>
        <time>2021-05-29 07:31:08</time>
      </trkpt>
      <trkpt lat="42.8656" lon="-2.31211">
        <ele>587</ele>
        <time>2021-05-29 07:31:09</time>
      </trkpt>
      <trkpt lat="42.86561" lon="-2.31199">
        <ele>587</ele>
        <time>2021-05-29 07:31:10</time>
      </trkpt>
      <trkpt lat="42.86561" lon="-2.31187">
        <ele>587</ele>
        <time>2021-05-29 07:31:11</time>
      </trkpt>
      <trkpt lat="42.86562" lon="-2.31174">
        <ele>587</ele>
        <time>2021-05-29 07:31:12</time>
      </trkpt>
      <trkpt lat="42.86562" lon="-2.31161">
        <ele>587</ele>
        <time>2021-05-29 07:31:13</time>
      </trkpt>
      <trkpt lat="42.86563" lon="-2.31148">
        <ele>587</ele>
        <time>2021-05-29 07:31:14</time>
      </trkpt>
      <trkpt lat="42.86563" lon="-2.31135">
        <ele>587</ele>
        <time>2021-05-29 07:31:15</time>
      </trkpt>
      <trkpt lat="42.86563" lon="-2.31121">
        <ele>587</ele>
        <time>2021-05-29 07:31:16</time>
      </trkpt>
      <trkpt lat="42.86564" lon="-2.31107">
        <ele>586.8</ele>
        <time>2021-05-29 07:31:17</time>
      </trkpt>
      <trkpt lat="42.86564" lon="-2.31093">
        <ele>586.8</ele>
        <time>2021-05-29 07:31:18</time>
      </trkpt>
      <trkpt lat="42.86564" lon="-2.31078">
        <ele>586.8</ele>
        <time>2021-05-29 07:31:19</time>
      </trkpt>
      <trkpt lat="42.86564" lon="-2.31064">
        <ele>586.8</ele>
        <time>2021-05-29 07:31:20</time>
      </trkpt>
      <trkpt lat="42.86565" lon="-2.31049">
        <ele>586.6</ele>
        <time>2021-05-29 07:31:21</time>
      </trkpt>
      <trkpt lat="42.86565" lon="-2.31034">
        <ele>586.6</ele>
        <time>2021-05-29 07:31:22</time>
      </trkpt>
      <trkpt lat="42.86565" lon="-2.31018">
        <ele>586.6</ele>
        <time>2021-05-29 07:31:23</time>
      </trkpt>
      <trkpt lat="42.86565" lon="-2.31003">
        <ele>586.6</ele>
        <time>2021-05-29 07:31:24</time>
      </trkpt>
      <trkpt lat="42.86566" lon="-2.30988">
        <ele>586.6</ele>
        <time>2021-05-29 07:31:25</time>
      </trkpt>
      <trkpt lat="42.86567" lon="-2.30972">
        <ele>586.4</ele>
        <time>2021-05-29 07:31:26</time>
      </trkpt>
      <trkpt lat="42.86567" lon="-2.30957">
        <ele>586.4</ele>
        <time>2021-05-29 07:31:27</time>
      </trkpt>
      <trkpt lat="42.86567" lon="-2.30942">
        <ele>586.4</ele>
        <time>2021-05-29 07:31:28</time>
      </trkpt>
      <trkpt lat="42.86568" lon="-2.30926">
        <ele>586.4</ele>
        <time>2021-05-29 07:31:29</time>
      </trkpt>
      <trkpt lat="42.86568" lon="-2.30911">
        <ele>586.2</ele>
        <time>2021-05-29 07:31:30</time>
      </trkpt>
      <trkpt lat="42.86569" lon="-2.30895">
        <ele>586.2</ele>
        <time>2021-05-29 07:31:31</time>
      </trkpt>
      <trkpt lat="42.86569" lon="-2.3088">
        <ele>586</ele>
        <time>2021-05-29 07:31:32</time>
      </trkpt>
      <trkpt lat="42.86569" lon="-2.30865">
        <ele>585.8</ele>
        <time>2021-05-29 07:31:33</time>
      </trkpt>
      <trkpt lat="42.8657" lon="-2.3085">
        <ele>585.8</ele>
        <time>2021-05-29 07:31:34</time>
      </trkpt>
      <trkpt lat="42.8657" lon="-2.30835">
        <ele>585.6</ele>
        <time>2021-05-29 07:31:35</time>
      </trkpt>
      <trkpt lat="42.8657" lon="-2.30819">
        <ele>585.6</ele>
        <time>2021-05-29 07:31:36</time>
      </trkpt>
      <trkpt lat="42.86571" lon="-2.30804">
        <ele>585.4</ele>
        <time>2021-05-29 07:31:37</time>
      </trkpt>
      <trkpt lat="42.86571" lon="-2.3079">
        <ele>585.4</ele>
        <time>2021-05-29 07:31:38</time>
      </trkpt>
      <trkpt lat="42.86571" lon="-2.30775">
        <ele>585.2</ele>
        <time>2021-05-29 07:31:39</time>
      </trkpt>
      <trkpt lat="42.86571" lon="-2.3076">
        <ele>585.2</ele>
        <time>2021-05-29 07:31:40</time>
      </trkpt>
      <trkpt lat="42.86571" lon="-2.30745">
        <ele>585.2</ele>
        <time>2021-05-29 07:31:41</time>
      </trkpt>
      <trkpt lat="42.86571" lon="-2.3073">
        <ele>585.2</ele>
        <time>2021-05-29 07:31:42</time>
      </trkpt>
      <trkpt lat="42.86572" lon="-2.30715">
        <ele>585.2</ele>
        <time>2021-05-29 07:31:43</time>
      </trkpt>
      <trkpt lat="42.86572" lon="-2.30701">
        <ele>585.2</ele>
        <time>2021-05-29 07:31:44</time>
      </trkpt>
      <trkpt lat="42.86572" lon="-2.30686">
        <ele>585.2</ele>
        <time>2021-05-29 07:31:45</time>
      </trkpt>
      <trkpt lat="42.86573" lon="-2.30672">
        <ele>585.2</ele>
        <time>2021-05-29 07:31:46</time>
      </trkpt>
      <trkpt lat="42.86573" lon="-2.30658">
        <ele>585.2</ele>
        <time>2021-05-29 07:31:47</time>
      </trkpt>
      <trkpt lat="42.86573" lon="-2.30644">
        <ele>585</ele>
        <time>2021-05-29 07:31:48</time>
      </trkpt>
      <trkpt lat="42.86574" lon="-2.3063">
        <ele>585</ele>
        <time>2021-05-29 07:31:49</time>
      </trkpt>
      <trkpt lat="42.86574" lon="-2.30616">
        <ele>585</ele>
        <time>2021-05-29 07:31:50</time>
      </trkpt>
      <trkpt lat="42.86574" lon="-2.30602">
        <ele>585</ele>
        <time>2021-05-29 07:31:51</time>
      </trkpt>
      <trkpt lat="42.86574" lon="-2.30589">
        <ele>585</ele>
        <time>2021-05-29 07:31:52</time>
      </trkpt>
      <trkpt lat="42.86575" lon="-2.30575">
        <ele>584.8</ele>
        <time>2021-05-29 07:31:53</time>
      </trkpt>
      <trkpt lat="42.86575" lon="-2.30561">
        <ele>584.8</ele>
        <time>2021-05-29 07:31:54</time>
      </trkpt>
      <trkpt lat="42.86575" lon="-2.30548">
        <ele>584.8</ele>
        <time>2021-05-29 07:31:55</time>
      </trkpt>
      <trkpt lat="42.86575" lon="-2.30534">
        <ele>584.8</ele>
        <time>2021-05-29 07:31:56</time>
      </trkpt>
      <trkpt lat="42.86576" lon="-2.30521">
        <ele>584.6</ele>
        <time>2021-05-29 07:31:57</time>
      </trkpt>
      <trkpt lat="42.86576" lon="-2.30507">
        <ele>584.6</ele>
        <time>2021-05-29 07:31:58</time>
      </trkpt>
      <trkpt lat="42.86576" lon="-2.30494">
        <ele>584.6</ele>
        <time>2021-05-29 07:31:59</time>
      </trkpt>
      <trkpt lat="42.86576" lon="-2.3048">
        <ele>584.4</ele>
        <time>2021-05-29 07:32:00</time>
      </trkpt>
      <trkpt lat="42.86577" lon="-2.30467">
        <ele>584.4</ele>
        <time>2021-05-29 07:32:01</time>
      </trkpt>
      <trkpt lat="42.86577" lon="-2.30454">
        <ele>584.4</ele>
        <time>2021-05-29 07:32:02</time>
      </trkpt>
      <trkpt lat="42.86578" lon="-2.30441">
        <ele>584.4</ele>
        <time>2021-05-29 07:32:03</time>
      </trkpt>
      <trkpt lat="42.86578" lon="-2.30429">
        <ele>584.4</ele>
        <time>2021-05-29 07:32:04</time>
      </trkpt>
      <trkpt lat="42.86578" lon="-2.30416">
        <ele>584.4</ele>
        <time>2021-05-29 07:32:05</time>
      </trkpt>
      <trkpt lat="42.86578" lon="-2.30404">
        <ele>584.4</ele>
        <time>2021-05-29 07:32:06</time>
      </trkpt>
      <trkpt lat="42.86578" lon="-2.30391">
        <ele>584.4</ele>
        <time>2021-05-29 07:32:07</time>
      </trkpt>
      <trkpt lat="42.86578" lon="-2.30379">
        <ele>584.4</ele>
        <time>2021-05-29 07:32:08</time>
      </trkpt>
      <trkpt lat="42.86579" lon="-2.30366">
        <ele>584.2</ele>
        <time>2021-05-29 07:32:09</time>
      </trkpt>
      <trkpt lat="42.86579" lon="-2.30354">
        <ele>584.2</ele>
        <time>2021-05-29 07:32:10</time>
      </trkpt>
      <trkpt lat="42.86579" lon="-2.30342">
        <ele>584.2</ele>
        <time>2021-05-29 07:32:11</time>
      </trkpt>
      <trkpt lat="42.86579" lon="-2.3033">
        <ele>584.2</ele>
        <time>2021-05-29 07:32:12</time>
      </trkpt>
      <trkpt lat="42.86579" lon="-2.30318">
        <ele>584.2</ele>
        <time>2021-05-29 07:32:13</time>
      </trkpt>
      <trkpt lat="42.86579" lon="-2.30306">
        <ele>584.2</ele>
        <time>2021-05-29 07:32:14</time>
      </trkpt>
      <trkpt lat="42.8658" lon="-2.30294">
        <ele>584.2</ele>
        <time>2021-05-29 07:32:15</time>
      </trkpt>
      <trkpt lat="42.8658" lon="-2.30283">
        <ele>584.2</ele>
        <time>2021-05-29 07:32:16</time>
      </trkpt>
      <trkpt lat="42.8658" lon="-2.30271">
        <ele>584.2</ele>
        <time>2021-05-29 07:32:17</time>
      </trkpt>
      <trkpt lat="42.8658" lon="-2.3026">
        <ele>584.4</ele>
        <time>2021-05-29 07:32:18</time>
      </trkpt>
      <trkpt lat="42.8658" lon="-2.30249">
        <ele>584.4</ele>
        <time>2021-05-29 07:32:19</time>
      </trkpt>
      <trkpt lat="42.8658" lon="-2.30238">
        <ele>584.4</ele>
        <time>2021-05-29 07:32:20</time>
      </trkpt>
      <trkpt lat="42.86581" lon="-2.30227">
        <ele>584.4</ele>
        <time>2021-05-29 07:32:21</time>
      </trkpt>
      <trkpt lat="42.86581" lon="-2.30216">
        <ele>584.4</ele>
        <time>2021-05-29 07:32:22</time>
      </trkpt>
      <trkpt lat="42.86581" lon="-2.30205">
        <ele>584.4</ele>
        <time>2021-05-29 07:32:23</time>
      </trkpt>
      <trkpt lat="42.86581" lon="-2.30195">
        <ele>584.4</ele>
        <time>2021-05-29 07:32:24</time>
      </trkpt>
      <trkpt lat="42.86582" lon="-2.30184">
        <ele>584.4</ele>
        <time>2021-05-29 07:32:25</time>
      </trkpt>
      <trkpt lat="42.86582" lon="-2.30174">
        <ele>584.4</ele>
        <time>2021-05-29 07:32:26</time>
      </trkpt>
      <trkpt lat="42.86582" lon="-2.30163">
        <ele>584.4</ele>
        <time>2021-05-29 07:32:27</time>
      </trkpt>
      <trkpt lat="42.86583" lon="-2.30153">
        <ele>584.4</ele>
        <time>2021-05-29 07:32:28</time>
      </trkpt>
      <trkpt lat="42.86583" lon="-2.30142">
        <ele>584.4</ele>
        <time>2021-05-29 07:32:29</time>
      </trkpt>
      <trkpt lat="42.86583" lon="-2.30132">
        <ele>584.4</ele>
        <time>2021-05-29 07:32:30</time>
      </trkpt>
      <trkpt lat="42.86584" lon="-2.30121">
        <ele>584.4</ele>
        <time>2021-05-29 07:32:31</time>
      </trkpt>
      <trkpt lat="42.86584" lon="-2.30111">
        <ele>584.4</ele>
        <time>2021-05-29 07:32:32</time>
      </trkpt>
      <trkpt lat="42.86584" lon="-2.301">
        <ele>584.4</ele>
        <time>2021-05-29 07:32:33</time>
      </trkpt>
      <trkpt lat="42.86585" lon="-2.3009">
        <ele>584.4</ele>
        <time>2021-05-29 07:32:34</time>
      </trkpt>
      <trkpt lat="42.86585" lon="-2.3008">
        <ele>584.4</ele>
        <time>2021-05-29 07:32:35</time>
      </trkpt>
      <trkpt lat="42.86585" lon="-2.3007">
        <ele>584.4</ele>
        <time>2021-05-29 07:32:36</time>
      </trkpt>
      <trkpt lat="42.86585" lon="-2.3006">
        <ele>584.6</ele>
        <time>2021-05-29 07:32:37</time>
      </trkpt>
      <trkpt lat="42.86585" lon="-2.3005">
        <ele>584.6</ele>
        <time>2021-05-29 07:32:38</time>
      </trkpt>
      <trkpt lat="42.86586" lon="-2.30041">
        <ele>584.6</ele>
        <time>2021-05-29 07:32:39</time>
      </trkpt>
      <trkpt lat="42.86586" lon="-2.30031">
        <ele>584.6</ele>
        <time>2021-05-29 07:32:40</time>
      </trkpt>
      <trkpt lat="42.86586" lon="-2.30022">
        <ele>584.6</ele>
        <time>2021-05-29 07:32:41</time>
      </trkpt>
      <trkpt lat="42.86586" lon="-2.30013">
        <ele>584.6</ele>
        <time>2021-05-29 07:32:42</time>
      </trkpt>
      <trkpt lat="42.86586" lon="-2.30003">
        <ele>584.6</ele>
        <time>2021-05-29 07:32:43</time>
      </trkpt>
      <trkpt lat="42.86586" lon="-2.29994">
        <ele>584.6</ele>
        <time>2021-05-29 07:32:44</time>
      </trkpt>
      <trkpt lat="42.86587" lon="-2.29985">
        <ele>584.6</ele>
        <time>2021-05-29 07:32:45</time>
      </trkpt>
      <trkpt lat="42.86587" lon="-2.29976">
        <ele>584.4</ele>
        <time>2021-05-29 07:32:46</time>
      </trkpt>
      <trkpt lat="42.86587" lon="-2.29967">
        <ele>584.4</ele>
        <time>2021-05-29 07:32:47</time>
      </trkpt>
      <trkpt lat="42.86587" lon="-2.29957">
        <ele>584.4</ele>
        <time>2021-05-29 07:32:48</time>
      </trkpt>
      <trkpt lat="42.86588" lon="-2.29948">
        <ele>584.4</ele>
        <time>2021-05-29 07:32:49</time>
      </trkpt>
      <trkpt lat="42.86588" lon="-2.29938">
        <ele>584.6</ele>
        <time>2021-05-29 07:32:50</time>
      </trkpt>
      <trkpt lat="42.86588" lon="-2.29929">
        <ele>584.6</ele>
        <time>2021-05-29 07:32:51</time>
      </trkpt>
      <trkpt lat="42.86589" lon="-2.29919">
        <ele>584.6</ele>
        <time>2021-05-29 07:32:52</time>
      </trkpt>
      <trkpt lat="42.86588" lon="-2.2991">
        <ele>584.6</ele>
        <time>2021-05-29 07:32:53</time>
      </trkpt>
      <trkpt lat="42.86588" lon="-2.299">
        <ele>584.6</ele>
        <time>2021-05-29 07:32:54</time>
      </trkpt>
      <trkpt lat="42.86587" lon="-2.29891">
        <ele>584.6</ele>
        <time>2021-05-29 07:32:55</time>
      </trkpt>
      <trkpt lat="42.86586" lon="-2.29881">
        <ele>584.6</ele>
        <time>2021-05-29 07:32:56</time>
      </trkpt>
      <trkpt lat="42.86585" lon="-2.29872">
        <ele>584.6</ele>
        <time>2021-05-29 07:32:57</time>
      </trkpt>
      <trkpt lat="42.86583" lon="-2.29862">
        <ele>584.6</ele>
        <time>2021-05-29 07:32:58</time>
      </trkpt>
      <trkpt lat="42.86581" lon="-2.29853">
        <ele>584.6</ele>
        <time>2021-05-29 07:32:59</time>
      </trkpt>
      <trkpt lat="42.86579" lon="-2.29843">
        <ele>584.6</ele>
        <time>2021-05-29 07:33:00</time>
      </trkpt>
      <trkpt lat="42.86576" lon="-2.29834">
        <ele>584.6</ele>
        <time>2021-05-29 07:33:01</time>
      </trkpt>
      <trkpt lat="42.86573" lon="-2.29824">
        <ele>584.6</ele>
        <time>2021-05-29 07:33:02</time>
      </trkpt>
      <trkpt lat="42.8657" lon="-2.29815">
        <ele>584.6</ele>
        <time>2021-05-29 07:33:03</time>
      </trkpt>
      <trkpt lat="42.86567" lon="-2.29806">
        <ele>584.4</ele>
        <time>2021-05-29 07:33:04</time>
      </trkpt>
      <trkpt lat="42.86563" lon="-2.29797">
        <ele>584.4</ele>
        <time>2021-05-29 07:33:05</time>
      </trkpt>
      <trkpt lat="42.86559" lon="-2.29788">
        <ele>584.4</ele>
        <time>2021-05-29 07:33:06</time>
      </trkpt>
      <trkpt lat="42.86556" lon="-2.29779">
        <ele>584.4</ele>
        <time>2021-05-29 07:33:07</time>
      </trkpt>
      <trkpt lat="42.86552" lon="-2.2977">
        <ele>584.4</ele>
        <time>2021-05-29 07:33:08</time>
      </trkpt>
      <trkpt lat="42.86548" lon="-2.29761">
        <ele>584.4</ele>
        <time>2021-05-29 07:33:09</time>
      </trkpt>
      <trkpt lat="42.86544" lon="-2.29751">
        <ele>584.4</ele>
        <time>2021-05-29 07:33:10</time>
      </trkpt>
      <trkpt lat="42.8654" lon="-2.29741">
        <ele>584.4</ele>
        <time>2021-05-29 07:33:11</time>
      </trkpt>
      <trkpt lat="42.86536" lon="-2.29732">
        <ele>584.4</ele>
        <time>2021-05-29 07:33:12</time>
      </trkpt>
      <trkpt lat="42.86532" lon="-2.29721">
        <ele>584.4</ele>
        <time>2021-05-29 07:33:13</time>
      </trkpt>
      <trkpt lat="42.86529" lon="-2.29711">
        <ele>584.4</ele>
        <time>2021-05-29 07:33:14</time>
      </trkpt>
      <trkpt lat="42.86526" lon="-2.297">
        <ele>584.4</ele>
        <time>2021-05-29 07:33:15</time>
      </trkpt>
      <trkpt lat="42.86523" lon="-2.29689">
        <ele>584.4</ele>
        <time>2021-05-29 07:33:16</time>
      </trkpt>
      <trkpt lat="42.8652" lon="-2.29678">
        <ele>584.4</ele>
        <time>2021-05-29 07:33:17</time>
      </trkpt>
      <trkpt lat="42.86518" lon="-2.29667">
        <ele>584.4</ele>
        <time>2021-05-29 07:33:18</time>
      </trkpt>
      <trkpt lat="42.86517" lon="-2.29655">
        <ele>584.4</ele>
        <time>2021-05-29 07:33:19</time>
      </trkpt>
      <trkpt lat="42.86516" lon="-2.29643">
        <ele>584.4</ele>
        <time>2021-05-29 07:33:20</time>
      </trkpt>
      <trkpt lat="42.86515" lon="-2.29631">
        <ele>584.4</ele>
        <time>2021-05-29 07:33:21</time>
      </trkpt>
      <trkpt lat="42.86515" lon="-2.29618">
        <ele>584.2</ele>
        <time>2021-05-29 07:33:22</time>
      </trkpt>
      <trkpt lat="42.86515" lon="-2.29605">
        <ele>584.2</ele>
        <time>2021-05-29 07:33:23</time>
      </trkpt>
      <trkpt lat="42.86515" lon="-2.29591">
        <ele>584.2</ele>
        <time>2021-05-29 07:33:24</time>
      </trkpt>
      <trkpt lat="42.86515" lon="-2.29578">
        <ele>584.2</ele>
        <time>2021-05-29 07:33:25</time>
      </trkpt>
      <trkpt lat="42.86515" lon="-2.29565">
        <ele>584.2</ele>
        <time>2021-05-29 07:33:26</time>
      </trkpt>
      <trkpt lat="42.86515" lon="-2.29551">
        <ele>584.2</ele>
        <time>2021-05-29 07:33:27</time>
      </trkpt>
      <trkpt lat="42.86515" lon="-2.29537">
        <ele>584.2</ele>
        <time>2021-05-29 07:33:28</time>
      </trkpt>
      <trkpt lat="42.86515" lon="-2.29523">
        <ele>584.2</ele>
        <time>2021-05-29 07:33:29</time>
      </trkpt>
      <trkpt lat="42.86515" lon="-2.29509">
        <ele>583.8</ele>
        <time>2021-05-29 07:33:30</time>
      </trkpt>
      <trkpt lat="42.86515" lon="-2.29495">
        <ele>583.8</ele>
        <time>2021-05-29 07:33:31</time>
      </trkpt>
      <trkpt lat="42.86516" lon="-2.2948">
        <ele>584</ele>
        <time>2021-05-29 07:33:32</time>
      </trkpt>
      <trkpt lat="42.86516" lon="-2.29465">
        <ele>584</ele>
        <time>2021-05-29 07:33:33</time>
      </trkpt>
      <trkpt lat="42.86516" lon="-2.29449">
        <ele>584</ele>
        <time>2021-05-29 07:33:34</time>
      </trkpt>
      <trkpt lat="42.86516" lon="-2.29434">
        <ele>583.8</ele>
        <time>2021-05-29 07:33:35</time>
      </trkpt>
      <trkpt lat="42.86515" lon="-2.29418">
        <ele>583.6</ele>
        <time>2021-05-29 07:33:36</time>
      </trkpt>
      <trkpt lat="42.86514" lon="-2.29403">
        <ele>583.6</ele>
        <time>2021-05-29 07:33:37</time>
      </trkpt>
      <trkpt lat="42.86511" lon="-2.29388">
        <ele>583.6</ele>
        <time>2021-05-29 07:33:38</time>
      </trkpt>
      <trkpt lat="42.86509" lon="-2.29373">
        <ele>583.4</ele>
        <time>2021-05-29 07:33:39</time>
      </trkpt>
      <trkpt lat="42.86505" lon="-2.29359">
        <ele>583.4</ele>
        <time>2021-05-29 07:33:40</time>
      </trkpt>
      <trkpt lat="42.86501" lon="-2.29346">
        <ele>583.4</ele>
        <time>2021-05-29 07:33:41</time>
      </trkpt>
      <trkpt lat="42.86496" lon="-2.29333">
        <ele>583.4</ele>
        <time>2021-05-29 07:33:42</time>
      </trkpt>
      <trkpt lat="42.86491" lon="-2.29321">
        <ele>583.4</ele>
        <time>2021-05-29 07:33:43</time>
      </trkpt>
      <trkpt lat="42.86486" lon="-2.2931">
        <ele>583.4</ele>
        <time>2021-05-29 07:33:44</time>
      </trkpt>
      <trkpt lat="42.8648" lon="-2.29299">
        <ele>583.2</ele>
        <time>2021-05-29 07:33:45</time>
      </trkpt>
      <trkpt lat="42.86473" lon="-2.29289">
        <ele>583.2</ele>
        <time>2021-05-29 07:33:46</time>
      </trkpt>
      <trkpt lat="42.86466" lon="-2.2928">
        <ele>583.2</ele>
        <time>2021-05-29 07:33:47</time>
      </trkpt>
      <trkpt lat="42.8646" lon="-2.29271">
        <ele>583.2</ele>
        <time>2021-05-29 07:33:48</time>
      </trkpt>
      <trkpt lat="42.86453" lon="-2.29264">
        <ele>583.2</ele>
        <time>2021-05-29 07:33:49</time>
      </trkpt>
      <trkpt lat="42.86446" lon="-2.29256">
        <ele>583.2</ele>
        <time>2021-05-29 07:33:50</time>
      </trkpt>
      <trkpt lat="42.86439" lon="-2.2925">
        <ele>583.2</ele>
        <time>2021-05-29 07:33:51</time>
      </trkpt>
      <trkpt lat="42.86432" lon="-2.29243">
        <ele>583.2</ele>
        <time>2021-05-29 07:33:52</time>
      </trkpt>
      <trkpt lat="42.86425" lon="-2.29238">
        <ele>583.2</ele>
        <time>2021-05-29 07:33:53</time>
      </trkpt>
      <trkpt lat="42.86419" lon="-2.29232">
        <ele>583.2</ele>
        <time>2021-05-29 07:33:54</time>
      </trkpt>
      <trkpt lat="42.86413" lon="-2.29226">
        <ele>583.2</ele>
        <time>2021-05-29 07:33:55</time>
      </trkpt>
      <trkpt lat="42.86406" lon="-2.29221">
        <ele>583.2</ele>
        <time>2021-05-29 07:33:56</time>
      </trkpt>
      <trkpt lat="42.86401" lon="-2.29216">
        <ele>583.2</ele>
        <time>2021-05-29 07:33:57</time>
      </trkpt>
      <trkpt lat="42.86395" lon="-2.29211">
        <ele>583.2</ele>
        <time>2021-05-29 07:33:58</time>
      </trkpt>
      <trkpt lat="42.8639" lon="-2.29206">
        <ele>583.2</ele>
        <time>2021-05-29 07:33:59</time>
      </trkpt>
      <trkpt lat="42.86384" lon="-2.292">
        <ele>583.2</ele>
        <time>2021-05-29 07:34:00</time>
      </trkpt>
      <trkpt lat="42.86379" lon="-2.29195">
        <ele>583.2</ele>
        <time>2021-05-29 07:34:01</time>
      </trkpt>
      <trkpt lat="42.86375" lon="-2.29189">
        <ele>583.4</ele>
        <time>2021-05-29 07:34:02</time>
      </trkpt>
      <trkpt lat="42.8637" lon="-2.29184">
        <ele>583.4</ele>
        <time>2021-05-29 07:34:03</time>
      </trkpt>
      <trkpt lat="42.86366" lon="-2.29178">
        <ele>583.4</ele>
        <time>2021-05-29 07:34:04</time>
      </trkpt>
      <trkpt lat="42.86361" lon="-2.29172">
        <ele>583.4</ele>
        <time>2021-05-29 07:34:05</time>
      </trkpt>
      <trkpt lat="42.86357" lon="-2.29166">
        <ele>583.4</ele>
        <time>2021-05-29 07:34:06</time>
      </trkpt>
      <trkpt lat="42.86353" lon="-2.2916">
        <ele>583.4</ele>
        <time>2021-05-29 07:34:07</time>
      </trkpt>
      <trkpt lat="42.8635" lon="-2.29153">
        <ele>583.4</ele>
        <time>2021-05-29 07:34:08</time>
      </trkpt>
      <trkpt lat="42.86347" lon="-2.29147">
        <ele>583.4</ele>
        <time>2021-05-29 07:34:09</time>
      </trkpt>
      <trkpt lat="42.86344" lon="-2.2914">
        <ele>583.4</ele>
        <time>2021-05-29 07:34:10</time>
      </trkpt>
      <trkpt lat="42.86341" lon="-2.29133">
        <ele>583.4</ele>
        <time>2021-05-29 07:34:11</time>
      </trkpt>
      <trkpt lat="42.86338" lon="-2.29127">
        <ele>583.4</ele>
        <time>2021-05-29 07:34:12</time>
      </trkpt>
      <trkpt lat="42.86335" lon="-2.2912">
        <ele>583.4</ele>
        <time>2021-05-29 07:34:13</time>
      </trkpt>
      <trkpt lat="42.86333" lon="-2.29113">
        <ele>583.4</ele>
        <time>2021-05-29 07:34:14</time>
      </trkpt>
      <trkpt lat="42.86331" lon="-2.29106">
        <ele>583.4</ele>
        <time>2021-05-29 07:34:15</time>
      </trkpt>
      <trkpt lat="42.86329" lon="-2.29099">
        <ele>583.4</ele>
        <time>2021-05-29 07:34:16</time>
      </trkpt>
      <trkpt lat="42.86327" lon="-2.29091">
        <ele>583.4</ele>
        <time>2021-05-29 07:34:17</time>
      </trkpt>
      <trkpt lat="42.86325" lon="-2.29084">
        <ele>583.6</ele>
        <time>2021-05-29 07:34:18</time>
      </trkpt>
      <trkpt lat="42.86324" lon="-2.29077">
        <ele>583.6</ele>
        <time>2021-05-29 07:34:19</time>
      </trkpt>
      <trkpt lat="42.86323" lon="-2.29069">
        <ele>583.6</ele>
        <time>2021-05-29 07:34:20</time>
      </trkpt>
      <trkpt lat="42.86322" lon="-2.29061">
        <ele>583.6</ele>
        <time>2021-05-29 07:34:21</time>
      </trkpt>
      <trkpt lat="42.86321" lon="-2.29054">
        <ele>583.6</ele>
        <time>2021-05-29 07:34:22</time>
      </trkpt>
      <trkpt lat="42.8632" lon="-2.29046">
        <ele>583.6</ele>
        <time>2021-05-29 07:34:23</time>
      </trkpt>
      <trkpt lat="42.8632" lon="-2.29038">
        <ele>583.6</ele>
        <time>2021-05-29 07:34:24</time>
      </trkpt>
      <trkpt lat="42.86319" lon="-2.29029">
        <ele>583.6</ele>
        <time>2021-05-29 07:34:25</time>
      </trkpt>
      <trkpt lat="42.86319" lon="-2.29021">
        <ele>583.6</ele>
        <time>2021-05-29 07:34:26</time>
      </trkpt>
      <trkpt lat="42.8632" lon="-2.29012">
        <ele>583.6</ele>
        <time>2021-05-29 07:34:27</time>
      </trkpt>
      <trkpt lat="42.8632" lon="-2.29003">
        <ele>583.6</ele>
        <time>2021-05-29 07:34:28</time>
      </trkpt>
      <trkpt lat="42.86321" lon="-2.28994">
        <ele>583.4</ele>
        <time>2021-05-29 07:34:29</time>
      </trkpt>
      <trkpt lat="42.86322" lon="-2.28985">
        <ele>583.4</ele>
        <time>2021-05-29 07:34:30</time>
      </trkpt>
      <trkpt lat="42.86323" lon="-2.28975">
        <ele>583.6</ele>
        <time>2021-05-29 07:34:31</time>
      </trkpt>
      <trkpt lat="42.86324" lon="-2.28966">
        <ele>583.6</ele>
        <time>2021-05-29 07:34:32</time>
      </trkpt>
      <trkpt lat="42.86326" lon="-2.28956">
        <ele>583.6</ele>
        <time>2021-05-29 07:34:33</time>
      </trkpt>
      <trkpt lat="42.86328" lon="-2.28946">
        <ele>583.6</ele>
        <time>2021-05-29 07:34:34</time>
      </trkpt>
      <trkpt lat="42.86329" lon="-2.28936">
        <ele>583.6</ele>
        <time>2021-05-29 07:34:35</time>
      </trkpt>
      <trkpt lat="42.86331" lon="-2.28927">
        <ele>583.6</ele>
        <time>2021-05-29 07:34:36</time>
      </trkpt>
      <trkpt lat="42.86333" lon="-2.28916">
        <ele>583.6</ele>
        <time>2021-05-29 07:34:37</time>
      </trkpt>
      <trkpt lat="42.86335" lon="-2.28906">
        <ele>583.6</ele>
        <time>2021-05-29 07:34:38</time>
      </trkpt>
      <trkpt lat="42.86337" lon="-2.28896">
        <ele>583.6</ele>
        <time>2021-05-29 07:34:39</time>
      </trkpt>
      <trkpt lat="42.86338" lon="-2.28885">
        <ele>583.6</ele>
        <time>2021-05-29 07:34:40</time>
      </trkpt>
      <trkpt lat="42.8634" lon="-2.28875">
        <ele>583.6</ele>
        <time>2021-05-29 07:34:41</time>
      </trkpt>
      <trkpt lat="42.86341" lon="-2.28864">
        <ele>583.6</ele>
        <time>2021-05-29 07:34:42</time>
      </trkpt>
      <trkpt lat="42.86342" lon="-2.28853">
        <ele>583.6</ele>
        <time>2021-05-29 07:34:43</time>
      </trkpt>
      <trkpt lat="42.86342" lon="-2.28841">
        <ele>583.6</ele>
        <time>2021-05-29 07:34:44</time>
      </trkpt>
      <trkpt lat="42.86342" lon="-2.28829">
        <ele>583.6</ele>
        <time>2021-05-29 07:34:45</time>
      </trkpt>
      <trkpt lat="42.86342" lon="-2.28817">
        <ele>583.6</ele>
        <time>2021-05-29 07:34:46</time>
      </trkpt>
      <trkpt lat="42.86341" lon="-2.28805">
        <ele>583.6</ele>
        <time>2021-05-29 07:34:47</time>
      </trkpt>
      <trkpt lat="42.8634" lon="-2.28793">
        <ele>583.6</ele>
        <time>2021-05-29 07:34:48</time>
      </trkpt>
      <trkpt lat="42.86338" lon="-2.2878">
        <ele>583.6</ele>
        <time>2021-05-29 07:34:49</time>
      </trkpt>
      <trkpt lat="42.86336" lon="-2.28767">
        <ele>583.4</ele>
        <time>2021-05-29 07:34:50</time>
      </trkpt>
      <trkpt lat="42.86334" lon="-2.28754">
        <ele>583.4</ele>
        <time>2021-05-29 07:34:51</time>
      </trkpt>
      <trkpt lat="42.86332" lon="-2.2874">
        <ele>583.4</ele>
        <time>2021-05-29 07:34:52</time>
      </trkpt>
      <trkpt lat="42.8633" lon="-2.28726">
        <ele>583.4</ele>
        <time>2021-05-29 07:34:53</time>
      </trkpt>
      <trkpt lat="42.86328" lon="-2.28712">
        <ele>583.4</ele>
        <time>2021-05-29 07:34:54</time>
      </trkpt>
      <trkpt lat="42.86327" lon="-2.28697">
        <ele>583.4</ele>
        <time>2021-05-29 07:34:55</time>
      </trkpt>
      <trkpt lat="42.86327" lon="-2.28681">
        <ele>583.4</ele>
        <time>2021-05-29 07:34:56</time>
      </trkpt>
      <trkpt lat="42.86327" lon="-2.28666">
        <ele>583.4</ele>
        <time>2021-05-29 07:34:57</time>
      </trkpt>
      <trkpt lat="42.86327" lon="-2.28649">
        <ele>583.2</ele>
        <time>2021-05-29 07:34:58</time>
      </trkpt>
      <trkpt lat="42.86328" lon="-2.28632">
        <ele>583.2</ele>
        <time>2021-05-29 07:34:59</time>
      </trkpt>
      <trkpt lat="42.86329" lon="-2.28615">
        <ele>583.2</ele>
        <time>2021-05-29 07:35:00</time>
      </trkpt>
      <trkpt lat="42.8633" lon="-2.28597">
        <ele>583.2</ele>
        <time>2021-05-29 07:35:01</time>
      </trkpt>
      <trkpt lat="42.86331" lon="-2.2858">
        <ele>583.2</ele>
        <time>2021-05-29 07:35:02</time>
      </trkpt>
      <trkpt lat="42.86331" lon="-2.28563">
        <ele>583</ele>
        <time>2021-05-29 07:35:03</time>
      </trkpt>
      <trkpt lat="42.86332" lon="-2.28546">
        <ele>583</ele>
        <time>2021-05-29 07:35:04</time>
      </trkpt>
      <trkpt lat="42.86333" lon="-2.28529">
        <ele>583</ele>
        <time>2021-05-29 07:35:05</time>
      </trkpt>
      <trkpt lat="42.86334" lon="-2.28513">
        <ele>582.8</ele>
        <time>2021-05-29 07:35:06</time>
      </trkpt>
      <trkpt lat="42.86335" lon="-2.28496">
        <ele>582.8</ele>
        <time>2021-05-29 07:35:07</time>
      </trkpt>
      <trkpt lat="42.86336" lon="-2.2848">
        <ele>582.6</ele>
        <time>2021-05-29 07:35:08</time>
      </trkpt>
      <trkpt lat="42.86337" lon="-2.28464">
        <ele>582.4</ele>
        <time>2021-05-29 07:35:09</time>
      </trkpt>
      <trkpt lat="42.86337" lon="-2.28449">
        <ele>582.2</ele>
        <time>2021-05-29 07:35:10</time>
      </trkpt>
      <trkpt lat="42.86338" lon="-2.28434">
        <ele>582.2</ele>
        <time>2021-05-29 07:35:11</time>
      </trkpt>
      <trkpt lat="42.86339" lon="-2.2842">
        <ele>582.2</ele>
        <time>2021-05-29 07:35:12</time>
      </trkpt>
      <trkpt lat="42.8634" lon="-2.28406">
        <ele>582</ele>
        <time>2021-05-29 07:35:13</time>
      </trkpt>
      <trkpt lat="42.8634" lon="-2.28392">
        <ele>582</ele>
        <time>2021-05-29 07:35:14</time>
      </trkpt>
      <trkpt lat="42.86341" lon="-2.28379">
        <ele>582</ele>
        <time>2021-05-29 07:35:15</time>
      </trkpt>
      <trkpt lat="42.86342" lon="-2.28366">
        <ele>582</ele>
        <time>2021-05-29 07:35:16</time>
      </trkpt>
      <trkpt lat="42.86343" lon="-2.28354">
        <ele>582</ele>
        <time>2021-05-29 07:35:17</time>
      </trkpt>
      <trkpt lat="42.86343" lon="-2.28341">
        <ele>582</ele>
        <time>2021-05-29 07:35:18</time>
      </trkpt>
      <trkpt lat="42.86344" lon="-2.28329">
        <ele>582</ele>
        <time>2021-05-29 07:35:19</time>
      </trkpt>
      <trkpt lat="42.86344" lon="-2.28316">
        <ele>582</ele>
        <time>2021-05-29 07:35:20</time>
      </trkpt>
      <trkpt lat="42.86345" lon="-2.28304">
        <ele>581.8</ele>
        <time>2021-05-29 07:35:21</time>
      </trkpt>
      <trkpt lat="42.86346" lon="-2.28292">
        <ele>582</ele>
        <time>2021-05-29 07:35:22</time>
      </trkpt>
      <trkpt lat="42.86346" lon="-2.2828">
        <ele>581.8</ele>
        <time>2021-05-29 07:35:23</time>
      </trkpt>
      <trkpt lat="42.86347" lon="-2.28269">
        <ele>581.8</ele>
        <time>2021-05-29 07:35:24</time>
      </trkpt>
      <trkpt lat="42.86348" lon="-2.28257">
        <ele>581.8</ele>
        <time>2021-05-29 07:35:25</time>
      </trkpt>
      <trkpt lat="42.86348" lon="-2.28246">
        <ele>581.8</ele>
        <time>2021-05-29 07:35:26</time>
      </trkpt>
      <trkpt lat="42.86349" lon="-2.28235">
        <ele>581.8</ele>
        <time>2021-05-29 07:35:27</time>
      </trkpt>
      <trkpt lat="42.8635" lon="-2.28225">
        <ele>581.8</ele>
        <time>2021-05-29 07:35:28</time>
      </trkpt>
      <trkpt lat="42.8635" lon="-2.28215">
        <ele>581.8</ele>
        <time>2021-05-29 07:35:29</time>
      </trkpt>
      <trkpt lat="42.86351" lon="-2.28205">
        <ele>581.8</ele>
        <time>2021-05-29 07:35:30</time>
      </trkpt>
      <trkpt lat="42.86352" lon="-2.28194">
        <ele>581.8</ele>
        <time>2021-05-29 07:35:31</time>
      </trkpt>
      <trkpt lat="42.86352" lon="-2.28184">
        <ele>581.8</ele>
        <time>2021-05-29 07:35:32</time>
      </trkpt>
      <trkpt lat="42.86352" lon="-2.28174">
        <ele>581.8</ele>
        <time>2021-05-29 07:35:33</time>
      </trkpt>
      <trkpt lat="42.86353" lon="-2.28165">
        <ele>582</ele>
        <time>2021-05-29 07:35:34</time>
      </trkpt>
      <trkpt lat="42.86353" lon="-2.28155">
        <ele>581.6</ele>
        <time>2021-05-29 07:35:35</time>
      </trkpt>
      <trkpt lat="42.86354" lon="-2.28145">
        <ele>581.8</ele>
        <time>2021-05-29 07:35:36</time>
      </trkpt>
      <trkpt lat="42.86354" lon="-2.28135">
        <ele>581.6</ele>
        <time>2021-05-29 07:35:37</time>
      </trkpt>
      <trkpt lat="42.86355" lon="-2.28125">
        <ele>581.6</ele>
        <time>2021-05-29 07:35:38</time>
      </trkpt>
      <trkpt lat="42.86355" lon="-2.28115">
        <ele>582</ele>
        <time>2021-05-29 07:35:39</time>
      </trkpt>
      <trkpt lat="42.86356" lon="-2.28105">
        <ele>581.8</ele>
        <time>2021-05-29 07:35:40</time>
      </trkpt>
      <trkpt lat="42.86356" lon="-2.28095">
        <ele>581.8</ele>
        <time>2021-05-29 07:35:41</time>
      </trkpt>
      <trkpt lat="42.86357" lon="-2.28086">
        <ele>581.8</ele>
        <time>2021-05-29 07:35:42</time>
      </trkpt>
      <trkpt lat="42.86357" lon="-2.28076">
        <ele>581.8</ele>
        <time>2021-05-29 07:35:43</time>
      </trkpt>
      <trkpt lat="42.86357" lon="-2.28066">
        <ele>582</ele>
        <time>2021-05-29 07:35:44</time>
      </trkpt>
      <trkpt lat="42.86357" lon="-2.28056">
        <ele>582</ele>
        <time>2021-05-29 07:35:45</time>
      </trkpt>
      <trkpt lat="42.86357" lon="-2.28047">
        <ele>582</ele>
        <time>2021-05-29 07:35:46</time>
      </trkpt>
      <trkpt lat="42.86358" lon="-2.28037">
        <ele>582</ele>
        <time>2021-05-29 07:35:47</time>
      </trkpt>
      <trkpt lat="42.86358" lon="-2.28028">
        <ele>582</ele>
        <time>2021-05-29 07:35:48</time>
      </trkpt>
      <trkpt lat="42.86358" lon="-2.28018">
        <ele>582</ele>
        <time>2021-05-29 07:35:49</time>
      </trkpt>
      <trkpt lat="42.86358" lon="-2.28009">
        <ele>582</ele>
        <time>2021-05-29 07:35:50</time>
      </trkpt>
      <trkpt lat="42.86358" lon="-2.27999">
        <ele>581.8</ele>
        <time>2021-05-29 07:35:51</time>
      </trkpt>
      <trkpt lat="42.86358" lon="-2.2799">
        <ele>581.8</ele>
        <time>2021-05-29 07:35:52</time>
      </trkpt>
      <trkpt lat="42.86358" lon="-2.27981">
        <ele>581.8</ele>
        <time>2021-05-29 07:35:53</time>
      </trkpt>
      <trkpt lat="42.86358" lon="-2.27972">
        <ele>581.8</ele>
        <time>2021-05-29 07:35:54</time>
      </trkpt>
      <trkpt lat="42.86357" lon="-2.27962">
        <ele>581.8</ele>
        <time>2021-05-29 07:35:55</time>
      </trkpt>
      <trkpt lat="42.86357" lon="-2.27953">
        <ele>582</ele>
        <time>2021-05-29 07:35:56</time>
      </trkpt>
      <trkpt lat="42.86357" lon="-2.27943">
        <ele>582</ele>
        <time>2021-05-29 07:35:57</time>
      </trkpt>
      <trkpt lat="42.86357" lon="-2.27934">
        <ele>582</ele>
        <time>2021-05-29 07:35:58</time>
      </trkpt>
      <trkpt lat="42.86357" lon="-2.27924">
        <ele>582</ele>
        <time>2021-05-29 07:35:59</time>
      </trkpt>
      <trkpt lat="42.86356" lon="-2.27915">
        <ele>582</ele>
        <time>2021-05-29 07:36:00</time>
      </trkpt>
      <trkpt lat="42.86356" lon="-2.27906">
        <ele>582</ele>
        <time>2021-05-29 07:36:01</time>
      </trkpt>
      <trkpt lat="42.86356" lon="-2.27896">
        <ele>582</ele>
        <time>2021-05-29 07:36:02</time>
      </trkpt>
      <trkpt lat="42.86356" lon="-2.27887">
        <ele>582</ele>
        <time>2021-05-29 07:36:03</time>
      </trkpt>
      <trkpt lat="42.86355" lon="-2.27878">
        <ele>582</ele>
        <time>2021-05-29 07:36:04</time>
      </trkpt>
      <trkpt lat="42.86355" lon="-2.27868">
        <ele>582.2</ele>
        <time>2021-05-29 07:36:05</time>
      </trkpt>
      <trkpt lat="42.86355" lon="-2.27859">
        <ele>582.2</ele>
        <time>2021-05-29 07:36:06</time>
      </trkpt>
      <trkpt lat="42.86355" lon="-2.27849">
        <ele>582.2</ele>
        <time>2021-05-29 07:36:07</time>
      </trkpt>
      <trkpt lat="42.86355" lon="-2.27839">
        <ele>582.2</ele>
        <time>2021-05-29 07:36:08</time>
      </trkpt>
      <trkpt lat="42.86354" lon="-2.2783">
        <ele>582.2</ele>
        <time>2021-05-29 07:36:09</time>
      </trkpt>
      <trkpt lat="42.86354" lon="-2.2782">
        <ele>582.2</ele>
        <time>2021-05-29 07:36:10</time>
      </trkpt>
      <trkpt lat="42.86354" lon="-2.2781">
        <ele>582.2</ele>
        <time>2021-05-29 07:36:11</time>
      </trkpt>
      <trkpt lat="42.86354" lon="-2.278">
        <ele>582.4</ele>
        <time>2021-05-29 07:36:12</time>
      </trkpt>
      <trkpt lat="42.86353" lon="-2.2779">
        <ele>582.4</ele>
        <time>2021-05-29 07:36:13</time>
      </trkpt>
      <trkpt lat="42.86353" lon="-2.2778">
        <ele>582.4</ele>
        <time>2021-05-29 07:36:14</time>
      </trkpt>
      <trkpt lat="42.86353" lon="-2.2777">
        <ele>582.4</ele>
        <time>2021-05-29 07:36:15</time>
      </trkpt>
      <trkpt lat="42.86353" lon="-2.27759">
        <ele>582.4</ele>
        <time>2021-05-29 07:36:16</time>
      </trkpt>
      <trkpt lat="42.86353" lon="-2.27749">
        <ele>582.4</ele>
        <time>2021-05-29 07:36:17</time>
      </trkpt>
      <trkpt lat="42.86353" lon="-2.27739">
        <ele>582.4</ele>
        <time>2021-05-29 07:36:18</time>
      </trkpt>
      <trkpt lat="42.86353" lon="-2.27728">
        <ele>582.4</ele>
        <time>2021-05-29 07:36:19</time>
      </trkpt>
      <trkpt lat="42.86354" lon="-2.27717">
        <ele>582.4</ele>
        <time>2021-05-29 07:36:20</time>
      </trkpt>
      <trkpt lat="42.86354" lon="-2.27706">
        <ele>582.4</ele>
        <time>2021-05-29 07:36:21</time>
      </trkpt>
      <trkpt lat="42.86354" lon="-2.27694">
        <ele>582.4</ele>
        <time>2021-05-29 07:36:22</time>
      </trkpt>
      <trkpt lat="42.86354" lon="-2.27683">
        <ele>582.4</ele>
        <time>2021-05-29 07:36:23</time>
      </trkpt>
      <trkpt lat="42.86354" lon="-2.27671">
        <ele>582.4</ele>
        <time>2021-05-29 07:36:24</time>
      </trkpt>
      <trkpt lat="42.86355" lon="-2.2766">
        <ele>582.4</ele>
        <time>2021-05-29 07:36:25</time>
      </trkpt>
      <trkpt lat="42.86355" lon="-2.27648">
        <ele>582.4</ele>
        <time>2021-05-29 07:36:26</time>
      </trkpt>
      <trkpt lat="42.86355" lon="-2.27636">
        <ele>582.4</ele>
        <time>2021-05-29 07:36:27</time>
      </trkpt>
      <trkpt lat="42.86355" lon="-2.27624">
        <ele>582.4</ele>
        <time>2021-05-29 07:36:28</time>
      </trkpt>
      <trkpt lat="42.86355" lon="-2.27613">
        <ele>582.4</ele>
        <time>2021-05-29 07:36:29</time>
      </trkpt>
      <trkpt lat="42.86356" lon="-2.27601">
        <ele>582.2</ele>
        <time>2021-05-29 07:36:30</time>
      </trkpt>
      <trkpt lat="42.86356" lon="-2.2759">
        <ele>582.2</ele>
        <time>2021-05-29 07:36:31</time>
      </trkpt>
      <trkpt lat="42.86356" lon="-2.27578">
        <ele>582.2</ele>
        <time>2021-05-29 07:36:32</time>
      </trkpt>
      <trkpt lat="42.86356" lon="-2.27566">
        <ele>582.2</ele>
        <time>2021-05-29 07:36:33</time>
      </trkpt>
      <trkpt lat="42.86357" lon="-2.27553">
        <ele>582.2</ele>
        <time>2021-05-29 07:36:34</time>
      </trkpt>
      <trkpt lat="42.86357" lon="-2.27541">
        <ele>582.2</ele>
        <time>2021-05-29 07:36:35</time>
      </trkpt>
      <trkpt lat="42.86357" lon="-2.27528">
        <ele>582.2</ele>
        <time>2021-05-29 07:36:36</time>
      </trkpt>
      <trkpt lat="42.86357" lon="-2.27515">
        <ele>582.2</ele>
        <time>2021-05-29 07:36:37</time>
      </trkpt>
      <trkpt lat="42.86357" lon="-2.27503">
        <ele>582.2</ele>
        <time>2021-05-29 07:36:38</time>
      </trkpt>
      <trkpt lat="42.86357" lon="-2.2749">
        <ele>582.2</ele>
        <time>2021-05-29 07:36:39</time>
      </trkpt>
      <trkpt lat="42.86358" lon="-2.27476">
        <ele>582</ele>
        <time>2021-05-29 07:36:40</time>
      </trkpt>
      <trkpt lat="42.86358" lon="-2.27463">
        <ele>582</ele>
        <time>2021-05-29 07:36:41</time>
      </trkpt>
      <trkpt lat="42.86358" lon="-2.2745">
        <ele>582</ele>
        <time>2021-05-29 07:36:42</time>
      </trkpt>
      <trkpt lat="42.86359" lon="-2.27436">
        <ele>582</ele>
        <time>2021-05-29 07:36:43</time>
      </trkpt>
      <trkpt lat="42.86359" lon="-2.27422">
        <ele>582</ele>
        <time>2021-05-29 07:36:44</time>
      </trkpt>
      <trkpt lat="42.86359" lon="-2.27408">
        <ele>582</ele>
        <time>2021-05-29 07:36:45</time>
      </trkpt>
      <trkpt lat="42.86359" lon="-2.27394">
        <ele>582</ele>
        <time>2021-05-29 07:36:46</time>
      </trkpt>
      <trkpt lat="42.86359" lon="-2.2738">
        <ele>582</ele>
        <time>2021-05-29 07:36:47</time>
      </trkpt>
      <trkpt lat="42.86359" lon="-2.27365">
        <ele>582</ele>
        <time>2021-05-29 07:36:48</time>
      </trkpt>
      <trkpt lat="42.8636" lon="-2.2735">
        <ele>582</ele>
        <time>2021-05-29 07:36:49</time>
      </trkpt>
      <trkpt lat="42.8636" lon="-2.27336">
        <ele>582</ele>
        <time>2021-05-29 07:36:50</time>
      </trkpt>
      <trkpt lat="42.8636" lon="-2.27321">
        <ele>582</ele>
        <time>2021-05-29 07:36:51</time>
      </trkpt>
      <trkpt lat="42.86361" lon="-2.27306">
        <ele>582</ele>
        <time>2021-05-29 07:36:52</time>
      </trkpt>
      <trkpt lat="42.86361" lon="-2.27291">
        <ele>581.8</ele>
        <time>2021-05-29 07:36:53</time>
      </trkpt>
      <trkpt lat="42.86361" lon="-2.27276">
        <ele>581.8</ele>
        <time>2021-05-29 07:36:54</time>
      </trkpt>
      <trkpt lat="42.86361" lon="-2.27262">
        <ele>581.8</ele>
        <time>2021-05-29 07:36:55</time>
      </trkpt>
      <trkpt lat="42.86361" lon="-2.27247">
        <ele>581.8</ele>
        <time>2021-05-29 07:36:56</time>
      </trkpt>
      <trkpt lat="42.86361" lon="-2.27232">
        <ele>581.8</ele>
        <time>2021-05-29 07:36:57</time>
      </trkpt>
      <trkpt lat="42.86361" lon="-2.27217">
        <ele>581.8</ele>
        <time>2021-05-29 07:36:58</time>
      </trkpt>
      <trkpt lat="42.86361" lon="-2.27202">
        <ele>581.8</ele>
        <time>2021-05-29 07:36:59</time>
      </trkpt>
      <trkpt lat="42.86361" lon="-2.27187">
        <ele>581.8</ele>
        <time>2021-05-29 07:37:00</time>
      </trkpt>
      <trkpt lat="42.86361" lon="-2.27172">
        <ele>581.8</ele>
        <time>2021-05-29 07:37:01</time>
      </trkpt>
      <trkpt lat="42.86361" lon="-2.27158">
        <ele>581.8</ele>
        <time>2021-05-29 07:37:02</time>
      </trkpt>
      <trkpt lat="42.86362" lon="-2.27143">
        <ele>581.8</ele>
        <time>2021-05-29 07:37:03</time>
      </trkpt>
      <trkpt lat="42.86362" lon="-2.27128">
        <ele>581.8</ele>
        <time>2021-05-29 07:37:04</time>
      </trkpt>
      <trkpt lat="42.86362" lon="-2.27114">
        <ele>581.8</ele>
        <time>2021-05-29 07:37:05</time>
      </trkpt>
      <trkpt lat="42.86362" lon="-2.27099">
        <ele>581.8</ele>
        <time>2021-05-29 07:37:06</time>
      </trkpt>
      <trkpt lat="42.86361" lon="-2.27084">
        <ele>581.8</ele>
        <time>2021-05-29 07:37:07</time>
      </trkpt>
      <trkpt lat="42.86361" lon="-2.27069">
        <ele>581.8</ele>
        <time>2021-05-29 07:37:08</time>
      </trkpt>
      <trkpt lat="42.86362" lon="-2.27054">
        <ele>581.8</ele>
        <time>2021-05-29 07:37:09</time>
      </trkpt>
      <trkpt lat="42.86362" lon="-2.2704">
        <ele>581.8</ele>
        <time>2021-05-29 07:37:10</time>
      </trkpt>
      <trkpt lat="42.86362" lon="-2.27025">
        <ele>581.8</ele>
        <time>2021-05-29 07:37:11</time>
      </trkpt>
      <trkpt lat="42.86362" lon="-2.27011">
        <ele>581.8</ele>
        <time>2021-05-29 07:37:12</time>
      </trkpt>
      <trkpt lat="42.86363" lon="-2.26997">
        <ele>581.8</ele>
        <time>2021-05-29 07:37:13</time>
      </trkpt>
      <trkpt lat="42.86364" lon="-2.26983">
        <ele>581.8</ele>
        <time>2021-05-29 07:37:14</time>
      </trkpt>
      <trkpt lat="42.86367" lon="-2.2697">
        <ele>581.8</ele>
        <time>2021-05-29 07:37:15</time>
      </trkpt>
      <trkpt lat="42.86371" lon="-2.26957">
        <ele>581.8</ele>
        <time>2021-05-29 07:37:16</time>
      </trkpt>
      <trkpt lat="42.86375" lon="-2.26946">
        <ele>581.8</ele>
        <time>2021-05-29 07:37:17</time>
      </trkpt>
      <trkpt lat="42.8638" lon="-2.26934">
        <ele>581.8</ele>
        <time>2021-05-29 07:37:18</time>
      </trkpt>
      <trkpt lat="42.86383" lon="-2.26923">
        <ele>581.8</ele>
        <time>2021-05-29 07:37:19</time>
      </trkpt>
      <trkpt lat="42.86384" lon="-2.26912">
        <ele>581.6</ele>
        <time>2021-05-29 07:37:20</time>
      </trkpt>
      <trkpt lat="42.86382" lon="-2.26902">
        <ele>581.6</ele>
        <time>2021-05-29 07:37:21</time>
      </trkpt>
      <trkpt lat="42.86377" lon="-2.26893">
        <ele>581.6</ele>
        <time>2021-05-29 07:37:22</time>
      </trkpt>
      <trkpt lat="42.86372" lon="-2.26884">
        <ele>581.6</ele>
        <time>2021-05-29 07:37:23</time>
      </trkpt>
      <trkpt lat="42.86368" lon="-2.26874">
        <ele>581.8</ele>
        <time>2021-05-29 07:37:24</time>
      </trkpt>
      <trkpt lat="42.86367" lon="-2.26863">
        <ele>581.8</ele>
        <time>2021-05-29 07:37:25</time>
      </trkpt>
      <trkpt lat="42.86366" lon="-2.2685">
        <ele>581.8</ele>
        <time>2021-05-29 07:37:26</time>
      </trkpt>
      <trkpt lat="42.86367" lon="-2.26837">
        <ele>581.8</ele>
        <time>2021-05-29 07:37:27</time>
      </trkpt>
      <trkpt lat="42.86367" lon="-2.26824">
        <ele>581.6</ele>
        <time>2021-05-29 07:37:28</time>
      </trkpt>
      <trkpt lat="42.86367" lon="-2.2681">
        <ele>581.6</ele>
        <time>2021-05-29 07:37:29</time>
      </trkpt>
      <trkpt lat="42.86368" lon="-2.26796">
        <ele>581.6</ele>
        <time>2021-05-29 07:37:30</time>
      </trkpt>
      <trkpt lat="42.86368" lon="-2.26783">
        <ele>581.6</ele>
        <time>2021-05-29 07:37:31</time>
      </trkpt>
      <trkpt lat="42.86369" lon="-2.26769">
        <ele>581.6</ele>
        <time>2021-05-29 07:37:32</time>
      </trkpt>
      <trkpt lat="42.86371" lon="-2.26755">
        <ele>581.6</ele>
        <time>2021-05-29 07:37:33</time>
      </trkpt>
      <trkpt lat="42.86372" lon="-2.26741">
        <ele>581.6</ele>
        <time>2021-05-29 07:37:34</time>
      </trkpt>
      <trkpt lat="42.86374" lon="-2.26727">
        <ele>581.6</ele>
        <time>2021-05-29 07:37:35</time>
      </trkpt>
      <trkpt lat="42.86375" lon="-2.26712">
        <ele>581.6</ele>
        <time>2021-05-29 07:37:36</time>
      </trkpt>
      <trkpt lat="42.86377" lon="-2.26698">
        <ele>581.6</ele>
        <time>2021-05-29 07:37:37</time>
      </trkpt>
      <trkpt lat="42.86379" lon="-2.26683">
        <ele>581.6</ele>
        <time>2021-05-29 07:37:38</time>
      </trkpt>
      <trkpt lat="42.86381" lon="-2.26669">
        <ele>581.6</ele>
        <time>2021-05-29 07:37:39</time>
      </trkpt>
      <trkpt lat="42.86382" lon="-2.26655">
        <ele>581.6</ele>
        <time>2021-05-29 07:37:40</time>
      </trkpt>
      <trkpt lat="42.86383" lon="-2.26642">
        <ele>581.6</ele>
        <time>2021-05-29 07:37:41</time>
      </trkpt>
      <trkpt lat="42.86385" lon="-2.26629">
        <ele>581.4</ele>
        <time>2021-05-29 07:37:42</time>
      </trkpt>
      <trkpt lat="42.86386" lon="-2.26616">
        <ele>581.4</ele>
        <time>2021-05-29 07:37:43</time>
      </trkpt>
      <trkpt lat="42.86388" lon="-2.26604">
        <ele>581.4</ele>
        <time>2021-05-29 07:37:44</time>
      </trkpt>
      <trkpt lat="42.86389" lon="-2.26591">
        <ele>581.4</ele>
        <time>2021-05-29 07:37:45</time>
      </trkpt>
      <trkpt lat="42.86391" lon="-2.26577">
        <ele>581.4</ele>
        <time>2021-05-29 07:37:46</time>
      </trkpt>
      <trkpt lat="42.86393" lon="-2.26564">
        <ele>581.4</ele>
        <time>2021-05-29 07:37:47</time>
      </trkpt>
      <trkpt lat="42.86395" lon="-2.26551">
        <ele>581.4</ele>
        <time>2021-05-29 07:37:48</time>
      </trkpt>
      <trkpt lat="42.86397" lon="-2.26537">
        <ele>581.4</ele>
        <time>2021-05-29 07:37:49</time>
      </trkpt>
      <trkpt lat="42.86398" lon="-2.26524">
        <ele>581.4</ele>
        <time>2021-05-29 07:37:50</time>
      </trkpt>
      <trkpt lat="42.864" lon="-2.2651">
        <ele>581.2</ele>
        <time>2021-05-29 07:37:51</time>
      </trkpt>
      <trkpt lat="42.86401" lon="-2.26496">
        <ele>581.2</ele>
        <time>2021-05-29 07:37:52</time>
      </trkpt>
      <trkpt lat="42.86403" lon="-2.26482">
        <ele>581.2</ele>
        <time>2021-05-29 07:37:53</time>
      </trkpt>
      <trkpt lat="42.86404" lon="-2.26468">
        <ele>581.2</ele>
        <time>2021-05-29 07:37:54</time>
      </trkpt>
      <trkpt lat="42.86406" lon="-2.26454">
        <ele>581.2</ele>
        <time>2021-05-29 07:37:55</time>
      </trkpt>
      <trkpt lat="42.86407" lon="-2.2644">
        <ele>581.2</ele>
        <time>2021-05-29 07:37:56</time>
      </trkpt>
      <trkpt lat="42.86409" lon="-2.26426">
        <ele>581.2</ele>
        <time>2021-05-29 07:37:57</time>
      </trkpt>
      <trkpt lat="42.8641" lon="-2.26412">
        <ele>581.2</ele>
        <time>2021-05-29 07:37:58</time>
      </trkpt>
      <trkpt lat="42.86412" lon="-2.26398">
        <ele>581.2</ele>
        <time>2021-05-29 07:37:59</time>
      </trkpt>
      <trkpt lat="42.86414" lon="-2.26385">
        <ele>581.2</ele>
        <time>2021-05-29 07:38:00</time>
      </trkpt>
      <trkpt lat="42.86416" lon="-2.26371">
        <ele>581.2</ele>
        <time>2021-05-29 07:38:01</time>
      </trkpt>
      <trkpt lat="42.86417" lon="-2.26358">
        <ele>581.2</ele>
        <time>2021-05-29 07:38:02</time>
      </trkpt>
      <trkpt lat="42.86418" lon="-2.26345">
        <ele>581.2</ele>
        <time>2021-05-29 07:38:03</time>
      </trkpt>
      <trkpt lat="42.8642" lon="-2.26332">
        <ele>581.2</ele>
        <time>2021-05-29 07:38:04</time>
      </trkpt>
      <trkpt lat="42.86422" lon="-2.26319">
        <ele>581.2</ele>
        <time>2021-05-29 07:38:05</time>
      </trkpt>
      <trkpt lat="42.86423" lon="-2.26306">
        <ele>581.2</ele>
        <time>2021-05-29 07:38:06</time>
      </trkpt>
      <trkpt lat="42.86425" lon="-2.26293">
        <ele>581</ele>
        <time>2021-05-29 07:38:07</time>
      </trkpt>
      <trkpt lat="42.86427" lon="-2.2628">
        <ele>581</ele>
        <time>2021-05-29 07:38:08</time>
      </trkpt>
      <trkpt lat="42.86428" lon="-2.26266">
        <ele>581</ele>
        <time>2021-05-29 07:38:09</time>
      </trkpt>
      <trkpt lat="42.86429" lon="-2.26253">
        <ele>581</ele>
        <time>2021-05-29 07:38:10</time>
      </trkpt>
      <trkpt lat="42.8643" lon="-2.2624">
        <ele>581</ele>
        <time>2021-05-29 07:38:11</time>
      </trkpt>
      <trkpt lat="42.8643" lon="-2.26227">
        <ele>581</ele>
        <time>2021-05-29 07:38:12</time>
      </trkpt>
      <trkpt lat="42.86429" lon="-2.26215">
        <ele>581</ele>
        <time>2021-05-29 07:38:13</time>
      </trkpt>
      <trkpt lat="42.86428" lon="-2.26202">
        <ele>581</ele>
        <time>2021-05-29 07:38:14</time>
      </trkpt>
      <trkpt lat="42.86427" lon="-2.2619">
        <ele>581</ele>
        <time>2021-05-29 07:38:15</time>
      </trkpt>
      <trkpt lat="42.86426" lon="-2.26178">
        <ele>581</ele>
        <time>2021-05-29 07:38:16</time>
      </trkpt>
      <trkpt lat="42.86426" lon="-2.26166">
        <ele>581.2</ele>
        <time>2021-05-29 07:38:17</time>
      </trkpt>
      <trkpt lat="42.86425" lon="-2.26154">
        <ele>581.2</ele>
        <time>2021-05-29 07:38:18</time>
      </trkpt>
      <trkpt lat="42.86424" lon="-2.26142">
        <ele>581.2</ele>
        <time>2021-05-29 07:38:19</time>
      </trkpt>
      <trkpt lat="42.86423" lon="-2.2613">
        <ele>581.2</ele>
        <time>2021-05-29 07:38:20</time>
      </trkpt>
      <trkpt lat="42.86422" lon="-2.26119">
        <ele>581.2</ele>
        <time>2021-05-29 07:38:21</time>
      </trkpt>
      <trkpt lat="42.86422" lon="-2.26107">
        <ele>581.2</ele>
        <time>2021-05-29 07:38:22</time>
      </trkpt>
      <trkpt lat="42.86421" lon="-2.26096">
        <ele>581.2</ele>
        <time>2021-05-29 07:38:23</time>
      </trkpt>
      <trkpt lat="42.8642" lon="-2.26084">
        <ele>581.2</ele>
        <time>2021-05-29 07:38:24</time>
      </trkpt>
      <trkpt lat="42.86419" lon="-2.26074">
        <ele>581.2</ele>
        <time>2021-05-29 07:38:25</time>
      </trkpt>
      <trkpt lat="42.86419" lon="-2.26063">
        <ele>581.2</ele>
        <time>2021-05-29 07:38:26</time>
      </trkpt>
      <trkpt lat="42.86419" lon="-2.26053">
        <ele>581.4</ele>
        <time>2021-05-29 07:38:27</time>
      </trkpt>
      <trkpt lat="42.86419" lon="-2.26044">
        <ele>581.4</ele>
        <time>2021-05-29 07:38:28</time>
      </trkpt>
      <trkpt lat="42.86418" lon="-2.26035">
        <ele>581.4</ele>
        <time>2021-05-29 07:38:29</time>
      </trkpt>
      <trkpt lat="42.86418" lon="-2.26026">
        <ele>581.4</ele>
        <time>2021-05-29 07:38:30</time>
      </trkpt>
      <trkpt lat="42.86417" lon="-2.26016">
        <ele>581.4</ele>
        <time>2021-05-29 07:38:31</time>
      </trkpt>
      <trkpt lat="42.86416" lon="-2.26005">
        <ele>581.4</ele>
        <time>2021-05-29 07:38:32</time>
      </trkpt>
      <trkpt lat="42.86416" lon="-2.25994">
        <ele>581.4</ele>
        <time>2021-05-29 07:38:33</time>
      </trkpt>
      <trkpt lat="42.86416" lon="-2.25982">
        <ele>581.4</ele>
        <time>2021-05-29 07:38:34</time>
      </trkpt>
      <trkpt lat="42.86416" lon="-2.2597">
        <ele>581.4</ele>
        <time>2021-05-29 07:38:35</time>
      </trkpt>
      <trkpt lat="42.86416" lon="-2.25958">
        <ele>581.4</ele>
        <time>2021-05-29 07:38:36</time>
      </trkpt>
      <trkpt lat="42.86416" lon="-2.25945">
        <ele>581.6</ele>
        <time>2021-05-29 07:38:37</time>
      </trkpt>
      <trkpt lat="42.86416" lon="-2.25932">
        <ele>581.6</ele>
        <time>2021-05-29 07:38:38</time>
      </trkpt>
      <trkpt lat="42.86416" lon="-2.2592">
        <ele>581.6</ele>
        <time>2021-05-29 07:38:39</time>
      </trkpt>
      <trkpt lat="42.86416" lon="-2.25907">
        <ele>581.6</ele>
        <time>2021-05-29 07:38:40</time>
      </trkpt>
      <trkpt lat="42.86417" lon="-2.25894">
        <ele>581.6</ele>
        <time>2021-05-29 07:38:41</time>
      </trkpt>
      <trkpt lat="42.86418" lon="-2.25881">
        <ele>581.6</ele>
        <time>2021-05-29 07:38:42</time>
      </trkpt>
      <trkpt lat="42.86418" lon="-2.25869">
        <ele>581.6</ele>
        <time>2021-05-29 07:38:43</time>
      </trkpt>
      <trkpt lat="42.86419" lon="-2.25856">
        <ele>581.6</ele>
        <time>2021-05-29 07:38:44</time>
      </trkpt>
      <trkpt lat="42.8642" lon="-2.25842">
        <ele>581.6</ele>
        <time>2021-05-29 07:38:45</time>
      </trkpt>
      <trkpt lat="42.86422" lon="-2.25828">
        <ele>581.6</ele>
        <time>2021-05-29 07:38:46</time>
      </trkpt>
      <trkpt lat="42.86423" lon="-2.25814">
        <ele>581.6</ele>
        <time>2021-05-29 07:38:47</time>
      </trkpt>
      <trkpt lat="42.86426" lon="-2.25798">
        <ele>581.6</ele>
        <time>2021-05-29 07:38:48</time>
      </trkpt>
      <trkpt lat="42.86427" lon="-2.25782">
        <ele>581.6</ele>
        <time>2021-05-29 07:38:49</time>
      </trkpt>
      <trkpt lat="42.86428" lon="-2.25764">
        <ele>581.6</ele>
        <time>2021-05-29 07:38:50</time>
      </trkpt>
      <trkpt lat="42.86429" lon="-2.25747">
        <ele>581.4</ele>
        <time>2021-05-29 07:38:51</time>
      </trkpt>
      <trkpt lat="42.86429" lon="-2.2573">
        <ele>581.4</ele>
        <time>2021-05-29 07:38:52</time>
      </trkpt>
      <trkpt lat="42.86429" lon="-2.25712">
        <ele>581.4</ele>
        <time>2021-05-29 07:38:53</time>
      </trkpt>
      <trkpt lat="42.86429" lon="-2.25695">
        <ele>581.4</ele>
        <time>2021-05-29 07:38:54</time>
      </trkpt>
      <trkpt lat="42.86429" lon="-2.25677">
        <ele>581.2</ele>
        <time>2021-05-29 07:38:55</time>
      </trkpt>
      <trkpt lat="42.86427" lon="-2.2566">
        <ele>581.2</ele>
        <time>2021-05-29 07:38:56</time>
      </trkpt>
      <trkpt lat="42.86426" lon="-2.25643">
        <ele>581.2</ele>
        <time>2021-05-29 07:38:57</time>
      </trkpt>
      <trkpt lat="42.86424" lon="-2.25626">
        <ele>581</ele>
        <time>2021-05-29 07:38:58</time>
      </trkpt>
      <trkpt lat="42.86423" lon="-2.2561">
        <ele>580.8</ele>
        <time>2021-05-29 07:38:59</time>
      </trkpt>
      <trkpt lat="42.86422" lon="-2.25594">
        <ele>580.6</ele>
        <time>2021-05-29 07:39:00</time>
      </trkpt>
      <trkpt lat="42.8642" lon="-2.25579">
        <ele>580.4</ele>
        <time>2021-05-29 07:39:01</time>
      </trkpt>
      <trkpt lat="42.86419" lon="-2.25564">
        <ele>580.4</ele>
        <time>2021-05-29 07:39:02</time>
      </trkpt>
      <trkpt lat="42.86418" lon="-2.2555">
        <ele>580.2</ele>
        <time>2021-05-29 07:39:03</time>
      </trkpt>
      <trkpt lat="42.86417" lon="-2.25536">
        <ele>580.4</ele>
        <time>2021-05-29 07:39:04</time>
      </trkpt>
      <trkpt lat="42.86415" lon="-2.25522">
        <ele>580.4</ele>
        <time>2021-05-29 07:39:05</time>
      </trkpt>
      <trkpt lat="42.86414" lon="-2.25509">
        <ele>580.4</ele>
        <time>2021-05-29 07:39:06</time>
      </trkpt>
      <trkpt lat="42.86413" lon="-2.25496">
        <ele>580.4</ele>
        <time>2021-05-29 07:39:07</time>
      </trkpt>
      <trkpt lat="42.86412" lon="-2.25483">
        <ele>580.4</ele>
        <time>2021-05-29 07:39:08</time>
      </trkpt>
      <trkpt lat="42.86411" lon="-2.25471">
        <ele>580.4</ele>
        <time>2021-05-29 07:39:09</time>
      </trkpt>
      <trkpt lat="42.8641" lon="-2.25459">
        <ele>580.4</ele>
        <time>2021-05-29 07:39:10</time>
      </trkpt>
      <trkpt lat="42.86409" lon="-2.25448">
        <ele>580.4</ele>
        <time>2021-05-29 07:39:11</time>
      </trkpt>
      <trkpt lat="42.86408" lon="-2.25437">
        <ele>580.4</ele>
        <time>2021-05-29 07:39:12</time>
      </trkpt>
      <trkpt lat="42.86408" lon="-2.25427">
        <ele>580.4</ele>
        <time>2021-05-29 07:39:13</time>
      </trkpt>
      <trkpt lat="42.86407" lon="-2.25418">
        <ele>580.4</ele>
        <time>2021-05-29 07:39:14</time>
      </trkpt>
      <trkpt lat="42.86406" lon="-2.25409">
        <ele>580.4</ele>
        <time>2021-05-29 07:39:15</time>
      </trkpt>
      <trkpt lat="42.86406" lon="-2.254">
        <ele>580.4</ele>
        <time>2021-05-29 07:39:16</time>
      </trkpt>
      <trkpt lat="42.86406" lon="-2.25392">
        <ele>580.4</ele>
        <time>2021-05-29 07:39:17</time>
      </trkpt>
      <trkpt lat="42.86406" lon="-2.25383">
        <ele>580.6</ele>
        <time>2021-05-29 07:39:18</time>
      </trkpt>
      <trkpt lat="42.86406" lon="-2.25375">
        <ele>580.6</ele>
        <time>2021-05-29 07:39:19</time>
      </trkpt>
      <trkpt lat="42.86406" lon="-2.25366">
        <ele>580.6</ele>
        <time>2021-05-29 07:39:20</time>
      </trkpt>
      <trkpt lat="42.86406" lon="-2.25357">
        <ele>580.6</ele>
        <time>2021-05-29 07:39:21</time>
      </trkpt>
      <trkpt lat="42.86406" lon="-2.25348">
        <ele>580.6</ele>
        <time>2021-05-29 07:39:22</time>
      </trkpt>
      <trkpt lat="42.86406" lon="-2.25339">
        <ele>580.8</ele>
        <time>2021-05-29 07:39:23</time>
      </trkpt>
      <trkpt lat="42.86406" lon="-2.2533">
        <ele>581</ele>
        <time>2021-05-29 07:39:24</time>
      </trkpt>
      <trkpt lat="42.86406" lon="-2.25321">
        <ele>581</ele>
        <time>2021-05-29 07:39:25</time>
      </trkpt>
      <trkpt lat="42.86406" lon="-2.25312">
        <ele>581</ele>
        <time>2021-05-29 07:39:26</time>
      </trkpt>
      <trkpt lat="42.86406" lon="-2.25303">
        <ele>581</ele>
        <time>2021-05-29 07:39:27</time>
      </trkpt>
      <trkpt lat="42.86406" lon="-2.25293">
        <ele>581</ele>
        <time>2021-05-29 07:39:28</time>
      </trkpt>
      <trkpt lat="42.86406" lon="-2.25283">
        <ele>581.2</ele>
        <time>2021-05-29 07:39:29</time>
      </trkpt>
      <trkpt lat="42.86406" lon="-2.25274">
        <ele>581.2</ele>
        <time>2021-05-29 07:39:30</time>
      </trkpt>
      <trkpt lat="42.86406" lon="-2.25264">
        <ele>581.2</ele>
        <time>2021-05-29 07:39:31</time>
      </trkpt>
      <trkpt lat="42.86406" lon="-2.25254">
        <ele>581.2</ele>
        <time>2021-05-29 07:39:32</time>
      </trkpt>
      <trkpt lat="42.86406" lon="-2.25246">
        <ele>581.2</ele>
        <time>2021-05-29 07:39:33</time>
      </trkpt>
      <trkpt lat="42.86406" lon="-2.25238">
        <ele>581.2</ele>
        <time>2021-05-29 07:39:34</time>
      </trkpt>
      <trkpt lat="42.86407" lon="-2.25232">
        <ele>581.2</ele>
        <time>2021-05-29 07:39:35</time>
      </trkpt>
      <trkpt lat="42.86407" lon="-2.25227">
        <ele>581.2</ele>
        <time>2021-05-29 07:39:36</time>
      </trkpt>
      <trkpt lat="42.86408" lon="-2.25223">
        <ele>581.2</ele>
        <time>2021-05-29 07:39:37</time>
      </trkpt>
      <trkpt lat="42.86408" lon="-2.25221">
        <ele>581.2</ele>
        <time>2021-05-29 07:39:38</time>
      </trkpt>
      <trkpt lat="42.86408" lon="-2.2522">
        <ele>581.4</ele>
        <time>2021-05-29 07:39:39</time>
      </trkpt>
      <trkpt lat="42.86408" lon="-2.2522">
        <ele>581.4</ele>
        <time>2021-05-29 07:39:40</time>
      </trkpt>
      <trkpt lat="42.86406" lon="-2.2522">
        <ele>556.8</ele>
        <time>2021-05-29 07:49:15</time>
      </trkpt>
      <trkpt lat="42.86406" lon="-2.25217">
        <ele>556.8</ele>
        <time>2021-05-29 07:49:16</time>
      </trkpt>
      <trkpt lat="42.86406" lon="-2.25214">
        <ele>556.6</ele>
        <time>2021-05-29 07:49:17</time>
      </trkpt>
      <trkpt lat="42.86406" lon="-2.2521">
        <ele>556.6</ele>
        <time>2021-05-29 07:49:18</time>
      </trkpt>
      <trkpt lat="42.86406" lon="-2.25205">
        <ele>556.6</ele>
        <time>2021-05-29 07:49:19</time>
      </trkpt>
      <trkpt lat="42.86406" lon="-2.25201">
        <ele>556.6</ele>
        <time>2021-05-29 07:49:20</time>
      </trkpt>
      <trkpt lat="42.86406" lon="-2.25197">
        <ele>556.4</ele>
        <time>2021-05-29 07:49:21</time>
      </trkpt>
      <trkpt lat="42.86407" lon="-2.25191">
        <ele>556.4</ele>
        <time>2021-05-29 07:49:22</time>
      </trkpt>
      <trkpt lat="42.86407" lon="-2.25185">
        <ele>556.4</ele>
        <time>2021-05-29 07:49:23</time>
      </trkpt>
      <trkpt lat="42.86407" lon="-2.25179">
        <ele>556.4</ele>
        <time>2021-05-29 07:49:24</time>
      </trkpt>
      <trkpt lat="42.86406" lon="-2.25173">
        <ele>556.4</ele>
        <time>2021-05-29 07:49:25</time>
      </trkpt>
      <trkpt lat="42.86406" lon="-2.25166">
        <ele>556.4</ele>
        <time>2021-05-29 07:49:26</time>
      </trkpt>
      <trkpt lat="42.86407" lon="-2.25158">
        <ele>556.4</ele>
        <time>2021-05-29 07:49:27</time>
      </trkpt>
      <trkpt lat="42.86407" lon="-2.25151">
        <ele>556.4</ele>
        <time>2021-05-29 07:49:28</time>
      </trkpt>
      <trkpt lat="42.86407" lon="-2.25143">
        <ele>556.4</ele>
        <time>2021-05-29 07:49:29</time>
      </trkpt>
      <trkpt lat="42.86407" lon="-2.25135">
        <ele>556.4</ele>
        <time>2021-05-29 07:49:30</time>
      </trkpt>
      <trkpt lat="42.86407" lon="-2.25127">
        <ele>556.4</ele>
        <time>2021-05-29 07:49:31</time>
      </trkpt>
      <trkpt lat="42.86407" lon="-2.25119">
        <ele>556.4</ele>
        <time>2021-05-29 07:49:32</time>
      </trkpt>
      <trkpt lat="42.86407" lon="-2.25111">
        <ele>556.4</ele>
        <time>2021-05-29 07:49:33</time>
      </trkpt>
      <trkpt lat="42.86408" lon="-2.25103">
        <ele>556.4</ele>
        <time>2021-05-29 07:49:34</time>
      </trkpt>
      <trkpt lat="42.86408" lon="-2.25095">
        <ele>556.4</ele>
        <time>2021-05-29 07:49:35</time>
      </trkpt>
      <trkpt lat="42.86408" lon="-2.25087">
        <ele>556.4</ele>
        <time>2021-05-29 07:49:36</time>
      </trkpt>
      <trkpt lat="42.86408" lon="-2.25078">
        <ele>556.4</ele>
        <time>2021-05-29 07:49:37</time>
      </trkpt>
      <trkpt lat="42.86408" lon="-2.2507">
        <ele>556.2</ele>
        <time>2021-05-29 07:49:38</time>
      </trkpt>
      <trkpt lat="42.86408" lon="-2.25062">
        <ele>556.2</ele>
        <time>2021-05-29 07:49:39</time>
      </trkpt>
      <trkpt lat="42.86409" lon="-2.25053">
        <ele>556.2</ele>
        <time>2021-05-29 07:49:40</time>
      </trkpt>
      <trkpt lat="42.86409" lon="-2.25045">
        <ele>556.4</ele>
        <time>2021-05-29 07:49:41</time>
      </trkpt>
      <trkpt lat="42.86408" lon="-2.25036">
        <ele>556.4</ele>
        <time>2021-05-29 07:49:42</time>
      </trkpt>
      <trkpt lat="42.86408" lon="-2.25028">
        <ele>556.4</ele>
        <time>2021-05-29 07:49:43</time>
      </trkpt>
      <trkpt lat="42.86406" lon="-2.25019">
        <ele>556.4</ele>
        <time>2021-05-29 07:49:44</time>
      </trkpt>
      <trkpt lat="42.86403" lon="-2.2501">
        <ele>556.6</ele>
        <time>2021-05-29 07:49:45</time>
      </trkpt>
      <trkpt lat="42.86399" lon="-2.25003">
        <ele>556.6</ele>
        <time>2021-05-29 07:49:46</time>
      </trkpt>
      <trkpt lat="42.86393" lon="-2.24997">
        <ele>556.8</ele>
        <time>2021-05-29 07:49:47</time>
      </trkpt>
      <trkpt lat="42.86386" lon="-2.24992">
        <ele>556.8</ele>
        <time>2021-05-29 07:49:48</time>
      </trkpt>
      <trkpt lat="42.86379" lon="-2.24986">
        <ele>556.8</ele>
        <time>2021-05-29 07:49:49</time>
      </trkpt>
      <trkpt lat="42.86373" lon="-2.24981">
        <ele>556.8</ele>
        <time>2021-05-29 07:49:50</time>
      </trkpt>
      <trkpt lat="42.86367" lon="-2.24976">
        <ele>556.8</ele>
        <time>2021-05-29 07:49:51</time>
      </trkpt>
      <trkpt lat="42.86362" lon="-2.24969">
        <ele>557</ele>
        <time>2021-05-29 07:49:52</time>
      </trkpt>
      <trkpt lat="42.86357" lon="-2.2496">
        <ele>557</ele>
        <time>2021-05-29 07:49:53</time>
      </trkpt>
      <trkpt lat="42.86354" lon="-2.2495">
        <ele>557</ele>
        <time>2021-05-29 07:49:54</time>
      </trkpt>
      <trkpt lat="42.86353" lon="-2.24939">
        <ele>557</ele>
        <time>2021-05-29 07:49:55</time>
      </trkpt>
      <trkpt lat="42.86352" lon="-2.24927">
        <ele>557</ele>
        <time>2021-05-29 07:49:56</time>
      </trkpt>
      <trkpt lat="42.86352" lon="-2.24915">
        <ele>557</ele>
        <time>2021-05-29 07:49:57</time>
      </trkpt>
      <trkpt lat="42.86352" lon="-2.24902">
        <ele>557.2</ele>
        <time>2021-05-29 07:49:58</time>
      </trkpt>
      <trkpt lat="42.86352" lon="-2.2489">
        <ele>557.2</ele>
        <time>2021-05-29 07:49:59</time>
      </trkpt>
      <trkpt lat="42.86352" lon="-2.24877">
        <ele>557.2</ele>
        <time>2021-05-29 07:50:00</time>
      </trkpt>
      <trkpt lat="42.86352" lon="-2.24864">
        <ele>557.2</ele>
        <time>2021-05-29 07:50:01</time>
      </trkpt>
      <trkpt lat="42.86352" lon="-2.24851">
        <ele>557.2</ele>
        <time>2021-05-29 07:50:02</time>
      </trkpt>
      <trkpt lat="42.86352" lon="-2.24838">
        <ele>557.2</ele>
        <time>2021-05-29 07:50:03</time>
      </trkpt>
      <trkpt lat="42.86352" lon="-2.24825">
        <ele>557.2</ele>
        <time>2021-05-29 07:50:04</time>
      </trkpt>
      <trkpt lat="42.86353" lon="-2.24812">
        <ele>557.2</ele>
        <time>2021-05-29 07:50:05</time>
      </trkpt>
      <trkpt lat="42.86353" lon="-2.24799">
        <ele>557.2</ele>
        <time>2021-05-29 07:50:06</time>
      </trkpt>
      <trkpt lat="42.86353" lon="-2.24786">
        <ele>557.2</ele>
        <time>2021-05-29 07:50:07</time>
      </trkpt>
      <trkpt lat="42.86353" lon="-2.24773">
        <ele>557.2</ele>
        <time>2021-05-29 07:50:08</time>
      </trkpt>
      <trkpt lat="42.86354" lon="-2.24759">
        <ele>557.2</ele>
        <time>2021-05-29 07:50:09</time>
      </trkpt>
      <trkpt lat="42.86354" lon="-2.24746">
        <ele>557.2</ele>
        <time>2021-05-29 07:50:10</time>
      </trkpt>
      <trkpt lat="42.86354" lon="-2.24733">
        <ele>557.4</ele>
        <time>2021-05-29 07:50:11</time>
      </trkpt>
      <trkpt lat="42.86354" lon="-2.2472">
        <ele>557.4</ele>
        <time>2021-05-29 07:50:12</time>
      </trkpt>
      <trkpt lat="42.86355" lon="-2.24707">
        <ele>557.4</ele>
        <time>2021-05-29 07:50:13</time>
      </trkpt>
      <trkpt lat="42.86355" lon="-2.24694">
        <ele>557.4</ele>
        <time>2021-05-29 07:50:14</time>
      </trkpt>
      <trkpt lat="42.86355" lon="-2.24682">
        <ele>557.6</ele>
        <time>2021-05-29 07:50:15</time>
      </trkpt>
      <trkpt lat="42.86355" lon="-2.2467">
        <ele>557.6</ele>
        <time>2021-05-29 07:50:16</time>
      </trkpt>
      <trkpt lat="42.86355" lon="-2.24658">
        <ele>557.6</ele>
        <time>2021-05-29 07:50:17</time>
      </trkpt>
      <trkpt lat="42.86356" lon="-2.24647">
        <ele>557.6</ele>
        <time>2021-05-29 07:50:18</time>
      </trkpt>
      <trkpt lat="42.86356" lon="-2.24636">
        <ele>557.8</ele>
        <time>2021-05-29 07:50:19</time>
      </trkpt>
      <trkpt lat="42.86356" lon="-2.24624">
        <ele>557.8</ele>
        <time>2021-05-29 07:50:20</time>
      </trkpt>
      <trkpt lat="42.86356" lon="-2.24613">
        <ele>558</ele>
        <time>2021-05-29 07:50:21</time>
      </trkpt>
      <trkpt lat="42.86357" lon="-2.24601">
        <ele>558</ele>
        <time>2021-05-29 07:50:22</time>
      </trkpt>
      <trkpt lat="42.86357" lon="-2.24589">
        <ele>558.2</ele>
        <time>2021-05-29 07:50:23</time>
      </trkpt>
      <trkpt lat="42.86357" lon="-2.24576">
        <ele>558.2</ele>
        <time>2021-05-29 07:50:24</time>
      </trkpt>
      <trkpt lat="42.86357" lon="-2.24564">
        <ele>558.2</ele>
        <time>2021-05-29 07:50:25</time>
      </trkpt>
      <trkpt lat="42.86357" lon="-2.2455">
        <ele>558.4</ele>
        <time>2021-05-29 07:50:26</time>
      </trkpt>
      <trkpt lat="42.86357" lon="-2.24536">
        <ele>558.4</ele>
        <time>2021-05-29 07:50:27</time>
      </trkpt>
      <trkpt lat="42.86357" lon="-2.24523">
        <ele>558.6</ele>
        <time>2021-05-29 07:50:28</time>
      </trkpt>
      <trkpt lat="42.86357" lon="-2.24508">
        <ele>558.8</ele>
        <time>2021-05-29 07:50:29</time>
      </trkpt>
      <trkpt lat="42.86357" lon="-2.24494">
        <ele>558.8</ele>
        <time>2021-05-29 07:50:30</time>
      </trkpt>
      <trkpt lat="42.86357" lon="-2.2448">
        <ele>559</ele>
        <time>2021-05-29 07:50:31</time>
      </trkpt>
      <trkpt lat="42.86357" lon="-2.24466">
        <ele>559</ele>
        <time>2021-05-29 07:50:32</time>
      </trkpt>
      <trkpt lat="42.86357" lon="-2.24453">
        <ele>559.2</ele>
        <time>2021-05-29 07:50:33</time>
      </trkpt>
      <trkpt lat="42.86357" lon="-2.24439">
        <ele>559.2</ele>
        <time>2021-05-29 07:50:34</time>
      </trkpt>
      <trkpt lat="42.86357" lon="-2.24426">
        <ele>559.2</ele>
        <time>2021-05-29 07:50:35</time>
      </trkpt>
      <trkpt lat="42.86357" lon="-2.24413">
        <ele>559.2</ele>
        <time>2021-05-29 07:50:36</time>
      </trkpt>
      <trkpt lat="42.86357" lon="-2.244">
        <ele>559.4</ele>
        <time>2021-05-29 07:50:37</time>
      </trkpt>
      <trkpt lat="42.86358" lon="-2.24386">
        <ele>559.4</ele>
        <time>2021-05-29 07:50:38</time>
      </trkpt>
      <trkpt lat="42.86358" lon="-2.24373">
        <ele>559.6</ele>
        <time>2021-05-29 07:50:39</time>
      </trkpt>
      <trkpt lat="42.86358" lon="-2.2436">
        <ele>559.8</ele>
        <time>2021-05-29 07:50:40</time>
      </trkpt>
      <trkpt lat="42.86358" lon="-2.24348">
        <ele>559.8</ele>
        <time>2021-05-29 07:50:41</time>
      </trkpt>
      <trkpt lat="42.86358" lon="-2.24335">
        <ele>560</ele>
        <time>2021-05-29 07:50:42</time>
      </trkpt>
      <trkpt lat="42.86358" lon="-2.24322">
        <ele>560</ele>
        <time>2021-05-29 07:50:43</time>
      </trkpt>
      <trkpt lat="42.86358" lon="-2.24309">
        <ele>560.2</ele>
        <time>2021-05-29 07:50:44</time>
      </trkpt>
      <trkpt lat="42.86358" lon="-2.24297">
        <ele>560.2</ele>
        <time>2021-05-29 07:50:45</time>
      </trkpt>
      <trkpt lat="42.86358" lon="-2.24284">
        <ele>560.2</ele>
        <time>2021-05-29 07:50:46</time>
      </trkpt>
      <trkpt lat="42.86357" lon="-2.24273">
        <ele>560.4</ele>
        <time>2021-05-29 07:50:47</time>
      </trkpt>
      <trkpt lat="42.86357" lon="-2.24262">
        <ele>560.4</ele>
        <time>2021-05-29 07:50:48</time>
      </trkpt>
      <trkpt lat="42.86357" lon="-2.24252">
        <ele>560.6</ele>
        <time>2021-05-29 07:50:49</time>
      </trkpt>
      <trkpt lat="42.86356" lon="-2.24242">
        <ele>560.6</ele>
        <time>2021-05-29 07:50:50</time>
      </trkpt>
      <trkpt lat="42.86356" lon="-2.24233">
        <ele>560.6</ele>
        <time>2021-05-29 07:50:51</time>
      </trkpt>
      <trkpt lat="42.86356" lon="-2.24225">
        <ele>560.8</ele>
        <time>2021-05-29 07:50:52</time>
      </trkpt>
      <trkpt lat="42.86356" lon="-2.24218">
        <ele>560.8</ele>
        <time>2021-05-29 07:50:53</time>
      </trkpt>
      <trkpt lat="42.86357" lon="-2.24211">
        <ele>561</ele>
        <time>2021-05-29 07:50:54</time>
      </trkpt>
      <trkpt lat="42.86358" lon="-2.24204">
        <ele>561.2</ele>
        <time>2021-05-29 07:50:55</time>
      </trkpt>
      <trkpt lat="42.86359" lon="-2.24197">
        <ele>561.4</ele>
        <time>2021-05-29 07:50:56</time>
      </trkpt>
      <trkpt lat="42.86361" lon="-2.24191">
        <ele>561.4</ele>
        <time>2021-05-29 07:50:57</time>
      </trkpt>
      <trkpt lat="42.86362" lon="-2.24184">
        <ele>561.4</ele>
        <time>2021-05-29 07:50:58</time>
      </trkpt>
      <trkpt lat="42.86364" lon="-2.24178">
        <ele>561.6</ele>
        <time>2021-05-29 07:50:59</time>
      </trkpt>
      <trkpt lat="42.86365" lon="-2.24172">
        <ele>561.6</ele>
        <time>2021-05-29 07:51:00</time>
      </trkpt>
      <trkpt lat="42.86368" lon="-2.24166">
        <ele>561.6</ele>
        <time>2021-05-29 07:51:01</time>
      </trkpt>
      <trkpt lat="42.86369" lon="-2.24159">
        <ele>561.8</ele>
        <time>2021-05-29 07:51:02</time>
      </trkpt>
      <trkpt lat="42.86371" lon="-2.24153">
        <ele>562</ele>
        <time>2021-05-29 07:51:03</time>
      </trkpt>
      <trkpt lat="42.86373" lon="-2.24147">
        <ele>562.2</ele>
        <time>2021-05-29 07:51:04</time>
      </trkpt>
      <trkpt lat="42.86375" lon="-2.2414">
        <ele>562.2</ele>
        <time>2021-05-29 07:51:05</time>
      </trkpt>
      <trkpt lat="42.86377" lon="-2.24134">
        <ele>562.6</ele>
        <time>2021-05-29 07:51:06</time>
      </trkpt>
      <trkpt lat="42.86378" lon="-2.24127">
        <ele>562.6</ele>
        <time>2021-05-29 07:51:07</time>
      </trkpt>
      <trkpt lat="42.8638" lon="-2.2412">
        <ele>562.8</ele>
        <time>2021-05-29 07:51:08</time>
      </trkpt>
      <trkpt lat="42.86382" lon="-2.24113">
        <ele>562.8</ele>
        <time>2021-05-29 07:51:09</time>
      </trkpt>
      <trkpt lat="42.86384" lon="-2.24105">
        <ele>563</ele>
        <time>2021-05-29 07:51:10</time>
      </trkpt>
      <trkpt lat="42.86386" lon="-2.24098">
        <ele>563</ele>
        <time>2021-05-29 07:51:11</time>
      </trkpt>
      <trkpt lat="42.86387" lon="-2.2409">
        <ele>563</ele>
        <time>2021-05-29 07:51:12</time>
      </trkpt>
      <trkpt lat="42.86389" lon="-2.24082">
        <ele>563.2</ele>
        <time>2021-05-29 07:51:13</time>
      </trkpt>
      <trkpt lat="42.86391" lon="-2.24075">
        <ele>563.2</ele>
        <time>2021-05-29 07:51:14</time>
      </trkpt>
      <trkpt lat="42.86394" lon="-2.24067">
        <ele>563.2</ele>
        <time>2021-05-29 07:51:15</time>
      </trkpt>
      <trkpt lat="42.86398" lon="-2.2406">
        <ele>563.4</ele>
        <time>2021-05-29 07:51:16</time>
      </trkpt>
      <trkpt lat="42.86404" lon="-2.24054">
        <ele>563.4</ele>
        <time>2021-05-29 07:51:17</time>
      </trkpt>
      <trkpt lat="42.86411" lon="-2.24048">
        <ele>563.6</ele>
        <time>2021-05-29 07:51:18</time>
      </trkpt>
      <trkpt lat="42.86418" lon="-2.24042">
        <ele>563.6</ele>
        <time>2021-05-29 07:51:19</time>
      </trkpt>
      <trkpt lat="42.86426" lon="-2.24037">
        <ele>563.8</ele>
        <time>2021-05-29 07:51:20</time>
      </trkpt>
      <trkpt lat="42.86436" lon="-2.24033">
        <ele>563.8</ele>
        <time>2021-05-29 07:51:21</time>
      </trkpt>
      <trkpt lat="42.86445" lon="-2.24029">
        <ele>563.8</ele>
        <time>2021-05-29 07:51:22</time>
      </trkpt>
      <trkpt lat="42.86456" lon="-2.24027">
        <ele>563.8</ele>
        <time>2021-05-29 07:51:23</time>
      </trkpt>
      <trkpt lat="42.86467" lon="-2.24025">
        <ele>563.8</ele>
        <time>2021-05-29 07:51:24</time>
      </trkpt>
      <trkpt lat="42.86478" lon="-2.24023">
        <ele>563.8</ele>
        <time>2021-05-29 07:51:25</time>
      </trkpt>
      <trkpt lat="42.86489" lon="-2.24021">
        <ele>564</ele>
        <time>2021-05-29 07:51:26</time>
      </trkpt>
      <trkpt lat="42.865" lon="-2.24018">
        <ele>564</ele>
        <time>2021-05-29 07:51:27</time>
      </trkpt>
      <trkpt lat="42.86511" lon="-2.24014">
        <ele>564</ele>
        <time>2021-05-29 07:51:28</time>
      </trkpt>
      <trkpt lat="42.86521" lon="-2.24009">
        <ele>564</ele>
        <time>2021-05-29 07:51:29</time>
      </trkpt>
      <trkpt lat="42.86531" lon="-2.24003">
        <ele>564</ele>
        <time>2021-05-29 07:51:30</time>
      </trkpt>
      <trkpt lat="42.86541" lon="-2.23997">
        <ele>564</ele>
        <time>2021-05-29 07:51:31</time>
      </trkpt>
      <trkpt lat="42.86551" lon="-2.2399">
        <ele>564</ele>
        <time>2021-05-29 07:51:32</time>
      </trkpt>
      <trkpt lat="42.8656" lon="-2.23981">
        <ele>564</ele>
        <time>2021-05-29 07:51:33</time>
      </trkpt>
      <trkpt lat="42.86567" lon="-2.23971">
        <ele>564</ele>
        <time>2021-05-29 07:51:34</time>
      </trkpt>
      <trkpt lat="42.86571" lon="-2.23958">
        <ele>564</ele>
        <time>2021-05-29 07:51:35</time>
      </trkpt>
      <trkpt lat="42.86574" lon="-2.23944">
        <ele>564</ele>
        <time>2021-05-29 07:51:36</time>
      </trkpt>
      <trkpt lat="42.86573" lon="-2.23929">
        <ele>563.8</ele>
        <time>2021-05-29 07:51:37</time>
      </trkpt>
      <trkpt lat="42.86572" lon="-2.23914">
        <ele>563.8</ele>
        <time>2021-05-29 07:51:38</time>
      </trkpt>
      <trkpt lat="42.86571" lon="-2.23898">
        <ele>563.8</ele>
        <time>2021-05-29 07:51:39</time>
      </trkpt>
      <trkpt lat="42.8657" lon="-2.23881">
        <ele>563.6</ele>
        <time>2021-05-29 07:51:40</time>
      </trkpt>
      <trkpt lat="42.86568" lon="-2.23865">
        <ele>563.6</ele>
        <time>2021-05-29 07:51:41</time>
      </trkpt>
      <trkpt lat="42.86567" lon="-2.23849">
        <ele>563.6</ele>
        <time>2021-05-29 07:51:42</time>
      </trkpt>
      <trkpt lat="42.86566" lon="-2.23833">
        <ele>563.6</ele>
        <time>2021-05-29 07:51:43</time>
      </trkpt>
      <trkpt lat="42.86565" lon="-2.23817">
        <ele>563.6</ele>
        <time>2021-05-29 07:51:44</time>
      </trkpt>
      <trkpt lat="42.86564" lon="-2.23801">
        <ele>563.6</ele>
        <time>2021-05-29 07:51:45</time>
      </trkpt>
      <trkpt lat="42.86563" lon="-2.23786">
        <ele>563.6</ele>
        <time>2021-05-29 07:51:46</time>
      </trkpt>
      <trkpt lat="42.86563" lon="-2.23772">
        <ele>563.6</ele>
        <time>2021-05-29 07:51:47</time>
      </trkpt>
      <trkpt lat="42.86562" lon="-2.23758">
        <ele>563.6</ele>
        <time>2021-05-29 07:51:48</time>
      </trkpt>
      <trkpt lat="42.86561" lon="-2.23744">
        <ele>563.6</ele>
        <time>2021-05-29 07:51:49</time>
      </trkpt>
      <trkpt lat="42.8656" lon="-2.23731">
        <ele>563.6</ele>
        <time>2021-05-29 07:51:50</time>
      </trkpt>
      <trkpt lat="42.86559" lon="-2.23719">
        <ele>563.6</ele>
        <time>2021-05-29 07:51:51</time>
      </trkpt>
      <trkpt lat="42.86557" lon="-2.23708">
        <ele>563.6</ele>
        <time>2021-05-29 07:51:52</time>
      </trkpt>
      <trkpt lat="42.86554" lon="-2.23698">
        <ele>563.8</ele>
        <time>2021-05-29 07:51:53</time>
      </trkpt>
      <trkpt lat="42.86551" lon="-2.23689">
        <ele>563.8</ele>
        <time>2021-05-29 07:51:54</time>
      </trkpt>
      <trkpt lat="42.86546" lon="-2.23682">
        <ele>564</ele>
        <time>2021-05-29 07:51:55</time>
      </trkpt>
      <trkpt lat="42.8654" lon="-2.23675">
        <ele>564</ele>
        <time>2021-05-29 07:51:56</time>
      </trkpt>
      <trkpt lat="42.86535" lon="-2.2367">
        <ele>564</ele>
        <time>2021-05-29 07:51:57</time>
      </trkpt>
      <trkpt lat="42.86529" lon="-2.23665">
        <ele>564.2</ele>
        <time>2021-05-29 07:51:58</time>
      </trkpt>
      <trkpt lat="42.86523" lon="-2.23661">
        <ele>564.2</ele>
        <time>2021-05-29 07:51:59</time>
      </trkpt>
      <trkpt lat="42.86518" lon="-2.23657">
        <ele>564.4</ele>
        <time>2021-05-29 07:52:00</time>
      </trkpt>
      <trkpt lat="42.86514" lon="-2.23653">
        <ele>564.6</ele>
        <time>2021-05-29 07:52:01</time>
      </trkpt>
      <trkpt lat="42.86511" lon="-2.23648">
        <ele>564.6</ele>
        <time>2021-05-29 07:52:02</time>
      </trkpt>
      <trkpt lat="42.86511" lon="-2.23642">
        <ele>564.6</ele>
        <time>2021-05-29 07:52:03</time>
      </trkpt>
      <trkpt lat="42.86512" lon="-2.23637">
        <ele>564.6</ele>
        <time>2021-05-29 07:52:04</time>
      </trkpt>
      <trkpt lat="42.86516" lon="-2.23632">
        <ele>564.8</ele>
        <time>2021-05-29 07:52:05</time>
      </trkpt>
      <trkpt lat="42.86522" lon="-2.23629">
        <ele>564.8</ele>
        <time>2021-05-29 07:52:06</time>
      </trkpt>
      <trkpt lat="42.86527" lon="-2.23626">
        <ele>564.8</ele>
        <time>2021-05-29 07:52:07</time>
      </trkpt>
      <trkpt lat="42.86533" lon="-2.23621">
        <ele>564.8</ele>
        <time>2021-05-29 07:52:08</time>
      </trkpt>
      <trkpt lat="42.86536" lon="-2.23613">
        <ele>564.8</ele>
        <time>2021-05-29 07:52:09</time>
      </trkpt>
      <trkpt lat="42.86536" lon="-2.23605">
        <ele>564.8</ele>
        <time>2021-05-29 07:52:10</time>
      </trkpt>
      <trkpt lat="42.86534" lon="-2.23596">
        <ele>564.8</ele>
        <time>2021-05-29 07:52:11</time>
      </trkpt>
      <trkpt lat="42.86531" lon="-2.23587">
        <ele>564.8</ele>
        <time>2021-05-29 07:52:12</time>
      </trkpt>
      <trkpt lat="42.86529" lon="-2.23578">
        <ele>564.8</ele>
        <time>2021-05-29 07:52:13</time>
      </trkpt>
      <trkpt lat="42.86527" lon="-2.23567">
        <ele>564.8</ele>
        <time>2021-05-29 07:52:14</time>
      </trkpt>
      <trkpt lat="42.86527" lon="-2.23556">
        <ele>565</ele>
        <time>2021-05-29 07:52:15</time>
      </trkpt>
      <trkpt lat="42.86527" lon="-2.23545">
        <ele>565</ele>
        <time>2021-05-29 07:52:16</time>
      </trkpt>
      <trkpt lat="42.86529" lon="-2.23535">
        <ele>565</ele>
        <time>2021-05-29 07:52:17</time>
      </trkpt>
      <trkpt lat="42.86531" lon="-2.23525">
        <ele>565</ele>
        <time>2021-05-29 07:52:18</time>
      </trkpt>
      <trkpt lat="42.86534" lon="-2.23515">
        <ele>565</ele>
        <time>2021-05-29 07:52:19</time>
      </trkpt>
      <trkpt lat="42.86537" lon="-2.23505">
        <ele>565.2</ele>
        <time>2021-05-29 07:52:20</time>
      </trkpt>
      <trkpt lat="42.8654" lon="-2.23496">
        <ele>565.4</ele>
        <time>2021-05-29 07:52:21</time>
      </trkpt>
      <trkpt lat="42.86543" lon="-2.23486">
        <ele>565.2</ele>
        <time>2021-05-29 07:52:22</time>
      </trkpt>
      <trkpt lat="42.86546" lon="-2.23476">
        <ele>565.4</ele>
        <time>2021-05-29 07:52:23</time>
      </trkpt>
      <trkpt lat="42.8655" lon="-2.23467">
        <ele>565.4</ele>
        <time>2021-05-29 07:52:24</time>
      </trkpt>
      <trkpt lat="42.86553" lon="-2.23457">
        <ele>565.4</ele>
        <time>2021-05-29 07:52:25</time>
      </trkpt>
      <trkpt lat="42.86556" lon="-2.23446">
        <ele>565.4</ele>
        <time>2021-05-29 07:52:26</time>
      </trkpt>
      <trkpt lat="42.86559" lon="-2.23436">
        <ele>565.6</ele>
        <time>2021-05-29 07:52:27</time>
      </trkpt>
      <trkpt lat="42.86562" lon="-2.23426">
        <ele>565.6</ele>
        <time>2021-05-29 07:52:28</time>
      </trkpt>
      <trkpt lat="42.86565" lon="-2.23415">
        <ele>565.6</ele>
        <time>2021-05-29 07:52:29</time>
      </trkpt>
      <trkpt lat="42.86569" lon="-2.23404">
        <ele>565.6</ele>
        <time>2021-05-29 07:52:30</time>
      </trkpt>
      <trkpt lat="42.86572" lon="-2.23393">
        <ele>565.8</ele>
        <time>2021-05-29 07:52:31</time>
      </trkpt>
      <trkpt lat="42.86576" lon="-2.23382">
        <ele>565.8</ele>
        <time>2021-05-29 07:52:32</time>
      </trkpt>
      <trkpt lat="42.8658" lon="-2.23371">
        <ele>565.8</ele>
        <time>2021-05-29 07:52:33</time>
      </trkpt>
      <trkpt lat="42.86583" lon="-2.23359">
        <ele>566</ele>
        <time>2021-05-29 07:52:34</time>
      </trkpt>
      <trkpt lat="42.86587" lon="-2.23347">
        <ele>566</ele>
        <time>2021-05-29 07:52:35</time>
      </trkpt>
      <trkpt lat="42.86592" lon="-2.23334">
        <ele>566</ele>
        <time>2021-05-29 07:52:36</time>
      </trkpt>
      <trkpt lat="42.86595" lon="-2.23321">
        <ele>566</ele>
        <time>2021-05-29 07:52:37</time>
      </trkpt>
      <trkpt lat="42.866" lon="-2.23308">
        <ele>566</ele>
        <time>2021-05-29 07:52:38</time>
      </trkpt>
      <trkpt lat="42.86604" lon="-2.23294">
        <ele>566</ele>
        <time>2021-05-29 07:52:39</time>
      </trkpt>
      <trkpt lat="42.86609" lon="-2.2328">
        <ele>566</ele>
        <time>2021-05-29 07:52:40</time>
      </trkpt>
      <trkpt lat="42.86613" lon="-2.23266">
        <ele>565.8</ele>
        <time>2021-05-29 07:52:41</time>
      </trkpt>
      <trkpt lat="42.86618" lon="-2.23252">
        <ele>565.8</ele>
        <time>2021-05-29 07:52:42</time>
      </trkpt>
      <trkpt lat="42.86622" lon="-2.23237">
        <ele>565.8</ele>
        <time>2021-05-29 07:52:43</time>
      </trkpt>
      <trkpt lat="42.86627" lon="-2.23223">
        <ele>565.8</ele>
        <time>2021-05-29 07:52:44</time>
      </trkpt>
      <trkpt lat="42.86632" lon="-2.23208">
        <ele>565.8</ele>
        <time>2021-05-29 07:52:45</time>
      </trkpt>
      <trkpt lat="42.86637" lon="-2.23194">
        <ele>565.8</ele>
        <time>2021-05-29 07:52:46</time>
      </trkpt>
      <trkpt lat="42.86642" lon="-2.23179">
        <ele>565.8</ele>
        <time>2021-05-29 07:52:47</time>
      </trkpt>
      <trkpt lat="42.86647" lon="-2.23165">
        <ele>565.6</ele>
        <time>2021-05-29 07:52:48</time>
      </trkpt>
      <trkpt lat="42.86652" lon="-2.2315">
        <ele>565.6</ele>
        <time>2021-05-29 07:52:49</time>
      </trkpt>
      <trkpt lat="42.86658" lon="-2.23135">
        <ele>565.6</ele>
        <time>2021-05-29 07:52:50</time>
      </trkpt>
      <trkpt lat="42.86663" lon="-2.23121">
        <ele>565.6</ele>
        <time>2021-05-29 07:52:51</time>
      </trkpt>
      <trkpt lat="42.86669" lon="-2.23106">
        <ele>565.6</ele>
        <time>2021-05-29 07:52:52</time>
      </trkpt>
      <trkpt lat="42.86674" lon="-2.23092">
        <ele>565.6</ele>
        <time>2021-05-29 07:52:53</time>
      </trkpt>
      <trkpt lat="42.86679" lon="-2.23078">
        <ele>565.6</ele>
        <time>2021-05-29 07:52:54</time>
      </trkpt>
      <trkpt lat="42.86684" lon="-2.23064">
        <ele>565.6</ele>
        <time>2021-05-29 07:52:55</time>
      </trkpt>
      <trkpt lat="42.86688" lon="-2.23051">
        <ele>565.6</ele>
        <time>2021-05-29 07:52:56</time>
      </trkpt>
      <trkpt lat="42.86693" lon="-2.23038">
        <ele>565.6</ele>
        <time>2021-05-29 07:52:57</time>
      </trkpt>
      <trkpt lat="42.86697" lon="-2.23025">
        <ele>565.6</ele>
        <time>2021-05-29 07:52:58</time>
      </trkpt>
      <trkpt lat="42.86702" lon="-2.23013">
        <ele>565.4</ele>
        <time>2021-05-29 07:52:59</time>
      </trkpt>
      <trkpt lat="42.86706" lon="-2.23">
        <ele>565.4</ele>
        <time>2021-05-29 07:53:00</time>
      </trkpt>
      <trkpt lat="42.8671" lon="-2.22988">
        <ele>565.2</ele>
        <time>2021-05-29 07:53:01</time>
      </trkpt>
      <trkpt lat="42.86714" lon="-2.22976">
        <ele>565.2</ele>
        <time>2021-05-29 07:53:02</time>
      </trkpt>
      <trkpt lat="42.86718" lon="-2.22964">
        <ele>565</ele>
        <time>2021-05-29 07:53:03</time>
      </trkpt>
      <trkpt lat="42.86722" lon="-2.22952">
        <ele>565</ele>
        <time>2021-05-29 07:53:04</time>
      </trkpt>
      <trkpt lat="42.86725" lon="-2.2294">
        <ele>565</ele>
        <time>2021-05-29 07:53:05</time>
      </trkpt>
      <trkpt lat="42.86729" lon="-2.22928">
        <ele>565</ele>
        <time>2021-05-29 07:53:06</time>
      </trkpt>
      <trkpt lat="42.86732" lon="-2.22915">
        <ele>565</ele>
        <time>2021-05-29 07:53:07</time>
      </trkpt>
      <trkpt lat="42.86736" lon="-2.22903">
        <ele>564.8</ele>
        <time>2021-05-29 07:53:08</time>
      </trkpt>
      <trkpt lat="42.86739" lon="-2.22891">
        <ele>565</ele>
        <time>2021-05-29 07:53:09</time>
      </trkpt>
      <trkpt lat="42.86742" lon="-2.22879">
        <ele>565</ele>
        <time>2021-05-29 07:53:10</time>
      </trkpt>
      <trkpt lat="42.86746" lon="-2.22867">
        <ele>565</ele>
        <time>2021-05-29 07:53:11</time>
      </trkpt>
      <trkpt lat="42.86749" lon="-2.22855">
        <ele>564.8</ele>
        <time>2021-05-29 07:53:12</time>
      </trkpt>
      <trkpt lat="42.86752" lon="-2.22843">
        <ele>565</ele>
        <time>2021-05-29 07:53:13</time>
      </trkpt>
      <trkpt lat="42.86756" lon="-2.22831">
        <ele>565</ele>
        <time>2021-05-29 07:53:14</time>
      </trkpt>
      <trkpt lat="42.86759" lon="-2.22819">
        <ele>565</ele>
        <time>2021-05-29 07:53:15</time>
      </trkpt>
      <trkpt lat="42.86762" lon="-2.22807">
        <ele>565</ele>
        <time>2021-05-29 07:53:16</time>
      </trkpt>
      <trkpt lat="42.86765" lon="-2.22796">
        <ele>565</ele>
        <time>2021-05-29 07:53:17</time>
      </trkpt>
      <trkpt lat="42.86768" lon="-2.22785">
        <ele>565</ele>
        <time>2021-05-29 07:53:18</time>
      </trkpt>
      <trkpt lat="42.86771" lon="-2.22773">
        <ele>565</ele>
        <time>2021-05-29 07:53:19</time>
      </trkpt>
      <trkpt lat="42.86774" lon="-2.22762">
        <ele>565</ele>
        <time>2021-05-29 07:53:20</time>
      </trkpt>
      <trkpt lat="42.86778" lon="-2.2275">
        <ele>565</ele>
        <time>2021-05-29 07:53:21</time>
      </trkpt>
      <trkpt lat="42.86781" lon="-2.22739">
        <ele>565</ele>
        <time>2021-05-29 07:53:22</time>
      </trkpt>
      <trkpt lat="42.86785" lon="-2.22727">
        <ele>565</ele>
        <time>2021-05-29 07:53:23</time>
      </trkpt>
      <trkpt lat="42.86788" lon="-2.22715">
        <ele>565</ele>
        <time>2021-05-29 07:53:24</time>
      </trkpt>
      <trkpt lat="42.86792" lon="-2.22704">
        <ele>565</ele>
        <time>2021-05-29 07:53:25</time>
      </trkpt>
      <trkpt lat="42.86795" lon="-2.22692">
        <ele>565</ele>
        <time>2021-05-29 07:53:26</time>
      </trkpt>
      <trkpt lat="42.86799" lon="-2.22681">
        <ele>565</ele>
        <time>2021-05-29 07:53:27</time>
      </trkpt>
      <trkpt lat="42.86802" lon="-2.2267">
        <ele>565</ele>
        <time>2021-05-29 07:53:28</time>
      </trkpt>
      <trkpt lat="42.86806" lon="-2.22658">
        <ele>565</ele>
        <time>2021-05-29 07:53:29</time>
      </trkpt>
      <trkpt lat="42.8681" lon="-2.22647">
        <ele>565</ele>
        <time>2021-05-29 07:53:30</time>
      </trkpt>
      <trkpt lat="42.86813" lon="-2.22635">
        <ele>565</ele>
        <time>2021-05-29 07:53:31</time>
      </trkpt>
      <trkpt lat="42.86817" lon="-2.22623">
        <ele>565</ele>
        <time>2021-05-29 07:53:32</time>
      </trkpt>
      <trkpt lat="42.86821" lon="-2.22612">
        <ele>565</ele>
        <time>2021-05-29 07:53:33</time>
      </trkpt>
      <trkpt lat="42.86824" lon="-2.226">
        <ele>564.8</ele>
        <time>2021-05-29 07:53:34</time>
      </trkpt>
      <trkpt lat="42.86828" lon="-2.22588">
        <ele>564.8</ele>
        <time>2021-05-29 07:53:35</time>
      </trkpt>
      <trkpt lat="42.86832" lon="-2.22577">
        <ele>564.8</ele>
        <time>2021-05-29 07:53:36</time>
      </trkpt>
      <trkpt lat="42.86835" lon="-2.22565">
        <ele>565</ele>
        <time>2021-05-29 07:53:37</time>
      </trkpt>
      <trkpt lat="42.86839" lon="-2.22554">
        <ele>565</ele>
        <time>2021-05-29 07:53:38</time>
      </trkpt>
      <trkpt lat="42.86843" lon="-2.22543">
        <ele>565</ele>
        <time>2021-05-29 07:53:39</time>
      </trkpt>
      <trkpt lat="42.86846" lon="-2.22531">
        <ele>565</ele>
        <time>2021-05-29 07:53:40</time>
      </trkpt>
      <trkpt lat="42.8685" lon="-2.22519">
        <ele>564.8</ele>
        <time>2021-05-29 07:53:41</time>
      </trkpt>
      <trkpt lat="42.86854" lon="-2.22508">
        <ele>564.8</ele>
        <time>2021-05-29 07:53:42</time>
      </trkpt>
      <trkpt lat="42.86857" lon="-2.22496">
        <ele>564.8</ele>
        <time>2021-05-29 07:53:43</time>
      </trkpt>
      <trkpt lat="42.86861" lon="-2.22485">
        <ele>564.8</ele>
        <time>2021-05-29 07:53:44</time>
      </trkpt>
      <trkpt lat="42.86865" lon="-2.22473">
        <ele>564.8</ele>
        <time>2021-05-29 07:53:45</time>
      </trkpt>
      <trkpt lat="42.86868" lon="-2.22462">
        <ele>564.8</ele>
        <time>2021-05-29 07:53:46</time>
      </trkpt>
      <trkpt lat="42.86872" lon="-2.2245">
        <ele>564.8</ele>
        <time>2021-05-29 07:53:47</time>
      </trkpt>
      <trkpt lat="42.86875" lon="-2.22438">
        <ele>564.8</ele>
        <time>2021-05-29 07:53:48</time>
      </trkpt>
      <trkpt lat="42.86879" lon="-2.22427">
        <ele>564.8</ele>
        <time>2021-05-29 07:53:49</time>
      </trkpt>
      <trkpt lat="42.86882" lon="-2.22415">
        <ele>564.8</ele>
        <time>2021-05-29 07:53:50</time>
      </trkpt>
      <trkpt lat="42.86886" lon="-2.22404">
        <ele>564.8</ele>
        <time>2021-05-29 07:53:51</time>
      </trkpt>
      <trkpt lat="42.86889" lon="-2.22392">
        <ele>565</ele>
        <time>2021-05-29 07:53:52</time>
      </trkpt>
      <trkpt lat="42.86893" lon="-2.22381">
        <ele>565</ele>
        <time>2021-05-29 07:53:53</time>
      </trkpt>
      <trkpt lat="42.86897" lon="-2.2237">
        <ele>565</ele>
        <time>2021-05-29 07:53:54</time>
      </trkpt>
      <trkpt lat="42.869" lon="-2.22358">
        <ele>565</ele>
        <time>2021-05-29 07:53:55</time>
      </trkpt>
      <trkpt lat="42.86903" lon="-2.22347">
        <ele>565</ele>
        <time>2021-05-29 07:53:56</time>
      </trkpt>
      <trkpt lat="42.86907" lon="-2.22336">
        <ele>564.8</ele>
        <time>2021-05-29 07:53:57</time>
      </trkpt>
      <trkpt lat="42.8691" lon="-2.22325">
        <ele>564.8</ele>
        <time>2021-05-29 07:53:58</time>
      </trkpt>
      <trkpt lat="42.86914" lon="-2.22313">
        <ele>564.8</ele>
        <time>2021-05-29 07:53:59</time>
      </trkpt>
      <trkpt lat="42.86918" lon="-2.22302">
        <ele>564.8</ele>
        <time>2021-05-29 07:54:00</time>
      </trkpt>
      <trkpt lat="42.86921" lon="-2.2229">
        <ele>564.8</ele>
        <time>2021-05-29 07:54:01</time>
      </trkpt>
      <trkpt lat="42.86925" lon="-2.22278">
        <ele>564.6</ele>
        <time>2021-05-29 07:54:02</time>
      </trkpt>
      <trkpt lat="42.86929" lon="-2.22266">
        <ele>564.6</ele>
        <time>2021-05-29 07:54:03</time>
      </trkpt>
      <trkpt lat="42.86933" lon="-2.22254">
        <ele>564.6</ele>
        <time>2021-05-29 07:54:04</time>
      </trkpt>
      <trkpt lat="42.86936" lon="-2.22242">
        <ele>564.6</ele>
        <time>2021-05-29 07:54:05</time>
      </trkpt>
      <trkpt lat="42.8694" lon="-2.22231">
        <ele>564.6</ele>
        <time>2021-05-29 07:54:06</time>
      </trkpt>
      <trkpt lat="42.86944" lon="-2.22219">
        <ele>564.6</ele>
        <time>2021-05-29 07:54:07</time>
      </trkpt>
      <trkpt lat="42.86948" lon="-2.22207">
        <ele>564.6</ele>
        <time>2021-05-29 07:54:08</time>
      </trkpt>
      <trkpt lat="42.86952" lon="-2.22195">
        <ele>564.6</ele>
        <time>2021-05-29 07:54:09</time>
      </trkpt>
      <trkpt lat="42.86956" lon="-2.22183">
        <ele>564.4</ele>
        <time>2021-05-29 07:54:10</time>
      </trkpt>
      <trkpt lat="42.86959" lon="-2.22171">
        <ele>564.4</ele>
        <time>2021-05-29 07:54:11</time>
      </trkpt>
      <trkpt lat="42.86963" lon="-2.2216">
        <ele>564.4</ele>
        <time>2021-05-29 07:54:12</time>
      </trkpt>
      <trkpt lat="42.86967" lon="-2.22148">
        <ele>564.4</ele>
        <time>2021-05-29 07:54:13</time>
      </trkpt>
      <trkpt lat="42.86971" lon="-2.22135">
        <ele>564.4</ele>
        <time>2021-05-29 07:54:14</time>
      </trkpt>
      <trkpt lat="42.86974" lon="-2.22123">
        <ele>564.2</ele>
        <time>2021-05-29 07:54:15</time>
      </trkpt>
      <trkpt lat="42.86978" lon="-2.22111">
        <ele>564.4</ele>
        <time>2021-05-29 07:54:16</time>
      </trkpt>
      <trkpt lat="42.86982" lon="-2.22099">
        <ele>564.4</ele>
        <time>2021-05-29 07:54:17</time>
      </trkpt>
      <trkpt lat="42.86986" lon="-2.22087">
        <ele>564.2</ele>
        <time>2021-05-29 07:54:18</time>
      </trkpt>
      <trkpt lat="42.8699" lon="-2.22075">
        <ele>564.2</ele>
        <time>2021-05-29 07:54:19</time>
      </trkpt>
      <trkpt lat="42.86994" lon="-2.22064">
        <ele>564.2</ele>
        <time>2021-05-29 07:54:20</time>
      </trkpt>
      <trkpt lat="42.86997" lon="-2.22052">
        <ele>564.2</ele>
        <time>2021-05-29 07:54:21</time>
      </trkpt>
      <trkpt lat="42.87001" lon="-2.2204">
        <ele>564</ele>
        <time>2021-05-29 07:54:22</time>
      </trkpt>
      <trkpt lat="42.87005" lon="-2.22028">
        <ele>564</ele>
        <time>2021-05-29 07:54:23</time>
      </trkpt>
      <trkpt lat="42.87009" lon="-2.22016">
        <ele>564</ele>
        <time>2021-05-29 07:54:24</time>
      </trkpt>
      <trkpt lat="42.87013" lon="-2.22004">
        <ele>564</ele>
        <time>2021-05-29 07:54:25</time>
      </trkpt>
      <trkpt lat="42.87016" lon="-2.21992">
        <ele>564</ele>
        <time>2021-05-29 07:54:26</time>
      </trkpt>
      <trkpt lat="42.8702" lon="-2.2198">
        <ele>563.8</ele>
        <time>2021-05-29 07:54:27</time>
      </trkpt>
      <trkpt lat="42.87023" lon="-2.21968">
        <ele>563.8</ele>
        <time>2021-05-29 07:54:28</time>
      </trkpt>
      <trkpt lat="42.87027" lon="-2.21956">
        <ele>563.8</ele>
        <time>2021-05-29 07:54:29</time>
      </trkpt>
      <trkpt lat="42.87031" lon="-2.21944">
        <ele>563.8</ele>
        <time>2021-05-29 07:54:30</time>
      </trkpt>
      <trkpt lat="42.87035" lon="-2.21932">
        <ele>563.6</ele>
        <time>2021-05-29 07:54:31</time>
      </trkpt>
      <trkpt lat="42.87039" lon="-2.2192">
        <ele>563.8</ele>
        <time>2021-05-29 07:54:32</time>
      </trkpt>
      <trkpt lat="42.87043" lon="-2.21908">
        <ele>563.8</ele>
        <time>2021-05-29 07:54:33</time>
      </trkpt>
      <trkpt lat="42.87047" lon="-2.21896">
        <ele>563.6</ele>
        <time>2021-05-29 07:54:34</time>
      </trkpt>
      <trkpt lat="42.8705" lon="-2.21884">
        <ele>563.6</ele>
        <time>2021-05-29 07:54:35</time>
      </trkpt>
      <trkpt lat="42.87054" lon="-2.21872">
        <ele>563.6</ele>
        <time>2021-05-29 07:54:36</time>
      </trkpt>
      <trkpt lat="42.87058" lon="-2.2186">
        <ele>563.6</ele>
        <time>2021-05-29 07:54:37</time>
      </trkpt>
      <trkpt lat="42.87062" lon="-2.21848">
        <ele>563.6</ele>
        <time>2021-05-29 07:54:38</time>
      </trkpt>
      <trkpt lat="42.87065" lon="-2.21836">
        <ele>563.6</ele>
        <time>2021-05-29 07:54:39</time>
      </trkpt>
      <trkpt lat="42.87068" lon="-2.21824">
        <ele>563.6</ele>
        <time>2021-05-29 07:54:40</time>
      </trkpt>
      <trkpt lat="42.87071" lon="-2.21812">
        <ele>563.4</ele>
        <time>2021-05-29 07:54:41</time>
      </trkpt>
      <trkpt lat="42.87074" lon="-2.21801">
        <ele>563.4</ele>
        <time>2021-05-29 07:54:42</time>
      </trkpt>
      <trkpt lat="42.87077" lon="-2.21789">
        <ele>563.4</ele>
        <time>2021-05-29 07:54:43</time>
      </trkpt>
      <trkpt lat="42.8708" lon="-2.21777">
        <ele>563.2</ele>
        <time>2021-05-29 07:54:44</time>
      </trkpt>
      <trkpt lat="42.87083" lon="-2.21766">
        <ele>563.2</ele>
        <time>2021-05-29 07:54:45</time>
      </trkpt>
      <trkpt lat="42.87086" lon="-2.21755">
        <ele>563</ele>
        <time>2021-05-29 07:54:46</time>
      </trkpt>
      <trkpt lat="42.87089" lon="-2.21743">
        <ele>563</ele>
        <time>2021-05-29 07:54:47</time>
      </trkpt>
      <trkpt lat="42.87092" lon="-2.21732">
        <ele>562.8</ele>
        <time>2021-05-29 07:54:48</time>
      </trkpt>
      <trkpt lat="42.87095" lon="-2.21721">
        <ele>562.8</ele>
        <time>2021-05-29 07:54:49</time>
      </trkpt>
      <trkpt lat="42.87098" lon="-2.21709">
        <ele>563</ele>
        <time>2021-05-29 07:54:50</time>
      </trkpt>
      <trkpt lat="42.87101" lon="-2.21698">
        <ele>562.8</ele>
        <time>2021-05-29 07:54:51</time>
      </trkpt>
      <trkpt lat="42.87104" lon="-2.21686">
        <ele>562.8</ele>
        <time>2021-05-29 07:54:52</time>
      </trkpt>
      <trkpt lat="42.87107" lon="-2.21674">
        <ele>562.8</ele>
        <time>2021-05-29 07:54:53</time>
      </trkpt>
      <trkpt lat="42.8711" lon="-2.21663">
        <ele>562.8</ele>
        <time>2021-05-29 07:54:54</time>
      </trkpt>
      <trkpt lat="42.87113" lon="-2.21652">
        <ele>562.8</ele>
        <time>2021-05-29 07:54:55</time>
      </trkpt>
      <trkpt lat="42.87116" lon="-2.2164">
        <ele>562.8</ele>
        <time>2021-05-29 07:54:56</time>
      </trkpt>
      <trkpt lat="42.87119" lon="-2.21629">
        <ele>562.8</ele>
        <time>2021-05-29 07:54:57</time>
      </trkpt>
      <trkpt lat="42.87122" lon="-2.21617">
        <ele>562.8</ele>
        <time>2021-05-29 07:54:58</time>
      </trkpt>
      <trkpt lat="42.87125" lon="-2.21605">
        <ele>562.8</ele>
        <time>2021-05-29 07:54:59</time>
      </trkpt>
      <trkpt lat="42.87128" lon="-2.21593">
        <ele>562.8</ele>
        <time>2021-05-29 07:55:00</time>
      </trkpt>
      <trkpt lat="42.87131" lon="-2.21581">
        <ele>562.6</ele>
        <time>2021-05-29 07:55:01</time>
      </trkpt>
      <trkpt lat="42.87134" lon="-2.21568">
        <ele>562.6</ele>
        <time>2021-05-29 07:55:02</time>
      </trkpt>
      <trkpt lat="42.87138" lon="-2.21556">
        <ele>562.6</ele>
        <time>2021-05-29 07:55:03</time>
      </trkpt>
      <trkpt lat="42.87141" lon="-2.21544">
        <ele>562.8</ele>
        <time>2021-05-29 07:55:04</time>
      </trkpt>
      <trkpt lat="42.87144" lon="-2.21531">
        <ele>562.8</ele>
        <time>2021-05-29 07:55:05</time>
      </trkpt>
      <trkpt lat="42.87147" lon="-2.21518">
        <ele>562.8</ele>
        <time>2021-05-29 07:55:06</time>
      </trkpt>
      <trkpt lat="42.8715" lon="-2.21504">
        <ele>562.6</ele>
        <time>2021-05-29 07:55:07</time>
      </trkpt>
      <trkpt lat="42.87154" lon="-2.21491">
        <ele>562.6</ele>
        <time>2021-05-29 07:55:08</time>
      </trkpt>
      <trkpt lat="42.87157" lon="-2.21478">
        <ele>562.6</ele>
        <time>2021-05-29 07:55:09</time>
      </trkpt>
      <trkpt lat="42.87161" lon="-2.21464">
        <ele>562.4</ele>
        <time>2021-05-29 07:55:10</time>
      </trkpt>
      <trkpt lat="42.87164" lon="-2.21451">
        <ele>562.2</ele>
        <time>2021-05-29 07:55:11</time>
      </trkpt>
      <trkpt lat="42.87167" lon="-2.21438">
        <ele>562.2</ele>
        <time>2021-05-29 07:55:12</time>
      </trkpt>
      <trkpt lat="42.87171" lon="-2.21425">
        <ele>562</ele>
        <time>2021-05-29 07:55:13</time>
      </trkpt>
      <trkpt lat="42.87174" lon="-2.21412">
        <ele>562</ele>
        <time>2021-05-29 07:55:14</time>
      </trkpt>
      <trkpt lat="42.87177" lon="-2.214">
        <ele>562</ele>
        <time>2021-05-29 07:55:15</time>
      </trkpt>
      <trkpt lat="42.87181" lon="-2.21387">
        <ele>562</ele>
        <time>2021-05-29 07:55:16</time>
      </trkpt>
      <trkpt lat="42.87184" lon="-2.21374">
        <ele>561.8</ele>
        <time>2021-05-29 07:55:17</time>
      </trkpt>
      <trkpt lat="42.87187" lon="-2.21361">
        <ele>561.8</ele>
        <time>2021-05-29 07:55:18</time>
      </trkpt>
      <trkpt lat="42.87191" lon="-2.21349">
        <ele>561.8</ele>
        <time>2021-05-29 07:55:19</time>
      </trkpt>
      <trkpt lat="42.87194" lon="-2.21336">
        <ele>561.8</ele>
        <time>2021-05-29 07:55:20</time>
      </trkpt>
      <trkpt lat="42.87197" lon="-2.21324">
        <ele>561.8</ele>
        <time>2021-05-29 07:55:21</time>
      </trkpt>
      <trkpt lat="42.872" lon="-2.21312">
        <ele>561.8</ele>
        <time>2021-05-29 07:55:22</time>
      </trkpt>
      <trkpt lat="42.87203" lon="-2.213">
        <ele>561.8</ele>
        <time>2021-05-29 07:55:23</time>
      </trkpt>
      <trkpt lat="42.87206" lon="-2.21288">
        <ele>561.6</ele>
        <time>2021-05-29 07:55:24</time>
      </trkpt>
      <trkpt lat="42.87209" lon="-2.21276">
        <ele>561.6</ele>
        <time>2021-05-29 07:55:25</time>
      </trkpt>
      <trkpt lat="42.87212" lon="-2.21263">
        <ele>561.6</ele>
        <time>2021-05-29 07:55:26</time>
      </trkpt>
      <trkpt lat="42.87216" lon="-2.21251">
        <ele>561.6</ele>
        <time>2021-05-29 07:55:27</time>
      </trkpt>
      <trkpt lat="42.87219" lon="-2.21239">
        <ele>561.4</ele>
        <time>2021-05-29 07:55:28</time>
      </trkpt>
      <trkpt lat="42.87222" lon="-2.21227">
        <ele>561.4</ele>
        <time>2021-05-29 07:55:29</time>
      </trkpt>
      <trkpt lat="42.87225" lon="-2.21215">
        <ele>561.4</ele>
        <time>2021-05-29 07:55:30</time>
      </trkpt>
      <trkpt lat="42.87228" lon="-2.21203">
        <ele>561.4</ele>
        <time>2021-05-29 07:55:31</time>
      </trkpt>
      <trkpt lat="42.87231" lon="-2.21191">
        <ele>561.2</ele>
        <time>2021-05-29 07:55:32</time>
      </trkpt>
      <trkpt lat="42.87234" lon="-2.21179">
        <ele>561.2</ele>
        <time>2021-05-29 07:55:33</time>
      </trkpt>
      <trkpt lat="42.87238" lon="-2.21167">
        <ele>561.2</ele>
        <time>2021-05-29 07:55:34</time>
      </trkpt>
      <trkpt lat="42.87241" lon="-2.21156">
        <ele>561.2</ele>
        <time>2021-05-29 07:55:35</time>
      </trkpt>
      <trkpt lat="42.87244" lon="-2.21145">
        <ele>561</ele>
        <time>2021-05-29 07:55:36</time>
      </trkpt>
      <trkpt lat="42.87247" lon="-2.21133">
        <ele>561</ele>
        <time>2021-05-29 07:55:37</time>
      </trkpt>
      <trkpt lat="42.8725" lon="-2.21122">
        <ele>561</ele>
        <time>2021-05-29 07:55:38</time>
      </trkpt>
      <trkpt lat="42.87253" lon="-2.2111">
        <ele>561</ele>
        <time>2021-05-29 07:55:39</time>
      </trkpt>
      <trkpt lat="42.87256" lon="-2.21099">
        <ele>560.8</ele>
        <time>2021-05-29 07:55:40</time>
      </trkpt>
      <trkpt lat="42.87259" lon="-2.21087">
        <ele>560.8</ele>
        <time>2021-05-29 07:55:41</time>
      </trkpt>
      <trkpt lat="42.87262" lon="-2.21076">
        <ele>560.8</ele>
        <time>2021-05-29 07:55:42</time>
      </trkpt>
      <trkpt lat="42.87265" lon="-2.21065">
        <ele>560.6</ele>
        <time>2021-05-29 07:55:43</time>
      </trkpt>
      <trkpt lat="42.87268" lon="-2.21053">
        <ele>560.8</ele>
        <time>2021-05-29 07:55:44</time>
      </trkpt>
      <trkpt lat="42.87271" lon="-2.21042">
        <ele>560.6</ele>
        <time>2021-05-29 07:55:45</time>
      </trkpt>
      <trkpt lat="42.87273" lon="-2.21031">
        <ele>560.6</ele>
        <time>2021-05-29 07:55:46</time>
      </trkpt>
      <trkpt lat="42.87276" lon="-2.21019">
        <ele>560.4</ele>
        <time>2021-05-29 07:55:47</time>
      </trkpt>
      <trkpt lat="42.87279" lon="-2.21008">
        <ele>560.4</ele>
        <time>2021-05-29 07:55:48</time>
      </trkpt>
      <trkpt lat="42.87282" lon="-2.20997">
        <ele>560.4</ele>
        <time>2021-05-29 07:55:49</time>
      </trkpt>
      <trkpt lat="42.87285" lon="-2.20986">
        <ele>560.2</ele>
        <time>2021-05-29 07:55:50</time>
      </trkpt>
      <trkpt lat="42.87288" lon="-2.20975">
        <ele>560.2</ele>
        <time>2021-05-29 07:55:51</time>
      </trkpt>
      <trkpt lat="42.87291" lon="-2.20964">
        <ele>560.2</ele>
        <time>2021-05-29 07:55:52</time>
      </trkpt>
      <trkpt lat="42.87294" lon="-2.20953">
        <ele>560</ele>
        <time>2021-05-29 07:55:53</time>
      </trkpt>
      <trkpt lat="42.87297" lon="-2.20942">
        <ele>560</ele>
        <time>2021-05-29 07:55:54</time>
      </trkpt>
      <trkpt lat="42.873" lon="-2.20931">
        <ele>560</ele>
        <time>2021-05-29 07:55:55</time>
      </trkpt>
      <trkpt lat="42.87303" lon="-2.2092">
        <ele>559.8</ele>
        <time>2021-05-29 07:55:56</time>
      </trkpt>
      <trkpt lat="42.87306" lon="-2.20908">
        <ele>560</ele>
        <time>2021-05-29 07:55:57</time>
      </trkpt>
      <trkpt lat="42.87308" lon="-2.20897">
        <ele>560</ele>
        <time>2021-05-29 07:55:58</time>
      </trkpt>
      <trkpt lat="42.87311" lon="-2.20886">
        <ele>559.8</ele>
        <time>2021-05-29 07:55:59</time>
      </trkpt>
      <trkpt lat="42.87314" lon="-2.20875">
        <ele>559.8</ele>
        <time>2021-05-29 07:56:00</time>
      </trkpt>
      <trkpt lat="42.87317" lon="-2.20864">
        <ele>559.8</ele>
        <time>2021-05-29 07:56:01</time>
      </trkpt>
      <trkpt lat="42.8732" lon="-2.20853">
        <ele>559.6</ele>
        <time>2021-05-29 07:56:02</time>
      </trkpt>
      <trkpt lat="42.87323" lon="-2.20842">
        <ele>559.6</ele>
        <time>2021-05-29 07:56:03</time>
      </trkpt>
      <trkpt lat="42.87325" lon="-2.20831">
        <ele>559.4</ele>
        <time>2021-05-29 07:56:04</time>
      </trkpt>
      <trkpt lat="42.87328" lon="-2.2082">
        <ele>559.4</ele>
        <time>2021-05-29 07:56:05</time>
      </trkpt>
      <trkpt lat="42.87331" lon="-2.20809">
        <ele>559.6</ele>
        <time>2021-05-29 07:56:06</time>
      </trkpt>
      <trkpt lat="42.87334" lon="-2.20799">
        <ele>559.2</ele>
        <time>2021-05-29 07:56:07</time>
      </trkpt>
      <trkpt lat="42.87337" lon="-2.20788">
        <ele>559.4</ele>
        <time>2021-05-29 07:56:08</time>
      </trkpt>
      <trkpt lat="42.87341" lon="-2.20777">
        <ele>559.2</ele>
        <time>2021-05-29 07:56:09</time>
      </trkpt>
      <trkpt lat="42.87343" lon="-2.20766">
        <ele>559.4</ele>
        <time>2021-05-29 07:56:10</time>
      </trkpt>
      <trkpt lat="42.87346" lon="-2.20756">
        <ele>559.2</ele>
        <time>2021-05-29 07:56:11</time>
      </trkpt>
      <trkpt lat="42.87349" lon="-2.20746">
        <ele>559</ele>
        <time>2021-05-29 07:56:12</time>
      </trkpt>
      <trkpt lat="42.87352" lon="-2.20737">
        <ele>559</ele>
        <time>2021-05-29 07:56:13</time>
      </trkpt>
      <trkpt lat="42.87355" lon="-2.20727">
        <ele>558.8</ele>
        <time>2021-05-29 07:56:14</time>
      </trkpt>
      <trkpt lat="42.87358" lon="-2.20718">
        <ele>558.8</ele>
        <time>2021-05-29 07:56:15</time>
      </trkpt>
      <trkpt lat="42.8736" lon="-2.20708">
        <ele>558.8</ele>
        <time>2021-05-29 07:56:16</time>
      </trkpt>
      <trkpt lat="42.87363" lon="-2.20699">
        <ele>558.8</ele>
        <time>2021-05-29 07:56:17</time>
      </trkpt>
      <trkpt lat="42.87366" lon="-2.20689">
        <ele>558.8</ele>
        <time>2021-05-29 07:56:18</time>
      </trkpt>
      <trkpt lat="42.87369" lon="-2.2068">
        <ele>558.8</ele>
        <time>2021-05-29 07:56:19</time>
      </trkpt>
      <trkpt lat="42.87372" lon="-2.20671">
        <ele>558.8</ele>
        <time>2021-05-29 07:56:20</time>
      </trkpt>
      <trkpt lat="42.87375" lon="-2.20661">
        <ele>558.8</ele>
        <time>2021-05-29 07:56:21</time>
      </trkpt>
      <trkpt lat="42.87378" lon="-2.20652">
        <ele>558.8</ele>
        <time>2021-05-29 07:56:22</time>
      </trkpt>
      <trkpt lat="42.87381" lon="-2.20643">
        <ele>558.6</ele>
        <time>2021-05-29 07:56:23</time>
      </trkpt>
      <trkpt lat="42.87385" lon="-2.20634">
        <ele>558.6</ele>
        <time>2021-05-29 07:56:24</time>
      </trkpt>
      <trkpt lat="42.87388" lon="-2.20626">
        <ele>558.8</ele>
        <time>2021-05-29 07:56:25</time>
      </trkpt>
      <trkpt lat="42.87391" lon="-2.20617">
        <ele>558.8</ele>
        <time>2021-05-29 07:56:26</time>
      </trkpt>
      <trkpt lat="42.87394" lon="-2.20608">
        <ele>558.8</ele>
        <time>2021-05-29 07:56:27</time>
      </trkpt>
      <trkpt lat="42.87397" lon="-2.20599">
        <ele>558.8</ele>
        <time>2021-05-29 07:56:28</time>
      </trkpt>
      <trkpt lat="42.874" lon="-2.20591">
        <ele>558.8</ele>
        <time>2021-05-29 07:56:29</time>
      </trkpt>
      <trkpt lat="42.87403" lon="-2.20582">
        <ele>558.6</ele>
        <time>2021-05-29 07:56:30</time>
      </trkpt>
      <trkpt lat="42.87406" lon="-2.20573">
        <ele>558.6</ele>
        <time>2021-05-29 07:56:31</time>
      </trkpt>
      <trkpt lat="42.87409" lon="-2.20564">
        <ele>558.6</ele>
        <time>2021-05-29 07:56:32</time>
      </trkpt>
      <trkpt lat="42.87411" lon="-2.20555">
        <ele>558.6</ele>
        <time>2021-05-29 07:56:33</time>
      </trkpt>
      <trkpt lat="42.87414" lon="-2.20545">
        <ele>558.6</ele>
        <time>2021-05-29 07:56:34</time>
      </trkpt>
      <trkpt lat="42.87417" lon="-2.20536">
        <ele>558.6</ele>
        <time>2021-05-29 07:56:35</time>
      </trkpt>
      <trkpt lat="42.87419" lon="-2.20527">
        <ele>558.6</ele>
        <time>2021-05-29 07:56:36</time>
      </trkpt>
      <trkpt lat="42.87422" lon="-2.20518">
        <ele>558.8</ele>
        <time>2021-05-29 07:56:37</time>
      </trkpt>
      <trkpt lat="42.87424" lon="-2.20508">
        <ele>558.4</ele>
        <time>2021-05-29 07:56:38</time>
      </trkpt>
      <trkpt lat="42.87427" lon="-2.20499">
        <ele>558.6</ele>
        <time>2021-05-29 07:56:39</time>
      </trkpt>
      <trkpt lat="42.87429" lon="-2.20489">
        <ele>558.6</ele>
        <time>2021-05-29 07:56:40</time>
      </trkpt>
      <trkpt lat="42.87431" lon="-2.2048">
        <ele>558.4</ele>
        <time>2021-05-29 07:56:41</time>
      </trkpt>
      <trkpt lat="42.87434" lon="-2.2047">
        <ele>558.4</ele>
        <time>2021-05-29 07:56:42</time>
      </trkpt>
      <trkpt lat="42.87436" lon="-2.20461">
        <ele>558.4</ele>
        <time>2021-05-29 07:56:43</time>
      </trkpt>
      <trkpt lat="42.87438" lon="-2.20452">
        <ele>558.4</ele>
        <time>2021-05-29 07:56:44</time>
      </trkpt>
      <trkpt lat="42.8744" lon="-2.20443">
        <ele>558.2</ele>
        <time>2021-05-29 07:56:45</time>
      </trkpt>
      <trkpt lat="42.87442" lon="-2.20434">
        <ele>558.2</ele>
        <time>2021-05-29 07:56:46</time>
      </trkpt>
      <trkpt lat="42.87443" lon="-2.20425">
        <ele>558.2</ele>
        <time>2021-05-29 07:56:47</time>
      </trkpt>
      <trkpt lat="42.87444" lon="-2.20415">
        <ele>558</ele>
        <time>2021-05-29 07:56:48</time>
      </trkpt>
      <trkpt lat="42.87444" lon="-2.20406">
        <ele>558</ele>
        <time>2021-05-29 07:56:49</time>
      </trkpt>
      <trkpt lat="42.87444" lon="-2.20396">
        <ele>558</ele>
        <time>2021-05-29 07:56:50</time>
      </trkpt>
      <trkpt lat="42.87444" lon="-2.20387">
        <ele>558</ele>
        <time>2021-05-29 07:56:51</time>
      </trkpt>
      <trkpt lat="42.87445" lon="-2.20378">
        <ele>558</ele>
        <time>2021-05-29 07:56:52</time>
      </trkpt>
      <trkpt lat="42.87446" lon="-2.20368">
        <ele>558.2</ele>
        <time>2021-05-29 07:56:53</time>
      </trkpt>
      <trkpt lat="42.87448" lon="-2.2036">
        <ele>557.8</ele>
        <time>2021-05-29 07:56:54</time>
      </trkpt>
      <trkpt lat="42.87451" lon="-2.20351">
        <ele>557.8</ele>
        <time>2021-05-29 07:56:55</time>
      </trkpt>
      <trkpt lat="42.87455" lon="-2.20343">
        <ele>558</ele>
        <time>2021-05-29 07:56:56</time>
      </trkpt>
      <trkpt lat="42.87458" lon="-2.20335">
        <ele>557.8</ele>
        <time>2021-05-29 07:56:57</time>
      </trkpt>
      <trkpt lat="42.87461" lon="-2.20326">
        <ele>557.8</ele>
        <time>2021-05-29 07:56:58</time>
      </trkpt>
      <trkpt lat="42.87463" lon="-2.20317">
        <ele>557.8</ele>
        <time>2021-05-29 07:56:59</time>
      </trkpt>
      <trkpt lat="42.87466" lon="-2.20308">
        <ele>557.8</ele>
        <time>2021-05-29 07:57:00</time>
      </trkpt>
      <trkpt lat="42.87468" lon="-2.20298">
        <ele>557.8</ele>
        <time>2021-05-29 07:57:01</time>
      </trkpt>
      <trkpt lat="42.87471" lon="-2.20288">
        <ele>557.6</ele>
        <time>2021-05-29 07:57:02</time>
      </trkpt>
      <trkpt lat="42.87472" lon="-2.20278">
        <ele>557.6</ele>
        <time>2021-05-29 07:57:03</time>
      </trkpt>
      <trkpt lat="42.87473" lon="-2.20267">
        <ele>557.6</ele>
        <time>2021-05-29 07:57:04</time>
      </trkpt>
      <trkpt lat="42.87474" lon="-2.20257">
        <ele>557.6</ele>
        <time>2021-05-29 07:57:05</time>
      </trkpt>
      <trkpt lat="42.87474" lon="-2.20246">
        <ele>557.4</ele>
        <time>2021-05-29 07:57:06</time>
      </trkpt>
      <trkpt lat="42.87473" lon="-2.20236">
        <ele>557.4</ele>
        <time>2021-05-29 07:57:07</time>
      </trkpt>
      <trkpt lat="42.87473" lon="-2.20226">
        <ele>557.4</ele>
        <time>2021-05-29 07:57:08</time>
      </trkpt>
      <trkpt lat="42.87472" lon="-2.20216">
        <ele>557.4</ele>
        <time>2021-05-29 07:57:09</time>
      </trkpt>
      <trkpt lat="42.87471" lon="-2.20206">
        <ele>557.2</ele>
        <time>2021-05-29 07:57:10</time>
      </trkpt>
      <trkpt lat="42.8747" lon="-2.20196">
        <ele>557.2</ele>
        <time>2021-05-29 07:57:11</time>
      </trkpt>
      <trkpt lat="42.87469" lon="-2.20187">
        <ele>557.4</ele>
        <time>2021-05-29 07:57:12</time>
      </trkpt>
      <trkpt lat="42.87467" lon="-2.20177">
        <ele>557.2</ele>
        <time>2021-05-29 07:57:13</time>
      </trkpt>
      <trkpt lat="42.87466" lon="-2.20168">
        <ele>557.2</ele>
        <time>2021-05-29 07:57:14</time>
      </trkpt>
      <trkpt lat="42.87465" lon="-2.20159">
        <ele>557.2</ele>
        <time>2021-05-29 07:57:15</time>
      </trkpt>
      <trkpt lat="42.87463" lon="-2.2015">
        <ele>557.2</ele>
        <time>2021-05-29 07:57:16</time>
      </trkpt>
      <trkpt lat="42.87462" lon="-2.20141">
        <ele>557.2</ele>
        <time>2021-05-29 07:57:17</time>
      </trkpt>
      <trkpt lat="42.87461" lon="-2.20132">
        <ele>557.2</ele>
        <time>2021-05-29 07:57:18</time>
      </trkpt>
      <trkpt lat="42.87459" lon="-2.20123">
        <ele>557</ele>
        <time>2021-05-29 07:57:19</time>
      </trkpt>
      <trkpt lat="42.87457" lon="-2.20114">
        <ele>557</ele>
        <time>2021-05-29 07:57:20</time>
      </trkpt>
      <trkpt lat="42.87455" lon="-2.20104">
        <ele>557</ele>
        <time>2021-05-29 07:57:21</time>
      </trkpt>
      <trkpt lat="42.87454" lon="-2.20095">
        <ele>557</ele>
        <time>2021-05-29 07:57:22</time>
      </trkpt>
      <trkpt lat="42.87452" lon="-2.20086">
        <ele>557</ele>
        <time>2021-05-29 07:57:23</time>
      </trkpt>
      <trkpt lat="42.87451" lon="-2.20076">
        <ele>556.8</ele>
        <time>2021-05-29 07:57:24</time>
      </trkpt>
      <trkpt lat="42.87449" lon="-2.20067">
        <ele>556.8</ele>
        <time>2021-05-29 07:57:25</time>
      </trkpt>
      <trkpt lat="42.87448" lon="-2.20058">
        <ele>556.8</ele>
        <time>2021-05-29 07:57:26</time>
      </trkpt>
      <trkpt lat="42.87447" lon="-2.20049">
        <ele>556.8</ele>
        <time>2021-05-29 07:57:27</time>
      </trkpt>
      <trkpt lat="42.87446" lon="-2.20039">
        <ele>556.8</ele>
        <time>2021-05-29 07:57:28</time>
      </trkpt>
      <trkpt lat="42.87445" lon="-2.2003">
        <ele>556.6</ele>
        <time>2021-05-29 07:57:29</time>
      </trkpt>
      <trkpt lat="42.87444" lon="-2.20021">
        <ele>556.6</ele>
        <time>2021-05-29 07:57:30</time>
      </trkpt>
      <trkpt lat="42.87444" lon="-2.20012">
        <ele>556.8</ele>
        <time>2021-05-29 07:57:31</time>
      </trkpt>
      <trkpt lat="42.87445" lon="-2.20003">
        <ele>556.8</ele>
        <time>2021-05-29 07:57:32</time>
      </trkpt>
      <trkpt lat="42.87446" lon="-2.19993">
        <ele>556.8</ele>
        <time>2021-05-29 07:57:33</time>
      </trkpt>
      <trkpt lat="42.87447" lon="-2.19984">
        <ele>556.4</ele>
        <time>2021-05-29 07:57:34</time>
      </trkpt>
      <trkpt lat="42.87449" lon="-2.19975">
        <ele>556.4</ele>
        <time>2021-05-29 07:57:35</time>
      </trkpt>
      <trkpt lat="42.8745" lon="-2.19966">
        <ele>556.6</ele>
        <time>2021-05-29 07:57:36</time>
      </trkpt>
      <trkpt lat="42.87451" lon="-2.19956">
        <ele>556.6</ele>
        <time>2021-05-29 07:57:37</time>
      </trkpt>
      <trkpt lat="42.87453" lon="-2.19947">
        <ele>556.6</ele>
        <time>2021-05-29 07:57:38</time>
      </trkpt>
      <trkpt lat="42.87455" lon="-2.19937">
        <ele>556.6</ele>
        <time>2021-05-29 07:57:39</time>
      </trkpt>
      <trkpt lat="42.87457" lon="-2.19928">
        <ele>556.4</ele>
        <time>2021-05-29 07:57:40</time>
      </trkpt>
      <trkpt lat="42.87458" lon="-2.19918">
        <ele>556.4</ele>
        <time>2021-05-29 07:57:41</time>
      </trkpt>
      <trkpt lat="42.8746" lon="-2.19908">
        <ele>556.4</ele>
        <time>2021-05-29 07:57:42</time>
      </trkpt>
      <trkpt lat="42.87462" lon="-2.19898">
        <ele>556.4</ele>
        <time>2021-05-29 07:57:43</time>
      </trkpt>
      <trkpt lat="42.87464" lon="-2.19888">
        <ele>556.4</ele>
        <time>2021-05-29 07:57:44</time>
      </trkpt>
      <trkpt lat="42.87466" lon="-2.19878">
        <ele>556.4</ele>
        <time>2021-05-29 07:57:45</time>
      </trkpt>
      <trkpt lat="42.87467" lon="-2.19869">
        <ele>556.4</ele>
        <time>2021-05-29 07:57:46</time>
      </trkpt>
      <trkpt lat="42.87469" lon="-2.1986">
        <ele>556.4</ele>
        <time>2021-05-29 07:57:47</time>
      </trkpt>
      <trkpt lat="42.87471" lon="-2.1985">
        <ele>556.2</ele>
        <time>2021-05-29 07:57:48</time>
      </trkpt>
      <trkpt lat="42.87472" lon="-2.19841">
        <ele>556.2</ele>
        <time>2021-05-29 07:57:49</time>
      </trkpt>
      <trkpt lat="42.87474" lon="-2.19832">
        <ele>556.2</ele>
        <time>2021-05-29 07:57:50</time>
      </trkpt>
      <trkpt lat="42.87476" lon="-2.19822">
        <ele>556.2</ele>
        <time>2021-05-29 07:57:51</time>
      </trkpt>
      <trkpt lat="42.87477" lon="-2.19812">
        <ele>556.2</ele>
        <time>2021-05-29 07:57:52</time>
      </trkpt>
      <trkpt lat="42.87479" lon="-2.19802">
        <ele>556.2</ele>
        <time>2021-05-29 07:57:53</time>
      </trkpt>
      <trkpt lat="42.87481" lon="-2.19793">
        <ele>556.2</ele>
        <time>2021-05-29 07:57:54</time>
      </trkpt>
      <trkpt lat="42.87482" lon="-2.19783">
        <ele>556.2</ele>
        <time>2021-05-29 07:57:55</time>
      </trkpt>
      <trkpt lat="42.87484" lon="-2.19774">
        <ele>556.2</ele>
        <time>2021-05-29 07:57:56</time>
      </trkpt>
      <trkpt lat="42.87485" lon="-2.19764">
        <ele>556.2</ele>
        <time>2021-05-29 07:57:57</time>
      </trkpt>
      <trkpt lat="42.87487" lon="-2.19755">
        <ele>556.2</ele>
        <time>2021-05-29 07:57:58</time>
      </trkpt>
      <trkpt lat="42.87489" lon="-2.19745">
        <ele>556.2</ele>
        <time>2021-05-29 07:57:59</time>
      </trkpt>
      <trkpt lat="42.87491" lon="-2.19735">
        <ele>556</ele>
        <time>2021-05-29 07:58:00</time>
      </trkpt>
      <trkpt lat="42.87492" lon="-2.19725">
        <ele>556</ele>
        <time>2021-05-29 07:58:01</time>
      </trkpt>
      <trkpt lat="42.87494" lon="-2.19715">
        <ele>556</ele>
        <time>2021-05-29 07:58:02</time>
      </trkpt>
      <trkpt lat="42.87495" lon="-2.19705">
        <ele>556</ele>
        <time>2021-05-29 07:58:03</time>
      </trkpt>
      <trkpt lat="42.87497" lon="-2.19695">
        <ele>556</ele>
        <time>2021-05-29 07:58:04</time>
      </trkpt>
      <trkpt lat="42.87499" lon="-2.19685">
        <ele>555.8</ele>
        <time>2021-05-29 07:58:05</time>
      </trkpt>
      <trkpt lat="42.87501" lon="-2.19675">
        <ele>555.8</ele>
        <time>2021-05-29 07:58:06</time>
      </trkpt>
      <trkpt lat="42.87502" lon="-2.19665">
        <ele>555.8</ele>
        <time>2021-05-29 07:58:07</time>
      </trkpt>
      <trkpt lat="42.87504" lon="-2.19656">
        <ele>555.8</ele>
        <time>2021-05-29 07:58:08</time>
      </trkpt>
      <trkpt lat="42.87506" lon="-2.19646">
        <ele>555.8</ele>
        <time>2021-05-29 07:58:09</time>
      </trkpt>
      <trkpt lat="42.87509" lon="-2.19637">
        <ele>555.8</ele>
        <time>2021-05-29 07:58:10</time>
      </trkpt>
      <trkpt lat="42.87512" lon="-2.19628">
        <ele>555.6</ele>
        <time>2021-05-29 07:58:11</time>
      </trkpt>
      <trkpt lat="42.87516" lon="-2.1962">
        <ele>555.6</ele>
        <time>2021-05-29 07:58:12</time>
      </trkpt>
      <trkpt lat="42.87521" lon="-2.19613">
        <ele>555.6</ele>
        <time>2021-05-29 07:58:13</time>
      </trkpt>
      <trkpt lat="42.87525" lon="-2.19606">
        <ele>555.6</ele>
        <time>2021-05-29 07:58:14</time>
      </trkpt>
      <trkpt lat="42.8753" lon="-2.19599">
        <ele>555.6</ele>
        <time>2021-05-29 07:58:15</time>
      </trkpt>
      <trkpt lat="42.87534" lon="-2.19592">
        <ele>555.6</ele>
        <time>2021-05-29 07:58:16</time>
      </trkpt>
      <trkpt lat="42.87539" lon="-2.19585">
        <ele>555.6</ele>
        <time>2021-05-29 07:58:17</time>
      </trkpt>
      <trkpt lat="42.87544" lon="-2.19578">
        <ele>555.6</ele>
        <time>2021-05-29 07:58:18</time>
      </trkpt>
      <trkpt lat="42.8755" lon="-2.19571">
        <ele>555.6</ele>
        <time>2021-05-29 07:58:19</time>
      </trkpt>
      <trkpt lat="42.87555" lon="-2.19563">
        <ele>555.6</ele>
        <time>2021-05-29 07:58:20</time>
      </trkpt>
      <trkpt lat="42.87561" lon="-2.19555">
        <ele>555.6</ele>
        <time>2021-05-29 07:58:21</time>
      </trkpt>
      <trkpt lat="42.87566" lon="-2.19547">
        <ele>555.4</ele>
        <time>2021-05-29 07:58:22</time>
      </trkpt>
      <trkpt lat="42.87572" lon="-2.19539">
        <ele>555.4</ele>
        <time>2021-05-29 07:58:23</time>
      </trkpt>
      <trkpt lat="42.87577" lon="-2.19531">
        <ele>555.4</ele>
        <time>2021-05-29 07:58:24</time>
      </trkpt>
      <trkpt lat="42.87583" lon="-2.19523">
        <ele>555.4</ele>
        <time>2021-05-29 07:58:25</time>
      </trkpt>
      <trkpt lat="42.87589" lon="-2.19515">
        <ele>555.2</ele>
        <time>2021-05-29 07:58:26</time>
      </trkpt>
      <trkpt lat="42.87595" lon="-2.19506">
        <ele>555.2</ele>
        <time>2021-05-29 07:58:27</time>
      </trkpt>
      <trkpt lat="42.87601" lon="-2.19498">
        <ele>555.2</ele>
        <time>2021-05-29 07:58:28</time>
      </trkpt>
      <trkpt lat="42.87607" lon="-2.1949">
        <ele>555.2</ele>
        <time>2021-05-29 07:58:29</time>
      </trkpt>
      <trkpt lat="42.87612" lon="-2.19481">
        <ele>555.2</ele>
        <time>2021-05-29 07:58:30</time>
      </trkpt>
      <trkpt lat="42.87618" lon="-2.19473">
        <ele>555.2</ele>
        <time>2021-05-29 07:58:31</time>
      </trkpt>
      <trkpt lat="42.87624" lon="-2.19464">
        <ele>555.2</ele>
        <time>2021-05-29 07:58:32</time>
      </trkpt>
      <trkpt lat="42.87629" lon="-2.19456">
        <ele>555</ele>
        <time>2021-05-29 07:58:33</time>
      </trkpt>
      <trkpt lat="42.87635" lon="-2.19448">
        <ele>555</ele>
        <time>2021-05-29 07:58:34</time>
      </trkpt>
      <trkpt lat="42.8764" lon="-2.1944">
        <ele>555</ele>
        <time>2021-05-29 07:58:35</time>
      </trkpt>
      <trkpt lat="42.87646" lon="-2.19432">
        <ele>555</ele>
        <time>2021-05-29 07:58:36</time>
      </trkpt>
      <trkpt lat="42.87651" lon="-2.19425">
        <ele>555.2</ele>
        <time>2021-05-29 07:58:37</time>
      </trkpt>
      <trkpt lat="42.87657" lon="-2.19417">
        <ele>555.2</ele>
        <time>2021-05-29 07:58:38</time>
      </trkpt>
      <trkpt lat="42.87662" lon="-2.19409">
        <ele>555.2</ele>
        <time>2021-05-29 07:58:39</time>
      </trkpt>
      <trkpt lat="42.87668" lon="-2.19401">
        <ele>555.2</ele>
        <time>2021-05-29 07:58:40</time>
      </trkpt>
      <trkpt lat="42.87674" lon="-2.19395">
        <ele>555.2</ele>
        <time>2021-05-29 07:58:41</time>
      </trkpt>
      <trkpt lat="42.87681" lon="-2.19389">
        <ele>555.2</ele>
        <time>2021-05-29 07:58:42</time>
      </trkpt>
      <trkpt lat="42.87688" lon="-2.19384">
        <ele>555.2</ele>
        <time>2021-05-29 07:58:43</time>
      </trkpt>
      <trkpt lat="42.87695" lon="-2.1938">
        <ele>555.4</ele>
        <time>2021-05-29 07:58:44</time>
      </trkpt>
      <trkpt lat="42.87703" lon="-2.19376">
        <ele>555.4</ele>
        <time>2021-05-29 07:58:45</time>
      </trkpt>
      <trkpt lat="42.8771" lon="-2.19373">
        <ele>555.4</ele>
        <time>2021-05-29 07:58:46</time>
      </trkpt>
      <trkpt lat="42.87718" lon="-2.1937">
        <ele>555.4</ele>
        <time>2021-05-29 07:58:47</time>
      </trkpt>
      <trkpt lat="42.87725" lon="-2.19368">
        <ele>555.2</ele>
        <time>2021-05-29 07:58:48</time>
      </trkpt>
      <trkpt lat="42.87732" lon="-2.19366">
        <ele>555.2</ele>
        <time>2021-05-29 07:58:49</time>
      </trkpt>
      <trkpt lat="42.8774" lon="-2.19364">
        <ele>555.2</ele>
        <time>2021-05-29 07:58:50</time>
      </trkpt>
      <trkpt lat="42.87747" lon="-2.19362">
        <ele>555.2</ele>
        <time>2021-05-29 07:58:51</time>
      </trkpt>
      <trkpt lat="42.87755" lon="-2.1936">
        <ele>555.2</ele>
        <time>2021-05-29 07:58:52</time>
      </trkpt>
      <trkpt lat="42.87762" lon="-2.19358">
        <ele>555.2</ele>
        <time>2021-05-29 07:58:53</time>
      </trkpt>
      <trkpt lat="42.8777" lon="-2.19356">
        <ele>555.2</ele>
        <time>2021-05-29 07:58:54</time>
      </trkpt>
      <trkpt lat="42.87778" lon="-2.19354">
        <ele>555.2</ele>
        <time>2021-05-29 07:58:55</time>
      </trkpt>
      <trkpt lat="42.87785" lon="-2.19352">
        <ele>555.2</ele>
        <time>2021-05-29 07:58:56</time>
      </trkpt>
      <trkpt lat="42.87792" lon="-2.19349">
        <ele>555.2</ele>
        <time>2021-05-29 07:58:57</time>
      </trkpt>
      <trkpt lat="42.878" lon="-2.19346">
        <ele>555</ele>
        <time>2021-05-29 07:58:58</time>
      </trkpt>
      <trkpt lat="42.87807" lon="-2.19342">
        <ele>555</ele>
        <time>2021-05-29 07:58:59</time>
      </trkpt>
      <trkpt lat="42.87813" lon="-2.19337">
        <ele>555</ele>
        <time>2021-05-29 07:59:00</time>
      </trkpt>
      <trkpt lat="42.8782" lon="-2.19331">
        <ele>555</ele>
        <time>2021-05-29 07:59:01</time>
      </trkpt>
      <trkpt lat="42.87827" lon="-2.19325">
        <ele>555</ele>
        <time>2021-05-29 07:59:02</time>
      </trkpt>
      <trkpt lat="42.87833" lon="-2.19318">
        <ele>554.8</ele>
        <time>2021-05-29 07:59:03</time>
      </trkpt>
      <trkpt lat="42.8784" lon="-2.19311">
        <ele>554.8</ele>
        <time>2021-05-29 07:59:04</time>
      </trkpt>
      <trkpt lat="42.87847" lon="-2.19304">
        <ele>555</ele>
        <time>2021-05-29 07:59:05</time>
      </trkpt>
      <trkpt lat="42.87854" lon="-2.19297">
        <ele>554.8</ele>
        <time>2021-05-29 07:59:06</time>
      </trkpt>
      <trkpt lat="42.87861" lon="-2.1929">
        <ele>554.8</ele>
        <time>2021-05-29 07:59:07</time>
      </trkpt>
      <trkpt lat="42.87867" lon="-2.19283">
        <ele>554.8</ele>
        <time>2021-05-29 07:59:08</time>
      </trkpt>
      <trkpt lat="42.87874" lon="-2.19276">
        <ele>554.8</ele>
        <time>2021-05-29 07:59:09</time>
      </trkpt>
      <trkpt lat="42.87882" lon="-2.19268">
        <ele>554.8</ele>
        <time>2021-05-29 07:59:10</time>
      </trkpt>
      <trkpt lat="42.87889" lon="-2.19261">
        <ele>554.8</ele>
        <time>2021-05-29 07:59:11</time>
      </trkpt>
      <trkpt lat="42.87896" lon="-2.19253">
        <ele>554.8</ele>
        <time>2021-05-29 07:59:12</time>
      </trkpt>
      <trkpt lat="42.87903" lon="-2.19246">
        <ele>554.8</ele>
        <time>2021-05-29 07:59:13</time>
      </trkpt>
      <trkpt lat="42.8791" lon="-2.19239">
        <ele>554.8</ele>
        <time>2021-05-29 07:59:14</time>
      </trkpt>
      <trkpt lat="42.87918" lon="-2.19231">
        <ele>554.8</ele>
        <time>2021-05-29 07:59:15</time>
      </trkpt>
      <trkpt lat="42.87925" lon="-2.19224">
        <ele>554.8</ele>
        <time>2021-05-29 07:59:16</time>
      </trkpt>
      <trkpt lat="42.87932" lon="-2.19216">
        <ele>554.8</ele>
        <time>2021-05-29 07:59:17</time>
      </trkpt>
      <trkpt lat="42.87939" lon="-2.19209">
        <ele>554.8</ele>
        <time>2021-05-29 07:59:18</time>
      </trkpt>
      <trkpt lat="42.87946" lon="-2.19201">
        <ele>554.8</ele>
        <time>2021-05-29 07:59:19</time>
      </trkpt>
      <trkpt lat="42.87953" lon="-2.19194">
        <ele>554.8</ele>
        <time>2021-05-29 07:59:20</time>
      </trkpt>
      <trkpt lat="42.8796" lon="-2.19185">
        <ele>554.8</ele>
        <time>2021-05-29 07:59:21</time>
      </trkpt>
      <trkpt lat="42.87967" lon="-2.19177">
        <ele>554.8</ele>
        <time>2021-05-29 07:59:22</time>
      </trkpt>
      <trkpt lat="42.87974" lon="-2.19169">
        <ele>554.6</ele>
        <time>2021-05-29 07:59:23</time>
      </trkpt>
      <trkpt lat="42.87981" lon="-2.19159">
        <ele>554.6</ele>
        <time>2021-05-29 07:59:24</time>
      </trkpt>
      <trkpt lat="42.87986" lon="-2.19149">
        <ele>554.6</ele>
        <time>2021-05-29 07:59:25</time>
      </trkpt>
      <trkpt lat="42.87992" lon="-2.19138">
        <ele>554.6</ele>
        <time>2021-05-29 07:59:26</time>
      </trkpt>
      <trkpt lat="42.87997" lon="-2.19127">
        <ele>554.6</ele>
        <time>2021-05-29 07:59:27</time>
      </trkpt>
      <trkpt lat="42.88002" lon="-2.19115">
        <ele>554.6</ele>
        <time>2021-05-29 07:59:28</time>
      </trkpt>
      <trkpt lat="42.88007" lon="-2.19103">
        <ele>554.6</ele>
        <time>2021-05-29 07:59:29</time>
      </trkpt>
      <trkpt lat="42.88013" lon="-2.19091">
        <ele>554.6</ele>
        <time>2021-05-29 07:59:30</time>
      </trkpt>
      <trkpt lat="42.88018" lon="-2.19079">
        <ele>554.4</ele>
        <time>2021-05-29 07:59:31</time>
      </trkpt>
      <trkpt lat="42.88023" lon="-2.19067">
        <ele>554.4</ele>
        <time>2021-05-29 07:59:32</time>
      </trkpt>
      <trkpt lat="42.88028" lon="-2.19056">
        <ele>554.2</ele>
        <time>2021-05-29 07:59:33</time>
      </trkpt>
      <trkpt lat="42.88034" lon="-2.19044">
        <ele>554.2</ele>
        <time>2021-05-29 07:59:34</time>
      </trkpt>
      <trkpt lat="42.88039" lon="-2.19032">
        <ele>554.2</ele>
        <time>2021-05-29 07:59:35</time>
      </trkpt>
      <trkpt lat="42.88043" lon="-2.1902">
        <ele>554.2</ele>
        <time>2021-05-29 07:59:36</time>
      </trkpt>
      <trkpt lat="42.88048" lon="-2.19008">
        <ele>554</ele>
        <time>2021-05-29 07:59:37</time>
      </trkpt>
      <trkpt lat="42.88053" lon="-2.18996">
        <ele>554</ele>
        <time>2021-05-29 07:59:38</time>
      </trkpt>
      <trkpt lat="42.88058" lon="-2.18984">
        <ele>554</ele>
        <time>2021-05-29 07:59:39</time>
      </trkpt>
      <trkpt lat="42.88064" lon="-2.18972">
        <ele>553.8</ele>
        <time>2021-05-29 07:59:40</time>
      </trkpt>
      <trkpt lat="42.88069" lon="-2.18959">
        <ele>553.8</ele>
        <time>2021-05-29 07:59:41</time>
      </trkpt>
      <trkpt lat="42.88075" lon="-2.18947">
        <ele>553.8</ele>
        <time>2021-05-29 07:59:42</time>
      </trkpt>
      <trkpt lat="42.8808" lon="-2.18935">
        <ele>553.8</ele>
        <time>2021-05-29 07:59:43</time>
      </trkpt>
      <trkpt lat="42.88086" lon="-2.18922">
        <ele>553.8</ele>
        <time>2021-05-29 07:59:44</time>
      </trkpt>
      <trkpt lat="42.88091" lon="-2.18909">
        <ele>553.8</ele>
        <time>2021-05-29 07:59:45</time>
      </trkpt>
      <trkpt lat="42.88096" lon="-2.18896">
        <ele>553.8</ele>
        <time>2021-05-29 07:59:46</time>
      </trkpt>
      <trkpt lat="42.88102" lon="-2.18884">
        <ele>553.8</ele>
        <time>2021-05-29 07:59:47</time>
      </trkpt>
      <trkpt lat="42.88107" lon="-2.18872">
        <ele>553.6</ele>
        <time>2021-05-29 07:59:48</time>
      </trkpt>
      <trkpt lat="42.88112" lon="-2.1886">
        <ele>553.6</ele>
        <time>2021-05-29 07:59:49</time>
      </trkpt>
      <trkpt lat="42.88117" lon="-2.18848">
        <ele>553.6</ele>
        <time>2021-05-29 07:59:50</time>
      </trkpt>
      <trkpt lat="42.88122" lon="-2.18836">
        <ele>553.6</ele>
        <time>2021-05-29 07:59:51</time>
      </trkpt>
      <trkpt lat="42.88128" lon="-2.18825">
        <ele>553.6</ele>
        <time>2021-05-29 07:59:52</time>
      </trkpt>
      <trkpt lat="42.88133" lon="-2.18813">
        <ele>553.6</ele>
        <time>2021-05-29 07:59:53</time>
      </trkpt>
      <trkpt lat="42.88138" lon="-2.18802">
        <ele>553.6</ele>
        <time>2021-05-29 07:59:54</time>
      </trkpt>
      <trkpt lat="42.88142" lon="-2.18791">
        <ele>553.6</ele>
        <time>2021-05-29 07:59:55</time>
      </trkpt>
      <trkpt lat="42.88147" lon="-2.18781">
        <ele>553.6</ele>
        <time>2021-05-29 07:59:56</time>
      </trkpt>
      <trkpt lat="42.88151" lon="-2.1877">
        <ele>553.6</ele>
        <time>2021-05-29 07:59:57</time>
      </trkpt>
      <trkpt lat="42.88156" lon="-2.1876">
        <ele>553.4</ele>
        <time>2021-05-29 07:59:58</time>
      </trkpt>
      <trkpt lat="42.8816" lon="-2.1875">
        <ele>553.4</ele>
        <time>2021-05-29 07:59:59</time>
      </trkpt>
      <trkpt lat="42.88164" lon="-2.1874">
        <ele>553.4</ele>
        <time>2021-05-29 08:00:00</time>
      </trkpt>
      <trkpt lat="42.88169" lon="-2.1873">
        <ele>553.4</ele>
        <time>2021-05-29 08:00:01</time>
      </trkpt>
      <trkpt lat="42.88173" lon="-2.18719">
        <ele>553.4</ele>
        <time>2021-05-29 08:00:02</time>
      </trkpt>
      <trkpt lat="42.88178" lon="-2.18708">
        <ele>553.4</ele>
        <time>2021-05-29 08:00:03</time>
      </trkpt>
      <trkpt lat="42.88182" lon="-2.18697">
        <ele>553.6</ele>
        <time>2021-05-29 08:00:04</time>
      </trkpt>
      <trkpt lat="42.88186" lon="-2.18686">
        <ele>553.6</ele>
        <time>2021-05-29 08:00:05</time>
      </trkpt>
      <trkpt lat="42.88191" lon="-2.18675">
        <ele>553.6</ele>
        <time>2021-05-29 08:00:06</time>
      </trkpt>
      <trkpt lat="42.88195" lon="-2.18664">
        <ele>553.6</ele>
        <time>2021-05-29 08:00:07</time>
      </trkpt>
      <trkpt lat="42.88199" lon="-2.18653">
        <ele>553.6</ele>
        <time>2021-05-29 08:00:08</time>
      </trkpt>
      <trkpt lat="42.88203" lon="-2.18641">
        <ele>553.6</ele>
        <time>2021-05-29 08:00:09</time>
      </trkpt>
      <trkpt lat="42.88207" lon="-2.1863">
        <ele>553.6</ele>
        <time>2021-05-29 08:00:10</time>
      </trkpt>
      <trkpt lat="42.88212" lon="-2.18618">
        <ele>553.6</ele>
        <time>2021-05-29 08:00:11</time>
      </trkpt>
      <trkpt lat="42.88216" lon="-2.18607">
        <ele>553.4</ele>
        <time>2021-05-29 08:00:12</time>
      </trkpt>
      <trkpt lat="42.8822" lon="-2.18595">
        <ele>553.4</ele>
        <time>2021-05-29 08:00:13</time>
      </trkpt>
      <trkpt lat="42.88224" lon="-2.18584">
        <ele>553.4</ele>
        <time>2021-05-29 08:00:14</time>
      </trkpt>
      <trkpt lat="42.88228" lon="-2.18572">
        <ele>553.4</ele>
        <time>2021-05-29 08:00:15</time>
      </trkpt>
      <trkpt lat="42.88233" lon="-2.18561">
        <ele>553.4</ele>
        <time>2021-05-29 08:00:16</time>
      </trkpt>
      <trkpt lat="42.88237" lon="-2.18549">
        <ele>553.4</ele>
        <time>2021-05-29 08:00:17</time>
      </trkpt>
      <trkpt lat="42.88241" lon="-2.18538">
        <ele>553.4</ele>
        <time>2021-05-29 08:00:18</time>
      </trkpt>
      <trkpt lat="42.88246" lon="-2.18526">
        <ele>553.4</ele>
        <time>2021-05-29 08:00:19</time>
      </trkpt>
      <trkpt lat="42.88251" lon="-2.18515">
        <ele>553.4</ele>
        <time>2021-05-29 08:00:20</time>
      </trkpt>
      <trkpt lat="42.88255" lon="-2.18503">
        <ele>553.4</ele>
        <time>2021-05-29 08:00:21</time>
      </trkpt>
      <trkpt lat="42.88259" lon="-2.18491">
        <ele>553.2</ele>
        <time>2021-05-29 08:00:22</time>
      </trkpt>
      <trkpt lat="42.88264" lon="-2.1848">
        <ele>553</ele>
        <time>2021-05-29 08:00:23</time>
      </trkpt>
      <trkpt lat="42.88268" lon="-2.18469">
        <ele>553</ele>
        <time>2021-05-29 08:00:24</time>
      </trkpt>
      <trkpt lat="42.88273" lon="-2.18457">
        <ele>552.8</ele>
        <time>2021-05-29 08:00:25</time>
      </trkpt>
      <trkpt lat="42.88277" lon="-2.18446">
        <ele>552.8</ele>
        <time>2021-05-29 08:00:26</time>
      </trkpt>
      <trkpt lat="42.8828" lon="-2.18435">
        <ele>552.8</ele>
        <time>2021-05-29 08:00:27</time>
      </trkpt>
      <trkpt lat="42.88284" lon="-2.18424">
        <ele>552.8</ele>
        <time>2021-05-29 08:00:28</time>
      </trkpt>
      <trkpt lat="42.88288" lon="-2.18413">
        <ele>552.8</ele>
        <time>2021-05-29 08:00:29</time>
      </trkpt>
      <trkpt lat="42.88292" lon="-2.18402">
        <ele>552.6</ele>
        <time>2021-05-29 08:00:30</time>
      </trkpt>
      <trkpt lat="42.88296" lon="-2.18391">
        <ele>552.6</ele>
        <time>2021-05-29 08:00:31</time>
      </trkpt>
      <trkpt lat="42.883" lon="-2.1838">
        <ele>552.6</ele>
        <time>2021-05-29 08:00:32</time>
      </trkpt>
      <trkpt lat="42.88303" lon="-2.1837">
        <ele>552.6</ele>
        <time>2021-05-29 08:00:33</time>
      </trkpt>
      <trkpt lat="42.88307" lon="-2.1836">
        <ele>552.6</ele>
        <time>2021-05-29 08:00:34</time>
      </trkpt>
      <trkpt lat="42.8831" lon="-2.18351">
        <ele>552.4</ele>
        <time>2021-05-29 08:00:35</time>
      </trkpt>
      <trkpt lat="42.88314" lon="-2.18341">
        <ele>552.4</ele>
        <time>2021-05-29 08:00:36</time>
      </trkpt>
      <trkpt lat="42.88318" lon="-2.18332">
        <ele>552.6</ele>
        <time>2021-05-29 08:00:37</time>
      </trkpt>
      <trkpt lat="42.88321" lon="-2.18322">
        <ele>552.6</ele>
        <time>2021-05-29 08:00:38</time>
      </trkpt>
      <trkpt lat="42.88325" lon="-2.18312">
        <ele>552.6</ele>
        <time>2021-05-29 08:00:39</time>
      </trkpt>
      <trkpt lat="42.88329" lon="-2.18303">
        <ele>552.6</ele>
        <time>2021-05-29 08:00:40</time>
      </trkpt>
      <trkpt lat="42.88332" lon="-2.18294">
        <ele>552.6</ele>
        <time>2021-05-29 08:00:41</time>
      </trkpt>
      <trkpt lat="42.88335" lon="-2.18284">
        <ele>552.6</ele>
        <time>2021-05-29 08:00:42</time>
      </trkpt>
      <trkpt lat="42.88338" lon="-2.18275">
        <ele>552.6</ele>
        <time>2021-05-29 08:00:43</time>
      </trkpt>
      <trkpt lat="42.88341" lon="-2.18266">
        <ele>552.6</ele>
        <time>2021-05-29 08:00:44</time>
      </trkpt>
      <trkpt lat="42.88344" lon="-2.18257">
        <ele>552.6</ele>
        <time>2021-05-29 08:00:45</time>
      </trkpt>
      <trkpt lat="42.88348" lon="-2.18248">
        <ele>552.4</ele>
        <time>2021-05-29 08:00:46</time>
      </trkpt>
      <trkpt lat="42.88351" lon="-2.18239">
        <ele>552.4</ele>
        <time>2021-05-29 08:00:47</time>
      </trkpt>
      <trkpt lat="42.88355" lon="-2.1823">
        <ele>552.4</ele>
        <time>2021-05-29 08:00:48</time>
      </trkpt>
      <trkpt lat="42.88358" lon="-2.18221">
        <ele>552.6</ele>
        <time>2021-05-29 08:00:49</time>
      </trkpt>
      <trkpt lat="42.88361" lon="-2.18212">
        <ele>552.6</ele>
        <time>2021-05-29 08:00:50</time>
      </trkpt>
      <trkpt lat="42.88364" lon="-2.18203">
        <ele>552.6</ele>
        <time>2021-05-29 08:00:51</time>
      </trkpt>
      <trkpt lat="42.88367" lon="-2.18195">
        <ele>552.6</ele>
        <time>2021-05-29 08:00:52</time>
      </trkpt>
      <trkpt lat="42.8837" lon="-2.18186">
        <ele>552.6</ele>
        <time>2021-05-29 08:00:53</time>
      </trkpt>
      <trkpt lat="42.88373" lon="-2.18178">
        <ele>552.6</ele>
        <time>2021-05-29 08:00:54</time>
      </trkpt>
      <trkpt lat="42.88376" lon="-2.18169">
        <ele>552.6</ele>
        <time>2021-05-29 08:00:55</time>
      </trkpt>
      <trkpt lat="42.88379" lon="-2.1816">
        <ele>552.6</ele>
        <time>2021-05-29 08:00:56</time>
      </trkpt>
      <trkpt lat="42.88383" lon="-2.18151">
        <ele>552.6</ele>
        <time>2021-05-29 08:00:57</time>
      </trkpt>
      <trkpt lat="42.88386" lon="-2.18143">
        <ele>552.6</ele>
        <time>2021-05-29 08:00:58</time>
      </trkpt>
      <trkpt lat="42.88389" lon="-2.18134">
        <ele>552.6</ele>
        <time>2021-05-29 08:00:59</time>
      </trkpt>
      <trkpt lat="42.88392" lon="-2.18125">
        <ele>552.6</ele>
        <time>2021-05-29 08:01:00</time>
      </trkpt>
      <trkpt lat="42.88395" lon="-2.18116">
        <ele>552.6</ele>
        <time>2021-05-29 08:01:01</time>
      </trkpt>
      <trkpt lat="42.88398" lon="-2.18107">
        <ele>552.6</ele>
        <time>2021-05-29 08:01:02</time>
      </trkpt>
      <trkpt lat="42.88402" lon="-2.18098">
        <ele>552.6</ele>
        <time>2021-05-29 08:01:03</time>
      </trkpt>
      <trkpt lat="42.88405" lon="-2.18088">
        <ele>552.6</ele>
        <time>2021-05-29 08:01:04</time>
      </trkpt>
      <trkpt lat="42.88408" lon="-2.18079">
        <ele>552.6</ele>
        <time>2021-05-29 08:01:05</time>
      </trkpt>
      <trkpt lat="42.88411" lon="-2.1807">
        <ele>552.6</ele>
        <time>2021-05-29 08:01:06</time>
      </trkpt>
      <trkpt lat="42.88414" lon="-2.1806">
        <ele>552.6</ele>
        <time>2021-05-29 08:01:07</time>
      </trkpt>
      <trkpt lat="42.88418" lon="-2.18051">
        <ele>552.6</ele>
        <time>2021-05-29 08:01:08</time>
      </trkpt>
      <trkpt lat="42.88421" lon="-2.18041">
        <ele>552.6</ele>
        <time>2021-05-29 08:01:09</time>
      </trkpt>
      <trkpt lat="42.88424" lon="-2.18031">
        <ele>552.4</ele>
        <time>2021-05-29 08:01:10</time>
      </trkpt>
      <trkpt lat="42.88427" lon="-2.18022">
        <ele>552.4</ele>
        <time>2021-05-29 08:01:11</time>
      </trkpt>
      <trkpt lat="42.8843" lon="-2.18012">
        <ele>552.6</ele>
        <time>2021-05-29 08:01:12</time>
      </trkpt>
      <trkpt lat="42.88433" lon="-2.18002">
        <ele>552.6</ele>
        <time>2021-05-29 08:01:13</time>
      </trkpt>
      <trkpt lat="42.88435" lon="-2.17992">
        <ele>552.6</ele>
        <time>2021-05-29 08:01:14</time>
      </trkpt>
      <trkpt lat="42.88438" lon="-2.17982">
        <ele>552.6</ele>
        <time>2021-05-29 08:01:15</time>
      </trkpt>
      <trkpt lat="42.8844" lon="-2.17972">
        <ele>552.6</ele>
        <time>2021-05-29 08:01:16</time>
      </trkpt>
      <trkpt lat="42.88442" lon="-2.17963">
        <ele>552.6</ele>
        <time>2021-05-29 08:01:17</time>
      </trkpt>
      <trkpt lat="42.88444" lon="-2.17953">
        <ele>552.6</ele>
        <time>2021-05-29 08:01:18</time>
      </trkpt>
      <trkpt lat="42.88445" lon="-2.17943">
        <ele>552.6</ele>
        <time>2021-05-29 08:01:19</time>
      </trkpt>
      <trkpt lat="42.88446" lon="-2.17933">
        <ele>552.6</ele>
        <time>2021-05-29 08:01:20</time>
      </trkpt>
      <trkpt lat="42.88448" lon="-2.17923">
        <ele>552.6</ele>
        <time>2021-05-29 08:01:21</time>
      </trkpt>
      <trkpt lat="42.88448" lon="-2.17913">
        <ele>552.6</ele>
        <time>2021-05-29 08:01:22</time>
      </trkpt>
      <trkpt lat="42.88449" lon="-2.17903">
        <ele>552.6</ele>
        <time>2021-05-29 08:01:23</time>
      </trkpt>
      <trkpt lat="42.8845" lon="-2.17893">
        <ele>552.6</ele>
        <time>2021-05-29 08:01:24</time>
      </trkpt>
      <trkpt lat="42.88449" lon="-2.17882">
        <ele>552.4</ele>
        <time>2021-05-29 08:01:25</time>
      </trkpt>
      <trkpt lat="42.88449" lon="-2.17872">
        <ele>552.4</ele>
        <time>2021-05-29 08:01:26</time>
      </trkpt>
      <trkpt lat="42.88449" lon="-2.17861">
        <ele>552.4</ele>
        <time>2021-05-29 08:01:27</time>
      </trkpt>
      <trkpt lat="42.88448" lon="-2.17851">
        <ele>552.4</ele>
        <time>2021-05-29 08:01:28</time>
      </trkpt>
      <trkpt lat="42.88447" lon="-2.17841">
        <ele>552.4</ele>
        <time>2021-05-29 08:01:29</time>
      </trkpt>
      <trkpt lat="42.88446" lon="-2.17831">
        <ele>552.4</ele>
        <time>2021-05-29 08:01:30</time>
      </trkpt>
      <trkpt lat="42.88445" lon="-2.17821">
        <ele>552.6</ele>
        <time>2021-05-29 08:01:31</time>
      </trkpt>
      <trkpt lat="42.88443" lon="-2.1781">
        <ele>552.6</ele>
        <time>2021-05-29 08:01:32</time>
      </trkpt>
      <trkpt lat="42.88442" lon="-2.178">
        <ele>552.6</ele>
        <time>2021-05-29 08:01:33</time>
      </trkpt>
      <trkpt lat="42.8844" lon="-2.1779">
        <ele>552.4</ele>
        <time>2021-05-29 08:01:34</time>
      </trkpt>
      <trkpt lat="42.88439" lon="-2.1778">
        <ele>552.4</ele>
        <time>2021-05-29 08:01:35</time>
      </trkpt>
      <trkpt lat="42.88437" lon="-2.17771">
        <ele>552.4</ele>
        <time>2021-05-29 08:01:36</time>
      </trkpt>
      <trkpt lat="42.88435" lon="-2.17761">
        <ele>552.4</ele>
        <time>2021-05-29 08:01:37</time>
      </trkpt>
      <trkpt lat="42.88434" lon="-2.17751">
        <ele>552.4</ele>
        <time>2021-05-29 08:01:38</time>
      </trkpt>
      <trkpt lat="42.88432" lon="-2.17741">
        <ele>552.4</ele>
        <time>2021-05-29 08:01:39</time>
      </trkpt>
      <trkpt lat="42.88431" lon="-2.17731">
        <ele>552.2</ele>
        <time>2021-05-29 08:01:40</time>
      </trkpt>
      <trkpt lat="42.8843" lon="-2.17721">
        <ele>552.2</ele>
        <time>2021-05-29 08:01:41</time>
      </trkpt>
      <trkpt lat="42.88428" lon="-2.1771">
        <ele>552.2</ele>
        <time>2021-05-29 08:01:42</time>
      </trkpt>
      <trkpt lat="42.88427" lon="-2.177">
        <ele>552.2</ele>
        <time>2021-05-29 08:01:43</time>
      </trkpt>
      <trkpt lat="42.88427" lon="-2.17689">
        <ele>552.2</ele>
        <time>2021-05-29 08:01:44</time>
      </trkpt>
      <trkpt lat="42.88427" lon="-2.17678">
        <ele>552</ele>
        <time>2021-05-29 08:01:45</time>
      </trkpt>
      <trkpt lat="42.88427" lon="-2.17667">
        <ele>552</ele>
        <time>2021-05-29 08:01:46</time>
      </trkpt>
      <trkpt lat="42.88427" lon="-2.17656">
        <ele>552</ele>
        <time>2021-05-29 08:01:47</time>
      </trkpt>
      <trkpt lat="42.88428" lon="-2.17644">
        <ele>552</ele>
        <time>2021-05-29 08:01:48</time>
      </trkpt>
      <trkpt lat="42.88428" lon="-2.17633">
        <ele>551.8</ele>
        <time>2021-05-29 08:01:49</time>
      </trkpt>
      <trkpt lat="42.88429" lon="-2.17621">
        <ele>551.8</ele>
        <time>2021-05-29 08:01:50</time>
      </trkpt>
      <trkpt lat="42.88431" lon="-2.1761">
        <ele>551.8</ele>
        <time>2021-05-29 08:01:51</time>
      </trkpt>
      <trkpt lat="42.88433" lon="-2.17598">
        <ele>551.8</ele>
        <time>2021-05-29 08:01:52</time>
      </trkpt>
      <trkpt lat="42.88435" lon="-2.17587">
        <ele>551.8</ele>
        <time>2021-05-29 08:01:53</time>
      </trkpt>
      <trkpt lat="42.88437" lon="-2.17576">
        <ele>551.8</ele>
        <time>2021-05-29 08:01:54</time>
      </trkpt>
      <trkpt lat="42.8844" lon="-2.17565">
        <ele>551.8</ele>
        <time>2021-05-29 08:01:55</time>
      </trkpt>
      <trkpt lat="42.88443" lon="-2.17553">
        <ele>551.8</ele>
        <time>2021-05-29 08:01:56</time>
      </trkpt>
      <trkpt lat="42.88446" lon="-2.17542">
        <ele>551.6</ele>
        <time>2021-05-29 08:01:57</time>
      </trkpt>
      <trkpt lat="42.8845" lon="-2.17531">
        <ele>551.4</ele>
        <time>2021-05-29 08:01:58</time>
      </trkpt>
      <trkpt lat="42.88454" lon="-2.17519">
        <ele>551.4</ele>
        <time>2021-05-29 08:01:59</time>
      </trkpt>
      <trkpt lat="42.88458" lon="-2.17508">
        <ele>551.4</ele>
        <time>2021-05-29 08:02:00</time>
      </trkpt>
      <trkpt lat="42.88462" lon="-2.17496">
        <ele>551.2</ele>
        <time>2021-05-29 08:02:01</time>
      </trkpt>
      <trkpt lat="42.88467" lon="-2.17484">
        <ele>551.2</ele>
        <time>2021-05-29 08:02:02</time>
      </trkpt>
      <trkpt lat="42.88472" lon="-2.17473">
        <ele>551.2</ele>
        <time>2021-05-29 08:02:03</time>
      </trkpt>
      <trkpt lat="42.88477" lon="-2.17461">
        <ele>551.2</ele>
        <time>2021-05-29 08:02:04</time>
      </trkpt>
      <trkpt lat="42.88483" lon="-2.1745">
        <ele>551</ele>
        <time>2021-05-29 08:02:05</time>
      </trkpt>
      <trkpt lat="42.88489" lon="-2.17438">
        <ele>551</ele>
        <time>2021-05-29 08:02:06</time>
      </trkpt>
      <trkpt lat="42.88495" lon="-2.17426">
        <ele>551.2</ele>
        <time>2021-05-29 08:02:07</time>
      </trkpt>
      <trkpt lat="42.88502" lon="-2.17415">
        <ele>551</ele>
        <time>2021-05-29 08:02:08</time>
      </trkpt>
      <trkpt lat="42.88509" lon="-2.17404">
        <ele>551</ele>
        <time>2021-05-29 08:02:09</time>
      </trkpt>
      <trkpt lat="42.88516" lon="-2.17393">
        <ele>551</ele>
        <time>2021-05-29 08:02:10</time>
      </trkpt>
      <trkpt lat="42.88524" lon="-2.17382">
        <ele>551</ele>
        <time>2021-05-29 08:02:11</time>
      </trkpt>
      <trkpt lat="42.88532" lon="-2.17371">
        <ele>550.8</ele>
        <time>2021-05-29 08:02:12</time>
      </trkpt>
      <trkpt lat="42.8854" lon="-2.1736">
        <ele>550.8</ele>
        <time>2021-05-29 08:02:13</time>
      </trkpt>
      <trkpt lat="42.88548" lon="-2.17349">
        <ele>550.8</ele>
        <time>2021-05-29 08:02:14</time>
      </trkpt>
      <trkpt lat="42.88557" lon="-2.17338">
        <ele>550.6</ele>
        <time>2021-05-29 08:02:15</time>
      </trkpt>
      <trkpt lat="42.88565" lon="-2.17327">
        <ele>550.6</ele>
        <time>2021-05-29 08:02:16</time>
      </trkpt>
      <trkpt lat="42.88574" lon="-2.17316">
        <ele>550.4</ele>
        <time>2021-05-29 08:02:17</time>
      </trkpt>
      <trkpt lat="42.88582" lon="-2.17305">
        <ele>550.4</ele>
        <time>2021-05-29 08:02:18</time>
      </trkpt>
      <trkpt lat="42.88591" lon="-2.17293">
        <ele>550.2</ele>
        <time>2021-05-29 08:02:19</time>
      </trkpt>
      <trkpt lat="42.88599" lon="-2.1728">
        <ele>550.2</ele>
        <time>2021-05-29 08:02:20</time>
      </trkpt>
      <trkpt lat="42.88607" lon="-2.17267">
        <ele>550</ele>
        <time>2021-05-29 08:02:21</time>
      </trkpt>
      <trkpt lat="42.88614" lon="-2.17254">
        <ele>550</ele>
        <time>2021-05-29 08:02:22</time>
      </trkpt>
      <trkpt lat="42.8862" lon="-2.17239">
        <ele>550</ele>
        <time>2021-05-29 08:02:23</time>
      </trkpt>
      <trkpt lat="42.88625" lon="-2.17225">
        <ele>550</ele>
        <time>2021-05-29 08:02:24</time>
      </trkpt>
      <trkpt lat="42.8863" lon="-2.1721">
        <ele>549.8</ele>
        <time>2021-05-29 08:02:25</time>
      </trkpt>
      <trkpt lat="42.88634" lon="-2.17196">
        <ele>549.6</ele>
        <time>2021-05-29 08:02:26</time>
      </trkpt>
      <trkpt lat="42.88637" lon="-2.17182">
        <ele>549.6</ele>
        <time>2021-05-29 08:02:27</time>
      </trkpt>
      <trkpt lat="42.8864" lon="-2.17168">
        <ele>549.6</ele>
        <time>2021-05-29 08:02:28</time>
      </trkpt>
      <trkpt lat="42.88643" lon="-2.17154">
        <ele>549.6</ele>
        <time>2021-05-29 08:02:29</time>
      </trkpt>
      <trkpt lat="42.88645" lon="-2.1714">
        <ele>549.4</ele>
        <time>2021-05-29 08:02:30</time>
      </trkpt>
      <trkpt lat="42.88648" lon="-2.17127">
        <ele>549.4</ele>
        <time>2021-05-29 08:02:31</time>
      </trkpt>
      <trkpt lat="42.8865" lon="-2.17114">
        <ele>549.4</ele>
        <time>2021-05-29 08:02:32</time>
      </trkpt>
      <trkpt lat="42.88652" lon="-2.17102">
        <ele>549.4</ele>
        <time>2021-05-29 08:02:33</time>
      </trkpt>
      <trkpt lat="42.88655" lon="-2.1709">
        <ele>549.4</ele>
        <time>2021-05-29 08:02:34</time>
      </trkpt>
      <trkpt lat="42.88658" lon="-2.17079">
        <ele>549.4</ele>
        <time>2021-05-29 08:02:35</time>
      </trkpt>
      <trkpt lat="42.88662" lon="-2.17068">
        <ele>549.4</ele>
        <time>2021-05-29 08:02:36</time>
      </trkpt>
      <trkpt lat="42.88666" lon="-2.17057">
        <ele>549.2</ele>
        <time>2021-05-29 08:02:37</time>
      </trkpt>
      <trkpt lat="42.88671" lon="-2.17047">
        <ele>549.2</ele>
        <time>2021-05-29 08:02:38</time>
      </trkpt>
      <trkpt lat="42.88677" lon="-2.17037">
        <ele>549.2</ele>
        <time>2021-05-29 08:02:39</time>
      </trkpt>
      <trkpt lat="42.88683" lon="-2.17029">
        <ele>549.2</ele>
        <time>2021-05-29 08:02:40</time>
      </trkpt>
      <trkpt lat="42.88689" lon="-2.17021">
        <ele>549.2</ele>
        <time>2021-05-29 08:02:41</time>
      </trkpt>
      <trkpt lat="42.88696" lon="-2.17013">
        <ele>549.2</ele>
        <time>2021-05-29 08:02:42</time>
      </trkpt>
      <trkpt lat="42.88704" lon="-2.17007">
        <ele>549.2</ele>
        <time>2021-05-29 08:02:43</time>
      </trkpt>
      <trkpt lat="42.88712" lon="-2.17001">
        <ele>549.2</ele>
        <time>2021-05-29 08:02:44</time>
      </trkpt>
      <trkpt lat="42.88719" lon="-2.16997">
        <ele>549</ele>
        <time>2021-05-29 08:02:45</time>
      </trkpt>
      <trkpt lat="42.88727" lon="-2.16993">
        <ele>549.2</ele>
        <time>2021-05-29 08:02:46</time>
      </trkpt>
      <trkpt lat="42.88735" lon="-2.16991">
        <ele>549.2</ele>
        <time>2021-05-29 08:02:47</time>
      </trkpt>
      <trkpt lat="42.88743" lon="-2.16989">
        <ele>549.2</ele>
        <time>2021-05-29 08:02:48</time>
      </trkpt>
      <trkpt lat="42.88752" lon="-2.16988">
        <ele>549.2</ele>
        <time>2021-05-29 08:02:49</time>
      </trkpt>
      <trkpt lat="42.8876" lon="-2.16987">
        <ele>549.2</ele>
        <time>2021-05-29 08:02:50</time>
      </trkpt>
      <trkpt lat="42.88769" lon="-2.16987">
        <ele>549</ele>
        <time>2021-05-29 08:02:51</time>
      </trkpt>
      <trkpt lat="42.88777" lon="-2.16988">
        <ele>549</ele>
        <time>2021-05-29 08:02:52</time>
      </trkpt>
      <trkpt lat="42.88786" lon="-2.16989">
        <ele>549</ele>
        <time>2021-05-29 08:02:53</time>
      </trkpt>
      <trkpt lat="42.88795" lon="-2.1699">
        <ele>549.2</ele>
        <time>2021-05-29 08:02:54</time>
      </trkpt>
      <trkpt lat="42.88804" lon="-2.16991">
        <ele>549.2</ele>
        <time>2021-05-29 08:02:55</time>
      </trkpt>
      <trkpt lat="42.88813" lon="-2.16993">
        <ele>549.2</ele>
        <time>2021-05-29 08:02:56</time>
      </trkpt>
      <trkpt lat="42.88822" lon="-2.16994">
        <ele>549.2</ele>
        <time>2021-05-29 08:02:57</time>
      </trkpt>
      <trkpt lat="42.88832" lon="-2.16995">
        <ele>548.8</ele>
        <time>2021-05-29 08:02:58</time>
      </trkpt>
      <trkpt lat="42.88842" lon="-2.16996">
        <ele>549</ele>
        <time>2021-05-29 08:02:59</time>
      </trkpt>
      <trkpt lat="42.88853" lon="-2.16996">
        <ele>549</ele>
        <time>2021-05-29 08:03:00</time>
      </trkpt>
      <trkpt lat="42.88864" lon="-2.16995">
        <ele>549</ele>
        <time>2021-05-29 08:03:01</time>
      </trkpt>
      <trkpt lat="42.88875" lon="-2.16992">
        <ele>548.8</ele>
        <time>2021-05-29 08:03:02</time>
      </trkpt>
      <trkpt lat="42.88887" lon="-2.16989">
        <ele>549</ele>
        <time>2021-05-29 08:03:03</time>
      </trkpt>
      <trkpt lat="42.88899" lon="-2.16984">
        <ele>548.6</ele>
        <time>2021-05-29 08:03:04</time>
      </trkpt>
      <trkpt lat="42.8891" lon="-2.16977">
        <ele>548.8</ele>
        <time>2021-05-29 08:03:05</time>
      </trkpt>
      <trkpt lat="42.88921" lon="-2.16969">
        <ele>548.6</ele>
        <time>2021-05-29 08:03:06</time>
      </trkpt>
      <trkpt lat="42.88932" lon="-2.16959">
        <ele>548.2</ele>
        <time>2021-05-29 08:03:07</time>
      </trkpt>
      <trkpt lat="42.88941" lon="-2.16948">
        <ele>548</ele>
        <time>2021-05-29 08:03:08</time>
      </trkpt>
      <trkpt lat="42.8895" lon="-2.16936">
        <ele>548</ele>
        <time>2021-05-29 08:03:09</time>
      </trkpt>
      <trkpt lat="42.88959" lon="-2.16924">
        <ele>547.8</ele>
        <time>2021-05-29 08:03:10</time>
      </trkpt>
      <trkpt lat="42.88967" lon="-2.16912">
        <ele>547.8</ele>
        <time>2021-05-29 08:03:11</time>
      </trkpt>
      <trkpt lat="42.88974" lon="-2.16901">
        <ele>547.6</ele>
        <time>2021-05-29 08:03:12</time>
      </trkpt>
      <trkpt lat="42.88982" lon="-2.16889">
        <ele>547.6</ele>
        <time>2021-05-29 08:03:13</time>
      </trkpt>
      <trkpt lat="42.88989" lon="-2.16878">
        <ele>547.4</ele>
        <time>2021-05-29 08:03:14</time>
      </trkpt>
      <trkpt lat="42.88996" lon="-2.16867">
        <ele>547.4</ele>
        <time>2021-05-29 08:03:15</time>
      </trkpt>
      <trkpt lat="42.89003" lon="-2.16856">
        <ele>547.4</ele>
        <time>2021-05-29 08:03:16</time>
      </trkpt>
      <trkpt lat="42.8901" lon="-2.16846">
        <ele>547.4</ele>
        <time>2021-05-29 08:03:17</time>
      </trkpt>
      <trkpt lat="42.89017" lon="-2.16835">
        <ele>547.2</ele>
        <time>2021-05-29 08:03:18</time>
      </trkpt>
      <trkpt lat="42.89024" lon="-2.16825">
        <ele>547.2</ele>
        <time>2021-05-29 08:03:19</time>
      </trkpt>
      <trkpt lat="42.8903" lon="-2.16815">
        <ele>547.2</ele>
        <time>2021-05-29 08:03:20</time>
      </trkpt>
      <trkpt lat="42.89037" lon="-2.16805">
        <ele>547.2</ele>
        <time>2021-05-29 08:03:21</time>
      </trkpt>
      <trkpt lat="42.89044" lon="-2.16796">
        <ele>547.2</ele>
        <time>2021-05-29 08:03:22</time>
      </trkpt>
      <trkpt lat="42.8905" lon="-2.16786">
        <ele>547.2</ele>
        <time>2021-05-29 08:03:23</time>
      </trkpt>
      <trkpt lat="42.89056" lon="-2.16776">
        <ele>547.2</ele>
        <time>2021-05-29 08:03:24</time>
      </trkpt>
      <trkpt lat="42.89062" lon="-2.16767">
        <ele>547.4</ele>
        <time>2021-05-29 08:03:25</time>
      </trkpt>
      <trkpt lat="42.89069" lon="-2.16757">
        <ele>547.4</ele>
        <time>2021-05-29 08:03:26</time>
      </trkpt>
      <trkpt lat="42.89075" lon="-2.16748">
        <ele>547.4</ele>
        <time>2021-05-29 08:03:27</time>
      </trkpt>
      <trkpt lat="42.89081" lon="-2.16739">
        <ele>547.4</ele>
        <time>2021-05-29 08:03:28</time>
      </trkpt>
      <trkpt lat="42.89087" lon="-2.1673">
        <ele>547.4</ele>
        <time>2021-05-29 08:03:29</time>
      </trkpt>
      <trkpt lat="42.89093" lon="-2.16721">
        <ele>547.4</ele>
        <time>2021-05-29 08:03:30</time>
      </trkpt>
      <trkpt lat="42.89098" lon="-2.16712">
        <ele>547.4</ele>
        <time>2021-05-29 08:03:31</time>
      </trkpt>
      <trkpt lat="42.89104" lon="-2.16704">
        <ele>547.2</ele>
        <time>2021-05-29 08:03:32</time>
      </trkpt>
      <trkpt lat="42.8911" lon="-2.16696">
        <ele>547.2</ele>
        <time>2021-05-29 08:03:33</time>
      </trkpt>
      <trkpt lat="42.89115" lon="-2.16688">
        <ele>547.2</ele>
        <time>2021-05-29 08:03:34</time>
      </trkpt>
      <trkpt lat="42.89121" lon="-2.16681">
        <ele>547.2</ele>
        <time>2021-05-29 08:03:35</time>
      </trkpt>
      <trkpt lat="42.89127" lon="-2.16673">
        <ele>547.2</ele>
        <time>2021-05-29 08:03:36</time>
      </trkpt>
      <trkpt lat="42.89131" lon="-2.16667">
        <ele>547.2</ele>
        <time>2021-05-29 08:03:37</time>
      </trkpt>
      <trkpt lat="42.89136" lon="-2.1666">
        <ele>547.2</ele>
        <time>2021-05-29 08:03:38</time>
      </trkpt>
      <trkpt lat="42.8914" lon="-2.16654">
        <ele>547</ele>
        <time>2021-05-29 08:03:39</time>
      </trkpt>
      <trkpt lat="42.89144" lon="-2.16647">
        <ele>547.2</ele>
        <time>2021-05-29 08:03:40</time>
      </trkpt>
      <trkpt lat="42.89149" lon="-2.16642">
        <ele>547</ele>
        <time>2021-05-29 08:03:41</time>
      </trkpt>
      <trkpt lat="42.89155" lon="-2.16638">
        <ele>547</ele>
        <time>2021-05-29 08:03:42</time>
      </trkpt>
      <trkpt lat="42.89162" lon="-2.16636">
        <ele>546.8</ele>
        <time>2021-05-29 08:03:43</time>
      </trkpt>
      <trkpt lat="42.89169" lon="-2.16636">
        <ele>546.8</ele>
        <time>2021-05-29 08:03:44</time>
      </trkpt>
      <trkpt lat="42.89175" lon="-2.16637">
        <ele>546.8</ele>
        <time>2021-05-29 08:03:45</time>
      </trkpt>
      <trkpt lat="42.89182" lon="-2.16639">
        <ele>546.8</ele>
        <time>2021-05-29 08:03:46</time>
      </trkpt>
      <trkpt lat="42.89189" lon="-2.16641">
        <ele>546.8</ele>
        <time>2021-05-29 08:03:47</time>
      </trkpt>
      <trkpt lat="42.89196" lon="-2.16643">
        <ele>546.6</ele>
        <time>2021-05-29 08:03:48</time>
      </trkpt>
      <trkpt lat="42.89203" lon="-2.16645">
        <ele>546.6</ele>
        <time>2021-05-29 08:03:49</time>
      </trkpt>
      <trkpt lat="42.89209" lon="-2.16647">
        <ele>546.6</ele>
        <time>2021-05-29 08:03:50</time>
      </trkpt>
      <trkpt lat="42.89216" lon="-2.16649">
        <ele>546.8</ele>
        <time>2021-05-29 08:03:51</time>
      </trkpt>
      <trkpt lat="42.89223" lon="-2.16652">
        <ele>546.6</ele>
        <time>2021-05-29 08:03:52</time>
      </trkpt>
      <trkpt lat="42.89229" lon="-2.16654">
        <ele>546.6</ele>
        <time>2021-05-29 08:03:53</time>
      </trkpt>
      <trkpt lat="42.89236" lon="-2.16657">
        <ele>546.6</ele>
        <time>2021-05-29 08:03:54</time>
      </trkpt>
      <trkpt lat="42.89243" lon="-2.1666">
        <ele>546.6</ele>
        <time>2021-05-29 08:03:55</time>
      </trkpt>
      <trkpt lat="42.89251" lon="-2.16663">
        <ele>546.6</ele>
        <time>2021-05-29 08:03:56</time>
      </trkpt>
      <trkpt lat="42.89258" lon="-2.16665">
        <ele>546.6</ele>
        <time>2021-05-29 08:03:57</time>
      </trkpt>
      <trkpt lat="42.89265" lon="-2.16668">
        <ele>546.6</ele>
        <time>2021-05-29 08:03:58</time>
      </trkpt>
      <trkpt lat="42.89273" lon="-2.16671">
        <ele>546.6</ele>
        <time>2021-05-29 08:03:59</time>
      </trkpt>
      <trkpt lat="42.8928" lon="-2.16674">
        <ele>546.6</ele>
        <time>2021-05-29 08:04:00</time>
      </trkpt>
      <trkpt lat="42.89287" lon="-2.16677">
        <ele>546.6</ele>
        <time>2021-05-29 08:04:01</time>
      </trkpt>
      <trkpt lat="42.89294" lon="-2.16679">
        <ele>546.6</ele>
        <time>2021-05-29 08:04:02</time>
      </trkpt>
      <trkpt lat="42.893" lon="-2.16682">
        <ele>546.4</ele>
        <time>2021-05-29 08:04:03</time>
      </trkpt>
      <trkpt lat="42.89307" lon="-2.16684">
        <ele>546.6</ele>
        <time>2021-05-29 08:04:04</time>
      </trkpt>
      <trkpt lat="42.89313" lon="-2.16686">
        <ele>546.6</ele>
        <time>2021-05-29 08:04:05</time>
      </trkpt>
      <trkpt lat="42.8932" lon="-2.16689">
        <ele>546.6</ele>
        <time>2021-05-29 08:04:06</time>
      </trkpt>
      <trkpt lat="42.89325" lon="-2.16691">
        <ele>546.8</ele>
        <time>2021-05-29 08:04:07</time>
      </trkpt>
      <trkpt lat="42.89331" lon="-2.16694">
        <ele>546.8</ele>
        <time>2021-05-29 08:04:08</time>
      </trkpt>
      <trkpt lat="42.89337" lon="-2.16696">
        <ele>546.8</ele>
        <time>2021-05-29 08:04:09</time>
      </trkpt>
      <trkpt lat="42.89343" lon="-2.16698">
        <ele>546.8</ele>
        <time>2021-05-29 08:04:10</time>
      </trkpt>
      <trkpt lat="42.8935" lon="-2.16701">
        <ele>546.8</ele>
        <time>2021-05-29 08:04:11</time>
      </trkpt>
      <trkpt lat="42.89356" lon="-2.16704">
        <ele>546.8</ele>
        <time>2021-05-29 08:04:12</time>
      </trkpt>
      <trkpt lat="42.89362" lon="-2.16708">
        <ele>547</ele>
        <time>2021-05-29 08:04:13</time>
      </trkpt>
      <trkpt lat="42.89367" lon="-2.16711">
        <ele>546.8</ele>
        <time>2021-05-29 08:04:14</time>
      </trkpt>
      <trkpt lat="42.89372" lon="-2.16713">
        <ele>546.8</ele>
        <time>2021-05-29 08:04:15</time>
      </trkpt>
      <trkpt lat="42.89376" lon="-2.16716">
        <ele>547</ele>
        <time>2021-05-29 08:04:16</time>
      </trkpt>
      <trkpt lat="42.8938" lon="-2.1672">
        <ele>547</ele>
        <time>2021-05-29 08:04:17</time>
      </trkpt>
      <trkpt lat="42.89385" lon="-2.16723">
        <ele>547</ele>
        <time>2021-05-29 08:04:18</time>
      </trkpt>
      <trkpt lat="42.89389" lon="-2.16727">
        <ele>546.8</ele>
        <time>2021-05-29 08:04:19</time>
      </trkpt>
      <trkpt lat="42.89393" lon="-2.16731">
        <ele>546.8</ele>
        <time>2021-05-29 08:04:20</time>
      </trkpt>
      <trkpt lat="42.89398" lon="-2.16735">
        <ele>546.8</ele>
        <time>2021-05-29 08:04:21</time>
      </trkpt>
      <trkpt lat="42.89403" lon="-2.16738">
        <ele>546.8</ele>
        <time>2021-05-29 08:04:22</time>
      </trkpt>
      <trkpt lat="42.89407" lon="-2.16742">
        <ele>546.8</ele>
        <time>2021-05-29 08:04:23</time>
      </trkpt>
      <trkpt lat="42.89412" lon="-2.16745">
        <ele>546.8</ele>
        <time>2021-05-29 08:04:24</time>
      </trkpt>
      <trkpt lat="42.89418" lon="-2.16748">
        <ele>546.8</ele>
        <time>2021-05-29 08:04:25</time>
      </trkpt>
      <trkpt lat="42.89422" lon="-2.16751">
        <ele>547</ele>
        <time>2021-05-29 08:04:26</time>
      </trkpt>
      <trkpt lat="42.89427" lon="-2.16755">
        <ele>547</ele>
        <time>2021-05-29 08:04:27</time>
      </trkpt>
      <trkpt lat="42.89431" lon="-2.16761">
        <ele>547</ele>
        <time>2021-05-29 08:04:28</time>
      </trkpt>
      <trkpt lat="42.89436" lon="-2.16766">
        <ele>547</ele>
        <time>2021-05-29 08:04:29</time>
      </trkpt>
      <trkpt lat="42.8944" lon="-2.1677">
        <ele>547</ele>
        <time>2021-05-29 08:04:30</time>
      </trkpt>
      <trkpt lat="42.89444" lon="-2.16775">
        <ele>547</ele>
        <time>2021-05-29 08:04:31</time>
      </trkpt>
      <trkpt lat="42.89452" lon="-2.16779">
        <ele>547</ele>
        <time>2021-05-29 08:04:32</time>
      </trkpt>
      <trkpt lat="42.89457" lon="-2.16783">
        <ele>547</ele>
        <time>2021-05-29 08:04:33</time>
      </trkpt>
      <trkpt lat="42.89462" lon="-2.16787">
        <ele>547</ele>
        <time>2021-05-29 08:04:34</time>
      </trkpt>
      <trkpt lat="42.89466" lon="-2.1679">
        <ele>547</ele>
        <time>2021-05-29 08:04:35</time>
      </trkpt>
      <trkpt lat="42.89471" lon="-2.16794">
        <ele>547</ele>
        <time>2021-05-29 08:04:36</time>
      </trkpt>
      <trkpt lat="42.89475" lon="-2.16797">
        <ele>547</ele>
        <time>2021-05-29 08:04:37</time>
      </trkpt>
      <trkpt lat="42.89479" lon="-2.16801">
        <ele>547.2</ele>
        <time>2021-05-29 08:04:38</time>
      </trkpt>
      <trkpt lat="42.89484" lon="-2.16806">
        <ele>547.2</ele>
        <time>2021-05-29 08:04:39</time>
      </trkpt>
      <trkpt lat="42.89489" lon="-2.16808">
        <ele>547.2</ele>
        <time>2021-05-29 08:04:40</time>
      </trkpt>
      <trkpt lat="42.89494" lon="-2.16813">
        <ele>547.2</ele>
        <time>2021-05-29 08:04:41</time>
      </trkpt>
      <trkpt lat="42.89498" lon="-2.16817">
        <ele>547.2</ele>
        <time>2021-05-29 08:04:42</time>
      </trkpt>
      <trkpt lat="42.89503" lon="-2.16821">
        <ele>547.2</ele>
        <time>2021-05-29 08:04:43</time>
      </trkpt>
      <trkpt lat="42.89507" lon="-2.16826">
        <ele>547.4</ele>
        <time>2021-05-29 08:04:44</time>
      </trkpt>
      <trkpt lat="42.89512" lon="-2.16831">
        <ele>547.4</ele>
        <time>2021-05-29 08:04:45</time>
      </trkpt>
      <trkpt lat="42.89516" lon="-2.16835">
        <ele>547.4</ele>
        <time>2021-05-29 08:04:46</time>
      </trkpt>
      <trkpt lat="42.89521" lon="-2.1684">
        <ele>547.4</ele>
        <time>2021-05-29 08:04:47</time>
      </trkpt>
      <trkpt lat="42.89525" lon="-2.16845">
        <ele>547.6</ele>
        <time>2021-05-29 08:04:48</time>
      </trkpt>
      <trkpt lat="42.89529" lon="-2.1685">
        <ele>547.6</ele>
        <time>2021-05-29 08:04:49</time>
      </trkpt>
      <trkpt lat="42.89532" lon="-2.16855">
        <ele>547.6</ele>
        <time>2021-05-29 08:04:50</time>
      </trkpt>
      <trkpt lat="42.89537" lon="-2.16859">
        <ele>547.6</ele>
        <time>2021-05-29 08:04:51</time>
      </trkpt>
      <trkpt lat="42.89541" lon="-2.16864">
        <ele>547.6</ele>
        <time>2021-05-29 08:04:52</time>
      </trkpt>
      <trkpt lat="42.89544" lon="-2.1687">
        <ele>547.6</ele>
        <time>2021-05-29 08:04:53</time>
      </trkpt>
      <trkpt lat="42.89549" lon="-2.16874">
        <ele>547.4</ele>
        <time>2021-05-29 08:04:54</time>
      </trkpt>
      <trkpt lat="42.89553" lon="-2.16879">
        <ele>547.4</ele>
        <time>2021-05-29 08:04:55</time>
      </trkpt>
      <trkpt lat="42.89558" lon="-2.16885">
        <ele>547.4</ele>
        <time>2021-05-29 08:04:56</time>
      </trkpt>
      <trkpt lat="42.89561" lon="-2.1689">
        <ele>547.4</ele>
        <time>2021-05-29 08:04:57</time>
      </trkpt>
      <trkpt lat="42.89566" lon="-2.16899">
        <ele>547.4</ele>
        <time>2021-05-29 08:04:58</time>
      </trkpt>
      <trkpt lat="42.89569" lon="-2.16908">
        <ele>547.4</ele>
        <time>2021-05-29 08:04:59</time>
      </trkpt>
      <trkpt lat="42.89572" lon="-2.16916">
        <ele>547.4</ele>
        <time>2021-05-29 08:05:00</time>
      </trkpt>
      <trkpt lat="42.89575" lon="-2.16924">
        <ele>547.4</ele>
        <time>2021-05-29 08:05:01</time>
      </trkpt>
      <trkpt lat="42.89579" lon="-2.16931">
        <ele>547.4</ele>
        <time>2021-05-29 08:05:02</time>
      </trkpt>
      <trkpt lat="42.89585" lon="-2.16938">
        <ele>547.4</ele>
        <time>2021-05-29 08:05:03</time>
      </trkpt>
      <trkpt lat="42.8959" lon="-2.16945">
        <ele>547.4</ele>
        <time>2021-05-29 08:05:04</time>
      </trkpt>
      <trkpt lat="42.89595" lon="-2.16952">
        <ele>547.4</ele>
        <time>2021-05-29 08:05:05</time>
      </trkpt>
      <trkpt lat="42.896" lon="-2.16958">
        <ele>547.4</ele>
        <time>2021-05-29 08:05:06</time>
      </trkpt>
      <trkpt lat="42.89606" lon="-2.16964">
        <ele>547.2</ele>
        <time>2021-05-29 08:05:07</time>
      </trkpt>
      <trkpt lat="42.89611" lon="-2.16969">
        <ele>547.2</ele>
        <time>2021-05-29 08:05:08</time>
      </trkpt>
      <trkpt lat="42.89617" lon="-2.16975">
        <ele>547.2</ele>
        <time>2021-05-29 08:05:09</time>
      </trkpt>
      <trkpt lat="42.89622" lon="-2.1698">
        <ele>547.2</ele>
        <time>2021-05-29 08:05:10</time>
      </trkpt>
      <trkpt lat="42.89628" lon="-2.16985">
        <ele>547.2</ele>
        <time>2021-05-29 08:05:11</time>
      </trkpt>
      <trkpt lat="42.89633" lon="-2.16989">
        <ele>547.2</ele>
        <time>2021-05-29 08:05:12</time>
      </trkpt>
      <trkpt lat="42.89639" lon="-2.16994">
        <ele>547.4</ele>
        <time>2021-05-29 08:05:13</time>
      </trkpt>
      <trkpt lat="42.89645" lon="-2.17">
        <ele>547.4</ele>
        <time>2021-05-29 08:05:14</time>
      </trkpt>
      <trkpt lat="42.89651" lon="-2.17006">
        <ele>547.4</ele>
        <time>2021-05-29 08:05:15</time>
      </trkpt>
      <trkpt lat="42.89657" lon="-2.17012">
        <ele>547.4</ele>
        <time>2021-05-29 08:05:16</time>
      </trkpt>
      <trkpt lat="42.89662" lon="-2.17018">
        <ele>547.4</ele>
        <time>2021-05-29 08:05:17</time>
      </trkpt>
      <trkpt lat="42.89668" lon="-2.17022">
        <ele>547.4</ele>
        <time>2021-05-29 08:05:18</time>
      </trkpt>
      <trkpt lat="42.89674" lon="-2.17027">
        <ele>547.4</ele>
        <time>2021-05-29 08:05:19</time>
      </trkpt>
      <trkpt lat="42.89679" lon="-2.17033">
        <ele>547.2</ele>
        <time>2021-05-29 08:05:20</time>
      </trkpt>
      <trkpt lat="42.89685" lon="-2.1704">
        <ele>547.2</ele>
        <time>2021-05-29 08:05:21</time>
      </trkpt>
      <trkpt lat="42.8969" lon="-2.17046">
        <ele>547.2</ele>
        <time>2021-05-29 08:05:22</time>
      </trkpt>
      <trkpt lat="42.89695" lon="-2.17051">
        <ele>547.2</ele>
        <time>2021-05-29 08:05:23</time>
      </trkpt>
      <trkpt lat="42.897" lon="-2.17058">
        <ele>547.2</ele>
        <time>2021-05-29 08:05:24</time>
      </trkpt>
      <trkpt lat="42.89706" lon="-2.17063">
        <ele>547.2</ele>
        <time>2021-05-29 08:05:25</time>
      </trkpt>
      <trkpt lat="42.89712" lon="-2.17069">
        <ele>547.2</ele>
        <time>2021-05-29 08:05:26</time>
      </trkpt>
      <trkpt lat="42.89718" lon="-2.17075">
        <ele>547.2</ele>
        <time>2021-05-29 08:05:27</time>
      </trkpt>
      <trkpt lat="42.89724" lon="-2.1708">
        <ele>547.2</ele>
        <time>2021-05-29 08:05:28</time>
      </trkpt>
      <trkpt lat="42.89731" lon="-2.17085">
        <ele>547.2</ele>
        <time>2021-05-29 08:05:29</time>
      </trkpt>
      <trkpt lat="42.89738" lon="-2.17089">
        <ele>547.2</ele>
        <time>2021-05-29 08:05:30</time>
      </trkpt>
      <trkpt lat="42.89744" lon="-2.17095">
        <ele>547.2</ele>
        <time>2021-05-29 08:05:31</time>
      </trkpt>
      <trkpt lat="42.8975" lon="-2.171">
        <ele>547.2</ele>
        <time>2021-05-29 08:05:32</time>
      </trkpt>
      <trkpt lat="42.89756" lon="-2.17106">
        <ele>547.2</ele>
        <time>2021-05-29 08:05:33</time>
      </trkpt>
      <trkpt lat="42.89762" lon="-2.17112">
        <ele>547.4</ele>
        <time>2021-05-29 08:05:34</time>
      </trkpt>
      <trkpt lat="42.89767" lon="-2.17118">
        <ele>547.4</ele>
        <time>2021-05-29 08:05:35</time>
      </trkpt>
      <trkpt lat="42.89772" lon="-2.17123">
        <ele>547.4</ele>
        <time>2021-05-29 08:05:36</time>
      </trkpt>
      <trkpt lat="42.89778" lon="-2.1713">
        <ele>547.4</ele>
        <time>2021-05-29 08:05:37</time>
      </trkpt>
      <trkpt lat="42.89784" lon="-2.17136">
        <ele>547.4</ele>
        <time>2021-05-29 08:05:38</time>
      </trkpt>
      <trkpt lat="42.8979" lon="-2.17141">
        <ele>547.4</ele>
        <time>2021-05-29 08:05:39</time>
      </trkpt>
      <trkpt lat="42.89796" lon="-2.17147">
        <ele>547.4</ele>
        <time>2021-05-29 08:05:40</time>
      </trkpt>
      <trkpt lat="42.89802" lon="-2.17153">
        <ele>547.4</ele>
        <time>2021-05-29 08:05:41</time>
      </trkpt>
      <trkpt lat="42.89808" lon="-2.17158">
        <ele>547.4</ele>
        <time>2021-05-29 08:05:42</time>
      </trkpt>
      <trkpt lat="42.89815" lon="-2.17163">
        <ele>547.6</ele>
        <time>2021-05-29 08:05:43</time>
      </trkpt>
      <trkpt lat="42.89821" lon="-2.17169">
        <ele>547.6</ele>
        <time>2021-05-29 08:05:44</time>
      </trkpt>
      <trkpt lat="42.89828" lon="-2.17175">
        <ele>547.6</ele>
        <time>2021-05-29 08:05:45</time>
      </trkpt>
      <trkpt lat="42.89834" lon="-2.1718">
        <ele>547.6</ele>
        <time>2021-05-29 08:05:46</time>
      </trkpt>
      <trkpt lat="42.89841" lon="-2.17185">
        <ele>547.6</ele>
        <time>2021-05-29 08:05:47</time>
      </trkpt>
      <trkpt lat="42.89847" lon="-2.17191">
        <ele>547.6</ele>
        <time>2021-05-29 08:05:48</time>
      </trkpt>
      <trkpt lat="42.89853" lon="-2.17196">
        <ele>547.6</ele>
        <time>2021-05-29 08:05:49</time>
      </trkpt>
      <trkpt lat="42.89859" lon="-2.172">
        <ele>547.6</ele>
        <time>2021-05-29 08:05:50</time>
      </trkpt>
      <trkpt lat="42.89865" lon="-2.17204">
        <ele>547.6</ele>
        <time>2021-05-29 08:05:51</time>
      </trkpt>
      <trkpt lat="42.89871" lon="-2.17209">
        <ele>547.6</ele>
        <time>2021-05-29 08:05:52</time>
      </trkpt>
      <trkpt lat="42.89878" lon="-2.17213">
        <ele>547.6</ele>
        <time>2021-05-29 08:05:53</time>
      </trkpt>
      <trkpt lat="42.89883" lon="-2.1722">
        <ele>547.6</ele>
        <time>2021-05-29 08:05:54</time>
      </trkpt>
      <trkpt lat="42.89888" lon="-2.17228">
        <ele>547.6</ele>
        <time>2021-05-29 08:05:55</time>
      </trkpt>
      <trkpt lat="42.89893" lon="-2.17234">
        <ele>547.6</ele>
        <time>2021-05-29 08:05:56</time>
      </trkpt>
      <trkpt lat="42.89899" lon="-2.17239">
        <ele>547.8</ele>
        <time>2021-05-29 08:05:57</time>
      </trkpt>
      <trkpt lat="42.89905" lon="-2.17243">
        <ele>547.8</ele>
        <time>2021-05-29 08:05:58</time>
      </trkpt>
      <trkpt lat="42.8991" lon="-2.1725">
        <ele>547.8</ele>
        <time>2021-05-29 08:05:59</time>
      </trkpt>
      <trkpt lat="42.89918" lon="-2.17254">
        <ele>547.8</ele>
        <time>2021-05-29 08:06:00</time>
      </trkpt>
      <trkpt lat="42.89925" lon="-2.17257">
        <ele>547.8</ele>
        <time>2021-05-29 08:06:01</time>
      </trkpt>
      <trkpt lat="42.89932" lon="-2.17261">
        <ele>547.8</ele>
        <time>2021-05-29 08:06:02</time>
      </trkpt>
      <trkpt lat="42.89939" lon="-2.17265">
        <ele>547.8</ele>
        <time>2021-05-29 08:06:03</time>
      </trkpt>
      <trkpt lat="42.89945" lon="-2.17269">
        <ele>547.8</ele>
        <time>2021-05-29 08:06:04</time>
      </trkpt>
      <trkpt lat="42.89952" lon="-2.17273">
        <ele>547.8</ele>
        <time>2021-05-29 08:06:05</time>
      </trkpt>
      <trkpt lat="42.89958" lon="-2.17277">
        <ele>547.8</ele>
        <time>2021-05-29 08:06:06</time>
      </trkpt>
      <trkpt lat="42.89964" lon="-2.17283">
        <ele>547.8</ele>
        <time>2021-05-29 08:06:07</time>
      </trkpt>
      <trkpt lat="42.89971" lon="-2.17287">
        <ele>547.8</ele>
        <time>2021-05-29 08:06:08</time>
      </trkpt>
      <trkpt lat="42.89978" lon="-2.17291">
        <ele>547.8</ele>
        <time>2021-05-29 08:06:09</time>
      </trkpt>
      <trkpt lat="42.89985" lon="-2.17295">
        <ele>547.6</ele>
        <time>2021-05-29 08:06:10</time>
      </trkpt>
      <trkpt lat="42.8999" lon="-2.17301">
        <ele>547.8</ele>
        <time>2021-05-29 08:06:11</time>
      </trkpt>
      <trkpt lat="42.89996" lon="-2.17306">
        <ele>547.8</ele>
        <time>2021-05-29 08:06:12</time>
      </trkpt>
      <trkpt lat="42.90002" lon="-2.17311">
        <ele>547.8</ele>
        <time>2021-05-29 08:06:13</time>
      </trkpt>
      <trkpt lat="42.90007" lon="-2.17316">
        <ele>547.8</ele>
        <time>2021-05-29 08:06:14</time>
      </trkpt>
      <trkpt lat="42.90012" lon="-2.17325">
        <ele>547.8</ele>
        <time>2021-05-29 08:06:15</time>
      </trkpt>
      <trkpt lat="42.90018" lon="-2.17332">
        <ele>547.8</ele>
        <time>2021-05-29 08:06:16</time>
      </trkpt>
      <trkpt lat="42.90025" lon="-2.17338">
        <ele>547.6</ele>
        <time>2021-05-29 08:06:17</time>
      </trkpt>
      <trkpt lat="42.90032" lon="-2.17342">
        <ele>547.8</ele>
        <time>2021-05-29 08:06:18</time>
      </trkpt>
      <trkpt lat="42.90039" lon="-2.17346">
        <ele>547.8</ele>
        <time>2021-05-29 08:06:19</time>
      </trkpt>
      <trkpt lat="42.90047" lon="-2.1735">
        <ele>547.8</ele>
        <time>2021-05-29 08:06:20</time>
      </trkpt>
      <trkpt lat="42.90055" lon="-2.17354">
        <ele>547.8</ele>
        <time>2021-05-29 08:06:21</time>
      </trkpt>
      <trkpt lat="42.90062" lon="-2.17359">
        <ele>547.8</ele>
        <time>2021-05-29 08:06:22</time>
      </trkpt>
      <trkpt lat="42.90069" lon="-2.17364">
        <ele>547.8</ele>
        <time>2021-05-29 08:06:23</time>
      </trkpt>
      <trkpt lat="42.90076" lon="-2.1737">
        <ele>547.8</ele>
        <time>2021-05-29 08:06:24</time>
      </trkpt>
      <trkpt lat="42.90083" lon="-2.17375">
        <ele>547.8</ele>
        <time>2021-05-29 08:06:25</time>
      </trkpt>
      <trkpt lat="42.9009" lon="-2.17383">
        <ele>547.8</ele>
        <time>2021-05-29 08:06:26</time>
      </trkpt>
      <trkpt lat="42.90094" lon="-2.17393">
        <ele>547.6</ele>
        <time>2021-05-29 08:06:27</time>
      </trkpt>
      <trkpt lat="42.90096" lon="-2.17405">
        <ele>547.6</ele>
        <time>2021-05-29 08:06:28</time>
      </trkpt>
      <trkpt lat="42.90097" lon="-2.17416">
        <ele>547.6</ele>
        <time>2021-05-29 08:06:29</time>
      </trkpt>
      <trkpt lat="42.90099" lon="-2.17427">
        <ele>547.6</ele>
        <time>2021-05-29 08:06:30</time>
      </trkpt>
      <trkpt lat="42.90101" lon="-2.17438">
        <ele>547.6</ele>
        <time>2021-05-29 08:06:31</time>
      </trkpt>
      <trkpt lat="42.90103" lon="-2.17448">
        <ele>547.4</ele>
        <time>2021-05-29 08:06:32</time>
      </trkpt>
      <trkpt lat="42.90106" lon="-2.17458">
        <ele>547.4</ele>
        <time>2021-05-29 08:06:33</time>
      </trkpt>
      <trkpt lat="42.90108" lon="-2.17466">
        <ele>547.4</ele>
        <time>2021-05-29 08:06:34</time>
      </trkpt>
      <trkpt lat="42.90111" lon="-2.17475">
        <ele>547.4</ele>
        <time>2021-05-29 08:06:35</time>
      </trkpt>
      <trkpt lat="42.90114" lon="-2.17482">
        <ele>547.4</ele>
        <time>2021-05-29 08:06:36</time>
      </trkpt>
      <trkpt lat="42.90117" lon="-2.1749">
        <ele>547.4</ele>
        <time>2021-05-29 08:06:37</time>
      </trkpt>
      <trkpt lat="42.9012" lon="-2.17498">
        <ele>547.4</ele>
        <time>2021-05-29 08:06:38</time>
      </trkpt>
      <trkpt lat="42.90123" lon="-2.17505">
        <ele>547.4</ele>
        <time>2021-05-29 08:06:39</time>
      </trkpt>
      <trkpt lat="42.90126" lon="-2.17513">
        <ele>547.4</ele>
        <time>2021-05-29 08:06:40</time>
      </trkpt>
      <trkpt lat="42.90129" lon="-2.17521">
        <ele>547.6</ele>
        <time>2021-05-29 08:06:41</time>
      </trkpt>
      <trkpt lat="42.90132" lon="-2.17529">
        <ele>547.6</ele>
        <time>2021-05-29 08:06:42</time>
      </trkpt>
      <trkpt lat="42.90136" lon="-2.17537">
        <ele>547.6</ele>
        <time>2021-05-29 08:06:43</time>
      </trkpt>
      <trkpt lat="42.90139" lon="-2.17546">
        <ele>547.6</ele>
        <time>2021-05-29 08:06:44</time>
      </trkpt>
      <trkpt lat="42.90142" lon="-2.17554">
        <ele>547.6</ele>
        <time>2021-05-29 08:06:45</time>
      </trkpt>
      <trkpt lat="42.90146" lon="-2.17563">
        <ele>547.6</ele>
        <time>2021-05-29 08:06:46</time>
      </trkpt>
      <trkpt lat="42.90149" lon="-2.17571">
        <ele>547.6</ele>
        <time>2021-05-29 08:06:47</time>
      </trkpt>
      <trkpt lat="42.90152" lon="-2.1758">
        <ele>547.6</ele>
        <time>2021-05-29 08:06:48</time>
      </trkpt>
      <trkpt lat="42.90155" lon="-2.17588">
        <ele>547.6</ele>
        <time>2021-05-29 08:06:49</time>
      </trkpt>
      <trkpt lat="42.90159" lon="-2.17597">
        <ele>547.8</ele>
        <time>2021-05-29 08:06:50</time>
      </trkpt>
      <trkpt lat="42.90163" lon="-2.17605">
        <ele>547.8</ele>
        <time>2021-05-29 08:06:51</time>
      </trkpt>
      <trkpt lat="42.90169" lon="-2.17611">
        <ele>547.8</ele>
        <time>2021-05-29 08:06:52</time>
      </trkpt>
      <trkpt lat="42.90176" lon="-2.17616">
        <ele>547.8</ele>
        <time>2021-05-29 08:06:53</time>
      </trkpt>
      <trkpt lat="42.90184" lon="-2.17619">
        <ele>547.8</ele>
        <time>2021-05-29 08:06:54</time>
      </trkpt>
      <trkpt lat="42.90191" lon="-2.17623">
        <ele>547.8</ele>
        <time>2021-05-29 08:06:55</time>
      </trkpt>
      <trkpt lat="42.90198" lon="-2.1763">
        <ele>547.8</ele>
        <time>2021-05-29 08:06:56</time>
      </trkpt>
      <trkpt lat="42.90204" lon="-2.17637">
        <ele>547.8</ele>
        <time>2021-05-29 08:06:57</time>
      </trkpt>
      <trkpt lat="42.9021" lon="-2.17645">
        <ele>547.8</ele>
        <time>2021-05-29 08:06:58</time>
      </trkpt>
      <trkpt lat="42.90216" lon="-2.17652">
        <ele>547.6</ele>
        <time>2021-05-29 08:06:59</time>
      </trkpt>
      <trkpt lat="42.90224" lon="-2.17658">
        <ele>547.6</ele>
        <time>2021-05-29 08:07:00</time>
      </trkpt>
      <trkpt lat="42.90232" lon="-2.1766">
        <ele>547.6</ele>
        <time>2021-05-29 08:07:01</time>
      </trkpt>
      <trkpt lat="42.9024" lon="-2.17656">
        <ele>547.6</ele>
        <time>2021-05-29 08:07:02</time>
      </trkpt>
      <trkpt lat="42.90247" lon="-2.17649">
        <ele>547.6</ele>
        <time>2021-05-29 08:07:03</time>
      </trkpt>
      <trkpt lat="42.90254" lon="-2.17639">
        <ele>547.6</ele>
        <time>2021-05-29 08:07:04</time>
      </trkpt>
      <trkpt lat="42.90262" lon="-2.17628">
        <ele>547.6</ele>
        <time>2021-05-29 08:07:05</time>
      </trkpt>
      <trkpt lat="42.9027" lon="-2.17617">
        <ele>547.4</ele>
        <time>2021-05-29 08:07:06</time>
      </trkpt>
      <trkpt lat="42.90278" lon="-2.17606">
        <ele>547.4</ele>
        <time>2021-05-29 08:07:07</time>
      </trkpt>
      <trkpt lat="42.90288" lon="-2.17597">
        <ele>547.4</ele>
        <time>2021-05-29 08:07:08</time>
      </trkpt>
      <trkpt lat="42.90299" lon="-2.1759">
        <ele>547.4</ele>
        <time>2021-05-29 08:07:09</time>
      </trkpt>
      <trkpt lat="42.9031" lon="-2.17587">
        <ele>547.4</ele>
        <time>2021-05-29 08:07:10</time>
      </trkpt>
      <trkpt lat="42.90321" lon="-2.17587">
        <ele>547.2</ele>
        <time>2021-05-29 08:07:11</time>
      </trkpt>
      <trkpt lat="42.90332" lon="-2.17589">
        <ele>547.2</ele>
        <time>2021-05-29 08:07:12</time>
      </trkpt>
      <trkpt lat="42.90342" lon="-2.17593">
        <ele>547.2</ele>
        <time>2021-05-29 08:07:13</time>
      </trkpt>
      <trkpt lat="42.90352" lon="-2.17599">
        <ele>547</ele>
        <time>2021-05-29 08:07:14</time>
      </trkpt>
      <trkpt lat="42.90361" lon="-2.17606">
        <ele>546.8</ele>
        <time>2021-05-29 08:07:15</time>
      </trkpt>
      <trkpt lat="42.90371" lon="-2.17614">
        <ele>546.6</ele>
        <time>2021-05-29 08:07:16</time>
      </trkpt>
      <trkpt lat="42.9038" lon="-2.17622">
        <ele>546.6</ele>
        <time>2021-05-29 08:07:17</time>
      </trkpt>
      <trkpt lat="42.90389" lon="-2.17629">
        <ele>546.6</ele>
        <time>2021-05-29 08:07:18</time>
      </trkpt>
      <trkpt lat="42.90398" lon="-2.17637">
        <ele>546.4</ele>
        <time>2021-05-29 08:07:19</time>
      </trkpt>
      <trkpt lat="42.90407" lon="-2.17644">
        <ele>546.4</ele>
        <time>2021-05-29 08:07:20</time>
      </trkpt>
      <trkpt lat="42.90415" lon="-2.17652">
        <ele>546.4</ele>
        <time>2021-05-29 08:07:21</time>
      </trkpt>
      <trkpt lat="42.90424" lon="-2.17659">
        <ele>546.4</ele>
        <time>2021-05-29 08:07:22</time>
      </trkpt>
      <trkpt lat="42.90432" lon="-2.17667">
        <ele>546.2</ele>
        <time>2021-05-29 08:07:23</time>
      </trkpt>
      <trkpt lat="42.90441" lon="-2.17674">
        <ele>546.2</ele>
        <time>2021-05-29 08:07:24</time>
      </trkpt>
      <trkpt lat="42.90449" lon="-2.17682">
        <ele>546</ele>
        <time>2021-05-29 08:07:25</time>
      </trkpt>
      <trkpt lat="42.90458" lon="-2.17689">
        <ele>545.8</ele>
        <time>2021-05-29 08:07:26</time>
      </trkpt>
      <trkpt lat="42.90466" lon="-2.17696">
        <ele>545.8</ele>
        <time>2021-05-29 08:07:27</time>
      </trkpt>
      <trkpt lat="42.90475" lon="-2.17704">
        <ele>545.8</ele>
        <time>2021-05-29 08:07:28</time>
      </trkpt>
      <trkpt lat="42.90483" lon="-2.17712">
        <ele>545.8</ele>
        <time>2021-05-29 08:07:29</time>
      </trkpt>
      <trkpt lat="42.90491" lon="-2.17719">
        <ele>545.8</ele>
        <time>2021-05-29 08:07:30</time>
      </trkpt>
      <trkpt lat="42.90499" lon="-2.17726">
        <ele>545.8</ele>
        <time>2021-05-29 08:07:31</time>
      </trkpt>
      <trkpt lat="42.90507" lon="-2.17732">
        <ele>545.6</ele>
        <time>2021-05-29 08:07:32</time>
      </trkpt>
      <trkpt lat="42.90515" lon="-2.17739">
        <ele>545.6</ele>
        <time>2021-05-29 08:07:33</time>
      </trkpt>
      <trkpt lat="42.90523" lon="-2.17745">
        <ele>545.6</ele>
        <time>2021-05-29 08:07:34</time>
      </trkpt>
      <trkpt lat="42.90531" lon="-2.17751">
        <ele>545.8</ele>
        <time>2021-05-29 08:07:35</time>
      </trkpt>
      <trkpt lat="42.90539" lon="-2.17757">
        <ele>545.8</ele>
        <time>2021-05-29 08:07:36</time>
      </trkpt>
      <trkpt lat="42.90547" lon="-2.17762">
        <ele>545.4</ele>
        <time>2021-05-29 08:07:37</time>
      </trkpt>
      <trkpt lat="42.90555" lon="-2.17767">
        <ele>545.4</ele>
        <time>2021-05-29 08:07:38</time>
      </trkpt>
      <trkpt lat="42.90563" lon="-2.17771">
        <ele>545.4</ele>
        <time>2021-05-29 08:07:39</time>
      </trkpt>
      <trkpt lat="42.90571" lon="-2.17775">
        <ele>545.4</ele>
        <time>2021-05-29 08:07:40</time>
      </trkpt>
      <trkpt lat="42.90579" lon="-2.17779">
        <ele>545.6</ele>
        <time>2021-05-29 08:07:41</time>
      </trkpt>
      <trkpt lat="42.90587" lon="-2.17782">
        <ele>545.8</ele>
        <time>2021-05-29 08:07:42</time>
      </trkpt>
      <trkpt lat="42.90595" lon="-2.17785">
        <ele>545.8</ele>
        <time>2021-05-29 08:07:43</time>
      </trkpt>
      <trkpt lat="42.90602" lon="-2.17787">
        <ele>545.8</ele>
        <time>2021-05-29 08:07:44</time>
      </trkpt>
      <trkpt lat="42.9061" lon="-2.1779">
        <ele>545.8</ele>
        <time>2021-05-29 08:07:45</time>
      </trkpt>
      <trkpt lat="42.90617" lon="-2.17792">
        <ele>545.8</ele>
        <time>2021-05-29 08:07:46</time>
      </trkpt>
      <trkpt lat="42.90625" lon="-2.17794">
        <ele>545.8</ele>
        <time>2021-05-29 08:07:47</time>
      </trkpt>
      <trkpt lat="42.90633" lon="-2.17796">
        <ele>546</ele>
        <time>2021-05-29 08:07:48</time>
      </trkpt>
      <trkpt lat="42.90641" lon="-2.17797">
        <ele>545.8</ele>
        <time>2021-05-29 08:07:49</time>
      </trkpt>
      <trkpt lat="42.90649" lon="-2.17799">
        <ele>545.8</ele>
        <time>2021-05-29 08:07:50</time>
      </trkpt>
      <trkpt lat="42.90657" lon="-2.178">
        <ele>545.8</ele>
        <time>2021-05-29 08:07:51</time>
      </trkpt>
      <trkpt lat="42.90664" lon="-2.17801">
        <ele>545.8</ele>
        <time>2021-05-29 08:07:52</time>
      </trkpt>
      <trkpt lat="42.90672" lon="-2.17803">
        <ele>546</ele>
        <time>2021-05-29 08:07:53</time>
      </trkpt>
      <trkpt lat="42.90679" lon="-2.17804">
        <ele>546</ele>
        <time>2021-05-29 08:07:54</time>
      </trkpt>
      <trkpt lat="42.90687" lon="-2.17806">
        <ele>546</ele>
        <time>2021-05-29 08:07:55</time>
      </trkpt>
      <trkpt lat="42.90695" lon="-2.17807">
        <ele>546</ele>
        <time>2021-05-29 08:07:56</time>
      </trkpt>
      <trkpt lat="42.90703" lon="-2.17809">
        <ele>546</ele>
        <time>2021-05-29 08:07:57</time>
      </trkpt>
      <trkpt lat="42.9071" lon="-2.1781">
        <ele>546</ele>
        <time>2021-05-29 08:07:58</time>
      </trkpt>
      <trkpt lat="42.90718" lon="-2.17811">
        <ele>546</ele>
        <time>2021-05-29 08:07:59</time>
      </trkpt>
      <trkpt lat="42.90726" lon="-2.17813">
        <ele>546</ele>
        <time>2021-05-29 08:08:00</time>
      </trkpt>
      <trkpt lat="42.90734" lon="-2.17814">
        <ele>546</ele>
        <time>2021-05-29 08:08:01</time>
      </trkpt>
      <trkpt lat="42.90741" lon="-2.17815">
        <ele>546</ele>
        <time>2021-05-29 08:08:02</time>
      </trkpt>
      <trkpt lat="42.90749" lon="-2.17816">
        <ele>546</ele>
        <time>2021-05-29 08:08:03</time>
      </trkpt>
      <trkpt lat="42.90756" lon="-2.17817">
        <ele>546</ele>
        <time>2021-05-29 08:08:04</time>
      </trkpt>
      <trkpt lat="42.90763" lon="-2.17818">
        <ele>546</ele>
        <time>2021-05-29 08:08:05</time>
      </trkpt>
      <trkpt lat="42.9077" lon="-2.17819">
        <ele>546</ele>
        <time>2021-05-29 08:08:06</time>
      </trkpt>
      <trkpt lat="42.90778" lon="-2.1782">
        <ele>546</ele>
        <time>2021-05-29 08:08:07</time>
      </trkpt>
      <trkpt lat="42.90785" lon="-2.1782">
        <ele>546.2</ele>
        <time>2021-05-29 08:08:08</time>
      </trkpt>
      <trkpt lat="42.90792" lon="-2.1782">
        <ele>546.2</ele>
        <time>2021-05-29 08:08:09</time>
      </trkpt>
      <trkpt lat="42.908" lon="-2.17821">
        <ele>546.2</ele>
        <time>2021-05-29 08:08:10</time>
      </trkpt>
      <trkpt lat="42.90807" lon="-2.17822">
        <ele>546.2</ele>
        <time>2021-05-29 08:08:11</time>
      </trkpt>
      <trkpt lat="42.90815" lon="-2.17821">
        <ele>546.2</ele>
        <time>2021-05-29 08:08:12</time>
      </trkpt>
      <trkpt lat="42.90822" lon="-2.17821">
        <ele>546.2</ele>
        <time>2021-05-29 08:08:13</time>
      </trkpt>
      <trkpt lat="42.9083" lon="-2.1782">
        <ele>546.2</ele>
        <time>2021-05-29 08:08:14</time>
      </trkpt>
      <trkpt lat="42.90838" lon="-2.17817">
        <ele>546.2</ele>
        <time>2021-05-29 08:08:15</time>
      </trkpt>
      <trkpt lat="42.90846" lon="-2.17816">
        <ele>546.2</ele>
        <time>2021-05-29 08:08:16</time>
      </trkpt>
      <trkpt lat="42.90854" lon="-2.17814">
        <ele>546.2</ele>
        <time>2021-05-29 08:08:17</time>
      </trkpt>
      <trkpt lat="42.90862" lon="-2.17812">
        <ele>546.2</ele>
        <time>2021-05-29 08:08:18</time>
      </trkpt>
      <trkpt lat="42.90872" lon="-2.1781">
        <ele>546.2</ele>
        <time>2021-05-29 08:08:19</time>
      </trkpt>
      <trkpt lat="42.90881" lon="-2.17809">
        <ele>546.2</ele>
        <time>2021-05-29 08:08:20</time>
      </trkpt>
      <trkpt lat="42.9089" lon="-2.17809">
        <ele>546.2</ele>
        <time>2021-05-29 08:08:21</time>
      </trkpt>
      <trkpt lat="42.90898" lon="-2.17808">
        <ele>546.2</ele>
        <time>2021-05-29 08:08:22</time>
      </trkpt>
      <trkpt lat="42.90907" lon="-2.17809">
        <ele>546.2</ele>
        <time>2021-05-29 08:08:23</time>
      </trkpt>
      <trkpt lat="42.90916" lon="-2.1781">
        <ele>546.2</ele>
        <time>2021-05-29 08:08:24</time>
      </trkpt>
      <trkpt lat="42.90925" lon="-2.17812">
        <ele>546.2</ele>
        <time>2021-05-29 08:08:25</time>
      </trkpt>
      <trkpt lat="42.90934" lon="-2.17814">
        <ele>546.2</ele>
        <time>2021-05-29 08:08:26</time>
      </trkpt>
      <trkpt lat="42.90942" lon="-2.17816">
        <ele>546.2</ele>
        <time>2021-05-29 08:08:27</time>
      </trkpt>
      <trkpt lat="42.9095" lon="-2.17819">
        <ele>546.2</ele>
        <time>2021-05-29 08:08:28</time>
      </trkpt>
      <trkpt lat="42.90958" lon="-2.17822">
        <ele>546.2</ele>
        <time>2021-05-29 08:08:29</time>
      </trkpt>
      <trkpt lat="42.90966" lon="-2.17825">
        <ele>546.2</ele>
        <time>2021-05-29 08:08:30</time>
      </trkpt>
      <trkpt lat="42.90974" lon="-2.17829">
        <ele>546.2</ele>
        <time>2021-05-29 08:08:31</time>
      </trkpt>
      <trkpt lat="42.90982" lon="-2.17832">
        <ele>546.2</ele>
        <time>2021-05-29 08:08:32</time>
      </trkpt>
      <trkpt lat="42.9099" lon="-2.17836">
        <ele>546.2</ele>
        <time>2021-05-29 08:08:33</time>
      </trkpt>
      <trkpt lat="42.90998" lon="-2.1784">
        <ele>546.4</ele>
        <time>2021-05-29 08:08:34</time>
      </trkpt>
      <trkpt lat="42.91006" lon="-2.17844">
        <ele>546.4</ele>
        <time>2021-05-29 08:08:35</time>
      </trkpt>
      <trkpt lat="42.91014" lon="-2.17849">
        <ele>546.4</ele>
        <time>2021-05-29 08:08:36</time>
      </trkpt>
      <trkpt lat="42.91021" lon="-2.17853">
        <ele>546.4</ele>
        <time>2021-05-29 08:08:37</time>
      </trkpt>
      <trkpt lat="42.91029" lon="-2.17857">
        <ele>546.4</ele>
        <time>2021-05-29 08:08:38</time>
      </trkpt>
      <trkpt lat="42.91036" lon="-2.17861">
        <ele>546.4</ele>
        <time>2021-05-29 08:08:39</time>
      </trkpt>
      <trkpt lat="42.91044" lon="-2.17865">
        <ele>546.4</ele>
        <time>2021-05-29 08:08:40</time>
      </trkpt>
      <trkpt lat="42.91051" lon="-2.17869">
        <ele>546.4</ele>
        <time>2021-05-29 08:08:41</time>
      </trkpt>
      <trkpt lat="42.91058" lon="-2.17873">
        <ele>546.4</ele>
        <time>2021-05-29 08:08:42</time>
      </trkpt>
      <trkpt lat="42.91066" lon="-2.17876">
        <ele>546.4</ele>
        <time>2021-05-29 08:08:43</time>
      </trkpt>
      <trkpt lat="42.91073" lon="-2.1788">
        <ele>546.4</ele>
        <time>2021-05-29 08:08:44</time>
      </trkpt>
      <trkpt lat="42.9108" lon="-2.17884">
        <ele>546.4</ele>
        <time>2021-05-29 08:08:45</time>
      </trkpt>
      <trkpt lat="42.91087" lon="-2.17888">
        <ele>546.4</ele>
        <time>2021-05-29 08:08:46</time>
      </trkpt>
      <trkpt lat="42.91094" lon="-2.17891">
        <ele>546.4</ele>
        <time>2021-05-29 08:08:47</time>
      </trkpt>
      <trkpt lat="42.91101" lon="-2.17895">
        <ele>546.4</ele>
        <time>2021-05-29 08:08:48</time>
      </trkpt>
      <trkpt lat="42.91109" lon="-2.17898">
        <ele>546.4</ele>
        <time>2021-05-29 08:08:49</time>
      </trkpt>
      <trkpt lat="42.91116" lon="-2.17901">
        <ele>546.4</ele>
        <time>2021-05-29 08:08:50</time>
      </trkpt>
      <trkpt lat="42.91123" lon="-2.17904">
        <ele>546.4</ele>
        <time>2021-05-29 08:08:51</time>
      </trkpt>
      <trkpt lat="42.91131" lon="-2.17908">
        <ele>546.4</ele>
        <time>2021-05-29 08:08:52</time>
      </trkpt>
      <trkpt lat="42.91138" lon="-2.17911">
        <ele>546.4</ele>
        <time>2021-05-29 08:08:53</time>
      </trkpt>
      <trkpt lat="42.91145" lon="-2.17914">
        <ele>546.2</ele>
        <time>2021-05-29 08:08:54</time>
      </trkpt>
      <trkpt lat="42.91152" lon="-2.17918">
        <ele>546.2</ele>
        <time>2021-05-29 08:08:55</time>
      </trkpt>
      <trkpt lat="42.91159" lon="-2.17921">
        <ele>546.2</ele>
        <time>2021-05-29 08:08:56</time>
      </trkpt>
      <trkpt lat="42.91166" lon="-2.17924">
        <ele>546.2</ele>
        <time>2021-05-29 08:08:57</time>
      </trkpt>
      <trkpt lat="42.91174" lon="-2.17927">
        <ele>546.2</ele>
        <time>2021-05-29 08:08:58</time>
      </trkpt>
      <trkpt lat="42.91181" lon="-2.17929">
        <ele>546.2</ele>
        <time>2021-05-29 08:08:59</time>
      </trkpt>
      <trkpt lat="42.91189" lon="-2.17932">
        <ele>546.2</ele>
        <time>2021-05-29 08:09:00</time>
      </trkpt>
      <trkpt lat="42.91196" lon="-2.17934">
        <ele>546.2</ele>
        <time>2021-05-29 08:09:01</time>
      </trkpt>
      <trkpt lat="42.91203" lon="-2.17937">
        <ele>546.2</ele>
        <time>2021-05-29 08:09:02</time>
      </trkpt>
      <trkpt lat="42.9121" lon="-2.17939">
        <ele>546.2</ele>
        <time>2021-05-29 08:09:03</time>
      </trkpt>
      <trkpt lat="42.91216" lon="-2.17942">
        <ele>546</ele>
        <time>2021-05-29 08:09:04</time>
      </trkpt>
      <trkpt lat="42.91223" lon="-2.17945">
        <ele>546.2</ele>
        <time>2021-05-29 08:09:05</time>
      </trkpt>
      <trkpt lat="42.9123" lon="-2.17947">
        <ele>546.2</ele>
        <time>2021-05-29 08:09:06</time>
      </trkpt>
      <trkpt lat="42.91237" lon="-2.1795">
        <ele>546.2</ele>
        <time>2021-05-29 08:09:07</time>
      </trkpt>
      <trkpt lat="42.91244" lon="-2.17952">
        <ele>546.2</ele>
        <time>2021-05-29 08:09:08</time>
      </trkpt>
      <trkpt lat="42.91251" lon="-2.17955">
        <ele>546.2</ele>
        <time>2021-05-29 08:09:09</time>
      </trkpt>
      <trkpt lat="42.91258" lon="-2.17958">
        <ele>546.2</ele>
        <time>2021-05-29 08:09:10</time>
      </trkpt>
      <trkpt lat="42.91265" lon="-2.1796">
        <ele>546.2</ele>
        <time>2021-05-29 08:09:11</time>
      </trkpt>
      <trkpt lat="42.91272" lon="-2.17963">
        <ele>546.2</ele>
        <time>2021-05-29 08:09:12</time>
      </trkpt>
      <trkpt lat="42.91279" lon="-2.17966">
        <ele>546.2</ele>
        <time>2021-05-29 08:09:13</time>
      </trkpt>
      <trkpt lat="42.91286" lon="-2.17969">
        <ele>546.2</ele>
        <time>2021-05-29 08:09:14</time>
      </trkpt>
      <trkpt lat="42.91293" lon="-2.17973">
        <ele>546.2</ele>
        <time>2021-05-29 08:09:15</time>
      </trkpt>
      <trkpt lat="42.913" lon="-2.17976">
        <ele>546.2</ele>
        <time>2021-05-29 08:09:16</time>
      </trkpt>
      <trkpt lat="42.91307" lon="-2.1798">
        <ele>546.2</ele>
        <time>2021-05-29 08:09:17</time>
      </trkpt>
      <trkpt lat="42.91314" lon="-2.17984">
        <ele>546.2</ele>
        <time>2021-05-29 08:09:18</time>
      </trkpt>
      <trkpt lat="42.91321" lon="-2.17988">
        <ele>546.2</ele>
        <time>2021-05-29 08:09:19</time>
      </trkpt>
      <trkpt lat="42.91328" lon="-2.17992">
        <ele>546.2</ele>
        <time>2021-05-29 08:09:20</time>
      </trkpt>
      <trkpt lat="42.91335" lon="-2.17996">
        <ele>546.2</ele>
        <time>2021-05-29 08:09:21</time>
      </trkpt>
      <trkpt lat="42.91342" lon="-2.18">
        <ele>546.2</ele>
        <time>2021-05-29 08:09:22</time>
      </trkpt>
      <trkpt lat="42.91349" lon="-2.18005">
        <ele>546.2</ele>
        <time>2021-05-29 08:09:23</time>
      </trkpt>
      <trkpt lat="42.91356" lon="-2.18009">
        <ele>546</ele>
        <time>2021-05-29 08:09:24</time>
      </trkpt>
      <trkpt lat="42.91363" lon="-2.18014">
        <ele>546</ele>
        <time>2021-05-29 08:09:25</time>
      </trkpt>
      <trkpt lat="42.9137" lon="-2.18019">
        <ele>546</ele>
        <time>2021-05-29 08:09:26</time>
      </trkpt>
      <trkpt lat="42.91376" lon="-2.18024">
        <ele>545.8</ele>
        <time>2021-05-29 08:09:27</time>
      </trkpt>
      <trkpt lat="42.91383" lon="-2.18029">
        <ele>545.8</ele>
        <time>2021-05-29 08:09:28</time>
      </trkpt>
      <trkpt lat="42.9139" lon="-2.18034">
        <ele>545.8</ele>
        <time>2021-05-29 08:09:29</time>
      </trkpt>
      <trkpt lat="42.91396" lon="-2.18039">
        <ele>545.6</ele>
        <time>2021-05-29 08:09:30</time>
      </trkpt>
      <trkpt lat="42.91403" lon="-2.18045">
        <ele>545.6</ele>
        <time>2021-05-29 08:09:31</time>
      </trkpt>
      <trkpt lat="42.91409" lon="-2.18051">
        <ele>545.6</ele>
        <time>2021-05-29 08:09:32</time>
      </trkpt>
      <trkpt lat="42.91416" lon="-2.18056">
        <ele>545.6</ele>
        <time>2021-05-29 08:09:33</time>
      </trkpt>
      <trkpt lat="42.91422" lon="-2.18062">
        <ele>545.6</ele>
        <time>2021-05-29 08:09:34</time>
      </trkpt>
      <trkpt lat="42.91429" lon="-2.18068">
        <ele>545.6</ele>
        <time>2021-05-29 08:09:35</time>
      </trkpt>
      <trkpt lat="42.91435" lon="-2.18074">
        <ele>545.4</ele>
        <time>2021-05-29 08:09:36</time>
      </trkpt>
      <trkpt lat="42.91441" lon="-2.1808">
        <ele>545.4</ele>
        <time>2021-05-29 08:09:37</time>
      </trkpt>
      <trkpt lat="42.91447" lon="-2.18086">
        <ele>545.4</ele>
        <time>2021-05-29 08:09:38</time>
      </trkpt>
      <trkpt lat="42.91454" lon="-2.18093">
        <ele>545.4</ele>
        <time>2021-05-29 08:09:39</time>
      </trkpt>
      <trkpt lat="42.9146" lon="-2.18099">
        <ele>545.4</ele>
        <time>2021-05-29 08:09:40</time>
      </trkpt>
      <trkpt lat="42.91466" lon="-2.18106">
        <ele>545.4</ele>
        <time>2021-05-29 08:09:41</time>
      </trkpt>
      <trkpt lat="42.91471" lon="-2.18113">
        <ele>545.4</ele>
        <time>2021-05-29 08:09:42</time>
      </trkpt>
      <trkpt lat="42.91477" lon="-2.18119">
        <ele>545.4</ele>
        <time>2021-05-29 08:09:43</time>
      </trkpt>
      <trkpt lat="42.91483" lon="-2.18126">
        <ele>545.4</ele>
        <time>2021-05-29 08:09:44</time>
      </trkpt>
      <trkpt lat="42.91488" lon="-2.18133">
        <ele>545.4</ele>
        <time>2021-05-29 08:09:45</time>
      </trkpt>
      <trkpt lat="42.91494" lon="-2.1814">
        <ele>545.2</ele>
        <time>2021-05-29 08:09:46</time>
      </trkpt>
      <trkpt lat="42.91499" lon="-2.18147">
        <ele>545.2</ele>
        <time>2021-05-29 08:09:47</time>
      </trkpt>
      <trkpt lat="42.91504" lon="-2.18154">
        <ele>545.2</ele>
        <time>2021-05-29 08:09:48</time>
      </trkpt>
      <trkpt lat="42.9151" lon="-2.18161">
        <ele>545.2</ele>
        <time>2021-05-29 08:09:49</time>
      </trkpt>
      <trkpt lat="42.91515" lon="-2.18168">
        <ele>545.2</ele>
        <time>2021-05-29 08:09:50</time>
      </trkpt>
      <trkpt lat="42.9152" lon="-2.18176">
        <ele>545.2</ele>
        <time>2021-05-29 08:09:51</time>
      </trkpt>
      <trkpt lat="42.91525" lon="-2.18183">
        <ele>545</ele>
        <time>2021-05-29 08:09:52</time>
      </trkpt>
      <trkpt lat="42.9153" lon="-2.18191">
        <ele>545</ele>
        <time>2021-05-29 08:09:53</time>
      </trkpt>
      <trkpt lat="42.91536" lon="-2.18199">
        <ele>545</ele>
        <time>2021-05-29 08:09:54</time>
      </trkpt>
      <trkpt lat="42.91541" lon="-2.18207">
        <ele>545</ele>
        <time>2021-05-29 08:09:55</time>
      </trkpt>
      <trkpt lat="42.91546" lon="-2.18215">
        <ele>545</ele>
        <time>2021-05-29 08:09:56</time>
      </trkpt>
      <trkpt lat="42.91551" lon="-2.18224">
        <ele>545</ele>
        <time>2021-05-29 08:09:57</time>
      </trkpt>
      <trkpt lat="42.91555" lon="-2.18232">
        <ele>545</ele>
        <time>2021-05-29 08:09:58</time>
      </trkpt>
      <trkpt lat="42.9156" lon="-2.1824">
        <ele>545</ele>
        <time>2021-05-29 08:09:59</time>
      </trkpt>
      <trkpt lat="42.91564" lon="-2.18249">
        <ele>544.8</ele>
        <time>2021-05-29 08:10:00</time>
      </trkpt>
      <trkpt lat="42.91569" lon="-2.18257">
        <ele>544.8</ele>
        <time>2021-05-29 08:10:01</time>
      </trkpt>
      <trkpt lat="42.91573" lon="-2.18265">
        <ele>544.8</ele>
        <time>2021-05-29 08:10:02</time>
      </trkpt>
      <trkpt lat="42.91577" lon="-2.18273">
        <ele>544.8</ele>
        <time>2021-05-29 08:10:03</time>
      </trkpt>
      <trkpt lat="42.91581" lon="-2.18282">
        <ele>544.8</ele>
        <time>2021-05-29 08:10:04</time>
      </trkpt>
      <trkpt lat="42.91585" lon="-2.18291">
        <ele>544.6</ele>
        <time>2021-05-29 08:10:05</time>
      </trkpt>
      <trkpt lat="42.91589" lon="-2.18299">
        <ele>544.6</ele>
        <time>2021-05-29 08:10:06</time>
      </trkpt>
      <trkpt lat="42.91593" lon="-2.18308">
        <ele>544.6</ele>
        <time>2021-05-29 08:10:07</time>
      </trkpt>
      <trkpt lat="42.91597" lon="-2.18317">
        <ele>544.6</ele>
        <time>2021-05-29 08:10:08</time>
      </trkpt>
      <trkpt lat="42.91601" lon="-2.18325">
        <ele>544.6</ele>
        <time>2021-05-29 08:10:09</time>
      </trkpt>
      <trkpt lat="42.91605" lon="-2.18334">
        <ele>544.6</ele>
        <time>2021-05-29 08:10:10</time>
      </trkpt>
      <trkpt lat="42.91608" lon="-2.18342">
        <ele>544.6</ele>
        <time>2021-05-29 08:10:11</time>
      </trkpt>
      <trkpt lat="42.91612" lon="-2.18351">
        <ele>544.6</ele>
        <time>2021-05-29 08:10:12</time>
      </trkpt>
      <trkpt lat="42.91615" lon="-2.1836">
        <ele>544.6</ele>
        <time>2021-05-29 08:10:13</time>
      </trkpt>
      <trkpt lat="42.91619" lon="-2.18369">
        <ele>544.6</ele>
        <time>2021-05-29 08:10:14</time>
      </trkpt>
      <trkpt lat="42.91622" lon="-2.18377">
        <ele>544.6</ele>
        <time>2021-05-29 08:10:15</time>
      </trkpt>
      <trkpt lat="42.91626" lon="-2.18386">
        <ele>544.4</ele>
        <time>2021-05-29 08:10:16</time>
      </trkpt>
      <trkpt lat="42.91629" lon="-2.18395">
        <ele>544.4</ele>
        <time>2021-05-29 08:10:17</time>
      </trkpt>
      <trkpt lat="42.91633" lon="-2.18404">
        <ele>544.4</ele>
        <time>2021-05-29 08:10:18</time>
      </trkpt>
      <trkpt lat="42.91637" lon="-2.18413">
        <ele>544.4</ele>
        <time>2021-05-29 08:10:19</time>
      </trkpt>
      <trkpt lat="42.91641" lon="-2.18422">
        <ele>544.4</ele>
        <time>2021-05-29 08:10:20</time>
      </trkpt>
      <trkpt lat="42.91645" lon="-2.18431">
        <ele>544.4</ele>
        <time>2021-05-29 08:10:21</time>
      </trkpt>
      <trkpt lat="42.91648" lon="-2.18439">
        <ele>544.4</ele>
        <time>2021-05-29 08:10:22</time>
      </trkpt>
      <trkpt lat="42.91652" lon="-2.18448">
        <ele>544.4</ele>
        <time>2021-05-29 08:10:23</time>
      </trkpt>
      <trkpt lat="42.91655" lon="-2.18456">
        <ele>544.4</ele>
        <time>2021-05-29 08:10:24</time>
      </trkpt>
      <trkpt lat="42.91658" lon="-2.18464">
        <ele>544.4</ele>
        <time>2021-05-29 08:10:25</time>
      </trkpt>
      <trkpt lat="42.91662" lon="-2.18472">
        <ele>544.4</ele>
        <time>2021-05-29 08:10:26</time>
      </trkpt>
      <trkpt lat="42.91665" lon="-2.18481">
        <ele>544.4</ele>
        <time>2021-05-29 08:10:27</time>
      </trkpt>
      <trkpt lat="42.91668" lon="-2.18489">
        <ele>544.4</ele>
        <time>2021-05-29 08:10:28</time>
      </trkpt>
      <trkpt lat="42.91672" lon="-2.18496">
        <ele>544.4</ele>
        <time>2021-05-29 08:10:29</time>
      </trkpt>
      <trkpt lat="42.91675" lon="-2.18504">
        <ele>544.4</ele>
        <time>2021-05-29 08:10:30</time>
      </trkpt>
      <trkpt lat="42.91678" lon="-2.18512">
        <ele>544.4</ele>
        <time>2021-05-29 08:10:31</time>
      </trkpt>
      <trkpt lat="42.91681" lon="-2.1852">
        <ele>544.4</ele>
        <time>2021-05-29 08:10:32</time>
      </trkpt>
      <trkpt lat="42.91685" lon="-2.18528">
        <ele>544.2</ele>
        <time>2021-05-29 08:10:33</time>
      </trkpt>
      <trkpt lat="42.91688" lon="-2.18535">
        <ele>544.2</ele>
        <time>2021-05-29 08:10:34</time>
      </trkpt>
      <trkpt lat="42.91691" lon="-2.18543">
        <ele>544.2</ele>
        <time>2021-05-29 08:10:35</time>
      </trkpt>
      <trkpt lat="42.91694" lon="-2.1855">
        <ele>544.2</ele>
        <time>2021-05-29 08:10:36</time>
      </trkpt>
      <trkpt lat="42.91697" lon="-2.18557">
        <ele>544.2</ele>
        <time>2021-05-29 08:10:37</time>
      </trkpt>
      <trkpt lat="42.917" lon="-2.18565">
        <ele>544.2</ele>
        <time>2021-05-29 08:10:38</time>
      </trkpt>
      <trkpt lat="42.91703" lon="-2.18572">
        <ele>544</ele>
        <time>2021-05-29 08:10:39</time>
      </trkpt>
      <trkpt lat="42.91706" lon="-2.18579">
        <ele>544</ele>
        <time>2021-05-29 08:10:40</time>
      </trkpt>
      <trkpt lat="42.91709" lon="-2.18586">
        <ele>544</ele>
        <time>2021-05-29 08:10:41</time>
      </trkpt>
      <trkpt lat="42.91711" lon="-2.18594">
        <ele>544</ele>
        <time>2021-05-29 08:10:42</time>
      </trkpt>
      <trkpt lat="42.91714" lon="-2.18601">
        <ele>544</ele>
        <time>2021-05-29 08:10:43</time>
      </trkpt>
      <trkpt lat="42.91717" lon="-2.18608">
        <ele>544</ele>
        <time>2021-05-29 08:10:44</time>
      </trkpt>
      <trkpt lat="42.9172" lon="-2.18616">
        <ele>544</ele>
        <time>2021-05-29 08:10:45</time>
      </trkpt>
      <trkpt lat="42.91723" lon="-2.18623">
        <ele>544</ele>
        <time>2021-05-29 08:10:46</time>
      </trkpt>
      <trkpt lat="42.91726" lon="-2.18631">
        <ele>544</ele>
        <time>2021-05-29 08:10:47</time>
      </trkpt>
      <trkpt lat="42.91729" lon="-2.18638">
        <ele>544</ele>
        <time>2021-05-29 08:10:48</time>
      </trkpt>
      <trkpt lat="42.91732" lon="-2.18646">
        <ele>544</ele>
        <time>2021-05-29 08:10:49</time>
      </trkpt>
      <trkpt lat="42.91735" lon="-2.18653">
        <ele>544</ele>
        <time>2021-05-29 08:10:50</time>
      </trkpt>
      <trkpt lat="42.91738" lon="-2.18661">
        <ele>544</ele>
        <time>2021-05-29 08:10:51</time>
      </trkpt>
      <trkpt lat="42.91741" lon="-2.18668">
        <ele>544</ele>
        <time>2021-05-29 08:10:52</time>
      </trkpt>
      <trkpt lat="42.91744" lon="-2.18676">
        <ele>544</ele>
        <time>2021-05-29 08:10:53</time>
      </trkpt>
      <trkpt lat="42.91748" lon="-2.18684">
        <ele>544</ele>
        <time>2021-05-29 08:10:54</time>
      </trkpt>
      <trkpt lat="42.91751" lon="-2.18691">
        <ele>544</ele>
        <time>2021-05-29 08:10:55</time>
      </trkpt>
      <trkpt lat="42.91754" lon="-2.18698">
        <ele>544</ele>
        <time>2021-05-29 08:10:56</time>
      </trkpt>
      <trkpt lat="42.91757" lon="-2.18706">
        <ele>544</ele>
        <time>2021-05-29 08:10:57</time>
      </trkpt>
      <trkpt lat="42.9176" lon="-2.18713">
        <ele>544</ele>
        <time>2021-05-29 08:10:58</time>
      </trkpt>
      <trkpt lat="42.91763" lon="-2.1872">
        <ele>544</ele>
        <time>2021-05-29 08:10:59</time>
      </trkpt>
      <trkpt lat="42.91766" lon="-2.18728">
        <ele>544.2</ele>
        <time>2021-05-29 08:11:00</time>
      </trkpt>
      <trkpt lat="42.91769" lon="-2.18735">
        <ele>544.2</ele>
        <time>2021-05-29 08:11:01</time>
      </trkpt>
      <trkpt lat="42.91772" lon="-2.18742">
        <ele>544.2</ele>
        <time>2021-05-29 08:11:02</time>
      </trkpt>
      <trkpt lat="42.91775" lon="-2.1875">
        <ele>544.2</ele>
        <time>2021-05-29 08:11:03</time>
      </trkpt>
      <trkpt lat="42.91778" lon="-2.18757">
        <ele>544.2</ele>
        <time>2021-05-29 08:11:04</time>
      </trkpt>
      <trkpt lat="42.91781" lon="-2.18764">
        <ele>544.2</ele>
        <time>2021-05-29 08:11:05</time>
      </trkpt>
      <trkpt lat="42.91784" lon="-2.18772">
        <ele>544.2</ele>
        <time>2021-05-29 08:11:06</time>
      </trkpt>
      <trkpt lat="42.91787" lon="-2.18779">
        <ele>544.2</ele>
        <time>2021-05-29 08:11:07</time>
      </trkpt>
      <trkpt lat="42.9179" lon="-2.18786">
        <ele>544.2</ele>
        <time>2021-05-29 08:11:08</time>
      </trkpt>
      <trkpt lat="42.91793" lon="-2.18794">
        <ele>544.2</ele>
        <time>2021-05-29 08:11:09</time>
      </trkpt>
      <trkpt lat="42.91797" lon="-2.18802">
        <ele>544.2</ele>
        <time>2021-05-29 08:11:10</time>
      </trkpt>
      <trkpt lat="42.918" lon="-2.1881">
        <ele>544.2</ele>
        <time>2021-05-29 08:11:11</time>
      </trkpt>
      <trkpt lat="42.91803" lon="-2.18818">
        <ele>544.2</ele>
        <time>2021-05-29 08:11:12</time>
      </trkpt>
      <trkpt lat="42.91806" lon="-2.18826">
        <ele>544.2</ele>
        <time>2021-05-29 08:11:13</time>
      </trkpt>
      <trkpt lat="42.9181" lon="-2.18834">
        <ele>544.2</ele>
        <time>2021-05-29 08:11:14</time>
      </trkpt>
      <trkpt lat="42.91813" lon="-2.18842">
        <ele>544.2</ele>
        <time>2021-05-29 08:11:15</time>
      </trkpt>
      <trkpt lat="42.91816" lon="-2.1885">
        <ele>544.2</ele>
        <time>2021-05-29 08:11:16</time>
      </trkpt>
      <trkpt lat="42.91819" lon="-2.18857">
        <ele>544.2</ele>
        <time>2021-05-29 08:11:17</time>
      </trkpt>
      <trkpt lat="42.91822" lon="-2.18865">
        <ele>544.2</ele>
        <time>2021-05-29 08:11:18</time>
      </trkpt>
      <trkpt lat="42.91825" lon="-2.18872">
        <ele>544.2</ele>
        <time>2021-05-29 08:11:19</time>
      </trkpt>
      <trkpt lat="42.91829" lon="-2.18881">
        <ele>544.2</ele>
        <time>2021-05-29 08:11:20</time>
      </trkpt>
      <trkpt lat="42.91831" lon="-2.18888">
        <ele>544.2</ele>
        <time>2021-05-29 08:11:21</time>
      </trkpt>
      <trkpt lat="42.91834" lon="-2.18895">
        <ele>544</ele>
        <time>2021-05-29 08:11:22</time>
      </trkpt>
      <trkpt lat="42.91837" lon="-2.18902">
        <ele>544</ele>
        <time>2021-05-29 08:11:23</time>
      </trkpt>
      <trkpt lat="42.9184" lon="-2.18909">
        <ele>544</ele>
        <time>2021-05-29 08:11:24</time>
      </trkpt>
      <trkpt lat="42.91843" lon="-2.18917">
        <ele>544.2</ele>
        <time>2021-05-29 08:11:25</time>
      </trkpt>
      <trkpt lat="42.91846" lon="-2.18923">
        <ele>544.2</ele>
        <time>2021-05-29 08:11:26</time>
      </trkpt>
      <trkpt lat="42.91849" lon="-2.1893">
        <ele>544.2</ele>
        <time>2021-05-29 08:11:27</time>
      </trkpt>
      <trkpt lat="42.91852" lon="-2.18937">
        <ele>544.2</ele>
        <time>2021-05-29 08:11:28</time>
      </trkpt>
      <trkpt lat="42.91855" lon="-2.18944">
        <ele>544.2</ele>
        <time>2021-05-29 08:11:29</time>
      </trkpt>
      <trkpt lat="42.91857" lon="-2.18951">
        <ele>544.2</ele>
        <time>2021-05-29 08:11:30</time>
      </trkpt>
      <trkpt lat="42.9186" lon="-2.18957">
        <ele>544.2</ele>
        <time>2021-05-29 08:11:31</time>
      </trkpt>
      <trkpt lat="42.91863" lon="-2.18964">
        <ele>544.2</ele>
        <time>2021-05-29 08:11:32</time>
      </trkpt>
      <trkpt lat="42.91866" lon="-2.1897">
        <ele>544.2</ele>
        <time>2021-05-29 08:11:33</time>
      </trkpt>
      <trkpt lat="42.91868" lon="-2.18977">
        <ele>544.2</ele>
        <time>2021-05-29 08:11:34</time>
      </trkpt>
      <trkpt lat="42.91871" lon="-2.18983">
        <ele>544.2</ele>
        <time>2021-05-29 08:11:35</time>
      </trkpt>
      <trkpt lat="42.91873" lon="-2.1899">
        <ele>544.2</ele>
        <time>2021-05-29 08:11:36</time>
      </trkpt>
      <trkpt lat="42.91876" lon="-2.18996">
        <ele>544.2</ele>
        <time>2021-05-29 08:11:37</time>
      </trkpt>
      <trkpt lat="42.91879" lon="-2.19002">
        <ele>544.2</ele>
        <time>2021-05-29 08:11:38</time>
      </trkpt>
      <trkpt lat="42.91881" lon="-2.19009">
        <ele>544.2</ele>
        <time>2021-05-29 08:11:39</time>
      </trkpt>
      <trkpt lat="42.91884" lon="-2.19015">
        <ele>544.2</ele>
        <time>2021-05-29 08:11:40</time>
      </trkpt>
      <trkpt lat="42.91887" lon="-2.19022">
        <ele>544.2</ele>
        <time>2021-05-29 08:11:41</time>
      </trkpt>
      <trkpt lat="42.91889" lon="-2.19029">
        <ele>544.2</ele>
        <time>2021-05-29 08:11:42</time>
      </trkpt>
      <trkpt lat="42.91892" lon="-2.19035">
        <ele>544.2</ele>
        <time>2021-05-29 08:11:43</time>
      </trkpt>
      <trkpt lat="42.91895" lon="-2.19042">
        <ele>544.4</ele>
        <time>2021-05-29 08:11:44</time>
      </trkpt>
      <trkpt lat="42.91897" lon="-2.19048">
        <ele>544.4</ele>
        <time>2021-05-29 08:11:45</time>
      </trkpt>
      <trkpt lat="42.919" lon="-2.19054">
        <ele>544.4</ele>
        <time>2021-05-29 08:11:46</time>
      </trkpt>
      <trkpt lat="42.91902" lon="-2.1906">
        <ele>544.4</ele>
        <time>2021-05-29 08:11:47</time>
      </trkpt>
      <trkpt lat="42.91905" lon="-2.19066">
        <ele>544.4</ele>
        <time>2021-05-29 08:11:48</time>
      </trkpt>
      <trkpt lat="42.91908" lon="-2.19073">
        <ele>544.2</ele>
        <time>2021-05-29 08:11:49</time>
      </trkpt>
      <trkpt lat="42.9191" lon="-2.19079">
        <ele>544.2</ele>
        <time>2021-05-29 08:11:50</time>
      </trkpt>
      <trkpt lat="42.91913" lon="-2.19085">
        <ele>544.4</ele>
        <time>2021-05-29 08:11:51</time>
      </trkpt>
      <trkpt lat="42.91915" lon="-2.19092">
        <ele>544.4</ele>
        <time>2021-05-29 08:11:52</time>
      </trkpt>
      <trkpt lat="42.91918" lon="-2.19098">
        <ele>544.4</ele>
        <time>2021-05-29 08:11:53</time>
      </trkpt>
      <trkpt lat="42.91921" lon="-2.19105">
        <ele>544.4</ele>
        <time>2021-05-29 08:11:54</time>
      </trkpt>
      <trkpt lat="42.91923" lon="-2.19111">
        <ele>544.4</ele>
        <time>2021-05-29 08:11:55</time>
      </trkpt>
      <trkpt lat="42.91926" lon="-2.19118">
        <ele>544.4</ele>
        <time>2021-05-29 08:11:56</time>
      </trkpt>
      <trkpt lat="42.91929" lon="-2.19125">
        <ele>544.4</ele>
        <time>2021-05-29 08:11:57</time>
      </trkpt>
      <trkpt lat="42.91931" lon="-2.19131">
        <ele>544.4</ele>
        <time>2021-05-29 08:11:58</time>
      </trkpt>
      <trkpt lat="42.91934" lon="-2.19138">
        <ele>544.4</ele>
        <time>2021-05-29 08:11:59</time>
      </trkpt>
      <trkpt lat="42.91937" lon="-2.19145">
        <ele>544.4</ele>
        <time>2021-05-29 08:12:00</time>
      </trkpt>
      <trkpt lat="42.91939" lon="-2.19151">
        <ele>544.4</ele>
        <time>2021-05-29 08:12:01</time>
      </trkpt>
      <trkpt lat="42.91942" lon="-2.19158">
        <ele>544.4</ele>
        <time>2021-05-29 08:12:02</time>
      </trkpt>
      <trkpt lat="42.91945" lon="-2.19165">
        <ele>544.4</ele>
        <time>2021-05-29 08:12:03</time>
      </trkpt>
      <trkpt lat="42.91948" lon="-2.19172">
        <ele>544.4</ele>
        <time>2021-05-29 08:12:04</time>
      </trkpt>
      <trkpt lat="42.91951" lon="-2.19179">
        <ele>544.4</ele>
        <time>2021-05-29 08:12:05</time>
      </trkpt>
      <trkpt lat="42.91953" lon="-2.19186">
        <ele>544.4</ele>
        <time>2021-05-29 08:12:06</time>
      </trkpt>
      <trkpt lat="42.91956" lon="-2.19192">
        <ele>544.4</ele>
        <time>2021-05-29 08:12:07</time>
      </trkpt>
      <trkpt lat="42.91959" lon="-2.19199">
        <ele>544.4</ele>
        <time>2021-05-29 08:12:08</time>
      </trkpt>
      <trkpt lat="42.91961" lon="-2.19205">
        <ele>544.4</ele>
        <time>2021-05-29 08:12:09</time>
      </trkpt>
      <trkpt lat="42.91964" lon="-2.19211">
        <ele>544.4</ele>
        <time>2021-05-29 08:12:10</time>
      </trkpt>
      <trkpt lat="42.91966" lon="-2.19217">
        <ele>544.4</ele>
        <time>2021-05-29 08:12:11</time>
      </trkpt>
      <trkpt lat="42.91969" lon="-2.19223">
        <ele>544.4</ele>
        <time>2021-05-29 08:12:12</time>
      </trkpt>
      <trkpt lat="42.91971" lon="-2.19229">
        <ele>544.4</ele>
        <time>2021-05-29 08:12:13</time>
      </trkpt>
      <trkpt lat="42.91974" lon="-2.19235">
        <ele>544.4</ele>
        <time>2021-05-29 08:12:14</time>
      </trkpt>
      <trkpt lat="42.91976" lon="-2.19241">
        <ele>544.4</ele>
        <time>2021-05-29 08:12:15</time>
      </trkpt>
      <trkpt lat="42.91979" lon="-2.19247">
        <ele>544.4</ele>
        <time>2021-05-29 08:12:16</time>
      </trkpt>
      <trkpt lat="42.91981" lon="-2.19253">
        <ele>544.4</ele>
        <time>2021-05-29 08:12:17</time>
      </trkpt>
      <trkpt lat="42.91984" lon="-2.19259">
        <ele>544.4</ele>
        <time>2021-05-29 08:12:18</time>
      </trkpt>
      <trkpt lat="42.91986" lon="-2.19265">
        <ele>544.2</ele>
        <time>2021-05-29 08:12:19</time>
      </trkpt>
      <trkpt lat="42.91989" lon="-2.19271">
        <ele>544.2</ele>
        <time>2021-05-29 08:12:20</time>
      </trkpt>
      <trkpt lat="42.91991" lon="-2.19277">
        <ele>544.2</ele>
        <time>2021-05-29 08:12:21</time>
      </trkpt>
      <trkpt lat="42.91993" lon="-2.19283">
        <ele>544.2</ele>
        <time>2021-05-29 08:12:22</time>
      </trkpt>
      <trkpt lat="42.91996" lon="-2.19288">
        <ele>544.4</ele>
        <time>2021-05-29 08:12:23</time>
      </trkpt>
      <trkpt lat="42.91998" lon="-2.19294">
        <ele>544.4</ele>
        <time>2021-05-29 08:12:24</time>
      </trkpt>
      <trkpt lat="42.92" lon="-2.193">
        <ele>544.4</ele>
        <time>2021-05-29 08:12:25</time>
      </trkpt>
      <trkpt lat="42.92003" lon="-2.19306">
        <ele>544.4</ele>
        <time>2021-05-29 08:12:26</time>
      </trkpt>
      <trkpt lat="42.92005" lon="-2.19312">
        <ele>544.4</ele>
        <time>2021-05-29 08:12:27</time>
      </trkpt>
      <trkpt lat="42.92008" lon="-2.19318">
        <ele>544.4</ele>
        <time>2021-05-29 08:12:28</time>
      </trkpt>
      <trkpt lat="42.9201" lon="-2.19324">
        <ele>544.4</ele>
        <time>2021-05-29 08:12:29</time>
      </trkpt>
      <trkpt lat="42.92013" lon="-2.1933">
        <ele>544.4</ele>
        <time>2021-05-29 08:12:30</time>
      </trkpt>
      <trkpt lat="42.92015" lon="-2.19337">
        <ele>544.6</ele>
        <time>2021-05-29 08:12:31</time>
      </trkpt>
      <trkpt lat="42.92018" lon="-2.19343">
        <ele>544.6</ele>
        <time>2021-05-29 08:12:32</time>
      </trkpt>
      <trkpt lat="42.92021" lon="-2.19349">
        <ele>544.6</ele>
        <time>2021-05-29 08:12:33</time>
      </trkpt>
      <trkpt lat="42.92023" lon="-2.19355">
        <ele>544.6</ele>
        <time>2021-05-29 08:12:34</time>
      </trkpt>
      <trkpt lat="42.92026" lon="-2.19362">
        <ele>544.6</ele>
        <time>2021-05-29 08:12:35</time>
      </trkpt>
      <trkpt lat="42.92028" lon="-2.19368">
        <ele>544.6</ele>
        <time>2021-05-29 08:12:36</time>
      </trkpt>
      <trkpt lat="42.92031" lon="-2.19374">
        <ele>544.6</ele>
        <time>2021-05-29 08:12:37</time>
      </trkpt>
      <trkpt lat="42.92033" lon="-2.1938">
        <ele>544.6</ele>
        <time>2021-05-29 08:12:38</time>
      </trkpt>
      <trkpt lat="42.92036" lon="-2.19387">
        <ele>544.6</ele>
        <time>2021-05-29 08:12:39</time>
      </trkpt>
      <trkpt lat="42.92038" lon="-2.19393">
        <ele>544.6</ele>
        <time>2021-05-29 08:12:40</time>
      </trkpt>
      <trkpt lat="42.92041" lon="-2.19399">
        <ele>544.6</ele>
        <time>2021-05-29 08:12:41</time>
      </trkpt>
      <trkpt lat="42.92043" lon="-2.19405">
        <ele>544.6</ele>
        <time>2021-05-29 08:12:42</time>
      </trkpt>
      <trkpt lat="42.92046" lon="-2.1941">
        <ele>544.6</ele>
        <time>2021-05-29 08:12:43</time>
      </trkpt>
      <trkpt lat="42.92048" lon="-2.19416">
        <ele>544.6</ele>
        <time>2021-05-29 08:12:44</time>
      </trkpt>
      <trkpt lat="42.9205" lon="-2.19422">
        <ele>544.6</ele>
        <time>2021-05-29 08:12:45</time>
      </trkpt>
      <trkpt lat="42.92053" lon="-2.19428">
        <ele>544.6</ele>
        <time>2021-05-29 08:12:46</time>
      </trkpt>
      <trkpt lat="42.92055" lon="-2.19434">
        <ele>544.4</ele>
        <time>2021-05-29 08:12:47</time>
      </trkpt>
      <trkpt lat="42.92058" lon="-2.19441">
        <ele>544.4</ele>
        <time>2021-05-29 08:12:48</time>
      </trkpt>
      <trkpt lat="42.92061" lon="-2.19447">
        <ele>544.4</ele>
        <time>2021-05-29 08:12:49</time>
      </trkpt>
      <trkpt lat="42.92063" lon="-2.19453">
        <ele>544.4</ele>
        <time>2021-05-29 08:12:50</time>
      </trkpt>
      <trkpt lat="42.92066" lon="-2.19459">
        <ele>544.4</ele>
        <time>2021-05-29 08:12:51</time>
      </trkpt>
      <trkpt lat="42.92068" lon="-2.19464">
        <ele>544.6</ele>
        <time>2021-05-29 08:12:52</time>
      </trkpt>
      <trkpt lat="42.9207" lon="-2.1947">
        <ele>544.6</ele>
        <time>2021-05-29 08:12:53</time>
      </trkpt>
      <trkpt lat="42.92073" lon="-2.19476">
        <ele>544.6</ele>
        <time>2021-05-29 08:12:54</time>
      </trkpt>
      <trkpt lat="42.92075" lon="-2.19482">
        <ele>544.6</ele>
        <time>2021-05-29 08:12:55</time>
      </trkpt>
      <trkpt lat="42.92078" lon="-2.19489">
        <ele>544.6</ele>
        <time>2021-05-29 08:12:56</time>
      </trkpt>
      <trkpt lat="42.9208" lon="-2.19495">
        <ele>544.6</ele>
        <time>2021-05-29 08:12:57</time>
      </trkpt>
      <trkpt lat="42.92083" lon="-2.19502">
        <ele>544.6</ele>
        <time>2021-05-29 08:12:58</time>
      </trkpt>
      <trkpt lat="42.92085" lon="-2.19508">
        <ele>544.6</ele>
        <time>2021-05-29 08:12:59</time>
      </trkpt>
      <trkpt lat="42.92088" lon="-2.19514">
        <ele>544.6</ele>
        <time>2021-05-29 08:13:00</time>
      </trkpt>
      <trkpt lat="42.92091" lon="-2.1952">
        <ele>544.4</ele>
        <time>2021-05-29 08:13:01</time>
      </trkpt>
      <trkpt lat="42.92093" lon="-2.19527">
        <ele>544.4</ele>
        <time>2021-05-29 08:13:02</time>
      </trkpt>
      <trkpt lat="42.92095" lon="-2.19532">
        <ele>544.4</ele>
        <time>2021-05-29 08:13:03</time>
      </trkpt>
      <trkpt lat="42.92098" lon="-2.19539">
        <ele>544.4</ele>
        <time>2021-05-29 08:13:04</time>
      </trkpt>
      <trkpt lat="42.921" lon="-2.19542">
        <ele>544.4</ele>
        <time>2021-05-29 08:13:05</time>
      </trkpt>
      <trkpt lat="42.92102" lon="-2.19547">
        <ele>544.4</ele>
        <time>2021-05-29 08:13:06</time>
      </trkpt>
      <trkpt lat="42.92104" lon="-2.19553">
        <ele>544.6</ele>
        <time>2021-05-29 08:13:07</time>
      </trkpt>
      <trkpt lat="42.92107" lon="-2.19558">
        <ele>544.6</ele>
        <time>2021-05-29 08:13:08</time>
      </trkpt>
      <trkpt lat="42.92109" lon="-2.19564">
        <ele>544.6</ele>
        <time>2021-05-29 08:13:09</time>
      </trkpt>
      <trkpt lat="42.92112" lon="-2.19569">
        <ele>544.6</ele>
        <time>2021-05-29 08:13:10</time>
      </trkpt>
      <trkpt lat="42.92114" lon="-2.19575">
        <ele>544.6</ele>
        <time>2021-05-29 08:13:11</time>
      </trkpt>
      <trkpt lat="42.92116" lon="-2.19581">
        <ele>544.6</ele>
        <time>2021-05-29 08:13:12</time>
      </trkpt>
      <trkpt lat="42.92118" lon="-2.19586">
        <ele>544.4</ele>
        <time>2021-05-29 08:13:13</time>
      </trkpt>
      <trkpt lat="42.92121" lon="-2.19592">
        <ele>544.4</ele>
        <time>2021-05-29 08:13:14</time>
      </trkpt>
      <trkpt lat="42.92123" lon="-2.19598">
        <ele>544.4</ele>
        <time>2021-05-29 08:13:15</time>
      </trkpt>
      <trkpt lat="42.92126" lon="-2.19604">
        <ele>544.4</ele>
        <time>2021-05-29 08:13:16</time>
      </trkpt>
      <trkpt lat="42.92128" lon="-2.19611">
        <ele>544.6</ele>
        <time>2021-05-29 08:13:17</time>
      </trkpt>
      <trkpt lat="42.92131" lon="-2.19617">
        <ele>544.4</ele>
        <time>2021-05-29 08:13:18</time>
      </trkpt>
      <trkpt lat="42.92133" lon="-2.19623">
        <ele>544.4</ele>
        <time>2021-05-29 08:13:19</time>
      </trkpt>
      <trkpt lat="42.92136" lon="-2.1963">
        <ele>544.4</ele>
        <time>2021-05-29 08:13:20</time>
      </trkpt>
      <trkpt lat="42.92138" lon="-2.19636">
        <ele>544.4</ele>
        <time>2021-05-29 08:13:21</time>
      </trkpt>
      <trkpt lat="42.92141" lon="-2.19643">
        <ele>544.4</ele>
        <time>2021-05-29 08:13:22</time>
      </trkpt>
      <trkpt lat="42.92144" lon="-2.1965">
        <ele>544.4</ele>
        <time>2021-05-29 08:13:23</time>
      </trkpt>
      <trkpt lat="42.92147" lon="-2.19657">
        <ele>544.4</ele>
        <time>2021-05-29 08:13:24</time>
      </trkpt>
      <trkpt lat="42.92149" lon="-2.19663">
        <ele>544.4</ele>
        <time>2021-05-29 08:13:25</time>
      </trkpt>
      <trkpt lat="42.92152" lon="-2.1967">
        <ele>544.2</ele>
        <time>2021-05-29 08:13:26</time>
      </trkpt>
      <trkpt lat="42.92154" lon="-2.19677">
        <ele>544</ele>
        <time>2021-05-29 08:13:27</time>
      </trkpt>
      <trkpt lat="42.92157" lon="-2.19683">
        <ele>544</ele>
        <time>2021-05-29 08:13:28</time>
      </trkpt>
      <trkpt lat="42.9216" lon="-2.19691">
        <ele>544</ele>
        <time>2021-05-29 08:13:29</time>
      </trkpt>
      <trkpt lat="42.92162" lon="-2.19698">
        <ele>544</ele>
        <time>2021-05-29 08:13:30</time>
      </trkpt>
      <trkpt lat="42.92165" lon="-2.19705">
        <ele>544.2</ele>
        <time>2021-05-29 08:13:31</time>
      </trkpt>
      <trkpt lat="42.92167" lon="-2.19712">
        <ele>544.2</ele>
        <time>2021-05-29 08:13:32</time>
      </trkpt>
      <trkpt lat="42.9217" lon="-2.19719">
        <ele>544.2</ele>
        <time>2021-05-29 08:13:33</time>
      </trkpt>
      <trkpt lat="42.92172" lon="-2.19726">
        <ele>544.2</ele>
        <time>2021-05-29 08:13:34</time>
      </trkpt>
      <trkpt lat="42.92175" lon="-2.19733">
        <ele>544.2</ele>
        <time>2021-05-29 08:13:35</time>
      </trkpt>
      <trkpt lat="42.92178" lon="-2.1974">
        <ele>544.2</ele>
        <time>2021-05-29 08:13:36</time>
      </trkpt>
      <trkpt lat="42.9218" lon="-2.19747">
        <ele>544.2</ele>
        <time>2021-05-29 08:13:37</time>
      </trkpt>
      <trkpt lat="42.92183" lon="-2.19755">
        <ele>544.2</ele>
        <time>2021-05-29 08:13:38</time>
      </trkpt>
      <trkpt lat="42.92185" lon="-2.19763">
        <ele>544.2</ele>
        <time>2021-05-29 08:13:39</time>
      </trkpt>
      <trkpt lat="42.92188" lon="-2.1977">
        <ele>544.2</ele>
        <time>2021-05-29 08:13:40</time>
      </trkpt>
      <trkpt lat="42.9219" lon="-2.19778">
        <ele>544.2</ele>
        <time>2021-05-29 08:13:41</time>
      </trkpt>
      <trkpt lat="42.92193" lon="-2.19785">
        <ele>544.2</ele>
        <time>2021-05-29 08:13:42</time>
      </trkpt>
      <trkpt lat="42.92195" lon="-2.19793">
        <ele>544.2</ele>
        <time>2021-05-29 08:13:43</time>
      </trkpt>
      <trkpt lat="42.92197" lon="-2.19801">
        <ele>544.2</ele>
        <time>2021-05-29 08:13:44</time>
      </trkpt>
      <trkpt lat="42.922" lon="-2.19808">
        <ele>544.4</ele>
        <time>2021-05-29 08:13:45</time>
      </trkpt>
      <trkpt lat="42.92202" lon="-2.19816">
        <ele>544.4</ele>
        <time>2021-05-29 08:13:46</time>
      </trkpt>
      <trkpt lat="42.92205" lon="-2.19825">
        <ele>544.4</ele>
        <time>2021-05-29 08:13:47</time>
      </trkpt>
      <trkpt lat="42.92207" lon="-2.19833">
        <ele>544.4</ele>
        <time>2021-05-29 08:13:48</time>
      </trkpt>
      <trkpt lat="42.9221" lon="-2.19841">
        <ele>544.2</ele>
        <time>2021-05-29 08:13:49</time>
      </trkpt>
      <trkpt lat="42.92212" lon="-2.1985">
        <ele>544.2</ele>
        <time>2021-05-29 08:13:50</time>
      </trkpt>
      <trkpt lat="42.92215" lon="-2.19858">
        <ele>544.2</ele>
        <time>2021-05-29 08:13:51</time>
      </trkpt>
      <trkpt lat="42.92217" lon="-2.19867">
        <ele>544.4</ele>
        <time>2021-05-29 08:13:52</time>
      </trkpt>
      <trkpt lat="42.9222" lon="-2.19876">
        <ele>544.4</ele>
        <time>2021-05-29 08:13:53</time>
      </trkpt>
      <trkpt lat="42.92222" lon="-2.19884">
        <ele>544.4</ele>
        <time>2021-05-29 08:13:54</time>
      </trkpt>
      <trkpt lat="42.92225" lon="-2.19892">
        <ele>544.4</ele>
        <time>2021-05-29 08:13:55</time>
      </trkpt>
      <trkpt lat="42.92227" lon="-2.19901">
        <ele>544.4</ele>
        <time>2021-05-29 08:13:56</time>
      </trkpt>
      <trkpt lat="42.9223" lon="-2.1991">
        <ele>544.4</ele>
        <time>2021-05-29 08:13:57</time>
      </trkpt>
      <trkpt lat="42.92232" lon="-2.19919">
        <ele>544.2</ele>
        <time>2021-05-29 08:13:58</time>
      </trkpt>
      <trkpt lat="42.92235" lon="-2.19928">
        <ele>544.2</ele>
        <time>2021-05-29 08:13:59</time>
      </trkpt>
      <trkpt lat="42.92237" lon="-2.19937">
        <ele>544.2</ele>
        <time>2021-05-29 08:14:00</time>
      </trkpt>
      <trkpt lat="42.9224" lon="-2.19946">
        <ele>544.2</ele>
        <time>2021-05-29 08:14:01</time>
      </trkpt>
      <trkpt lat="42.92242" lon="-2.19955">
        <ele>544.2</ele>
        <time>2021-05-29 08:14:02</time>
      </trkpt>
      <trkpt lat="42.92245" lon="-2.19964">
        <ele>544.2</ele>
        <time>2021-05-29 08:14:03</time>
      </trkpt>
      <trkpt lat="42.92247" lon="-2.19973">
        <ele>544.2</ele>
        <time>2021-05-29 08:14:04</time>
      </trkpt>
      <trkpt lat="42.9225" lon="-2.19982">
        <ele>544.2</ele>
        <time>2021-05-29 08:14:05</time>
      </trkpt>
      <trkpt lat="42.92253" lon="-2.19991">
        <ele>544.2</ele>
        <time>2021-05-29 08:14:06</time>
      </trkpt>
      <trkpt lat="42.92255" lon="-2.2">
        <ele>544.2</ele>
        <time>2021-05-29 08:14:07</time>
      </trkpt>
      <trkpt lat="42.92258" lon="-2.20009">
        <ele>544.4</ele>
        <time>2021-05-29 08:14:08</time>
      </trkpt>
      <trkpt lat="42.9226" lon="-2.20018">
        <ele>544.2</ele>
        <time>2021-05-29 08:14:09</time>
      </trkpt>
      <trkpt lat="42.92263" lon="-2.20027">
        <ele>544.2</ele>
        <time>2021-05-29 08:14:10</time>
      </trkpt>
      <trkpt lat="42.92265" lon="-2.20035">
        <ele>544.2</ele>
        <time>2021-05-29 08:14:11</time>
      </trkpt>
      <trkpt lat="42.92268" lon="-2.20044">
        <ele>544.2</ele>
        <time>2021-05-29 08:14:12</time>
      </trkpt>
      <trkpt lat="42.9227" lon="-2.20052">
        <ele>544.2</ele>
        <time>2021-05-29 08:14:13</time>
      </trkpt>
      <trkpt lat="42.92273" lon="-2.20061">
        <ele>544.2</ele>
        <time>2021-05-29 08:14:14</time>
      </trkpt>
      <trkpt lat="42.92275" lon="-2.2007">
        <ele>544.4</ele>
        <time>2021-05-29 08:14:15</time>
      </trkpt>
      <trkpt lat="42.92278" lon="-2.20078">
        <ele>544.4</ele>
        <time>2021-05-29 08:14:16</time>
      </trkpt>
      <trkpt lat="42.9228" lon="-2.20087">
        <ele>544.4</ele>
        <time>2021-05-29 08:14:17</time>
      </trkpt>
      <trkpt lat="42.92283" lon="-2.20096">
        <ele>544.4</ele>
        <time>2021-05-29 08:14:18</time>
      </trkpt>
      <trkpt lat="42.92285" lon="-2.20105">
        <ele>544.4</ele>
        <time>2021-05-29 08:14:19</time>
      </trkpt>
      <trkpt lat="42.92288" lon="-2.20114">
        <ele>544.4</ele>
        <time>2021-05-29 08:14:20</time>
      </trkpt>
      <trkpt lat="42.9229" lon="-2.20124">
        <ele>544.4</ele>
        <time>2021-05-29 08:14:21</time>
      </trkpt>
      <trkpt lat="42.92293" lon="-2.20133">
        <ele>544.4</ele>
        <time>2021-05-29 08:14:22</time>
      </trkpt>
      <trkpt lat="42.92296" lon="-2.20143">
        <ele>544.6</ele>
        <time>2021-05-29 08:14:23</time>
      </trkpt>
      <trkpt lat="42.92299" lon="-2.20153">
        <ele>544.6</ele>
        <time>2021-05-29 08:14:24</time>
      </trkpt>
      <trkpt lat="42.92302" lon="-2.20163">
        <ele>544.4</ele>
        <time>2021-05-29 08:14:25</time>
      </trkpt>
      <trkpt lat="42.92304" lon="-2.20173">
        <ele>544.4</ele>
        <time>2021-05-29 08:14:26</time>
      </trkpt>
      <trkpt lat="42.92307" lon="-2.20184">
        <ele>544.6</ele>
        <time>2021-05-29 08:14:27</time>
      </trkpt>
      <trkpt lat="42.9231" lon="-2.20194">
        <ele>544.6</ele>
        <time>2021-05-29 08:14:28</time>
      </trkpt>
      <trkpt lat="42.92313" lon="-2.20205">
        <ele>544.8</ele>
        <time>2021-05-29 08:14:29</time>
      </trkpt>
      <trkpt lat="42.92316" lon="-2.20216">
        <ele>544.8</ele>
        <time>2021-05-29 08:14:30</time>
      </trkpt>
      <trkpt lat="42.92319" lon="-2.20227">
        <ele>544.8</ele>
        <time>2021-05-29 08:14:31</time>
      </trkpt>
      <trkpt lat="42.92323" lon="-2.20238">
        <ele>544.8</ele>
        <time>2021-05-29 08:14:32</time>
      </trkpt>
      <trkpt lat="42.92326" lon="-2.20249">
        <ele>544.8</ele>
        <time>2021-05-29 08:14:33</time>
      </trkpt>
      <trkpt lat="42.92329" lon="-2.20261">
        <ele>544.8</ele>
        <time>2021-05-29 08:14:34</time>
      </trkpt>
      <trkpt lat="42.92333" lon="-2.20273">
        <ele>545</ele>
        <time>2021-05-29 08:14:35</time>
      </trkpt>
      <trkpt lat="42.92336" lon="-2.20285">
        <ele>544.8</ele>
        <time>2021-05-29 08:14:36</time>
      </trkpt>
      <trkpt lat="42.9234" lon="-2.20296">
        <ele>544.8</ele>
        <time>2021-05-29 08:14:37</time>
      </trkpt>
      <trkpt lat="42.92343" lon="-2.20308">
        <ele>544.8</ele>
        <time>2021-05-29 08:14:38</time>
      </trkpt>
      <trkpt lat="42.92346" lon="-2.20321">
        <ele>544.8</ele>
        <time>2021-05-29 08:14:39</time>
      </trkpt>
      <trkpt lat="42.9235" lon="-2.20333">
        <ele>544.8</ele>
        <time>2021-05-29 08:14:40</time>
      </trkpt>
      <trkpt lat="42.92353" lon="-2.20345">
        <ele>544.8</ele>
        <time>2021-05-29 08:14:41</time>
      </trkpt>
      <trkpt lat="42.92357" lon="-2.20357">
        <ele>544.8</ele>
        <time>2021-05-29 08:14:42</time>
      </trkpt>
      <trkpt lat="42.9236" lon="-2.20369">
        <ele>544.8</ele>
        <time>2021-05-29 08:14:43</time>
      </trkpt>
      <trkpt lat="42.92364" lon="-2.20382">
        <ele>544.8</ele>
        <time>2021-05-29 08:14:44</time>
      </trkpt>
      <trkpt lat="42.92368" lon="-2.20394">
        <ele>544.8</ele>
        <time>2021-05-29 08:14:45</time>
      </trkpt>
      <trkpt lat="42.92371" lon="-2.20406">
        <ele>544.8</ele>
        <time>2021-05-29 08:14:46</time>
      </trkpt>
      <trkpt lat="42.92375" lon="-2.20418">
        <ele>544.8</ele>
        <time>2021-05-29 08:14:47</time>
      </trkpt>
      <trkpt lat="42.92378" lon="-2.2043">
        <ele>545</ele>
        <time>2021-05-29 08:14:48</time>
      </trkpt>
      <trkpt lat="42.92381" lon="-2.20442">
        <ele>545</ele>
        <time>2021-05-29 08:14:49</time>
      </trkpt>
      <trkpt lat="42.92385" lon="-2.20454">
        <ele>545</ele>
        <time>2021-05-29 08:14:50</time>
      </trkpt>
      <trkpt lat="42.92388" lon="-2.20466">
        <ele>545</ele>
        <time>2021-05-29 08:14:51</time>
      </trkpt>
      <trkpt lat="42.92392" lon="-2.20478">
        <ele>545</ele>
        <time>2021-05-29 08:14:52</time>
      </trkpt>
      <trkpt lat="42.92395" lon="-2.20489">
        <ele>545</ele>
        <time>2021-05-29 08:14:53</time>
      </trkpt>
      <trkpt lat="42.92398" lon="-2.20501">
        <ele>544.8</ele>
        <time>2021-05-29 08:14:54</time>
      </trkpt>
      <trkpt lat="42.92402" lon="-2.20512">
        <ele>544.8</ele>
        <time>2021-05-29 08:14:55</time>
      </trkpt>
      <trkpt lat="42.92405" lon="-2.20523">
        <ele>544.8</ele>
        <time>2021-05-29 08:14:56</time>
      </trkpt>
      <trkpt lat="42.92408" lon="-2.20534">
        <ele>545</ele>
        <time>2021-05-29 08:14:57</time>
      </trkpt>
      <trkpt lat="42.92411" lon="-2.20545">
        <ele>545</ele>
        <time>2021-05-29 08:14:58</time>
      </trkpt>
      <trkpt lat="42.92414" lon="-2.20555">
        <ele>545</ele>
        <time>2021-05-29 08:14:59</time>
      </trkpt>
      <trkpt lat="42.92417" lon="-2.20565">
        <ele>545</ele>
        <time>2021-05-29 08:15:00</time>
      </trkpt>
      <trkpt lat="42.9242" lon="-2.20576">
        <ele>545.2</ele>
        <time>2021-05-29 08:15:01</time>
      </trkpt>
      <trkpt lat="42.92423" lon="-2.20586">
        <ele>545.2</ele>
        <time>2021-05-29 08:15:02</time>
      </trkpt>
      <trkpt lat="42.92426" lon="-2.20596">
        <ele>545.2</ele>
        <time>2021-05-29 08:15:03</time>
      </trkpt>
      <trkpt lat="42.92429" lon="-2.20606">
        <ele>545</ele>
        <time>2021-05-29 08:15:04</time>
      </trkpt>
      <trkpt lat="42.92432" lon="-2.20616">
        <ele>545.2</ele>
        <time>2021-05-29 08:15:05</time>
      </trkpt>
      <trkpt lat="42.92434" lon="-2.20625">
        <ele>545.2</ele>
        <time>2021-05-29 08:15:06</time>
      </trkpt>
      <trkpt lat="42.92437" lon="-2.20635">
        <ele>545</ele>
        <time>2021-05-29 08:15:07</time>
      </trkpt>
      <trkpt lat="42.9244" lon="-2.20645">
        <ele>545.2</ele>
        <time>2021-05-29 08:15:08</time>
      </trkpt>
      <trkpt lat="42.92443" lon="-2.20655">
        <ele>545.2</ele>
        <time>2021-05-29 08:15:09</time>
      </trkpt>
      <trkpt lat="42.92446" lon="-2.20665">
        <ele>545.2</ele>
        <time>2021-05-29 08:15:10</time>
      </trkpt>
      <trkpt lat="42.92448" lon="-2.20674">
        <ele>545.2</ele>
        <time>2021-05-29 08:15:11</time>
      </trkpt>
      <trkpt lat="42.92451" lon="-2.20683">
        <ele>545.2</ele>
        <time>2021-05-29 08:15:12</time>
      </trkpt>
      <trkpt lat="42.92453" lon="-2.20692">
        <ele>545.2</ele>
        <time>2021-05-29 08:15:13</time>
      </trkpt>
      <trkpt lat="42.92455" lon="-2.20701">
        <ele>545.4</ele>
        <time>2021-05-29 08:15:14</time>
      </trkpt>
      <trkpt lat="42.92457" lon="-2.20709">
        <ele>545.4</ele>
        <time>2021-05-29 08:15:15</time>
      </trkpt>
      <trkpt lat="42.9246" lon="-2.20718">
        <ele>545.4</ele>
        <time>2021-05-29 08:15:16</time>
      </trkpt>
      <trkpt lat="42.92462" lon="-2.20726">
        <ele>545.4</ele>
        <time>2021-05-29 08:15:17</time>
      </trkpt>
      <trkpt lat="42.92464" lon="-2.20735">
        <ele>545.6</ele>
        <time>2021-05-29 08:15:18</time>
      </trkpt>
      <trkpt lat="42.92467" lon="-2.20743">
        <ele>545.6</ele>
        <time>2021-05-29 08:15:19</time>
      </trkpt>
      <trkpt lat="42.92469" lon="-2.20752">
        <ele>545.6</ele>
        <time>2021-05-29 08:15:20</time>
      </trkpt>
      <trkpt lat="42.92472" lon="-2.2076">
        <ele>545.6</ele>
        <time>2021-05-29 08:15:21</time>
      </trkpt>
      <trkpt lat="42.92474" lon="-2.20769">
        <ele>545.6</ele>
        <time>2021-05-29 08:15:22</time>
      </trkpt>
      <trkpt lat="42.92477" lon="-2.20778">
        <ele>545.6</ele>
        <time>2021-05-29 08:15:23</time>
      </trkpt>
      <trkpt lat="42.9248" lon="-2.20787">
        <ele>545.6</ele>
        <time>2021-05-29 08:15:24</time>
      </trkpt>
      <trkpt lat="42.92482" lon="-2.20796">
        <ele>545.6</ele>
        <time>2021-05-29 08:15:25</time>
      </trkpt>
      <trkpt lat="42.92485" lon="-2.20805">
        <ele>545.6</ele>
        <time>2021-05-29 08:15:26</time>
      </trkpt>
      <trkpt lat="42.92488" lon="-2.20815">
        <ele>545.6</ele>
        <time>2021-05-29 08:15:27</time>
      </trkpt>
      <trkpt lat="42.92491" lon="-2.20824">
        <ele>545.8</ele>
        <time>2021-05-29 08:15:28</time>
      </trkpt>
      <trkpt lat="42.92493" lon="-2.20833">
        <ele>545.8</ele>
        <time>2021-05-29 08:15:29</time>
      </trkpt>
      <trkpt lat="42.92496" lon="-2.20842">
        <ele>545.8</ele>
        <time>2021-05-29 08:15:30</time>
      </trkpt>
      <trkpt lat="42.92498" lon="-2.20851">
        <ele>545.8</ele>
        <time>2021-05-29 08:15:31</time>
      </trkpt>
      <trkpt lat="42.92501" lon="-2.2086">
        <ele>545.8</ele>
        <time>2021-05-29 08:15:32</time>
      </trkpt>
      <trkpt lat="42.92504" lon="-2.2087">
        <ele>546</ele>
        <time>2021-05-29 08:15:33</time>
      </trkpt>
      <trkpt lat="42.92506" lon="-2.20879">
        <ele>546.2</ele>
        <time>2021-05-29 08:15:34</time>
      </trkpt>
      <trkpt lat="42.92509" lon="-2.20888">
        <ele>546.2</ele>
        <time>2021-05-29 08:15:35</time>
      </trkpt>
      <trkpt lat="42.92512" lon="-2.20897">
        <ele>546</ele>
        <time>2021-05-29 08:15:36</time>
      </trkpt>
      <trkpt lat="42.92514" lon="-2.20906">
        <ele>546.2</ele>
        <time>2021-05-29 08:15:37</time>
      </trkpt>
      <trkpt lat="42.92517" lon="-2.20915">
        <ele>546.2</ele>
        <time>2021-05-29 08:15:38</time>
      </trkpt>
      <trkpt lat="42.92519" lon="-2.20923">
        <ele>546.4</ele>
        <time>2021-05-29 08:15:39</time>
      </trkpt>
      <trkpt lat="42.92522" lon="-2.20932">
        <ele>546.4</ele>
        <time>2021-05-29 08:15:40</time>
      </trkpt>
      <trkpt lat="42.92524" lon="-2.2094">
        <ele>546.4</ele>
        <time>2021-05-29 08:15:41</time>
      </trkpt>
      <trkpt lat="42.92527" lon="-2.20948">
        <ele>546.6</ele>
        <time>2021-05-29 08:15:42</time>
      </trkpt>
      <trkpt lat="42.92529" lon="-2.20956">
        <ele>546.6</ele>
        <time>2021-05-29 08:15:43</time>
      </trkpt>
      <trkpt lat="42.92531" lon="-2.20964">
        <ele>546.8</ele>
        <time>2021-05-29 08:15:44</time>
      </trkpt>
      <trkpt lat="42.92534" lon="-2.20972">
        <ele>547</ele>
        <time>2021-05-29 08:15:45</time>
      </trkpt>
      <trkpt lat="42.92536" lon="-2.2098">
        <ele>547</ele>
        <time>2021-05-29 08:15:46</time>
      </trkpt>
      <trkpt lat="42.92539" lon="-2.20988">
        <ele>547.2</ele>
        <time>2021-05-29 08:15:47</time>
      </trkpt>
      <trkpt lat="42.92542" lon="-2.20997">
        <ele>547.2</ele>
        <time>2021-05-29 08:15:48</time>
      </trkpt>
      <trkpt lat="42.92544" lon="-2.21005">
        <ele>547.2</ele>
        <time>2021-05-29 08:15:49</time>
      </trkpt>
      <trkpt lat="42.92547" lon="-2.21013">
        <ele>547.2</ele>
        <time>2021-05-29 08:15:50</time>
      </trkpt>
      <trkpt lat="42.9255" lon="-2.21021">
        <ele>547.2</ele>
        <time>2021-05-29 08:15:51</time>
      </trkpt>
      <trkpt lat="42.92553" lon="-2.21029">
        <ele>547.4</ele>
        <time>2021-05-29 08:15:52</time>
      </trkpt>
      <trkpt lat="42.92556" lon="-2.21038">
        <ele>547.4</ele>
        <time>2021-05-29 08:15:53</time>
      </trkpt>
      <trkpt lat="42.92559" lon="-2.21046">
        <ele>547.2</ele>
        <time>2021-05-29 08:15:54</time>
      </trkpt>
      <trkpt lat="42.92562" lon="-2.21053">
        <ele>547.4</ele>
        <time>2021-05-29 08:15:55</time>
      </trkpt>
      <trkpt lat="42.92565" lon="-2.21061">
        <ele>547.4</ele>
        <time>2021-05-29 08:15:56</time>
      </trkpt>
      <trkpt lat="42.92569" lon="-2.21069">
        <ele>547.4</ele>
        <time>2021-05-29 08:15:57</time>
      </trkpt>
      <trkpt lat="42.92572" lon="-2.21077">
        <ele>547.4</ele>
        <time>2021-05-29 08:15:58</time>
      </trkpt>
      <trkpt lat="42.92575" lon="-2.21084">
        <ele>547.6</ele>
        <time>2021-05-29 08:15:59</time>
      </trkpt>
      <trkpt lat="42.92578" lon="-2.21092">
        <ele>547.6</ele>
        <time>2021-05-29 08:16:00</time>
      </trkpt>
      <trkpt lat="42.92581" lon="-2.21099">
        <ele>547.6</ele>
        <time>2021-05-29 08:16:01</time>
      </trkpt>
      <trkpt lat="42.92584" lon="-2.21107">
        <ele>547.6</ele>
        <time>2021-05-29 08:16:02</time>
      </trkpt>
      <trkpt lat="42.92587" lon="-2.21114">
        <ele>547.8</ele>
        <time>2021-05-29 08:16:03</time>
      </trkpt>
      <trkpt lat="42.9259" lon="-2.21122">
        <ele>547.8</ele>
        <time>2021-05-29 08:16:04</time>
      </trkpt>
      <trkpt lat="42.92593" lon="-2.2113">
        <ele>548</ele>
        <time>2021-05-29 08:16:05</time>
      </trkpt>
      <trkpt lat="42.92596" lon="-2.21138">
        <ele>547.8</ele>
        <time>2021-05-29 08:16:06</time>
      </trkpt>
      <trkpt lat="42.92599" lon="-2.21146">
        <ele>547.8</ele>
        <time>2021-05-29 08:16:07</time>
      </trkpt>
      <trkpt lat="42.92601" lon="-2.21154">
        <ele>548</ele>
        <time>2021-05-29 08:16:08</time>
      </trkpt>
      <trkpt lat="42.92604" lon="-2.21162">
        <ele>548</ele>
        <time>2021-05-29 08:16:09</time>
      </trkpt>
      <trkpt lat="42.92607" lon="-2.21171">
        <ele>548</ele>
        <time>2021-05-29 08:16:10</time>
      </trkpt>
      <trkpt lat="42.92609" lon="-2.2118">
        <ele>548.2</ele>
        <time>2021-05-29 08:16:11</time>
      </trkpt>
      <trkpt lat="42.92612" lon="-2.21188">
        <ele>548.2</ele>
        <time>2021-05-29 08:16:12</time>
      </trkpt>
      <trkpt lat="42.92615" lon="-2.21196">
        <ele>548.2</ele>
        <time>2021-05-29 08:16:13</time>
      </trkpt>
      <trkpt lat="42.92618" lon="-2.21205">
        <ele>548.2</ele>
        <time>2021-05-29 08:16:14</time>
      </trkpt>
      <trkpt lat="42.9262" lon="-2.21213">
        <ele>548.2</ele>
        <time>2021-05-29 08:16:15</time>
      </trkpt>
      <trkpt lat="42.92622" lon="-2.21221">
        <ele>548.4</ele>
        <time>2021-05-29 08:16:16</time>
      </trkpt>
      <trkpt lat="42.92625" lon="-2.21229">
        <ele>548.4</ele>
        <time>2021-05-29 08:16:17</time>
      </trkpt>
      <trkpt lat="42.92627" lon="-2.21237">
        <ele>548.6</ele>
        <time>2021-05-29 08:16:18</time>
      </trkpt>
      <trkpt lat="42.9263" lon="-2.21244">
        <ele>548.8</ele>
        <time>2021-05-29 08:16:19</time>
      </trkpt>
      <trkpt lat="42.92632" lon="-2.21252">
        <ele>549</ele>
        <time>2021-05-29 08:16:20</time>
      </trkpt>
      <trkpt lat="42.92635" lon="-2.2126">
        <ele>549</ele>
        <time>2021-05-29 08:16:21</time>
      </trkpt>
      <trkpt lat="42.92637" lon="-2.21268">
        <ele>549</ele>
        <time>2021-05-29 08:16:22</time>
      </trkpt>
      <trkpt lat="42.92639" lon="-2.21275">
        <ele>549</ele>
        <time>2021-05-29 08:16:23</time>
      </trkpt>
      <trkpt lat="42.92641" lon="-2.21283">
        <ele>549</ele>
        <time>2021-05-29 08:16:24</time>
      </trkpt>
      <trkpt lat="42.92643" lon="-2.21291">
        <ele>549</ele>
        <time>2021-05-29 08:16:25</time>
      </trkpt>
      <trkpt lat="42.92645" lon="-2.21299">
        <ele>549</ele>
        <time>2021-05-29 08:16:26</time>
      </trkpt>
      <trkpt lat="42.92647" lon="-2.21307">
        <ele>549</ele>
        <time>2021-05-29 08:16:27</time>
      </trkpt>
      <trkpt lat="42.92649" lon="-2.21315">
        <ele>549</ele>
        <time>2021-05-29 08:16:28</time>
      </trkpt>
      <trkpt lat="42.9265" lon="-2.21323">
        <ele>549</ele>
        <time>2021-05-29 08:16:29</time>
      </trkpt>
      <trkpt lat="42.92652" lon="-2.2133">
        <ele>549</ele>
        <time>2021-05-29 08:16:30</time>
      </trkpt>
      <trkpt lat="42.92653" lon="-2.21338">
        <ele>549.2</ele>
        <time>2021-05-29 08:16:31</time>
      </trkpt>
      <trkpt lat="42.92654" lon="-2.21346">
        <ele>549.2</ele>
        <time>2021-05-29 08:16:32</time>
      </trkpt>
      <trkpt lat="42.92655" lon="-2.21354">
        <ele>549.2</ele>
        <time>2021-05-29 08:16:33</time>
      </trkpt>
      <trkpt lat="42.92655" lon="-2.21362">
        <ele>549.2</ele>
        <time>2021-05-29 08:16:34</time>
      </trkpt>
      <trkpt lat="42.92656" lon="-2.2137">
        <ele>549.2</ele>
        <time>2021-05-29 08:16:35</time>
      </trkpt>
      <trkpt lat="42.92657" lon="-2.21379">
        <ele>549.4</ele>
        <time>2021-05-29 08:16:36</time>
      </trkpt>
      <trkpt lat="42.92658" lon="-2.21387">
        <ele>549.4</ele>
        <time>2021-05-29 08:16:37</time>
      </trkpt>
      <trkpt lat="42.92658" lon="-2.21395">
        <ele>549.2</ele>
        <time>2021-05-29 08:16:38</time>
      </trkpt>
      <trkpt lat="42.92659" lon="-2.21403">
        <ele>549.4</ele>
        <time>2021-05-29 08:16:39</time>
      </trkpt>
      <trkpt lat="42.92659" lon="-2.21411">
        <ele>549.6</ele>
        <time>2021-05-29 08:16:40</time>
      </trkpt>
      <trkpt lat="42.9266" lon="-2.2142">
        <ele>549.6</ele>
        <time>2021-05-29 08:16:41</time>
      </trkpt>
      <trkpt lat="42.9266" lon="-2.21428">
        <ele>549.4</ele>
        <time>2021-05-29 08:16:42</time>
      </trkpt>
      <trkpt lat="42.92661" lon="-2.21436">
        <ele>549.6</ele>
        <time>2021-05-29 08:16:43</time>
      </trkpt>
      <trkpt lat="42.92661" lon="-2.21444">
        <ele>549.8</ele>
        <time>2021-05-29 08:16:44</time>
      </trkpt>
      <trkpt lat="42.92662" lon="-2.21452">
        <ele>549.8</ele>
        <time>2021-05-29 08:16:45</time>
      </trkpt>
      <trkpt lat="42.92663" lon="-2.2146">
        <ele>549.8</ele>
        <time>2021-05-29 08:16:46</time>
      </trkpt>
      <trkpt lat="42.92663" lon="-2.21468">
        <ele>550</ele>
        <time>2021-05-29 08:16:47</time>
      </trkpt>
      <trkpt lat="42.92664" lon="-2.21477">
        <ele>549.8</ele>
        <time>2021-05-29 08:16:48</time>
      </trkpt>
      <trkpt lat="42.92664" lon="-2.21485">
        <ele>550</ele>
        <time>2021-05-29 08:16:49</time>
      </trkpt>
      <trkpt lat="42.92665" lon="-2.21493">
        <ele>550</ele>
        <time>2021-05-29 08:16:50</time>
      </trkpt>
      <trkpt lat="42.92666" lon="-2.21501">
        <ele>550</ele>
        <time>2021-05-29 08:16:51</time>
      </trkpt>
      <trkpt lat="42.92666" lon="-2.21509">
        <ele>550</ele>
        <time>2021-05-29 08:16:52</time>
      </trkpt>
      <trkpt lat="42.92667" lon="-2.21517">
        <ele>550</ele>
        <time>2021-05-29 08:16:53</time>
      </trkpt>
      <trkpt lat="42.92667" lon="-2.21525">
        <ele>550.4</ele>
        <time>2021-05-29 08:16:54</time>
      </trkpt>
      <trkpt lat="42.92667" lon="-2.21533">
        <ele>550.4</ele>
        <time>2021-05-29 08:16:55</time>
      </trkpt>
      <trkpt lat="42.92668" lon="-2.21542">
        <ele>550.4</ele>
        <time>2021-05-29 08:16:56</time>
      </trkpt>
      <trkpt lat="42.92668" lon="-2.2155">
        <ele>550.4</ele>
        <time>2021-05-29 08:16:57</time>
      </trkpt>
      <trkpt lat="42.92668" lon="-2.21558">
        <ele>550.4</ele>
        <time>2021-05-29 08:16:58</time>
      </trkpt>
      <trkpt lat="42.92668" lon="-2.21566">
        <ele>550.4</ele>
        <time>2021-05-29 08:16:59</time>
      </trkpt>
      <trkpt lat="42.92668" lon="-2.21573">
        <ele>550.6</ele>
        <time>2021-05-29 08:17:00</time>
      </trkpt>
      <trkpt lat="42.92668" lon="-2.21581">
        <ele>550.6</ele>
        <time>2021-05-29 08:17:01</time>
      </trkpt>
      <trkpt lat="42.92668" lon="-2.21589">
        <ele>550.6</ele>
        <time>2021-05-29 08:17:02</time>
      </trkpt>
      <trkpt lat="42.92668" lon="-2.21597">
        <ele>550.6</ele>
        <time>2021-05-29 08:17:03</time>
      </trkpt>
      <trkpt lat="42.92667" lon="-2.21605">
        <ele>550.6</ele>
        <time>2021-05-29 08:17:04</time>
      </trkpt>
      <trkpt lat="42.92667" lon="-2.21613">
        <ele>550.8</ele>
        <time>2021-05-29 08:17:05</time>
      </trkpt>
      <trkpt lat="42.92667" lon="-2.21621">
        <ele>550.6</ele>
        <time>2021-05-29 08:17:06</time>
      </trkpt>
      <trkpt lat="42.92666" lon="-2.21629">
        <ele>550.6</ele>
        <time>2021-05-29 08:17:07</time>
      </trkpt>
      <trkpt lat="42.92666" lon="-2.21637">
        <ele>550.8</ele>
        <time>2021-05-29 08:17:08</time>
      </trkpt>
      <trkpt lat="42.92665" lon="-2.21645">
        <ele>550.8</ele>
        <time>2021-05-29 08:17:09</time>
      </trkpt>
      <trkpt lat="42.92665" lon="-2.21652">
        <ele>550.8</ele>
        <time>2021-05-29 08:17:10</time>
      </trkpt>
      <trkpt lat="42.92664" lon="-2.2166">
        <ele>550.8</ele>
        <time>2021-05-29 08:17:11</time>
      </trkpt>
      <trkpt lat="42.92664" lon="-2.21667">
        <ele>551</ele>
        <time>2021-05-29 08:17:12</time>
      </trkpt>
      <trkpt lat="42.92663" lon="-2.21674">
        <ele>551</ele>
        <time>2021-05-29 08:17:13</time>
      </trkpt>
      <trkpt lat="42.92663" lon="-2.21682">
        <ele>551</ele>
        <time>2021-05-29 08:17:14</time>
      </trkpt>
      <trkpt lat="42.92662" lon="-2.21689">
        <ele>551</ele>
        <time>2021-05-29 08:17:15</time>
      </trkpt>
      <trkpt lat="42.92662" lon="-2.21697">
        <ele>551</ele>
        <time>2021-05-29 08:17:16</time>
      </trkpt>
      <trkpt lat="42.92661" lon="-2.21704">
        <ele>551.2</ele>
        <time>2021-05-29 08:17:17</time>
      </trkpt>
      <trkpt lat="42.9266" lon="-2.21711">
        <ele>551.2</ele>
        <time>2021-05-29 08:17:18</time>
      </trkpt>
      <trkpt lat="42.9266" lon="-2.21719">
        <ele>551.2</ele>
        <time>2021-05-29 08:17:19</time>
      </trkpt>
      <trkpt lat="42.92659" lon="-2.21726">
        <ele>551.2</ele>
        <time>2021-05-29 08:17:20</time>
      </trkpt>
      <trkpt lat="42.92658" lon="-2.21734">
        <ele>551.2</ele>
        <time>2021-05-29 08:17:21</time>
      </trkpt>
      <trkpt lat="42.92658" lon="-2.21742">
        <ele>551.2</ele>
        <time>2021-05-29 08:17:22</time>
      </trkpt>
      <trkpt lat="42.92657" lon="-2.21751">
        <ele>551.2</ele>
        <time>2021-05-29 08:17:23</time>
      </trkpt>
      <trkpt lat="42.92656" lon="-2.21759">
        <ele>551</ele>
        <time>2021-05-29 08:17:24</time>
      </trkpt>
      <trkpt lat="42.92656" lon="-2.21767">
        <ele>551</ele>
        <time>2021-05-29 08:17:25</time>
      </trkpt>
      <trkpt lat="42.92655" lon="-2.21775">
        <ele>551</ele>
        <time>2021-05-29 08:17:26</time>
      </trkpt>
      <trkpt lat="42.92655" lon="-2.21783">
        <ele>551</ele>
        <time>2021-05-29 08:17:27</time>
      </trkpt>
      <trkpt lat="42.92655" lon="-2.21792">
        <ele>551.2</ele>
        <time>2021-05-29 08:17:28</time>
      </trkpt>
      <trkpt lat="42.92655" lon="-2.218">
        <ele>551.2</ele>
        <time>2021-05-29 08:17:29</time>
      </trkpt>
      <trkpt lat="42.92655" lon="-2.21808">
        <ele>551.4</ele>
        <time>2021-05-29 08:17:30</time>
      </trkpt>
      <trkpt lat="42.92656" lon="-2.21816">
        <ele>551.4</ele>
        <time>2021-05-29 08:17:31</time>
      </trkpt>
      <trkpt lat="42.92656" lon="-2.21824">
        <ele>551.6</ele>
        <time>2021-05-29 08:17:32</time>
      </trkpt>
      <trkpt lat="42.92656" lon="-2.21832">
        <ele>551.6</ele>
        <time>2021-05-29 08:17:33</time>
      </trkpt>
      <trkpt lat="42.92657" lon="-2.2184">
        <ele>551.6</ele>
        <time>2021-05-29 08:17:34</time>
      </trkpt>
      <trkpt lat="42.92657" lon="-2.21848">
        <ele>551.8</ele>
        <time>2021-05-29 08:17:35</time>
      </trkpt>
      <trkpt lat="42.92658" lon="-2.21856">
        <ele>551.8</ele>
        <time>2021-05-29 08:17:36</time>
      </trkpt>
      <trkpt lat="42.92659" lon="-2.21864">
        <ele>551.8</ele>
        <time>2021-05-29 08:17:37</time>
      </trkpt>
      <trkpt lat="42.9266" lon="-2.21873">
        <ele>551.8</ele>
        <time>2021-05-29 08:17:38</time>
      </trkpt>
      <trkpt lat="42.92661" lon="-2.2188">
        <ele>551.8</ele>
        <time>2021-05-29 08:17:39</time>
      </trkpt>
      <trkpt lat="42.92662" lon="-2.21887">
        <ele>551.8</ele>
        <time>2021-05-29 08:17:40</time>
      </trkpt>
      <trkpt lat="42.92663" lon="-2.21895">
        <ele>551.8</ele>
        <time>2021-05-29 08:17:41</time>
      </trkpt>
      <trkpt lat="42.92664" lon="-2.21902">
        <ele>552</ele>
        <time>2021-05-29 08:17:42</time>
      </trkpt>
      <trkpt lat="42.92665" lon="-2.21909">
        <ele>552</ele>
        <time>2021-05-29 08:17:43</time>
      </trkpt>
      <trkpt lat="42.92667" lon="-2.21916">
        <ele>552</ele>
        <time>2021-05-29 08:17:44</time>
      </trkpt>
      <trkpt lat="42.92668" lon="-2.21923">
        <ele>552.2</ele>
        <time>2021-05-29 08:17:45</time>
      </trkpt>
      <trkpt lat="42.9267" lon="-2.2193">
        <ele>552.2</ele>
        <time>2021-05-29 08:17:46</time>
      </trkpt>
      <trkpt lat="42.92672" lon="-2.21937">
        <ele>552.2</ele>
        <time>2021-05-29 08:17:47</time>
      </trkpt>
      <trkpt lat="42.92674" lon="-2.21944">
        <ele>552</ele>
        <time>2021-05-29 08:17:48</time>
      </trkpt>
      <trkpt lat="42.92676" lon="-2.21951">
        <ele>552</ele>
        <time>2021-05-29 08:17:49</time>
      </trkpt>
      <trkpt lat="42.92679" lon="-2.21958">
        <ele>552.2</ele>
        <time>2021-05-29 08:17:50</time>
      </trkpt>
      <trkpt lat="42.92681" lon="-2.21966">
        <ele>552.2</ele>
        <time>2021-05-29 08:17:51</time>
      </trkpt>
      <trkpt lat="42.92682" lon="-2.21973">
        <ele>552.2</ele>
        <time>2021-05-29 08:17:52</time>
      </trkpt>
      <trkpt lat="42.92684" lon="-2.2198">
        <ele>552.4</ele>
        <time>2021-05-29 08:17:53</time>
      </trkpt>
      <trkpt lat="42.92686" lon="-2.21987">
        <ele>552.4</ele>
        <time>2021-05-29 08:17:54</time>
      </trkpt>
      <trkpt lat="42.92687" lon="-2.21994">
        <ele>552.4</ele>
        <time>2021-05-29 08:17:55</time>
      </trkpt>
      <trkpt lat="42.92689" lon="-2.22001">
        <ele>552.4</ele>
        <time>2021-05-29 08:17:56</time>
      </trkpt>
      <trkpt lat="42.92691" lon="-2.22008">
        <ele>552.6</ele>
        <time>2021-05-29 08:17:57</time>
      </trkpt>
      <trkpt lat="42.92692" lon="-2.22015">
        <ele>552.8</ele>
        <time>2021-05-29 08:17:58</time>
      </trkpt>
      <trkpt lat="42.92693" lon="-2.22023">
        <ele>552.6</ele>
        <time>2021-05-29 08:17:59</time>
      </trkpt>
      <trkpt lat="42.92695" lon="-2.2203">
        <ele>552.6</ele>
        <time>2021-05-29 08:18:00</time>
      </trkpt>
      <trkpt lat="42.92697" lon="-2.22037">
        <ele>552.8</ele>
        <time>2021-05-29 08:18:01</time>
      </trkpt>
      <trkpt lat="42.92699" lon="-2.22045">
        <ele>553</ele>
        <time>2021-05-29 08:18:02</time>
      </trkpt>
      <trkpt lat="42.927" lon="-2.22052">
        <ele>553</ele>
        <time>2021-05-29 08:18:03</time>
      </trkpt>
      <trkpt lat="42.92702" lon="-2.22059">
        <ele>553.2</ele>
        <time>2021-05-29 08:18:04</time>
      </trkpt>
      <trkpt lat="42.92703" lon="-2.22066">
        <ele>553</ele>
        <time>2021-05-29 08:18:05</time>
      </trkpt>
      <trkpt lat="42.92705" lon="-2.22074">
        <ele>553.2</ele>
        <time>2021-05-29 08:18:06</time>
      </trkpt>
      <trkpt lat="42.92706" lon="-2.22081">
        <ele>553</ele>
        <time>2021-05-29 08:18:07</time>
      </trkpt>
      <trkpt lat="42.92708" lon="-2.22088">
        <ele>553</ele>
        <time>2021-05-29 08:18:08</time>
      </trkpt>
      <trkpt lat="42.9271" lon="-2.22095">
        <ele>553.2</ele>
        <time>2021-05-29 08:18:09</time>
      </trkpt>
      <trkpt lat="42.92713" lon="-2.22103">
        <ele>553.2</ele>
        <time>2021-05-29 08:18:10</time>
      </trkpt>
      <trkpt lat="42.92715" lon="-2.2211">
        <ele>553.4</ele>
        <time>2021-05-29 08:18:11</time>
      </trkpt>
      <trkpt lat="42.92717" lon="-2.22119">
        <ele>553.4</ele>
        <time>2021-05-29 08:18:12</time>
      </trkpt>
      <trkpt lat="42.92719" lon="-2.22127">
        <ele>553.6</ele>
        <time>2021-05-29 08:18:13</time>
      </trkpt>
      <trkpt lat="42.92721" lon="-2.22136">
        <ele>553.6</ele>
        <time>2021-05-29 08:18:14</time>
      </trkpt>
      <trkpt lat="42.92723" lon="-2.22144">
        <ele>553.6</ele>
        <time>2021-05-29 08:18:15</time>
      </trkpt>
      <trkpt lat="42.92726" lon="-2.22152">
        <ele>553.8</ele>
        <time>2021-05-29 08:18:16</time>
      </trkpt>
      <trkpt lat="42.92728" lon="-2.2216">
        <ele>553.8</ele>
        <time>2021-05-29 08:18:17</time>
      </trkpt>
      <trkpt lat="42.92729" lon="-2.22169">
        <ele>553.8</ele>
        <time>2021-05-29 08:18:18</time>
      </trkpt>
      <trkpt lat="42.92731" lon="-2.22177">
        <ele>553.6</ele>
        <time>2021-05-29 08:18:19</time>
      </trkpt>
      <trkpt lat="42.92733" lon="-2.22185">
        <ele>553.8</ele>
        <time>2021-05-29 08:18:20</time>
      </trkpt>
      <trkpt lat="42.92735" lon="-2.22193">
        <ele>554</ele>
        <time>2021-05-29 08:18:21</time>
      </trkpt>
      <trkpt lat="42.92736" lon="-2.22201">
        <ele>553.8</ele>
        <time>2021-05-29 08:18:22</time>
      </trkpt>
      <trkpt lat="42.92738" lon="-2.22209">
        <ele>553.8</ele>
        <time>2021-05-29 08:18:23</time>
      </trkpt>
      <trkpt lat="42.9274" lon="-2.22217">
        <ele>553.8</ele>
        <time>2021-05-29 08:18:24</time>
      </trkpt>
      <trkpt lat="42.92743" lon="-2.22225">
        <ele>554.2</ele>
        <time>2021-05-29 08:18:25</time>
      </trkpt>
      <trkpt lat="42.92745" lon="-2.22234">
        <ele>554.2</ele>
        <time>2021-05-29 08:18:26</time>
      </trkpt>
      <trkpt lat="42.92747" lon="-2.22243">
        <ele>554.4</ele>
        <time>2021-05-29 08:18:27</time>
      </trkpt>
      <trkpt lat="42.9275" lon="-2.22251">
        <ele>554.4</ele>
        <time>2021-05-29 08:18:28</time>
      </trkpt>
      <trkpt lat="42.92752" lon="-2.2226">
        <ele>554.6</ele>
        <time>2021-05-29 08:18:29</time>
      </trkpt>
      <trkpt lat="42.92754" lon="-2.22268">
        <ele>554.4</ele>
        <time>2021-05-29 08:18:30</time>
      </trkpt>
      <trkpt lat="42.92756" lon="-2.22276">
        <ele>554.4</ele>
        <time>2021-05-29 08:18:31</time>
      </trkpt>
      <trkpt lat="42.92759" lon="-2.22285">
        <ele>554.6</ele>
        <time>2021-05-29 08:18:32</time>
      </trkpt>
      <trkpt lat="42.92761" lon="-2.22293">
        <ele>554.6</ele>
        <time>2021-05-29 08:18:33</time>
      </trkpt>
      <trkpt lat="42.92763" lon="-2.22302">
        <ele>554.6</ele>
        <time>2021-05-29 08:18:34</time>
      </trkpt>
      <trkpt lat="42.92766" lon="-2.2231">
        <ele>554.6</ele>
        <time>2021-05-29 08:18:35</time>
      </trkpt>
      <trkpt lat="42.92768" lon="-2.22318">
        <ele>554.8</ele>
        <time>2021-05-29 08:18:36</time>
      </trkpt>
      <trkpt lat="42.92771" lon="-2.22327">
        <ele>554.8</ele>
        <time>2021-05-29 08:18:37</time>
      </trkpt>
      <trkpt lat="42.92774" lon="-2.22335">
        <ele>554.8</ele>
        <time>2021-05-29 08:18:38</time>
      </trkpt>
      <trkpt lat="42.92777" lon="-2.22344">
        <ele>555</ele>
        <time>2021-05-29 08:18:39</time>
      </trkpt>
      <trkpt lat="42.9278" lon="-2.22352">
        <ele>555</ele>
        <time>2021-05-29 08:18:40</time>
      </trkpt>
      <trkpt lat="42.92783" lon="-2.22361">
        <ele>555.2</ele>
        <time>2021-05-29 08:18:41</time>
      </trkpt>
      <trkpt lat="42.92786" lon="-2.22369">
        <ele>555.2</ele>
        <time>2021-05-29 08:18:42</time>
      </trkpt>
      <trkpt lat="42.92789" lon="-2.22378">
        <ele>555.4</ele>
        <time>2021-05-29 08:18:43</time>
      </trkpt>
      <trkpt lat="42.92792" lon="-2.22386">
        <ele>555.6</ele>
        <time>2021-05-29 08:18:44</time>
      </trkpt>
      <trkpt lat="42.92795" lon="-2.22395">
        <ele>555.4</ele>
        <time>2021-05-29 08:18:45</time>
      </trkpt>
      <trkpt lat="42.92798" lon="-2.22403">
        <ele>555.6</ele>
        <time>2021-05-29 08:18:46</time>
      </trkpt>
      <trkpt lat="42.92801" lon="-2.22411">
        <ele>555.6</ele>
        <time>2021-05-29 08:18:47</time>
      </trkpt>
      <trkpt lat="42.92804" lon="-2.22419">
        <ele>555.6</ele>
        <time>2021-05-29 08:18:48</time>
      </trkpt>
      <trkpt lat="42.92807" lon="-2.22427">
        <ele>555.8</ele>
        <time>2021-05-29 08:18:49</time>
      </trkpt>
      <trkpt lat="42.92809" lon="-2.22435">
        <ele>555.8</ele>
        <time>2021-05-29 08:18:50</time>
      </trkpt>
      <trkpt lat="42.92812" lon="-2.22443">
        <ele>555.8</ele>
        <time>2021-05-29 08:18:51</time>
      </trkpt>
      <trkpt lat="42.92814" lon="-2.22451">
        <ele>555.8</ele>
        <time>2021-05-29 08:18:52</time>
      </trkpt>
      <trkpt lat="42.92817" lon="-2.22459">
        <ele>556</ele>
        <time>2021-05-29 08:18:53</time>
      </trkpt>
      <trkpt lat="42.9282" lon="-2.22467">
        <ele>556</ele>
        <time>2021-05-29 08:18:54</time>
      </trkpt>
      <trkpt lat="42.92823" lon="-2.22474">
        <ele>556</ele>
        <time>2021-05-29 08:18:55</time>
      </trkpt>
      <trkpt lat="42.92827" lon="-2.22482">
        <ele>556</ele>
        <time>2021-05-29 08:18:56</time>
      </trkpt>
      <trkpt lat="42.9283" lon="-2.2249">
        <ele>556</ele>
        <time>2021-05-29 08:18:57</time>
      </trkpt>
      <trkpt lat="42.92833" lon="-2.22497">
        <ele>556</ele>
        <time>2021-05-29 08:18:58</time>
      </trkpt>
      <trkpt lat="42.92837" lon="-2.22505">
        <ele>556</ele>
        <time>2021-05-29 08:18:59</time>
      </trkpt>
      <trkpt lat="42.9284" lon="-2.22514">
        <ele>556.2</ele>
        <time>2021-05-29 08:19:00</time>
      </trkpt>
      <trkpt lat="42.92844" lon="-2.22522">
        <ele>556.4</ele>
        <time>2021-05-29 08:19:01</time>
      </trkpt>
      <trkpt lat="42.92848" lon="-2.2253">
        <ele>556.4</ele>
        <time>2021-05-29 08:19:02</time>
      </trkpt>
      <trkpt lat="42.92852" lon="-2.22537">
        <ele>556.4</ele>
        <time>2021-05-29 08:19:03</time>
      </trkpt>
      <trkpt lat="42.92856" lon="-2.22544">
        <ele>556.4</ele>
        <time>2021-05-29 08:19:04</time>
      </trkpt>
      <trkpt lat="42.9286" lon="-2.22552">
        <ele>556.4</ele>
        <time>2021-05-29 08:19:05</time>
      </trkpt>
      <trkpt lat="42.92865" lon="-2.22559">
        <ele>556.6</ele>
        <time>2021-05-29 08:19:06</time>
      </trkpt>
      <trkpt lat="42.92869" lon="-2.22565">
        <ele>556.6</ele>
        <time>2021-05-29 08:19:07</time>
      </trkpt>
      <trkpt lat="42.92874" lon="-2.22572">
        <ele>556.6</ele>
        <time>2021-05-29 08:19:08</time>
      </trkpt>
      <trkpt lat="42.92879" lon="-2.22578">
        <ele>556.6</ele>
        <time>2021-05-29 08:19:09</time>
      </trkpt>
      <trkpt lat="42.92883" lon="-2.22583">
        <ele>556.6</ele>
        <time>2021-05-29 08:19:10</time>
      </trkpt>
      <trkpt lat="42.92888" lon="-2.22588">
        <ele>556.8</ele>
        <time>2021-05-29 08:19:11</time>
      </trkpt>
      <trkpt lat="42.92892" lon="-2.22593">
        <ele>557</ele>
        <time>2021-05-29 08:19:12</time>
      </trkpt>
      <trkpt lat="42.92895" lon="-2.22599">
        <ele>557</ele>
        <time>2021-05-29 08:19:13</time>
      </trkpt>
      <trkpt lat="42.92898" lon="-2.22605">
        <ele>557.2</ele>
        <time>2021-05-29 08:19:14</time>
      </trkpt>
      <trkpt lat="42.929" lon="-2.22611">
        <ele>557.2</ele>
        <time>2021-05-29 08:19:15</time>
      </trkpt>
      <trkpt lat="42.92902" lon="-2.22618">
        <ele>557.4</ele>
        <time>2021-05-29 08:19:16</time>
      </trkpt>
      <trkpt lat="42.92903" lon="-2.22627">
        <ele>557.4</ele>
        <time>2021-05-29 08:19:17</time>
      </trkpt>
      <trkpt lat="42.92903" lon="-2.22636">
        <ele>557.4</ele>
        <time>2021-05-29 08:19:18</time>
      </trkpt>
      <trkpt lat="42.92903" lon="-2.22646">
        <ele>557.4</ele>
        <time>2021-05-29 08:19:19</time>
      </trkpt>
      <trkpt lat="42.92903" lon="-2.22656">
        <ele>557.6</ele>
        <time>2021-05-29 08:19:20</time>
      </trkpt>
      <trkpt lat="42.92902" lon="-2.22666">
        <ele>557.4</ele>
        <time>2021-05-29 08:19:21</time>
      </trkpt>
      <trkpt lat="42.92902" lon="-2.22676">
        <ele>557.4</ele>
        <time>2021-05-29 08:19:22</time>
      </trkpt>
      <trkpt lat="42.92902" lon="-2.22686">
        <ele>557.6</ele>
        <time>2021-05-29 08:19:23</time>
      </trkpt>
      <trkpt lat="42.92903" lon="-2.22697">
        <ele>557.6</ele>
        <time>2021-05-29 08:19:24</time>
      </trkpt>
      <trkpt lat="42.92905" lon="-2.22706">
        <ele>557.6</ele>
        <time>2021-05-29 08:19:25</time>
      </trkpt>
      <trkpt lat="42.92908" lon="-2.22716">
        <ele>557.8</ele>
        <time>2021-05-29 08:19:26</time>
      </trkpt>
      <trkpt lat="42.9291" lon="-2.22726">
        <ele>557.8</ele>
        <time>2021-05-29 08:19:27</time>
      </trkpt>
      <trkpt lat="42.92913" lon="-2.22736">
        <ele>557.8</ele>
        <time>2021-05-29 08:19:28</time>
      </trkpt>
      <trkpt lat="42.92915" lon="-2.22746">
        <ele>557.8</ele>
        <time>2021-05-29 08:19:29</time>
      </trkpt>
      <trkpt lat="42.92918" lon="-2.22756">
        <ele>558</ele>
        <time>2021-05-29 08:19:30</time>
      </trkpt>
      <trkpt lat="42.92921" lon="-2.22766">
        <ele>558</ele>
        <time>2021-05-29 08:19:31</time>
      </trkpt>
      <trkpt lat="42.92923" lon="-2.22775">
        <ele>558</ele>
        <time>2021-05-29 08:19:32</time>
      </trkpt>
      <trkpt lat="42.92925" lon="-2.22785">
        <ele>558</ele>
        <time>2021-05-29 08:19:33</time>
      </trkpt>
      <trkpt lat="42.92928" lon="-2.22795">
        <ele>558</ele>
        <time>2021-05-29 08:19:34</time>
      </trkpt>
      <trkpt lat="42.9293" lon="-2.22805">
        <ele>558</ele>
        <time>2021-05-29 08:19:35</time>
      </trkpt>
      <trkpt lat="42.92933" lon="-2.22817">
        <ele>558</ele>
        <time>2021-05-29 08:19:36</time>
      </trkpt>
      <trkpt lat="42.92936" lon="-2.22828">
        <ele>558</ele>
        <time>2021-05-29 08:19:37</time>
      </trkpt>
      <trkpt lat="42.92939" lon="-2.2284">
        <ele>558</ele>
        <time>2021-05-29 08:19:38</time>
      </trkpt>
      <trkpt lat="42.92942" lon="-2.22853">
        <ele>558</ele>
        <time>2021-05-29 08:19:39</time>
      </trkpt>
      <trkpt lat="42.92945" lon="-2.22866">
        <ele>558</ele>
        <time>2021-05-29 08:19:40</time>
      </trkpt>
      <trkpt lat="42.92948" lon="-2.22878">
        <ele>558</ele>
        <time>2021-05-29 08:19:41</time>
      </trkpt>
      <trkpt lat="42.92951" lon="-2.22889">
        <ele>558.2</ele>
        <time>2021-05-29 08:19:42</time>
      </trkpt>
      <trkpt lat="42.92954" lon="-2.229">
        <ele>558.2</ele>
        <time>2021-05-29 08:19:43</time>
      </trkpt>
      <trkpt lat="42.92957" lon="-2.22911">
        <ele>558.2</ele>
        <time>2021-05-29 08:19:44</time>
      </trkpt>
      <trkpt lat="42.9296" lon="-2.22921">
        <ele>558.2</ele>
        <time>2021-05-29 08:19:45</time>
      </trkpt>
      <trkpt lat="42.92963" lon="-2.2293">
        <ele>558.4</ele>
        <time>2021-05-29 08:19:46</time>
      </trkpt>
      <trkpt lat="42.92966" lon="-2.22939">
        <ele>558.4</ele>
        <time>2021-05-29 08:19:47</time>
      </trkpt>
      <trkpt lat="42.92969" lon="-2.22948">
        <ele>558.6</ele>
        <time>2021-05-29 08:19:48</time>
      </trkpt>
      <trkpt lat="42.92971" lon="-2.22957">
        <ele>558.6</ele>
        <time>2021-05-29 08:19:49</time>
      </trkpt>
      <trkpt lat="42.92974" lon="-2.22965">
        <ele>558.6</ele>
        <time>2021-05-29 08:19:50</time>
      </trkpt>
      <trkpt lat="42.92977" lon="-2.22973">
        <ele>558.6</ele>
        <time>2021-05-29 08:19:51</time>
      </trkpt>
      <trkpt lat="42.92979" lon="-2.2298">
        <ele>558.6</ele>
        <time>2021-05-29 08:19:52</time>
      </trkpt>
      <trkpt lat="42.92981" lon="-2.22987">
        <ele>558.6</ele>
        <time>2021-05-29 08:19:53</time>
      </trkpt>
      <trkpt lat="42.92982" lon="-2.22993">
        <ele>558.8</ele>
        <time>2021-05-29 08:19:54</time>
      </trkpt>
      <trkpt lat="42.92984" lon="-2.23">
        <ele>559</ele>
        <time>2021-05-29 08:19:55</time>
      </trkpt>
      <trkpt lat="42.92986" lon="-2.23006">
        <ele>559.2</ele>
        <time>2021-05-29 08:19:56</time>
      </trkpt>
      <trkpt lat="42.92988" lon="-2.23013">
        <ele>559.2</ele>
        <time>2021-05-29 08:19:57</time>
      </trkpt>
      <trkpt lat="42.92989" lon="-2.23019">
        <ele>559.2</ele>
        <time>2021-05-29 08:19:58</time>
      </trkpt>
      <trkpt lat="42.92991" lon="-2.23025">
        <ele>559.2</ele>
        <time>2021-05-29 08:19:59</time>
      </trkpt>
      <trkpt lat="42.92992" lon="-2.23031">
        <ele>559.4</ele>
        <time>2021-05-29 08:20:00</time>
      </trkpt>
      <trkpt lat="42.92993" lon="-2.23036">
        <ele>559.4</ele>
        <time>2021-05-29 08:20:01</time>
      </trkpt>
      <trkpt lat="42.92995" lon="-2.23041">
        <ele>559.6</ele>
        <time>2021-05-29 08:20:02</time>
      </trkpt>
      <trkpt lat="42.92996" lon="-2.23046">
        <ele>559.6</ele>
        <time>2021-05-29 08:20:03</time>
      </trkpt>
      <trkpt lat="42.92998" lon="-2.23051">
        <ele>559.8</ele>
        <time>2021-05-29 08:20:04</time>
      </trkpt>
      <trkpt lat="42.93" lon="-2.23057">
        <ele>560</ele>
        <time>2021-05-29 08:20:05</time>
      </trkpt>
      <trkpt lat="42.93001" lon="-2.23062">
        <ele>560.2</ele>
        <time>2021-05-29 08:20:06</time>
      </trkpt>
      <trkpt lat="42.93003" lon="-2.23068">
        <ele>560.2</ele>
        <time>2021-05-29 08:20:07</time>
      </trkpt>
      <trkpt lat="42.93005" lon="-2.23074">
        <ele>560.4</ele>
        <time>2021-05-29 08:20:08</time>
      </trkpt>
      <trkpt lat="42.93007" lon="-2.2308">
        <ele>560.4</ele>
        <time>2021-05-29 08:20:09</time>
      </trkpt>
      <trkpt lat="42.9301" lon="-2.23086">
        <ele>560.4</ele>
        <time>2021-05-29 08:20:10</time>
      </trkpt>
      <trkpt lat="42.93012" lon="-2.23092">
        <ele>560.4</ele>
        <time>2021-05-29 08:20:11</time>
      </trkpt>
      <trkpt lat="42.93014" lon="-2.23098">
        <ele>560.4</ele>
        <time>2021-05-29 08:20:12</time>
      </trkpt>
      <trkpt lat="42.93015" lon="-2.23104">
        <ele>560.6</ele>
        <time>2021-05-29 08:20:13</time>
      </trkpt>
      <trkpt lat="42.93018" lon="-2.23111">
        <ele>560.4</ele>
        <time>2021-05-29 08:20:14</time>
      </trkpt>
      <trkpt lat="42.93019" lon="-2.23117">
        <ele>560.4</ele>
        <time>2021-05-29 08:20:15</time>
      </trkpt>
      <trkpt lat="42.93021" lon="-2.23123">
        <ele>560.6</ele>
        <time>2021-05-29 08:20:16</time>
      </trkpt>
      <trkpt lat="42.93022" lon="-2.2313">
        <ele>560.6</ele>
        <time>2021-05-29 08:20:17</time>
      </trkpt>
      <trkpt lat="42.93025" lon="-2.23137">
        <ele>560.8</ele>
        <time>2021-05-29 08:20:18</time>
      </trkpt>
      <trkpt lat="42.93027" lon="-2.23144">
        <ele>561</ele>
        <time>2021-05-29 08:20:19</time>
      </trkpt>
      <trkpt lat="42.9303" lon="-2.23153">
        <ele>561</ele>
        <time>2021-05-29 08:20:20</time>
      </trkpt>
      <trkpt lat="42.93032" lon="-2.23161">
        <ele>561</ele>
        <time>2021-05-29 08:20:21</time>
      </trkpt>
      <trkpt lat="42.93034" lon="-2.23168">
        <ele>561.2</ele>
        <time>2021-05-29 08:20:22</time>
      </trkpt>
      <trkpt lat="42.93036" lon="-2.23176">
        <ele>561.2</ele>
        <time>2021-05-29 08:20:23</time>
      </trkpt>
      <trkpt lat="42.93039" lon="-2.23185">
        <ele>561.2</ele>
        <time>2021-05-29 08:20:24</time>
      </trkpt>
      <trkpt lat="42.93041" lon="-2.23193">
        <ele>561.2</ele>
        <time>2021-05-29 08:20:25</time>
      </trkpt>
      <trkpt lat="42.93044" lon="-2.23202">
        <ele>561.4</ele>
        <time>2021-05-29 08:20:26</time>
      </trkpt>
      <trkpt lat="42.93046" lon="-2.23209">
        <ele>561.4</ele>
        <time>2021-05-29 08:20:27</time>
      </trkpt>
      <trkpt lat="42.93048" lon="-2.23217">
        <ele>561.6</ele>
        <time>2021-05-29 08:20:28</time>
      </trkpt>
      <trkpt lat="42.93051" lon="-2.23225">
        <ele>561.8</ele>
        <time>2021-05-29 08:20:29</time>
      </trkpt>
      <trkpt lat="42.93053" lon="-2.23232">
        <ele>561.6</ele>
        <time>2021-05-29 08:20:30</time>
      </trkpt>
      <trkpt lat="42.93056" lon="-2.2324">
        <ele>561.8</ele>
        <time>2021-05-29 08:20:31</time>
      </trkpt>
      <trkpt lat="42.93058" lon="-2.23247">
        <ele>561.8</ele>
        <time>2021-05-29 08:20:32</time>
      </trkpt>
      <trkpt lat="42.9306" lon="-2.23254">
        <ele>561.8</ele>
        <time>2021-05-29 08:20:33</time>
      </trkpt>
      <trkpt lat="42.93062" lon="-2.23261">
        <ele>562</ele>
        <time>2021-05-29 08:20:34</time>
      </trkpt>
      <trkpt lat="42.93064" lon="-2.23269">
        <ele>562</ele>
        <time>2021-05-29 08:20:35</time>
      </trkpt>
      <trkpt lat="42.93066" lon="-2.23276">
        <ele>562</ele>
        <time>2021-05-29 08:20:36</time>
      </trkpt>
      <trkpt lat="42.93069" lon="-2.23284">
        <ele>562.2</ele>
        <time>2021-05-29 08:20:37</time>
      </trkpt>
      <trkpt lat="42.93072" lon="-2.23292">
        <ele>562.2</ele>
        <time>2021-05-29 08:20:38</time>
      </trkpt>
      <trkpt lat="42.93075" lon="-2.23301">
        <ele>562.2</ele>
        <time>2021-05-29 08:20:39</time>
      </trkpt>
      <trkpt lat="42.93078" lon="-2.23309">
        <ele>562.2</ele>
        <time>2021-05-29 08:20:40</time>
      </trkpt>
      <trkpt lat="42.93082" lon="-2.23319">
        <ele>562.4</ele>
        <time>2021-05-29 08:20:41</time>
      </trkpt>
      <trkpt lat="42.93084" lon="-2.23327">
        <ele>562.4</ele>
        <time>2021-05-29 08:20:42</time>
      </trkpt>
      <trkpt lat="42.93086" lon="-2.23335">
        <ele>562.6</ele>
        <time>2021-05-29 08:20:43</time>
      </trkpt>
      <trkpt lat="42.93089" lon="-2.23342">
        <ele>562.6</ele>
        <time>2021-05-29 08:20:44</time>
      </trkpt>
      <trkpt lat="42.93091" lon="-2.23349">
        <ele>562.6</ele>
        <time>2021-05-29 08:20:45</time>
      </trkpt>
      <trkpt lat="42.93094" lon="-2.23357">
        <ele>562.6</ele>
        <time>2021-05-29 08:20:46</time>
      </trkpt>
      <trkpt lat="42.93096" lon="-2.23364">
        <ele>562.8</ele>
        <time>2021-05-29 08:20:47</time>
      </trkpt>
      <trkpt lat="42.93098" lon="-2.23372">
        <ele>562.8</ele>
        <time>2021-05-29 08:20:48</time>
      </trkpt>
      <trkpt lat="42.93101" lon="-2.2338">
        <ele>562.8</ele>
        <time>2021-05-29 08:20:49</time>
      </trkpt>
      <trkpt lat="42.93103" lon="-2.23387">
        <ele>562.8</ele>
        <time>2021-05-29 08:20:50</time>
      </trkpt>
      <trkpt lat="42.93105" lon="-2.23395">
        <ele>562.8</ele>
        <time>2021-05-29 08:20:51</time>
      </trkpt>
      <trkpt lat="42.93108" lon="-2.23403">
        <ele>562.8</ele>
        <time>2021-05-29 08:20:52</time>
      </trkpt>
      <trkpt lat="42.9311" lon="-2.2341">
        <ele>562.8</ele>
        <time>2021-05-29 08:20:53</time>
      </trkpt>
      <trkpt lat="42.93112" lon="-2.23419">
        <ele>563</ele>
        <time>2021-05-29 08:20:54</time>
      </trkpt>
      <trkpt lat="42.93112" lon="-2.23427">
        <ele>563</ele>
        <time>2021-05-29 08:20:55</time>
      </trkpt>
      <trkpt lat="42.93113" lon="-2.23435">
        <ele>563</ele>
        <time>2021-05-29 08:20:56</time>
      </trkpt>
      <trkpt lat="42.93114" lon="-2.23444">
        <ele>563.2</ele>
        <time>2021-05-29 08:20:57</time>
      </trkpt>
      <trkpt lat="42.93115" lon="-2.23454">
        <ele>563.2</ele>
        <time>2021-05-29 08:20:58</time>
      </trkpt>
      <trkpt lat="42.93116" lon="-2.23464">
        <ele>563.2</ele>
        <time>2021-05-29 08:20:59</time>
      </trkpt>
      <trkpt lat="42.93117" lon="-2.23476">
        <ele>563.2</ele>
        <time>2021-05-29 08:21:00</time>
      </trkpt>
      <trkpt lat="42.93118" lon="-2.23486">
        <ele>563.4</ele>
        <time>2021-05-29 08:21:01</time>
      </trkpt>
      <trkpt lat="42.93118" lon="-2.23497">
        <ele>563.4</ele>
        <time>2021-05-29 08:21:02</time>
      </trkpt>
      <trkpt lat="42.93116" lon="-2.23506">
        <ele>563.4</ele>
        <time>2021-05-29 08:21:03</time>
      </trkpt>
      <trkpt lat="42.93117" lon="-2.23517">
        <ele>563.4</ele>
        <time>2021-05-29 08:21:04</time>
      </trkpt>
      <trkpt lat="42.93116" lon="-2.23527">
        <ele>563.4</ele>
        <time>2021-05-29 08:21:05</time>
      </trkpt>
      <trkpt lat="42.93115" lon="-2.23536">
        <ele>563.6</ele>
        <time>2021-05-29 08:21:06</time>
      </trkpt>
      <trkpt lat="42.93114" lon="-2.23546">
        <ele>563.4</ele>
        <time>2021-05-29 08:21:07</time>
      </trkpt>
      <trkpt lat="42.93113" lon="-2.23555">
        <ele>563.4</ele>
        <time>2021-05-29 08:21:08</time>
      </trkpt>
      <trkpt lat="42.93113" lon="-2.23563">
        <ele>563.4</ele>
        <time>2021-05-29 08:21:09</time>
      </trkpt>
      <trkpt lat="42.93112" lon="-2.23572">
        <ele>563.4</ele>
        <time>2021-05-29 08:21:10</time>
      </trkpt>
      <trkpt lat="42.93113" lon="-2.23581">
        <ele>563.6</ele>
        <time>2021-05-29 08:21:11</time>
      </trkpt>
      <trkpt lat="42.93113" lon="-2.2359">
        <ele>563.6</ele>
        <time>2021-05-29 08:21:12</time>
      </trkpt>
      <trkpt lat="42.93115" lon="-2.23598">
        <ele>563.6</ele>
        <time>2021-05-29 08:21:13</time>
      </trkpt>
      <trkpt lat="42.93117" lon="-2.23607">
        <ele>563.6</ele>
        <time>2021-05-29 08:21:14</time>
      </trkpt>
      <trkpt lat="42.93119" lon="-2.23615">
        <ele>563.8</ele>
        <time>2021-05-29 08:21:15</time>
      </trkpt>
      <trkpt lat="42.93122" lon="-2.23622">
        <ele>563.8</ele>
        <time>2021-05-29 08:21:16</time>
      </trkpt>
      <trkpt lat="42.93125" lon="-2.2363">
        <ele>563.8</ele>
        <time>2021-05-29 08:21:17</time>
      </trkpt>
      <trkpt lat="42.93129" lon="-2.23637">
        <ele>564</ele>
        <time>2021-05-29 08:21:18</time>
      </trkpt>
      <trkpt lat="42.93132" lon="-2.23645">
        <ele>564</ele>
        <time>2021-05-29 08:21:19</time>
      </trkpt>
      <trkpt lat="42.93136" lon="-2.23652">
        <ele>564</ele>
        <time>2021-05-29 08:21:20</time>
      </trkpt>
      <trkpt lat="42.93139" lon="-2.2366">
        <ele>564.2</ele>
        <time>2021-05-29 08:21:21</time>
      </trkpt>
      <trkpt lat="42.93144" lon="-2.23667">
        <ele>564.2</ele>
        <time>2021-05-29 08:21:22</time>
      </trkpt>
      <trkpt lat="42.93147" lon="-2.23674">
        <ele>564.2</ele>
        <time>2021-05-29 08:21:23</time>
      </trkpt>
      <trkpt lat="42.93152" lon="-2.23681">
        <ele>564.4</ele>
        <time>2021-05-29 08:21:24</time>
      </trkpt>
      <trkpt lat="42.93156" lon="-2.23687">
        <ele>564.4</ele>
        <time>2021-05-29 08:21:25</time>
      </trkpt>
      <trkpt lat="42.9316" lon="-2.23694">
        <ele>564.4</ele>
        <time>2021-05-29 08:21:26</time>
      </trkpt>
      <trkpt lat="42.93164" lon="-2.23701">
        <ele>564.4</ele>
        <time>2021-05-29 08:21:27</time>
      </trkpt>
      <trkpt lat="42.93168" lon="-2.23707">
        <ele>564.4</ele>
        <time>2021-05-29 08:21:28</time>
      </trkpt>
      <trkpt lat="42.93172" lon="-2.23715">
        <ele>564.4</ele>
        <time>2021-05-29 08:21:29</time>
      </trkpt>
      <trkpt lat="42.93176" lon="-2.23722">
        <ele>564.6</ele>
        <time>2021-05-29 08:21:30</time>
      </trkpt>
      <trkpt lat="42.93181" lon="-2.23729">
        <ele>564.6</ele>
        <time>2021-05-29 08:21:31</time>
      </trkpt>
      <trkpt lat="42.93185" lon="-2.23736">
        <ele>564.6</ele>
        <time>2021-05-29 08:21:32</time>
      </trkpt>
      <trkpt lat="42.93189" lon="-2.23743">
        <ele>564.8</ele>
        <time>2021-05-29 08:21:33</time>
      </trkpt>
      <trkpt lat="42.93194" lon="-2.2375">
        <ele>564.8</ele>
        <time>2021-05-29 08:21:34</time>
      </trkpt>
      <trkpt lat="42.93198" lon="-2.23758">
        <ele>564.8</ele>
        <time>2021-05-29 08:21:35</time>
      </trkpt>
      <trkpt lat="42.93202" lon="-2.23765">
        <ele>564.8</ele>
        <time>2021-05-29 08:21:36</time>
      </trkpt>
      <trkpt lat="42.93206" lon="-2.23773">
        <ele>564.8</ele>
        <time>2021-05-29 08:21:37</time>
      </trkpt>
      <trkpt lat="42.93209" lon="-2.23781">
        <ele>564.8</ele>
        <time>2021-05-29 08:21:38</time>
      </trkpt>
      <trkpt lat="42.93213" lon="-2.2379">
        <ele>565</ele>
        <time>2021-05-29 08:21:39</time>
      </trkpt>
      <trkpt lat="42.93216" lon="-2.23799">
        <ele>565</ele>
        <time>2021-05-29 08:21:40</time>
      </trkpt>
      <trkpt lat="42.9322" lon="-2.23807">
        <ele>565</ele>
        <time>2021-05-29 08:21:41</time>
      </trkpt>
      <trkpt lat="42.93223" lon="-2.23816">
        <ele>565</ele>
        <time>2021-05-29 08:21:42</time>
      </trkpt>
      <trkpt lat="42.93225" lon="-2.23825">
        <ele>564.8</ele>
        <time>2021-05-29 08:21:43</time>
      </trkpt>
      <trkpt lat="42.93228" lon="-2.23833">
        <ele>565</ele>
        <time>2021-05-29 08:21:44</time>
      </trkpt>
      <trkpt lat="42.93231" lon="-2.23841">
        <ele>565</ele>
        <time>2021-05-29 08:21:45</time>
      </trkpt>
      <trkpt lat="42.93234" lon="-2.23849">
        <ele>565</ele>
        <time>2021-05-29 08:21:46</time>
      </trkpt>
      <trkpt lat="42.93238" lon="-2.23857">
        <ele>565.2</ele>
        <time>2021-05-29 08:21:47</time>
      </trkpt>
      <trkpt lat="42.93241" lon="-2.23866">
        <ele>565.2</ele>
        <time>2021-05-29 08:21:48</time>
      </trkpt>
      <trkpt lat="42.93245" lon="-2.23874">
        <ele>565.2</ele>
        <time>2021-05-29 08:21:49</time>
      </trkpt>
      <trkpt lat="42.93249" lon="-2.23883">
        <ele>565.2</ele>
        <time>2021-05-29 08:21:50</time>
      </trkpt>
      <trkpt lat="42.93252" lon="-2.23891">
        <ele>565.2</ele>
        <time>2021-05-29 08:21:51</time>
      </trkpt>
      <trkpt lat="42.93256" lon="-2.239">
        <ele>565.4</ele>
        <time>2021-05-29 08:21:52</time>
      </trkpt>
      <trkpt lat="42.93259" lon="-2.23909">
        <ele>565.4</ele>
        <time>2021-05-29 08:21:53</time>
      </trkpt>
      <trkpt lat="42.93262" lon="-2.23917">
        <ele>565.4</ele>
        <time>2021-05-29 08:21:54</time>
      </trkpt>
      <trkpt lat="42.93266" lon="-2.23925">
        <ele>565.4</ele>
        <time>2021-05-29 08:21:55</time>
      </trkpt>
      <trkpt lat="42.93269" lon="-2.23933">
        <ele>565.4</ele>
        <time>2021-05-29 08:21:56</time>
      </trkpt>
      <trkpt lat="42.93272" lon="-2.23941">
        <ele>565.6</ele>
        <time>2021-05-29 08:21:57</time>
      </trkpt>
      <trkpt lat="42.93275" lon="-2.2395">
        <ele>565.6</ele>
        <time>2021-05-29 08:21:58</time>
      </trkpt>
      <trkpt lat="42.93278" lon="-2.23959">
        <ele>565.6</ele>
        <time>2021-05-29 08:21:59</time>
      </trkpt>
      <trkpt lat="42.93282" lon="-2.23967">
        <ele>565.6</ele>
        <time>2021-05-29 08:22:00</time>
      </trkpt>
      <trkpt lat="42.93285" lon="-2.23975">
        <ele>565.6</ele>
        <time>2021-05-29 08:22:01</time>
      </trkpt>
      <trkpt lat="42.93288" lon="-2.23984">
        <ele>565.6</ele>
        <time>2021-05-29 08:22:02</time>
      </trkpt>
      <trkpt lat="42.9329" lon="-2.23993">
        <ele>565.8</ele>
        <time>2021-05-29 08:22:03</time>
      </trkpt>
      <trkpt lat="42.93293" lon="-2.24003">
        <ele>565.8</ele>
        <time>2021-05-29 08:22:04</time>
      </trkpt>
      <trkpt lat="42.93295" lon="-2.24013">
        <ele>565.8</ele>
        <time>2021-05-29 08:22:05</time>
      </trkpt>
      <trkpt lat="42.93296" lon="-2.24022">
        <ele>565.8</ele>
        <time>2021-05-29 08:22:06</time>
      </trkpt>
      <trkpt lat="42.93298" lon="-2.24032">
        <ele>566</ele>
        <time>2021-05-29 08:22:07</time>
      </trkpt>
      <trkpt lat="42.93299" lon="-2.24041">
        <ele>566</ele>
        <time>2021-05-29 08:22:08</time>
      </trkpt>
      <trkpt lat="42.93301" lon="-2.24051">
        <ele>566</ele>
        <time>2021-05-29 08:22:09</time>
      </trkpt>
      <trkpt lat="42.93303" lon="-2.24061">
        <ele>566</ele>
        <time>2021-05-29 08:22:10</time>
      </trkpt>
      <trkpt lat="42.93306" lon="-2.2407">
        <ele>566</ele>
        <time>2021-05-29 08:22:11</time>
      </trkpt>
      <trkpt lat="42.93308" lon="-2.2408">
        <ele>566</ele>
        <time>2021-05-29 08:22:12</time>
      </trkpt>
      <trkpt lat="42.9331" lon="-2.24089">
        <ele>566</ele>
        <time>2021-05-29 08:22:13</time>
      </trkpt>
      <trkpt lat="42.93312" lon="-2.24099">
        <ele>566</ele>
        <time>2021-05-29 08:22:14</time>
      </trkpt>
      <trkpt lat="42.93316" lon="-2.24107">
        <ele>566.2</ele>
        <time>2021-05-29 08:22:15</time>
      </trkpt>
      <trkpt lat="42.93319" lon="-2.24114">
        <ele>566.2</ele>
        <time>2021-05-29 08:22:16</time>
      </trkpt>
      <trkpt lat="42.93324" lon="-2.2412">
        <ele>566.2</ele>
        <time>2021-05-29 08:22:17</time>
      </trkpt>
      <trkpt lat="42.93328" lon="-2.24127">
        <ele>566.2</ele>
        <time>2021-05-29 08:22:18</time>
      </trkpt>
      <trkpt lat="42.93334" lon="-2.24133">
        <ele>566.4</ele>
        <time>2021-05-29 08:22:19</time>
      </trkpt>
      <trkpt lat="42.93339" lon="-2.24139">
        <ele>566.4</ele>
        <time>2021-05-29 08:22:20</time>
      </trkpt>
      <trkpt lat="42.93345" lon="-2.24146">
        <ele>566.4</ele>
        <time>2021-05-29 08:22:21</time>
      </trkpt>
      <trkpt lat="42.9335" lon="-2.24153">
        <ele>566.4</ele>
        <time>2021-05-29 08:22:22</time>
      </trkpt>
      <trkpt lat="42.93356" lon="-2.2416">
        <ele>566.4</ele>
        <time>2021-05-29 08:22:23</time>
      </trkpt>
      <trkpt lat="42.93362" lon="-2.24167">
        <ele>566.4</ele>
        <time>2021-05-29 08:22:24</time>
      </trkpt>
      <trkpt lat="42.93368" lon="-2.24174">
        <ele>566.6</ele>
        <time>2021-05-29 08:22:25</time>
      </trkpt>
      <trkpt lat="42.93374" lon="-2.24182">
        <ele>566.6</ele>
        <time>2021-05-29 08:22:26</time>
      </trkpt>
      <trkpt lat="42.93379" lon="-2.24189">
        <ele>566.6</ele>
        <time>2021-05-29 08:22:27</time>
      </trkpt>
      <trkpt lat="42.93385" lon="-2.24197">
        <ele>566.6</ele>
        <time>2021-05-29 08:22:28</time>
      </trkpt>
      <trkpt lat="42.93392" lon="-2.24204">
        <ele>566.6</ele>
        <time>2021-05-29 08:22:29</time>
      </trkpt>
      <trkpt lat="42.93398" lon="-2.24211">
        <ele>566.6</ele>
        <time>2021-05-29 08:22:30</time>
      </trkpt>
      <trkpt lat="42.93403" lon="-2.2422">
        <ele>566.6</ele>
        <time>2021-05-29 08:22:31</time>
      </trkpt>
      <trkpt lat="42.93408" lon="-2.24229">
        <ele>566.6</ele>
        <time>2021-05-29 08:22:32</time>
      </trkpt>
      <trkpt lat="42.93413" lon="-2.24238">
        <ele>566.6</ele>
        <time>2021-05-29 08:22:33</time>
      </trkpt>
      <trkpt lat="42.93417" lon="-2.24247">
        <ele>566.6</ele>
        <time>2021-05-29 08:22:34</time>
      </trkpt>
      <trkpt lat="42.93421" lon="-2.24257">
        <ele>566.8</ele>
        <time>2021-05-29 08:22:35</time>
      </trkpt>
      <trkpt lat="42.93427" lon="-2.24269">
        <ele>566.8</ele>
        <time>2021-05-29 08:22:36</time>
      </trkpt>
      <trkpt lat="42.93432" lon="-2.24281">
        <ele>567</ele>
        <time>2021-05-29 08:22:37</time>
      </trkpt>
      <trkpt lat="42.93437" lon="-2.24293">
        <ele>567</ele>
        <time>2021-05-29 08:22:38</time>
      </trkpt>
      <trkpt lat="42.93442" lon="-2.24304">
        <ele>567.2</ele>
        <time>2021-05-29 08:22:39</time>
      </trkpt>
      <trkpt lat="42.93446" lon="-2.24314">
        <ele>567.2</ele>
        <time>2021-05-29 08:22:40</time>
      </trkpt>
      <trkpt lat="42.9345" lon="-2.24323">
        <ele>567.4</ele>
        <time>2021-05-29 08:22:41</time>
      </trkpt>
      <trkpt lat="42.93454" lon="-2.24333">
        <ele>567.4</ele>
        <time>2021-05-29 08:22:42</time>
      </trkpt>
      <trkpt lat="42.93458" lon="-2.24342">
        <ele>567.4</ele>
        <time>2021-05-29 08:22:43</time>
      </trkpt>
      <trkpt lat="42.93461" lon="-2.24352">
        <ele>567.4</ele>
        <time>2021-05-29 08:22:44</time>
      </trkpt>
      <trkpt lat="42.93463" lon="-2.24364">
        <ele>567.4</ele>
        <time>2021-05-29 08:22:45</time>
      </trkpt>
      <trkpt lat="42.93466" lon="-2.24378">
        <ele>567.4</ele>
        <time>2021-05-29 08:22:46</time>
      </trkpt>
      <trkpt lat="42.93466" lon="-2.24389">
        <ele>567.6</ele>
        <time>2021-05-29 08:22:47</time>
      </trkpt>
      <trkpt lat="42.93468" lon="-2.24402">
        <ele>567.6</ele>
        <time>2021-05-29 08:22:48</time>
      </trkpt>
      <trkpt lat="42.93469" lon="-2.24414">
        <ele>567.6</ele>
        <time>2021-05-29 08:22:49</time>
      </trkpt>
      <trkpt lat="42.9347" lon="-2.24425">
        <ele>567.6</ele>
        <time>2021-05-29 08:22:50</time>
      </trkpt>
      <trkpt lat="42.93472" lon="-2.24436">
        <ele>567.6</ele>
        <time>2021-05-29 08:22:51</time>
      </trkpt>
      <trkpt lat="42.93473" lon="-2.24447">
        <ele>567.6</ele>
        <time>2021-05-29 08:22:52</time>
      </trkpt>
      <trkpt lat="42.93474" lon="-2.24458">
        <ele>567.6</ele>
        <time>2021-05-29 08:22:53</time>
      </trkpt>
      <trkpt lat="42.93475" lon="-2.24467">
        <ele>567.6</ele>
        <time>2021-05-29 08:22:54</time>
      </trkpt>
      <trkpt lat="42.93477" lon="-2.24476">
        <ele>567.8</ele>
        <time>2021-05-29 08:22:55</time>
      </trkpt>
      <trkpt lat="42.93478" lon="-2.24485">
        <ele>567.8</ele>
        <time>2021-05-29 08:22:56</time>
      </trkpt>
      <trkpt lat="42.93479" lon="-2.24492">
        <ele>567.8</ele>
        <time>2021-05-29 08:22:57</time>
      </trkpt>
      <trkpt lat="42.93481" lon="-2.24501">
        <ele>567.8</ele>
        <time>2021-05-29 08:22:58</time>
      </trkpt>
      <trkpt lat="42.93483" lon="-2.24509">
        <ele>568</ele>
        <time>2021-05-29 08:22:59</time>
      </trkpt>
      <trkpt lat="42.93485" lon="-2.24518">
        <ele>568.2</ele>
        <time>2021-05-29 08:23:00</time>
      </trkpt>
      <trkpt lat="42.93487" lon="-2.24525">
        <ele>568.2</ele>
        <time>2021-05-29 08:23:01</time>
      </trkpt>
      <trkpt lat="42.93488" lon="-2.24533">
        <ele>568.4</ele>
        <time>2021-05-29 08:23:02</time>
      </trkpt>
      <trkpt lat="42.93489" lon="-2.24541">
        <ele>568.4</ele>
        <time>2021-05-29 08:23:03</time>
      </trkpt>
      <trkpt lat="42.93491" lon="-2.24548">
        <ele>568.4</ele>
        <time>2021-05-29 08:23:04</time>
      </trkpt>
      <trkpt lat="42.93493" lon="-2.24556">
        <ele>568.6</ele>
        <time>2021-05-29 08:23:05</time>
      </trkpt>
      <trkpt lat="42.93494" lon="-2.24563">
        <ele>568.6</ele>
        <time>2021-05-29 08:23:06</time>
      </trkpt>
      <trkpt lat="42.93496" lon="-2.24571">
        <ele>568.6</ele>
        <time>2021-05-29 08:23:07</time>
      </trkpt>
      <trkpt lat="42.93497" lon="-2.24578">
        <ele>568.6</ele>
        <time>2021-05-29 08:23:08</time>
      </trkpt>
      <trkpt lat="42.93498" lon="-2.24586">
        <ele>568.6</ele>
        <time>2021-05-29 08:23:09</time>
      </trkpt>
      <trkpt lat="42.935" lon="-2.24594">
        <ele>568.8</ele>
        <time>2021-05-29 08:23:10</time>
      </trkpt>
      <trkpt lat="42.93502" lon="-2.24601">
        <ele>569</ele>
        <time>2021-05-29 08:23:11</time>
      </trkpt>
      <trkpt lat="42.93503" lon="-2.24609">
        <ele>568.8</ele>
        <time>2021-05-29 08:23:12</time>
      </trkpt>
      <trkpt lat="42.93504" lon="-2.24616">
        <ele>569</ele>
        <time>2021-05-29 08:23:13</time>
      </trkpt>
      <trkpt lat="42.93505" lon="-2.24623">
        <ele>569</ele>
        <time>2021-05-29 08:23:14</time>
      </trkpt>
      <trkpt lat="42.93506" lon="-2.24631">
        <ele>569.2</ele>
        <time>2021-05-29 08:23:15</time>
      </trkpt>
      <trkpt lat="42.93507" lon="-2.24638">
        <ele>569.2</ele>
        <time>2021-05-29 08:23:16</time>
      </trkpt>
      <trkpt lat="42.93509" lon="-2.24645">
        <ele>569.2</ele>
        <time>2021-05-29 08:23:17</time>
      </trkpt>
      <trkpt lat="42.93511" lon="-2.24651">
        <ele>569.2</ele>
        <time>2021-05-29 08:23:18</time>
      </trkpt>
      <trkpt lat="42.93513" lon="-2.24657">
        <ele>569.4</ele>
        <time>2021-05-29 08:23:19</time>
      </trkpt>
      <trkpt lat="42.93515" lon="-2.24663">
        <ele>569.4</ele>
        <time>2021-05-29 08:23:20</time>
      </trkpt>
      <trkpt lat="42.93517" lon="-2.24668">
        <ele>569.4</ele>
        <time>2021-05-29 08:23:21</time>
      </trkpt>
      <trkpt lat="42.93519" lon="-2.24674">
        <ele>569.4</ele>
        <time>2021-05-29 08:23:22</time>
      </trkpt>
      <trkpt lat="42.93522" lon="-2.24679">
        <ele>569.4</ele>
        <time>2021-05-29 08:23:23</time>
      </trkpt>
      <trkpt lat="42.93524" lon="-2.24685">
        <ele>569.6</ele>
        <time>2021-05-29 08:23:24</time>
      </trkpt>
      <trkpt lat="42.93527" lon="-2.24691">
        <ele>569.6</ele>
        <time>2021-05-29 08:23:25</time>
      </trkpt>
      <trkpt lat="42.93529" lon="-2.24697">
        <ele>569.6</ele>
        <time>2021-05-29 08:23:26</time>
      </trkpt>
      <trkpt lat="42.93531" lon="-2.24702">
        <ele>569.8</ele>
        <time>2021-05-29 08:23:27</time>
      </trkpt>
      <trkpt lat="42.93534" lon="-2.24708">
        <ele>570</ele>
        <time>2021-05-29 08:23:28</time>
      </trkpt>
      <trkpt lat="42.93536" lon="-2.24714">
        <ele>570</ele>
        <time>2021-05-29 08:23:29</time>
      </trkpt>
      <trkpt lat="42.93538" lon="-2.2472">
        <ele>570</ele>
        <time>2021-05-29 08:23:30</time>
      </trkpt>
      <trkpt lat="42.93541" lon="-2.24726">
        <ele>570</ele>
        <time>2021-05-29 08:23:31</time>
      </trkpt>
      <trkpt lat="42.93544" lon="-2.24732">
        <ele>570.2</ele>
        <time>2021-05-29 08:23:32</time>
      </trkpt>
      <trkpt lat="42.93546" lon="-2.24738">
        <ele>570.2</ele>
        <time>2021-05-29 08:23:33</time>
      </trkpt>
      <trkpt lat="42.93549" lon="-2.24743">
        <ele>570.2</ele>
        <time>2021-05-29 08:23:34</time>
      </trkpt>
      <trkpt lat="42.93551" lon="-2.24749">
        <ele>570.2</ele>
        <time>2021-05-29 08:23:35</time>
      </trkpt>
      <trkpt lat="42.93554" lon="-2.24755">
        <ele>570.4</ele>
        <time>2021-05-29 08:23:36</time>
      </trkpt>
      <trkpt lat="42.93556" lon="-2.24761">
        <ele>570.4</ele>
        <time>2021-05-29 08:23:37</time>
      </trkpt>
      <trkpt lat="42.93558" lon="-2.24767">
        <ele>570.4</ele>
        <time>2021-05-29 08:23:38</time>
      </trkpt>
      <trkpt lat="42.93559" lon="-2.24774">
        <ele>570.4</ele>
        <time>2021-05-29 08:23:39</time>
      </trkpt>
      <trkpt lat="42.93561" lon="-2.24779">
        <ele>570.4</ele>
        <time>2021-05-29 08:23:40</time>
      </trkpt>
      <trkpt lat="42.93563" lon="-2.24785">
        <ele>570.6</ele>
        <time>2021-05-29 08:23:41</time>
      </trkpt>
      <trkpt lat="42.93565" lon="-2.24791">
        <ele>570.8</ele>
        <time>2021-05-29 08:23:42</time>
      </trkpt>
      <trkpt lat="42.93566" lon="-2.24797">
        <ele>570.6</ele>
        <time>2021-05-29 08:23:43</time>
      </trkpt>
      <trkpt lat="42.93567" lon="-2.24803">
        <ele>570.8</ele>
        <time>2021-05-29 08:23:44</time>
      </trkpt>
      <trkpt lat="42.93569" lon="-2.24809">
        <ele>570.8</ele>
        <time>2021-05-29 08:23:45</time>
      </trkpt>
      <trkpt lat="42.9357" lon="-2.24815">
        <ele>570.8</ele>
        <time>2021-05-29 08:23:46</time>
      </trkpt>
      <trkpt lat="42.93571" lon="-2.24821">
        <ele>571</ele>
        <time>2021-05-29 08:23:47</time>
      </trkpt>
      <trkpt lat="42.93573" lon="-2.24828">
        <ele>571.4</ele>
        <time>2021-05-29 08:23:48</time>
      </trkpt>
      <trkpt lat="42.93574" lon="-2.24835">
        <ele>571.4</ele>
        <time>2021-05-29 08:23:49</time>
      </trkpt>
      <trkpt lat="42.93576" lon="-2.24841">
        <ele>571.4</ele>
        <time>2021-05-29 08:23:50</time>
      </trkpt>
      <trkpt lat="42.93577" lon="-2.24848">
        <ele>571.6</ele>
        <time>2021-05-29 08:23:51</time>
      </trkpt>
      <trkpt lat="42.93578" lon="-2.24854">
        <ele>571.6</ele>
        <time>2021-05-29 08:23:52</time>
      </trkpt>
      <trkpt lat="42.93578" lon="-2.24861">
        <ele>571.8</ele>
        <time>2021-05-29 08:23:53</time>
      </trkpt>
      <trkpt lat="42.93579" lon="-2.24867">
        <ele>571.8</ele>
        <time>2021-05-29 08:23:54</time>
      </trkpt>
      <trkpt lat="42.93579" lon="-2.24874">
        <ele>571.8</ele>
        <time>2021-05-29 08:23:55</time>
      </trkpt>
      <trkpt lat="42.93579" lon="-2.24881">
        <ele>571.8</ele>
        <time>2021-05-29 08:23:56</time>
      </trkpt>
      <trkpt lat="42.93578" lon="-2.24888">
        <ele>572</ele>
        <time>2021-05-29 08:23:57</time>
      </trkpt>
      <trkpt lat="42.93578" lon="-2.24895">
        <ele>571.8</ele>
        <time>2021-05-29 08:23:58</time>
      </trkpt>
      <trkpt lat="42.93578" lon="-2.24903">
        <ele>571.8</ele>
        <time>2021-05-29 08:23:59</time>
      </trkpt>
      <trkpt lat="42.93579" lon="-2.24911">
        <ele>572</ele>
        <time>2021-05-29 08:24:00</time>
      </trkpt>
      <trkpt lat="42.93578" lon="-2.24918">
        <ele>572</ele>
        <time>2021-05-29 08:24:01</time>
      </trkpt>
      <trkpt lat="42.93578" lon="-2.24926">
        <ele>572.2</ele>
        <time>2021-05-29 08:24:02</time>
      </trkpt>
      <trkpt lat="42.93578" lon="-2.24934">
        <ele>572.4</ele>
        <time>2021-05-29 08:24:03</time>
      </trkpt>
      <trkpt lat="42.93578" lon="-2.24941">
        <ele>572.4</ele>
        <time>2021-05-29 08:24:04</time>
      </trkpt>
      <trkpt lat="42.93579" lon="-2.24949">
        <ele>572.6</ele>
        <time>2021-05-29 08:24:05</time>
      </trkpt>
      <trkpt lat="42.93579" lon="-2.24956">
        <ele>572.6</ele>
        <time>2021-05-29 08:24:06</time>
      </trkpt>
      <trkpt lat="42.93579" lon="-2.24963">
        <ele>572.4</ele>
        <time>2021-05-29 08:24:07</time>
      </trkpt>
      <trkpt lat="42.9358" lon="-2.2497">
        <ele>572.6</ele>
        <time>2021-05-29 08:24:08</time>
      </trkpt>
      <trkpt lat="42.9358" lon="-2.24977">
        <ele>572.6</ele>
        <time>2021-05-29 08:24:09</time>
      </trkpt>
      <trkpt lat="42.93581" lon="-2.24985">
        <ele>572.6</ele>
        <time>2021-05-29 08:24:10</time>
      </trkpt>
      <trkpt lat="42.93581" lon="-2.24992">
        <ele>572.6</ele>
        <time>2021-05-29 08:24:11</time>
      </trkpt>
      <trkpt lat="42.93581" lon="-2.24999">
        <ele>573</ele>
        <time>2021-05-29 08:24:12</time>
      </trkpt>
      <trkpt lat="42.93582" lon="-2.25006">
        <ele>573</ele>
        <time>2021-05-29 08:24:13</time>
      </trkpt>
      <trkpt lat="42.93582" lon="-2.25013">
        <ele>573.2</ele>
        <time>2021-05-29 08:24:14</time>
      </trkpt>
      <trkpt lat="42.93582" lon="-2.2502">
        <ele>573.4</ele>
        <time>2021-05-29 08:24:15</time>
      </trkpt>
      <trkpt lat="42.93583" lon="-2.25027">
        <ele>573.4</ele>
        <time>2021-05-29 08:24:16</time>
      </trkpt>
      <trkpt lat="42.93584" lon="-2.25033">
        <ele>573.4</ele>
        <time>2021-05-29 08:24:17</time>
      </trkpt>
      <trkpt lat="42.93584" lon="-2.2504">
        <ele>573.6</ele>
        <time>2021-05-29 08:24:18</time>
      </trkpt>
      <trkpt lat="42.93585" lon="-2.25047">
        <ele>573.8</ele>
        <time>2021-05-29 08:24:19</time>
      </trkpt>
      <trkpt lat="42.93585" lon="-2.25054">
        <ele>573.8</ele>
        <time>2021-05-29 08:24:20</time>
      </trkpt>
      <trkpt lat="42.93586" lon="-2.25061">
        <ele>573.8</ele>
        <time>2021-05-29 08:24:21</time>
      </trkpt>
      <trkpt lat="42.93587" lon="-2.25068">
        <ele>573.8</ele>
        <time>2021-05-29 08:24:22</time>
      </trkpt>
      <trkpt lat="42.93588" lon="-2.25074">
        <ele>573.8</ele>
        <time>2021-05-29 08:24:23</time>
      </trkpt>
      <trkpt lat="42.93589" lon="-2.2508">
        <ele>573.8</ele>
        <time>2021-05-29 08:24:24</time>
      </trkpt>
      <trkpt lat="42.93591" lon="-2.25087">
        <ele>574</ele>
        <time>2021-05-29 08:24:25</time>
      </trkpt>
      <trkpt lat="42.93592" lon="-2.25093">
        <ele>574.2</ele>
        <time>2021-05-29 08:24:26</time>
      </trkpt>
      <trkpt lat="42.93594" lon="-2.25099">
        <ele>574.2</ele>
        <time>2021-05-29 08:24:27</time>
      </trkpt>
      <trkpt lat="42.93595" lon="-2.25105">
        <ele>574.2</ele>
        <time>2021-05-29 08:24:28</time>
      </trkpt>
      <trkpt lat="42.93597" lon="-2.25111">
        <ele>574.4</ele>
        <time>2021-05-29 08:24:29</time>
      </trkpt>
      <trkpt lat="42.93599" lon="-2.25117">
        <ele>574.4</ele>
        <time>2021-05-29 08:24:30</time>
      </trkpt>
      <trkpt lat="42.936" lon="-2.25123">
        <ele>574.4</ele>
        <time>2021-05-29 08:24:31</time>
      </trkpt>
      <trkpt lat="42.93602" lon="-2.25129">
        <ele>574.6</ele>
        <time>2021-05-29 08:24:32</time>
      </trkpt>
      <trkpt lat="42.93604" lon="-2.25135">
        <ele>574.4</ele>
        <time>2021-05-29 08:24:33</time>
      </trkpt>
      <trkpt lat="42.93606" lon="-2.25141">
        <ele>574.4</ele>
        <time>2021-05-29 08:24:34</time>
      </trkpt>
      <trkpt lat="42.93607" lon="-2.25147">
        <ele>574.6</ele>
        <time>2021-05-29 08:24:35</time>
      </trkpt>
      <trkpt lat="42.93609" lon="-2.25153">
        <ele>574.6</ele>
        <time>2021-05-29 08:24:36</time>
      </trkpt>
      <trkpt lat="42.93611" lon="-2.25159">
        <ele>574.8</ele>
        <time>2021-05-29 08:24:37</time>
      </trkpt>
      <trkpt lat="42.93613" lon="-2.25166">
        <ele>574.8</ele>
        <time>2021-05-29 08:24:38</time>
      </trkpt>
      <trkpt lat="42.93615" lon="-2.25172">
        <ele>575</ele>
        <time>2021-05-29 08:24:39</time>
      </trkpt>
      <trkpt lat="42.93616" lon="-2.25178">
        <ele>574.8</ele>
        <time>2021-05-29 08:24:40</time>
      </trkpt>
      <trkpt lat="42.93618" lon="-2.25184">
        <ele>575</ele>
        <time>2021-05-29 08:24:41</time>
      </trkpt>
      <trkpt lat="42.9362" lon="-2.2519">
        <ele>575</ele>
        <time>2021-05-29 08:24:42</time>
      </trkpt>
      <trkpt lat="42.93622" lon="-2.25196">
        <ele>575.2</ele>
        <time>2021-05-29 08:24:43</time>
      </trkpt>
      <trkpt lat="42.93623" lon="-2.25201">
        <ele>575.2</ele>
        <time>2021-05-29 08:24:44</time>
      </trkpt>
      <trkpt lat="42.93626" lon="-2.25207">
        <ele>575.2</ele>
        <time>2021-05-29 08:24:45</time>
      </trkpt>
      <trkpt lat="42.93628" lon="-2.25212">
        <ele>575.4</ele>
        <time>2021-05-29 08:24:46</time>
      </trkpt>
      <trkpt lat="42.9363" lon="-2.25218">
        <ele>575.2</ele>
        <time>2021-05-29 08:24:47</time>
      </trkpt>
      <trkpt lat="42.93633" lon="-2.25223">
        <ele>575.2</ele>
        <time>2021-05-29 08:24:48</time>
      </trkpt>
      <trkpt lat="42.93635" lon="-2.25228">
        <ele>575.4</ele>
        <time>2021-05-29 08:24:49</time>
      </trkpt>
      <trkpt lat="42.93637" lon="-2.25232">
        <ele>575.4</ele>
        <time>2021-05-29 08:24:50</time>
      </trkpt>
      <trkpt lat="42.93639" lon="-2.25237">
        <ele>575.6</ele>
        <time>2021-05-29 08:24:51</time>
      </trkpt>
      <trkpt lat="42.93642" lon="-2.25242">
        <ele>575.6</ele>
        <time>2021-05-29 08:24:52</time>
      </trkpt>
      <trkpt lat="42.93645" lon="-2.25246">
        <ele>575.6</ele>
        <time>2021-05-29 08:24:53</time>
      </trkpt>
      <trkpt lat="42.93648" lon="-2.25251">
        <ele>575.8</ele>
        <time>2021-05-29 08:24:54</time>
      </trkpt>
      <trkpt lat="42.9365" lon="-2.25255">
        <ele>575.8</ele>
        <time>2021-05-29 08:24:55</time>
      </trkpt>
      <trkpt lat="42.93653" lon="-2.25259">
        <ele>576</ele>
        <time>2021-05-29 08:24:56</time>
      </trkpt>
      <trkpt lat="42.93656" lon="-2.25263">
        <ele>576</ele>
        <time>2021-05-29 08:24:57</time>
      </trkpt>
      <trkpt lat="42.93659" lon="-2.25267">
        <ele>576</ele>
        <time>2021-05-29 08:24:58</time>
      </trkpt>
      <trkpt lat="42.93662" lon="-2.2527">
        <ele>576</ele>
        <time>2021-05-29 08:24:59</time>
      </trkpt>
      <trkpt lat="42.93664" lon="-2.25275">
        <ele>576.2</ele>
        <time>2021-05-29 08:25:00</time>
      </trkpt>
      <trkpt lat="42.93668" lon="-2.25278">
        <ele>576</ele>
        <time>2021-05-29 08:25:01</time>
      </trkpt>
      <trkpt lat="42.93671" lon="-2.25282">
        <ele>576.2</ele>
        <time>2021-05-29 08:25:02</time>
      </trkpt>
      <trkpt lat="42.93674" lon="-2.25287">
        <ele>576.4</ele>
        <time>2021-05-29 08:25:03</time>
      </trkpt>
      <trkpt lat="42.93677" lon="-2.25291">
        <ele>576.6</ele>
        <time>2021-05-29 08:25:04</time>
      </trkpt>
      <trkpt lat="42.93681" lon="-2.25295">
        <ele>576.4</ele>
        <time>2021-05-29 08:25:05</time>
      </trkpt>
      <trkpt lat="42.93684" lon="-2.253">
        <ele>576.4</ele>
        <time>2021-05-29 08:25:06</time>
      </trkpt>
      <trkpt lat="42.93687" lon="-2.25304">
        <ele>576.6</ele>
        <time>2021-05-29 08:25:07</time>
      </trkpt>
      <trkpt lat="42.9369" lon="-2.25309">
        <ele>576.6</ele>
        <time>2021-05-29 08:25:08</time>
      </trkpt>
      <trkpt lat="42.93694" lon="-2.25313">
        <ele>576.6</ele>
        <time>2021-05-29 08:25:09</time>
      </trkpt>
      <trkpt lat="42.93697" lon="-2.25318">
        <ele>576.6</ele>
        <time>2021-05-29 08:25:10</time>
      </trkpt>
      <trkpt lat="42.93701" lon="-2.25322">
        <ele>576.6</ele>
        <time>2021-05-29 08:25:11</time>
      </trkpt>
      <trkpt lat="42.93704" lon="-2.25327">
        <ele>576.6</ele>
        <time>2021-05-29 08:25:12</time>
      </trkpt>
      <trkpt lat="42.93708" lon="-2.25331">
        <ele>576.6</ele>
        <time>2021-05-29 08:25:13</time>
      </trkpt>
      <trkpt lat="42.93712" lon="-2.25336">
        <ele>576.8</ele>
        <time>2021-05-29 08:25:14</time>
      </trkpt>
      <trkpt lat="42.93716" lon="-2.25341">
        <ele>576.6</ele>
        <time>2021-05-29 08:25:15</time>
      </trkpt>
      <trkpt lat="42.9372" lon="-2.25346">
        <ele>576.8</ele>
        <time>2021-05-29 08:25:16</time>
      </trkpt>
      <trkpt lat="42.93723" lon="-2.2535">
        <ele>576.8</ele>
        <time>2021-05-29 08:25:17</time>
      </trkpt>
      <trkpt lat="42.93726" lon="-2.25355">
        <ele>577</ele>
        <time>2021-05-29 08:25:18</time>
      </trkpt>
      <trkpt lat="42.93729" lon="-2.25361">
        <ele>577.2</ele>
        <time>2021-05-29 08:25:19</time>
      </trkpt>
      <trkpt lat="42.9373" lon="-2.25367">
        <ele>577.2</ele>
        <time>2021-05-29 08:25:20</time>
      </trkpt>
      <trkpt lat="42.93732" lon="-2.25374">
        <ele>577.2</ele>
        <time>2021-05-29 08:25:21</time>
      </trkpt>
      <trkpt lat="42.93734" lon="-2.2538">
        <ele>577.4</ele>
        <time>2021-05-29 08:25:22</time>
      </trkpt>
      <trkpt lat="42.93736" lon="-2.25387">
        <ele>577.4</ele>
        <time>2021-05-29 08:25:23</time>
      </trkpt>
      <trkpt lat="42.93739" lon="-2.25394">
        <ele>577.4</ele>
        <time>2021-05-29 08:25:24</time>
      </trkpt>
      <trkpt lat="42.93742" lon="-2.254">
        <ele>577.4</ele>
        <time>2021-05-29 08:25:25</time>
      </trkpt>
      <trkpt lat="42.93745" lon="-2.25405">
        <ele>577.4</ele>
        <time>2021-05-29 08:25:26</time>
      </trkpt>
      <trkpt lat="42.93748" lon="-2.25409">
        <ele>577.4</ele>
        <time>2021-05-29 08:25:27</time>
      </trkpt>
      <trkpt lat="42.93751" lon="-2.25414">
        <ele>577.6</ele>
        <time>2021-05-29 08:25:28</time>
      </trkpt>
      <trkpt lat="42.93754" lon="-2.25418">
        <ele>577.8</ele>
        <time>2021-05-29 08:25:29</time>
      </trkpt>
      <trkpt lat="42.93758" lon="-2.25423">
        <ele>577.6</ele>
        <time>2021-05-29 08:25:30</time>
      </trkpt>
      <trkpt lat="42.93762" lon="-2.25427">
        <ele>577.8</ele>
        <time>2021-05-29 08:25:31</time>
      </trkpt>
      <trkpt lat="42.93767" lon="-2.25431">
        <ele>577.8</ele>
        <time>2021-05-29 08:25:32</time>
      </trkpt>
      <trkpt lat="42.93771" lon="-2.25435">
        <ele>577.8</ele>
        <time>2021-05-29 08:25:33</time>
      </trkpt>
      <trkpt lat="42.93775" lon="-2.25439">
        <ele>577.8</ele>
        <time>2021-05-29 08:25:34</time>
      </trkpt>
      <trkpt lat="42.93779" lon="-2.25443">
        <ele>578</ele>
        <time>2021-05-29 08:25:35</time>
      </trkpt>
      <trkpt lat="42.93783" lon="-2.25446">
        <ele>578</ele>
        <time>2021-05-29 08:25:36</time>
      </trkpt>
      <trkpt lat="42.93786" lon="-2.25451">
        <ele>578</ele>
        <time>2021-05-29 08:25:37</time>
      </trkpt>
      <trkpt lat="42.9379" lon="-2.25455">
        <ele>578.2</ele>
        <time>2021-05-29 08:25:38</time>
      </trkpt>
      <trkpt lat="42.93793" lon="-2.25459">
        <ele>578</ele>
        <time>2021-05-29 08:25:39</time>
      </trkpt>
      <trkpt lat="42.93796" lon="-2.25463">
        <ele>578.2</ele>
        <time>2021-05-29 08:25:40</time>
      </trkpt>
      <trkpt lat="42.93799" lon="-2.25469">
        <ele>578.2</ele>
        <time>2021-05-29 08:25:41</time>
      </trkpt>
      <trkpt lat="42.93802" lon="-2.25476">
        <ele>578.4</ele>
        <time>2021-05-29 08:25:42</time>
      </trkpt>
      <trkpt lat="42.93805" lon="-2.25484">
        <ele>578.4</ele>
        <time>2021-05-29 08:25:43</time>
      </trkpt>
      <trkpt lat="42.93808" lon="-2.25492">
        <ele>578.6</ele>
        <time>2021-05-29 08:25:44</time>
      </trkpt>
      <trkpt lat="42.93809" lon="-2.25499">
        <ele>578.4</ele>
        <time>2021-05-29 08:25:45</time>
      </trkpt>
      <trkpt lat="42.93811" lon="-2.25504">
        <ele>578.4</ele>
        <time>2021-05-29 08:25:46</time>
      </trkpt>
      <trkpt lat="42.93812" lon="-2.2551">
        <ele>578.6</ele>
        <time>2021-05-29 08:25:47</time>
      </trkpt>
      <trkpt lat="42.93813" lon="-2.25517">
        <ele>578.6</ele>
        <time>2021-05-29 08:25:48</time>
      </trkpt>
      <trkpt lat="42.93814" lon="-2.25523">
        <ele>578.6</ele>
        <time>2021-05-29 08:25:49</time>
      </trkpt>
      <trkpt lat="42.93815" lon="-2.2553">
        <ele>578.8</ele>
        <time>2021-05-29 08:25:50</time>
      </trkpt>
      <trkpt lat="42.93816" lon="-2.25537">
        <ele>578.8</ele>
        <time>2021-05-29 08:25:51</time>
      </trkpt>
      <trkpt lat="42.93817" lon="-2.25542">
        <ele>578.8</ele>
        <time>2021-05-29 08:25:52</time>
      </trkpt>
      <trkpt lat="42.93818" lon="-2.25548">
        <ele>579</ele>
        <time>2021-05-29 08:25:53</time>
      </trkpt>
      <trkpt lat="42.9382" lon="-2.25553">
        <ele>579</ele>
        <time>2021-05-29 08:25:54</time>
      </trkpt>
      <trkpt lat="42.93821" lon="-2.25558">
        <ele>579</ele>
        <time>2021-05-29 08:25:55</time>
      </trkpt>
      <trkpt lat="42.93823" lon="-2.25564">
        <ele>579.2</ele>
        <time>2021-05-29 08:25:56</time>
      </trkpt>
      <trkpt lat="42.93825" lon="-2.25569">
        <ele>579.2</ele>
        <time>2021-05-29 08:25:57</time>
      </trkpt>
      <trkpt lat="42.93827" lon="-2.25575">
        <ele>579.4</ele>
        <time>2021-05-29 08:25:58</time>
      </trkpt>
      <trkpt lat="42.93829" lon="-2.25581">
        <ele>579.4</ele>
        <time>2021-05-29 08:25:59</time>
      </trkpt>
      <trkpt lat="42.93831" lon="-2.25586">
        <ele>579.2</ele>
        <time>2021-05-29 08:26:00</time>
      </trkpt>
      <trkpt lat="42.93832" lon="-2.25593">
        <ele>579.4</ele>
        <time>2021-05-29 08:26:01</time>
      </trkpt>
      <trkpt lat="42.93834" lon="-2.25599">
        <ele>579.6</ele>
        <time>2021-05-29 08:26:02</time>
      </trkpt>
      <trkpt lat="42.93836" lon="-2.25605">
        <ele>579.6</ele>
        <time>2021-05-29 08:26:03</time>
      </trkpt>
      <trkpt lat="42.93837" lon="-2.25611">
        <ele>579.6</ele>
        <time>2021-05-29 08:26:04</time>
      </trkpt>
      <trkpt lat="42.93838" lon="-2.25617">
        <ele>579.6</ele>
        <time>2021-05-29 08:26:05</time>
      </trkpt>
      <trkpt lat="42.9384" lon="-2.25623">
        <ele>579.6</ele>
        <time>2021-05-29 08:26:06</time>
      </trkpt>
      <trkpt lat="42.93842" lon="-2.25629">
        <ele>579.8</ele>
        <time>2021-05-29 08:26:07</time>
      </trkpt>
      <trkpt lat="42.93844" lon="-2.25635">
        <ele>579.6</ele>
        <time>2021-05-29 08:26:08</time>
      </trkpt>
      <trkpt lat="42.93846" lon="-2.2564">
        <ele>579.8</ele>
        <time>2021-05-29 08:26:09</time>
      </trkpt>
      <trkpt lat="42.93848" lon="-2.25646">
        <ele>579.8</ele>
        <time>2021-05-29 08:26:10</time>
      </trkpt>
      <trkpt lat="42.93849" lon="-2.2565">
        <ele>579.8</ele>
        <time>2021-05-29 08:26:11</time>
      </trkpt>
      <trkpt lat="42.93851" lon="-2.25655">
        <ele>579.8</ele>
        <time>2021-05-29 08:26:12</time>
      </trkpt>
      <trkpt lat="42.93853" lon="-2.2566">
        <ele>580</ele>
        <time>2021-05-29 08:26:13</time>
      </trkpt>
      <trkpt lat="42.93856" lon="-2.25667">
        <ele>580</ele>
        <time>2021-05-29 08:26:14</time>
      </trkpt>
      <trkpt lat="42.93857" lon="-2.25673">
        <ele>580</ele>
        <time>2021-05-29 08:26:15</time>
      </trkpt>
      <trkpt lat="42.93858" lon="-2.2568">
        <ele>580</ele>
        <time>2021-05-29 08:26:16</time>
      </trkpt>
      <trkpt lat="42.93858" lon="-2.25686">
        <ele>580</ele>
        <time>2021-05-29 08:26:17</time>
      </trkpt>
      <trkpt lat="42.93858" lon="-2.25693">
        <ele>580</ele>
        <time>2021-05-29 08:26:18</time>
      </trkpt>
      <trkpt lat="42.93858" lon="-2.25699">
        <ele>580</ele>
        <time>2021-05-29 08:26:19</time>
      </trkpt>
      <trkpt lat="42.93858" lon="-2.25708">
        <ele>580.2</ele>
        <time>2021-05-29 08:26:20</time>
      </trkpt>
      <trkpt lat="42.93857" lon="-2.25716">
        <ele>580.2</ele>
        <time>2021-05-29 08:26:21</time>
      </trkpt>
      <trkpt lat="42.93856" lon="-2.25724">
        <ele>580.4</ele>
        <time>2021-05-29 08:26:22</time>
      </trkpt>
      <trkpt lat="42.93856" lon="-2.25732">
        <ele>580.2</ele>
        <time>2021-05-29 08:26:23</time>
      </trkpt>
      <trkpt lat="42.93855" lon="-2.2574">
        <ele>580.2</ele>
        <time>2021-05-29 08:26:24</time>
      </trkpt>
      <trkpt lat="42.93854" lon="-2.25748">
        <ele>580.2</ele>
        <time>2021-05-29 08:26:25</time>
      </trkpt>
      <trkpt lat="42.93853" lon="-2.25755">
        <ele>580.4</ele>
        <time>2021-05-29 08:26:26</time>
      </trkpt>
      <trkpt lat="42.93851" lon="-2.25763">
        <ele>580.4</ele>
        <time>2021-05-29 08:26:27</time>
      </trkpt>
      <trkpt lat="42.9385" lon="-2.2577">
        <ele>580.4</ele>
        <time>2021-05-29 08:26:28</time>
      </trkpt>
      <trkpt lat="42.93848" lon="-2.25777">
        <ele>580.6</ele>
        <time>2021-05-29 08:26:29</time>
      </trkpt>
      <trkpt lat="42.93847" lon="-2.25785">
        <ele>580.6</ele>
        <time>2021-05-29 08:26:30</time>
      </trkpt>
      <trkpt lat="42.93845" lon="-2.25792">
        <ele>580.6</ele>
        <time>2021-05-29 08:26:31</time>
      </trkpt>
      <trkpt lat="42.93844" lon="-2.25799">
        <ele>580.6</ele>
        <time>2021-05-29 08:26:32</time>
      </trkpt>
      <trkpt lat="42.93842" lon="-2.25806">
        <ele>580.6</ele>
        <time>2021-05-29 08:26:33</time>
      </trkpt>
      <trkpt lat="42.93841" lon="-2.25813">
        <ele>580.8</ele>
        <time>2021-05-29 08:26:34</time>
      </trkpt>
      <trkpt lat="42.9384" lon="-2.25821">
        <ele>580.8</ele>
        <time>2021-05-29 08:26:35</time>
      </trkpt>
      <trkpt lat="42.93839" lon="-2.25828">
        <ele>580.8</ele>
        <time>2021-05-29 08:26:36</time>
      </trkpt>
      <trkpt lat="42.93838" lon="-2.25835">
        <ele>580.8</ele>
        <time>2021-05-29 08:26:37</time>
      </trkpt>
      <trkpt lat="42.93838" lon="-2.25842">
        <ele>580.8</ele>
        <time>2021-05-29 08:26:38</time>
      </trkpt>
      <trkpt lat="42.93838" lon="-2.25849">
        <ele>580.8</ele>
        <time>2021-05-29 08:26:39</time>
      </trkpt>
      <trkpt lat="42.93839" lon="-2.25856">
        <ele>581</ele>
        <time>2021-05-29 08:26:40</time>
      </trkpt>
      <trkpt lat="42.9384" lon="-2.25863">
        <ele>581</ele>
        <time>2021-05-29 08:26:41</time>
      </trkpt>
      <trkpt lat="42.93841" lon="-2.2587">
        <ele>581</ele>
        <time>2021-05-29 08:26:42</time>
      </trkpt>
      <trkpt lat="42.93842" lon="-2.25877">
        <ele>581.2</ele>
        <time>2021-05-29 08:26:43</time>
      </trkpt>
      <trkpt lat="42.93843" lon="-2.25884">
        <ele>581.2</ele>
        <time>2021-05-29 08:26:44</time>
      </trkpt>
      <trkpt lat="42.93844" lon="-2.25891">
        <ele>581.4</ele>
        <time>2021-05-29 08:26:45</time>
      </trkpt>
      <trkpt lat="42.93846" lon="-2.25898">
        <ele>581.4</ele>
        <time>2021-05-29 08:26:46</time>
      </trkpt>
      <trkpt lat="42.93847" lon="-2.25905">
        <ele>581.6</ele>
        <time>2021-05-29 08:26:47</time>
      </trkpt>
      <trkpt lat="42.93848" lon="-2.25912">
        <ele>581.4</ele>
        <time>2021-05-29 08:26:48</time>
      </trkpt>
      <trkpt lat="42.93849" lon="-2.25919">
        <ele>581.4</ele>
        <time>2021-05-29 08:26:49</time>
      </trkpt>
      <trkpt lat="42.9385" lon="-2.25925">
        <ele>581.6</ele>
        <time>2021-05-29 08:26:50</time>
      </trkpt>
      <trkpt lat="42.93851" lon="-2.25932">
        <ele>581.6</ele>
        <time>2021-05-29 08:26:51</time>
      </trkpt>
      <trkpt lat="42.93853" lon="-2.25939">
        <ele>581.6</ele>
        <time>2021-05-29 08:26:52</time>
      </trkpt>
      <trkpt lat="42.93854" lon="-2.25946">
        <ele>581.8</ele>
        <time>2021-05-29 08:26:53</time>
      </trkpt>
      <trkpt lat="42.93856" lon="-2.25953">
        <ele>581.8</ele>
        <time>2021-05-29 08:26:54</time>
      </trkpt>
      <trkpt lat="42.93858" lon="-2.25959">
        <ele>581.8</ele>
        <time>2021-05-29 08:26:55</time>
      </trkpt>
      <trkpt lat="42.93859" lon="-2.25965">
        <ele>581.8</ele>
        <time>2021-05-29 08:26:56</time>
      </trkpt>
      <trkpt lat="42.93861" lon="-2.25971">
        <ele>582</ele>
        <time>2021-05-29 08:26:57</time>
      </trkpt>
      <trkpt lat="42.93864" lon="-2.25977">
        <ele>581.8</ele>
        <time>2021-05-29 08:26:58</time>
      </trkpt>
      <trkpt lat="42.93867" lon="-2.25982">
        <ele>582</ele>
        <time>2021-05-29 08:26:59</time>
      </trkpt>
      <trkpt lat="42.9387" lon="-2.25986">
        <ele>582</ele>
        <time>2021-05-29 08:27:00</time>
      </trkpt>
      <trkpt lat="42.93874" lon="-2.25989">
        <ele>582</ele>
        <time>2021-05-29 08:27:01</time>
      </trkpt>
      <trkpt lat="42.93878" lon="-2.25992">
        <ele>582.2</ele>
        <time>2021-05-29 08:27:02</time>
      </trkpt>
      <trkpt lat="42.93882" lon="-2.25995">
        <ele>582.2</ele>
        <time>2021-05-29 08:27:03</time>
      </trkpt>
      <trkpt lat="42.93886" lon="-2.25996">
        <ele>582.2</ele>
        <time>2021-05-29 08:27:04</time>
      </trkpt>
      <trkpt lat="42.9389" lon="-2.25997">
        <ele>582.2</ele>
        <time>2021-05-29 08:27:05</time>
      </trkpt>
      <trkpt lat="42.93895" lon="-2.25999">
        <ele>582.4</ele>
        <time>2021-05-29 08:27:06</time>
      </trkpt>
      <trkpt lat="42.93899" lon="-2.26">
        <ele>582.4</ele>
        <time>2021-05-29 08:27:07</time>
      </trkpt>
      <trkpt lat="42.93903" lon="-2.26">
        <ele>582.4</ele>
        <time>2021-05-29 08:27:08</time>
      </trkpt>
      <trkpt lat="42.93907" lon="-2.26001">
        <ele>582.6</ele>
        <time>2021-05-29 08:27:09</time>
      </trkpt>
      <trkpt lat="42.9391" lon="-2.26002">
        <ele>582.4</ele>
        <time>2021-05-29 08:27:10</time>
      </trkpt>
      <trkpt lat="42.93913" lon="-2.26002">
        <ele>582.4</ele>
        <time>2021-05-29 08:27:11</time>
      </trkpt>
      <trkpt lat="42.93916" lon="-2.26003">
        <ele>582.6</ele>
        <time>2021-05-29 08:27:12</time>
      </trkpt>
      <trkpt lat="42.93918" lon="-2.26004">
        <ele>582.6</ele>
        <time>2021-05-29 08:27:13</time>
      </trkpt>
      <trkpt lat="42.9392" lon="-2.26004">
        <ele>582.6</ele>
        <time>2021-05-29 08:27:14</time>
      </trkpt>
      <trkpt lat="42.93922" lon="-2.26003">
        <ele>582.6</ele>
        <time>2021-05-29 08:27:15</time>
      </trkpt>
      <trkpt lat="42.93923" lon="-2.26003">
        <ele>582.6</ele>
        <time>2021-05-29 08:27:16</time>
      </trkpt>
      <trkpt lat="42.93924" lon="-2.26002">
        <ele>582.6</ele>
        <time>2021-05-29 08:27:17</time>
      </trkpt>
      <trkpt lat="42.93925" lon="-2.26003">
        <ele>582.6</ele>
        <time>2021-05-29 08:27:18</time>
      </trkpt>
      <trkpt lat="42.93929" lon="-2.26004">
        <ele>582.6</ele>
        <time>2021-05-29 08:28:05</time>
      </trkpt>
      <trkpt lat="42.93932" lon="-2.26004">
        <ele>582.6</ele>
        <time>2021-05-29 08:28:06</time>
      </trkpt>
      <trkpt lat="42.93936" lon="-2.26006">
        <ele>582.6</ele>
        <time>2021-05-29 08:28:07</time>
      </trkpt>
      <trkpt lat="42.9394" lon="-2.26008">
        <ele>582.6</ele>
        <time>2021-05-29 08:28:08</time>
      </trkpt>
      <trkpt lat="42.93944" lon="-2.26012">
        <ele>582.4</ele>
        <time>2021-05-29 08:28:09</time>
      </trkpt>
      <trkpt lat="42.93947" lon="-2.26017">
        <ele>582.4</ele>
        <time>2021-05-29 08:28:10</time>
      </trkpt>
      <trkpt lat="42.9395" lon="-2.26022">
        <ele>582.4</ele>
        <time>2021-05-29 08:28:11</time>
      </trkpt>
      <trkpt lat="42.93953" lon="-2.26029">
        <ele>582.4</ele>
        <time>2021-05-29 08:28:12</time>
      </trkpt>
      <trkpt lat="42.93956" lon="-2.26036">
        <ele>582.4</ele>
        <time>2021-05-29 08:28:13</time>
      </trkpt>
      <trkpt lat="42.9396" lon="-2.26044">
        <ele>582.4</ele>
        <time>2021-05-29 08:28:14</time>
      </trkpt>
      <trkpt lat="42.93964" lon="-2.26052">
        <ele>582.4</ele>
        <time>2021-05-29 08:28:15</time>
      </trkpt>
      <trkpt lat="42.93969" lon="-2.26059">
        <ele>582.2</ele>
        <time>2021-05-29 08:28:16</time>
      </trkpt>
      <trkpt lat="42.93974" lon="-2.26066">
        <ele>582.2</ele>
        <time>2021-05-29 08:28:17</time>
      </trkpt>
      <trkpt lat="42.9398" lon="-2.2607">
        <ele>582.2</ele>
        <time>2021-05-29 08:28:18</time>
      </trkpt>
      <trkpt lat="42.93986" lon="-2.26072">
        <ele>582</ele>
        <time>2021-05-29 08:28:19</time>
      </trkpt>
      <trkpt lat="42.93993" lon="-2.2607">
        <ele>582</ele>
        <time>2021-05-29 08:28:20</time>
      </trkpt>
      <trkpt lat="42.94001" lon="-2.26066">
        <ele>582</ele>
        <time>2021-05-29 08:28:21</time>
      </trkpt>
      <trkpt lat="42.94008" lon="-2.26061">
        <ele>582</ele>
        <time>2021-05-29 08:28:22</time>
      </trkpt>
      <trkpt lat="42.94015" lon="-2.26054">
        <ele>581.8</ele>
        <time>2021-05-29 08:28:23</time>
      </trkpt>
      <trkpt lat="42.94023" lon="-2.26048">
        <ele>582</ele>
        <time>2021-05-29 08:28:24</time>
      </trkpt>
      <trkpt lat="42.94033" lon="-2.26044">
        <ele>581.6</ele>
        <time>2021-05-29 08:28:25</time>
      </trkpt>
      <trkpt lat="42.94044" lon="-2.26041">
        <ele>581.6</ele>
        <time>2021-05-29 08:28:26</time>
      </trkpt>
      <trkpt lat="42.94054" lon="-2.26042">
        <ele>581.6</ele>
        <time>2021-05-29 08:28:27</time>
      </trkpt>
      <trkpt lat="42.94065" lon="-2.26045">
        <ele>581.6</ele>
        <time>2021-05-29 08:28:28</time>
      </trkpt>
      <trkpt lat="42.94074" lon="-2.2605">
        <ele>581.6</ele>
        <time>2021-05-29 08:28:29</time>
      </trkpt>
      <trkpt lat="42.94083" lon="-2.26057">
        <ele>581.6</ele>
        <time>2021-05-29 08:28:30</time>
      </trkpt>
      <trkpt lat="42.9409" lon="-2.26065">
        <ele>581.6</ele>
        <time>2021-05-29 08:28:31</time>
      </trkpt>
      <trkpt lat="42.94095" lon="-2.26076">
        <ele>581.8</ele>
        <time>2021-05-29 08:28:32</time>
      </trkpt>
      <trkpt lat="42.94097" lon="-2.26089">
        <ele>581.6</ele>
        <time>2021-05-29 08:28:33</time>
      </trkpt>
      <trkpt lat="42.94098" lon="-2.26102">
        <ele>581.6</ele>
        <time>2021-05-29 08:28:34</time>
      </trkpt>
      <trkpt lat="42.94096" lon="-2.26114">
        <ele>581.6</ele>
        <time>2021-05-29 08:28:35</time>
      </trkpt>
      <trkpt lat="42.94095" lon="-2.26127">
        <ele>581.6</ele>
        <time>2021-05-29 08:28:36</time>
      </trkpt>
      <trkpt lat="42.94096" lon="-2.2614">
        <ele>581.8</ele>
        <time>2021-05-29 08:28:37</time>
      </trkpt>
      <trkpt lat="42.94098" lon="-2.26153">
        <ele>581.6</ele>
        <time>2021-05-29 08:28:38</time>
      </trkpt>
      <trkpt lat="42.94102" lon="-2.26165">
        <ele>581.6</ele>
        <time>2021-05-29 08:28:39</time>
      </trkpt>
      <trkpt lat="42.94108" lon="-2.26176">
        <ele>581.8</ele>
        <time>2021-05-29 08:28:40</time>
      </trkpt>
      <trkpt lat="42.94115" lon="-2.26186">
        <ele>581.8</ele>
        <time>2021-05-29 08:28:41</time>
      </trkpt>
      <trkpt lat="42.94122" lon="-2.26196">
        <ele>581.8</ele>
        <time>2021-05-29 08:28:42</time>
      </trkpt>
      <trkpt lat="42.94129" lon="-2.26207">
        <ele>581.8</ele>
        <time>2021-05-29 08:28:43</time>
      </trkpt>
      <trkpt lat="42.94137" lon="-2.26217">
        <ele>581.8</ele>
        <time>2021-05-29 08:28:44</time>
      </trkpt>
      <trkpt lat="42.94145" lon="-2.26228">
        <ele>581.8</ele>
        <time>2021-05-29 08:28:45</time>
      </trkpt>
      <trkpt lat="42.94153" lon="-2.26239">
        <ele>582</ele>
        <time>2021-05-29 08:28:46</time>
      </trkpt>
      <trkpt lat="42.94162" lon="-2.26248">
        <ele>582</ele>
        <time>2021-05-29 08:28:47</time>
      </trkpt>
      <trkpt lat="42.94172" lon="-2.2626">
        <ele>581.8</ele>
        <time>2021-05-29 08:28:48</time>
      </trkpt>
      <trkpt lat="42.94182" lon="-2.26268">
        <ele>582</ele>
        <time>2021-05-29 08:28:49</time>
      </trkpt>
      <trkpt lat="42.94192" lon="-2.26274">
        <ele>582</ele>
        <time>2021-05-29 08:28:50</time>
      </trkpt>
      <trkpt lat="42.94202" lon="-2.26279">
        <ele>582</ele>
        <time>2021-05-29 08:28:51</time>
      </trkpt>
      <trkpt lat="42.94212" lon="-2.26282">
        <ele>582.2</ele>
        <time>2021-05-29 08:28:52</time>
      </trkpt>
      <trkpt lat="42.9422" lon="-2.26285">
        <ele>582.2</ele>
        <time>2021-05-29 08:28:53</time>
      </trkpt>
      <trkpt lat="42.94228" lon="-2.26287">
        <ele>582.2</ele>
        <time>2021-05-29 08:28:54</time>
      </trkpt>
      <trkpt lat="42.94232" lon="-2.26291">
        <ele>582.2</ele>
        <time>2021-05-29 08:28:55</time>
      </trkpt>
      <trkpt lat="42.94235" lon="-2.26297">
        <ele>582.4</ele>
        <time>2021-05-29 08:28:56</time>
      </trkpt>
      <trkpt lat="42.94233" lon="-2.263">
        <ele>582.4</ele>
        <time>2021-05-29 08:28:57</time>
      </trkpt>
      <trkpt lat="42.9423" lon="-2.26301">
        <ele>582.6</ele>
        <time>2021-05-29 08:28:58</time>
      </trkpt>
      <trkpt lat="42.94228" lon="-2.26305">
        <ele>582.4</ele>
        <time>2021-05-29 08:28:59</time>
      </trkpt>
      <trkpt lat="42.94224" lon="-2.2631">
        <ele>582.6</ele>
        <time>2021-05-29 08:29:00</time>
      </trkpt>
      <trkpt lat="42.94219" lon="-2.26315">
        <ele>582.6</ele>
        <time>2021-05-29 08:29:01</time>
      </trkpt>
      <trkpt lat="42.94214" lon="-2.26313">
        <ele>582.8</ele>
        <time>2021-05-29 08:29:02</time>
      </trkpt>
      <trkpt lat="42.94207" lon="-2.26311">
        <ele>582.8</ele>
        <time>2021-05-29 08:29:03</time>
      </trkpt>
      <trkpt lat="42.94199" lon="-2.2631">
        <ele>582.8</ele>
        <time>2021-05-29 08:29:04</time>
      </trkpt>
      <trkpt lat="42.94189" lon="-2.2631">
        <ele>582.8</ele>
        <time>2021-05-29 08:29:05</time>
      </trkpt>
      <trkpt lat="42.9418" lon="-2.26311">
        <ele>582.8</ele>
        <time>2021-05-29 08:29:06</time>
      </trkpt>
      <trkpt lat="42.94171" lon="-2.26311">
        <ele>583</ele>
        <time>2021-05-29 08:29:07</time>
      </trkpt>
      <trkpt lat="42.94161" lon="-2.26308">
        <ele>583</ele>
        <time>2021-05-29 08:29:08</time>
      </trkpt>
      <trkpt lat="42.94151" lon="-2.26304">
        <ele>583</ele>
        <time>2021-05-29 08:29:09</time>
      </trkpt>
      <trkpt lat="42.94142" lon="-2.26298">
        <ele>583</ele>
        <time>2021-05-29 08:29:10</time>
      </trkpt>
      <trkpt lat="42.94132" lon="-2.26292">
        <ele>583</ele>
        <time>2021-05-29 08:29:11</time>
      </trkpt>
      <trkpt lat="42.94122" lon="-2.26286">
        <ele>583.2</ele>
        <time>2021-05-29 08:29:12</time>
      </trkpt>
      <trkpt lat="42.94113" lon="-2.26278">
        <ele>583.2</ele>
        <time>2021-05-29 08:29:13</time>
      </trkpt>
      <trkpt lat="42.94106" lon="-2.26269">
        <ele>583.2</ele>
        <time>2021-05-29 08:29:14</time>
      </trkpt>
      <trkpt lat="42.94098" lon="-2.26258">
        <ele>583.2</ele>
        <time>2021-05-29 08:29:15</time>
      </trkpt>
      <trkpt lat="42.94092" lon="-2.26246">
        <ele>583.2</ele>
        <time>2021-05-29 08:29:16</time>
      </trkpt>
      <trkpt lat="42.94085" lon="-2.26233">
        <ele>583.2</ele>
        <time>2021-05-29 08:29:17</time>
      </trkpt>
      <trkpt lat="42.9408" lon="-2.2622">
        <ele>583.2</ele>
        <time>2021-05-29 08:29:18</time>
      </trkpt>
      <trkpt lat="42.94073" lon="-2.26204">
        <ele>583.2</ele>
        <time>2021-05-29 08:29:19</time>
      </trkpt>
      <trkpt lat="42.94068" lon="-2.26191">
        <ele>583.2</ele>
        <time>2021-05-29 08:29:20</time>
      </trkpt>
      <trkpt lat="42.94061" lon="-2.2618">
        <ele>583.2</ele>
        <time>2021-05-29 08:29:21</time>
      </trkpt>
      <trkpt lat="42.94053" lon="-2.2617">
        <ele>583.2</ele>
        <time>2021-05-29 08:29:22</time>
      </trkpt>
      <trkpt lat="42.94044" lon="-2.26164">
        <ele>583.2</ele>
        <time>2021-05-29 08:29:23</time>
      </trkpt>
      <trkpt lat="42.94036" lon="-2.26161">
        <ele>583</ele>
        <time>2021-05-29 08:29:24</time>
      </trkpt>
      <trkpt lat="42.94026" lon="-2.26162">
        <ele>583</ele>
        <time>2021-05-29 08:29:25</time>
      </trkpt>
      <trkpt lat="42.94016" lon="-2.26172">
        <ele>583</ele>
        <time>2021-05-29 08:29:26</time>
      </trkpt>
      <trkpt lat="42.94007" lon="-2.26183">
        <ele>583</ele>
        <time>2021-05-29 08:29:27</time>
      </trkpt>
      <trkpt lat="42.93999" lon="-2.26192">
        <ele>583</ele>
        <time>2021-05-29 08:29:28</time>
      </trkpt>
      <trkpt lat="42.93992" lon="-2.262">
        <ele>583</ele>
        <time>2021-05-29 08:29:29</time>
      </trkpt>
      <trkpt lat="42.93987" lon="-2.26205">
        <ele>582.8</ele>
        <time>2021-05-29 08:29:30</time>
      </trkpt>
      <trkpt lat="42.93981" lon="-2.26208">
        <ele>582.8</ele>
        <time>2021-05-29 08:29:31</time>
      </trkpt>
      <trkpt lat="42.93978" lon="-2.26211">
        <ele>582.8</ele>
        <time>2021-05-29 08:29:32</time>
      </trkpt>
      <trkpt lat="42.93977" lon="-2.26215">
        <ele>582.8</ele>
        <time>2021-05-29 08:29:33</time>
      </trkpt>
      <trkpt lat="42.93979" lon="-2.26216">
        <ele>582.8</ele>
        <time>2021-05-29 08:29:34</time>
      </trkpt>
      <trkpt lat="42.93982" lon="-2.26214">
        <ele>582.8</ele>
        <time>2021-05-29 08:29:35</time>
      </trkpt>
      <trkpt lat="42.93985" lon="-2.2621">
        <ele>582.8</ele>
        <time>2021-05-29 08:29:36</time>
      </trkpt>
      <trkpt lat="42.93989" lon="-2.26203">
        <ele>583</ele>
        <time>2021-05-29 08:29:37</time>
      </trkpt>
      <trkpt lat="42.93994" lon="-2.26195">
        <ele>583</ele>
        <time>2021-05-29 08:29:38</time>
      </trkpt>
      <trkpt lat="42.94" lon="-2.26188">
        <ele>583</ele>
        <time>2021-05-29 08:29:39</time>
      </trkpt>
      <trkpt lat="42.94009" lon="-2.26186">
        <ele>583</ele>
        <time>2021-05-29 08:29:40</time>
      </trkpt>
      <trkpt lat="42.94018" lon="-2.26186">
        <ele>583</ele>
        <time>2021-05-29 08:29:41</time>
      </trkpt>
      <trkpt lat="42.94025" lon="-2.2619">
        <ele>583</ele>
        <time>2021-05-29 08:29:42</time>
      </trkpt>
      <trkpt lat="42.94032" lon="-2.26196">
        <ele>583</ele>
        <time>2021-05-29 08:29:43</time>
      </trkpt>
      <trkpt lat="42.94037" lon="-2.26206">
        <ele>583</ele>
        <time>2021-05-29 08:29:44</time>
      </trkpt>
      <trkpt lat="42.9404" lon="-2.26217">
        <ele>583</ele>
        <time>2021-05-29 08:29:45</time>
      </trkpt>
      <trkpt lat="42.94042" lon="-2.26229">
        <ele>583</ele>
        <time>2021-05-29 08:29:46</time>
      </trkpt>
      <trkpt lat="42.94044" lon="-2.26243">
        <ele>583</ele>
        <time>2021-05-29 08:29:47</time>
      </trkpt>
      <trkpt lat="42.94046" lon="-2.26257">
        <ele>583</ele>
        <time>2021-05-29 08:29:48</time>
      </trkpt>
      <trkpt lat="42.94048" lon="-2.26271">
        <ele>583</ele>
        <time>2021-05-29 08:29:49</time>
      </trkpt>
      <trkpt lat="42.94051" lon="-2.26285">
        <ele>583</ele>
        <time>2021-05-29 08:29:50</time>
      </trkpt>
      <trkpt lat="42.94054" lon="-2.26299">
        <ele>583.2</ele>
        <time>2021-05-29 08:29:51</time>
      </trkpt>
      <trkpt lat="42.94059" lon="-2.26312">
        <ele>583</ele>
        <time>2021-05-29 08:29:52</time>
      </trkpt>
      <trkpt lat="42.94064" lon="-2.26326">
        <ele>583</ele>
        <time>2021-05-29 08:29:53</time>
      </trkpt>
      <trkpt lat="42.94069" lon="-2.2634">
        <ele>583</ele>
        <time>2021-05-29 08:29:54</time>
      </trkpt>
      <trkpt lat="42.94074" lon="-2.26354">
        <ele>583</ele>
        <time>2021-05-29 08:29:55</time>
      </trkpt>
      <trkpt lat="42.94079" lon="-2.26368">
        <ele>583</ele>
        <time>2021-05-29 08:29:56</time>
      </trkpt>
      <trkpt lat="42.94084" lon="-2.26382">
        <ele>583</ele>
        <time>2021-05-29 08:29:57</time>
      </trkpt>
      <trkpt lat="42.9409" lon="-2.26395">
        <ele>583</ele>
        <time>2021-05-29 08:29:58</time>
      </trkpt>
      <trkpt lat="42.94097" lon="-2.26405">
        <ele>583</ele>
        <time>2021-05-29 08:29:59</time>
      </trkpt>
      <trkpt lat="42.94106" lon="-2.26412">
        <ele>583</ele>
        <time>2021-05-29 08:30:00</time>
      </trkpt>
      <trkpt lat="42.94115" lon="-2.26416">
        <ele>583</ele>
        <time>2021-05-29 08:30:01</time>
      </trkpt>
      <trkpt lat="42.94126" lon="-2.26414">
        <ele>583</ele>
        <time>2021-05-29 08:30:02</time>
      </trkpt>
      <trkpt lat="42.94137" lon="-2.26411">
        <ele>582.8</ele>
        <time>2021-05-29 08:30:03</time>
      </trkpt>
      <trkpt lat="42.94148" lon="-2.26409">
        <ele>582.8</ele>
        <time>2021-05-29 08:30:04</time>
      </trkpt>
      <trkpt lat="42.94159" lon="-2.26408">
        <ele>582.8</ele>
        <time>2021-05-29 08:30:05</time>
      </trkpt>
      <trkpt lat="42.94171" lon="-2.26409">
        <ele>582.8</ele>
        <time>2021-05-29 08:30:06</time>
      </trkpt>
      <trkpt lat="42.94182" lon="-2.26413">
        <ele>582.8</ele>
        <time>2021-05-29 08:30:07</time>
      </trkpt>
      <trkpt lat="42.94194" lon="-2.26419">
        <ele>582.8</ele>
        <time>2021-05-29 08:30:08</time>
      </trkpt>
      <trkpt lat="42.94205" lon="-2.26426">
        <ele>582.6</ele>
        <time>2021-05-29 08:30:09</time>
      </trkpt>
      <trkpt lat="42.94216" lon="-2.26432">
        <ele>582.6</ele>
        <time>2021-05-29 08:30:10</time>
      </trkpt>
      <trkpt lat="42.94227" lon="-2.2644">
        <ele>582.6</ele>
        <time>2021-05-29 08:30:11</time>
      </trkpt>
      <trkpt lat="42.94238" lon="-2.26448">
        <ele>582.6</ele>
        <time>2021-05-29 08:30:12</time>
      </trkpt>
      <trkpt lat="42.94248" lon="-2.26455">
        <ele>582.6</ele>
        <time>2021-05-29 08:30:13</time>
      </trkpt>
      <trkpt lat="42.94256" lon="-2.26464">
        <ele>582.8</ele>
        <time>2021-05-29 08:30:14</time>
      </trkpt>
      <trkpt lat="42.94266" lon="-2.26471">
        <ele>582.6</ele>
        <time>2021-05-29 08:30:15</time>
      </trkpt>
      <trkpt lat="42.94277" lon="-2.26473">
        <ele>582.4</ele>
        <time>2021-05-29 08:30:16</time>
      </trkpt>
      <trkpt lat="42.94288" lon="-2.2647">
        <ele>582.4</ele>
        <time>2021-05-29 08:30:17</time>
      </trkpt>
      <trkpt lat="42.94299" lon="-2.26463">
        <ele>582.2</ele>
        <time>2021-05-29 08:30:18</time>
      </trkpt>
      <trkpt lat="42.9431" lon="-2.26456">
        <ele>582.4</ele>
        <time>2021-05-29 08:30:19</time>
      </trkpt>
      <trkpt lat="42.94322" lon="-2.26448">
        <ele>582.2</ele>
        <time>2021-05-29 08:30:20</time>
      </trkpt>
      <trkpt lat="42.94334" lon="-2.26441">
        <ele>582</ele>
        <time>2021-05-29 08:30:21</time>
      </trkpt>
      <trkpt lat="42.94346" lon="-2.26435">
        <ele>582</ele>
        <time>2021-05-29 08:30:22</time>
      </trkpt>
      <trkpt lat="42.94358" lon="-2.26429">
        <ele>582</ele>
        <time>2021-05-29 08:30:23</time>
      </trkpt>
      <trkpt lat="42.94372" lon="-2.26424">
        <ele>582</ele>
        <time>2021-05-29 08:30:24</time>
      </trkpt>
      <trkpt lat="42.94385" lon="-2.26421">
        <ele>582</ele>
        <time>2021-05-29 08:30:25</time>
      </trkpt>
      <trkpt lat="42.94399" lon="-2.26423">
        <ele>581.8</ele>
        <time>2021-05-29 08:30:26</time>
      </trkpt>
      <trkpt lat="42.94411" lon="-2.26429">
        <ele>581.8</ele>
        <time>2021-05-29 08:30:27</time>
      </trkpt>
      <trkpt lat="42.94421" lon="-2.26438">
        <ele>581.6</ele>
        <time>2021-05-29 08:30:28</time>
      </trkpt>
      <trkpt lat="42.9443" lon="-2.2645">
        <ele>581.6</ele>
        <time>2021-05-29 08:30:29</time>
      </trkpt>
      <trkpt lat="42.94436" lon="-2.26463">
        <ele>581.6</ele>
        <time>2021-05-29 08:30:30</time>
      </trkpt>
      <trkpt lat="42.9444" lon="-2.26478">
        <ele>581.6</ele>
        <time>2021-05-29 08:30:31</time>
      </trkpt>
      <trkpt lat="42.94442" lon="-2.26495">
        <ele>581.6</ele>
        <time>2021-05-29 08:30:32</time>
      </trkpt>
      <trkpt lat="42.94442" lon="-2.26512">
        <ele>581.4</ele>
        <time>2021-05-29 08:30:33</time>
      </trkpt>
      <trkpt lat="42.9444" lon="-2.26528">
        <ele>581.4</ele>
        <time>2021-05-29 08:30:34</time>
      </trkpt>
      <trkpt lat="42.94435" lon="-2.26544">
        <ele>581.4</ele>
        <time>2021-05-29 08:30:35</time>
      </trkpt>
      <trkpt lat="42.94428" lon="-2.26559">
        <ele>581.2</ele>
        <time>2021-05-29 08:30:36</time>
      </trkpt>
      <trkpt lat="42.94423" lon="-2.26574">
        <ele>581.4</ele>
        <time>2021-05-29 08:30:37</time>
      </trkpt>
      <trkpt lat="42.94417" lon="-2.26589">
        <ele>581.2</ele>
        <time>2021-05-29 08:30:38</time>
      </trkpt>
      <trkpt lat="42.9441" lon="-2.26604">
        <ele>581.2</ele>
        <time>2021-05-29 08:30:39</time>
      </trkpt>
      <trkpt lat="42.94404" lon="-2.26619">
        <ele>581.2</ele>
        <time>2021-05-29 08:30:40</time>
      </trkpt>
      <trkpt lat="42.94398" lon="-2.26633">
        <ele>581.2</ele>
        <time>2021-05-29 08:30:41</time>
      </trkpt>
      <trkpt lat="42.94392" lon="-2.26645">
        <ele>581</ele>
        <time>2021-05-29 08:30:42</time>
      </trkpt>
      <trkpt lat="42.94388" lon="-2.26658">
        <ele>581</ele>
        <time>2021-05-29 08:30:43</time>
      </trkpt>
      <trkpt lat="42.94387" lon="-2.26671">
        <ele>581</ele>
        <time>2021-05-29 08:30:44</time>
      </trkpt>
      <trkpt lat="42.94387" lon="-2.26685">
        <ele>581</ele>
        <time>2021-05-29 08:30:45</time>
      </trkpt>
      <trkpt lat="42.94392" lon="-2.26696">
        <ele>581</ele>
        <time>2021-05-29 08:30:46</time>
      </trkpt>
      <trkpt lat="42.944" lon="-2.26706">
        <ele>581</ele>
        <time>2021-05-29 08:30:47</time>
      </trkpt>
      <trkpt lat="42.94408" lon="-2.26715">
        <ele>581</ele>
        <time>2021-05-29 08:30:48</time>
      </trkpt>
      <trkpt lat="42.94418" lon="-2.26723">
        <ele>580.8</ele>
        <time>2021-05-29 08:30:49</time>
      </trkpt>
      <trkpt lat="42.94428" lon="-2.26732">
        <ele>580.8</ele>
        <time>2021-05-29 08:30:50</time>
      </trkpt>
      <trkpt lat="42.94437" lon="-2.26742">
        <ele>580.8</ele>
        <time>2021-05-29 08:30:51</time>
      </trkpt>
      <trkpt lat="42.94446" lon="-2.26753">
        <ele>580.8</ele>
        <time>2021-05-29 08:30:52</time>
      </trkpt>
      <trkpt lat="42.94454" lon="-2.26767">
        <ele>580.8</ele>
        <time>2021-05-29 08:30:53</time>
      </trkpt>
      <trkpt lat="42.94461" lon="-2.26781">
        <ele>580.8</ele>
        <time>2021-05-29 08:30:54</time>
      </trkpt>
      <trkpt lat="42.9447" lon="-2.26794">
        <ele>580.8</ele>
        <time>2021-05-29 08:30:55</time>
      </trkpt>
      <trkpt lat="42.94479" lon="-2.26804">
        <ele>580.6</ele>
        <time>2021-05-29 08:30:56</time>
      </trkpt>
      <trkpt lat="42.94489" lon="-2.26812">
        <ele>580.6</ele>
        <time>2021-05-29 08:30:57</time>
      </trkpt>
      <trkpt lat="42.945" lon="-2.26816">
        <ele>580.6</ele>
        <time>2021-05-29 08:30:58</time>
      </trkpt>
      <trkpt lat="42.9451" lon="-2.26817">
        <ele>580.4</ele>
        <time>2021-05-29 08:30:59</time>
      </trkpt>
      <trkpt lat="42.94519" lon="-2.26817">
        <ele>580.4</ele>
        <time>2021-05-29 08:31:00</time>
      </trkpt>
      <trkpt lat="42.94526" lon="-2.26816">
        <ele>580.4</ele>
        <time>2021-05-29 08:31:01</time>
      </trkpt>
      <trkpt lat="42.94532" lon="-2.26818">
        <ele>580.4</ele>
        <time>2021-05-29 08:31:02</time>
      </trkpt>
      <trkpt lat="42.94536" lon="-2.26822">
        <ele>580.4</ele>
        <time>2021-05-29 08:31:03</time>
      </trkpt>
      <trkpt lat="42.94537" lon="-2.26827">
        <ele>580.4</ele>
        <time>2021-05-29 08:31:04</time>
      </trkpt>
      <trkpt lat="42.94538" lon="-2.26834">
        <ele>580.2</ele>
        <time>2021-05-29 08:31:05</time>
      </trkpt>
      <trkpt lat="42.94536" lon="-2.26838">
        <ele>580.2</ele>
        <time>2021-05-29 08:31:06</time>
      </trkpt>
      <trkpt lat="42.94535" lon="-2.26842">
        <ele>580</ele>
        <time>2021-05-29 08:31:07</time>
      </trkpt>
      <trkpt lat="42.94532" lon="-2.26845">
        <ele>580</ele>
        <time>2021-05-29 08:31:08</time>
      </trkpt>
      <trkpt lat="42.94523" lon="-2.26846">
        <ele>580</ele>
        <time>2021-05-29 08:31:09</time>
      </trkpt>
      <trkpt lat="42.94515" lon="-2.26844">
        <ele>580</ele>
        <time>2021-05-29 08:31:10</time>
      </trkpt>
      <trkpt lat="42.94504" lon="-2.26842">
        <ele>580</ele>
        <time>2021-05-29 08:31:11</time>
      </trkpt>
      <trkpt lat="42.94494" lon="-2.2684">
        <ele>579.8</ele>
        <time>2021-05-29 08:31:12</time>
      </trkpt>
      <trkpt lat="42.94484" lon="-2.26838">
        <ele>580</ele>
        <time>2021-05-29 08:31:13</time>
      </trkpt>
      <trkpt lat="42.94473" lon="-2.26834">
        <ele>580</ele>
        <time>2021-05-29 08:31:14</time>
      </trkpt>
      <trkpt lat="42.94462" lon="-2.2683">
        <ele>579.8</ele>
        <time>2021-05-29 08:31:15</time>
      </trkpt>
      <trkpt lat="42.94451" lon="-2.26823">
        <ele>579.8</ele>
        <time>2021-05-29 08:31:16</time>
      </trkpt>
      <trkpt lat="42.94439" lon="-2.26813">
        <ele>579.6</ele>
        <time>2021-05-29 08:31:17</time>
      </trkpt>
      <trkpt lat="42.94427" lon="-2.26802">
        <ele>579.6</ele>
        <time>2021-05-29 08:31:18</time>
      </trkpt>
      <trkpt lat="42.94416" lon="-2.26792">
        <ele>579.6</ele>
        <time>2021-05-29 08:31:19</time>
      </trkpt>
      <trkpt lat="42.94405" lon="-2.26781">
        <ele>579.6</ele>
        <time>2021-05-29 08:31:20</time>
      </trkpt>
      <trkpt lat="42.94394" lon="-2.26771">
        <ele>579.4</ele>
        <time>2021-05-29 08:31:21</time>
      </trkpt>
      <trkpt lat="42.94383" lon="-2.26762">
        <ele>579.4</ele>
        <time>2021-05-29 08:31:22</time>
      </trkpt>
      <trkpt lat="42.94373" lon="-2.26752">
        <ele>579</ele>
        <time>2021-05-29 08:31:23</time>
      </trkpt>
      <trkpt lat="42.94362" lon="-2.26743">
        <ele>578.8</ele>
        <time>2021-05-29 08:31:24</time>
      </trkpt>
      <trkpt lat="42.9435" lon="-2.26732">
        <ele>578.8</ele>
        <time>2021-05-29 08:31:25</time>
      </trkpt>
      <trkpt lat="42.94342" lon="-2.26719">
        <ele>578.6</ele>
        <time>2021-05-29 08:31:26</time>
      </trkpt>
      <trkpt lat="42.94336" lon="-2.26704">
        <ele>578.6</ele>
        <time>2021-05-29 08:31:27</time>
      </trkpt>
      <trkpt lat="42.9433" lon="-2.26689">
        <ele>578.8</ele>
        <time>2021-05-29 08:31:28</time>
      </trkpt>
      <trkpt lat="42.94326" lon="-2.26676">
        <ele>578.6</ele>
        <time>2021-05-29 08:31:29</time>
      </trkpt>
      <trkpt lat="42.94322" lon="-2.26664">
        <ele>578.6</ele>
        <time>2021-05-29 08:31:30</time>
      </trkpt>
      <trkpt lat="42.94317" lon="-2.26653">
        <ele>578.6</ele>
        <time>2021-05-29 08:31:31</time>
      </trkpt>
      <trkpt lat="42.94313" lon="-2.26645">
        <ele>578.6</ele>
        <time>2021-05-29 08:31:32</time>
      </trkpt>
      <trkpt lat="42.94307" lon="-2.2664">
        <ele>578.4</ele>
        <time>2021-05-29 08:31:33</time>
      </trkpt>
      <trkpt lat="42.94298" lon="-2.26639">
        <ele>578.4</ele>
        <time>2021-05-29 08:31:34</time>
      </trkpt>
      <trkpt lat="42.94292" lon="-2.26638">
        <ele>578.4</ele>
        <time>2021-05-29 08:31:35</time>
      </trkpt>
      <trkpt lat="42.94289" lon="-2.26635">
        <ele>578.2</ele>
        <time>2021-05-29 08:31:36</time>
      </trkpt>
      <trkpt lat="42.94289" lon="-2.26638">
        <ele>578.2</ele>
        <time>2021-05-29 08:31:37</time>
      </trkpt>
      <trkpt lat="42.94288" lon="-2.26642">
        <ele>578</ele>
        <time>2021-05-29 08:31:38</time>
      </trkpt>
      <trkpt lat="42.9429" lon="-2.26646">
        <ele>578</ele>
        <time>2021-05-29 08:31:39</time>
      </trkpt>
      <trkpt lat="42.94292" lon="-2.2665">
        <ele>577.8</ele>
        <time>2021-05-29 08:31:40</time>
      </trkpt>
      <trkpt lat="42.94297" lon="-2.26654">
        <ele>577.6</ele>
        <time>2021-05-29 08:31:41</time>
      </trkpt>
      <trkpt lat="42.94302" lon="-2.26659">
        <ele>577.8</ele>
        <time>2021-05-29 08:31:42</time>
      </trkpt>
      <trkpt lat="42.94307" lon="-2.26666">
        <ele>577.6</ele>
        <time>2021-05-29 08:31:43</time>
      </trkpt>
      <trkpt lat="42.94312" lon="-2.26675">
        <ele>577.6</ele>
        <time>2021-05-29 08:31:44</time>
      </trkpt>
      <trkpt lat="42.94316" lon="-2.26686">
        <ele>577.6</ele>
        <time>2021-05-29 08:31:45</time>
      </trkpt>
      <trkpt lat="42.94321" lon="-2.26698">
        <ele>577.2</ele>
        <time>2021-05-29 08:31:46</time>
      </trkpt>
      <trkpt lat="42.94326" lon="-2.2671">
        <ele>577.2</ele>
        <time>2021-05-29 08:31:47</time>
      </trkpt>
      <trkpt lat="42.94331" lon="-2.26721">
        <ele>577</ele>
        <time>2021-05-29 08:31:48</time>
      </trkpt>
      <trkpt lat="42.94337" lon="-2.26733">
        <ele>577</ele>
        <time>2021-05-29 08:31:49</time>
      </trkpt>
      <trkpt lat="42.94342" lon="-2.26745">
        <ele>576.8</ele>
        <time>2021-05-29 08:31:50</time>
      </trkpt>
      <trkpt lat="42.94346" lon="-2.26758">
        <ele>577</ele>
        <time>2021-05-29 08:31:51</time>
      </trkpt>
      <trkpt lat="42.94352" lon="-2.26771">
        <ele>577</ele>
        <time>2021-05-29 08:31:52</time>
      </trkpt>
      <trkpt lat="42.94358" lon="-2.26785">
        <ele>577</ele>
        <time>2021-05-29 08:31:53</time>
      </trkpt>
      <trkpt lat="42.94364" lon="-2.26799">
        <ele>576.8</ele>
        <time>2021-05-29 08:31:54</time>
      </trkpt>
      <trkpt lat="42.94371" lon="-2.26814">
        <ele>577</ele>
        <time>2021-05-29 08:31:55</time>
      </trkpt>
      <trkpt lat="42.94376" lon="-2.26828">
        <ele>576.8</ele>
        <time>2021-05-29 08:31:56</time>
      </trkpt>
      <trkpt lat="42.94382" lon="-2.26843">
        <ele>576.8</ele>
        <time>2021-05-29 08:31:57</time>
      </trkpt>
      <trkpt lat="42.94387" lon="-2.26858">
        <ele>576.8</ele>
        <time>2021-05-29 08:31:58</time>
      </trkpt>
      <trkpt lat="42.94389" lon="-2.26875">
        <ele>576.8</ele>
        <time>2021-05-29 08:31:59</time>
      </trkpt>
      <trkpt lat="42.9439" lon="-2.26891">
        <ele>576.8</ele>
        <time>2021-05-29 08:32:00</time>
      </trkpt>
      <trkpt lat="42.9439" lon="-2.26908">
        <ele>576.8</ele>
        <time>2021-05-29 08:32:01</time>
      </trkpt>
      <trkpt lat="42.9439" lon="-2.26923">
        <ele>576.6</ele>
        <time>2021-05-29 08:32:02</time>
      </trkpt>
      <trkpt lat="42.94395" lon="-2.26938">
        <ele>576.4</ele>
        <time>2021-05-29 08:32:03</time>
      </trkpt>
      <trkpt lat="42.944" lon="-2.2695">
        <ele>576.4</ele>
        <time>2021-05-29 08:32:04</time>
      </trkpt>
      <trkpt lat="42.94407" lon="-2.26962">
        <ele>576.4</ele>
        <time>2021-05-29 08:32:05</time>
      </trkpt>
      <trkpt lat="42.94415" lon="-2.26971">
        <ele>576.4</ele>
        <time>2021-05-29 08:32:06</time>
      </trkpt>
      <trkpt lat="42.94425" lon="-2.26974">
        <ele>576.4</ele>
        <time>2021-05-29 08:32:07</time>
      </trkpt>
      <trkpt lat="42.94435" lon="-2.26977">
        <ele>576.2</ele>
        <time>2021-05-29 08:32:08</time>
      </trkpt>
      <trkpt lat="42.94445" lon="-2.26981">
        <ele>576.2</ele>
        <time>2021-05-29 08:32:09</time>
      </trkpt>
      <trkpt lat="42.94453" lon="-2.26989">
        <ele>576</ele>
        <time>2021-05-29 08:32:10</time>
      </trkpt>
      <trkpt lat="42.9446" lon="-2.27">
        <ele>576.2</ele>
        <time>2021-05-29 08:32:11</time>
      </trkpt>
      <trkpt lat="42.94465" lon="-2.27013">
        <ele>576</ele>
        <time>2021-05-29 08:32:12</time>
      </trkpt>
      <trkpt lat="42.94469" lon="-2.27028">
        <ele>576</ele>
        <time>2021-05-29 08:32:13</time>
      </trkpt>
      <trkpt lat="42.94473" lon="-2.27045">
        <ele>575.8</ele>
        <time>2021-05-29 08:32:14</time>
      </trkpt>
      <trkpt lat="42.94476" lon="-2.2706">
        <ele>575.8</ele>
        <time>2021-05-29 08:32:15</time>
      </trkpt>
      <trkpt lat="42.94479" lon="-2.27076">
        <ele>575.6</ele>
        <time>2021-05-29 08:32:16</time>
      </trkpt>
      <trkpt lat="42.94481" lon="-2.27091">
        <ele>575.4</ele>
        <time>2021-05-29 08:32:17</time>
      </trkpt>
      <trkpt lat="42.94483" lon="-2.27107">
        <ele>575.4</ele>
        <time>2021-05-29 08:32:18</time>
      </trkpt>
      <trkpt lat="42.94484" lon="-2.27124">
        <ele>575.4</ele>
        <time>2021-05-29 08:32:19</time>
      </trkpt>
      <trkpt lat="42.94486" lon="-2.27144">
        <ele>575.2</ele>
        <time>2021-05-29 08:32:20</time>
      </trkpt>
      <trkpt lat="42.94485" lon="-2.27162">
        <ele>575.2</ele>
        <time>2021-05-29 08:32:21</time>
      </trkpt>
      <trkpt lat="42.94486" lon="-2.2718">
        <ele>575.4</ele>
        <time>2021-05-29 08:32:22</time>
      </trkpt>
      <trkpt lat="42.94485" lon="-2.27197">
        <ele>575.2</ele>
        <time>2021-05-29 08:32:23</time>
      </trkpt>
      <trkpt lat="42.94483" lon="-2.27215">
        <ele>575.4</ele>
        <time>2021-05-29 08:32:24</time>
      </trkpt>
      <trkpt lat="42.94482" lon="-2.27234">
        <ele>575.2</ele>
        <time>2021-05-29 08:32:25</time>
      </trkpt>
      <trkpt lat="42.94481" lon="-2.27252">
        <ele>575.2</ele>
        <time>2021-05-29 08:32:26</time>
      </trkpt>
      <trkpt lat="42.9448" lon="-2.27271">
        <ele>575</ele>
        <time>2021-05-29 08:32:27</time>
      </trkpt>
      <trkpt lat="42.9448" lon="-2.2729">
        <ele>574.8</ele>
        <time>2021-05-29 08:32:28</time>
      </trkpt>
      <trkpt lat="42.9448" lon="-2.27311">
        <ele>574.6</ele>
        <time>2021-05-29 08:32:29</time>
      </trkpt>
      <trkpt lat="42.94482" lon="-2.27331">
        <ele>574.8</ele>
        <time>2021-05-29 08:32:30</time>
      </trkpt>
      <trkpt lat="42.94485" lon="-2.27349">
        <ele>574.4</ele>
        <time>2021-05-29 08:32:31</time>
      </trkpt>
      <trkpt lat="42.94488" lon="-2.27368">
        <ele>574.4</ele>
        <time>2021-05-29 08:32:32</time>
      </trkpt>
      <trkpt lat="42.94493" lon="-2.27385">
        <ele>574.4</ele>
        <time>2021-05-29 08:32:33</time>
      </trkpt>
      <trkpt lat="42.945" lon="-2.27401">
        <ele>574.2</ele>
        <time>2021-05-29 08:32:34</time>
      </trkpt>
      <trkpt lat="42.94508" lon="-2.27416">
        <ele>574.2</ele>
        <time>2021-05-29 08:32:35</time>
      </trkpt>
      <trkpt lat="42.94517" lon="-2.27432">
        <ele>574</ele>
        <time>2021-05-29 08:32:36</time>
      </trkpt>
      <trkpt lat="42.94524" lon="-2.27448">
        <ele>574</ele>
        <time>2021-05-29 08:32:37</time>
      </trkpt>
      <trkpt lat="42.94532" lon="-2.27462">
        <ele>573.8</ele>
        <time>2021-05-29 08:32:38</time>
      </trkpt>
      <trkpt lat="42.94541" lon="-2.27474">
        <ele>573.8</ele>
        <time>2021-05-29 08:32:39</time>
      </trkpt>
      <trkpt lat="42.94551" lon="-2.27481">
        <ele>573.6</ele>
        <time>2021-05-29 08:32:40</time>
      </trkpt>
      <trkpt lat="42.94562" lon="-2.27483">
        <ele>573.6</ele>
        <time>2021-05-29 08:32:41</time>
      </trkpt>
      <trkpt lat="42.94573" lon="-2.27482">
        <ele>573.4</ele>
        <time>2021-05-29 08:32:42</time>
      </trkpt>
      <trkpt lat="42.94583" lon="-2.2748">
        <ele>573.4</ele>
        <time>2021-05-29 08:32:43</time>
      </trkpt>
      <trkpt lat="42.94593" lon="-2.2748">
        <ele>573</ele>
        <time>2021-05-29 08:32:44</time>
      </trkpt>
      <trkpt lat="42.946" lon="-2.2748">
        <ele>572.6</ele>
        <time>2021-05-29 08:32:45</time>
      </trkpt>
      <trkpt lat="42.94607" lon="-2.27482">
        <ele>572.6</ele>
        <time>2021-05-29 08:32:46</time>
      </trkpt>
      <trkpt lat="42.94613" lon="-2.2749">
        <ele>572.6</ele>
        <time>2021-05-29 08:32:47</time>
      </trkpt>
      <trkpt lat="42.94616" lon="-2.275">
        <ele>572.6</ele>
        <time>2021-05-29 08:32:48</time>
      </trkpt>
      <trkpt lat="42.94615" lon="-2.27511">
        <ele>572.4</ele>
        <time>2021-05-29 08:32:49</time>
      </trkpt>
      <trkpt lat="42.94612" lon="-2.27521">
        <ele>572.4</ele>
        <time>2021-05-29 08:32:50</time>
      </trkpt>
      <trkpt lat="42.94608" lon="-2.27532">
        <ele>572.4</ele>
        <time>2021-05-29 08:32:51</time>
      </trkpt>
      <trkpt lat="42.94603" lon="-2.27543">
        <ele>572.2</ele>
        <time>2021-05-29 08:32:52</time>
      </trkpt>
      <trkpt lat="42.94598" lon="-2.27556">
        <ele>572.2</ele>
        <time>2021-05-29 08:32:53</time>
      </trkpt>
      <trkpt lat="42.94592" lon="-2.27569">
        <ele>572</ele>
        <time>2021-05-29 08:32:54</time>
      </trkpt>
      <trkpt lat="42.94587" lon="-2.27582">
        <ele>572</ele>
        <time>2021-05-29 08:32:55</time>
      </trkpt>
      <trkpt lat="42.94581" lon="-2.27595">
        <ele>571.6</ele>
        <time>2021-05-29 08:32:56</time>
      </trkpt>
      <trkpt lat="42.94575" lon="-2.27609">
        <ele>571.6</ele>
        <time>2021-05-29 08:32:57</time>
      </trkpt>
      <trkpt lat="42.94571" lon="-2.27625">
        <ele>571.6</ele>
        <time>2021-05-29 08:32:58</time>
      </trkpt>
      <trkpt lat="42.94571" lon="-2.27641">
        <ele>571.6</ele>
        <time>2021-05-29 08:32:59</time>
      </trkpt>
      <trkpt lat="42.94573" lon="-2.27655">
        <ele>571.4</ele>
        <time>2021-05-29 08:33:00</time>
      </trkpt>
      <trkpt lat="42.94577" lon="-2.27669">
        <ele>571.4</ele>
        <time>2021-05-29 08:33:01</time>
      </trkpt>
      <trkpt lat="42.94582" lon="-2.27683">
        <ele>571.2</ele>
        <time>2021-05-29 08:33:02</time>
      </trkpt>
      <trkpt lat="42.94588" lon="-2.27696">
        <ele>571.2</ele>
        <time>2021-05-29 08:33:03</time>
      </trkpt>
      <trkpt lat="42.94594" lon="-2.2771">
        <ele>571</ele>
        <time>2021-05-29 08:33:04</time>
      </trkpt>
      <trkpt lat="42.94599" lon="-2.27725">
        <ele>570.8</ele>
        <time>2021-05-29 08:33:05</time>
      </trkpt>
      <trkpt lat="42.94603" lon="-2.27739">
        <ele>570.6</ele>
        <time>2021-05-29 08:33:06</time>
      </trkpt>
      <trkpt lat="42.94609" lon="-2.27754">
        <ele>570.4</ele>
        <time>2021-05-29 08:33:07</time>
      </trkpt>
      <trkpt lat="42.94616" lon="-2.27766">
        <ele>570.4</ele>
        <time>2021-05-29 08:33:08</time>
      </trkpt>
      <trkpt lat="42.94626" lon="-2.27775">
        <ele>570.4</ele>
        <time>2021-05-29 08:33:09</time>
      </trkpt>
      <trkpt lat="42.94637" lon="-2.27782">
        <ele>570.4</ele>
        <time>2021-05-29 08:33:10</time>
      </trkpt>
      <trkpt lat="42.94649" lon="-2.27789">
        <ele>570</ele>
        <time>2021-05-29 08:33:11</time>
      </trkpt>
      <trkpt lat="42.94659" lon="-2.27798">
        <ele>570</ele>
        <time>2021-05-29 08:33:12</time>
      </trkpt>
      <trkpt lat="42.94669" lon="-2.27808">
        <ele>569.8</ele>
        <time>2021-05-29 08:33:13</time>
      </trkpt>
      <trkpt lat="42.94678" lon="-2.2782">
        <ele>570</ele>
        <time>2021-05-29 08:33:14</time>
      </trkpt>
      <trkpt lat="42.94687" lon="-2.27833">
        <ele>569.8</ele>
        <time>2021-05-29 08:33:15</time>
      </trkpt>
      <trkpt lat="42.94695" lon="-2.27846">
        <ele>569.6</ele>
        <time>2021-05-29 08:33:16</time>
      </trkpt>
      <trkpt lat="42.94704" lon="-2.27859">
        <ele>569.6</ele>
        <time>2021-05-29 08:33:17</time>
      </trkpt>
      <trkpt lat="42.94712" lon="-2.27873">
        <ele>569.2</ele>
        <time>2021-05-29 08:33:18</time>
      </trkpt>
      <trkpt lat="42.9472" lon="-2.27887">
        <ele>568.8</ele>
        <time>2021-05-29 08:33:19</time>
      </trkpt>
      <trkpt lat="42.94728" lon="-2.27901">
        <ele>568.6</ele>
        <time>2021-05-29 08:33:20</time>
      </trkpt>
      <trkpt lat="42.94737" lon="-2.27915">
        <ele>568.6</ele>
        <time>2021-05-29 08:33:21</time>
      </trkpt>
      <trkpt lat="42.94746" lon="-2.2793">
        <ele>568.4</ele>
        <time>2021-05-29 08:33:22</time>
      </trkpt>
      <trkpt lat="42.94755" lon="-2.27944">
        <ele>568.2</ele>
        <time>2021-05-29 08:33:23</time>
      </trkpt>
      <trkpt lat="42.94765" lon="-2.27958">
        <ele>568.2</ele>
        <time>2021-05-29 08:33:24</time>
      </trkpt>
      <trkpt lat="42.94775" lon="-2.27973">
        <ele>568</ele>
        <time>2021-05-29 08:33:25</time>
      </trkpt>
      <trkpt lat="42.94784" lon="-2.27987">
        <ele>567.8</ele>
        <time>2021-05-29 08:33:26</time>
      </trkpt>
      <trkpt lat="42.94794" lon="-2.28001">
        <ele>567.6</ele>
        <time>2021-05-29 08:33:27</time>
      </trkpt>
      <trkpt lat="42.94803" lon="-2.28015">
        <ele>567.4</ele>
        <time>2021-05-29 08:33:28</time>
      </trkpt>
      <trkpt lat="42.94811" lon="-2.28028">
        <ele>567.4</ele>
        <time>2021-05-29 08:33:29</time>
      </trkpt>
      <trkpt lat="42.94818" lon="-2.28041">
        <ele>567.4</ele>
        <time>2021-05-29 08:33:30</time>
      </trkpt>
      <trkpt lat="42.94822" lon="-2.28055">
        <ele>567</ele>
        <time>2021-05-29 08:33:31</time>
      </trkpt>
      <trkpt lat="42.94822" lon="-2.28069">
        <ele>566.8</ele>
        <time>2021-05-29 08:33:32</time>
      </trkpt>
      <trkpt lat="42.94818" lon="-2.28083">
        <ele>566.2</ele>
        <time>2021-05-29 08:33:33</time>
      </trkpt>
      <trkpt lat="42.94813" lon="-2.28097">
        <ele>566.2</ele>
        <time>2021-05-29 08:33:34</time>
      </trkpt>
      <trkpt lat="42.94809" lon="-2.28111">
        <ele>566</ele>
        <time>2021-05-29 08:33:35</time>
      </trkpt>
      <trkpt lat="42.94807" lon="-2.28126">
        <ele>566</ele>
        <time>2021-05-29 08:33:36</time>
      </trkpt>
      <trkpt lat="42.94809" lon="-2.28141">
        <ele>565.8</ele>
        <time>2021-05-29 08:33:37</time>
      </trkpt>
      <trkpt lat="42.94814" lon="-2.28155">
        <ele>565.8</ele>
        <time>2021-05-29 08:33:38</time>
      </trkpt>
      <trkpt lat="42.94821" lon="-2.28169">
        <ele>565.6</ele>
        <time>2021-05-29 08:33:39</time>
      </trkpt>
      <trkpt lat="42.94829" lon="-2.28182">
        <ele>565.6</ele>
        <time>2021-05-29 08:33:40</time>
      </trkpt>
      <trkpt lat="42.94837" lon="-2.28195">
        <ele>565.4</ele>
        <time>2021-05-29 08:33:41</time>
      </trkpt>
      <trkpt lat="42.94844" lon="-2.28209">
        <ele>565.2</ele>
        <time>2021-05-29 08:33:42</time>
      </trkpt>
      <trkpt lat="42.94851" lon="-2.28223">
        <ele>565</ele>
        <time>2021-05-29 08:33:43</time>
      </trkpt>
      <trkpt lat="42.94859" lon="-2.28237">
        <ele>565</ele>
        <time>2021-05-29 08:33:44</time>
      </trkpt>
      <trkpt lat="42.94866" lon="-2.28251">
        <ele>564.6</ele>
        <time>2021-05-29 08:33:45</time>
      </trkpt>
      <trkpt lat="42.94874" lon="-2.28266">
        <ele>564.2</ele>
        <time>2021-05-29 08:33:46</time>
      </trkpt>
      <trkpt lat="42.94881" lon="-2.2828">
        <ele>564</ele>
        <time>2021-05-29 08:33:47</time>
      </trkpt>
      <trkpt lat="42.94888" lon="-2.28295">
        <ele>564</ele>
        <time>2021-05-29 08:33:48</time>
      </trkpt>
      <trkpt lat="42.94894" lon="-2.28311">
        <ele>563.8</ele>
        <time>2021-05-29 08:33:49</time>
      </trkpt>
      <trkpt lat="42.94897" lon="-2.28329">
        <ele>563.8</ele>
        <time>2021-05-29 08:33:50</time>
      </trkpt>
      <trkpt lat="42.94899" lon="-2.28347">
        <ele>563.6</ele>
        <time>2021-05-29 08:33:51</time>
      </trkpt>
      <trkpt lat="42.94902" lon="-2.28365">
        <ele>563.4</ele>
        <time>2021-05-29 08:33:52</time>
      </trkpt>
      <trkpt lat="42.94908" lon="-2.28383">
        <ele>563.4</ele>
        <time>2021-05-29 08:33:53</time>
      </trkpt>
      <trkpt lat="42.94914" lon="-2.28399">
        <ele>563.2</ele>
        <time>2021-05-29 08:33:54</time>
      </trkpt>
      <trkpt lat="42.94922" lon="-2.28414">
        <ele>563.2</ele>
        <time>2021-05-29 08:33:55</time>
      </trkpt>
      <trkpt lat="42.94929" lon="-2.28429">
        <ele>563</ele>
        <time>2021-05-29 08:33:56</time>
      </trkpt>
      <trkpt lat="42.94937" lon="-2.28445">
        <ele>562.8</ele>
        <time>2021-05-29 08:33:57</time>
      </trkpt>
      <trkpt lat="42.94945" lon="-2.2846">
        <ele>562.6</ele>
        <time>2021-05-29 08:33:58</time>
      </trkpt>
      <trkpt lat="42.94953" lon="-2.28475">
        <ele>562.6</ele>
        <time>2021-05-29 08:33:59</time>
      </trkpt>
      <trkpt lat="42.9496" lon="-2.28491">
        <ele>562.4</ele>
        <time>2021-05-29 08:34:00</time>
      </trkpt>
      <trkpt lat="42.94969" lon="-2.28508">
        <ele>562.2</ele>
        <time>2021-05-29 08:34:01</time>
      </trkpt>
      <trkpt lat="42.94979" lon="-2.28522">
        <ele>562.2</ele>
        <time>2021-05-29 08:34:02</time>
      </trkpt>
      <trkpt lat="42.9499" lon="-2.28534">
        <ele>562</ele>
        <time>2021-05-29 08:34:03</time>
      </trkpt>
      <trkpt lat="42.95001" lon="-2.28545">
        <ele>561.8</ele>
        <time>2021-05-29 08:34:04</time>
      </trkpt>
      <trkpt lat="42.95013" lon="-2.28556">
        <ele>561.6</ele>
        <time>2021-05-29 08:34:05</time>
      </trkpt>
      <trkpt lat="42.95025" lon="-2.28567">
        <ele>561.6</ele>
        <time>2021-05-29 08:34:06</time>
      </trkpt>
      <trkpt lat="42.95037" lon="-2.28578">
        <ele>561.4</ele>
        <time>2021-05-29 08:34:07</time>
      </trkpt>
      <trkpt lat="42.9505" lon="-2.28589">
        <ele>561.2</ele>
        <time>2021-05-29 08:34:08</time>
      </trkpt>
      <trkpt lat="42.95062" lon="-2.28601">
        <ele>561</ele>
        <time>2021-05-29 08:34:09</time>
      </trkpt>
      <trkpt lat="42.95071" lon="-2.28615">
        <ele>560.8</ele>
        <time>2021-05-29 08:34:10</time>
      </trkpt>
      <trkpt lat="42.95079" lon="-2.28631">
        <ele>560.6</ele>
        <time>2021-05-29 08:34:11</time>
      </trkpt>
      <trkpt lat="42.95086" lon="-2.28647">
        <ele>560.2</ele>
        <time>2021-05-29 08:34:12</time>
      </trkpt>
      <trkpt lat="42.95095" lon="-2.28663">
        <ele>560.4</ele>
        <time>2021-05-29 08:34:13</time>
      </trkpt>
      <trkpt lat="42.95104" lon="-2.28677">
        <ele>560.2</ele>
        <time>2021-05-29 08:34:14</time>
      </trkpt>
      <trkpt lat="42.95115" lon="-2.28691">
        <ele>560</ele>
        <time>2021-05-29 08:34:15</time>
      </trkpt>
      <trkpt lat="42.95126" lon="-2.287">
        <ele>560</ele>
        <time>2021-05-29 08:34:16</time>
      </trkpt>
      <trkpt lat="42.95138" lon="-2.28705">
        <ele>559.8</ele>
        <time>2021-05-29 08:34:17</time>
      </trkpt>
      <trkpt lat="42.9515" lon="-2.28704">
        <ele>559.4</ele>
        <time>2021-05-29 08:34:18</time>
      </trkpt>
      <trkpt lat="42.95162" lon="-2.28699">
        <ele>559.2</ele>
        <time>2021-05-29 08:34:19</time>
      </trkpt>
      <trkpt lat="42.95174" lon="-2.28693">
        <ele>559</ele>
        <time>2021-05-29 08:34:20</time>
      </trkpt>
      <trkpt lat="42.95186" lon="-2.28689">
        <ele>558.8</ele>
        <time>2021-05-29 08:34:21</time>
      </trkpt>
      <trkpt lat="42.95199" lon="-2.28689">
        <ele>558.8</ele>
        <time>2021-05-29 08:34:22</time>
      </trkpt>
      <trkpt lat="42.95211" lon="-2.28691">
        <ele>558.6</ele>
        <time>2021-05-29 08:34:23</time>
      </trkpt>
      <trkpt lat="42.95223" lon="-2.28696">
        <ele>558.2</ele>
        <time>2021-05-29 08:34:24</time>
      </trkpt>
      <trkpt lat="42.95234" lon="-2.28703">
        <ele>558.2</ele>
        <time>2021-05-29 08:34:25</time>
      </trkpt>
      <trkpt lat="42.95245" lon="-2.28711">
        <ele>558</ele>
        <time>2021-05-29 08:34:26</time>
      </trkpt>
      <trkpt lat="42.95256" lon="-2.28719">
        <ele>557.8</ele>
        <time>2021-05-29 08:34:27</time>
      </trkpt>
      <trkpt lat="42.95267" lon="-2.28727">
        <ele>557.6</ele>
        <time>2021-05-29 08:34:28</time>
      </trkpt>
      <trkpt lat="42.95279" lon="-2.28734">
        <ele>557.4</ele>
        <time>2021-05-29 08:34:29</time>
      </trkpt>
      <trkpt lat="42.95291" lon="-2.28743">
        <ele>557</ele>
        <time>2021-05-29 08:34:30</time>
      </trkpt>
      <trkpt lat="42.95301" lon="-2.28754">
        <ele>556.8</ele>
        <time>2021-05-29 08:34:31</time>
      </trkpt>
      <trkpt lat="42.9531" lon="-2.28766">
        <ele>556.4</ele>
        <time>2021-05-29 08:34:32</time>
      </trkpt>
      <trkpt lat="42.95319" lon="-2.2878">
        <ele>556.2</ele>
        <time>2021-05-29 08:34:33</time>
      </trkpt>
      <trkpt lat="42.95326" lon="-2.28795">
        <ele>556.2</ele>
        <time>2021-05-29 08:34:34</time>
      </trkpt>
      <trkpt lat="42.95331" lon="-2.28811">
        <ele>556</ele>
        <time>2021-05-29 08:34:35</time>
      </trkpt>
      <trkpt lat="42.95334" lon="-2.28827">
        <ele>555.8</ele>
        <time>2021-05-29 08:34:36</time>
      </trkpt>
      <trkpt lat="42.95337" lon="-2.28843">
        <ele>556</ele>
        <time>2021-05-29 08:34:37</time>
      </trkpt>
      <trkpt lat="42.95339" lon="-2.28858">
        <ele>555.8</ele>
        <time>2021-05-29 08:34:38</time>
      </trkpt>
      <trkpt lat="42.95341" lon="-2.28874">
        <ele>555.8</ele>
        <time>2021-05-29 08:34:39</time>
      </trkpt>
      <trkpt lat="42.95344" lon="-2.28889">
        <ele>555.6</ele>
        <time>2021-05-29 08:34:40</time>
      </trkpt>
      <trkpt lat="42.95349" lon="-2.28903">
        <ele>555.4</ele>
        <time>2021-05-29 08:34:41</time>
      </trkpt>
      <trkpt lat="42.95357" lon="-2.28915">
        <ele>555.2</ele>
        <time>2021-05-29 08:34:42</time>
      </trkpt>
      <trkpt lat="42.95366" lon="-2.28928">
        <ele>555.2</ele>
        <time>2021-05-29 08:34:43</time>
      </trkpt>
      <trkpt lat="42.95375" lon="-2.28938">
        <ele>555</ele>
        <time>2021-05-29 08:34:44</time>
      </trkpt>
      <trkpt lat="42.95384" lon="-2.28949">
        <ele>554.8</ele>
        <time>2021-05-29 08:34:45</time>
      </trkpt>
      <trkpt lat="42.95392" lon="-2.28961">
        <ele>554.6</ele>
        <time>2021-05-29 08:34:46</time>
      </trkpt>
      <trkpt lat="42.95398" lon="-2.28975">
        <ele>554.6</ele>
        <time>2021-05-29 08:34:47</time>
      </trkpt>
      <trkpt lat="42.95403" lon="-2.2899">
        <ele>554.4</ele>
        <time>2021-05-29 08:34:48</time>
      </trkpt>
      <trkpt lat="42.95407" lon="-2.29005">
        <ele>554.4</ele>
        <time>2021-05-29 08:34:49</time>
      </trkpt>
      <trkpt lat="42.95411" lon="-2.2902">
        <ele>554.2</ele>
        <time>2021-05-29 08:34:50</time>
      </trkpt>
      <trkpt lat="42.95416" lon="-2.29034">
        <ele>554.2</ele>
        <time>2021-05-29 08:34:51</time>
      </trkpt>
      <trkpt lat="42.9542" lon="-2.29048">
        <ele>554.2</ele>
        <time>2021-05-29 08:34:52</time>
      </trkpt>
      <trkpt lat="42.95424" lon="-2.29063">
        <ele>554</ele>
        <time>2021-05-29 08:34:53</time>
      </trkpt>
      <trkpt lat="42.95427" lon="-2.29077">
        <ele>553.8</ele>
        <time>2021-05-29 08:34:54</time>
      </trkpt>
      <trkpt lat="42.95432" lon="-2.29089">
        <ele>554</ele>
        <time>2021-05-29 08:34:55</time>
      </trkpt>
      <trkpt lat="42.95438" lon="-2.29099">
        <ele>553.8</ele>
        <time>2021-05-29 08:34:56</time>
      </trkpt>
      <trkpt lat="42.95445" lon="-2.29106">
        <ele>553.6</ele>
        <time>2021-05-29 08:34:57</time>
      </trkpt>
      <trkpt lat="42.95453" lon="-2.29113">
        <ele>553.6</ele>
        <time>2021-05-29 08:34:58</time>
      </trkpt>
      <trkpt lat="42.95462" lon="-2.29119">
        <ele>553.6</ele>
        <time>2021-05-29 08:34:59</time>
      </trkpt>
      <trkpt lat="42.95471" lon="-2.29126">
        <ele>553.4</ele>
        <time>2021-05-29 08:35:00</time>
      </trkpt>
      <trkpt lat="42.95479" lon="-2.29135">
        <ele>553.2</ele>
        <time>2021-05-29 08:35:01</time>
      </trkpt>
      <trkpt lat="42.95486" lon="-2.29145">
        <ele>553.2</ele>
        <time>2021-05-29 08:35:02</time>
      </trkpt>
      <trkpt lat="42.95493" lon="-2.29155">
        <ele>553</ele>
        <time>2021-05-29 08:35:03</time>
      </trkpt>
      <trkpt lat="42.955" lon="-2.29165">
        <ele>553</ele>
        <time>2021-05-29 08:35:04</time>
      </trkpt>
      <trkpt lat="42.95508" lon="-2.29175">
        <ele>552.8</ele>
        <time>2021-05-29 08:35:05</time>
      </trkpt>
      <trkpt lat="42.95515" lon="-2.29184">
        <ele>553</ele>
        <time>2021-05-29 08:35:06</time>
      </trkpt>
      <trkpt lat="42.95522" lon="-2.29194">
        <ele>552.8</ele>
        <time>2021-05-29 08:35:07</time>
      </trkpt>
      <trkpt lat="42.95529" lon="-2.29204">
        <ele>552.8</ele>
        <time>2021-05-29 08:35:08</time>
      </trkpt>
      <trkpt lat="42.95536" lon="-2.29214">
        <ele>552.8</ele>
        <time>2021-05-29 08:35:09</time>
      </trkpt>
      <trkpt lat="42.95543" lon="-2.29224">
        <ele>552.8</ele>
        <time>2021-05-29 08:35:10</time>
      </trkpt>
      <trkpt lat="42.9555" lon="-2.29234">
        <ele>552.4</ele>
        <time>2021-05-29 08:35:11</time>
      </trkpt>
      <trkpt lat="42.95557" lon="-2.29245">
        <ele>552.6</ele>
        <time>2021-05-29 08:35:12</time>
      </trkpt>
      <trkpt lat="42.95564" lon="-2.29255">
        <ele>552.6</ele>
        <time>2021-05-29 08:35:13</time>
      </trkpt>
      <trkpt lat="42.95571" lon="-2.29265">
        <ele>552.4</ele>
        <time>2021-05-29 08:35:14</time>
      </trkpt>
      <trkpt lat="42.95579" lon="-2.29274">
        <ele>552.2</ele>
        <time>2021-05-29 08:35:15</time>
      </trkpt>
      <trkpt lat="42.95587" lon="-2.29283">
        <ele>552.2</ele>
        <time>2021-05-29 08:35:16</time>
      </trkpt>
      <trkpt lat="42.95595" lon="-2.29292">
        <ele>552.2</ele>
        <time>2021-05-29 08:35:17</time>
      </trkpt>
      <trkpt lat="42.95604" lon="-2.293">
        <ele>552</ele>
        <time>2021-05-29 08:35:18</time>
      </trkpt>
      <trkpt lat="42.95612" lon="-2.29308">
        <ele>551.8</ele>
        <time>2021-05-29 08:35:19</time>
      </trkpt>
      <trkpt lat="42.95621" lon="-2.29316">
        <ele>551.8</ele>
        <time>2021-05-29 08:35:20</time>
      </trkpt>
      <trkpt lat="42.95631" lon="-2.29324">
        <ele>551.8</ele>
        <time>2021-05-29 08:35:21</time>
      </trkpt>
      <trkpt lat="42.9564" lon="-2.29332">
        <ele>551.8</ele>
        <time>2021-05-29 08:35:22</time>
      </trkpt>
      <trkpt lat="42.95649" lon="-2.29341">
        <ele>551.8</ele>
        <time>2021-05-29 08:35:23</time>
      </trkpt>
      <trkpt lat="42.95658" lon="-2.2935">
        <ele>551.6</ele>
        <time>2021-05-29 08:35:24</time>
      </trkpt>
      <trkpt lat="42.95667" lon="-2.29359">
        <ele>551.4</ele>
        <time>2021-05-29 08:35:25</time>
      </trkpt>
      <trkpt lat="42.95676" lon="-2.29367">
        <ele>551.4</ele>
        <time>2021-05-29 08:35:26</time>
      </trkpt>
      <trkpt lat="42.95685" lon="-2.29376">
        <ele>551.2</ele>
        <time>2021-05-29 08:35:27</time>
      </trkpt>
      <trkpt lat="42.95694" lon="-2.29384">
        <ele>551</ele>
        <time>2021-05-29 08:35:28</time>
      </trkpt>
      <trkpt lat="42.95703" lon="-2.29392">
        <ele>551</ele>
        <time>2021-05-29 08:35:29</time>
      </trkpt>
      <trkpt lat="42.95711" lon="-2.294">
        <ele>551</ele>
        <time>2021-05-29 08:35:30</time>
      </trkpt>
      <trkpt lat="42.95719" lon="-2.29409">
        <ele>551</ele>
        <time>2021-05-29 08:35:31</time>
      </trkpt>
      <trkpt lat="42.95728" lon="-2.29419">
        <ele>550.8</ele>
        <time>2021-05-29 08:35:32</time>
      </trkpt>
      <trkpt lat="42.95735" lon="-2.29429">
        <ele>550.8</ele>
        <time>2021-05-29 08:35:33</time>
      </trkpt>
      <trkpt lat="42.95743" lon="-2.29439">
        <ele>550.6</ele>
        <time>2021-05-29 08:35:34</time>
      </trkpt>
      <trkpt lat="42.95751" lon="-2.2945">
        <ele>550.6</ele>
        <time>2021-05-29 08:35:35</time>
      </trkpt>
      <trkpt lat="42.9576" lon="-2.29461">
        <ele>550.4</ele>
        <time>2021-05-29 08:35:36</time>
      </trkpt>
      <trkpt lat="42.95767" lon="-2.29472">
        <ele>550.4</ele>
        <time>2021-05-29 08:35:37</time>
      </trkpt>
      <trkpt lat="42.95775" lon="-2.29483">
        <ele>550.2</ele>
        <time>2021-05-29 08:35:38</time>
      </trkpt>
      <trkpt lat="42.95784" lon="-2.29494">
        <ele>550.2</ele>
        <time>2021-05-29 08:35:39</time>
      </trkpt>
      <trkpt lat="42.95791" lon="-2.29505">
        <ele>550</ele>
        <time>2021-05-29 08:35:40</time>
      </trkpt>
      <trkpt lat="42.95799" lon="-2.29516">
        <ele>550</ele>
        <time>2021-05-29 08:35:41</time>
      </trkpt>
      <trkpt lat="42.95807" lon="-2.29527">
        <ele>549.8</ele>
        <time>2021-05-29 08:35:42</time>
      </trkpt>
      <trkpt lat="42.95815" lon="-2.29536">
        <ele>549.6</ele>
        <time>2021-05-29 08:35:43</time>
      </trkpt>
      <trkpt lat="42.95825" lon="-2.29543">
        <ele>549.6</ele>
        <time>2021-05-29 08:35:44</time>
      </trkpt>
      <trkpt lat="42.95835" lon="-2.29547">
        <ele>549.4</ele>
        <time>2021-05-29 08:35:45</time>
      </trkpt>
      <trkpt lat="42.95847" lon="-2.29548">
        <ele>549.2</ele>
        <time>2021-05-29 08:35:46</time>
      </trkpt>
      <trkpt lat="42.95858" lon="-2.29547">
        <ele>549</ele>
        <time>2021-05-29 08:35:47</time>
      </trkpt>
      <trkpt lat="42.95869" lon="-2.29546">
        <ele>548.8</ele>
        <time>2021-05-29 08:35:48</time>
      </trkpt>
      <trkpt lat="42.9588" lon="-2.29544">
        <ele>548.6</ele>
        <time>2021-05-29 08:35:49</time>
      </trkpt>
      <trkpt lat="42.95891" lon="-2.29543">
        <ele>548.4</ele>
        <time>2021-05-29 08:35:50</time>
      </trkpt>
      <trkpt lat="42.95902" lon="-2.29542">
        <ele>548</ele>
        <time>2021-05-29 08:35:51</time>
      </trkpt>
      <trkpt lat="42.95914" lon="-2.29541">
        <ele>548</ele>
        <time>2021-05-29 08:35:52</time>
      </trkpt>
      <trkpt lat="42.95925" lon="-2.29541">
        <ele>547.8</ele>
        <time>2021-05-29 08:35:53</time>
      </trkpt>
      <trkpt lat="42.95936" lon="-2.29541">
        <ele>547.6</ele>
        <time>2021-05-29 08:35:54</time>
      </trkpt>
      <trkpt lat="42.95947" lon="-2.29542">
        <ele>547.4</ele>
        <time>2021-05-29 08:35:55</time>
      </trkpt>
      <trkpt lat="42.95958" lon="-2.29542">
        <ele>547.4</ele>
        <time>2021-05-29 08:35:56</time>
      </trkpt>
      <trkpt lat="42.95967" lon="-2.29542">
        <ele>547.2</ele>
        <time>2021-05-29 08:35:57</time>
      </trkpt>
      <trkpt lat="42.95976" lon="-2.29542">
        <ele>547.2</ele>
        <time>2021-05-29 08:35:58</time>
      </trkpt>
      <trkpt lat="42.95986" lon="-2.29545">
        <ele>547</ele>
        <time>2021-05-29 08:35:59</time>
      </trkpt>
      <trkpt lat="42.95995" lon="-2.2955">
        <ele>546.8</ele>
        <time>2021-05-29 08:36:00</time>
      </trkpt>
      <trkpt lat="42.96004" lon="-2.29556">
        <ele>546.6</ele>
        <time>2021-05-29 08:36:01</time>
      </trkpt>
      <trkpt lat="42.96012" lon="-2.29564">
        <ele>546.6</ele>
        <time>2021-05-29 08:36:02</time>
      </trkpt>
      <trkpt lat="42.9602" lon="-2.29572">
        <ele>546.4</ele>
        <time>2021-05-29 08:36:03</time>
      </trkpt>
      <trkpt lat="42.96029" lon="-2.29581">
        <ele>546.2</ele>
        <time>2021-05-29 08:36:04</time>
      </trkpt>
      <trkpt lat="42.96035" lon="-2.29591">
        <ele>546.2</ele>
        <time>2021-05-29 08:36:05</time>
      </trkpt>
      <trkpt lat="42.96044" lon="-2.29601">
        <ele>546</ele>
        <time>2021-05-29 08:36:06</time>
      </trkpt>
      <trkpt lat="42.96052" lon="-2.2961">
        <ele>546</ele>
        <time>2021-05-29 08:36:07</time>
      </trkpt>
      <trkpt lat="42.96059" lon="-2.29618">
        <ele>545.8</ele>
        <time>2021-05-29 08:36:08</time>
      </trkpt>
      <trkpt lat="42.96066" lon="-2.29626">
        <ele>545.8</ele>
        <time>2021-05-29 08:36:09</time>
      </trkpt>
      <trkpt lat="42.96072" lon="-2.29633">
        <ele>545.8</ele>
        <time>2021-05-29 08:36:10</time>
      </trkpt>
      <trkpt lat="42.96079" lon="-2.2964">
        <ele>545.6</ele>
        <time>2021-05-29 08:36:11</time>
      </trkpt>
      <trkpt lat="42.96086" lon="-2.29648">
        <ele>545.8</ele>
        <time>2021-05-29 08:36:12</time>
      </trkpt>
      <trkpt lat="42.96092" lon="-2.29656">
        <ele>545.6</ele>
        <time>2021-05-29 08:36:13</time>
      </trkpt>
      <trkpt lat="42.961" lon="-2.29664">
        <ele>545.6</ele>
        <time>2021-05-29 08:36:14</time>
      </trkpt>
      <trkpt lat="42.96108" lon="-2.29672">
        <ele>545.4</ele>
        <time>2021-05-29 08:36:15</time>
      </trkpt>
      <trkpt lat="42.96115" lon="-2.2968">
        <ele>545.4</ele>
        <time>2021-05-29 08:36:16</time>
      </trkpt>
      <trkpt lat="42.96122" lon="-2.29688">
        <ele>545.4</ele>
        <time>2021-05-29 08:36:17</time>
      </trkpt>
      <trkpt lat="42.96131" lon="-2.29695">
        <ele>545.2</ele>
        <time>2021-05-29 08:36:18</time>
      </trkpt>
      <trkpt lat="42.96138" lon="-2.29702">
        <ele>545</ele>
        <time>2021-05-29 08:36:19</time>
      </trkpt>
      <trkpt lat="42.96147" lon="-2.29706">
        <ele>544.8</ele>
        <time>2021-05-29 08:36:20</time>
      </trkpt>
      <trkpt lat="42.96157" lon="-2.29706">
        <ele>544.8</ele>
        <time>2021-05-29 08:36:21</time>
      </trkpt>
      <trkpt lat="42.96164" lon="-2.29703">
        <ele>544.8</ele>
        <time>2021-05-29 08:36:22</time>
      </trkpt>
      <trkpt lat="42.96172" lon="-2.29697">
        <ele>544.6</ele>
        <time>2021-05-29 08:36:23</time>
      </trkpt>
      <trkpt lat="42.96181" lon="-2.2969">
        <ele>544.6</ele>
        <time>2021-05-29 08:36:24</time>
      </trkpt>
      <trkpt lat="42.9619" lon="-2.29684">
        <ele>544.6</ele>
        <time>2021-05-29 08:36:25</time>
      </trkpt>
      <trkpt lat="42.96199" lon="-2.29683">
        <ele>544.4</ele>
        <time>2021-05-29 08:36:26</time>
      </trkpt>
      <trkpt lat="42.96213" lon="-2.29681">
        <ele>544.2</ele>
        <time>2021-05-29 08:36:27</time>
      </trkpt>
      <trkpt lat="42.96225" lon="-2.29682">
        <ele>543.8</ele>
        <time>2021-05-29 08:36:28</time>
      </trkpt>
      <trkpt lat="42.96235" lon="-2.29684">
        <ele>543.8</ele>
        <time>2021-05-29 08:36:29</time>
      </trkpt>
      <trkpt lat="42.96245" lon="-2.29688">
        <ele>543.6</ele>
        <time>2021-05-29 08:36:30</time>
      </trkpt>
      <trkpt lat="42.96255" lon="-2.29691">
        <ele>543.8</ele>
        <time>2021-05-29 08:36:31</time>
      </trkpt>
      <trkpt lat="42.96264" lon="-2.29695">
        <ele>543.6</ele>
        <time>2021-05-29 08:36:32</time>
      </trkpt>
      <trkpt lat="42.96274" lon="-2.29701">
        <ele>543.6</ele>
        <time>2021-05-29 08:36:33</time>
      </trkpt>
      <trkpt lat="42.96284" lon="-2.29705">
        <ele>543.4</ele>
        <time>2021-05-29 08:36:34</time>
      </trkpt>
      <trkpt lat="42.96295" lon="-2.29708">
        <ele>543.6</ele>
        <time>2021-05-29 08:36:35</time>
      </trkpt>
      <trkpt lat="42.96306" lon="-2.29712">
        <ele>543.6</ele>
        <time>2021-05-29 08:36:36</time>
      </trkpt>
      <trkpt lat="42.96316" lon="-2.29715">
        <ele>543.2</ele>
        <time>2021-05-29 08:36:37</time>
      </trkpt>
      <trkpt lat="42.96328" lon="-2.29718">
        <ele>543</ele>
        <time>2021-05-29 08:36:38</time>
      </trkpt>
      <trkpt lat="42.9634" lon="-2.29721">
        <ele>543</ele>
        <time>2021-05-29 08:36:39</time>
      </trkpt>
      <trkpt lat="42.96352" lon="-2.29723">
        <ele>543</ele>
        <time>2021-05-29 08:36:40</time>
      </trkpt>
      <trkpt lat="42.96363" lon="-2.29724">
        <ele>542.6</ele>
        <time>2021-05-29 08:36:41</time>
      </trkpt>
      <trkpt lat="42.96375" lon="-2.29724">
        <ele>542.4</ele>
        <time>2021-05-29 08:36:42</time>
      </trkpt>
      <trkpt lat="42.96386" lon="-2.29725">
        <ele>542.4</ele>
        <time>2021-05-29 08:36:43</time>
      </trkpt>
      <trkpt lat="42.96398" lon="-2.29725">
        <ele>542.2</ele>
        <time>2021-05-29 08:36:44</time>
      </trkpt>
      <trkpt lat="42.96411" lon="-2.29727">
        <ele>542.2</ele>
        <time>2021-05-29 08:36:45</time>
      </trkpt>
      <trkpt lat="42.96422" lon="-2.29725">
        <ele>542.2</ele>
        <time>2021-05-29 08:36:46</time>
      </trkpt>
      <trkpt lat="42.96436" lon="-2.29723">
        <ele>542</ele>
        <time>2021-05-29 08:36:47</time>
      </trkpt>
      <trkpt lat="42.96448" lon="-2.29719">
        <ele>541.6</ele>
        <time>2021-05-29 08:36:48</time>
      </trkpt>
      <trkpt lat="42.96459" lon="-2.29713">
        <ele>541.6</ele>
        <time>2021-05-29 08:36:49</time>
      </trkpt>
      <trkpt lat="42.96469" lon="-2.29705">
        <ele>541.4</ele>
        <time>2021-05-29 08:36:50</time>
      </trkpt>
      <trkpt lat="42.96479" lon="-2.29697">
        <ele>541.2</ele>
        <time>2021-05-29 08:36:51</time>
      </trkpt>
      <trkpt lat="42.96489" lon="-2.29688">
        <ele>541</ele>
        <time>2021-05-29 08:36:52</time>
      </trkpt>
      <trkpt lat="42.965" lon="-2.2968">
        <ele>541</ele>
        <time>2021-05-29 08:36:53</time>
      </trkpt>
      <trkpt lat="42.96511" lon="-2.29671">
        <ele>540.6</ele>
        <time>2021-05-29 08:36:54</time>
      </trkpt>
      <trkpt lat="42.96522" lon="-2.29664">
        <ele>540.6</ele>
        <time>2021-05-29 08:36:55</time>
      </trkpt>
      <trkpt lat="42.96535" lon="-2.29657">
        <ele>540.8</ele>
        <time>2021-05-29 08:36:56</time>
      </trkpt>
      <trkpt lat="42.96547" lon="-2.29654">
        <ele>540.6</ele>
        <time>2021-05-29 08:36:57</time>
      </trkpt>
      <trkpt lat="42.96561" lon="-2.29654">
        <ele>540.4</ele>
        <time>2021-05-29 08:36:58</time>
      </trkpt>
      <trkpt lat="42.96575" lon="-2.29655">
        <ele>540</ele>
        <time>2021-05-29 08:36:59</time>
      </trkpt>
      <trkpt lat="42.96589" lon="-2.29658">
        <ele>540</ele>
        <time>2021-05-29 08:37:00</time>
      </trkpt>
      <trkpt lat="42.96603" lon="-2.29662">
        <ele>539.8</ele>
        <time>2021-05-29 08:37:01</time>
      </trkpt>
      <trkpt lat="42.96617" lon="-2.29667">
        <ele>539.4</ele>
        <time>2021-05-29 08:37:02</time>
      </trkpt>
      <trkpt lat="42.9663" lon="-2.29671">
        <ele>539</ele>
        <time>2021-05-29 08:37:03</time>
      </trkpt>
      <trkpt lat="42.96643" lon="-2.29675">
        <ele>538.8</ele>
        <time>2021-05-29 08:37:04</time>
      </trkpt>
      <trkpt lat="42.96655" lon="-2.29682">
        <ele>538.8</ele>
        <time>2021-05-29 08:37:05</time>
      </trkpt>
      <trkpt lat="42.96666" lon="-2.29689">
        <ele>538.6</ele>
        <time>2021-05-29 08:37:06</time>
      </trkpt>
      <trkpt lat="42.96677" lon="-2.29699">
        <ele>538.4</ele>
        <time>2021-05-29 08:37:07</time>
      </trkpt>
      <trkpt lat="42.96688" lon="-2.29708">
        <ele>538.4</ele>
        <time>2021-05-29 08:37:08</time>
      </trkpt>
      <trkpt lat="42.96698" lon="-2.29718">
        <ele>538</ele>
        <time>2021-05-29 08:37:09</time>
      </trkpt>
      <trkpt lat="42.96709" lon="-2.29728">
        <ele>538</ele>
        <time>2021-05-29 08:37:10</time>
      </trkpt>
      <trkpt lat="42.96719" lon="-2.29736">
        <ele>537.8</ele>
        <time>2021-05-29 08:37:11</time>
      </trkpt>
      <trkpt lat="42.96729" lon="-2.29742">
        <ele>537.6</ele>
        <time>2021-05-29 08:37:12</time>
      </trkpt>
      <trkpt lat="42.9674" lon="-2.29744">
        <ele>537.6</ele>
        <time>2021-05-29 08:37:13</time>
      </trkpt>
      <trkpt lat="42.96752" lon="-2.2974">
        <ele>537.2</ele>
        <time>2021-05-29 08:37:14</time>
      </trkpt>
      <trkpt lat="42.96762" lon="-2.29733">
        <ele>536.8</ele>
        <time>2021-05-29 08:37:15</time>
      </trkpt>
      <trkpt lat="42.96772" lon="-2.29723">
        <ele>536.6</ele>
        <time>2021-05-29 08:37:16</time>
      </trkpt>
      <trkpt lat="42.96781" lon="-2.29711">
        <ele>536.4</ele>
        <time>2021-05-29 08:37:17</time>
      </trkpt>
      <trkpt lat="42.96789" lon="-2.29698">
        <ele>536.2</ele>
        <time>2021-05-29 08:37:18</time>
      </trkpt>
      <trkpt lat="42.96795" lon="-2.29685">
        <ele>536.2</ele>
        <time>2021-05-29 08:37:19</time>
      </trkpt>
      <trkpt lat="42.96801" lon="-2.29671">
        <ele>536</ele>
        <time>2021-05-29 08:37:20</time>
      </trkpt>
      <trkpt lat="42.96807" lon="-2.29658">
        <ele>535.6</ele>
        <time>2021-05-29 08:37:21</time>
      </trkpt>
      <trkpt lat="42.96816" lon="-2.29647">
        <ele>535.8</ele>
        <time>2021-05-29 08:37:22</time>
      </trkpt>
      <trkpt lat="42.96826" lon="-2.29638">
        <ele>535.6</ele>
        <time>2021-05-29 08:37:23</time>
      </trkpt>
      <trkpt lat="42.96837" lon="-2.29631">
        <ele>535.6</ele>
        <time>2021-05-29 08:37:24</time>
      </trkpt>
      <trkpt lat="42.96849" lon="-2.29626">
        <ele>535.4</ele>
        <time>2021-05-29 08:37:25</time>
      </trkpt>
      <trkpt lat="42.96862" lon="-2.29623">
        <ele>535.2</ele>
        <time>2021-05-29 08:37:26</time>
      </trkpt>
      <trkpt lat="42.96875" lon="-2.29622">
        <ele>535</ele>
        <time>2021-05-29 08:37:27</time>
      </trkpt>
      <trkpt lat="42.96888" lon="-2.29621">
        <ele>534.8</ele>
        <time>2021-05-29 08:37:28</time>
      </trkpt>
      <trkpt lat="42.96902" lon="-2.2962">
        <ele>534.4</ele>
        <time>2021-05-29 08:37:29</time>
      </trkpt>
      <trkpt lat="42.96915" lon="-2.29618">
        <ele>534.2</ele>
        <time>2021-05-29 08:37:30</time>
      </trkpt>
      <trkpt lat="42.96928" lon="-2.29614">
        <ele>534.2</ele>
        <time>2021-05-29 08:37:31</time>
      </trkpt>
      <trkpt lat="42.9694" lon="-2.29608">
        <ele>534.2</ele>
        <time>2021-05-29 08:37:32</time>
      </trkpt>
      <trkpt lat="42.96953" lon="-2.29602">
        <ele>533.8</ele>
        <time>2021-05-29 08:37:33</time>
      </trkpt>
      <trkpt lat="42.96965" lon="-2.29596">
        <ele>533.6</ele>
        <time>2021-05-29 08:37:34</time>
      </trkpt>
      <trkpt lat="42.96978" lon="-2.29591">
        <ele>533.6</ele>
        <time>2021-05-29 08:37:35</time>
      </trkpt>
      <trkpt lat="42.9699" lon="-2.29585">
        <ele>533.6</ele>
        <time>2021-05-29 08:37:36</time>
      </trkpt>
      <trkpt lat="42.97003" lon="-2.29579">
        <ele>533.2</ele>
        <time>2021-05-29 08:37:37</time>
      </trkpt>
      <trkpt lat="42.97015" lon="-2.29573">
        <ele>532.8</ele>
        <time>2021-05-29 08:37:38</time>
      </trkpt>
      <trkpt lat="42.97028" lon="-2.29567">
        <ele>532.6</ele>
        <time>2021-05-29 08:37:39</time>
      </trkpt>
      <trkpt lat="42.97042" lon="-2.29561">
        <ele>532.4</ele>
        <time>2021-05-29 08:37:40</time>
      </trkpt>
      <trkpt lat="42.97054" lon="-2.29554">
        <ele>531.8</ele>
        <time>2021-05-29 08:37:41</time>
      </trkpt>
      <trkpt lat="42.97067" lon="-2.29545">
        <ele>531.6</ele>
        <time>2021-05-29 08:37:42</time>
      </trkpt>
      <trkpt lat="42.97079" lon="-2.29535">
        <ele>531.6</ele>
        <time>2021-05-29 08:37:43</time>
      </trkpt>
      <trkpt lat="42.97091" lon="-2.29523">
        <ele>531.4</ele>
        <time>2021-05-29 08:37:44</time>
      </trkpt>
      <trkpt lat="42.97101" lon="-2.29509">
        <ele>531.2</ele>
        <time>2021-05-29 08:37:45</time>
      </trkpt>
      <trkpt lat="42.97111" lon="-2.29495">
        <ele>530.8</ele>
        <time>2021-05-29 08:37:46</time>
      </trkpt>
      <trkpt lat="42.9712" lon="-2.29481">
        <ele>530.8</ele>
        <time>2021-05-29 08:37:47</time>
      </trkpt>
      <trkpt lat="42.97129" lon="-2.29467">
        <ele>530.6</ele>
        <time>2021-05-29 08:37:48</time>
      </trkpt>
      <trkpt lat="42.97137" lon="-2.29452">
        <ele>530.6</ele>
        <time>2021-05-29 08:37:49</time>
      </trkpt>
      <trkpt lat="42.97143" lon="-2.29435">
        <ele>530.4</ele>
        <time>2021-05-29 08:37:50</time>
      </trkpt>
      <trkpt lat="42.97146" lon="-2.29416">
        <ele>530.2</ele>
        <time>2021-05-29 08:37:51</time>
      </trkpt>
      <trkpt lat="42.97148" lon="-2.29398">
        <ele>530</ele>
        <time>2021-05-29 08:37:52</time>
      </trkpt>
      <trkpt lat="42.97148" lon="-2.2938">
        <ele>529.8</ele>
        <time>2021-05-29 08:37:53</time>
      </trkpt>
      <trkpt lat="42.97148" lon="-2.29364">
        <ele>529.6</ele>
        <time>2021-05-29 08:37:54</time>
      </trkpt>
      <trkpt lat="42.97147" lon="-2.29348">
        <ele>529.4</ele>
        <time>2021-05-29 08:37:55</time>
      </trkpt>
      <trkpt lat="42.97147" lon="-2.29333">
        <ele>529</ele>
        <time>2021-05-29 08:37:56</time>
      </trkpt>
      <trkpt lat="42.97146" lon="-2.29319">
        <ele>528.8</ele>
        <time>2021-05-29 08:37:57</time>
      </trkpt>
      <trkpt lat="42.97147" lon="-2.29307">
        <ele>528.6</ele>
        <time>2021-05-29 08:37:58</time>
      </trkpt>
      <trkpt lat="42.97149" lon="-2.29295">
        <ele>528.4</ele>
        <time>2021-05-29 08:37:59</time>
      </trkpt>
      <trkpt lat="42.97152" lon="-2.29285">
        <ele>528</ele>
        <time>2021-05-29 08:38:00</time>
      </trkpt>
      <trkpt lat="42.97156" lon="-2.29276">
        <ele>528</ele>
        <time>2021-05-29 08:38:01</time>
      </trkpt>
      <trkpt lat="42.97162" lon="-2.29268">
        <ele>527.8</ele>
        <time>2021-05-29 08:38:02</time>
      </trkpt>
      <trkpt lat="42.97167" lon="-2.29261">
        <ele>527.6</ele>
        <time>2021-05-29 08:38:03</time>
      </trkpt>
      <trkpt lat="42.97173" lon="-2.29254">
        <ele>527.4</ele>
        <time>2021-05-29 08:38:04</time>
      </trkpt>
      <trkpt lat="42.9718" lon="-2.29248">
        <ele>527.2</ele>
        <time>2021-05-29 08:38:05</time>
      </trkpt>
      <trkpt lat="42.97188" lon="-2.29242">
        <ele>526.8</ele>
        <time>2021-05-29 08:38:06</time>
      </trkpt>
      <trkpt lat="42.97196" lon="-2.29237">
        <ele>526.8</ele>
        <time>2021-05-29 08:38:07</time>
      </trkpt>
      <trkpt lat="42.97204" lon="-2.29232">
        <ele>526.6</ele>
        <time>2021-05-29 08:38:08</time>
      </trkpt>
      <trkpt lat="42.97213" lon="-2.29227">
        <ele>526.2</ele>
        <time>2021-05-29 08:38:09</time>
      </trkpt>
      <trkpt lat="42.97223" lon="-2.29222">
        <ele>526.2</ele>
        <time>2021-05-29 08:38:10</time>
      </trkpt>
      <trkpt lat="42.97233" lon="-2.29216">
        <ele>525.8</ele>
        <time>2021-05-29 08:38:11</time>
      </trkpt>
      <trkpt lat="42.97244" lon="-2.29211">
        <ele>525.8</ele>
        <time>2021-05-29 08:38:12</time>
      </trkpt>
      <trkpt lat="42.97254" lon="-2.29209">
        <ele>525.6</ele>
        <time>2021-05-29 08:38:13</time>
      </trkpt>
      <trkpt lat="42.97265" lon="-2.2921">
        <ele>525.6</ele>
        <time>2021-05-29 08:38:14</time>
      </trkpt>
      <trkpt lat="42.97276" lon="-2.29212">
        <ele>525.6</ele>
        <time>2021-05-29 08:38:15</time>
      </trkpt>
      <trkpt lat="42.97287" lon="-2.29215">
        <ele>525.2</ele>
        <time>2021-05-29 08:38:16</time>
      </trkpt>
      <trkpt lat="42.97297" lon="-2.29218">
        <ele>525</ele>
        <time>2021-05-29 08:38:17</time>
      </trkpt>
      <trkpt lat="42.97308" lon="-2.29219">
        <ele>525</ele>
        <time>2021-05-29 08:38:18</time>
      </trkpt>
      <trkpt lat="42.97317" lon="-2.2922">
        <ele>524.6</ele>
        <time>2021-05-29 08:38:19</time>
      </trkpt>
      <trkpt lat="42.97326" lon="-2.29222">
        <ele>524.2</ele>
        <time>2021-05-29 08:38:20</time>
      </trkpt>
      <trkpt lat="42.97335" lon="-2.29221">
        <ele>523.8</ele>
        <time>2021-05-29 08:38:21</time>
      </trkpt>
      <trkpt lat="42.97345" lon="-2.29219">
        <ele>523.6</ele>
        <time>2021-05-29 08:38:22</time>
      </trkpt>
      <trkpt lat="42.97356" lon="-2.29217">
        <ele>523.6</ele>
        <time>2021-05-29 08:38:23</time>
      </trkpt>
      <trkpt lat="42.97366" lon="-2.29214">
        <ele>523.4</ele>
        <time>2021-05-29 08:38:24</time>
      </trkpt>
      <trkpt lat="42.97376" lon="-2.2921">
        <ele>523.2</ele>
        <time>2021-05-29 08:38:25</time>
      </trkpt>
      <trkpt lat="42.97386" lon="-2.29205">
        <ele>523.2</ele>
        <time>2021-05-29 08:38:26</time>
      </trkpt>
      <trkpt lat="42.97395" lon="-2.29201">
        <ele>523.2</ele>
        <time>2021-05-29 08:38:27</time>
      </trkpt>
      <trkpt lat="42.97404" lon="-2.29197">
        <ele>522.8</ele>
        <time>2021-05-29 08:38:28</time>
      </trkpt>
      <trkpt lat="42.97411" lon="-2.29192">
        <ele>522.8</ele>
        <time>2021-05-29 08:38:29</time>
      </trkpt>
      <trkpt lat="42.97418" lon="-2.29188">
        <ele>522.4</ele>
        <time>2021-05-29 08:38:30</time>
      </trkpt>
      <trkpt lat="42.97425" lon="-2.29184">
        <ele>522.4</ele>
        <time>2021-05-29 08:38:31</time>
      </trkpt>
      <trkpt lat="42.97432" lon="-2.2918">
        <ele>522.4</ele>
        <time>2021-05-29 08:38:32</time>
      </trkpt>
      <trkpt lat="42.97438" lon="-2.29177">
        <ele>522.2</ele>
        <time>2021-05-29 08:38:33</time>
      </trkpt>
      <trkpt lat="42.97445" lon="-2.29174">
        <ele>521.8</ele>
        <time>2021-05-29 08:38:34</time>
      </trkpt>
      <trkpt lat="42.97451" lon="-2.2917">
        <ele>521.6</ele>
        <time>2021-05-29 08:38:35</time>
      </trkpt>
      <trkpt lat="42.97458" lon="-2.29166">
        <ele>521.6</ele>
        <time>2021-05-29 08:38:36</time>
      </trkpt>
      <trkpt lat="42.97464" lon="-2.29161">
        <ele>521.4</ele>
        <time>2021-05-29 08:38:37</time>
      </trkpt>
      <trkpt lat="42.97471" lon="-2.29156">
        <ele>521</ele>
        <time>2021-05-29 08:38:38</time>
      </trkpt>
      <trkpt lat="42.97478" lon="-2.29152">
        <ele>521</ele>
        <time>2021-05-29 08:38:39</time>
      </trkpt>
      <trkpt lat="42.97484" lon="-2.29147">
        <ele>520.8</ele>
        <time>2021-05-29 08:38:40</time>
      </trkpt>
      <trkpt lat="42.9749" lon="-2.29141">
        <ele>520.8</ele>
        <time>2021-05-29 08:38:41</time>
      </trkpt>
      <trkpt lat="42.97495" lon="-2.29136">
        <ele>520.8</ele>
        <time>2021-05-29 08:38:42</time>
      </trkpt>
      <trkpt lat="42.97501" lon="-2.2913">
        <ele>520.4</ele>
        <time>2021-05-29 08:38:43</time>
      </trkpt>
      <trkpt lat="42.97506" lon="-2.29123">
        <ele>520.4</ele>
        <time>2021-05-29 08:38:44</time>
      </trkpt>
      <trkpt lat="42.97512" lon="-2.29117">
        <ele>520.4</ele>
        <time>2021-05-29 08:38:45</time>
      </trkpt>
      <trkpt lat="42.97517" lon="-2.2911">
        <ele>520.2</ele>
        <time>2021-05-29 08:38:46</time>
      </trkpt>
      <trkpt lat="42.97523" lon="-2.29103">
        <ele>519.8</ele>
        <time>2021-05-29 08:38:47</time>
      </trkpt>
      <trkpt lat="42.97529" lon="-2.29097">
        <ele>519.8</ele>
        <time>2021-05-29 08:38:48</time>
      </trkpt>
      <trkpt lat="42.97534" lon="-2.29093">
        <ele>519.6</ele>
        <time>2021-05-29 08:38:49</time>
      </trkpt>
      <trkpt lat="42.97541" lon="-2.2909">
        <ele>519.4</ele>
        <time>2021-05-29 08:38:50</time>
      </trkpt>
      <trkpt lat="42.97548" lon="-2.2909">
        <ele>519.4</ele>
        <time>2021-05-29 08:38:51</time>
      </trkpt>
      <trkpt lat="42.97555" lon="-2.2909">
        <ele>519.2</ele>
        <time>2021-05-29 08:38:52</time>
      </trkpt>
      <trkpt lat="42.97561" lon="-2.2909">
        <ele>519</ele>
        <time>2021-05-29 08:38:53</time>
      </trkpt>
      <trkpt lat="42.97568" lon="-2.2909">
        <ele>519</ele>
        <time>2021-05-29 08:38:54</time>
      </trkpt>
      <trkpt lat="42.97575" lon="-2.29089">
        <ele>519</ele>
        <time>2021-05-29 08:38:55</time>
      </trkpt>
      <trkpt lat="42.97582" lon="-2.29089">
        <ele>518.8</ele>
        <time>2021-05-29 08:38:56</time>
      </trkpt>
      <trkpt lat="42.9759" lon="-2.29089">
        <ele>518.6</ele>
        <time>2021-05-29 08:38:57</time>
      </trkpt>
      <trkpt lat="42.97599" lon="-2.29088">
        <ele>518.2</ele>
        <time>2021-05-29 08:38:58</time>
      </trkpt>
      <trkpt lat="42.97607" lon="-2.29085">
        <ele>518.2</ele>
        <time>2021-05-29 08:38:59</time>
      </trkpt>
      <trkpt lat="42.97617" lon="-2.2908">
        <ele>518</ele>
        <time>2021-05-29 08:39:00</time>
      </trkpt>
      <trkpt lat="42.97625" lon="-2.29074">
        <ele>518</ele>
        <time>2021-05-29 08:39:01</time>
      </trkpt>
      <trkpt lat="42.97634" lon="-2.29068">
        <ele>517.6</ele>
        <time>2021-05-29 08:39:02</time>
      </trkpt>
      <trkpt lat="42.97642" lon="-2.29061">
        <ele>517.6</ele>
        <time>2021-05-29 08:39:03</time>
      </trkpt>
      <trkpt lat="42.9765" lon="-2.29054">
        <ele>517.4</ele>
        <time>2021-05-29 08:39:04</time>
      </trkpt>
      <trkpt lat="42.97659" lon="-2.29049">
        <ele>517.4</ele>
        <time>2021-05-29 08:39:05</time>
      </trkpt>
      <trkpt lat="42.97669" lon="-2.29044">
        <ele>517.2</ele>
        <time>2021-05-29 08:39:06</time>
      </trkpt>
      <trkpt lat="42.97677" lon="-2.29037">
        <ele>517</ele>
        <time>2021-05-29 08:39:07</time>
      </trkpt>
      <trkpt lat="42.97686" lon="-2.29031">
        <ele>516.6</ele>
        <time>2021-05-29 08:39:08</time>
      </trkpt>
      <trkpt lat="42.97694" lon="-2.29024">
        <ele>516.6</ele>
        <time>2021-05-29 08:39:09</time>
      </trkpt>
      <trkpt lat="42.97703" lon="-2.29018">
        <ele>516.2</ele>
        <time>2021-05-29 08:39:10</time>
      </trkpt>
      <trkpt lat="42.97711" lon="-2.29013">
        <ele>516.2</ele>
        <time>2021-05-29 08:39:11</time>
      </trkpt>
      <trkpt lat="42.97718" lon="-2.29008">
        <ele>516.2</ele>
        <time>2021-05-29 08:39:12</time>
      </trkpt>
      <trkpt lat="42.97723" lon="-2.29002">
        <ele>516.2</ele>
        <time>2021-05-29 08:39:13</time>
      </trkpt>
      <trkpt lat="42.97726" lon="-2.28994">
        <ele>516</ele>
        <time>2021-05-29 08:39:14</time>
      </trkpt>
      <trkpt lat="42.97728" lon="-2.28985">
        <ele>516</ele>
        <time>2021-05-29 08:39:15</time>
      </trkpt>
      <trkpt lat="42.97727" lon="-2.28976">
        <ele>515.8</ele>
        <time>2021-05-29 08:39:16</time>
      </trkpt>
      <trkpt lat="42.97726" lon="-2.28967">
        <ele>515.6</ele>
        <time>2021-05-29 08:39:17</time>
      </trkpt>
      <trkpt lat="42.97724" lon="-2.2896">
        <ele>515.4</ele>
        <time>2021-05-29 08:39:18</time>
      </trkpt>
      <trkpt lat="42.97725" lon="-2.28953">
        <ele>515.2</ele>
        <time>2021-05-29 08:39:19</time>
      </trkpt>
      <trkpt lat="42.97727" lon="-2.28946">
        <ele>514.8</ele>
        <time>2021-05-29 08:39:20</time>
      </trkpt>
      <trkpt lat="42.97732" lon="-2.28941">
        <ele>514.6</ele>
        <time>2021-05-29 08:39:21</time>
      </trkpt>
      <trkpt lat="42.97737" lon="-2.28938">
        <ele>514.4</ele>
        <time>2021-05-29 08:39:22</time>
      </trkpt>
      <trkpt lat="42.97743" lon="-2.28935">
        <ele>514.2</ele>
        <time>2021-05-29 08:39:23</time>
      </trkpt>
      <trkpt lat="42.97749" lon="-2.28933">
        <ele>514</ele>
        <time>2021-05-29 08:39:24</time>
      </trkpt>
      <trkpt lat="42.97756" lon="-2.2893">
        <ele>514</ele>
        <time>2021-05-29 08:39:25</time>
      </trkpt>
      <trkpt lat="42.97764" lon="-2.28927">
        <ele>514</ele>
        <time>2021-05-29 08:39:26</time>
      </trkpt>
      <trkpt lat="42.97771" lon="-2.28924">
        <ele>513.8</ele>
        <time>2021-05-29 08:39:27</time>
      </trkpt>
      <trkpt lat="42.97779" lon="-2.28921">
        <ele>513.8</ele>
        <time>2021-05-29 08:39:28</time>
      </trkpt>
      <trkpt lat="42.97787" lon="-2.28918">
        <ele>513.6</ele>
        <time>2021-05-29 08:39:29</time>
      </trkpt>
      <trkpt lat="42.97795" lon="-2.28915">
        <ele>513.6</ele>
        <time>2021-05-29 08:39:30</time>
      </trkpt>
      <trkpt lat="42.97803" lon="-2.28911">
        <ele>513.6</ele>
        <time>2021-05-29 08:39:31</time>
      </trkpt>
      <trkpt lat="42.97811" lon="-2.28909">
        <ele>513.4</ele>
        <time>2021-05-29 08:39:32</time>
      </trkpt>
      <trkpt lat="42.9782" lon="-2.28907">
        <ele>513.2</ele>
        <time>2021-05-29 08:39:33</time>
      </trkpt>
      <trkpt lat="42.97829" lon="-2.28904">
        <ele>513.2</ele>
        <time>2021-05-29 08:39:34</time>
      </trkpt>
      <trkpt lat="42.97838" lon="-2.28901">
        <ele>512.8</ele>
        <time>2021-05-29 08:39:35</time>
      </trkpt>
      <trkpt lat="42.97847" lon="-2.28898">
        <ele>512.8</ele>
        <time>2021-05-29 08:39:36</time>
      </trkpt>
      <trkpt lat="42.97855" lon="-2.28895">
        <ele>512.6</ele>
        <time>2021-05-29 08:39:37</time>
      </trkpt>
      <trkpt lat="42.97864" lon="-2.28892">
        <ele>512.6</ele>
        <time>2021-05-29 08:39:38</time>
      </trkpt>
      <trkpt lat="42.97872" lon="-2.28887">
        <ele>512.6</ele>
        <time>2021-05-29 08:39:39</time>
      </trkpt>
      <trkpt lat="42.9788" lon="-2.28883">
        <ele>512.6</ele>
        <time>2021-05-29 08:39:40</time>
      </trkpt>
      <trkpt lat="42.97889" lon="-2.28879">
        <ele>512.6</ele>
        <time>2021-05-29 08:39:41</time>
      </trkpt>
      <trkpt lat="42.97898" lon="-2.28875">
        <ele>512.4</ele>
        <time>2021-05-29 08:39:42</time>
      </trkpt>
      <trkpt lat="42.97906" lon="-2.28872">
        <ele>512.2</ele>
        <time>2021-05-29 08:39:43</time>
      </trkpt>
      <trkpt lat="42.97915" lon="-2.28868">
        <ele>512.2</ele>
        <time>2021-05-29 08:39:44</time>
      </trkpt>
      <trkpt lat="42.97923" lon="-2.28865">
        <ele>512</ele>
        <time>2021-05-29 08:39:45</time>
      </trkpt>
      <trkpt lat="42.97931" lon="-2.2886">
        <ele>512</ele>
        <time>2021-05-29 08:39:46</time>
      </trkpt>
      <trkpt lat="42.9794" lon="-2.28856">
        <ele>511.8</ele>
        <time>2021-05-29 08:39:47</time>
      </trkpt>
      <trkpt lat="42.97948" lon="-2.28851">
        <ele>511.8</ele>
        <time>2021-05-29 08:39:48</time>
      </trkpt>
      <trkpt lat="42.97956" lon="-2.28847">
        <ele>511.4</ele>
        <time>2021-05-29 08:39:49</time>
      </trkpt>
      <trkpt lat="42.97965" lon="-2.28843">
        <ele>511.2</ele>
        <time>2021-05-29 08:39:50</time>
      </trkpt>
      <trkpt lat="42.97974" lon="-2.2884">
        <ele>511</ele>
        <time>2021-05-29 08:39:51</time>
      </trkpt>
      <trkpt lat="42.97983" lon="-2.28838">
        <ele>511</ele>
        <time>2021-05-29 08:39:52</time>
      </trkpt>
      <trkpt lat="42.97992" lon="-2.28836">
        <ele>510.8</ele>
        <time>2021-05-29 08:39:53</time>
      </trkpt>
      <trkpt lat="42.98002" lon="-2.28835">
        <ele>510.6</ele>
        <time>2021-05-29 08:39:54</time>
      </trkpt>
      <trkpt lat="42.98012" lon="-2.28836">
        <ele>510.6</ele>
        <time>2021-05-29 08:39:55</time>
      </trkpt>
      <trkpt lat="42.98021" lon="-2.28837">
        <ele>510.2</ele>
        <time>2021-05-29 08:39:56</time>
      </trkpt>
      <trkpt lat="42.9803" lon="-2.28839">
        <ele>510.2</ele>
        <time>2021-05-29 08:39:57</time>
      </trkpt>
      <trkpt lat="42.9804" lon="-2.2884">
        <ele>510</ele>
        <time>2021-05-29 08:39:58</time>
      </trkpt>
      <trkpt lat="42.98049" lon="-2.28842">
        <ele>509.8</ele>
        <time>2021-05-29 08:39:59</time>
      </trkpt>
      <trkpt lat="42.98059" lon="-2.28843">
        <ele>509.8</ele>
        <time>2021-05-29 08:40:00</time>
      </trkpt>
      <trkpt lat="42.98068" lon="-2.28845">
        <ele>509.8</ele>
        <time>2021-05-29 08:40:01</time>
      </trkpt>
      <trkpt lat="42.98078" lon="-2.28846">
        <ele>509.6</ele>
        <time>2021-05-29 08:40:02</time>
      </trkpt>
      <trkpt lat="42.98088" lon="-2.28848">
        <ele>509.4</ele>
        <time>2021-05-29 08:40:03</time>
      </trkpt>
      <trkpt lat="42.98098" lon="-2.28849">
        <ele>509.4</ele>
        <time>2021-05-29 08:40:04</time>
      </trkpt>
      <trkpt lat="42.98107" lon="-2.2885">
        <ele>509.2</ele>
        <time>2021-05-29 08:40:05</time>
      </trkpt>
      <trkpt lat="42.98117" lon="-2.28851">
        <ele>509.2</ele>
        <time>2021-05-29 08:40:06</time>
      </trkpt>
      <trkpt lat="42.98127" lon="-2.28852">
        <ele>509</ele>
        <time>2021-05-29 08:40:07</time>
      </trkpt>
      <trkpt lat="42.98137" lon="-2.28854">
        <ele>508.8</ele>
        <time>2021-05-29 08:40:08</time>
      </trkpt>
      <trkpt lat="42.98147" lon="-2.28856">
        <ele>508.4</ele>
        <time>2021-05-29 08:40:09</time>
      </trkpt>
      <trkpt lat="42.98157" lon="-2.28858">
        <ele>508.4</ele>
        <time>2021-05-29 08:40:10</time>
      </trkpt>
      <trkpt lat="42.98166" lon="-2.2886">
        <ele>508.4</ele>
        <time>2021-05-29 08:40:11</time>
      </trkpt>
      <trkpt lat="42.98176" lon="-2.28862">
        <ele>508.2</ele>
        <time>2021-05-29 08:40:12</time>
      </trkpt>
      <trkpt lat="42.98186" lon="-2.28863">
        <ele>508.2</ele>
        <time>2021-05-29 08:40:13</time>
      </trkpt>
      <trkpt lat="42.98196" lon="-2.28862">
        <ele>507.8</ele>
        <time>2021-05-29 08:40:14</time>
      </trkpt>
      <trkpt lat="42.98206" lon="-2.28861">
        <ele>507.8</ele>
        <time>2021-05-29 08:40:15</time>
      </trkpt>
      <trkpt lat="42.98216" lon="-2.28857">
        <ele>507.8</ele>
        <time>2021-05-29 08:40:16</time>
      </trkpt>
      <trkpt lat="42.98225" lon="-2.28853">
        <ele>507.6</ele>
        <time>2021-05-29 08:40:17</time>
      </trkpt>
      <trkpt lat="42.98234" lon="-2.28847">
        <ele>507.6</ele>
        <time>2021-05-29 08:40:18</time>
      </trkpt>
      <trkpt lat="42.98242" lon="-2.28842">
        <ele>507.4</ele>
        <time>2021-05-29 08:40:19</time>
      </trkpt>
      <trkpt lat="42.98251" lon="-2.28835">
        <ele>507.4</ele>
        <time>2021-05-29 08:40:20</time>
      </trkpt>
      <trkpt lat="42.98259" lon="-2.28829">
        <ele>507.4</ele>
        <time>2021-05-29 08:40:21</time>
      </trkpt>
      <trkpt lat="42.98267" lon="-2.28823">
        <ele>507.2</ele>
        <time>2021-05-29 08:40:22</time>
      </trkpt>
      <trkpt lat="42.98275" lon="-2.28816">
        <ele>507</ele>
        <time>2021-05-29 08:40:23</time>
      </trkpt>
      <trkpt lat="42.98283" lon="-2.28808">
        <ele>506.6</ele>
        <time>2021-05-29 08:40:24</time>
      </trkpt>
      <trkpt lat="42.98291" lon="-2.288">
        <ele>506.4</ele>
        <time>2021-05-29 08:40:25</time>
      </trkpt>
      <trkpt lat="42.98298" lon="-2.28792">
        <ele>506.4</ele>
        <time>2021-05-29 08:40:26</time>
      </trkpt>
      <trkpt lat="42.98306" lon="-2.28784">
        <ele>506.4</ele>
        <time>2021-05-29 08:40:27</time>
      </trkpt>
      <trkpt lat="42.98314" lon="-2.28776">
        <ele>506.2</ele>
        <time>2021-05-29 08:40:28</time>
      </trkpt>
      <trkpt lat="42.98323" lon="-2.28768">
        <ele>506.2</ele>
        <time>2021-05-29 08:40:29</time>
      </trkpt>
      <trkpt lat="42.98332" lon="-2.28761">
        <ele>506.2</ele>
        <time>2021-05-29 08:40:30</time>
      </trkpt>
      <trkpt lat="42.98341" lon="-2.28754">
        <ele>506</ele>
        <time>2021-05-29 08:40:31</time>
      </trkpt>
      <trkpt lat="42.9835" lon="-2.28748">
        <ele>505.8</ele>
        <time>2021-05-29 08:40:32</time>
      </trkpt>
      <trkpt lat="42.98359" lon="-2.28741">
        <ele>505.8</ele>
        <time>2021-05-29 08:40:33</time>
      </trkpt>
      <trkpt lat="42.98367" lon="-2.28734">
        <ele>505.6</ele>
        <time>2021-05-29 08:40:34</time>
      </trkpt>
      <trkpt lat="42.98377" lon="-2.28727">
        <ele>505.4</ele>
        <time>2021-05-29 08:40:35</time>
      </trkpt>
      <trkpt lat="42.98386" lon="-2.2872">
        <ele>505.2</ele>
        <time>2021-05-29 08:40:36</time>
      </trkpt>
      <trkpt lat="42.98395" lon="-2.28713">
        <ele>505</ele>
        <time>2021-05-29 08:40:37</time>
      </trkpt>
      <trkpt lat="42.98404" lon="-2.28706">
        <ele>505</ele>
        <time>2021-05-29 08:40:38</time>
      </trkpt>
      <trkpt lat="42.98412" lon="-2.28697">
        <ele>504.6</ele>
        <time>2021-05-29 08:40:39</time>
      </trkpt>
      <trkpt lat="42.9842" lon="-2.28687">
        <ele>504.6</ele>
        <time>2021-05-29 08:40:40</time>
      </trkpt>
      <trkpt lat="42.98428" lon="-2.28677">
        <ele>504.4</ele>
        <time>2021-05-29 08:40:41</time>
      </trkpt>
      <trkpt lat="42.98436" lon="-2.28667">
        <ele>504.2</ele>
        <time>2021-05-29 08:40:42</time>
      </trkpt>
      <trkpt lat="42.98443" lon="-2.28655">
        <ele>504.2</ele>
        <time>2021-05-29 08:40:43</time>
      </trkpt>
      <trkpt lat="42.98449" lon="-2.28643">
        <ele>504.2</ele>
        <time>2021-05-29 08:40:44</time>
      </trkpt>
      <trkpt lat="42.98455" lon="-2.2863">
        <ele>504</ele>
        <time>2021-05-29 08:40:45</time>
      </trkpt>
      <trkpt lat="42.98461" lon="-2.28617">
        <ele>504</ele>
        <time>2021-05-29 08:40:46</time>
      </trkpt>
      <trkpt lat="42.98466" lon="-2.28604">
        <ele>503.8</ele>
        <time>2021-05-29 08:40:47</time>
      </trkpt>
      <trkpt lat="42.9847" lon="-2.2859">
        <ele>503.8</ele>
        <time>2021-05-29 08:40:48</time>
      </trkpt>
      <trkpt lat="42.98473" lon="-2.28576">
        <ele>503.4</ele>
        <time>2021-05-29 08:40:49</time>
      </trkpt>
      <trkpt lat="42.98477" lon="-2.28562">
        <ele>503.2</ele>
        <time>2021-05-29 08:40:50</time>
      </trkpt>
      <trkpt lat="42.9848" lon="-2.28549">
        <ele>503</ele>
        <time>2021-05-29 08:40:51</time>
      </trkpt>
      <trkpt lat="42.98483" lon="-2.28537">
        <ele>503</ele>
        <time>2021-05-29 08:40:52</time>
      </trkpt>
      <trkpt lat="42.98486" lon="-2.28524">
        <ele>503</ele>
        <time>2021-05-29 08:40:53</time>
      </trkpt>
      <trkpt lat="42.98489" lon="-2.28512">
        <ele>503</ele>
        <time>2021-05-29 08:40:54</time>
      </trkpt>
      <trkpt lat="42.98491" lon="-2.28499">
        <ele>502.8</ele>
        <time>2021-05-29 08:40:55</time>
      </trkpt>
      <trkpt lat="42.98493" lon="-2.28487">
        <ele>502.8</ele>
        <time>2021-05-29 08:40:56</time>
      </trkpt>
      <trkpt lat="42.98494" lon="-2.28474">
        <ele>502.6</ele>
        <time>2021-05-29 08:40:57</time>
      </trkpt>
      <trkpt lat="42.98494" lon="-2.28462">
        <ele>502.6</ele>
        <time>2021-05-29 08:40:58</time>
      </trkpt>
      <trkpt lat="42.98495" lon="-2.28449">
        <ele>502.4</ele>
        <time>2021-05-29 08:40:59</time>
      </trkpt>
      <trkpt lat="42.98495" lon="-2.28437">
        <ele>502.4</ele>
        <time>2021-05-29 08:41:00</time>
      </trkpt>
      <trkpt lat="42.98495" lon="-2.28424">
        <ele>502.2</ele>
        <time>2021-05-29 08:41:01</time>
      </trkpt>
      <trkpt lat="42.98496" lon="-2.28412">
        <ele>502</ele>
        <time>2021-05-29 08:41:02</time>
      </trkpt>
      <trkpt lat="42.98496" lon="-2.28401">
        <ele>502</ele>
        <time>2021-05-29 08:41:03</time>
      </trkpt>
      <trkpt lat="42.98498" lon="-2.2839">
        <ele>501.8</ele>
        <time>2021-05-29 08:41:04</time>
      </trkpt>
      <trkpt lat="42.985" lon="-2.2838">
        <ele>501.8</ele>
        <time>2021-05-29 08:41:05</time>
      </trkpt>
      <trkpt lat="42.98504" lon="-2.28371">
        <ele>501.8</ele>
        <time>2021-05-29 08:41:06</time>
      </trkpt>
      <trkpt lat="42.98508" lon="-2.28362">
        <ele>501.6</ele>
        <time>2021-05-29 08:41:07</time>
      </trkpt>
      <trkpt lat="42.98512" lon="-2.28354">
        <ele>501.6</ele>
        <time>2021-05-29 08:41:08</time>
      </trkpt>
      <trkpt lat="42.98517" lon="-2.28347">
        <ele>501.6</ele>
        <time>2021-05-29 08:41:09</time>
      </trkpt>
      <trkpt lat="42.98523" lon="-2.2834">
        <ele>501.4</ele>
        <time>2021-05-29 08:41:10</time>
      </trkpt>
      <trkpt lat="42.9853" lon="-2.28335">
        <ele>501.4</ele>
        <time>2021-05-29 08:41:11</time>
      </trkpt>
      <trkpt lat="42.98537" lon="-2.28331">
        <ele>501.2</ele>
        <time>2021-05-29 08:41:12</time>
      </trkpt>
      <trkpt lat="42.98546" lon="-2.28327">
        <ele>500.8</ele>
        <time>2021-05-29 08:41:13</time>
      </trkpt>
      <trkpt lat="42.98554" lon="-2.28324">
        <ele>500.6</ele>
        <time>2021-05-29 08:41:14</time>
      </trkpt>
      <trkpt lat="42.98562" lon="-2.2832">
        <ele>500.6</ele>
        <time>2021-05-29 08:41:15</time>
      </trkpt>
      <trkpt lat="42.98571" lon="-2.28315">
        <ele>500.6</ele>
        <time>2021-05-29 08:41:16</time>
      </trkpt>
      <trkpt lat="42.98579" lon="-2.28308">
        <ele>500.4</ele>
        <time>2021-05-29 08:41:17</time>
      </trkpt>
      <trkpt lat="42.98587" lon="-2.28301">
        <ele>500.4</ele>
        <time>2021-05-29 08:41:18</time>
      </trkpt>
      <trkpt lat="42.98595" lon="-2.28293">
        <ele>500.2</ele>
        <time>2021-05-29 08:41:19</time>
      </trkpt>
      <trkpt lat="42.98602" lon="-2.28285">
        <ele>500.2</ele>
        <time>2021-05-29 08:41:20</time>
      </trkpt>
      <trkpt lat="42.9861" lon="-2.28277">
        <ele>500</ele>
        <time>2021-05-29 08:41:21</time>
      </trkpt>
      <trkpt lat="42.98617" lon="-2.28269">
        <ele>499.8</ele>
        <time>2021-05-29 08:41:22</time>
      </trkpt>
      <trkpt lat="42.98624" lon="-2.2826">
        <ele>499.8</ele>
        <time>2021-05-29 08:41:23</time>
      </trkpt>
      <trkpt lat="42.9863" lon="-2.28251">
        <ele>499.6</ele>
        <time>2021-05-29 08:41:24</time>
      </trkpt>
      <trkpt lat="42.98637" lon="-2.28241">
        <ele>499.4</ele>
        <time>2021-05-29 08:41:25</time>
      </trkpt>
      <trkpt lat="42.98643" lon="-2.28231">
        <ele>499.2</ele>
        <time>2021-05-29 08:41:26</time>
      </trkpt>
      <trkpt lat="42.98649" lon="-2.28221">
        <ele>499.2</ele>
        <time>2021-05-29 08:41:27</time>
      </trkpt>
      <trkpt lat="42.98655" lon="-2.28211">
        <ele>499</ele>
        <time>2021-05-29 08:41:28</time>
      </trkpt>
      <trkpt lat="42.98661" lon="-2.282">
        <ele>498.8</ele>
        <time>2021-05-29 08:41:29</time>
      </trkpt>
      <trkpt lat="42.98667" lon="-2.2819">
        <ele>498.8</ele>
        <time>2021-05-29 08:41:30</time>
      </trkpt>
      <trkpt lat="42.98673" lon="-2.2818">
        <ele>498.6</ele>
        <time>2021-05-29 08:41:31</time>
      </trkpt>
      <trkpt lat="42.98679" lon="-2.28169">
        <ele>498.6</ele>
        <time>2021-05-29 08:41:32</time>
      </trkpt>
      <trkpt lat="42.98684" lon="-2.28158">
        <ele>498.8</ele>
        <time>2021-05-29 08:41:33</time>
      </trkpt>
      <trkpt lat="42.98689" lon="-2.28147">
        <ele>498.6</ele>
        <time>2021-05-29 08:41:34</time>
      </trkpt>
      <trkpt lat="42.98693" lon="-2.28136">
        <ele>498.6</ele>
        <time>2021-05-29 08:41:35</time>
      </trkpt>
      <trkpt lat="42.98697" lon="-2.28125">
        <ele>498.6</ele>
        <time>2021-05-29 08:41:36</time>
      </trkpt>
      <trkpt lat="42.987" lon="-2.28114">
        <ele>498.6</ele>
        <time>2021-05-29 08:41:37</time>
      </trkpt>
      <trkpt lat="42.98703" lon="-2.28104">
        <ele>498.2</ele>
        <time>2021-05-29 08:41:38</time>
      </trkpt>
      <trkpt lat="42.98707" lon="-2.28094">
        <ele>497.8</ele>
        <time>2021-05-29 08:41:39</time>
      </trkpt>
      <trkpt lat="42.9871" lon="-2.28085">
        <ele>497.6</ele>
        <time>2021-05-29 08:41:40</time>
      </trkpt>
      <trkpt lat="42.98713" lon="-2.28076">
        <ele>497.6</ele>
        <time>2021-05-29 08:41:41</time>
      </trkpt>
      <trkpt lat="42.98716" lon="-2.28068">
        <ele>497.6</ele>
        <time>2021-05-29 08:41:42</time>
      </trkpt>
      <trkpt lat="42.98719" lon="-2.28059">
        <ele>497.4</ele>
        <time>2021-05-29 08:41:43</time>
      </trkpt>
      <trkpt lat="42.98723" lon="-2.28051">
        <ele>497.4</ele>
        <time>2021-05-29 08:41:44</time>
      </trkpt>
      <trkpt lat="42.98726" lon="-2.28043">
        <ele>497.4</ele>
        <time>2021-05-29 08:41:45</time>
      </trkpt>
      <trkpt lat="42.9873" lon="-2.28035">
        <ele>497.4</ele>
        <time>2021-05-29 08:41:46</time>
      </trkpt>
      <trkpt lat="42.98734" lon="-2.28028">
        <ele>497.4</ele>
        <time>2021-05-29 08:41:47</time>
      </trkpt>
      <trkpt lat="42.98738" lon="-2.2802">
        <ele>497.4</ele>
        <time>2021-05-29 08:41:48</time>
      </trkpt>
      <trkpt lat="42.98742" lon="-2.28013">
        <ele>497.4</ele>
        <time>2021-05-29 08:41:49</time>
      </trkpt>
      <trkpt lat="42.98745" lon="-2.28006">
        <ele>497.2</ele>
        <time>2021-05-29 08:41:50</time>
      </trkpt>
      <trkpt lat="42.98749" lon="-2.27999">
        <ele>497</ele>
        <time>2021-05-29 08:41:51</time>
      </trkpt>
      <trkpt lat="42.98753" lon="-2.27992">
        <ele>497</ele>
        <time>2021-05-29 08:41:52</time>
      </trkpt>
      <trkpt lat="42.98756" lon="-2.27985">
        <ele>497.2</ele>
        <time>2021-05-29 08:41:53</time>
      </trkpt>
      <trkpt lat="42.9876" lon="-2.27978">
        <ele>496.8</ele>
        <time>2021-05-29 08:41:54</time>
      </trkpt>
      <trkpt lat="42.98763" lon="-2.27971">
        <ele>496.8</ele>
        <time>2021-05-29 08:41:55</time>
      </trkpt>
      <trkpt lat="42.98766" lon="-2.27965">
        <ele>496.8</ele>
        <time>2021-05-29 08:41:56</time>
      </trkpt>
      <trkpt lat="42.98769" lon="-2.27958">
        <ele>496.8</ele>
        <time>2021-05-29 08:41:57</time>
      </trkpt>
      <trkpt lat="42.98773" lon="-2.27952">
        <ele>496.6</ele>
        <time>2021-05-29 08:41:58</time>
      </trkpt>
      <trkpt lat="42.98776" lon="-2.27945">
        <ele>496.8</ele>
        <time>2021-05-29 08:41:59</time>
      </trkpt>
      <trkpt lat="42.9878" lon="-2.27939">
        <ele>496.6</ele>
        <time>2021-05-29 08:42:00</time>
      </trkpt>
      <trkpt lat="42.98783" lon="-2.27932">
        <ele>496.4</ele>
        <time>2021-05-29 08:42:01</time>
      </trkpt>
      <trkpt lat="42.98786" lon="-2.27925">
        <ele>496.4</ele>
        <time>2021-05-29 08:42:02</time>
      </trkpt>
      <trkpt lat="42.9879" lon="-2.27918">
        <ele>496.4</ele>
        <time>2021-05-29 08:42:03</time>
      </trkpt>
      <trkpt lat="42.98794" lon="-2.27911">
        <ele>496.2</ele>
        <time>2021-05-29 08:42:04</time>
      </trkpt>
      <trkpt lat="42.98797" lon="-2.27903">
        <ele>496.2</ele>
        <time>2021-05-29 08:42:05</time>
      </trkpt>
      <trkpt lat="42.98802" lon="-2.27896">
        <ele>496</ele>
        <time>2021-05-29 08:42:06</time>
      </trkpt>
      <trkpt lat="42.98805" lon="-2.27888">
        <ele>496</ele>
        <time>2021-05-29 08:42:07</time>
      </trkpt>
      <trkpt lat="42.9881" lon="-2.27879">
        <ele>496</ele>
        <time>2021-05-29 08:42:08</time>
      </trkpt>
      <trkpt lat="42.98814" lon="-2.27871">
        <ele>495.8</ele>
        <time>2021-05-29 08:42:09</time>
      </trkpt>
      <trkpt lat="42.98818" lon="-2.27862">
        <ele>495.6</ele>
        <time>2021-05-29 08:42:10</time>
      </trkpt>
      <trkpt lat="42.98822" lon="-2.27852">
        <ele>495.6</ele>
        <time>2021-05-29 08:42:11</time>
      </trkpt>
      <trkpt lat="42.98826" lon="-2.27843">
        <ele>495.6</ele>
        <time>2021-05-29 08:42:12</time>
      </trkpt>
      <trkpt lat="42.98831" lon="-2.27834">
        <ele>495.6</ele>
        <time>2021-05-29 08:42:13</time>
      </trkpt>
      <trkpt lat="42.98835" lon="-2.27824">
        <ele>495.4</ele>
        <time>2021-05-29 08:42:14</time>
      </trkpt>
      <trkpt lat="42.98839" lon="-2.27815">
        <ele>495.2</ele>
        <time>2021-05-29 08:42:15</time>
      </trkpt>
      <trkpt lat="42.98844" lon="-2.27805">
        <ele>495</ele>
        <time>2021-05-29 08:42:16</time>
      </trkpt>
      <trkpt lat="42.98849" lon="-2.27796">
        <ele>494.8</ele>
        <time>2021-05-29 08:42:17</time>
      </trkpt>
      <trkpt lat="42.98855" lon="-2.27787">
        <ele>494.6</ele>
        <time>2021-05-29 08:42:18</time>
      </trkpt>
      <trkpt lat="42.9886" lon="-2.27778">
        <ele>494.4</ele>
        <time>2021-05-29 08:42:19</time>
      </trkpt>
      <trkpt lat="42.98866" lon="-2.27769">
        <ele>494.4</ele>
        <time>2021-05-29 08:42:20</time>
      </trkpt>
      <trkpt lat="42.98872" lon="-2.2776">
        <ele>494.2</ele>
        <time>2021-05-29 08:42:21</time>
      </trkpt>
      <trkpt lat="42.98879" lon="-2.2775">
        <ele>494.2</ele>
        <time>2021-05-29 08:42:22</time>
      </trkpt>
      <trkpt lat="42.98885" lon="-2.27741">
        <ele>494</ele>
        <time>2021-05-29 08:42:23</time>
      </trkpt>
      <trkpt lat="42.98892" lon="-2.27731">
        <ele>494</ele>
        <time>2021-05-29 08:42:24</time>
      </trkpt>
      <trkpt lat="42.98898" lon="-2.27721">
        <ele>494</ele>
        <time>2021-05-29 08:42:25</time>
      </trkpt>
      <trkpt lat="42.98904" lon="-2.27712">
        <ele>493.8</ele>
        <time>2021-05-29 08:42:26</time>
      </trkpt>
      <trkpt lat="42.98911" lon="-2.27702">
        <ele>493.8</ele>
        <time>2021-05-29 08:42:27</time>
      </trkpt>
      <trkpt lat="42.98917" lon="-2.27692">
        <ele>493.6</ele>
        <time>2021-05-29 08:42:28</time>
      </trkpt>
      <trkpt lat="42.98924" lon="-2.27682">
        <ele>493.6</ele>
        <time>2021-05-29 08:42:29</time>
      </trkpt>
      <trkpt lat="42.9893" lon="-2.27672">
        <ele>493.6</ele>
        <time>2021-05-29 08:42:30</time>
      </trkpt>
      <trkpt lat="42.98937" lon="-2.27663">
        <ele>493.2</ele>
        <time>2021-05-29 08:42:31</time>
      </trkpt>
      <trkpt lat="42.98943" lon="-2.27653">
        <ele>493.2</ele>
        <time>2021-05-29 08:42:32</time>
      </trkpt>
      <trkpt lat="42.9895" lon="-2.27643">
        <ele>493</ele>
        <time>2021-05-29 08:42:33</time>
      </trkpt>
      <trkpt lat="42.98956" lon="-2.27633">
        <ele>492.8</ele>
        <time>2021-05-29 08:42:34</time>
      </trkpt>
      <trkpt lat="42.98963" lon="-2.27622">
        <ele>492.6</ele>
        <time>2021-05-29 08:42:35</time>
      </trkpt>
      <trkpt lat="42.9897" lon="-2.27612">
        <ele>492.6</ele>
        <time>2021-05-29 08:42:36</time>
      </trkpt>
      <trkpt lat="42.98976" lon="-2.27602">
        <ele>492.6</ele>
        <time>2021-05-29 08:42:37</time>
      </trkpt>
      <trkpt lat="42.98983" lon="-2.27592">
        <ele>492.6</ele>
        <time>2021-05-29 08:42:38</time>
      </trkpt>
      <trkpt lat="42.9899" lon="-2.27581">
        <ele>492.4</ele>
        <time>2021-05-29 08:42:39</time>
      </trkpt>
      <trkpt lat="42.98997" lon="-2.2757">
        <ele>492.4</ele>
        <time>2021-05-29 08:42:40</time>
      </trkpt>
      <trkpt lat="42.99003" lon="-2.27559">
        <ele>492.4</ele>
        <time>2021-05-29 08:42:41</time>
      </trkpt>
      <trkpt lat="42.99009" lon="-2.27548">
        <ele>492.2</ele>
        <time>2021-05-29 08:42:42</time>
      </trkpt>
      <trkpt lat="42.99015" lon="-2.27537">
        <ele>492</ele>
        <time>2021-05-29 08:42:43</time>
      </trkpt>
      <trkpt lat="42.99022" lon="-2.27526">
        <ele>491.6</ele>
        <time>2021-05-29 08:42:44</time>
      </trkpt>
      <trkpt lat="42.99029" lon="-2.27515">
        <ele>491.6</ele>
        <time>2021-05-29 08:42:45</time>
      </trkpt>
      <trkpt lat="42.99036" lon="-2.27505">
        <ele>491.4</ele>
        <time>2021-05-29 08:42:46</time>
      </trkpt>
      <trkpt lat="42.99044" lon="-2.27495">
        <ele>491.4</ele>
        <time>2021-05-29 08:42:47</time>
      </trkpt>
      <trkpt lat="42.99051" lon="-2.27484">
        <ele>491.2</ele>
        <time>2021-05-29 08:42:48</time>
      </trkpt>
      <trkpt lat="42.99059" lon="-2.27475">
        <ele>491</ele>
        <time>2021-05-29 08:42:49</time>
      </trkpt>
      <trkpt lat="42.99067" lon="-2.27464">
        <ele>490.8</ele>
        <time>2021-05-29 08:42:50</time>
      </trkpt>
      <trkpt lat="42.99075" lon="-2.27454">
        <ele>490.6</ele>
        <time>2021-05-29 08:42:51</time>
      </trkpt>
      <trkpt lat="42.99084" lon="-2.27445">
        <ele>490.6</ele>
        <time>2021-05-29 08:42:52</time>
      </trkpt>
      <trkpt lat="42.99093" lon="-2.27435">
        <ele>490.4</ele>
        <time>2021-05-29 08:42:53</time>
      </trkpt>
      <trkpt lat="42.99101" lon="-2.27426">
        <ele>490.2</ele>
        <time>2021-05-29 08:42:54</time>
      </trkpt>
      <trkpt lat="42.9911" lon="-2.27418">
        <ele>490</ele>
        <time>2021-05-29 08:42:55</time>
      </trkpt>
      <trkpt lat="42.99119" lon="-2.2741">
        <ele>490</ele>
        <time>2021-05-29 08:42:56</time>
      </trkpt>
      <trkpt lat="42.99128" lon="-2.27402">
        <ele>489.8</ele>
        <time>2021-05-29 08:42:57</time>
      </trkpt>
      <trkpt lat="42.99138" lon="-2.27395">
        <ele>489.6</ele>
        <time>2021-05-29 08:42:58</time>
      </trkpt>
      <trkpt lat="42.99147" lon="-2.27388">
        <ele>489.4</ele>
        <time>2021-05-29 08:42:59</time>
      </trkpt>
      <trkpt lat="42.99157" lon="-2.27382">
        <ele>489.6</ele>
        <time>2021-05-29 08:43:00</time>
      </trkpt>
      <trkpt lat="42.99167" lon="-2.27376">
        <ele>489.4</ele>
        <time>2021-05-29 08:43:01</time>
      </trkpt>
      <trkpt lat="42.99177" lon="-2.27371">
        <ele>489.4</ele>
        <time>2021-05-29 08:43:02</time>
      </trkpt>
      <trkpt lat="42.99187" lon="-2.27366">
        <ele>489.2</ele>
        <time>2021-05-29 08:43:03</time>
      </trkpt>
      <trkpt lat="42.99197" lon="-2.27361">
        <ele>489</ele>
        <time>2021-05-29 08:43:04</time>
      </trkpt>
      <trkpt lat="42.99207" lon="-2.27357">
        <ele>489</ele>
        <time>2021-05-29 08:43:05</time>
      </trkpt>
      <trkpt lat="42.99217" lon="-2.27353">
        <ele>489</ele>
        <time>2021-05-29 08:43:06</time>
      </trkpt>
      <trkpt lat="42.99227" lon="-2.27349">
        <ele>488.8</ele>
        <time>2021-05-29 08:43:07</time>
      </trkpt>
      <trkpt lat="42.99237" lon="-2.27345">
        <ele>488.6</ele>
        <time>2021-05-29 08:43:08</time>
      </trkpt>
      <trkpt lat="42.99247" lon="-2.27342">
        <ele>488.6</ele>
        <time>2021-05-29 08:43:09</time>
      </trkpt>
      <trkpt lat="42.99258" lon="-2.27339">
        <ele>488.2</ele>
        <time>2021-05-29 08:43:10</time>
      </trkpt>
      <trkpt lat="42.99268" lon="-2.27336">
        <ele>488.4</ele>
        <time>2021-05-29 08:43:11</time>
      </trkpt>
      <trkpt lat="42.99278" lon="-2.27333">
        <ele>488.4</ele>
        <time>2021-05-29 08:43:12</time>
      </trkpt>
      <trkpt lat="42.99289" lon="-2.27331">
        <ele>488.2</ele>
        <time>2021-05-29 08:43:13</time>
      </trkpt>
      <trkpt lat="42.99299" lon="-2.27328">
        <ele>488</ele>
        <time>2021-05-29 08:43:14</time>
      </trkpt>
      <trkpt lat="42.9931" lon="-2.27326">
        <ele>488</ele>
        <time>2021-05-29 08:43:15</time>
      </trkpt>
      <trkpt lat="42.9932" lon="-2.27324">
        <ele>487.8</ele>
        <time>2021-05-29 08:43:16</time>
      </trkpt>
      <trkpt lat="42.99331" lon="-2.27322">
        <ele>487.6</ele>
        <time>2021-05-29 08:43:17</time>
      </trkpt>
      <trkpt lat="42.99342" lon="-2.27319">
        <ele>487.4</ele>
        <time>2021-05-29 08:43:18</time>
      </trkpt>
      <trkpt lat="42.99353" lon="-2.27316">
        <ele>487.2</ele>
        <time>2021-05-29 08:43:19</time>
      </trkpt>
      <trkpt lat="42.99363" lon="-2.27314">
        <ele>487.2</ele>
        <time>2021-05-29 08:43:20</time>
      </trkpt>
      <trkpt lat="42.99374" lon="-2.27311">
        <ele>487.2</ele>
        <time>2021-05-29 08:43:21</time>
      </trkpt>
      <trkpt lat="42.99385" lon="-2.27307">
        <ele>486.8</ele>
        <time>2021-05-29 08:43:22</time>
      </trkpt>
      <trkpt lat="42.99396" lon="-2.27304">
        <ele>486.6</ele>
        <time>2021-05-29 08:43:23</time>
      </trkpt>
      <trkpt lat="42.99406" lon="-2.27301">
        <ele>486.4</ele>
        <time>2021-05-29 08:43:24</time>
      </trkpt>
      <trkpt lat="42.99415" lon="-2.27298">
        <ele>486.6</ele>
        <time>2021-05-29 08:43:25</time>
      </trkpt>
      <trkpt lat="42.99422" lon="-2.27291">
        <ele>486.4</ele>
        <time>2021-05-29 08:43:26</time>
      </trkpt>
      <trkpt lat="42.99428" lon="-2.27282">
        <ele>486.2</ele>
        <time>2021-05-29 08:43:27</time>
      </trkpt>
      <trkpt lat="42.99432" lon="-2.27272">
        <ele>486</ele>
        <time>2021-05-29 08:43:28</time>
      </trkpt>
      <trkpt lat="42.99436" lon="-2.27262">
        <ele>486</ele>
        <time>2021-05-29 08:43:29</time>
      </trkpt>
      <trkpt lat="42.99441" lon="-2.27253">
        <ele>485.8</ele>
        <time>2021-05-29 08:43:30</time>
      </trkpt>
      <trkpt lat="42.99448" lon="-2.27247">
        <ele>485.8</ele>
        <time>2021-05-29 08:43:31</time>
      </trkpt>
      <trkpt lat="42.99456" lon="-2.27244">
        <ele>485.6</ele>
        <time>2021-05-29 08:43:32</time>
      </trkpt>
      <trkpt lat="42.99464" lon="-2.27244">
        <ele>485.2</ele>
        <time>2021-05-29 08:43:33</time>
      </trkpt>
      <trkpt lat="42.99473" lon="-2.27244">
        <ele>485.2</ele>
        <time>2021-05-29 08:43:34</time>
      </trkpt>
      <trkpt lat="42.99482" lon="-2.27242">
        <ele>485.2</ele>
        <time>2021-05-29 08:43:35</time>
      </trkpt>
      <trkpt lat="42.99491" lon="-2.2724">
        <ele>485</ele>
        <time>2021-05-29 08:43:36</time>
      </trkpt>
      <trkpt lat="42.99501" lon="-2.27238">
        <ele>485</ele>
        <time>2021-05-29 08:43:37</time>
      </trkpt>
      <trkpt lat="42.99511" lon="-2.27235">
        <ele>485</ele>
        <time>2021-05-29 08:43:38</time>
      </trkpt>
      <trkpt lat="42.99521" lon="-2.27232">
        <ele>484.8</ele>
        <time>2021-05-29 08:43:39</time>
      </trkpt>
      <trkpt lat="42.99532" lon="-2.27229">
        <ele>484.8</ele>
        <time>2021-05-29 08:43:40</time>
      </trkpt>
      <trkpt lat="42.99543" lon="-2.27225">
        <ele>484.6</ele>
        <time>2021-05-29 08:43:41</time>
      </trkpt>
      <trkpt lat="42.99553" lon="-2.2722">
        <ele>484.6</ele>
        <time>2021-05-29 08:43:42</time>
      </trkpt>
      <trkpt lat="42.99564" lon="-2.27213">
        <ele>484.4</ele>
        <time>2021-05-29 08:43:43</time>
      </trkpt>
      <trkpt lat="42.99575" lon="-2.27206">
        <ele>484.4</ele>
        <time>2021-05-29 08:43:44</time>
      </trkpt>
      <trkpt lat="42.99586" lon="-2.27197">
        <ele>484</ele>
        <time>2021-05-29 08:43:45</time>
      </trkpt>
      <trkpt lat="42.99596" lon="-2.27187">
        <ele>484.2</ele>
        <time>2021-05-29 08:43:46</time>
      </trkpt>
      <trkpt lat="42.99605" lon="-2.27176">
        <ele>483.8</ele>
        <time>2021-05-29 08:43:47</time>
      </trkpt>
      <trkpt lat="42.99614" lon="-2.27164">
        <ele>483.8</ele>
        <time>2021-05-29 08:43:48</time>
      </trkpt>
      <trkpt lat="42.99623" lon="-2.27152">
        <ele>483.6</ele>
        <time>2021-05-29 08:43:49</time>
      </trkpt>
      <trkpt lat="42.99632" lon="-2.2714">
        <ele>483.6</ele>
        <time>2021-05-29 08:43:50</time>
      </trkpt>
      <trkpt lat="42.99641" lon="-2.27128">
        <ele>483.6</ele>
        <time>2021-05-29 08:43:51</time>
      </trkpt>
      <trkpt lat="42.9965" lon="-2.27117">
        <ele>483.2</ele>
        <time>2021-05-29 08:43:52</time>
      </trkpt>
      <trkpt lat="42.9966" lon="-2.27107">
        <ele>483.2</ele>
        <time>2021-05-29 08:43:53</time>
      </trkpt>
      <trkpt lat="42.99671" lon="-2.27097">
        <ele>483</ele>
        <time>2021-05-29 08:43:54</time>
      </trkpt>
      <trkpt lat="42.99681" lon="-2.27088">
        <ele>482.8</ele>
        <time>2021-05-29 08:43:55</time>
      </trkpt>
      <trkpt lat="42.99691" lon="-2.27079">
        <ele>482.8</ele>
        <time>2021-05-29 08:43:56</time>
      </trkpt>
      <trkpt lat="42.99701" lon="-2.27069">
        <ele>482.6</ele>
        <time>2021-05-29 08:43:57</time>
      </trkpt>
      <trkpt lat="42.99711" lon="-2.2706">
        <ele>482</ele>
        <time>2021-05-29 08:43:58</time>
      </trkpt>
      <trkpt lat="42.99721" lon="-2.27051">
        <ele>482</ele>
        <time>2021-05-29 08:43:59</time>
      </trkpt>
      <trkpt lat="42.99731" lon="-2.27042">
        <ele>481.8</ele>
        <time>2021-05-29 08:44:00</time>
      </trkpt>
      <trkpt lat="42.99742" lon="-2.27033">
        <ele>481.8</ele>
        <time>2021-05-29 08:44:01</time>
      </trkpt>
      <trkpt lat="42.99752" lon="-2.27024">
        <ele>481.6</ele>
        <time>2021-05-29 08:44:02</time>
      </trkpt>
      <trkpt lat="42.99762" lon="-2.27015">
        <ele>481.4</ele>
        <time>2021-05-29 08:44:03</time>
      </trkpt>
      <trkpt lat="42.99772" lon="-2.27006">
        <ele>481.4</ele>
        <time>2021-05-29 08:44:04</time>
      </trkpt>
      <trkpt lat="42.99782" lon="-2.26997">
        <ele>481.4</ele>
        <time>2021-05-29 08:44:05</time>
      </trkpt>
      <trkpt lat="42.99791" lon="-2.26988">
        <ele>481.2</ele>
        <time>2021-05-29 08:44:06</time>
      </trkpt>
      <trkpt lat="42.99801" lon="-2.26979">
        <ele>481</ele>
        <time>2021-05-29 08:44:07</time>
      </trkpt>
      <trkpt lat="42.99811" lon="-2.26971">
        <ele>480.8</ele>
        <time>2021-05-29 08:44:08</time>
      </trkpt>
      <trkpt lat="42.99821" lon="-2.26964">
        <ele>480.6</ele>
        <time>2021-05-29 08:44:09</time>
      </trkpt>
      <trkpt lat="42.99832" lon="-2.26957">
        <ele>480.6</ele>
        <time>2021-05-29 08:44:10</time>
      </trkpt>
      <trkpt lat="42.99842" lon="-2.26951">
        <ele>480.4</ele>
        <time>2021-05-29 08:44:11</time>
      </trkpt>
      <trkpt lat="42.99853" lon="-2.26946">
        <ele>480.2</ele>
        <time>2021-05-29 08:44:12</time>
      </trkpt>
      <trkpt lat="42.99863" lon="-2.26941">
        <ele>480.2</ele>
        <time>2021-05-29 08:44:13</time>
      </trkpt>
      <trkpt lat="42.99873" lon="-2.26937">
        <ele>480.2</ele>
        <time>2021-05-29 08:44:14</time>
      </trkpt>
      <trkpt lat="42.99884" lon="-2.26933">
        <ele>480</ele>
        <time>2021-05-29 08:44:15</time>
      </trkpt>
      <trkpt lat="42.99894" lon="-2.26929">
        <ele>480</ele>
        <time>2021-05-29 08:44:16</time>
      </trkpt>
      <trkpt lat="42.99905" lon="-2.26925">
        <ele>480</ele>
        <time>2021-05-29 08:44:17</time>
      </trkpt>
      <trkpt lat="42.99915" lon="-2.2692">
        <ele>479.8</ele>
        <time>2021-05-29 08:44:18</time>
      </trkpt>
      <trkpt lat="42.99926" lon="-2.26915">
        <ele>479.8</ele>
        <time>2021-05-29 08:44:19</time>
      </trkpt>
      <trkpt lat="42.99936" lon="-2.2691">
        <ele>479.6</ele>
        <time>2021-05-29 08:44:20</time>
      </trkpt>
      <trkpt lat="42.99946" lon="-2.26903">
        <ele>479.4</ele>
        <time>2021-05-29 08:44:21</time>
      </trkpt>
      <trkpt lat="42.99955" lon="-2.26896">
        <ele>479.4</ele>
        <time>2021-05-29 08:44:22</time>
      </trkpt>
      <trkpt lat="42.99964" lon="-2.26888">
        <ele>479.2</ele>
        <time>2021-05-29 08:44:23</time>
      </trkpt>
      <trkpt lat="42.99972" lon="-2.2688">
        <ele>479</ele>
        <time>2021-05-29 08:44:24</time>
      </trkpt>
      <trkpt lat="42.99981" lon="-2.26871">
        <ele>478.8</ele>
        <time>2021-05-29 08:44:25</time>
      </trkpt>
      <trkpt lat="42.99988" lon="-2.26861">
        <ele>478.8</ele>
        <time>2021-05-29 08:44:26</time>
      </trkpt>
      <trkpt lat="42.99995" lon="-2.26851">
        <ele>478.6</ele>
        <time>2021-05-29 08:44:27</time>
      </trkpt>
      <trkpt lat="43.00002" lon="-2.26841">
        <ele>478.8</ele>
        <time>2021-05-29 08:44:28</time>
      </trkpt>
      <trkpt lat="43.00009" lon="-2.2683">
        <ele>478.8</ele>
        <time>2021-05-29 08:44:29</time>
      </trkpt>
      <trkpt lat="43.00015" lon="-2.2682">
        <ele>478.6</ele>
        <time>2021-05-29 08:44:30</time>
      </trkpt>
      <trkpt lat="43.00021" lon="-2.2681">
        <ele>478.4</ele>
        <time>2021-05-29 08:44:31</time>
      </trkpt>
      <trkpt lat="43.00027" lon="-2.268">
        <ele>478.2</ele>
        <time>2021-05-29 08:44:32</time>
      </trkpt>
      <trkpt lat="43.00033" lon="-2.2679">
        <ele>478.2</ele>
        <time>2021-05-29 08:44:33</time>
      </trkpt>
      <trkpt lat="43.00039" lon="-2.2678">
        <ele>478</ele>
        <time>2021-05-29 08:44:34</time>
      </trkpt>
      <trkpt lat="43.00045" lon="-2.2677">
        <ele>478</ele>
        <time>2021-05-29 08:44:35</time>
      </trkpt>
      <trkpt lat="43.00051" lon="-2.26761">
        <ele>477.8</ele>
        <time>2021-05-29 08:44:36</time>
      </trkpt>
      <trkpt lat="43.00057" lon="-2.26751">
        <ele>477.8</ele>
        <time>2021-05-29 08:44:37</time>
      </trkpt>
      <trkpt lat="43.00063" lon="-2.26741">
        <ele>477.8</ele>
        <time>2021-05-29 08:44:38</time>
      </trkpt>
      <trkpt lat="43.00069" lon="-2.26732">
        <ele>477.8</ele>
        <time>2021-05-29 08:44:39</time>
      </trkpt>
      <trkpt lat="43.00074" lon="-2.26723">
        <ele>477.6</ele>
        <time>2021-05-29 08:44:40</time>
      </trkpt>
      <trkpt lat="43.00079" lon="-2.26713">
        <ele>477.4</ele>
        <time>2021-05-29 08:44:41</time>
      </trkpt>
      <trkpt lat="43.00082" lon="-2.26702">
        <ele>477.4</ele>
        <time>2021-05-29 08:44:42</time>
      </trkpt>
      <trkpt lat="43.00087" lon="-2.26693">
        <ele>477.4</ele>
        <time>2021-05-29 08:44:43</time>
      </trkpt>
      <trkpt lat="43.00092" lon="-2.26686">
        <ele>477.2</ele>
        <time>2021-05-29 08:44:44</time>
      </trkpt>
      <trkpt lat="43.00099" lon="-2.26682">
        <ele>477</ele>
        <time>2021-05-29 08:44:45</time>
      </trkpt>
      <trkpt lat="43.00107" lon="-2.26681">
        <ele>477</ele>
        <time>2021-05-29 08:44:46</time>
      </trkpt>
      <trkpt lat="43.00114" lon="-2.26682">
        <ele>477</ele>
        <time>2021-05-29 08:44:47</time>
      </trkpt>
      <trkpt lat="43.00122" lon="-2.26683">
        <ele>476.6</ele>
        <time>2021-05-29 08:44:48</time>
      </trkpt>
      <trkpt lat="43.0013" lon="-2.26684">
        <ele>476.4</ele>
        <time>2021-05-29 08:44:49</time>
      </trkpt>
      <trkpt lat="43.00139" lon="-2.26685">
        <ele>476.4</ele>
        <time>2021-05-29 08:44:50</time>
      </trkpt>
      <trkpt lat="43.00147" lon="-2.26686">
        <ele>476.2</ele>
        <time>2021-05-29 08:44:51</time>
      </trkpt>
      <trkpt lat="43.00156" lon="-2.26688">
        <ele>476.2</ele>
        <time>2021-05-29 08:44:52</time>
      </trkpt>
      <trkpt lat="43.00165" lon="-2.2669">
        <ele>476</ele>
        <time>2021-05-29 08:44:53</time>
      </trkpt>
      <trkpt lat="43.00174" lon="-2.26693">
        <ele>476</ele>
        <time>2021-05-29 08:44:54</time>
      </trkpt>
      <trkpt lat="43.00183" lon="-2.26697">
        <ele>476</ele>
        <time>2021-05-29 08:44:55</time>
      </trkpt>
      <trkpt lat="43.00193" lon="-2.267">
        <ele>475.8</ele>
        <time>2021-05-29 08:44:56</time>
      </trkpt>
      <trkpt lat="43.00203" lon="-2.26703">
        <ele>475.8</ele>
        <time>2021-05-29 08:44:57</time>
      </trkpt>
      <trkpt lat="43.00213" lon="-2.26704">
        <ele>475.6</ele>
        <time>2021-05-29 08:44:58</time>
      </trkpt>
      <trkpt lat="43.00223" lon="-2.26703">
        <ele>475.6</ele>
        <time>2021-05-29 08:44:59</time>
      </trkpt>
      <trkpt lat="43.00232" lon="-2.267">
        <ele>475.2</ele>
        <time>2021-05-29 08:45:00</time>
      </trkpt>
      <trkpt lat="43.00241" lon="-2.26695">
        <ele>475.2</ele>
        <time>2021-05-29 08:45:01</time>
      </trkpt>
      <trkpt lat="43.00251" lon="-2.26688">
        <ele>475</ele>
        <time>2021-05-29 08:45:02</time>
      </trkpt>
      <trkpt lat="43.00259" lon="-2.2668">
        <ele>475</ele>
        <time>2021-05-29 08:45:03</time>
      </trkpt>
      <trkpt lat="43.00267" lon="-2.2667">
        <ele>474.8</ele>
        <time>2021-05-29 08:45:04</time>
      </trkpt>
      <trkpt lat="43.00274" lon="-2.26659">
        <ele>474.8</ele>
        <time>2021-05-29 08:45:05</time>
      </trkpt>
      <trkpt lat="43.00281" lon="-2.26648">
        <ele>474.6</ele>
        <time>2021-05-29 08:45:06</time>
      </trkpt>
      <trkpt lat="43.00288" lon="-2.26637">
        <ele>474.2</ele>
        <time>2021-05-29 08:45:07</time>
      </trkpt>
      <trkpt lat="43.00294" lon="-2.26626">
        <ele>474.4</ele>
        <time>2021-05-29 08:45:08</time>
      </trkpt>
      <trkpt lat="43.00301" lon="-2.26615">
        <ele>474</ele>
        <time>2021-05-29 08:45:09</time>
      </trkpt>
      <trkpt lat="43.00308" lon="-2.26604">
        <ele>474</ele>
        <time>2021-05-29 08:45:10</time>
      </trkpt>
      <trkpt lat="43.00315" lon="-2.26593">
        <ele>473.8</ele>
        <time>2021-05-29 08:45:11</time>
      </trkpt>
      <trkpt lat="43.00321" lon="-2.26582">
        <ele>473.8</ele>
        <time>2021-05-29 08:45:12</time>
      </trkpt>
      <trkpt lat="43.00327" lon="-2.26571">
        <ele>473.4</ele>
        <time>2021-05-29 08:45:13</time>
      </trkpt>
      <trkpt lat="43.00333" lon="-2.2656">
        <ele>473.2</ele>
        <time>2021-05-29 08:45:14</time>
      </trkpt>
      <trkpt lat="43.0034" lon="-2.26549">
        <ele>473</ele>
        <time>2021-05-29 08:45:15</time>
      </trkpt>
      <trkpt lat="43.00346" lon="-2.26537">
        <ele>473</ele>
        <time>2021-05-29 08:45:16</time>
      </trkpt>
      <trkpt lat="43.00352" lon="-2.26526">
        <ele>472.8</ele>
        <time>2021-05-29 08:45:17</time>
      </trkpt>
      <trkpt lat="43.00358" lon="-2.26514">
        <ele>472.6</ele>
        <time>2021-05-29 08:45:18</time>
      </trkpt>
      <trkpt lat="43.00364" lon="-2.26503">
        <ele>472.6</ele>
        <time>2021-05-29 08:45:19</time>
      </trkpt>
      <trkpt lat="43.00371" lon="-2.26491">
        <ele>472.4</ele>
        <time>2021-05-29 08:45:20</time>
      </trkpt>
      <trkpt lat="43.00377" lon="-2.2648">
        <ele>472.2</ele>
        <time>2021-05-29 08:45:21</time>
      </trkpt>
      <trkpt lat="43.00383" lon="-2.26468">
        <ele>472.2</ele>
        <time>2021-05-29 08:45:22</time>
      </trkpt>
      <trkpt lat="43.00389" lon="-2.26457">
        <ele>472</ele>
        <time>2021-05-29 08:45:23</time>
      </trkpt>
      <trkpt lat="43.00395" lon="-2.26446">
        <ele>471.8</ele>
        <time>2021-05-29 08:45:24</time>
      </trkpt>
      <trkpt lat="43.00401" lon="-2.26434">
        <ele>471.6</ele>
        <time>2021-05-29 08:45:25</time>
      </trkpt>
      <trkpt lat="43.00407" lon="-2.26423">
        <ele>471.6</ele>
        <time>2021-05-29 08:45:26</time>
      </trkpt>
      <trkpt lat="43.00413" lon="-2.26411">
        <ele>471.6</ele>
        <time>2021-05-29 08:45:27</time>
      </trkpt>
      <trkpt lat="43.00419" lon="-2.26399">
        <ele>471.4</ele>
        <time>2021-05-29 08:45:28</time>
      </trkpt>
      <trkpt lat="43.00425" lon="-2.26387">
        <ele>471.2</ele>
        <time>2021-05-29 08:45:29</time>
      </trkpt>
      <trkpt lat="43.00431" lon="-2.26376">
        <ele>471.2</ele>
        <time>2021-05-29 08:45:30</time>
      </trkpt>
      <trkpt lat="43.00437" lon="-2.26364">
        <ele>471</ele>
        <time>2021-05-29 08:45:31</time>
      </trkpt>
      <trkpt lat="43.00443" lon="-2.26353">
        <ele>471</ele>
        <time>2021-05-29 08:45:32</time>
      </trkpt>
      <trkpt lat="43.00449" lon="-2.26341">
        <ele>470.8</ele>
        <time>2021-05-29 08:45:33</time>
      </trkpt>
      <trkpt lat="43.00455" lon="-2.2633">
        <ele>470.8</ele>
        <time>2021-05-29 08:45:34</time>
      </trkpt>
      <trkpt lat="43.0046" lon="-2.26319">
        <ele>470.4</ele>
        <time>2021-05-29 08:45:35</time>
      </trkpt>
      <trkpt lat="43.00466" lon="-2.26308">
        <ele>470.2</ele>
        <time>2021-05-29 08:45:36</time>
      </trkpt>
      <trkpt lat="43.00471" lon="-2.26296">
        <ele>470.2</ele>
        <time>2021-05-29 08:45:37</time>
      </trkpt>
      <trkpt lat="43.00477" lon="-2.26285">
        <ele>470</ele>
        <time>2021-05-29 08:45:38</time>
      </trkpt>
      <trkpt lat="43.00483" lon="-2.26274">
        <ele>469.6</ele>
        <time>2021-05-29 08:45:39</time>
      </trkpt>
      <trkpt lat="43.00489" lon="-2.26263">
        <ele>469.4</ele>
        <time>2021-05-29 08:45:40</time>
      </trkpt>
      <trkpt lat="43.00495" lon="-2.26253">
        <ele>469.2</ele>
        <time>2021-05-29 08:45:41</time>
      </trkpt>
      <trkpt lat="43.00501" lon="-2.26243">
        <ele>469</ele>
        <time>2021-05-29 08:45:42</time>
      </trkpt>
      <trkpt lat="43.00508" lon="-2.26234">
        <ele>469</ele>
        <time>2021-05-29 08:45:43</time>
      </trkpt>
      <trkpt lat="43.00515" lon="-2.26226">
        <ele>469</ele>
        <time>2021-05-29 08:45:44</time>
      </trkpt>
      <trkpt lat="43.00522" lon="-2.26219">
        <ele>468.8</ele>
        <time>2021-05-29 08:45:45</time>
      </trkpt>
      <trkpt lat="43.00528" lon="-2.26211">
        <ele>468.8</ele>
        <time>2021-05-29 08:45:46</time>
      </trkpt>
      <trkpt lat="43.00533" lon="-2.26202">
        <ele>468.6</ele>
        <time>2021-05-29 08:45:47</time>
      </trkpt>
      <trkpt lat="43.00538" lon="-2.26193">
        <ele>468.6</ele>
        <time>2021-05-29 08:45:48</time>
      </trkpt>
      <trkpt lat="43.00544" lon="-2.26184">
        <ele>468.4</ele>
        <time>2021-05-29 08:45:49</time>
      </trkpt>
      <trkpt lat="43.00551" lon="-2.26177">
        <ele>468.4</ele>
        <time>2021-05-29 08:45:50</time>
      </trkpt>
      <trkpt lat="43.00558" lon="-2.26169">
        <ele>468.4</ele>
        <time>2021-05-29 08:45:51</time>
      </trkpt>
      <trkpt lat="43.00565" lon="-2.2616">
        <ele>468.2</ele>
        <time>2021-05-29 08:45:52</time>
      </trkpt>
      <trkpt lat="43.00571" lon="-2.2615">
        <ele>467.8</ele>
        <time>2021-05-29 08:45:53</time>
      </trkpt>
      <trkpt lat="43.00577" lon="-2.2614">
        <ele>467.8</ele>
        <time>2021-05-29 08:45:54</time>
      </trkpt>
      <trkpt lat="43.00584" lon="-2.26131">
        <ele>467.8</ele>
        <time>2021-05-29 08:45:55</time>
      </trkpt>
      <trkpt lat="43.00591" lon="-2.26121">
        <ele>467.6</ele>
        <time>2021-05-29 08:45:56</time>
      </trkpt>
      <trkpt lat="43.00599" lon="-2.26111">
        <ele>467.6</ele>
        <time>2021-05-29 08:45:57</time>
      </trkpt>
      <trkpt lat="43.00606" lon="-2.26101">
        <ele>467.4</ele>
        <time>2021-05-29 08:45:58</time>
      </trkpt>
      <trkpt lat="43.00613" lon="-2.26092">
        <ele>467.4</ele>
        <time>2021-05-29 08:45:59</time>
      </trkpt>
      <trkpt lat="43.00621" lon="-2.26082">
        <ele>467.2</ele>
        <time>2021-05-29 08:46:00</time>
      </trkpt>
      <trkpt lat="43.00628" lon="-2.26072">
        <ele>467.2</ele>
        <time>2021-05-29 08:46:01</time>
      </trkpt>
      <trkpt lat="43.00636" lon="-2.26063">
        <ele>466.8</ele>
        <time>2021-05-29 08:46:02</time>
      </trkpt>
      <trkpt lat="43.00643" lon="-2.26054">
        <ele>466.6</ele>
        <time>2021-05-29 08:46:03</time>
      </trkpt>
      <trkpt lat="43.0065" lon="-2.26044">
        <ele>466.6</ele>
        <time>2021-05-29 08:46:04</time>
      </trkpt>
      <trkpt lat="43.00658" lon="-2.26035">
        <ele>466.4</ele>
        <time>2021-05-29 08:46:05</time>
      </trkpt>
      <trkpt lat="43.00666" lon="-2.26027">
        <ele>466.4</ele>
        <time>2021-05-29 08:46:06</time>
      </trkpt>
      <trkpt lat="43.00674" lon="-2.26018">
        <ele>466.2</ele>
        <time>2021-05-29 08:46:07</time>
      </trkpt>
      <trkpt lat="43.00681" lon="-2.2601">
        <ele>466.2</ele>
        <time>2021-05-29 08:46:08</time>
      </trkpt>
      <trkpt lat="43.00689" lon="-2.26001">
        <ele>466</ele>
        <time>2021-05-29 08:46:09</time>
      </trkpt>
      <trkpt lat="43.00697" lon="-2.25993">
        <ele>466</ele>
        <time>2021-05-29 08:46:10</time>
      </trkpt>
      <trkpt lat="43.00704" lon="-2.25985">
        <ele>465.8</ele>
        <time>2021-05-29 08:46:11</time>
      </trkpt>
      <trkpt lat="43.00712" lon="-2.25977">
        <ele>465.8</ele>
        <time>2021-05-29 08:46:12</time>
      </trkpt>
      <trkpt lat="43.0072" lon="-2.25969">
        <ele>465.6</ele>
        <time>2021-05-29 08:46:13</time>
      </trkpt>
      <trkpt lat="43.00728" lon="-2.25961">
        <ele>465.4</ele>
        <time>2021-05-29 08:46:14</time>
      </trkpt>
      <trkpt lat="43.00736" lon="-2.25952">
        <ele>465.2</ele>
        <time>2021-05-29 08:46:15</time>
      </trkpt>
      <trkpt lat="43.00744" lon="-2.25944">
        <ele>464.8</ele>
        <time>2021-05-29 08:46:16</time>
      </trkpt>
      <trkpt lat="43.00752" lon="-2.25936">
        <ele>464.8</ele>
        <time>2021-05-29 08:46:17</time>
      </trkpt>
      <trkpt lat="43.0076" lon="-2.25927">
        <ele>464.6</ele>
        <time>2021-05-29 08:46:18</time>
      </trkpt>
      <trkpt lat="43.00768" lon="-2.25919">
        <ele>464.4</ele>
        <time>2021-05-29 08:46:19</time>
      </trkpt>
      <trkpt lat="43.00776" lon="-2.25911">
        <ele>464.6</ele>
        <time>2021-05-29 08:46:20</time>
      </trkpt>
      <trkpt lat="43.00784" lon="-2.25902">
        <ele>464.4</ele>
        <time>2021-05-29 08:46:21</time>
      </trkpt>
      <trkpt lat="43.00792" lon="-2.25894">
        <ele>464.4</ele>
        <time>2021-05-29 08:46:22</time>
      </trkpt>
      <trkpt lat="43.008" lon="-2.25884">
        <ele>464.2</ele>
        <time>2021-05-29 08:46:23</time>
      </trkpt>
      <trkpt lat="43.00807" lon="-2.25874">
        <ele>464.2</ele>
        <time>2021-05-29 08:46:24</time>
      </trkpt>
      <trkpt lat="43.00814" lon="-2.25864">
        <ele>463.8</ele>
        <time>2021-05-29 08:46:25</time>
      </trkpt>
      <trkpt lat="43.0082" lon="-2.25852">
        <ele>463.6</ele>
        <time>2021-05-29 08:46:26</time>
      </trkpt>
      <trkpt lat="43.00826" lon="-2.2584">
        <ele>463.4</ele>
        <time>2021-05-29 08:46:27</time>
      </trkpt>
      <trkpt lat="43.00831" lon="-2.25827">
        <ele>463.2</ele>
        <time>2021-05-29 08:46:28</time>
      </trkpt>
      <trkpt lat="43.00835" lon="-2.25814">
        <ele>463</ele>
        <time>2021-05-29 08:46:29</time>
      </trkpt>
      <trkpt lat="43.00838" lon="-2.25801">
        <ele>463</ele>
        <time>2021-05-29 08:46:30</time>
      </trkpt>
      <trkpt lat="43.00841" lon="-2.25787">
        <ele>462.8</ele>
        <time>2021-05-29 08:46:31</time>
      </trkpt>
      <trkpt lat="43.00842" lon="-2.25773">
        <ele>462.8</ele>
        <time>2021-05-29 08:46:32</time>
      </trkpt>
      <trkpt lat="43.00843" lon="-2.25759">
        <ele>462.6</ele>
        <time>2021-05-29 08:46:33</time>
      </trkpt>
      <trkpt lat="43.00843" lon="-2.25745">
        <ele>462.4</ele>
        <time>2021-05-29 08:46:34</time>
      </trkpt>
      <trkpt lat="43.00843" lon="-2.25732">
        <ele>462.4</ele>
        <time>2021-05-29 08:46:35</time>
      </trkpt>
      <trkpt lat="43.00843" lon="-2.25719">
        <ele>462.2</ele>
        <time>2021-05-29 08:46:36</time>
      </trkpt>
      <trkpt lat="43.00842" lon="-2.25706">
        <ele>462.2</ele>
        <time>2021-05-29 08:46:37</time>
      </trkpt>
      <trkpt lat="43.00842" lon="-2.25692">
        <ele>462</ele>
        <time>2021-05-29 08:46:38</time>
      </trkpt>
      <trkpt lat="43.00842" lon="-2.25679">
        <ele>461.6</ele>
        <time>2021-05-29 08:46:39</time>
      </trkpt>
      <trkpt lat="43.00842" lon="-2.25666">
        <ele>461.6</ele>
        <time>2021-05-29 08:46:40</time>
      </trkpt>
      <trkpt lat="43.00843" lon="-2.25653">
        <ele>461.4</ele>
        <time>2021-05-29 08:46:41</time>
      </trkpt>
      <trkpt lat="43.00845" lon="-2.2564">
        <ele>461.4</ele>
        <time>2021-05-29 08:46:42</time>
      </trkpt>
      <trkpt lat="43.00847" lon="-2.25628">
        <ele>461</ele>
        <time>2021-05-29 08:46:43</time>
      </trkpt>
      <trkpt lat="43.00851" lon="-2.25616">
        <ele>460.8</ele>
        <time>2021-05-29 08:46:44</time>
      </trkpt>
      <trkpt lat="43.00855" lon="-2.25604">
        <ele>460.6</ele>
        <time>2021-05-29 08:46:45</time>
      </trkpt>
      <trkpt lat="43.0086" lon="-2.25592">
        <ele>460.6</ele>
        <time>2021-05-29 08:46:46</time>
      </trkpt>
      <trkpt lat="43.00866" lon="-2.25581">
        <ele>460.4</ele>
        <time>2021-05-29 08:46:47</time>
      </trkpt>
      <trkpt lat="43.00873" lon="-2.25571">
        <ele>460.4</ele>
        <time>2021-05-29 08:46:48</time>
      </trkpt>
      <trkpt lat="43.0088" lon="-2.25562">
        <ele>460.4</ele>
        <time>2021-05-29 08:46:49</time>
      </trkpt>
      <trkpt lat="43.00888" lon="-2.25554">
        <ele>459.8</ele>
        <time>2021-05-29 08:46:50</time>
      </trkpt>
      <trkpt lat="43.00896" lon="-2.25547">
        <ele>459.8</ele>
        <time>2021-05-29 08:46:51</time>
      </trkpt>
      <trkpt lat="43.00905" lon="-2.25541">
        <ele>459.8</ele>
        <time>2021-05-29 08:46:52</time>
      </trkpt>
      <trkpt lat="43.00914" lon="-2.25536">
        <ele>459.6</ele>
        <time>2021-05-29 08:46:53</time>
      </trkpt>
      <trkpt lat="43.00924" lon="-2.25532">
        <ele>459.2</ele>
        <time>2021-05-29 08:46:54</time>
      </trkpt>
      <trkpt lat="43.00933" lon="-2.25529">
        <ele>459.2</ele>
        <time>2021-05-29 08:46:55</time>
      </trkpt>
      <trkpt lat="43.00943" lon="-2.25527">
        <ele>459</ele>
        <time>2021-05-29 08:46:56</time>
      </trkpt>
      <trkpt lat="43.00953" lon="-2.25525">
        <ele>459</ele>
        <time>2021-05-29 08:46:57</time>
      </trkpt>
      <trkpt lat="43.00963" lon="-2.25524">
        <ele>458.8</ele>
        <time>2021-05-29 08:46:58</time>
      </trkpt>
      <trkpt lat="43.00972" lon="-2.25523">
        <ele>458.6</ele>
        <time>2021-05-29 08:46:59</time>
      </trkpt>
      <trkpt lat="43.00982" lon="-2.25523">
        <ele>458.6</ele>
        <time>2021-05-29 08:47:00</time>
      </trkpt>
      <trkpt lat="43.00992" lon="-2.25522">
        <ele>458.4</ele>
        <time>2021-05-29 08:47:01</time>
      </trkpt>
      <trkpt lat="43.01002" lon="-2.25521">
        <ele>458.4</ele>
        <time>2021-05-29 08:47:02</time>
      </trkpt>
      <trkpt lat="43.01012" lon="-2.2552">
        <ele>458.4</ele>
        <time>2021-05-29 08:47:03</time>
      </trkpt>
      <trkpt lat="43.01022" lon="-2.25518">
        <ele>458.2</ele>
        <time>2021-05-29 08:47:04</time>
      </trkpt>
      <trkpt lat="43.01031" lon="-2.25514">
        <ele>458</ele>
        <time>2021-05-29 08:47:05</time>
      </trkpt>
      <trkpt lat="43.01041" lon="-2.2551">
        <ele>458</ele>
        <time>2021-05-29 08:47:06</time>
      </trkpt>
      <trkpt lat="43.0105" lon="-2.25504">
        <ele>457.8</ele>
        <time>2021-05-29 08:47:07</time>
      </trkpt>
      <trkpt lat="43.01059" lon="-2.25497">
        <ele>457.6</ele>
        <time>2021-05-29 08:47:08</time>
      </trkpt>
      <trkpt lat="43.01067" lon="-2.25489">
        <ele>457.4</ele>
        <time>2021-05-29 08:47:09</time>
      </trkpt>
      <trkpt lat="43.01075" lon="-2.2548">
        <ele>457.2</ele>
        <time>2021-05-29 08:47:10</time>
      </trkpt>
      <trkpt lat="43.01082" lon="-2.25471">
        <ele>457</ele>
        <time>2021-05-29 08:47:11</time>
      </trkpt>
      <trkpt lat="43.01089" lon="-2.25461">
        <ele>457</ele>
        <time>2021-05-29 08:47:12</time>
      </trkpt>
      <trkpt lat="43.01095" lon="-2.2545">
        <ele>456.8</ele>
        <time>2021-05-29 08:47:13</time>
      </trkpt>
      <trkpt lat="43.011" lon="-2.25439">
        <ele>456.8</ele>
        <time>2021-05-29 08:47:14</time>
      </trkpt>
      <trkpt lat="43.01106" lon="-2.25428">
        <ele>456.6</ele>
        <time>2021-05-29 08:47:15</time>
      </trkpt>
      <trkpt lat="43.01111" lon="-2.25416">
        <ele>456.6</ele>
        <time>2021-05-29 08:47:16</time>
      </trkpt>
      <trkpt lat="43.01116" lon="-2.25405">
        <ele>456.4</ele>
        <time>2021-05-29 08:47:17</time>
      </trkpt>
      <trkpt lat="43.01121" lon="-2.25393">
        <ele>456.4</ele>
        <time>2021-05-29 08:47:18</time>
      </trkpt>
      <trkpt lat="43.01126" lon="-2.25382">
        <ele>456</ele>
        <time>2021-05-29 08:47:19</time>
      </trkpt>
      <trkpt lat="43.01131" lon="-2.25371">
        <ele>456</ele>
        <time>2021-05-29 08:47:20</time>
      </trkpt>
      <trkpt lat="43.01137" lon="-2.2536">
        <ele>455.8</ele>
        <time>2021-05-29 08:47:21</time>
      </trkpt>
      <trkpt lat="43.01143" lon="-2.25349">
        <ele>455.6</ele>
        <time>2021-05-29 08:47:22</time>
      </trkpt>
      <trkpt lat="43.01149" lon="-2.25339">
        <ele>455.6</ele>
        <time>2021-05-29 08:47:23</time>
      </trkpt>
      <trkpt lat="43.01156" lon="-2.25329">
        <ele>455.4</ele>
        <time>2021-05-29 08:47:24</time>
      </trkpt>
      <trkpt lat="43.01163" lon="-2.25319">
        <ele>455.4</ele>
        <time>2021-05-29 08:47:25</time>
      </trkpt>
      <trkpt lat="43.0117" lon="-2.2531">
        <ele>455.2</ele>
        <time>2021-05-29 08:47:26</time>
      </trkpt>
      <trkpt lat="43.01178" lon="-2.25302">
        <ele>455</ele>
        <time>2021-05-29 08:47:27</time>
      </trkpt>
      <trkpt lat="43.01187" lon="-2.25295">
        <ele>455</ele>
        <time>2021-05-29 08:47:28</time>
      </trkpt>
      <trkpt lat="43.01196" lon="-2.25288">
        <ele>454.8</ele>
        <time>2021-05-29 08:47:29</time>
      </trkpt>
      <trkpt lat="43.01205" lon="-2.25281">
        <ele>454.6</ele>
        <time>2021-05-29 08:47:30</time>
      </trkpt>
      <trkpt lat="43.01214" lon="-2.25275">
        <ele>454.4</ele>
        <time>2021-05-29 08:47:31</time>
      </trkpt>
      <trkpt lat="43.01223" lon="-2.25268">
        <ele>454.2</ele>
        <time>2021-05-29 08:47:32</time>
      </trkpt>
      <trkpt lat="43.01233" lon="-2.25262">
        <ele>454.2</ele>
        <time>2021-05-29 08:47:33</time>
      </trkpt>
      <trkpt lat="43.01242" lon="-2.25257">
        <ele>454</ele>
        <time>2021-05-29 08:47:34</time>
      </trkpt>
      <trkpt lat="43.01251" lon="-2.25251">
        <ele>453.8</ele>
        <time>2021-05-29 08:47:35</time>
      </trkpt>
      <trkpt lat="43.0126" lon="-2.25245">
        <ele>453.8</ele>
        <time>2021-05-29 08:47:36</time>
      </trkpt>
      <trkpt lat="43.01268" lon="-2.2524">
        <ele>453.6</ele>
        <time>2021-05-29 08:47:37</time>
      </trkpt>
      <trkpt lat="43.01277" lon="-2.25234">
        <ele>453.6</ele>
        <time>2021-05-29 08:47:38</time>
      </trkpt>
      <trkpt lat="43.01286" lon="-2.25228">
        <ele>453.4</ele>
        <time>2021-05-29 08:47:39</time>
      </trkpt>
      <trkpt lat="43.01295" lon="-2.25223">
        <ele>453.4</ele>
        <time>2021-05-29 08:47:40</time>
      </trkpt>
      <trkpt lat="43.01304" lon="-2.25217">
        <ele>453</ele>
        <time>2021-05-29 08:47:41</time>
      </trkpt>
      <trkpt lat="43.01313" lon="-2.25212">
        <ele>453</ele>
        <time>2021-05-29 08:47:42</time>
      </trkpt>
      <trkpt lat="43.01321" lon="-2.25206">
        <ele>452.8</ele>
        <time>2021-05-29 08:47:43</time>
      </trkpt>
      <trkpt lat="43.0133" lon="-2.252">
        <ele>452.6</ele>
        <time>2021-05-29 08:47:44</time>
      </trkpt>
      <trkpt lat="43.01339" lon="-2.25194">
        <ele>452.4</ele>
        <time>2021-05-29 08:47:45</time>
      </trkpt>
      <trkpt lat="43.01348" lon="-2.25189">
        <ele>452.2</ele>
        <time>2021-05-29 08:47:46</time>
      </trkpt>
      <trkpt lat="43.01356" lon="-2.25183">
        <ele>452.2</ele>
        <time>2021-05-29 08:47:47</time>
      </trkpt>
      <trkpt lat="43.01365" lon="-2.25177">
        <ele>452</ele>
        <time>2021-05-29 08:47:48</time>
      </trkpt>
      <trkpt lat="43.01374" lon="-2.2517">
        <ele>451.8</ele>
        <time>2021-05-29 08:47:49</time>
      </trkpt>
      <trkpt lat="43.01382" lon="-2.25164">
        <ele>451.8</ele>
        <time>2021-05-29 08:47:50</time>
      </trkpt>
      <trkpt lat="43.01391" lon="-2.25157">
        <ele>451.6</ele>
        <time>2021-05-29 08:47:51</time>
      </trkpt>
      <trkpt lat="43.01399" lon="-2.2515">
        <ele>451.6</ele>
        <time>2021-05-29 08:47:52</time>
      </trkpt>
      <trkpt lat="43.01407" lon="-2.25143">
        <ele>451.4</ele>
        <time>2021-05-29 08:47:53</time>
      </trkpt>
      <trkpt lat="43.01415" lon="-2.25136">
        <ele>451.2</ele>
        <time>2021-05-29 08:47:54</time>
      </trkpt>
      <trkpt lat="43.01421" lon="-2.25129">
        <ele>451.2</ele>
        <time>2021-05-29 08:47:55</time>
      </trkpt>
      <trkpt lat="43.01428" lon="-2.25122">
        <ele>451</ele>
        <time>2021-05-29 08:47:56</time>
      </trkpt>
      <trkpt lat="43.01434" lon="-2.25115">
        <ele>450.8</ele>
        <time>2021-05-29 08:47:57</time>
      </trkpt>
      <trkpt lat="43.0144" lon="-2.25108">
        <ele>450.4</ele>
        <time>2021-05-29 08:47:58</time>
      </trkpt>
      <trkpt lat="43.01444" lon="-2.25101">
        <ele>450.4</ele>
        <time>2021-05-29 08:47:59</time>
      </trkpt>
      <trkpt lat="43.01449" lon="-2.25094">
        <ele>450.2</ele>
        <time>2021-05-29 08:48:00</time>
      </trkpt>
      <trkpt lat="43.01452" lon="-2.25085">
        <ele>450</ele>
        <time>2021-05-29 08:48:01</time>
      </trkpt>
      <trkpt lat="43.01455" lon="-2.25076">
        <ele>450</ele>
        <time>2021-05-29 08:48:02</time>
      </trkpt>
      <trkpt lat="43.01457" lon="-2.25067">
        <ele>450</ele>
        <time>2021-05-29 08:48:03</time>
      </trkpt>
      <trkpt lat="43.01458" lon="-2.25057">
        <ele>449.8</ele>
        <time>2021-05-29 08:48:04</time>
      </trkpt>
      <trkpt lat="43.01458" lon="-2.25048">
        <ele>450</ele>
        <time>2021-05-29 08:48:05</time>
      </trkpt>
      <trkpt lat="43.01459" lon="-2.25038">
        <ele>449.8</ele>
        <time>2021-05-29 08:48:06</time>
      </trkpt>
      <trkpt lat="43.01462" lon="-2.25029">
        <ele>449.6</ele>
        <time>2021-05-29 08:48:07</time>
      </trkpt>
      <trkpt lat="43.01466" lon="-2.25021">
        <ele>449.2</ele>
        <time>2021-05-29 08:48:08</time>
      </trkpt>
      <trkpt lat="43.01472" lon="-2.25014">
        <ele>449.2</ele>
        <time>2021-05-29 08:48:09</time>
      </trkpt>
      <trkpt lat="43.01477" lon="-2.25007">
        <ele>449.2</ele>
        <time>2021-05-29 08:48:10</time>
      </trkpt>
      <trkpt lat="43.01483" lon="-2.24999">
        <ele>449</ele>
        <time>2021-05-29 08:48:11</time>
      </trkpt>
      <trkpt lat="43.01488" lon="-2.24991">
        <ele>448.8</ele>
        <time>2021-05-29 08:48:12</time>
      </trkpt>
      <trkpt lat="43.01492" lon="-2.24983">
        <ele>448.4</ele>
        <time>2021-05-29 08:48:13</time>
      </trkpt>
      <trkpt lat="43.01497" lon="-2.24976">
        <ele>448.4</ele>
        <time>2021-05-29 08:48:14</time>
      </trkpt>
      <trkpt lat="43.01502" lon="-2.24969">
        <ele>448.2</ele>
        <time>2021-05-29 08:48:15</time>
      </trkpt>
      <trkpt lat="43.01507" lon="-2.24964">
        <ele>448</ele>
        <time>2021-05-29 08:48:16</time>
      </trkpt>
      <trkpt lat="43.01512" lon="-2.24959">
        <ele>447.8</ele>
        <time>2021-05-29 08:48:17</time>
      </trkpt>
      <trkpt lat="43.01517" lon="-2.24956">
        <ele>447.8</ele>
        <time>2021-05-29 08:48:18</time>
      </trkpt>
      <trkpt lat="43.01522" lon="-2.24952">
        <ele>447.6</ele>
        <time>2021-05-29 08:48:19</time>
      </trkpt>
      <trkpt lat="43.01526" lon="-2.24949">
        <ele>447.4</ele>
        <time>2021-05-29 08:48:20</time>
      </trkpt>
      <trkpt lat="43.01531" lon="-2.24946">
        <ele>447.2</ele>
        <time>2021-05-29 08:48:21</time>
      </trkpt>
      <trkpt lat="43.01536" lon="-2.24943">
        <ele>446.8</ele>
        <time>2021-05-29 08:48:22</time>
      </trkpt>
      <trkpt lat="43.01541" lon="-2.2494">
        <ele>447</ele>
        <time>2021-05-29 08:48:23</time>
      </trkpt>
      <trkpt lat="43.01545" lon="-2.24937">
        <ele>446.8</ele>
        <time>2021-05-29 08:48:24</time>
      </trkpt>
      <trkpt lat="43.0155" lon="-2.24934">
        <ele>446.8</ele>
        <time>2021-05-29 08:48:25</time>
      </trkpt>
      <trkpt lat="43.01554" lon="-2.24931">
        <ele>446.8</ele>
        <time>2021-05-29 08:48:26</time>
      </trkpt>
      <trkpt lat="43.01558" lon="-2.24928">
        <ele>446.4</ele>
        <time>2021-05-29 08:48:27</time>
      </trkpt>
      <trkpt lat="43.01562" lon="-2.24925">
        <ele>446.2</ele>
        <time>2021-05-29 08:48:28</time>
      </trkpt>
      <trkpt lat="43.01566" lon="-2.24921">
        <ele>446.2</ele>
        <time>2021-05-29 08:48:29</time>
      </trkpt>
      <trkpt lat="43.0157" lon="-2.24918">
        <ele>446</ele>
        <time>2021-05-29 08:48:30</time>
      </trkpt>
      <trkpt lat="43.01574" lon="-2.24915">
        <ele>446</ele>
        <time>2021-05-29 08:48:31</time>
      </trkpt>
      <trkpt lat="43.01578" lon="-2.24911">
        <ele>445.8</ele>
        <time>2021-05-29 08:48:32</time>
      </trkpt>
      <trkpt lat="43.01582" lon="-2.24908">
        <ele>445.6</ele>
        <time>2021-05-29 08:48:33</time>
      </trkpt>
      <trkpt lat="43.01586" lon="-2.24904">
        <ele>445.4</ele>
        <time>2021-05-29 08:48:34</time>
      </trkpt>
      <trkpt lat="43.0159" lon="-2.249">
        <ele>445.6</ele>
        <time>2021-05-29 08:48:35</time>
      </trkpt>
      <trkpt lat="43.01594" lon="-2.24896">
        <ele>445.4</ele>
        <time>2021-05-29 08:48:36</time>
      </trkpt>
      <trkpt lat="43.01599" lon="-2.24891">
        <ele>445.2</ele>
        <time>2021-05-29 08:48:37</time>
      </trkpt>
      <trkpt lat="43.01603" lon="-2.24887">
        <ele>445</ele>
        <time>2021-05-29 08:48:38</time>
      </trkpt>
      <trkpt lat="43.01607" lon="-2.24883">
        <ele>445</ele>
        <time>2021-05-29 08:48:39</time>
      </trkpt>
      <trkpt lat="43.01611" lon="-2.24878">
        <ele>445</ele>
        <time>2021-05-29 08:48:40</time>
      </trkpt>
      <trkpt lat="43.01615" lon="-2.24874">
        <ele>445</ele>
        <time>2021-05-29 08:48:41</time>
      </trkpt>
      <trkpt lat="43.01619" lon="-2.24868">
        <ele>444.8</ele>
        <time>2021-05-29 08:48:42</time>
      </trkpt>
      <trkpt lat="43.01623" lon="-2.24863">
        <ele>444.8</ele>
        <time>2021-05-29 08:48:43</time>
      </trkpt>
      <trkpt lat="43.01628" lon="-2.24858">
        <ele>444.6</ele>
        <time>2021-05-29 08:48:44</time>
      </trkpt>
      <trkpt lat="43.01633" lon="-2.24852">
        <ele>444.4</ele>
        <time>2021-05-29 08:48:45</time>
      </trkpt>
      <trkpt lat="43.01637" lon="-2.24847">
        <ele>444.4</ele>
        <time>2021-05-29 08:48:46</time>
      </trkpt>
      <trkpt lat="43.01642" lon="-2.24841">
        <ele>444.2</ele>
        <time>2021-05-29 08:48:47</time>
      </trkpt>
      <trkpt lat="43.01647" lon="-2.24836">
        <ele>444.2</ele>
        <time>2021-05-29 08:48:48</time>
      </trkpt>
      <trkpt lat="43.01652" lon="-2.2483">
        <ele>444</ele>
        <time>2021-05-29 08:48:49</time>
      </trkpt>
      <trkpt lat="43.01657" lon="-2.24824">
        <ele>443.8</ele>
        <time>2021-05-29 08:48:50</time>
      </trkpt>
      <trkpt lat="43.01662" lon="-2.24818">
        <ele>443.8</ele>
        <time>2021-05-29 08:48:51</time>
      </trkpt>
      <trkpt lat="43.01667" lon="-2.24811">
        <ele>443.6</ele>
        <time>2021-05-29 08:48:52</time>
      </trkpt>
      <trkpt lat="43.01673" lon="-2.24805">
        <ele>443.4</ele>
        <time>2021-05-29 08:48:53</time>
      </trkpt>
      <trkpt lat="43.01679" lon="-2.24799">
        <ele>443.4</ele>
        <time>2021-05-29 08:48:54</time>
      </trkpt>
      <trkpt lat="43.01684" lon="-2.24793">
        <ele>443.2</ele>
        <time>2021-05-29 08:48:55</time>
      </trkpt>
      <trkpt lat="43.0169" lon="-2.24786">
        <ele>443.2</ele>
        <time>2021-05-29 08:48:56</time>
      </trkpt>
      <trkpt lat="43.01696" lon="-2.2478">
        <ele>443</ele>
        <time>2021-05-29 08:48:57</time>
      </trkpt>
      <trkpt lat="43.01701" lon="-2.24773">
        <ele>442.8</ele>
        <time>2021-05-29 08:48:58</time>
      </trkpt>
      <trkpt lat="43.01707" lon="-2.24767">
        <ele>442.6</ele>
        <time>2021-05-29 08:48:59</time>
      </trkpt>
      <trkpt lat="43.01713" lon="-2.2476">
        <ele>442.4</ele>
        <time>2021-05-29 08:49:00</time>
      </trkpt>
      <trkpt lat="43.01719" lon="-2.24754">
        <ele>442.4</ele>
        <time>2021-05-29 08:49:01</time>
      </trkpt>
      <trkpt lat="43.01724" lon="-2.24747">
        <ele>442.4</ele>
        <time>2021-05-29 08:49:02</time>
      </trkpt>
      <trkpt lat="43.0173" lon="-2.24741">
        <ele>442</ele>
        <time>2021-05-29 08:49:03</time>
      </trkpt>
      <trkpt lat="43.01736" lon="-2.24734">
        <ele>441.8</ele>
        <time>2021-05-29 08:49:04</time>
      </trkpt>
      <trkpt lat="43.01741" lon="-2.24728">
        <ele>441.6</ele>
        <time>2021-05-29 08:49:05</time>
      </trkpt>
      <trkpt lat="43.01747" lon="-2.24721">
        <ele>441.6</ele>
        <time>2021-05-29 08:49:06</time>
      </trkpt>
      <trkpt lat="43.01753" lon="-2.24714">
        <ele>441.4</ele>
        <time>2021-05-29 08:49:07</time>
      </trkpt>
      <trkpt lat="43.01758" lon="-2.24708">
        <ele>441.4</ele>
        <time>2021-05-29 08:49:08</time>
      </trkpt>
      <trkpt lat="43.01764" lon="-2.24701">
        <ele>441.2</ele>
        <time>2021-05-29 08:49:09</time>
      </trkpt>
      <trkpt lat="43.0177" lon="-2.24695">
        <ele>441</ele>
        <time>2021-05-29 08:49:10</time>
      </trkpt>
      <trkpt lat="43.01776" lon="-2.24689">
        <ele>440.8</ele>
        <time>2021-05-29 08:49:11</time>
      </trkpt>
      <trkpt lat="43.01781" lon="-2.24682">
        <ele>440.6</ele>
        <time>2021-05-29 08:49:12</time>
      </trkpt>
      <trkpt lat="43.01787" lon="-2.24675">
        <ele>440.4</ele>
        <time>2021-05-29 08:49:13</time>
      </trkpt>
      <trkpt lat="43.01793" lon="-2.24669">
        <ele>440.2</ele>
        <time>2021-05-29 08:49:14</time>
      </trkpt>
      <trkpt lat="43.01799" lon="-2.24662">
        <ele>440.2</ele>
        <time>2021-05-29 08:49:15</time>
      </trkpt>
      <trkpt lat="43.01805" lon="-2.24656">
        <ele>440.2</ele>
        <time>2021-05-29 08:49:16</time>
      </trkpt>
      <trkpt lat="43.01811" lon="-2.2465">
        <ele>440</ele>
        <time>2021-05-29 08:49:17</time>
      </trkpt>
      <trkpt lat="43.01817" lon="-2.24643">
        <ele>440</ele>
        <time>2021-05-29 08:49:18</time>
      </trkpt>
      <trkpt lat="43.01823" lon="-2.24637">
        <ele>439.8</ele>
        <time>2021-05-29 08:49:19</time>
      </trkpt>
      <trkpt lat="43.01829" lon="-2.24631">
        <ele>439.6</ele>
        <time>2021-05-29 08:49:20</time>
      </trkpt>
      <trkpt lat="43.01835" lon="-2.24624">
        <ele>439.4</ele>
        <time>2021-05-29 08:49:21</time>
      </trkpt>
      <trkpt lat="43.01841" lon="-2.24618">
        <ele>439.4</ele>
        <time>2021-05-29 08:49:22</time>
      </trkpt>
      <trkpt lat="43.01847" lon="-2.24611">
        <ele>439.2</ele>
        <time>2021-05-29 08:49:23</time>
      </trkpt>
      <trkpt lat="43.01853" lon="-2.24604">
        <ele>439</ele>
        <time>2021-05-29 08:49:24</time>
      </trkpt>
      <trkpt lat="43.01859" lon="-2.24597">
        <ele>439</ele>
        <time>2021-05-29 08:49:25</time>
      </trkpt>
      <trkpt lat="43.01865" lon="-2.2459">
        <ele>438.8</ele>
        <time>2021-05-29 08:49:26</time>
      </trkpt>
      <trkpt lat="43.01871" lon="-2.24582">
        <ele>438.6</ele>
        <time>2021-05-29 08:49:27</time>
      </trkpt>
      <trkpt lat="43.01877" lon="-2.24574">
        <ele>438.4</ele>
        <time>2021-05-29 08:49:28</time>
      </trkpt>
      <trkpt lat="43.01882" lon="-2.24565">
        <ele>438.4</ele>
        <time>2021-05-29 08:49:29</time>
      </trkpt>
      <trkpt lat="43.01888" lon="-2.24555">
        <ele>438.2</ele>
        <time>2021-05-29 08:49:30</time>
      </trkpt>
      <trkpt lat="43.01892" lon="-2.24546">
        <ele>438</ele>
        <time>2021-05-29 08:49:31</time>
      </trkpt>
      <trkpt lat="43.01897" lon="-2.24535">
        <ele>438</ele>
        <time>2021-05-29 08:49:32</time>
      </trkpt>
      <trkpt lat="43.01901" lon="-2.24524">
        <ele>437.8</ele>
        <time>2021-05-29 08:49:33</time>
      </trkpt>
      <trkpt lat="43.01906" lon="-2.24513">
        <ele>437.6</ele>
        <time>2021-05-29 08:49:34</time>
      </trkpt>
      <trkpt lat="43.0191" lon="-2.24502">
        <ele>437.6</ele>
        <time>2021-05-29 08:49:35</time>
      </trkpt>
      <trkpt lat="43.01914" lon="-2.24491">
        <ele>437.4</ele>
        <time>2021-05-29 08:49:36</time>
      </trkpt>
      <trkpt lat="43.01919" lon="-2.24479">
        <ele>437</ele>
        <time>2021-05-29 08:49:37</time>
      </trkpt>
      <trkpt lat="43.01925" lon="-2.24468">
        <ele>437</ele>
        <time>2021-05-29 08:49:38</time>
      </trkpt>
      <trkpt lat="43.01931" lon="-2.24457">
        <ele>436.6</ele>
        <time>2021-05-29 08:49:39</time>
      </trkpt>
      <trkpt lat="43.01937" lon="-2.24445">
        <ele>436.6</ele>
        <time>2021-05-29 08:49:40</time>
      </trkpt>
      <trkpt lat="43.01944" lon="-2.24434">
        <ele>436.6</ele>
        <time>2021-05-29 08:49:41</time>
      </trkpt>
      <trkpt lat="43.0195" lon="-2.24422">
        <ele>436.2</ele>
        <time>2021-05-29 08:49:42</time>
      </trkpt>
      <trkpt lat="43.01957" lon="-2.2441">
        <ele>436.2</ele>
        <time>2021-05-29 08:49:43</time>
      </trkpt>
      <trkpt lat="43.01962" lon="-2.24398">
        <ele>436</ele>
        <time>2021-05-29 08:49:44</time>
      </trkpt>
      <trkpt lat="43.01964" lon="-2.24385">
        <ele>435.6</ele>
        <time>2021-05-29 08:49:45</time>
      </trkpt>
      <trkpt lat="43.01965" lon="-2.24372">
        <ele>435.4</ele>
        <time>2021-05-29 08:49:46</time>
      </trkpt>
      <trkpt lat="43.01965" lon="-2.24359">
        <ele>435.2</ele>
        <time>2021-05-29 08:49:47</time>
      </trkpt>
      <trkpt lat="43.01966" lon="-2.24347">
        <ele>435</ele>
        <time>2021-05-29 08:49:48</time>
      </trkpt>
      <trkpt lat="43.01969" lon="-2.24335">
        <ele>434.8</ele>
        <time>2021-05-29 08:49:49</time>
      </trkpt>
      <trkpt lat="43.01973" lon="-2.24324">
        <ele>434.6</ele>
        <time>2021-05-29 08:49:50</time>
      </trkpt>
      <trkpt lat="43.01977" lon="-2.24313">
        <ele>434.4</ele>
        <time>2021-05-29 08:49:51</time>
      </trkpt>
      <trkpt lat="43.01981" lon="-2.24301">
        <ele>434.2</ele>
        <time>2021-05-29 08:49:52</time>
      </trkpt>
      <trkpt lat="43.01984" lon="-2.24289">
        <ele>434</ele>
        <time>2021-05-29 08:49:53</time>
      </trkpt>
      <trkpt lat="43.01987" lon="-2.24275">
        <ele>434.2</ele>
        <time>2021-05-29 08:49:54</time>
      </trkpt>
      <trkpt lat="43.01989" lon="-2.24262">
        <ele>434</ele>
        <time>2021-05-29 08:49:55</time>
      </trkpt>
      <trkpt lat="43.01991" lon="-2.24248">
        <ele>433.8</ele>
        <time>2021-05-29 08:49:56</time>
      </trkpt>
      <trkpt lat="43.01994" lon="-2.24234">
        <ele>433.6</ele>
        <time>2021-05-29 08:49:57</time>
      </trkpt>
      <trkpt lat="43.01998" lon="-2.2422">
        <ele>433.6</ele>
        <time>2021-05-29 08:49:58</time>
      </trkpt>
      <trkpt lat="43.02004" lon="-2.24207">
        <ele>433.4</ele>
        <time>2021-05-29 08:49:59</time>
      </trkpt>
      <trkpt lat="43.0201" lon="-2.24193">
        <ele>433.2</ele>
        <time>2021-05-29 08:50:00</time>
      </trkpt>
      <trkpt lat="43.02016" lon="-2.24179">
        <ele>433</ele>
        <time>2021-05-29 08:50:01</time>
      </trkpt>
      <trkpt lat="43.02023" lon="-2.24164">
        <ele>432.8</ele>
        <time>2021-05-29 08:50:02</time>
      </trkpt>
      <trkpt lat="43.0203" lon="-2.24149">
        <ele>432.6</ele>
        <time>2021-05-29 08:50:03</time>
      </trkpt>
      <trkpt lat="43.02037" lon="-2.24133">
        <ele>432.6</ele>
        <time>2021-05-29 08:50:04</time>
      </trkpt>
      <trkpt lat="43.02043" lon="-2.24117">
        <ele>432.4</ele>
        <time>2021-05-29 08:50:05</time>
      </trkpt>
      <trkpt lat="43.02049" lon="-2.24101">
        <ele>432.2</ele>
        <time>2021-05-29 08:50:06</time>
      </trkpt>
      <trkpt lat="43.02056" lon="-2.24084">
        <ele>432.2</ele>
        <time>2021-05-29 08:50:07</time>
      </trkpt>
      <trkpt lat="43.02062" lon="-2.24068">
        <ele>431.8</ele>
        <time>2021-05-29 08:50:08</time>
      </trkpt>
      <trkpt lat="43.02069" lon="-2.24051">
        <ele>431.6</ele>
        <time>2021-05-29 08:50:09</time>
      </trkpt>
      <trkpt lat="43.02076" lon="-2.24035">
        <ele>431.4</ele>
        <time>2021-05-29 08:50:10</time>
      </trkpt>
      <trkpt lat="43.02083" lon="-2.24018">
        <ele>431.2</ele>
        <time>2021-05-29 08:50:11</time>
      </trkpt>
      <trkpt lat="43.0209" lon="-2.24001">
        <ele>430.8</ele>
        <time>2021-05-29 08:50:12</time>
      </trkpt>
      <trkpt lat="43.02098" lon="-2.23985">
        <ele>430.6</ele>
        <time>2021-05-29 08:50:13</time>
      </trkpt>
      <trkpt lat="43.02106" lon="-2.2397">
        <ele>430.2</ele>
        <time>2021-05-29 08:50:14</time>
      </trkpt>
      <trkpt lat="43.02115" lon="-2.23955">
        <ele>430</ele>
        <time>2021-05-29 08:50:15</time>
      </trkpt>
      <trkpt lat="43.02124" lon="-2.2394">
        <ele>429.6</ele>
        <time>2021-05-29 08:50:16</time>
      </trkpt>
      <trkpt lat="43.02133" lon="-2.23924">
        <ele>429.6</ele>
        <time>2021-05-29 08:50:17</time>
      </trkpt>
      <trkpt lat="43.02142" lon="-2.23909">
        <ele>429.2</ele>
        <time>2021-05-29 08:50:18</time>
      </trkpt>
      <trkpt lat="43.0215" lon="-2.23894">
        <ele>429</ele>
        <time>2021-05-29 08:50:19</time>
      </trkpt>
      <trkpt lat="43.02158" lon="-2.23878">
        <ele>428.8</ele>
        <time>2021-05-29 08:50:20</time>
      </trkpt>
      <trkpt lat="43.02165" lon="-2.23862">
        <ele>428.6</ele>
        <time>2021-05-29 08:50:21</time>
      </trkpt>
      <trkpt lat="43.02171" lon="-2.23845">
        <ele>428.2</ele>
        <time>2021-05-29 08:50:22</time>
      </trkpt>
      <trkpt lat="43.02176" lon="-2.23828">
        <ele>428.2</ele>
        <time>2021-05-29 08:50:23</time>
      </trkpt>
      <trkpt lat="43.02181" lon="-2.23812">
        <ele>427.8</ele>
        <time>2021-05-29 08:50:24</time>
      </trkpt>
      <trkpt lat="43.02185" lon="-2.23797">
        <ele>427.8</ele>
        <time>2021-05-29 08:50:25</time>
      </trkpt>
      <trkpt lat="43.02188" lon="-2.23781">
        <ele>427.4</ele>
        <time>2021-05-29 08:50:26</time>
      </trkpt>
      <trkpt lat="43.02192" lon="-2.23767">
        <ele>427.2</ele>
        <time>2021-05-29 08:50:27</time>
      </trkpt>
      <trkpt lat="43.02195" lon="-2.23752">
        <ele>426.8</ele>
        <time>2021-05-29 08:50:28</time>
      </trkpt>
      <trkpt lat="43.02199" lon="-2.23737">
        <ele>426.6</ele>
        <time>2021-05-29 08:50:29</time>
      </trkpt>
      <trkpt lat="43.02202" lon="-2.23723">
        <ele>426.6</ele>
        <time>2021-05-29 08:50:30</time>
      </trkpt>
      <trkpt lat="43.02205" lon="-2.23709">
        <ele>426.2</ele>
        <time>2021-05-29 08:50:31</time>
      </trkpt>
      <trkpt lat="43.02208" lon="-2.23695">
        <ele>426.2</ele>
        <time>2021-05-29 08:50:32</time>
      </trkpt>
      <trkpt lat="43.02211" lon="-2.23681">
        <ele>426.2</ele>
        <time>2021-05-29 08:50:33</time>
      </trkpt>
      <trkpt lat="43.02215" lon="-2.23667">
        <ele>426.2</ele>
        <time>2021-05-29 08:50:34</time>
      </trkpt>
      <trkpt lat="43.02218" lon="-2.23654">
        <ele>425.8</ele>
        <time>2021-05-29 08:50:35</time>
      </trkpt>
      <trkpt lat="43.02221" lon="-2.23641">
        <ele>425.8</ele>
        <time>2021-05-29 08:50:36</time>
      </trkpt>
      <trkpt lat="43.02223" lon="-2.23627">
        <ele>425.4</ele>
        <time>2021-05-29 08:50:37</time>
      </trkpt>
      <trkpt lat="43.02223" lon="-2.23614">
        <ele>425.6</ele>
        <time>2021-05-29 08:50:38</time>
      </trkpt>
      <trkpt lat="43.02222" lon="-2.23602">
        <ele>425.4</ele>
        <time>2021-05-29 08:50:39</time>
      </trkpt>
      <trkpt lat="43.02223" lon="-2.23589">
        <ele>425.2</ele>
        <time>2021-05-29 08:50:40</time>
      </trkpt>
      <trkpt lat="43.02225" lon="-2.23578">
        <ele>425.2</ele>
        <time>2021-05-29 08:50:41</time>
      </trkpt>
      <trkpt lat="43.0223" lon="-2.23567">
        <ele>424.8</ele>
        <time>2021-05-29 08:50:42</time>
      </trkpt>
      <trkpt lat="43.02235" lon="-2.23556">
        <ele>424.8</ele>
        <time>2021-05-29 08:50:43</time>
      </trkpt>
      <trkpt lat="43.02239" lon="-2.23544">
        <ele>424.8</ele>
        <time>2021-05-29 08:50:44</time>
      </trkpt>
      <trkpt lat="43.02242" lon="-2.23531">
        <ele>424.6</ele>
        <time>2021-05-29 08:50:45</time>
      </trkpt>
      <trkpt lat="43.02245" lon="-2.23518">
        <ele>424.8</ele>
        <time>2021-05-29 08:50:46</time>
      </trkpt>
      <trkpt lat="43.02247" lon="-2.23504">
        <ele>424.6</ele>
        <time>2021-05-29 08:50:47</time>
      </trkpt>
      <trkpt lat="43.0225" lon="-2.2349">
        <ele>424.6</ele>
        <time>2021-05-29 08:50:48</time>
      </trkpt>
      <trkpt lat="43.02253" lon="-2.23476">
        <ele>424.4</ele>
        <time>2021-05-29 08:50:49</time>
      </trkpt>
      <trkpt lat="43.02257" lon="-2.23462">
        <ele>424.4</ele>
        <time>2021-05-29 08:50:50</time>
      </trkpt>
      <trkpt lat="43.02261" lon="-2.23448">
        <ele>424</ele>
        <time>2021-05-29 08:50:51</time>
      </trkpt>
      <trkpt lat="43.02266" lon="-2.23435">
        <ele>423.8</ele>
        <time>2021-05-29 08:50:52</time>
      </trkpt>
      <trkpt lat="43.02271" lon="-2.23422">
        <ele>423.6</ele>
        <time>2021-05-29 08:50:53</time>
      </trkpt>
      <trkpt lat="43.02275" lon="-2.23409">
        <ele>423.4</ele>
        <time>2021-05-29 08:50:54</time>
      </trkpt>
      <trkpt lat="43.0228" lon="-2.23397">
        <ele>423.2</ele>
        <time>2021-05-29 08:50:55</time>
      </trkpt>
      <trkpt lat="43.02285" lon="-2.23385">
        <ele>423.4</ele>
        <time>2021-05-29 08:50:56</time>
      </trkpt>
      <trkpt lat="43.0229" lon="-2.23373">
        <ele>423.2</ele>
        <time>2021-05-29 08:50:57</time>
      </trkpt>
      <trkpt lat="43.02295" lon="-2.23361">
        <ele>423.2</ele>
        <time>2021-05-29 08:50:58</time>
      </trkpt>
      <trkpt lat="43.02299" lon="-2.2335">
        <ele>423</ele>
        <time>2021-05-29 08:50:59</time>
      </trkpt>
      <trkpt lat="43.02303" lon="-2.23338">
        <ele>422.8</ele>
        <time>2021-05-29 08:51:00</time>
      </trkpt>
      <trkpt lat="43.02306" lon="-2.23326">
        <ele>422.6</ele>
        <time>2021-05-29 08:51:01</time>
      </trkpt>
      <trkpt lat="43.02308" lon="-2.23313">
        <ele>422.4</ele>
        <time>2021-05-29 08:51:02</time>
      </trkpt>
      <trkpt lat="43.02309" lon="-2.23301">
        <ele>422.6</ele>
        <time>2021-05-29 08:51:03</time>
      </trkpt>
      <trkpt lat="43.0231" lon="-2.23289">
        <ele>422.4</ele>
        <time>2021-05-29 08:51:04</time>
      </trkpt>
      <trkpt lat="43.02309" lon="-2.23276">
        <ele>422.4</ele>
        <time>2021-05-29 08:51:05</time>
      </trkpt>
      <trkpt lat="43.02309" lon="-2.23264">
        <ele>422.2</ele>
        <time>2021-05-29 08:51:06</time>
      </trkpt>
      <trkpt lat="43.02308" lon="-2.23251">
        <ele>422.2</ele>
        <time>2021-05-29 08:51:07</time>
      </trkpt>
      <trkpt lat="43.02307" lon="-2.23238">
        <ele>422</ele>
        <time>2021-05-29 08:51:08</time>
      </trkpt>
      <trkpt lat="43.02307" lon="-2.23224">
        <ele>422.2</ele>
        <time>2021-05-29 08:51:09</time>
      </trkpt>
      <trkpt lat="43.02306" lon="-2.23211">
        <ele>422</ele>
        <time>2021-05-29 08:51:10</time>
      </trkpt>
      <trkpt lat="43.02306" lon="-2.23198">
        <ele>422</ele>
        <time>2021-05-29 08:51:11</time>
      </trkpt>
      <trkpt lat="43.02305" lon="-2.23185">
        <ele>422</ele>
        <time>2021-05-29 08:51:12</time>
      </trkpt>
      <trkpt lat="43.02305" lon="-2.23173">
        <ele>422</ele>
        <time>2021-05-29 08:51:13</time>
      </trkpt>
      <trkpt lat="43.02304" lon="-2.23161">
        <ele>421.8</ele>
        <time>2021-05-29 08:51:14</time>
      </trkpt>
      <trkpt lat="43.02304" lon="-2.23149">
        <ele>421.4</ele>
        <time>2021-05-29 08:51:15</time>
      </trkpt>
      <trkpt lat="43.02303" lon="-2.23139">
        <ele>421.2</ele>
        <time>2021-05-29 08:51:16</time>
      </trkpt>
      <trkpt lat="43.02303" lon="-2.23128">
        <ele>421.4</ele>
        <time>2021-05-29 08:51:17</time>
      </trkpt>
      <trkpt lat="43.02303" lon="-2.23117">
        <ele>421.2</ele>
        <time>2021-05-29 08:51:18</time>
      </trkpt>
      <trkpt lat="43.02303" lon="-2.23106">
        <ele>421.4</ele>
        <time>2021-05-29 08:51:19</time>
      </trkpt>
      <trkpt lat="43.02304" lon="-2.23096">
        <ele>421.2</ele>
        <time>2021-05-29 08:51:20</time>
      </trkpt>
      <trkpt lat="43.02305" lon="-2.23086">
        <ele>421.2</ele>
        <time>2021-05-29 08:51:21</time>
      </trkpt>
      <trkpt lat="43.02306" lon="-2.23076">
        <ele>421.2</ele>
        <time>2021-05-29 08:51:22</time>
      </trkpt>
      <trkpt lat="43.02308" lon="-2.23066">
        <ele>421.2</ele>
        <time>2021-05-29 08:51:23</time>
      </trkpt>
      <trkpt lat="43.0231" lon="-2.23056">
        <ele>421.2</ele>
        <time>2021-05-29 08:51:24</time>
      </trkpt>
      <trkpt lat="43.02312" lon="-2.23047">
        <ele>421</ele>
        <time>2021-05-29 08:51:25</time>
      </trkpt>
      <trkpt lat="43.02315" lon="-2.23038">
        <ele>420.8</ele>
        <time>2021-05-29 08:51:26</time>
      </trkpt>
      <trkpt lat="43.02317" lon="-2.2303">
        <ele>420.8</ele>
        <time>2021-05-29 08:51:27</time>
      </trkpt>
      <trkpt lat="43.02319" lon="-2.23022">
        <ele>420.8</ele>
        <time>2021-05-29 08:51:28</time>
      </trkpt>
      <trkpt lat="43.02321" lon="-2.23015">
        <ele>420.6</ele>
        <time>2021-05-29 08:51:29</time>
      </trkpt>
      <trkpt lat="43.02323" lon="-2.23008">
        <ele>420.6</ele>
        <time>2021-05-29 08:51:30</time>
      </trkpt>
      <trkpt lat="43.02325" lon="-2.23">
        <ele>420.8</ele>
        <time>2021-05-29 08:51:31</time>
      </trkpt>
      <trkpt lat="43.02327" lon="-2.22993">
        <ele>420.6</ele>
        <time>2021-05-29 08:51:32</time>
      </trkpt>
      <trkpt lat="43.02328" lon="-2.22986">
        <ele>420.6</ele>
        <time>2021-05-29 08:51:33</time>
      </trkpt>
      <trkpt lat="43.0233" lon="-2.22979">
        <ele>420.4</ele>
        <time>2021-05-29 08:51:34</time>
      </trkpt>
      <trkpt lat="43.02331" lon="-2.22971">
        <ele>420.6</ele>
        <time>2021-05-29 08:51:35</time>
      </trkpt>
      <trkpt lat="43.02332" lon="-2.22964">
        <ele>420.4</ele>
        <time>2021-05-29 08:51:36</time>
      </trkpt>
      <trkpt lat="43.02333" lon="-2.22956">
        <ele>420.4</ele>
        <time>2021-05-29 08:51:37</time>
      </trkpt>
      <trkpt lat="43.02333" lon="-2.22949">
        <ele>420.2</ele>
        <time>2021-05-29 08:51:38</time>
      </trkpt>
      <trkpt lat="43.02334" lon="-2.22942">
        <ele>420.2</ele>
        <time>2021-05-29 08:51:39</time>
      </trkpt>
      <trkpt lat="43.02334" lon="-2.22935">
        <ele>420</ele>
        <time>2021-05-29 08:51:40</time>
      </trkpt>
      <trkpt lat="43.02334" lon="-2.22928">
        <ele>420</ele>
        <time>2021-05-29 08:51:41</time>
      </trkpt>
      <trkpt lat="43.02334" lon="-2.22921">
        <ele>419.8</ele>
        <time>2021-05-29 08:51:42</time>
      </trkpt>
      <trkpt lat="43.02334" lon="-2.22914">
        <ele>419.8</ele>
        <time>2021-05-29 08:51:43</time>
      </trkpt>
      <trkpt lat="43.02334" lon="-2.22907">
        <ele>419.6</ele>
        <time>2021-05-29 08:51:44</time>
      </trkpt>
      <trkpt lat="43.02334" lon="-2.229">
        <ele>419.8</ele>
        <time>2021-05-29 08:51:45</time>
      </trkpt>
      <trkpt lat="43.02333" lon="-2.22893">
        <ele>419.8</ele>
        <time>2021-05-29 08:51:46</time>
      </trkpt>
      <trkpt lat="43.02333" lon="-2.22886">
        <ele>419.6</ele>
        <time>2021-05-29 08:51:47</time>
      </trkpt>
      <trkpt lat="43.02332" lon="-2.22879">
        <ele>419.6</ele>
        <time>2021-05-29 08:51:48</time>
      </trkpt>
      <trkpt lat="43.02332" lon="-2.22872">
        <ele>419.4</ele>
        <time>2021-05-29 08:51:49</time>
      </trkpt>
      <trkpt lat="43.02331" lon="-2.22865">
        <ele>419.6</ele>
        <time>2021-05-29 08:51:50</time>
      </trkpt>
      <trkpt lat="43.02331" lon="-2.22858">
        <ele>419.6</ele>
        <time>2021-05-29 08:51:51</time>
      </trkpt>
      <trkpt lat="43.0233" lon="-2.22851">
        <ele>419.4</ele>
        <time>2021-05-29 08:51:52</time>
      </trkpt>
      <trkpt lat="43.02329" lon="-2.22844">
        <ele>419.6</ele>
        <time>2021-05-29 08:51:53</time>
      </trkpt>
      <trkpt lat="43.02328" lon="-2.22836">
        <ele>419.4</ele>
        <time>2021-05-29 08:51:54</time>
      </trkpt>
      <trkpt lat="43.02325" lon="-2.22829">
        <ele>419</ele>
        <time>2021-05-29 08:51:55</time>
      </trkpt>
      <trkpt lat="43.0232" lon="-2.22825">
        <ele>419</ele>
        <time>2021-05-29 08:51:56</time>
      </trkpt>
      <trkpt lat="43.02314" lon="-2.22822">
        <ele>418.8</ele>
        <time>2021-05-29 08:51:57</time>
      </trkpt>
      <trkpt lat="43.02308" lon="-2.22818">
        <ele>419</ele>
        <time>2021-05-29 08:51:58</time>
      </trkpt>
      <trkpt lat="43.02303" lon="-2.22814">
        <ele>419</ele>
        <time>2021-05-29 08:51:59</time>
      </trkpt>
      <trkpt lat="43.023" lon="-2.22807">
        <ele>418.6</ele>
        <time>2021-05-29 08:52:00</time>
      </trkpt>
      <trkpt lat="43.02298" lon="-2.22799">
        <ele>418.6</ele>
        <time>2021-05-29 08:52:01</time>
      </trkpt>
      <trkpt lat="43.02299" lon="-2.22791">
        <ele>418.4</ele>
        <time>2021-05-29 08:52:02</time>
      </trkpt>
      <trkpt lat="43.02302" lon="-2.22783">
        <ele>418.4</ele>
        <time>2021-05-29 08:52:03</time>
      </trkpt>
      <trkpt lat="43.02306" lon="-2.22777">
        <ele>418.4</ele>
        <time>2021-05-29 08:52:04</time>
      </trkpt>
      <trkpt lat="43.02311" lon="-2.2277">
        <ele>418.2</ele>
        <time>2021-05-29 08:52:05</time>
      </trkpt>
      <trkpt lat="43.02316" lon="-2.22762">
        <ele>418.2</ele>
        <time>2021-05-29 08:52:06</time>
      </trkpt>
      <trkpt lat="43.02319" lon="-2.22752">
        <ele>418</ele>
        <time>2021-05-29 08:52:07</time>
      </trkpt>
      <trkpt lat="43.02321" lon="-2.22741">
        <ele>418</ele>
        <time>2021-05-29 08:52:08</time>
      </trkpt>
      <trkpt lat="43.02321" lon="-2.22729">
        <ele>417.6</ele>
        <time>2021-05-29 08:52:09</time>
      </trkpt>
      <trkpt lat="43.02321" lon="-2.22717">
        <ele>417.8</ele>
        <time>2021-05-29 08:52:10</time>
      </trkpt>
      <trkpt lat="43.0232" lon="-2.22704">
        <ele>417.6</ele>
        <time>2021-05-29 08:52:11</time>
      </trkpt>
      <trkpt lat="43.0232" lon="-2.22691">
        <ele>417.4</ele>
        <time>2021-05-29 08:52:12</time>
      </trkpt>
      <trkpt lat="43.02319" lon="-2.22678">
        <ele>417.6</ele>
        <time>2021-05-29 08:52:13</time>
      </trkpt>
      <trkpt lat="43.02319" lon="-2.22665">
        <ele>417.4</ele>
        <time>2021-05-29 08:52:14</time>
      </trkpt>
      <trkpt lat="43.02318" lon="-2.22651">
        <ele>417.2</ele>
        <time>2021-05-29 08:52:15</time>
      </trkpt>
      <trkpt lat="43.02318" lon="-2.22637">
        <ele>417</ele>
        <time>2021-05-29 08:52:16</time>
      </trkpt>
      <trkpt lat="43.02319" lon="-2.22624">
        <ele>416.8</ele>
        <time>2021-05-29 08:52:17</time>
      </trkpt>
      <trkpt lat="43.02322" lon="-2.2261">
        <ele>416.6</ele>
        <time>2021-05-29 08:52:18</time>
      </trkpt>
      <trkpt lat="43.02325" lon="-2.22597">
        <ele>416.6</ele>
        <time>2021-05-29 08:52:19</time>
      </trkpt>
      <trkpt lat="43.0233" lon="-2.22584">
        <ele>416.4</ele>
        <time>2021-05-29 08:52:20</time>
      </trkpt>
      <trkpt lat="43.02336" lon="-2.22572">
        <ele>416.2</ele>
        <time>2021-05-29 08:52:21</time>
      </trkpt>
      <trkpt lat="43.02343" lon="-2.2256">
        <ele>416.2</ele>
        <time>2021-05-29 08:52:22</time>
      </trkpt>
      <trkpt lat="43.0235" lon="-2.22548">
        <ele>416.2</ele>
        <time>2021-05-29 08:52:23</time>
      </trkpt>
      <trkpt lat="43.02357" lon="-2.22536">
        <ele>416</ele>
        <time>2021-05-29 08:52:24</time>
      </trkpt>
      <trkpt lat="43.02364" lon="-2.22524">
        <ele>415.8</ele>
        <time>2021-05-29 08:52:25</time>
      </trkpt>
      <trkpt lat="43.02372" lon="-2.22512">
        <ele>415.8</ele>
        <time>2021-05-29 08:52:26</time>
      </trkpt>
      <trkpt lat="43.02379" lon="-2.22499">
        <ele>415.8</ele>
        <time>2021-05-29 08:52:27</time>
      </trkpt>
      <trkpt lat="43.02387" lon="-2.22487">
        <ele>415.6</ele>
        <time>2021-05-29 08:52:28</time>
      </trkpt>
      <trkpt lat="43.02395" lon="-2.22475">
        <ele>415.6</ele>
        <time>2021-05-29 08:52:29</time>
      </trkpt>
      <trkpt lat="43.02402" lon="-2.22462">
        <ele>415.2</ele>
        <time>2021-05-29 08:52:30</time>
      </trkpt>
      <trkpt lat="43.0241" lon="-2.22449">
        <ele>415</ele>
        <time>2021-05-29 08:52:31</time>
      </trkpt>
      <trkpt lat="43.02417" lon="-2.22436">
        <ele>415</ele>
        <time>2021-05-29 08:52:32</time>
      </trkpt>
      <trkpt lat="43.02425" lon="-2.22424">
        <ele>414.8</ele>
        <time>2021-05-29 08:52:33</time>
      </trkpt>
      <trkpt lat="43.02432" lon="-2.22411">
        <ele>414.6</ele>
        <time>2021-05-29 08:52:34</time>
      </trkpt>
      <trkpt lat="43.0244" lon="-2.22398">
        <ele>414.6</ele>
        <time>2021-05-29 08:52:35</time>
      </trkpt>
      <trkpt lat="43.02447" lon="-2.22386">
        <ele>414.6</ele>
        <time>2021-05-29 08:52:36</time>
      </trkpt>
      <trkpt lat="43.02453" lon="-2.22372">
        <ele>414.4</ele>
        <time>2021-05-29 08:52:37</time>
      </trkpt>
      <trkpt lat="43.02459" lon="-2.22359">
        <ele>414.4</ele>
        <time>2021-05-29 08:52:38</time>
      </trkpt>
      <trkpt lat="43.02464" lon="-2.22345">
        <ele>414.2</ele>
        <time>2021-05-29 08:52:39</time>
      </trkpt>
      <trkpt lat="43.02468" lon="-2.22331">
        <ele>414.4</ele>
        <time>2021-05-29 08:52:40</time>
      </trkpt>
      <trkpt lat="43.02472" lon="-2.22316">
        <ele>414.2</ele>
        <time>2021-05-29 08:52:41</time>
      </trkpt>
      <trkpt lat="43.02476" lon="-2.22301">
        <ele>414.2</ele>
        <time>2021-05-29 08:52:42</time>
      </trkpt>
      <trkpt lat="43.0248" lon="-2.22287">
        <ele>414</ele>
        <time>2021-05-29 08:52:43</time>
      </trkpt>
      <trkpt lat="43.02484" lon="-2.22273">
        <ele>414</ele>
        <time>2021-05-29 08:52:44</time>
      </trkpt>
      <trkpt lat="43.02489" lon="-2.22259">
        <ele>414</ele>
        <time>2021-05-29 08:52:45</time>
      </trkpt>
      <trkpt lat="43.02494" lon="-2.22246">
        <ele>414</ele>
        <time>2021-05-29 08:52:46</time>
      </trkpt>
      <trkpt lat="43.025" lon="-2.22233">
        <ele>414</ele>
        <time>2021-05-29 08:52:47</time>
      </trkpt>
      <trkpt lat="43.02506" lon="-2.22221">
        <ele>414</ele>
        <time>2021-05-29 08:52:48</time>
      </trkpt>
      <trkpt lat="43.02513" lon="-2.2221">
        <ele>413.8</ele>
        <time>2021-05-29 08:52:49</time>
      </trkpt>
      <trkpt lat="43.02519" lon="-2.22199">
        <ele>413.8</ele>
        <time>2021-05-29 08:52:50</time>
      </trkpt>
      <trkpt lat="43.02526" lon="-2.22189">
        <ele>413.8</ele>
        <time>2021-05-29 08:52:51</time>
      </trkpt>
      <trkpt lat="43.02532" lon="-2.22178">
        <ele>413.8</ele>
        <time>2021-05-29 08:52:52</time>
      </trkpt>
      <trkpt lat="43.02538" lon="-2.22168">
        <ele>413.6</ele>
        <time>2021-05-29 08:52:53</time>
      </trkpt>
      <trkpt lat="43.02544" lon="-2.22157">
        <ele>413.8</ele>
        <time>2021-05-29 08:52:54</time>
      </trkpt>
      <trkpt lat="43.0255" lon="-2.22147">
        <ele>413.6</ele>
        <time>2021-05-29 08:52:55</time>
      </trkpt>
      <trkpt lat="43.02556" lon="-2.22136">
        <ele>413.6</ele>
        <time>2021-05-29 08:52:56</time>
      </trkpt>
      <trkpt lat="43.0256" lon="-2.22125">
        <ele>413.8</ele>
        <time>2021-05-29 08:52:57</time>
      </trkpt>
      <trkpt lat="43.02563" lon="-2.22113">
        <ele>413.6</ele>
        <time>2021-05-29 08:52:58</time>
      </trkpt>
      <trkpt lat="43.02566" lon="-2.22101">
        <ele>413.4</ele>
        <time>2021-05-29 08:52:59</time>
      </trkpt>
      <trkpt lat="43.02568" lon="-2.2209">
        <ele>413.6</ele>
        <time>2021-05-29 08:53:00</time>
      </trkpt>
      <trkpt lat="43.02572" lon="-2.2208">
        <ele>413.6</ele>
        <time>2021-05-29 08:53:01</time>
      </trkpt>
      <trkpt lat="43.02577" lon="-2.22072">
        <ele>413.4</ele>
        <time>2021-05-29 08:53:02</time>
      </trkpt>
      <trkpt lat="43.02583" lon="-2.22067">
        <ele>413.4</ele>
        <time>2021-05-29 08:53:03</time>
      </trkpt>
      <trkpt lat="43.0259" lon="-2.22063">
        <ele>413.4</ele>
        <time>2021-05-29 08:53:04</time>
      </trkpt>
      <trkpt lat="43.02595" lon="-2.22062">
        <ele>413.2</ele>
        <time>2021-05-29 08:53:05</time>
      </trkpt>
      <trkpt lat="43.02599" lon="-2.22061">
        <ele>413.4</ele>
        <time>2021-05-29 08:53:06</time>
      </trkpt>
      <trkpt lat="43.02602" lon="-2.22061">
        <ele>413.2</ele>
        <time>2021-05-29 08:53:07</time>
      </trkpt>
      <trkpt lat="43.02606" lon="-2.2206">
        <ele>413.2</ele>
        <time>2021-05-29 08:53:08</time>
      </trkpt>
      <trkpt lat="43.0261" lon="-2.22059">
        <ele>413</ele>
        <time>2021-05-29 08:53:09</time>
      </trkpt>
      <trkpt lat="43.02614" lon="-2.22058">
        <ele>412.8</ele>
        <time>2021-05-29 08:53:10</time>
      </trkpt>
      <trkpt lat="43.02619" lon="-2.22057">
        <ele>413</ele>
        <time>2021-05-29 08:53:11</time>
      </trkpt>
      <trkpt lat="43.02624" lon="-2.22057">
        <ele>412.8</ele>
        <time>2021-05-29 08:53:12</time>
      </trkpt>
      <trkpt lat="43.0263" lon="-2.22055">
        <ele>412.8</ele>
        <time>2021-05-29 08:53:13</time>
      </trkpt>
      <trkpt lat="43.02636" lon="-2.22053">
        <ele>412.8</ele>
        <time>2021-05-29 08:53:14</time>
      </trkpt>
      <trkpt lat="43.02642" lon="-2.2205">
        <ele>412.6</ele>
        <time>2021-05-29 08:53:15</time>
      </trkpt>
      <trkpt lat="43.02648" lon="-2.22045">
        <ele>412.8</ele>
        <time>2021-05-29 08:53:16</time>
      </trkpt>
      <trkpt lat="43.02654" lon="-2.2204">
        <ele>412.6</ele>
        <time>2021-05-29 08:53:17</time>
      </trkpt>
      <trkpt lat="43.02661" lon="-2.22035">
        <ele>412.8</ele>
        <time>2021-05-29 08:53:18</time>
      </trkpt>
      <trkpt lat="43.02668" lon="-2.22029">
        <ele>412.6</ele>
        <time>2021-05-29 08:53:19</time>
      </trkpt>
      <trkpt lat="43.02675" lon="-2.22023">
        <ele>412.4</ele>
        <time>2021-05-29 08:53:20</time>
      </trkpt>
      <trkpt lat="43.02682" lon="-2.22018">
        <ele>412.4</ele>
        <time>2021-05-29 08:53:21</time>
      </trkpt>
      <trkpt lat="43.0269" lon="-2.22013">
        <ele>412.4</ele>
        <time>2021-05-29 08:53:22</time>
      </trkpt>
      <trkpt lat="43.02698" lon="-2.22008">
        <ele>412.4</ele>
        <time>2021-05-29 08:53:23</time>
      </trkpt>
      <trkpt lat="43.02706" lon="-2.22003">
        <ele>412.2</ele>
        <time>2021-05-29 08:53:24</time>
      </trkpt>
      <trkpt lat="43.02714" lon="-2.21999">
        <ele>412.2</ele>
        <time>2021-05-29 08:53:25</time>
      </trkpt>
      <trkpt lat="43.02722" lon="-2.21994">
        <ele>412.4</ele>
        <time>2021-05-29 08:53:26</time>
      </trkpt>
      <trkpt lat="43.02731" lon="-2.21989">
        <ele>412.2</ele>
        <time>2021-05-29 08:53:27</time>
      </trkpt>
      <trkpt lat="43.02739" lon="-2.21985">
        <ele>412.2</ele>
        <time>2021-05-29 08:53:28</time>
      </trkpt>
      <trkpt lat="43.02747" lon="-2.21981">
        <ele>412</ele>
        <time>2021-05-29 08:53:29</time>
      </trkpt>
      <trkpt lat="43.02756" lon="-2.21976">
        <ele>411.8</ele>
        <time>2021-05-29 08:53:30</time>
      </trkpt>
      <trkpt lat="43.02764" lon="-2.21972">
        <ele>411.6</ele>
        <time>2021-05-29 08:53:31</time>
      </trkpt>
      <trkpt lat="43.02772" lon="-2.21967">
        <ele>411.2</ele>
        <time>2021-05-29 08:53:32</time>
      </trkpt>
      <trkpt lat="43.0278" lon="-2.21963">
        <ele>411</ele>
        <time>2021-05-29 08:53:33</time>
      </trkpt>
      <trkpt lat="43.02788" lon="-2.21958">
        <ele>410.8</ele>
        <time>2021-05-29 08:53:34</time>
      </trkpt>
      <trkpt lat="43.02796" lon="-2.21954">
        <ele>410.6</ele>
        <time>2021-05-29 08:53:35</time>
      </trkpt>
      <trkpt lat="43.02804" lon="-2.21949">
        <ele>410.6</ele>
        <time>2021-05-29 08:53:36</time>
      </trkpt>
      <trkpt lat="43.02812" lon="-2.21944">
        <ele>410.4</ele>
        <time>2021-05-29 08:53:37</time>
      </trkpt>
      <trkpt lat="43.0282" lon="-2.21939">
        <ele>410.4</ele>
        <time>2021-05-29 08:53:38</time>
      </trkpt>
      <trkpt lat="43.02827" lon="-2.21934">
        <ele>410.2</ele>
        <time>2021-05-29 08:53:39</time>
      </trkpt>
      <trkpt lat="43.02835" lon="-2.2193">
        <ele>410.2</ele>
        <time>2021-05-29 08:53:40</time>
      </trkpt>
      <trkpt lat="43.02843" lon="-2.21925">
        <ele>410.2</ele>
        <time>2021-05-29 08:53:41</time>
      </trkpt>
      <trkpt lat="43.02851" lon="-2.2192">
        <ele>410.2</ele>
        <time>2021-05-29 08:53:42</time>
      </trkpt>
      <trkpt lat="43.0286" lon="-2.21916">
        <ele>410</ele>
        <time>2021-05-29 08:53:43</time>
      </trkpt>
      <trkpt lat="43.02868" lon="-2.21911">
        <ele>409.8</ele>
        <time>2021-05-29 08:53:44</time>
      </trkpt>
      <trkpt lat="43.02876" lon="-2.21908">
        <ele>409.8</ele>
        <time>2021-05-29 08:53:45</time>
      </trkpt>
      <trkpt lat="43.02885" lon="-2.21905">
        <ele>409.8</ele>
        <time>2021-05-29 08:53:46</time>
      </trkpt>
      <trkpt lat="43.02893" lon="-2.21902">
        <ele>409.8</ele>
        <time>2021-05-29 08:53:47</time>
      </trkpt>
      <trkpt lat="43.02902" lon="-2.219">
        <ele>409.8</ele>
        <time>2021-05-29 08:53:48</time>
      </trkpt>
      <trkpt lat="43.02911" lon="-2.21897">
        <ele>409.6</ele>
        <time>2021-05-29 08:53:49</time>
      </trkpt>
      <trkpt lat="43.02919" lon="-2.21895">
        <ele>409.4</ele>
        <time>2021-05-29 08:53:50</time>
      </trkpt>
      <trkpt lat="43.02928" lon="-2.21892">
        <ele>409.4</ele>
        <time>2021-05-29 08:53:51</time>
      </trkpt>
      <trkpt lat="43.02936" lon="-2.21889">
        <ele>409.4</ele>
        <time>2021-05-29 08:53:52</time>
      </trkpt>
      <trkpt lat="43.02945" lon="-2.21886">
        <ele>409.2</ele>
        <time>2021-05-29 08:53:53</time>
      </trkpt>
      <trkpt lat="43.02953" lon="-2.21883">
        <ele>409.2</ele>
        <time>2021-05-29 08:53:54</time>
      </trkpt>
      <trkpt lat="43.02962" lon="-2.21881">
        <ele>409.2</ele>
        <time>2021-05-29 08:53:55</time>
      </trkpt>
      <trkpt lat="43.02971" lon="-2.21878">
        <ele>409</ele>
        <time>2021-05-29 08:53:56</time>
      </trkpt>
      <trkpt lat="43.02979" lon="-2.21876">
        <ele>409.2</ele>
        <time>2021-05-29 08:53:57</time>
      </trkpt>
      <trkpt lat="43.02988" lon="-2.21875">
        <ele>409</ele>
        <time>2021-05-29 08:53:58</time>
      </trkpt>
      <trkpt lat="43.02997" lon="-2.21877">
        <ele>408.8</ele>
        <time>2021-05-29 08:53:59</time>
      </trkpt>
      <trkpt lat="43.03005" lon="-2.21881">
        <ele>408.8</ele>
        <time>2021-05-29 08:54:00</time>
      </trkpt>
      <trkpt lat="43.03012" lon="-2.21887">
        <ele>408.6</ele>
        <time>2021-05-29 08:54:01</time>
      </trkpt>
      <trkpt lat="43.03019" lon="-2.21893">
        <ele>408.4</ele>
        <time>2021-05-29 08:54:02</time>
      </trkpt>
      <trkpt lat="43.03026" lon="-2.21899">
        <ele>408.4</ele>
        <time>2021-05-29 08:54:03</time>
      </trkpt>
      <trkpt lat="43.03033" lon="-2.21905">
        <ele>408.2</ele>
        <time>2021-05-29 08:54:04</time>
      </trkpt>
      <trkpt lat="43.03039" lon="-2.21911">
        <ele>408.2</ele>
        <time>2021-05-29 08:54:05</time>
      </trkpt>
      <trkpt lat="43.03046" lon="-2.21917">
        <ele>408</ele>
        <time>2021-05-29 08:54:06</time>
      </trkpt>
      <trkpt lat="43.03053" lon="-2.2192">
        <ele>407.8</ele>
        <time>2021-05-29 08:54:07</time>
      </trkpt>
      <trkpt lat="43.0306" lon="-2.21921">
        <ele>408</ele>
        <time>2021-05-29 08:54:08</time>
      </trkpt>
      <trkpt lat="43.03067" lon="-2.2192">
        <ele>407.8</ele>
        <time>2021-05-29 08:54:09</time>
      </trkpt>
      <trkpt lat="43.03074" lon="-2.21918">
        <ele>407.6</ele>
        <time>2021-05-29 08:54:10</time>
      </trkpt>
      <trkpt lat="43.03081" lon="-2.21915">
        <ele>407.6</ele>
        <time>2021-05-29 08:54:11</time>
      </trkpt>
      <trkpt lat="43.03088" lon="-2.21912">
        <ele>407.6</ele>
        <time>2021-05-29 08:54:12</time>
      </trkpt>
      <trkpt lat="43.03096" lon="-2.2191">
        <ele>407.6</ele>
        <time>2021-05-29 08:54:13</time>
      </trkpt>
      <trkpt lat="43.03104" lon="-2.21908">
        <ele>407.4</ele>
        <time>2021-05-29 08:54:14</time>
      </trkpt>
      <trkpt lat="43.03112" lon="-2.21905">
        <ele>407.4</ele>
        <time>2021-05-29 08:54:15</time>
      </trkpt>
      <trkpt lat="43.03119" lon="-2.21902">
        <ele>407.6</ele>
        <time>2021-05-29 08:54:16</time>
      </trkpt>
      <trkpt lat="43.03127" lon="-2.219">
        <ele>407.4</ele>
        <time>2021-05-29 08:54:17</time>
      </trkpt>
      <trkpt lat="43.03135" lon="-2.21897">
        <ele>407.4</ele>
        <time>2021-05-29 08:54:18</time>
      </trkpt>
      <trkpt lat="43.03143" lon="-2.21894">
        <ele>407.4</ele>
        <time>2021-05-29 08:54:19</time>
      </trkpt>
      <trkpt lat="43.03152" lon="-2.21891">
        <ele>407.2</ele>
        <time>2021-05-29 08:54:20</time>
      </trkpt>
      <trkpt lat="43.0316" lon="-2.21889">
        <ele>407.2</ele>
        <time>2021-05-29 08:54:21</time>
      </trkpt>
      <trkpt lat="43.03169" lon="-2.21886">
        <ele>407</ele>
        <time>2021-05-29 08:54:22</time>
      </trkpt>
      <trkpt lat="43.03177" lon="-2.21883">
        <ele>407</ele>
        <time>2021-05-29 08:54:23</time>
      </trkpt>
      <trkpt lat="43.03186" lon="-2.2188">
        <ele>407</ele>
        <time>2021-05-29 08:54:24</time>
      </trkpt>
      <trkpt lat="43.03194" lon="-2.21878">
        <ele>407</ele>
        <time>2021-05-29 08:54:25</time>
      </trkpt>
      <trkpt lat="43.03202" lon="-2.21875">
        <ele>406.8</ele>
        <time>2021-05-29 08:54:26</time>
      </trkpt>
      <trkpt lat="43.0321" lon="-2.21871">
        <ele>406.8</ele>
        <time>2021-05-29 08:54:27</time>
      </trkpt>
      <trkpt lat="43.03218" lon="-2.21869">
        <ele>406.6</ele>
        <time>2021-05-29 08:54:28</time>
      </trkpt>
      <trkpt lat="43.03226" lon="-2.21866">
        <ele>406.6</ele>
        <time>2021-05-29 08:54:29</time>
      </trkpt>
      <trkpt lat="43.03234" lon="-2.21864">
        <ele>406.6</ele>
        <time>2021-05-29 08:54:30</time>
      </trkpt>
      <trkpt lat="43.03242" lon="-2.21861">
        <ele>406.4</ele>
        <time>2021-05-29 08:54:31</time>
      </trkpt>
      <trkpt lat="43.03251" lon="-2.21858">
        <ele>406.6</ele>
        <time>2021-05-29 08:54:32</time>
      </trkpt>
      <trkpt lat="43.03259" lon="-2.21856">
        <ele>406.4</ele>
        <time>2021-05-29 08:54:33</time>
      </trkpt>
      <trkpt lat="43.03267" lon="-2.21853">
        <ele>406.2</ele>
        <time>2021-05-29 08:54:34</time>
      </trkpt>
      <trkpt lat="43.03275" lon="-2.2185">
        <ele>406.2</ele>
        <time>2021-05-29 08:54:35</time>
      </trkpt>
      <trkpt lat="43.03284" lon="-2.21848">
        <ele>406</ele>
        <time>2021-05-29 08:54:36</time>
      </trkpt>
      <trkpt lat="43.03293" lon="-2.21845">
        <ele>405.8</ele>
        <time>2021-05-29 08:54:37</time>
      </trkpt>
      <trkpt lat="43.03301" lon="-2.21842">
        <ele>405.6</ele>
        <time>2021-05-29 08:54:38</time>
      </trkpt>
      <trkpt lat="43.0331" lon="-2.2184">
        <ele>405.6</ele>
        <time>2021-05-29 08:54:39</time>
      </trkpt>
      <trkpt lat="43.03318" lon="-2.21837">
        <ele>405.6</ele>
        <time>2021-05-29 08:54:40</time>
      </trkpt>
      <trkpt lat="43.03327" lon="-2.21835">
        <ele>405.8</ele>
        <time>2021-05-29 08:54:41</time>
      </trkpt>
      <trkpt lat="43.03335" lon="-2.21832">
        <ele>405.6</ele>
        <time>2021-05-29 08:54:42</time>
      </trkpt>
      <trkpt lat="43.03343" lon="-2.21829">
        <ele>405.6</ele>
        <time>2021-05-29 08:54:43</time>
      </trkpt>
      <trkpt lat="43.03352" lon="-2.21826">
        <ele>405.6</ele>
        <time>2021-05-29 08:54:44</time>
      </trkpt>
      <trkpt lat="43.0336" lon="-2.21824">
        <ele>405.4</ele>
        <time>2021-05-29 08:54:45</time>
      </trkpt>
      <trkpt lat="43.03368" lon="-2.21821">
        <ele>405.4</ele>
        <time>2021-05-29 08:54:46</time>
      </trkpt>
      <trkpt lat="43.03376" lon="-2.21819">
        <ele>405.2</ele>
        <time>2021-05-29 08:54:47</time>
      </trkpt>
      <trkpt lat="43.03384" lon="-2.21816">
        <ele>405.4</ele>
        <time>2021-05-29 08:54:48</time>
      </trkpt>
      <trkpt lat="43.03392" lon="-2.21813">
        <ele>405.2</ele>
        <time>2021-05-29 08:54:49</time>
      </trkpt>
      <trkpt lat="43.034" lon="-2.21811">
        <ele>405</ele>
        <time>2021-05-29 08:54:50</time>
      </trkpt>
      <trkpt lat="43.03408" lon="-2.21808">
        <ele>404.8</ele>
        <time>2021-05-29 08:54:51</time>
      </trkpt>
      <trkpt lat="43.03416" lon="-2.21806">
        <ele>404.6</ele>
        <time>2021-05-29 08:54:52</time>
      </trkpt>
      <trkpt lat="43.03424" lon="-2.21803">
        <ele>404.6</ele>
        <time>2021-05-29 08:54:53</time>
      </trkpt>
      <trkpt lat="43.03432" lon="-2.218">
        <ele>404.4</ele>
        <time>2021-05-29 08:54:54</time>
      </trkpt>
      <trkpt lat="43.0344" lon="-2.21797">
        <ele>404.4</ele>
        <time>2021-05-29 08:54:55</time>
      </trkpt>
      <trkpt lat="43.03448" lon="-2.21795">
        <ele>404.2</ele>
        <time>2021-05-29 08:54:56</time>
      </trkpt>
      <trkpt lat="43.03456" lon="-2.21793">
        <ele>404.2</ele>
        <time>2021-05-29 08:54:57</time>
      </trkpt>
      <trkpt lat="43.03464" lon="-2.2179">
        <ele>404</ele>
        <time>2021-05-29 08:54:58</time>
      </trkpt>
      <trkpt lat="43.03472" lon="-2.21787">
        <ele>403.8</ele>
        <time>2021-05-29 08:54:59</time>
      </trkpt>
      <trkpt lat="43.0348" lon="-2.21785">
        <ele>403.8</ele>
        <time>2021-05-29 08:55:00</time>
      </trkpt>
      <trkpt lat="43.03488" lon="-2.21783">
        <ele>403.8</ele>
        <time>2021-05-29 08:55:01</time>
      </trkpt>
      <trkpt lat="43.03495" lon="-2.21781">
        <ele>403.8</ele>
        <time>2021-05-29 08:55:02</time>
      </trkpt>
      <trkpt lat="43.03503" lon="-2.21778">
        <ele>403.8</ele>
        <time>2021-05-29 08:55:03</time>
      </trkpt>
      <trkpt lat="43.0351" lon="-2.21776">
        <ele>403.8</ele>
        <time>2021-05-29 08:55:04</time>
      </trkpt>
      <trkpt lat="43.03518" lon="-2.21773">
        <ele>403.6</ele>
        <time>2021-05-29 08:55:05</time>
      </trkpt>
      <trkpt lat="43.03525" lon="-2.21771">
        <ele>403.6</ele>
        <time>2021-05-29 08:55:06</time>
      </trkpt>
      <trkpt lat="43.03532" lon="-2.21769">
        <ele>403.6</ele>
        <time>2021-05-29 08:55:07</time>
      </trkpt>
      <trkpt lat="43.03539" lon="-2.21767">
        <ele>403.6</ele>
        <time>2021-05-29 08:55:08</time>
      </trkpt>
      <trkpt lat="43.03546" lon="-2.21765">
        <ele>403.4</ele>
        <time>2021-05-29 08:55:09</time>
      </trkpt>
      <trkpt lat="43.03552" lon="-2.21762">
        <ele>403.4</ele>
        <time>2021-05-29 08:55:10</time>
      </trkpt>
      <trkpt lat="43.03559" lon="-2.2176">
        <ele>403.4</ele>
        <time>2021-05-29 08:55:11</time>
      </trkpt>
      <trkpt lat="43.03566" lon="-2.21757">
        <ele>403.2</ele>
        <time>2021-05-29 08:55:12</time>
      </trkpt>
      <trkpt lat="43.03573" lon="-2.21754">
        <ele>403.2</ele>
        <time>2021-05-29 08:55:13</time>
      </trkpt>
      <trkpt lat="43.0358" lon="-2.21751">
        <ele>403.2</ele>
        <time>2021-05-29 08:55:14</time>
      </trkpt>
      <trkpt lat="43.03587" lon="-2.21749">
        <ele>403.2</ele>
        <time>2021-05-29 08:55:15</time>
      </trkpt>
      <trkpt lat="43.03594" lon="-2.21746">
        <ele>403</ele>
        <time>2021-05-29 08:55:16</time>
      </trkpt>
      <trkpt lat="43.03601" lon="-2.21743">
        <ele>402.8</ele>
        <time>2021-05-29 08:55:17</time>
      </trkpt>
      <trkpt lat="43.03608" lon="-2.21741">
        <ele>402.8</ele>
        <time>2021-05-29 08:55:18</time>
      </trkpt>
      <trkpt lat="43.03616" lon="-2.21738">
        <ele>402.8</ele>
        <time>2021-05-29 08:55:19</time>
      </trkpt>
      <trkpt lat="43.03624" lon="-2.21735">
        <ele>402.8</ele>
        <time>2021-05-29 08:55:20</time>
      </trkpt>
      <trkpt lat="43.03631" lon="-2.21733">
        <ele>402.6</ele>
        <time>2021-05-29 08:55:21</time>
      </trkpt>
      <trkpt lat="43.03639" lon="-2.2173">
        <ele>402.6</ele>
        <time>2021-05-29 08:55:22</time>
      </trkpt>
      <trkpt lat="43.03647" lon="-2.21727">
        <ele>402.6</ele>
        <time>2021-05-29 08:55:23</time>
      </trkpt>
      <trkpt lat="43.03655" lon="-2.21724">
        <ele>402.4</ele>
        <time>2021-05-29 08:55:24</time>
      </trkpt>
      <trkpt lat="43.03662" lon="-2.21721">
        <ele>402.4</ele>
        <time>2021-05-29 08:55:25</time>
      </trkpt>
      <trkpt lat="43.0367" lon="-2.21718">
        <ele>402.4</ele>
        <time>2021-05-29 08:55:26</time>
      </trkpt>
      <trkpt lat="43.03678" lon="-2.21716">
        <ele>402.2</ele>
        <time>2021-05-29 08:55:27</time>
      </trkpt>
      <trkpt lat="43.03685" lon="-2.21713">
        <ele>402.2</ele>
        <time>2021-05-29 08:55:28</time>
      </trkpt>
      <trkpt lat="43.03693" lon="-2.2171">
        <ele>402</ele>
        <time>2021-05-29 08:55:29</time>
      </trkpt>
      <trkpt lat="43.03701" lon="-2.21707">
        <ele>402.2</ele>
        <time>2021-05-29 08:55:30</time>
      </trkpt>
      <trkpt lat="43.03708" lon="-2.21704">
        <ele>402</ele>
        <time>2021-05-29 08:55:31</time>
      </trkpt>
      <trkpt lat="43.03717" lon="-2.21701">
        <ele>402</ele>
        <time>2021-05-29 08:55:32</time>
      </trkpt>
      <trkpt lat="43.03725" lon="-2.21699">
        <ele>402</ele>
        <time>2021-05-29 08:55:33</time>
      </trkpt>
      <trkpt lat="43.03734" lon="-2.21697">
        <ele>402</ele>
        <time>2021-05-29 08:55:34</time>
      </trkpt>
      <trkpt lat="43.03742" lon="-2.21694">
        <ele>401.8</ele>
        <time>2021-05-29 08:55:35</time>
      </trkpt>
      <trkpt lat="43.0375" lon="-2.21692">
        <ele>401.8</ele>
        <time>2021-05-29 08:55:36</time>
      </trkpt>
      <trkpt lat="43.03757" lon="-2.21689">
        <ele>401.8</ele>
        <time>2021-05-29 08:55:37</time>
      </trkpt>
      <trkpt lat="43.03764" lon="-2.21686">
        <ele>401.8</ele>
        <time>2021-05-29 08:55:38</time>
      </trkpt>
      <trkpt lat="43.03769" lon="-2.21684">
        <ele>401.6</ele>
        <time>2021-05-29 08:55:39</time>
      </trkpt>
      <trkpt lat="43.03773" lon="-2.21683">
        <ele>401.6</ele>
        <time>2021-05-29 08:55:40</time>
      </trkpt>
      <trkpt lat="43.03777" lon="-2.21681">
        <ele>401.8</ele>
        <time>2021-05-29 08:55:41</time>
      </trkpt>
      <trkpt lat="43.03781" lon="-2.21679">
        <ele>401.8</ele>
        <time>2021-05-29 08:55:42</time>
      </trkpt>
      <trkpt lat="43.03785" lon="-2.21677">
        <ele>401.8</ele>
        <time>2021-05-29 08:55:43</time>
      </trkpt>
      <trkpt lat="43.03789" lon="-2.21675">
        <ele>401.6</ele>
        <time>2021-05-29 08:55:44</time>
      </trkpt>
      <trkpt lat="43.03793" lon="-2.21672">
        <ele>401.6</ele>
        <time>2021-05-29 08:55:45</time>
      </trkpt>
      <trkpt lat="43.03797" lon="-2.21668">
        <ele>401.6</ele>
        <time>2021-05-29 08:55:46</time>
      </trkpt>
      <trkpt lat="43.03801" lon="-2.21664">
        <ele>401.6</ele>
        <time>2021-05-29 08:55:47</time>
      </trkpt>
      <trkpt lat="43.03804" lon="-2.21658">
        <ele>401.6</ele>
        <time>2021-05-29 08:55:48</time>
      </trkpt>
      <trkpt lat="43.03805" lon="-2.21651">
        <ele>401.6</ele>
        <time>2021-05-29 08:55:49</time>
      </trkpt>
      <trkpt lat="43.03806" lon="-2.21643">
        <ele>401.8</ele>
        <time>2021-05-29 08:55:50</time>
      </trkpt>
      <trkpt lat="43.03807" lon="-2.21636">
        <ele>401.8</ele>
        <time>2021-05-29 08:55:51</time>
      </trkpt>
      <trkpt lat="43.03808" lon="-2.21629">
        <ele>401.6</ele>
        <time>2021-05-29 08:55:52</time>
      </trkpt>
      <trkpt lat="43.03811" lon="-2.21623">
        <ele>401.6</ele>
        <time>2021-05-29 08:55:53</time>
      </trkpt>
      <trkpt lat="43.03815" lon="-2.21618">
        <ele>401.6</ele>
        <time>2021-05-29 08:55:54</time>
      </trkpt>
      <trkpt lat="43.0382" lon="-2.21616">
        <ele>401.6</ele>
        <time>2021-05-29 08:55:55</time>
      </trkpt>
      <trkpt lat="43.03825" lon="-2.21616">
        <ele>401.6</ele>
        <time>2021-05-29 08:55:56</time>
      </trkpt>
      <trkpt lat="43.0383" lon="-2.21619">
        <ele>401.6</ele>
        <time>2021-05-29 08:55:57</time>
      </trkpt>
      <trkpt lat="43.03834" lon="-2.21624">
        <ele>401.6</ele>
        <time>2021-05-29 08:55:58</time>
      </trkpt>
      <trkpt lat="43.03837" lon="-2.21631">
        <ele>401.6</ele>
        <time>2021-05-29 08:55:59</time>
      </trkpt>
      <trkpt lat="43.03839" lon="-2.21638">
        <ele>401.6</ele>
        <time>2021-05-29 08:56:00</time>
      </trkpt>
      <trkpt lat="43.0384" lon="-2.21646">
        <ele>401.4</ele>
        <time>2021-05-29 08:56:01</time>
      </trkpt>
      <trkpt lat="43.03842" lon="-2.21654">
        <ele>401.2</ele>
        <time>2021-05-29 08:56:02</time>
      </trkpt>
      <trkpt lat="43.03845" lon="-2.21662">
        <ele>401.2</ele>
        <time>2021-05-29 08:56:03</time>
      </trkpt>
      <trkpt lat="43.03848" lon="-2.2167">
        <ele>401.2</ele>
        <time>2021-05-29 08:56:04</time>
      </trkpt>
      <trkpt lat="43.03852" lon="-2.21677">
        <ele>401.2</ele>
        <time>2021-05-29 08:56:05</time>
      </trkpt>
      <trkpt lat="43.03856" lon="-2.21684">
        <ele>401.2</ele>
        <time>2021-05-29 08:56:06</time>
      </trkpt>
      <trkpt lat="43.03861" lon="-2.2169">
        <ele>401</ele>
        <time>2021-05-29 08:56:07</time>
      </trkpt>
      <trkpt lat="43.03866" lon="-2.21696">
        <ele>401</ele>
        <time>2021-05-29 08:56:08</time>
      </trkpt>
      <trkpt lat="43.03872" lon="-2.21702">
        <ele>400.8</ele>
        <time>2021-05-29 08:56:09</time>
      </trkpt>
      <trkpt lat="43.03879" lon="-2.21705">
        <ele>401</ele>
        <time>2021-05-29 08:56:10</time>
      </trkpt>
      <trkpt lat="43.03887" lon="-2.21707">
        <ele>400.8</ele>
        <time>2021-05-29 08:56:11</time>
      </trkpt>
      <trkpt lat="43.03895" lon="-2.21707">
        <ele>400.8</ele>
        <time>2021-05-29 08:56:12</time>
      </trkpt>
      <trkpt lat="43.03904" lon="-2.21706">
        <ele>400.6</ele>
        <time>2021-05-29 08:56:13</time>
      </trkpt>
      <trkpt lat="43.03913" lon="-2.21704">
        <ele>400.4</ele>
        <time>2021-05-29 08:56:14</time>
      </trkpt>
      <trkpt lat="43.03923" lon="-2.21702">
        <ele>400.4</ele>
        <time>2021-05-29 08:56:15</time>
      </trkpt>
      <trkpt lat="43.03933" lon="-2.21699">
        <ele>400.4</ele>
        <time>2021-05-29 08:56:16</time>
      </trkpt>
      <trkpt lat="43.03944" lon="-2.21696">
        <ele>400.2</ele>
        <time>2021-05-29 08:56:17</time>
      </trkpt>
      <trkpt lat="43.03955" lon="-2.21693">
        <ele>400.2</ele>
        <time>2021-05-29 08:56:18</time>
      </trkpt>
      <trkpt lat="43.03965" lon="-2.2169">
        <ele>399.8</ele>
        <time>2021-05-29 08:56:19</time>
      </trkpt>
      <trkpt lat="43.03975" lon="-2.21687">
        <ele>399.8</ele>
        <time>2021-05-29 08:56:20</time>
      </trkpt>
      <trkpt lat="43.03985" lon="-2.21684">
        <ele>399.8</ele>
        <time>2021-05-29 08:56:21</time>
      </trkpt>
      <trkpt lat="43.03996" lon="-2.21682">
        <ele>399.6</ele>
        <time>2021-05-29 08:56:22</time>
      </trkpt>
      <trkpt lat="43.04006" lon="-2.21681">
        <ele>399.4</ele>
        <time>2021-05-29 08:56:23</time>
      </trkpt>
      <trkpt lat="43.04017" lon="-2.21679">
        <ele>399.2</ele>
        <time>2021-05-29 08:56:24</time>
      </trkpt>
      <trkpt lat="43.04027" lon="-2.21678">
        <ele>399.2</ele>
        <time>2021-05-29 08:56:25</time>
      </trkpt>
      <trkpt lat="43.04037" lon="-2.21676">
        <ele>399</ele>
        <time>2021-05-29 08:56:26</time>
      </trkpt>
      <trkpt lat="43.04047" lon="-2.21674">
        <ele>398.8</ele>
        <time>2021-05-29 08:56:27</time>
      </trkpt>
      <trkpt lat="43.04057" lon="-2.21673">
        <ele>398.8</ele>
        <time>2021-05-29 08:56:28</time>
      </trkpt>
      <trkpt lat="43.04067" lon="-2.21672">
        <ele>398.6</ele>
        <time>2021-05-29 08:56:29</time>
      </trkpt>
      <trkpt lat="43.04077" lon="-2.21671">
        <ele>398.8</ele>
        <time>2021-05-29 08:56:30</time>
      </trkpt>
      <trkpt lat="43.04087" lon="-2.21669">
        <ele>398.8</ele>
        <time>2021-05-29 08:56:31</time>
      </trkpt>
      <trkpt lat="43.04097" lon="-2.21668">
        <ele>398.6</ele>
        <time>2021-05-29 08:56:32</time>
      </trkpt>
      <trkpt lat="43.04107" lon="-2.21667">
        <ele>398.6</ele>
        <time>2021-05-29 08:56:33</time>
      </trkpt>
      <trkpt lat="43.04117" lon="-2.21666">
        <ele>398.4</ele>
        <time>2021-05-29 08:56:34</time>
      </trkpt>
      <trkpt lat="43.04127" lon="-2.21664">
        <ele>398.4</ele>
        <time>2021-05-29 08:56:35</time>
      </trkpt>
      <trkpt lat="43.04136" lon="-2.21663">
        <ele>398.4</ele>
        <time>2021-05-29 08:56:36</time>
      </trkpt>
      <trkpt lat="43.04147" lon="-2.21661">
        <ele>398.4</ele>
        <time>2021-05-29 08:56:37</time>
      </trkpt>
      <trkpt lat="43.04157" lon="-2.2166">
        <ele>398.4</ele>
        <time>2021-05-29 08:56:38</time>
      </trkpt>
      <trkpt lat="43.04166" lon="-2.21658">
        <ele>398.4</ele>
        <time>2021-05-29 08:56:39</time>
      </trkpt>
      <trkpt lat="43.04176" lon="-2.21656">
        <ele>398.4</ele>
        <time>2021-05-29 08:56:40</time>
      </trkpt>
      <trkpt lat="43.04185" lon="-2.21654">
        <ele>398.4</ele>
        <time>2021-05-29 08:56:41</time>
      </trkpt>
      <trkpt lat="43.04194" lon="-2.21649">
        <ele>398.4</ele>
        <time>2021-05-29 08:56:42</time>
      </trkpt>
      <trkpt lat="43.04201" lon="-2.21642">
        <ele>398.4</ele>
        <time>2021-05-29 08:56:43</time>
      </trkpt>
      <trkpt lat="43.04207" lon="-2.21635">
        <ele>398.4</ele>
        <time>2021-05-29 08:56:44</time>
      </trkpt>
      <trkpt lat="43.04214" lon="-2.21632">
        <ele>398.4</ele>
        <time>2021-05-29 08:56:45</time>
      </trkpt>
      <trkpt lat="43.04221" lon="-2.21633">
        <ele>398.2</ele>
        <time>2021-05-29 08:56:46</time>
      </trkpt>
      <trkpt lat="43.04228" lon="-2.21637">
        <ele>398.2</ele>
        <time>2021-05-29 08:56:47</time>
      </trkpt>
      <trkpt lat="43.04237" lon="-2.2164">
        <ele>398.2</ele>
        <time>2021-05-29 08:56:48</time>
      </trkpt>
      <trkpt lat="43.04245" lon="-2.21641">
        <ele>398.2</ele>
        <time>2021-05-29 08:56:49</time>
      </trkpt>
      <trkpt lat="43.04254" lon="-2.21642">
        <ele>398.2</ele>
        <time>2021-05-29 08:56:50</time>
      </trkpt>
      <trkpt lat="43.04263" lon="-2.21641">
        <ele>398.2</ele>
        <time>2021-05-29 08:56:51</time>
      </trkpt>
      <trkpt lat="43.04272" lon="-2.2164">
        <ele>398</ele>
        <time>2021-05-29 08:56:52</time>
      </trkpt>
      <trkpt lat="43.04281" lon="-2.21639">
        <ele>398.2</ele>
        <time>2021-05-29 08:56:53</time>
      </trkpt>
      <trkpt lat="43.0429" lon="-2.21637">
        <ele>398.2</ele>
        <time>2021-05-29 08:56:54</time>
      </trkpt>
      <trkpt lat="43.04299" lon="-2.21636">
        <ele>398.2</ele>
        <time>2021-05-29 08:56:55</time>
      </trkpt>
      <trkpt lat="43.04308" lon="-2.21635">
        <ele>398.2</ele>
        <time>2021-05-29 08:56:56</time>
      </trkpt>
      <trkpt lat="43.04318" lon="-2.21633">
        <ele>398</ele>
        <time>2021-05-29 08:56:57</time>
      </trkpt>
      <trkpt lat="43.04327" lon="-2.21632">
        <ele>398.2</ele>
        <time>2021-05-29 08:56:58</time>
      </trkpt>
      <trkpt lat="43.04336" lon="-2.21631">
        <ele>398.2</ele>
        <time>2021-05-29 08:56:59</time>
      </trkpt>
      <trkpt lat="43.04344" lon="-2.21629">
        <ele>398.2</ele>
        <time>2021-05-29 08:57:00</time>
      </trkpt>
      <trkpt lat="43.04352" lon="-2.21628">
        <ele>398.2</ele>
        <time>2021-05-29 08:57:01</time>
      </trkpt>
      <trkpt lat="43.04361" lon="-2.21627">
        <ele>398</ele>
        <time>2021-05-29 08:57:02</time>
      </trkpt>
      <trkpt lat="43.04368" lon="-2.21626">
        <ele>398</ele>
        <time>2021-05-29 08:57:03</time>
      </trkpt>
      <trkpt lat="43.04376" lon="-2.21625">
        <ele>398.2</ele>
        <time>2021-05-29 08:57:04</time>
      </trkpt>
      <trkpt lat="43.04383" lon="-2.21624">
        <ele>398.2</ele>
        <time>2021-05-29 08:57:05</time>
      </trkpt>
      <trkpt lat="43.0439" lon="-2.21623">
        <ele>398.2</ele>
        <time>2021-05-29 08:57:06</time>
      </trkpt>
      <trkpt lat="43.04397" lon="-2.21622">
        <ele>398.2</ele>
        <time>2021-05-29 08:57:07</time>
      </trkpt>
      <trkpt lat="43.04404" lon="-2.21621">
        <ele>398.2</ele>
        <time>2021-05-29 08:57:08</time>
      </trkpt>
      <trkpt lat="43.04411" lon="-2.21621">
        <ele>398.4</ele>
        <time>2021-05-29 08:57:09</time>
      </trkpt>
      <trkpt lat="43.04418" lon="-2.2162">
        <ele>398.2</ele>
        <time>2021-05-29 08:57:10</time>
      </trkpt>
      <trkpt lat="43.04424" lon="-2.21619">
        <ele>398.4</ele>
        <time>2021-05-29 08:57:11</time>
      </trkpt>
      <trkpt lat="43.0443" lon="-2.21617">
        <ele>398.6</ele>
        <time>2021-05-29 08:57:12</time>
      </trkpt>
      <trkpt lat="43.04436" lon="-2.21616">
        <ele>398.6</ele>
        <time>2021-05-29 08:57:13</time>
      </trkpt>
      <trkpt lat="43.04442" lon="-2.21615">
        <ele>398.6</ele>
        <time>2021-05-29 08:57:14</time>
      </trkpt>
      <trkpt lat="43.04449" lon="-2.21613">
        <ele>398.6</ele>
        <time>2021-05-29 08:57:15</time>
      </trkpt>
      <trkpt lat="43.04454" lon="-2.21611">
        <ele>398.6</ele>
        <time>2021-05-29 08:57:16</time>
      </trkpt>
      <trkpt lat="43.0446" lon="-2.21611">
        <ele>398.6</ele>
        <time>2021-05-29 08:57:17</time>
      </trkpt>
      <trkpt lat="43.04465" lon="-2.21611">
        <ele>398.6</ele>
        <time>2021-05-29 08:57:18</time>
      </trkpt>
      <trkpt lat="43.04472" lon="-2.2161">
        <ele>398.8</ele>
        <time>2021-05-29 08:57:19</time>
      </trkpt>
      <trkpt lat="43.04478" lon="-2.2161">
        <ele>399</ele>
        <time>2021-05-29 08:57:20</time>
      </trkpt>
      <trkpt lat="43.04486" lon="-2.21609">
        <ele>399</ele>
        <time>2021-05-29 08:57:21</time>
      </trkpt>
      <trkpt lat="43.04495" lon="-2.21607">
        <ele>399</ele>
        <time>2021-05-29 08:57:22</time>
      </trkpt>
      <trkpt lat="43.04504" lon="-2.21605">
        <ele>399</ele>
        <time>2021-05-29 08:57:23</time>
      </trkpt>
      <trkpt lat="43.04513" lon="-2.21601">
        <ele>399.2</ele>
        <time>2021-05-29 08:57:24</time>
      </trkpt>
      <trkpt lat="43.04522" lon="-2.21597">
        <ele>399.2</ele>
        <time>2021-05-29 08:57:25</time>
      </trkpt>
      <trkpt lat="43.04531" lon="-2.21592">
        <ele>399.4</ele>
        <time>2021-05-29 08:57:26</time>
      </trkpt>
      <trkpt lat="43.0454" lon="-2.21586">
        <ele>399.4</ele>
        <time>2021-05-29 08:57:27</time>
      </trkpt>
      <trkpt lat="43.04549" lon="-2.21581">
        <ele>399.4</ele>
        <time>2021-05-29 08:57:28</time>
      </trkpt>
      <trkpt lat="43.04558" lon="-2.21575">
        <ele>399.4</ele>
        <time>2021-05-29 08:57:29</time>
      </trkpt>
      <trkpt lat="43.04567" lon="-2.2157">
        <ele>399.4</ele>
        <time>2021-05-29 08:57:30</time>
      </trkpt>
      <trkpt lat="43.04577" lon="-2.21564">
        <ele>399.4</ele>
        <time>2021-05-29 08:57:31</time>
      </trkpt>
      <trkpt lat="43.04586" lon="-2.21558">
        <ele>399.4</ele>
        <time>2021-05-29 08:57:32</time>
      </trkpt>
      <trkpt lat="43.04595" lon="-2.21552">
        <ele>399.4</ele>
        <time>2021-05-29 08:57:33</time>
      </trkpt>
      <trkpt lat="43.04604" lon="-2.21546">
        <ele>399.4</ele>
        <time>2021-05-29 08:57:34</time>
      </trkpt>
      <trkpt lat="43.04612" lon="-2.21539">
        <ele>399.4</ele>
        <time>2021-05-29 08:57:35</time>
      </trkpt>
      <trkpt lat="43.04619" lon="-2.21529">
        <ele>399.4</ele>
        <time>2021-05-29 08:57:36</time>
      </trkpt>
      <trkpt lat="43.04623" lon="-2.21517">
        <ele>399.4</ele>
        <time>2021-05-29 08:57:37</time>
      </trkpt>
      <trkpt lat="43.04625" lon="-2.21504">
        <ele>399.4</ele>
        <time>2021-05-29 08:57:38</time>
      </trkpt>
      <trkpt lat="43.04626" lon="-2.2149">
        <ele>399.2</ele>
        <time>2021-05-29 08:57:39</time>
      </trkpt>
      <trkpt lat="43.04625" lon="-2.21477">
        <ele>399.2</ele>
        <time>2021-05-29 08:57:40</time>
      </trkpt>
      <trkpt lat="43.04626" lon="-2.21463">
        <ele>399.2</ele>
        <time>2021-05-29 08:57:41</time>
      </trkpt>
      <trkpt lat="43.04627" lon="-2.21448">
        <ele>399</ele>
        <time>2021-05-29 08:57:42</time>
      </trkpt>
      <trkpt lat="43.04628" lon="-2.21435">
        <ele>399.2</ele>
        <time>2021-05-29 08:57:43</time>
      </trkpt>
      <trkpt lat="43.0463" lon="-2.21421">
        <ele>398.8</ele>
        <time>2021-05-29 08:57:44</time>
      </trkpt>
      <trkpt lat="43.04633" lon="-2.21408">
        <ele>399</ele>
        <time>2021-05-29 08:57:45</time>
      </trkpt>
      <trkpt lat="43.04636" lon="-2.21395">
        <ele>398.8</ele>
        <time>2021-05-29 08:57:46</time>
      </trkpt>
      <trkpt lat="43.04639" lon="-2.21382">
        <ele>398.8</ele>
        <time>2021-05-29 08:57:47</time>
      </trkpt>
      <trkpt lat="43.04643" lon="-2.21369">
        <ele>398.8</ele>
        <time>2021-05-29 08:57:48</time>
      </trkpt>
      <trkpt lat="43.04646" lon="-2.21355">
        <ele>398.8</ele>
        <time>2021-05-29 08:57:49</time>
      </trkpt>
      <trkpt lat="43.0465" lon="-2.21342">
        <ele>399</ele>
        <time>2021-05-29 08:57:50</time>
      </trkpt>
      <trkpt lat="43.04655" lon="-2.21329">
        <ele>398.8</ele>
        <time>2021-05-29 08:57:51</time>
      </trkpt>
      <trkpt lat="43.04659" lon="-2.21316">
        <ele>398.8</ele>
        <time>2021-05-29 08:57:52</time>
      </trkpt>
      <trkpt lat="43.04664" lon="-2.21304">
        <ele>398.8</ele>
        <time>2021-05-29 08:57:53</time>
      </trkpt>
      <trkpt lat="43.04668" lon="-2.21291">
        <ele>398.6</ele>
        <time>2021-05-29 08:57:54</time>
      </trkpt>
      <trkpt lat="43.04672" lon="-2.21279">
        <ele>398.6</ele>
        <time>2021-05-29 08:57:55</time>
      </trkpt>
      <trkpt lat="43.04677" lon="-2.21266">
        <ele>398.6</ele>
        <time>2021-05-29 08:57:56</time>
      </trkpt>
      <trkpt lat="43.04681" lon="-2.21254">
        <ele>398.6</ele>
        <time>2021-05-29 08:57:57</time>
      </trkpt>
      <trkpt lat="43.04685" lon="-2.21242">
        <ele>398.6</ele>
        <time>2021-05-29 08:57:58</time>
      </trkpt>
      <trkpt lat="43.0469" lon="-2.21231">
        <ele>398.4</ele>
        <time>2021-05-29 08:57:59</time>
      </trkpt>
      <trkpt lat="43.04694" lon="-2.21219">
        <ele>398.6</ele>
        <time>2021-05-29 08:58:00</time>
      </trkpt>
      <trkpt lat="43.04699" lon="-2.21208">
        <ele>398.6</ele>
        <time>2021-05-29 08:58:01</time>
      </trkpt>
      <trkpt lat="43.04703" lon="-2.21196">
        <ele>398.4</ele>
        <time>2021-05-29 08:58:02</time>
      </trkpt>
      <trkpt lat="43.04708" lon="-2.21185">
        <ele>398.4</ele>
        <time>2021-05-29 08:58:03</time>
      </trkpt>
      <trkpt lat="43.04712" lon="-2.21173">
        <ele>398.4</ele>
        <time>2021-05-29 08:58:04</time>
      </trkpt>
      <trkpt lat="43.04716" lon="-2.21162">
        <ele>398.4</ele>
        <time>2021-05-29 08:58:05</time>
      </trkpt>
      <trkpt lat="43.04721" lon="-2.21151">
        <ele>398.4</ele>
        <time>2021-05-29 08:58:06</time>
      </trkpt>
      <trkpt lat="43.04725" lon="-2.2114">
        <ele>398.4</ele>
        <time>2021-05-29 08:58:07</time>
      </trkpt>
      <trkpt lat="43.0473" lon="-2.21129">
        <ele>398.4</ele>
        <time>2021-05-29 08:58:08</time>
      </trkpt>
      <trkpt lat="43.04734" lon="-2.21119">
        <ele>398.4</ele>
        <time>2021-05-29 08:58:09</time>
      </trkpt>
      <trkpt lat="43.04738" lon="-2.21111">
        <ele>398.4</ele>
        <time>2021-05-29 08:58:10</time>
      </trkpt>
      <trkpt lat="43.04741" lon="-2.21103">
        <ele>398.4</ele>
        <time>2021-05-29 08:58:11</time>
      </trkpt>
      <trkpt lat="43.04741" lon="-2.21096">
        <ele>398.4</ele>
        <time>2021-05-29 08:58:12</time>
      </trkpt>
      <trkpt lat="43.04737" lon="-2.21089">
        <ele>398.4</ele>
        <time>2021-05-29 08:58:13</time>
      </trkpt>
      <trkpt lat="43.04732" lon="-2.21084">
        <ele>398.4</ele>
        <time>2021-05-29 08:58:14</time>
      </trkpt>
      <trkpt lat="43.04727" lon="-2.2108">
        <ele>398.4</ele>
        <time>2021-05-29 08:58:15</time>
      </trkpt>
      <trkpt lat="43.04722" lon="-2.21076">
        <ele>398.4</ele>
        <time>2021-05-29 08:58:16</time>
      </trkpt>
      <trkpt lat="43.04716" lon="-2.21072">
        <ele>398.4</ele>
        <time>2021-05-29 08:58:17</time>
      </trkpt>
      <trkpt lat="43.0471" lon="-2.21067">
        <ele>398.4</ele>
        <time>2021-05-29 08:58:18</time>
      </trkpt>
      <trkpt lat="43.04704" lon="-2.21063">
        <ele>398.4</ele>
        <time>2021-05-29 08:58:19</time>
      </trkpt>
      <trkpt lat="43.04697" lon="-2.21058">
        <ele>398.6</ele>
        <time>2021-05-29 08:58:20</time>
      </trkpt>
      <trkpt lat="43.0469" lon="-2.21053">
        <ele>398.6</ele>
        <time>2021-05-29 08:58:21</time>
      </trkpt>
      <trkpt lat="43.04683" lon="-2.21048">
        <ele>398.8</ele>
        <time>2021-05-29 08:58:22</time>
      </trkpt>
      <trkpt lat="43.04677" lon="-2.21043">
        <ele>398.8</ele>
        <time>2021-05-29 08:58:23</time>
      </trkpt>
      <trkpt lat="43.0467" lon="-2.21037">
        <ele>398.8</ele>
        <time>2021-05-29 08:58:24</time>
      </trkpt>
      <trkpt lat="43.04663" lon="-2.21031">
        <ele>398.8</ele>
        <time>2021-05-29 08:58:25</time>
      </trkpt>
      <trkpt lat="43.04657" lon="-2.21026">
        <ele>398.8</ele>
        <time>2021-05-29 08:58:26</time>
      </trkpt>
      <trkpt lat="43.0465" lon="-2.21021">
        <ele>398.8</ele>
        <time>2021-05-29 08:58:27</time>
      </trkpt>
      <trkpt lat="43.04643" lon="-2.21016">
        <ele>398.8</ele>
        <time>2021-05-29 08:58:28</time>
      </trkpt>
      <trkpt lat="43.04637" lon="-2.2101">
        <ele>398.8</ele>
        <time>2021-05-29 08:58:29</time>
      </trkpt>
      <trkpt lat="43.04631" lon="-2.21005">
        <ele>399</ele>
        <time>2021-05-29 08:58:30</time>
      </trkpt>
      <trkpt lat="43.04626" lon="-2.20998">
        <ele>399</ele>
        <time>2021-05-29 08:58:31</time>
      </trkpt>
      <trkpt lat="43.04623" lon="-2.2099">
        <ele>399</ele>
        <time>2021-05-29 08:58:32</time>
      </trkpt>
      <trkpt lat="43.04623" lon="-2.2098">
        <ele>399.2</ele>
        <time>2021-05-29 08:58:33</time>
      </trkpt>
      <trkpt lat="43.04625" lon="-2.2097">
        <ele>399</ele>
        <time>2021-05-29 08:58:34</time>
      </trkpt>
      <trkpt lat="43.04628" lon="-2.20959">
        <ele>399</ele>
        <time>2021-05-29 08:58:35</time>
      </trkpt>
      <trkpt lat="43.04631" lon="-2.20948">
        <ele>399.2</ele>
        <time>2021-05-29 08:58:36</time>
      </trkpt>
      <trkpt lat="43.04634" lon="-2.20938">
        <ele>399.2</ele>
        <time>2021-05-29 08:58:37</time>
      </trkpt>
      <trkpt lat="43.04636" lon="-2.20927">
        <ele>399.2</ele>
        <time>2021-05-29 08:58:38</time>
      </trkpt>
      <trkpt lat="43.04639" lon="-2.20917">
        <ele>399.2</ele>
        <time>2021-05-29 08:58:39</time>
      </trkpt>
      <trkpt lat="43.0464" lon="-2.20907">
        <ele>399.2</ele>
        <time>2021-05-29 08:58:40</time>
      </trkpt>
      <trkpt lat="43.04642" lon="-2.20896">
        <ele>399.2</ele>
        <time>2021-05-29 08:58:41</time>
      </trkpt>
      <trkpt lat="43.04643" lon="-2.20885">
        <ele>399.2</ele>
        <time>2021-05-29 08:58:42</time>
      </trkpt>
      <trkpt lat="43.04645" lon="-2.20875">
        <ele>399.4</ele>
        <time>2021-05-29 08:58:43</time>
      </trkpt>
      <trkpt lat="43.04646" lon="-2.20864">
        <ele>399.2</ele>
        <time>2021-05-29 08:58:44</time>
      </trkpt>
      <trkpt lat="43.04647" lon="-2.20853">
        <ele>399.4</ele>
        <time>2021-05-29 08:58:45</time>
      </trkpt>
      <trkpt lat="43.04647" lon="-2.20841">
        <ele>399.4</ele>
        <time>2021-05-29 08:58:46</time>
      </trkpt>
      <trkpt lat="43.04648" lon="-2.2083">
        <ele>399.2</ele>
        <time>2021-05-29 08:58:47</time>
      </trkpt>
      <trkpt lat="43.04648" lon="-2.20819">
        <ele>399.4</ele>
        <time>2021-05-29 08:58:48</time>
      </trkpt>
      <trkpt lat="43.04649" lon="-2.20808">
        <ele>399.4</ele>
        <time>2021-05-29 08:58:49</time>
      </trkpt>
      <trkpt lat="43.04649" lon="-2.20796">
        <ele>399.2</ele>
        <time>2021-05-29 08:58:50</time>
      </trkpt>
      <trkpt lat="43.04649" lon="-2.20785">
        <ele>399.4</ele>
        <time>2021-05-29 08:58:51</time>
      </trkpt>
      <trkpt lat="43.04648" lon="-2.20774">
        <ele>399.4</ele>
        <time>2021-05-29 08:58:52</time>
      </trkpt>
      <trkpt lat="43.04648" lon="-2.20762">
        <ele>399.4</ele>
        <time>2021-05-29 08:58:53</time>
      </trkpt>
      <trkpt lat="43.04647" lon="-2.20751">
        <ele>399.4</ele>
        <time>2021-05-29 08:58:54</time>
      </trkpt>
      <trkpt lat="43.04647" lon="-2.2074">
        <ele>399.4</ele>
        <time>2021-05-29 08:58:55</time>
      </trkpt>
      <trkpt lat="43.04646" lon="-2.20728">
        <ele>399.6</ele>
        <time>2021-05-29 08:58:56</time>
      </trkpt>
      <trkpt lat="43.04646" lon="-2.20716">
        <ele>399.4</ele>
        <time>2021-05-29 08:58:57</time>
      </trkpt>
      <trkpt lat="43.04645" lon="-2.20705">
        <ele>399.4</ele>
        <time>2021-05-29 08:58:58</time>
      </trkpt>
      <trkpt lat="43.04644" lon="-2.20693">
        <ele>399.6</ele>
        <time>2021-05-29 08:58:59</time>
      </trkpt>
      <trkpt lat="43.04643" lon="-2.20681">
        <ele>399.6</ele>
        <time>2021-05-29 08:59:00</time>
      </trkpt>
      <trkpt lat="43.04643" lon="-2.20669">
        <ele>399.4</ele>
        <time>2021-05-29 08:59:01</time>
      </trkpt>
      <trkpt lat="43.04643" lon="-2.20657">
        <ele>399.4</ele>
        <time>2021-05-29 08:59:02</time>
      </trkpt>
      <trkpt lat="43.04642" lon="-2.20645">
        <ele>399.6</ele>
        <time>2021-05-29 08:59:03</time>
      </trkpt>
      <trkpt lat="43.04642" lon="-2.20633">
        <ele>399.6</ele>
        <time>2021-05-29 08:59:04</time>
      </trkpt>
      <trkpt lat="43.04641" lon="-2.20621">
        <ele>399.4</ele>
        <time>2021-05-29 08:59:05</time>
      </trkpt>
      <trkpt lat="43.0464" lon="-2.20609">
        <ele>399.6</ele>
        <time>2021-05-29 08:59:06</time>
      </trkpt>
      <trkpt lat="43.04639" lon="-2.20597">
        <ele>399.6</ele>
        <time>2021-05-29 08:59:07</time>
      </trkpt>
      <trkpt lat="43.04639" lon="-2.20585">
        <ele>399.6</ele>
        <time>2021-05-29 08:59:08</time>
      </trkpt>
      <trkpt lat="43.04639" lon="-2.20573">
        <ele>399.6</ele>
        <time>2021-05-29 08:59:09</time>
      </trkpt>
      <trkpt lat="43.04638" lon="-2.20561">
        <ele>399.4</ele>
        <time>2021-05-29 08:59:10</time>
      </trkpt>
      <trkpt lat="43.04638" lon="-2.20549">
        <ele>399.6</ele>
        <time>2021-05-29 08:59:11</time>
      </trkpt>
      <trkpt lat="43.04637" lon="-2.20536">
        <ele>399.4</ele>
        <time>2021-05-29 08:59:12</time>
      </trkpt>
      <trkpt lat="43.04637" lon="-2.20524">
        <ele>399.6</ele>
        <time>2021-05-29 08:59:13</time>
      </trkpt>
      <trkpt lat="43.04636" lon="-2.20513">
        <ele>399.6</ele>
        <time>2021-05-29 08:59:14</time>
      </trkpt>
      <trkpt lat="43.04636" lon="-2.20501">
        <ele>399.4</ele>
        <time>2021-05-29 08:59:15</time>
      </trkpt>
      <trkpt lat="43.04635" lon="-2.20489">
        <ele>399.6</ele>
        <time>2021-05-29 08:59:16</time>
      </trkpt>
      <trkpt lat="43.04635" lon="-2.20478">
        <ele>399.6</ele>
        <time>2021-05-29 08:59:17</time>
      </trkpt>
      <trkpt lat="43.04634" lon="-2.20466">
        <ele>399.6</ele>
        <time>2021-05-29 08:59:18</time>
      </trkpt>
      <trkpt lat="43.04634" lon="-2.20455">
        <ele>399.4</ele>
        <time>2021-05-29 08:59:19</time>
      </trkpt>
      <trkpt lat="43.04633" lon="-2.20443">
        <ele>399.4</ele>
        <time>2021-05-29 08:59:20</time>
      </trkpt>
      <trkpt lat="43.04632" lon="-2.20431">
        <ele>399.4</ele>
        <time>2021-05-29 08:59:21</time>
      </trkpt>
      <trkpt lat="43.0463" lon="-2.2042">
        <ele>399.4</ele>
        <time>2021-05-29 08:59:22</time>
      </trkpt>
      <trkpt lat="43.0463" lon="-2.20408">
        <ele>399.6</ele>
        <time>2021-05-29 08:59:23</time>
      </trkpt>
      <trkpt lat="43.04629" lon="-2.20397">
        <ele>399.4</ele>
        <time>2021-05-29 08:59:24</time>
      </trkpt>
      <trkpt lat="43.04628" lon="-2.20386">
        <ele>399.4</ele>
        <time>2021-05-29 08:59:25</time>
      </trkpt>
      <trkpt lat="43.04628" lon="-2.20375">
        <ele>399.6</ele>
        <time>2021-05-29 08:59:26</time>
      </trkpt>
      <trkpt lat="43.04627" lon="-2.20365">
        <ele>399.4</ele>
        <time>2021-05-29 08:59:27</time>
      </trkpt>
      <trkpt lat="43.04627" lon="-2.20354">
        <ele>399.6</ele>
        <time>2021-05-29 08:59:28</time>
      </trkpt>
      <trkpt lat="43.04627" lon="-2.20344">
        <ele>399.6</ele>
        <time>2021-05-29 08:59:29</time>
      </trkpt>
      <trkpt lat="43.04627" lon="-2.20335">
        <ele>399.6</ele>
        <time>2021-05-29 08:59:30</time>
      </trkpt>
      <trkpt lat="43.04626" lon="-2.20327">
        <ele>399.6</ele>
        <time>2021-05-29 08:59:31</time>
      </trkpt>
      <trkpt lat="43.04626" lon="-2.2032">
        <ele>399.6</ele>
        <time>2021-05-29 08:59:32</time>
      </trkpt>
      <trkpt lat="43.04626" lon="-2.20312">
        <ele>399.6</ele>
        <time>2021-05-29 08:59:33</time>
      </trkpt>
      <trkpt lat="43.04627" lon="-2.20304">
        <ele>399.6</ele>
        <time>2021-05-29 08:59:34</time>
      </trkpt>
      <trkpt lat="43.04629" lon="-2.20295">
        <ele>399.4</ele>
        <time>2021-05-29 08:59:35</time>
      </trkpt>
      <trkpt lat="43.04631" lon="-2.20286">
        <ele>399.6</ele>
        <time>2021-05-29 08:59:36</time>
      </trkpt>
      <trkpt lat="43.04633" lon="-2.20277">
        <ele>399.6</ele>
        <time>2021-05-29 08:59:37</time>
      </trkpt>
      <trkpt lat="43.04635" lon="-2.20268">
        <ele>399.6</ele>
        <time>2021-05-29 08:59:38</time>
      </trkpt>
      <trkpt lat="43.04636" lon="-2.20258">
        <ele>399.4</ele>
        <time>2021-05-29 08:59:39</time>
      </trkpt>
      <trkpt lat="43.04639" lon="-2.20249">
        <ele>399.6</ele>
        <time>2021-05-29 08:59:40</time>
      </trkpt>
      <trkpt lat="43.04641" lon="-2.20239">
        <ele>399.6</ele>
        <time>2021-05-29 08:59:41</time>
      </trkpt>
      <trkpt lat="43.04642" lon="-2.20228">
        <ele>399.4</ele>
        <time>2021-05-29 08:59:42</time>
      </trkpt>
      <trkpt lat="43.04641" lon="-2.20218">
        <ele>399.4</ele>
        <time>2021-05-29 08:59:43</time>
      </trkpt>
      <trkpt lat="43.04639" lon="-2.20208">
        <ele>399.4</ele>
        <time>2021-05-29 08:59:44</time>
      </trkpt>
      <trkpt lat="43.04637" lon="-2.20198">
        <ele>399.4</ele>
        <time>2021-05-29 08:59:45</time>
      </trkpt>
      <trkpt lat="43.04635" lon="-2.20187">
        <ele>399.4</ele>
        <time>2021-05-29 08:59:46</time>
      </trkpt>
      <trkpt lat="43.04633" lon="-2.20177">
        <ele>399.4</ele>
        <time>2021-05-29 08:59:47</time>
      </trkpt>
      <trkpt lat="43.0463" lon="-2.20167">
        <ele>399.4</ele>
        <time>2021-05-29 08:59:48</time>
      </trkpt>
      <trkpt lat="43.04628" lon="-2.20156">
        <ele>399.4</ele>
        <time>2021-05-29 08:59:49</time>
      </trkpt>
      <trkpt lat="43.04626" lon="-2.20146">
        <ele>399.4</ele>
        <time>2021-05-29 08:59:50</time>
      </trkpt>
      <trkpt lat="43.04624" lon="-2.20135">
        <ele>399.4</ele>
        <time>2021-05-29 08:59:51</time>
      </trkpt>
      <trkpt lat="43.04623" lon="-2.20123">
        <ele>399.2</ele>
        <time>2021-05-29 08:59:52</time>
      </trkpt>
      <trkpt lat="43.04622" lon="-2.20111">
        <ele>399.4</ele>
        <time>2021-05-29 08:59:53</time>
      </trkpt>
      <trkpt lat="43.04621" lon="-2.20099">
        <ele>399.2</ele>
        <time>2021-05-29 08:59:54</time>
      </trkpt>
      <trkpt lat="43.04621" lon="-2.20087">
        <ele>399.2</ele>
        <time>2021-05-29 08:59:55</time>
      </trkpt>
      <trkpt lat="43.0462" lon="-2.20076">
        <ele>399</ele>
        <time>2021-05-29 08:59:56</time>
      </trkpt>
      <trkpt lat="43.0462" lon="-2.20064">
        <ele>399.2</ele>
        <time>2021-05-29 08:59:57</time>
      </trkpt>
      <trkpt lat="43.0462" lon="-2.20052">
        <ele>399.2</ele>
        <time>2021-05-29 08:59:58</time>
      </trkpt>
      <trkpt lat="43.04619" lon="-2.2004">
        <ele>399</ele>
        <time>2021-05-29 08:59:59</time>
      </trkpt>
      <trkpt lat="43.04618" lon="-2.20028">
        <ele>399.2</ele>
        <time>2021-05-29 09:00:00</time>
      </trkpt>
      <trkpt lat="43.04618" lon="-2.20016">
        <ele>399.2</ele>
        <time>2021-05-29 09:00:01</time>
      </trkpt>
      <trkpt lat="43.04618" lon="-2.20004">
        <ele>399.2</ele>
        <time>2021-05-29 09:00:02</time>
      </trkpt>
      <trkpt lat="43.04618" lon="-2.19993">
        <ele>399</ele>
        <time>2021-05-29 09:00:03</time>
      </trkpt>
      <trkpt lat="43.04617" lon="-2.19981">
        <ele>399</ele>
        <time>2021-05-29 09:00:04</time>
      </trkpt>
      <trkpt lat="43.04617" lon="-2.19969">
        <ele>399.2</ele>
        <time>2021-05-29 09:00:05</time>
      </trkpt>
      <trkpt lat="43.04616" lon="-2.19957">
        <ele>399</ele>
        <time>2021-05-29 09:00:06</time>
      </trkpt>
      <trkpt lat="43.04615" lon="-2.19945">
        <ele>399</ele>
        <time>2021-05-29 09:00:07</time>
      </trkpt>
      <trkpt lat="43.04614" lon="-2.19934">
        <ele>399</ele>
        <time>2021-05-29 09:00:08</time>
      </trkpt>
      <trkpt lat="43.04613" lon="-2.19922">
        <ele>399</ele>
        <time>2021-05-29 09:00:09</time>
      </trkpt>
      <trkpt lat="43.04612" lon="-2.1991">
        <ele>398.8</ele>
        <time>2021-05-29 09:00:10</time>
      </trkpt>
      <trkpt lat="43.04611" lon="-2.19898">
        <ele>398.6</ele>
        <time>2021-05-29 09:00:11</time>
      </trkpt>
      <trkpt lat="43.0461" lon="-2.19886">
        <ele>398.6</ele>
        <time>2021-05-29 09:00:12</time>
      </trkpt>
      <trkpt lat="43.04608" lon="-2.19874">
        <ele>398.6</ele>
        <time>2021-05-29 09:00:13</time>
      </trkpt>
      <trkpt lat="43.04607" lon="-2.19862">
        <ele>398.6</ele>
        <time>2021-05-29 09:00:14</time>
      </trkpt>
      <trkpt lat="43.04606" lon="-2.19851">
        <ele>398.6</ele>
        <time>2021-05-29 09:00:15</time>
      </trkpt>
      <trkpt lat="43.04606" lon="-2.19839">
        <ele>398.4</ele>
        <time>2021-05-29 09:00:16</time>
      </trkpt>
      <trkpt lat="43.04606" lon="-2.19828">
        <ele>398.4</ele>
        <time>2021-05-29 09:00:17</time>
      </trkpt>
      <trkpt lat="43.04606" lon="-2.19818">
        <ele>398.4</ele>
        <time>2021-05-29 09:00:18</time>
      </trkpt>
      <trkpt lat="43.04606" lon="-2.19807">
        <ele>398.4</ele>
        <time>2021-05-29 09:00:19</time>
      </trkpt>
      <trkpt lat="43.04605" lon="-2.19795">
        <ele>398.6</ele>
        <time>2021-05-29 09:00:20</time>
      </trkpt>
      <trkpt lat="43.04605" lon="-2.19784">
        <ele>398.4</ele>
        <time>2021-05-29 09:00:21</time>
      </trkpt>
      <trkpt lat="43.04606" lon="-2.19772">
        <ele>398.4</ele>
        <time>2021-05-29 09:00:22</time>
      </trkpt>
      <trkpt lat="43.04606" lon="-2.1976">
        <ele>398.2</ele>
        <time>2021-05-29 09:00:23</time>
      </trkpt>
      <trkpt lat="43.04606" lon="-2.19749">
        <ele>398.4</ele>
        <time>2021-05-29 09:00:24</time>
      </trkpt>
      <trkpt lat="43.04605" lon="-2.19738">
        <ele>398.4</ele>
        <time>2021-05-29 09:00:25</time>
      </trkpt>
      <trkpt lat="43.04605" lon="-2.19728">
        <ele>398.2</ele>
        <time>2021-05-29 09:00:26</time>
      </trkpt>
      <trkpt lat="43.04605" lon="-2.19719">
        <ele>397.8</ele>
        <time>2021-05-29 09:00:27</time>
      </trkpt>
      <trkpt lat="43.04605" lon="-2.1971">
        <ele>397.8</ele>
        <time>2021-05-29 09:00:28</time>
      </trkpt>
      <trkpt lat="43.04606" lon="-2.19701">
        <ele>397.6</ele>
        <time>2021-05-29 09:00:29</time>
      </trkpt>
      <trkpt lat="43.04606" lon="-2.19693">
        <ele>397.8</ele>
        <time>2021-05-29 09:00:30</time>
      </trkpt>
      <trkpt lat="43.04607" lon="-2.19685">
        <ele>397.6</ele>
        <time>2021-05-29 09:00:31</time>
      </trkpt>
      <trkpt lat="43.0461" lon="-2.19677">
        <ele>397.6</ele>
        <time>2021-05-29 09:00:32</time>
      </trkpt>
      <trkpt lat="43.04612" lon="-2.1967">
        <ele>397.6</ele>
        <time>2021-05-29 09:00:33</time>
      </trkpt>
      <trkpt lat="43.04614" lon="-2.19664">
        <ele>397.4</ele>
        <time>2021-05-29 09:00:34</time>
      </trkpt>
      <trkpt lat="43.04615" lon="-2.19659">
        <ele>397.6</ele>
        <time>2021-05-29 09:00:35</time>
      </trkpt>
      <trkpt lat="43.04617" lon="-2.19656">
        <ele>397.4</ele>
        <time>2021-05-29 09:00:36</time>
      </trkpt>
      <trkpt lat="43.04617" lon="-2.19653">
        <ele>397.2</ele>
        <time>2021-05-29 09:00:37</time>
      </trkpt>
      <trkpt lat="43.04618" lon="-2.19652">
        <ele>397</ele>
        <time>2021-05-29 09:00:38</time>
      </trkpt>
      <trkpt lat="43.04619" lon="-2.1965">
        <ele>397.2</ele>
        <time>2021-05-29 09:00:39</time>
      </trkpt>
      <trkpt lat="43.0462" lon="-2.19649">
        <ele>397</ele>
        <time>2021-05-29 09:00:40</time>
      </trkpt>
      <trkpt lat="43.0462" lon="-2.19648">
        <ele>396.8</ele>
        <time>2021-05-29 09:00:41</time>
      </trkpt>
      <trkpt lat="43.0462" lon="-2.19647">
        <ele>396.8</ele>
        <time>2021-05-29 09:00:42</time>
      </trkpt>
      <trkpt lat="43.0462" lon="-2.19646">
        <ele>396.8</ele>
        <time>2021-05-29 09:00:43</time>
      </trkpt>
      <trkpt lat="43.04621" lon="-2.19643">
        <ele>396.8</ele>
        <time>2021-05-29 09:00:44</time>
      </trkpt>
      <trkpt lat="43.04622" lon="-2.19641">
        <ele>396.6</ele>
        <time>2021-05-29 09:00:45</time>
      </trkpt>
      <trkpt lat="43.04623" lon="-2.19637">
        <ele>396.6</ele>
        <time>2021-05-29 09:00:46</time>
      </trkpt>
      <trkpt lat="43.04624" lon="-2.19633">
        <ele>396.6</ele>
        <time>2021-05-29 09:00:47</time>
      </trkpt>
      <trkpt lat="43.04625" lon="-2.19627">
        <ele>396.6</ele>
        <time>2021-05-29 09:00:48</time>
      </trkpt>
      <trkpt lat="43.04624" lon="-2.19621">
        <ele>396.4</ele>
        <time>2021-05-29 09:00:49</time>
      </trkpt>
      <trkpt lat="43.04621" lon="-2.19615">
        <ele>396.4</ele>
        <time>2021-05-29 09:00:50</time>
      </trkpt>
      <trkpt lat="43.04618" lon="-2.19608">
        <ele>396.4</ele>
        <time>2021-05-29 09:00:51</time>
      </trkpt>
      <trkpt lat="43.04614" lon="-2.19602">
        <ele>396.4</ele>
        <time>2021-05-29 09:00:52</time>
      </trkpt>
      <trkpt lat="43.04611" lon="-2.19592">
        <ele>396.2</ele>
        <time>2021-05-29 09:00:53</time>
      </trkpt>
      <trkpt lat="43.0461" lon="-2.19582">
        <ele>396.4</ele>
        <time>2021-05-29 09:00:54</time>
      </trkpt>
      <trkpt lat="43.04612" lon="-2.19572">
        <ele>396.2</ele>
        <time>2021-05-29 09:00:55</time>
      </trkpt>
      <trkpt lat="43.04616" lon="-2.19564">
        <ele>396</ele>
        <time>2021-05-29 09:00:56</time>
      </trkpt>
      <trkpt lat="43.04622" lon="-2.19559">
        <ele>396</ele>
        <time>2021-05-29 09:00:57</time>
      </trkpt>
      <trkpt lat="43.04629" lon="-2.19556">
        <ele>396</ele>
        <time>2021-05-29 09:00:58</time>
      </trkpt>
      <trkpt lat="43.04635" lon="-2.19557">
        <ele>396</ele>
        <time>2021-05-29 09:00:59</time>
      </trkpt>
      <trkpt lat="43.0464" lon="-2.19558">
        <ele>396</ele>
        <time>2021-05-29 09:01:00</time>
      </trkpt>
      <trkpt lat="43.04646" lon="-2.1956">
        <ele>396</ele>
        <time>2021-05-29 09:01:01</time>
      </trkpt>
      <trkpt lat="43.04652" lon="-2.19559">
        <ele>396</ele>
        <time>2021-05-29 09:01:02</time>
      </trkpt>
      <trkpt lat="43.04658" lon="-2.19555">
        <ele>395.8</ele>
        <time>2021-05-29 09:01:03</time>
      </trkpt>
      <trkpt lat="43.04662" lon="-2.19549">
        <ele>395.6</ele>
        <time>2021-05-29 09:01:04</time>
      </trkpt>
      <trkpt lat="43.04666" lon="-2.1954">
        <ele>395.4</ele>
        <time>2021-05-29 09:01:05</time>
      </trkpt>
      <trkpt lat="43.04668" lon="-2.1953">
        <ele>395.4</ele>
        <time>2021-05-29 09:01:06</time>
      </trkpt>
      <trkpt lat="43.04669" lon="-2.19521">
        <ele>395.4</ele>
        <time>2021-05-29 09:01:07</time>
      </trkpt>
      <trkpt lat="43.04669" lon="-2.19511">
        <ele>395.2</ele>
        <time>2021-05-29 09:01:08</time>
      </trkpt>
      <trkpt lat="43.04669" lon="-2.19501">
        <ele>395.4</ele>
        <time>2021-05-29 09:01:09</time>
      </trkpt>
      <trkpt lat="43.0467" lon="-2.19493">
        <ele>395.4</ele>
        <time>2021-05-29 09:01:10</time>
      </trkpt>
      <trkpt lat="43.0467" lon="-2.19484">
        <ele>395.2</ele>
        <time>2021-05-29 09:01:11</time>
      </trkpt>
      <trkpt lat="43.0467" lon="-2.19476">
        <ele>395</ele>
        <time>2021-05-29 09:01:12</time>
      </trkpt>
      <trkpt lat="43.04669" lon="-2.19467">
        <ele>395</ele>
        <time>2021-05-29 09:01:13</time>
      </trkpt>
      <trkpt lat="43.0467" lon="-2.19459">
        <ele>394.8</ele>
        <time>2021-05-29 09:01:14</time>
      </trkpt>
      <trkpt lat="43.04671" lon="-2.19451">
        <ele>394.8</ele>
        <time>2021-05-29 09:01:15</time>
      </trkpt>
      <trkpt lat="43.04672" lon="-2.19444">
        <ele>394.8</ele>
        <time>2021-05-29 09:01:16</time>
      </trkpt>
      <trkpt lat="43.04673" lon="-2.19436">
        <ele>394.6</ele>
        <time>2021-05-29 09:01:17</time>
      </trkpt>
      <trkpt lat="43.04675" lon="-2.19429">
        <ele>394.6</ele>
        <time>2021-05-29 09:01:18</time>
      </trkpt>
      <trkpt lat="43.04676" lon="-2.19422">
        <ele>394.6</ele>
        <time>2021-05-29 09:01:19</time>
      </trkpt>
      <trkpt lat="43.04677" lon="-2.19415">
        <ele>394.6</ele>
        <time>2021-05-29 09:01:20</time>
      </trkpt>
      <trkpt lat="43.04678" lon="-2.19406">
        <ele>394.6</ele>
        <time>2021-05-29 09:01:21</time>
      </trkpt>
      <trkpt lat="43.04679" lon="-2.19398">
        <ele>394.4</ele>
        <time>2021-05-29 09:01:22</time>
      </trkpt>
      <trkpt lat="43.04681" lon="-2.1939">
        <ele>394.6</ele>
        <time>2021-05-29 09:01:23</time>
      </trkpt>
      <trkpt lat="43.04683" lon="-2.19381">
        <ele>394.4</ele>
        <time>2021-05-29 09:01:24</time>
      </trkpt>
      <trkpt lat="43.04686" lon="-2.19372">
        <ele>394.4</ele>
        <time>2021-05-29 09:01:25</time>
      </trkpt>
      <trkpt lat="43.04689" lon="-2.19363">
        <ele>394.4</ele>
        <time>2021-05-29 09:01:26</time>
      </trkpt>
      <trkpt lat="43.04692" lon="-2.19354">
        <ele>394.4</ele>
        <time>2021-05-29 09:01:27</time>
      </trkpt>
      <trkpt lat="43.04696" lon="-2.19345">
        <ele>394.2</ele>
        <time>2021-05-29 09:01:28</time>
      </trkpt>
      <trkpt lat="43.047" lon="-2.19336">
        <ele>394.2</ele>
        <time>2021-05-29 09:01:29</time>
      </trkpt>
      <trkpt lat="43.04705" lon="-2.19328">
        <ele>394.2</ele>
        <time>2021-05-29 09:01:30</time>
      </trkpt>
      <trkpt lat="43.0471" lon="-2.1932">
        <ele>394.2</ele>
        <time>2021-05-29 09:01:31</time>
      </trkpt>
      <trkpt lat="43.04716" lon="-2.19312">
        <ele>394</ele>
        <time>2021-05-29 09:01:32</time>
      </trkpt>
      <trkpt lat="43.04721" lon="-2.19304">
        <ele>394</ele>
        <time>2021-05-29 09:01:33</time>
      </trkpt>
      <trkpt lat="43.04727" lon="-2.19296">
        <ele>393.8</ele>
        <time>2021-05-29 09:01:34</time>
      </trkpt>
      <trkpt lat="43.04733" lon="-2.19287">
        <ele>393.8</ele>
        <time>2021-05-29 09:01:35</time>
      </trkpt>
      <trkpt lat="43.04739" lon="-2.19279">
        <ele>394</ele>
        <time>2021-05-29 09:01:36</time>
      </trkpt>
      <trkpt lat="43.04745" lon="-2.19271">
        <ele>393.8</ele>
        <time>2021-05-29 09:01:37</time>
      </trkpt>
      <trkpt lat="43.04751" lon="-2.19263">
        <ele>393.8</ele>
        <time>2021-05-29 09:01:38</time>
      </trkpt>
      <trkpt lat="43.04757" lon="-2.19256">
        <ele>394</ele>
        <time>2021-05-29 09:01:39</time>
      </trkpt>
      <trkpt lat="43.04763" lon="-2.19248">
        <ele>393.8</ele>
        <time>2021-05-29 09:01:40</time>
      </trkpt>
      <trkpt lat="43.0477" lon="-2.19241">
        <ele>393.8</ele>
        <time>2021-05-29 09:01:41</time>
      </trkpt>
      <trkpt lat="43.04775" lon="-2.19234">
        <ele>393.8</ele>
        <time>2021-05-29 09:01:42</time>
      </trkpt>
      <trkpt lat="43.04781" lon="-2.19229">
        <ele>393.8</ele>
        <time>2021-05-29 09:01:43</time>
      </trkpt>
      <trkpt lat="43.04787" lon="-2.19226">
        <ele>393.6</ele>
        <time>2021-05-29 09:01:44</time>
      </trkpt>
      <trkpt lat="43.04793" lon="-2.19225">
        <ele>393.6</ele>
        <time>2021-05-29 09:01:45</time>
      </trkpt>
      <trkpt lat="43.04799" lon="-2.19227">
        <ele>393.6</ele>
        <time>2021-05-29 09:01:46</time>
      </trkpt>
      <trkpt lat="43.04806" lon="-2.1923">
        <ele>393.6</ele>
        <time>2021-05-29 09:01:47</time>
      </trkpt>
      <trkpt lat="43.04811" lon="-2.19231">
        <ele>393.6</ele>
        <time>2021-05-29 09:01:48</time>
      </trkpt>
      <trkpt lat="43.04815" lon="-2.19228">
        <ele>393.6</ele>
        <time>2021-05-29 09:01:49</time>
      </trkpt>
      <trkpt lat="43.04818" lon="-2.19221">
        <ele>393.6</ele>
        <time>2021-05-29 09:01:50</time>
      </trkpt>
      <trkpt lat="43.04823" lon="-2.19213">
        <ele>393.6</ele>
        <time>2021-05-29 09:01:51</time>
      </trkpt>
      <trkpt lat="43.04827" lon="-2.19205">
        <ele>393.4</ele>
        <time>2021-05-29 09:01:52</time>
      </trkpt>
      <trkpt lat="43.04832" lon="-2.19197">
        <ele>393.4</ele>
        <time>2021-05-29 09:01:53</time>
      </trkpt>
      <trkpt lat="43.04836" lon="-2.19188">
        <ele>393.4</ele>
        <time>2021-05-29 09:01:54</time>
      </trkpt>
      <trkpt lat="43.04841" lon="-2.19179">
        <ele>393.6</ele>
        <time>2021-05-29 09:01:55</time>
      </trkpt>
      <trkpt lat="43.04846" lon="-2.1917">
        <ele>393.4</ele>
        <time>2021-05-29 09:01:56</time>
      </trkpt>
      <trkpt lat="43.04851" lon="-2.19161">
        <ele>393.4</ele>
        <time>2021-05-29 09:01:57</time>
      </trkpt>
      <trkpt lat="43.04855" lon="-2.19152">
        <ele>393.4</ele>
        <time>2021-05-29 09:01:58</time>
      </trkpt>
      <trkpt lat="43.04861" lon="-2.19144">
        <ele>393.4</ele>
        <time>2021-05-29 09:01:59</time>
      </trkpt>
      <trkpt lat="43.04867" lon="-2.19137">
        <ele>393.4</ele>
        <time>2021-05-29 09:02:00</time>
      </trkpt>
      <trkpt lat="43.04874" lon="-2.19131">
        <ele>393.2</ele>
        <time>2021-05-29 09:02:01</time>
      </trkpt>
      <trkpt lat="43.0488" lon="-2.19126">
        <ele>393.4</ele>
        <time>2021-05-29 09:02:02</time>
      </trkpt>
      <trkpt lat="43.04887" lon="-2.19121">
        <ele>393.2</ele>
        <time>2021-05-29 09:02:03</time>
      </trkpt>
      <trkpt lat="43.04893" lon="-2.19115">
        <ele>393.4</ele>
        <time>2021-05-29 09:02:04</time>
      </trkpt>
      <trkpt lat="43.04899" lon="-2.1911">
        <ele>393.2</ele>
        <time>2021-05-29 09:02:05</time>
      </trkpt>
      <trkpt lat="43.04905" lon="-2.19105">
        <ele>393.2</ele>
        <time>2021-05-29 09:02:06</time>
      </trkpt>
      <trkpt lat="43.04912" lon="-2.191">
        <ele>393.2</ele>
        <time>2021-05-29 09:02:07</time>
      </trkpt>
      <trkpt lat="43.04919" lon="-2.19093">
        <ele>393.2</ele>
        <time>2021-05-29 09:02:08</time>
      </trkpt>
      <trkpt lat="43.04926" lon="-2.19088">
        <ele>393</ele>
        <time>2021-05-29 09:02:09</time>
      </trkpt>
      <trkpt lat="43.04933" lon="-2.19082">
        <ele>393</ele>
        <time>2021-05-29 09:02:10</time>
      </trkpt>
      <trkpt lat="43.0494" lon="-2.19076">
        <ele>393.2</ele>
        <time>2021-05-29 09:02:11</time>
      </trkpt>
      <trkpt lat="43.04947" lon="-2.19071">
        <ele>393.2</ele>
        <time>2021-05-29 09:02:12</time>
      </trkpt>
      <trkpt lat="43.04955" lon="-2.19066">
        <ele>393</ele>
        <time>2021-05-29 09:02:13</time>
      </trkpt>
      <trkpt lat="43.04961" lon="-2.1906">
        <ele>393</ele>
        <time>2021-05-29 09:02:14</time>
      </trkpt>
      <trkpt lat="43.04968" lon="-2.19055">
        <ele>393.2</ele>
        <time>2021-05-29 09:02:15</time>
      </trkpt>
      <trkpt lat="43.04974" lon="-2.1905">
        <ele>393.2</ele>
        <time>2021-05-29 09:02:16</time>
      </trkpt>
      <trkpt lat="43.04981" lon="-2.19045">
        <ele>393.2</ele>
        <time>2021-05-29 09:02:17</time>
      </trkpt>
      <trkpt lat="43.04988" lon="-2.1904">
        <ele>393</ele>
        <time>2021-05-29 09:02:18</time>
      </trkpt>
      <trkpt lat="43.04995" lon="-2.19035">
        <ele>393.2</ele>
        <time>2021-05-29 09:02:19</time>
      </trkpt>
      <trkpt lat="43.05002" lon="-2.19029">
        <ele>393.2</ele>
        <time>2021-05-29 09:02:20</time>
      </trkpt>
      <trkpt lat="43.05009" lon="-2.19024">
        <ele>393.2</ele>
        <time>2021-05-29 09:02:21</time>
      </trkpt>
      <trkpt lat="43.05016" lon="-2.19019">
        <ele>393.2</ele>
        <time>2021-05-29 09:02:22</time>
      </trkpt>
      <trkpt lat="43.05023" lon="-2.19015">
        <ele>393.2</ele>
        <time>2021-05-29 09:02:23</time>
      </trkpt>
      <trkpt lat="43.0503" lon="-2.19011">
        <ele>393</ele>
        <time>2021-05-29 09:02:24</time>
      </trkpt>
      <trkpt lat="43.05038" lon="-2.19007">
        <ele>393.2</ele>
        <time>2021-05-29 09:02:25</time>
      </trkpt>
      <trkpt lat="43.05046" lon="-2.19004">
        <ele>393.2</ele>
        <time>2021-05-29 09:02:26</time>
      </trkpt>
      <trkpt lat="43.05053" lon="-2.19">
        <ele>393.2</ele>
        <time>2021-05-29 09:02:27</time>
      </trkpt>
      <trkpt lat="43.0506" lon="-2.18997">
        <ele>393.2</ele>
        <time>2021-05-29 09:02:28</time>
      </trkpt>
      <trkpt lat="43.05067" lon="-2.18994">
        <ele>393.2</ele>
        <time>2021-05-29 09:02:29</time>
      </trkpt>
      <trkpt lat="43.05074" lon="-2.18992">
        <ele>393.2</ele>
        <time>2021-05-29 09:02:30</time>
      </trkpt>
      <trkpt lat="43.05081" lon="-2.18989">
        <ele>393.2</ele>
        <time>2021-05-29 09:02:31</time>
      </trkpt>
      <trkpt lat="43.05088" lon="-2.18987">
        <ele>393.2</ele>
        <time>2021-05-29 09:02:32</time>
      </trkpt>
      <trkpt lat="43.05096" lon="-2.18986">
        <ele>393.2</ele>
        <time>2021-05-29 09:02:33</time>
      </trkpt>
      <trkpt lat="43.05103" lon="-2.18986">
        <ele>393.2</ele>
        <time>2021-05-29 09:02:34</time>
      </trkpt>
      <trkpt lat="43.05111" lon="-2.18985">
        <ele>393.4</ele>
        <time>2021-05-29 09:02:35</time>
      </trkpt>
      <trkpt lat="43.05118" lon="-2.18984">
        <ele>393.2</ele>
        <time>2021-05-29 09:02:36</time>
      </trkpt>
      <trkpt lat="43.05126" lon="-2.18983">
        <ele>393.4</ele>
        <time>2021-05-29 09:02:37</time>
      </trkpt>
      <trkpt lat="43.05133" lon="-2.18982">
        <ele>393.4</ele>
        <time>2021-05-29 09:02:38</time>
      </trkpt>
      <trkpt lat="43.0514" lon="-2.18981">
        <ele>393.4</ele>
        <time>2021-05-29 09:02:39</time>
      </trkpt>
      <trkpt lat="43.05147" lon="-2.18979">
        <ele>393.4</ele>
        <time>2021-05-29 09:02:40</time>
      </trkpt>
      <trkpt lat="43.05154" lon="-2.18979">
        <ele>393.4</ele>
        <time>2021-05-29 09:02:41</time>
      </trkpt>
      <trkpt lat="43.05161" lon="-2.18978">
        <ele>393.4</ele>
        <time>2021-05-29 09:02:42</time>
      </trkpt>
      <trkpt lat="43.05168" lon="-2.18977">
        <ele>393.4</ele>
        <time>2021-05-29 09:02:43</time>
      </trkpt>
      <trkpt lat="43.05176" lon="-2.18978">
        <ele>393.4</ele>
        <time>2021-05-29 09:02:44</time>
      </trkpt>
      <trkpt lat="43.05184" lon="-2.18977">
        <ele>393.4</ele>
        <time>2021-05-29 09:02:45</time>
      </trkpt>
      <trkpt lat="43.05192" lon="-2.18976">
        <ele>393.4</ele>
        <time>2021-05-29 09:02:46</time>
      </trkpt>
      <trkpt lat="43.052" lon="-2.18975">
        <ele>393.6</ele>
        <time>2021-05-29 09:02:47</time>
      </trkpt>
      <trkpt lat="43.05207" lon="-2.18973">
        <ele>393.6</ele>
        <time>2021-05-29 09:02:48</time>
      </trkpt>
      <trkpt lat="43.05216" lon="-2.18971">
        <ele>393.6</ele>
        <time>2021-05-29 09:02:49</time>
      </trkpt>
      <trkpt lat="43.05224" lon="-2.18969">
        <ele>393.8</ele>
        <time>2021-05-29 09:02:50</time>
      </trkpt>
      <trkpt lat="43.05233" lon="-2.18966">
        <ele>393.8</ele>
        <time>2021-05-29 09:02:51</time>
      </trkpt>
      <trkpt lat="43.05242" lon="-2.18963">
        <ele>393.6</ele>
        <time>2021-05-29 09:02:52</time>
      </trkpt>
      <trkpt lat="43.0525" lon="-2.18959">
        <ele>393.6</ele>
        <time>2021-05-29 09:02:53</time>
      </trkpt>
      <trkpt lat="43.05259" lon="-2.18955">
        <ele>393.8</ele>
        <time>2021-05-29 09:02:54</time>
      </trkpt>
      <trkpt lat="43.05267" lon="-2.18951">
        <ele>393.8</ele>
        <time>2021-05-29 09:02:55</time>
      </trkpt>
      <trkpt lat="43.05276" lon="-2.18947">
        <ele>393.8</ele>
        <time>2021-05-29 09:02:56</time>
      </trkpt>
      <trkpt lat="43.05285" lon="-2.18945">
        <ele>393.8</ele>
        <time>2021-05-29 09:02:57</time>
      </trkpt>
      <trkpt lat="43.05293" lon="-2.18942">
        <ele>393.8</ele>
        <time>2021-05-29 09:02:58</time>
      </trkpt>
      <trkpt lat="43.05302" lon="-2.18939">
        <ele>393.8</ele>
        <time>2021-05-29 09:02:59</time>
      </trkpt>
      <trkpt lat="43.0531" lon="-2.18936">
        <ele>393.8</ele>
        <time>2021-05-29 09:03:00</time>
      </trkpt>
      <trkpt lat="43.05318" lon="-2.18932">
        <ele>394</ele>
        <time>2021-05-29 09:03:01</time>
      </trkpt>
      <trkpt lat="43.05327" lon="-2.18928">
        <ele>394</ele>
        <time>2021-05-29 09:03:02</time>
      </trkpt>
      <trkpt lat="43.05335" lon="-2.18923">
        <ele>393.8</ele>
        <time>2021-05-29 09:03:03</time>
      </trkpt>
      <trkpt lat="43.05343" lon="-2.18916">
        <ele>393.8</ele>
        <time>2021-05-29 09:03:04</time>
      </trkpt>
      <trkpt lat="43.05351" lon="-2.1891">
        <ele>394</ele>
        <time>2021-05-29 09:03:05</time>
      </trkpt>
      <trkpt lat="43.05358" lon="-2.18902">
        <ele>394</ele>
        <time>2021-05-29 09:03:06</time>
      </trkpt>
      <trkpt lat="43.05365" lon="-2.18895">
        <ele>394</ele>
        <time>2021-05-29 09:03:07</time>
      </trkpt>
      <trkpt lat="43.05372" lon="-2.18887">
        <ele>394</ele>
        <time>2021-05-29 09:03:08</time>
      </trkpt>
      <trkpt lat="43.05379" lon="-2.18879">
        <ele>394</ele>
        <time>2021-05-29 09:03:09</time>
      </trkpt>
      <trkpt lat="43.05387" lon="-2.18871">
        <ele>393.8</ele>
        <time>2021-05-29 09:03:10</time>
      </trkpt>
      <trkpt lat="43.05394" lon="-2.18864">
        <ele>393.8</ele>
        <time>2021-05-29 09:03:11</time>
      </trkpt>
      <trkpt lat="43.05401" lon="-2.18856">
        <ele>394</ele>
        <time>2021-05-29 09:03:12</time>
      </trkpt>
      <trkpt lat="43.05408" lon="-2.18848">
        <ele>393.8</ele>
        <time>2021-05-29 09:03:13</time>
      </trkpt>
      <trkpt lat="43.05415" lon="-2.1884">
        <ele>393.8</ele>
        <time>2021-05-29 09:03:14</time>
      </trkpt>
      <trkpt lat="43.05422" lon="-2.18832">
        <ele>394</ele>
        <time>2021-05-29 09:03:15</time>
      </trkpt>
      <trkpt lat="43.05429" lon="-2.18824">
        <ele>393.8</ele>
        <time>2021-05-29 09:03:16</time>
      </trkpt>
      <trkpt lat="43.05436" lon="-2.18817">
        <ele>393.8</ele>
        <time>2021-05-29 09:03:17</time>
      </trkpt>
      <trkpt lat="43.05442" lon="-2.1881">
        <ele>393.8</ele>
        <time>2021-05-29 09:03:18</time>
      </trkpt>
      <trkpt lat="43.05449" lon="-2.18802">
        <ele>393.8</ele>
        <time>2021-05-29 09:03:19</time>
      </trkpt>
      <trkpt lat="43.05455" lon="-2.18793">
        <ele>393.8</ele>
        <time>2021-05-29 09:03:20</time>
      </trkpt>
      <trkpt lat="43.0546" lon="-2.18783">
        <ele>393.8</ele>
        <time>2021-05-29 09:03:21</time>
      </trkpt>
      <trkpt lat="43.05465" lon="-2.18773">
        <ele>393.6</ele>
        <time>2021-05-29 09:03:22</time>
      </trkpt>
      <trkpt lat="43.05468" lon="-2.18762">
        <ele>393.6</ele>
        <time>2021-05-29 09:03:23</time>
      </trkpt>
      <trkpt lat="43.0547" lon="-2.1875">
        <ele>393.6</ele>
        <time>2021-05-29 09:03:24</time>
      </trkpt>
      <trkpt lat="43.05472" lon="-2.18738">
        <ele>393.6</ele>
        <time>2021-05-29 09:03:25</time>
      </trkpt>
      <trkpt lat="43.05473" lon="-2.18726">
        <ele>393.6</ele>
        <time>2021-05-29 09:03:26</time>
      </trkpt>
      <trkpt lat="43.05471" lon="-2.18714">
        <ele>393.4</ele>
        <time>2021-05-29 09:03:27</time>
      </trkpt>
      <trkpt lat="43.0547" lon="-2.18702">
        <ele>393.4</ele>
        <time>2021-05-29 09:03:28</time>
      </trkpt>
      <trkpt lat="43.05468" lon="-2.1869">
        <ele>393.2</ele>
        <time>2021-05-29 09:03:29</time>
      </trkpt>
      <trkpt lat="43.05465" lon="-2.18679">
        <ele>393.2</ele>
        <time>2021-05-29 09:03:30</time>
      </trkpt>
      <trkpt lat="43.05462" lon="-2.18667">
        <ele>393.2</ele>
        <time>2021-05-29 09:03:31</time>
      </trkpt>
      <trkpt lat="43.0546" lon="-2.18656">
        <ele>393</ele>
        <time>2021-05-29 09:03:32</time>
      </trkpt>
      <trkpt lat="43.05457" lon="-2.18645">
        <ele>393.2</ele>
        <time>2021-05-29 09:03:33</time>
      </trkpt>
      <trkpt lat="43.05454" lon="-2.18635">
        <ele>393</ele>
        <time>2021-05-29 09:03:34</time>
      </trkpt>
      <trkpt lat="43.05451" lon="-2.18625">
        <ele>393</ele>
        <time>2021-05-29 09:03:35</time>
      </trkpt>
      <trkpt lat="43.05448" lon="-2.18614">
        <ele>392.8</ele>
        <time>2021-05-29 09:03:36</time>
      </trkpt>
      <trkpt lat="43.05445" lon="-2.18604">
        <ele>392.8</ele>
        <time>2021-05-29 09:03:37</time>
      </trkpt>
      <trkpt lat="43.05442" lon="-2.18593">
        <ele>393</ele>
        <time>2021-05-29 09:03:38</time>
      </trkpt>
      <trkpt lat="43.05438" lon="-2.18582">
        <ele>393</ele>
        <time>2021-05-29 09:03:39</time>
      </trkpt>
      <trkpt lat="43.05435" lon="-2.18571">
        <ele>392.8</ele>
        <time>2021-05-29 09:03:40</time>
      </trkpt>
      <trkpt lat="43.05431" lon="-2.1856">
        <ele>392.8</ele>
        <time>2021-05-29 09:03:41</time>
      </trkpt>
      <trkpt lat="43.05428" lon="-2.18549">
        <ele>392.8</ele>
        <time>2021-05-29 09:03:42</time>
      </trkpt>
      <trkpt lat="43.05425" lon="-2.18539">
        <ele>392.8</ele>
        <time>2021-05-29 09:03:43</time>
      </trkpt>
      <trkpt lat="43.05421" lon="-2.18528">
        <ele>392.6</ele>
        <time>2021-05-29 09:03:44</time>
      </trkpt>
      <trkpt lat="43.05418" lon="-2.18517">
        <ele>392.6</ele>
        <time>2021-05-29 09:03:45</time>
      </trkpt>
      <trkpt lat="43.05414" lon="-2.18506">
        <ele>392.6</ele>
        <time>2021-05-29 09:03:46</time>
      </trkpt>
      <trkpt lat="43.05411" lon="-2.18496">
        <ele>392.6</ele>
        <time>2021-05-29 09:03:47</time>
      </trkpt>
      <trkpt lat="43.05409" lon="-2.18485">
        <ele>392.4</ele>
        <time>2021-05-29 09:03:48</time>
      </trkpt>
      <trkpt lat="43.05405" lon="-2.18475">
        <ele>392.6</ele>
        <time>2021-05-29 09:03:49</time>
      </trkpt>
      <trkpt lat="43.05401" lon="-2.18465">
        <ele>392.6</ele>
        <time>2021-05-29 09:03:50</time>
      </trkpt>
      <trkpt lat="43.05398" lon="-2.18455">
        <ele>392.4</ele>
        <time>2021-05-29 09:03:51</time>
      </trkpt>
      <trkpt lat="43.05393" lon="-2.18446">
        <ele>392.4</ele>
        <time>2021-05-29 09:03:52</time>
      </trkpt>
      <trkpt lat="43.05389" lon="-2.18437">
        <ele>392.2</ele>
        <time>2021-05-29 09:03:53</time>
      </trkpt>
      <trkpt lat="43.05383" lon="-2.18429">
        <ele>392.4</ele>
        <time>2021-05-29 09:03:54</time>
      </trkpt>
      <trkpt lat="43.05378" lon="-2.1842">
        <ele>392.2</ele>
        <time>2021-05-29 09:03:55</time>
      </trkpt>
      <trkpt lat="43.05373" lon="-2.18412">
        <ele>392.2</ele>
        <time>2021-05-29 09:03:56</time>
      </trkpt>
      <trkpt lat="43.05367" lon="-2.18404">
        <ele>392.2</ele>
        <time>2021-05-29 09:03:57</time>
      </trkpt>
      <trkpt lat="43.05362" lon="-2.18396">
        <ele>392.2</ele>
        <time>2021-05-29 09:03:58</time>
      </trkpt>
      <trkpt lat="43.05357" lon="-2.18388">
        <ele>392.2</ele>
        <time>2021-05-29 09:03:59</time>
      </trkpt>
      <trkpt lat="43.05351" lon="-2.1838">
        <ele>392</ele>
        <time>2021-05-29 09:04:00</time>
      </trkpt>
      <trkpt lat="43.05345" lon="-2.18372">
        <ele>391.8</ele>
        <time>2021-05-29 09:04:01</time>
      </trkpt>
      <trkpt lat="43.0534" lon="-2.18363">
        <ele>391.8</ele>
        <time>2021-05-29 09:04:02</time>
      </trkpt>
      <trkpt lat="43.05335" lon="-2.18354">
        <ele>391.8</ele>
        <time>2021-05-29 09:04:03</time>
      </trkpt>
      <trkpt lat="43.0533" lon="-2.18345">
        <ele>391.8</ele>
        <time>2021-05-29 09:04:04</time>
      </trkpt>
      <trkpt lat="43.05324" lon="-2.18336">
        <ele>391.6</ele>
        <time>2021-05-29 09:04:05</time>
      </trkpt>
      <trkpt lat="43.05319" lon="-2.18327">
        <ele>391.4</ele>
        <time>2021-05-29 09:04:06</time>
      </trkpt>
      <trkpt lat="43.05315" lon="-2.18318">
        <ele>391.4</ele>
        <time>2021-05-29 09:04:07</time>
      </trkpt>
      <trkpt lat="43.05311" lon="-2.18308">
        <ele>391.4</ele>
        <time>2021-05-29 09:04:08</time>
      </trkpt>
      <trkpt lat="43.05308" lon="-2.18297">
        <ele>391.4</ele>
        <time>2021-05-29 09:04:09</time>
      </trkpt>
      <trkpt lat="43.05305" lon="-2.18286">
        <ele>391.2</ele>
        <time>2021-05-29 09:04:10</time>
      </trkpt>
      <trkpt lat="43.05301" lon="-2.18276">
        <ele>391.2</ele>
        <time>2021-05-29 09:04:11</time>
      </trkpt>
      <trkpt lat="43.05297" lon="-2.18265">
        <ele>391.2</ele>
        <time>2021-05-29 09:04:12</time>
      </trkpt>
      <trkpt lat="43.05294" lon="-2.18255">
        <ele>391.2</ele>
        <time>2021-05-29 09:04:13</time>
      </trkpt>
      <trkpt lat="43.05291" lon="-2.18245">
        <ele>391</ele>
        <time>2021-05-29 09:04:14</time>
      </trkpt>
      <trkpt lat="43.05288" lon="-2.18235">
        <ele>391.2</ele>
        <time>2021-05-29 09:04:15</time>
      </trkpt>
      <trkpt lat="43.05286" lon="-2.18224">
        <ele>391.2</ele>
        <time>2021-05-29 09:04:16</time>
      </trkpt>
      <trkpt lat="43.05284" lon="-2.18213">
        <ele>391.2</ele>
        <time>2021-05-29 09:04:17</time>
      </trkpt>
      <trkpt lat="43.05282" lon="-2.18202">
        <ele>391</ele>
        <time>2021-05-29 09:04:18</time>
      </trkpt>
      <trkpt lat="43.05281" lon="-2.18191">
        <ele>391</ele>
        <time>2021-05-29 09:04:19</time>
      </trkpt>
      <trkpt lat="43.0528" lon="-2.18179">
        <ele>391</ele>
        <time>2021-05-29 09:04:20</time>
      </trkpt>
      <trkpt lat="43.0528" lon="-2.18167">
        <ele>391</ele>
        <time>2021-05-29 09:04:21</time>
      </trkpt>
      <trkpt lat="43.0528" lon="-2.18156">
        <ele>391</ele>
        <time>2021-05-29 09:04:22</time>
      </trkpt>
      <trkpt lat="43.0528" lon="-2.18144">
        <ele>390.8</ele>
        <time>2021-05-29 09:04:23</time>
      </trkpt>
      <trkpt lat="43.05279" lon="-2.18133">
        <ele>390.8</ele>
        <time>2021-05-29 09:04:24</time>
      </trkpt>
      <trkpt lat="43.0528" lon="-2.18121">
        <ele>390.8</ele>
        <time>2021-05-29 09:04:25</time>
      </trkpt>
      <trkpt lat="43.0528" lon="-2.1811">
        <ele>390.8</ele>
        <time>2021-05-29 09:04:26</time>
      </trkpt>
      <trkpt lat="43.0528" lon="-2.18099">
        <ele>390.6</ele>
        <time>2021-05-29 09:04:27</time>
      </trkpt>
      <trkpt lat="43.0528" lon="-2.18088">
        <ele>390.6</ele>
        <time>2021-05-29 09:04:28</time>
      </trkpt>
      <trkpt lat="43.05279" lon="-2.18077">
        <ele>390.6</ele>
        <time>2021-05-29 09:04:29</time>
      </trkpt>
      <trkpt lat="43.05279" lon="-2.18066">
        <ele>390.6</ele>
        <time>2021-05-29 09:04:30</time>
      </trkpt>
      <trkpt lat="43.05278" lon="-2.18054">
        <ele>390.4</ele>
        <time>2021-05-29 09:04:31</time>
      </trkpt>
      <trkpt lat="43.05278" lon="-2.18043">
        <ele>390.4</ele>
        <time>2021-05-29 09:04:32</time>
      </trkpt>
      <trkpt lat="43.05278" lon="-2.18032">
        <ele>390.2</ele>
        <time>2021-05-29 09:04:33</time>
      </trkpt>
      <trkpt lat="43.05277" lon="-2.1802">
        <ele>390.4</ele>
        <time>2021-05-29 09:04:34</time>
      </trkpt>
      <trkpt lat="43.05278" lon="-2.18009">
        <ele>390.4</ele>
        <time>2021-05-29 09:04:35</time>
      </trkpt>
      <trkpt lat="43.05278" lon="-2.17998">
        <ele>390.2</ele>
        <time>2021-05-29 09:04:36</time>
      </trkpt>
      <trkpt lat="43.05279" lon="-2.17986">
        <ele>390.2</ele>
        <time>2021-05-29 09:04:37</time>
      </trkpt>
      <trkpt lat="43.0528" lon="-2.17975">
        <ele>390.2</ele>
        <time>2021-05-29 09:04:38</time>
      </trkpt>
      <trkpt lat="43.05281" lon="-2.17963">
        <ele>390</ele>
        <time>2021-05-29 09:04:39</time>
      </trkpt>
      <trkpt lat="43.05283" lon="-2.17952">
        <ele>390</ele>
        <time>2021-05-29 09:04:40</time>
      </trkpt>
      <trkpt lat="43.05284" lon="-2.17941">
        <ele>390</ele>
        <time>2021-05-29 09:04:41</time>
      </trkpt>
      <trkpt lat="43.05285" lon="-2.17929">
        <ele>390</ele>
        <time>2021-05-29 09:04:42</time>
      </trkpt>
      <trkpt lat="43.05285" lon="-2.17918">
        <ele>390</ele>
        <time>2021-05-29 09:04:43</time>
      </trkpt>
      <trkpt lat="43.05286" lon="-2.17906">
        <ele>390</ele>
        <time>2021-05-29 09:04:44</time>
      </trkpt>
      <trkpt lat="43.05286" lon="-2.17894">
        <ele>390</ele>
        <time>2021-05-29 09:04:45</time>
      </trkpt>
      <trkpt lat="43.05287" lon="-2.17882">
        <ele>389.8</ele>
        <time>2021-05-29 09:04:46</time>
      </trkpt>
      <trkpt lat="43.05288" lon="-2.17871">
        <ele>390</ele>
        <time>2021-05-29 09:04:47</time>
      </trkpt>
      <trkpt lat="43.05288" lon="-2.17859">
        <ele>389.8</ele>
        <time>2021-05-29 09:04:48</time>
      </trkpt>
      <trkpt lat="43.05288" lon="-2.17848">
        <ele>389.8</ele>
        <time>2021-05-29 09:04:49</time>
      </trkpt>
      <trkpt lat="43.05289" lon="-2.17836">
        <ele>389.8</ele>
        <time>2021-05-29 09:04:50</time>
      </trkpt>
      <trkpt lat="43.0529" lon="-2.17824">
        <ele>389.8</ele>
        <time>2021-05-29 09:04:51</time>
      </trkpt>
      <trkpt lat="43.0529" lon="-2.17813">
        <ele>389.8</ele>
        <time>2021-05-29 09:04:52</time>
      </trkpt>
      <trkpt lat="43.05291" lon="-2.17801">
        <ele>389.6</ele>
        <time>2021-05-29 09:04:53</time>
      </trkpt>
      <trkpt lat="43.05292" lon="-2.17789">
        <ele>389.6</ele>
        <time>2021-05-29 09:04:54</time>
      </trkpt>
      <trkpt lat="43.05293" lon="-2.17777">
        <ele>389.4</ele>
        <time>2021-05-29 09:04:55</time>
      </trkpt>
      <trkpt lat="43.05294" lon="-2.17764">
        <ele>389.4</ele>
        <time>2021-05-29 09:04:56</time>
      </trkpt>
      <trkpt lat="43.05294" lon="-2.17752">
        <ele>389.2</ele>
        <time>2021-05-29 09:04:57</time>
      </trkpt>
      <trkpt lat="43.05295" lon="-2.1774">
        <ele>389.2</ele>
        <time>2021-05-29 09:04:58</time>
      </trkpt>
      <trkpt lat="43.05296" lon="-2.17727">
        <ele>389</ele>
        <time>2021-05-29 09:04:59</time>
      </trkpt>
      <trkpt lat="43.05296" lon="-2.17714">
        <ele>389</ele>
        <time>2021-05-29 09:05:00</time>
      </trkpt>
      <trkpt lat="43.05297" lon="-2.17702">
        <ele>388.8</ele>
        <time>2021-05-29 09:05:01</time>
      </trkpt>
      <trkpt lat="43.05299" lon="-2.17689">
        <ele>388.8</ele>
        <time>2021-05-29 09:05:02</time>
      </trkpt>
      <trkpt lat="43.05301" lon="-2.17677">
        <ele>388.8</ele>
        <time>2021-05-29 09:05:03</time>
      </trkpt>
      <trkpt lat="43.05302" lon="-2.17664">
        <ele>388.8</ele>
        <time>2021-05-29 09:05:04</time>
      </trkpt>
      <trkpt lat="43.05303" lon="-2.17652">
        <ele>388.6</ele>
        <time>2021-05-29 09:05:05</time>
      </trkpt>
      <trkpt lat="43.05304" lon="-2.1764">
        <ele>388.8</ele>
        <time>2021-05-29 09:05:06</time>
      </trkpt>
      <trkpt lat="43.05306" lon="-2.17629">
        <ele>388.6</ele>
        <time>2021-05-29 09:05:07</time>
      </trkpt>
      <trkpt lat="43.05309" lon="-2.17618">
        <ele>388.6</ele>
        <time>2021-05-29 09:05:08</time>
      </trkpt>
      <trkpt lat="43.05313" lon="-2.1761">
        <ele>388.6</ele>
        <time>2021-05-29 09:05:09</time>
      </trkpt>
      <trkpt lat="43.05317" lon="-2.17604">
        <ele>388.6</ele>
        <time>2021-05-29 09:05:10</time>
      </trkpt>
      <trkpt lat="43.05321" lon="-2.17599">
        <ele>388.6</ele>
        <time>2021-05-29 09:05:11</time>
      </trkpt>
      <trkpt lat="43.05325" lon="-2.17596">
        <ele>388.6</ele>
        <time>2021-05-29 09:05:12</time>
      </trkpt>
      <trkpt lat="43.05331" lon="-2.17592">
        <ele>388.6</ele>
        <time>2021-05-29 09:05:13</time>
      </trkpt>
      <trkpt lat="43.05337" lon="-2.17586">
        <ele>388.4</ele>
        <time>2021-05-29 09:05:14</time>
      </trkpt>
      <trkpt lat="43.0534" lon="-2.17578">
        <ele>388.6</ele>
        <time>2021-05-29 09:05:15</time>
      </trkpt>
      <trkpt lat="43.0534" lon="-2.1757">
        <ele>388.6</ele>
        <time>2021-05-29 09:05:16</time>
      </trkpt>
      <trkpt lat="43.0534" lon="-2.17562">
        <ele>388.8</ele>
        <time>2021-05-29 09:05:17</time>
      </trkpt>
      <trkpt lat="43.05341" lon="-2.17555">
        <ele>388.8</ele>
        <time>2021-05-29 09:05:18</time>
      </trkpt>
      <trkpt lat="43.05342" lon="-2.17548">
        <ele>388.8</ele>
        <time>2021-05-29 09:05:19</time>
      </trkpt>
      <trkpt lat="43.05344" lon="-2.17541">
        <ele>388.6</ele>
        <time>2021-05-29 09:05:20</time>
      </trkpt>
      <trkpt lat="43.05348" lon="-2.17537">
        <ele>388.8</ele>
        <time>2021-05-29 09:05:21</time>
      </trkpt>
      <trkpt lat="43.05353" lon="-2.17534">
        <ele>388.8</ele>
        <time>2021-05-29 09:05:22</time>
      </trkpt>
      <trkpt lat="43.05358" lon="-2.17532">
        <ele>388.8</ele>
        <time>2021-05-29 09:05:23</time>
      </trkpt>
      <trkpt lat="43.05363" lon="-2.17531">
        <ele>388.8</ele>
        <time>2021-05-29 09:05:24</time>
      </trkpt>
      <trkpt lat="43.0537" lon="-2.1753">
        <ele>388.8</ele>
        <time>2021-05-29 09:05:25</time>
      </trkpt>
      <trkpt lat="43.05376" lon="-2.17529">
        <ele>388.8</ele>
        <time>2021-05-29 09:05:26</time>
      </trkpt>
      <trkpt lat="43.05383" lon="-2.17528">
        <ele>388.8</ele>
        <time>2021-05-29 09:05:27</time>
      </trkpt>
      <trkpt lat="43.0539" lon="-2.17527">
        <ele>388.8</ele>
        <time>2021-05-29 09:05:28</time>
      </trkpt>
      <trkpt lat="43.05397" lon="-2.17526">
        <ele>388.8</ele>
        <time>2021-05-29 09:05:29</time>
      </trkpt>
      <trkpt lat="43.05404" lon="-2.17526">
        <ele>389</ele>
        <time>2021-05-29 09:05:30</time>
      </trkpt>
      <trkpt lat="43.0541" lon="-2.17526">
        <ele>388.8</ele>
        <time>2021-05-29 09:05:31</time>
      </trkpt>
      <trkpt lat="43.05417" lon="-2.17526">
        <ele>388.8</ele>
        <time>2021-05-29 09:05:32</time>
      </trkpt>
      <trkpt lat="43.05423" lon="-2.17525">
        <ele>388.8</ele>
        <time>2021-05-29 09:05:33</time>
      </trkpt>
      <trkpt lat="43.05431" lon="-2.17525">
        <ele>388.6</ele>
        <time>2021-05-29 09:05:34</time>
      </trkpt>
      <trkpt lat="43.05439" lon="-2.17524">
        <ele>388.6</ele>
        <time>2021-05-29 09:05:35</time>
      </trkpt>
      <trkpt lat="43.05447" lon="-2.17524">
        <ele>388.6</ele>
        <time>2021-05-29 09:05:36</time>
      </trkpt>
      <trkpt lat="43.05456" lon="-2.17524">
        <ele>388.6</ele>
        <time>2021-05-29 09:05:37</time>
      </trkpt>
      <trkpt lat="43.05464" lon="-2.17524">
        <ele>388.8</ele>
        <time>2021-05-29 09:05:38</time>
      </trkpt>
      <trkpt lat="43.05472" lon="-2.17523">
        <ele>388.6</ele>
        <time>2021-05-29 09:05:39</time>
      </trkpt>
      <trkpt lat="43.0548" lon="-2.17523">
        <ele>388.6</ele>
        <time>2021-05-29 09:05:40</time>
      </trkpt>
      <trkpt lat="43.05487" lon="-2.17523">
        <ele>388.4</ele>
        <time>2021-05-29 09:05:41</time>
      </trkpt>
      <trkpt lat="43.05495" lon="-2.17523">
        <ele>388.4</ele>
        <time>2021-05-29 09:05:42</time>
      </trkpt>
      <trkpt lat="43.05502" lon="-2.17523">
        <ele>388.4</ele>
        <time>2021-05-29 09:05:43</time>
      </trkpt>
      <trkpt lat="43.0551" lon="-2.17521">
        <ele>388.2</ele>
        <time>2021-05-29 09:05:44</time>
      </trkpt>
      <trkpt lat="43.05518" lon="-2.17519">
        <ele>388.4</ele>
        <time>2021-05-29 09:05:45</time>
      </trkpt>
      <trkpt lat="43.05526" lon="-2.17516">
        <ele>388.4</ele>
        <time>2021-05-29 09:05:46</time>
      </trkpt>
      <trkpt lat="43.05534" lon="-2.17513">
        <ele>388.2</ele>
        <time>2021-05-29 09:05:47</time>
      </trkpt>
      <trkpt lat="43.05541" lon="-2.1751">
        <ele>388.2</ele>
        <time>2021-05-29 09:05:48</time>
      </trkpt>
      <trkpt lat="43.05548" lon="-2.17506">
        <ele>388</ele>
        <time>2021-05-29 09:05:49</time>
      </trkpt>
      <trkpt lat="43.05556" lon="-2.17501">
        <ele>388</ele>
        <time>2021-05-29 09:05:50</time>
      </trkpt>
      <trkpt lat="43.05564" lon="-2.17496">
        <ele>388</ele>
        <time>2021-05-29 09:05:51</time>
      </trkpt>
      <trkpt lat="43.05571" lon="-2.17491">
        <ele>387.8</ele>
        <time>2021-05-29 09:05:52</time>
      </trkpt>
      <trkpt lat="43.05578" lon="-2.17485">
        <ele>387.8</ele>
        <time>2021-05-29 09:05:53</time>
      </trkpt>
      <trkpt lat="43.05587" lon="-2.17479">
        <ele>388</ele>
        <time>2021-05-29 09:05:54</time>
      </trkpt>
      <trkpt lat="43.05595" lon="-2.17473">
        <ele>387.8</ele>
        <time>2021-05-29 09:05:55</time>
      </trkpt>
      <trkpt lat="43.05604" lon="-2.17467">
        <ele>387.8</ele>
        <time>2021-05-29 09:05:56</time>
      </trkpt>
      <trkpt lat="43.05613" lon="-2.17461">
        <ele>387.8</ele>
        <time>2021-05-29 09:05:57</time>
      </trkpt>
      <trkpt lat="43.05621" lon="-2.17455">
        <ele>387.8</ele>
        <time>2021-05-29 09:05:58</time>
      </trkpt>
      <trkpt lat="43.0563" lon="-2.17448">
        <ele>387.8</ele>
        <time>2021-05-29 09:05:59</time>
      </trkpt>
      <trkpt lat="43.05638" lon="-2.1744">
        <ele>387.8</ele>
        <time>2021-05-29 09:06:00</time>
      </trkpt>
      <trkpt lat="43.05645" lon="-2.17432">
        <ele>387.6</ele>
        <time>2021-05-29 09:06:01</time>
      </trkpt>
      <trkpt lat="43.05653" lon="-2.17424">
        <ele>387.6</ele>
        <time>2021-05-29 09:06:02</time>
      </trkpt>
      <trkpt lat="43.05661" lon="-2.17416">
        <ele>387.6</ele>
        <time>2021-05-29 09:06:03</time>
      </trkpt>
      <trkpt lat="43.05668" lon="-2.17409">
        <ele>387.6</ele>
        <time>2021-05-29 09:06:04</time>
      </trkpt>
      <trkpt lat="43.05676" lon="-2.17403">
        <ele>387.4</ele>
        <time>2021-05-29 09:06:05</time>
      </trkpt>
      <trkpt lat="43.05685" lon="-2.17397">
        <ele>387.2</ele>
        <time>2021-05-29 09:06:06</time>
      </trkpt>
      <trkpt lat="43.05693" lon="-2.17391">
        <ele>387.2</ele>
        <time>2021-05-29 09:06:07</time>
      </trkpt>
      <trkpt lat="43.05701" lon="-2.17385">
        <ele>387.2</ele>
        <time>2021-05-29 09:06:08</time>
      </trkpt>
      <trkpt lat="43.05709" lon="-2.17379">
        <ele>387.2</ele>
        <time>2021-05-29 09:06:09</time>
      </trkpt>
      <trkpt lat="43.05717" lon="-2.17374">
        <ele>387.2</ele>
        <time>2021-05-29 09:06:10</time>
      </trkpt>
      <trkpt lat="43.05724" lon="-2.1737">
        <ele>387.2</ele>
        <time>2021-05-29 09:06:11</time>
      </trkpt>
      <trkpt lat="43.05732" lon="-2.17367">
        <ele>387</ele>
        <time>2021-05-29 09:06:12</time>
      </trkpt>
      <trkpt lat="43.0574" lon="-2.17362">
        <ele>387</ele>
        <time>2021-05-29 09:06:13</time>
      </trkpt>
      <trkpt lat="43.05748" lon="-2.17356">
        <ele>387.2</ele>
        <time>2021-05-29 09:06:14</time>
      </trkpt>
      <trkpt lat="43.05754" lon="-2.17349">
        <ele>387</ele>
        <time>2021-05-29 09:06:15</time>
      </trkpt>
      <trkpt lat="43.0576" lon="-2.17339">
        <ele>387</ele>
        <time>2021-05-29 09:06:16</time>
      </trkpt>
      <trkpt lat="43.05766" lon="-2.17332">
        <ele>387</ele>
        <time>2021-05-29 09:06:17</time>
      </trkpt>
      <trkpt lat="43.05772" lon="-2.17324">
        <ele>387</ele>
        <time>2021-05-29 09:06:18</time>
      </trkpt>
      <trkpt lat="43.05777" lon="-2.17317">
        <ele>387</ele>
        <time>2021-05-29 09:06:19</time>
      </trkpt>
      <trkpt lat="43.05782" lon="-2.1731">
        <ele>387</ele>
        <time>2021-05-29 09:06:20</time>
      </trkpt>
      <trkpt lat="43.05788" lon="-2.17303">
        <ele>386.8</ele>
        <time>2021-05-29 09:06:21</time>
      </trkpt>
      <trkpt lat="43.05793" lon="-2.17298">
        <ele>386.8</ele>
        <time>2021-05-29 09:06:22</time>
      </trkpt>
      <trkpt lat="43.05799" lon="-2.17292">
        <ele>386.8</ele>
        <time>2021-05-29 09:06:23</time>
      </trkpt>
      <trkpt lat="43.05804" lon="-2.17286">
        <ele>386.8</ele>
        <time>2021-05-29 09:06:24</time>
      </trkpt>
      <trkpt lat="43.05809" lon="-2.1728">
        <ele>386.8</ele>
        <time>2021-05-29 09:06:25</time>
      </trkpt>
      <trkpt lat="43.05813" lon="-2.17274">
        <ele>386.8</ele>
        <time>2021-05-29 09:06:26</time>
      </trkpt>
      <trkpt lat="43.05818" lon="-2.17267">
        <ele>386.8</ele>
        <time>2021-05-29 09:06:27</time>
      </trkpt>
      <trkpt lat="43.05824" lon="-2.17262">
        <ele>386.8</ele>
        <time>2021-05-29 09:06:28</time>
      </trkpt>
      <trkpt lat="43.05829" lon="-2.17256">
        <ele>386.8</ele>
        <time>2021-05-29 09:06:29</time>
      </trkpt>
      <trkpt lat="43.05836" lon="-2.17251">
        <ele>386.8</ele>
        <time>2021-05-29 09:06:30</time>
      </trkpt>
      <trkpt lat="43.05842" lon="-2.17246">
        <ele>386.8</ele>
        <time>2021-05-29 09:06:31</time>
      </trkpt>
      <trkpt lat="43.05848" lon="-2.17242">
        <ele>386.8</ele>
        <time>2021-05-29 09:06:32</time>
      </trkpt>
      <trkpt lat="43.05856" lon="-2.17238">
        <ele>386.8</ele>
        <time>2021-05-29 09:06:33</time>
      </trkpt>
      <trkpt lat="43.05864" lon="-2.17236">
        <ele>386.8</ele>
        <time>2021-05-29 09:06:34</time>
      </trkpt>
      <trkpt lat="43.05872" lon="-2.17236">
        <ele>386.6</ele>
        <time>2021-05-29 09:06:35</time>
      </trkpt>
      <trkpt lat="43.05881" lon="-2.17237">
        <ele>386.6</ele>
        <time>2021-05-29 09:06:36</time>
      </trkpt>
      <trkpt lat="43.0589" lon="-2.17239">
        <ele>386.6</ele>
        <time>2021-05-29 09:06:37</time>
      </trkpt>
      <trkpt lat="43.05899" lon="-2.17242">
        <ele>386.6</ele>
        <time>2021-05-29 09:06:38</time>
      </trkpt>
      <trkpt lat="43.05907" lon="-2.17243">
        <ele>386.6</ele>
        <time>2021-05-29 09:06:39</time>
      </trkpt>
      <trkpt lat="43.05914" lon="-2.17242">
        <ele>386.6</ele>
        <time>2021-05-29 09:06:40</time>
      </trkpt>
      <trkpt lat="43.05919" lon="-2.17237">
        <ele>386.6</ele>
        <time>2021-05-29 09:06:41</time>
      </trkpt>
      <trkpt lat="43.05923" lon="-2.17229">
        <ele>386.4</ele>
        <time>2021-05-29 09:06:42</time>
      </trkpt>
      <trkpt lat="43.05926" lon="-2.17219">
        <ele>386.2</ele>
        <time>2021-05-29 09:06:43</time>
      </trkpt>
      <trkpt lat="43.0593" lon="-2.17209">
        <ele>386</ele>
        <time>2021-05-29 09:06:44</time>
      </trkpt>
      <trkpt lat="43.05934" lon="-2.17201">
        <ele>386.2</ele>
        <time>2021-05-29 09:06:45</time>
      </trkpt>
      <trkpt lat="43.05939" lon="-2.17195">
        <ele>386</ele>
        <time>2021-05-29 09:06:46</time>
      </trkpt>
      <trkpt lat="43.05946" lon="-2.17193">
        <ele>386</ele>
        <time>2021-05-29 09:06:47</time>
      </trkpt>
      <trkpt lat="43.05953" lon="-2.17195">
        <ele>386</ele>
        <time>2021-05-29 09:06:48</time>
      </trkpt>
      <trkpt lat="43.05957" lon="-2.17201">
        <ele>385.8</ele>
        <time>2021-05-29 09:06:49</time>
      </trkpt>
      <trkpt lat="43.05958" lon="-2.17208">
        <ele>385.8</ele>
        <time>2021-05-29 09:06:50</time>
      </trkpt>
      <trkpt lat="43.05959" lon="-2.17216">
        <ele>385.8</ele>
        <time>2021-05-29 09:06:51</time>
      </trkpt>
      <trkpt lat="43.0596" lon="-2.17223">
        <ele>385.8</ele>
        <time>2021-05-29 09:06:52</time>
      </trkpt>
      <trkpt lat="43.0596" lon="-2.17231">
        <ele>385.4</ele>
        <time>2021-05-29 09:06:53</time>
      </trkpt>
      <trkpt lat="43.0596" lon="-2.17238">
        <ele>385.6</ele>
        <time>2021-05-29 09:06:54</time>
      </trkpt>
      <trkpt lat="43.05961" lon="-2.17245">
        <ele>385.4</ele>
        <time>2021-05-29 09:06:55</time>
      </trkpt>
      <trkpt lat="43.05963" lon="-2.1725">
        <ele>385.4</ele>
        <time>2021-05-29 09:06:56</time>
      </trkpt>
      <trkpt lat="43.05966" lon="-2.17254">
        <ele>385.6</ele>
        <time>2021-05-29 09:06:57</time>
      </trkpt>
      <trkpt lat="43.0597" lon="-2.17256">
        <ele>385.4</ele>
        <time>2021-05-29 09:06:58</time>
      </trkpt>
      <trkpt lat="43.05974" lon="-2.17258">
        <ele>385.4</ele>
        <time>2021-05-29 09:06:59</time>
      </trkpt>
      <trkpt lat="43.05979" lon="-2.17259">
        <ele>385.4</ele>
        <time>2021-05-29 09:07:00</time>
      </trkpt>
      <trkpt lat="43.05985" lon="-2.17261">
        <ele>385.2</ele>
        <time>2021-05-29 09:07:01</time>
      </trkpt>
      <trkpt lat="43.05992" lon="-2.17263">
        <ele>385.2</ele>
        <time>2021-05-29 09:07:02</time>
      </trkpt>
      <trkpt lat="43.05998" lon="-2.17264">
        <ele>385.2</ele>
        <time>2021-05-29 09:07:03</time>
      </trkpt>
      <trkpt lat="43.06004" lon="-2.17266">
        <ele>385.2</ele>
        <time>2021-05-29 09:07:04</time>
      </trkpt>
      <trkpt lat="43.06012" lon="-2.17269">
        <ele>385.4</ele>
        <time>2021-05-29 09:07:05</time>
      </trkpt>
      <trkpt lat="43.06019" lon="-2.17271">
        <ele>385.2</ele>
        <time>2021-05-29 09:07:06</time>
      </trkpt>
      <trkpt lat="43.06026" lon="-2.17273">
        <ele>385.2</ele>
        <time>2021-05-29 09:07:07</time>
      </trkpt>
      <trkpt lat="43.06033" lon="-2.17274">
        <ele>385.4</ele>
        <time>2021-05-29 09:07:08</time>
      </trkpt>
      <trkpt lat="43.06041" lon="-2.17276">
        <ele>385.2</ele>
        <time>2021-05-29 09:07:09</time>
      </trkpt>
      <trkpt lat="43.06049" lon="-2.17277">
        <ele>385.4</ele>
        <time>2021-05-29 09:07:10</time>
      </trkpt>
      <trkpt lat="43.06058" lon="-2.17279">
        <ele>385.2</ele>
        <time>2021-05-29 09:07:11</time>
      </trkpt>
      <trkpt lat="43.06067" lon="-2.17281">
        <ele>385</ele>
        <time>2021-05-29 09:07:12</time>
      </trkpt>
      <trkpt lat="43.06074" lon="-2.17283">
        <ele>385</ele>
        <time>2021-05-29 09:07:13</time>
      </trkpt>
      <trkpt lat="43.06082" lon="-2.17284">
        <ele>385</ele>
        <time>2021-05-29 09:07:14</time>
      </trkpt>
      <trkpt lat="43.0609" lon="-2.17285">
        <ele>385</ele>
        <time>2021-05-29 09:07:15</time>
      </trkpt>
      <trkpt lat="43.06097" lon="-2.17288">
        <ele>385</ele>
        <time>2021-05-29 09:07:16</time>
      </trkpt>
      <trkpt lat="43.06105" lon="-2.17292">
        <ele>385</ele>
        <time>2021-05-29 09:07:17</time>
      </trkpt>
      <trkpt lat="43.06112" lon="-2.17296">
        <ele>384.8</ele>
        <time>2021-05-29 09:07:18</time>
      </trkpt>
      <trkpt lat="43.06119" lon="-2.17299">
        <ele>384.8</ele>
        <time>2021-05-29 09:07:19</time>
      </trkpt>
      <trkpt lat="43.06128" lon="-2.17302">
        <ele>384.8</ele>
        <time>2021-05-29 09:07:20</time>
      </trkpt>
      <trkpt lat="43.06137" lon="-2.17306">
        <ele>384.8</ele>
        <time>2021-05-29 09:07:21</time>
      </trkpt>
      <trkpt lat="43.06146" lon="-2.17308">
        <ele>384.8</ele>
        <time>2021-05-29 09:07:22</time>
      </trkpt>
      <trkpt lat="43.06156" lon="-2.17311">
        <ele>384.8</ele>
        <time>2021-05-29 09:07:23</time>
      </trkpt>
      <trkpt lat="43.06165" lon="-2.17313">
        <ele>384.6</ele>
        <time>2021-05-29 09:07:24</time>
      </trkpt>
      <trkpt lat="43.06174" lon="-2.17315">
        <ele>384.6</ele>
        <time>2021-05-29 09:07:25</time>
      </trkpt>
      <trkpt lat="43.06183" lon="-2.17317">
        <ele>384.6</ele>
        <time>2021-05-29 09:07:26</time>
      </trkpt>
      <trkpt lat="43.06192" lon="-2.1732">
        <ele>384.8</ele>
        <time>2021-05-29 09:07:27</time>
      </trkpt>
      <trkpt lat="43.06203" lon="-2.17322">
        <ele>384.6</ele>
        <time>2021-05-29 09:07:28</time>
      </trkpt>
      <trkpt lat="43.06214" lon="-2.17325">
        <ele>384.6</ele>
        <time>2021-05-29 09:07:29</time>
      </trkpt>
      <trkpt lat="43.06224" lon="-2.17327">
        <ele>384.6</ele>
        <time>2021-05-29 09:07:30</time>
      </trkpt>
      <trkpt lat="43.06234" lon="-2.17331">
        <ele>384.6</ele>
        <time>2021-05-29 09:07:31</time>
      </trkpt>
      <trkpt lat="43.06245" lon="-2.17334">
        <ele>384.6</ele>
        <time>2021-05-29 09:07:32</time>
      </trkpt>
      <trkpt lat="43.06254" lon="-2.17337">
        <ele>384.6</ele>
        <time>2021-05-29 09:07:33</time>
      </trkpt>
      <trkpt lat="43.06264" lon="-2.17341">
        <ele>384.6</ele>
        <time>2021-05-29 09:07:34</time>
      </trkpt>
      <trkpt lat="43.06273" lon="-2.17344">
        <ele>384.6</ele>
        <time>2021-05-29 09:07:35</time>
      </trkpt>
      <trkpt lat="43.06283" lon="-2.17347">
        <ele>384.4</ele>
        <time>2021-05-29 09:07:36</time>
      </trkpt>
      <trkpt lat="43.06292" lon="-2.17348">
        <ele>384.4</ele>
        <time>2021-05-29 09:07:37</time>
      </trkpt>
      <trkpt lat="43.06302" lon="-2.17349">
        <ele>384.4</ele>
        <time>2021-05-29 09:07:38</time>
      </trkpt>
      <trkpt lat="43.06311" lon="-2.17349">
        <ele>384.4</ele>
        <time>2021-05-29 09:07:39</time>
      </trkpt>
      <trkpt lat="43.0632" lon="-2.17348">
        <ele>384.2</ele>
        <time>2021-05-29 09:07:40</time>
      </trkpt>
      <trkpt lat="43.0633" lon="-2.17344">
        <ele>384.4</ele>
        <time>2021-05-29 09:07:41</time>
      </trkpt>
      <trkpt lat="43.06339" lon="-2.17339">
        <ele>384.2</ele>
        <time>2021-05-29 09:07:42</time>
      </trkpt>
      <trkpt lat="43.06348" lon="-2.17331">
        <ele>384.4</ele>
        <time>2021-05-29 09:07:43</time>
      </trkpt>
      <trkpt lat="43.06356" lon="-2.17322">
        <ele>384.4</ele>
        <time>2021-05-29 09:07:44</time>
      </trkpt>
      <trkpt lat="43.06364" lon="-2.17311">
        <ele>384.2</ele>
        <time>2021-05-29 09:07:45</time>
      </trkpt>
      <trkpt lat="43.06371" lon="-2.173">
        <ele>384.2</ele>
        <time>2021-05-29 09:07:46</time>
      </trkpt>
      <trkpt lat="43.06377" lon="-2.17289">
        <ele>384.2</ele>
        <time>2021-05-29 09:07:47</time>
      </trkpt>
      <trkpt lat="43.06383" lon="-2.17276">
        <ele>384</ele>
        <time>2021-05-29 09:07:48</time>
      </trkpt>
      <trkpt lat="43.06389" lon="-2.17263">
        <ele>384</ele>
        <time>2021-05-29 09:07:49</time>
      </trkpt>
      <trkpt lat="43.06395" lon="-2.1725">
        <ele>383.8</ele>
        <time>2021-05-29 09:07:50</time>
      </trkpt>
      <trkpt lat="43.06402" lon="-2.17237">
        <ele>384</ele>
        <time>2021-05-29 09:07:51</time>
      </trkpt>
      <trkpt lat="43.06408" lon="-2.17222">
        <ele>384</ele>
        <time>2021-05-29 09:07:52</time>
      </trkpt>
      <trkpt lat="43.06412" lon="-2.17207">
        <ele>384</ele>
        <time>2021-05-29 09:07:53</time>
      </trkpt>
      <trkpt lat="43.06416" lon="-2.17192">
        <ele>383.8</ele>
        <time>2021-05-29 09:07:54</time>
      </trkpt>
      <trkpt lat="43.06419" lon="-2.17177">
        <ele>383.8</ele>
        <time>2021-05-29 09:07:55</time>
      </trkpt>
      <trkpt lat="43.06422" lon="-2.17162">
        <ele>383.8</ele>
        <time>2021-05-29 09:07:56</time>
      </trkpt>
      <trkpt lat="43.06424" lon="-2.17147">
        <ele>383.6</ele>
        <time>2021-05-29 09:07:57</time>
      </trkpt>
      <trkpt lat="43.06426" lon="-2.17133">
        <ele>383.4</ele>
        <time>2021-05-29 09:07:58</time>
      </trkpt>
      <trkpt lat="43.06427" lon="-2.17119">
        <ele>383.4</ele>
        <time>2021-05-29 09:07:59</time>
      </trkpt>
      <trkpt lat="43.06428" lon="-2.17105">
        <ele>383.4</ele>
        <time>2021-05-29 09:08:00</time>
      </trkpt>
      <trkpt lat="43.0643" lon="-2.17092">
        <ele>383.4</ele>
        <time>2021-05-29 09:08:01</time>
      </trkpt>
      <trkpt lat="43.06431" lon="-2.17079">
        <ele>383.2</ele>
        <time>2021-05-29 09:08:02</time>
      </trkpt>
      <trkpt lat="43.06433" lon="-2.17066">
        <ele>383.4</ele>
        <time>2021-05-29 09:08:03</time>
      </trkpt>
      <trkpt lat="43.06434" lon="-2.17054">
        <ele>383.4</ele>
        <time>2021-05-29 09:08:04</time>
      </trkpt>
      <trkpt lat="43.06436" lon="-2.17042">
        <ele>383.2</ele>
        <time>2021-05-29 09:08:05</time>
      </trkpt>
      <trkpt lat="43.06437" lon="-2.1703">
        <ele>383.2</ele>
        <time>2021-05-29 09:08:06</time>
      </trkpt>
      <trkpt lat="43.06439" lon="-2.17018">
        <ele>383</ele>
        <time>2021-05-29 09:08:07</time>
      </trkpt>
      <trkpt lat="43.0644" lon="-2.17007">
        <ele>383</ele>
        <time>2021-05-29 09:08:08</time>
      </trkpt>
      <trkpt lat="43.06441" lon="-2.16996">
        <ele>383</ele>
        <time>2021-05-29 09:08:09</time>
      </trkpt>
      <trkpt lat="43.06442" lon="-2.16986">
        <ele>383</ele>
        <time>2021-05-29 09:08:10</time>
      </trkpt>
      <trkpt lat="43.06443" lon="-2.16978">
        <ele>383</ele>
        <time>2021-05-29 09:08:11</time>
      </trkpt>
      <trkpt lat="43.06444" lon="-2.1697">
        <ele>382.8</ele>
        <time>2021-05-29 09:08:12</time>
      </trkpt>
      <trkpt lat="43.06444" lon="-2.16965">
        <ele>382.8</ele>
        <time>2021-05-29 09:08:13</time>
      </trkpt>
      <trkpt lat="43.06444" lon="-2.1696">
        <ele>383</ele>
        <time>2021-05-29 09:08:14</time>
      </trkpt>
      <trkpt lat="43.06444" lon="-2.16956">
        <ele>383</ele>
        <time>2021-05-29 09:08:15</time>
      </trkpt>
      <trkpt lat="43.06444" lon="-2.16951">
        <ele>382.8</ele>
        <time>2021-05-29 09:08:16</time>
      </trkpt>
      <trkpt lat="43.06444" lon="-2.16945">
        <ele>382.8</ele>
        <time>2021-05-29 09:08:17</time>
      </trkpt>
      <trkpt lat="43.06444" lon="-2.16937">
        <ele>382.8</ele>
        <time>2021-05-29 09:08:18</time>
      </trkpt>
      <trkpt lat="43.06446" lon="-2.16929">
        <ele>382.8</ele>
        <time>2021-05-29 09:08:19</time>
      </trkpt>
      <trkpt lat="43.06449" lon="-2.16921">
        <ele>382.8</ele>
        <time>2021-05-29 09:08:20</time>
      </trkpt>
      <trkpt lat="43.06453" lon="-2.16912">
        <ele>382.6</ele>
        <time>2021-05-29 09:08:21</time>
      </trkpt>
      <trkpt lat="43.06457" lon="-2.16902">
        <ele>382.6</ele>
        <time>2021-05-29 09:08:22</time>
      </trkpt>
      <trkpt lat="43.06462" lon="-2.16891">
        <ele>382.6</ele>
        <time>2021-05-29 09:08:23</time>
      </trkpt>
      <trkpt lat="43.06466" lon="-2.1688">
        <ele>382.6</ele>
        <time>2021-05-29 09:08:24</time>
      </trkpt>
      <trkpt lat="43.0647" lon="-2.16869">
        <ele>382.4</ele>
        <time>2021-05-29 09:08:25</time>
      </trkpt>
      <trkpt lat="43.06474" lon="-2.16857">
        <ele>382.4</ele>
        <time>2021-05-29 09:08:26</time>
      </trkpt>
      <trkpt lat="43.06479" lon="-2.16846">
        <ele>382.4</ele>
        <time>2021-05-29 09:08:27</time>
      </trkpt>
      <trkpt lat="43.06484" lon="-2.16834">
        <ele>382.4</ele>
        <time>2021-05-29 09:08:28</time>
      </trkpt>
      <trkpt lat="43.06488" lon="-2.16821">
        <ele>382.4</ele>
        <time>2021-05-29 09:08:29</time>
      </trkpt>
      <trkpt lat="43.06493" lon="-2.16809">
        <ele>382.4</ele>
        <time>2021-05-29 09:08:30</time>
      </trkpt>
      <trkpt lat="43.06498" lon="-2.16797">
        <ele>382.4</ele>
        <time>2021-05-29 09:08:31</time>
      </trkpt>
      <trkpt lat="43.06503" lon="-2.16785">
        <ele>382.2</ele>
        <time>2021-05-29 09:08:32</time>
      </trkpt>
      <trkpt lat="43.06508" lon="-2.16773">
        <ele>382.4</ele>
        <time>2021-05-29 09:08:33</time>
      </trkpt>
      <trkpt lat="43.06514" lon="-2.16761">
        <ele>382.2</ele>
        <time>2021-05-29 09:08:34</time>
      </trkpt>
      <trkpt lat="43.06521" lon="-2.1675">
        <ele>382.2</ele>
        <time>2021-05-29 09:08:35</time>
      </trkpt>
      <trkpt lat="43.06527" lon="-2.16738">
        <ele>382.2</ele>
        <time>2021-05-29 09:08:36</time>
      </trkpt>
      <trkpt lat="43.06534" lon="-2.16727">
        <ele>382</ele>
        <time>2021-05-29 09:08:37</time>
      </trkpt>
      <trkpt lat="43.06541" lon="-2.16716">
        <ele>382</ele>
        <time>2021-05-29 09:08:38</time>
      </trkpt>
      <trkpt lat="43.06548" lon="-2.16705">
        <ele>382</ele>
        <time>2021-05-29 09:08:39</time>
      </trkpt>
      <trkpt lat="43.06554" lon="-2.16694">
        <ele>382</ele>
        <time>2021-05-29 09:08:40</time>
      </trkpt>
      <trkpt lat="43.06561" lon="-2.16684">
        <ele>381.8</ele>
        <time>2021-05-29 09:08:41</time>
      </trkpt>
      <trkpt lat="43.06567" lon="-2.16674">
        <ele>381.8</ele>
        <time>2021-05-29 09:08:42</time>
      </trkpt>
      <trkpt lat="43.06574" lon="-2.16664">
        <ele>382</ele>
        <time>2021-05-29 09:08:43</time>
      </trkpt>
      <trkpt lat="43.0658" lon="-2.16654">
        <ele>382</ele>
        <time>2021-05-29 09:08:44</time>
      </trkpt>
      <trkpt lat="43.06586" lon="-2.16644">
        <ele>381.8</ele>
        <time>2021-05-29 09:08:45</time>
      </trkpt>
      <trkpt lat="43.06593" lon="-2.16635">
        <ele>381.8</ele>
        <time>2021-05-29 09:08:46</time>
      </trkpt>
      <trkpt lat="43.06599" lon="-2.16626">
        <ele>381.6</ele>
        <time>2021-05-29 09:08:47</time>
      </trkpt>
      <trkpt lat="43.06605" lon="-2.16617">
        <ele>381.6</ele>
        <time>2021-05-29 09:08:48</time>
      </trkpt>
      <trkpt lat="43.06611" lon="-2.16608">
        <ele>381.8</ele>
        <time>2021-05-29 09:08:49</time>
      </trkpt>
      <trkpt lat="43.06617" lon="-2.166">
        <ele>381.6</ele>
        <time>2021-05-29 09:08:50</time>
      </trkpt>
      <trkpt lat="43.06622" lon="-2.16591">
        <ele>381.8</ele>
        <time>2021-05-29 09:08:51</time>
      </trkpt>
      <trkpt lat="43.06628" lon="-2.16583">
        <ele>381.6</ele>
        <time>2021-05-29 09:08:52</time>
      </trkpt>
      <trkpt lat="43.06634" lon="-2.16575">
        <ele>381.6</ele>
        <time>2021-05-29 09:08:53</time>
      </trkpt>
      <trkpt lat="43.06641" lon="-2.16568">
        <ele>381.8</ele>
        <time>2021-05-29 09:08:54</time>
      </trkpt>
      <trkpt lat="43.06648" lon="-2.16561">
        <ele>381.6</ele>
        <time>2021-05-29 09:08:55</time>
      </trkpt>
      <trkpt lat="43.06656" lon="-2.16554">
        <ele>381.6</ele>
        <time>2021-05-29 09:08:56</time>
      </trkpt>
      <trkpt lat="43.06663" lon="-2.16548">
        <ele>381.4</ele>
        <time>2021-05-29 09:08:57</time>
      </trkpt>
      <trkpt lat="43.06671" lon="-2.16542">
        <ele>381.4</ele>
        <time>2021-05-29 09:08:58</time>
      </trkpt>
      <trkpt lat="43.06679" lon="-2.16536">
        <ele>381.6</ele>
        <time>2021-05-29 09:08:59</time>
      </trkpt>
      <trkpt lat="43.06687" lon="-2.16531">
        <ele>381.4</ele>
        <time>2021-05-29 09:09:00</time>
      </trkpt>
      <trkpt lat="43.06696" lon="-2.16525">
        <ele>381.4</ele>
        <time>2021-05-29 09:09:01</time>
      </trkpt>
      <trkpt lat="43.06704" lon="-2.16519">
        <ele>381.4</ele>
        <time>2021-05-29 09:09:02</time>
      </trkpt>
      <trkpt lat="43.06712" lon="-2.16513">
        <ele>381.6</ele>
        <time>2021-05-29 09:09:03</time>
      </trkpt>
      <trkpt lat="43.0672" lon="-2.16507">
        <ele>381.4</ele>
        <time>2021-05-29 09:09:04</time>
      </trkpt>
      <trkpt lat="43.06728" lon="-2.16502">
        <ele>381.4</ele>
        <time>2021-05-29 09:09:05</time>
      </trkpt>
      <trkpt lat="43.06737" lon="-2.16497">
        <ele>381.4</ele>
        <time>2021-05-29 09:09:06</time>
      </trkpt>
      <trkpt lat="43.06745" lon="-2.16491">
        <ele>381.4</ele>
        <time>2021-05-29 09:09:07</time>
      </trkpt>
      <trkpt lat="43.06754" lon="-2.16486">
        <ele>381.4</ele>
        <time>2021-05-29 09:09:08</time>
      </trkpt>
      <trkpt lat="43.06762" lon="-2.16481">
        <ele>381.2</ele>
        <time>2021-05-29 09:09:09</time>
      </trkpt>
      <trkpt lat="43.06771" lon="-2.16476">
        <ele>381.4</ele>
        <time>2021-05-29 09:09:10</time>
      </trkpt>
      <trkpt lat="43.06779" lon="-2.1647">
        <ele>381.4</ele>
        <time>2021-05-29 09:09:11</time>
      </trkpt>
      <trkpt lat="43.06787" lon="-2.16464">
        <ele>381.2</ele>
        <time>2021-05-29 09:09:12</time>
      </trkpt>
      <trkpt lat="43.06794" lon="-2.16458">
        <ele>381.4</ele>
        <time>2021-05-29 09:09:13</time>
      </trkpt>
      <trkpt lat="43.06802" lon="-2.16452">
        <ele>381.2</ele>
        <time>2021-05-29 09:09:14</time>
      </trkpt>
      <trkpt lat="43.0681" lon="-2.16446">
        <ele>381.2</ele>
        <time>2021-05-29 09:09:15</time>
      </trkpt>
      <trkpt lat="43.06818" lon="-2.1644">
        <ele>381.2</ele>
        <time>2021-05-29 09:09:16</time>
      </trkpt>
      <trkpt lat="43.06826" lon="-2.16435">
        <ele>381</ele>
        <time>2021-05-29 09:09:17</time>
      </trkpt>
      <trkpt lat="43.06834" lon="-2.16429">
        <ele>381</ele>
        <time>2021-05-29 09:09:18</time>
      </trkpt>
      <trkpt lat="43.06842" lon="-2.16424">
        <ele>381</ele>
        <time>2021-05-29 09:09:19</time>
      </trkpt>
      <trkpt lat="43.06851" lon="-2.16418">
        <ele>380.8</ele>
        <time>2021-05-29 09:09:20</time>
      </trkpt>
      <trkpt lat="43.0686" lon="-2.16413">
        <ele>381</ele>
        <time>2021-05-29 09:09:21</time>
      </trkpt>
      <trkpt lat="43.06868" lon="-2.16407">
        <ele>381</ele>
        <time>2021-05-29 09:09:22</time>
      </trkpt>
      <trkpt lat="43.06877" lon="-2.16401">
        <ele>380.8</ele>
        <time>2021-05-29 09:09:23</time>
      </trkpt>
      <trkpt lat="43.06886" lon="-2.16396">
        <ele>381</ele>
        <time>2021-05-29 09:09:24</time>
      </trkpt>
      <trkpt lat="43.06894" lon="-2.16391">
        <ele>381</ele>
        <time>2021-05-29 09:09:25</time>
      </trkpt>
      <trkpt lat="43.06903" lon="-2.16384">
        <ele>381</ele>
        <time>2021-05-29 09:09:26</time>
      </trkpt>
      <trkpt lat="43.06911" lon="-2.16378">
        <ele>381</ele>
        <time>2021-05-29 09:09:27</time>
      </trkpt>
      <trkpt lat="43.0692" lon="-2.16373">
        <ele>380.8</ele>
        <time>2021-05-29 09:09:28</time>
      </trkpt>
      <trkpt lat="43.06928" lon="-2.16368">
        <ele>380.8</ele>
        <time>2021-05-29 09:09:29</time>
      </trkpt>
      <trkpt lat="43.06936" lon="-2.16362">
        <ele>380.8</ele>
        <time>2021-05-29 09:09:30</time>
      </trkpt>
      <trkpt lat="43.06943" lon="-2.16356">
        <ele>380.8</ele>
        <time>2021-05-29 09:09:31</time>
      </trkpt>
      <trkpt lat="43.0695" lon="-2.16349">
        <ele>380.8</ele>
        <time>2021-05-29 09:09:32</time>
      </trkpt>
      <trkpt lat="43.06957" lon="-2.16343">
        <ele>380.8</ele>
        <time>2021-05-29 09:09:33</time>
      </trkpt>
      <trkpt lat="43.06964" lon="-2.16337">
        <ele>380.8</ele>
        <time>2021-05-29 09:09:34</time>
      </trkpt>
      <trkpt lat="43.06971" lon="-2.1633">
        <ele>381</ele>
        <time>2021-05-29 09:09:35</time>
      </trkpt>
      <trkpt lat="43.06978" lon="-2.16323">
        <ele>380.8</ele>
        <time>2021-05-29 09:09:36</time>
      </trkpt>
      <trkpt lat="43.06985" lon="-2.16317">
        <ele>380.8</ele>
        <time>2021-05-29 09:09:37</time>
      </trkpt>
      <trkpt lat="43.06992" lon="-2.16311">
        <ele>380.8</ele>
        <time>2021-05-29 09:09:38</time>
      </trkpt>
      <trkpt lat="43.06999" lon="-2.16305">
        <ele>380.8</ele>
        <time>2021-05-29 09:09:39</time>
      </trkpt>
      <trkpt lat="43.07006" lon="-2.16299">
        <ele>380.8</ele>
        <time>2021-05-29 09:09:40</time>
      </trkpt>
      <trkpt lat="43.07013" lon="-2.16294">
        <ele>380.8</ele>
        <time>2021-05-29 09:09:41</time>
      </trkpt>
      <trkpt lat="43.0702" lon="-2.16288">
        <ele>380.8</ele>
        <time>2021-05-29 09:09:42</time>
      </trkpt>
      <trkpt lat="43.07028" lon="-2.16283">
        <ele>380.8</ele>
        <time>2021-05-29 09:09:43</time>
      </trkpt>
      <trkpt lat="43.07035" lon="-2.16278">
        <ele>380.8</ele>
        <time>2021-05-29 09:09:44</time>
      </trkpt>
      <trkpt lat="43.07042" lon="-2.16272">
        <ele>380.6</ele>
        <time>2021-05-29 09:09:45</time>
      </trkpt>
      <trkpt lat="43.07049" lon="-2.16266">
        <ele>380.6</ele>
        <time>2021-05-29 09:09:46</time>
      </trkpt>
      <trkpt lat="43.07057" lon="-2.16261">
        <ele>380.6</ele>
        <time>2021-05-29 09:09:47</time>
      </trkpt>
      <trkpt lat="43.07063" lon="-2.16256">
        <ele>380.6</ele>
        <time>2021-05-29 09:09:48</time>
      </trkpt>
      <trkpt lat="43.0707" lon="-2.16251">
        <ele>380.6</ele>
        <time>2021-05-29 09:09:49</time>
      </trkpt>
      <trkpt lat="43.07077" lon="-2.16246">
        <ele>380.6</ele>
        <time>2021-05-29 09:09:50</time>
      </trkpt>
      <trkpt lat="43.07084" lon="-2.16243">
        <ele>380.6</ele>
        <time>2021-05-29 09:09:51</time>
      </trkpt>
      <trkpt lat="43.07091" lon="-2.1624">
        <ele>380.4</ele>
        <time>2021-05-29 09:09:52</time>
      </trkpt>
      <trkpt lat="43.07099" lon="-2.16239">
        <ele>380.6</ele>
        <time>2021-05-29 09:09:53</time>
      </trkpt>
      <trkpt lat="43.07107" lon="-2.16238">
        <ele>380.6</ele>
        <time>2021-05-29 09:09:54</time>
      </trkpt>
      <trkpt lat="43.07115" lon="-2.16239">
        <ele>380.6</ele>
        <time>2021-05-29 09:09:55</time>
      </trkpt>
      <trkpt lat="43.07123" lon="-2.1624">
        <ele>380.4</ele>
        <time>2021-05-29 09:09:56</time>
      </trkpt>
      <trkpt lat="43.07131" lon="-2.16243">
        <ele>380.4</ele>
        <time>2021-05-29 09:09:57</time>
      </trkpt>
      <trkpt lat="43.07139" lon="-2.16247">
        <ele>380.4</ele>
        <time>2021-05-29 09:09:58</time>
      </trkpt>
      <trkpt lat="43.07147" lon="-2.16251">
        <ele>380.2</ele>
        <time>2021-05-29 09:09:59</time>
      </trkpt>
      <trkpt lat="43.07154" lon="-2.16257">
        <ele>380.2</ele>
        <time>2021-05-29 09:10:00</time>
      </trkpt>
      <trkpt lat="43.07162" lon="-2.16263">
        <ele>380.4</ele>
        <time>2021-05-29 09:10:01</time>
      </trkpt>
      <trkpt lat="43.0717" lon="-2.1627">
        <ele>380.4</ele>
        <time>2021-05-29 09:10:02</time>
      </trkpt>
      <trkpt lat="43.07178" lon="-2.16277">
        <ele>380.2</ele>
        <time>2021-05-29 09:10:03</time>
      </trkpt>
      <trkpt lat="43.07186" lon="-2.16284">
        <ele>380.4</ele>
        <time>2021-05-29 09:10:04</time>
      </trkpt>
      <trkpt lat="43.07194" lon="-2.16291">
        <ele>380.2</ele>
        <time>2021-05-29 09:10:05</time>
      </trkpt>
      <trkpt lat="43.07202" lon="-2.16298">
        <ele>380.4</ele>
        <time>2021-05-29 09:10:06</time>
      </trkpt>
      <trkpt lat="43.07209" lon="-2.16305">
        <ele>380.4</ele>
        <time>2021-05-29 09:10:07</time>
      </trkpt>
      <trkpt lat="43.07217" lon="-2.16311">
        <ele>380.2</ele>
        <time>2021-05-29 09:10:08</time>
      </trkpt>
      <trkpt lat="43.07225" lon="-2.16318">
        <ele>380.2</ele>
        <time>2021-05-29 09:10:09</time>
      </trkpt>
      <trkpt lat="43.07233" lon="-2.16325">
        <ele>380.2</ele>
        <time>2021-05-29 09:10:10</time>
      </trkpt>
      <trkpt lat="43.07241" lon="-2.16332">
        <ele>380</ele>
        <time>2021-05-29 09:10:11</time>
      </trkpt>
      <trkpt lat="43.07249" lon="-2.16338">
        <ele>380.2</ele>
        <time>2021-05-29 09:10:12</time>
      </trkpt>
      <trkpt lat="43.07257" lon="-2.16345">
        <ele>380.2</ele>
        <time>2021-05-29 09:10:13</time>
      </trkpt>
      <trkpt lat="43.07265" lon="-2.16352">
        <ele>380.2</ele>
        <time>2021-05-29 09:10:14</time>
      </trkpt>
      <trkpt lat="43.07274" lon="-2.16358">
        <ele>380</ele>
        <time>2021-05-29 09:10:15</time>
      </trkpt>
      <trkpt lat="43.07283" lon="-2.16362">
        <ele>380</ele>
        <time>2021-05-29 09:10:16</time>
      </trkpt>
      <trkpt lat="43.07292" lon="-2.16365">
        <ele>380</ele>
        <time>2021-05-29 09:10:17</time>
      </trkpt>
      <trkpt lat="43.07301" lon="-2.16367">
        <ele>380.2</ele>
        <time>2021-05-29 09:10:18</time>
      </trkpt>
      <trkpt lat="43.07308" lon="-2.16365">
        <ele>380.2</ele>
        <time>2021-05-29 09:10:19</time>
      </trkpt>
      <trkpt lat="43.07317" lon="-2.16363">
        <ele>380</ele>
        <time>2021-05-29 09:10:20</time>
      </trkpt>
      <trkpt lat="43.07326" lon="-2.16359">
        <ele>380</ele>
        <time>2021-05-29 09:10:21</time>
      </trkpt>
      <trkpt lat="43.07334" lon="-2.16355">
        <ele>379.8</ele>
        <time>2021-05-29 09:10:22</time>
      </trkpt>
      <trkpt lat="43.07341" lon="-2.16348">
        <ele>380</ele>
        <time>2021-05-29 09:10:23</time>
      </trkpt>
      <trkpt lat="43.07347" lon="-2.1634">
        <ele>380</ele>
        <time>2021-05-29 09:10:24</time>
      </trkpt>
      <trkpt lat="43.07354" lon="-2.16331">
        <ele>380</ele>
        <time>2021-05-29 09:10:25</time>
      </trkpt>
      <trkpt lat="43.0736" lon="-2.16321">
        <ele>379.8</ele>
        <time>2021-05-29 09:10:26</time>
      </trkpt>
      <trkpt lat="43.07366" lon="-2.16311">
        <ele>380</ele>
        <time>2021-05-29 09:10:27</time>
      </trkpt>
      <trkpt lat="43.07373" lon="-2.16301">
        <ele>379.8</ele>
        <time>2021-05-29 09:10:28</time>
      </trkpt>
      <trkpt lat="43.07379" lon="-2.16292">
        <ele>379.8</ele>
        <time>2021-05-29 09:10:29</time>
      </trkpt>
      <trkpt lat="43.07385" lon="-2.16282">
        <ele>379.8</ele>
        <time>2021-05-29 09:10:30</time>
      </trkpt>
      <trkpt lat="43.07391" lon="-2.16272">
        <ele>379.8</ele>
        <time>2021-05-29 09:10:31</time>
      </trkpt>
      <trkpt lat="43.07397" lon="-2.16262">
        <ele>379.8</ele>
        <time>2021-05-29 09:10:32</time>
      </trkpt>
      <trkpt lat="43.07404" lon="-2.16253">
        <ele>379.8</ele>
        <time>2021-05-29 09:10:33</time>
      </trkpt>
      <trkpt lat="43.07411" lon="-2.16243">
        <ele>379.6</ele>
        <time>2021-05-29 09:10:34</time>
      </trkpt>
      <trkpt lat="43.07418" lon="-2.16235">
        <ele>379.6</ele>
        <time>2021-05-29 09:10:35</time>
      </trkpt>
      <trkpt lat="43.07425" lon="-2.16226">
        <ele>379.6</ele>
        <time>2021-05-29 09:10:36</time>
      </trkpt>
      <trkpt lat="43.07433" lon="-2.16218">
        <ele>379.6</ele>
        <time>2021-05-29 09:10:37</time>
      </trkpt>
      <trkpt lat="43.0744" lon="-2.16209">
        <ele>379.6</ele>
        <time>2021-05-29 09:10:38</time>
      </trkpt>
      <trkpt lat="43.07448" lon="-2.162">
        <ele>379.4</ele>
        <time>2021-05-29 09:10:39</time>
      </trkpt>
      <trkpt lat="43.07455" lon="-2.16192">
        <ele>379.6</ele>
        <time>2021-05-29 09:10:40</time>
      </trkpt>
      <trkpt lat="43.07463" lon="-2.16184">
        <ele>379.4</ele>
        <time>2021-05-29 09:10:41</time>
      </trkpt>
      <trkpt lat="43.07471" lon="-2.16176">
        <ele>379.4</ele>
        <time>2021-05-29 09:10:42</time>
      </trkpt>
      <trkpt lat="43.07478" lon="-2.16168">
        <ele>379.4</ele>
        <time>2021-05-29 09:10:43</time>
      </trkpt>
      <trkpt lat="43.07485" lon="-2.1616">
        <ele>379.4</ele>
        <time>2021-05-29 09:10:44</time>
      </trkpt>
      <trkpt lat="43.07491" lon="-2.16152">
        <ele>379.2</ele>
        <time>2021-05-29 09:10:45</time>
      </trkpt>
      <trkpt lat="43.07499" lon="-2.16144">
        <ele>379.2</ele>
        <time>2021-05-29 09:10:46</time>
      </trkpt>
      <trkpt lat="43.07506" lon="-2.16136">
        <ele>379.2</ele>
        <time>2021-05-29 09:10:47</time>
      </trkpt>
      <trkpt lat="43.07514" lon="-2.16128">
        <ele>379.2</ele>
        <time>2021-05-29 09:10:48</time>
      </trkpt>
      <trkpt lat="43.07521" lon="-2.16119">
        <ele>379.2</ele>
        <time>2021-05-29 09:10:49</time>
      </trkpt>
      <trkpt lat="43.07528" lon="-2.1611">
        <ele>379</ele>
        <time>2021-05-29 09:10:50</time>
      </trkpt>
      <trkpt lat="43.07536" lon="-2.16102">
        <ele>379</ele>
        <time>2021-05-29 09:10:51</time>
      </trkpt>
      <trkpt lat="43.07543" lon="-2.16094">
        <ele>379</ele>
        <time>2021-05-29 09:10:52</time>
      </trkpt>
      <trkpt lat="43.07551" lon="-2.16085">
        <ele>379</ele>
        <time>2021-05-29 09:10:53</time>
      </trkpt>
      <trkpt lat="43.07558" lon="-2.16077">
        <ele>378.8</ele>
        <time>2021-05-29 09:10:54</time>
      </trkpt>
      <trkpt lat="43.07566" lon="-2.16069">
        <ele>379</ele>
        <time>2021-05-29 09:10:55</time>
      </trkpt>
      <trkpt lat="43.07574" lon="-2.16061">
        <ele>378.8</ele>
        <time>2021-05-29 09:10:56</time>
      </trkpt>
      <trkpt lat="43.07581" lon="-2.16052">
        <ele>378.8</ele>
        <time>2021-05-29 09:10:57</time>
      </trkpt>
      <trkpt lat="43.07589" lon="-2.16044">
        <ele>378.8</ele>
        <time>2021-05-29 09:10:58</time>
      </trkpt>
      <trkpt lat="43.07597" lon="-2.16036">
        <ele>378.8</ele>
        <time>2021-05-29 09:10:59</time>
      </trkpt>
      <trkpt lat="43.07605" lon="-2.16028">
        <ele>378.6</ele>
        <time>2021-05-29 09:11:00</time>
      </trkpt>
      <trkpt lat="43.07613" lon="-2.16021">
        <ele>378.6</ele>
        <time>2021-05-29 09:11:01</time>
      </trkpt>
      <trkpt lat="43.07622" lon="-2.16014">
        <ele>378.6</ele>
        <time>2021-05-29 09:11:02</time>
      </trkpt>
      <trkpt lat="43.0763" lon="-2.16008">
        <ele>378.4</ele>
        <time>2021-05-29 09:11:03</time>
      </trkpt>
      <trkpt lat="43.0764" lon="-2.16004">
        <ele>378.4</ele>
        <time>2021-05-29 09:11:04</time>
      </trkpt>
      <trkpt lat="43.07649" lon="-2.15999">
        <ele>378.2</ele>
        <time>2021-05-29 09:11:05</time>
      </trkpt>
      <trkpt lat="43.07658" lon="-2.15995">
        <ele>378.2</ele>
        <time>2021-05-29 09:11:06</time>
      </trkpt>
      <trkpt lat="43.07668" lon="-2.15992">
        <ele>378.2</ele>
        <time>2021-05-29 09:11:07</time>
      </trkpt>
      <trkpt lat="43.07677" lon="-2.15989">
        <ele>378</ele>
        <time>2021-05-29 09:11:08</time>
      </trkpt>
      <trkpt lat="43.07687" lon="-2.15986">
        <ele>378</ele>
        <time>2021-05-29 09:11:09</time>
      </trkpt>
      <trkpt lat="43.07696" lon="-2.15982">
        <ele>377.8</ele>
        <time>2021-05-29 09:11:10</time>
      </trkpt>
      <trkpt lat="43.07705" lon="-2.15979">
        <ele>378</ele>
        <time>2021-05-29 09:11:11</time>
      </trkpt>
      <trkpt lat="43.07715" lon="-2.15975">
        <ele>378</ele>
        <time>2021-05-29 09:11:12</time>
      </trkpt>
      <trkpt lat="43.07724" lon="-2.15972">
        <ele>377.8</ele>
        <time>2021-05-29 09:11:13</time>
      </trkpt>
      <trkpt lat="43.07733" lon="-2.15968">
        <ele>377.8</ele>
        <time>2021-05-29 09:11:14</time>
      </trkpt>
      <trkpt lat="43.07743" lon="-2.15965">
        <ele>377.8</ele>
        <time>2021-05-29 09:11:15</time>
      </trkpt>
      <trkpt lat="43.07752" lon="-2.15962">
        <ele>377.6</ele>
        <time>2021-05-29 09:11:16</time>
      </trkpt>
      <trkpt lat="43.07761" lon="-2.15958">
        <ele>377.6</ele>
        <time>2021-05-29 09:11:17</time>
      </trkpt>
      <trkpt lat="43.0777" lon="-2.15955">
        <ele>377.6</ele>
        <time>2021-05-29 09:11:18</time>
      </trkpt>
      <trkpt lat="43.07779" lon="-2.15952">
        <ele>377.4</ele>
        <time>2021-05-29 09:11:19</time>
      </trkpt>
      <trkpt lat="43.07788" lon="-2.15948">
        <ele>377.2</ele>
        <time>2021-05-29 09:11:20</time>
      </trkpt>
      <trkpt lat="43.07797" lon="-2.15945">
        <ele>377.2</ele>
        <time>2021-05-29 09:11:21</time>
      </trkpt>
      <trkpt lat="43.07805" lon="-2.15942">
        <ele>377</ele>
        <time>2021-05-29 09:11:22</time>
      </trkpt>
      <trkpt lat="43.07814" lon="-2.15939">
        <ele>377</ele>
        <time>2021-05-29 09:11:23</time>
      </trkpt>
      <trkpt lat="43.07823" lon="-2.15936">
        <ele>377.2</ele>
        <time>2021-05-29 09:11:24</time>
      </trkpt>
      <trkpt lat="43.07831" lon="-2.15933">
        <ele>377</ele>
        <time>2021-05-29 09:11:25</time>
      </trkpt>
      <trkpt lat="43.0784" lon="-2.1593">
        <ele>377</ele>
        <time>2021-05-29 09:11:26</time>
      </trkpt>
      <trkpt lat="43.07848" lon="-2.15928">
        <ele>377</ele>
        <time>2021-05-29 09:11:27</time>
      </trkpt>
      <trkpt lat="43.07857" lon="-2.15926">
        <ele>377</ele>
        <time>2021-05-29 09:11:28</time>
      </trkpt>
      <trkpt lat="43.07866" lon="-2.15923">
        <ele>377</ele>
        <time>2021-05-29 09:11:29</time>
      </trkpt>
      <trkpt lat="43.07874" lon="-2.15921">
        <ele>376.8</ele>
        <time>2021-05-29 09:11:30</time>
      </trkpt>
      <trkpt lat="43.07883" lon="-2.15918">
        <ele>376.8</ele>
        <time>2021-05-29 09:11:31</time>
      </trkpt>
      <trkpt lat="43.07891" lon="-2.15916">
        <ele>377</ele>
        <time>2021-05-29 09:11:32</time>
      </trkpt>
      <trkpt lat="43.079" lon="-2.15914">
        <ele>376.8</ele>
        <time>2021-05-29 09:11:33</time>
      </trkpt>
      <trkpt lat="43.07909" lon="-2.15912">
        <ele>376.8</ele>
        <time>2021-05-29 09:11:34</time>
      </trkpt>
      <trkpt lat="43.07918" lon="-2.15909">
        <ele>376.8</ele>
        <time>2021-05-29 09:11:35</time>
      </trkpt>
      <trkpt lat="43.07927" lon="-2.15906">
        <ele>376.8</ele>
        <time>2021-05-29 09:11:36</time>
      </trkpt>
      <trkpt lat="43.07937" lon="-2.15903">
        <ele>376.8</ele>
        <time>2021-05-29 09:11:37</time>
      </trkpt>
      <trkpt lat="43.07946" lon="-2.159">
        <ele>376.8</ele>
        <time>2021-05-29 09:11:38</time>
      </trkpt>
      <trkpt lat="43.07956" lon="-2.15898">
        <ele>376.6</ele>
        <time>2021-05-29 09:11:39</time>
      </trkpt>
      <trkpt lat="43.07965" lon="-2.15895">
        <ele>376.6</ele>
        <time>2021-05-29 09:11:40</time>
      </trkpt>
      <trkpt lat="43.07974" lon="-2.15891">
        <ele>376.4</ele>
        <time>2021-05-29 09:11:41</time>
      </trkpt>
      <trkpt lat="43.07982" lon="-2.15887">
        <ele>376.2</ele>
        <time>2021-05-29 09:11:42</time>
      </trkpt>
      <trkpt lat="43.0799" lon="-2.15881">
        <ele>376.4</ele>
        <time>2021-05-29 09:11:43</time>
      </trkpt>
      <trkpt lat="43.07998" lon="-2.15875">
        <ele>376.2</ele>
        <time>2021-05-29 09:11:44</time>
      </trkpt>
      <trkpt lat="43.08006" lon="-2.15867">
        <ele>376.2</ele>
        <time>2021-05-29 09:11:45</time>
      </trkpt>
      <trkpt lat="43.08013" lon="-2.15859">
        <ele>376.2</ele>
        <time>2021-05-29 09:11:46</time>
      </trkpt>
      <trkpt lat="43.08019" lon="-2.1585">
        <ele>376.2</ele>
        <time>2021-05-29 09:11:47</time>
      </trkpt>
      <trkpt lat="43.08025" lon="-2.1584">
        <ele>376</ele>
        <time>2021-05-29 09:11:48</time>
      </trkpt>
      <trkpt lat="43.0803" lon="-2.15829">
        <ele>376</ele>
        <time>2021-05-29 09:11:49</time>
      </trkpt>
      <trkpt lat="43.08035" lon="-2.15818">
        <ele>376</ele>
        <time>2021-05-29 09:11:50</time>
      </trkpt>
      <trkpt lat="43.08039" lon="-2.15806">
        <ele>376</ele>
        <time>2021-05-29 09:11:51</time>
      </trkpt>
      <trkpt lat="43.08042" lon="-2.15793">
        <ele>375.8</ele>
        <time>2021-05-29 09:11:52</time>
      </trkpt>
      <trkpt lat="43.08045" lon="-2.15781">
        <ele>375.6</ele>
        <time>2021-05-29 09:11:53</time>
      </trkpt>
      <trkpt lat="43.08047" lon="-2.15769">
        <ele>375.6</ele>
        <time>2021-05-29 09:11:54</time>
      </trkpt>
      <trkpt lat="43.08049" lon="-2.15756">
        <ele>375.6</ele>
        <time>2021-05-29 09:11:55</time>
      </trkpt>
      <trkpt lat="43.0805" lon="-2.15743">
        <ele>375.6</ele>
        <time>2021-05-29 09:11:56</time>
      </trkpt>
      <trkpt lat="43.08051" lon="-2.1573">
        <ele>375.6</ele>
        <time>2021-05-29 09:11:57</time>
      </trkpt>
      <trkpt lat="43.08052" lon="-2.15717">
        <ele>375.6</ele>
        <time>2021-05-29 09:11:58</time>
      </trkpt>
      <trkpt lat="43.08053" lon="-2.15704">
        <ele>375.6</ele>
        <time>2021-05-29 09:11:59</time>
      </trkpt>
      <trkpt lat="43.08054" lon="-2.15691">
        <ele>375.6</ele>
        <time>2021-05-29 09:12:00</time>
      </trkpt>
      <trkpt lat="43.08055" lon="-2.15678">
        <ele>375.6</ele>
        <time>2021-05-29 09:12:01</time>
      </trkpt>
      <trkpt lat="43.08056" lon="-2.15665">
        <ele>375.6</ele>
        <time>2021-05-29 09:12:02</time>
      </trkpt>
      <trkpt lat="43.08056" lon="-2.15652">
        <ele>375.4</ele>
        <time>2021-05-29 09:12:03</time>
      </trkpt>
      <trkpt lat="43.08056" lon="-2.15639">
        <ele>375.4</ele>
        <time>2021-05-29 09:12:04</time>
      </trkpt>
      <trkpt lat="43.08055" lon="-2.15627">
        <ele>375.2</ele>
        <time>2021-05-29 09:12:05</time>
      </trkpt>
      <trkpt lat="43.08055" lon="-2.15614">
        <ele>375.2</ele>
        <time>2021-05-29 09:12:06</time>
      </trkpt>
      <trkpt lat="43.08054" lon="-2.15602">
        <ele>375.2</ele>
        <time>2021-05-29 09:12:07</time>
      </trkpt>
      <trkpt lat="43.08054" lon="-2.15589">
        <ele>375.2</ele>
        <time>2021-05-29 09:12:08</time>
      </trkpt>
      <trkpt lat="43.08053" lon="-2.15577">
        <ele>375</ele>
        <time>2021-05-29 09:12:09</time>
      </trkpt>
      <trkpt lat="43.08052" lon="-2.15564">
        <ele>375</ele>
        <time>2021-05-29 09:12:10</time>
      </trkpt>
      <trkpt lat="43.08052" lon="-2.15552">
        <ele>375</ele>
        <time>2021-05-29 09:12:11</time>
      </trkpt>
      <trkpt lat="43.08051" lon="-2.15539">
        <ele>375</ele>
        <time>2021-05-29 09:12:12</time>
      </trkpt>
      <trkpt lat="43.0805" lon="-2.15527">
        <ele>375</ele>
        <time>2021-05-29 09:12:13</time>
      </trkpt>
      <trkpt lat="43.0805" lon="-2.15515">
        <ele>374.8</ele>
        <time>2021-05-29 09:12:14</time>
      </trkpt>
      <trkpt lat="43.08049" lon="-2.15503">
        <ele>374.8</ele>
        <time>2021-05-29 09:12:15</time>
      </trkpt>
      <trkpt lat="43.08048" lon="-2.15492">
        <ele>374.8</ele>
        <time>2021-05-29 09:12:16</time>
      </trkpt>
      <trkpt lat="43.08048" lon="-2.1548">
        <ele>374.8</ele>
        <time>2021-05-29 09:12:17</time>
      </trkpt>
      <trkpt lat="43.08048" lon="-2.15468">
        <ele>375</ele>
        <time>2021-05-29 09:12:18</time>
      </trkpt>
      <trkpt lat="43.08049" lon="-2.15456">
        <ele>374.8</ele>
        <time>2021-05-29 09:12:19</time>
      </trkpt>
      <trkpt lat="43.0805" lon="-2.15445">
        <ele>374.8</ele>
        <time>2021-05-29 09:12:20</time>
      </trkpt>
      <trkpt lat="43.08053" lon="-2.15434">
        <ele>374.8</ele>
        <time>2021-05-29 09:12:21</time>
      </trkpt>
      <trkpt lat="43.08057" lon="-2.15423">
        <ele>374.6</ele>
        <time>2021-05-29 09:12:22</time>
      </trkpt>
      <trkpt lat="43.08062" lon="-2.15413">
        <ele>374.6</ele>
        <time>2021-05-29 09:12:23</time>
      </trkpt>
      <trkpt lat="43.08067" lon="-2.15403">
        <ele>374.6</ele>
        <time>2021-05-29 09:12:24</time>
      </trkpt>
      <trkpt lat="43.08072" lon="-2.15394">
        <ele>374.6</ele>
        <time>2021-05-29 09:12:25</time>
      </trkpt>
      <trkpt lat="43.08079" lon="-2.15386">
        <ele>374.6</ele>
        <time>2021-05-29 09:12:26</time>
      </trkpt>
      <trkpt lat="43.08087" lon="-2.15378">
        <ele>374.6</ele>
        <time>2021-05-29 09:12:27</time>
      </trkpt>
      <trkpt lat="43.08095" lon="-2.15372">
        <ele>374.4</ele>
        <time>2021-05-29 09:12:28</time>
      </trkpt>
      <trkpt lat="43.08105" lon="-2.15366">
        <ele>374.4</ele>
        <time>2021-05-29 09:12:29</time>
      </trkpt>
      <trkpt lat="43.08115" lon="-2.15362">
        <ele>374.4</ele>
        <time>2021-05-29 09:12:30</time>
      </trkpt>
      <trkpt lat="43.08125" lon="-2.15359">
        <ele>374.2</ele>
        <time>2021-05-29 09:12:31</time>
      </trkpt>
      <trkpt lat="43.08135" lon="-2.15356">
        <ele>374</ele>
        <time>2021-05-29 09:12:32</time>
      </trkpt>
      <trkpt lat="43.08146" lon="-2.15355">
        <ele>373.8</ele>
        <time>2021-05-29 09:12:33</time>
      </trkpt>
      <trkpt lat="43.08157" lon="-2.15354">
        <ele>374</ele>
        <time>2021-05-29 09:12:34</time>
      </trkpt>
      <trkpt lat="43.08168" lon="-2.15353">
        <ele>373.8</ele>
        <time>2021-05-29 09:12:35</time>
      </trkpt>
      <trkpt lat="43.08178" lon="-2.15353">
        <ele>373.6</ele>
        <time>2021-05-29 09:12:36</time>
      </trkpt>
      <trkpt lat="43.08188" lon="-2.15352">
        <ele>373.4</ele>
        <time>2021-05-29 09:12:37</time>
      </trkpt>
      <trkpt lat="43.08198" lon="-2.15353">
        <ele>373.4</ele>
        <time>2021-05-29 09:12:38</time>
      </trkpt>
      <trkpt lat="43.08208" lon="-2.15353">
        <ele>373.2</ele>
        <time>2021-05-29 09:12:39</time>
      </trkpt>
      <trkpt lat="43.08217" lon="-2.15354">
        <ele>373.2</ele>
        <time>2021-05-29 09:12:40</time>
      </trkpt>
      <trkpt lat="43.08227" lon="-2.15354">
        <ele>372.8</ele>
        <time>2021-05-29 09:12:41</time>
      </trkpt>
      <trkpt lat="43.08236" lon="-2.15356">
        <ele>372.8</ele>
        <time>2021-05-29 09:12:42</time>
      </trkpt>
      <trkpt lat="43.08247" lon="-2.15357">
        <ele>372.6</ele>
        <time>2021-05-29 09:12:43</time>
      </trkpt>
      <trkpt lat="43.08257" lon="-2.15357">
        <ele>372.4</ele>
        <time>2021-05-29 09:12:44</time>
      </trkpt>
      <trkpt lat="43.08267" lon="-2.15357">
        <ele>372.6</ele>
        <time>2021-05-29 09:12:45</time>
      </trkpt>
      <trkpt lat="43.08277" lon="-2.15356">
        <ele>372.4</ele>
        <time>2021-05-29 09:12:46</time>
      </trkpt>
      <trkpt lat="43.08286" lon="-2.15356">
        <ele>372.2</ele>
        <time>2021-05-29 09:12:47</time>
      </trkpt>
      <trkpt lat="43.08295" lon="-2.15356">
        <ele>372.2</ele>
        <time>2021-05-29 09:12:48</time>
      </trkpt>
      <trkpt lat="43.08304" lon="-2.15357">
        <ele>372.2</ele>
        <time>2021-05-29 09:12:49</time>
      </trkpt>
      <trkpt lat="43.08314" lon="-2.15356">
        <ele>372.2</ele>
        <time>2021-05-29 09:12:50</time>
      </trkpt>
      <trkpt lat="43.08325" lon="-2.15356">
        <ele>372.2</ele>
        <time>2021-05-29 09:12:51</time>
      </trkpt>
      <trkpt lat="43.08334" lon="-2.15354">
        <ele>372.2</ele>
        <time>2021-05-29 09:12:52</time>
      </trkpt>
      <trkpt lat="43.08343" lon="-2.15349">
        <ele>372.2</ele>
        <time>2021-05-29 09:12:53</time>
      </trkpt>
      <trkpt lat="43.08351" lon="-2.15342">
        <ele>372</ele>
        <time>2021-05-29 09:12:54</time>
      </trkpt>
      <trkpt lat="43.0836" lon="-2.15334">
        <ele>372.2</ele>
        <time>2021-05-29 09:12:55</time>
      </trkpt>
      <trkpt lat="43.08368" lon="-2.15325">
        <ele>372.2</ele>
        <time>2021-05-29 09:12:56</time>
      </trkpt>
      <trkpt lat="43.08377" lon="-2.15316">
        <ele>372</ele>
        <time>2021-05-29 09:12:57</time>
      </trkpt>
      <trkpt lat="43.08385" lon="-2.15308">
        <ele>372</ele>
        <time>2021-05-29 09:12:58</time>
      </trkpt>
      <trkpt lat="43.08393" lon="-2.153">
        <ele>372</ele>
        <time>2021-05-29 09:12:59</time>
      </trkpt>
      <trkpt lat="43.08401" lon="-2.15293">
        <ele>371.8</ele>
        <time>2021-05-29 09:13:00</time>
      </trkpt>
      <trkpt lat="43.0841" lon="-2.15285">
        <ele>371.8</ele>
        <time>2021-05-29 09:13:01</time>
      </trkpt>
      <trkpt lat="43.08419" lon="-2.15278">
        <ele>371.8</ele>
        <time>2021-05-29 09:13:02</time>
      </trkpt>
      <trkpt lat="43.08428" lon="-2.1527">
        <ele>371.8</ele>
        <time>2021-05-29 09:13:03</time>
      </trkpt>
      <trkpt lat="43.08437" lon="-2.15262">
        <ele>371.8</ele>
        <time>2021-05-29 09:13:04</time>
      </trkpt>
      <trkpt lat="43.08445" lon="-2.15254">
        <ele>371.8</ele>
        <time>2021-05-29 09:13:05</time>
      </trkpt>
      <trkpt lat="43.08454" lon="-2.15246">
        <ele>371.8</ele>
        <time>2021-05-29 09:13:06</time>
      </trkpt>
      <trkpt lat="43.08462" lon="-2.15239">
        <ele>371.6</ele>
        <time>2021-05-29 09:13:07</time>
      </trkpt>
      <trkpt lat="43.08471" lon="-2.15232">
        <ele>371.6</ele>
        <time>2021-05-29 09:13:08</time>
      </trkpt>
      <trkpt lat="43.0848" lon="-2.15224">
        <ele>371.6</ele>
        <time>2021-05-29 09:13:09</time>
      </trkpt>
      <trkpt lat="43.08487" lon="-2.15216">
        <ele>371.6</ele>
        <time>2021-05-29 09:13:10</time>
      </trkpt>
      <trkpt lat="43.08495" lon="-2.15208">
        <ele>371.6</ele>
        <time>2021-05-29 09:13:11</time>
      </trkpt>
      <trkpt lat="43.08503" lon="-2.152">
        <ele>371.4</ele>
        <time>2021-05-29 09:13:12</time>
      </trkpt>
      <trkpt lat="43.0851" lon="-2.15192">
        <ele>371.6</ele>
        <time>2021-05-29 09:13:13</time>
      </trkpt>
      <trkpt lat="43.08518" lon="-2.15185">
        <ele>371.6</ele>
        <time>2021-05-29 09:13:14</time>
      </trkpt>
      <trkpt lat="43.08526" lon="-2.15177">
        <ele>371.6</ele>
        <time>2021-05-29 09:13:15</time>
      </trkpt>
      <trkpt lat="43.08533" lon="-2.1517">
        <ele>371.4</ele>
        <time>2021-05-29 09:13:16</time>
      </trkpt>
      <trkpt lat="43.08541" lon="-2.15163">
        <ele>371.2</ele>
        <time>2021-05-29 09:13:17</time>
      </trkpt>
      <trkpt lat="43.08549" lon="-2.15156">
        <ele>371.2</ele>
        <time>2021-05-29 09:13:18</time>
      </trkpt>
      <trkpt lat="43.08556" lon="-2.15148">
        <ele>371.4</ele>
        <time>2021-05-29 09:13:19</time>
      </trkpt>
      <trkpt lat="43.08564" lon="-2.1514">
        <ele>371.2</ele>
        <time>2021-05-29 09:13:20</time>
      </trkpt>
      <trkpt lat="43.08572" lon="-2.15132">
        <ele>371.2</ele>
        <time>2021-05-29 09:13:21</time>
      </trkpt>
      <trkpt lat="43.08577" lon="-2.15122">
        <ele>371.2</ele>
        <time>2021-05-29 09:13:22</time>
      </trkpt>
      <trkpt lat="43.08581" lon="-2.1511">
        <ele>371.2</ele>
        <time>2021-05-29 09:13:23</time>
      </trkpt>
      <trkpt lat="43.08584" lon="-2.15099">
        <ele>371</ele>
        <time>2021-05-29 09:13:24</time>
      </trkpt>
      <trkpt lat="43.08588" lon="-2.15087">
        <ele>371</ele>
        <time>2021-05-29 09:13:25</time>
      </trkpt>
      <trkpt lat="43.0859" lon="-2.15074">
        <ele>371.2</ele>
        <time>2021-05-29 09:13:26</time>
      </trkpt>
      <trkpt lat="43.08593" lon="-2.15062">
        <ele>371.2</ele>
        <time>2021-05-29 09:13:27</time>
      </trkpt>
      <trkpt lat="43.08596" lon="-2.1505">
        <ele>371</ele>
        <time>2021-05-29 09:13:28</time>
      </trkpt>
      <trkpt lat="43.086" lon="-2.15037">
        <ele>371</ele>
        <time>2021-05-29 09:13:29</time>
      </trkpt>
      <trkpt lat="43.08603" lon="-2.15025">
        <ele>371</ele>
        <time>2021-05-29 09:13:30</time>
      </trkpt>
      <trkpt lat="43.08606" lon="-2.15013">
        <ele>371</ele>
        <time>2021-05-29 09:13:31</time>
      </trkpt>
      <trkpt lat="43.08609" lon="-2.15">
        <ele>371</ele>
        <time>2021-05-29 09:13:32</time>
      </trkpt>
      <trkpt lat="43.08611" lon="-2.14988">
        <ele>371</ele>
        <time>2021-05-29 09:13:33</time>
      </trkpt>
      <trkpt lat="43.08613" lon="-2.14975">
        <ele>371</ele>
        <time>2021-05-29 09:13:34</time>
      </trkpt>
      <trkpt lat="43.08615" lon="-2.14963">
        <ele>371</ele>
        <time>2021-05-29 09:13:35</time>
      </trkpt>
      <trkpt lat="43.08617" lon="-2.1495">
        <ele>371</ele>
        <time>2021-05-29 09:13:36</time>
      </trkpt>
      <trkpt lat="43.0862" lon="-2.14938">
        <ele>371</ele>
        <time>2021-05-29 09:13:37</time>
      </trkpt>
      <trkpt lat="43.08623" lon="-2.14926">
        <ele>371</ele>
        <time>2021-05-29 09:13:38</time>
      </trkpt>
      <trkpt lat="43.08625" lon="-2.14914">
        <ele>371</ele>
        <time>2021-05-29 09:13:39</time>
      </trkpt>
      <trkpt lat="43.08628" lon="-2.14903">
        <ele>371</ele>
        <time>2021-05-29 09:13:40</time>
      </trkpt>
      <trkpt lat="43.08631" lon="-2.14892">
        <ele>371</ele>
        <time>2021-05-29 09:13:41</time>
      </trkpt>
      <trkpt lat="43.08633" lon="-2.14881">
        <ele>371</ele>
        <time>2021-05-29 09:13:42</time>
      </trkpt>
      <trkpt lat="43.08636" lon="-2.1487">
        <ele>371</ele>
        <time>2021-05-29 09:13:43</time>
      </trkpt>
      <trkpt lat="43.08638" lon="-2.14859">
        <ele>371</ele>
        <time>2021-05-29 09:13:44</time>
      </trkpt>
      <trkpt lat="43.08639" lon="-2.14848">
        <ele>371</ele>
        <time>2021-05-29 09:13:45</time>
      </trkpt>
      <trkpt lat="43.08639" lon="-2.14837">
        <ele>371</ele>
        <time>2021-05-29 09:13:46</time>
      </trkpt>
      <trkpt lat="43.08638" lon="-2.14825">
        <ele>370.8</ele>
        <time>2021-05-29 09:13:47</time>
      </trkpt>
      <trkpt lat="43.08635" lon="-2.14814">
        <ele>371</ele>
        <time>2021-05-29 09:13:48</time>
      </trkpt>
      <trkpt lat="43.08632" lon="-2.14804">
        <ele>370.8</ele>
        <time>2021-05-29 09:13:49</time>
      </trkpt>
      <trkpt lat="43.08628" lon="-2.14794">
        <ele>370.8</ele>
        <time>2021-05-29 09:13:50</time>
      </trkpt>
      <trkpt lat="43.08625" lon="-2.14784">
        <ele>370.8</ele>
        <time>2021-05-29 09:13:51</time>
      </trkpt>
      <trkpt lat="43.08621" lon="-2.14775">
        <ele>370.8</ele>
        <time>2021-05-29 09:13:52</time>
      </trkpt>
      <trkpt lat="43.08617" lon="-2.14765">
        <ele>370.6</ele>
        <time>2021-05-29 09:13:53</time>
      </trkpt>
      <trkpt lat="43.08614" lon="-2.14755">
        <ele>370.6</ele>
        <time>2021-05-29 09:13:54</time>
      </trkpt>
      <trkpt lat="43.0861" lon="-2.14746">
        <ele>370.8</ele>
        <time>2021-05-29 09:13:55</time>
      </trkpt>
      <trkpt lat="43.08605" lon="-2.14737">
        <ele>370.8</ele>
        <time>2021-05-29 09:13:56</time>
      </trkpt>
      <trkpt lat="43.08601" lon="-2.14728">
        <ele>370.8</ele>
        <time>2021-05-29 09:13:57</time>
      </trkpt>
      <trkpt lat="43.08597" lon="-2.14719">
        <ele>370.6</ele>
        <time>2021-05-29 09:13:58</time>
      </trkpt>
      <trkpt lat="43.08593" lon="-2.1471">
        <ele>370.6</ele>
        <time>2021-05-29 09:13:59</time>
      </trkpt>
      <trkpt lat="43.08589" lon="-2.14702">
        <ele>370.6</ele>
        <time>2021-05-29 09:14:00</time>
      </trkpt>
      <trkpt lat="43.08586" lon="-2.14693">
        <ele>370.6</ele>
        <time>2021-05-29 09:14:01</time>
      </trkpt>
      <trkpt lat="43.08582" lon="-2.14684">
        <ele>370.4</ele>
        <time>2021-05-29 09:14:02</time>
      </trkpt>
      <trkpt lat="43.08578" lon="-2.14676">
        <ele>370.4</ele>
        <time>2021-05-29 09:14:03</time>
      </trkpt>
      <trkpt lat="43.08574" lon="-2.14667">
        <ele>370.6</ele>
        <time>2021-05-29 09:14:04</time>
      </trkpt>
      <trkpt lat="43.08571" lon="-2.14658">
        <ele>370.6</ele>
        <time>2021-05-29 09:14:05</time>
      </trkpt>
      <trkpt lat="43.08567" lon="-2.14649">
        <ele>370.6</ele>
        <time>2021-05-29 09:14:06</time>
      </trkpt>
      <trkpt lat="43.08564" lon="-2.1464">
        <ele>370.6</ele>
        <time>2021-05-29 09:14:07</time>
      </trkpt>
      <trkpt lat="43.0856" lon="-2.14631">
        <ele>370.4</ele>
        <time>2021-05-29 09:14:08</time>
      </trkpt>
      <trkpt lat="43.08556" lon="-2.14622">
        <ele>370.4</ele>
        <time>2021-05-29 09:14:09</time>
      </trkpt>
      <trkpt lat="43.08553" lon="-2.14613">
        <ele>370.4</ele>
        <time>2021-05-29 09:14:10</time>
      </trkpt>
      <trkpt lat="43.08549" lon="-2.14604">
        <ele>370.4</ele>
        <time>2021-05-29 09:14:11</time>
      </trkpt>
      <trkpt lat="43.08546" lon="-2.14596">
        <ele>370.6</ele>
        <time>2021-05-29 09:14:12</time>
      </trkpt>
      <trkpt lat="43.08542" lon="-2.14586">
        <ele>370.6</ele>
        <time>2021-05-29 09:14:13</time>
      </trkpt>
      <trkpt lat="43.08539" lon="-2.14577">
        <ele>370.4</ele>
        <time>2021-05-29 09:14:14</time>
      </trkpt>
      <trkpt lat="43.08535" lon="-2.14569">
        <ele>370.4</ele>
        <time>2021-05-29 09:14:15</time>
      </trkpt>
      <trkpt lat="43.08532" lon="-2.1456">
        <ele>370.4</ele>
        <time>2021-05-29 09:14:16</time>
      </trkpt>
      <trkpt lat="43.08528" lon="-2.14551">
        <ele>370.4</ele>
        <time>2021-05-29 09:14:17</time>
      </trkpt>
      <trkpt lat="43.08524" lon="-2.14542">
        <ele>370.4</ele>
        <time>2021-05-29 09:14:18</time>
      </trkpt>
      <trkpt lat="43.0852" lon="-2.14533">
        <ele>370.4</ele>
        <time>2021-05-29 09:14:19</time>
      </trkpt>
      <trkpt lat="43.08516" lon="-2.14525">
        <ele>370.4</ele>
        <time>2021-05-29 09:14:20</time>
      </trkpt>
      <trkpt lat="43.08512" lon="-2.14517">
        <ele>370.4</ele>
        <time>2021-05-29 09:14:21</time>
      </trkpt>
      <trkpt lat="43.08508" lon="-2.14508">
        <ele>370.4</ele>
        <time>2021-05-29 09:14:22</time>
      </trkpt>
      <trkpt lat="43.08504" lon="-2.145">
        <ele>370.4</ele>
        <time>2021-05-29 09:14:23</time>
      </trkpt>
      <trkpt lat="43.085" lon="-2.14492">
        <ele>370.2</ele>
        <time>2021-05-29 09:14:24</time>
      </trkpt>
      <trkpt lat="43.08495" lon="-2.14484">
        <ele>370.4</ele>
        <time>2021-05-29 09:14:25</time>
      </trkpt>
      <trkpt lat="43.08491" lon="-2.14476">
        <ele>370.2</ele>
        <time>2021-05-29 09:14:26</time>
      </trkpt>
      <trkpt lat="43.08487" lon="-2.14468">
        <ele>370.2</ele>
        <time>2021-05-29 09:14:27</time>
      </trkpt>
      <trkpt lat="43.08483" lon="-2.1446">
        <ele>370.2</ele>
        <time>2021-05-29 09:14:28</time>
      </trkpt>
      <trkpt lat="43.08478" lon="-2.14452">
        <ele>370.2</ele>
        <time>2021-05-29 09:14:29</time>
      </trkpt>
      <trkpt lat="43.08474" lon="-2.14443">
        <ele>370.2</ele>
        <time>2021-05-29 09:14:30</time>
      </trkpt>
      <trkpt lat="43.08471" lon="-2.14434">
        <ele>370</ele>
        <time>2021-05-29 09:14:31</time>
      </trkpt>
      <trkpt lat="43.08467" lon="-2.14425">
        <ele>370</ele>
        <time>2021-05-29 09:14:32</time>
      </trkpt>
      <trkpt lat="43.08463" lon="-2.14416">
        <ele>370</ele>
        <time>2021-05-29 09:14:33</time>
      </trkpt>
      <trkpt lat="43.08459" lon="-2.14406">
        <ele>370</ele>
        <time>2021-05-29 09:14:34</time>
      </trkpt>
      <trkpt lat="43.08455" lon="-2.14397">
        <ele>370</ele>
        <time>2021-05-29 09:14:35</time>
      </trkpt>
      <trkpt lat="43.08451" lon="-2.14388">
        <ele>370</ele>
        <time>2021-05-29 09:14:36</time>
      </trkpt>
      <trkpt lat="43.08447" lon="-2.14379">
        <ele>369.8</ele>
        <time>2021-05-29 09:14:37</time>
      </trkpt>
      <trkpt lat="43.08443" lon="-2.14369">
        <ele>370</ele>
        <time>2021-05-29 09:14:38</time>
      </trkpt>
      <trkpt lat="43.0844" lon="-2.14359">
        <ele>369.8</ele>
        <time>2021-05-29 09:14:39</time>
      </trkpt>
      <trkpt lat="43.08438" lon="-2.14348">
        <ele>369.8</ele>
        <time>2021-05-29 09:14:40</time>
      </trkpt>
      <trkpt lat="43.08437" lon="-2.14336">
        <ele>369.8</ele>
        <time>2021-05-29 09:14:41</time>
      </trkpt>
      <trkpt lat="43.08437" lon="-2.14324">
        <ele>370</ele>
        <time>2021-05-29 09:14:42</time>
      </trkpt>
      <trkpt lat="43.08438" lon="-2.14312">
        <ele>370</ele>
        <time>2021-05-29 09:14:43</time>
      </trkpt>
      <trkpt lat="43.0844" lon="-2.14299">
        <ele>369.8</ele>
        <time>2021-05-29 09:14:44</time>
      </trkpt>
      <trkpt lat="43.08444" lon="-2.14286">
        <ele>369.6</ele>
        <time>2021-05-29 09:14:45</time>
      </trkpt>
      <trkpt lat="43.08449" lon="-2.14273">
        <ele>369.4</ele>
        <time>2021-05-29 09:14:46</time>
      </trkpt>
      <trkpt lat="43.08455" lon="-2.14261">
        <ele>369.4</ele>
        <time>2021-05-29 09:14:47</time>
      </trkpt>
      <trkpt lat="43.08461" lon="-2.14249">
        <ele>369.2</ele>
        <time>2021-05-29 09:14:48</time>
      </trkpt>
      <trkpt lat="43.08468" lon="-2.14236">
        <ele>369.2</ele>
        <time>2021-05-29 09:14:49</time>
      </trkpt>
      <trkpt lat="43.08475" lon="-2.14224">
        <ele>369</ele>
        <time>2021-05-29 09:14:50</time>
      </trkpt>
      <trkpt lat="43.08482" lon="-2.14211">
        <ele>368.8</ele>
        <time>2021-05-29 09:14:51</time>
      </trkpt>
      <trkpt lat="43.08488" lon="-2.14198">
        <ele>368.6</ele>
        <time>2021-05-29 09:14:52</time>
      </trkpt>
      <trkpt lat="43.08495" lon="-2.14185">
        <ele>368.6</ele>
        <time>2021-05-29 09:14:53</time>
      </trkpt>
      <trkpt lat="43.08502" lon="-2.14172">
        <ele>368.4</ele>
        <time>2021-05-29 09:14:54</time>
      </trkpt>
      <trkpt lat="43.08509" lon="-2.14159">
        <ele>368.2</ele>
        <time>2021-05-29 09:14:55</time>
      </trkpt>
      <trkpt lat="43.08516" lon="-2.14147">
        <ele>368</ele>
        <time>2021-05-29 09:14:56</time>
      </trkpt>
      <trkpt lat="43.08522" lon="-2.14134">
        <ele>367.8</ele>
        <time>2021-05-29 09:14:57</time>
      </trkpt>
      <trkpt lat="43.08528" lon="-2.14122">
        <ele>367.6</ele>
        <time>2021-05-29 09:14:58</time>
      </trkpt>
      <trkpt lat="43.08534" lon="-2.14109">
        <ele>367.4</ele>
        <time>2021-05-29 09:14:59</time>
      </trkpt>
      <trkpt lat="43.08538" lon="-2.14096">
        <ele>367.2</ele>
        <time>2021-05-29 09:15:00</time>
      </trkpt>
      <trkpt lat="43.08541" lon="-2.14082">
        <ele>366.8</ele>
        <time>2021-05-29 09:15:01</time>
      </trkpt>
      <trkpt lat="43.08543" lon="-2.14069">
        <ele>366.6</ele>
        <time>2021-05-29 09:15:02</time>
      </trkpt>
      <trkpt lat="43.08542" lon="-2.14055">
        <ele>366.6</ele>
        <time>2021-05-29 09:15:03</time>
      </trkpt>
      <trkpt lat="43.08542" lon="-2.14043">
        <ele>366.2</ele>
        <time>2021-05-29 09:15:04</time>
      </trkpt>
      <trkpt lat="43.08545" lon="-2.14032">
        <ele>366</ele>
        <time>2021-05-29 09:15:05</time>
      </trkpt>
      <trkpt lat="43.08551" lon="-2.14023">
        <ele>365.8</ele>
        <time>2021-05-29 09:15:06</time>
      </trkpt>
      <trkpt lat="43.0856" lon="-2.14019">
        <ele>365.8</ele>
        <time>2021-05-29 09:15:07</time>
      </trkpt>
      <trkpt lat="43.08569" lon="-2.14019">
        <ele>365.6</ele>
        <time>2021-05-29 09:15:08</time>
      </trkpt>
      <trkpt lat="43.08577" lon="-2.14019">
        <ele>365.4</ele>
        <time>2021-05-29 09:15:09</time>
      </trkpt>
      <trkpt lat="43.08585" lon="-2.14016">
        <ele>365.2</ele>
        <time>2021-05-29 09:15:10</time>
      </trkpt>
      <trkpt lat="43.08591" lon="-2.14009">
        <ele>365</ele>
        <time>2021-05-29 09:15:11</time>
      </trkpt>
      <trkpt lat="43.08596" lon="-2.14">
        <ele>365</ele>
        <time>2021-05-29 09:15:12</time>
      </trkpt>
      <trkpt lat="43.08602" lon="-2.1399">
        <ele>365</ele>
        <time>2021-05-29 09:15:13</time>
      </trkpt>
      <trkpt lat="43.08607" lon="-2.1398">
        <ele>364.8</ele>
        <time>2021-05-29 09:15:14</time>
      </trkpt>
      <trkpt lat="43.08612" lon="-2.13969">
        <ele>364.6</ele>
        <time>2021-05-29 09:15:15</time>
      </trkpt>
      <trkpt lat="43.08616" lon="-2.13959">
        <ele>364.4</ele>
        <time>2021-05-29 09:15:16</time>
      </trkpt>
      <trkpt lat="43.08621" lon="-2.13948">
        <ele>364.4</ele>
        <time>2021-05-29 09:15:17</time>
      </trkpt>
      <trkpt lat="43.08626" lon="-2.13937">
        <ele>364.4</ele>
        <time>2021-05-29 09:15:18</time>
      </trkpt>
      <trkpt lat="43.0863" lon="-2.13926">
        <ele>364.2</ele>
        <time>2021-05-29 09:15:19</time>
      </trkpt>
      <trkpt lat="43.08635" lon="-2.13915">
        <ele>364</ele>
        <time>2021-05-29 09:15:20</time>
      </trkpt>
      <trkpt lat="43.08639" lon="-2.13904">
        <ele>364</ele>
        <time>2021-05-29 09:15:21</time>
      </trkpt>
      <trkpt lat="43.08644" lon="-2.13893">
        <ele>364</ele>
        <time>2021-05-29 09:15:22</time>
      </trkpt>
      <trkpt lat="43.08648" lon="-2.13881">
        <ele>363.8</ele>
        <time>2021-05-29 09:15:23</time>
      </trkpt>
      <trkpt lat="43.08653" lon="-2.1387">
        <ele>363.6</ele>
        <time>2021-05-29 09:15:24</time>
      </trkpt>
      <trkpt lat="43.08657" lon="-2.13859">
        <ele>363.6</ele>
        <time>2021-05-29 09:15:25</time>
      </trkpt>
      <trkpt lat="43.08662" lon="-2.13848">
        <ele>363.4</ele>
        <time>2021-05-29 09:15:26</time>
      </trkpt>
      <trkpt lat="43.08666" lon="-2.13836">
        <ele>363.2</ele>
        <time>2021-05-29 09:15:27</time>
      </trkpt>
      <trkpt lat="43.08671" lon="-2.13825">
        <ele>363.4</ele>
        <time>2021-05-29 09:15:28</time>
      </trkpt>
      <trkpt lat="43.08676" lon="-2.13813">
        <ele>363</ele>
        <time>2021-05-29 09:15:29</time>
      </trkpt>
      <trkpt lat="43.0868" lon="-2.13802">
        <ele>362.8</ele>
        <time>2021-05-29 09:15:30</time>
      </trkpt>
      <trkpt lat="43.08685" lon="-2.13791">
        <ele>362.6</ele>
        <time>2021-05-29 09:15:31</time>
      </trkpt>
      <trkpt lat="43.0869" lon="-2.13779">
        <ele>362.6</ele>
        <time>2021-05-29 09:15:32</time>
      </trkpt>
      <trkpt lat="43.08694" lon="-2.13768">
        <ele>362.6</ele>
        <time>2021-05-29 09:15:33</time>
      </trkpt>
      <trkpt lat="43.08698" lon="-2.13757">
        <ele>362.4</ele>
        <time>2021-05-29 09:15:34</time>
      </trkpt>
      <trkpt lat="43.08703" lon="-2.13745">
        <ele>362.4</ele>
        <time>2021-05-29 09:15:35</time>
      </trkpt>
      <trkpt lat="43.08707" lon="-2.13734">
        <ele>362.4</ele>
        <time>2021-05-29 09:15:36</time>
      </trkpt>
      <trkpt lat="43.08711" lon="-2.13722">
        <ele>362.2</ele>
        <time>2021-05-29 09:15:37</time>
      </trkpt>
      <trkpt lat="43.08715" lon="-2.1371">
        <ele>362</ele>
        <time>2021-05-29 09:15:38</time>
      </trkpt>
      <trkpt lat="43.08719" lon="-2.13698">
        <ele>361.8</ele>
        <time>2021-05-29 09:15:39</time>
      </trkpt>
      <trkpt lat="43.08724" lon="-2.13687">
        <ele>361.6</ele>
        <time>2021-05-29 09:15:40</time>
      </trkpt>
      <trkpt lat="43.08728" lon="-2.13675">
        <ele>361.6</ele>
        <time>2021-05-29 09:15:41</time>
      </trkpt>
      <trkpt lat="43.08732" lon="-2.13663">
        <ele>361.6</ele>
        <time>2021-05-29 09:15:42</time>
      </trkpt>
      <trkpt lat="43.08736" lon="-2.13651">
        <ele>361.6</ele>
        <time>2021-05-29 09:15:43</time>
      </trkpt>
      <trkpt lat="43.08741" lon="-2.13639">
        <ele>361.4</ele>
        <time>2021-05-29 09:15:44</time>
      </trkpt>
      <trkpt lat="43.08745" lon="-2.13627">
        <ele>361.4</ele>
        <time>2021-05-29 09:15:45</time>
      </trkpt>
      <trkpt lat="43.0875" lon="-2.13615">
        <ele>361.4</ele>
        <time>2021-05-29 09:15:46</time>
      </trkpt>
      <trkpt lat="43.08754" lon="-2.13603">
        <ele>361.4</ele>
        <time>2021-05-29 09:15:47</time>
      </trkpt>
      <trkpt lat="43.08759" lon="-2.13591">
        <ele>361.4</ele>
        <time>2021-05-29 09:15:48</time>
      </trkpt>
      <trkpt lat="43.08763" lon="-2.1358">
        <ele>361.2</ele>
        <time>2021-05-29 09:15:49</time>
      </trkpt>
      <trkpt lat="43.08767" lon="-2.13568">
        <ele>361</ele>
        <time>2021-05-29 09:15:50</time>
      </trkpt>
      <trkpt lat="43.08771" lon="-2.13556">
        <ele>360.8</ele>
        <time>2021-05-29 09:15:51</time>
      </trkpt>
      <trkpt lat="43.08776" lon="-2.13544">
        <ele>361</ele>
        <time>2021-05-29 09:15:52</time>
      </trkpt>
      <trkpt lat="43.0878" lon="-2.13532">
        <ele>360.8</ele>
        <time>2021-05-29 09:15:53</time>
      </trkpt>
      <trkpt lat="43.08785" lon="-2.13521">
        <ele>360.6</ele>
        <time>2021-05-29 09:15:54</time>
      </trkpt>
      <trkpt lat="43.08789" lon="-2.13509">
        <ele>360.6</ele>
        <time>2021-05-29 09:15:55</time>
      </trkpt>
      <trkpt lat="43.08794" lon="-2.13497">
        <ele>360.6</ele>
        <time>2021-05-29 09:15:56</time>
      </trkpt>
      <trkpt lat="43.08798" lon="-2.13486">
        <ele>360.4</ele>
        <time>2021-05-29 09:15:57</time>
      </trkpt>
      <trkpt lat="43.08802" lon="-2.13474">
        <ele>360.4</ele>
        <time>2021-05-29 09:15:58</time>
      </trkpt>
      <trkpt lat="43.08807" lon="-2.13463">
        <ele>360.4</ele>
        <time>2021-05-29 09:15:59</time>
      </trkpt>
      <trkpt lat="43.08811" lon="-2.13451">
        <ele>360.4</ele>
        <time>2021-05-29 09:16:00</time>
      </trkpt>
      <trkpt lat="43.08815" lon="-2.1344">
        <ele>360.4</ele>
        <time>2021-05-29 09:16:01</time>
      </trkpt>
      <trkpt lat="43.08819" lon="-2.13428">
        <ele>360.4</ele>
        <time>2021-05-29 09:16:02</time>
      </trkpt>
      <trkpt lat="43.08823" lon="-2.13417">
        <ele>360.4</ele>
        <time>2021-05-29 09:16:03</time>
      </trkpt>
      <trkpt lat="43.08828" lon="-2.13405">
        <ele>360.4</ele>
        <time>2021-05-29 09:16:04</time>
      </trkpt>
      <trkpt lat="43.08832" lon="-2.13393">
        <ele>360.2</ele>
        <time>2021-05-29 09:16:05</time>
      </trkpt>
      <trkpt lat="43.08836" lon="-2.13381">
        <ele>360</ele>
        <time>2021-05-29 09:16:06</time>
      </trkpt>
      <trkpt lat="43.0884" lon="-2.1337">
        <ele>360</ele>
        <time>2021-05-29 09:16:07</time>
      </trkpt>
      <trkpt lat="43.08844" lon="-2.13358">
        <ele>360</ele>
        <time>2021-05-29 09:16:08</time>
      </trkpt>
      <trkpt lat="43.08847" lon="-2.13345">
        <ele>360</ele>
        <time>2021-05-29 09:16:09</time>
      </trkpt>
      <trkpt lat="43.0885" lon="-2.13333">
        <ele>359.8</ele>
        <time>2021-05-29 09:16:10</time>
      </trkpt>
      <trkpt lat="43.08854" lon="-2.13321">
        <ele>359.8</ele>
        <time>2021-05-29 09:16:11</time>
      </trkpt>
      <trkpt lat="43.08857" lon="-2.13309">
        <ele>359.8</ele>
        <time>2021-05-29 09:16:12</time>
      </trkpt>
      <trkpt lat="43.08861" lon="-2.13297">
        <ele>359.8</ele>
        <time>2021-05-29 09:16:13</time>
      </trkpt>
      <trkpt lat="43.08863" lon="-2.13285">
        <ele>359.8</ele>
        <time>2021-05-29 09:16:14</time>
      </trkpt>
      <trkpt lat="43.08866" lon="-2.13273">
        <ele>359.8</ele>
        <time>2021-05-29 09:16:15</time>
      </trkpt>
      <trkpt lat="43.08868" lon="-2.13261">
        <ele>360</ele>
        <time>2021-05-29 09:16:16</time>
      </trkpt>
      <trkpt lat="43.0887" lon="-2.13248">
        <ele>360</ele>
        <time>2021-05-29 09:16:17</time>
      </trkpt>
      <trkpt lat="43.08871" lon="-2.13236">
        <ele>360</ele>
        <time>2021-05-29 09:16:18</time>
      </trkpt>
      <trkpt lat="43.08873" lon="-2.13224">
        <ele>359.8</ele>
        <time>2021-05-29 09:16:19</time>
      </trkpt>
      <trkpt lat="43.08873" lon="-2.13212">
        <ele>360</ele>
        <time>2021-05-29 09:16:20</time>
      </trkpt>
      <trkpt lat="43.08873" lon="-2.132">
        <ele>360</ele>
        <time>2021-05-29 09:16:21</time>
      </trkpt>
      <trkpt lat="43.08872" lon="-2.13189">
        <ele>360</ele>
        <time>2021-05-29 09:16:22</time>
      </trkpt>
      <trkpt lat="43.0887" lon="-2.13177">
        <ele>360</ele>
        <time>2021-05-29 09:16:23</time>
      </trkpt>
      <trkpt lat="43.08868" lon="-2.13165">
        <ele>360</ele>
        <time>2021-05-29 09:16:24</time>
      </trkpt>
      <trkpt lat="43.08865" lon="-2.13154">
        <ele>360</ele>
        <time>2021-05-29 09:16:25</time>
      </trkpt>
      <trkpt lat="43.08862" lon="-2.13142">
        <ele>359.8</ele>
        <time>2021-05-29 09:16:26</time>
      </trkpt>
      <trkpt lat="43.08858" lon="-2.13131">
        <ele>359.8</ele>
        <time>2021-05-29 09:16:27</time>
      </trkpt>
      <trkpt lat="43.08854" lon="-2.13119">
        <ele>359.8</ele>
        <time>2021-05-29 09:16:28</time>
      </trkpt>
      <trkpt lat="43.0885" lon="-2.13108">
        <ele>360</ele>
        <time>2021-05-29 09:16:29</time>
      </trkpt>
      <trkpt lat="43.08845" lon="-2.13098">
        <ele>359.8</ele>
        <time>2021-05-29 09:16:30</time>
      </trkpt>
      <trkpt lat="43.08839" lon="-2.13088">
        <ele>359.8</ele>
        <time>2021-05-29 09:16:31</time>
      </trkpt>
      <trkpt lat="43.08833" lon="-2.13079">
        <ele>359.8</ele>
        <time>2021-05-29 09:16:32</time>
      </trkpt>
      <trkpt lat="43.08827" lon="-2.13069">
        <ele>360</ele>
        <time>2021-05-29 09:16:33</time>
      </trkpt>
      <trkpt lat="43.0882" lon="-2.13061">
        <ele>359.8</ele>
        <time>2021-05-29 09:16:34</time>
      </trkpt>
      <trkpt lat="43.08813" lon="-2.13052">
        <ele>359.8</ele>
        <time>2021-05-29 09:16:35</time>
      </trkpt>
      <trkpt lat="43.08806" lon="-2.13043">
        <ele>360</ele>
        <time>2021-05-29 09:16:36</time>
      </trkpt>
      <trkpt lat="43.08798" lon="-2.13036">
        <ele>360</ele>
        <time>2021-05-29 09:16:37</time>
      </trkpt>
      <trkpt lat="43.0879" lon="-2.1303">
        <ele>360</ele>
        <time>2021-05-29 09:16:38</time>
      </trkpt>
      <trkpt lat="43.08782" lon="-2.13023">
        <ele>360</ele>
        <time>2021-05-29 09:16:39</time>
      </trkpt>
      <trkpt lat="43.08774" lon="-2.13018">
        <ele>359.8</ele>
        <time>2021-05-29 09:16:40</time>
      </trkpt>
      <trkpt lat="43.08765" lon="-2.13012">
        <ele>360</ele>
        <time>2021-05-29 09:16:41</time>
      </trkpt>
      <trkpt lat="43.08757" lon="-2.13006">
        <ele>360</ele>
        <time>2021-05-29 09:16:42</time>
      </trkpt>
      <trkpt lat="43.08749" lon="-2.13">
        <ele>360</ele>
        <time>2021-05-29 09:16:43</time>
      </trkpt>
      <trkpt lat="43.08741" lon="-2.12994">
        <ele>360</ele>
        <time>2021-05-29 09:16:44</time>
      </trkpt>
      <trkpt lat="43.08733" lon="-2.12988">
        <ele>360</ele>
        <time>2021-05-29 09:16:45</time>
      </trkpt>
      <trkpt lat="43.08725" lon="-2.12982">
        <ele>360</ele>
        <time>2021-05-29 09:16:46</time>
      </trkpt>
      <trkpt lat="43.08717" lon="-2.12976">
        <ele>360</ele>
        <time>2021-05-29 09:16:47</time>
      </trkpt>
      <trkpt lat="43.08709" lon="-2.12969">
        <ele>360.2</ele>
        <time>2021-05-29 09:16:48</time>
      </trkpt>
      <trkpt lat="43.08701" lon="-2.12963">
        <ele>360.2</ele>
        <time>2021-05-29 09:16:49</time>
      </trkpt>
      <trkpt lat="43.08693" lon="-2.12957">
        <ele>360.2</ele>
        <time>2021-05-29 09:16:50</time>
      </trkpt>
      <trkpt lat="43.08685" lon="-2.12951">
        <ele>360.2</ele>
        <time>2021-05-29 09:16:51</time>
      </trkpt>
      <trkpt lat="43.08677" lon="-2.12944">
        <ele>360.4</ele>
        <time>2021-05-29 09:16:52</time>
      </trkpt>
      <trkpt lat="43.08669" lon="-2.12938">
        <ele>360.4</ele>
        <time>2021-05-29 09:16:53</time>
      </trkpt>
      <trkpt lat="43.0866" lon="-2.12931">
        <ele>360.4</ele>
        <time>2021-05-29 09:16:54</time>
      </trkpt>
      <trkpt lat="43.08652" lon="-2.12925">
        <ele>360.4</ele>
        <time>2021-05-29 09:16:55</time>
      </trkpt>
      <trkpt lat="43.08644" lon="-2.12918">
        <ele>360.4</ele>
        <time>2021-05-29 09:16:56</time>
      </trkpt>
      <trkpt lat="43.08636" lon="-2.12911">
        <ele>360.4</ele>
        <time>2021-05-29 09:16:57</time>
      </trkpt>
      <trkpt lat="43.08627" lon="-2.12904">
        <ele>360.4</ele>
        <time>2021-05-29 09:16:58</time>
      </trkpt>
      <trkpt lat="43.08619" lon="-2.12897">
        <ele>360.8</ele>
        <time>2021-05-29 09:16:59</time>
      </trkpt>
      <trkpt lat="43.08611" lon="-2.1289">
        <ele>361</ele>
        <time>2021-05-29 09:17:00</time>
      </trkpt>
      <trkpt lat="43.08602" lon="-2.12884">
        <ele>361</ele>
        <time>2021-05-29 09:17:01</time>
      </trkpt>
      <trkpt lat="43.08594" lon="-2.12876">
        <ele>361</ele>
        <time>2021-05-29 09:17:02</time>
      </trkpt>
      <trkpt lat="43.08586" lon="-2.12869">
        <ele>361.4</ele>
        <time>2021-05-29 09:17:03</time>
      </trkpt>
      <trkpt lat="43.08577" lon="-2.12862">
        <ele>361.4</ele>
        <time>2021-05-29 09:17:04</time>
      </trkpt>
      <trkpt lat="43.08569" lon="-2.12856">
        <ele>361.4</ele>
        <time>2021-05-29 09:17:05</time>
      </trkpt>
      <trkpt lat="43.08561" lon="-2.12849">
        <ele>361.4</ele>
        <time>2021-05-29 09:17:06</time>
      </trkpt>
      <trkpt lat="43.08553" lon="-2.12842">
        <ele>361.4</ele>
        <time>2021-05-29 09:17:07</time>
      </trkpt>
      <trkpt lat="43.08545" lon="-2.12836">
        <ele>361.6</ele>
        <time>2021-05-29 09:17:08</time>
      </trkpt>
      <trkpt lat="43.08537" lon="-2.1283">
        <ele>361.6</ele>
        <time>2021-05-29 09:17:09</time>
      </trkpt>
      <trkpt lat="43.08528" lon="-2.12825">
        <ele>361.8</ele>
        <time>2021-05-29 09:17:10</time>
      </trkpt>
      <trkpt lat="43.08521" lon="-2.1282">
        <ele>361.8</ele>
        <time>2021-05-29 09:17:11</time>
      </trkpt>
      <trkpt lat="43.08513" lon="-2.12815">
        <ele>361.8</ele>
        <time>2021-05-29 09:17:12</time>
      </trkpt>
      <trkpt lat="43.08506" lon="-2.1281">
        <ele>362</ele>
        <time>2021-05-29 09:17:13</time>
      </trkpt>
      <trkpt lat="43.08499" lon="-2.12804">
        <ele>362</ele>
        <time>2021-05-29 09:17:14</time>
      </trkpt>
      <trkpt lat="43.08492" lon="-2.12797">
        <ele>362.2</ele>
        <time>2021-05-29 09:17:15</time>
      </trkpt>
      <trkpt lat="43.08487" lon="-2.1279">
        <ele>362.2</ele>
        <time>2021-05-29 09:17:16</time>
      </trkpt>
      <trkpt lat="43.08482" lon="-2.12782">
        <ele>362.4</ele>
        <time>2021-05-29 09:17:17</time>
      </trkpt>
      <trkpt lat="43.08477" lon="-2.12774">
        <ele>362.6</ele>
        <time>2021-05-29 09:17:18</time>
      </trkpt>
      <trkpt lat="43.08473" lon="-2.12765">
        <ele>362.8</ele>
        <time>2021-05-29 09:17:19</time>
      </trkpt>
      <trkpt lat="43.08469" lon="-2.12755">
        <ele>362.8</ele>
        <time>2021-05-29 09:17:20</time>
      </trkpt>
      <trkpt lat="43.08467" lon="-2.12746">
        <ele>362.8</ele>
        <time>2021-05-29 09:17:21</time>
      </trkpt>
      <trkpt lat="43.08464" lon="-2.12736">
        <ele>362.8</ele>
        <time>2021-05-29 09:17:22</time>
      </trkpt>
      <trkpt lat="43.08463" lon="-2.12725">
        <ele>363.2</ele>
        <time>2021-05-29 09:17:23</time>
      </trkpt>
      <trkpt lat="43.08462" lon="-2.12714">
        <ele>363.2</ele>
        <time>2021-05-29 09:17:24</time>
      </trkpt>
      <trkpt lat="43.08462" lon="-2.12702">
        <ele>363.4</ele>
        <time>2021-05-29 09:17:25</time>
      </trkpt>
      <trkpt lat="43.08462" lon="-2.12691">
        <ele>363.4</ele>
        <time>2021-05-29 09:17:26</time>
      </trkpt>
      <trkpt lat="43.08461" lon="-2.12679">
        <ele>363.4</ele>
        <time>2021-05-29 09:17:27</time>
      </trkpt>
      <trkpt lat="43.08461" lon="-2.12668">
        <ele>363.8</ele>
        <time>2021-05-29 09:17:28</time>
      </trkpt>
      <trkpt lat="43.08461" lon="-2.12656">
        <ele>363.8</ele>
        <time>2021-05-29 09:17:29</time>
      </trkpt>
      <trkpt lat="43.08461" lon="-2.12644">
        <ele>363.8</ele>
        <time>2021-05-29 09:17:30</time>
      </trkpt>
      <trkpt lat="43.08461" lon="-2.12633">
        <ele>363.8</ele>
        <time>2021-05-29 09:17:31</time>
      </trkpt>
      <trkpt lat="43.08461" lon="-2.12621">
        <ele>363.8</ele>
        <time>2021-05-29 09:17:32</time>
      </trkpt>
      <trkpt lat="43.08462" lon="-2.1261">
        <ele>363.8</ele>
        <time>2021-05-29 09:17:33</time>
      </trkpt>
      <trkpt lat="43.08462" lon="-2.12599">
        <ele>363.8</ele>
        <time>2021-05-29 09:17:34</time>
      </trkpt>
      <trkpt lat="43.08464" lon="-2.12588">
        <ele>363.8</ele>
        <time>2021-05-29 09:17:35</time>
      </trkpt>
      <trkpt lat="43.08466" lon="-2.12577">
        <ele>363.8</ele>
        <time>2021-05-29 09:17:36</time>
      </trkpt>
      <trkpt lat="43.08468" lon="-2.12567">
        <ele>363.8</ele>
        <time>2021-05-29 09:17:37</time>
      </trkpt>
      <trkpt lat="43.08472" lon="-2.12557">
        <ele>363.8</ele>
        <time>2021-05-29 09:17:38</time>
      </trkpt>
      <trkpt lat="43.08475" lon="-2.12546">
        <ele>363.8</ele>
        <time>2021-05-29 09:17:39</time>
      </trkpt>
      <trkpt lat="43.08479" lon="-2.12536">
        <ele>364</ele>
        <time>2021-05-29 09:17:40</time>
      </trkpt>
      <trkpt lat="43.08484" lon="-2.12526">
        <ele>363.8</ele>
        <time>2021-05-29 09:17:41</time>
      </trkpt>
      <trkpt lat="43.08488" lon="-2.12516">
        <ele>363.8</ele>
        <time>2021-05-29 09:17:42</time>
      </trkpt>
      <trkpt lat="43.08492" lon="-2.12507">
        <ele>363.8</ele>
        <time>2021-05-29 09:17:43</time>
      </trkpt>
      <trkpt lat="43.08497" lon="-2.12497">
        <ele>363.8</ele>
        <time>2021-05-29 09:17:44</time>
      </trkpt>
      <trkpt lat="43.08501" lon="-2.12488">
        <ele>363.6</ele>
        <time>2021-05-29 09:17:45</time>
      </trkpt>
      <trkpt lat="43.08507" lon="-2.12479">
        <ele>363.8</ele>
        <time>2021-05-29 09:17:46</time>
      </trkpt>
      <trkpt lat="43.08512" lon="-2.12471">
        <ele>363.6</ele>
        <time>2021-05-29 09:17:47</time>
      </trkpt>
      <trkpt lat="43.08518" lon="-2.12463">
        <ele>363.6</ele>
        <time>2021-05-29 09:17:48</time>
      </trkpt>
      <trkpt lat="43.08524" lon="-2.12456">
        <ele>363.6</ele>
        <time>2021-05-29 09:17:49</time>
      </trkpt>
      <trkpt lat="43.08531" lon="-2.12449">
        <ele>363.6</ele>
        <time>2021-05-29 09:17:50</time>
      </trkpt>
      <trkpt lat="43.08537" lon="-2.12443">
        <ele>363.4</ele>
        <time>2021-05-29 09:17:51</time>
      </trkpt>
      <trkpt lat="43.08544" lon="-2.12437">
        <ele>363.4</ele>
        <time>2021-05-29 09:17:52</time>
      </trkpt>
      <trkpt lat="43.0855" lon="-2.12431">
        <ele>363.6</ele>
        <time>2021-05-29 09:17:53</time>
      </trkpt>
      <trkpt lat="43.08557" lon="-2.12425">
        <ele>363.6</ele>
        <time>2021-05-29 09:17:54</time>
      </trkpt>
      <trkpt lat="43.08564" lon="-2.1242">
        <ele>363.4</ele>
        <time>2021-05-29 09:17:55</time>
      </trkpt>
      <trkpt lat="43.08571" lon="-2.12414">
        <ele>363.6</ele>
        <time>2021-05-29 09:17:56</time>
      </trkpt>
      <trkpt lat="43.08578" lon="-2.12408">
        <ele>363.4</ele>
        <time>2021-05-29 09:17:57</time>
      </trkpt>
      <trkpt lat="43.08585" lon="-2.12403">
        <ele>363.4</ele>
        <time>2021-05-29 09:17:58</time>
      </trkpt>
      <trkpt lat="43.08593" lon="-2.12397">
        <ele>363.2</ele>
        <time>2021-05-29 09:17:59</time>
      </trkpt>
      <trkpt lat="43.086" lon="-2.12391">
        <ele>363</ele>
        <time>2021-05-29 09:18:00</time>
      </trkpt>
      <trkpt lat="43.08608" lon="-2.12385">
        <ele>363</ele>
        <time>2021-05-29 09:18:01</time>
      </trkpt>
      <trkpt lat="43.08615" lon="-2.12379">
        <ele>363</ele>
        <time>2021-05-29 09:18:02</time>
      </trkpt>
      <trkpt lat="43.08623" lon="-2.12373">
        <ele>363</ele>
        <time>2021-05-29 09:18:03</time>
      </trkpt>
      <trkpt lat="43.0863" lon="-2.12367">
        <ele>362.8</ele>
        <time>2021-05-29 09:18:04</time>
      </trkpt>
      <trkpt lat="43.08637" lon="-2.12361">
        <ele>362.8</ele>
        <time>2021-05-29 09:18:05</time>
      </trkpt>
      <trkpt lat="43.08644" lon="-2.12356">
        <ele>362.8</ele>
        <time>2021-05-29 09:18:06</time>
      </trkpt>
      <trkpt lat="43.08652" lon="-2.1235">
        <ele>362.8</ele>
        <time>2021-05-29 09:18:07</time>
      </trkpt>
      <trkpt lat="43.08659" lon="-2.12345">
        <ele>362.6</ele>
        <time>2021-05-29 09:18:08</time>
      </trkpt>
      <trkpt lat="43.08667" lon="-2.12341">
        <ele>362.4</ele>
        <time>2021-05-29 09:18:09</time>
      </trkpt>
      <trkpt lat="43.08674" lon="-2.12338">
        <ele>362.4</ele>
        <time>2021-05-29 09:18:10</time>
      </trkpt>
      <trkpt lat="43.08682" lon="-2.12335">
        <ele>362.2</ele>
        <time>2021-05-29 09:18:11</time>
      </trkpt>
      <trkpt lat="43.0869" lon="-2.12332">
        <ele>362.2</ele>
        <time>2021-05-29 09:18:12</time>
      </trkpt>
      <trkpt lat="43.08698" lon="-2.12331">
        <ele>362</ele>
        <time>2021-05-29 09:18:13</time>
      </trkpt>
      <trkpt lat="43.08707" lon="-2.12331">
        <ele>362</ele>
        <time>2021-05-29 09:18:14</time>
      </trkpt>
      <trkpt lat="43.08715" lon="-2.12331">
        <ele>361.8</ele>
        <time>2021-05-29 09:18:15</time>
      </trkpt>
      <trkpt lat="43.08723" lon="-2.12333">
        <ele>361.6</ele>
        <time>2021-05-29 09:18:16</time>
      </trkpt>
      <trkpt lat="43.08732" lon="-2.12335">
        <ele>361.6</ele>
        <time>2021-05-29 09:18:17</time>
      </trkpt>
      <trkpt lat="43.08739" lon="-2.12337">
        <ele>361.6</ele>
        <time>2021-05-29 09:18:18</time>
      </trkpt>
      <trkpt lat="43.08747" lon="-2.1234">
        <ele>361.4</ele>
        <time>2021-05-29 09:18:19</time>
      </trkpt>
      <trkpt lat="43.08755" lon="-2.12344">
        <ele>361.4</ele>
        <time>2021-05-29 09:18:20</time>
      </trkpt>
      <trkpt lat="43.08763" lon="-2.12347">
        <ele>361.4</ele>
        <time>2021-05-29 09:18:21</time>
      </trkpt>
      <trkpt lat="43.0877" lon="-2.1235">
        <ele>361.4</ele>
        <time>2021-05-29 09:18:22</time>
      </trkpt>
      <trkpt lat="43.08778" lon="-2.12353">
        <ele>361.2</ele>
        <time>2021-05-29 09:18:23</time>
      </trkpt>
      <trkpt lat="43.08786" lon="-2.12356">
        <ele>361.2</ele>
        <time>2021-05-29 09:18:24</time>
      </trkpt>
      <trkpt lat="43.08794" lon="-2.12359">
        <ele>361</ele>
        <time>2021-05-29 09:18:25</time>
      </trkpt>
      <trkpt lat="43.08802" lon="-2.12362">
        <ele>360.6</ele>
        <time>2021-05-29 09:18:26</time>
      </trkpt>
      <trkpt lat="43.08809" lon="-2.12365">
        <ele>360.8</ele>
        <time>2021-05-29 09:18:27</time>
      </trkpt>
      <trkpt lat="43.08817" lon="-2.12368">
        <ele>360.6</ele>
        <time>2021-05-29 09:18:28</time>
      </trkpt>
      <trkpt lat="43.08824" lon="-2.12371">
        <ele>360.4</ele>
        <time>2021-05-29 09:18:29</time>
      </trkpt>
      <trkpt lat="43.08832" lon="-2.12374">
        <ele>360.4</ele>
        <time>2021-05-29 09:18:30</time>
      </trkpt>
      <trkpt lat="43.08839" lon="-2.12378">
        <ele>360.4</ele>
        <time>2021-05-29 09:18:31</time>
      </trkpt>
      <trkpt lat="43.08847" lon="-2.12381">
        <ele>360.4</ele>
        <time>2021-05-29 09:18:32</time>
      </trkpt>
      <trkpt lat="43.08854" lon="-2.12384">
        <ele>360.4</ele>
        <time>2021-05-29 09:18:33</time>
      </trkpt>
      <trkpt lat="43.08861" lon="-2.12388">
        <ele>360.4</ele>
        <time>2021-05-29 09:18:34</time>
      </trkpt>
      <trkpt lat="43.08869" lon="-2.12392">
        <ele>360.4</ele>
        <time>2021-05-29 09:18:35</time>
      </trkpt>
      <trkpt lat="43.08876" lon="-2.12395">
        <ele>360.2</ele>
        <time>2021-05-29 09:18:36</time>
      </trkpt>
      <trkpt lat="43.08884" lon="-2.12398">
        <ele>360.2</ele>
        <time>2021-05-29 09:18:37</time>
      </trkpt>
      <trkpt lat="43.08891" lon="-2.12401">
        <ele>360.2</ele>
        <time>2021-05-29 09:18:38</time>
      </trkpt>
      <trkpt lat="43.08899" lon="-2.12404">
        <ele>360.2</ele>
        <time>2021-05-29 09:18:39</time>
      </trkpt>
      <trkpt lat="43.08906" lon="-2.12407">
        <ele>360.2</ele>
        <time>2021-05-29 09:18:40</time>
      </trkpt>
      <trkpt lat="43.08914" lon="-2.12411">
        <ele>360.2</ele>
        <time>2021-05-29 09:18:41</time>
      </trkpt>
      <trkpt lat="43.08922" lon="-2.12414">
        <ele>360</ele>
        <time>2021-05-29 09:18:42</time>
      </trkpt>
      <trkpt lat="43.08929" lon="-2.12417">
        <ele>360</ele>
        <time>2021-05-29 09:18:43</time>
      </trkpt>
      <trkpt lat="43.08937" lon="-2.1242">
        <ele>360</ele>
        <time>2021-05-29 09:18:44</time>
      </trkpt>
      <trkpt lat="43.08945" lon="-2.12423">
        <ele>360</ele>
        <time>2021-05-29 09:18:45</time>
      </trkpt>
      <trkpt lat="43.08953" lon="-2.12426">
        <ele>360</ele>
        <time>2021-05-29 09:18:46</time>
      </trkpt>
      <trkpt lat="43.08961" lon="-2.1243">
        <ele>360.2</ele>
        <time>2021-05-29 09:18:47</time>
      </trkpt>
      <trkpt lat="43.08969" lon="-2.12433">
        <ele>360</ele>
        <time>2021-05-29 09:18:48</time>
      </trkpt>
      <trkpt lat="43.08977" lon="-2.12436">
        <ele>360</ele>
        <time>2021-05-29 09:18:49</time>
      </trkpt>
      <trkpt lat="43.08984" lon="-2.12439">
        <ele>360.2</ele>
        <time>2021-05-29 09:18:50</time>
      </trkpt>
      <trkpt lat="43.08992" lon="-2.12443">
        <ele>360.2</ele>
        <time>2021-05-29 09:18:51</time>
      </trkpt>
      <trkpt lat="43.09" lon="-2.12446">
        <ele>360.2</ele>
        <time>2021-05-29 09:18:52</time>
      </trkpt>
      <trkpt lat="43.09008" lon="-2.1245">
        <ele>360</ele>
        <time>2021-05-29 09:18:53</time>
      </trkpt>
      <trkpt lat="43.09016" lon="-2.12453">
        <ele>360</ele>
        <time>2021-05-29 09:18:54</time>
      </trkpt>
      <trkpt lat="43.09024" lon="-2.12457">
        <ele>360</ele>
        <time>2021-05-29 09:18:55</time>
      </trkpt>
      <trkpt lat="43.09032" lon="-2.1246">
        <ele>360</ele>
        <time>2021-05-29 09:18:56</time>
      </trkpt>
      <trkpt lat="43.09039" lon="-2.12463">
        <ele>360</ele>
        <time>2021-05-29 09:18:57</time>
      </trkpt>
      <trkpt lat="43.09047" lon="-2.12466">
        <ele>360</ele>
        <time>2021-05-29 09:18:58</time>
      </trkpt>
      <trkpt lat="43.09054" lon="-2.12469">
        <ele>360</ele>
        <time>2021-05-29 09:18:59</time>
      </trkpt>
      <trkpt lat="43.09062" lon="-2.12473">
        <ele>360</ele>
        <time>2021-05-29 09:19:00</time>
      </trkpt>
      <trkpt lat="43.0907" lon="-2.12477">
        <ele>360</ele>
        <time>2021-05-29 09:19:01</time>
      </trkpt>
      <trkpt lat="43.09077" lon="-2.12481">
        <ele>359.8</ele>
        <time>2021-05-29 09:19:02</time>
      </trkpt>
      <trkpt lat="43.09085" lon="-2.12484">
        <ele>359.8</ele>
        <time>2021-05-29 09:19:03</time>
      </trkpt>
      <trkpt lat="43.09092" lon="-2.12487">
        <ele>360</ele>
        <time>2021-05-29 09:19:04</time>
      </trkpt>
      <trkpt lat="43.091" lon="-2.1249">
        <ele>360</ele>
        <time>2021-05-29 09:19:05</time>
      </trkpt>
      <trkpt lat="43.09108" lon="-2.12492">
        <ele>360</ele>
        <time>2021-05-29 09:19:06</time>
      </trkpt>
      <trkpt lat="43.09115" lon="-2.12495">
        <ele>359.8</ele>
        <time>2021-05-29 09:19:07</time>
      </trkpt>
      <trkpt lat="43.0913" lon="-2.12502">
        <ele>359.6</ele>
        <time>2021-05-29 09:19:08</time>
      </trkpt>
      <trkpt lat="43.0913" lon="-2.12502">
        <ele>359.6</ele>
        <time>2021-05-29 09:19:09</time>
      </trkpt>
      <trkpt lat="43.09137" lon="-2.12505">
        <ele>359.8</ele>
        <time>2021-05-29 09:19:10</time>
      </trkpt>
      <trkpt lat="43.09145" lon="-2.12508">
        <ele>359.6</ele>
        <time>2021-05-29 09:19:11</time>
      </trkpt>
      <trkpt lat="43.09152" lon="-2.12511">
        <ele>359.8</ele>
        <time>2021-05-29 09:19:12</time>
      </trkpt>
      <trkpt lat="43.0916" lon="-2.12514">
        <ele>359.6</ele>
        <time>2021-05-29 09:19:13</time>
      </trkpt>
      <trkpt lat="43.09167" lon="-2.12518">
        <ele>359.6</ele>
        <time>2021-05-29 09:19:14</time>
      </trkpt>
      <trkpt lat="43.09175" lon="-2.12521">
        <ele>359.6</ele>
        <time>2021-05-29 09:19:15</time>
      </trkpt>
      <trkpt lat="43.09182" lon="-2.12524">
        <ele>359.6</ele>
        <time>2021-05-29 09:19:16</time>
      </trkpt>
      <trkpt lat="43.0919" lon="-2.12526">
        <ele>359.4</ele>
        <time>2021-05-29 09:19:17</time>
      </trkpt>
      <trkpt lat="43.09197" lon="-2.12529">
        <ele>359.2</ele>
        <time>2021-05-29 09:19:18</time>
      </trkpt>
      <trkpt lat="43.09205" lon="-2.12531">
        <ele>358.8</ele>
        <time>2021-05-29 09:19:19</time>
      </trkpt>
      <trkpt lat="43.09212" lon="-2.12534">
        <ele>358.6</ele>
        <time>2021-05-29 09:19:20</time>
      </trkpt>
      <trkpt lat="43.09219" lon="-2.12537">
        <ele>358.6</ele>
        <time>2021-05-29 09:19:21</time>
      </trkpt>
      <trkpt lat="43.09226" lon="-2.12539">
        <ele>358.6</ele>
        <time>2021-05-29 09:19:22</time>
      </trkpt>
      <trkpt lat="43.09233" lon="-2.12542">
        <ele>358.6</ele>
        <time>2021-05-29 09:19:23</time>
      </trkpt>
      <trkpt lat="43.0924" lon="-2.12544">
        <ele>358.6</ele>
        <time>2021-05-29 09:19:24</time>
      </trkpt>
      <trkpt lat="43.09248" lon="-2.12547">
        <ele>358.6</ele>
        <time>2021-05-29 09:19:25</time>
      </trkpt>
      <trkpt lat="43.09255" lon="-2.1255">
        <ele>358.4</ele>
        <time>2021-05-29 09:19:26</time>
      </trkpt>
      <trkpt lat="43.09262" lon="-2.12553">
        <ele>358.4</ele>
        <time>2021-05-29 09:19:27</time>
      </trkpt>
      <trkpt lat="43.09269" lon="-2.12556">
        <ele>358.2</ele>
        <time>2021-05-29 09:19:28</time>
      </trkpt>
      <trkpt lat="43.09277" lon="-2.12559">
        <ele>358.4</ele>
        <time>2021-05-29 09:19:29</time>
      </trkpt>
      <trkpt lat="43.09284" lon="-2.12561">
        <ele>358.4</ele>
        <time>2021-05-29 09:19:30</time>
      </trkpt>
      <trkpt lat="43.09291" lon="-2.12562">
        <ele>358.2</ele>
        <time>2021-05-29 09:19:31</time>
      </trkpt>
      <trkpt lat="43.09298" lon="-2.12564">
        <ele>358.2</ele>
        <time>2021-05-29 09:19:32</time>
      </trkpt>
      <trkpt lat="43.09304" lon="-2.12565">
        <ele>358.2</ele>
        <time>2021-05-29 09:19:33</time>
      </trkpt>
      <trkpt lat="43.0931" lon="-2.12565">
        <ele>358.2</ele>
        <time>2021-05-29 09:19:34</time>
      </trkpt>
      <trkpt lat="43.09317" lon="-2.12566">
        <ele>358.2</ele>
        <time>2021-05-29 09:19:35</time>
      </trkpt>
      <trkpt lat="43.09323" lon="-2.12566">
        <ele>358.2</ele>
        <time>2021-05-29 09:19:36</time>
      </trkpt>
      <trkpt lat="43.09329" lon="-2.12565">
        <ele>358.2</ele>
        <time>2021-05-29 09:19:37</time>
      </trkpt>
      <trkpt lat="43.09335" lon="-2.12563">
        <ele>358.2</ele>
        <time>2021-05-29 09:19:38</time>
      </trkpt>
      <trkpt lat="43.09341" lon="-2.1256">
        <ele>358.2</ele>
        <time>2021-05-29 09:19:39</time>
      </trkpt>
      <trkpt lat="43.09347" lon="-2.12557">
        <ele>358.4</ele>
        <time>2021-05-29 09:19:40</time>
      </trkpt>
      <trkpt lat="43.09353" lon="-2.12554">
        <ele>358.4</ele>
        <time>2021-05-29 09:19:41</time>
      </trkpt>
      <trkpt lat="43.09359" lon="-2.1255">
        <ele>358.4</ele>
        <time>2021-05-29 09:19:42</time>
      </trkpt>
      <trkpt lat="43.09365" lon="-2.12546">
        <ele>358.4</ele>
        <time>2021-05-29 09:19:43</time>
      </trkpt>
      <trkpt lat="43.09371" lon="-2.12542">
        <ele>358.6</ele>
        <time>2021-05-29 09:19:44</time>
      </trkpt>
      <trkpt lat="43.09377" lon="-2.12538">
        <ele>358.8</ele>
        <time>2021-05-29 09:19:45</time>
      </trkpt>
      <trkpt lat="43.09382" lon="-2.12533">
        <ele>358.6</ele>
        <time>2021-05-29 09:19:46</time>
      </trkpt>
      <trkpt lat="43.09388" lon="-2.12528">
        <ele>358.8</ele>
        <time>2021-05-29 09:19:47</time>
      </trkpt>
      <trkpt lat="43.09393" lon="-2.12523">
        <ele>358.8</ele>
        <time>2021-05-29 09:19:48</time>
      </trkpt>
      <trkpt lat="43.09397" lon="-2.12517">
        <ele>359</ele>
        <time>2021-05-29 09:19:49</time>
      </trkpt>
      <trkpt lat="43.09402" lon="-2.12511">
        <ele>359</ele>
        <time>2021-05-29 09:19:50</time>
      </trkpt>
      <trkpt lat="43.09406" lon="-2.12505">
        <ele>359</ele>
        <time>2021-05-29 09:19:51</time>
      </trkpt>
      <trkpt lat="43.09411" lon="-2.12499">
        <ele>359</ele>
        <time>2021-05-29 09:19:52</time>
      </trkpt>
      <trkpt lat="43.09415" lon="-2.12493">
        <ele>359</ele>
        <time>2021-05-29 09:19:53</time>
      </trkpt>
      <trkpt lat="43.0942" lon="-2.12488">
        <ele>359.2</ele>
        <time>2021-05-29 09:19:54</time>
      </trkpt>
      <trkpt lat="43.09425" lon="-2.12482">
        <ele>359.2</ele>
        <time>2021-05-29 09:19:55</time>
      </trkpt>
      <trkpt lat="43.09429" lon="-2.12476">
        <ele>359.2</ele>
        <time>2021-05-29 09:19:56</time>
      </trkpt>
      <trkpt lat="43.09434" lon="-2.12471">
        <ele>359.2</ele>
        <time>2021-05-29 09:19:57</time>
      </trkpt>
      <trkpt lat="43.09439" lon="-2.12465">
        <ele>359.4</ele>
        <time>2021-05-29 09:19:58</time>
      </trkpt>
      <trkpt lat="43.09443" lon="-2.12459">
        <ele>359.4</ele>
        <time>2021-05-29 09:19:59</time>
      </trkpt>
      <trkpt lat="43.09448" lon="-2.12453">
        <ele>359.4</ele>
        <time>2021-05-29 09:20:00</time>
      </trkpt>
      <trkpt lat="43.09453" lon="-2.12447">
        <ele>359.6</ele>
        <time>2021-05-29 09:20:01</time>
      </trkpt>
      <trkpt lat="43.09457" lon="-2.12441">
        <ele>359.6</ele>
        <time>2021-05-29 09:20:02</time>
      </trkpt>
      <trkpt lat="43.09462" lon="-2.12435">
        <ele>359.6</ele>
        <time>2021-05-29 09:20:03</time>
      </trkpt>
      <trkpt lat="43.09467" lon="-2.12429">
        <ele>359.8</ele>
        <time>2021-05-29 09:20:04</time>
      </trkpt>
      <trkpt lat="43.09472" lon="-2.12422">
        <ele>359.8</ele>
        <time>2021-05-29 09:20:05</time>
      </trkpt>
      <trkpt lat="43.09477" lon="-2.12415">
        <ele>359.8</ele>
        <time>2021-05-29 09:20:06</time>
      </trkpt>
      <trkpt lat="43.09481" lon="-2.12408">
        <ele>359.8</ele>
        <time>2021-05-29 09:20:07</time>
      </trkpt>
      <trkpt lat="43.09485" lon="-2.124">
        <ele>359.8</ele>
        <time>2021-05-29 09:20:08</time>
      </trkpt>
      <trkpt lat="43.0949" lon="-2.12392">
        <ele>360.2</ele>
        <time>2021-05-29 09:20:09</time>
      </trkpt>
      <trkpt lat="43.09494" lon="-2.12384">
        <ele>360.2</ele>
        <time>2021-05-29 09:20:10</time>
      </trkpt>
      <trkpt lat="43.09498" lon="-2.12376">
        <ele>360.4</ele>
        <time>2021-05-29 09:20:11</time>
      </trkpt>
      <trkpt lat="43.09502" lon="-2.12368">
        <ele>360.4</ele>
        <time>2021-05-29 09:20:12</time>
      </trkpt>
      <trkpt lat="43.09506" lon="-2.12359">
        <ele>360.4</ele>
        <time>2021-05-29 09:20:13</time>
      </trkpt>
      <trkpt lat="43.09509" lon="-2.1235">
        <ele>360.6</ele>
        <time>2021-05-29 09:20:14</time>
      </trkpt>
      <trkpt lat="43.09512" lon="-2.1234">
        <ele>360.6</ele>
        <time>2021-05-29 09:20:15</time>
      </trkpt>
      <trkpt lat="43.09515" lon="-2.1233">
        <ele>360.6</ele>
        <time>2021-05-29 09:20:16</time>
      </trkpt>
      <trkpt lat="43.09518" lon="-2.1232">
        <ele>360.6</ele>
        <time>2021-05-29 09:20:17</time>
      </trkpt>
      <trkpt lat="43.0952" lon="-2.1231">
        <ele>360.6</ele>
        <time>2021-05-29 09:20:18</time>
      </trkpt>
      <trkpt lat="43.09523" lon="-2.12299">
        <ele>360.6</ele>
        <time>2021-05-29 09:20:19</time>
      </trkpt>
      <trkpt lat="43.09526" lon="-2.12289">
        <ele>360.6</ele>
        <time>2021-05-29 09:20:20</time>
      </trkpt>
      <trkpt lat="43.09528" lon="-2.12278">
        <ele>360.6</ele>
        <time>2021-05-29 09:20:21</time>
      </trkpt>
      <trkpt lat="43.09531" lon="-2.12267">
        <ele>360.8</ele>
        <time>2021-05-29 09:20:22</time>
      </trkpt>
      <trkpt lat="43.09534" lon="-2.12257">
        <ele>360.8</ele>
        <time>2021-05-29 09:20:23</time>
      </trkpt>
      <trkpt lat="43.09537" lon="-2.12246">
        <ele>360.8</ele>
        <time>2021-05-29 09:20:24</time>
      </trkpt>
      <trkpt lat="43.0954" lon="-2.12235">
        <ele>360.8</ele>
        <time>2021-05-29 09:20:25</time>
      </trkpt>
      <trkpt lat="43.09543" lon="-2.12224">
        <ele>360.6</ele>
        <time>2021-05-29 09:20:26</time>
      </trkpt>
      <trkpt lat="43.09546" lon="-2.12213">
        <ele>360.8</ele>
        <time>2021-05-29 09:20:27</time>
      </trkpt>
      <trkpt lat="43.09549" lon="-2.12202">
        <ele>360.8</ele>
        <time>2021-05-29 09:20:28</time>
      </trkpt>
      <trkpt lat="43.09552" lon="-2.1219">
        <ele>360.8</ele>
        <time>2021-05-29 09:20:29</time>
      </trkpt>
      <trkpt lat="43.09555" lon="-2.12179">
        <ele>360.6</ele>
        <time>2021-05-29 09:20:30</time>
      </trkpt>
      <trkpt lat="43.09558" lon="-2.12168">
        <ele>360.4</ele>
        <time>2021-05-29 09:20:31</time>
      </trkpt>
      <trkpt lat="43.09562" lon="-2.12156">
        <ele>360.4</ele>
        <time>2021-05-29 09:20:32</time>
      </trkpt>
      <trkpt lat="43.09566" lon="-2.12145">
        <ele>360.2</ele>
        <time>2021-05-29 09:20:33</time>
      </trkpt>
      <trkpt lat="43.09569" lon="-2.12133">
        <ele>360.4</ele>
        <time>2021-05-29 09:20:34</time>
      </trkpt>
      <trkpt lat="43.09571" lon="-2.12121">
        <ele>360.2</ele>
        <time>2021-05-29 09:20:35</time>
      </trkpt>
      <trkpt lat="43.09573" lon="-2.12109">
        <ele>360.2</ele>
        <time>2021-05-29 09:20:36</time>
      </trkpt>
      <trkpt lat="43.09573" lon="-2.12096">
        <ele>360</ele>
        <time>2021-05-29 09:20:37</time>
      </trkpt>
      <trkpt lat="43.09574" lon="-2.12083">
        <ele>360</ele>
        <time>2021-05-29 09:20:38</time>
      </trkpt>
      <trkpt lat="43.09575" lon="-2.12069">
        <ele>360</ele>
        <time>2021-05-29 09:20:39</time>
      </trkpt>
      <trkpt lat="43.09576" lon="-2.12056">
        <ele>359.8</ele>
        <time>2021-05-29 09:20:40</time>
      </trkpt>
      <trkpt lat="43.09578" lon="-2.12042">
        <ele>359.6</ele>
        <time>2021-05-29 09:20:41</time>
      </trkpt>
      <trkpt lat="43.0958" lon="-2.12029">
        <ele>359.6</ele>
        <time>2021-05-29 09:20:42</time>
      </trkpt>
      <trkpt lat="43.09581" lon="-2.12015">
        <ele>359.4</ele>
        <time>2021-05-29 09:20:43</time>
      </trkpt>
      <trkpt lat="43.09583" lon="-2.12001">
        <ele>359.2</ele>
        <time>2021-05-29 09:20:44</time>
      </trkpt>
      <trkpt lat="43.09584" lon="-2.11987">
        <ele>359.2</ele>
        <time>2021-05-29 09:20:45</time>
      </trkpt>
      <trkpt lat="43.09586" lon="-2.11973">
        <ele>358.8</ele>
        <time>2021-05-29 09:20:46</time>
      </trkpt>
      <trkpt lat="43.09588" lon="-2.1196">
        <ele>358.6</ele>
        <time>2021-05-29 09:20:47</time>
      </trkpt>
      <trkpt lat="43.09589" lon="-2.11946">
        <ele>358.6</ele>
        <time>2021-05-29 09:20:48</time>
      </trkpt>
      <trkpt lat="43.0959" lon="-2.11932">
        <ele>358.4</ele>
        <time>2021-05-29 09:20:49</time>
      </trkpt>
      <trkpt lat="43.09592" lon="-2.11919">
        <ele>358.6</ele>
        <time>2021-05-29 09:20:50</time>
      </trkpt>
      <trkpt lat="43.09593" lon="-2.11906">
        <ele>358.4</ele>
        <time>2021-05-29 09:20:51</time>
      </trkpt>
      <trkpt lat="43.09594" lon="-2.11893">
        <ele>358.2</ele>
        <time>2021-05-29 09:20:52</time>
      </trkpt>
      <trkpt lat="43.09596" lon="-2.1188">
        <ele>358.2</ele>
        <time>2021-05-29 09:20:53</time>
      </trkpt>
      <trkpt lat="43.09597" lon="-2.11868">
        <ele>358</ele>
        <time>2021-05-29 09:20:54</time>
      </trkpt>
      <trkpt lat="43.09599" lon="-2.11855">
        <ele>358</ele>
        <time>2021-05-29 09:20:55</time>
      </trkpt>
      <trkpt lat="43.096" lon="-2.11843">
        <ele>357.8</ele>
        <time>2021-05-29 09:20:56</time>
      </trkpt>
      <trkpt lat="43.09602" lon="-2.1183">
        <ele>357.8</ele>
        <time>2021-05-29 09:20:57</time>
      </trkpt>
      <trkpt lat="43.09603" lon="-2.11818">
        <ele>357.6</ele>
        <time>2021-05-29 09:20:58</time>
      </trkpt>
      <trkpt lat="43.09605" lon="-2.11806">
        <ele>357.6</ele>
        <time>2021-05-29 09:20:59</time>
      </trkpt>
      <trkpt lat="43.09606" lon="-2.11794">
        <ele>357.6</ele>
        <time>2021-05-29 09:21:00</time>
      </trkpt>
      <trkpt lat="43.09607" lon="-2.11782">
        <ele>357.4</ele>
        <time>2021-05-29 09:21:01</time>
      </trkpt>
      <trkpt lat="43.09609" lon="-2.1177">
        <ele>357.4</ele>
        <time>2021-05-29 09:21:02</time>
      </trkpt>
      <trkpt lat="43.0961" lon="-2.11758">
        <ele>357.6</ele>
        <time>2021-05-29 09:21:03</time>
      </trkpt>
      <trkpt lat="43.09611" lon="-2.11746">
        <ele>357.4</ele>
        <time>2021-05-29 09:21:04</time>
      </trkpt>
      <trkpt lat="43.09612" lon="-2.11734">
        <ele>357.2</ele>
        <time>2021-05-29 09:21:05</time>
      </trkpt>
      <trkpt lat="43.09613" lon="-2.11723">
        <ele>357.2</ele>
        <time>2021-05-29 09:21:06</time>
      </trkpt>
      <trkpt lat="43.09614" lon="-2.11711">
        <ele>357</ele>
        <time>2021-05-29 09:21:07</time>
      </trkpt>
      <trkpt lat="43.09616" lon="-2.11699">
        <ele>357</ele>
        <time>2021-05-29 09:21:08</time>
      </trkpt>
      <trkpt lat="43.09617" lon="-2.11687">
        <ele>356.8</ele>
        <time>2021-05-29 09:21:09</time>
      </trkpt>
      <trkpt lat="43.09618" lon="-2.11675">
        <ele>356.6</ele>
        <time>2021-05-29 09:21:10</time>
      </trkpt>
      <trkpt lat="43.09619" lon="-2.11664">
        <ele>356.6</ele>
        <time>2021-05-29 09:21:11</time>
      </trkpt>
      <trkpt lat="43.09621" lon="-2.11652">
        <ele>356.6</ele>
        <time>2021-05-29 09:21:12</time>
      </trkpt>
      <trkpt lat="43.09622" lon="-2.11641">
        <ele>356.6</ele>
        <time>2021-05-29 09:21:13</time>
      </trkpt>
      <trkpt lat="43.09624" lon="-2.11629">
        <ele>356.4</ele>
        <time>2021-05-29 09:21:14</time>
      </trkpt>
      <trkpt lat="43.09626" lon="-2.11618">
        <ele>356.2</ele>
        <time>2021-05-29 09:21:15</time>
      </trkpt>
      <trkpt lat="43.09629" lon="-2.11607">
        <ele>356</ele>
        <time>2021-05-29 09:21:16</time>
      </trkpt>
      <trkpt lat="43.09633" lon="-2.11596">
        <ele>355.8</ele>
        <time>2021-05-29 09:21:17</time>
      </trkpt>
      <trkpt lat="43.09636" lon="-2.11585">
        <ele>355.4</ele>
        <time>2021-05-29 09:21:18</time>
      </trkpt>
      <trkpt lat="43.0964" lon="-2.11574">
        <ele>355.4</ele>
        <time>2021-05-29 09:21:19</time>
      </trkpt>
      <trkpt lat="43.09645" lon="-2.11563">
        <ele>355.2</ele>
        <time>2021-05-29 09:21:20</time>
      </trkpt>
      <trkpt lat="43.09649" lon="-2.11552">
        <ele>355</ele>
        <time>2021-05-29 09:21:21</time>
      </trkpt>
      <trkpt lat="43.09654" lon="-2.11542">
        <ele>354.8</ele>
        <time>2021-05-29 09:21:22</time>
      </trkpt>
      <trkpt lat="43.09658" lon="-2.11531">
        <ele>354.8</ele>
        <time>2021-05-29 09:21:23</time>
      </trkpt>
      <trkpt lat="43.09663" lon="-2.1152">
        <ele>354.6</ele>
        <time>2021-05-29 09:21:24</time>
      </trkpt>
      <trkpt lat="43.09668" lon="-2.11509">
        <ele>354.4</ele>
        <time>2021-05-29 09:21:25</time>
      </trkpt>
      <trkpt lat="43.09672" lon="-2.11498">
        <ele>354.4</ele>
        <time>2021-05-29 09:21:26</time>
      </trkpt>
      <trkpt lat="43.09676" lon="-2.11487">
        <ele>354.2</ele>
        <time>2021-05-29 09:21:27</time>
      </trkpt>
      <trkpt lat="43.09681" lon="-2.11476">
        <ele>354.2</ele>
        <time>2021-05-29 09:21:28</time>
      </trkpt>
      <trkpt lat="43.09686" lon="-2.11465">
        <ele>354</ele>
        <time>2021-05-29 09:21:29</time>
      </trkpt>
      <trkpt lat="43.09691" lon="-2.11454">
        <ele>353.8</ele>
        <time>2021-05-29 09:21:30</time>
      </trkpt>
      <trkpt lat="43.09696" lon="-2.11443">
        <ele>353.6</ele>
        <time>2021-05-29 09:21:31</time>
      </trkpt>
      <trkpt lat="43.09701" lon="-2.11433">
        <ele>353.4</ele>
        <time>2021-05-29 09:21:32</time>
      </trkpt>
      <trkpt lat="43.09706" lon="-2.11423">
        <ele>353.2</ele>
        <time>2021-05-29 09:21:33</time>
      </trkpt>
      <trkpt lat="43.09711" lon="-2.11413">
        <ele>353</ele>
        <time>2021-05-29 09:21:34</time>
      </trkpt>
      <trkpt lat="43.09716" lon="-2.11403">
        <ele>353</ele>
        <time>2021-05-29 09:21:35</time>
      </trkpt>
      <trkpt lat="43.09722" lon="-2.11392">
        <ele>353</ele>
        <time>2021-05-29 09:21:36</time>
      </trkpt>
      <trkpt lat="43.09727" lon="-2.11382">
        <ele>352.8</ele>
        <time>2021-05-29 09:21:37</time>
      </trkpt>
      <trkpt lat="43.09731" lon="-2.11371">
        <ele>352.6</ele>
        <time>2021-05-29 09:21:38</time>
      </trkpt>
      <trkpt lat="43.09736" lon="-2.1136">
        <ele>352.6</ele>
        <time>2021-05-29 09:21:39</time>
      </trkpt>
      <trkpt lat="43.09741" lon="-2.1135">
        <ele>352.6</ele>
        <time>2021-05-29 09:21:40</time>
      </trkpt>
      <trkpt lat="43.09746" lon="-2.11339">
        <ele>352.4</ele>
        <time>2021-05-29 09:21:41</time>
      </trkpt>
      <trkpt lat="43.09751" lon="-2.11329">
        <ele>352.2</ele>
        <time>2021-05-29 09:21:42</time>
      </trkpt>
      <trkpt lat="43.09755" lon="-2.11319">
        <ele>351.8</ele>
        <time>2021-05-29 09:21:43</time>
      </trkpt>
      <trkpt lat="43.0976" lon="-2.11309">
        <ele>351.6</ele>
        <time>2021-05-29 09:21:44</time>
      </trkpt>
      <trkpt lat="43.09765" lon="-2.11299">
        <ele>351.6</ele>
        <time>2021-05-29 09:21:45</time>
      </trkpt>
      <trkpt lat="43.09769" lon="-2.11289">
        <ele>351.4</ele>
        <time>2021-05-29 09:21:46</time>
      </trkpt>
      <trkpt lat="43.09774" lon="-2.11279">
        <ele>351.4</ele>
        <time>2021-05-29 09:21:47</time>
      </trkpt>
      <trkpt lat="43.09778" lon="-2.11269">
        <ele>351.2</ele>
        <time>2021-05-29 09:21:48</time>
      </trkpt>
      <trkpt lat="43.09783" lon="-2.11259">
        <ele>351.2</ele>
        <time>2021-05-29 09:21:49</time>
      </trkpt>
      <trkpt lat="43.09787" lon="-2.1125">
        <ele>351</ele>
        <time>2021-05-29 09:21:50</time>
      </trkpt>
      <trkpt lat="43.09791" lon="-2.1124">
        <ele>351</ele>
        <time>2021-05-29 09:21:51</time>
      </trkpt>
      <trkpt lat="43.09796" lon="-2.11229">
        <ele>350.8</ele>
        <time>2021-05-29 09:21:52</time>
      </trkpt>
      <trkpt lat="43.098" lon="-2.11219">
        <ele>350.6</ele>
        <time>2021-05-29 09:21:53</time>
      </trkpt>
      <trkpt lat="43.09805" lon="-2.11209">
        <ele>350.4</ele>
        <time>2021-05-29 09:21:54</time>
      </trkpt>
      <trkpt lat="43.0981" lon="-2.11198">
        <ele>350.2</ele>
        <time>2021-05-29 09:21:55</time>
      </trkpt>
      <trkpt lat="43.09814" lon="-2.11187">
        <ele>350.2</ele>
        <time>2021-05-29 09:21:56</time>
      </trkpt>
      <trkpt lat="43.09819" lon="-2.11177">
        <ele>350.2</ele>
        <time>2021-05-29 09:21:57</time>
      </trkpt>
      <trkpt lat="43.09824" lon="-2.11166">
        <ele>350</ele>
        <time>2021-05-29 09:21:58</time>
      </trkpt>
      <trkpt lat="43.09828" lon="-2.11156">
        <ele>349.8</ele>
        <time>2021-05-29 09:21:59</time>
      </trkpt>
      <trkpt lat="43.09833" lon="-2.11146">
        <ele>349.6</ele>
        <time>2021-05-29 09:22:00</time>
      </trkpt>
      <trkpt lat="43.09837" lon="-2.11135">
        <ele>349.6</ele>
        <time>2021-05-29 09:22:01</time>
      </trkpt>
      <trkpt lat="43.09842" lon="-2.11125">
        <ele>349.4</ele>
        <time>2021-05-29 09:22:02</time>
      </trkpt>
      <trkpt lat="43.09847" lon="-2.11115">
        <ele>349.4</ele>
        <time>2021-05-29 09:22:03</time>
      </trkpt>
      <trkpt lat="43.09851" lon="-2.11104">
        <ele>349</ele>
        <time>2021-05-29 09:22:04</time>
      </trkpt>
      <trkpt lat="43.09855" lon="-2.11094">
        <ele>349</ele>
        <time>2021-05-29 09:22:05</time>
      </trkpt>
      <trkpt lat="43.0986" lon="-2.11083">
        <ele>348.8</ele>
        <time>2021-05-29 09:22:06</time>
      </trkpt>
      <trkpt lat="43.09865" lon="-2.11072">
        <ele>348.6</ele>
        <time>2021-05-29 09:22:07</time>
      </trkpt>
      <trkpt lat="43.09869" lon="-2.11061">
        <ele>348.4</ele>
        <time>2021-05-29 09:22:08</time>
      </trkpt>
      <trkpt lat="43.09874" lon="-2.11051">
        <ele>348.2</ele>
        <time>2021-05-29 09:22:09</time>
      </trkpt>
      <trkpt lat="43.09878" lon="-2.1104">
        <ele>348</ele>
        <time>2021-05-29 09:22:10</time>
      </trkpt>
      <trkpt lat="43.09883" lon="-2.1103">
        <ele>347.8</ele>
        <time>2021-05-29 09:22:11</time>
      </trkpt>
      <trkpt lat="43.09888" lon="-2.11019">
        <ele>347.8</ele>
        <time>2021-05-29 09:22:12</time>
      </trkpt>
      <trkpt lat="43.09893" lon="-2.11009">
        <ele>347.6</ele>
        <time>2021-05-29 09:22:13</time>
      </trkpt>
      <trkpt lat="43.09897" lon="-2.10999">
        <ele>347.6</ele>
        <time>2021-05-29 09:22:14</time>
      </trkpt>
      <trkpt lat="43.09902" lon="-2.10988">
        <ele>347.8</ele>
        <time>2021-05-29 09:22:15</time>
      </trkpt>
      <trkpt lat="43.09907" lon="-2.10978">
        <ele>347.4</ele>
        <time>2021-05-29 09:22:16</time>
      </trkpt>
      <trkpt lat="43.09911" lon="-2.10967">
        <ele>347.4</ele>
        <time>2021-05-29 09:22:17</time>
      </trkpt>
      <trkpt lat="43.09915" lon="-2.10957">
        <ele>347.4</ele>
        <time>2021-05-29 09:22:18</time>
      </trkpt>
      <trkpt lat="43.0992" lon="-2.10946">
        <ele>347.4</ele>
        <time>2021-05-29 09:22:19</time>
      </trkpt>
      <trkpt lat="43.09924" lon="-2.10936">
        <ele>347.4</ele>
        <time>2021-05-29 09:22:20</time>
      </trkpt>
      <trkpt lat="43.09929" lon="-2.10925">
        <ele>347.4</ele>
        <time>2021-05-29 09:22:21</time>
      </trkpt>
      <trkpt lat="43.09933" lon="-2.10915">
        <ele>347.4</ele>
        <time>2021-05-29 09:22:22</time>
      </trkpt>
      <trkpt lat="43.09938" lon="-2.10904">
        <ele>347.4</ele>
        <time>2021-05-29 09:22:23</time>
      </trkpt>
      <trkpt lat="43.09942" lon="-2.10893">
        <ele>347.4</ele>
        <time>2021-05-29 09:22:24</time>
      </trkpt>
      <trkpt lat="43.09946" lon="-2.10883">
        <ele>347.2</ele>
        <time>2021-05-29 09:22:25</time>
      </trkpt>
      <trkpt lat="43.09951" lon="-2.10872">
        <ele>347.2</ele>
        <time>2021-05-29 09:22:26</time>
      </trkpt>
      <trkpt lat="43.09955" lon="-2.10862">
        <ele>347.2</ele>
        <time>2021-05-29 09:22:27</time>
      </trkpt>
      <trkpt lat="43.09959" lon="-2.10851">
        <ele>347.2</ele>
        <time>2021-05-29 09:22:28</time>
      </trkpt>
      <trkpt lat="43.09963" lon="-2.1084">
        <ele>347</ele>
        <time>2021-05-29 09:22:29</time>
      </trkpt>
      <trkpt lat="43.09967" lon="-2.10829">
        <ele>347.2</ele>
        <time>2021-05-29 09:22:30</time>
      </trkpt>
      <trkpt lat="43.09972" lon="-2.10818">
        <ele>347.2</ele>
        <time>2021-05-29 09:22:31</time>
      </trkpt>
      <trkpt lat="43.09976" lon="-2.10807">
        <ele>347.2</ele>
        <time>2021-05-29 09:22:32</time>
      </trkpt>
      <trkpt lat="43.0998" lon="-2.10796">
        <ele>347</ele>
        <time>2021-05-29 09:22:33</time>
      </trkpt>
      <trkpt lat="43.09985" lon="-2.10785">
        <ele>347</ele>
        <time>2021-05-29 09:22:34</time>
      </trkpt>
      <trkpt lat="43.09989" lon="-2.10774">
        <ele>347</ele>
        <time>2021-05-29 09:22:35</time>
      </trkpt>
      <trkpt lat="43.09993" lon="-2.10764">
        <ele>347</ele>
        <time>2021-05-29 09:22:36</time>
      </trkpt>
      <trkpt lat="43.09997" lon="-2.10753">
        <ele>347</ele>
        <time>2021-05-29 09:22:37</time>
      </trkpt>
      <trkpt lat="43.1" lon="-2.10742">
        <ele>347</ele>
        <time>2021-05-29 09:22:38</time>
      </trkpt>
      <trkpt lat="43.10003" lon="-2.1073">
        <ele>347</ele>
        <time>2021-05-29 09:22:39</time>
      </trkpt>
      <trkpt lat="43.10006" lon="-2.10719">
        <ele>347</ele>
        <time>2021-05-29 09:22:40</time>
      </trkpt>
      <trkpt lat="43.10008" lon="-2.10708">
        <ele>346.8</ele>
        <time>2021-05-29 09:22:41</time>
      </trkpt>
      <trkpt lat="43.1001" lon="-2.10697">
        <ele>346.8</ele>
        <time>2021-05-29 09:22:42</time>
      </trkpt>
      <trkpt lat="43.10011" lon="-2.10685">
        <ele>346.8</ele>
        <time>2021-05-29 09:22:43</time>
      </trkpt>
      <trkpt lat="43.10013" lon="-2.10674">
        <ele>346.8</ele>
        <time>2021-05-29 09:22:44</time>
      </trkpt>
      <trkpt lat="43.10014" lon="-2.10662">
        <ele>346.8</ele>
        <time>2021-05-29 09:22:45</time>
      </trkpt>
      <trkpt lat="43.10014" lon="-2.10651">
        <ele>346.8</ele>
        <time>2021-05-29 09:22:46</time>
      </trkpt>
      <trkpt lat="43.10015" lon="-2.10639">
        <ele>346.8</ele>
        <time>2021-05-29 09:22:47</time>
      </trkpt>
      <trkpt lat="43.10016" lon="-2.10628">
        <ele>346.8</ele>
        <time>2021-05-29 09:22:48</time>
      </trkpt>
      <trkpt lat="43.10016" lon="-2.10616">
        <ele>346.8</ele>
        <time>2021-05-29 09:22:49</time>
      </trkpt>
      <trkpt lat="43.10017" lon="-2.10604">
        <ele>346.8</ele>
        <time>2021-05-29 09:22:50</time>
      </trkpt>
      <trkpt lat="43.10017" lon="-2.10593">
        <ele>346.8</ele>
        <time>2021-05-29 09:22:51</time>
      </trkpt>
      <trkpt lat="43.10017" lon="-2.10581">
        <ele>346.8</ele>
        <time>2021-05-29 09:22:52</time>
      </trkpt>
      <trkpt lat="43.10016" lon="-2.1057">
        <ele>346.8</ele>
        <time>2021-05-29 09:22:53</time>
      </trkpt>
      <trkpt lat="43.10017" lon="-2.10558">
        <ele>346.8</ele>
        <time>2021-05-29 09:22:54</time>
      </trkpt>
      <trkpt lat="43.10017" lon="-2.10546">
        <ele>346.8</ele>
        <time>2021-05-29 09:22:55</time>
      </trkpt>
      <trkpt lat="43.10017" lon="-2.10534">
        <ele>346.8</ele>
        <time>2021-05-29 09:22:56</time>
      </trkpt>
      <trkpt lat="43.10017" lon="-2.10523">
        <ele>346.8</ele>
        <time>2021-05-29 09:22:57</time>
      </trkpt>
      <trkpt lat="43.10017" lon="-2.10511">
        <ele>346.6</ele>
        <time>2021-05-29 09:22:58</time>
      </trkpt>
      <trkpt lat="43.10018" lon="-2.10499">
        <ele>346.6</ele>
        <time>2021-05-29 09:22:59</time>
      </trkpt>
      <trkpt lat="43.10018" lon="-2.10487">
        <ele>346.6</ele>
        <time>2021-05-29 09:23:00</time>
      </trkpt>
      <trkpt lat="43.10018" lon="-2.10475">
        <ele>346.8</ele>
        <time>2021-05-29 09:23:01</time>
      </trkpt>
      <trkpt lat="43.10018" lon="-2.10464">
        <ele>346.8</ele>
        <time>2021-05-29 09:23:02</time>
      </trkpt>
      <trkpt lat="43.10018" lon="-2.10452">
        <ele>346.8</ele>
        <time>2021-05-29 09:23:03</time>
      </trkpt>
      <trkpt lat="43.10019" lon="-2.1044">
        <ele>346.8</ele>
        <time>2021-05-29 09:23:04</time>
      </trkpt>
      <trkpt lat="43.10019" lon="-2.10428">
        <ele>346.8</ele>
        <time>2021-05-29 09:23:05</time>
      </trkpt>
      <trkpt lat="43.10019" lon="-2.10416">
        <ele>347</ele>
        <time>2021-05-29 09:23:06</time>
      </trkpt>
      <trkpt lat="43.10019" lon="-2.10404">
        <ele>347</ele>
        <time>2021-05-29 09:23:07</time>
      </trkpt>
      <trkpt lat="43.1002" lon="-2.10392">
        <ele>347</ele>
        <time>2021-05-29 09:23:08</time>
      </trkpt>
      <trkpt lat="43.1002" lon="-2.1038">
        <ele>347</ele>
        <time>2021-05-29 09:23:09</time>
      </trkpt>
      <trkpt lat="43.1002" lon="-2.10369">
        <ele>346.8</ele>
        <time>2021-05-29 09:23:10</time>
      </trkpt>
      <trkpt lat="43.1002" lon="-2.10357">
        <ele>346.8</ele>
        <time>2021-05-29 09:23:11</time>
      </trkpt>
      <trkpt lat="43.10021" lon="-2.10345">
        <ele>346.8</ele>
        <time>2021-05-29 09:23:12</time>
      </trkpt>
      <trkpt lat="43.10021" lon="-2.10333">
        <ele>347</ele>
        <time>2021-05-29 09:23:13</time>
      </trkpt>
      <trkpt lat="43.10022" lon="-2.10321">
        <ele>347</ele>
        <time>2021-05-29 09:23:14</time>
      </trkpt>
      <trkpt lat="43.10022" lon="-2.10309">
        <ele>347</ele>
        <time>2021-05-29 09:23:15</time>
      </trkpt>
      <trkpt lat="43.10023" lon="-2.10298">
        <ele>347</ele>
        <time>2021-05-29 09:23:16</time>
      </trkpt>
      <trkpt lat="43.10023" lon="-2.10286">
        <ele>347</ele>
        <time>2021-05-29 09:23:17</time>
      </trkpt>
      <trkpt lat="43.10024" lon="-2.10274">
        <ele>347</ele>
        <time>2021-05-29 09:23:18</time>
      </trkpt>
      <trkpt lat="43.10024" lon="-2.10262">
        <ele>347</ele>
        <time>2021-05-29 09:23:19</time>
      </trkpt>
      <trkpt lat="43.10025" lon="-2.1025">
        <ele>347</ele>
        <time>2021-05-29 09:23:20</time>
      </trkpt>
      <trkpt lat="43.10025" lon="-2.10238">
        <ele>347.2</ele>
        <time>2021-05-29 09:23:21</time>
      </trkpt>
      <trkpt lat="43.10025" lon="-2.10226">
        <ele>347</ele>
        <time>2021-05-29 09:23:22</time>
      </trkpt>
      <trkpt lat="43.10026" lon="-2.10213">
        <ele>347</ele>
        <time>2021-05-29 09:23:23</time>
      </trkpt>
      <trkpt lat="43.10026" lon="-2.10201">
        <ele>347</ele>
        <time>2021-05-29 09:23:24</time>
      </trkpt>
      <trkpt lat="43.10027" lon="-2.10189">
        <ele>347</ele>
        <time>2021-05-29 09:23:25</time>
      </trkpt>
      <trkpt lat="43.10027" lon="-2.10177">
        <ele>347.2</ele>
        <time>2021-05-29 09:23:26</time>
      </trkpt>
      <trkpt lat="43.10027" lon="-2.10165">
        <ele>347.2</ele>
        <time>2021-05-29 09:23:27</time>
      </trkpt>
      <trkpt lat="43.10028" lon="-2.10153">
        <ele>347.2</ele>
        <time>2021-05-29 09:23:28</time>
      </trkpt>
      <trkpt lat="43.10028" lon="-2.1014">
        <ele>347.2</ele>
        <time>2021-05-29 09:23:29</time>
      </trkpt>
      <trkpt lat="43.10028" lon="-2.10128">
        <ele>347.2</ele>
        <time>2021-05-29 09:23:30</time>
      </trkpt>
      <trkpt lat="43.10029" lon="-2.10116">
        <ele>347.2</ele>
        <time>2021-05-29 09:23:31</time>
      </trkpt>
      <trkpt lat="43.10029" lon="-2.10105">
        <ele>347</ele>
        <time>2021-05-29 09:23:32</time>
      </trkpt>
      <trkpt lat="43.1003" lon="-2.10094">
        <ele>347</ele>
        <time>2021-05-29 09:23:33</time>
      </trkpt>
      <trkpt lat="43.1003" lon="-2.10082">
        <ele>347.2</ele>
        <time>2021-05-29 09:23:34</time>
      </trkpt>
      <trkpt lat="43.10031" lon="-2.10071">
        <ele>347.2</ele>
        <time>2021-05-29 09:23:35</time>
      </trkpt>
      <trkpt lat="43.10034" lon="-2.1006">
        <ele>347.2</ele>
        <time>2021-05-29 09:23:36</time>
      </trkpt>
      <trkpt lat="43.10037" lon="-2.10049">
        <ele>347</ele>
        <time>2021-05-29 09:23:37</time>
      </trkpt>
      <trkpt lat="43.1004" lon="-2.10038">
        <ele>347.2</ele>
        <time>2021-05-29 09:23:38</time>
      </trkpt>
      <trkpt lat="43.10043" lon="-2.10027">
        <ele>347.2</ele>
        <time>2021-05-29 09:23:39</time>
      </trkpt>
      <trkpt lat="43.10046" lon="-2.10017">
        <ele>347.2</ele>
        <time>2021-05-29 09:23:40</time>
      </trkpt>
      <trkpt lat="43.10048" lon="-2.10006">
        <ele>347.2</ele>
        <time>2021-05-29 09:23:41</time>
      </trkpt>
      <trkpt lat="43.10051" lon="-2.09995">
        <ele>347</ele>
        <time>2021-05-29 09:23:42</time>
      </trkpt>
      <trkpt lat="43.10053" lon="-2.09984">
        <ele>347</ele>
        <time>2021-05-29 09:23:43</time>
      </trkpt>
      <trkpt lat="43.10055" lon="-2.09973">
        <ele>346.8</ele>
        <time>2021-05-29 09:23:44</time>
      </trkpt>
      <trkpt lat="43.10058" lon="-2.09963">
        <ele>347</ele>
        <time>2021-05-29 09:23:45</time>
      </trkpt>
      <trkpt lat="43.1006" lon="-2.09953">
        <ele>347</ele>
        <time>2021-05-29 09:23:46</time>
      </trkpt>
      <trkpt lat="43.10062" lon="-2.09943">
        <ele>347</ele>
        <time>2021-05-29 09:23:47</time>
      </trkpt>
      <trkpt lat="43.10064" lon="-2.09933">
        <ele>347</ele>
        <time>2021-05-29 09:23:48</time>
      </trkpt>
      <trkpt lat="43.10066" lon="-2.09923">
        <ele>347</ele>
        <time>2021-05-29 09:23:49</time>
      </trkpt>
      <trkpt lat="43.10068" lon="-2.09914">
        <ele>347</ele>
        <time>2021-05-29 09:23:50</time>
      </trkpt>
      <trkpt lat="43.1007" lon="-2.09904">
        <ele>347</ele>
        <time>2021-05-29 09:23:51</time>
      </trkpt>
      <trkpt lat="43.10072" lon="-2.09893">
        <ele>347</ele>
        <time>2021-05-29 09:23:52</time>
      </trkpt>
      <trkpt lat="43.10074" lon="-2.09883">
        <ele>347</ele>
        <time>2021-05-29 09:23:53</time>
      </trkpt>
      <trkpt lat="43.10077" lon="-2.09873">
        <ele>347</ele>
        <time>2021-05-29 09:23:54</time>
      </trkpt>
      <trkpt lat="43.10079" lon="-2.09863">
        <ele>347</ele>
        <time>2021-05-29 09:23:55</time>
      </trkpt>
      <trkpt lat="43.10082" lon="-2.09853">
        <ele>347</ele>
        <time>2021-05-29 09:23:56</time>
      </trkpt>
      <trkpt lat="43.10085" lon="-2.09842">
        <ele>346.8</ele>
        <time>2021-05-29 09:23:57</time>
      </trkpt>
      <trkpt lat="43.10088" lon="-2.09832">
        <ele>346.8</ele>
        <time>2021-05-29 09:23:58</time>
      </trkpt>
      <trkpt lat="43.10091" lon="-2.09822">
        <ele>347</ele>
        <time>2021-05-29 09:23:59</time>
      </trkpt>
      <trkpt lat="43.10095" lon="-2.09812">
        <ele>347</ele>
        <time>2021-05-29 09:24:00</time>
      </trkpt>
      <trkpt lat="43.101" lon="-2.09802">
        <ele>347</ele>
        <time>2021-05-29 09:24:01</time>
      </trkpt>
      <trkpt lat="43.10104" lon="-2.09793">
        <ele>347</ele>
        <time>2021-05-29 09:24:02</time>
      </trkpt>
      <trkpt lat="43.10109" lon="-2.09783">
        <ele>346.8</ele>
        <time>2021-05-29 09:24:03</time>
      </trkpt>
      <trkpt lat="43.10114" lon="-2.09774">
        <ele>346.8</ele>
        <time>2021-05-29 09:24:04</time>
      </trkpt>
      <trkpt lat="43.10117" lon="-2.09765">
        <ele>346.8</ele>
        <time>2021-05-29 09:24:05</time>
      </trkpt>
      <trkpt lat="43.10122" lon="-2.09756">
        <ele>347</ele>
        <time>2021-05-29 09:24:06</time>
      </trkpt>
      <trkpt lat="43.10127" lon="-2.09747">
        <ele>347</ele>
        <time>2021-05-29 09:24:07</time>
      </trkpt>
      <trkpt lat="43.10132" lon="-2.09739">
        <ele>347</ele>
        <time>2021-05-29 09:24:08</time>
      </trkpt>
      <trkpt lat="43.10139" lon="-2.09732">
        <ele>347</ele>
        <time>2021-05-29 09:24:09</time>
      </trkpt>
      <trkpt lat="43.10145" lon="-2.09723">
        <ele>347</ele>
        <time>2021-05-29 09:24:10</time>
      </trkpt>
      <trkpt lat="43.10151" lon="-2.09715">
        <ele>347</ele>
        <time>2021-05-29 09:24:11</time>
      </trkpt>
      <trkpt lat="43.10157" lon="-2.09707">
        <ele>347</ele>
        <time>2021-05-29 09:24:12</time>
      </trkpt>
      <trkpt lat="43.10163" lon="-2.097">
        <ele>347.2</ele>
        <time>2021-05-29 09:24:13</time>
      </trkpt>
      <trkpt lat="43.1017" lon="-2.09692">
        <ele>347.2</ele>
        <time>2021-05-29 09:24:14</time>
      </trkpt>
      <trkpt lat="43.10176" lon="-2.09684">
        <ele>347.2</ele>
        <time>2021-05-29 09:24:15</time>
      </trkpt>
      <trkpt lat="43.10183" lon="-2.09678">
        <ele>347.2</ele>
        <time>2021-05-29 09:24:16</time>
      </trkpt>
      <trkpt lat="43.10191" lon="-2.09672">
        <ele>347.2</ele>
        <time>2021-05-29 09:24:17</time>
      </trkpt>
      <trkpt lat="43.10198" lon="-2.09667">
        <ele>347.4</ele>
        <time>2021-05-29 09:24:18</time>
      </trkpt>
      <trkpt lat="43.10206" lon="-2.09661">
        <ele>347.4</ele>
        <time>2021-05-29 09:24:19</time>
      </trkpt>
      <trkpt lat="43.10213" lon="-2.09656">
        <ele>347.4</ele>
        <time>2021-05-29 09:24:20</time>
      </trkpt>
      <trkpt lat="43.1022" lon="-2.0965">
        <ele>347.6</ele>
        <time>2021-05-29 09:24:21</time>
      </trkpt>
      <trkpt lat="43.10227" lon="-2.09645">
        <ele>347.6</ele>
        <time>2021-05-29 09:24:22</time>
      </trkpt>
      <trkpt lat="43.10235" lon="-2.09639">
        <ele>347.6</ele>
        <time>2021-05-29 09:24:23</time>
      </trkpt>
      <trkpt lat="43.10242" lon="-2.09633">
        <ele>347.6</ele>
        <time>2021-05-29 09:24:24</time>
      </trkpt>
      <trkpt lat="43.10249" lon="-2.09626">
        <ele>347.6</ele>
        <time>2021-05-29 09:24:25</time>
      </trkpt>
      <trkpt lat="43.10257" lon="-2.09619">
        <ele>347.6</ele>
        <time>2021-05-29 09:24:26</time>
      </trkpt>
      <trkpt lat="43.10264" lon="-2.09613">
        <ele>347.8</ele>
        <time>2021-05-29 09:24:27</time>
      </trkpt>
      <trkpt lat="43.10273" lon="-2.09608">
        <ele>347.8</ele>
        <time>2021-05-29 09:24:28</time>
      </trkpt>
      <trkpt lat="43.10281" lon="-2.09603">
        <ele>347.8</ele>
        <time>2021-05-29 09:24:29</time>
      </trkpt>
      <trkpt lat="43.1029" lon="-2.09597">
        <ele>347.8</ele>
        <time>2021-05-29 09:24:30</time>
      </trkpt>
      <trkpt lat="43.10298" lon="-2.09592">
        <ele>347.8</ele>
        <time>2021-05-29 09:24:31</time>
      </trkpt>
      <trkpt lat="43.10306" lon="-2.09586">
        <ele>347.8</ele>
        <time>2021-05-29 09:24:32</time>
      </trkpt>
      <trkpt lat="43.10314" lon="-2.09581">
        <ele>348</ele>
        <time>2021-05-29 09:24:33</time>
      </trkpt>
      <trkpt lat="43.10322" lon="-2.09576">
        <ele>348</ele>
        <time>2021-05-29 09:24:34</time>
      </trkpt>
      <trkpt lat="43.1033" lon="-2.09571">
        <ele>348</ele>
        <time>2021-05-29 09:24:35</time>
      </trkpt>
      <trkpt lat="43.10339" lon="-2.09567">
        <ele>348</ele>
        <time>2021-05-29 09:24:36</time>
      </trkpt>
      <trkpt lat="43.10347" lon="-2.09562">
        <ele>348</ele>
        <time>2021-05-29 09:24:37</time>
      </trkpt>
      <trkpt lat="43.10356" lon="-2.09558">
        <ele>348</ele>
        <time>2021-05-29 09:24:38</time>
      </trkpt>
      <trkpt lat="43.10364" lon="-2.09555">
        <ele>348</ele>
        <time>2021-05-29 09:24:39</time>
      </trkpt>
      <trkpt lat="43.10372" lon="-2.09551">
        <ele>348</ele>
        <time>2021-05-29 09:24:40</time>
      </trkpt>
      <trkpt lat="43.10381" lon="-2.09548">
        <ele>348</ele>
        <time>2021-05-29 09:24:41</time>
      </trkpt>
      <trkpt lat="43.10389" lon="-2.09544">
        <ele>348.4</ele>
        <time>2021-05-29 09:24:42</time>
      </trkpt>
      <trkpt lat="43.10397" lon="-2.0954">
        <ele>348.4</ele>
        <time>2021-05-29 09:24:43</time>
      </trkpt>
      <trkpt lat="43.10404" lon="-2.09537">
        <ele>348.4</ele>
        <time>2021-05-29 09:24:44</time>
      </trkpt>
      <trkpt lat="43.10412" lon="-2.09533">
        <ele>348.6</ele>
        <time>2021-05-29 09:24:45</time>
      </trkpt>
      <trkpt lat="43.1042" lon="-2.0953">
        <ele>348.8</ele>
        <time>2021-05-29 09:24:46</time>
      </trkpt>
      <trkpt lat="43.10428" lon="-2.09526">
        <ele>348.8</ele>
        <time>2021-05-29 09:24:47</time>
      </trkpt>
      <trkpt lat="43.10436" lon="-2.09523">
        <ele>348.8</ele>
        <time>2021-05-29 09:24:48</time>
      </trkpt>
      <trkpt lat="43.10444" lon="-2.09519">
        <ele>348.8</ele>
        <time>2021-05-29 09:24:49</time>
      </trkpt>
      <trkpt lat="43.10451" lon="-2.09516">
        <ele>348.8</ele>
        <time>2021-05-29 09:24:50</time>
      </trkpt>
      <trkpt lat="43.10459" lon="-2.09512">
        <ele>349</ele>
        <time>2021-05-29 09:24:51</time>
      </trkpt>
      <trkpt lat="43.10466" lon="-2.09509">
        <ele>349.2</ele>
        <time>2021-05-29 09:24:52</time>
      </trkpt>
      <trkpt lat="43.10474" lon="-2.09506">
        <ele>349.2</ele>
        <time>2021-05-29 09:24:53</time>
      </trkpt>
      <trkpt lat="43.10482" lon="-2.09502">
        <ele>349.2</ele>
        <time>2021-05-29 09:24:54</time>
      </trkpt>
      <trkpt lat="43.10489" lon="-2.09499">
        <ele>349.2</ele>
        <time>2021-05-29 09:24:55</time>
      </trkpt>
      <trkpt lat="43.10496" lon="-2.09496">
        <ele>349.2</ele>
        <time>2021-05-29 09:24:56</time>
      </trkpt>
      <trkpt lat="43.10503" lon="-2.09493">
        <ele>349.4</ele>
        <time>2021-05-29 09:24:57</time>
      </trkpt>
      <trkpt lat="43.10511" lon="-2.09489">
        <ele>349.4</ele>
        <time>2021-05-29 09:24:58</time>
      </trkpt>
      <trkpt lat="43.10518" lon="-2.09486">
        <ele>349.8</ele>
        <time>2021-05-29 09:24:59</time>
      </trkpt>
      <trkpt lat="43.10525" lon="-2.09483">
        <ele>349.8</ele>
        <time>2021-05-29 09:25:00</time>
      </trkpt>
      <trkpt lat="43.10532" lon="-2.0948">
        <ele>349.8</ele>
        <time>2021-05-29 09:25:01</time>
      </trkpt>
      <trkpt lat="43.1054" lon="-2.09476">
        <ele>349.8</ele>
        <time>2021-05-29 09:25:02</time>
      </trkpt>
      <trkpt lat="43.10547" lon="-2.09473">
        <ele>350</ele>
        <time>2021-05-29 09:25:03</time>
      </trkpt>
      <trkpt lat="43.10554" lon="-2.0947">
        <ele>350</ele>
        <time>2021-05-29 09:25:04</time>
      </trkpt>
      <trkpt lat="43.10561" lon="-2.09467">
        <ele>350.2</ele>
        <time>2021-05-29 09:25:05</time>
      </trkpt>
      <trkpt lat="43.10569" lon="-2.09464">
        <ele>350.2</ele>
        <time>2021-05-29 09:25:06</time>
      </trkpt>
      <trkpt lat="43.10576" lon="-2.09461">
        <ele>350.2</ele>
        <time>2021-05-29 09:25:07</time>
      </trkpt>
      <trkpt lat="43.10583" lon="-2.09457">
        <ele>350.2</ele>
        <time>2021-05-29 09:25:08</time>
      </trkpt>
      <trkpt lat="43.1059" lon="-2.09454">
        <ele>350.2</ele>
        <time>2021-05-29 09:25:09</time>
      </trkpt>
      <trkpt lat="43.10597" lon="-2.09451">
        <ele>350.2</ele>
        <time>2021-05-29 09:25:10</time>
      </trkpt>
      <trkpt lat="43.10604" lon="-2.09448">
        <ele>350.4</ele>
        <time>2021-05-29 09:25:11</time>
      </trkpt>
      <trkpt lat="43.10611" lon="-2.09445">
        <ele>350.4</ele>
        <time>2021-05-29 09:25:12</time>
      </trkpt>
      <trkpt lat="43.10619" lon="-2.09442">
        <ele>350.4</ele>
        <time>2021-05-29 09:25:13</time>
      </trkpt>
      <trkpt lat="43.10626" lon="-2.09439">
        <ele>350.4</ele>
        <time>2021-05-29 09:25:14</time>
      </trkpt>
      <trkpt lat="43.10634" lon="-2.09437">
        <ele>350.6</ele>
        <time>2021-05-29 09:25:15</time>
      </trkpt>
      <trkpt lat="43.10641" lon="-2.09436">
        <ele>350.6</ele>
        <time>2021-05-29 09:25:16</time>
      </trkpt>
      <trkpt lat="43.10649" lon="-2.09436">
        <ele>350.6</ele>
        <time>2021-05-29 09:25:17</time>
      </trkpt>
      <trkpt lat="43.10658" lon="-2.09437">
        <ele>350.6</ele>
        <time>2021-05-29 09:25:18</time>
      </trkpt>
      <trkpt lat="43.10666" lon="-2.0944">
        <ele>350.6</ele>
        <time>2021-05-29 09:25:19</time>
      </trkpt>
      <trkpt lat="43.10673" lon="-2.09443">
        <ele>351</ele>
        <time>2021-05-29 09:25:20</time>
      </trkpt>
      <trkpt lat="43.1068" lon="-2.09447">
        <ele>351</ele>
        <time>2021-05-29 09:25:21</time>
      </trkpt>
      <trkpt lat="43.10688" lon="-2.0945">
        <ele>351</ele>
        <time>2021-05-29 09:25:22</time>
      </trkpt>
      <trkpt lat="43.10696" lon="-2.09454">
        <ele>351</ele>
        <time>2021-05-29 09:25:23</time>
      </trkpt>
      <trkpt lat="43.10704" lon="-2.09458">
        <ele>351.2</ele>
        <time>2021-05-29 09:25:24</time>
      </trkpt>
      <trkpt lat="43.10712" lon="-2.09462">
        <ele>351.4</ele>
        <time>2021-05-29 09:25:25</time>
      </trkpt>
      <trkpt lat="43.1072" lon="-2.09466">
        <ele>351.4</ele>
        <time>2021-05-29 09:25:26</time>
      </trkpt>
      <trkpt lat="43.10728" lon="-2.0947">
        <ele>351.4</ele>
        <time>2021-05-29 09:25:27</time>
      </trkpt>
      <trkpt lat="43.10736" lon="-2.09474">
        <ele>351.4</ele>
        <time>2021-05-29 09:25:28</time>
      </trkpt>
      <trkpt lat="43.10744" lon="-2.09478">
        <ele>351.4</ele>
        <time>2021-05-29 09:25:29</time>
      </trkpt>
      <trkpt lat="43.10753" lon="-2.09482">
        <ele>351.4</ele>
        <time>2021-05-29 09:25:30</time>
      </trkpt>
      <trkpt lat="43.10761" lon="-2.09486">
        <ele>351.6</ele>
        <time>2021-05-29 09:25:31</time>
      </trkpt>
      <trkpt lat="43.1077" lon="-2.09491">
        <ele>351.8</ele>
        <time>2021-05-29 09:25:32</time>
      </trkpt>
      <trkpt lat="43.10779" lon="-2.09496">
        <ele>351.8</ele>
        <time>2021-05-29 09:25:33</time>
      </trkpt>
      <trkpt lat="43.10787" lon="-2.09499">
        <ele>352</ele>
        <time>2021-05-29 09:25:34</time>
      </trkpt>
      <trkpt lat="43.10794" lon="-2.09503">
        <ele>352</ele>
        <time>2021-05-29 09:25:35</time>
      </trkpt>
      <trkpt lat="43.10802" lon="-2.09507">
        <ele>352.4</ele>
        <time>2021-05-29 09:25:36</time>
      </trkpt>
      <trkpt lat="43.10809" lon="-2.09511">
        <ele>352.4</ele>
        <time>2021-05-29 09:25:37</time>
      </trkpt>
      <trkpt lat="43.10817" lon="-2.09514">
        <ele>352.4</ele>
        <time>2021-05-29 09:25:38</time>
      </trkpt>
      <trkpt lat="43.10825" lon="-2.09516">
        <ele>352.4</ele>
        <time>2021-05-29 09:25:39</time>
      </trkpt>
      <trkpt lat="43.10833" lon="-2.09518">
        <ele>352.4</ele>
        <time>2021-05-29 09:25:40</time>
      </trkpt>
      <trkpt lat="43.10841" lon="-2.09518">
        <ele>352.6</ele>
        <time>2021-05-29 09:25:41</time>
      </trkpt>
      <trkpt lat="43.10849" lon="-2.09518">
        <ele>352.6</ele>
        <time>2021-05-29 09:25:42</time>
      </trkpt>
      <trkpt lat="43.10857" lon="-2.09517">
        <ele>352.6</ele>
        <time>2021-05-29 09:25:43</time>
      </trkpt>
      <trkpt lat="43.10865" lon="-2.09516">
        <ele>352.6</ele>
        <time>2021-05-29 09:25:44</time>
      </trkpt>
      <trkpt lat="43.10872" lon="-2.09515">
        <ele>353</ele>
        <time>2021-05-29 09:25:45</time>
      </trkpt>
      <trkpt lat="43.10879" lon="-2.09514">
        <ele>353.2</ele>
        <time>2021-05-29 09:25:46</time>
      </trkpt>
      <trkpt lat="43.10885" lon="-2.09513">
        <ele>353.2</ele>
        <time>2021-05-29 09:25:47</time>
      </trkpt>
      <trkpt lat="43.10891" lon="-2.09513">
        <ele>353.4</ele>
        <time>2021-05-29 09:25:48</time>
      </trkpt>
      <trkpt lat="43.10897" lon="-2.09513">
        <ele>353.8</ele>
        <time>2021-05-29 09:25:49</time>
      </trkpt>
      <trkpt lat="43.10904" lon="-2.0951">
        <ele>353.8</ele>
        <time>2021-05-29 09:25:50</time>
      </trkpt>
      <trkpt lat="43.1091" lon="-2.09505">
        <ele>354</ele>
        <time>2021-05-29 09:25:51</time>
      </trkpt>
      <trkpt lat="43.10917" lon="-2.09501">
        <ele>354.2</ele>
        <time>2021-05-29 09:25:52</time>
      </trkpt>
      <trkpt lat="43.10924" lon="-2.09498">
        <ele>354.2</ele>
        <time>2021-05-29 09:25:53</time>
      </trkpt>
      <trkpt lat="43.10931" lon="-2.09494">
        <ele>354.6</ele>
        <time>2021-05-29 09:25:54</time>
      </trkpt>
      <trkpt lat="43.10939" lon="-2.0949">
        <ele>354.6</ele>
        <time>2021-05-29 09:25:55</time>
      </trkpt>
      <trkpt lat="43.10946" lon="-2.09486">
        <ele>354.6</ele>
        <time>2021-05-29 09:25:56</time>
      </trkpt>
      <trkpt lat="43.10952" lon="-2.09483">
        <ele>354.8</ele>
        <time>2021-05-29 09:25:57</time>
      </trkpt>
      <trkpt lat="43.10959" lon="-2.09479">
        <ele>354.8</ele>
        <time>2021-05-29 09:25:58</time>
      </trkpt>
      <trkpt lat="43.10965" lon="-2.09475">
        <ele>354.8</ele>
        <time>2021-05-29 09:25:59</time>
      </trkpt>
      <trkpt lat="43.1097" lon="-2.09471">
        <ele>355</ele>
        <time>2021-05-29 09:26:00</time>
      </trkpt>
      <trkpt lat="43.10975" lon="-2.09465">
        <ele>355.2</ele>
        <time>2021-05-29 09:26:01</time>
      </trkpt>
      <trkpt lat="43.10982" lon="-2.0946">
        <ele>355</ele>
        <time>2021-05-29 09:26:02</time>
      </trkpt>
      <trkpt lat="43.10988" lon="-2.09456">
        <ele>355</ele>
        <time>2021-05-29 09:26:03</time>
      </trkpt>
      <trkpt lat="43.10995" lon="-2.09452">
        <ele>355</ele>
        <time>2021-05-29 09:26:04</time>
      </trkpt>
      <trkpt lat="43.11002" lon="-2.09448">
        <ele>355</ele>
        <time>2021-05-29 09:26:05</time>
      </trkpt>
      <trkpt lat="43.11009" lon="-2.09443">
        <ele>355.2</ele>
        <time>2021-05-29 09:26:06</time>
      </trkpt>
      <trkpt lat="43.11017" lon="-2.09438">
        <ele>355.2</ele>
        <time>2021-05-29 09:26:07</time>
      </trkpt>
      <trkpt lat="43.11024" lon="-2.09434">
        <ele>355.2</ele>
        <time>2021-05-29 09:26:08</time>
      </trkpt>
      <trkpt lat="43.11031" lon="-2.0943">
        <ele>355.2</ele>
        <time>2021-05-29 09:26:09</time>
      </trkpt>
      <trkpt lat="43.11038" lon="-2.09425">
        <ele>355.2</ele>
        <time>2021-05-29 09:26:10</time>
      </trkpt>
      <trkpt lat="43.11045" lon="-2.09421">
        <ele>355.2</ele>
        <time>2021-05-29 09:26:11</time>
      </trkpt>
      <trkpt lat="43.11051" lon="-2.09417">
        <ele>355.4</ele>
        <time>2021-05-29 09:26:12</time>
      </trkpt>
      <trkpt lat="43.11057" lon="-2.09411">
        <ele>355.4</ele>
        <time>2021-05-29 09:26:13</time>
      </trkpt>
      <trkpt lat="43.11062" lon="-2.09403">
        <ele>355.6</ele>
        <time>2021-05-29 09:26:14</time>
      </trkpt>
      <trkpt lat="43.11066" lon="-2.09394">
        <ele>355.6</ele>
        <time>2021-05-29 09:26:15</time>
      </trkpt>
      <trkpt lat="43.1107" lon="-2.09384">
        <ele>355.6</ele>
        <time>2021-05-29 09:26:16</time>
      </trkpt>
      <trkpt lat="43.11074" lon="-2.09373">
        <ele>355.6</ele>
        <time>2021-05-29 09:26:17</time>
      </trkpt>
      <trkpt lat="43.11076" lon="-2.09362">
        <ele>355.6</ele>
        <time>2021-05-29 09:26:18</time>
      </trkpt>
      <trkpt lat="43.11079" lon="-2.09351">
        <ele>356</ele>
        <time>2021-05-29 09:26:19</time>
      </trkpt>
      <trkpt lat="43.11081" lon="-2.0934">
        <ele>356</ele>
        <time>2021-05-29 09:26:20</time>
      </trkpt>
      <trkpt lat="43.11084" lon="-2.0933">
        <ele>356</ele>
        <time>2021-05-29 09:26:21</time>
      </trkpt>
      <trkpt lat="43.11086" lon="-2.09319">
        <ele>356</ele>
        <time>2021-05-29 09:26:22</time>
      </trkpt>
      <trkpt lat="43.11088" lon="-2.09309">
        <ele>356</ele>
        <time>2021-05-29 09:26:23</time>
      </trkpt>
      <trkpt lat="43.11091" lon="-2.09299">
        <ele>356</ele>
        <time>2021-05-29 09:26:24</time>
      </trkpt>
      <trkpt lat="43.11093" lon="-2.09288">
        <ele>356</ele>
        <time>2021-05-29 09:26:25</time>
      </trkpt>
      <trkpt lat="43.11095" lon="-2.09277">
        <ele>356</ele>
        <time>2021-05-29 09:26:26</time>
      </trkpt>
      <trkpt lat="43.11099" lon="-2.09267">
        <ele>356.2</ele>
        <time>2021-05-29 09:26:27</time>
      </trkpt>
      <trkpt lat="43.11102" lon="-2.09257">
        <ele>356.2</ele>
        <time>2021-05-29 09:26:28</time>
      </trkpt>
      <trkpt lat="43.11106" lon="-2.09248">
        <ele>356.2</ele>
        <time>2021-05-29 09:26:29</time>
      </trkpt>
      <trkpt lat="43.1111" lon="-2.09238">
        <ele>356.4</ele>
        <time>2021-05-29 09:26:30</time>
      </trkpt>
      <trkpt lat="43.11114" lon="-2.09228">
        <ele>356.4</ele>
        <time>2021-05-29 09:26:31</time>
      </trkpt>
      <trkpt lat="43.11116" lon="-2.09218">
        <ele>356.4</ele>
        <time>2021-05-29 09:26:32</time>
      </trkpt>
      <trkpt lat="43.11119" lon="-2.09208">
        <ele>356.4</ele>
        <time>2021-05-29 09:26:33</time>
      </trkpt>
      <trkpt lat="43.11122" lon="-2.09198">
        <ele>356.4</ele>
        <time>2021-05-29 09:26:34</time>
      </trkpt>
      <trkpt lat="43.11124" lon="-2.09188">
        <ele>356.4</ele>
        <time>2021-05-29 09:26:35</time>
      </trkpt>
      <trkpt lat="43.11127" lon="-2.09177">
        <ele>356.4</ele>
        <time>2021-05-29 09:26:36</time>
      </trkpt>
      <trkpt lat="43.11129" lon="-2.09166">
        <ele>356.6</ele>
        <time>2021-05-29 09:26:37</time>
      </trkpt>
      <trkpt lat="43.11131" lon="-2.09155">
        <ele>356.6</ele>
        <time>2021-05-29 09:26:38</time>
      </trkpt>
      <trkpt lat="43.11133" lon="-2.09144">
        <ele>356.6</ele>
        <time>2021-05-29 09:26:39</time>
      </trkpt>
      <trkpt lat="43.11134" lon="-2.09134">
        <ele>356.6</ele>
        <time>2021-05-29 09:26:40</time>
      </trkpt>
      <trkpt lat="43.11135" lon="-2.09122">
        <ele>356.8</ele>
        <time>2021-05-29 09:26:41</time>
      </trkpt>
      <trkpt lat="43.11136" lon="-2.09111">
        <ele>356.8</ele>
        <time>2021-05-29 09:26:42</time>
      </trkpt>
      <trkpt lat="43.11136" lon="-2.091">
        <ele>356.8</ele>
        <time>2021-05-29 09:26:43</time>
      </trkpt>
      <trkpt lat="43.11136" lon="-2.0909">
        <ele>356.8</ele>
        <time>2021-05-29 09:26:44</time>
      </trkpt>
      <trkpt lat="43.11136" lon="-2.09079">
        <ele>356.8</ele>
        <time>2021-05-29 09:26:45</time>
      </trkpt>
      <trkpt lat="43.11136" lon="-2.09069">
        <ele>356.8</ele>
        <time>2021-05-29 09:26:46</time>
      </trkpt>
      <trkpt lat="43.11136" lon="-2.09058">
        <ele>356.8</ele>
        <time>2021-05-29 09:26:47</time>
      </trkpt>
      <trkpt lat="43.11136" lon="-2.09046">
        <ele>357</ele>
        <time>2021-05-29 09:26:48</time>
      </trkpt>
      <trkpt lat="43.11137" lon="-2.09035">
        <ele>357</ele>
        <time>2021-05-29 09:26:49</time>
      </trkpt>
      <trkpt lat="43.1114" lon="-2.09024">
        <ele>357</ele>
        <time>2021-05-29 09:26:50</time>
      </trkpt>
      <trkpt lat="43.11143" lon="-2.09012">
        <ele>357</ele>
        <time>2021-05-29 09:26:51</time>
      </trkpt>
      <trkpt lat="43.11147" lon="-2.09002">
        <ele>357.2</ele>
        <time>2021-05-29 09:26:52</time>
      </trkpt>
      <trkpt lat="43.11152" lon="-2.08992">
        <ele>357.2</ele>
        <time>2021-05-29 09:26:53</time>
      </trkpt>
      <trkpt lat="43.11157" lon="-2.08983">
        <ele>357.2</ele>
        <time>2021-05-29 09:26:54</time>
      </trkpt>
      <trkpt lat="43.11164" lon="-2.08975">
        <ele>357.2</ele>
        <time>2021-05-29 09:26:55</time>
      </trkpt>
      <trkpt lat="43.1117" lon="-2.08967">
        <ele>357.2</ele>
        <time>2021-05-29 09:26:56</time>
      </trkpt>
      <trkpt lat="43.11176" lon="-2.08958">
        <ele>357.4</ele>
        <time>2021-05-29 09:26:57</time>
      </trkpt>
      <trkpt lat="43.11183" lon="-2.0895">
        <ele>357.4</ele>
        <time>2021-05-29 09:26:58</time>
      </trkpt>
      <trkpt lat="43.11189" lon="-2.08943">
        <ele>357.4</ele>
        <time>2021-05-29 09:26:59</time>
      </trkpt>
      <trkpt lat="43.11196" lon="-2.08938">
        <ele>357.4</ele>
        <time>2021-05-29 09:27:00</time>
      </trkpt>
      <trkpt lat="43.11203" lon="-2.08933">
        <ele>357.6</ele>
        <time>2021-05-29 09:27:01</time>
      </trkpt>
      <trkpt lat="43.11211" lon="-2.08928">
        <ele>357.6</ele>
        <time>2021-05-29 09:27:02</time>
      </trkpt>
      <trkpt lat="43.11218" lon="-2.08924">
        <ele>358.2</ele>
        <time>2021-05-29 09:27:03</time>
      </trkpt>
      <trkpt lat="43.11226" lon="-2.08919">
        <ele>358.2</ele>
        <time>2021-05-29 09:27:04</time>
      </trkpt>
      <trkpt lat="43.11234" lon="-2.08916">
        <ele>358.4</ele>
        <time>2021-05-29 09:27:05</time>
      </trkpt>
      <trkpt lat="43.11242" lon="-2.08914">
        <ele>358.6</ele>
        <time>2021-05-29 09:27:06</time>
      </trkpt>
      <trkpt lat="43.1125" lon="-2.08914">
        <ele>358.8</ele>
        <time>2021-05-29 09:27:07</time>
      </trkpt>
      <trkpt lat="43.11257" lon="-2.08913">
        <ele>358.8</ele>
        <time>2021-05-29 09:27:08</time>
      </trkpt>
      <trkpt lat="43.11266" lon="-2.08912">
        <ele>359</ele>
        <time>2021-05-29 09:27:09</time>
      </trkpt>
      <trkpt lat="43.11274" lon="-2.08912">
        <ele>359</ele>
        <time>2021-05-29 09:27:10</time>
      </trkpt>
      <trkpt lat="43.11283" lon="-2.08912">
        <ele>359.2</ele>
        <time>2021-05-29 09:27:11</time>
      </trkpt>
      <trkpt lat="43.11291" lon="-2.08913">
        <ele>359.2</ele>
        <time>2021-05-29 09:27:12</time>
      </trkpt>
      <trkpt lat="43.113" lon="-2.08915">
        <ele>359.4</ele>
        <time>2021-05-29 09:27:13</time>
      </trkpt>
      <trkpt lat="43.1131" lon="-2.08919">
        <ele>359.8</ele>
        <time>2021-05-29 09:27:14</time>
      </trkpt>
      <trkpt lat="43.11318" lon="-2.08924">
        <ele>360.2</ele>
        <time>2021-05-29 09:27:15</time>
      </trkpt>
      <trkpt lat="43.11327" lon="-2.0893">
        <ele>360.2</ele>
        <time>2021-05-29 09:27:16</time>
      </trkpt>
      <trkpt lat="43.11334" lon="-2.08937">
        <ele>360.4</ele>
        <time>2021-05-29 09:27:17</time>
      </trkpt>
      <trkpt lat="43.11341" lon="-2.08946">
        <ele>360.8</ele>
        <time>2021-05-29 09:27:18</time>
      </trkpt>
      <trkpt lat="43.11347" lon="-2.08955">
        <ele>360.8</ele>
        <time>2021-05-29 09:27:19</time>
      </trkpt>
      <trkpt lat="43.11352" lon="-2.08964">
        <ele>361</ele>
        <time>2021-05-29 09:27:20</time>
      </trkpt>
      <trkpt lat="43.11358" lon="-2.08972">
        <ele>361</ele>
        <time>2021-05-29 09:27:21</time>
      </trkpt>
      <trkpt lat="43.11365" lon="-2.08978">
        <ele>361.4</ele>
        <time>2021-05-29 09:27:22</time>
      </trkpt>
      <trkpt lat="43.11372" lon="-2.08985">
        <ele>361.4</ele>
        <time>2021-05-29 09:27:23</time>
      </trkpt>
      <trkpt lat="43.1138" lon="-2.08992">
        <ele>361.8</ele>
        <time>2021-05-29 09:27:24</time>
      </trkpt>
      <trkpt lat="43.11388" lon="-2.08998">
        <ele>362.2</ele>
        <time>2021-05-29 09:27:25</time>
      </trkpt>
      <trkpt lat="43.11396" lon="-2.09004">
        <ele>362.2</ele>
        <time>2021-05-29 09:27:26</time>
      </trkpt>
      <trkpt lat="43.11404" lon="-2.09009">
        <ele>362.4</ele>
        <time>2021-05-29 09:27:27</time>
      </trkpt>
      <trkpt lat="43.11412" lon="-2.09013">
        <ele>362.6</ele>
        <time>2021-05-29 09:27:28</time>
      </trkpt>
      <trkpt lat="43.1142" lon="-2.09018">
        <ele>363</ele>
        <time>2021-05-29 09:27:29</time>
      </trkpt>
      <trkpt lat="43.11427" lon="-2.09022">
        <ele>363.2</ele>
        <time>2021-05-29 09:27:30</time>
      </trkpt>
      <trkpt lat="43.11435" lon="-2.09026">
        <ele>363.4</ele>
        <time>2021-05-29 09:27:31</time>
      </trkpt>
      <trkpt lat="43.11443" lon="-2.09031">
        <ele>363.6</ele>
        <time>2021-05-29 09:27:32</time>
      </trkpt>
      <trkpt lat="43.11451" lon="-2.09036">
        <ele>364</ele>
        <time>2021-05-29 09:27:33</time>
      </trkpt>
      <trkpt lat="43.11458" lon="-2.09041">
        <ele>364.2</ele>
        <time>2021-05-29 09:27:34</time>
      </trkpt>
      <trkpt lat="43.11466" lon="-2.09045">
        <ele>364.2</ele>
        <time>2021-05-29 09:27:35</time>
      </trkpt>
      <trkpt lat="43.11473" lon="-2.09048">
        <ele>364.4</ele>
        <time>2021-05-29 09:27:36</time>
      </trkpt>
      <trkpt lat="43.11481" lon="-2.09052">
        <ele>364.8</ele>
        <time>2021-05-29 09:27:37</time>
      </trkpt>
      <trkpt lat="43.11489" lon="-2.09055">
        <ele>365.2</ele>
        <time>2021-05-29 09:27:38</time>
      </trkpt>
      <trkpt lat="43.11496" lon="-2.09059">
        <ele>365.4</ele>
        <time>2021-05-29 09:27:39</time>
      </trkpt>
      <trkpt lat="43.11504" lon="-2.09062">
        <ele>365.6</ele>
        <time>2021-05-29 09:27:40</time>
      </trkpt>
      <trkpt lat="43.11512" lon="-2.09066">
        <ele>366</ele>
        <time>2021-05-29 09:27:41</time>
      </trkpt>
      <trkpt lat="43.11519" lon="-2.09069">
        <ele>366.2</ele>
        <time>2021-05-29 09:27:42</time>
      </trkpt>
      <trkpt lat="43.11526" lon="-2.09073">
        <ele>366.2</ele>
        <time>2021-05-29 09:27:43</time>
      </trkpt>
      <trkpt lat="43.11533" lon="-2.09076">
        <ele>366.4</ele>
        <time>2021-05-29 09:27:44</time>
      </trkpt>
      <trkpt lat="43.11541" lon="-2.09078">
        <ele>366.6</ele>
        <time>2021-05-29 09:27:45</time>
      </trkpt>
      <trkpt lat="43.11548" lon="-2.09081">
        <ele>367</ele>
        <time>2021-05-29 09:27:46</time>
      </trkpt>
      <trkpt lat="43.11554" lon="-2.09085">
        <ele>367</ele>
        <time>2021-05-29 09:27:47</time>
      </trkpt>
      <trkpt lat="43.1156" lon="-2.0909">
        <ele>367.2</ele>
        <time>2021-05-29 09:27:48</time>
      </trkpt>
      <trkpt lat="43.11566" lon="-2.09093">
        <ele>367.6</ele>
        <time>2021-05-29 09:27:49</time>
      </trkpt>
      <trkpt lat="43.11572" lon="-2.09097">
        <ele>367.6</ele>
        <time>2021-05-29 09:27:50</time>
      </trkpt>
      <trkpt lat="43.11578" lon="-2.09099">
        <ele>368</ele>
        <time>2021-05-29 09:27:51</time>
      </trkpt>
      <trkpt lat="43.11585" lon="-2.091">
        <ele>368</ele>
        <time>2021-05-29 09:27:52</time>
      </trkpt>
      <trkpt lat="43.11591" lon="-2.09102">
        <ele>368.2</ele>
        <time>2021-05-29 09:27:53</time>
      </trkpt>
      <trkpt lat="43.11598" lon="-2.09105">
        <ele>368.4</ele>
        <time>2021-05-29 09:27:54</time>
      </trkpt>
      <trkpt lat="43.11605" lon="-2.09107">
        <ele>368.8</ele>
        <time>2021-05-29 09:27:55</time>
      </trkpt>
      <trkpt lat="43.11612" lon="-2.09108">
        <ele>369</ele>
        <time>2021-05-29 09:27:56</time>
      </trkpt>
      <trkpt lat="43.11618" lon="-2.09109">
        <ele>369</ele>
        <time>2021-05-29 09:27:57</time>
      </trkpt>
      <trkpt lat="43.11624" lon="-2.0911">
        <ele>369.4</ele>
        <time>2021-05-29 09:27:58</time>
      </trkpt>
      <trkpt lat="43.1163" lon="-2.09111">
        <ele>369.4</ele>
        <time>2021-05-29 09:27:59</time>
      </trkpt>
      <trkpt lat="43.11637" lon="-2.09111">
        <ele>369.6</ele>
        <time>2021-05-29 09:28:00</time>
      </trkpt>
      <trkpt lat="43.11644" lon="-2.09111">
        <ele>369.8</ele>
        <time>2021-05-29 09:28:01</time>
      </trkpt>
      <trkpt lat="43.11652" lon="-2.0911">
        <ele>369.8</ele>
        <time>2021-05-29 09:28:02</time>
      </trkpt>
      <trkpt lat="43.1166" lon="-2.09109">
        <ele>370.2</ele>
        <time>2021-05-29 09:28:03</time>
      </trkpt>
      <trkpt lat="43.11667" lon="-2.09108">
        <ele>370.4</ele>
        <time>2021-05-29 09:28:04</time>
      </trkpt>
      <trkpt lat="43.11675" lon="-2.09106">
        <ele>370.6</ele>
        <time>2021-05-29 09:28:05</time>
      </trkpt>
      <trkpt lat="43.11683" lon="-2.09103">
        <ele>370.8</ele>
        <time>2021-05-29 09:28:06</time>
      </trkpt>
      <trkpt lat="43.11691" lon="-2.09098">
        <ele>371</ele>
        <time>2021-05-29 09:28:07</time>
      </trkpt>
      <trkpt lat="43.11699" lon="-2.0909">
        <ele>371.4</ele>
        <time>2021-05-29 09:28:08</time>
      </trkpt>
      <trkpt lat="43.11707" lon="-2.09082">
        <ele>371.4</ele>
        <time>2021-05-29 09:28:09</time>
      </trkpt>
      <trkpt lat="43.11714" lon="-2.09074">
        <ele>371.6</ele>
        <time>2021-05-29 09:28:10</time>
      </trkpt>
      <trkpt lat="43.11722" lon="-2.09067">
        <ele>371.8</ele>
        <time>2021-05-29 09:28:11</time>
      </trkpt>
      <trkpt lat="43.11731" lon="-2.09061">
        <ele>371.8</ele>
        <time>2021-05-29 09:28:12</time>
      </trkpt>
      <trkpt lat="43.11738" lon="-2.09054">
        <ele>371.8</ele>
        <time>2021-05-29 09:28:13</time>
      </trkpt>
      <trkpt lat="43.11746" lon="-2.09047">
        <ele>371.8</ele>
        <time>2021-05-29 09:28:14</time>
      </trkpt>
      <trkpt lat="43.11754" lon="-2.09041">
        <ele>371.8</ele>
        <time>2021-05-29 09:28:15</time>
      </trkpt>
      <trkpt lat="43.11762" lon="-2.09035">
        <ele>372</ele>
        <time>2021-05-29 09:28:16</time>
      </trkpt>
      <trkpt lat="43.1177" lon="-2.09028">
        <ele>372.2</ele>
        <time>2021-05-29 09:28:17</time>
      </trkpt>
      <trkpt lat="43.11777" lon="-2.09022">
        <ele>372.2</ele>
        <time>2021-05-29 09:28:18</time>
      </trkpt>
      <trkpt lat="43.11783" lon="-2.09016">
        <ele>372.2</ele>
        <time>2021-05-29 09:28:19</time>
      </trkpt>
      <trkpt lat="43.1179" lon="-2.0901">
        <ele>372.4</ele>
        <time>2021-05-29 09:28:20</time>
      </trkpt>
      <trkpt lat="43.11795" lon="-2.09004">
        <ele>372.6</ele>
        <time>2021-05-29 09:28:21</time>
      </trkpt>
      <trkpt lat="43.118" lon="-2.08999">
        <ele>372.6</ele>
        <time>2021-05-29 09:28:22</time>
      </trkpt>
      <trkpt lat="43.11806" lon="-2.08994">
        <ele>372.8</ele>
        <time>2021-05-29 09:28:23</time>
      </trkpt>
      <trkpt lat="43.11811" lon="-2.0899">
        <ele>373.2</ele>
        <time>2021-05-29 09:28:24</time>
      </trkpt>
      <trkpt lat="43.11816" lon="-2.08985">
        <ele>373.2</ele>
        <time>2021-05-29 09:28:25</time>
      </trkpt>
      <trkpt lat="43.11822" lon="-2.08981">
        <ele>373.4</ele>
        <time>2021-05-29 09:28:26</time>
      </trkpt>
      <trkpt lat="43.11828" lon="-2.08977">
        <ele>373.4</ele>
        <time>2021-05-29 09:28:27</time>
      </trkpt>
      <trkpt lat="43.11835" lon="-2.08974">
        <ele>373.4</ele>
        <time>2021-05-29 09:28:28</time>
      </trkpt>
      <trkpt lat="43.1184" lon="-2.08971">
        <ele>373.8</ele>
        <time>2021-05-29 09:28:29</time>
      </trkpt>
      <trkpt lat="43.11846" lon="-2.08967">
        <ele>374</ele>
        <time>2021-05-29 09:28:30</time>
      </trkpt>
      <trkpt lat="43.11852" lon="-2.08965">
        <ele>374.2</ele>
        <time>2021-05-29 09:28:31</time>
      </trkpt>
      <trkpt lat="43.11858" lon="-2.08961">
        <ele>374.4</ele>
        <time>2021-05-29 09:28:32</time>
      </trkpt>
      <trkpt lat="43.11864" lon="-2.08959">
        <ele>374.6</ele>
        <time>2021-05-29 09:28:33</time>
      </trkpt>
      <trkpt lat="43.1187" lon="-2.08956">
        <ele>374.6</ele>
        <time>2021-05-29 09:28:34</time>
      </trkpt>
      <trkpt lat="43.11876" lon="-2.08953">
        <ele>374.6</ele>
        <time>2021-05-29 09:28:35</time>
      </trkpt>
      <trkpt lat="43.11883" lon="-2.0895">
        <ele>374.8</ele>
        <time>2021-05-29 09:28:36</time>
      </trkpt>
      <trkpt lat="43.11889" lon="-2.08948">
        <ele>374.8</ele>
        <time>2021-05-29 09:28:37</time>
      </trkpt>
      <trkpt lat="43.11896" lon="-2.08945">
        <ele>375</ele>
        <time>2021-05-29 09:28:38</time>
      </trkpt>
      <trkpt lat="43.11903" lon="-2.08943">
        <ele>375.2</ele>
        <time>2021-05-29 09:28:39</time>
      </trkpt>
      <trkpt lat="43.1191" lon="-2.08941">
        <ele>375.4</ele>
        <time>2021-05-29 09:28:40</time>
      </trkpt>
      <trkpt lat="43.11919" lon="-2.0894">
        <ele>375.6</ele>
        <time>2021-05-29 09:28:41</time>
      </trkpt>
      <trkpt lat="43.1193" lon="-2.08937">
        <ele>376</ele>
        <time>2021-05-29 09:28:42</time>
      </trkpt>
      <trkpt lat="43.1194" lon="-2.08937">
        <ele>376.2</ele>
        <time>2021-05-29 09:28:43</time>
      </trkpt>
      <trkpt lat="43.1195" lon="-2.08938">
        <ele>376.4</ele>
        <time>2021-05-29 09:28:44</time>
      </trkpt>
      <trkpt lat="43.11959" lon="-2.0894">
        <ele>376.4</ele>
        <time>2021-05-29 09:28:45</time>
      </trkpt>
      <trkpt lat="43.11967" lon="-2.08942">
        <ele>376.8</ele>
        <time>2021-05-29 09:28:46</time>
      </trkpt>
      <trkpt lat="43.1198" lon="-2.08948">
        <ele>377.2</ele>
        <time>2021-05-29 09:28:47</time>
      </trkpt>
      <trkpt lat="43.11993" lon="-2.08954">
        <ele>377</ele>
        <time>2021-05-29 09:28:48</time>
      </trkpt>
      <trkpt lat="43.12002" lon="-2.08957">
        <ele>377</ele>
        <time>2021-05-29 09:28:49</time>
      </trkpt>
      <trkpt lat="43.1201" lon="-2.0896">
        <ele>377.2</ele>
        <time>2021-05-29 09:28:50</time>
      </trkpt>
      <trkpt lat="43.1202" lon="-2.08962">
        <ele>377.4</ele>
        <time>2021-05-29 09:28:51</time>
      </trkpt>
      <trkpt lat="43.1203" lon="-2.08962">
        <ele>377.6</ele>
        <time>2021-05-29 09:28:52</time>
      </trkpt>
      <trkpt lat="43.12039" lon="-2.08962">
        <ele>377.8</ele>
        <time>2021-05-29 09:28:53</time>
      </trkpt>
      <trkpt lat="43.12046" lon="-2.0896">
        <ele>377.6</ele>
        <time>2021-05-29 09:28:54</time>
      </trkpt>
      <trkpt lat="43.1205" lon="-2.08955">
        <ele>378</ele>
        <time>2021-05-29 09:28:55</time>
      </trkpt>
      <trkpt lat="43.12058" lon="-2.08952">
        <ele>378</ele>
        <time>2021-05-29 09:28:56</time>
      </trkpt>
      <trkpt lat="43.12055" lon="-2.08945">
        <ele>378</ele>
        <time>2021-05-29 09:28:57</time>
      </trkpt>
      <trkpt lat="43.12059" lon="-2.08941">
        <ele>378.2</ele>
        <time>2021-05-29 09:28:58</time>
      </trkpt>
      <trkpt lat="43.12064" lon="-2.08938">
        <ele>378.2</ele>
        <time>2021-05-29 09:28:59</time>
      </trkpt>
      <trkpt lat="43.12071" lon="-2.08934">
        <ele>378.4</ele>
        <time>2021-05-29 09:29:00</time>
      </trkpt>
      <trkpt lat="43.12077" lon="-2.08933">
        <ele>378.6</ele>
        <time>2021-05-29 09:29:01</time>
      </trkpt>
      <trkpt lat="43.12083" lon="-2.0893">
        <ele>378.8</ele>
        <time>2021-05-29 09:29:02</time>
      </trkpt>
      <trkpt lat="43.1209" lon="-2.08926">
        <ele>379</ele>
        <time>2021-05-29 09:29:03</time>
      </trkpt>
      <trkpt lat="43.12097" lon="-2.0892">
        <ele>379</ele>
        <time>2021-05-29 09:29:04</time>
      </trkpt>
      <trkpt lat="43.12105" lon="-2.08915">
        <ele>379.2</ele>
        <time>2021-05-29 09:29:05</time>
      </trkpt>
      <trkpt lat="43.12113" lon="-2.08909">
        <ele>379.4</ele>
        <time>2021-05-29 09:29:06</time>
      </trkpt>
      <trkpt lat="43.1212" lon="-2.08905">
        <ele>379.4</ele>
        <time>2021-05-29 09:29:07</time>
      </trkpt>
      <trkpt lat="43.12127" lon="-2.08899">
        <ele>379.6</ele>
        <time>2021-05-29 09:29:08</time>
      </trkpt>
      <trkpt lat="43.12134" lon="-2.08893">
        <ele>380</ele>
        <time>2021-05-29 09:29:09</time>
      </trkpt>
      <trkpt lat="43.1214" lon="-2.08887">
        <ele>380</ele>
        <time>2021-05-29 09:29:10</time>
      </trkpt>
      <trkpt lat="43.12147" lon="-2.08882">
        <ele>380</ele>
        <time>2021-05-29 09:29:11</time>
      </trkpt>
      <trkpt lat="43.12153" lon="-2.08876">
        <ele>380.4</ele>
        <time>2021-05-29 09:29:12</time>
      </trkpt>
      <trkpt lat="43.1216" lon="-2.08871">
        <ele>380.4</ele>
        <time>2021-05-29 09:29:13</time>
      </trkpt>
      <trkpt lat="43.12168" lon="-2.08866">
        <ele>380.6</ele>
        <time>2021-05-29 09:29:14</time>
      </trkpt>
      <trkpt lat="43.12175" lon="-2.08859">
        <ele>380.6</ele>
        <time>2021-05-29 09:29:15</time>
      </trkpt>
      <trkpt lat="43.12183" lon="-2.08852">
        <ele>380.8</ele>
        <time>2021-05-29 09:29:16</time>
      </trkpt>
      <trkpt lat="43.1219" lon="-2.08846">
        <ele>380.8</ele>
        <time>2021-05-29 09:29:17</time>
      </trkpt>
      <trkpt lat="43.12197" lon="-2.0884">
        <ele>380.8</ele>
        <time>2021-05-29 09:29:18</time>
      </trkpt>
      <trkpt lat="43.12204" lon="-2.08834">
        <ele>381.2</ele>
        <time>2021-05-29 09:29:19</time>
      </trkpt>
      <trkpt lat="43.12212" lon="-2.08827">
        <ele>381.2</ele>
        <time>2021-05-29 09:29:20</time>
      </trkpt>
      <trkpt lat="43.1222" lon="-2.08821">
        <ele>381.6</ele>
        <time>2021-05-29 09:29:21</time>
      </trkpt>
      <trkpt lat="43.12227" lon="-2.08815">
        <ele>381.4</ele>
        <time>2021-05-29 09:29:22</time>
      </trkpt>
      <trkpt lat="43.12234" lon="-2.08808">
        <ele>381.6</ele>
        <time>2021-05-29 09:29:23</time>
      </trkpt>
      <trkpt lat="43.12241" lon="-2.08802">
        <ele>381.6</ele>
        <time>2021-05-29 09:29:24</time>
      </trkpt>
      <trkpt lat="43.12248" lon="-2.08795">
        <ele>381.8</ele>
        <time>2021-05-29 09:29:25</time>
      </trkpt>
      <trkpt lat="43.12255" lon="-2.08788">
        <ele>382</ele>
        <time>2021-05-29 09:29:26</time>
      </trkpt>
      <trkpt lat="43.1226" lon="-2.08779">
        <ele>382</ele>
        <time>2021-05-29 09:29:27</time>
      </trkpt>
      <trkpt lat="43.12264" lon="-2.0877">
        <ele>382.2</ele>
        <time>2021-05-29 09:29:28</time>
      </trkpt>
      <trkpt lat="43.12269" lon="-2.08763">
        <ele>382.2</ele>
        <time>2021-05-29 09:29:29</time>
      </trkpt>
      <trkpt lat="43.12276" lon="-2.08758">
        <ele>382.2</ele>
        <time>2021-05-29 09:29:30</time>
      </trkpt>
      <trkpt lat="43.12283" lon="-2.08756">
        <ele>382.2</ele>
        <time>2021-05-29 09:29:31</time>
      </trkpt>
      <trkpt lat="43.12291" lon="-2.08757">
        <ele>382.2</ele>
        <time>2021-05-29 09:29:32</time>
      </trkpt>
      <trkpt lat="43.12295" lon="-2.08763">
        <ele>382.6</ele>
        <time>2021-05-29 09:29:33</time>
      </trkpt>
      <trkpt lat="43.12301" lon="-2.0877">
        <ele>382.6</ele>
        <time>2021-05-29 09:29:34</time>
      </trkpt>
      <trkpt lat="43.12304" lon="-2.08777">
        <ele>382.6</ele>
        <time>2021-05-29 09:29:35</time>
      </trkpt>
      <trkpt lat="43.12306" lon="-2.08785">
        <ele>383</ele>
        <time>2021-05-29 09:29:36</time>
      </trkpt>
      <trkpt lat="43.1231" lon="-2.08793">
        <ele>382.8</ele>
        <time>2021-05-29 09:29:37</time>
      </trkpt>
      <trkpt lat="43.12314" lon="-2.08803">
        <ele>383</ele>
        <time>2021-05-29 09:29:38</time>
      </trkpt>
      <trkpt lat="43.12316" lon="-2.08811">
        <ele>383</ele>
        <time>2021-05-29 09:29:39</time>
      </trkpt>
      <trkpt lat="43.1232" lon="-2.08819">
        <ele>383.2</ele>
        <time>2021-05-29 09:29:40</time>
      </trkpt>
      <trkpt lat="43.12325" lon="-2.08826">
        <ele>383.2</ele>
        <time>2021-05-29 09:29:41</time>
      </trkpt>
      <trkpt lat="43.12331" lon="-2.08831">
        <ele>383.4</ele>
        <time>2021-05-29 09:29:42</time>
      </trkpt>
      <trkpt lat="43.12339" lon="-2.08832">
        <ele>383.4</ele>
        <time>2021-05-29 09:29:43</time>
      </trkpt>
      <trkpt lat="43.12347" lon="-2.0883">
        <ele>383.6</ele>
        <time>2021-05-29 09:29:44</time>
      </trkpt>
      <trkpt lat="43.12355" lon="-2.08827">
        <ele>383.6</ele>
        <time>2021-05-29 09:29:45</time>
      </trkpt>
      <trkpt lat="43.12363" lon="-2.08823">
        <ele>383.6</ele>
        <time>2021-05-29 09:29:46</time>
      </trkpt>
      <trkpt lat="43.12371" lon="-2.08819">
        <ele>383.6</ele>
        <time>2021-05-29 09:29:47</time>
      </trkpt>
      <trkpt lat="43.12379" lon="-2.08815">
        <ele>383.8</ele>
        <time>2021-05-29 09:29:48</time>
      </trkpt>
      <trkpt lat="43.12387" lon="-2.08811">
        <ele>384</ele>
        <time>2021-05-29 09:29:49</time>
      </trkpt>
      <trkpt lat="43.12396" lon="-2.08807">
        <ele>384</ele>
        <time>2021-05-29 09:29:50</time>
      </trkpt>
      <trkpt lat="43.12404" lon="-2.08803">
        <ele>384.2</ele>
        <time>2021-05-29 09:29:51</time>
      </trkpt>
      <trkpt lat="43.12413" lon="-2.088">
        <ele>384.4</ele>
        <time>2021-05-29 09:29:52</time>
      </trkpt>
      <trkpt lat="43.12422" lon="-2.08797">
        <ele>384.4</ele>
        <time>2021-05-29 09:29:53</time>
      </trkpt>
      <trkpt lat="43.12431" lon="-2.08794">
        <ele>384.4</ele>
        <time>2021-05-29 09:29:54</time>
      </trkpt>
      <trkpt lat="43.12439" lon="-2.08791">
        <ele>384.4</ele>
        <time>2021-05-29 09:29:55</time>
      </trkpt>
      <trkpt lat="43.12447" lon="-2.08788">
        <ele>384.4</ele>
        <time>2021-05-29 09:29:56</time>
      </trkpt>
      <trkpt lat="43.12454" lon="-2.08784">
        <ele>384.4</ele>
        <time>2021-05-29 09:29:57</time>
      </trkpt>
      <trkpt lat="43.12462" lon="-2.08781">
        <ele>384.4</ele>
        <time>2021-05-29 09:29:58</time>
      </trkpt>
      <trkpt lat="43.1247" lon="-2.08778">
        <ele>384.4</ele>
        <time>2021-05-29 09:29:59</time>
      </trkpt>
      <trkpt lat="43.12479" lon="-2.08774">
        <ele>384.6</ele>
        <time>2021-05-29 09:30:00</time>
      </trkpt>
      <trkpt lat="43.12487" lon="-2.08771">
        <ele>384.6</ele>
        <time>2021-05-29 09:30:01</time>
      </trkpt>
      <trkpt lat="43.12495" lon="-2.08767">
        <ele>384.6</ele>
        <time>2021-05-29 09:30:02</time>
      </trkpt>
      <trkpt lat="43.12503" lon="-2.08764">
        <ele>384.6</ele>
        <time>2021-05-29 09:30:03</time>
      </trkpt>
      <trkpt lat="43.12512" lon="-2.0876">
        <ele>384.4</ele>
        <time>2021-05-29 09:30:04</time>
      </trkpt>
      <trkpt lat="43.12521" lon="-2.08757">
        <ele>384.6</ele>
        <time>2021-05-29 09:30:05</time>
      </trkpt>
      <trkpt lat="43.12529" lon="-2.08753">
        <ele>384.6</ele>
        <time>2021-05-29 09:30:06</time>
      </trkpt>
      <trkpt lat="43.12538" lon="-2.0875">
        <ele>384.6</ele>
        <time>2021-05-29 09:30:07</time>
      </trkpt>
      <trkpt lat="43.12547" lon="-2.08747">
        <ele>384.6</ele>
        <time>2021-05-29 09:30:08</time>
      </trkpt>
      <trkpt lat="43.12556" lon="-2.08744">
        <ele>384.4</ele>
        <time>2021-05-29 09:30:09</time>
      </trkpt>
      <trkpt lat="43.12565" lon="-2.08742">
        <ele>384.4</ele>
        <time>2021-05-29 09:30:10</time>
      </trkpt>
      <trkpt lat="43.12574" lon="-2.0874">
        <ele>384.4</ele>
        <time>2021-05-29 09:30:11</time>
      </trkpt>
      <trkpt lat="43.12583" lon="-2.0874">
        <ele>384.4</ele>
        <time>2021-05-29 09:30:12</time>
      </trkpt>
      <trkpt lat="43.12592" lon="-2.0874">
        <ele>384.2</ele>
        <time>2021-05-29 09:30:13</time>
      </trkpt>
      <trkpt lat="43.126" lon="-2.0874">
        <ele>384.2</ele>
        <time>2021-05-29 09:30:14</time>
      </trkpt>
      <trkpt lat="43.12609" lon="-2.0874">
        <ele>384.2</ele>
        <time>2021-05-29 09:30:15</time>
      </trkpt>
      <trkpt lat="43.12618" lon="-2.0874">
        <ele>384</ele>
        <time>2021-05-29 09:30:16</time>
      </trkpt>
      <trkpt lat="43.12627" lon="-2.08741">
        <ele>384</ele>
        <time>2021-05-29 09:30:17</time>
      </trkpt>
      <trkpt lat="43.12636" lon="-2.08742">
        <ele>383.8</ele>
        <time>2021-05-29 09:30:18</time>
      </trkpt>
      <trkpt lat="43.12645" lon="-2.08742">
        <ele>383.6</ele>
        <time>2021-05-29 09:30:19</time>
      </trkpt>
      <trkpt lat="43.12655" lon="-2.08743">
        <ele>383.4</ele>
        <time>2021-05-29 09:30:20</time>
      </trkpt>
      <trkpt lat="43.12664" lon="-2.08744">
        <ele>383.2</ele>
        <time>2021-05-29 09:30:21</time>
      </trkpt>
      <trkpt lat="43.12673" lon="-2.08746">
        <ele>383.2</ele>
        <time>2021-05-29 09:30:22</time>
      </trkpt>
      <trkpt lat="43.12682" lon="-2.08747">
        <ele>383.2</ele>
        <time>2021-05-29 09:30:23</time>
      </trkpt>
      <trkpt lat="43.12692" lon="-2.0875">
        <ele>383</ele>
        <time>2021-05-29 09:30:24</time>
      </trkpt>
      <trkpt lat="43.12702" lon="-2.08752">
        <ele>382.6</ele>
        <time>2021-05-29 09:30:25</time>
      </trkpt>
      <trkpt lat="43.12712" lon="-2.08754">
        <ele>382.6</ele>
        <time>2021-05-29 09:30:26</time>
      </trkpt>
      <trkpt lat="43.12722" lon="-2.08757">
        <ele>382.2</ele>
        <time>2021-05-29 09:30:27</time>
      </trkpt>
      <trkpt lat="43.12731" lon="-2.08761">
        <ele>382</ele>
        <time>2021-05-29 09:30:28</time>
      </trkpt>
      <trkpt lat="43.12741" lon="-2.08765">
        <ele>381.6</ele>
        <time>2021-05-29 09:30:29</time>
      </trkpt>
      <trkpt lat="43.12751" lon="-2.08768">
        <ele>381.2</ele>
        <time>2021-05-29 09:30:30</time>
      </trkpt>
      <trkpt lat="43.12761" lon="-2.0877">
        <ele>381</ele>
        <time>2021-05-29 09:30:31</time>
      </trkpt>
      <trkpt lat="43.12771" lon="-2.08772">
        <ele>380.6</ele>
        <time>2021-05-29 09:30:32</time>
      </trkpt>
      <trkpt lat="43.12781" lon="-2.08772">
        <ele>380.4</ele>
        <time>2021-05-29 09:30:33</time>
      </trkpt>
      <trkpt lat="43.12791" lon="-2.08772">
        <ele>380.2</ele>
        <time>2021-05-29 09:30:34</time>
      </trkpt>
      <trkpt lat="43.12801" lon="-2.08772">
        <ele>380.2</ele>
        <time>2021-05-29 09:30:35</time>
      </trkpt>
      <trkpt lat="43.12811" lon="-2.08772">
        <ele>379.8</ele>
        <time>2021-05-29 09:30:36</time>
      </trkpt>
      <trkpt lat="43.12821" lon="-2.08772">
        <ele>379.6</ele>
        <time>2021-05-29 09:30:37</time>
      </trkpt>
      <trkpt lat="43.1283" lon="-2.08771">
        <ele>379.6</ele>
        <time>2021-05-29 09:30:38</time>
      </trkpt>
      <trkpt lat="43.12839" lon="-2.0877">
        <ele>379.4</ele>
        <time>2021-05-29 09:30:39</time>
      </trkpt>
      <trkpt lat="43.12848" lon="-2.08769">
        <ele>379</ele>
        <time>2021-05-29 09:30:40</time>
      </trkpt>
      <trkpt lat="43.12858" lon="-2.08769">
        <ele>378.6</ele>
        <time>2021-05-29 09:30:41</time>
      </trkpt>
      <trkpt lat="43.12867" lon="-2.08768">
        <ele>378.6</ele>
        <time>2021-05-29 09:30:42</time>
      </trkpt>
      <trkpt lat="43.12877" lon="-2.08767">
        <ele>378.2</ele>
        <time>2021-05-29 09:30:43</time>
      </trkpt>
      <trkpt lat="43.12886" lon="-2.08766">
        <ele>378</ele>
        <time>2021-05-29 09:30:44</time>
      </trkpt>
      <trkpt lat="43.12895" lon="-2.08764">
        <ele>377.8</ele>
        <time>2021-05-29 09:30:45</time>
      </trkpt>
      <trkpt lat="43.12904" lon="-2.08762">
        <ele>377.4</ele>
        <time>2021-05-29 09:30:46</time>
      </trkpt>
      <trkpt lat="43.12913" lon="-2.08759">
        <ele>377.2</ele>
        <time>2021-05-29 09:30:47</time>
      </trkpt>
      <trkpt lat="43.12923" lon="-2.08757">
        <ele>377.2</ele>
        <time>2021-05-29 09:30:48</time>
      </trkpt>
      <trkpt lat="43.12931" lon="-2.08754">
        <ele>377</ele>
        <time>2021-05-29 09:30:49</time>
      </trkpt>
      <trkpt lat="43.1294" lon="-2.08751">
        <ele>376.6</ele>
        <time>2021-05-29 09:30:50</time>
      </trkpt>
      <trkpt lat="43.12949" lon="-2.08747">
        <ele>376.4</ele>
        <time>2021-05-29 09:30:51</time>
      </trkpt>
      <trkpt lat="43.12957" lon="-2.08744">
        <ele>376.2</ele>
        <time>2021-05-29 09:30:52</time>
      </trkpt>
      <trkpt lat="43.12965" lon="-2.0874">
        <ele>376</ele>
        <time>2021-05-29 09:30:53</time>
      </trkpt>
      <trkpt lat="43.12974" lon="-2.08736">
        <ele>375.6</ele>
        <time>2021-05-29 09:30:54</time>
      </trkpt>
      <trkpt lat="43.12983" lon="-2.08731">
        <ele>375.4</ele>
        <time>2021-05-29 09:30:55</time>
      </trkpt>
      <trkpt lat="43.12991" lon="-2.08727">
        <ele>375.2</ele>
        <time>2021-05-29 09:30:56</time>
      </trkpt>
      <trkpt lat="43.12998" lon="-2.08721">
        <ele>375</ele>
        <time>2021-05-29 09:30:57</time>
      </trkpt>
      <trkpt lat="43.13006" lon="-2.08716">
        <ele>374.6</ele>
        <time>2021-05-29 09:30:58</time>
      </trkpt>
      <trkpt lat="43.13014" lon="-2.08711">
        <ele>374.4</ele>
        <time>2021-05-29 09:30:59</time>
      </trkpt>
      <trkpt lat="43.13022" lon="-2.08705">
        <ele>374.4</ele>
        <time>2021-05-29 09:31:00</time>
      </trkpt>
      <trkpt lat="43.1303" lon="-2.08698">
        <ele>374.2</ele>
        <time>2021-05-29 09:31:01</time>
      </trkpt>
      <trkpt lat="43.13037" lon="-2.08691">
        <ele>374.2</ele>
        <time>2021-05-29 09:31:02</time>
      </trkpt>
      <trkpt lat="43.13045" lon="-2.08683">
        <ele>373.8</ele>
        <time>2021-05-29 09:31:03</time>
      </trkpt>
      <trkpt lat="43.13052" lon="-2.08674">
        <ele>373.6</ele>
        <time>2021-05-29 09:31:04</time>
      </trkpt>
      <trkpt lat="43.13059" lon="-2.08666">
        <ele>373.2</ele>
        <time>2021-05-29 09:31:05</time>
      </trkpt>
      <trkpt lat="43.13066" lon="-2.08657">
        <ele>372.8</ele>
        <time>2021-05-29 09:31:06</time>
      </trkpt>
      <trkpt lat="43.13073" lon="-2.08648">
        <ele>372.8</ele>
        <time>2021-05-29 09:31:07</time>
      </trkpt>
      <trkpt lat="43.1308" lon="-2.08639">
        <ele>372.6</ele>
        <time>2021-05-29 09:31:08</time>
      </trkpt>
      <trkpt lat="43.13086" lon="-2.08631">
        <ele>372.2</ele>
        <time>2021-05-29 09:31:09</time>
      </trkpt>
      <trkpt lat="43.13093" lon="-2.08623">
        <ele>372</ele>
        <time>2021-05-29 09:31:10</time>
      </trkpt>
      <trkpt lat="43.13099" lon="-2.08615">
        <ele>371.6</ele>
        <time>2021-05-29 09:31:11</time>
      </trkpt>
      <trkpt lat="43.13106" lon="-2.08607">
        <ele>371.4</ele>
        <time>2021-05-29 09:31:12</time>
      </trkpt>
      <trkpt lat="43.13112" lon="-2.08598">
        <ele>371.2</ele>
        <time>2021-05-29 09:31:13</time>
      </trkpt>
      <trkpt lat="43.13118" lon="-2.0859">
        <ele>370.8</ele>
        <time>2021-05-29 09:31:14</time>
      </trkpt>
      <trkpt lat="43.13124" lon="-2.08583">
        <ele>370.4</ele>
        <time>2021-05-29 09:31:15</time>
      </trkpt>
      <trkpt lat="43.1313" lon="-2.08575">
        <ele>370.2</ele>
        <time>2021-05-29 09:31:16</time>
      </trkpt>
      <trkpt lat="43.13136" lon="-2.08567">
        <ele>370</ele>
        <time>2021-05-29 09:31:17</time>
      </trkpt>
      <trkpt lat="43.13142" lon="-2.08559">
        <ele>369.8</ele>
        <time>2021-05-29 09:31:18</time>
      </trkpt>
      <trkpt lat="43.13148" lon="-2.08551">
        <ele>369.4</ele>
        <time>2021-05-29 09:31:19</time>
      </trkpt>
      <trkpt lat="43.13154" lon="-2.08543">
        <ele>369</ele>
        <time>2021-05-29 09:31:20</time>
      </trkpt>
      <trkpt lat="43.1316" lon="-2.08536">
        <ele>368.8</ele>
        <time>2021-05-29 09:31:21</time>
      </trkpt>
      <trkpt lat="43.13166" lon="-2.08528">
        <ele>368.6</ele>
        <time>2021-05-29 09:31:22</time>
      </trkpt>
      <trkpt lat="43.13172" lon="-2.0852">
        <ele>368.2</ele>
        <time>2021-05-29 09:31:23</time>
      </trkpt>
      <trkpt lat="43.13178" lon="-2.08512">
        <ele>368</ele>
        <time>2021-05-29 09:31:24</time>
      </trkpt>
      <trkpt lat="43.13184" lon="-2.08504">
        <ele>368</ele>
        <time>2021-05-29 09:31:25</time>
      </trkpt>
      <trkpt lat="43.1319" lon="-2.08496">
        <ele>367.8</ele>
        <time>2021-05-29 09:31:26</time>
      </trkpt>
      <trkpt lat="43.13196" lon="-2.08488">
        <ele>367.4</ele>
        <time>2021-05-29 09:31:27</time>
      </trkpt>
      <trkpt lat="43.13202" lon="-2.0848">
        <ele>367.2</ele>
        <time>2021-05-29 09:31:28</time>
      </trkpt>
      <trkpt lat="43.13208" lon="-2.08472">
        <ele>367</ele>
        <time>2021-05-29 09:31:29</time>
      </trkpt>
      <trkpt lat="43.13215" lon="-2.08465">
        <ele>366.8</ele>
        <time>2021-05-29 09:31:30</time>
      </trkpt>
      <trkpt lat="43.13221" lon="-2.08457">
        <ele>366.6</ele>
        <time>2021-05-29 09:31:31</time>
      </trkpt>
      <trkpt lat="43.13227" lon="-2.08449">
        <ele>366.4</ele>
        <time>2021-05-29 09:31:32</time>
      </trkpt>
      <trkpt lat="43.13233" lon="-2.08442">
        <ele>365.8</ele>
        <time>2021-05-29 09:31:33</time>
      </trkpt>
      <trkpt lat="43.13239" lon="-2.08434">
        <ele>365.6</ele>
        <time>2021-05-29 09:31:34</time>
      </trkpt>
      <trkpt lat="43.13245" lon="-2.08426">
        <ele>365.4</ele>
        <time>2021-05-29 09:31:35</time>
      </trkpt>
      <trkpt lat="43.13251" lon="-2.08417">
        <ele>365.4</ele>
        <time>2021-05-29 09:31:36</time>
      </trkpt>
      <trkpt lat="43.13256" lon="-2.08409">
        <ele>365.2</ele>
        <time>2021-05-29 09:31:37</time>
      </trkpt>
      <trkpt lat="43.13262" lon="-2.084">
        <ele>365</ele>
        <time>2021-05-29 09:31:38</time>
      </trkpt>
      <trkpt lat="43.13267" lon="-2.08392">
        <ele>364.8</ele>
        <time>2021-05-29 09:31:39</time>
      </trkpt>
      <trkpt lat="43.13272" lon="-2.08383">
        <ele>364.8</ele>
        <time>2021-05-29 09:31:40</time>
      </trkpt>
      <trkpt lat="43.13276" lon="-2.08374">
        <ele>364.6</ele>
        <time>2021-05-29 09:31:41</time>
      </trkpt>
      <trkpt lat="43.1328" lon="-2.08365">
        <ele>364.6</ele>
        <time>2021-05-29 09:31:42</time>
      </trkpt>
      <trkpt lat="43.13284" lon="-2.08355">
        <ele>364.4</ele>
        <time>2021-05-29 09:31:43</time>
      </trkpt>
      <trkpt lat="43.13288" lon="-2.08346">
        <ele>364.4</ele>
        <time>2021-05-29 09:31:44</time>
      </trkpt>
      <trkpt lat="43.13293" lon="-2.08337">
        <ele>364</ele>
        <time>2021-05-29 09:31:45</time>
      </trkpt>
      <trkpt lat="43.13297" lon="-2.08329">
        <ele>363.8</ele>
        <time>2021-05-29 09:31:46</time>
      </trkpt>
      <trkpt lat="43.133" lon="-2.0832">
        <ele>363.8</ele>
        <time>2021-05-29 09:31:47</time>
      </trkpt>
      <trkpt lat="43.13302" lon="-2.08311">
        <ele>363.6</ele>
        <time>2021-05-29 09:31:48</time>
      </trkpt>
      <trkpt lat="43.13304" lon="-2.08301">
        <ele>363.4</ele>
        <time>2021-05-29 09:31:49</time>
      </trkpt>
      <trkpt lat="43.13305" lon="-2.08291">
        <ele>363.2</ele>
        <time>2021-05-29 09:31:50</time>
      </trkpt>
      <trkpt lat="43.13307" lon="-2.08281">
        <ele>363.2</ele>
        <time>2021-05-29 09:31:51</time>
      </trkpt>
      <trkpt lat="43.1331" lon="-2.0827">
        <ele>363</ele>
        <time>2021-05-29 09:31:52</time>
      </trkpt>
      <trkpt lat="43.13312" lon="-2.0826">
        <ele>362.8</ele>
        <time>2021-05-29 09:31:53</time>
      </trkpt>
      <trkpt lat="43.13314" lon="-2.08249">
        <ele>363</ele>
        <time>2021-05-29 09:31:54</time>
      </trkpt>
      <trkpt lat="43.13316" lon="-2.08238">
        <ele>362.8</ele>
        <time>2021-05-29 09:31:55</time>
      </trkpt>
      <trkpt lat="43.13319" lon="-2.08228">
        <ele>362.6</ele>
        <time>2021-05-29 09:31:56</time>
      </trkpt>
      <trkpt lat="43.13321" lon="-2.08217">
        <ele>362.4</ele>
        <time>2021-05-29 09:31:57</time>
      </trkpt>
      <trkpt lat="43.13324" lon="-2.08206">
        <ele>362.2</ele>
        <time>2021-05-29 09:31:58</time>
      </trkpt>
      <trkpt lat="43.13327" lon="-2.08196">
        <ele>362.4</ele>
        <time>2021-05-29 09:31:59</time>
      </trkpt>
      <trkpt lat="43.1333" lon="-2.08185">
        <ele>362.2</ele>
        <time>2021-05-29 09:32:00</time>
      </trkpt>
      <trkpt lat="43.13332" lon="-2.08174">
        <ele>362.2</ele>
        <time>2021-05-29 09:32:01</time>
      </trkpt>
      <trkpt lat="43.13335" lon="-2.08163">
        <ele>362</ele>
        <time>2021-05-29 09:32:02</time>
      </trkpt>
      <trkpt lat="43.13337" lon="-2.08152">
        <ele>362</ele>
        <time>2021-05-29 09:32:03</time>
      </trkpt>
      <trkpt lat="43.1334" lon="-2.08142">
        <ele>361.8</ele>
        <time>2021-05-29 09:32:04</time>
      </trkpt>
      <trkpt lat="43.13343" lon="-2.08131">
        <ele>361.6</ele>
        <time>2021-05-29 09:32:05</time>
      </trkpt>
      <trkpt lat="43.13345" lon="-2.08121">
        <ele>361.6</ele>
        <time>2021-05-29 09:32:06</time>
      </trkpt>
      <trkpt lat="43.13348" lon="-2.0811">
        <ele>361.4</ele>
        <time>2021-05-29 09:32:07</time>
      </trkpt>
      <trkpt lat="43.13351" lon="-2.081">
        <ele>361.2</ele>
        <time>2021-05-29 09:32:08</time>
      </trkpt>
      <trkpt lat="43.13353" lon="-2.0809">
        <ele>361</ele>
        <time>2021-05-29 09:32:09</time>
      </trkpt>
      <trkpt lat="43.13356" lon="-2.0808">
        <ele>360.8</ele>
        <time>2021-05-29 09:32:10</time>
      </trkpt>
      <trkpt lat="43.13358" lon="-2.0807">
        <ele>360.6</ele>
        <time>2021-05-29 09:32:11</time>
      </trkpt>
      <trkpt lat="43.13361" lon="-2.08061">
        <ele>360.4</ele>
        <time>2021-05-29 09:32:12</time>
      </trkpt>
      <trkpt lat="43.13364" lon="-2.08052">
        <ele>360.2</ele>
        <time>2021-05-29 09:32:13</time>
      </trkpt>
      <trkpt lat="43.13366" lon="-2.08043">
        <ele>360</ele>
        <time>2021-05-29 09:32:14</time>
      </trkpt>
      <trkpt lat="43.13369" lon="-2.08034">
        <ele>360</ele>
        <time>2021-05-29 09:32:15</time>
      </trkpt>
      <trkpt lat="43.13371" lon="-2.08027">
        <ele>359.8</ele>
        <time>2021-05-29 09:32:16</time>
      </trkpt>
      <trkpt lat="43.13373" lon="-2.08018">
        <ele>359.6</ele>
        <time>2021-05-29 09:32:17</time>
      </trkpt>
      <trkpt lat="43.13375" lon="-2.0801">
        <ele>359.4</ele>
        <time>2021-05-29 09:32:18</time>
      </trkpt>
      <trkpt lat="43.13377" lon="-2.08">
        <ele>359.4</ele>
        <time>2021-05-29 09:32:19</time>
      </trkpt>
      <trkpt lat="43.13379" lon="-2.0799">
        <ele>359.2</ele>
        <time>2021-05-29 09:32:20</time>
      </trkpt>
      <trkpt lat="43.13381" lon="-2.0798">
        <ele>359</ele>
        <time>2021-05-29 09:32:21</time>
      </trkpt>
      <trkpt lat="43.13384" lon="-2.0797">
        <ele>358.8</ele>
        <time>2021-05-29 09:32:22</time>
      </trkpt>
      <trkpt lat="43.13387" lon="-2.0796">
        <ele>358.8</ele>
        <time>2021-05-29 09:32:23</time>
      </trkpt>
      <trkpt lat="43.13389" lon="-2.0795">
        <ele>358.6</ele>
        <time>2021-05-29 09:32:24</time>
      </trkpt>
      <trkpt lat="43.13391" lon="-2.0794">
        <ele>358.4</ele>
        <time>2021-05-29 09:32:25</time>
      </trkpt>
      <trkpt lat="43.13393" lon="-2.0793">
        <ele>358.2</ele>
        <time>2021-05-29 09:32:26</time>
      </trkpt>
      <trkpt lat="43.13395" lon="-2.07921">
        <ele>358</ele>
        <time>2021-05-29 09:32:27</time>
      </trkpt>
      <trkpt lat="43.13396" lon="-2.07913">
        <ele>357.8</ele>
        <time>2021-05-29 09:32:28</time>
      </trkpt>
      <trkpt lat="43.13397" lon="-2.07906">
        <ele>357.8</ele>
        <time>2021-05-29 09:32:29</time>
      </trkpt>
      <trkpt lat="43.13399" lon="-2.07902">
        <ele>357.8</ele>
        <time>2021-05-29 09:32:30</time>
      </trkpt>
      <trkpt lat="43.134" lon="-2.07898">
        <ele>357.6</ele>
        <time>2021-05-29 09:32:31</time>
      </trkpt>
      <trkpt lat="43.13399" lon="-2.07896">
        <ele>357.4</ele>
        <time>2021-05-29 09:32:32</time>
      </trkpt>
      <trkpt lat="43.13399" lon="-2.07894">
        <ele>357.4</ele>
        <time>2021-05-29 09:32:33</time>
      </trkpt>
      <trkpt lat="43.13399" lon="-2.07893">
        <ele>357.2</ele>
        <time>2021-05-29 09:32:34</time>
      </trkpt>
      <trkpt lat="43.13399" lon="-2.07893">
        <ele>357.2</ele>
        <time>2021-05-29 09:32:35</time>
      </trkpt>
      <trkpt lat="43.134" lon="-2.07888">
        <ele>355.8</ele>
        <time>2021-05-29 09:32:52</time>
      </trkpt>
      <trkpt lat="43.134" lon="-2.07885">
        <ele>355.8</ele>
        <time>2021-05-29 09:32:53</time>
      </trkpt>
      <trkpt lat="43.13401" lon="-2.07882">
        <ele>355.8</ele>
        <time>2021-05-29 09:32:54</time>
      </trkpt>
      <trkpt lat="43.13402" lon="-2.07879">
        <ele>355.6</ele>
        <time>2021-05-29 09:32:55</time>
      </trkpt>
      <trkpt lat="43.13402" lon="-2.07875">
        <ele>355.8</ele>
        <time>2021-05-29 09:32:56</time>
      </trkpt>
      <trkpt lat="43.13404" lon="-2.07872">
        <ele>355.6</ele>
        <time>2021-05-29 09:32:57</time>
      </trkpt>
      <trkpt lat="43.13405" lon="-2.07869">
        <ele>355.4</ele>
        <time>2021-05-29 09:32:58</time>
      </trkpt>
      <trkpt lat="43.13406" lon="-2.07866">
        <ele>355.2</ele>
        <time>2021-05-29 09:32:59</time>
      </trkpt>
      <trkpt lat="43.13407" lon="-2.07863">
        <ele>355</ele>
        <time>2021-05-29 09:33:00</time>
      </trkpt>
      <trkpt lat="43.13408" lon="-2.07859">
        <ele>354.8</ele>
        <time>2021-05-29 09:33:01</time>
      </trkpt>
      <trkpt lat="43.13408" lon="-2.07856">
        <ele>354.6</ele>
        <time>2021-05-29 09:33:02</time>
      </trkpt>
      <trkpt lat="43.13408" lon="-2.07854">
        <ele>354.8</ele>
        <time>2021-05-29 09:33:03</time>
      </trkpt>
      <trkpt lat="43.13409" lon="-2.07852">
        <ele>354.6</ele>
        <time>2021-05-29 09:33:04</time>
      </trkpt>
      <trkpt lat="43.13409" lon="-2.0785">
        <ele>354.6</ele>
        <time>2021-05-29 09:33:05</time>
      </trkpt>
      <trkpt lat="43.13409" lon="-2.07849">
        <ele>354.4</ele>
        <time>2021-05-29 09:33:06</time>
      </trkpt>
      <trkpt lat="43.13409" lon="-2.07847">
        <ele>354.2</ele>
        <time>2021-05-29 09:33:07</time>
      </trkpt>
      <trkpt lat="43.13407" lon="-2.07846">
        <ele>354.2</ele>
        <time>2021-05-29 09:33:08</time>
      </trkpt>
      <trkpt lat="43.13404" lon="-2.07844">
        <ele>354</ele>
        <time>2021-05-29 09:33:09</time>
      </trkpt>
      <trkpt lat="43.13401" lon="-2.07843">
        <ele>353.8</ele>
        <time>2021-05-29 09:33:10</time>
      </trkpt>
      <trkpt lat="43.13397" lon="-2.07842">
        <ele>353.8</ele>
        <time>2021-05-29 09:33:11</time>
      </trkpt>
      <trkpt lat="43.13393" lon="-2.0784">
        <ele>353.6</ele>
        <time>2021-05-29 09:33:12</time>
      </trkpt>
      <trkpt lat="43.13388" lon="-2.07838">
        <ele>353.6</ele>
        <time>2021-05-29 09:33:13</time>
      </trkpt>
      <trkpt lat="43.13383" lon="-2.07836">
        <ele>353.4</ele>
        <time>2021-05-29 09:33:14</time>
      </trkpt>
      <trkpt lat="43.13378" lon="-2.07835">
        <ele>353.2</ele>
        <time>2021-05-29 09:33:15</time>
      </trkpt>
      <trkpt lat="43.13373" lon="-2.07832">
        <ele>353</ele>
        <time>2021-05-29 09:33:16</time>
      </trkpt>
      <trkpt lat="43.13369" lon="-2.07828">
        <ele>353</ele>
        <time>2021-05-29 09:33:17</time>
      </trkpt>
      <trkpt lat="43.13364" lon="-2.07824">
        <ele>352.8</ele>
        <time>2021-05-29 09:33:18</time>
      </trkpt>
      <trkpt lat="43.1336" lon="-2.07818">
        <ele>352.8</ele>
        <time>2021-05-29 09:33:19</time>
      </trkpt>
      <trkpt lat="43.13357" lon="-2.07812">
        <ele>352.6</ele>
        <time>2021-05-29 09:33:20</time>
      </trkpt>
      <trkpt lat="43.13353" lon="-2.07806">
        <ele>352.6</ele>
        <time>2021-05-29 09:33:21</time>
      </trkpt>
      <trkpt lat="43.1335" lon="-2.07799">
        <ele>352.2</ele>
        <time>2021-05-29 09:33:22</time>
      </trkpt>
      <trkpt lat="43.13346" lon="-2.07793">
        <ele>351.8</ele>
        <time>2021-05-29 09:33:23</time>
      </trkpt>
      <trkpt lat="43.13343" lon="-2.07787">
        <ele>351.4</ele>
        <time>2021-05-29 09:33:24</time>
      </trkpt>
      <trkpt lat="43.13339" lon="-2.07781">
        <ele>351.4</ele>
        <time>2021-05-29 09:33:25</time>
      </trkpt>
      <trkpt lat="43.13336" lon="-2.07775">
        <ele>351.2</ele>
        <time>2021-05-29 09:33:26</time>
      </trkpt>
      <trkpt lat="43.13332" lon="-2.07769">
        <ele>351</ele>
        <time>2021-05-29 09:33:27</time>
      </trkpt>
      <trkpt lat="43.13328" lon="-2.07763">
        <ele>350.8</ele>
        <time>2021-05-29 09:33:28</time>
      </trkpt>
      <trkpt lat="43.13324" lon="-2.07758">
        <ele>350.8</ele>
        <time>2021-05-29 09:33:29</time>
      </trkpt>
      <trkpt lat="43.13322" lon="-2.07754">
        <ele>350.8</ele>
        <time>2021-05-29 09:33:30</time>
      </trkpt>
      <trkpt lat="43.13319" lon="-2.07749">
        <ele>350.6</ele>
        <time>2021-05-29 09:33:31</time>
      </trkpt>
      <trkpt lat="43.13318" lon="-2.07747">
        <ele>350.4</ele>
        <time>2021-05-29 09:33:32</time>
      </trkpt>
      <trkpt lat="43.13316" lon="-2.07745">
        <ele>350</ele>
        <time>2021-05-29 09:33:33</time>
      </trkpt>
      <trkpt lat="43.13314" lon="-2.07741">
        <ele>350</ele>
        <time>2021-05-29 09:33:34</time>
      </trkpt>
      <trkpt lat="43.13313" lon="-2.07737">
        <ele>349.8</ele>
        <time>2021-05-29 09:33:35</time>
      </trkpt>
      <trkpt lat="43.13312" lon="-2.07732">
        <ele>349.6</ele>
        <time>2021-05-29 09:33:36</time>
      </trkpt>
      <trkpt lat="43.13311" lon="-2.07727">
        <ele>349.4</ele>
        <time>2021-05-29 09:33:37</time>
      </trkpt>
      <trkpt lat="43.13311" lon="-2.07722">
        <ele>349.2</ele>
        <time>2021-05-29 09:33:38</time>
      </trkpt>
      <trkpt lat="43.13312" lon="-2.07718">
        <ele>349.2</ele>
        <time>2021-05-29 09:33:39</time>
      </trkpt>
      <trkpt lat="43.13314" lon="-2.07714">
        <ele>349</ele>
        <time>2021-05-29 09:33:40</time>
      </trkpt>
      <trkpt lat="43.13317" lon="-2.07711">
        <ele>348.8</ele>
        <time>2021-05-29 09:33:41</time>
      </trkpt>
      <trkpt lat="43.1332" lon="-2.07709">
        <ele>348.6</ele>
        <time>2021-05-29 09:33:42</time>
      </trkpt>
      <trkpt lat="43.13323" lon="-2.07707">
        <ele>348.4</ele>
        <time>2021-05-29 09:33:43</time>
      </trkpt>
      <trkpt lat="43.13327" lon="-2.07705">
        <ele>348.4</ele>
        <time>2021-05-29 09:33:44</time>
      </trkpt>
      <trkpt lat="43.13331" lon="-2.07704">
        <ele>348.2</ele>
        <time>2021-05-29 09:33:45</time>
      </trkpt>
      <trkpt lat="43.13335" lon="-2.07701">
        <ele>348</ele>
        <time>2021-05-29 09:33:46</time>
      </trkpt>
      <trkpt lat="43.13339" lon="-2.07699">
        <ele>347.8</ele>
        <time>2021-05-29 09:33:47</time>
      </trkpt>
      <trkpt lat="43.13343" lon="-2.07697">
        <ele>347.6</ele>
        <time>2021-05-29 09:33:48</time>
      </trkpt>
      <trkpt lat="43.13347" lon="-2.07694">
        <ele>347.4</ele>
        <time>2021-05-29 09:33:49</time>
      </trkpt>
      <trkpt lat="43.13351" lon="-2.07692">
        <ele>347.2</ele>
        <time>2021-05-29 09:33:50</time>
      </trkpt>
      <trkpt lat="43.13354" lon="-2.07689">
        <ele>347.2</ele>
        <time>2021-05-29 09:33:51</time>
      </trkpt>
      <trkpt lat="43.13358" lon="-2.07686">
        <ele>346.8</ele>
        <time>2021-05-29 09:33:52</time>
      </trkpt>
      <trkpt lat="43.13362" lon="-2.07684">
        <ele>346.6</ele>
        <time>2021-05-29 09:33:53</time>
      </trkpt>
      <trkpt lat="43.13365" lon="-2.07681">
        <ele>346.4</ele>
        <time>2021-05-29 09:33:54</time>
      </trkpt>
      <trkpt lat="43.13368" lon="-2.07678">
        <ele>346.2</ele>
        <time>2021-05-29 09:33:55</time>
      </trkpt>
      <trkpt lat="43.13371" lon="-2.07677">
        <ele>346</ele>
        <time>2021-05-29 09:33:56</time>
      </trkpt>
      <trkpt lat="43.13374" lon="-2.07675">
        <ele>345.6</ele>
        <time>2021-05-29 09:33:57</time>
      </trkpt>
      <trkpt lat="43.13376" lon="-2.07672">
        <ele>345.4</ele>
        <time>2021-05-29 09:33:58</time>
      </trkpt>
      <trkpt lat="43.13378" lon="-2.07669">
        <ele>345.2</ele>
        <time>2021-05-29 09:33:59</time>
      </trkpt>
      <trkpt lat="43.1338" lon="-2.07667">
        <ele>345</ele>
        <time>2021-05-29 09:34:00</time>
      </trkpt>
      <trkpt lat="43.13382" lon="-2.07664">
        <ele>344.6</ele>
        <time>2021-05-29 09:34:01</time>
      </trkpt>
      <trkpt lat="43.13385" lon="-2.0766">
        <ele>344.4</ele>
        <time>2021-05-29 09:34:02</time>
      </trkpt>
      <trkpt lat="43.13387" lon="-2.07655">
        <ele>344.2</ele>
        <time>2021-05-29 09:34:03</time>
      </trkpt>
      <trkpt lat="43.13389" lon="-2.07649">
        <ele>344</ele>
        <time>2021-05-29 09:34:04</time>
      </trkpt>
      <trkpt lat="43.13391" lon="-2.07641">
        <ele>343.8</ele>
        <time>2021-05-29 09:34:05</time>
      </trkpt>
      <trkpt lat="43.13394" lon="-2.07635">
        <ele>343.6</ele>
        <time>2021-05-29 09:34:06</time>
      </trkpt>
      <trkpt lat="43.13396" lon="-2.07629">
        <ele>343.4</ele>
        <time>2021-05-29 09:34:07</time>
      </trkpt>
      <trkpt lat="43.13398" lon="-2.07624">
        <ele>343.2</ele>
        <time>2021-05-29 09:34:08</time>
      </trkpt>
      <trkpt lat="43.13401" lon="-2.07619">
        <ele>343</ele>
        <time>2021-05-29 09:34:09</time>
      </trkpt>
      <trkpt lat="43.13403" lon="-2.07614">
        <ele>342.8</ele>
        <time>2021-05-29 09:34:10</time>
      </trkpt>
      <trkpt lat="43.13405" lon="-2.07609">
        <ele>342.6</ele>
        <time>2021-05-29 09:34:11</time>
      </trkpt>
      <trkpt lat="43.13407" lon="-2.07603">
        <ele>342.4</ele>
        <time>2021-05-29 09:34:12</time>
      </trkpt>
      <trkpt lat="43.13409" lon="-2.07598">
        <ele>342</ele>
        <time>2021-05-29 09:34:13</time>
      </trkpt>
      <trkpt lat="43.13411" lon="-2.07593">
        <ele>341.6</ele>
        <time>2021-05-29 09:34:14</time>
      </trkpt>
      <trkpt lat="43.13414" lon="-2.07589">
        <ele>341.4</ele>
        <time>2021-05-29 09:34:15</time>
      </trkpt>
      <trkpt lat="43.13416" lon="-2.07585">
        <ele>341</ele>
        <time>2021-05-29 09:34:16</time>
      </trkpt>
      <trkpt lat="43.13419" lon="-2.07581">
        <ele>340.8</ele>
        <time>2021-05-29 09:34:17</time>
      </trkpt>
      <trkpt lat="43.13422" lon="-2.07577">
        <ele>340.6</ele>
        <time>2021-05-29 09:34:18</time>
      </trkpt>
      <trkpt lat="43.13423" lon="-2.07572">
        <ele>340.6</ele>
        <time>2021-05-29 09:34:19</time>
      </trkpt>
      <trkpt lat="43.13426" lon="-2.07567">
        <ele>340.4</ele>
        <time>2021-05-29 09:34:20</time>
      </trkpt>
      <trkpt lat="43.13428" lon="-2.07561">
        <ele>340.2</ele>
        <time>2021-05-29 09:34:21</time>
      </trkpt>
      <trkpt lat="43.1343" lon="-2.07555">
        <ele>339.8</ele>
        <time>2021-05-29 09:34:22</time>
      </trkpt>
      <trkpt lat="43.13433" lon="-2.07551">
        <ele>339.6</ele>
        <time>2021-05-29 09:34:23</time>
      </trkpt>
      <trkpt lat="43.13435" lon="-2.07547">
        <ele>339.4</ele>
        <time>2021-05-29 09:34:24</time>
      </trkpt>
      <trkpt lat="43.13437" lon="-2.07543">
        <ele>339.4</ele>
        <time>2021-05-29 09:34:25</time>
      </trkpt>
      <trkpt lat="43.1344" lon="-2.07538">
        <ele>339.2</ele>
        <time>2021-05-29 09:34:26</time>
      </trkpt>
      <trkpt lat="43.13442" lon="-2.07533">
        <ele>339</ele>
        <time>2021-05-29 09:34:27</time>
      </trkpt>
      <trkpt lat="43.13444" lon="-2.07527">
        <ele>338.8</ele>
        <time>2021-05-29 09:34:28</time>
      </trkpt>
      <trkpt lat="43.13446" lon="-2.07524">
        <ele>338.6</ele>
        <time>2021-05-29 09:34:29</time>
      </trkpt>
      <trkpt lat="43.13447" lon="-2.07521">
        <ele>338.4</ele>
        <time>2021-05-29 09:34:30</time>
      </trkpt>
      <trkpt lat="43.13449" lon="-2.07518">
        <ele>338.4</ele>
        <time>2021-05-29 09:34:31</time>
      </trkpt>
      <trkpt lat="43.13451" lon="-2.07515">
        <ele>338</ele>
        <time>2021-05-29 09:34:32</time>
      </trkpt>
      <trkpt lat="43.13453" lon="-2.07511">
        <ele>337.8</ele>
        <time>2021-05-29 09:34:33</time>
      </trkpt>
      <trkpt lat="43.13455" lon="-2.07508">
        <ele>337.6</ele>
        <time>2021-05-29 09:34:34</time>
      </trkpt>
      <trkpt lat="43.13457" lon="-2.07504">
        <ele>337.4</ele>
        <time>2021-05-29 09:34:35</time>
      </trkpt>
      <trkpt lat="43.1346" lon="-2.075">
        <ele>337.4</ele>
        <time>2021-05-29 09:34:36</time>
      </trkpt>
      <trkpt lat="43.13463" lon="-2.07496">
        <ele>337.4</ele>
        <time>2021-05-29 09:34:37</time>
      </trkpt>
      <trkpt lat="43.13466" lon="-2.07492">
        <ele>337.2</ele>
        <time>2021-05-29 09:34:38</time>
      </trkpt>
      <trkpt lat="43.1347" lon="-2.07488">
        <ele>337</ele>
        <time>2021-05-29 09:34:39</time>
      </trkpt>
      <trkpt lat="43.13473" lon="-2.07483">
        <ele>336.6</ele>
        <time>2021-05-29 09:34:40</time>
      </trkpt>
      <trkpt lat="43.13476" lon="-2.07478">
        <ele>336.4</ele>
        <time>2021-05-29 09:34:41</time>
      </trkpt>
      <trkpt lat="43.13479" lon="-2.07473">
        <ele>336.2</ele>
        <time>2021-05-29 09:34:42</time>
      </trkpt>
      <trkpt lat="43.1348" lon="-2.07468">
        <ele>336</ele>
        <time>2021-05-29 09:34:43</time>
      </trkpt>
      <trkpt lat="43.13481" lon="-2.07463">
        <ele>335.8</ele>
        <time>2021-05-29 09:34:44</time>
      </trkpt>
      <trkpt lat="43.1348" lon="-2.07458">
        <ele>335.8</ele>
        <time>2021-05-29 09:34:45</time>
      </trkpt>
      <trkpt lat="43.1348" lon="-2.07455">
        <ele>335.8</ele>
        <time>2021-05-29 09:34:46</time>
      </trkpt>
      <trkpt lat="43.1348" lon="-2.07452">
        <ele>335.6</ele>
        <time>2021-05-29 09:34:47</time>
      </trkpt>
      <trkpt lat="43.13481" lon="-2.07451">
        <ele>335.6</ele>
        <time>2021-05-29 09:34:48</time>
      </trkpt>
      <trkpt lat="43.13482" lon="-2.07441">
        <ele>334.4</ele>
        <time>2021-05-29 09:34:55</time>
      </trkpt>
      <trkpt lat="43.13482" lon="-2.07439">
        <ele>334.2</ele>
        <time>2021-05-29 09:34:56</time>
      </trkpt>
      <trkpt lat="43.13483" lon="-2.07437">
        <ele>334.2</ele>
        <time>2021-05-29 09:34:57</time>
      </trkpt>
      <trkpt lat="43.13483" lon="-2.07434">
        <ele>334</ele>
        <time>2021-05-29 09:34:58</time>
      </trkpt>
      <trkpt lat="43.13484" lon="-2.0743">
        <ele>333.8</ele>
        <time>2021-05-29 09:34:59</time>
      </trkpt>
      <trkpt lat="43.13488" lon="-2.07425">
        <ele>333.8</ele>
        <time>2021-05-29 09:35:00</time>
      </trkpt>
      <trkpt lat="43.1349" lon="-2.07419">
        <ele>333.8</ele>
        <time>2021-05-29 09:35:01</time>
      </trkpt>
      <trkpt lat="43.13491" lon="-2.07412">
        <ele>333.6</ele>
        <time>2021-05-29 09:35:02</time>
      </trkpt>
      <trkpt lat="43.13492" lon="-2.07406">
        <ele>333.2</ele>
        <time>2021-05-29 09:35:03</time>
      </trkpt>
      <trkpt lat="43.13494" lon="-2.07399">
        <ele>333</ele>
        <time>2021-05-29 09:35:04</time>
      </trkpt>
      <trkpt lat="43.13495" lon="-2.07391">
        <ele>333</ele>
        <time>2021-05-29 09:35:05</time>
      </trkpt>
      <trkpt lat="43.13497" lon="-2.07383">
        <ele>332.4</ele>
        <time>2021-05-29 09:35:06</time>
      </trkpt>
      <trkpt lat="43.13499" lon="-2.07374">
        <ele>332</ele>
        <time>2021-05-29 09:35:07</time>
      </trkpt>
      <trkpt lat="43.135" lon="-2.07366">
        <ele>331.8</ele>
        <time>2021-05-29 09:35:08</time>
      </trkpt>
      <trkpt lat="43.135" lon="-2.07358">
        <ele>331.8</ele>
        <time>2021-05-29 09:35:09</time>
      </trkpt>
      <trkpt lat="43.13499" lon="-2.07351">
        <ele>331.6</ele>
        <time>2021-05-29 09:35:10</time>
      </trkpt>
      <trkpt lat="43.13498" lon="-2.07346">
        <ele>331.4</ele>
        <time>2021-05-29 09:35:11</time>
      </trkpt>
      <trkpt lat="43.13497" lon="-2.07342">
        <ele>331.2</ele>
        <time>2021-05-29 09:35:12</time>
      </trkpt>
      <trkpt lat="43.13496" lon="-2.07339">
        <ele>331</ele>
        <time>2021-05-29 09:35:13</time>
      </trkpt>
      <trkpt lat="43.13496" lon="-2.07335">
        <ele>330.8</ele>
        <time>2021-05-29 09:35:14</time>
      </trkpt>
      <trkpt lat="43.13495" lon="-2.0733">
        <ele>330.6</ele>
        <time>2021-05-29 09:35:15</time>
      </trkpt>
      <trkpt lat="43.13494" lon="-2.07324">
        <ele>330.2</ele>
        <time>2021-05-29 09:35:16</time>
      </trkpt>
      <trkpt lat="43.13494" lon="-2.07319">
        <ele>330</ele>
        <time>2021-05-29 09:35:17</time>
      </trkpt>
      <trkpt lat="43.13493" lon="-2.07312">
        <ele>329.6</ele>
        <time>2021-05-29 09:35:18</time>
      </trkpt>
      <trkpt lat="43.13493" lon="-2.07307">
        <ele>329.2</ele>
        <time>2021-05-29 09:35:19</time>
      </trkpt>
      <trkpt lat="43.13492" lon="-2.07302">
        <ele>328.8</ele>
        <time>2021-05-29 09:35:20</time>
      </trkpt>
      <trkpt lat="43.13492" lon="-2.07298">
        <ele>328.6</ele>
        <time>2021-05-29 09:35:21</time>
      </trkpt>
      <trkpt lat="43.13491" lon="-2.07294">
        <ele>328.4</ele>
        <time>2021-05-29 09:35:22</time>
      </trkpt>
      <trkpt lat="43.13491" lon="-2.07291">
        <ele>328</ele>
        <time>2021-05-29 09:35:23</time>
      </trkpt>
      <trkpt lat="43.1349" lon="-2.07288">
        <ele>327.8</ele>
        <time>2021-05-29 09:35:24</time>
      </trkpt>
      <trkpt lat="43.1349" lon="-2.07285">
        <ele>327.8</ele>
        <time>2021-05-29 09:35:25</time>
      </trkpt>
      <trkpt lat="43.1349" lon="-2.07282">
        <ele>327.4</ele>
        <time>2021-05-29 09:35:26</time>
      </trkpt>
      <trkpt lat="43.1349" lon="-2.0728">
        <ele>327</ele>
        <time>2021-05-29 09:35:27</time>
      </trkpt>
      <trkpt lat="43.1349" lon="-2.07278">
        <ele>326.6</ele>
        <time>2021-05-29 09:35:28</time>
      </trkpt>
      <trkpt lat="43.1349" lon="-2.07277">
        <ele>326.2</ele>
        <time>2021-05-29 09:35:29</time>
      </trkpt>
      <trkpt lat="43.1349" lon="-2.07276">
        <ele>326</ele>
        <time>2021-05-29 09:35:30</time>
      </trkpt>
      <trkpt lat="43.1349" lon="-2.07276">
        <ele>325.6</ele>
        <time>2021-05-29 09:35:31</time>
      </trkpt>
      <trkpt lat="43.13488" lon="-2.07273">
        <ele>320</ele>
        <time>2021-05-29 09:35:47</time>
      </trkpt>
      <trkpt lat="43.13488" lon="-2.07271">
        <ele>319.6</ele>
        <time>2021-05-29 09:35:48</time>
      </trkpt>
      <trkpt lat="43.13486" lon="-2.07269">
        <ele>319.2</ele>
        <time>2021-05-29 09:35:49</time>
      </trkpt>
      <trkpt lat="43.13484" lon="-2.07268">
        <ele>318.8</ele>
        <time>2021-05-29 09:35:50</time>
      </trkpt>
      <trkpt lat="43.13482" lon="-2.07266">
        <ele>318.2</ele>
        <time>2021-05-29 09:35:51</time>
      </trkpt>
      <trkpt lat="43.13479" lon="-2.07264">
        <ele>317.8</ele>
        <time>2021-05-29 09:35:52</time>
      </trkpt>
      <trkpt lat="43.13475" lon="-2.07261">
        <ele>317.2</ele>
        <time>2021-05-29 09:35:53</time>
      </trkpt>
      <trkpt lat="43.13472" lon="-2.07256">
        <ele>316.8</ele>
        <time>2021-05-29 09:35:54</time>
      </trkpt>
      <trkpt lat="43.1347" lon="-2.0725">
        <ele>316.2</ele>
        <time>2021-05-29 09:35:55</time>
      </trkpt>
      <trkpt lat="43.1347" lon="-2.07245">
        <ele>315.6</ele>
        <time>2021-05-29 09:35:56</time>
      </trkpt>
      <trkpt lat="43.13471" lon="-2.0724">
        <ele>315</ele>
        <time>2021-05-29 09:35:57</time>
      </trkpt>
      <trkpt lat="43.13475" lon="-2.07236">
        <ele>314.8</ele>
        <time>2021-05-29 09:35:58</time>
      </trkpt>
      <trkpt lat="43.1348" lon="-2.07235">
        <ele>314.4</ele>
        <time>2021-05-29 09:35:59</time>
      </trkpt>
      <trkpt lat="43.13484" lon="-2.07236">
        <ele>314</ele>
        <time>2021-05-29 09:36:00</time>
      </trkpt>
      <trkpt lat="43.13489" lon="-2.07237">
        <ele>313.6</ele>
        <time>2021-05-29 09:36:01</time>
      </trkpt>
      <trkpt lat="43.13494" lon="-2.07238">
        <ele>313</ele>
        <time>2021-05-29 09:36:02</time>
      </trkpt>
      <trkpt lat="43.13499" lon="-2.0724">
        <ele>312.6</ele>
        <time>2021-05-29 09:36:03</time>
      </trkpt>
      <trkpt lat="43.13504" lon="-2.0724">
        <ele>312</ele>
        <time>2021-05-29 09:36:04</time>
      </trkpt>
      <trkpt lat="43.13509" lon="-2.0724">
        <ele>311.4</ele>
        <time>2021-05-29 09:36:05</time>
      </trkpt>
      <trkpt lat="43.13515" lon="-2.0724">
        <ele>310.8</ele>
        <time>2021-05-29 09:36:06</time>
      </trkpt>
      <trkpt lat="43.13522" lon="-2.07239">
        <ele>310.2</ele>
        <time>2021-05-29 09:36:07</time>
      </trkpt>
      <trkpt lat="43.1353" lon="-2.07238">
        <ele>309.8</ele>
        <time>2021-05-29 09:36:08</time>
      </trkpt>
      <trkpt lat="43.13538" lon="-2.07236">
        <ele>309.4</ele>
        <time>2021-05-29 09:36:09</time>
      </trkpt>
      <trkpt lat="43.13546" lon="-2.07234">
        <ele>309</ele>
        <time>2021-05-29 09:36:10</time>
      </trkpt>
      <trkpt lat="43.13554" lon="-2.07232">
        <ele>308.6</ele>
        <time>2021-05-29 09:36:11</time>
      </trkpt>
      <trkpt lat="43.13562" lon="-2.07231">
        <ele>308.2</ele>
        <time>2021-05-29 09:36:12</time>
      </trkpt>
      <trkpt lat="43.1357" lon="-2.07229">
        <ele>308</ele>
        <time>2021-05-29 09:36:13</time>
      </trkpt>
      <trkpt lat="43.13577" lon="-2.07226">
        <ele>307.2</ele>
        <time>2021-05-29 09:36:14</time>
      </trkpt>
      <trkpt lat="43.13585" lon="-2.07224">
        <ele>307</ele>
        <time>2021-05-29 09:36:15</time>
      </trkpt>
      <trkpt lat="43.13593" lon="-2.07222">
        <ele>306.6</ele>
        <time>2021-05-29 09:36:16</time>
      </trkpt>
      <trkpt lat="43.13601" lon="-2.07219">
        <ele>306.2</ele>
        <time>2021-05-29 09:36:17</time>
      </trkpt>
      <trkpt lat="43.13608" lon="-2.07215">
        <ele>305.8</ele>
        <time>2021-05-29 09:36:18</time>
      </trkpt>
      <trkpt lat="43.13615" lon="-2.07211">
        <ele>305.6</ele>
        <time>2021-05-29 09:36:19</time>
      </trkpt>
      <trkpt lat="43.13621" lon="-2.07208">
        <ele>305.2</ele>
        <time>2021-05-29 09:36:20</time>
      </trkpt>
      <trkpt lat="43.13628" lon="-2.07204">
        <ele>305</ele>
        <time>2021-05-29 09:36:21</time>
      </trkpt>
      <trkpt lat="43.13635" lon="-2.07201">
        <ele>304.8</ele>
        <time>2021-05-29 09:36:22</time>
      </trkpt>
      <trkpt lat="43.13642" lon="-2.07198">
        <ele>304.4</ele>
        <time>2021-05-29 09:36:23</time>
      </trkpt>
      <trkpt lat="43.13649" lon="-2.07196">
        <ele>304.2</ele>
        <time>2021-05-29 09:36:24</time>
      </trkpt>
      <trkpt lat="43.13656" lon="-2.07194">
        <ele>304</ele>
        <time>2021-05-29 09:36:25</time>
      </trkpt>
      <trkpt lat="43.13663" lon="-2.07191">
        <ele>303.8</ele>
        <time>2021-05-29 09:36:26</time>
      </trkpt>
      <trkpt lat="43.13668" lon="-2.07187">
        <ele>303.6</ele>
        <time>2021-05-29 09:36:27</time>
      </trkpt>
      <trkpt lat="43.13673" lon="-2.07185">
        <ele>303.4</ele>
        <time>2021-05-29 09:36:28</time>
      </trkpt>
      <trkpt lat="43.13676" lon="-2.0718">
        <ele>303.2</ele>
        <time>2021-05-29 09:36:29</time>
      </trkpt>
      <trkpt lat="43.13677" lon="-2.07174">
        <ele>302.8</ele>
        <time>2021-05-29 09:36:30</time>
      </trkpt>
      <trkpt lat="43.13679" lon="-2.07168">
        <ele>302.8</ele>
        <time>2021-05-29 09:36:31</time>
      </trkpt>
      <trkpt lat="43.13681" lon="-2.07162">
        <ele>302.6</ele>
        <time>2021-05-29 09:36:32</time>
      </trkpt>
      <trkpt lat="43.13682" lon="-2.07155">
        <ele>302.2</ele>
        <time>2021-05-29 09:36:33</time>
      </trkpt>
      <trkpt lat="43.13683" lon="-2.07148">
        <ele>302</ele>
        <time>2021-05-29 09:36:34</time>
      </trkpt>
      <trkpt lat="43.13685" lon="-2.0714">
        <ele>301.8</ele>
        <time>2021-05-29 09:36:35</time>
      </trkpt>
      <trkpt lat="43.13687" lon="-2.07131">
        <ele>301.6</ele>
        <time>2021-05-29 09:36:36</time>
      </trkpt>
      <trkpt lat="43.1369" lon="-2.07122">
        <ele>301.6</ele>
        <time>2021-05-29 09:36:37</time>
      </trkpt>
      <trkpt lat="43.13694" lon="-2.07113">
        <ele>301.4</ele>
        <time>2021-05-29 09:36:38</time>
      </trkpt>
      <trkpt lat="43.13697" lon="-2.07103">
        <ele>301.2</ele>
        <time>2021-05-29 09:36:39</time>
      </trkpt>
      <trkpt lat="43.13701" lon="-2.07093">
        <ele>301</ele>
        <time>2021-05-29 09:36:40</time>
      </trkpt>
      <trkpt lat="43.13706" lon="-2.07084">
        <ele>300.8</ele>
        <time>2021-05-29 09:36:41</time>
      </trkpt>
      <trkpt lat="43.13711" lon="-2.07075">
        <ele>300.6</ele>
        <time>2021-05-29 09:36:42</time>
      </trkpt>
      <trkpt lat="43.13717" lon="-2.07066">
        <ele>300.2</ele>
        <time>2021-05-29 09:36:43</time>
      </trkpt>
      <trkpt lat="43.13723" lon="-2.07057">
        <ele>299.8</ele>
        <time>2021-05-29 09:36:44</time>
      </trkpt>
      <trkpt lat="43.13729" lon="-2.07049">
        <ele>299.6</ele>
        <time>2021-05-29 09:36:45</time>
      </trkpt>
      <trkpt lat="43.13735" lon="-2.07041">
        <ele>299.4</ele>
        <time>2021-05-29 09:36:46</time>
      </trkpt>
      <trkpt lat="43.13741" lon="-2.07034">
        <ele>299.2</ele>
        <time>2021-05-29 09:36:47</time>
      </trkpt>
      <trkpt lat="43.13748" lon="-2.07027">
        <ele>299</ele>
        <time>2021-05-29 09:36:48</time>
      </trkpt>
      <trkpt lat="43.13754" lon="-2.07021">
        <ele>298.8</ele>
        <time>2021-05-29 09:36:49</time>
      </trkpt>
      <trkpt lat="43.13761" lon="-2.07015">
        <ele>298.6</ele>
        <time>2021-05-29 09:36:50</time>
      </trkpt>
      <trkpt lat="43.13768" lon="-2.07009">
        <ele>298.4</ele>
        <time>2021-05-29 09:36:51</time>
      </trkpt>
      <trkpt lat="43.13775" lon="-2.07004">
        <ele>298.2</ele>
        <time>2021-05-29 09:36:52</time>
      </trkpt>
      <trkpt lat="43.13783" lon="-2.07001">
        <ele>298.2</ele>
        <time>2021-05-29 09:36:53</time>
      </trkpt>
      <trkpt lat="43.1379" lon="-2.06997">
        <ele>298</ele>
        <time>2021-05-29 09:36:54</time>
      </trkpt>
      <trkpt lat="43.13798" lon="-2.06994">
        <ele>297.8</ele>
        <time>2021-05-29 09:36:55</time>
      </trkpt>
      <trkpt lat="43.13807" lon="-2.06991">
        <ele>297.6</ele>
        <time>2021-05-29 09:36:56</time>
      </trkpt>
      <trkpt lat="43.13816" lon="-2.06989">
        <ele>297.4</ele>
        <time>2021-05-29 09:36:57</time>
      </trkpt>
      <trkpt lat="43.13824" lon="-2.06988">
        <ele>297.2</ele>
        <time>2021-05-29 09:36:58</time>
      </trkpt>
      <trkpt lat="43.13833" lon="-2.06988">
        <ele>297.2</ele>
        <time>2021-05-29 09:36:59</time>
      </trkpt>
      <trkpt lat="43.13842" lon="-2.06988">
        <ele>297.2</ele>
        <time>2021-05-29 09:37:00</time>
      </trkpt>
      <trkpt lat="43.13851" lon="-2.06989">
        <ele>297.2</ele>
        <time>2021-05-29 09:37:01</time>
      </trkpt>
      <trkpt lat="43.1386" lon="-2.06991">
        <ele>297.2</ele>
        <time>2021-05-29 09:37:02</time>
      </trkpt>
      <trkpt lat="43.13869" lon="-2.06992">
        <ele>297</ele>
        <time>2021-05-29 09:37:03</time>
      </trkpt>
      <trkpt lat="43.13878" lon="-2.06995">
        <ele>297</ele>
        <time>2021-05-29 09:37:04</time>
      </trkpt>
      <trkpt lat="43.13887" lon="-2.06998">
        <ele>296.8</ele>
        <time>2021-05-29 09:37:05</time>
      </trkpt>
      <trkpt lat="43.13896" lon="-2.07001">
        <ele>296.8</ele>
        <time>2021-05-29 09:37:06</time>
      </trkpt>
      <trkpt lat="43.13905" lon="-2.07005">
        <ele>296.8</ele>
        <time>2021-05-29 09:37:07</time>
      </trkpt>
      <trkpt lat="43.13914" lon="-2.07011">
        <ele>296.6</ele>
        <time>2021-05-29 09:37:08</time>
      </trkpt>
      <trkpt lat="43.13922" lon="-2.07016">
        <ele>296.6</ele>
        <time>2021-05-29 09:37:09</time>
      </trkpt>
      <trkpt lat="43.13931" lon="-2.07022">
        <ele>296.6</ele>
        <time>2021-05-29 09:37:10</time>
      </trkpt>
      <trkpt lat="43.13939" lon="-2.07028">
        <ele>296.4</ele>
        <time>2021-05-29 09:37:11</time>
      </trkpt>
      <trkpt lat="43.13947" lon="-2.07035">
        <ele>296.4</ele>
        <time>2021-05-29 09:37:12</time>
      </trkpt>
      <trkpt lat="43.13956" lon="-2.07041">
        <ele>296.4</ele>
        <time>2021-05-29 09:37:13</time>
      </trkpt>
      <trkpt lat="43.13964" lon="-2.07048">
        <ele>296.4</ele>
        <time>2021-05-29 09:37:14</time>
      </trkpt>
      <trkpt lat="43.13972" lon="-2.07054">
        <ele>296.2</ele>
        <time>2021-05-29 09:37:15</time>
      </trkpt>
      <trkpt lat="43.13979" lon="-2.07061">
        <ele>296.2</ele>
        <time>2021-05-29 09:37:16</time>
      </trkpt>
      <trkpt lat="43.13987" lon="-2.07067">
        <ele>296.2</ele>
        <time>2021-05-29 09:37:17</time>
      </trkpt>
      <trkpt lat="43.13995" lon="-2.07072">
        <ele>296.2</ele>
        <time>2021-05-29 09:37:18</time>
      </trkpt>
      <trkpt lat="43.14003" lon="-2.07077">
        <ele>296.2</ele>
        <time>2021-05-29 09:37:19</time>
      </trkpt>
      <trkpt lat="43.1401" lon="-2.07081">
        <ele>296</ele>
        <time>2021-05-29 09:37:20</time>
      </trkpt>
      <trkpt lat="43.14017" lon="-2.07086">
        <ele>295.8</ele>
        <time>2021-05-29 09:37:21</time>
      </trkpt>
      <trkpt lat="43.14023" lon="-2.0709">
        <ele>295.8</ele>
        <time>2021-05-29 09:37:22</time>
      </trkpt>
      <trkpt lat="43.14029" lon="-2.07093">
        <ele>295.8</ele>
        <time>2021-05-29 09:37:23</time>
      </trkpt>
      <trkpt lat="43.14034" lon="-2.07096">
        <ele>295.6</ele>
        <time>2021-05-29 09:37:24</time>
      </trkpt>
      <trkpt lat="43.1404" lon="-2.071">
        <ele>295.6</ele>
        <time>2021-05-29 09:37:25</time>
      </trkpt>
      <trkpt lat="43.14045" lon="-2.07104">
        <ele>295.6</ele>
        <time>2021-05-29 09:37:26</time>
      </trkpt>
      <trkpt lat="43.14051" lon="-2.07107">
        <ele>295.6</ele>
        <time>2021-05-29 09:37:27</time>
      </trkpt>
      <trkpt lat="43.14058" lon="-2.07112">
        <ele>295.6</ele>
        <time>2021-05-29 09:37:28</time>
      </trkpt>
      <trkpt lat="43.14064" lon="-2.07115">
        <ele>295.6</ele>
        <time>2021-05-29 09:37:29</time>
      </trkpt>
      <trkpt lat="43.1407" lon="-2.07119">
        <ele>295.6</ele>
        <time>2021-05-29 09:37:30</time>
      </trkpt>
      <trkpt lat="43.14075" lon="-2.07121">
        <ele>295.4</ele>
        <time>2021-05-29 09:37:31</time>
      </trkpt>
      <trkpt lat="43.14079" lon="-2.07125">
        <ele>295.4</ele>
        <time>2021-05-29 09:37:32</time>
      </trkpt>
      <trkpt lat="43.14082" lon="-2.07127">
        <ele>295.4</ele>
        <time>2021-05-29 09:37:33</time>
      </trkpt>
      <trkpt lat="43.14085" lon="-2.07128">
        <ele>295.2</ele>
        <time>2021-05-29 09:37:34</time>
      </trkpt>
      <trkpt lat="43.14086" lon="-2.07128">
        <ele>295</ele>
        <time>2021-05-29 09:37:35</time>
      </trkpt>
      <trkpt lat="43.14087" lon="-2.0713">
        <ele>295</ele>
        <time>2021-05-29 09:37:36</time>
      </trkpt>
      <trkpt lat="43.14089" lon="-2.07132">
        <ele>295</ele>
        <time>2021-05-29 09:37:37</time>
      </trkpt>
      <trkpt lat="43.14091" lon="-2.07136">
        <ele>294.8</ele>
        <time>2021-05-29 09:37:38</time>
      </trkpt>
      <trkpt lat="43.14092" lon="-2.07141">
        <ele>294.8</ele>
        <time>2021-05-29 09:37:39</time>
      </trkpt>
      <trkpt lat="43.14092" lon="-2.07147">
        <ele>294.8</ele>
        <time>2021-05-29 09:37:40</time>
      </trkpt>
      <trkpt lat="43.14091" lon="-2.07153">
        <ele>294.6</ele>
        <time>2021-05-29 09:37:41</time>
      </trkpt>
      <trkpt lat="43.14088" lon="-2.0716">
        <ele>294.6</ele>
        <time>2021-05-29 09:37:42</time>
      </trkpt>
      <trkpt lat="43.14085" lon="-2.07165">
        <ele>294.6</ele>
        <time>2021-05-29 09:37:43</time>
      </trkpt>
      <trkpt lat="43.14081" lon="-2.07171">
        <ele>294.6</ele>
        <time>2021-05-29 09:37:44</time>
      </trkpt>
      <trkpt lat="43.14076" lon="-2.07177">
        <ele>294.4</ele>
        <time>2021-05-29 09:37:45</time>
      </trkpt>
      <trkpt lat="43.14072" lon="-2.07182">
        <ele>294.4</ele>
        <time>2021-05-29 09:37:46</time>
      </trkpt>
      <trkpt lat="43.14068" lon="-2.07188">
        <ele>294.2</ele>
        <time>2021-05-29 09:37:47</time>
      </trkpt>
      <trkpt lat="43.14064" lon="-2.07194">
        <ele>294</ele>
        <time>2021-05-29 09:37:48</time>
      </trkpt>
      <trkpt lat="43.14059" lon="-2.072">
        <ele>293.8</ele>
        <time>2021-05-29 09:37:49</time>
      </trkpt>
      <trkpt lat="43.14055" lon="-2.07204">
        <ele>293.6</ele>
        <time>2021-05-29 09:37:50</time>
      </trkpt>
      <trkpt lat="43.14052" lon="-2.07209">
        <ele>293.6</ele>
        <time>2021-05-29 09:37:51</time>
      </trkpt>
      <trkpt lat="43.1405" lon="-2.07214">
        <ele>293.4</ele>
        <time>2021-05-29 09:37:52</time>
      </trkpt>
      <trkpt lat="43.1405" lon="-2.0722">
        <ele>293.4</ele>
        <time>2021-05-29 09:37:53</time>
      </trkpt>
      <trkpt lat="43.14053" lon="-2.07223">
        <ele>293.2</ele>
        <time>2021-05-29 09:37:54</time>
      </trkpt>
      <trkpt lat="43.14057" lon="-2.07225">
        <ele>293.2</ele>
        <time>2021-05-29 09:37:55</time>
      </trkpt>
      <trkpt lat="43.14062" lon="-2.07228">
        <ele>293</ele>
        <time>2021-05-29 09:37:56</time>
      </trkpt>
      <trkpt lat="43.14068" lon="-2.0723">
        <ele>293</ele>
        <time>2021-05-29 09:37:57</time>
      </trkpt>
      <trkpt lat="43.14074" lon="-2.07231">
        <ele>292.6</ele>
        <time>2021-05-29 09:37:58</time>
      </trkpt>
      <trkpt lat="43.14081" lon="-2.07233">
        <ele>292.6</ele>
        <time>2021-05-29 09:37:59</time>
      </trkpt>
      <trkpt lat="43.14087" lon="-2.07236">
        <ele>292.2</ele>
        <time>2021-05-29 09:38:00</time>
      </trkpt>
      <trkpt lat="43.14095" lon="-2.07238">
        <ele>292</ele>
        <time>2021-05-29 09:38:01</time>
      </trkpt>
      <trkpt lat="43.14101" lon="-2.07241">
        <ele>291.6</ele>
        <time>2021-05-29 09:38:02</time>
      </trkpt>
      <trkpt lat="43.14109" lon="-2.07244">
        <ele>291.4</ele>
        <time>2021-05-29 09:38:03</time>
      </trkpt>
      <trkpt lat="43.14117" lon="-2.07247">
        <ele>291.4</ele>
        <time>2021-05-29 09:38:04</time>
      </trkpt>
      <trkpt lat="43.14125" lon="-2.0725">
        <ele>291.2</ele>
        <time>2021-05-29 09:38:05</time>
      </trkpt>
      <trkpt lat="43.14132" lon="-2.07253">
        <ele>291</ele>
        <time>2021-05-29 09:38:06</time>
      </trkpt>
      <trkpt lat="43.1414" lon="-2.07256">
        <ele>290.8</ele>
        <time>2021-05-29 09:38:07</time>
      </trkpt>
      <trkpt lat="43.14147" lon="-2.07259">
        <ele>290.8</ele>
        <time>2021-05-29 09:38:08</time>
      </trkpt>
      <trkpt lat="43.14154" lon="-2.07262">
        <ele>290.2</ele>
        <time>2021-05-29 09:38:09</time>
      </trkpt>
      <trkpt lat="43.14161" lon="-2.07264">
        <ele>290</ele>
        <time>2021-05-29 09:38:10</time>
      </trkpt>
      <trkpt lat="43.14169" lon="-2.07266">
        <ele>289.6</ele>
        <time>2021-05-29 09:38:11</time>
      </trkpt>
      <trkpt lat="43.14177" lon="-2.07267">
        <ele>289.2</ele>
        <time>2021-05-29 09:38:12</time>
      </trkpt>
      <trkpt lat="43.14184" lon="-2.07268">
        <ele>289</ele>
        <time>2021-05-29 09:38:13</time>
      </trkpt>
      <trkpt lat="43.14192" lon="-2.07269">
        <ele>289</ele>
        <time>2021-05-29 09:38:14</time>
      </trkpt>
      <trkpt lat="43.142" lon="-2.0727">
        <ele>288.8</ele>
        <time>2021-05-29 09:38:15</time>
      </trkpt>
      <trkpt lat="43.14208" lon="-2.07271">
        <ele>288.4</ele>
        <time>2021-05-29 09:38:16</time>
      </trkpt>
      <trkpt lat="43.14216" lon="-2.07272">
        <ele>288</ele>
        <time>2021-05-29 09:38:17</time>
      </trkpt>
      <trkpt lat="43.14224" lon="-2.07274">
        <ele>287.8</ele>
        <time>2021-05-29 09:38:18</time>
      </trkpt>
      <trkpt lat="43.14232" lon="-2.07274">
        <ele>287.6</ele>
        <time>2021-05-29 09:38:19</time>
      </trkpt>
      <trkpt lat="43.1424" lon="-2.07275">
        <ele>287.2</ele>
        <time>2021-05-29 09:38:20</time>
      </trkpt>
      <trkpt lat="43.14248" lon="-2.07275">
        <ele>286.8</ele>
        <time>2021-05-29 09:38:21</time>
      </trkpt>
      <trkpt lat="43.14256" lon="-2.07277">
        <ele>286.6</ele>
        <time>2021-05-29 09:38:22</time>
      </trkpt>
      <trkpt lat="43.14264" lon="-2.07277">
        <ele>286.2</ele>
        <time>2021-05-29 09:38:23</time>
      </trkpt>
      <trkpt lat="43.14272" lon="-2.07278">
        <ele>286</ele>
        <time>2021-05-29 09:38:24</time>
      </trkpt>
      <trkpt lat="43.1428" lon="-2.07279">
        <ele>285.6</ele>
        <time>2021-05-29 09:38:25</time>
      </trkpt>
      <trkpt lat="43.14288" lon="-2.0728">
        <ele>285.2</ele>
        <time>2021-05-29 09:38:26</time>
      </trkpt>
      <trkpt lat="43.14296" lon="-2.07281">
        <ele>285</ele>
        <time>2021-05-29 09:38:27</time>
      </trkpt>
      <trkpt lat="43.14304" lon="-2.07281">
        <ele>284.6</ele>
        <time>2021-05-29 09:38:28</time>
      </trkpt>
      <trkpt lat="43.14313" lon="-2.07282">
        <ele>284.4</ele>
        <time>2021-05-29 09:38:29</time>
      </trkpt>
      <trkpt lat="43.14321" lon="-2.07282">
        <ele>283.8</ele>
        <time>2021-05-29 09:38:30</time>
      </trkpt>
      <trkpt lat="43.14329" lon="-2.07282">
        <ele>283.4</ele>
        <time>2021-05-29 09:38:31</time>
      </trkpt>
      <trkpt lat="43.14337" lon="-2.07282">
        <ele>283</ele>
        <time>2021-05-29 09:38:32</time>
      </trkpt>
      <trkpt lat="43.14345" lon="-2.07281">
        <ele>282.8</ele>
        <time>2021-05-29 09:38:33</time>
      </trkpt>
      <trkpt lat="43.14353" lon="-2.07281">
        <ele>282.6</ele>
        <time>2021-05-29 09:38:34</time>
      </trkpt>
      <trkpt lat="43.14361" lon="-2.0728">
        <ele>282.2</ele>
        <time>2021-05-29 09:38:35</time>
      </trkpt>
      <trkpt lat="43.1437" lon="-2.07278">
        <ele>281.8</ele>
        <time>2021-05-29 09:38:36</time>
      </trkpt>
      <trkpt lat="43.14378" lon="-2.07277">
        <ele>281.4</ele>
        <time>2021-05-29 09:38:37</time>
      </trkpt>
      <trkpt lat="43.14386" lon="-2.07275">
        <ele>281</ele>
        <time>2021-05-29 09:38:38</time>
      </trkpt>
      <trkpt lat="43.14395" lon="-2.07274">
        <ele>280.8</ele>
        <time>2021-05-29 09:38:39</time>
      </trkpt>
      <trkpt lat="43.14403" lon="-2.07272">
        <ele>280.8</ele>
        <time>2021-05-29 09:38:40</time>
      </trkpt>
      <trkpt lat="43.14411" lon="-2.07271">
        <ele>280.4</ele>
        <time>2021-05-29 09:38:41</time>
      </trkpt>
      <trkpt lat="43.14419" lon="-2.07269">
        <ele>280</ele>
        <time>2021-05-29 09:38:42</time>
      </trkpt>
      <trkpt lat="43.14427" lon="-2.07267">
        <ele>279.8</ele>
        <time>2021-05-29 09:38:43</time>
      </trkpt>
      <trkpt lat="43.14435" lon="-2.07266">
        <ele>279.8</ele>
        <time>2021-05-29 09:38:44</time>
      </trkpt>
      <trkpt lat="43.14444" lon="-2.07264">
        <ele>279.6</ele>
        <time>2021-05-29 09:38:45</time>
      </trkpt>
      <trkpt lat="43.14452" lon="-2.07262">
        <ele>279</ele>
        <time>2021-05-29 09:38:46</time>
      </trkpt>
      <trkpt lat="43.1446" lon="-2.07261">
        <ele>278.6</ele>
        <time>2021-05-29 09:38:47</time>
      </trkpt>
      <trkpt lat="43.14468" lon="-2.07259">
        <ele>278.2</ele>
        <time>2021-05-29 09:38:48</time>
      </trkpt>
      <trkpt lat="43.14476" lon="-2.07256">
        <ele>278.2</ele>
        <time>2021-05-29 09:38:49</time>
      </trkpt>
      <trkpt lat="43.14485" lon="-2.07253">
        <ele>277.8</ele>
        <time>2021-05-29 09:38:50</time>
      </trkpt>
      <trkpt lat="43.14493" lon="-2.0725">
        <ele>277.4</ele>
        <time>2021-05-29 09:38:51</time>
      </trkpt>
      <trkpt lat="43.14501" lon="-2.07248">
        <ele>277</ele>
        <time>2021-05-29 09:38:52</time>
      </trkpt>
      <trkpt lat="43.14509" lon="-2.07245">
        <ele>276.6</ele>
        <time>2021-05-29 09:38:53</time>
      </trkpt>
      <trkpt lat="43.14517" lon="-2.07243">
        <ele>276.6</ele>
        <time>2021-05-29 09:38:54</time>
      </trkpt>
      <trkpt lat="43.14525" lon="-2.0724">
        <ele>276.4</ele>
        <time>2021-05-29 09:38:55</time>
      </trkpt>
      <trkpt lat="43.14533" lon="-2.07238">
        <ele>276.2</ele>
        <time>2021-05-29 09:38:56</time>
      </trkpt>
      <trkpt lat="43.14542" lon="-2.07235">
        <ele>275.8</ele>
        <time>2021-05-29 09:38:57</time>
      </trkpt>
      <trkpt lat="43.1455" lon="-2.07233">
        <ele>275.4</ele>
        <time>2021-05-29 09:38:58</time>
      </trkpt>
      <trkpt lat="43.14559" lon="-2.07231">
        <ele>275</ele>
        <time>2021-05-29 09:38:59</time>
      </trkpt>
      <trkpt lat="43.14567" lon="-2.0723">
        <ele>274.8</ele>
        <time>2021-05-29 09:39:00</time>
      </trkpt>
      <trkpt lat="43.14576" lon="-2.07229">
        <ele>274.6</ele>
        <time>2021-05-29 09:39:01</time>
      </trkpt>
      <trkpt lat="43.14584" lon="-2.07228">
        <ele>274.6</ele>
        <time>2021-05-29 09:39:02</time>
      </trkpt>
      <trkpt lat="43.14593" lon="-2.07227">
        <ele>274.2</ele>
        <time>2021-05-29 09:39:03</time>
      </trkpt>
      <trkpt lat="43.14601" lon="-2.07226">
        <ele>273.6</ele>
        <time>2021-05-29 09:39:04</time>
      </trkpt>
      <trkpt lat="43.14609" lon="-2.07225">
        <ele>273.2</ele>
        <time>2021-05-29 09:39:05</time>
      </trkpt>
      <trkpt lat="43.14618" lon="-2.07225">
        <ele>273</ele>
        <time>2021-05-29 09:39:06</time>
      </trkpt>
      <trkpt lat="43.14626" lon="-2.07224">
        <ele>272.8</ele>
        <time>2021-05-29 09:39:07</time>
      </trkpt>
      <trkpt lat="43.14634" lon="-2.07223">
        <ele>272.6</ele>
        <time>2021-05-29 09:39:08</time>
      </trkpt>
      <trkpt lat="43.14643" lon="-2.07223">
        <ele>272.4</ele>
        <time>2021-05-29 09:39:09</time>
      </trkpt>
      <trkpt lat="43.14651" lon="-2.07223">
        <ele>272.4</ele>
        <time>2021-05-29 09:39:10</time>
      </trkpt>
      <trkpt lat="43.1466" lon="-2.07223">
        <ele>272</ele>
        <time>2021-05-29 09:39:11</time>
      </trkpt>
      <trkpt lat="43.14668" lon="-2.07224">
        <ele>271.6</ele>
        <time>2021-05-29 09:39:12</time>
      </trkpt>
      <trkpt lat="43.14677" lon="-2.07224">
        <ele>271.2</ele>
        <time>2021-05-29 09:39:13</time>
      </trkpt>
      <trkpt lat="43.14685" lon="-2.07225">
        <ele>271</ele>
        <time>2021-05-29 09:39:14</time>
      </trkpt>
      <trkpt lat="43.14693" lon="-2.07226">
        <ele>271</ele>
        <time>2021-05-29 09:39:15</time>
      </trkpt>
      <trkpt lat="43.14702" lon="-2.07227">
        <ele>270.8</ele>
        <time>2021-05-29 09:39:16</time>
      </trkpt>
      <trkpt lat="43.1471" lon="-2.07228">
        <ele>270.6</ele>
        <time>2021-05-29 09:39:17</time>
      </trkpt>
      <trkpt lat="43.14719" lon="-2.07229">
        <ele>270.2</ele>
        <time>2021-05-29 09:39:18</time>
      </trkpt>
      <trkpt lat="43.14727" lon="-2.0723">
        <ele>270</ele>
        <time>2021-05-29 09:39:19</time>
      </trkpt>
      <trkpt lat="43.14735" lon="-2.07231">
        <ele>269.8</ele>
        <time>2021-05-29 09:39:20</time>
      </trkpt>
      <trkpt lat="43.14743" lon="-2.07232">
        <ele>269.6</ele>
        <time>2021-05-29 09:39:21</time>
      </trkpt>
      <trkpt lat="43.14752" lon="-2.07233">
        <ele>269.4</ele>
        <time>2021-05-29 09:39:22</time>
      </trkpt>
      <trkpt lat="43.1476" lon="-2.07234">
        <ele>269.2</ele>
        <time>2021-05-29 09:39:23</time>
      </trkpt>
      <trkpt lat="43.14768" lon="-2.07234">
        <ele>269</ele>
        <time>2021-05-29 09:39:24</time>
      </trkpt>
      <trkpt lat="43.14776" lon="-2.07235">
        <ele>268.6</ele>
        <time>2021-05-29 09:39:25</time>
      </trkpt>
      <trkpt lat="43.14785" lon="-2.07235">
        <ele>268.2</ele>
        <time>2021-05-29 09:39:26</time>
      </trkpt>
      <trkpt lat="43.14793" lon="-2.07236">
        <ele>267.8</ele>
        <time>2021-05-29 09:39:27</time>
      </trkpt>
      <trkpt lat="43.14801" lon="-2.07236">
        <ele>267.4</ele>
        <time>2021-05-29 09:39:28</time>
      </trkpt>
      <trkpt lat="43.14809" lon="-2.07237">
        <ele>267.2</ele>
        <time>2021-05-29 09:39:29</time>
      </trkpt>
      <trkpt lat="43.14818" lon="-2.07237">
        <ele>267</ele>
        <time>2021-05-29 09:39:30</time>
      </trkpt>
      <trkpt lat="43.14826" lon="-2.07238">
        <ele>267</ele>
        <time>2021-05-29 09:39:31</time>
      </trkpt>
      <trkpt lat="43.14834" lon="-2.07238">
        <ele>266.6</ele>
        <time>2021-05-29 09:39:32</time>
      </trkpt>
      <trkpt lat="43.14843" lon="-2.07238">
        <ele>266.2</ele>
        <time>2021-05-29 09:39:33</time>
      </trkpt>
      <trkpt lat="43.14852" lon="-2.07239">
        <ele>265.8</ele>
        <time>2021-05-29 09:39:34</time>
      </trkpt>
      <trkpt lat="43.1486" lon="-2.07239">
        <ele>265.6</ele>
        <time>2021-05-29 09:39:35</time>
      </trkpt>
      <trkpt lat="43.14869" lon="-2.07239">
        <ele>265.2</ele>
        <time>2021-05-29 09:39:36</time>
      </trkpt>
      <trkpt lat="43.14877" lon="-2.0724">
        <ele>264.8</ele>
        <time>2021-05-29 09:39:37</time>
      </trkpt>
      <trkpt lat="43.14886" lon="-2.0724">
        <ele>264.6</ele>
        <time>2021-05-29 09:39:38</time>
      </trkpt>
      <trkpt lat="43.14895" lon="-2.0724">
        <ele>264.4</ele>
        <time>2021-05-29 09:39:39</time>
      </trkpt>
      <trkpt lat="43.14903" lon="-2.0724">
        <ele>264.2</ele>
        <time>2021-05-29 09:39:40</time>
      </trkpt>
      <trkpt lat="43.14912" lon="-2.07241">
        <ele>263.6</ele>
        <time>2021-05-29 09:39:41</time>
      </trkpt>
      <trkpt lat="43.1492" lon="-2.07241">
        <ele>263.4</ele>
        <time>2021-05-29 09:39:42</time>
      </trkpt>
      <trkpt lat="43.14929" lon="-2.07241">
        <ele>263.2</ele>
        <time>2021-05-29 09:39:43</time>
      </trkpt>
      <trkpt lat="43.14937" lon="-2.0724">
        <ele>262.8</ele>
        <time>2021-05-29 09:39:44</time>
      </trkpt>
      <trkpt lat="43.14946" lon="-2.07239">
        <ele>262.4</ele>
        <time>2021-05-29 09:39:45</time>
      </trkpt>
      <trkpt lat="43.14954" lon="-2.07237">
        <ele>262</ele>
        <time>2021-05-29 09:39:46</time>
      </trkpt>
      <trkpt lat="43.14962" lon="-2.07235">
        <ele>261.6</ele>
        <time>2021-05-29 09:39:47</time>
      </trkpt>
      <trkpt lat="43.1497" lon="-2.07232">
        <ele>261.4</ele>
        <time>2021-05-29 09:39:48</time>
      </trkpt>
      <trkpt lat="43.14979" lon="-2.0723">
        <ele>261</ele>
        <time>2021-05-29 09:39:49</time>
      </trkpt>
      <trkpt lat="43.14987" lon="-2.07228">
        <ele>260.6</ele>
        <time>2021-05-29 09:39:50</time>
      </trkpt>
      <trkpt lat="43.14995" lon="-2.07226">
        <ele>260</ele>
        <time>2021-05-29 09:39:51</time>
      </trkpt>
      <trkpt lat="43.15003" lon="-2.07224">
        <ele>259.4</ele>
        <time>2021-05-29 09:39:52</time>
      </trkpt>
      <trkpt lat="43.15011" lon="-2.07222">
        <ele>259.2</ele>
        <time>2021-05-29 09:39:53</time>
      </trkpt>
      <trkpt lat="43.15019" lon="-2.07222">
        <ele>258.8</ele>
        <time>2021-05-29 09:39:54</time>
      </trkpt>
      <trkpt lat="43.15028" lon="-2.07221">
        <ele>258.4</ele>
        <time>2021-05-29 09:39:55</time>
      </trkpt>
      <trkpt lat="43.15036" lon="-2.07221">
        <ele>258.2</ele>
        <time>2021-05-29 09:39:56</time>
      </trkpt>
      <trkpt lat="43.15044" lon="-2.0722">
        <ele>258</ele>
        <time>2021-05-29 09:39:57</time>
      </trkpt>
      <trkpt lat="43.15053" lon="-2.07219">
        <ele>257.6</ele>
        <time>2021-05-29 09:39:58</time>
      </trkpt>
      <trkpt lat="43.15061" lon="-2.07218">
        <ele>257.2</ele>
        <time>2021-05-29 09:39:59</time>
      </trkpt>
      <trkpt lat="43.15069" lon="-2.07216">
        <ele>256.8</ele>
        <time>2021-05-29 09:40:00</time>
      </trkpt>
      <trkpt lat="43.15077" lon="-2.07214">
        <ele>256.6</ele>
        <time>2021-05-29 09:40:01</time>
      </trkpt>
      <trkpt lat="43.15086" lon="-2.07212">
        <ele>256.2</ele>
        <time>2021-05-29 09:40:02</time>
      </trkpt>
      <trkpt lat="43.15094" lon="-2.0721">
        <ele>255.8</ele>
        <time>2021-05-29 09:40:03</time>
      </trkpt>
      <trkpt lat="43.15102" lon="-2.07207">
        <ele>255.4</ele>
        <time>2021-05-29 09:40:04</time>
      </trkpt>
      <trkpt lat="43.1511" lon="-2.07204">
        <ele>255.2</ele>
        <time>2021-05-29 09:40:05</time>
      </trkpt>
      <trkpt lat="43.15118" lon="-2.07201">
        <ele>254.8</ele>
        <time>2021-05-29 09:40:06</time>
      </trkpt>
      <trkpt lat="43.15126" lon="-2.07198">
        <ele>254.6</ele>
        <time>2021-05-29 09:40:07</time>
      </trkpt>
      <trkpt lat="43.15134" lon="-2.07195">
        <ele>254.2</ele>
        <time>2021-05-29 09:40:08</time>
      </trkpt>
      <trkpt lat="43.15142" lon="-2.07191">
        <ele>253.8</ele>
        <time>2021-05-29 09:40:09</time>
      </trkpt>
      <trkpt lat="43.1515" lon="-2.07187">
        <ele>253.4</ele>
        <time>2021-05-29 09:40:10</time>
      </trkpt>
      <trkpt lat="43.15158" lon="-2.07183">
        <ele>253.2</ele>
        <time>2021-05-29 09:40:11</time>
      </trkpt>
      <trkpt lat="43.15166" lon="-2.07178">
        <ele>253</ele>
        <time>2021-05-29 09:40:12</time>
      </trkpt>
      <trkpt lat="43.15174" lon="-2.07174">
        <ele>252.6</ele>
        <time>2021-05-29 09:40:13</time>
      </trkpt>
      <trkpt lat="43.15181" lon="-2.07169">
        <ele>252.2</ele>
        <time>2021-05-29 09:40:14</time>
      </trkpt>
      <trkpt lat="43.15189" lon="-2.07164">
        <ele>252</ele>
        <time>2021-05-29 09:40:15</time>
      </trkpt>
      <trkpt lat="43.15196" lon="-2.07159">
        <ele>251.2</ele>
        <time>2021-05-29 09:40:16</time>
      </trkpt>
      <trkpt lat="43.15204" lon="-2.07154">
        <ele>250.8</ele>
        <time>2021-05-29 09:40:17</time>
      </trkpt>
      <trkpt lat="43.15211" lon="-2.07149">
        <ele>250.2</ele>
        <time>2021-05-29 09:40:18</time>
      </trkpt>
      <trkpt lat="43.15218" lon="-2.07144">
        <ele>250</ele>
        <time>2021-05-29 09:40:19</time>
      </trkpt>
      <trkpt lat="43.15226" lon="-2.07139">
        <ele>249.8</ele>
        <time>2021-05-29 09:40:20</time>
      </trkpt>
      <trkpt lat="43.15233" lon="-2.07134">
        <ele>249.4</ele>
        <time>2021-05-29 09:40:21</time>
      </trkpt>
      <trkpt lat="43.15241" lon="-2.07129">
        <ele>249.2</ele>
        <time>2021-05-29 09:40:22</time>
      </trkpt>
      <trkpt lat="43.15248" lon="-2.07124">
        <ele>249</ele>
        <time>2021-05-29 09:40:23</time>
      </trkpt>
      <trkpt lat="43.15256" lon="-2.07118">
        <ele>248.6</ele>
        <time>2021-05-29 09:40:24</time>
      </trkpt>
      <trkpt lat="43.15264" lon="-2.07113">
        <ele>248</ele>
        <time>2021-05-29 09:40:25</time>
      </trkpt>
      <trkpt lat="43.15271" lon="-2.07108">
        <ele>247.8</ele>
        <time>2021-05-29 09:40:26</time>
      </trkpt>
      <trkpt lat="43.15279" lon="-2.07103">
        <ele>247.6</ele>
        <time>2021-05-29 09:40:27</time>
      </trkpt>
      <trkpt lat="43.15287" lon="-2.07097">
        <ele>247.2</ele>
        <time>2021-05-29 09:40:28</time>
      </trkpt>
      <trkpt lat="43.15294" lon="-2.07092">
        <ele>246.8</ele>
        <time>2021-05-29 09:40:29</time>
      </trkpt>
      <trkpt lat="43.15302" lon="-2.07087">
        <ele>246.4</ele>
        <time>2021-05-29 09:40:30</time>
      </trkpt>
      <trkpt lat="43.1531" lon="-2.07081">
        <ele>246</ele>
        <time>2021-05-29 09:40:31</time>
      </trkpt>
      <trkpt lat="43.15317" lon="-2.07076">
        <ele>245.6</ele>
        <time>2021-05-29 09:40:32</time>
      </trkpt>
      <trkpt lat="43.15325" lon="-2.07071">
        <ele>245.4</ele>
        <time>2021-05-29 09:40:33</time>
      </trkpt>
      <trkpt lat="43.15332" lon="-2.07066">
        <ele>245.2</ele>
        <time>2021-05-29 09:40:34</time>
      </trkpt>
      <trkpt lat="43.1534" lon="-2.0706">
        <ele>245</ele>
        <time>2021-05-29 09:40:35</time>
      </trkpt>
      <trkpt lat="43.15348" lon="-2.07055">
        <ele>244.6</ele>
        <time>2021-05-29 09:40:36</time>
      </trkpt>
      <trkpt lat="43.15355" lon="-2.07049">
        <ele>244.4</ele>
        <time>2021-05-29 09:40:37</time>
      </trkpt>
      <trkpt lat="43.15363" lon="-2.07044">
        <ele>244.2</ele>
        <time>2021-05-29 09:40:38</time>
      </trkpt>
      <trkpt lat="43.15371" lon="-2.07039">
        <ele>243.6</ele>
        <time>2021-05-29 09:40:39</time>
      </trkpt>
      <trkpt lat="43.15378" lon="-2.07033">
        <ele>243.2</ele>
        <time>2021-05-29 09:40:40</time>
      </trkpt>
      <trkpt lat="43.15386" lon="-2.07028">
        <ele>242.8</ele>
        <time>2021-05-29 09:40:41</time>
      </trkpt>
      <trkpt lat="43.15394" lon="-2.07023">
        <ele>242.4</ele>
        <time>2021-05-29 09:40:42</time>
      </trkpt>
      <trkpt lat="43.15402" lon="-2.07018">
        <ele>242.2</ele>
        <time>2021-05-29 09:40:43</time>
      </trkpt>
      <trkpt lat="43.1541" lon="-2.07012">
        <ele>241.8</ele>
        <time>2021-05-29 09:40:44</time>
      </trkpt>
      <trkpt lat="43.15418" lon="-2.07007">
        <ele>241.6</ele>
        <time>2021-05-29 09:40:45</time>
      </trkpt>
      <trkpt lat="43.15425" lon="-2.07002">
        <ele>241.2</ele>
        <time>2021-05-29 09:40:46</time>
      </trkpt>
      <trkpt lat="43.15433" lon="-2.06996">
        <ele>240.6</ele>
        <time>2021-05-29 09:40:47</time>
      </trkpt>
      <trkpt lat="43.15441" lon="-2.06991">
        <ele>240.4</ele>
        <time>2021-05-29 09:40:48</time>
      </trkpt>
      <trkpt lat="43.15449" lon="-2.06986">
        <ele>240</ele>
        <time>2021-05-29 09:40:49</time>
      </trkpt>
      <trkpt lat="43.15457" lon="-2.0698">
        <ele>239.6</ele>
        <time>2021-05-29 09:40:50</time>
      </trkpt>
      <trkpt lat="43.15465" lon="-2.06975">
        <ele>239.4</ele>
        <time>2021-05-29 09:40:51</time>
      </trkpt>
      <trkpt lat="43.15473" lon="-2.0697">
        <ele>239</ele>
        <time>2021-05-29 09:40:52</time>
      </trkpt>
      <trkpt lat="43.1548" lon="-2.06964">
        <ele>238.8</ele>
        <time>2021-05-29 09:40:53</time>
      </trkpt>
      <trkpt lat="43.15488" lon="-2.06959">
        <ele>238.4</ele>
        <time>2021-05-29 09:40:54</time>
      </trkpt>
      <trkpt lat="43.15496" lon="-2.06953">
        <ele>237.8</ele>
        <time>2021-05-29 09:40:55</time>
      </trkpt>
      <trkpt lat="43.15504" lon="-2.06948">
        <ele>237.6</ele>
        <time>2021-05-29 09:40:56</time>
      </trkpt>
      <trkpt lat="43.15512" lon="-2.06943">
        <ele>237.4</ele>
        <time>2021-05-29 09:40:57</time>
      </trkpt>
      <trkpt lat="43.15519" lon="-2.06937">
        <ele>237</ele>
        <time>2021-05-29 09:40:58</time>
      </trkpt>
      <trkpt lat="43.15527" lon="-2.06932">
        <ele>236.8</ele>
        <time>2021-05-29 09:40:59</time>
      </trkpt>
      <trkpt lat="43.15535" lon="-2.06927">
        <ele>236.4</ele>
        <time>2021-05-29 09:41:00</time>
      </trkpt>
      <trkpt lat="43.15543" lon="-2.06921">
        <ele>236</ele>
        <time>2021-05-29 09:41:01</time>
      </trkpt>
      <trkpt lat="43.1555" lon="-2.06916">
        <ele>235.6</ele>
        <time>2021-05-29 09:41:02</time>
      </trkpt>
      <trkpt lat="43.15558" lon="-2.0691">
        <ele>235.2</ele>
        <time>2021-05-29 09:41:03</time>
      </trkpt>
      <trkpt lat="43.15566" lon="-2.06905">
        <ele>235</ele>
        <time>2021-05-29 09:41:04</time>
      </trkpt>
      <trkpt lat="43.15574" lon="-2.06899">
        <ele>234.8</ele>
        <time>2021-05-29 09:41:05</time>
      </trkpt>
      <trkpt lat="43.15581" lon="-2.06894">
        <ele>234.4</ele>
        <time>2021-05-29 09:41:06</time>
      </trkpt>
      <trkpt lat="43.15589" lon="-2.06888">
        <ele>233.8</ele>
        <time>2021-05-29 09:41:07</time>
      </trkpt>
      <trkpt lat="43.15597" lon="-2.06883">
        <ele>233.4</ele>
        <time>2021-05-29 09:41:08</time>
      </trkpt>
      <trkpt lat="43.15605" lon="-2.06878">
        <ele>233.2</ele>
        <time>2021-05-29 09:41:09</time>
      </trkpt>
      <trkpt lat="43.15613" lon="-2.06872">
        <ele>232.8</ele>
        <time>2021-05-29 09:41:10</time>
      </trkpt>
      <trkpt lat="43.15621" lon="-2.06867">
        <ele>232.6</ele>
        <time>2021-05-29 09:41:11</time>
      </trkpt>
      <trkpt lat="43.15629" lon="-2.06862">
        <ele>232.4</ele>
        <time>2021-05-29 09:41:12</time>
      </trkpt>
      <trkpt lat="43.15637" lon="-2.06857">
        <ele>232</ele>
        <time>2021-05-29 09:41:13</time>
      </trkpt>
      <trkpt lat="43.15646" lon="-2.06852">
        <ele>231.8</ele>
        <time>2021-05-29 09:41:14</time>
      </trkpt>
      <trkpt lat="43.15654" lon="-2.06848">
        <ele>231.4</ele>
        <time>2021-05-29 09:41:15</time>
      </trkpt>
      <trkpt lat="43.15662" lon="-2.06844">
        <ele>231</ele>
        <time>2021-05-29 09:41:16</time>
      </trkpt>
      <trkpt lat="43.15671" lon="-2.0684">
        <ele>230.6</ele>
        <time>2021-05-29 09:41:17</time>
      </trkpt>
      <trkpt lat="43.15679" lon="-2.06837">
        <ele>230.4</ele>
        <time>2021-05-29 09:41:18</time>
      </trkpt>
      <trkpt lat="43.15688" lon="-2.06834">
        <ele>230</ele>
        <time>2021-05-29 09:41:19</time>
      </trkpt>
      <trkpt lat="43.15696" lon="-2.06831">
        <ele>229.8</ele>
        <time>2021-05-29 09:41:20</time>
      </trkpt>
      <trkpt lat="43.15705" lon="-2.06828">
        <ele>229.2</ele>
        <time>2021-05-29 09:41:21</time>
      </trkpt>
      <trkpt lat="43.15714" lon="-2.06826">
        <ele>229</ele>
        <time>2021-05-29 09:41:22</time>
      </trkpt>
      <trkpt lat="43.15722" lon="-2.06824">
        <ele>228.6</ele>
        <time>2021-05-29 09:41:23</time>
      </trkpt>
      <trkpt lat="43.15731" lon="-2.06822">
        <ele>228</ele>
        <time>2021-05-29 09:41:24</time>
      </trkpt>
      <trkpt lat="43.1574" lon="-2.06821">
        <ele>227.8</ele>
        <time>2021-05-29 09:41:25</time>
      </trkpt>
      <trkpt lat="43.15749" lon="-2.06819">
        <ele>227.6</ele>
        <time>2021-05-29 09:41:26</time>
      </trkpt>
      <trkpt lat="43.15757" lon="-2.06818">
        <ele>227.2</ele>
        <time>2021-05-29 09:41:27</time>
      </trkpt>
      <trkpt lat="43.15766" lon="-2.06817">
        <ele>227</ele>
        <time>2021-05-29 09:41:28</time>
      </trkpt>
      <trkpt lat="43.15774" lon="-2.06816">
        <ele>226.4</ele>
        <time>2021-05-29 09:41:29</time>
      </trkpt>
      <trkpt lat="43.15783" lon="-2.06815">
        <ele>226.2</ele>
        <time>2021-05-29 09:41:30</time>
      </trkpt>
      <trkpt lat="43.15792" lon="-2.06814">
        <ele>226</ele>
        <time>2021-05-29 09:41:31</time>
      </trkpt>
      <trkpt lat="43.158" lon="-2.06813">
        <ele>225.8</ele>
        <time>2021-05-29 09:41:32</time>
      </trkpt>
      <trkpt lat="43.15809" lon="-2.06813">
        <ele>225.6</ele>
        <time>2021-05-29 09:41:33</time>
      </trkpt>
      <trkpt lat="43.15817" lon="-2.06814">
        <ele>225.2</ele>
        <time>2021-05-29 09:41:34</time>
      </trkpt>
      <trkpt lat="43.15826" lon="-2.06814">
        <ele>224.8</ele>
        <time>2021-05-29 09:41:35</time>
      </trkpt>
      <trkpt lat="43.15835" lon="-2.06815">
        <ele>224.4</ele>
        <time>2021-05-29 09:41:36</time>
      </trkpt>
      <trkpt lat="43.15843" lon="-2.06816">
        <ele>224.2</ele>
        <time>2021-05-29 09:41:37</time>
      </trkpt>
      <trkpt lat="43.15852" lon="-2.06816">
        <ele>224</ele>
        <time>2021-05-29 09:41:38</time>
      </trkpt>
      <trkpt lat="43.15861" lon="-2.06817">
        <ele>223.6</ele>
        <time>2021-05-29 09:41:39</time>
      </trkpt>
      <trkpt lat="43.15869" lon="-2.06818">
        <ele>223.4</ele>
        <time>2021-05-29 09:41:40</time>
      </trkpt>
      <trkpt lat="43.15878" lon="-2.06819">
        <ele>222.8</ele>
        <time>2021-05-29 09:41:41</time>
      </trkpt>
      <trkpt lat="43.15887" lon="-2.0682">
        <ele>222.4</ele>
        <time>2021-05-29 09:41:42</time>
      </trkpt>
      <trkpt lat="43.15895" lon="-2.06821">
        <ele>222.2</ele>
        <time>2021-05-29 09:41:43</time>
      </trkpt>
      <trkpt lat="43.15903" lon="-2.06823">
        <ele>222</ele>
        <time>2021-05-29 09:41:44</time>
      </trkpt>
      <trkpt lat="43.15912" lon="-2.06825">
        <ele>221.6</ele>
        <time>2021-05-29 09:41:45</time>
      </trkpt>
      <trkpt lat="43.1592" lon="-2.06827">
        <ele>221.2</ele>
        <time>2021-05-29 09:41:46</time>
      </trkpt>
      <trkpt lat="43.15928" lon="-2.0683">
        <ele>221</ele>
        <time>2021-05-29 09:41:47</time>
      </trkpt>
      <trkpt lat="43.15936" lon="-2.06833">
        <ele>220.6</ele>
        <time>2021-05-29 09:41:48</time>
      </trkpt>
      <trkpt lat="43.15944" lon="-2.06836">
        <ele>220</ele>
        <time>2021-05-29 09:41:49</time>
      </trkpt>
      <trkpt lat="43.15952" lon="-2.06839">
        <ele>219.8</ele>
        <time>2021-05-29 09:41:50</time>
      </trkpt>
      <trkpt lat="43.15959" lon="-2.06841">
        <ele>219.4</ele>
        <time>2021-05-29 09:41:51</time>
      </trkpt>
      <trkpt lat="43.15967" lon="-2.06844">
        <ele>219.2</ele>
        <time>2021-05-29 09:41:52</time>
      </trkpt>
      <trkpt lat="43.15974" lon="-2.06847">
        <ele>219</ele>
        <time>2021-05-29 09:41:53</time>
      </trkpt>
      <trkpt lat="43.15982" lon="-2.0685">
        <ele>218.4</ele>
        <time>2021-05-29 09:41:54</time>
      </trkpt>
      <trkpt lat="43.15989" lon="-2.06852">
        <ele>218</ele>
        <time>2021-05-29 09:41:55</time>
      </trkpt>
      <trkpt lat="43.15997" lon="-2.06855">
        <ele>217.6</ele>
        <time>2021-05-29 09:41:56</time>
      </trkpt>
      <trkpt lat="43.16004" lon="-2.06857">
        <ele>217.6</ele>
        <time>2021-05-29 09:41:57</time>
      </trkpt>
      <trkpt lat="43.16012" lon="-2.06859">
        <ele>217.2</ele>
        <time>2021-05-29 09:41:58</time>
      </trkpt>
      <trkpt lat="43.1602" lon="-2.06861">
        <ele>216.6</ele>
        <time>2021-05-29 09:41:59</time>
      </trkpt>
      <trkpt lat="43.16028" lon="-2.06863">
        <ele>215.8</ele>
        <time>2021-05-29 09:42:00</time>
      </trkpt>
      <trkpt lat="43.16037" lon="-2.06865">
        <ele>215.6</ele>
        <time>2021-05-29 09:42:01</time>
      </trkpt>
      <trkpt lat="43.16045" lon="-2.06867">
        <ele>215.4</ele>
        <time>2021-05-29 09:42:02</time>
      </trkpt>
      <trkpt lat="43.16054" lon="-2.0687">
        <ele>215</ele>
        <time>2021-05-29 09:42:03</time>
      </trkpt>
      <trkpt lat="43.16063" lon="-2.06873">
        <ele>214.6</ele>
        <time>2021-05-29 09:42:04</time>
      </trkpt>
      <trkpt lat="43.16072" lon="-2.06877">
        <ele>214.4</ele>
        <time>2021-05-29 09:42:05</time>
      </trkpt>
      <trkpt lat="43.1608" lon="-2.06883">
        <ele>214</ele>
        <time>2021-05-29 09:42:06</time>
      </trkpt>
      <trkpt lat="43.16088" lon="-2.0689">
        <ele>213.8</ele>
        <time>2021-05-29 09:42:07</time>
      </trkpt>
      <trkpt lat="43.16096" lon="-2.06897">
        <ele>213.4</ele>
        <time>2021-05-29 09:42:08</time>
      </trkpt>
      <trkpt lat="43.16103" lon="-2.06905">
        <ele>213</ele>
        <time>2021-05-29 09:42:09</time>
      </trkpt>
      <trkpt lat="43.16111" lon="-2.06911">
        <ele>212.6</ele>
        <time>2021-05-29 09:42:10</time>
      </trkpt>
      <trkpt lat="43.16118" lon="-2.06916">
        <ele>212.2</ele>
        <time>2021-05-29 09:42:11</time>
      </trkpt>
      <trkpt lat="43.16126" lon="-2.06921">
        <ele>211.8</ele>
        <time>2021-05-29 09:42:12</time>
      </trkpt>
      <trkpt lat="43.16134" lon="-2.06923">
        <ele>211.4</ele>
        <time>2021-05-29 09:42:13</time>
      </trkpt>
      <trkpt lat="43.16142" lon="-2.06925">
        <ele>211</ele>
        <time>2021-05-29 09:42:14</time>
      </trkpt>
      <trkpt lat="43.16149" lon="-2.06926">
        <ele>210.8</ele>
        <time>2021-05-29 09:42:15</time>
      </trkpt>
      <trkpt lat="43.16156" lon="-2.06927">
        <ele>210.6</ele>
        <time>2021-05-29 09:42:16</time>
      </trkpt>
      <trkpt lat="43.16163" lon="-2.06926">
        <ele>210.4</ele>
        <time>2021-05-29 09:42:17</time>
      </trkpt>
      <trkpt lat="43.1617" lon="-2.06926">
        <ele>209.6</ele>
        <time>2021-05-29 09:42:18</time>
      </trkpt>
      <trkpt lat="43.16177" lon="-2.06925">
        <ele>209.4</ele>
        <time>2021-05-29 09:42:19</time>
      </trkpt>
      <trkpt lat="43.16184" lon="-2.06925">
        <ele>209.2</ele>
        <time>2021-05-29 09:42:20</time>
      </trkpt>
      <trkpt lat="43.16191" lon="-2.06924">
        <ele>209</ele>
        <time>2021-05-29 09:42:21</time>
      </trkpt>
      <trkpt lat="43.16198" lon="-2.06924">
        <ele>208.8</ele>
        <time>2021-05-29 09:42:22</time>
      </trkpt>
      <trkpt lat="43.16205" lon="-2.06924">
        <ele>208.4</ele>
        <time>2021-05-29 09:42:23</time>
      </trkpt>
      <trkpt lat="43.16213" lon="-2.06924">
        <ele>208</ele>
        <time>2021-05-29 09:42:24</time>
      </trkpt>
      <trkpt lat="43.1622" lon="-2.06924">
        <ele>207.6</ele>
        <time>2021-05-29 09:42:25</time>
      </trkpt>
      <trkpt lat="43.16228" lon="-2.06925">
        <ele>207.4</ele>
        <time>2021-05-29 09:42:26</time>
      </trkpt>
      <trkpt lat="43.16237" lon="-2.06926">
        <ele>207.2</ele>
        <time>2021-05-29 09:42:27</time>
      </trkpt>
      <trkpt lat="43.16245" lon="-2.06928">
        <ele>207</ele>
        <time>2021-05-29 09:42:28</time>
      </trkpt>
      <trkpt lat="43.16254" lon="-2.06931">
        <ele>206.6</ele>
        <time>2021-05-29 09:42:29</time>
      </trkpt>
      <trkpt lat="43.16263" lon="-2.06935">
        <ele>206.4</ele>
        <time>2021-05-29 09:42:30</time>
      </trkpt>
      <trkpt lat="43.16272" lon="-2.0694">
        <ele>206</ele>
        <time>2021-05-29 09:42:31</time>
      </trkpt>
      <trkpt lat="43.16281" lon="-2.06946">
        <ele>205.8</ele>
        <time>2021-05-29 09:42:32</time>
      </trkpt>
      <trkpt lat="43.1629" lon="-2.06951">
        <ele>205.2</ele>
        <time>2021-05-29 09:42:33</time>
      </trkpt>
      <trkpt lat="43.16299" lon="-2.06956">
        <ele>204.6</ele>
        <time>2021-05-29 09:42:34</time>
      </trkpt>
      <trkpt lat="43.16308" lon="-2.06961">
        <ele>204.2</ele>
        <time>2021-05-29 09:42:35</time>
      </trkpt>
      <trkpt lat="43.16317" lon="-2.06966">
        <ele>203.6</ele>
        <time>2021-05-29 09:42:36</time>
      </trkpt>
      <trkpt lat="43.16327" lon="-2.06969">
        <ele>203.4</ele>
        <time>2021-05-29 09:42:37</time>
      </trkpt>
      <trkpt lat="43.16337" lon="-2.06971">
        <ele>202.8</ele>
        <time>2021-05-29 09:42:38</time>
      </trkpt>
      <trkpt lat="43.16347" lon="-2.0697">
        <ele>202.6</ele>
        <time>2021-05-29 09:42:39</time>
      </trkpt>
      <trkpt lat="43.16357" lon="-2.06967">
        <ele>202.2</ele>
        <time>2021-05-29 09:42:40</time>
      </trkpt>
      <trkpt lat="43.16367" lon="-2.06964">
        <ele>202</ele>
        <time>2021-05-29 09:42:41</time>
      </trkpt>
      <trkpt lat="43.16376" lon="-2.0696">
        <ele>201.4</ele>
        <time>2021-05-29 09:42:42</time>
      </trkpt>
      <trkpt lat="43.16386" lon="-2.06956">
        <ele>200.8</ele>
        <time>2021-05-29 09:42:43</time>
      </trkpt>
      <trkpt lat="43.16395" lon="-2.06952">
        <ele>200.6</ele>
        <time>2021-05-29 09:42:44</time>
      </trkpt>
      <trkpt lat="43.16404" lon="-2.06949">
        <ele>200.2</ele>
        <time>2021-05-29 09:42:45</time>
      </trkpt>
      <trkpt lat="43.16413" lon="-2.06945">
        <ele>199.8</ele>
        <time>2021-05-29 09:42:46</time>
      </trkpt>
      <trkpt lat="43.16421" lon="-2.0694">
        <ele>199.4</ele>
        <time>2021-05-29 09:42:47</time>
      </trkpt>
      <trkpt lat="43.16429" lon="-2.06935">
        <ele>198.8</ele>
        <time>2021-05-29 09:42:48</time>
      </trkpt>
      <trkpt lat="43.16438" lon="-2.06932">
        <ele>198.6</ele>
        <time>2021-05-29 09:42:49</time>
      </trkpt>
      <trkpt lat="43.16448" lon="-2.06932">
        <ele>198</ele>
        <time>2021-05-29 09:42:50</time>
      </trkpt>
      <trkpt lat="43.16457" lon="-2.06935">
        <ele>197.6</ele>
        <time>2021-05-29 09:42:51</time>
      </trkpt>
      <trkpt lat="43.16466" lon="-2.06938">
        <ele>197</ele>
        <time>2021-05-29 09:42:52</time>
      </trkpt>
      <trkpt lat="43.16474" lon="-2.0694">
        <ele>196.6</ele>
        <time>2021-05-29 09:42:53</time>
      </trkpt>
      <trkpt lat="43.16482" lon="-2.06941">
        <ele>196.4</ele>
        <time>2021-05-29 09:42:54</time>
      </trkpt>
      <trkpt lat="43.1649" lon="-2.06942">
        <ele>195.8</ele>
        <time>2021-05-29 09:42:55</time>
      </trkpt>
      <trkpt lat="43.16498" lon="-2.06941">
        <ele>195.2</ele>
        <time>2021-05-29 09:42:56</time>
      </trkpt>
      <trkpt lat="43.16506" lon="-2.06939">
        <ele>195</ele>
        <time>2021-05-29 09:42:57</time>
      </trkpt>
      <trkpt lat="43.16514" lon="-2.06938">
        <ele>194.8</ele>
        <time>2021-05-29 09:42:58</time>
      </trkpt>
      <trkpt lat="43.16521" lon="-2.06936">
        <ele>194.6</ele>
        <time>2021-05-29 09:42:59</time>
      </trkpt>
      <trkpt lat="43.16528" lon="-2.06933">
        <ele>194.4</ele>
        <time>2021-05-29 09:43:00</time>
      </trkpt>
      <trkpt lat="43.16537" lon="-2.0693">
        <ele>194</ele>
        <time>2021-05-29 09:43:01</time>
      </trkpt>
      <trkpt lat="43.16544" lon="-2.06927">
        <ele>193.4</ele>
        <time>2021-05-29 09:43:02</time>
      </trkpt>
      <trkpt lat="43.16552" lon="-2.06924">
        <ele>193.2</ele>
        <time>2021-05-29 09:43:03</time>
      </trkpt>
      <trkpt lat="43.1656" lon="-2.0692">
        <ele>192.8</ele>
        <time>2021-05-29 09:43:04</time>
      </trkpt>
      <trkpt lat="43.16568" lon="-2.06916">
        <ele>192.4</ele>
        <time>2021-05-29 09:43:05</time>
      </trkpt>
      <trkpt lat="43.16575" lon="-2.06912">
        <ele>192</ele>
        <time>2021-05-29 09:43:06</time>
      </trkpt>
      <trkpt lat="43.16582" lon="-2.06907">
        <ele>191.8</ele>
        <time>2021-05-29 09:43:07</time>
      </trkpt>
      <trkpt lat="43.16589" lon="-2.06903">
        <ele>191.4</ele>
        <time>2021-05-29 09:43:08</time>
      </trkpt>
      <trkpt lat="43.16596" lon="-2.06899">
        <ele>190.8</ele>
        <time>2021-05-29 09:43:09</time>
      </trkpt>
      <trkpt lat="43.16603" lon="-2.06894">
        <ele>190.6</ele>
        <time>2021-05-29 09:43:10</time>
      </trkpt>
      <trkpt lat="43.16611" lon="-2.0689">
        <ele>190.4</ele>
        <time>2021-05-29 09:43:11</time>
      </trkpt>
      <trkpt lat="43.16618" lon="-2.06886">
        <ele>190.2</ele>
        <time>2021-05-29 09:43:12</time>
      </trkpt>
      <trkpt lat="43.16625" lon="-2.06881">
        <ele>189.8</ele>
        <time>2021-05-29 09:43:13</time>
      </trkpt>
      <trkpt lat="43.16632" lon="-2.06877">
        <ele>189.4</ele>
        <time>2021-05-29 09:43:14</time>
      </trkpt>
      <trkpt lat="43.16639" lon="-2.06872">
        <ele>189</ele>
        <time>2021-05-29 09:43:15</time>
      </trkpt>
      <trkpt lat="43.16646" lon="-2.06867">
        <ele>188.8</ele>
        <time>2021-05-29 09:43:16</time>
      </trkpt>
      <trkpt lat="43.16653" lon="-2.06863">
        <ele>188.8</ele>
        <time>2021-05-29 09:43:17</time>
      </trkpt>
      <trkpt lat="43.1666" lon="-2.06858">
        <ele>188.4</ele>
        <time>2021-05-29 09:43:18</time>
      </trkpt>
      <trkpt lat="43.16667" lon="-2.06854">
        <ele>188.4</ele>
        <time>2021-05-29 09:43:19</time>
      </trkpt>
      <trkpt lat="43.16674" lon="-2.06849">
        <ele>188.2</ele>
        <time>2021-05-29 09:43:20</time>
      </trkpt>
      <trkpt lat="43.16681" lon="-2.06845">
        <ele>188</ele>
        <time>2021-05-29 09:43:21</time>
      </trkpt>
      <trkpt lat="43.16687" lon="-2.0684">
        <ele>187.8</ele>
        <time>2021-05-29 09:43:22</time>
      </trkpt>
      <trkpt lat="43.16693" lon="-2.06835">
        <ele>187.4</ele>
        <time>2021-05-29 09:43:23</time>
      </trkpt>
      <trkpt lat="43.167" lon="-2.06831">
        <ele>187.2</ele>
        <time>2021-05-29 09:43:24</time>
      </trkpt>
      <trkpt lat="43.16706" lon="-2.06826">
        <ele>187</ele>
        <time>2021-05-29 09:43:25</time>
      </trkpt>
      <trkpt lat="43.16712" lon="-2.06821">
        <ele>186.8</ele>
        <time>2021-05-29 09:43:26</time>
      </trkpt>
      <trkpt lat="43.16718" lon="-2.06816">
        <ele>186.6</ele>
        <time>2021-05-29 09:43:27</time>
      </trkpt>
      <trkpt lat="43.16723" lon="-2.06811">
        <ele>186.4</ele>
        <time>2021-05-29 09:43:28</time>
      </trkpt>
      <trkpt lat="43.16729" lon="-2.06806">
        <ele>186.2</ele>
        <time>2021-05-29 09:43:29</time>
      </trkpt>
      <trkpt lat="43.16734" lon="-2.06801">
        <ele>186</ele>
        <time>2021-05-29 09:43:30</time>
      </trkpt>
      <trkpt lat="43.16739" lon="-2.06796">
        <ele>185.6</ele>
        <time>2021-05-29 09:43:31</time>
      </trkpt>
      <trkpt lat="43.16744" lon="-2.0679">
        <ele>185.4</ele>
        <time>2021-05-29 09:43:32</time>
      </trkpt>
      <trkpt lat="43.16749" lon="-2.06785">
        <ele>185.4</ele>
        <time>2021-05-29 09:43:33</time>
      </trkpt>
      <trkpt lat="43.16754" lon="-2.0678">
        <ele>185.2</ele>
        <time>2021-05-29 09:43:34</time>
      </trkpt>
      <trkpt lat="43.16759" lon="-2.06774">
        <ele>184.8</ele>
        <time>2021-05-29 09:43:35</time>
      </trkpt>
      <trkpt lat="43.16763" lon="-2.06769">
        <ele>184.8</ele>
        <time>2021-05-29 09:43:36</time>
      </trkpt>
      <trkpt lat="43.16769" lon="-2.06763">
        <ele>184.4</ele>
        <time>2021-05-29 09:43:37</time>
      </trkpt>
      <trkpt lat="43.16773" lon="-2.06757">
        <ele>184.2</ele>
        <time>2021-05-29 09:43:38</time>
      </trkpt>
      <trkpt lat="43.16778" lon="-2.0675">
        <ele>184</ele>
        <time>2021-05-29 09:43:39</time>
      </trkpt>
      <trkpt lat="43.16783" lon="-2.06744">
        <ele>183.6</ele>
        <time>2021-05-29 09:43:40</time>
      </trkpt>
      <trkpt lat="43.16788" lon="-2.06737">
        <ele>183.6</ele>
        <time>2021-05-29 09:43:41</time>
      </trkpt>
      <trkpt lat="43.16793" lon="-2.0673">
        <ele>183.4</ele>
        <time>2021-05-29 09:43:42</time>
      </trkpt>
      <trkpt lat="43.16798" lon="-2.06723">
        <ele>183</ele>
        <time>2021-05-29 09:43:43</time>
      </trkpt>
      <trkpt lat="43.16804" lon="-2.06717">
        <ele>182.8</ele>
        <time>2021-05-29 09:43:44</time>
      </trkpt>
      <trkpt lat="43.16809" lon="-2.0671">
        <ele>182.4</ele>
        <time>2021-05-29 09:43:45</time>
      </trkpt>
      <trkpt lat="43.16813" lon="-2.06702">
        <ele>182.2</ele>
        <time>2021-05-29 09:43:46</time>
      </trkpt>
      <trkpt lat="43.16816" lon="-2.06693">
        <ele>182</ele>
        <time>2021-05-29 09:43:47</time>
      </trkpt>
      <trkpt lat="43.16817" lon="-2.06683">
        <ele>181.8</ele>
        <time>2021-05-29 09:43:48</time>
      </trkpt>
      <trkpt lat="43.16816" lon="-2.06672">
        <ele>181.4</ele>
        <time>2021-05-29 09:43:49</time>
      </trkpt>
      <trkpt lat="43.16814" lon="-2.06661">
        <ele>181.2</ele>
        <time>2021-05-29 09:43:50</time>
      </trkpt>
      <trkpt lat="43.16812" lon="-2.06648">
        <ele>181</ele>
        <time>2021-05-29 09:43:51</time>
      </trkpt>
      <trkpt lat="43.1681" lon="-2.06636">
        <ele>180.4</ele>
        <time>2021-05-29 09:43:52</time>
      </trkpt>
      <trkpt lat="43.16808" lon="-2.06624">
        <ele>180.2</ele>
        <time>2021-05-29 09:43:53</time>
      </trkpt>
      <trkpt lat="43.16806" lon="-2.06611">
        <ele>180.2</ele>
        <time>2021-05-29 09:43:54</time>
      </trkpt>
      <trkpt lat="43.16804" lon="-2.06598">
        <ele>179.8</ele>
        <time>2021-05-29 09:43:55</time>
      </trkpt>
      <trkpt lat="43.16802" lon="-2.06586">
        <ele>179.4</ele>
        <time>2021-05-29 09:43:56</time>
      </trkpt>
      <trkpt lat="43.168" lon="-2.06574">
        <ele>179.2</ele>
        <time>2021-05-29 09:43:57</time>
      </trkpt>
      <trkpt lat="43.16799" lon="-2.06562">
        <ele>179</ele>
        <time>2021-05-29 09:43:58</time>
      </trkpt>
      <trkpt lat="43.16798" lon="-2.0655">
        <ele>178.4</ele>
        <time>2021-05-29 09:43:59</time>
      </trkpt>
      <trkpt lat="43.16798" lon="-2.06538">
        <ele>178.2</ele>
        <time>2021-05-29 09:44:00</time>
      </trkpt>
      <trkpt lat="43.168" lon="-2.06526">
        <ele>177.8</ele>
        <time>2021-05-29 09:44:01</time>
      </trkpt>
      <trkpt lat="43.16803" lon="-2.06516">
        <ele>177.4</ele>
        <time>2021-05-29 09:44:02</time>
      </trkpt>
      <trkpt lat="43.16809" lon="-2.06507">
        <ele>177.2</ele>
        <time>2021-05-29 09:44:03</time>
      </trkpt>
      <trkpt lat="43.16815" lon="-2.06501">
        <ele>176.8</ele>
        <time>2021-05-29 09:44:04</time>
      </trkpt>
      <trkpt lat="43.16822" lon="-2.06496">
        <ele>176.4</ele>
        <time>2021-05-29 09:44:05</time>
      </trkpt>
      <trkpt lat="43.16828" lon="-2.06492">
        <ele>176.2</ele>
        <time>2021-05-29 09:44:06</time>
      </trkpt>
      <trkpt lat="43.16834" lon="-2.06487">
        <ele>175.8</ele>
        <time>2021-05-29 09:44:07</time>
      </trkpt>
      <trkpt lat="43.16839" lon="-2.06482">
        <ele>175.6</ele>
        <time>2021-05-29 09:44:08</time>
      </trkpt>
      <trkpt lat="43.16844" lon="-2.06477">
        <ele>175.4</ele>
        <time>2021-05-29 09:44:09</time>
      </trkpt>
      <trkpt lat="43.1685" lon="-2.06475">
        <ele>175</ele>
        <time>2021-05-29 09:44:10</time>
      </trkpt>
      <trkpt lat="43.16855" lon="-2.06477">
        <ele>174.8</ele>
        <time>2021-05-29 09:44:11</time>
      </trkpt>
      <trkpt lat="43.1686" lon="-2.06481">
        <ele>174.4</ele>
        <time>2021-05-29 09:44:12</time>
      </trkpt>
      <trkpt lat="43.16864" lon="-2.06487">
        <ele>174.2</ele>
        <time>2021-05-29 09:44:13</time>
      </trkpt>
      <trkpt lat="43.16868" lon="-2.06494">
        <ele>174</ele>
        <time>2021-05-29 09:44:14</time>
      </trkpt>
      <trkpt lat="43.16872" lon="-2.06502">
        <ele>173.4</ele>
        <time>2021-05-29 09:44:15</time>
      </trkpt>
      <trkpt lat="43.16876" lon="-2.0651">
        <ele>173</ele>
        <time>2021-05-29 09:44:16</time>
      </trkpt>
      <trkpt lat="43.16882" lon="-2.06516">
        <ele>172.2</ele>
        <time>2021-05-29 09:44:17</time>
      </trkpt>
      <trkpt lat="43.16888" lon="-2.0652">
        <ele>172</ele>
        <time>2021-05-29 09:44:18</time>
      </trkpt>
      <trkpt lat="43.16895" lon="-2.0652">
        <ele>171.8</ele>
        <time>2021-05-29 09:44:19</time>
      </trkpt>
      <trkpt lat="43.16902" lon="-2.06517">
        <ele>171.6</ele>
        <time>2021-05-29 09:44:20</time>
      </trkpt>
      <trkpt lat="43.16909" lon="-2.06512">
        <ele>171.2</ele>
        <time>2021-05-29 09:44:21</time>
      </trkpt>
      <trkpt lat="43.16916" lon="-2.06506">
        <ele>171</ele>
        <time>2021-05-29 09:44:22</time>
      </trkpt>
      <trkpt lat="43.16922" lon="-2.06499">
        <ele>171</ele>
        <time>2021-05-29 09:44:23</time>
      </trkpt>
      <trkpt lat="43.16929" lon="-2.06492">
        <ele>170.2</ele>
        <time>2021-05-29 09:44:24</time>
      </trkpt>
      <trkpt lat="43.16936" lon="-2.06485">
        <ele>170</ele>
        <time>2021-05-29 09:44:25</time>
      </trkpt>
      <trkpt lat="43.16943" lon="-2.06477">
        <ele>169.8</ele>
        <time>2021-05-29 09:44:26</time>
      </trkpt>
      <trkpt lat="43.16949" lon="-2.06469">
        <ele>168.8</ele>
        <time>2021-05-29 09:44:27</time>
      </trkpt>
      <trkpt lat="43.16956" lon="-2.0646">
        <ele>168.4</ele>
        <time>2021-05-29 09:44:28</time>
      </trkpt>
      <trkpt lat="43.16963" lon="-2.06452">
        <ele>168</ele>
        <time>2021-05-29 09:44:29</time>
      </trkpt>
      <trkpt lat="43.1697" lon="-2.06443">
        <ele>167.8</ele>
        <time>2021-05-29 09:44:30</time>
      </trkpt>
      <trkpt lat="43.16976" lon="-2.06435">
        <ele>167.4</ele>
        <time>2021-05-29 09:44:31</time>
      </trkpt>
      <trkpt lat="43.16983" lon="-2.06427">
        <ele>167</ele>
        <time>2021-05-29 09:44:32</time>
      </trkpt>
      <trkpt lat="43.16989" lon="-2.06418">
        <ele>166.6</ele>
        <time>2021-05-29 09:44:33</time>
      </trkpt>
      <trkpt lat="43.16996" lon="-2.0641">
        <ele>166.2</ele>
        <time>2021-05-29 09:44:34</time>
      </trkpt>
      <trkpt lat="43.17002" lon="-2.06401">
        <ele>165.8</ele>
        <time>2021-05-29 09:44:35</time>
      </trkpt>
      <trkpt lat="43.17009" lon="-2.06392">
        <ele>165.4</ele>
        <time>2021-05-29 09:44:36</time>
      </trkpt>
      <trkpt lat="43.17015" lon="-2.06384">
        <ele>165</ele>
        <time>2021-05-29 09:44:37</time>
      </trkpt>
      <trkpt lat="43.17022" lon="-2.06375">
        <ele>164.6</ele>
        <time>2021-05-29 09:44:38</time>
      </trkpt>
      <trkpt lat="43.17029" lon="-2.06367">
        <ele>164.2</ele>
        <time>2021-05-29 09:44:39</time>
      </trkpt>
      <trkpt lat="43.17035" lon="-2.06358">
        <ele>163.8</ele>
        <time>2021-05-29 09:44:40</time>
      </trkpt>
      <trkpt lat="43.17041" lon="-2.0635">
        <ele>163.2</ele>
        <time>2021-05-29 09:44:41</time>
      </trkpt>
      <trkpt lat="43.17048" lon="-2.06342">
        <ele>162.8</ele>
        <time>2021-05-29 09:44:42</time>
      </trkpt>
      <trkpt lat="43.17054" lon="-2.06333">
        <ele>162.2</ele>
        <time>2021-05-29 09:44:43</time>
      </trkpt>
      <trkpt lat="43.1706" lon="-2.06325">
        <ele>161.8</ele>
        <time>2021-05-29 09:44:44</time>
      </trkpt>
      <trkpt lat="43.17067" lon="-2.06317">
        <ele>161.4</ele>
        <time>2021-05-29 09:44:45</time>
      </trkpt>
      <trkpt lat="43.17073" lon="-2.06308">
        <ele>160.8</ele>
        <time>2021-05-29 09:44:46</time>
      </trkpt>
      <trkpt lat="43.17079" lon="-2.06299">
        <ele>160.6</ele>
        <time>2021-05-29 09:44:47</time>
      </trkpt>
      <trkpt lat="43.17085" lon="-2.06291">
        <ele>160</ele>
        <time>2021-05-29 09:44:48</time>
      </trkpt>
      <trkpt lat="43.17092" lon="-2.06283">
        <ele>159.4</ele>
        <time>2021-05-29 09:44:49</time>
      </trkpt>
      <trkpt lat="43.17098" lon="-2.06275">
        <ele>159</ele>
        <time>2021-05-29 09:44:50</time>
      </trkpt>
      <trkpt lat="43.17105" lon="-2.06266">
        <ele>158.2</ele>
        <time>2021-05-29 09:44:51</time>
      </trkpt>
      <trkpt lat="43.17111" lon="-2.06258">
        <ele>157.6</ele>
        <time>2021-05-29 09:44:52</time>
      </trkpt>
      <trkpt lat="43.17117" lon="-2.06249">
        <ele>157.2</ele>
        <time>2021-05-29 09:44:53</time>
      </trkpt>
      <trkpt lat="43.17123" lon="-2.06241">
        <ele>156.6</ele>
        <time>2021-05-29 09:44:54</time>
      </trkpt>
      <trkpt lat="43.17129" lon="-2.06233">
        <ele>156.4</ele>
        <time>2021-05-29 09:44:55</time>
      </trkpt>
      <trkpt lat="43.17135" lon="-2.06224">
        <ele>156.2</ele>
        <time>2021-05-29 09:44:56</time>
      </trkpt>
      <trkpt lat="43.17141" lon="-2.06216">
        <ele>155.8</ele>
        <time>2021-05-29 09:44:57</time>
      </trkpt>
      <trkpt lat="43.17148" lon="-2.06208">
        <ele>155.6</ele>
        <time>2021-05-29 09:44:58</time>
      </trkpt>
      <trkpt lat="43.17154" lon="-2.062">
        <ele>155</ele>
        <time>2021-05-29 09:44:59</time>
      </trkpt>
      <trkpt lat="43.1716" lon="-2.06192">
        <ele>154.6</ele>
        <time>2021-05-29 09:45:00</time>
      </trkpt>
      <trkpt lat="43.17166" lon="-2.06184">
        <ele>154</ele>
        <time>2021-05-29 09:45:01</time>
      </trkpt>
      <trkpt lat="43.17173" lon="-2.06176">
        <ele>153.6</ele>
        <time>2021-05-29 09:45:02</time>
      </trkpt>
      <trkpt lat="43.17179" lon="-2.06168">
        <ele>153.4</ele>
        <time>2021-05-29 09:45:03</time>
      </trkpt>
      <trkpt lat="43.17185" lon="-2.0616">
        <ele>152.8</ele>
        <time>2021-05-29 09:45:04</time>
      </trkpt>
      <trkpt lat="43.17192" lon="-2.06152">
        <ele>152.4</ele>
        <time>2021-05-29 09:45:05</time>
      </trkpt>
      <trkpt lat="43.17198" lon="-2.06144">
        <ele>152.2</ele>
        <time>2021-05-29 09:45:06</time>
      </trkpt>
      <trkpt lat="43.17205" lon="-2.06137">
        <ele>151.8</ele>
        <time>2021-05-29 09:45:07</time>
      </trkpt>
      <trkpt lat="43.17211" lon="-2.06129">
        <ele>151.4</ele>
        <time>2021-05-29 09:45:08</time>
      </trkpt>
      <trkpt lat="43.17218" lon="-2.06121">
        <ele>151</ele>
        <time>2021-05-29 09:45:09</time>
      </trkpt>
      <trkpt lat="43.17224" lon="-2.06113">
        <ele>150.4</ele>
        <time>2021-05-29 09:45:10</time>
      </trkpt>
      <trkpt lat="43.1723" lon="-2.06105">
        <ele>150.2</ele>
        <time>2021-05-29 09:45:11</time>
      </trkpt>
      <trkpt lat="43.17236" lon="-2.06097">
        <ele>149.8</ele>
        <time>2021-05-29 09:45:12</time>
      </trkpt>
      <trkpt lat="43.17243" lon="-2.06089">
        <ele>149.6</ele>
        <time>2021-05-29 09:45:13</time>
      </trkpt>
      <trkpt lat="43.17249" lon="-2.06082">
        <ele>149.4</ele>
        <time>2021-05-29 09:45:14</time>
      </trkpt>
      <trkpt lat="43.17255" lon="-2.06074">
        <ele>148.8</ele>
        <time>2021-05-29 09:45:15</time>
      </trkpt>
      <trkpt lat="43.17261" lon="-2.06066">
        <ele>148.2</ele>
        <time>2021-05-29 09:45:16</time>
      </trkpt>
      <trkpt lat="43.17268" lon="-2.06058">
        <ele>147.8</ele>
        <time>2021-05-29 09:45:17</time>
      </trkpt>
      <trkpt lat="43.17274" lon="-2.0605">
        <ele>147.2</ele>
        <time>2021-05-29 09:45:18</time>
      </trkpt>
      <trkpt lat="43.1728" lon="-2.06043">
        <ele>146.8</ele>
        <time>2021-05-29 09:45:19</time>
      </trkpt>
      <trkpt lat="43.17287" lon="-2.06035">
        <ele>146.4</ele>
        <time>2021-05-29 09:45:20</time>
      </trkpt>
      <trkpt lat="43.17293" lon="-2.06027">
        <ele>145.8</ele>
        <time>2021-05-29 09:45:21</time>
      </trkpt>
      <trkpt lat="43.173" lon="-2.0602">
        <ele>145.4</ele>
        <time>2021-05-29 09:45:22</time>
      </trkpt>
      <trkpt lat="43.17306" lon="-2.06012">
        <ele>145.2</ele>
        <time>2021-05-29 09:45:23</time>
      </trkpt>
      <trkpt lat="43.17312" lon="-2.06004">
        <ele>144.8</ele>
        <time>2021-05-29 09:45:24</time>
      </trkpt>
      <trkpt lat="43.17318" lon="-2.05996">
        <ele>144.6</ele>
        <time>2021-05-29 09:45:25</time>
      </trkpt>
      <trkpt lat="43.17325" lon="-2.05988">
        <ele>144</ele>
        <time>2021-05-29 09:45:26</time>
      </trkpt>
      <trkpt lat="43.17331" lon="-2.0598">
        <ele>143.4</ele>
        <time>2021-05-29 09:45:27</time>
      </trkpt>
      <trkpt lat="43.17338" lon="-2.05972">
        <ele>142.8</ele>
        <time>2021-05-29 09:45:28</time>
      </trkpt>
      <trkpt lat="43.17345" lon="-2.05964">
        <ele>142.6</ele>
        <time>2021-05-29 09:45:29</time>
      </trkpt>
      <trkpt lat="43.17351" lon="-2.05957">
        <ele>142</ele>
        <time>2021-05-29 09:45:30</time>
      </trkpt>
      <trkpt lat="43.17358" lon="-2.05949">
        <ele>141.8</ele>
        <time>2021-05-29 09:45:31</time>
      </trkpt>
      <trkpt lat="43.17364" lon="-2.05941">
        <ele>141.4</ele>
        <time>2021-05-29 09:45:32</time>
      </trkpt>
      <trkpt lat="43.17371" lon="-2.05933">
        <ele>141</ele>
        <time>2021-05-29 09:45:33</time>
      </trkpt>
      <trkpt lat="43.17377" lon="-2.05925">
        <ele>140.6</ele>
        <time>2021-05-29 09:45:34</time>
      </trkpt>
      <trkpt lat="43.17384" lon="-2.05917">
        <ele>140.4</ele>
        <time>2021-05-29 09:45:35</time>
      </trkpt>
      <trkpt lat="43.1739" lon="-2.05909">
        <ele>140</ele>
        <time>2021-05-29 09:45:36</time>
      </trkpt>
      <trkpt lat="43.17396" lon="-2.059">
        <ele>139.8</ele>
        <time>2021-05-29 09:45:37</time>
      </trkpt>
      <trkpt lat="43.17402" lon="-2.05892">
        <ele>139.4</ele>
        <time>2021-05-29 09:45:38</time>
      </trkpt>
      <trkpt lat="43.17408" lon="-2.05883">
        <ele>139.4</ele>
        <time>2021-05-29 09:45:39</time>
      </trkpt>
      <trkpt lat="43.17414" lon="-2.05875">
        <ele>139.2</ele>
        <time>2021-05-29 09:45:40</time>
      </trkpt>
      <trkpt lat="43.17421" lon="-2.05867">
        <ele>138.8</ele>
        <time>2021-05-29 09:45:41</time>
      </trkpt>
      <trkpt lat="43.17427" lon="-2.05859">
        <ele>138.2</ele>
        <time>2021-05-29 09:45:42</time>
      </trkpt>
      <trkpt lat="43.17433" lon="-2.05851">
        <ele>137.8</ele>
        <time>2021-05-29 09:45:43</time>
      </trkpt>
      <trkpt lat="43.17439" lon="-2.05842">
        <ele>137.2</ele>
        <time>2021-05-29 09:45:44</time>
      </trkpt>
      <trkpt lat="43.17445" lon="-2.05834">
        <ele>137</ele>
        <time>2021-05-29 09:45:45</time>
      </trkpt>
      <trkpt lat="43.17452" lon="-2.05827">
        <ele>136.8</ele>
        <time>2021-05-29 09:45:46</time>
      </trkpt>
      <trkpt lat="43.17458" lon="-2.05819">
        <ele>136.2</ele>
        <time>2021-05-29 09:45:47</time>
      </trkpt>
      <trkpt lat="43.17464" lon="-2.05811">
        <ele>136</ele>
        <time>2021-05-29 09:45:48</time>
      </trkpt>
      <trkpt lat="43.1747" lon="-2.05802">
        <ele>135.8</ele>
        <time>2021-05-29 09:45:49</time>
      </trkpt>
      <trkpt lat="43.17476" lon="-2.05794">
        <ele>135.6</ele>
        <time>2021-05-29 09:45:50</time>
      </trkpt>
      <trkpt lat="43.17482" lon="-2.05787">
        <ele>135.2</ele>
        <time>2021-05-29 09:45:51</time>
      </trkpt>
      <trkpt lat="43.17488" lon="-2.05778">
        <ele>134.8</ele>
        <time>2021-05-29 09:45:52</time>
      </trkpt>
      <trkpt lat="43.17494" lon="-2.0577">
        <ele>134.2</ele>
        <time>2021-05-29 09:45:53</time>
      </trkpt>
      <trkpt lat="43.175" lon="-2.05762">
        <ele>134</ele>
        <time>2021-05-29 09:45:54</time>
      </trkpt>
      <trkpt lat="43.17506" lon="-2.05754">
        <ele>134</ele>
        <time>2021-05-29 09:45:55</time>
      </trkpt>
      <trkpt lat="43.17512" lon="-2.05746">
        <ele>133.8</ele>
        <time>2021-05-29 09:45:56</time>
      </trkpt>
      <trkpt lat="43.17518" lon="-2.05738">
        <ele>133.4</ele>
        <time>2021-05-29 09:45:57</time>
      </trkpt>
      <trkpt lat="43.17525" lon="-2.0573">
        <ele>133.2</ele>
        <time>2021-05-29 09:45:58</time>
      </trkpt>
      <trkpt lat="43.17531" lon="-2.05722">
        <ele>132.8</ele>
        <time>2021-05-29 09:45:59</time>
      </trkpt>
      <trkpt lat="43.17537" lon="-2.05715">
        <ele>132.6</ele>
        <time>2021-05-29 09:46:00</time>
      </trkpt>
      <trkpt lat="43.17543" lon="-2.05707">
        <ele>132.4</ele>
        <time>2021-05-29 09:46:01</time>
      </trkpt>
      <trkpt lat="43.17549" lon="-2.05699">
        <ele>132.2</ele>
        <time>2021-05-29 09:46:02</time>
      </trkpt>
      <trkpt lat="43.17555" lon="-2.05691">
        <ele>132.2</ele>
        <time>2021-05-29 09:46:03</time>
      </trkpt>
      <trkpt lat="43.17561" lon="-2.05684">
        <ele>131.6</ele>
        <time>2021-05-29 09:46:04</time>
      </trkpt>
      <trkpt lat="43.17567" lon="-2.05676">
        <ele>131.4</ele>
        <time>2021-05-29 09:46:05</time>
      </trkpt>
      <trkpt lat="43.17573" lon="-2.05668">
        <ele>130.8</ele>
        <time>2021-05-29 09:46:06</time>
      </trkpt>
      <trkpt lat="43.1758" lon="-2.0566">
        <ele>130.6</ele>
        <time>2021-05-29 09:46:07</time>
      </trkpt>
      <trkpt lat="43.17586" lon="-2.05652">
        <ele>130.4</ele>
        <time>2021-05-29 09:46:08</time>
      </trkpt>
      <trkpt lat="43.17593" lon="-2.05645">
        <ele>129.8</ele>
        <time>2021-05-29 09:46:09</time>
      </trkpt>
      <trkpt lat="43.17599" lon="-2.05637">
        <ele>129.4</ele>
        <time>2021-05-29 09:46:10</time>
      </trkpt>
      <trkpt lat="43.17605" lon="-2.0563">
        <ele>129</ele>
        <time>2021-05-29 09:46:11</time>
      </trkpt>
      <trkpt lat="43.17611" lon="-2.05622">
        <ele>128.8</ele>
        <time>2021-05-29 09:46:12</time>
      </trkpt>
      <trkpt lat="43.17618" lon="-2.05615">
        <ele>128.6</ele>
        <time>2021-05-29 09:46:13</time>
      </trkpt>
      <trkpt lat="43.17624" lon="-2.05607">
        <ele>128.6</ele>
        <time>2021-05-29 09:46:14</time>
      </trkpt>
      <trkpt lat="43.17631" lon="-2.056">
        <ele>128.6</ele>
        <time>2021-05-29 09:46:15</time>
      </trkpt>
      <trkpt lat="43.17637" lon="-2.05592">
        <ele>128.2</ele>
        <time>2021-05-29 09:46:16</time>
      </trkpt>
      <trkpt lat="43.17644" lon="-2.05585">
        <ele>128</ele>
        <time>2021-05-29 09:46:17</time>
      </trkpt>
      <trkpt lat="43.1765" lon="-2.05577">
        <ele>127.6</ele>
        <time>2021-05-29 09:46:18</time>
      </trkpt>
      <trkpt lat="43.17656" lon="-2.05569">
        <ele>127.6</ele>
        <time>2021-05-29 09:46:19</time>
      </trkpt>
      <trkpt lat="43.17663" lon="-2.05561">
        <ele>127.4</ele>
        <time>2021-05-29 09:46:20</time>
      </trkpt>
      <trkpt lat="43.17669" lon="-2.05553">
        <ele>127</ele>
        <time>2021-05-29 09:46:21</time>
      </trkpt>
      <trkpt lat="43.17675" lon="-2.05544">
        <ele>126.8</ele>
        <time>2021-05-29 09:46:22</time>
      </trkpt>
      <trkpt lat="43.1768" lon="-2.05535">
        <ele>126.2</ele>
        <time>2021-05-29 09:46:23</time>
      </trkpt>
      <trkpt lat="43.17685" lon="-2.05526">
        <ele>126</ele>
        <time>2021-05-29 09:46:24</time>
      </trkpt>
      <trkpt lat="43.1769" lon="-2.05517">
        <ele>126</ele>
        <time>2021-05-29 09:46:25</time>
      </trkpt>
      <trkpt lat="43.17696" lon="-2.05509">
        <ele>125.8</ele>
        <time>2021-05-29 09:46:26</time>
      </trkpt>
      <trkpt lat="43.17701" lon="-2.05501">
        <ele>125.6</ele>
        <time>2021-05-29 09:46:27</time>
      </trkpt>
      <trkpt lat="43.17708" lon="-2.05494">
        <ele>125.4</ele>
        <time>2021-05-29 09:46:28</time>
      </trkpt>
      <trkpt lat="43.17715" lon="-2.05488">
        <ele>125.2</ele>
        <time>2021-05-29 09:46:29</time>
      </trkpt>
      <trkpt lat="43.17722" lon="-2.05482">
        <ele>124.8</ele>
        <time>2021-05-29 09:46:30</time>
      </trkpt>
      <trkpt lat="43.1773" lon="-2.05478">
        <ele>124.8</ele>
        <time>2021-05-29 09:46:31</time>
      </trkpt>
      <trkpt lat="43.17737" lon="-2.05474">
        <ele>124.4</ele>
        <time>2021-05-29 09:46:32</time>
      </trkpt>
      <trkpt lat="43.17745" lon="-2.05471">
        <ele>124.2</ele>
        <time>2021-05-29 09:46:33</time>
      </trkpt>
      <trkpt lat="43.17754" lon="-2.0547">
        <ele>124</ele>
        <time>2021-05-29 09:46:34</time>
      </trkpt>
      <trkpt lat="43.17763" lon="-2.0547">
        <ele>123.4</ele>
        <time>2021-05-29 09:46:35</time>
      </trkpt>
      <trkpt lat="43.17772" lon="-2.0547">
        <ele>123.2</ele>
        <time>2021-05-29 09:46:36</time>
      </trkpt>
      <trkpt lat="43.17781" lon="-2.05472">
        <ele>123</ele>
        <time>2021-05-29 09:46:37</time>
      </trkpt>
      <trkpt lat="43.1779" lon="-2.05473">
        <ele>122.6</ele>
        <time>2021-05-29 09:46:38</time>
      </trkpt>
      <trkpt lat="43.178" lon="-2.05474">
        <ele>122.4</ele>
        <time>2021-05-29 09:46:39</time>
      </trkpt>
      <trkpt lat="43.17809" lon="-2.05473">
        <ele>122.2</ele>
        <time>2021-05-29 09:46:40</time>
      </trkpt>
      <trkpt lat="43.17818" lon="-2.05471">
        <ele>121.8</ele>
        <time>2021-05-29 09:46:41</time>
      </trkpt>
      <trkpt lat="43.17826" lon="-2.05468">
        <ele>121.4</ele>
        <time>2021-05-29 09:46:42</time>
      </trkpt>
      <trkpt lat="43.17835" lon="-2.05463">
        <ele>121.2</ele>
        <time>2021-05-29 09:46:43</time>
      </trkpt>
      <trkpt lat="43.17844" lon="-2.05458">
        <ele>121</ele>
        <time>2021-05-29 09:46:44</time>
      </trkpt>
      <trkpt lat="43.17852" lon="-2.05454">
        <ele>120.6</ele>
        <time>2021-05-29 09:46:45</time>
      </trkpt>
      <trkpt lat="43.17861" lon="-2.05449">
        <ele>120.4</ele>
        <time>2021-05-29 09:46:46</time>
      </trkpt>
      <trkpt lat="43.17869" lon="-2.05445">
        <ele>119.8</ele>
        <time>2021-05-29 09:46:47</time>
      </trkpt>
      <trkpt lat="43.17878" lon="-2.0544">
        <ele>119.6</ele>
        <time>2021-05-29 09:46:48</time>
      </trkpt>
      <trkpt lat="43.17886" lon="-2.05434">
        <ele>119.4</ele>
        <time>2021-05-29 09:46:49</time>
      </trkpt>
      <trkpt lat="43.17894" lon="-2.05429">
        <ele>118.8</ele>
        <time>2021-05-29 09:46:50</time>
      </trkpt>
      <trkpt lat="43.17903" lon="-2.05423">
        <ele>118.6</ele>
        <time>2021-05-29 09:46:51</time>
      </trkpt>
      <trkpt lat="43.17911" lon="-2.05417">
        <ele>118.2</ele>
        <time>2021-05-29 09:46:52</time>
      </trkpt>
      <trkpt lat="43.17918" lon="-2.0541">
        <ele>118</ele>
        <time>2021-05-29 09:46:53</time>
      </trkpt>
      <trkpt lat="43.17926" lon="-2.05404">
        <ele>117.8</ele>
        <time>2021-05-29 09:46:54</time>
      </trkpt>
      <trkpt lat="43.17934" lon="-2.05397">
        <ele>117.4</ele>
        <time>2021-05-29 09:46:55</time>
      </trkpt>
      <trkpt lat="43.17941" lon="-2.0539">
        <ele>117.2</ele>
        <time>2021-05-29 09:46:56</time>
      </trkpt>
      <trkpt lat="43.17948" lon="-2.05383">
        <ele>116.6</ele>
        <time>2021-05-29 09:46:57</time>
      </trkpt>
      <trkpt lat="43.17956" lon="-2.05376">
        <ele>116.4</ele>
        <time>2021-05-29 09:46:58</time>
      </trkpt>
      <trkpt lat="43.17963" lon="-2.05369">
        <ele>115.8</ele>
        <time>2021-05-29 09:46:59</time>
      </trkpt>
      <trkpt lat="43.17971" lon="-2.05362">
        <ele>115.4</ele>
        <time>2021-05-29 09:47:00</time>
      </trkpt>
      <trkpt lat="43.17978" lon="-2.05355">
        <ele>115.2</ele>
        <time>2021-05-29 09:47:01</time>
      </trkpt>
      <trkpt lat="43.17986" lon="-2.05348">
        <ele>114.8</ele>
        <time>2021-05-29 09:47:02</time>
      </trkpt>
      <trkpt lat="43.17993" lon="-2.05341">
        <ele>114.6</ele>
        <time>2021-05-29 09:47:03</time>
      </trkpt>
      <trkpt lat="43.18001" lon="-2.05334">
        <ele>114</ele>
        <time>2021-05-29 09:47:04</time>
      </trkpt>
      <trkpt lat="43.18008" lon="-2.05327">
        <ele>113.8</ele>
        <time>2021-05-29 09:47:05</time>
      </trkpt>
      <trkpt lat="43.18016" lon="-2.0532">
        <ele>113.4</ele>
        <time>2021-05-29 09:47:06</time>
      </trkpt>
      <trkpt lat="43.18023" lon="-2.05313">
        <ele>113.2</ele>
        <time>2021-05-29 09:47:07</time>
      </trkpt>
      <trkpt lat="43.1803" lon="-2.05306">
        <ele>112.8</ele>
        <time>2021-05-29 09:47:08</time>
      </trkpt>
      <trkpt lat="43.18038" lon="-2.053">
        <ele>112.4</ele>
        <time>2021-05-29 09:47:09</time>
      </trkpt>
      <trkpt lat="43.18045" lon="-2.05293">
        <ele>111.6</ele>
        <time>2021-05-29 09:47:10</time>
      </trkpt>
      <trkpt lat="43.18052" lon="-2.05287">
        <ele>111.4</ele>
        <time>2021-05-29 09:47:11</time>
      </trkpt>
      <trkpt lat="43.18059" lon="-2.05281">
        <ele>110.8</ele>
        <time>2021-05-29 09:47:12</time>
      </trkpt>
      <trkpt lat="43.18066" lon="-2.05275">
        <ele>110.2</ele>
        <time>2021-05-29 09:47:13</time>
      </trkpt>
      <trkpt lat="43.18073" lon="-2.05269">
        <ele>110</ele>
        <time>2021-05-29 09:47:14</time>
      </trkpt>
      <trkpt lat="43.1808" lon="-2.05264">
        <ele>109.4</ele>
        <time>2021-05-29 09:47:15</time>
      </trkpt>
      <trkpt lat="43.18086" lon="-2.05258">
        <ele>109</ele>
        <time>2021-05-29 09:47:16</time>
      </trkpt>
      <trkpt lat="43.18092" lon="-2.05253">
        <ele>108.6</ele>
        <time>2021-05-29 09:47:17</time>
      </trkpt>
      <trkpt lat="43.18099" lon="-2.05248">
        <ele>108.4</ele>
        <time>2021-05-29 09:47:18</time>
      </trkpt>
      <trkpt lat="43.18105" lon="-2.05243">
        <ele>108.2</ele>
        <time>2021-05-29 09:47:19</time>
      </trkpt>
      <trkpt lat="43.18111" lon="-2.05238">
        <ele>107.6</ele>
        <time>2021-05-29 09:47:20</time>
      </trkpt>
      <trkpt lat="43.18117" lon="-2.05234">
        <ele>107.4</ele>
        <time>2021-05-29 09:47:21</time>
      </trkpt>
      <trkpt lat="43.18123" lon="-2.05229">
        <ele>106.8</ele>
        <time>2021-05-29 09:47:22</time>
      </trkpt>
      <trkpt lat="43.18128" lon="-2.05225">
        <ele>106.6</ele>
        <time>2021-05-29 09:47:23</time>
      </trkpt>
      <trkpt lat="43.18133" lon="-2.05221">
        <ele>106.4</ele>
        <time>2021-05-29 09:47:24</time>
      </trkpt>
      <trkpt lat="43.18138" lon="-2.05217">
        <ele>106</ele>
        <time>2021-05-29 09:47:25</time>
      </trkpt>
      <trkpt lat="43.18144" lon="-2.05213">
        <ele>105.8</ele>
        <time>2021-05-29 09:47:26</time>
      </trkpt>
      <trkpt lat="43.18149" lon="-2.0521">
        <ele>105.4</ele>
        <time>2021-05-29 09:47:27</time>
      </trkpt>
      <trkpt lat="43.18154" lon="-2.05206">
        <ele>105.2</ele>
        <time>2021-05-29 09:47:28</time>
      </trkpt>
      <trkpt lat="43.18159" lon="-2.05202">
        <ele>104.8</ele>
        <time>2021-05-29 09:47:29</time>
      </trkpt>
      <trkpt lat="43.18165" lon="-2.05199">
        <ele>104.6</ele>
        <time>2021-05-29 09:47:30</time>
      </trkpt>
      <trkpt lat="43.1817" lon="-2.05195">
        <ele>104.4</ele>
        <time>2021-05-29 09:47:31</time>
      </trkpt>
      <trkpt lat="43.18175" lon="-2.05192">
        <ele>104</ele>
        <time>2021-05-29 09:47:32</time>
      </trkpt>
      <trkpt lat="43.18181" lon="-2.05188">
        <ele>103.6</ele>
        <time>2021-05-29 09:47:33</time>
      </trkpt>
      <trkpt lat="43.18186" lon="-2.05184">
        <ele>103.4</ele>
        <time>2021-05-29 09:47:34</time>
      </trkpt>
      <trkpt lat="43.18192" lon="-2.05181">
        <ele>103</ele>
        <time>2021-05-29 09:47:35</time>
      </trkpt>
      <trkpt lat="43.18197" lon="-2.05178">
        <ele>102.6</ele>
        <time>2021-05-29 09:47:36</time>
      </trkpt>
      <trkpt lat="43.18203" lon="-2.05174">
        <ele>102</ele>
        <time>2021-05-29 09:47:37</time>
      </trkpt>
      <trkpt lat="43.18209" lon="-2.05171">
        <ele>101.8</ele>
        <time>2021-05-29 09:47:38</time>
      </trkpt>
      <trkpt lat="43.18215" lon="-2.05167">
        <ele>101.6</ele>
        <time>2021-05-29 09:47:39</time>
      </trkpt>
      <trkpt lat="43.18221" lon="-2.05164">
        <ele>101.2</ele>
        <time>2021-05-29 09:47:40</time>
      </trkpt>
      <trkpt lat="43.18227" lon="-2.05161">
        <ele>101</ele>
        <time>2021-05-29 09:47:41</time>
      </trkpt>
      <trkpt lat="43.18234" lon="-2.05157">
        <ele>100.8</ele>
        <time>2021-05-29 09:47:42</time>
      </trkpt>
      <trkpt lat="43.1824" lon="-2.05154">
        <ele>100.6</ele>
        <time>2021-05-29 09:47:43</time>
      </trkpt>
      <trkpt lat="43.18247" lon="-2.05151">
        <ele>100</ele>
        <time>2021-05-29 09:47:44</time>
      </trkpt>
      <trkpt lat="43.18254" lon="-2.05149">
        <ele>99.8</ele>
        <time>2021-05-29 09:47:45</time>
      </trkpt>
      <trkpt lat="43.18261" lon="-2.05146">
        <ele>99.4</ele>
        <time>2021-05-29 09:47:46</time>
      </trkpt>
      <trkpt lat="43.18269" lon="-2.05143">
        <ele>99.2</ele>
        <time>2021-05-29 09:47:47</time>
      </trkpt>
      <trkpt lat="43.18276" lon="-2.05141">
        <ele>98.8</ele>
        <time>2021-05-29 09:47:48</time>
      </trkpt>
      <trkpt lat="43.18284" lon="-2.05139">
        <ele>98.6</ele>
        <time>2021-05-29 09:47:49</time>
      </trkpt>
      <trkpt lat="43.18292" lon="-2.05137">
        <ele>98.2</ele>
        <time>2021-05-29 09:47:50</time>
      </trkpt>
      <trkpt lat="43.183" lon="-2.05135">
        <ele>98</ele>
        <time>2021-05-29 09:47:51</time>
      </trkpt>
      <trkpt lat="43.18309" lon="-2.05133">
        <ele>97.8</ele>
        <time>2021-05-29 09:47:52</time>
      </trkpt>
      <trkpt lat="43.18317" lon="-2.05131">
        <ele>97.6</ele>
        <time>2021-05-29 09:47:53</time>
      </trkpt>
      <trkpt lat="43.18326" lon="-2.05129">
        <ele>97.2</ele>
        <time>2021-05-29 09:47:54</time>
      </trkpt>
      <trkpt lat="43.18336" lon="-2.05127">
        <ele>97</ele>
        <time>2021-05-29 09:47:55</time>
      </trkpt>
      <trkpt lat="43.18346" lon="-2.05124">
        <ele>96.6</ele>
        <time>2021-05-29 09:47:56</time>
      </trkpt>
      <trkpt lat="43.18355" lon="-2.05121">
        <ele>96.2</ele>
        <time>2021-05-29 09:47:57</time>
      </trkpt>
      <trkpt lat="43.18365" lon="-2.05116">
        <ele>96</ele>
        <time>2021-05-29 09:47:58</time>
      </trkpt>
      <trkpt lat="43.18374" lon="-2.0511">
        <ele>95.4</ele>
        <time>2021-05-29 09:47:59</time>
      </trkpt>
      <trkpt lat="43.18382" lon="-2.05102">
        <ele>95</ele>
        <time>2021-05-29 09:48:00</time>
      </trkpt>
      <trkpt lat="43.18391" lon="-2.05094">
        <ele>94.6</ele>
        <time>2021-05-29 09:48:01</time>
      </trkpt>
      <trkpt lat="43.18399" lon="-2.05088">
        <ele>94.2</ele>
        <time>2021-05-29 09:48:02</time>
      </trkpt>
      <trkpt lat="43.18408" lon="-2.05086">
        <ele>93.6</ele>
        <time>2021-05-29 09:48:03</time>
      </trkpt>
      <trkpt lat="43.18418" lon="-2.05086">
        <ele>93.2</ele>
        <time>2021-05-29 09:48:04</time>
      </trkpt>
      <trkpt lat="43.18427" lon="-2.05087">
        <ele>93</ele>
        <time>2021-05-29 09:48:05</time>
      </trkpt>
      <trkpt lat="43.18436" lon="-2.0509">
        <ele>92.8</ele>
        <time>2021-05-29 09:48:06</time>
      </trkpt>
      <trkpt lat="43.18444" lon="-2.05093">
        <ele>92.6</ele>
        <time>2021-05-29 09:48:07</time>
      </trkpt>
      <trkpt lat="43.18452" lon="-2.05096">
        <ele>92.2</ele>
        <time>2021-05-29 09:48:08</time>
      </trkpt>
      <trkpt lat="43.1846" lon="-2.05098">
        <ele>91.8</ele>
        <time>2021-05-29 09:48:09</time>
      </trkpt>
      <trkpt lat="43.18468" lon="-2.05099">
        <ele>91.6</ele>
        <time>2021-05-29 09:48:10</time>
      </trkpt>
      <trkpt lat="43.18476" lon="-2.051">
        <ele>90.8</ele>
        <time>2021-05-29 09:48:11</time>
      </trkpt>
      <trkpt lat="43.18485" lon="-2.05101">
        <ele>90.6</ele>
        <time>2021-05-29 09:48:12</time>
      </trkpt>
      <trkpt lat="43.18493" lon="-2.05102">
        <ele>90.4</ele>
        <time>2021-05-29 09:48:13</time>
      </trkpt>
      <trkpt lat="43.18502" lon="-2.05102">
        <ele>90.2</ele>
        <time>2021-05-29 09:48:14</time>
      </trkpt>
      <trkpt lat="43.18511" lon="-2.05104">
        <ele>90.2</ele>
        <time>2021-05-29 09:48:15</time>
      </trkpt>
      <trkpt lat="43.18519" lon="-2.05106">
        <ele>89.6</ele>
        <time>2021-05-29 09:48:16</time>
      </trkpt>
      <trkpt lat="43.18527" lon="-2.0511">
        <ele>89.4</ele>
        <time>2021-05-29 09:48:17</time>
      </trkpt>
      <trkpt lat="43.18534" lon="-2.05117">
        <ele>89.2</ele>
        <time>2021-05-29 09:48:18</time>
      </trkpt>
      <trkpt lat="43.18541" lon="-2.05125">
        <ele>88.6</ele>
        <time>2021-05-29 09:48:19</time>
      </trkpt>
      <trkpt lat="43.18547" lon="-2.05134">
        <ele>88.6</ele>
        <time>2021-05-29 09:48:20</time>
      </trkpt>
      <trkpt lat="43.18553" lon="-2.05144">
        <ele>88.2</ele>
        <time>2021-05-29 09:48:21</time>
      </trkpt>
      <trkpt lat="43.18558" lon="-2.05153">
        <ele>87.8</ele>
        <time>2021-05-29 09:48:22</time>
      </trkpt>
      <trkpt lat="43.18562" lon="-2.05164">
        <ele>87.6</ele>
        <time>2021-05-29 09:48:23</time>
      </trkpt>
      <trkpt lat="43.18566" lon="-2.05175">
        <ele>87.2</ele>
        <time>2021-05-29 09:48:24</time>
      </trkpt>
      <trkpt lat="43.18568" lon="-2.05185">
        <ele>86.6</ele>
        <time>2021-05-29 09:48:25</time>
      </trkpt>
      <trkpt lat="43.1857" lon="-2.05197">
        <ele>86.2</ele>
        <time>2021-05-29 09:48:26</time>
      </trkpt>
      <trkpt lat="43.18573" lon="-2.05209">
        <ele>85.8</ele>
        <time>2021-05-29 09:48:27</time>
      </trkpt>
      <trkpt lat="43.18575" lon="-2.0522">
        <ele>85.2</ele>
        <time>2021-05-29 09:48:28</time>
      </trkpt>
      <trkpt lat="43.18577" lon="-2.05232">
        <ele>84.8</ele>
        <time>2021-05-29 09:48:29</time>
      </trkpt>
      <trkpt lat="43.18578" lon="-2.05242">
        <ele>84.6</ele>
        <time>2021-05-29 09:48:30</time>
      </trkpt>
      <trkpt lat="43.1858" lon="-2.0525">
        <ele>84.2</ele>
        <time>2021-05-29 09:48:31</time>
      </trkpt>
      <trkpt lat="43.18581" lon="-2.05256">
        <ele>84</ele>
        <time>2021-05-29 09:48:32</time>
      </trkpt>
      <trkpt lat="43.18582" lon="-2.05261">
        <ele>83.8</ele>
        <time>2021-05-29 09:48:33</time>
      </trkpt>
      <trkpt lat="43.18583" lon="-2.05265">
        <ele>83.2</ele>
        <time>2021-05-29 09:48:34</time>
      </trkpt>
      <trkpt lat="43.18585" lon="-2.05267">
        <ele>83</ele>
        <time>2021-05-29 09:48:35</time>
      </trkpt>
      <trkpt lat="43.18588" lon="-2.05267">
        <ele>82.4</ele>
        <time>2021-05-29 09:48:36</time>
      </trkpt>
      <trkpt lat="43.1859" lon="-2.05266">
        <ele>82</ele>
        <time>2021-05-29 09:48:37</time>
      </trkpt>
      <trkpt lat="43.18594" lon="-2.05265">
        <ele>81.6</ele>
        <time>2021-05-29 09:48:38</time>
      </trkpt>
      <trkpt lat="43.18597" lon="-2.05264">
        <ele>80.8</ele>
        <time>2021-05-29 09:48:39</time>
      </trkpt>
      <trkpt lat="43.186" lon="-2.05263">
        <ele>80.6</ele>
        <time>2021-05-29 09:48:40</time>
      </trkpt>
      <trkpt lat="43.18603" lon="-2.05262">
        <ele>80.2</ele>
        <time>2021-05-29 09:48:41</time>
      </trkpt>
      <trkpt lat="43.18607" lon="-2.05261">
        <ele>79.8</ele>
        <time>2021-05-29 09:48:42</time>
      </trkpt>
      <trkpt lat="43.1861" lon="-2.0526">
        <ele>79.4</ele>
        <time>2021-05-29 09:48:43</time>
      </trkpt>
      <trkpt lat="43.18614" lon="-2.0526">
        <ele>79.2</ele>
        <time>2021-05-29 09:48:44</time>
      </trkpt>
      <trkpt lat="43.18619" lon="-2.05259">
        <ele>78.6</ele>
        <time>2021-05-29 09:48:45</time>
      </trkpt>
      <trkpt lat="43.18624" lon="-2.05258">
        <ele>78.4</ele>
        <time>2021-05-29 09:48:46</time>
      </trkpt>
      <trkpt lat="43.18628" lon="-2.05258">
        <ele>78.2</ele>
        <time>2021-05-29 09:48:47</time>
      </trkpt>
      <trkpt lat="43.18632" lon="-2.05258">
        <ele>77.6</ele>
        <time>2021-05-29 09:48:48</time>
      </trkpt>
      <trkpt lat="43.18635" lon="-2.05257">
        <ele>77.4</ele>
        <time>2021-05-29 09:48:49</time>
      </trkpt>
      <trkpt lat="43.18638" lon="-2.05257">
        <ele>76.8</ele>
        <time>2021-05-29 09:48:50</time>
      </trkpt>
      <trkpt lat="43.18641" lon="-2.05257">
        <ele>76.4</ele>
        <time>2021-05-29 09:48:51</time>
      </trkpt>
      <trkpt lat="43.18645" lon="-2.05257">
        <ele>76</ele>
        <time>2021-05-29 09:48:52</time>
      </trkpt>
      <trkpt lat="43.18651" lon="-2.05257">
        <ele>75.4</ele>
        <time>2021-05-29 09:48:53</time>
      </trkpt>
      <trkpt lat="43.18656" lon="-2.05256">
        <ele>74.6</ele>
        <time>2021-05-29 09:48:54</time>
      </trkpt>
      <trkpt lat="43.18661" lon="-2.05256">
        <ele>74.2</ele>
        <time>2021-05-29 09:48:55</time>
      </trkpt>
      <trkpt lat="43.18667" lon="-2.05256">
        <ele>73.8</ele>
        <time>2021-05-29 09:48:56</time>
      </trkpt>
      <trkpt lat="43.18672" lon="-2.05255">
        <ele>73.6</ele>
        <time>2021-05-29 09:48:57</time>
      </trkpt>
      <trkpt lat="43.18677" lon="-2.05253">
        <ele>73.4</ele>
        <time>2021-05-29 09:48:58</time>
      </trkpt>
      <trkpt lat="43.18682" lon="-2.05253">
        <ele>72.8</ele>
        <time>2021-05-29 09:48:59</time>
      </trkpt>
      <trkpt lat="43.18688" lon="-2.05251">
        <ele>72.6</ele>
        <time>2021-05-29 09:49:00</time>
      </trkpt>
      <trkpt lat="43.18693" lon="-2.0525">
        <ele>72</ele>
        <time>2021-05-29 09:49:01</time>
      </trkpt>
      <trkpt lat="43.18699" lon="-2.05249">
        <ele>71.8</ele>
        <time>2021-05-29 09:49:02</time>
      </trkpt>
      <trkpt lat="43.18705" lon="-2.05248">
        <ele>71.4</ele>
        <time>2021-05-29 09:49:03</time>
      </trkpt>
      <trkpt lat="43.18711" lon="-2.05246">
        <ele>71</ele>
        <time>2021-05-29 09:49:04</time>
      </trkpt>
      <trkpt lat="43.18717" lon="-2.05246">
        <ele>70.4</ele>
        <time>2021-05-29 09:49:05</time>
      </trkpt>
      <trkpt lat="43.18723" lon="-2.05245">
        <ele>70.2</ele>
        <time>2021-05-29 09:49:06</time>
      </trkpt>
      <trkpt lat="43.18729" lon="-2.05244">
        <ele>69.6</ele>
        <time>2021-05-29 09:49:07</time>
      </trkpt>
      <trkpt lat="43.18734" lon="-2.05244">
        <ele>69.4</ele>
        <time>2021-05-29 09:49:08</time>
      </trkpt>
      <trkpt lat="43.18739" lon="-2.05244">
        <ele>69.2</ele>
        <time>2021-05-29 09:49:09</time>
      </trkpt>
      <trkpt lat="43.18742" lon="-2.05245">
        <ele>68.6</ele>
        <time>2021-05-29 09:49:10</time>
      </trkpt>
      <trkpt lat="43.18745" lon="-2.05245">
        <ele>68.4</ele>
        <time>2021-05-29 09:49:11</time>
      </trkpt>
      <trkpt lat="43.18748" lon="-2.05244">
        <ele>67.8</ele>
        <time>2021-05-29 09:49:12</time>
      </trkpt>
      <trkpt lat="43.1875" lon="-2.05243">
        <ele>67.2</ele>
        <time>2021-05-29 09:49:13</time>
      </trkpt>
      <trkpt lat="43.18753" lon="-2.05241">
        <ele>66.6</ele>
        <time>2021-05-29 09:49:14</time>
      </trkpt>
      <trkpt lat="43.18757" lon="-2.0524">
        <ele>66.2</ele>
        <time>2021-05-29 09:49:15</time>
      </trkpt>
      <trkpt lat="43.18761" lon="-2.05241">
        <ele>66</ele>
        <time>2021-05-29 09:49:16</time>
      </trkpt>
      <trkpt lat="43.18766" lon="-2.05241">
        <ele>65.4</ele>
        <time>2021-05-29 09:49:17</time>
      </trkpt>
      <trkpt lat="43.18771" lon="-2.0524">
        <ele>65.2</ele>
        <time>2021-05-29 09:49:18</time>
      </trkpt>
      <trkpt lat="43.18777" lon="-2.05241">
        <ele>64.8</ele>
        <time>2021-05-29 09:49:19</time>
      </trkpt>
      <trkpt lat="43.18782" lon="-2.05241">
        <ele>64.4</ele>
        <time>2021-05-29 09:49:20</time>
      </trkpt>
      <trkpt lat="43.18787" lon="-2.05242">
        <ele>64</ele>
        <time>2021-05-29 09:49:21</time>
      </trkpt>
      <trkpt lat="43.18793" lon="-2.05243">
        <ele>63.6</ele>
        <time>2021-05-29 09:49:22</time>
      </trkpt>
      <trkpt lat="43.18798" lon="-2.05244">
        <ele>63.2</ele>
        <time>2021-05-29 09:49:23</time>
      </trkpt>
      <trkpt lat="43.18804" lon="-2.05245">
        <ele>63</ele>
        <time>2021-05-29 09:49:24</time>
      </trkpt>
      <trkpt lat="43.18811" lon="-2.05246">
        <ele>62.8</ele>
        <time>2021-05-29 09:49:25</time>
      </trkpt>
      <trkpt lat="43.18818" lon="-2.05247">
        <ele>62.2</ele>
        <time>2021-05-29 09:49:26</time>
      </trkpt>
      <trkpt lat="43.18824" lon="-2.05248">
        <ele>62</ele>
        <time>2021-05-29 09:49:27</time>
      </trkpt>
      <trkpt lat="43.18831" lon="-2.05249">
        <ele>61.2</ele>
        <time>2021-05-29 09:49:28</time>
      </trkpt>
      <trkpt lat="43.18838" lon="-2.05249">
        <ele>60.6</ele>
        <time>2021-05-29 09:49:29</time>
      </trkpt>
      <trkpt lat="43.18845" lon="-2.0525">
        <ele>60.4</ele>
        <time>2021-05-29 09:49:30</time>
      </trkpt>
      <trkpt lat="43.18852" lon="-2.05253">
        <ele>60</ele>
        <time>2021-05-29 09:49:31</time>
      </trkpt>
      <trkpt lat="43.18859" lon="-2.05254">
        <ele>60</ele>
        <time>2021-05-29 09:49:32</time>
      </trkpt>
      <trkpt lat="43.18866" lon="-2.05256">
        <ele>59.6</ele>
        <time>2021-05-29 09:49:33</time>
      </trkpt>
      <trkpt lat="43.18874" lon="-2.05258">
        <ele>59.4</ele>
        <time>2021-05-29 09:49:34</time>
      </trkpt>
      <trkpt lat="43.18881" lon="-2.0526">
        <ele>59</ele>
        <time>2021-05-29 09:49:35</time>
      </trkpt>
      <trkpt lat="43.18888" lon="-2.05261">
        <ele>58.8</ele>
        <time>2021-05-29 09:49:36</time>
      </trkpt>
      <trkpt lat="43.18894" lon="-2.05262">
        <ele>58.6</ele>
        <time>2021-05-29 09:49:37</time>
      </trkpt>
      <trkpt lat="43.189" lon="-2.05262">
        <ele>58.4</ele>
        <time>2021-05-29 09:49:38</time>
      </trkpt>
      <trkpt lat="43.18905" lon="-2.05263">
        <ele>58.2</ele>
        <time>2021-05-29 09:49:39</time>
      </trkpt>
      <trkpt lat="43.1891" lon="-2.05263">
        <ele>58</ele>
        <time>2021-05-29 09:49:40</time>
      </trkpt>
      <trkpt lat="43.18913" lon="-2.05263">
        <ele>57.6</ele>
        <time>2021-05-29 09:49:41</time>
      </trkpt>
      <trkpt lat="43.18916" lon="-2.05264">
        <ele>57.4</ele>
        <time>2021-05-29 09:49:42</time>
      </trkpt>
      <trkpt lat="43.18919" lon="-2.05266">
        <ele>57</ele>
        <time>2021-05-29 09:49:43</time>
      </trkpt>
      <trkpt lat="43.1892" lon="-2.05267">
        <ele>56.8</ele>
        <time>2021-05-29 09:49:44</time>
      </trkpt>
      <trkpt lat="43.18927" lon="-2.0527">
        <ele>52.8</ele>
        <time>2021-05-29 09:50:03</time>
      </trkpt>
      <trkpt lat="43.1893" lon="-2.05271">
        <ele>52.6</ele>
        <time>2021-05-29 09:50:04</time>
      </trkpt>
      <trkpt lat="43.18934" lon="-2.05271">
        <ele>52.2</ele>
        <time>2021-05-29 09:50:05</time>
      </trkpt>
      <trkpt lat="43.18939" lon="-2.05272">
        <ele>52.2</ele>
        <time>2021-05-29 09:50:06</time>
      </trkpt>
      <trkpt lat="43.18944" lon="-2.05273">
        <ele>52</ele>
        <time>2021-05-29 09:50:07</time>
      </trkpt>
      <trkpt lat="43.18949" lon="-2.05273">
        <ele>51.8</ele>
        <time>2021-05-29 09:50:08</time>
      </trkpt>
      <trkpt lat="43.18955" lon="-2.05274">
        <ele>51.4</ele>
        <time>2021-05-29 09:50:09</time>
      </trkpt>
      <trkpt lat="43.18961" lon="-2.05275">
        <ele>51.2</ele>
        <time>2021-05-29 09:50:10</time>
      </trkpt>
      <trkpt lat="43.18967" lon="-2.05276">
        <ele>51.2</ele>
        <time>2021-05-29 09:50:11</time>
      </trkpt>
      <trkpt lat="43.18973" lon="-2.05277">
        <ele>51</ele>
        <time>2021-05-29 09:50:12</time>
      </trkpt>
      <trkpt lat="43.1898" lon="-2.05278">
        <ele>51</ele>
        <time>2021-05-29 09:50:13</time>
      </trkpt>
      <trkpt lat="43.18987" lon="-2.0528">
        <ele>50.8</ele>
        <time>2021-05-29 09:50:14</time>
      </trkpt>
      <trkpt lat="43.18994" lon="-2.05282">
        <ele>50.8</ele>
        <time>2021-05-29 09:50:15</time>
      </trkpt>
      <trkpt lat="43.19003" lon="-2.05284">
        <ele>50.4</ele>
        <time>2021-05-29 09:50:16</time>
      </trkpt>
      <trkpt lat="43.19011" lon="-2.05284">
        <ele>50.2</ele>
        <time>2021-05-29 09:50:17</time>
      </trkpt>
      <trkpt lat="43.1902" lon="-2.05286">
        <ele>50</ele>
        <time>2021-05-29 09:50:18</time>
      </trkpt>
      <trkpt lat="43.19029" lon="-2.05287">
        <ele>49.8</ele>
        <time>2021-05-29 09:50:19</time>
      </trkpt>
      <trkpt lat="43.19039" lon="-2.05289">
        <ele>49.6</ele>
        <time>2021-05-29 09:50:20</time>
      </trkpt>
      <trkpt lat="43.1905" lon="-2.05289">
        <ele>49.4</ele>
        <time>2021-05-29 09:50:21</time>
      </trkpt>
      <trkpt lat="43.19062" lon="-2.0529">
        <ele>49.4</ele>
        <time>2021-05-29 09:50:22</time>
      </trkpt>
      <trkpt lat="43.19072" lon="-2.05292">
        <ele>49.2</ele>
        <time>2021-05-29 09:50:23</time>
      </trkpt>
      <trkpt lat="43.19083" lon="-2.05294">
        <ele>49.2</ele>
        <time>2021-05-29 09:50:24</time>
      </trkpt>
      <trkpt lat="43.19094" lon="-2.05295">
        <ele>49.2</ele>
        <time>2021-05-29 09:50:25</time>
      </trkpt>
      <trkpt lat="43.19105" lon="-2.05296">
        <ele>49</ele>
        <time>2021-05-29 09:50:26</time>
      </trkpt>
      <trkpt lat="43.19114" lon="-2.05297">
        <ele>49</ele>
        <time>2021-05-29 09:50:27</time>
      </trkpt>
      <trkpt lat="43.19123" lon="-2.05298">
        <ele>48.8</ele>
        <time>2021-05-29 09:50:28</time>
      </trkpt>
      <trkpt lat="43.19132" lon="-2.05298">
        <ele>48.6</ele>
        <time>2021-05-29 09:50:29</time>
      </trkpt>
      <trkpt lat="43.1914" lon="-2.05299">
        <ele>48.2</ele>
        <time>2021-05-29 09:50:30</time>
      </trkpt>
      <trkpt lat="43.19149" lon="-2.053">
        <ele>48</ele>
        <time>2021-05-29 09:50:31</time>
      </trkpt>
      <trkpt lat="43.19157" lon="-2.05301">
        <ele>47.8</ele>
        <time>2021-05-29 09:50:32</time>
      </trkpt>
      <trkpt lat="43.19164" lon="-2.05302">
        <ele>47.4</ele>
        <time>2021-05-29 09:50:33</time>
      </trkpt>
      <trkpt lat="43.19172" lon="-2.05302">
        <ele>47.4</ele>
        <time>2021-05-29 09:50:34</time>
      </trkpt>
      <trkpt lat="43.19178" lon="-2.05302">
        <ele>47.4</ele>
        <time>2021-05-29 09:50:35</time>
      </trkpt>
      <trkpt lat="43.19185" lon="-2.05303">
        <ele>47.2</ele>
        <time>2021-05-29 09:50:36</time>
      </trkpt>
      <trkpt lat="43.19192" lon="-2.05304">
        <ele>46.8</ele>
        <time>2021-05-29 09:50:37</time>
      </trkpt>
      <trkpt lat="43.192" lon="-2.05305">
        <ele>46.6</ele>
        <time>2021-05-29 09:50:38</time>
      </trkpt>
      <trkpt lat="43.19207" lon="-2.05306">
        <ele>46.6</ele>
        <time>2021-05-29 09:50:39</time>
      </trkpt>
      <trkpt lat="43.19215" lon="-2.05308">
        <ele>46.6</ele>
        <time>2021-05-29 09:50:40</time>
      </trkpt>
      <trkpt lat="43.19222" lon="-2.0531">
        <ele>46.4</ele>
        <time>2021-05-29 09:50:41</time>
      </trkpt>
      <trkpt lat="43.1923" lon="-2.05313">
        <ele>46.2</ele>
        <time>2021-05-29 09:50:42</time>
      </trkpt>
      <trkpt lat="43.19237" lon="-2.05316">
        <ele>46.2</ele>
        <time>2021-05-29 09:50:43</time>
      </trkpt>
      <trkpt lat="43.19245" lon="-2.0532">
        <ele>46</ele>
        <time>2021-05-29 09:50:44</time>
      </trkpt>
      <trkpt lat="43.19253" lon="-2.05324">
        <ele>46</ele>
        <time>2021-05-29 09:50:45</time>
      </trkpt>
      <trkpt lat="43.19261" lon="-2.05329">
        <ele>45.8</ele>
        <time>2021-05-29 09:50:46</time>
      </trkpt>
      <trkpt lat="43.19269" lon="-2.05334">
        <ele>45.8</ele>
        <time>2021-05-29 09:50:47</time>
      </trkpt>
      <trkpt lat="43.19277" lon="-2.05339">
        <ele>45.8</ele>
        <time>2021-05-29 09:50:48</time>
      </trkpt>
      <trkpt lat="43.19285" lon="-2.05344">
        <ele>45.6</ele>
        <time>2021-05-29 09:50:49</time>
      </trkpt>
      <trkpt lat="43.19293" lon="-2.05348">
        <ele>45.4</ele>
        <time>2021-05-29 09:50:50</time>
      </trkpt>
      <trkpt lat="43.19301" lon="-2.05353">
        <ele>45.4</ele>
        <time>2021-05-29 09:50:51</time>
      </trkpt>
      <trkpt lat="43.19309" lon="-2.05357">
        <ele>45.2</ele>
        <time>2021-05-29 09:50:52</time>
      </trkpt>
      <trkpt lat="43.19317" lon="-2.05361">
        <ele>45.2</ele>
        <time>2021-05-29 09:50:53</time>
      </trkpt>
      <trkpt lat="43.19325" lon="-2.05364">
        <ele>44.8</ele>
        <time>2021-05-29 09:50:54</time>
      </trkpt>
      <trkpt lat="43.19333" lon="-2.05367">
        <ele>44.8</ele>
        <time>2021-05-29 09:50:55</time>
      </trkpt>
      <trkpt lat="43.19342" lon="-2.05368">
        <ele>44.6</ele>
        <time>2021-05-29 09:50:56</time>
      </trkpt>
      <trkpt lat="43.1935" lon="-2.05368">
        <ele>44.2</ele>
        <time>2021-05-29 09:50:57</time>
      </trkpt>
      <trkpt lat="43.19358" lon="-2.05365">
        <ele>44</ele>
        <time>2021-05-29 09:50:58</time>
      </trkpt>
      <trkpt lat="43.19366" lon="-2.05364">
        <ele>43.8</ele>
        <time>2021-05-29 09:50:59</time>
      </trkpt>
      <trkpt lat="43.19374" lon="-2.05366">
        <ele>43.6</ele>
        <time>2021-05-29 09:51:00</time>
      </trkpt>
      <trkpt lat="43.1938" lon="-2.05371">
        <ele>43.6</ele>
        <time>2021-05-29 09:51:01</time>
      </trkpt>
      <trkpt lat="43.19386" lon="-2.05379">
        <ele>43.6</ele>
        <time>2021-05-29 09:51:02</time>
      </trkpt>
      <trkpt lat="43.19391" lon="-2.05387">
        <ele>43.6</ele>
        <time>2021-05-29 09:51:03</time>
      </trkpt>
      <trkpt lat="43.19398" lon="-2.05393">
        <ele>43.4</ele>
        <time>2021-05-29 09:51:04</time>
      </trkpt>
      <trkpt lat="43.19405" lon="-2.05398">
        <ele>43.4</ele>
        <time>2021-05-29 09:51:05</time>
      </trkpt>
      <trkpt lat="43.19412" lon="-2.05401">
        <ele>43.2</ele>
        <time>2021-05-29 09:51:06</time>
      </trkpt>
      <trkpt lat="43.1942" lon="-2.05403">
        <ele>43</ele>
        <time>2021-05-29 09:51:07</time>
      </trkpt>
      <trkpt lat="43.19428" lon="-2.05404">
        <ele>43</ele>
        <time>2021-05-29 09:51:08</time>
      </trkpt>
      <trkpt lat="43.19436" lon="-2.05405">
        <ele>42.8</ele>
        <time>2021-05-29 09:51:09</time>
      </trkpt>
      <trkpt lat="43.19443" lon="-2.05405">
        <ele>42.8</ele>
        <time>2021-05-29 09:51:10</time>
      </trkpt>
      <trkpt lat="43.19452" lon="-2.05404">
        <ele>42.6</ele>
        <time>2021-05-29 09:51:11</time>
      </trkpt>
      <trkpt lat="43.1946" lon="-2.05401">
        <ele>42.4</ele>
        <time>2021-05-29 09:51:12</time>
      </trkpt>
      <trkpt lat="43.19468" lon="-2.05399">
        <ele>42.6</ele>
        <time>2021-05-29 09:51:13</time>
      </trkpt>
      <trkpt lat="43.19476" lon="-2.05395">
        <ele>42.4</ele>
        <time>2021-05-29 09:51:14</time>
      </trkpt>
      <trkpt lat="43.19484" lon="-2.05391">
        <ele>42.4</ele>
        <time>2021-05-29 09:51:15</time>
      </trkpt>
      <trkpt lat="43.19491" lon="-2.05386">
        <ele>42.4</ele>
        <time>2021-05-29 09:51:16</time>
      </trkpt>
      <trkpt lat="43.19498" lon="-2.05381">
        <ele>42.4</ele>
        <time>2021-05-29 09:51:17</time>
      </trkpt>
      <trkpt lat="43.19505" lon="-2.05375">
        <ele>42.2</ele>
        <time>2021-05-29 09:51:18</time>
      </trkpt>
      <trkpt lat="43.19512" lon="-2.05368">
        <ele>42</ele>
        <time>2021-05-29 09:51:19</time>
      </trkpt>
      <trkpt lat="43.19519" lon="-2.05361">
        <ele>42</ele>
        <time>2021-05-29 09:51:20</time>
      </trkpt>
      <trkpt lat="43.19525" lon="-2.05354">
        <ele>42</ele>
        <time>2021-05-29 09:51:21</time>
      </trkpt>
      <trkpt lat="43.19531" lon="-2.05347">
        <ele>42</ele>
        <time>2021-05-29 09:51:22</time>
      </trkpt>
      <trkpt lat="43.19537" lon="-2.05339">
        <ele>41.8</ele>
        <time>2021-05-29 09:51:23</time>
      </trkpt>
      <trkpt lat="43.19542" lon="-2.05331">
        <ele>41.8</ele>
        <time>2021-05-29 09:51:24</time>
      </trkpt>
      <trkpt lat="43.19546" lon="-2.05322">
        <ele>41.8</ele>
        <time>2021-05-29 09:51:25</time>
      </trkpt>
      <trkpt lat="43.19551" lon="-2.05314">
        <ele>41.6</ele>
        <time>2021-05-29 09:51:26</time>
      </trkpt>
      <trkpt lat="43.19556" lon="-2.05305">
        <ele>41.6</ele>
        <time>2021-05-29 09:51:27</time>
      </trkpt>
      <trkpt lat="43.19561" lon="-2.05297">
        <ele>41.4</ele>
        <time>2021-05-29 09:51:28</time>
      </trkpt>
      <trkpt lat="43.19566" lon="-2.05288">
        <ele>41.4</ele>
        <time>2021-05-29 09:51:29</time>
      </trkpt>
      <trkpt lat="43.19571" lon="-2.05279">
        <ele>41.4</ele>
        <time>2021-05-29 09:51:30</time>
      </trkpt>
      <trkpt lat="43.19575" lon="-2.05271">
        <ele>41.2</ele>
        <time>2021-05-29 09:51:31</time>
      </trkpt>
      <trkpt lat="43.1958" lon="-2.05262">
        <ele>41</ele>
        <time>2021-05-29 09:51:32</time>
      </trkpt>
      <trkpt lat="43.19585" lon="-2.05253">
        <ele>41</ele>
        <time>2021-05-29 09:51:33</time>
      </trkpt>
      <trkpt lat="43.19589" lon="-2.05243">
        <ele>41</ele>
        <time>2021-05-29 09:51:34</time>
      </trkpt>
      <trkpt lat="43.19594" lon="-2.05234">
        <ele>40.8</ele>
        <time>2021-05-29 09:51:35</time>
      </trkpt>
      <trkpt lat="43.19599" lon="-2.05224">
        <ele>40.8</ele>
        <time>2021-05-29 09:51:36</time>
      </trkpt>
      <trkpt lat="43.19603" lon="-2.05215">
        <ele>40.8</ele>
        <time>2021-05-29 09:51:37</time>
      </trkpt>
      <trkpt lat="43.19607" lon="-2.05205">
        <ele>40.8</ele>
        <time>2021-05-29 09:51:38</time>
      </trkpt>
      <trkpt lat="43.19611" lon="-2.05195">
        <ele>40.6</ele>
        <time>2021-05-29 09:51:39</time>
      </trkpt>
      <trkpt lat="43.19615" lon="-2.05185">
        <ele>40.8</ele>
        <time>2021-05-29 09:51:40</time>
      </trkpt>
      <trkpt lat="43.19619" lon="-2.05174">
        <ele>40.8</ele>
        <time>2021-05-29 09:51:41</time>
      </trkpt>
      <trkpt lat="43.19623" lon="-2.05164">
        <ele>40.6</ele>
        <time>2021-05-29 09:51:42</time>
      </trkpt>
      <trkpt lat="43.19627" lon="-2.05153">
        <ele>40.4</ele>
        <time>2021-05-29 09:51:43</time>
      </trkpt>
      <trkpt lat="43.19631" lon="-2.05143">
        <ele>40.6</ele>
        <time>2021-05-29 09:51:44</time>
      </trkpt>
      <trkpt lat="43.19634" lon="-2.05132">
        <ele>40.4</ele>
        <time>2021-05-29 09:51:45</time>
      </trkpt>
      <trkpt lat="43.19637" lon="-2.05122">
        <ele>40.4</ele>
        <time>2021-05-29 09:51:46</time>
      </trkpt>
      <trkpt lat="43.1964" lon="-2.05111">
        <ele>40.2</ele>
        <time>2021-05-29 09:51:47</time>
      </trkpt>
      <trkpt lat="43.19643" lon="-2.05101">
        <ele>40.2</ele>
        <time>2021-05-29 09:51:48</time>
      </trkpt>
      <trkpt lat="43.19644" lon="-2.0509">
        <ele>40</ele>
        <time>2021-05-29 09:51:49</time>
      </trkpt>
      <trkpt lat="43.19644" lon="-2.05079">
        <ele>40</ele>
        <time>2021-05-29 09:51:50</time>
      </trkpt>
      <trkpt lat="43.19644" lon="-2.05068">
        <ele>40</ele>
        <time>2021-05-29 09:51:51</time>
      </trkpt>
      <trkpt lat="43.19645" lon="-2.05057">
        <ele>39.8</ele>
        <time>2021-05-29 09:51:52</time>
      </trkpt>
      <trkpt lat="43.1965" lon="-2.05048">
        <ele>39.8</ele>
        <time>2021-05-29 09:51:53</time>
      </trkpt>
      <trkpt lat="43.19656" lon="-2.05042">
        <ele>39.6</ele>
        <time>2021-05-29 09:51:54</time>
      </trkpt>
      <trkpt lat="43.19662" lon="-2.05041">
        <ele>39.6</ele>
        <time>2021-05-29 09:51:55</time>
      </trkpt>
      <trkpt lat="43.19669" lon="-2.05042">
        <ele>39.6</ele>
        <time>2021-05-29 09:51:56</time>
      </trkpt>
      <trkpt lat="43.19675" lon="-2.05044">
        <ele>39.4</ele>
        <time>2021-05-29 09:51:57</time>
      </trkpt>
      <trkpt lat="43.19682" lon="-2.05046">
        <ele>39.4</ele>
        <time>2021-05-29 09:51:58</time>
      </trkpt>
      <trkpt lat="43.1969" lon="-2.05047">
        <ele>39.4</ele>
        <time>2021-05-29 09:51:59</time>
      </trkpt>
      <trkpt lat="43.19698" lon="-2.05047">
        <ele>39.4</ele>
        <time>2021-05-29 09:52:00</time>
      </trkpt>
      <trkpt lat="43.19706" lon="-2.05046">
        <ele>39.2</ele>
        <time>2021-05-29 09:52:01</time>
      </trkpt>
      <trkpt lat="43.19714" lon="-2.05045">
        <ele>39.4</ele>
        <time>2021-05-29 09:52:02</time>
      </trkpt>
      <trkpt lat="43.19723" lon="-2.05044">
        <ele>39.2</ele>
        <time>2021-05-29 09:52:03</time>
      </trkpt>
      <trkpt lat="43.19731" lon="-2.05043">
        <ele>39.2</ele>
        <time>2021-05-29 09:52:04</time>
      </trkpt>
      <trkpt lat="43.19739" lon="-2.05042">
        <ele>39</ele>
        <time>2021-05-29 09:52:05</time>
      </trkpt>
      <trkpt lat="43.19748" lon="-2.05041">
        <ele>39</ele>
        <time>2021-05-29 09:52:06</time>
      </trkpt>
      <trkpt lat="43.19756" lon="-2.0504">
        <ele>39</ele>
        <time>2021-05-29 09:52:07</time>
      </trkpt>
      <trkpt lat="43.19764" lon="-2.05039">
        <ele>39</ele>
        <time>2021-05-29 09:52:08</time>
      </trkpt>
      <trkpt lat="43.19771" lon="-2.05038">
        <ele>38.8</ele>
        <time>2021-05-29 09:52:09</time>
      </trkpt>
      <trkpt lat="43.19779" lon="-2.05037">
        <ele>38.8</ele>
        <time>2021-05-29 09:52:10</time>
      </trkpt>
      <trkpt lat="43.19786" lon="-2.05036">
        <ele>38.6</ele>
        <time>2021-05-29 09:52:11</time>
      </trkpt>
      <trkpt lat="43.19793" lon="-2.05035">
        <ele>38.4</ele>
        <time>2021-05-29 09:52:12</time>
      </trkpt>
      <trkpt lat="43.19799" lon="-2.05034">
        <ele>38.2</ele>
        <time>2021-05-29 09:52:13</time>
      </trkpt>
      <trkpt lat="43.19803" lon="-2.05032">
        <ele>38</ele>
        <time>2021-05-29 09:52:14</time>
      </trkpt>
      <trkpt lat="43.19807" lon="-2.05028">
        <ele>38</ele>
        <time>2021-05-29 09:52:15</time>
      </trkpt>
      <trkpt lat="43.19808" lon="-2.05023">
        <ele>37.8</ele>
        <time>2021-05-29 09:52:16</time>
      </trkpt>
      <trkpt lat="43.19807" lon="-2.05017">
        <ele>37.8</ele>
        <time>2021-05-29 09:52:17</time>
      </trkpt>
      <trkpt lat="43.19804" lon="-2.0501">
        <ele>37.6</ele>
        <time>2021-05-29 09:52:18</time>
      </trkpt>
      <trkpt lat="43.19801" lon="-2.05002">
        <ele>37.6</ele>
        <time>2021-05-29 09:52:19</time>
      </trkpt>
      <trkpt lat="43.19798" lon="-2.04993">
        <ele>37.6</ele>
        <time>2021-05-29 09:52:20</time>
      </trkpt>
      <trkpt lat="43.19796" lon="-2.04985">
        <ele>37.6</ele>
        <time>2021-05-29 09:52:21</time>
      </trkpt>
      <trkpt lat="43.19794" lon="-2.04976">
        <ele>37.4</ele>
        <time>2021-05-29 09:52:22</time>
      </trkpt>
      <trkpt lat="43.19793" lon="-2.04967">
        <ele>37.6</ele>
        <time>2021-05-29 09:52:23</time>
      </trkpt>
      <trkpt lat="43.19794" lon="-2.04958">
        <ele>37.4</ele>
        <time>2021-05-29 09:52:24</time>
      </trkpt>
      <trkpt lat="43.19795" lon="-2.0495">
        <ele>37.2</ele>
        <time>2021-05-29 09:52:25</time>
      </trkpt>
      <trkpt lat="43.19797" lon="-2.04942">
        <ele>37.2</ele>
        <time>2021-05-29 09:52:26</time>
      </trkpt>
      <trkpt lat="43.19799" lon="-2.04934">
        <ele>37</ele>
        <time>2021-05-29 09:52:27</time>
      </trkpt>
      <trkpt lat="43.19802" lon="-2.04925">
        <ele>37</ele>
        <time>2021-05-29 09:52:28</time>
      </trkpt>
      <trkpt lat="43.19805" lon="-2.04917">
        <ele>37.2</ele>
        <time>2021-05-29 09:52:29</time>
      </trkpt>
      <trkpt lat="43.19807" lon="-2.04908">
        <ele>37.2</ele>
        <time>2021-05-29 09:52:30</time>
      </trkpt>
      <trkpt lat="43.1981" lon="-2.04899">
        <ele>37</ele>
        <time>2021-05-29 09:52:31</time>
      </trkpt>
      <trkpt lat="43.19812" lon="-2.04889">
        <ele>37</ele>
        <time>2021-05-29 09:52:32</time>
      </trkpt>
      <trkpt lat="43.19815" lon="-2.0488">
        <ele>37</ele>
        <time>2021-05-29 09:52:33</time>
      </trkpt>
      <trkpt lat="43.19817" lon="-2.04871">
        <ele>37</ele>
        <time>2021-05-29 09:52:34</time>
      </trkpt>
      <trkpt lat="43.19818" lon="-2.04864">
        <ele>37</ele>
        <time>2021-05-29 09:52:35</time>
      </trkpt>
      <trkpt lat="43.19819" lon="-2.04856">
        <ele>37</ele>
        <time>2021-05-29 09:52:36</time>
      </trkpt>
      <trkpt lat="43.1982" lon="-2.0485">
        <ele>37</ele>
        <time>2021-05-29 09:52:37</time>
      </trkpt>
      <trkpt lat="43.19821" lon="-2.04844">
        <ele>37</ele>
        <time>2021-05-29 09:52:38</time>
      </trkpt>
      <trkpt lat="43.19821" lon="-2.04839">
        <ele>37</ele>
        <time>2021-05-29 09:52:39</time>
      </trkpt>
      <trkpt lat="43.19821" lon="-2.04834">
        <ele>37</ele>
        <time>2021-05-29 09:52:40</time>
      </trkpt>
      <trkpt lat="43.19821" lon="-2.04829">
        <ele>37.2</ele>
        <time>2021-05-29 09:52:41</time>
      </trkpt>
      <trkpt lat="43.19821" lon="-2.04824">
        <ele>37.2</ele>
        <time>2021-05-29 09:52:42</time>
      </trkpt>
      <trkpt lat="43.19821" lon="-2.0482">
        <ele>37</ele>
        <time>2021-05-29 09:52:43</time>
      </trkpt>
      <trkpt lat="43.19821" lon="-2.04817">
        <ele>37.2</ele>
        <time>2021-05-29 09:52:44</time>
      </trkpt>
      <trkpt lat="43.19821" lon="-2.04815">
        <ele>37.2</ele>
        <time>2021-05-29 09:52:45</time>
      </trkpt>
      <trkpt lat="43.19821" lon="-2.04813">
        <ele>37.4</ele>
        <time>2021-05-29 09:52:46</time>
      </trkpt>
      <trkpt lat="43.19821" lon="-2.04813">
        <ele>37.4</ele>
        <time>2021-05-29 09:52:47</time>
      </trkpt>
      <trkpt lat="43.19821" lon="-2.04811">
        <ele>37</ele>
        <time>2021-05-29 09:53:34</time>
      </trkpt>
      <trkpt lat="43.19821" lon="-2.04808">
        <ele>36.8</ele>
        <time>2021-05-29 09:53:35</time>
      </trkpt>
      <trkpt lat="43.19822" lon="-2.04803">
        <ele>36.8</ele>
        <time>2021-05-29 09:53:36</time>
      </trkpt>
      <trkpt lat="43.19823" lon="-2.04797">
        <ele>36.8</ele>
        <time>2021-05-29 09:53:37</time>
      </trkpt>
      <trkpt lat="43.19824" lon="-2.0479">
        <ele>36.6</ele>
        <time>2021-05-29 09:53:38</time>
      </trkpt>
      <trkpt lat="43.19824" lon="-2.04782">
        <ele>36.6</ele>
        <time>2021-05-29 09:53:39</time>
      </trkpt>
      <trkpt lat="43.19825" lon="-2.04774">
        <ele>36.6</ele>
        <time>2021-05-29 09:53:40</time>
      </trkpt>
      <trkpt lat="43.19826" lon="-2.04764">
        <ele>36.6</ele>
        <time>2021-05-29 09:53:41</time>
      </trkpt>
      <trkpt lat="43.19827" lon="-2.04754">
        <ele>36.4</ele>
        <time>2021-05-29 09:53:42</time>
      </trkpt>
      <trkpt lat="43.19828" lon="-2.04743">
        <ele>36.4</ele>
        <time>2021-05-29 09:53:43</time>
      </trkpt>
      <trkpt lat="43.1983" lon="-2.04731">
        <ele>36.4</ele>
        <time>2021-05-29 09:53:44</time>
      </trkpt>
      <trkpt lat="43.19832" lon="-2.0472">
        <ele>36.2</ele>
        <time>2021-05-29 09:53:45</time>
      </trkpt>
      <trkpt lat="43.19835" lon="-2.04708">
        <ele>36.2</ele>
        <time>2021-05-29 09:53:46</time>
      </trkpt>
      <trkpt lat="43.19839" lon="-2.04696">
        <ele>36.2</ele>
        <time>2021-05-29 09:53:47</time>
      </trkpt>
      <trkpt lat="43.19842" lon="-2.04684">
        <ele>36</ele>
        <time>2021-05-29 09:53:48</time>
      </trkpt>
      <trkpt lat="43.19845" lon="-2.04673">
        <ele>35.8</ele>
        <time>2021-05-29 09:53:49</time>
      </trkpt>
      <trkpt lat="43.19848" lon="-2.04663">
        <ele>35.6</ele>
        <time>2021-05-29 09:53:50</time>
      </trkpt>
      <trkpt lat="43.19852" lon="-2.04653">
        <ele>35.4</ele>
        <time>2021-05-29 09:53:51</time>
      </trkpt>
      <trkpt lat="43.19855" lon="-2.04644">
        <ele>35.4</ele>
        <time>2021-05-29 09:53:52</time>
      </trkpt>
      <trkpt lat="43.19859" lon="-2.04636">
        <ele>35.4</ele>
        <time>2021-05-29 09:53:53</time>
      </trkpt>
      <trkpt lat="43.19863" lon="-2.04628">
        <ele>35.4</ele>
        <time>2021-05-29 09:53:54</time>
      </trkpt>
      <trkpt lat="43.19868" lon="-2.04621">
        <ele>35.2</ele>
        <time>2021-05-29 09:53:55</time>
      </trkpt>
      <trkpt lat="43.19872" lon="-2.04616">
        <ele>35.2</ele>
        <time>2021-05-29 09:53:56</time>
      </trkpt>
      <trkpt lat="43.19878" lon="-2.0461">
        <ele>35.2</ele>
        <time>2021-05-29 09:53:57</time>
      </trkpt>
      <trkpt lat="43.19883" lon="-2.04606">
        <ele>35.4</ele>
        <time>2021-05-29 09:53:58</time>
      </trkpt>
      <trkpt lat="43.19889" lon="-2.04601">
        <ele>35.4</ele>
        <time>2021-05-29 09:53:59</time>
      </trkpt>
      <trkpt lat="43.19896" lon="-2.04597">
        <ele>35.4</ele>
        <time>2021-05-29 09:54:00</time>
      </trkpt>
      <trkpt lat="43.19903" lon="-2.04593">
        <ele>35.6</ele>
        <time>2021-05-29 09:54:01</time>
      </trkpt>
      <trkpt lat="43.1991" lon="-2.0459">
        <ele>35.6</ele>
        <time>2021-05-29 09:54:02</time>
      </trkpt>
      <trkpt lat="43.19917" lon="-2.04589">
        <ele>35.8</ele>
        <time>2021-05-29 09:54:03</time>
      </trkpt>
      <trkpt lat="43.19925" lon="-2.0459">
        <ele>35.8</ele>
        <time>2021-05-29 09:54:04</time>
      </trkpt>
      <trkpt lat="43.19932" lon="-2.04594">
        <ele>36.2</ele>
        <time>2021-05-29 09:54:05</time>
      </trkpt>
      <trkpt lat="43.19939" lon="-2.046">
        <ele>36.4</ele>
        <time>2021-05-29 09:54:06</time>
      </trkpt>
      <trkpt lat="43.19946" lon="-2.04606">
        <ele>36.4</ele>
        <time>2021-05-29 09:54:07</time>
      </trkpt>
      <trkpt lat="43.19952" lon="-2.04612">
        <ele>36.8</ele>
        <time>2021-05-29 09:54:08</time>
      </trkpt>
      <trkpt lat="43.19959" lon="-2.04618">
        <ele>36.8</ele>
        <time>2021-05-29 09:54:09</time>
      </trkpt>
      <trkpt lat="43.19966" lon="-2.04624">
        <ele>37</ele>
        <time>2021-05-29 09:54:10</time>
      </trkpt>
      <trkpt lat="43.19973" lon="-2.04631">
        <ele>37.4</ele>
        <time>2021-05-29 09:54:11</time>
      </trkpt>
      <trkpt lat="43.19981" lon="-2.04638">
        <ele>37.4</ele>
        <time>2021-05-29 09:54:12</time>
      </trkpt>
      <trkpt lat="43.19988" lon="-2.04645">
        <ele>38</ele>
        <time>2021-05-29 09:54:13</time>
      </trkpt>
      <trkpt lat="43.19995" lon="-2.04652">
        <ele>38.4</ele>
        <time>2021-05-29 09:54:14</time>
      </trkpt>
      <trkpt lat="43.20003" lon="-2.04659">
        <ele>38.8</ele>
        <time>2021-05-29 09:54:15</time>
      </trkpt>
      <trkpt lat="43.20011" lon="-2.04665">
        <ele>38.8</ele>
        <time>2021-05-29 09:54:16</time>
      </trkpt>
      <trkpt lat="43.20019" lon="-2.04668">
        <ele>39.2</ele>
        <time>2021-05-29 09:54:17</time>
      </trkpt>
      <trkpt lat="43.20028" lon="-2.04671">
        <ele>39.4</ele>
        <time>2021-05-29 09:54:18</time>
      </trkpt>
      <trkpt lat="43.20037" lon="-2.04673">
        <ele>39.6</ele>
        <time>2021-05-29 09:54:19</time>
      </trkpt>
      <trkpt lat="43.20046" lon="-2.04673">
        <ele>39.8</ele>
        <time>2021-05-29 09:54:20</time>
      </trkpt>
      <trkpt lat="43.20055" lon="-2.04672">
        <ele>40</ele>
        <time>2021-05-29 09:54:21</time>
      </trkpt>
      <trkpt lat="43.20064" lon="-2.0467">
        <ele>40.2</ele>
        <time>2021-05-29 09:54:22</time>
      </trkpt>
      <trkpt lat="43.20073" lon="-2.04666">
        <ele>40.6</ele>
        <time>2021-05-29 09:54:23</time>
      </trkpt>
      <trkpt lat="43.20081" lon="-2.0466">
        <ele>41</ele>
        <time>2021-05-29 09:54:24</time>
      </trkpt>
      <trkpt lat="43.20088" lon="-2.04652">
        <ele>41.2</ele>
        <time>2021-05-29 09:54:25</time>
      </trkpt>
      <trkpt lat="43.20095" lon="-2.04645">
        <ele>41.6</ele>
        <time>2021-05-29 09:54:26</time>
      </trkpt>
      <trkpt lat="43.20103" lon="-2.04637">
        <ele>41.6</ele>
        <time>2021-05-29 09:54:27</time>
      </trkpt>
      <trkpt lat="43.2011" lon="-2.0463">
        <ele>41.8</ele>
        <time>2021-05-29 09:54:28</time>
      </trkpt>
      <trkpt lat="43.20118" lon="-2.04622">
        <ele>41.8</ele>
        <time>2021-05-29 09:54:29</time>
      </trkpt>
      <trkpt lat="43.20125" lon="-2.04615">
        <ele>42</ele>
        <time>2021-05-29 09:54:30</time>
      </trkpt>
      <trkpt lat="43.20132" lon="-2.04607">
        <ele>42</ele>
        <time>2021-05-29 09:54:31</time>
      </trkpt>
      <trkpt lat="43.2014" lon="-2.046">
        <ele>42.4</ele>
        <time>2021-05-29 09:54:32</time>
      </trkpt>
      <trkpt lat="43.20147" lon="-2.04592">
        <ele>42.6</ele>
        <time>2021-05-29 09:54:33</time>
      </trkpt>
      <trkpt lat="43.20153" lon="-2.04583">
        <ele>43</ele>
        <time>2021-05-29 09:54:34</time>
      </trkpt>
      <trkpt lat="43.2016" lon="-2.04574">
        <ele>43.4</ele>
        <time>2021-05-29 09:54:35</time>
      </trkpt>
      <trkpt lat="43.20166" lon="-2.04565">
        <ele>43.6</ele>
        <time>2021-05-29 09:54:36</time>
      </trkpt>
      <trkpt lat="43.20172" lon="-2.04555">
        <ele>44.2</ele>
        <time>2021-05-29 09:54:37</time>
      </trkpt>
      <trkpt lat="43.20177" lon="-2.04545">
        <ele>44.4</ele>
        <time>2021-05-29 09:54:38</time>
      </trkpt>
      <trkpt lat="43.20182" lon="-2.04535">
        <ele>44.4</ele>
        <time>2021-05-29 09:54:39</time>
      </trkpt>
      <trkpt lat="43.20188" lon="-2.04525">
        <ele>44.6</ele>
        <time>2021-05-29 09:54:40</time>
      </trkpt>
      <trkpt lat="43.20193" lon="-2.04515">
        <ele>44.6</ele>
        <time>2021-05-29 09:54:41</time>
      </trkpt>
      <trkpt lat="43.20198" lon="-2.04505">
        <ele>44.8</ele>
        <time>2021-05-29 09:54:42</time>
      </trkpt>
      <trkpt lat="43.20204" lon="-2.04495">
        <ele>44.8</ele>
        <time>2021-05-29 09:54:43</time>
      </trkpt>
      <trkpt lat="43.20211" lon="-2.04486">
        <ele>45.2</ele>
        <time>2021-05-29 09:54:44</time>
      </trkpt>
      <trkpt lat="43.20219" lon="-2.04477">
        <ele>45.2</ele>
        <time>2021-05-29 09:54:45</time>
      </trkpt>
      <trkpt lat="43.20227" lon="-2.04468">
        <ele>45.4</ele>
        <time>2021-05-29 09:54:46</time>
      </trkpt>
      <trkpt lat="43.20236" lon="-2.04459">
        <ele>45.4</ele>
        <time>2021-05-29 09:54:47</time>
      </trkpt>
      <trkpt lat="43.20244" lon="-2.04451">
        <ele>45.6</ele>
        <time>2021-05-29 09:54:48</time>
      </trkpt>
      <trkpt lat="43.20253" lon="-2.04442">
        <ele>45.6</ele>
        <time>2021-05-29 09:54:49</time>
      </trkpt>
      <trkpt lat="43.20263" lon="-2.04433">
        <ele>45.6</ele>
        <time>2021-05-29 09:54:50</time>
      </trkpt>
      <trkpt lat="43.20272" lon="-2.04425">
        <ele>45.6</ele>
        <time>2021-05-29 09:54:51</time>
      </trkpt>
      <trkpt lat="43.20282" lon="-2.04416">
        <ele>45.6</ele>
        <time>2021-05-29 09:54:52</time>
      </trkpt>
      <trkpt lat="43.20292" lon="-2.04408">
        <ele>45.6</ele>
        <time>2021-05-29 09:54:53</time>
      </trkpt>
      <trkpt lat="43.20301" lon="-2.04399">
        <ele>45.8</ele>
        <time>2021-05-29 09:54:54</time>
      </trkpt>
      <trkpt lat="43.20311" lon="-2.04391">
        <ele>45.8</ele>
        <time>2021-05-29 09:54:55</time>
      </trkpt>
      <trkpt lat="43.20319" lon="-2.04382">
        <ele>45.6</ele>
        <time>2021-05-29 09:54:56</time>
      </trkpt>
      <trkpt lat="43.20328" lon="-2.04372">
        <ele>45.6</ele>
        <time>2021-05-29 09:54:57</time>
      </trkpt>
      <trkpt lat="43.20336" lon="-2.04362">
        <ele>45.6</ele>
        <time>2021-05-29 09:54:58</time>
      </trkpt>
      <trkpt lat="43.20344" lon="-2.04353">
        <ele>45.6</ele>
        <time>2021-05-29 09:54:59</time>
      </trkpt>
      <trkpt lat="43.20352" lon="-2.04343">
        <ele>45.4</ele>
        <time>2021-05-29 09:55:00</time>
      </trkpt>
      <trkpt lat="43.2036" lon="-2.04333">
        <ele>45.4</ele>
        <time>2021-05-29 09:55:01</time>
      </trkpt>
      <trkpt lat="43.20367" lon="-2.04324">
        <ele>45.4</ele>
        <time>2021-05-29 09:55:02</time>
      </trkpt>
      <trkpt lat="43.20375" lon="-2.04315">
        <ele>45.2</ele>
        <time>2021-05-29 09:55:03</time>
      </trkpt>
      <trkpt lat="43.20383" lon="-2.04306">
        <ele>45.2</ele>
        <time>2021-05-29 09:55:04</time>
      </trkpt>
      <trkpt lat="43.2039" lon="-2.04297">
        <ele>44.8</ele>
        <time>2021-05-29 09:55:05</time>
      </trkpt>
      <trkpt lat="43.20398" lon="-2.04289">
        <ele>44.8</ele>
        <time>2021-05-29 09:55:06</time>
      </trkpt>
      <trkpt lat="43.20405" lon="-2.0428">
        <ele>44.6</ele>
        <time>2021-05-29 09:55:07</time>
      </trkpt>
      <trkpt lat="43.20412" lon="-2.04271">
        <ele>44.6</ele>
        <time>2021-05-29 09:55:08</time>
      </trkpt>
      <trkpt lat="43.2042" lon="-2.04262">
        <ele>44.4</ele>
        <time>2021-05-29 09:55:09</time>
      </trkpt>
      <trkpt lat="43.20427" lon="-2.04253">
        <ele>44.4</ele>
        <time>2021-05-29 09:55:10</time>
      </trkpt>
      <trkpt lat="43.20434" lon="-2.04244">
        <ele>44.4</ele>
        <time>2021-05-29 09:55:11</time>
      </trkpt>
      <trkpt lat="43.20441" lon="-2.04234">
        <ele>44.4</ele>
        <time>2021-05-29 09:55:12</time>
      </trkpt>
      <trkpt lat="43.20448" lon="-2.04224">
        <ele>44.4</ele>
        <time>2021-05-29 09:55:13</time>
      </trkpt>
      <trkpt lat="43.20455" lon="-2.04213">
        <ele>44.4</ele>
        <time>2021-05-29 09:55:14</time>
      </trkpt>
      <trkpt lat="43.20462" lon="-2.04202">
        <ele>44.2</ele>
        <time>2021-05-29 09:55:15</time>
      </trkpt>
      <trkpt lat="43.20467" lon="-2.04191">
        <ele>44.2</ele>
        <time>2021-05-29 09:55:16</time>
      </trkpt>
      <trkpt lat="43.20472" lon="-2.04179">
        <ele>44</ele>
        <time>2021-05-29 09:55:17</time>
      </trkpt>
      <trkpt lat="43.20478" lon="-2.04168">
        <ele>44</ele>
        <time>2021-05-29 09:55:18</time>
      </trkpt>
      <trkpt lat="43.20485" lon="-2.04158">
        <ele>43.8</ele>
        <time>2021-05-29 09:55:19</time>
      </trkpt>
      <trkpt lat="43.20493" lon="-2.04152">
        <ele>43.8</ele>
        <time>2021-05-29 09:55:20</time>
      </trkpt>
      <trkpt lat="43.20503" lon="-2.04149">
        <ele>43.6</ele>
        <time>2021-05-29 09:55:21</time>
      </trkpt>
      <trkpt lat="43.20512" lon="-2.04146">
        <ele>43.6</ele>
        <time>2021-05-29 09:55:22</time>
      </trkpt>
      <trkpt lat="43.20521" lon="-2.0414">
        <ele>43.6</ele>
        <time>2021-05-29 09:55:23</time>
      </trkpt>
      <trkpt lat="43.20529" lon="-2.04132">
        <ele>43.4</ele>
        <time>2021-05-29 09:55:24</time>
      </trkpt>
      <trkpt lat="43.20537" lon="-2.04123">
        <ele>43.2</ele>
        <time>2021-05-29 09:55:25</time>
      </trkpt>
      <trkpt lat="43.20544" lon="-2.04114">
        <ele>43.2</ele>
        <time>2021-05-29 09:55:26</time>
      </trkpt>
      <trkpt lat="43.20552" lon="-2.04104">
        <ele>42.6</ele>
        <time>2021-05-29 09:55:27</time>
      </trkpt>
      <trkpt lat="43.20559" lon="-2.04095">
        <ele>42.4</ele>
        <time>2021-05-29 09:55:28</time>
      </trkpt>
      <trkpt lat="43.20567" lon="-2.04087">
        <ele>42.4</ele>
        <time>2021-05-29 09:55:29</time>
      </trkpt>
      <trkpt lat="43.20576" lon="-2.04079">
        <ele>42.2</ele>
        <time>2021-05-29 09:55:30</time>
      </trkpt>
      <trkpt lat="43.20585" lon="-2.04072">
        <ele>42.2</ele>
        <time>2021-05-29 09:55:31</time>
      </trkpt>
      <trkpt lat="43.20594" lon="-2.04065">
        <ele>42</ele>
        <time>2021-05-29 09:55:32</time>
      </trkpt>
      <trkpt lat="43.20604" lon="-2.0406">
        <ele>42</ele>
        <time>2021-05-29 09:55:33</time>
      </trkpt>
      <trkpt lat="43.20614" lon="-2.04055">
        <ele>42</ele>
        <time>2021-05-29 09:55:34</time>
      </trkpt>
      <trkpt lat="43.20624" lon="-2.0405">
        <ele>42</ele>
        <time>2021-05-29 09:55:35</time>
      </trkpt>
      <trkpt lat="43.20634" lon="-2.04046">
        <ele>42</ele>
        <time>2021-05-29 09:55:36</time>
      </trkpt>
      <trkpt lat="43.20643" lon="-2.04041">
        <ele>41.8</ele>
        <time>2021-05-29 09:55:37</time>
      </trkpt>
      <trkpt lat="43.20653" lon="-2.04037">
        <ele>41.8</ele>
        <time>2021-05-29 09:55:38</time>
      </trkpt>
      <trkpt lat="43.20662" lon="-2.04031">
        <ele>42</ele>
        <time>2021-05-29 09:55:39</time>
      </trkpt>
      <trkpt lat="43.20671" lon="-2.04025">
        <ele>41.8</ele>
        <time>2021-05-29 09:55:40</time>
      </trkpt>
      <trkpt lat="43.2068" lon="-2.04018">
        <ele>41.8</ele>
        <time>2021-05-29 09:55:41</time>
      </trkpt>
      <trkpt lat="43.20688" lon="-2.0401">
        <ele>41.6</ele>
        <time>2021-05-29 09:55:42</time>
      </trkpt>
      <trkpt lat="43.20696" lon="-2.04002">
        <ele>41.4</ele>
        <time>2021-05-29 09:55:43</time>
      </trkpt>
      <trkpt lat="43.20704" lon="-2.03994">
        <ele>41.2</ele>
        <time>2021-05-29 09:55:44</time>
      </trkpt>
      <trkpt lat="43.20713" lon="-2.03986">
        <ele>41.2</ele>
        <time>2021-05-29 09:55:45</time>
      </trkpt>
      <trkpt lat="43.20722" lon="-2.03978">
        <ele>41</ele>
        <time>2021-05-29 09:55:46</time>
      </trkpt>
      <trkpt lat="43.2073" lon="-2.03969">
        <ele>41</ele>
        <time>2021-05-29 09:55:47</time>
      </trkpt>
      <trkpt lat="43.20739" lon="-2.0396">
        <ele>41</ele>
        <time>2021-05-29 09:55:48</time>
      </trkpt>
      <trkpt lat="43.20748" lon="-2.03951">
        <ele>41</ele>
        <time>2021-05-29 09:55:49</time>
      </trkpt>
      <trkpt lat="43.20756" lon="-2.03941">
        <ele>41</ele>
        <time>2021-05-29 09:55:50</time>
      </trkpt>
      <trkpt lat="43.20765" lon="-2.03931">
        <ele>40.8</ele>
        <time>2021-05-29 09:55:51</time>
      </trkpt>
      <trkpt lat="43.20773" lon="-2.03921">
        <ele>40.4</ele>
        <time>2021-05-29 09:55:52</time>
      </trkpt>
      <trkpt lat="43.20782" lon="-2.03911">
        <ele>40.4</ele>
        <time>2021-05-29 09:55:53</time>
      </trkpt>
      <trkpt lat="43.2079" lon="-2.03902">
        <ele>40.2</ele>
        <time>2021-05-29 09:55:54</time>
      </trkpt>
      <trkpt lat="43.20797" lon="-2.03892">
        <ele>40.2</ele>
        <time>2021-05-29 09:55:55</time>
      </trkpt>
      <trkpt lat="43.20804" lon="-2.03881">
        <ele>39.8</ele>
        <time>2021-05-29 09:55:56</time>
      </trkpt>
      <trkpt lat="43.20811" lon="-2.0387">
        <ele>39.6</ele>
        <time>2021-05-29 09:55:57</time>
      </trkpt>
      <trkpt lat="43.20817" lon="-2.03858">
        <ele>39.6</ele>
        <time>2021-05-29 09:55:58</time>
      </trkpt>
      <trkpt lat="43.20823" lon="-2.03846">
        <ele>39.6</ele>
        <time>2021-05-29 09:55:59</time>
      </trkpt>
      <trkpt lat="43.20829" lon="-2.03834">
        <ele>39.2</ele>
        <time>2021-05-29 09:56:00</time>
      </trkpt>
      <trkpt lat="43.20835" lon="-2.03821">
        <ele>39.2</ele>
        <time>2021-05-29 09:56:01</time>
      </trkpt>
      <trkpt lat="43.2084" lon="-2.03808">
        <ele>39</ele>
        <time>2021-05-29 09:56:02</time>
      </trkpt>
      <trkpt lat="43.20845" lon="-2.03794">
        <ele>38.6</ele>
        <time>2021-05-29 09:56:03</time>
      </trkpt>
      <trkpt lat="43.20851" lon="-2.03781">
        <ele>38.6</ele>
        <time>2021-05-29 09:56:04</time>
      </trkpt>
      <trkpt lat="43.20856" lon="-2.03768">
        <ele>38.6</ele>
        <time>2021-05-29 09:56:05</time>
      </trkpt>
      <trkpt lat="43.20862" lon="-2.03755">
        <ele>38.6</ele>
        <time>2021-05-29 09:56:06</time>
      </trkpt>
      <trkpt lat="43.20868" lon="-2.03743">
        <ele>38.4</ele>
        <time>2021-05-29 09:56:07</time>
      </trkpt>
      <trkpt lat="43.20875" lon="-2.03731">
        <ele>38.2</ele>
        <time>2021-05-29 09:56:08</time>
      </trkpt>
      <trkpt lat="43.20882" lon="-2.0372">
        <ele>38</ele>
        <time>2021-05-29 09:56:09</time>
      </trkpt>
      <trkpt lat="43.2089" lon="-2.03709">
        <ele>38</ele>
        <time>2021-05-29 09:56:10</time>
      </trkpt>
      <trkpt lat="43.20898" lon="-2.037">
        <ele>38</ele>
        <time>2021-05-29 09:56:11</time>
      </trkpt>
      <trkpt lat="43.20907" lon="-2.03691">
        <ele>38</ele>
        <time>2021-05-29 09:56:12</time>
      </trkpt>
      <trkpt lat="43.20916" lon="-2.03683">
        <ele>38</ele>
        <time>2021-05-29 09:56:13</time>
      </trkpt>
      <trkpt lat="43.20925" lon="-2.03676">
        <ele>38</ele>
        <time>2021-05-29 09:56:14</time>
      </trkpt>
      <trkpt lat="43.20935" lon="-2.03668">
        <ele>38</ele>
        <time>2021-05-29 09:56:15</time>
      </trkpt>
      <trkpt lat="43.20944" lon="-2.03658">
        <ele>37.8</ele>
        <time>2021-05-29 09:56:16</time>
      </trkpt>
      <trkpt lat="43.20952" lon="-2.03648">
        <ele>37.6</ele>
        <time>2021-05-29 09:56:17</time>
      </trkpt>
      <trkpt lat="43.2096" lon="-2.03637">
        <ele>37.6</ele>
        <time>2021-05-29 09:56:18</time>
      </trkpt>
      <trkpt lat="43.20966" lon="-2.03624">
        <ele>37.6</ele>
        <time>2021-05-29 09:56:19</time>
      </trkpt>
      <trkpt lat="43.2097" lon="-2.03611">
        <ele>37.2</ele>
        <time>2021-05-29 09:56:20</time>
      </trkpt>
      <trkpt lat="43.20974" lon="-2.03596">
        <ele>37.2</ele>
        <time>2021-05-29 09:56:21</time>
      </trkpt>
      <trkpt lat="43.20977" lon="-2.03582">
        <ele>37</ele>
        <time>2021-05-29 09:56:22</time>
      </trkpt>
      <trkpt lat="43.2098" lon="-2.03568">
        <ele>37</ele>
        <time>2021-05-29 09:56:23</time>
      </trkpt>
      <trkpt lat="43.20983" lon="-2.03553">
        <ele>37</ele>
        <time>2021-05-29 09:56:24</time>
      </trkpt>
      <trkpt lat="43.20985" lon="-2.03539">
        <ele>37</ele>
        <time>2021-05-29 09:56:25</time>
      </trkpt>
      <trkpt lat="43.20985" lon="-2.03524">
        <ele>36.8</ele>
        <time>2021-05-29 09:56:26</time>
      </trkpt>
      <trkpt lat="43.20984" lon="-2.0351">
        <ele>36.6</ele>
        <time>2021-05-29 09:56:27</time>
      </trkpt>
      <trkpt lat="43.20981" lon="-2.03497">
        <ele>36.6</ele>
        <time>2021-05-29 09:56:28</time>
      </trkpt>
      <trkpt lat="43.20978" lon="-2.03483">
        <ele>36.6</ele>
        <time>2021-05-29 09:56:29</time>
      </trkpt>
      <trkpt lat="43.20973" lon="-2.0347">
        <ele>36.6</ele>
        <time>2021-05-29 09:56:30</time>
      </trkpt>
      <trkpt lat="43.20969" lon="-2.03457">
        <ele>36.2</ele>
        <time>2021-05-29 09:56:31</time>
      </trkpt>
      <trkpt lat="43.20964" lon="-2.03444">
        <ele>36.2</ele>
        <time>2021-05-29 09:56:32</time>
      </trkpt>
      <trkpt lat="43.2096" lon="-2.03432">
        <ele>36</ele>
        <time>2021-05-29 09:56:33</time>
      </trkpt>
      <trkpt lat="43.20955" lon="-2.0342">
        <ele>35.8</ele>
        <time>2021-05-29 09:56:34</time>
      </trkpt>
      <trkpt lat="43.20949" lon="-2.03408">
        <ele>35.8</ele>
        <time>2021-05-29 09:56:35</time>
      </trkpt>
      <trkpt lat="43.20942" lon="-2.03397">
        <ele>35.8</ele>
        <time>2021-05-29 09:56:36</time>
      </trkpt>
      <trkpt lat="43.20936" lon="-2.03386">
        <ele>35.6</ele>
        <time>2021-05-29 09:56:37</time>
      </trkpt>
      <trkpt lat="43.20929" lon="-2.03376">
        <ele>35.4</ele>
        <time>2021-05-29 09:56:38</time>
      </trkpt>
      <trkpt lat="43.20921" lon="-2.03367">
        <ele>35.4</ele>
        <time>2021-05-29 09:56:39</time>
      </trkpt>
      <trkpt lat="43.20914" lon="-2.03358">
        <ele>35.4</ele>
        <time>2021-05-29 09:56:40</time>
      </trkpt>
      <trkpt lat="43.20906" lon="-2.03349">
        <ele>35.2</ele>
        <time>2021-05-29 09:56:41</time>
      </trkpt>
      <trkpt lat="43.20899" lon="-2.0334">
        <ele>35.2</ele>
        <time>2021-05-29 09:56:42</time>
      </trkpt>
      <trkpt lat="43.20891" lon="-2.03332">
        <ele>35.2</ele>
        <time>2021-05-29 09:56:43</time>
      </trkpt>
      <trkpt lat="43.20884" lon="-2.03323">
        <ele>35.2</ele>
        <time>2021-05-29 09:56:44</time>
      </trkpt>
      <trkpt lat="43.20877" lon="-2.03315">
        <ele>35.2</ele>
        <time>2021-05-29 09:56:45</time>
      </trkpt>
      <trkpt lat="43.2087" lon="-2.03306">
        <ele>35.2</ele>
        <time>2021-05-29 09:56:46</time>
      </trkpt>
      <trkpt lat="43.20863" lon="-2.03298">
        <ele>35</ele>
        <time>2021-05-29 09:56:47</time>
      </trkpt>
      <trkpt lat="43.20856" lon="-2.03289">
        <ele>34.8</ele>
        <time>2021-05-29 09:56:48</time>
      </trkpt>
      <trkpt lat="43.2085" lon="-2.03281">
        <ele>34.8</ele>
        <time>2021-05-29 09:56:49</time>
      </trkpt>
      <trkpt lat="43.20843" lon="-2.03273">
        <ele>34.8</ele>
        <time>2021-05-29 09:56:50</time>
      </trkpt>
      <trkpt lat="43.20837" lon="-2.03266">
        <ele>34.6</ele>
        <time>2021-05-29 09:56:51</time>
      </trkpt>
      <trkpt lat="43.20832" lon="-2.03259">
        <ele>34.6</ele>
        <time>2021-05-29 09:56:52</time>
      </trkpt>
      <trkpt lat="43.20827" lon="-2.03252">
        <ele>34.6</ele>
        <time>2021-05-29 09:56:53</time>
      </trkpt>
      <trkpt lat="43.20821" lon="-2.03245">
        <ele>34.6</ele>
        <time>2021-05-29 09:56:54</time>
      </trkpt>
      <trkpt lat="43.20816" lon="-2.03239">
        <ele>34.4</ele>
        <time>2021-05-29 09:56:55</time>
      </trkpt>
      <trkpt lat="43.20811" lon="-2.03233">
        <ele>34.6</ele>
        <time>2021-05-29 09:56:56</time>
      </trkpt>
      <trkpt lat="43.20807" lon="-2.03227">
        <ele>34.6</ele>
        <time>2021-05-29 09:56:57</time>
      </trkpt>
      <trkpt lat="43.20804" lon="-2.03221">
        <ele>34.6</ele>
        <time>2021-05-29 09:56:58</time>
      </trkpt>
      <trkpt lat="43.20803" lon="-2.03213">
        <ele>34.6</ele>
        <time>2021-05-29 09:56:59</time>
      </trkpt>
      <trkpt lat="43.20803" lon="-2.03204">
        <ele>34.4</ele>
        <time>2021-05-29 09:57:00</time>
      </trkpt>
      <trkpt lat="43.20806" lon="-2.03196">
        <ele>34.6</ele>
        <time>2021-05-29 09:57:01</time>
      </trkpt>
      <trkpt lat="43.2081" lon="-2.03189">
        <ele>34.6</ele>
        <time>2021-05-29 09:57:02</time>
      </trkpt>
      <trkpt lat="43.20815" lon="-2.03181">
        <ele>34.6</ele>
        <time>2021-05-29 09:57:03</time>
      </trkpt>
      <trkpt lat="43.2082" lon="-2.03174">
        <ele>34.6</ele>
        <time>2021-05-29 09:57:04</time>
      </trkpt>
      <trkpt lat="43.20824" lon="-2.03167">
        <ele>34.6</ele>
        <time>2021-05-29 09:57:05</time>
      </trkpt>
      <trkpt lat="43.20828" lon="-2.0316">
        <ele>34.6</ele>
        <time>2021-05-29 09:57:06</time>
      </trkpt>
      <trkpt lat="43.20832" lon="-2.03153">
        <ele>34.6</ele>
        <time>2021-05-29 09:57:07</time>
      </trkpt>
      <trkpt lat="43.20837" lon="-2.03146">
        <ele>34.8</ele>
        <time>2021-05-29 09:57:08</time>
      </trkpt>
      <trkpt lat="43.20841" lon="-2.03139">
        <ele>34.8</ele>
        <time>2021-05-29 09:57:09</time>
      </trkpt>
      <trkpt lat="43.20846" lon="-2.03132">
        <ele>34.8</ele>
        <time>2021-05-29 09:57:10</time>
      </trkpt>
      <trkpt lat="43.20852" lon="-2.03126">
        <ele>34.8</ele>
        <time>2021-05-29 09:57:11</time>
      </trkpt>
      <trkpt lat="43.20857" lon="-2.03119">
        <ele>35</ele>
        <time>2021-05-29 09:57:12</time>
      </trkpt>
      <trkpt lat="43.20862" lon="-2.03112">
        <ele>35</ele>
        <time>2021-05-29 09:57:13</time>
      </trkpt>
      <trkpt lat="43.20868" lon="-2.03105">
        <ele>35.2</ele>
        <time>2021-05-29 09:57:14</time>
      </trkpt>
      <trkpt lat="43.20873" lon="-2.03098">
        <ele>35.2</ele>
        <time>2021-05-29 09:57:15</time>
      </trkpt>
      <trkpt lat="43.20879" lon="-2.0309">
        <ele>35.4</ele>
        <time>2021-05-29 09:57:16</time>
      </trkpt>
      <trkpt lat="43.20884" lon="-2.03082">
        <ele>35.4</ele>
        <time>2021-05-29 09:57:17</time>
      </trkpt>
      <trkpt lat="43.2089" lon="-2.03074">
        <ele>35.6</ele>
        <time>2021-05-29 09:57:18</time>
      </trkpt>
      <trkpt lat="43.20896" lon="-2.03067">
        <ele>35.8</ele>
        <time>2021-05-29 09:57:19</time>
      </trkpt>
      <trkpt lat="43.20901" lon="-2.03059">
        <ele>36</ele>
        <time>2021-05-29 09:57:20</time>
      </trkpt>
      <trkpt lat="43.20907" lon="-2.03051">
        <ele>36</ele>
        <time>2021-05-29 09:57:21</time>
      </trkpt>
      <trkpt lat="43.20913" lon="-2.03044">
        <ele>36.2</ele>
        <time>2021-05-29 09:57:22</time>
      </trkpt>
      <trkpt lat="43.20918" lon="-2.03036">
        <ele>36.2</ele>
        <time>2021-05-29 09:57:23</time>
      </trkpt>
      <trkpt lat="43.20924" lon="-2.03028">
        <ele>36.2</ele>
        <time>2021-05-29 09:57:24</time>
      </trkpt>
      <trkpt lat="43.20929" lon="-2.0302">
        <ele>36.4</ele>
        <time>2021-05-29 09:57:25</time>
      </trkpt>
      <trkpt lat="43.20935" lon="-2.03012">
        <ele>36.2</ele>
        <time>2021-05-29 09:57:26</time>
      </trkpt>
      <trkpt lat="43.2094" lon="-2.03004">
        <ele>36.4</ele>
        <time>2021-05-29 09:57:27</time>
      </trkpt>
      <trkpt lat="43.20946" lon="-2.02996">
        <ele>36.4</ele>
        <time>2021-05-29 09:57:28</time>
      </trkpt>
      <trkpt lat="43.20952" lon="-2.02989">
        <ele>36.4</ele>
        <time>2021-05-29 09:57:29</time>
      </trkpt>
      <trkpt lat="43.20957" lon="-2.02982">
        <ele>36.4</ele>
        <time>2021-05-29 09:57:30</time>
      </trkpt>
      <trkpt lat="43.20962" lon="-2.02975">
        <ele>36.6</ele>
        <time>2021-05-29 09:57:31</time>
      </trkpt>
      <trkpt lat="43.20968" lon="-2.02968">
        <ele>36.6</ele>
        <time>2021-05-29 09:57:32</time>
      </trkpt>
      <trkpt lat="43.20973" lon="-2.0296">
        <ele>36.4</ele>
        <time>2021-05-29 09:57:33</time>
      </trkpt>
      <trkpt lat="43.20978" lon="-2.02953">
        <ele>36.4</ele>
        <time>2021-05-29 09:57:34</time>
      </trkpt>
      <trkpt lat="43.20984" lon="-2.02945">
        <ele>36.4</ele>
        <time>2021-05-29 09:57:35</time>
      </trkpt>
      <trkpt lat="43.20989" lon="-2.02937">
        <ele>36.4</ele>
        <time>2021-05-29 09:57:36</time>
      </trkpt>
      <trkpt lat="43.20995" lon="-2.02929">
        <ele>36.4</ele>
        <time>2021-05-29 09:57:37</time>
      </trkpt>
      <trkpt lat="43.21" lon="-2.0292">
        <ele>36.4</ele>
        <time>2021-05-29 09:57:38</time>
      </trkpt>
      <trkpt lat="43.21005" lon="-2.02911">
        <ele>36.4</ele>
        <time>2021-05-29 09:57:39</time>
      </trkpt>
      <trkpt lat="43.2101" lon="-2.02902">
        <ele>36.6</ele>
        <time>2021-05-29 09:57:40</time>
      </trkpt>
      <trkpt lat="43.21016" lon="-2.02893">
        <ele>36.6</ele>
        <time>2021-05-29 09:57:41</time>
      </trkpt>
      <trkpt lat="43.21022" lon="-2.02885">
        <ele>36.4</ele>
        <time>2021-05-29 09:57:42</time>
      </trkpt>
      <trkpt lat="43.21027" lon="-2.02876">
        <ele>36.4</ele>
        <time>2021-05-29 09:57:43</time>
      </trkpt>
      <trkpt lat="43.21032" lon="-2.02867">
        <ele>36.2</ele>
        <time>2021-05-29 09:57:44</time>
      </trkpt>
      <trkpt lat="43.21038" lon="-2.02858">
        <ele>36.2</ele>
        <time>2021-05-29 09:57:45</time>
      </trkpt>
      <trkpt lat="43.21043" lon="-2.0285">
        <ele>36.2</ele>
        <time>2021-05-29 09:57:46</time>
      </trkpt>
      <trkpt lat="43.21049" lon="-2.02841">
        <ele>36.2</ele>
        <time>2021-05-29 09:57:47</time>
      </trkpt>
      <trkpt lat="43.21055" lon="-2.02833">
        <ele>36</ele>
        <time>2021-05-29 09:57:48</time>
      </trkpt>
      <trkpt lat="43.2106" lon="-2.02824">
        <ele>36</ele>
        <time>2021-05-29 09:57:49</time>
      </trkpt>
      <trkpt lat="43.21066" lon="-2.02816">
        <ele>36</ele>
        <time>2021-05-29 09:57:50</time>
      </trkpt>
      <trkpt lat="43.21071" lon="-2.02808">
        <ele>36</ele>
        <time>2021-05-29 09:57:51</time>
      </trkpt>
      <trkpt lat="43.21076" lon="-2.02799">
        <ele>35.8</ele>
        <time>2021-05-29 09:57:52</time>
      </trkpt>
      <trkpt lat="43.21082" lon="-2.0279">
        <ele>35.8</ele>
        <time>2021-05-29 09:57:53</time>
      </trkpt>
      <trkpt lat="43.21087" lon="-2.02781">
        <ele>35.8</ele>
        <time>2021-05-29 09:57:54</time>
      </trkpt>
      <trkpt lat="43.21092" lon="-2.02772">
        <ele>35.8</ele>
        <time>2021-05-29 09:57:55</time>
      </trkpt>
      <trkpt lat="43.21096" lon="-2.02763">
        <ele>35.6</ele>
        <time>2021-05-29 09:57:56</time>
      </trkpt>
      <trkpt lat="43.21099" lon="-2.02754">
        <ele>35.6</ele>
        <time>2021-05-29 09:57:57</time>
      </trkpt>
      <trkpt lat="43.21103" lon="-2.02745">
        <ele>35.2</ele>
        <time>2021-05-29 09:57:58</time>
      </trkpt>
      <trkpt lat="43.21107" lon="-2.02735">
        <ele>35.2</ele>
        <time>2021-05-29 09:57:59</time>
      </trkpt>
      <trkpt lat="43.21111" lon="-2.02726">
        <ele>35</ele>
        <time>2021-05-29 09:58:00</time>
      </trkpt>
      <trkpt lat="43.21114" lon="-2.02716">
        <ele>34.8</ele>
        <time>2021-05-29 09:58:01</time>
      </trkpt>
      <trkpt lat="43.21117" lon="-2.02707">
        <ele>34.8</ele>
        <time>2021-05-29 09:58:02</time>
      </trkpt>
      <trkpt lat="43.2112" lon="-2.02697">
        <ele>34.8</ele>
        <time>2021-05-29 09:58:03</time>
      </trkpt>
      <trkpt lat="43.21124" lon="-2.02687">
        <ele>34.4</ele>
        <time>2021-05-29 09:58:04</time>
      </trkpt>
      <trkpt lat="43.21127" lon="-2.02677">
        <ele>34.4</ele>
        <time>2021-05-29 09:58:05</time>
      </trkpt>
      <trkpt lat="43.2113" lon="-2.02668">
        <ele>34.4</ele>
        <time>2021-05-29 09:58:06</time>
      </trkpt>
      <trkpt lat="43.21134" lon="-2.02659">
        <ele>34.2</ele>
        <time>2021-05-29 09:58:07</time>
      </trkpt>
      <trkpt lat="43.21137" lon="-2.0265">
        <ele>34.2</ele>
        <time>2021-05-29 09:58:08</time>
      </trkpt>
      <trkpt lat="43.21141" lon="-2.02641">
        <ele>34</ele>
        <time>2021-05-29 09:58:09</time>
      </trkpt>
      <trkpt lat="43.21146" lon="-2.02631">
        <ele>34</ele>
        <time>2021-05-29 09:58:10</time>
      </trkpt>
      <trkpt lat="43.2115" lon="-2.02622">
        <ele>34</ele>
        <time>2021-05-29 09:58:11</time>
      </trkpt>
      <trkpt lat="43.21152" lon="-2.02613">
        <ele>33.8</ele>
        <time>2021-05-29 09:58:12</time>
      </trkpt>
      <trkpt lat="43.21159" lon="-2.02604">
        <ele>33.8</ele>
        <time>2021-05-29 09:58:13</time>
      </trkpt>
      <trkpt lat="43.21165" lon="-2.02595">
        <ele>33.6</ele>
        <time>2021-05-29 09:58:14</time>
      </trkpt>
      <trkpt lat="43.21169" lon="-2.02585">
        <ele>33.6</ele>
        <time>2021-05-29 09:58:15</time>
      </trkpt>
      <trkpt lat="43.21176" lon="-2.02577">
        <ele>33.6</ele>
        <time>2021-05-29 09:58:16</time>
      </trkpt>
      <trkpt lat="43.21181" lon="-2.02568">
        <ele>33.6</ele>
        <time>2021-05-29 09:58:17</time>
      </trkpt>
      <trkpt lat="43.21185" lon="-2.02559">
        <ele>33.4</ele>
        <time>2021-05-29 09:58:18</time>
      </trkpt>
      <trkpt lat="43.21191" lon="-2.02551">
        <ele>33.4</ele>
        <time>2021-05-29 09:58:19</time>
      </trkpt>
      <trkpt lat="43.21197" lon="-2.02543">
        <ele>33.4</ele>
        <time>2021-05-29 09:58:20</time>
      </trkpt>
      <trkpt lat="43.21202" lon="-2.02535">
        <ele>33.2</ele>
        <time>2021-05-29 09:58:21</time>
      </trkpt>
      <trkpt lat="43.21208" lon="-2.02528">
        <ele>33.2</ele>
        <time>2021-05-29 09:58:22</time>
      </trkpt>
      <trkpt lat="43.21213" lon="-2.0252">
        <ele>33.4</ele>
        <time>2021-05-29 09:58:23</time>
      </trkpt>
      <trkpt lat="43.21219" lon="-2.02513">
        <ele>33.4</ele>
        <time>2021-05-29 09:58:24</time>
      </trkpt>
      <trkpt lat="43.21223" lon="-2.02506">
        <ele>33.2</ele>
        <time>2021-05-29 09:58:25</time>
      </trkpt>
      <trkpt lat="43.21226" lon="-2.025">
        <ele>33.2</ele>
        <time>2021-05-29 09:58:26</time>
      </trkpt>
      <trkpt lat="43.21227" lon="-2.02493">
        <ele>33</ele>
        <time>2021-05-29 09:58:27</time>
      </trkpt>
      <trkpt lat="43.21231" lon="-2.02487">
        <ele>33</ele>
        <time>2021-05-29 09:58:28</time>
      </trkpt>
      <trkpt lat="43.21234" lon="-2.02481">
        <ele>32.8</ele>
        <time>2021-05-29 09:58:29</time>
      </trkpt>
      <trkpt lat="43.21237" lon="-2.02476">
        <ele>32.8</ele>
        <time>2021-05-29 09:58:30</time>
      </trkpt>
      <trkpt lat="43.21241" lon="-2.02473">
        <ele>32.8</ele>
        <time>2021-05-29 09:58:31</time>
      </trkpt>
      <trkpt lat="43.21244" lon="-2.02471">
        <ele>32.6</ele>
        <time>2021-05-29 09:58:32</time>
      </trkpt>
      <trkpt lat="43.21248" lon="-2.02469">
        <ele>32.6</ele>
        <time>2021-05-29 09:58:33</time>
      </trkpt>
      <trkpt lat="43.21251" lon="-2.02467">
        <ele>32.6</ele>
        <time>2021-05-29 09:58:34</time>
      </trkpt>
      <trkpt lat="43.21255" lon="-2.02463">
        <ele>32.4</ele>
        <time>2021-05-29 09:58:35</time>
      </trkpt>
      <trkpt lat="43.21259" lon="-2.02459">
        <ele>32.2</ele>
        <time>2021-05-29 09:58:36</time>
      </trkpt>
      <trkpt lat="43.21262" lon="-2.02453">
        <ele>32</ele>
        <time>2021-05-29 09:58:37</time>
      </trkpt>
      <trkpt lat="43.21265" lon="-2.02448">
        <ele>31.8</ele>
        <time>2021-05-29 09:58:38</time>
      </trkpt>
      <trkpt lat="43.21269" lon="-2.02442">
        <ele>31.8</ele>
        <time>2021-05-29 09:58:39</time>
      </trkpt>
      <trkpt lat="43.21273" lon="-2.02434">
        <ele>31.6</ele>
        <time>2021-05-29 09:58:40</time>
      </trkpt>
      <trkpt lat="43.21276" lon="-2.02426">
        <ele>31.6</ele>
        <time>2021-05-29 09:58:41</time>
      </trkpt>
      <trkpt lat="43.21281" lon="-2.02419">
        <ele>31.6</ele>
        <time>2021-05-29 09:58:42</time>
      </trkpt>
      <trkpt lat="43.21285" lon="-2.02411">
        <ele>31.6</ele>
        <time>2021-05-29 09:58:43</time>
      </trkpt>
      <trkpt lat="43.2129" lon="-2.02403">
        <ele>31.6</ele>
        <time>2021-05-29 09:58:44</time>
      </trkpt>
      <trkpt lat="43.21296" lon="-2.02396">
        <ele>31.4</ele>
        <time>2021-05-29 09:58:45</time>
      </trkpt>
      <trkpt lat="43.213" lon="-2.0239">
        <ele>31.4</ele>
        <time>2021-05-29 09:58:46</time>
      </trkpt>
      <trkpt lat="43.21305" lon="-2.02383">
        <ele>31.2</ele>
        <time>2021-05-29 09:58:47</time>
      </trkpt>
      <trkpt lat="43.2131" lon="-2.02376">
        <ele>31.2</ele>
        <time>2021-05-29 09:58:48</time>
      </trkpt>
      <trkpt lat="43.21315" lon="-2.02369">
        <ele>31.2</ele>
        <time>2021-05-29 09:58:49</time>
      </trkpt>
      <trkpt lat="43.21321" lon="-2.02362">
        <ele>31.4</ele>
        <time>2021-05-29 09:58:50</time>
      </trkpt>
      <trkpt lat="43.21326" lon="-2.02355">
        <ele>31.2</ele>
        <time>2021-05-29 09:58:51</time>
      </trkpt>
      <trkpt lat="43.21331" lon="-2.02348">
        <ele>31.2</ele>
        <time>2021-05-29 09:58:52</time>
      </trkpt>
      <trkpt lat="43.21336" lon="-2.02342">
        <ele>31</ele>
        <time>2021-05-29 09:58:53</time>
      </trkpt>
      <trkpt lat="43.21342" lon="-2.02336">
        <ele>31</ele>
        <time>2021-05-29 09:58:54</time>
      </trkpt>
      <trkpt lat="43.21347" lon="-2.0233">
        <ele>30.8</ele>
        <time>2021-05-29 09:58:55</time>
      </trkpt>
      <trkpt lat="43.21352" lon="-2.02324">
        <ele>30.6</ele>
        <time>2021-05-29 09:58:56</time>
      </trkpt>
      <trkpt lat="43.21356" lon="-2.02316">
        <ele>30.6</ele>
        <time>2021-05-29 09:58:57</time>
      </trkpt>
      <trkpt lat="43.2136" lon="-2.02308">
        <ele>30.6</ele>
        <time>2021-05-29 09:58:58</time>
      </trkpt>
      <trkpt lat="43.21364" lon="-2.02299">
        <ele>30.6</ele>
        <time>2021-05-29 09:58:59</time>
      </trkpt>
      <trkpt lat="43.21367" lon="-2.02288">
        <ele>30.4</ele>
        <time>2021-05-29 09:59:00</time>
      </trkpt>
      <trkpt lat="43.21369" lon="-2.02278">
        <ele>30.4</ele>
        <time>2021-05-29 09:59:01</time>
      </trkpt>
      <trkpt lat="43.21371" lon="-2.02268">
        <ele>30.4</ele>
        <time>2021-05-29 09:59:02</time>
      </trkpt>
      <trkpt lat="43.21373" lon="-2.02258">
        <ele>30.2</ele>
        <time>2021-05-29 09:59:03</time>
      </trkpt>
      <trkpt lat="43.21375" lon="-2.02248">
        <ele>30.2</ele>
        <time>2021-05-29 09:59:04</time>
      </trkpt>
      <trkpt lat="43.21377" lon="-2.02238">
        <ele>30.2</ele>
        <time>2021-05-29 09:59:05</time>
      </trkpt>
      <trkpt lat="43.2138" lon="-2.02228">
        <ele>30.2</ele>
        <time>2021-05-29 09:59:06</time>
      </trkpt>
      <trkpt lat="43.21382" lon="-2.02219">
        <ele>30</ele>
        <time>2021-05-29 09:59:07</time>
      </trkpt>
      <trkpt lat="43.21384" lon="-2.02209">
        <ele>30</ele>
        <time>2021-05-29 09:59:08</time>
      </trkpt>
      <trkpt lat="43.21386" lon="-2.022">
        <ele>30</ele>
        <time>2021-05-29 09:59:09</time>
      </trkpt>
      <trkpt lat="43.21387" lon="-2.0219">
        <ele>30</ele>
        <time>2021-05-29 09:59:10</time>
      </trkpt>
      <trkpt lat="43.21389" lon="-2.02181">
        <ele>30</ele>
        <time>2021-05-29 09:59:11</time>
      </trkpt>
      <trkpt lat="43.2139" lon="-2.02171">
        <ele>30.2</ele>
        <time>2021-05-29 09:59:12</time>
      </trkpt>
      <trkpt lat="43.21391" lon="-2.02162">
        <ele>30.2</ele>
        <time>2021-05-29 09:59:13</time>
      </trkpt>
      <trkpt lat="43.21392" lon="-2.02153">
        <ele>30.2</ele>
        <time>2021-05-29 09:59:14</time>
      </trkpt>
      <trkpt lat="43.21393" lon="-2.02143">
        <ele>30.4</ele>
        <time>2021-05-29 09:59:15</time>
      </trkpt>
      <trkpt lat="43.21394" lon="-2.02133">
        <ele>30.4</ele>
        <time>2021-05-29 09:59:16</time>
      </trkpt>
      <trkpt lat="43.21395" lon="-2.02123">
        <ele>30.6</ele>
        <time>2021-05-29 09:59:17</time>
      </trkpt>
      <trkpt lat="43.21398" lon="-2.02113">
        <ele>30.4</ele>
        <time>2021-05-29 09:59:18</time>
      </trkpt>
      <trkpt lat="43.21402" lon="-2.02105">
        <ele>30.6</ele>
        <time>2021-05-29 09:59:19</time>
      </trkpt>
      <trkpt lat="43.21407" lon="-2.02098">
        <ele>30.4</ele>
        <time>2021-05-29 09:59:20</time>
      </trkpt>
      <trkpt lat="43.21413" lon="-2.02092">
        <ele>30.6</ele>
        <time>2021-05-29 09:59:21</time>
      </trkpt>
      <trkpt lat="43.21419" lon="-2.02088">
        <ele>30.8</ele>
        <time>2021-05-29 09:59:22</time>
      </trkpt>
      <trkpt lat="43.21426" lon="-2.02086">
        <ele>30.8</ele>
        <time>2021-05-29 09:59:23</time>
      </trkpt>
      <trkpt lat="43.21433" lon="-2.02085">
        <ele>30.8</ele>
        <time>2021-05-29 09:59:24</time>
      </trkpt>
      <trkpt lat="43.2144" lon="-2.02084">
        <ele>31</ele>
        <time>2021-05-29 09:59:25</time>
      </trkpt>
      <trkpt lat="43.21447" lon="-2.02084">
        <ele>31</ele>
        <time>2021-05-29 09:59:26</time>
      </trkpt>
      <trkpt lat="43.21454" lon="-2.02083">
        <ele>30.8</ele>
        <time>2021-05-29 09:59:27</time>
      </trkpt>
      <trkpt lat="43.21461" lon="-2.02083">
        <ele>31</ele>
        <time>2021-05-29 09:59:28</time>
      </trkpt>
      <trkpt lat="43.21467" lon="-2.02083">
        <ele>31</ele>
        <time>2021-05-29 09:59:29</time>
      </trkpt>
      <trkpt lat="43.21474" lon="-2.02083">
        <ele>31</ele>
        <time>2021-05-29 09:59:30</time>
      </trkpt>
      <trkpt lat="43.2148" lon="-2.02083">
        <ele>31.2</ele>
        <time>2021-05-29 09:59:31</time>
      </trkpt>
      <trkpt lat="43.21487" lon="-2.02083">
        <ele>31.2</ele>
        <time>2021-05-29 09:59:32</time>
      </trkpt>
      <trkpt lat="43.21493" lon="-2.02083">
        <ele>31</ele>
        <time>2021-05-29 09:59:33</time>
      </trkpt>
      <trkpt lat="43.21499" lon="-2.02083">
        <ele>31.2</ele>
        <time>2021-05-29 09:59:34</time>
      </trkpt>
      <trkpt lat="43.21506" lon="-2.02083">
        <ele>31.2</ele>
        <time>2021-05-29 09:59:35</time>
      </trkpt>
      <trkpt lat="43.21512" lon="-2.02082">
        <ele>31.2</ele>
        <time>2021-05-29 09:59:36</time>
      </trkpt>
      <trkpt lat="43.21519" lon="-2.02082">
        <ele>31.4</ele>
        <time>2021-05-29 09:59:37</time>
      </trkpt>
      <trkpt lat="43.21525" lon="-2.02082">
        <ele>31.6</ele>
        <time>2021-05-29 09:59:38</time>
      </trkpt>
      <trkpt lat="43.21532" lon="-2.02082">
        <ele>31.8</ele>
        <time>2021-05-29 09:59:39</time>
      </trkpt>
      <trkpt lat="43.21539" lon="-2.02082">
        <ele>31.6</ele>
        <time>2021-05-29 09:59:40</time>
      </trkpt>
      <trkpt lat="43.21545" lon="-2.02082">
        <ele>31.8</ele>
        <time>2021-05-29 09:59:41</time>
      </trkpt>
      <trkpt lat="43.21552" lon="-2.02081">
        <ele>31.8</ele>
        <time>2021-05-29 09:59:42</time>
      </trkpt>
      <trkpt lat="43.21559" lon="-2.02081">
        <ele>31.8</ele>
        <time>2021-05-29 09:59:43</time>
      </trkpt>
      <trkpt lat="43.21565" lon="-2.02081">
        <ele>32</ele>
        <time>2021-05-29 09:59:44</time>
      </trkpt>
      <trkpt lat="43.21572" lon="-2.0208">
        <ele>32.2</ele>
        <time>2021-05-29 09:59:45</time>
      </trkpt>
      <trkpt lat="43.21579" lon="-2.0208">
        <ele>32.2</ele>
        <time>2021-05-29 09:59:46</time>
      </trkpt>
      <trkpt lat="43.21585" lon="-2.0208">
        <ele>32.4</ele>
        <time>2021-05-29 09:59:47</time>
      </trkpt>
      <trkpt lat="43.21592" lon="-2.0208">
        <ele>32.4</ele>
        <time>2021-05-29 09:59:48</time>
      </trkpt>
      <trkpt lat="43.21599" lon="-2.02079">
        <ele>32.4</ele>
        <time>2021-05-29 09:59:49</time>
      </trkpt>
      <trkpt lat="43.21606" lon="-2.02079">
        <ele>32.4</ele>
        <time>2021-05-29 09:59:50</time>
      </trkpt>
      <trkpt lat="43.21613" lon="-2.02078">
        <ele>32.6</ele>
        <time>2021-05-29 09:59:51</time>
      </trkpt>
      <trkpt lat="43.2162" lon="-2.02078">
        <ele>32.6</ele>
        <time>2021-05-29 09:59:52</time>
      </trkpt>
      <trkpt lat="43.21626" lon="-2.02078">
        <ele>32.6</ele>
        <time>2021-05-29 09:59:53</time>
      </trkpt>
      <trkpt lat="43.21633" lon="-2.02077">
        <ele>32.6</ele>
        <time>2021-05-29 09:59:54</time>
      </trkpt>
      <trkpt lat="43.21639" lon="-2.02077">
        <ele>32.8</ele>
        <time>2021-05-29 09:59:55</time>
      </trkpt>
      <trkpt lat="43.21645" lon="-2.02077">
        <ele>33</ele>
        <time>2021-05-29 09:59:56</time>
      </trkpt>
      <trkpt lat="43.21651" lon="-2.02078">
        <ele>33.2</ele>
        <time>2021-05-29 09:59:57</time>
      </trkpt>
      <trkpt lat="43.21657" lon="-2.02079">
        <ele>33.4</ele>
        <time>2021-05-29 09:59:58</time>
      </trkpt>
      <trkpt lat="43.21662" lon="-2.02077">
        <ele>33.4</ele>
        <time>2021-05-29 09:59:59</time>
      </trkpt>
      <trkpt lat="43.21666" lon="-2.02076">
        <ele>33.8</ele>
        <time>2021-05-29 10:00:00</time>
      </trkpt>
      <trkpt lat="43.21671" lon="-2.02077">
        <ele>34.2</ele>
        <time>2021-05-29 10:00:01</time>
      </trkpt>
      <trkpt lat="43.21675" lon="-2.02077">
        <ele>34.2</ele>
        <time>2021-05-29 10:00:02</time>
      </trkpt>
      <trkpt lat="43.2168" lon="-2.02076">
        <ele>34.4</ele>
        <time>2021-05-29 10:00:03</time>
      </trkpt>
      <trkpt lat="43.21686" lon="-2.02074">
        <ele>34.4</ele>
        <time>2021-05-29 10:00:04</time>
      </trkpt>
      <trkpt lat="43.21692" lon="-2.02074">
        <ele>34.6</ele>
        <time>2021-05-29 10:00:05</time>
      </trkpt>
      <trkpt lat="43.21699" lon="-2.02073">
        <ele>34.8</ele>
        <time>2021-05-29 10:00:06</time>
      </trkpt>
      <trkpt lat="43.21705" lon="-2.02071">
        <ele>34.8</ele>
        <time>2021-05-29 10:00:07</time>
      </trkpt>
      <trkpt lat="43.21711" lon="-2.0207">
        <ele>35</ele>
        <time>2021-05-29 10:00:08</time>
      </trkpt>
      <trkpt lat="43.21717" lon="-2.02069">
        <ele>35</ele>
        <time>2021-05-29 10:00:09</time>
      </trkpt>
      <trkpt lat="43.21723" lon="-2.02069">
        <ele>35.2</ele>
        <time>2021-05-29 10:00:10</time>
      </trkpt>
      <trkpt lat="43.21729" lon="-2.02068">
        <ele>35.2</ele>
        <time>2021-05-29 10:00:11</time>
      </trkpt>
      <trkpt lat="43.21735" lon="-2.02066">
        <ele>35.4</ele>
        <time>2021-05-29 10:00:12</time>
      </trkpt>
      <trkpt lat="43.21741" lon="-2.02066">
        <ele>35.6</ele>
        <time>2021-05-29 10:00:13</time>
      </trkpt>
      <trkpt lat="43.21748" lon="-2.02064">
        <ele>35.6</ele>
        <time>2021-05-29 10:00:14</time>
      </trkpt>
      <trkpt lat="43.21754" lon="-2.02062">
        <ele>36</ele>
        <time>2021-05-29 10:00:15</time>
      </trkpt>
      <trkpt lat="43.21761" lon="-2.02062">
        <ele>36</ele>
        <time>2021-05-29 10:00:16</time>
      </trkpt>
      <trkpt lat="43.21767" lon="-2.02064">
        <ele>36</ele>
        <time>2021-05-29 10:00:17</time>
      </trkpt>
      <trkpt lat="43.21773" lon="-2.02068">
        <ele>36.2</ele>
        <time>2021-05-29 10:00:18</time>
      </trkpt>
      <trkpt lat="43.21778" lon="-2.02073">
        <ele>36.4</ele>
        <time>2021-05-29 10:00:19</time>
      </trkpt>
      <trkpt lat="43.21783" lon="-2.02078">
        <ele>36.4</ele>
        <time>2021-05-29 10:00:20</time>
      </trkpt>
      <trkpt lat="43.21788" lon="-2.02081">
        <ele>36.8</ele>
        <time>2021-05-29 10:00:21</time>
      </trkpt>
      <trkpt lat="43.21794" lon="-2.02081">
        <ele>36.8</ele>
        <time>2021-05-29 10:00:22</time>
      </trkpt>
      <trkpt lat="43.21799" lon="-2.02078">
        <ele>36.8</ele>
        <time>2021-05-29 10:00:23</time>
      </trkpt>
      <trkpt lat="43.21804" lon="-2.02074">
        <ele>37.2</ele>
        <time>2021-05-29 10:00:24</time>
      </trkpt>
      <trkpt lat="43.21809" lon="-2.0207">
        <ele>37.4</ele>
        <time>2021-05-29 10:00:25</time>
      </trkpt>
      <trkpt lat="43.21814" lon="-2.02066">
        <ele>37.6</ele>
        <time>2021-05-29 10:00:26</time>
      </trkpt>
      <trkpt lat="43.21818" lon="-2.02063">
        <ele>38</ele>
        <time>2021-05-29 10:00:27</time>
      </trkpt>
      <trkpt lat="43.21823" lon="-2.0206">
        <ele>38</ele>
        <time>2021-05-29 10:00:28</time>
      </trkpt>
      <trkpt lat="43.21827" lon="-2.02056">
        <ele>38.2</ele>
        <time>2021-05-29 10:00:29</time>
      </trkpt>
      <trkpt lat="43.21832" lon="-2.02052">
        <ele>38.2</ele>
        <time>2021-05-29 10:00:30</time>
      </trkpt>
      <trkpt lat="43.21836" lon="-2.02047">
        <ele>38.6</ele>
        <time>2021-05-29 10:00:31</time>
      </trkpt>
      <trkpt lat="43.2184" lon="-2.02044">
        <ele>38.8</ele>
        <time>2021-05-29 10:00:32</time>
      </trkpt>
      <trkpt lat="43.21845" lon="-2.02041">
        <ele>39</ele>
        <time>2021-05-29 10:00:33</time>
      </trkpt>
      <trkpt lat="43.21849" lon="-2.02038">
        <ele>39.2</ele>
        <time>2021-05-29 10:00:34</time>
      </trkpt>
      <trkpt lat="43.21853" lon="-2.02036">
        <ele>39.2</ele>
        <time>2021-05-29 10:00:35</time>
      </trkpt>
      <trkpt lat="43.21857" lon="-2.02034">
        <ele>39.6</ele>
        <time>2021-05-29 10:00:36</time>
      </trkpt>
      <trkpt lat="43.21861" lon="-2.02033">
        <ele>39.8</ele>
        <time>2021-05-29 10:00:37</time>
      </trkpt>
      <trkpt lat="43.21864" lon="-2.0203">
        <ele>40.4</ele>
        <time>2021-05-29 10:00:38</time>
      </trkpt>
      <trkpt lat="43.21868" lon="-2.02028">
        <ele>40.6</ele>
        <time>2021-05-29 10:00:39</time>
      </trkpt>
      <trkpt lat="43.21872" lon="-2.02026">
        <ele>40.8</ele>
        <time>2021-05-29 10:00:40</time>
      </trkpt>
      <trkpt lat="43.21876" lon="-2.02024">
        <ele>41</ele>
        <time>2021-05-29 10:00:41</time>
      </trkpt>
      <trkpt lat="43.21879" lon="-2.02022">
        <ele>41.4</ele>
        <time>2021-05-29 10:00:42</time>
      </trkpt>
      <trkpt lat="43.21883" lon="-2.0202">
        <ele>41.6</ele>
        <time>2021-05-29 10:00:43</time>
      </trkpt>
      <trkpt lat="43.21887" lon="-2.02019">
        <ele>41.8</ele>
        <time>2021-05-29 10:00:44</time>
      </trkpt>
      <trkpt lat="43.2189" lon="-2.02018">
        <ele>42.2</ele>
        <time>2021-05-29 10:00:45</time>
      </trkpt>
      <trkpt lat="43.21893" lon="-2.02016">
        <ele>42.8</ele>
        <time>2021-05-29 10:00:46</time>
      </trkpt>
      <trkpt lat="43.21897" lon="-2.02013">
        <ele>43</ele>
        <time>2021-05-29 10:00:47</time>
      </trkpt>
      <trkpt lat="43.219" lon="-2.02011">
        <ele>43.4</ele>
        <time>2021-05-29 10:00:48</time>
      </trkpt>
      <trkpt lat="43.21903" lon="-2.02008">
        <ele>43.6</ele>
        <time>2021-05-29 10:00:49</time>
      </trkpt>
      <trkpt lat="43.21905" lon="-2.02004">
        <ele>44</ele>
        <time>2021-05-29 10:00:50</time>
      </trkpt>
      <trkpt lat="43.21908" lon="-2.02">
        <ele>44.6</ele>
        <time>2021-05-29 10:00:51</time>
      </trkpt>
      <trkpt lat="43.21912" lon="-2.01997">
        <ele>44.8</ele>
        <time>2021-05-29 10:00:52</time>
      </trkpt>
      <trkpt lat="43.21916" lon="-2.01993">
        <ele>45</ele>
        <time>2021-05-29 10:00:53</time>
      </trkpt>
      <trkpt lat="43.2192" lon="-2.01991">
        <ele>45.6</ele>
        <time>2021-05-29 10:00:54</time>
      </trkpt>
      <trkpt lat="43.21924" lon="-2.01987">
        <ele>46</ele>
        <time>2021-05-29 10:00:55</time>
      </trkpt>
      <trkpt lat="43.21928" lon="-2.01983">
        <ele>46.2</ele>
        <time>2021-05-29 10:00:56</time>
      </trkpt>
      <trkpt lat="43.21932" lon="-2.0198">
        <ele>46.8</ele>
        <time>2021-05-29 10:00:57</time>
      </trkpt>
      <trkpt lat="43.21936" lon="-2.01977">
        <ele>47</ele>
        <time>2021-05-29 10:00:58</time>
      </trkpt>
      <trkpt lat="43.21941" lon="-2.01974">
        <ele>47.6</ele>
        <time>2021-05-29 10:00:59</time>
      </trkpt>
      <trkpt lat="43.21946" lon="-2.01972">
        <ele>48.2</ele>
        <time>2021-05-29 10:01:00</time>
      </trkpt>
      <trkpt lat="43.21953" lon="-2.01969">
        <ele>48.8</ele>
        <time>2021-05-29 10:01:01</time>
      </trkpt>
      <trkpt lat="43.2196" lon="-2.01967">
        <ele>49</ele>
        <time>2021-05-29 10:01:02</time>
      </trkpt>
      <trkpt lat="43.21966" lon="-2.01965">
        <ele>49.6</ele>
        <time>2021-05-29 10:01:03</time>
      </trkpt>
      <trkpt lat="43.21971" lon="-2.01962">
        <ele>49.8</ele>
        <time>2021-05-29 10:01:04</time>
      </trkpt>
      <trkpt lat="43.21977" lon="-2.0196">
        <ele>50.2</ele>
        <time>2021-05-29 10:01:05</time>
      </trkpt>
      <trkpt lat="43.21983" lon="-2.01957">
        <ele>50.4</ele>
        <time>2021-05-29 10:01:06</time>
      </trkpt>
      <trkpt lat="43.21988" lon="-2.01955">
        <ele>50.6</ele>
        <time>2021-05-29 10:01:07</time>
      </trkpt>
      <trkpt lat="43.21994" lon="-2.01953">
        <ele>50.4</ele>
        <time>2021-05-29 10:01:08</time>
      </trkpt>
      <trkpt lat="43.21999" lon="-2.01951">
        <ele>50.8</ele>
        <time>2021-05-29 10:01:09</time>
      </trkpt>
      <trkpt lat="43.22005" lon="-2.01948">
        <ele>50.8</ele>
        <time>2021-05-29 10:01:10</time>
      </trkpt>
      <trkpt lat="43.2201" lon="-2.01944">
        <ele>51</ele>
        <time>2021-05-29 10:01:11</time>
      </trkpt>
      <trkpt lat="43.22016" lon="-2.0194">
        <ele>51.2</ele>
        <time>2021-05-29 10:01:12</time>
      </trkpt>
      <trkpt lat="43.22022" lon="-2.01936">
        <ele>51.4</ele>
        <time>2021-05-29 10:01:13</time>
      </trkpt>
      <trkpt lat="43.22028" lon="-2.01931">
        <ele>51.6</ele>
        <time>2021-05-29 10:01:14</time>
      </trkpt>
      <trkpt lat="43.22035" lon="-2.01925">
        <ele>51.6</ele>
        <time>2021-05-29 10:01:15</time>
      </trkpt>
      <trkpt lat="43.22042" lon="-2.01919">
        <ele>51.6</ele>
        <time>2021-05-29 10:01:16</time>
      </trkpt>
      <trkpt lat="43.22049" lon="-2.01913">
        <ele>51.6</ele>
        <time>2021-05-29 10:01:17</time>
      </trkpt>
      <trkpt lat="43.22056" lon="-2.01907">
        <ele>51.6</ele>
        <time>2021-05-29 10:01:18</time>
      </trkpt>
      <trkpt lat="43.22064" lon="-2.01901">
        <ele>51.6</ele>
        <time>2021-05-29 10:01:19</time>
      </trkpt>
      <trkpt lat="43.22072" lon="-2.01893">
        <ele>51.6</ele>
        <time>2021-05-29 10:01:20</time>
      </trkpt>
      <trkpt lat="43.22079" lon="-2.01885">
        <ele>51.6</ele>
        <time>2021-05-29 10:01:21</time>
      </trkpt>
      <trkpt lat="43.22087" lon="-2.01877">
        <ele>51.6</ele>
        <time>2021-05-29 10:01:22</time>
      </trkpt>
      <trkpt lat="43.22094" lon="-2.01869">
        <ele>51.6</ele>
        <time>2021-05-29 10:01:23</time>
      </trkpt>
      <trkpt lat="43.22102" lon="-2.01862">
        <ele>51.4</ele>
        <time>2021-05-29 10:01:24</time>
      </trkpt>
      <trkpt lat="43.22108" lon="-2.01854">
        <ele>51.2</ele>
        <time>2021-05-29 10:01:25</time>
      </trkpt>
      <trkpt lat="43.22115" lon="-2.01845">
        <ele>51</ele>
        <time>2021-05-29 10:01:26</time>
      </trkpt>
      <trkpt lat="43.22121" lon="-2.01836">
        <ele>50.6</ele>
        <time>2021-05-29 10:01:27</time>
      </trkpt>
      <trkpt lat="43.22126" lon="-2.01827">
        <ele>50.2</ele>
        <time>2021-05-29 10:01:28</time>
      </trkpt>
      <trkpt lat="43.22131" lon="-2.01816">
        <ele>49.8</ele>
        <time>2021-05-29 10:01:29</time>
      </trkpt>
      <trkpt lat="43.22136" lon="-2.01803">
        <ele>48.4</ele>
        <time>2021-05-29 10:01:30</time>
      </trkpt>
      <trkpt lat="43.22141" lon="-2.0179">
        <ele>47.6</ele>
        <time>2021-05-29 10:01:31</time>
      </trkpt>
      <trkpt lat="43.22146" lon="-2.01778">
        <ele>47</ele>
        <time>2021-05-29 10:01:32</time>
      </trkpt>
      <trkpt lat="43.2215" lon="-2.01766">
        <ele>46.2</ele>
        <time>2021-05-29 10:01:33</time>
      </trkpt>
      <trkpt lat="43.22154" lon="-2.01753">
        <ele>45.4</ele>
        <time>2021-05-29 10:01:34</time>
      </trkpt>
      <trkpt lat="43.22157" lon="-2.01741">
        <ele>44.6</ele>
        <time>2021-05-29 10:01:35</time>
      </trkpt>
      <trkpt lat="43.22159" lon="-2.01729">
        <ele>43.8</ele>
        <time>2021-05-29 10:01:36</time>
      </trkpt>
      <trkpt lat="43.22162" lon="-2.01717">
        <ele>42.8</ele>
        <time>2021-05-29 10:01:37</time>
      </trkpt>
      <trkpt lat="43.22167" lon="-2.01706">
        <ele>42.2</ele>
        <time>2021-05-29 10:01:38</time>
      </trkpt>
      <trkpt lat="43.22172" lon="-2.01697">
        <ele>41.2</ele>
        <time>2021-05-29 10:01:39</time>
      </trkpt>
      <trkpt lat="43.22177" lon="-2.01688">
        <ele>40.6</ele>
        <time>2021-05-29 10:01:40</time>
      </trkpt>
      <trkpt lat="43.22183" lon="-2.01679">
        <ele>40.2</ele>
        <time>2021-05-29 10:01:41</time>
      </trkpt>
      <trkpt lat="43.22188" lon="-2.0167">
        <ele>39.4</ele>
        <time>2021-05-29 10:01:42</time>
      </trkpt>
      <trkpt lat="43.22193" lon="-2.01661">
        <ele>39</ele>
        <time>2021-05-29 10:01:43</time>
      </trkpt>
      <trkpt lat="43.22198" lon="-2.01653">
        <ele>38.2</ele>
        <time>2021-05-29 10:01:44</time>
      </trkpt>
      <trkpt lat="43.22203" lon="-2.01645">
        <ele>37.8</ele>
        <time>2021-05-29 10:01:45</time>
      </trkpt>
      <trkpt lat="43.22208" lon="-2.01635">
        <ele>37.4</ele>
        <time>2021-05-29 10:01:46</time>
      </trkpt>
      <trkpt lat="43.22213" lon="-2.01626">
        <ele>37.2</ele>
        <time>2021-05-29 10:01:47</time>
      </trkpt>
      <trkpt lat="43.22218" lon="-2.01617">
        <ele>36.8</ele>
        <time>2021-05-29 10:01:48</time>
      </trkpt>
      <trkpt lat="43.22223" lon="-2.01607">
        <ele>36.6</ele>
        <time>2021-05-29 10:01:49</time>
      </trkpt>
      <trkpt lat="43.22228" lon="-2.01598">
        <ele>36.4</ele>
        <time>2021-05-29 10:01:50</time>
      </trkpt>
      <trkpt lat="43.22233" lon="-2.01589">
        <ele>36.4</ele>
        <time>2021-05-29 10:01:51</time>
      </trkpt>
      <trkpt lat="43.22237" lon="-2.0158">
        <ele>36.4</ele>
        <time>2021-05-29 10:01:52</time>
      </trkpt>
      <trkpt lat="43.22242" lon="-2.01571">
        <ele>36.4</ele>
        <time>2021-05-29 10:01:53</time>
      </trkpt>
      <trkpt lat="43.22247" lon="-2.01563">
        <ele>36.2</ele>
        <time>2021-05-29 10:01:54</time>
      </trkpt>
      <trkpt lat="43.22251" lon="-2.01554">
        <ele>36.2</ele>
        <time>2021-05-29 10:01:55</time>
      </trkpt>
      <trkpt lat="43.22256" lon="-2.01545">
        <ele>35.8</ele>
        <time>2021-05-29 10:01:56</time>
      </trkpt>
      <trkpt lat="43.22261" lon="-2.01536">
        <ele>35.6</ele>
        <time>2021-05-29 10:01:57</time>
      </trkpt>
      <trkpt lat="43.22265" lon="-2.01527">
        <ele>35.6</ele>
        <time>2021-05-29 10:01:58</time>
      </trkpt>
      <trkpt lat="43.22269" lon="-2.01519">
        <ele>35.6</ele>
        <time>2021-05-29 10:01:59</time>
      </trkpt>
      <trkpt lat="43.22273" lon="-2.01513">
        <ele>35.6</ele>
        <time>2021-05-29 10:02:00</time>
      </trkpt>
      <trkpt lat="43.22276" lon="-2.01507">
        <ele>35.6</ele>
        <time>2021-05-29 10:02:01</time>
      </trkpt>
      <trkpt lat="43.22279" lon="-2.01501">
        <ele>35.4</ele>
        <time>2021-05-29 10:02:02</time>
      </trkpt>
      <trkpt lat="43.22282" lon="-2.01495">
        <ele>35.4</ele>
        <time>2021-05-29 10:02:03</time>
      </trkpt>
      <trkpt lat="43.22285" lon="-2.01489">
        <ele>35.2</ele>
        <time>2021-05-29 10:02:04</time>
      </trkpt>
      <trkpt lat="43.22288" lon="-2.01483">
        <ele>35.2</ele>
        <time>2021-05-29 10:02:05</time>
      </trkpt>
      <trkpt lat="43.22291" lon="-2.01477">
        <ele>35</ele>
        <time>2021-05-29 10:02:06</time>
      </trkpt>
      <trkpt lat="43.22294" lon="-2.0147">
        <ele>35.2</ele>
        <time>2021-05-29 10:02:07</time>
      </trkpt>
      <trkpt lat="43.22298" lon="-2.01463">
        <ele>35.2</ele>
        <time>2021-05-29 10:02:08</time>
      </trkpt>
      <trkpt lat="43.22302" lon="-2.01455">
        <ele>35.2</ele>
        <time>2021-05-29 10:02:09</time>
      </trkpt>
      <trkpt lat="43.22307" lon="-2.01447">
        <ele>35</ele>
        <time>2021-05-29 10:02:10</time>
      </trkpt>
      <trkpt lat="43.22311" lon="-2.01439">
        <ele>35.2</ele>
        <time>2021-05-29 10:02:11</time>
      </trkpt>
      <trkpt lat="43.22316" lon="-2.0143">
        <ele>35</ele>
        <time>2021-05-29 10:02:12</time>
      </trkpt>
      <trkpt lat="43.22321" lon="-2.01421">
        <ele>35</ele>
        <time>2021-05-29 10:02:13</time>
      </trkpt>
      <trkpt lat="43.22326" lon="-2.01412">
        <ele>35</ele>
        <time>2021-05-29 10:02:14</time>
      </trkpt>
      <trkpt lat="43.2233" lon="-2.01403">
        <ele>35.2</ele>
        <time>2021-05-29 10:02:15</time>
      </trkpt>
      <trkpt lat="43.22335" lon="-2.01394">
        <ele>35</ele>
        <time>2021-05-29 10:02:16</time>
      </trkpt>
      <trkpt lat="43.22339" lon="-2.01385">
        <ele>35.2</ele>
        <time>2021-05-29 10:02:17</time>
      </trkpt>
      <trkpt lat="43.22343" lon="-2.01376">
        <ele>35</ele>
        <time>2021-05-29 10:02:18</time>
      </trkpt>
      <trkpt lat="43.22347" lon="-2.01368">
        <ele>35.2</ele>
        <time>2021-05-29 10:02:19</time>
      </trkpt>
      <trkpt lat="43.22352" lon="-2.0136">
        <ele>35.4</ele>
        <time>2021-05-29 10:02:20</time>
      </trkpt>
      <trkpt lat="43.22356" lon="-2.01352">
        <ele>35.2</ele>
        <time>2021-05-29 10:02:21</time>
      </trkpt>
      <trkpt lat="43.22361" lon="-2.01344">
        <ele>35.4</ele>
        <time>2021-05-29 10:02:22</time>
      </trkpt>
      <trkpt lat="43.22365" lon="-2.01336">
        <ele>35.4</ele>
        <time>2021-05-29 10:02:23</time>
      </trkpt>
      <trkpt lat="43.22369" lon="-2.01329">
        <ele>35.6</ele>
        <time>2021-05-29 10:02:24</time>
      </trkpt>
      <trkpt lat="43.22373" lon="-2.01321">
        <ele>35.6</ele>
        <time>2021-05-29 10:02:25</time>
      </trkpt>
      <trkpt lat="43.22377" lon="-2.01313">
        <ele>36</ele>
        <time>2021-05-29 10:02:26</time>
      </trkpt>
      <trkpt lat="43.22381" lon="-2.01305">
        <ele>36.2</ele>
        <time>2021-05-29 10:02:27</time>
      </trkpt>
      <trkpt lat="43.22386" lon="-2.01297">
        <ele>36.6</ele>
        <time>2021-05-29 10:02:28</time>
      </trkpt>
      <trkpt lat="43.22389" lon="-2.01289">
        <ele>37</ele>
        <time>2021-05-29 10:02:29</time>
      </trkpt>
      <trkpt lat="43.22393" lon="-2.01281">
        <ele>37.2</ele>
        <time>2021-05-29 10:02:30</time>
      </trkpt>
      <trkpt lat="43.22398" lon="-2.01273">
        <ele>37.4</ele>
        <time>2021-05-29 10:02:31</time>
      </trkpt>
      <trkpt lat="43.22402" lon="-2.01265">
        <ele>37.4</ele>
        <time>2021-05-29 10:02:32</time>
      </trkpt>
      <trkpt lat="43.22406" lon="-2.01257">
        <ele>37.6</ele>
        <time>2021-05-29 10:02:33</time>
      </trkpt>
      <trkpt lat="43.2241" lon="-2.01248">
        <ele>37.6</ele>
        <time>2021-05-29 10:02:34</time>
      </trkpt>
      <trkpt lat="43.22415" lon="-2.01241">
        <ele>37.8</ele>
        <time>2021-05-29 10:02:35</time>
      </trkpt>
      <trkpt lat="43.22419" lon="-2.01233">
        <ele>38</ele>
        <time>2021-05-29 10:02:36</time>
      </trkpt>
      <trkpt lat="43.22424" lon="-2.01225">
        <ele>38</ele>
        <time>2021-05-29 10:02:37</time>
      </trkpt>
      <trkpt lat="43.22429" lon="-2.01217">
        <ele>38</ele>
        <time>2021-05-29 10:02:38</time>
      </trkpt>
      <trkpt lat="43.22433" lon="-2.01209">
        <ele>38.2</ele>
        <time>2021-05-29 10:02:39</time>
      </trkpt>
      <trkpt lat="43.22438" lon="-2.01201">
        <ele>38.4</ele>
        <time>2021-05-29 10:02:40</time>
      </trkpt>
      <trkpt lat="43.22442" lon="-2.01193">
        <ele>38.8</ele>
        <time>2021-05-29 10:02:41</time>
      </trkpt>
      <trkpt lat="43.22447" lon="-2.01185">
        <ele>39.2</ele>
        <time>2021-05-29 10:02:42</time>
      </trkpt>
      <trkpt lat="43.22452" lon="-2.01177">
        <ele>39</ele>
        <time>2021-05-29 10:02:43</time>
      </trkpt>
      <trkpt lat="43.22457" lon="-2.01169">
        <ele>39.4</ele>
        <time>2021-05-29 10:02:44</time>
      </trkpt>
      <trkpt lat="43.22463" lon="-2.01162">
        <ele>39.4</ele>
        <time>2021-05-29 10:02:45</time>
      </trkpt>
      <trkpt lat="43.22468" lon="-2.01154">
        <ele>39.6</ele>
        <time>2021-05-29 10:02:46</time>
      </trkpt>
      <trkpt lat="43.22473" lon="-2.01145">
        <ele>39.6</ele>
        <time>2021-05-29 10:02:47</time>
      </trkpt>
      <trkpt lat="43.22478" lon="-2.01137">
        <ele>39.6</ele>
        <time>2021-05-29 10:02:48</time>
      </trkpt>
      <trkpt lat="43.22483" lon="-2.01129">
        <ele>39.6</ele>
        <time>2021-05-29 10:02:49</time>
      </trkpt>
      <trkpt lat="43.22488" lon="-2.01121">
        <ele>39.8</ele>
        <time>2021-05-29 10:02:50</time>
      </trkpt>
      <trkpt lat="43.22493" lon="-2.01114">
        <ele>39.8</ele>
        <time>2021-05-29 10:02:51</time>
      </trkpt>
      <trkpt lat="43.22498" lon="-2.01105">
        <ele>39.8</ele>
        <time>2021-05-29 10:02:52</time>
      </trkpt>
      <trkpt lat="43.22503" lon="-2.01097">
        <ele>39.8</ele>
        <time>2021-05-29 10:02:53</time>
      </trkpt>
      <trkpt lat="43.22508" lon="-2.01089">
        <ele>39.8</ele>
        <time>2021-05-29 10:02:54</time>
      </trkpt>
      <trkpt lat="43.22514" lon="-2.0108">
        <ele>40</ele>
        <time>2021-05-29 10:02:55</time>
      </trkpt>
      <trkpt lat="43.22519" lon="-2.01071">
        <ele>40</ele>
        <time>2021-05-29 10:02:56</time>
      </trkpt>
      <trkpt lat="43.22524" lon="-2.01063">
        <ele>40</ele>
        <time>2021-05-29 10:02:57</time>
      </trkpt>
      <trkpt lat="43.22529" lon="-2.01054">
        <ele>40</ele>
        <time>2021-05-29 10:02:58</time>
      </trkpt>
      <trkpt lat="43.22535" lon="-2.01046">
        <ele>40.2</ele>
        <time>2021-05-29 10:02:59</time>
      </trkpt>
      <trkpt lat="43.2254" lon="-2.01037">
        <ele>40.2</ele>
        <time>2021-05-29 10:03:00</time>
      </trkpt>
      <trkpt lat="43.22545" lon="-2.01029">
        <ele>40.2</ele>
        <time>2021-05-29 10:03:01</time>
      </trkpt>
      <trkpt lat="43.22549" lon="-2.01021">
        <ele>40</ele>
        <time>2021-05-29 10:03:02</time>
      </trkpt>
      <trkpt lat="43.22554" lon="-2.01013">
        <ele>40.2</ele>
        <time>2021-05-29 10:03:03</time>
      </trkpt>
      <trkpt lat="43.22558" lon="-2.01005">
        <ele>40.2</ele>
        <time>2021-05-29 10:03:04</time>
      </trkpt>
      <trkpt lat="43.22563" lon="-2.00996">
        <ele>40.2</ele>
        <time>2021-05-29 10:03:05</time>
      </trkpt>
      <trkpt lat="43.22567" lon="-2.00987">
        <ele>40</ele>
        <time>2021-05-29 10:03:06</time>
      </trkpt>
      <trkpt lat="43.22571" lon="-2.00979">
        <ele>40.2</ele>
        <time>2021-05-29 10:03:07</time>
      </trkpt>
      <trkpt lat="43.22575" lon="-2.00971">
        <ele>40.2</ele>
        <time>2021-05-29 10:03:08</time>
      </trkpt>
      <trkpt lat="43.22579" lon="-2.00963">
        <ele>40</ele>
        <time>2021-05-29 10:03:09</time>
      </trkpt>
      <trkpt lat="43.22583" lon="-2.00955">
        <ele>40</ele>
        <time>2021-05-29 10:03:10</time>
      </trkpt>
      <trkpt lat="43.22587" lon="-2.00946">
        <ele>39.8</ele>
        <time>2021-05-29 10:03:11</time>
      </trkpt>
      <trkpt lat="43.2259" lon="-2.00937">
        <ele>40</ele>
        <time>2021-05-29 10:03:12</time>
      </trkpt>
      <trkpt lat="43.22593" lon="-2.00928">
        <ele>40</ele>
        <time>2021-05-29 10:03:13</time>
      </trkpt>
      <trkpt lat="43.22597" lon="-2.00919">
        <ele>40</ele>
        <time>2021-05-29 10:03:14</time>
      </trkpt>
      <trkpt lat="43.22601" lon="-2.0091">
        <ele>40</ele>
        <time>2021-05-29 10:03:15</time>
      </trkpt>
      <trkpt lat="43.22604" lon="-2.00901">
        <ele>39.8</ele>
        <time>2021-05-29 10:03:16</time>
      </trkpt>
      <trkpt lat="43.22608" lon="-2.00891">
        <ele>40</ele>
        <time>2021-05-29 10:03:17</time>
      </trkpt>
      <trkpt lat="43.22611" lon="-2.00882">
        <ele>40</ele>
        <time>2021-05-29 10:03:18</time>
      </trkpt>
      <trkpt lat="43.22617" lon="-2.00872">
        <ele>40</ele>
        <time>2021-05-29 10:03:19</time>
      </trkpt>
      <trkpt lat="43.22622" lon="-2.00862">
        <ele>40</ele>
        <time>2021-05-29 10:03:20</time>
      </trkpt>
      <trkpt lat="43.22626" lon="-2.00853">
        <ele>39.8</ele>
        <time>2021-05-29 10:03:21</time>
      </trkpt>
      <trkpt lat="43.22629" lon="-2.00843">
        <ele>40</ele>
        <time>2021-05-29 10:03:22</time>
      </trkpt>
      <trkpt lat="43.22633" lon="-2.00834">
        <ele>39.8</ele>
        <time>2021-05-29 10:03:23</time>
      </trkpt>
      <trkpt lat="43.22637" lon="-2.00824">
        <ele>40</ele>
        <time>2021-05-29 10:03:24</time>
      </trkpt>
      <trkpt lat="43.22641" lon="-2.00815">
        <ele>40</ele>
        <time>2021-05-29 10:03:25</time>
      </trkpt>
      <trkpt lat="43.22645" lon="-2.00805">
        <ele>40</ele>
        <time>2021-05-29 10:03:26</time>
      </trkpt>
      <trkpt lat="43.22649" lon="-2.00795">
        <ele>40.2</ele>
        <time>2021-05-29 10:03:27</time>
      </trkpt>
      <trkpt lat="43.22654" lon="-2.00786">
        <ele>40.2</ele>
        <time>2021-05-29 10:03:28</time>
      </trkpt>
      <trkpt lat="43.22657" lon="-2.00777">
        <ele>40</ele>
        <time>2021-05-29 10:03:29</time>
      </trkpt>
      <trkpt lat="43.22661" lon="-2.00768">
        <ele>40.2</ele>
        <time>2021-05-29 10:03:30</time>
      </trkpt>
      <trkpt lat="43.22666" lon="-2.00759">
        <ele>40.2</ele>
        <time>2021-05-29 10:03:31</time>
      </trkpt>
      <trkpt lat="43.2267" lon="-2.00749">
        <ele>40.4</ele>
        <time>2021-05-29 10:03:32</time>
      </trkpt>
      <trkpt lat="43.22674" lon="-2.00739">
        <ele>40.6</ele>
        <time>2021-05-29 10:03:33</time>
      </trkpt>
      <trkpt lat="43.22679" lon="-2.0073">
        <ele>40.6</ele>
        <time>2021-05-29 10:03:34</time>
      </trkpt>
      <trkpt lat="43.22683" lon="-2.0072">
        <ele>40.8</ele>
        <time>2021-05-29 10:03:35</time>
      </trkpt>
      <trkpt lat="43.22688" lon="-2.0071">
        <ele>40.8</ele>
        <time>2021-05-29 10:03:36</time>
      </trkpt>
      <trkpt lat="43.22692" lon="-2.007">
        <ele>40.8</ele>
        <time>2021-05-29 10:03:37</time>
      </trkpt>
      <trkpt lat="43.22697" lon="-2.00691">
        <ele>40.8</ele>
        <time>2021-05-29 10:03:38</time>
      </trkpt>
      <trkpt lat="43.22701" lon="-2.00681">
        <ele>40.8</ele>
        <time>2021-05-29 10:03:39</time>
      </trkpt>
      <trkpt lat="43.22708" lon="-2.00672">
        <ele>41</ele>
        <time>2021-05-29 10:03:40</time>
      </trkpt>
      <trkpt lat="43.22713" lon="-2.00663">
        <ele>41</ele>
        <time>2021-05-29 10:03:41</time>
      </trkpt>
      <trkpt lat="43.22718" lon="-2.00655">
        <ele>41</ele>
        <time>2021-05-29 10:03:42</time>
      </trkpt>
      <trkpt lat="43.22723" lon="-2.00646">
        <ele>40.8</ele>
        <time>2021-05-29 10:03:43</time>
      </trkpt>
      <trkpt lat="43.22728" lon="-2.00638">
        <ele>41</ele>
        <time>2021-05-29 10:03:44</time>
      </trkpt>
      <trkpt lat="43.22733" lon="-2.0063">
        <ele>41</ele>
        <time>2021-05-29 10:03:45</time>
      </trkpt>
      <trkpt lat="43.22738" lon="-2.00622">
        <ele>41</ele>
        <time>2021-05-29 10:03:46</time>
      </trkpt>
      <trkpt lat="43.22743" lon="-2.00614">
        <ele>41</ele>
        <time>2021-05-29 10:03:47</time>
      </trkpt>
      <trkpt lat="43.22747" lon="-2.00606">
        <ele>41</ele>
        <time>2021-05-29 10:03:48</time>
      </trkpt>
      <trkpt lat="43.22753" lon="-2.00599">
        <ele>41</ele>
        <time>2021-05-29 10:03:49</time>
      </trkpt>
      <trkpt lat="43.22758" lon="-2.00592">
        <ele>41.2</ele>
        <time>2021-05-29 10:03:50</time>
      </trkpt>
      <trkpt lat="43.22763" lon="-2.00586">
        <ele>41.2</ele>
        <time>2021-05-29 10:03:51</time>
      </trkpt>
      <trkpt lat="43.22768" lon="-2.00579">
        <ele>41.2</ele>
        <time>2021-05-29 10:03:52</time>
      </trkpt>
      <trkpt lat="43.22773" lon="-2.00572">
        <ele>41.2</ele>
        <time>2021-05-29 10:03:53</time>
      </trkpt>
      <trkpt lat="43.22778" lon="-2.00565">
        <ele>41.4</ele>
        <time>2021-05-29 10:03:54</time>
      </trkpt>
      <trkpt lat="43.22784" lon="-2.00559">
        <ele>41.2</ele>
        <time>2021-05-29 10:03:55</time>
      </trkpt>
      <trkpt lat="43.22788" lon="-2.00553">
        <ele>41.4</ele>
        <time>2021-05-29 10:03:56</time>
      </trkpt>
      <trkpt lat="43.22793" lon="-2.00546">
        <ele>41.4</ele>
        <time>2021-05-29 10:03:57</time>
      </trkpt>
      <trkpt lat="43.22798" lon="-2.00539">
        <ele>41.6</ele>
        <time>2021-05-29 10:03:58</time>
      </trkpt>
      <trkpt lat="43.22803" lon="-2.00532">
        <ele>41.6</ele>
        <time>2021-05-29 10:03:59</time>
      </trkpt>
      <trkpt lat="43.22808" lon="-2.00525">
        <ele>41.6</ele>
        <time>2021-05-29 10:04:00</time>
      </trkpt>
      <trkpt lat="43.22813" lon="-2.00519">
        <ele>42</ele>
        <time>2021-05-29 10:04:01</time>
      </trkpt>
      <trkpt lat="43.22818" lon="-2.00513">
        <ele>42.4</ele>
        <time>2021-05-29 10:04:02</time>
      </trkpt>
      <trkpt lat="43.22823" lon="-2.00506">
        <ele>42.4</ele>
        <time>2021-05-29 10:04:03</time>
      </trkpt>
      <trkpt lat="43.22829" lon="-2.005">
        <ele>42.6</ele>
        <time>2021-05-29 10:04:04</time>
      </trkpt>
      <trkpt lat="43.22835" lon="-2.00495">
        <ele>42.8</ele>
        <time>2021-05-29 10:04:05</time>
      </trkpt>
      <trkpt lat="43.2284" lon="-2.00489">
        <ele>42.8</ele>
        <time>2021-05-29 10:04:06</time>
      </trkpt>
      <trkpt lat="43.22846" lon="-2.00484">
        <ele>43.2</ele>
        <time>2021-05-29 10:04:07</time>
      </trkpt>
      <trkpt lat="43.22851" lon="-2.00478">
        <ele>43.4</ele>
        <time>2021-05-29 10:04:08</time>
      </trkpt>
      <trkpt lat="43.22857" lon="-2.00472">
        <ele>43.4</ele>
        <time>2021-05-29 10:04:09</time>
      </trkpt>
      <trkpt lat="43.22863" lon="-2.00467">
        <ele>43.8</ele>
        <time>2021-05-29 10:04:10</time>
      </trkpt>
      <trkpt lat="43.22869" lon="-2.00461">
        <ele>44</ele>
        <time>2021-05-29 10:04:11</time>
      </trkpt>
      <trkpt lat="43.22874" lon="-2.00456">
        <ele>44.2</ele>
        <time>2021-05-29 10:04:12</time>
      </trkpt>
      <trkpt lat="43.2288" lon="-2.0045">
        <ele>44.2</ele>
        <time>2021-05-29 10:04:13</time>
      </trkpt>
      <trkpt lat="43.22885" lon="-2.00445">
        <ele>44.4</ele>
        <time>2021-05-29 10:04:14</time>
      </trkpt>
      <trkpt lat="43.2289" lon="-2.00439">
        <ele>44.4</ele>
        <time>2021-05-29 10:04:15</time>
      </trkpt>
      <trkpt lat="43.22895" lon="-2.00434">
        <ele>44.4</ele>
        <time>2021-05-29 10:04:16</time>
      </trkpt>
      <trkpt lat="43.22901" lon="-2.00428">
        <ele>44.8</ele>
        <time>2021-05-29 10:04:17</time>
      </trkpt>
      <trkpt lat="43.22906" lon="-2.00423">
        <ele>44.8</ele>
        <time>2021-05-29 10:04:18</time>
      </trkpt>
      <trkpt lat="43.22911" lon="-2.00418">
        <ele>45</ele>
        <time>2021-05-29 10:04:19</time>
      </trkpt>
      <trkpt lat="43.22916" lon="-2.00414">
        <ele>45.2</ele>
        <time>2021-05-29 10:04:20</time>
      </trkpt>
      <trkpt lat="43.22921" lon="-2.00408">
        <ele>45.4</ele>
        <time>2021-05-29 10:04:21</time>
      </trkpt>
      <trkpt lat="43.22926" lon="-2.00403">
        <ele>45.6</ele>
        <time>2021-05-29 10:04:22</time>
      </trkpt>
      <trkpt lat="43.22931" lon="-2.00399">
        <ele>45.6</ele>
        <time>2021-05-29 10:04:23</time>
      </trkpt>
      <trkpt lat="43.22936" lon="-2.00393">
        <ele>45.8</ele>
        <time>2021-05-29 10:04:24</time>
      </trkpt>
      <trkpt lat="43.22941" lon="-2.00388">
        <ele>45.8</ele>
        <time>2021-05-29 10:04:25</time>
      </trkpt>
      <trkpt lat="43.22946" lon="-2.00383">
        <ele>46</ele>
        <time>2021-05-29 10:04:26</time>
      </trkpt>
      <trkpt lat="43.22951" lon="-2.00378">
        <ele>46.2</ele>
        <time>2021-05-29 10:04:27</time>
      </trkpt>
      <trkpt lat="43.22956" lon="-2.00373">
        <ele>46.4</ele>
        <time>2021-05-29 10:04:28</time>
      </trkpt>
      <trkpt lat="43.22961" lon="-2.00368">
        <ele>46.6</ele>
        <time>2021-05-29 10:04:29</time>
      </trkpt>
      <trkpt lat="43.22966" lon="-2.00363">
        <ele>46.8</ele>
        <time>2021-05-29 10:04:30</time>
      </trkpt>
      <trkpt lat="43.2297" lon="-2.00357">
        <ele>47</ele>
        <time>2021-05-29 10:04:31</time>
      </trkpt>
      <trkpt lat="43.22975" lon="-2.00353">
        <ele>47.2</ele>
        <time>2021-05-29 10:04:32</time>
      </trkpt>
      <trkpt lat="43.2298" lon="-2.00348">
        <ele>47.6</ele>
        <time>2021-05-29 10:04:33</time>
      </trkpt>
      <trkpt lat="43.22985" lon="-2.00342">
        <ele>48</ele>
        <time>2021-05-29 10:04:34</time>
      </trkpt>
      <trkpt lat="43.22991" lon="-2.00337">
        <ele>48.2</ele>
        <time>2021-05-29 10:04:35</time>
      </trkpt>
      <trkpt lat="43.22996" lon="-2.00331">
        <ele>48.4</ele>
        <time>2021-05-29 10:04:36</time>
      </trkpt>
      <trkpt lat="43.23002" lon="-2.00326">
        <ele>48.6</ele>
        <time>2021-05-29 10:04:37</time>
      </trkpt>
      <trkpt lat="43.23007" lon="-2.0032">
        <ele>48.8</ele>
        <time>2021-05-29 10:04:38</time>
      </trkpt>
      <trkpt lat="43.23013" lon="-2.00315">
        <ele>49</ele>
        <time>2021-05-29 10:04:39</time>
      </trkpt>
      <trkpt lat="43.23018" lon="-2.0031">
        <ele>49.2</ele>
        <time>2021-05-29 10:04:40</time>
      </trkpt>
      <trkpt lat="43.23024" lon="-2.00304">
        <ele>49.4</ele>
        <time>2021-05-29 10:04:41</time>
      </trkpt>
      <trkpt lat="43.23029" lon="-2.00299">
        <ele>49.4</ele>
        <time>2021-05-29 10:04:42</time>
      </trkpt>
      <trkpt lat="43.23034" lon="-2.00293">
        <ele>49.6</ele>
        <time>2021-05-29 10:04:43</time>
      </trkpt>
      <trkpt lat="43.23039" lon="-2.00288">
        <ele>50</ele>
        <time>2021-05-29 10:04:44</time>
      </trkpt>
      <trkpt lat="43.23045" lon="-2.00282">
        <ele>50.4</ele>
        <time>2021-05-29 10:04:45</time>
      </trkpt>
      <trkpt lat="43.2305" lon="-2.00277">
        <ele>50.4</ele>
        <time>2021-05-29 10:04:46</time>
      </trkpt>
      <trkpt lat="43.23055" lon="-2.00272">
        <ele>50.6</ele>
        <time>2021-05-29 10:04:47</time>
      </trkpt>
      <trkpt lat="43.23059" lon="-2.00267">
        <ele>50.8</ele>
        <time>2021-05-29 10:04:48</time>
      </trkpt>
      <trkpt lat="43.23063" lon="-2.00263">
        <ele>51</ele>
        <time>2021-05-29 10:04:49</time>
      </trkpt>
      <trkpt lat="43.23067" lon="-2.00258">
        <ele>51.2</ele>
        <time>2021-05-29 10:04:50</time>
      </trkpt>
      <trkpt lat="43.23071" lon="-2.00254">
        <ele>51.6</ele>
        <time>2021-05-29 10:04:51</time>
      </trkpt>
      <trkpt lat="43.23075" lon="-2.00249">
        <ele>52</ele>
        <time>2021-05-29 10:04:52</time>
      </trkpt>
      <trkpt lat="43.2308" lon="-2.00245">
        <ele>52</ele>
        <time>2021-05-29 10:04:53</time>
      </trkpt>
      <trkpt lat="43.23083" lon="-2.00241">
        <ele>52.2</ele>
        <time>2021-05-29 10:04:54</time>
      </trkpt>
      <trkpt lat="43.23087" lon="-2.00237">
        <ele>52.2</ele>
        <time>2021-05-29 10:04:55</time>
      </trkpt>
      <trkpt lat="43.2309" lon="-2.00233">
        <ele>53</ele>
        <time>2021-05-29 10:04:56</time>
      </trkpt>
      <trkpt lat="43.23094" lon="-2.0023">
        <ele>53.2</ele>
        <time>2021-05-29 10:04:57</time>
      </trkpt>
      <trkpt lat="43.23098" lon="-2.00225">
        <ele>53.6</ele>
        <time>2021-05-29 10:04:58</time>
      </trkpt>
      <trkpt lat="43.23101" lon="-2.00221">
        <ele>54</ele>
        <time>2021-05-29 10:04:59</time>
      </trkpt>
      <trkpt lat="43.23106" lon="-2.00216">
        <ele>54</ele>
        <time>2021-05-29 10:05:00</time>
      </trkpt>
      <trkpt lat="43.2311" lon="-2.00212">
        <ele>54.4</ele>
        <time>2021-05-29 10:05:01</time>
      </trkpt>
      <trkpt lat="43.23114" lon="-2.00207">
        <ele>54.6</ele>
        <time>2021-05-29 10:05:02</time>
      </trkpt>
      <trkpt lat="43.23118" lon="-2.00202">
        <ele>54.8</ele>
        <time>2021-05-29 10:05:03</time>
      </trkpt>
      <trkpt lat="43.23123" lon="-2.00198">
        <ele>55.2</ele>
        <time>2021-05-29 10:05:04</time>
      </trkpt>
      <trkpt lat="43.23128" lon="-2.00193">
        <ele>55.6</ele>
        <time>2021-05-29 10:05:05</time>
      </trkpt>
      <trkpt lat="43.23132" lon="-2.00188">
        <ele>55.8</ele>
        <time>2021-05-29 10:05:06</time>
      </trkpt>
      <trkpt lat="43.23137" lon="-2.00184">
        <ele>56.2</ele>
        <time>2021-05-29 10:05:07</time>
      </trkpt>
      <trkpt lat="43.23141" lon="-2.00179">
        <ele>56.6</ele>
        <time>2021-05-29 10:05:08</time>
      </trkpt>
      <trkpt lat="43.23146" lon="-2.00175">
        <ele>57</ele>
        <time>2021-05-29 10:05:09</time>
      </trkpt>
      <trkpt lat="43.23151" lon="-2.00171">
        <ele>57.2</ele>
        <time>2021-05-29 10:05:10</time>
      </trkpt>
      <trkpt lat="43.23155" lon="-2.00166">
        <ele>57.6</ele>
        <time>2021-05-29 10:05:11</time>
      </trkpt>
      <trkpt lat="43.2316" lon="-2.00162">
        <ele>57.8</ele>
        <time>2021-05-29 10:05:12</time>
      </trkpt>
      <trkpt lat="43.23164" lon="-2.00158">
        <ele>58</ele>
        <time>2021-05-29 10:05:13</time>
      </trkpt>
      <trkpt lat="43.23167" lon="-2.00154">
        <ele>58.4</ele>
        <time>2021-05-29 10:05:14</time>
      </trkpt>
      <trkpt lat="43.23171" lon="-2.00149">
        <ele>58.6</ele>
        <time>2021-05-29 10:05:15</time>
      </trkpt>
      <trkpt lat="43.23175" lon="-2.00144">
        <ele>59</ele>
        <time>2021-05-29 10:05:16</time>
      </trkpt>
      <trkpt lat="43.23178" lon="-2.00139">
        <ele>59.4</ele>
        <time>2021-05-29 10:05:17</time>
      </trkpt>
      <trkpt lat="43.23182" lon="-2.00134">
        <ele>59.6</ele>
        <time>2021-05-29 10:05:18</time>
      </trkpt>
      <trkpt lat="43.23185" lon="-2.00129">
        <ele>60</ele>
        <time>2021-05-29 10:05:19</time>
      </trkpt>
      <trkpt lat="43.23189" lon="-2.00123">
        <ele>60</ele>
        <time>2021-05-29 10:05:20</time>
      </trkpt>
      <trkpt lat="43.23192" lon="-2.00118">
        <ele>60.4</ele>
        <time>2021-05-29 10:05:21</time>
      </trkpt>
      <trkpt lat="43.23196" lon="-2.00113">
        <ele>60.6</ele>
        <time>2021-05-29 10:05:22</time>
      </trkpt>
      <trkpt lat="43.23199" lon="-2.00108">
        <ele>60.8</ele>
        <time>2021-05-29 10:05:23</time>
      </trkpt>
      <trkpt lat="43.23202" lon="-2.00103">
        <ele>61.2</ele>
        <time>2021-05-29 10:05:24</time>
      </trkpt>
      <trkpt lat="43.23206" lon="-2.00098">
        <ele>61.6</ele>
        <time>2021-05-29 10:05:25</time>
      </trkpt>
      <trkpt lat="43.2321" lon="-2.00093">
        <ele>62</ele>
        <time>2021-05-29 10:05:26</time>
      </trkpt>
      <trkpt lat="43.23214" lon="-2.00089">
        <ele>62.2</ele>
        <time>2021-05-29 10:05:27</time>
      </trkpt>
      <trkpt lat="43.23217" lon="-2.00084">
        <ele>62.6</ele>
        <time>2021-05-29 10:05:28</time>
      </trkpt>
      <trkpt lat="43.23221" lon="-2.0008">
        <ele>62.8</ele>
        <time>2021-05-29 10:05:29</time>
      </trkpt>
      <trkpt lat="43.23226" lon="-2.00075">
        <ele>63.4</ele>
        <time>2021-05-29 10:05:30</time>
      </trkpt>
      <trkpt lat="43.2323" lon="-2.00071">
        <ele>63.6</ele>
        <time>2021-05-29 10:05:31</time>
      </trkpt>
      <trkpt lat="43.23234" lon="-2.00067">
        <ele>63.8</ele>
        <time>2021-05-29 10:05:32</time>
      </trkpt>
      <trkpt lat="43.23238" lon="-2.00063">
        <ele>64.2</ele>
        <time>2021-05-29 10:05:33</time>
      </trkpt>
      <trkpt lat="43.23242" lon="-2.00059">
        <ele>64.6</ele>
        <time>2021-05-29 10:05:34</time>
      </trkpt>
      <trkpt lat="43.23245" lon="-2.00054">
        <ele>64.8</ele>
        <time>2021-05-29 10:05:35</time>
      </trkpt>
      <trkpt lat="43.23249" lon="-2.0005">
        <ele>65.2</ele>
        <time>2021-05-29 10:05:36</time>
      </trkpt>
      <trkpt lat="43.23252" lon="-2.00044">
        <ele>65.8</ele>
        <time>2021-05-29 10:05:37</time>
      </trkpt>
      <trkpt lat="43.23255" lon="-2.00038">
        <ele>66</ele>
        <time>2021-05-29 10:05:38</time>
      </trkpt>
      <trkpt lat="43.23258" lon="-2.00031">
        <ele>66.2</ele>
        <time>2021-05-29 10:05:39</time>
      </trkpt>
      <trkpt lat="43.23261" lon="-2.00025">
        <ele>66.4</ele>
        <time>2021-05-29 10:05:40</time>
      </trkpt>
      <trkpt lat="43.23264" lon="-2.00019">
        <ele>66.8</ele>
        <time>2021-05-29 10:05:41</time>
      </trkpt>
      <trkpt lat="43.23268" lon="-2.00013">
        <ele>67</ele>
        <time>2021-05-29 10:05:42</time>
      </trkpt>
      <trkpt lat="43.23272" lon="-2.00009">
        <ele>67.4</ele>
        <time>2021-05-29 10:05:43</time>
      </trkpt>
      <trkpt lat="43.23277" lon="-2.00006">
        <ele>67.6</ele>
        <time>2021-05-29 10:05:44</time>
      </trkpt>
      <trkpt lat="43.23283" lon="-2.00005">
        <ele>67.8</ele>
        <time>2021-05-29 10:05:45</time>
      </trkpt>
      <trkpt lat="43.23288" lon="-2.00004">
        <ele>68</ele>
        <time>2021-05-29 10:05:46</time>
      </trkpt>
      <trkpt lat="43.23294" lon="-2.00005">
        <ele>68</ele>
        <time>2021-05-29 10:05:47</time>
      </trkpt>
      <trkpt lat="43.233" lon="-2.00005">
        <ele>68.4</ele>
        <time>2021-05-29 10:05:48</time>
      </trkpt>
      <trkpt lat="43.23306" lon="-2.00004">
        <ele>68.6</ele>
        <time>2021-05-29 10:05:49</time>
      </trkpt>
      <trkpt lat="43.23312" lon="-2.00003">
        <ele>69</ele>
        <time>2021-05-29 10:05:50</time>
      </trkpt>
      <trkpt lat="43.23317" lon="-2.00001">
        <ele>69</ele>
        <time>2021-05-29 10:05:51</time>
      </trkpt>
      <trkpt lat="43.23323" lon="-1.99998">
        <ele>69.2</ele>
        <time>2021-05-29 10:05:52</time>
      </trkpt>
      <trkpt lat="43.23328" lon="-1.99995">
        <ele>69.4</ele>
        <time>2021-05-29 10:05:53</time>
      </trkpt>
      <trkpt lat="43.23332" lon="-1.99992">
        <ele>69.4</ele>
        <time>2021-05-29 10:05:54</time>
      </trkpt>
      <trkpt lat="43.23337" lon="-1.9999">
        <ele>69.6</ele>
        <time>2021-05-29 10:05:55</time>
      </trkpt>
      <trkpt lat="43.23341" lon="-1.99987">
        <ele>69.8</ele>
        <time>2021-05-29 10:05:56</time>
      </trkpt>
      <trkpt lat="43.23345" lon="-1.99986">
        <ele>69.8</ele>
        <time>2021-05-29 10:05:57</time>
      </trkpt>
      <trkpt lat="43.2335" lon="-1.99984">
        <ele>70</ele>
        <time>2021-05-29 10:05:58</time>
      </trkpt>
      <trkpt lat="43.23355" lon="-1.99984">
        <ele>70</ele>
        <time>2021-05-29 10:05:59</time>
      </trkpt>
      <trkpt lat="43.2336" lon="-1.99984">
        <ele>70.4</ele>
        <time>2021-05-29 10:06:00</time>
      </trkpt>
      <trkpt lat="43.23365" lon="-1.99984">
        <ele>70.4</ele>
        <time>2021-05-29 10:06:01</time>
      </trkpt>
      <trkpt lat="43.2337" lon="-1.99984">
        <ele>70.6</ele>
        <time>2021-05-29 10:06:02</time>
      </trkpt>
      <trkpt lat="43.23375" lon="-1.99985">
        <ele>71</ele>
        <time>2021-05-29 10:06:03</time>
      </trkpt>
      <trkpt lat="43.2338" lon="-1.99987">
        <ele>71</ele>
        <time>2021-05-29 10:06:04</time>
      </trkpt>
      <trkpt lat="43.23384" lon="-1.99989">
        <ele>71.4</ele>
        <time>2021-05-29 10:06:05</time>
      </trkpt>
      <trkpt lat="43.23389" lon="-1.9999">
        <ele>71.8</ele>
        <time>2021-05-29 10:06:06</time>
      </trkpt>
      <trkpt lat="43.23394" lon="-1.99992">
        <ele>72</ele>
        <time>2021-05-29 10:06:07</time>
      </trkpt>
      <trkpt lat="43.23398" lon="-1.99994">
        <ele>72.4</ele>
        <time>2021-05-29 10:06:08</time>
      </trkpt>
      <trkpt lat="43.23403" lon="-1.99996">
        <ele>72.6</ele>
        <time>2021-05-29 10:06:09</time>
      </trkpt>
      <trkpt lat="43.23407" lon="-1.99997">
        <ele>73</ele>
        <time>2021-05-29 10:06:10</time>
      </trkpt>
      <trkpt lat="43.23412" lon="-1.99998">
        <ele>73.2</ele>
        <time>2021-05-29 10:06:11</time>
      </trkpt>
      <trkpt lat="43.23417" lon="-1.99999">
        <ele>73.4</ele>
        <time>2021-05-29 10:06:12</time>
      </trkpt>
      <trkpt lat="43.23421" lon="-1.99999">
        <ele>73.8</ele>
        <time>2021-05-29 10:06:13</time>
      </trkpt>
      <trkpt lat="43.23426" lon="-1.99999">
        <ele>74.2</ele>
        <time>2021-05-29 10:06:14</time>
      </trkpt>
      <trkpt lat="43.23431" lon="-1.99999">
        <ele>74.6</ele>
        <time>2021-05-29 10:06:15</time>
      </trkpt>
      <trkpt lat="43.23435" lon="-1.99998">
        <ele>74.8</ele>
        <time>2021-05-29 10:06:16</time>
      </trkpt>
      <trkpt lat="43.2344" lon="-1.99998">
        <ele>75.2</ele>
        <time>2021-05-29 10:06:17</time>
      </trkpt>
      <trkpt lat="43.23444" lon="-1.99997">
        <ele>75.6</ele>
        <time>2021-05-29 10:06:18</time>
      </trkpt>
      <trkpt lat="43.23449" lon="-1.99995">
        <ele>75.8</ele>
        <time>2021-05-29 10:06:19</time>
      </trkpt>
      <trkpt lat="43.23454" lon="-1.99994">
        <ele>76.2</ele>
        <time>2021-05-29 10:06:20</time>
      </trkpt>
      <trkpt lat="43.23459" lon="-1.99992">
        <ele>76.4</ele>
        <time>2021-05-29 10:06:21</time>
      </trkpt>
      <trkpt lat="43.23463" lon="-1.9999">
        <ele>76.8</ele>
        <time>2021-05-29 10:06:22</time>
      </trkpt>
      <trkpt lat="43.23467" lon="-1.99987">
        <ele>77.2</ele>
        <time>2021-05-29 10:06:23</time>
      </trkpt>
      <trkpt lat="43.23472" lon="-1.99984">
        <ele>77.6</ele>
        <time>2021-05-29 10:06:24</time>
      </trkpt>
      <trkpt lat="43.23477" lon="-1.99982">
        <ele>77.8</ele>
        <time>2021-05-29 10:06:25</time>
      </trkpt>
      <trkpt lat="43.23481" lon="-1.99979">
        <ele>78.2</ele>
        <time>2021-05-29 10:06:26</time>
      </trkpt>
      <trkpt lat="43.23486" lon="-1.99976">
        <ele>78.6</ele>
        <time>2021-05-29 10:06:27</time>
      </trkpt>
      <trkpt lat="43.23491" lon="-1.99973">
        <ele>78.8</ele>
        <time>2021-05-29 10:06:28</time>
      </trkpt>
      <trkpt lat="43.23496" lon="-1.9997">
        <ele>79</ele>
        <time>2021-05-29 10:06:29</time>
      </trkpt>
      <trkpt lat="43.23501" lon="-1.99967">
        <ele>79.4</ele>
        <time>2021-05-29 10:06:30</time>
      </trkpt>
      <trkpt lat="43.23506" lon="-1.99964">
        <ele>79.8</ele>
        <time>2021-05-29 10:06:31</time>
      </trkpt>
      <trkpt lat="43.2351" lon="-1.99961">
        <ele>80</ele>
        <time>2021-05-29 10:06:32</time>
      </trkpt>
      <trkpt lat="43.23515" lon="-1.99958">
        <ele>80.2</ele>
        <time>2021-05-29 10:06:33</time>
      </trkpt>
      <trkpt lat="43.2352" lon="-1.99954">
        <ele>80.6</ele>
        <time>2021-05-29 10:06:34</time>
      </trkpt>
      <trkpt lat="43.23524" lon="-1.99951">
        <ele>80.8</ele>
        <time>2021-05-29 10:06:35</time>
      </trkpt>
      <trkpt lat="43.23529" lon="-1.99947">
        <ele>81</ele>
        <time>2021-05-29 10:06:36</time>
      </trkpt>
      <trkpt lat="43.23534" lon="-1.99943">
        <ele>81.2</ele>
        <time>2021-05-29 10:06:37</time>
      </trkpt>
      <trkpt lat="43.23539" lon="-1.99939">
        <ele>81.4</ele>
        <time>2021-05-29 10:06:38</time>
      </trkpt>
      <trkpt lat="43.23543" lon="-1.99935">
        <ele>81.8</ele>
        <time>2021-05-29 10:06:39</time>
      </trkpt>
      <trkpt lat="43.23547" lon="-1.99931">
        <ele>82.2</ele>
        <time>2021-05-29 10:06:40</time>
      </trkpt>
      <trkpt lat="43.23551" lon="-1.99927">
        <ele>82.4</ele>
        <time>2021-05-29 10:06:41</time>
      </trkpt>
      <trkpt lat="43.23556" lon="-1.99924">
        <ele>82.6</ele>
        <time>2021-05-29 10:06:42</time>
      </trkpt>
      <trkpt lat="43.23561" lon="-1.99923">
        <ele>82.8</ele>
        <time>2021-05-29 10:06:43</time>
      </trkpt>
      <trkpt lat="43.23567" lon="-1.99921">
        <ele>82.8</ele>
        <time>2021-05-29 10:06:44</time>
      </trkpt>
      <trkpt lat="43.23573" lon="-1.99918">
        <ele>83</ele>
        <time>2021-05-29 10:06:45</time>
      </trkpt>
      <trkpt lat="43.23579" lon="-1.99915">
        <ele>83.4</ele>
        <time>2021-05-29 10:06:46</time>
      </trkpt>
      <trkpt lat="43.23586" lon="-1.99912">
        <ele>83.4</ele>
        <time>2021-05-29 10:06:47</time>
      </trkpt>
      <trkpt lat="43.23593" lon="-1.99909">
        <ele>83.6</ele>
        <time>2021-05-29 10:06:48</time>
      </trkpt>
      <trkpt lat="43.236" lon="-1.99906">
        <ele>83.8</ele>
        <time>2021-05-29 10:06:49</time>
      </trkpt>
      <trkpt lat="43.23608" lon="-1.99902">
        <ele>83.8</ele>
        <time>2021-05-29 10:06:50</time>
      </trkpt>
      <trkpt lat="43.23616" lon="-1.99899">
        <ele>83.8</ele>
        <time>2021-05-29 10:06:51</time>
      </trkpt>
      <trkpt lat="43.23623" lon="-1.99895">
        <ele>83.8</ele>
        <time>2021-05-29 10:06:52</time>
      </trkpt>
      <trkpt lat="43.23631" lon="-1.99891">
        <ele>83.8</ele>
        <time>2021-05-29 10:06:53</time>
      </trkpt>
      <trkpt lat="43.23638" lon="-1.99888">
        <ele>83.8</ele>
        <time>2021-05-29 10:06:54</time>
      </trkpt>
      <trkpt lat="43.23646" lon="-1.99885">
        <ele>84</ele>
        <time>2021-05-29 10:06:55</time>
      </trkpt>
      <trkpt lat="43.23653" lon="-1.99882">
        <ele>84</ele>
        <time>2021-05-29 10:06:56</time>
      </trkpt>
      <trkpt lat="43.23659" lon="-1.99878">
        <ele>84</ele>
        <time>2021-05-29 10:06:57</time>
      </trkpt>
      <trkpt lat="43.23666" lon="-1.99876">
        <ele>83.8</ele>
        <time>2021-05-29 10:06:58</time>
      </trkpt>
      <trkpt lat="43.23672" lon="-1.99872">
        <ele>83.4</ele>
        <time>2021-05-29 10:06:59</time>
      </trkpt>
      <trkpt lat="43.23679" lon="-1.99869">
        <ele>83.4</ele>
        <time>2021-05-29 10:07:00</time>
      </trkpt>
      <trkpt lat="43.23685" lon="-1.99866">
        <ele>83.4</ele>
        <time>2021-05-29 10:07:01</time>
      </trkpt>
      <trkpt lat="43.23691" lon="-1.99863">
        <ele>83.2</ele>
        <time>2021-05-29 10:07:02</time>
      </trkpt>
      <trkpt lat="43.23698" lon="-1.9986">
        <ele>83.2</ele>
        <time>2021-05-29 10:07:03</time>
      </trkpt>
      <trkpt lat="43.23705" lon="-1.99857">
        <ele>83.2</ele>
        <time>2021-05-29 10:07:04</time>
      </trkpt>
      <trkpt lat="43.23712" lon="-1.99853">
        <ele>83.2</ele>
        <time>2021-05-29 10:07:05</time>
      </trkpt>
      <trkpt lat="43.23719" lon="-1.99848">
        <ele>83.2</ele>
        <time>2021-05-29 10:07:06</time>
      </trkpt>
      <trkpt lat="43.23726" lon="-1.99842">
        <ele>83.2</ele>
        <time>2021-05-29 10:07:07</time>
      </trkpt>
      <trkpt lat="43.23732" lon="-1.99835">
        <ele>83.2</ele>
        <time>2021-05-29 10:07:08</time>
      </trkpt>
      <trkpt lat="43.23739" lon="-1.99828">
        <ele>83</ele>
        <time>2021-05-29 10:07:09</time>
      </trkpt>
      <trkpt lat="43.23746" lon="-1.99821">
        <ele>82.8</ele>
        <time>2021-05-29 10:07:10</time>
      </trkpt>
      <trkpt lat="43.23753" lon="-1.99813">
        <ele>83</ele>
        <time>2021-05-29 10:07:11</time>
      </trkpt>
      <trkpt lat="43.23759" lon="-1.99805">
        <ele>83</ele>
        <time>2021-05-29 10:07:12</time>
      </trkpt>
      <trkpt lat="43.23766" lon="-1.99797">
        <ele>83</ele>
        <time>2021-05-29 10:07:13</time>
      </trkpt>
      <trkpt lat="43.23772" lon="-1.99789">
        <ele>83</ele>
        <time>2021-05-29 10:07:14</time>
      </trkpt>
      <trkpt lat="43.23779" lon="-1.99781">
        <ele>83</ele>
        <time>2021-05-29 10:07:15</time>
      </trkpt>
      <trkpt lat="43.23786" lon="-1.99773">
        <ele>83</ele>
        <time>2021-05-29 10:07:16</time>
      </trkpt>
      <trkpt lat="43.23792" lon="-1.99766">
        <ele>83</ele>
        <time>2021-05-29 10:07:17</time>
      </trkpt>
      <trkpt lat="43.23799" lon="-1.9976">
        <ele>83</ele>
        <time>2021-05-29 10:07:18</time>
      </trkpt>
      <trkpt lat="43.23806" lon="-1.99754">
        <ele>82.6</ele>
        <time>2021-05-29 10:07:19</time>
      </trkpt>
      <trkpt lat="43.23813" lon="-1.99748">
        <ele>82.4</ele>
        <time>2021-05-29 10:07:20</time>
      </trkpt>
      <trkpt lat="43.2382" lon="-1.99742">
        <ele>82.4</ele>
        <time>2021-05-29 10:07:21</time>
      </trkpt>
      <trkpt lat="43.23827" lon="-1.99736">
        <ele>82.2</ele>
        <time>2021-05-29 10:07:22</time>
      </trkpt>
      <trkpt lat="43.23834" lon="-1.9973">
        <ele>82</ele>
        <time>2021-05-29 10:07:23</time>
      </trkpt>
      <trkpt lat="43.23841" lon="-1.99724">
        <ele>82</ele>
        <time>2021-05-29 10:07:24</time>
      </trkpt>
      <trkpt lat="43.23848" lon="-1.99719">
        <ele>81.6</ele>
        <time>2021-05-29 10:07:25</time>
      </trkpt>
      <trkpt lat="43.23855" lon="-1.99713">
        <ele>81.6</ele>
        <time>2021-05-29 10:07:26</time>
      </trkpt>
      <trkpt lat="43.23863" lon="-1.99708">
        <ele>81.6</ele>
        <time>2021-05-29 10:07:27</time>
      </trkpt>
      <trkpt lat="43.23871" lon="-1.99702">
        <ele>81.6</ele>
        <time>2021-05-29 10:07:28</time>
      </trkpt>
      <trkpt lat="43.23879" lon="-1.99696">
        <ele>81.6</ele>
        <time>2021-05-29 10:07:29</time>
      </trkpt>
      <trkpt lat="43.23887" lon="-1.9969">
        <ele>81.4</ele>
        <time>2021-05-29 10:07:30</time>
      </trkpt>
      <trkpt lat="43.23895" lon="-1.99684">
        <ele>81.4</ele>
        <time>2021-05-29 10:07:31</time>
      </trkpt>
      <trkpt lat="43.23903" lon="-1.99678">
        <ele>81</ele>
        <time>2021-05-29 10:07:32</time>
      </trkpt>
      <trkpt lat="43.23911" lon="-1.99672">
        <ele>80.8</ele>
        <time>2021-05-29 10:07:33</time>
      </trkpt>
      <trkpt lat="43.23919" lon="-1.99667">
        <ele>80.6</ele>
        <time>2021-05-29 10:07:34</time>
      </trkpt>
      <trkpt lat="43.23928" lon="-1.99661">
        <ele>80.6</ele>
        <time>2021-05-29 10:07:35</time>
      </trkpt>
      <trkpt lat="43.23936" lon="-1.99656">
        <ele>80.4</ele>
        <time>2021-05-29 10:07:36</time>
      </trkpt>
      <trkpt lat="43.23945" lon="-1.99651">
        <ele>80.2</ele>
        <time>2021-05-29 10:07:37</time>
      </trkpt>
      <trkpt lat="43.23954" lon="-1.99647">
        <ele>79.8</ele>
        <time>2021-05-29 10:07:38</time>
      </trkpt>
      <trkpt lat="43.23963" lon="-1.99643">
        <ele>79.6</ele>
        <time>2021-05-29 10:07:39</time>
      </trkpt>
      <trkpt lat="43.23973" lon="-1.99639">
        <ele>79.2</ele>
        <time>2021-05-29 10:07:40</time>
      </trkpt>
      <trkpt lat="43.23983" lon="-1.99634">
        <ele>78.8</ele>
        <time>2021-05-29 10:07:41</time>
      </trkpt>
      <trkpt lat="43.23992" lon="-1.9963">
        <ele>78.4</ele>
        <time>2021-05-29 10:07:42</time>
      </trkpt>
      <trkpt lat="43.24002" lon="-1.99626">
        <ele>77.8</ele>
        <time>2021-05-29 10:07:43</time>
      </trkpt>
      <trkpt lat="43.2401" lon="-1.99619">
        <ele>77.2</ele>
        <time>2021-05-29 10:07:44</time>
      </trkpt>
      <trkpt lat="43.24017" lon="-1.99609">
        <ele>76.6</ele>
        <time>2021-05-29 10:07:45</time>
      </trkpt>
      <trkpt lat="43.24024" lon="-1.99598">
        <ele>76.2</ele>
        <time>2021-05-29 10:07:46</time>
      </trkpt>
      <trkpt lat="43.24031" lon="-1.9959">
        <ele>75.6</ele>
        <time>2021-05-29 10:07:47</time>
      </trkpt>
      <trkpt lat="43.2404" lon="-1.99584">
        <ele>74.4</ele>
        <time>2021-05-29 10:07:48</time>
      </trkpt>
      <trkpt lat="43.2405" lon="-1.99581">
        <ele>73.8</ele>
        <time>2021-05-29 10:07:49</time>
      </trkpt>
      <trkpt lat="43.2406" lon="-1.99578">
        <ele>73</ele>
        <time>2021-05-29 10:07:50</time>
      </trkpt>
      <trkpt lat="43.24069" lon="-1.99574">
        <ele>72.4</ele>
        <time>2021-05-29 10:07:51</time>
      </trkpt>
      <trkpt lat="43.24078" lon="-1.99568">
        <ele>71.8</ele>
        <time>2021-05-29 10:07:52</time>
      </trkpt>
      <trkpt lat="43.24087" lon="-1.99561">
        <ele>71.2</ele>
        <time>2021-05-29 10:07:53</time>
      </trkpt>
      <trkpt lat="43.24097" lon="-1.99553">
        <ele>70.6</ele>
        <time>2021-05-29 10:07:54</time>
      </trkpt>
      <trkpt lat="43.24106" lon="-1.99545">
        <ele>70.4</ele>
        <time>2021-05-29 10:07:55</time>
      </trkpt>
      <trkpt lat="43.24117" lon="-1.99538">
        <ele>70</ele>
        <time>2021-05-29 10:07:56</time>
      </trkpt>
      <trkpt lat="43.24128" lon="-1.99532">
        <ele>69.6</ele>
        <time>2021-05-29 10:07:57</time>
      </trkpt>
      <trkpt lat="43.2414" lon="-1.99527">
        <ele>69.2</ele>
        <time>2021-05-29 10:07:58</time>
      </trkpt>
      <trkpt lat="43.24152" lon="-1.99522">
        <ele>69</ele>
        <time>2021-05-29 10:07:59</time>
      </trkpt>
      <trkpt lat="43.24164" lon="-1.99519">
        <ele>68.6</ele>
        <time>2021-05-29 10:08:00</time>
      </trkpt>
      <trkpt lat="43.24176" lon="-1.99516">
        <ele>68.2</ele>
        <time>2021-05-29 10:08:01</time>
      </trkpt>
      <trkpt lat="43.24187" lon="-1.99513">
        <ele>67.6</ele>
        <time>2021-05-29 10:08:02</time>
      </trkpt>
      <trkpt lat="43.24198" lon="-1.9951">
        <ele>67</ele>
        <time>2021-05-29 10:08:03</time>
      </trkpt>
      <trkpt lat="43.24209" lon="-1.99507">
        <ele>66.2</ele>
        <time>2021-05-29 10:08:04</time>
      </trkpt>
      <trkpt lat="43.2422" lon="-1.99504">
        <ele>65.8</ele>
        <time>2021-05-29 10:08:05</time>
      </trkpt>
      <trkpt lat="43.2423" lon="-1.995">
        <ele>65</ele>
        <time>2021-05-29 10:08:06</time>
      </trkpt>
      <trkpt lat="43.24241" lon="-1.99494">
        <ele>64.2</ele>
        <time>2021-05-29 10:08:07</time>
      </trkpt>
      <trkpt lat="43.24251" lon="-1.99488">
        <ele>63.6</ele>
        <time>2021-05-29 10:08:08</time>
      </trkpt>
      <trkpt lat="43.24262" lon="-1.99481">
        <ele>63</ele>
        <time>2021-05-29 10:08:09</time>
      </trkpt>
      <trkpt lat="43.24273" lon="-1.99474">
        <ele>62.4</ele>
        <time>2021-05-29 10:08:10</time>
      </trkpt>
      <trkpt lat="43.24285" lon="-1.99466">
        <ele>61.8</ele>
        <time>2021-05-29 10:08:11</time>
      </trkpt>
      <trkpt lat="43.24296" lon="-1.99458">
        <ele>61</ele>
        <time>2021-05-29 10:08:12</time>
      </trkpt>
      <trkpt lat="43.24308" lon="-1.99451">
        <ele>60</ele>
        <time>2021-05-29 10:08:13</time>
      </trkpt>
      <trkpt lat="43.2432" lon="-1.99443">
        <ele>59.2</ele>
        <time>2021-05-29 10:08:14</time>
      </trkpt>
      <trkpt lat="43.24332" lon="-1.99435">
        <ele>58.6</ele>
        <time>2021-05-29 10:08:15</time>
      </trkpt>
      <trkpt lat="43.24343" lon="-1.99427">
        <ele>57.6</ele>
        <time>2021-05-29 10:08:16</time>
      </trkpt>
      <trkpt lat="43.24355" lon="-1.9942">
        <ele>57</ele>
        <time>2021-05-29 10:08:17</time>
      </trkpt>
      <trkpt lat="43.24367" lon="-1.99412">
        <ele>56.4</ele>
        <time>2021-05-29 10:08:18</time>
      </trkpt>
      <trkpt lat="43.24378" lon="-1.99405">
        <ele>55.6</ele>
        <time>2021-05-29 10:08:19</time>
      </trkpt>
      <trkpt lat="43.2439" lon="-1.99397">
        <ele>54.8</ele>
        <time>2021-05-29 10:08:20</time>
      </trkpt>
      <trkpt lat="43.24402" lon="-1.9939">
        <ele>54</ele>
        <time>2021-05-29 10:08:21</time>
      </trkpt>
      <trkpt lat="43.24412" lon="-1.99383">
        <ele>52.2</ele>
        <time>2021-05-29 10:08:22</time>
      </trkpt>
      <trkpt lat="43.24423" lon="-1.99376">
        <ele>51.2</ele>
        <time>2021-05-29 10:08:23</time>
      </trkpt>
      <trkpt lat="43.24433" lon="-1.9937">
        <ele>50.2</ele>
        <time>2021-05-29 10:08:24</time>
      </trkpt>
      <trkpt lat="43.24443" lon="-1.99365">
        <ele>49.2</ele>
        <time>2021-05-29 10:08:25</time>
      </trkpt>
      <trkpt lat="43.24452" lon="-1.99361">
        <ele>48.4</ele>
        <time>2021-05-29 10:08:26</time>
      </trkpt>
      <trkpt lat="43.24461" lon="-1.99357">
        <ele>47.2</ele>
        <time>2021-05-29 10:08:27</time>
      </trkpt>
      <trkpt lat="43.24468" lon="-1.99354">
        <ele>46.2</ele>
        <time>2021-05-29 10:08:28</time>
      </trkpt>
      <trkpt lat="43.24476" lon="-1.99349">
        <ele>45.6</ele>
        <time>2021-05-29 10:08:29</time>
      </trkpt>
      <trkpt lat="43.24482" lon="-1.99344">
        <ele>44.4</ele>
        <time>2021-05-29 10:08:30</time>
      </trkpt>
      <trkpt lat="43.24489" lon="-1.9934">
        <ele>43.6</ele>
        <time>2021-05-29 10:08:31</time>
      </trkpt>
      <trkpt lat="43.24496" lon="-1.99338">
        <ele>42.8</ele>
        <time>2021-05-29 10:08:32</time>
      </trkpt>
      <trkpt lat="43.24504" lon="-1.99337">
        <ele>42</ele>
        <time>2021-05-29 10:08:33</time>
      </trkpt>
      <trkpt lat="43.24513" lon="-1.99336">
        <ele>40.8</ele>
        <time>2021-05-29 10:08:34</time>
      </trkpt>
      <trkpt lat="43.24523" lon="-1.99335">
        <ele>40</ele>
        <time>2021-05-29 10:08:35</time>
      </trkpt>
      <trkpt lat="43.24532" lon="-1.99333">
        <ele>39.4</ele>
        <time>2021-05-29 10:08:36</time>
      </trkpt>
      <trkpt lat="43.24542" lon="-1.99331">
        <ele>38.4</ele>
        <time>2021-05-29 10:08:37</time>
      </trkpt>
      <trkpt lat="43.24552" lon="-1.99328">
        <ele>37.8</ele>
        <time>2021-05-29 10:08:38</time>
      </trkpt>
      <trkpt lat="43.24562" lon="-1.99325">
        <ele>37.4</ele>
        <time>2021-05-29 10:08:39</time>
      </trkpt>
      <trkpt lat="43.24573" lon="-1.99322">
        <ele>37</ele>
        <time>2021-05-29 10:08:40</time>
      </trkpt>
      <trkpt lat="43.24583" lon="-1.9932">
        <ele>36.4</ele>
        <time>2021-05-29 10:08:41</time>
      </trkpt>
      <trkpt lat="43.24594" lon="-1.99317">
        <ele>36</ele>
        <time>2021-05-29 10:08:42</time>
      </trkpt>
      <trkpt lat="43.24605" lon="-1.99314">
        <ele>35.8</ele>
        <time>2021-05-29 10:08:43</time>
      </trkpt>
      <trkpt lat="43.24616" lon="-1.99312">
        <ele>35.2</ele>
        <time>2021-05-29 10:08:44</time>
      </trkpt>
      <trkpt lat="43.24626" lon="-1.99309">
        <ele>34.6</ele>
        <time>2021-05-29 10:08:45</time>
      </trkpt>
      <trkpt lat="43.24636" lon="-1.99306">
        <ele>34.2</ele>
        <time>2021-05-29 10:08:46</time>
      </trkpt>
      <trkpt lat="43.24647" lon="-1.99304">
        <ele>33.6</ele>
        <time>2021-05-29 10:08:47</time>
      </trkpt>
      <trkpt lat="43.24657" lon="-1.99301">
        <ele>33</ele>
        <time>2021-05-29 10:08:48</time>
      </trkpt>
      <trkpt lat="43.24666" lon="-1.99299">
        <ele>32.6</ele>
        <time>2021-05-29 10:08:49</time>
      </trkpt>
      <trkpt lat="43.24676" lon="-1.99298">
        <ele>32</ele>
        <time>2021-05-29 10:08:50</time>
      </trkpt>
      <trkpt lat="43.24686" lon="-1.99295">
        <ele>31.6</ele>
        <time>2021-05-29 10:08:51</time>
      </trkpt>
      <trkpt lat="43.24695" lon="-1.99294">
        <ele>31</ele>
        <time>2021-05-29 10:08:52</time>
      </trkpt>
      <trkpt lat="43.24704" lon="-1.99292">
        <ele>30.2</ele>
        <time>2021-05-29 10:08:53</time>
      </trkpt>
      <trkpt lat="43.24713" lon="-1.99289">
        <ele>30</ele>
        <time>2021-05-29 10:08:54</time>
      </trkpt>
      <trkpt lat="43.24721" lon="-1.99286">
        <ele>29.6</ele>
        <time>2021-05-29 10:08:55</time>
      </trkpt>
      <trkpt lat="43.2473" lon="-1.99283">
        <ele>29.4</ele>
        <time>2021-05-29 10:08:56</time>
      </trkpt>
      <trkpt lat="43.24739" lon="-1.9928">
        <ele>28.6</ele>
        <time>2021-05-29 10:08:57</time>
      </trkpt>
      <trkpt lat="43.24747" lon="-1.99276">
        <ele>28.2</ele>
        <time>2021-05-29 10:08:58</time>
      </trkpt>
      <trkpt lat="43.24755" lon="-1.99274">
        <ele>27.8</ele>
        <time>2021-05-29 10:08:59</time>
      </trkpt>
      <trkpt lat="43.24763" lon="-1.99271">
        <ele>27.6</ele>
        <time>2021-05-29 10:09:00</time>
      </trkpt>
      <trkpt lat="43.24771" lon="-1.99268">
        <ele>27</ele>
        <time>2021-05-29 10:09:01</time>
      </trkpt>
      <trkpt lat="43.24778" lon="-1.99266">
        <ele>26.4</ele>
        <time>2021-05-29 10:09:02</time>
      </trkpt>
      <trkpt lat="43.24786" lon="-1.99265">
        <ele>26.2</ele>
        <time>2021-05-29 10:09:03</time>
      </trkpt>
      <trkpt lat="43.24794" lon="-1.99265">
        <ele>26</ele>
        <time>2021-05-29 10:09:04</time>
      </trkpt>
      <trkpt lat="43.24802" lon="-1.99265">
        <ele>25.8</ele>
        <time>2021-05-29 10:09:05</time>
      </trkpt>
      <trkpt lat="43.2481" lon="-1.99263">
        <ele>25.6</ele>
        <time>2021-05-29 10:09:06</time>
      </trkpt>
      <trkpt lat="43.24817" lon="-1.99261">
        <ele>25.6</ele>
        <time>2021-05-29 10:09:07</time>
      </trkpt>
      <trkpt lat="43.24824" lon="-1.99259">
        <ele>25</ele>
        <time>2021-05-29 10:09:08</time>
      </trkpt>
      <trkpt lat="43.24831" lon="-1.99256">
        <ele>24.8</ele>
        <time>2021-05-29 10:09:09</time>
      </trkpt>
      <trkpt lat="43.24838" lon="-1.99252">
        <ele>24.4</ele>
        <time>2021-05-29 10:09:10</time>
      </trkpt>
      <trkpt lat="43.24843" lon="-1.99248">
        <ele>24.2</ele>
        <time>2021-05-29 10:09:11</time>
      </trkpt>
      <trkpt lat="43.24849" lon="-1.99244">
        <ele>24</ele>
        <time>2021-05-29 10:09:12</time>
      </trkpt>
      <trkpt lat="43.24854" lon="-1.9924">
        <ele>23.8</ele>
        <time>2021-05-29 10:09:13</time>
      </trkpt>
      <trkpt lat="43.24858" lon="-1.99235">
        <ele>23.8</ele>
        <time>2021-05-29 10:09:14</time>
      </trkpt>
      <trkpt lat="43.24862" lon="-1.9923">
        <ele>23.6</ele>
        <time>2021-05-29 10:09:15</time>
      </trkpt>
      <trkpt lat="43.24866" lon="-1.99226">
        <ele>23.2</ele>
        <time>2021-05-29 10:09:16</time>
      </trkpt>
      <trkpt lat="43.24871" lon="-1.99221">
        <ele>23.2</ele>
        <time>2021-05-29 10:09:17</time>
      </trkpt>
      <trkpt lat="43.24875" lon="-1.99217">
        <ele>23</ele>
        <time>2021-05-29 10:09:18</time>
      </trkpt>
      <trkpt lat="43.2488" lon="-1.99212">
        <ele>23</ele>
        <time>2021-05-29 10:09:19</time>
      </trkpt>
      <trkpt lat="43.24884" lon="-1.99207">
        <ele>23</ele>
        <time>2021-05-29 10:09:20</time>
      </trkpt>
      <trkpt lat="43.24889" lon="-1.99203">
        <ele>23</ele>
        <time>2021-05-29 10:09:21</time>
      </trkpt>
      <trkpt lat="43.24894" lon="-1.99198">
        <ele>23</ele>
        <time>2021-05-29 10:09:22</time>
      </trkpt>
      <trkpt lat="43.24899" lon="-1.99194">
        <ele>23</ele>
        <time>2021-05-29 10:09:23</time>
      </trkpt>
      <trkpt lat="43.24904" lon="-1.99189">
        <ele>23.2</ele>
        <time>2021-05-29 10:09:24</time>
      </trkpt>
      <trkpt lat="43.24909" lon="-1.99184">
        <ele>23.2</ele>
        <time>2021-05-29 10:09:25</time>
      </trkpt>
      <trkpt lat="43.24913" lon="-1.99179">
        <ele>23</ele>
        <time>2021-05-29 10:09:26</time>
      </trkpt>
      <trkpt lat="43.24918" lon="-1.99174">
        <ele>23.2</ele>
        <time>2021-05-29 10:09:27</time>
      </trkpt>
      <trkpt lat="43.24925" lon="-1.9917">
        <ele>23.2</ele>
        <time>2021-05-29 10:09:28</time>
      </trkpt>
      <trkpt lat="43.2493" lon="-1.99165">
        <ele>23.4</ele>
        <time>2021-05-29 10:09:29</time>
      </trkpt>
      <trkpt lat="43.24935" lon="-1.99161">
        <ele>23.6</ele>
        <time>2021-05-29 10:09:30</time>
      </trkpt>
      <trkpt lat="43.2494" lon="-1.99156">
        <ele>24</ele>
        <time>2021-05-29 10:09:31</time>
      </trkpt>
      <trkpt lat="43.24945" lon="-1.99152">
        <ele>24</ele>
        <time>2021-05-29 10:09:32</time>
      </trkpt>
      <trkpt lat="43.2495" lon="-1.99148">
        <ele>24</ele>
        <time>2021-05-29 10:09:33</time>
      </trkpt>
      <trkpt lat="43.24956" lon="-1.99144">
        <ele>24.2</ele>
        <time>2021-05-29 10:09:34</time>
      </trkpt>
      <trkpt lat="43.24961" lon="-1.9914">
        <ele>24.4</ele>
        <time>2021-05-29 10:09:35</time>
      </trkpt>
      <trkpt lat="43.24966" lon="-1.99135">
        <ele>24.6</ele>
        <time>2021-05-29 10:09:36</time>
      </trkpt>
      <trkpt lat="43.2497" lon="-1.9913">
        <ele>24.8</ele>
        <time>2021-05-29 10:09:37</time>
      </trkpt>
      <trkpt lat="43.24975" lon="-1.99125">
        <ele>25</ele>
        <time>2021-05-29 10:09:38</time>
      </trkpt>
      <trkpt lat="43.24978" lon="-1.99121">
        <ele>25</ele>
        <time>2021-05-29 10:09:39</time>
      </trkpt>
      <trkpt lat="43.24982" lon="-1.99118">
        <ele>25.2</ele>
        <time>2021-05-29 10:09:40</time>
      </trkpt>
      <trkpt lat="43.24985" lon="-1.99114">
        <ele>25.4</ele>
        <time>2021-05-29 10:09:41</time>
      </trkpt>
      <trkpt lat="43.24986" lon="-1.9911">
        <ele>25.6</ele>
        <time>2021-05-29 10:09:42</time>
      </trkpt>
      <trkpt lat="43.24987" lon="-1.99107">
        <ele>25.6</ele>
        <time>2021-05-29 10:09:43</time>
      </trkpt>
      <trkpt lat="43.24988" lon="-1.99105">
        <ele>26</ele>
        <time>2021-05-29 10:09:44</time>
      </trkpt>
      <trkpt lat="43.24989" lon="-1.99104">
        <ele>26.2</ele>
        <time>2021-05-29 10:09:45</time>
      </trkpt>
      <trkpt lat="43.24988" lon="-1.99103">
        <ele>26.4</ele>
        <time>2021-05-29 10:09:46</time>
      </trkpt>
      <trkpt lat="43.24998" lon="-1.99089">
        <ele>28.6</ele>
        <time>2021-05-29 10:10:01</time>
      </trkpt>
      <trkpt lat="43.25001" lon="-1.99086">
        <ele>28.4</ele>
        <time>2021-05-29 10:10:02</time>
      </trkpt>
      <trkpt lat="43.25004" lon="-1.99084">
        <ele>28.6</ele>
        <time>2021-05-29 10:10:03</time>
      </trkpt>
      <trkpt lat="43.25008" lon="-1.99081">
        <ele>28.6</ele>
        <time>2021-05-29 10:10:04</time>
      </trkpt>
      <trkpt lat="43.25011" lon="-1.99078">
        <ele>28.6</ele>
        <time>2021-05-29 10:10:05</time>
      </trkpt>
      <trkpt lat="43.25014" lon="-1.99074">
        <ele>28.8</ele>
        <time>2021-05-29 10:10:06</time>
      </trkpt>
      <trkpt lat="43.25017" lon="-1.9907">
        <ele>28.6</ele>
        <time>2021-05-29 10:10:07</time>
      </trkpt>
      <trkpt lat="43.25021" lon="-1.99066">
        <ele>28.8</ele>
        <time>2021-05-29 10:10:08</time>
      </trkpt>
      <trkpt lat="43.25024" lon="-1.99061">
        <ele>28.8</ele>
        <time>2021-05-29 10:10:09</time>
      </trkpt>
      <trkpt lat="43.25027" lon="-1.99057">
        <ele>29</ele>
        <time>2021-05-29 10:10:10</time>
      </trkpt>
      <trkpt lat="43.2503" lon="-1.99054">
        <ele>29.2</ele>
        <time>2021-05-29 10:10:11</time>
      </trkpt>
      <trkpt lat="43.25033" lon="-1.9905">
        <ele>29.4</ele>
        <time>2021-05-29 10:10:12</time>
      </trkpt>
      <trkpt lat="43.25037" lon="-1.99046">
        <ele>29.4</ele>
        <time>2021-05-29 10:10:13</time>
      </trkpt>
      <trkpt lat="43.2504" lon="-1.99042">
        <ele>29.8</ele>
        <time>2021-05-29 10:10:14</time>
      </trkpt>
      <trkpt lat="43.25044" lon="-1.99038">
        <ele>30</ele>
        <time>2021-05-29 10:10:15</time>
      </trkpt>
      <trkpt lat="43.25049" lon="-1.99034">
        <ele>30</ele>
        <time>2021-05-29 10:10:16</time>
      </trkpt>
      <trkpt lat="43.25053" lon="-1.99031">
        <ele>30.4</ele>
        <time>2021-05-29 10:10:17</time>
      </trkpt>
      <trkpt lat="43.25057" lon="-1.99027">
        <ele>30.6</ele>
        <time>2021-05-29 10:10:18</time>
      </trkpt>
      <trkpt lat="43.25062" lon="-1.99024">
        <ele>31</ele>
        <time>2021-05-29 10:10:19</time>
      </trkpt>
      <trkpt lat="43.25067" lon="-1.9902">
        <ele>31.4</ele>
        <time>2021-05-29 10:10:20</time>
      </trkpt>
      <trkpt lat="43.25072" lon="-1.99016">
        <ele>31.4</ele>
        <time>2021-05-29 10:10:21</time>
      </trkpt>
      <trkpt lat="43.25078" lon="-1.99011">
        <ele>31.8</ele>
        <time>2021-05-29 10:10:22</time>
      </trkpt>
      <trkpt lat="43.25084" lon="-1.99007">
        <ele>32</ele>
        <time>2021-05-29 10:10:23</time>
      </trkpt>
      <trkpt lat="43.2509" lon="-1.99003">
        <ele>32.4</ele>
        <time>2021-05-29 10:10:24</time>
      </trkpt>
      <trkpt lat="43.25097" lon="-1.98998">
        <ele>32.8</ele>
        <time>2021-05-29 10:10:25</time>
      </trkpt>
      <trkpt lat="43.25104" lon="-1.98994">
        <ele>33</ele>
        <time>2021-05-29 10:10:26</time>
      </trkpt>
      <trkpt lat="43.25112" lon="-1.9899">
        <ele>33.4</ele>
        <time>2021-05-29 10:10:27</time>
      </trkpt>
      <trkpt lat="43.2512" lon="-1.98986">
        <ele>33.8</ele>
        <time>2021-05-29 10:10:28</time>
      </trkpt>
      <trkpt lat="43.25128" lon="-1.98981">
        <ele>33.8</ele>
        <time>2021-05-29 10:10:29</time>
      </trkpt>
      <trkpt lat="43.25137" lon="-1.98976">
        <ele>34</ele>
        <time>2021-05-29 10:10:30</time>
      </trkpt>
      <trkpt lat="43.25146" lon="-1.98971">
        <ele>33.8</ele>
        <time>2021-05-29 10:10:31</time>
      </trkpt>
      <trkpt lat="43.25156" lon="-1.98966">
        <ele>34</ele>
        <time>2021-05-29 10:10:32</time>
      </trkpt>
      <trkpt lat="43.25166" lon="-1.9896">
        <ele>34</ele>
        <time>2021-05-29 10:10:33</time>
      </trkpt>
      <trkpt lat="43.25177" lon="-1.98953">
        <ele>34</ele>
        <time>2021-05-29 10:10:34</time>
      </trkpt>
      <trkpt lat="43.25187" lon="-1.98946">
        <ele>34</ele>
        <time>2021-05-29 10:10:35</time>
      </trkpt>
      <trkpt lat="43.25198" lon="-1.9894">
        <ele>34</ele>
        <time>2021-05-29 10:10:36</time>
      </trkpt>
      <trkpt lat="43.25209" lon="-1.98934">
        <ele>34</ele>
        <time>2021-05-29 10:10:37</time>
      </trkpt>
      <trkpt lat="43.25219" lon="-1.98929">
        <ele>34</ele>
        <time>2021-05-29 10:10:38</time>
      </trkpt>
      <trkpt lat="43.25229" lon="-1.98924">
        <ele>33.8</ele>
        <time>2021-05-29 10:10:39</time>
      </trkpt>
      <trkpt lat="43.2524" lon="-1.98919">
        <ele>33.6</ele>
        <time>2021-05-29 10:10:40</time>
      </trkpt>
      <trkpt lat="43.25249" lon="-1.98914">
        <ele>32.8</ele>
        <time>2021-05-29 10:10:41</time>
      </trkpt>
      <trkpt lat="43.25259" lon="-1.98911">
        <ele>32</ele>
        <time>2021-05-29 10:10:42</time>
      </trkpt>
      <trkpt lat="43.25268" lon="-1.98907">
        <ele>31.4</ele>
        <time>2021-05-29 10:10:43</time>
      </trkpt>
      <trkpt lat="43.25277" lon="-1.98904">
        <ele>30.8</ele>
        <time>2021-05-29 10:10:44</time>
      </trkpt>
      <trkpt lat="43.25285" lon="-1.98901">
        <ele>30.4</ele>
        <time>2021-05-29 10:10:45</time>
      </trkpt>
      <trkpt lat="43.25293" lon="-1.98898">
        <ele>30.2</ele>
        <time>2021-05-29 10:10:46</time>
      </trkpt>
      <trkpt lat="43.25301" lon="-1.98895">
        <ele>30.2</ele>
        <time>2021-05-29 10:10:47</time>
      </trkpt>
      <trkpt lat="43.25308" lon="-1.98892">
        <ele>30.2</ele>
        <time>2021-05-29 10:10:48</time>
      </trkpt>
      <trkpt lat="43.25315" lon="-1.98889">
        <ele>30.2</ele>
        <time>2021-05-29 10:10:49</time>
      </trkpt>
      <trkpt lat="43.25322" lon="-1.98885">
        <ele>30.2</ele>
        <time>2021-05-29 10:10:50</time>
      </trkpt>
      <trkpt lat="43.25329" lon="-1.98882">
        <ele>30.2</ele>
        <time>2021-05-29 10:10:51</time>
      </trkpt>
      <trkpt lat="43.25335" lon="-1.98879">
        <ele>30.2</ele>
        <time>2021-05-29 10:10:52</time>
      </trkpt>
      <trkpt lat="43.25342" lon="-1.98875">
        <ele>30.2</ele>
        <time>2021-05-29 10:10:53</time>
      </trkpt>
      <trkpt lat="43.25348" lon="-1.98872">
        <ele>30.2</ele>
        <time>2021-05-29 10:10:54</time>
      </trkpt>
      <trkpt lat="43.25355" lon="-1.98868">
        <ele>30.2</ele>
        <time>2021-05-29 10:10:55</time>
      </trkpt>
      <trkpt lat="43.25361" lon="-1.98865">
        <ele>30.4</ele>
        <time>2021-05-29 10:10:56</time>
      </trkpt>
      <trkpt lat="43.25368" lon="-1.98861">
        <ele>30.4</ele>
        <time>2021-05-29 10:10:57</time>
      </trkpt>
      <trkpt lat="43.25374" lon="-1.98858">
        <ele>30.4</ele>
        <time>2021-05-29 10:10:58</time>
      </trkpt>
      <trkpt lat="43.2538" lon="-1.98854">
        <ele>31</ele>
        <time>2021-05-29 10:10:59</time>
      </trkpt>
      <trkpt lat="43.25386" lon="-1.98851">
        <ele>31.6</ele>
        <time>2021-05-29 10:11:00</time>
      </trkpt>
      <trkpt lat="43.25392" lon="-1.98847">
        <ele>32</ele>
        <time>2021-05-29 10:11:01</time>
      </trkpt>
      <trkpt lat="43.25399" lon="-1.98844">
        <ele>32.4</ele>
        <time>2021-05-29 10:11:02</time>
      </trkpt>
      <trkpt lat="43.25405" lon="-1.9884">
        <ele>32.8</ele>
        <time>2021-05-29 10:11:03</time>
      </trkpt>
      <trkpt lat="43.25411" lon="-1.98837">
        <ele>33.2</ele>
        <time>2021-05-29 10:11:04</time>
      </trkpt>
      <trkpt lat="43.25417" lon="-1.98833">
        <ele>33.4</ele>
        <time>2021-05-29 10:11:05</time>
      </trkpt>
      <trkpt lat="43.25423" lon="-1.9883">
        <ele>33.8</ele>
        <time>2021-05-29 10:11:06</time>
      </trkpt>
      <trkpt lat="43.25429" lon="-1.98827">
        <ele>33.8</ele>
        <time>2021-05-29 10:11:07</time>
      </trkpt>
      <trkpt lat="43.25434" lon="-1.98824">
        <ele>34</ele>
        <time>2021-05-29 10:11:08</time>
      </trkpt>
      <trkpt lat="43.2544" lon="-1.9882">
        <ele>34.2</ele>
        <time>2021-05-29 10:11:09</time>
      </trkpt>
      <trkpt lat="43.25446" lon="-1.98817">
        <ele>34.2</ele>
        <time>2021-05-29 10:11:10</time>
      </trkpt>
      <trkpt lat="43.25452" lon="-1.98814">
        <ele>34.4</ele>
        <time>2021-05-29 10:11:11</time>
      </trkpt>
      <trkpt lat="43.25458" lon="-1.9881">
        <ele>34.6</ele>
        <time>2021-05-29 10:11:12</time>
      </trkpt>
      <trkpt lat="43.25464" lon="-1.98807">
        <ele>35</ele>
        <time>2021-05-29 10:11:13</time>
      </trkpt>
      <trkpt lat="43.2547" lon="-1.98803">
        <ele>35.2</ele>
        <time>2021-05-29 10:11:14</time>
      </trkpt>
      <trkpt lat="43.25476" lon="-1.988">
        <ele>35.4</ele>
        <time>2021-05-29 10:11:15</time>
      </trkpt>
      <trkpt lat="43.25481" lon="-1.98796">
        <ele>35.8</ele>
        <time>2021-05-29 10:11:16</time>
      </trkpt>
      <trkpt lat="43.25487" lon="-1.98793">
        <ele>35.8</ele>
        <time>2021-05-29 10:11:17</time>
      </trkpt>
      <trkpt lat="43.25492" lon="-1.9879">
        <ele>36</ele>
        <time>2021-05-29 10:11:18</time>
      </trkpt>
      <trkpt lat="43.25498" lon="-1.98786">
        <ele>36</ele>
        <time>2021-05-29 10:11:19</time>
      </trkpt>
      <trkpt lat="43.25502" lon="-1.98782">
        <ele>36.2</ele>
        <time>2021-05-29 10:11:20</time>
      </trkpt>
      <trkpt lat="43.25507" lon="-1.98779">
        <ele>36.6</ele>
        <time>2021-05-29 10:11:21</time>
      </trkpt>
      <trkpt lat="43.25511" lon="-1.98775">
        <ele>36.4</ele>
        <time>2021-05-29 10:11:22</time>
      </trkpt>
      <trkpt lat="43.25515" lon="-1.98771">
        <ele>36.6</ele>
        <time>2021-05-29 10:11:23</time>
      </trkpt>
      <trkpt lat="43.25518" lon="-1.98767">
        <ele>36.8</ele>
        <time>2021-05-29 10:11:24</time>
      </trkpt>
      <trkpt lat="43.25522" lon="-1.98763">
        <ele>37</ele>
        <time>2021-05-29 10:11:25</time>
      </trkpt>
      <trkpt lat="43.25525" lon="-1.98759">
        <ele>37</ele>
        <time>2021-05-29 10:11:26</time>
      </trkpt>
      <trkpt lat="43.25528" lon="-1.98755">
        <ele>37.4</ele>
        <time>2021-05-29 10:11:27</time>
      </trkpt>
      <trkpt lat="43.25532" lon="-1.9875">
        <ele>37.6</ele>
        <time>2021-05-29 10:11:28</time>
      </trkpt>
      <trkpt lat="43.25535" lon="-1.98746">
        <ele>37.8</ele>
        <time>2021-05-29 10:11:29</time>
      </trkpt>
      <trkpt lat="43.25538" lon="-1.98742">
        <ele>38</ele>
        <time>2021-05-29 10:11:30</time>
      </trkpt>
      <trkpt lat="43.25542" lon="-1.98737">
        <ele>38.4</ele>
        <time>2021-05-29 10:11:31</time>
      </trkpt>
      <trkpt lat="43.25545" lon="-1.98732">
        <ele>38.8</ele>
        <time>2021-05-29 10:11:32</time>
      </trkpt>
      <trkpt lat="43.25548" lon="-1.98727">
        <ele>39.2</ele>
        <time>2021-05-29 10:11:33</time>
      </trkpt>
      <trkpt lat="43.25551" lon="-1.98721">
        <ele>39.2</ele>
        <time>2021-05-29 10:11:34</time>
      </trkpt>
      <trkpt lat="43.25554" lon="-1.98715">
        <ele>39.6</ele>
        <time>2021-05-29 10:11:35</time>
      </trkpt>
      <trkpt lat="43.25557" lon="-1.98708">
        <ele>40</ele>
        <time>2021-05-29 10:11:36</time>
      </trkpt>
      <trkpt lat="43.2556" lon="-1.98701">
        <ele>40.2</ele>
        <time>2021-05-29 10:11:37</time>
      </trkpt>
      <trkpt lat="43.25563" lon="-1.98694">
        <ele>40.4</ele>
        <time>2021-05-29 10:11:38</time>
      </trkpt>
      <trkpt lat="43.25567" lon="-1.98687">
        <ele>40.8</ele>
        <time>2021-05-29 10:11:39</time>
      </trkpt>
      <trkpt lat="43.25571" lon="-1.98679">
        <ele>41</ele>
        <time>2021-05-29 10:11:40</time>
      </trkpt>
      <trkpt lat="43.25575" lon="-1.98672">
        <ele>41</ele>
        <time>2021-05-29 10:11:41</time>
      </trkpt>
      <trkpt lat="43.25579" lon="-1.98664">
        <ele>41.2</ele>
        <time>2021-05-29 10:11:42</time>
      </trkpt>
      <trkpt lat="43.25584" lon="-1.98656">
        <ele>41.2</ele>
        <time>2021-05-29 10:11:43</time>
      </trkpt>
      <trkpt lat="43.25589" lon="-1.98648">
        <ele>41.2</ele>
        <time>2021-05-29 10:11:44</time>
      </trkpt>
      <trkpt lat="43.25595" lon="-1.98641">
        <ele>41.2</ele>
        <time>2021-05-29 10:11:45</time>
      </trkpt>
      <trkpt lat="43.25602" lon="-1.98634">
        <ele>41.2</ele>
        <time>2021-05-29 10:11:46</time>
      </trkpt>
      <trkpt lat="43.2561" lon="-1.98628">
        <ele>41.2</ele>
        <time>2021-05-29 10:11:47</time>
      </trkpt>
      <trkpt lat="43.25618" lon="-1.98622">
        <ele>41.2</ele>
        <time>2021-05-29 10:11:48</time>
      </trkpt>
      <trkpt lat="43.25626" lon="-1.98617">
        <ele>41.2</ele>
        <time>2021-05-29 10:11:49</time>
      </trkpt>
      <trkpt lat="43.25635" lon="-1.98613">
        <ele>41.2</ele>
        <time>2021-05-29 10:11:50</time>
      </trkpt>
      <trkpt lat="43.25644" lon="-1.98609">
        <ele>41.2</ele>
        <time>2021-05-29 10:11:51</time>
      </trkpt>
      <trkpt lat="43.25653" lon="-1.98606">
        <ele>41</ele>
        <time>2021-05-29 10:11:52</time>
      </trkpt>
      <trkpt lat="43.25663" lon="-1.98601">
        <ele>41</ele>
        <time>2021-05-29 10:11:53</time>
      </trkpt>
      <trkpt lat="43.25672" lon="-1.98596">
        <ele>41</ele>
        <time>2021-05-29 10:11:54</time>
      </trkpt>
      <trkpt lat="43.25681" lon="-1.98589">
        <ele>40.8</ele>
        <time>2021-05-29 10:11:55</time>
      </trkpt>
      <trkpt lat="43.2569" lon="-1.98582">
        <ele>40.6</ele>
        <time>2021-05-29 10:11:56</time>
      </trkpt>
      <trkpt lat="43.25698" lon="-1.98572">
        <ele>40.2</ele>
        <time>2021-05-29 10:11:57</time>
      </trkpt>
      <trkpt lat="43.25705" lon="-1.98562">
        <ele>40</ele>
        <time>2021-05-29 10:11:58</time>
      </trkpt>
      <trkpt lat="43.25711" lon="-1.9855">
        <ele>39.8</ele>
        <time>2021-05-29 10:11:59</time>
      </trkpt>
      <trkpt lat="43.25717" lon="-1.98537">
        <ele>39.4</ele>
        <time>2021-05-29 10:12:00</time>
      </trkpt>
      <trkpt lat="43.25723" lon="-1.98525">
        <ele>39</ele>
        <time>2021-05-29 10:12:01</time>
      </trkpt>
      <trkpt lat="43.25727" lon="-1.98513">
        <ele>38.8</ele>
        <time>2021-05-29 10:12:02</time>
      </trkpt>
      <trkpt lat="43.25732" lon="-1.98502">
        <ele>38.6</ele>
        <time>2021-05-29 10:12:03</time>
      </trkpt>
      <trkpt lat="43.25738" lon="-1.98491">
        <ele>38.2</ele>
        <time>2021-05-29 10:12:04</time>
      </trkpt>
      <trkpt lat="43.25745" lon="-1.98482">
        <ele>37.8</ele>
        <time>2021-05-29 10:12:05</time>
      </trkpt>
      <trkpt lat="43.25753" lon="-1.98475">
        <ele>37.4</ele>
        <time>2021-05-29 10:12:06</time>
      </trkpt>
      <trkpt lat="43.25761" lon="-1.9847">
        <ele>37</ele>
        <time>2021-05-29 10:12:07</time>
      </trkpt>
      <trkpt lat="43.2577" lon="-1.98467">
        <ele>36.4</ele>
        <time>2021-05-29 10:12:08</time>
      </trkpt>
      <trkpt lat="43.2578" lon="-1.98465">
        <ele>36</ele>
        <time>2021-05-29 10:12:09</time>
      </trkpt>
      <trkpt lat="43.2579" lon="-1.98465">
        <ele>35.6</ele>
        <time>2021-05-29 10:12:10</time>
      </trkpt>
      <trkpt lat="43.25799" lon="-1.98466">
        <ele>35.2</ele>
        <time>2021-05-29 10:12:11</time>
      </trkpt>
      <trkpt lat="43.25808" lon="-1.98464">
        <ele>34.8</ele>
        <time>2021-05-29 10:12:12</time>
      </trkpt>
      <trkpt lat="43.25817" lon="-1.98462">
        <ele>34.4</ele>
        <time>2021-05-29 10:12:13</time>
      </trkpt>
      <trkpt lat="43.25825" lon="-1.98459">
        <ele>33.8</ele>
        <time>2021-05-29 10:12:14</time>
      </trkpt>
      <trkpt lat="43.25833" lon="-1.98457">
        <ele>33.6</ele>
        <time>2021-05-29 10:12:15</time>
      </trkpt>
      <trkpt lat="43.25841" lon="-1.98458">
        <ele>33.2</ele>
        <time>2021-05-29 10:12:16</time>
      </trkpt>
      <trkpt lat="43.25848" lon="-1.98462">
        <ele>32.8</ele>
        <time>2021-05-29 10:12:17</time>
      </trkpt>
      <trkpt lat="43.25854" lon="-1.98468">
        <ele>32.6</ele>
        <time>2021-05-29 10:12:18</time>
      </trkpt>
      <trkpt lat="43.25859" lon="-1.98475">
        <ele>32.4</ele>
        <time>2021-05-29 10:12:19</time>
      </trkpt>
      <trkpt lat="43.25863" lon="-1.98484">
        <ele>32</ele>
        <time>2021-05-29 10:12:20</time>
      </trkpt>
      <trkpt lat="43.25867" lon="-1.98492">
        <ele>31.8</ele>
        <time>2021-05-29 10:12:21</time>
      </trkpt>
      <trkpt lat="43.25871" lon="-1.985">
        <ele>31.4</ele>
        <time>2021-05-29 10:12:22</time>
      </trkpt>
      <trkpt lat="43.25877" lon="-1.98507">
        <ele>31.4</ele>
        <time>2021-05-29 10:12:23</time>
      </trkpt>
      <trkpt lat="43.25883" lon="-1.98511">
        <ele>31</ele>
        <time>2021-05-29 10:12:24</time>
      </trkpt>
      <trkpt lat="43.25891" lon="-1.98511">
        <ele>30.8</ele>
        <time>2021-05-29 10:12:25</time>
      </trkpt>
      <trkpt lat="43.25899" lon="-1.98509">
        <ele>30.8</ele>
        <time>2021-05-29 10:12:26</time>
      </trkpt>
      <trkpt lat="43.25907" lon="-1.98506">
        <ele>30.8</ele>
        <time>2021-05-29 10:12:27</time>
      </trkpt>
      <trkpt lat="43.25914" lon="-1.985">
        <ele>30.8</ele>
        <time>2021-05-29 10:12:28</time>
      </trkpt>
      <trkpt lat="43.25921" lon="-1.98492">
        <ele>30.4</ele>
        <time>2021-05-29 10:12:29</time>
      </trkpt>
      <trkpt lat="43.25926" lon="-1.98483">
        <ele>30.4</ele>
        <time>2021-05-29 10:12:30</time>
      </trkpt>
      <trkpt lat="43.25929" lon="-1.98472">
        <ele>30.4</ele>
        <time>2021-05-29 10:12:31</time>
      </trkpt>
      <trkpt lat="43.25931" lon="-1.98461">
        <ele>30.2</ele>
        <time>2021-05-29 10:12:32</time>
      </trkpt>
      <trkpt lat="43.25931" lon="-1.9845">
        <ele>30.2</ele>
        <time>2021-05-29 10:12:33</time>
      </trkpt>
      <trkpt lat="43.25931" lon="-1.98439">
        <ele>30.2</ele>
        <time>2021-05-29 10:12:34</time>
      </trkpt>
      <trkpt lat="43.2593" lon="-1.98428">
        <ele>30.2</ele>
        <time>2021-05-29 10:12:35</time>
      </trkpt>
      <trkpt lat="43.25929" lon="-1.98418">
        <ele>30.2</ele>
        <time>2021-05-29 10:12:36</time>
      </trkpt>
      <trkpt lat="43.25928" lon="-1.98407">
        <ele>30.2</ele>
        <time>2021-05-29 10:12:37</time>
      </trkpt>
      <trkpt lat="43.25926" lon="-1.98396">
        <ele>30.2</ele>
        <time>2021-05-29 10:12:38</time>
      </trkpt>
      <trkpt lat="43.25925" lon="-1.98386">
        <ele>30.2</ele>
        <time>2021-05-29 10:12:39</time>
      </trkpt>
      <trkpt lat="43.25924" lon="-1.98375">
        <ele>30</ele>
        <time>2021-05-29 10:12:40</time>
      </trkpt>
      <trkpt lat="43.25923" lon="-1.98364">
        <ele>30</ele>
        <time>2021-05-29 10:12:41</time>
      </trkpt>
      <trkpt lat="43.25923" lon="-1.98352">
        <ele>30</ele>
        <time>2021-05-29 10:12:42</time>
      </trkpt>
      <trkpt lat="43.25922" lon="-1.98341">
        <ele>30</ele>
        <time>2021-05-29 10:12:43</time>
      </trkpt>
      <trkpt lat="43.25922" lon="-1.98329">
        <ele>29.8</ele>
        <time>2021-05-29 10:12:44</time>
      </trkpt>
      <trkpt lat="43.25922" lon="-1.98317">
        <ele>29.8</ele>
        <time>2021-05-29 10:12:45</time>
      </trkpt>
      <trkpt lat="43.25923" lon="-1.98304">
        <ele>29.8</ele>
        <time>2021-05-29 10:12:46</time>
      </trkpt>
      <trkpt lat="43.25924" lon="-1.98292">
        <ele>29.8</ele>
        <time>2021-05-29 10:12:47</time>
      </trkpt>
      <trkpt lat="43.25927" lon="-1.9828">
        <ele>29.8</ele>
        <time>2021-05-29 10:12:48</time>
      </trkpt>
      <trkpt lat="43.25932" lon="-1.98268">
        <ele>29.6</ele>
        <time>2021-05-29 10:12:49</time>
      </trkpt>
      <trkpt lat="43.25937" lon="-1.98257">
        <ele>29.6</ele>
        <time>2021-05-29 10:12:50</time>
      </trkpt>
      <trkpt lat="43.25943" lon="-1.98247">
        <ele>29.2</ele>
        <time>2021-05-29 10:12:51</time>
      </trkpt>
      <trkpt lat="43.2595" lon="-1.98237">
        <ele>29.2</ele>
        <time>2021-05-29 10:12:52</time>
      </trkpt>
      <trkpt lat="43.25958" lon="-1.98228">
        <ele>28.8</ele>
        <time>2021-05-29 10:12:53</time>
      </trkpt>
      <trkpt lat="43.25966" lon="-1.98218">
        <ele>28.4</ele>
        <time>2021-05-29 10:12:54</time>
      </trkpt>
      <trkpt lat="43.25974" lon="-1.98208">
        <ele>28.2</ele>
        <time>2021-05-29 10:12:55</time>
      </trkpt>
      <trkpt lat="43.25982" lon="-1.98198">
        <ele>27.8</ele>
        <time>2021-05-29 10:12:56</time>
      </trkpt>
      <trkpt lat="43.2599" lon="-1.98188">
        <ele>27.6</ele>
        <time>2021-05-29 10:12:57</time>
      </trkpt>
      <trkpt lat="43.25998" lon="-1.98179">
        <ele>27.2</ele>
        <time>2021-05-29 10:12:58</time>
      </trkpt>
      <trkpt lat="43.26005" lon="-1.9817">
        <ele>26.6</ele>
        <time>2021-05-29 10:12:59</time>
      </trkpt>
      <trkpt lat="43.26012" lon="-1.98161">
        <ele>26.2</ele>
        <time>2021-05-29 10:13:00</time>
      </trkpt>
      <trkpt lat="43.26019" lon="-1.98153">
        <ele>25.8</ele>
        <time>2021-05-29 10:13:01</time>
      </trkpt>
      <trkpt lat="43.26025" lon="-1.98146">
        <ele>25.4</ele>
        <time>2021-05-29 10:13:02</time>
      </trkpt>
      <trkpt lat="43.2603" lon="-1.98139">
        <ele>25.2</ele>
        <time>2021-05-29 10:13:03</time>
      </trkpt>
      <trkpt lat="43.26035" lon="-1.98132">
        <ele>25.2</ele>
        <time>2021-05-29 10:13:04</time>
      </trkpt>
      <trkpt lat="43.2604" lon="-1.98125">
        <ele>25.2</ele>
        <time>2021-05-29 10:13:05</time>
      </trkpt>
      <trkpt lat="43.26045" lon="-1.98119">
        <ele>24.8</ele>
        <time>2021-05-29 10:13:06</time>
      </trkpt>
      <trkpt lat="43.26049" lon="-1.98113">
        <ele>24.8</ele>
        <time>2021-05-29 10:13:07</time>
      </trkpt>
      <trkpt lat="43.26054" lon="-1.98107">
        <ele>24.8</ele>
        <time>2021-05-29 10:13:08</time>
      </trkpt>
      <trkpt lat="43.26059" lon="-1.98102">
        <ele>24.8</ele>
        <time>2021-05-29 10:13:09</time>
      </trkpt>
      <trkpt lat="43.26063" lon="-1.98096">
        <ele>24.8</ele>
        <time>2021-05-29 10:13:10</time>
      </trkpt>
      <trkpt lat="43.26068" lon="-1.9809">
        <ele>24.8</ele>
        <time>2021-05-29 10:13:11</time>
      </trkpt>
      <trkpt lat="43.26073" lon="-1.98085">
        <ele>25</ele>
        <time>2021-05-29 10:13:12</time>
      </trkpt>
      <trkpt lat="43.26077" lon="-1.98079">
        <ele>25.2</ele>
        <time>2021-05-29 10:13:13</time>
      </trkpt>
      <trkpt lat="43.26082" lon="-1.98073">
        <ele>25.4</ele>
        <time>2021-05-29 10:13:14</time>
      </trkpt>
      <trkpt lat="43.26086" lon="-1.98068">
        <ele>25.4</ele>
        <time>2021-05-29 10:13:15</time>
      </trkpt>
      <trkpt lat="43.26091" lon="-1.98062">
        <ele>25.8</ele>
        <time>2021-05-29 10:13:16</time>
      </trkpt>
      <trkpt lat="43.26095" lon="-1.98057">
        <ele>26</ele>
        <time>2021-05-29 10:13:17</time>
      </trkpt>
      <trkpt lat="43.261" lon="-1.98051">
        <ele>26.4</ele>
        <time>2021-05-29 10:13:18</time>
      </trkpt>
      <trkpt lat="43.26104" lon="-1.98046">
        <ele>26.8</ele>
        <time>2021-05-29 10:13:19</time>
      </trkpt>
      <trkpt lat="43.26109" lon="-1.98041">
        <ele>27.2</ele>
        <time>2021-05-29 10:13:20</time>
      </trkpt>
      <trkpt lat="43.26113" lon="-1.98035">
        <ele>27.2</ele>
        <time>2021-05-29 10:13:21</time>
      </trkpt>
      <trkpt lat="43.26117" lon="-1.9803">
        <ele>27.6</ele>
        <time>2021-05-29 10:13:22</time>
      </trkpt>
      <trkpt lat="43.26121" lon="-1.98025">
        <ele>28</ele>
        <time>2021-05-29 10:13:23</time>
      </trkpt>
      <trkpt lat="43.26125" lon="-1.9802">
        <ele>28.4</ele>
        <time>2021-05-29 10:13:24</time>
      </trkpt>
      <trkpt lat="43.26129" lon="-1.98015">
        <ele>28.4</ele>
        <time>2021-05-29 10:13:25</time>
      </trkpt>
      <trkpt lat="43.26133" lon="-1.9801">
        <ele>29</ele>
        <time>2021-05-29 10:13:26</time>
      </trkpt>
      <trkpt lat="43.26137" lon="-1.98005">
        <ele>29.2</ele>
        <time>2021-05-29 10:13:27</time>
      </trkpt>
      <trkpt lat="43.26141" lon="-1.98">
        <ele>29.6</ele>
        <time>2021-05-29 10:13:28</time>
      </trkpt>
      <trkpt lat="43.26145" lon="-1.97994">
        <ele>30</ele>
        <time>2021-05-29 10:13:29</time>
      </trkpt>
      <trkpt lat="43.26149" lon="-1.97989">
        <ele>30.2</ele>
        <time>2021-05-29 10:13:30</time>
      </trkpt>
      <trkpt lat="43.26154" lon="-1.97984">
        <ele>30.8</ele>
        <time>2021-05-29 10:13:31</time>
      </trkpt>
      <trkpt lat="43.26158" lon="-1.97978">
        <ele>31.2</ele>
        <time>2021-05-29 10:13:32</time>
      </trkpt>
      <trkpt lat="43.26163" lon="-1.97973">
        <ele>31.8</ele>
        <time>2021-05-29 10:13:33</time>
      </trkpt>
      <trkpt lat="43.26167" lon="-1.97968">
        <ele>32.2</ele>
        <time>2021-05-29 10:13:34</time>
      </trkpt>
      <trkpt lat="43.26171" lon="-1.97964">
        <ele>32.6</ele>
        <time>2021-05-29 10:13:35</time>
      </trkpt>
      <trkpt lat="43.26176" lon="-1.97959">
        <ele>33</ele>
        <time>2021-05-29 10:13:36</time>
      </trkpt>
      <trkpt lat="43.26181" lon="-1.97955">
        <ele>33.4</ele>
        <time>2021-05-29 10:13:37</time>
      </trkpt>
      <trkpt lat="43.26186" lon="-1.97951">
        <ele>33.6</ele>
        <time>2021-05-29 10:13:38</time>
      </trkpt>
      <trkpt lat="43.26191" lon="-1.97948">
        <ele>33.8</ele>
        <time>2021-05-29 10:13:39</time>
      </trkpt>
      <trkpt lat="43.26197" lon="-1.97945">
        <ele>34.2</ele>
        <time>2021-05-29 10:13:40</time>
      </trkpt>
      <trkpt lat="43.26203" lon="-1.97942">
        <ele>34.2</ele>
        <time>2021-05-29 10:13:41</time>
      </trkpt>
      <trkpt lat="43.26208" lon="-1.97939">
        <ele>34.6</ele>
        <time>2021-05-29 10:13:42</time>
      </trkpt>
      <trkpt lat="43.26215" lon="-1.97936">
        <ele>35</ele>
        <time>2021-05-29 10:13:43</time>
      </trkpt>
      <trkpt lat="43.26221" lon="-1.97934">
        <ele>35</ele>
        <time>2021-05-29 10:13:44</time>
      </trkpt>
      <trkpt lat="43.26227" lon="-1.97932">
        <ele>35.2</ele>
        <time>2021-05-29 10:13:45</time>
      </trkpt>
      <trkpt lat="43.26234" lon="-1.97931">
        <ele>35.4</ele>
        <time>2021-05-29 10:13:46</time>
      </trkpt>
      <trkpt lat="43.2624" lon="-1.9793">
        <ele>35.6</ele>
        <time>2021-05-29 10:13:47</time>
      </trkpt>
      <trkpt lat="43.26248" lon="-1.97928">
        <ele>35.6</ele>
        <time>2021-05-29 10:13:48</time>
      </trkpt>
      <trkpt lat="43.26255" lon="-1.97927">
        <ele>35.6</ele>
        <time>2021-05-29 10:13:49</time>
      </trkpt>
      <trkpt lat="43.26262" lon="-1.97926">
        <ele>35.6</ele>
        <time>2021-05-29 10:13:50</time>
      </trkpt>
      <trkpt lat="43.2627" lon="-1.97926">
        <ele>35.6</ele>
        <time>2021-05-29 10:13:51</time>
      </trkpt>
      <trkpt lat="43.26278" lon="-1.97927">
        <ele>35.6</ele>
        <time>2021-05-29 10:13:52</time>
      </trkpt>
      <trkpt lat="43.26286" lon="-1.97927">
        <ele>35.6</ele>
        <time>2021-05-29 10:13:53</time>
      </trkpt>
      <trkpt lat="43.26295" lon="-1.97929">
        <ele>35.6</ele>
        <time>2021-05-29 10:13:54</time>
      </trkpt>
      <trkpt lat="43.26304" lon="-1.9793">
        <ele>35.6</ele>
        <time>2021-05-29 10:13:55</time>
      </trkpt>
      <trkpt lat="43.26312" lon="-1.97932">
        <ele>35.6</ele>
        <time>2021-05-29 10:13:56</time>
      </trkpt>
      <trkpt lat="43.26321" lon="-1.97934">
        <ele>35.4</ele>
        <time>2021-05-29 10:13:57</time>
      </trkpt>
      <trkpt lat="43.2633" lon="-1.97936">
        <ele>35.4</ele>
        <time>2021-05-29 10:13:58</time>
      </trkpt>
      <trkpt lat="43.26339" lon="-1.97939">
        <ele>35.2</ele>
        <time>2021-05-29 10:13:59</time>
      </trkpt>
      <trkpt lat="43.26348" lon="-1.97942">
        <ele>34.8</ele>
        <time>2021-05-29 10:14:00</time>
      </trkpt>
      <trkpt lat="43.26357" lon="-1.97944">
        <ele>34.6</ele>
        <time>2021-05-29 10:14:01</time>
      </trkpt>
      <trkpt lat="43.26365" lon="-1.97946">
        <ele>34.4</ele>
        <time>2021-05-29 10:14:02</time>
      </trkpt>
      <trkpt lat="43.26374" lon="-1.97949">
        <ele>33.8</ele>
        <time>2021-05-29 10:14:03</time>
      </trkpt>
      <trkpt lat="43.26383" lon="-1.97951">
        <ele>33.6</ele>
        <time>2021-05-29 10:14:04</time>
      </trkpt>
      <trkpt lat="43.26392" lon="-1.97953">
        <ele>33.2</ele>
        <time>2021-05-29 10:14:05</time>
      </trkpt>
      <trkpt lat="43.264" lon="-1.97954">
        <ele>32.8</ele>
        <time>2021-05-29 10:14:06</time>
      </trkpt>
      <trkpt lat="43.26407" lon="-1.97956">
        <ele>32.8</ele>
        <time>2021-05-29 10:14:07</time>
      </trkpt>
      <trkpt lat="43.26415" lon="-1.97957">
        <ele>32.4</ele>
        <time>2021-05-29 10:14:08</time>
      </trkpt>
      <trkpt lat="43.26421" lon="-1.97959">
        <ele>32.4</ele>
        <time>2021-05-29 10:14:09</time>
      </trkpt>
      <trkpt lat="43.26428" lon="-1.97961">
        <ele>32.4</ele>
        <time>2021-05-29 10:14:10</time>
      </trkpt>
      <trkpt lat="43.26434" lon="-1.97962">
        <ele>32.4</ele>
        <time>2021-05-29 10:14:11</time>
      </trkpt>
      <trkpt lat="43.26441" lon="-1.97963">
        <ele>32.4</ele>
        <time>2021-05-29 10:14:12</time>
      </trkpt>
      <trkpt lat="43.26447" lon="-1.97965">
        <ele>32.4</ele>
        <time>2021-05-29 10:14:13</time>
      </trkpt>
      <trkpt lat="43.26453" lon="-1.97966">
        <ele>32.4</ele>
        <time>2021-05-29 10:14:14</time>
      </trkpt>
      <trkpt lat="43.26459" lon="-1.97967">
        <ele>32.4</ele>
        <time>2021-05-29 10:14:15</time>
      </trkpt>
      <trkpt lat="43.26464" lon="-1.97968">
        <ele>32.4</ele>
        <time>2021-05-29 10:14:16</time>
      </trkpt>
      <trkpt lat="43.26469" lon="-1.97967">
        <ele>32.6</ele>
        <time>2021-05-29 10:14:17</time>
      </trkpt>
      <trkpt lat="43.26474" lon="-1.97966">
        <ele>32.8</ele>
        <time>2021-05-29 10:14:18</time>
      </trkpt>
      <trkpt lat="43.26478" lon="-1.97963">
        <ele>32.8</ele>
        <time>2021-05-29 10:14:19</time>
      </trkpt>
      <trkpt lat="43.26481" lon="-1.9796">
        <ele>33.2</ele>
        <time>2021-05-29 10:14:20</time>
      </trkpt>
      <trkpt lat="43.26484" lon="-1.97956">
        <ele>33.8</ele>
        <time>2021-05-29 10:14:21</time>
      </trkpt>
      <trkpt lat="43.26487" lon="-1.97951">
        <ele>34.2</ele>
        <time>2021-05-29 10:14:22</time>
      </trkpt>
      <trkpt lat="43.26491" lon="-1.97947">
        <ele>34.6</ele>
        <time>2021-05-29 10:14:23</time>
      </trkpt>
      <trkpt lat="43.26495" lon="-1.97945">
        <ele>35</ele>
        <time>2021-05-29 10:14:24</time>
      </trkpt>
      <trkpt lat="43.265" lon="-1.97945">
        <ele>35.4</ele>
        <time>2021-05-29 10:14:25</time>
      </trkpt>
      <trkpt lat="43.26504" lon="-1.97947">
        <ele>35.4</ele>
        <time>2021-05-29 10:14:26</time>
      </trkpt>
      <trkpt lat="43.26508" lon="-1.97952">
        <ele>35.6</ele>
        <time>2021-05-29 10:14:27</time>
      </trkpt>
      <trkpt lat="43.26511" lon="-1.97957">
        <ele>36</ele>
        <time>2021-05-29 10:14:28</time>
      </trkpt>
      <trkpt lat="43.26515" lon="-1.97963">
        <ele>36</ele>
        <time>2021-05-29 10:14:29</time>
      </trkpt>
      <trkpt lat="43.2652" lon="-1.97969">
        <ele>36.2</ele>
        <time>2021-05-29 10:14:30</time>
      </trkpt>
      <trkpt lat="43.26525" lon="-1.97974">
        <ele>36.4</ele>
        <time>2021-05-29 10:14:31</time>
      </trkpt>
      <trkpt lat="43.26531" lon="-1.97979">
        <ele>36.4</ele>
        <time>2021-05-29 10:14:32</time>
      </trkpt>
      <trkpt lat="43.26536" lon="-1.97983">
        <ele>36.6</ele>
        <time>2021-05-29 10:14:33</time>
      </trkpt>
      <trkpt lat="43.26543" lon="-1.97987">
        <ele>36.8</ele>
        <time>2021-05-29 10:14:34</time>
      </trkpt>
      <trkpt lat="43.26549" lon="-1.97989">
        <ele>37</ele>
        <time>2021-05-29 10:14:35</time>
      </trkpt>
      <trkpt lat="43.26556" lon="-1.97991">
        <ele>37</ele>
        <time>2021-05-29 10:14:36</time>
      </trkpt>
      <trkpt lat="43.26562" lon="-1.97993">
        <ele>37.2</ele>
        <time>2021-05-29 10:14:37</time>
      </trkpt>
      <trkpt lat="43.26569" lon="-1.97994">
        <ele>37.2</ele>
        <time>2021-05-29 10:14:38</time>
      </trkpt>
      <trkpt lat="43.26575" lon="-1.97996">
        <ele>37.2</ele>
        <time>2021-05-29 10:14:39</time>
      </trkpt>
      <trkpt lat="43.26581" lon="-1.97997">
        <ele>37.2</ele>
        <time>2021-05-29 10:14:40</time>
      </trkpt>
      <trkpt lat="43.26587" lon="-1.97998">
        <ele>37.4</ele>
        <time>2021-05-29 10:14:41</time>
      </trkpt>
      <trkpt lat="43.26592" lon="-1.97999">
        <ele>37.6</ele>
        <time>2021-05-29 10:14:42</time>
      </trkpt>
      <trkpt lat="43.26598" lon="-1.98001">
        <ele>37.8</ele>
        <time>2021-05-29 10:14:43</time>
      </trkpt>
      <trkpt lat="43.26603" lon="-1.98003">
        <ele>37.8</ele>
        <time>2021-05-29 10:14:44</time>
      </trkpt>
      <trkpt lat="43.26608" lon="-1.98005">
        <ele>37.8</ele>
        <time>2021-05-29 10:14:45</time>
      </trkpt>
      <trkpt lat="43.26612" lon="-1.98007">
        <ele>38</ele>
        <time>2021-05-29 10:14:46</time>
      </trkpt>
      <trkpt lat="43.26616" lon="-1.98008">
        <ele>38</ele>
        <time>2021-05-29 10:14:47</time>
      </trkpt>
      <trkpt lat="43.26619" lon="-1.9801">
        <ele>38.2</ele>
        <time>2021-05-29 10:14:48</time>
      </trkpt>
      <trkpt lat="43.26621" lon="-1.98012">
        <ele>38.2</ele>
        <time>2021-05-29 10:14:49</time>
      </trkpt>
      <trkpt lat="43.26623" lon="-1.98014">
        <ele>38.4</ele>
        <time>2021-05-29 10:14:50</time>
      </trkpt>
      <trkpt lat="43.26624" lon="-1.98014">
        <ele>38.4</ele>
        <time>2021-05-29 10:14:51</time>
      </trkpt>
      <trkpt lat="43.26625" lon="-1.98014">
        <ele>38.4</ele>
        <time>2021-05-29 10:14:52</time>
      </trkpt>
      <trkpt lat="43.26625" lon="-1.98014">
        <ele>38.4</ele>
        <time>2021-05-29 10:14:53</time>
      </trkpt>
      <trkpt lat="43.26633" lon="-1.98017">
        <ele>38.6</ele>
        <time>2021-05-29 10:15:02</time>
      </trkpt>
      <trkpt lat="43.26637" lon="-1.98018">
        <ele>38.6</ele>
        <time>2021-05-29 10:15:03</time>
      </trkpt>
      <trkpt lat="43.26642" lon="-1.9802">
        <ele>38.6</ele>
        <time>2021-05-29 10:15:04</time>
      </trkpt>
      <trkpt lat="43.26647" lon="-1.98022">
        <ele>38.6</ele>
        <time>2021-05-29 10:15:05</time>
      </trkpt>
      <trkpt lat="43.26652" lon="-1.98024">
        <ele>38.8</ele>
        <time>2021-05-29 10:15:06</time>
      </trkpt>
      <trkpt lat="43.26658" lon="-1.98027">
        <ele>38.8</ele>
        <time>2021-05-29 10:15:07</time>
      </trkpt>
      <trkpt lat="43.26664" lon="-1.9803">
        <ele>38.8</ele>
        <time>2021-05-29 10:15:08</time>
      </trkpt>
      <trkpt lat="43.26671" lon="-1.98033">
        <ele>38.8</ele>
        <time>2021-05-29 10:15:09</time>
      </trkpt>
      <trkpt lat="43.26678" lon="-1.98036">
        <ele>38.6</ele>
        <time>2021-05-29 10:15:10</time>
      </trkpt>
      <trkpt lat="43.26684" lon="-1.9804">
        <ele>38.6</ele>
        <time>2021-05-29 10:15:11</time>
      </trkpt>
      <trkpt lat="43.26691" lon="-1.98044">
        <ele>38.8</ele>
        <time>2021-05-29 10:15:12</time>
      </trkpt>
      <trkpt lat="43.26698" lon="-1.98049">
        <ele>38.8</ele>
        <time>2021-05-29 10:15:13</time>
      </trkpt>
      <trkpt lat="43.26705" lon="-1.98054">
        <ele>38.6</ele>
        <time>2021-05-29 10:15:14</time>
      </trkpt>
      <trkpt lat="43.26712" lon="-1.9806">
        <ele>38.8</ele>
        <time>2021-05-29 10:15:15</time>
      </trkpt>
      <trkpt lat="43.26719" lon="-1.98066">
        <ele>38.6</ele>
        <time>2021-05-29 10:15:16</time>
      </trkpt>
      <trkpt lat="43.26726" lon="-1.98073">
        <ele>38.6</ele>
        <time>2021-05-29 10:15:17</time>
      </trkpt>
      <trkpt lat="43.26733" lon="-1.98079">
        <ele>38.6</ele>
        <time>2021-05-29 10:15:18</time>
      </trkpt>
      <trkpt lat="43.2674" lon="-1.98087">
        <ele>38.6</ele>
        <time>2021-05-29 10:15:19</time>
      </trkpt>
      <trkpt lat="43.26747" lon="-1.98094">
        <ele>38.6</ele>
        <time>2021-05-29 10:15:20</time>
      </trkpt>
      <trkpt lat="43.26755" lon="-1.981">
        <ele>38.6</ele>
        <time>2021-05-29 10:15:21</time>
      </trkpt>
      <trkpt lat="43.26763" lon="-1.98108">
        <ele>38.4</ele>
        <time>2021-05-29 10:15:22</time>
      </trkpt>
      <trkpt lat="43.2677" lon="-1.98115">
        <ele>38.4</ele>
        <time>2021-05-29 10:15:23</time>
      </trkpt>
      <trkpt lat="43.26778" lon="-1.98123">
        <ele>38.4</ele>
        <time>2021-05-29 10:15:24</time>
      </trkpt>
      <trkpt lat="43.26786" lon="-1.9813">
        <ele>38.4</ele>
        <time>2021-05-29 10:15:25</time>
      </trkpt>
      <trkpt lat="43.26793" lon="-1.98139">
        <ele>38</ele>
        <time>2021-05-29 10:15:26</time>
      </trkpt>
      <trkpt lat="43.26802" lon="-1.98147">
        <ele>37.8</ele>
        <time>2021-05-29 10:15:27</time>
      </trkpt>
      <trkpt lat="43.2681" lon="-1.98156">
        <ele>37.6</ele>
        <time>2021-05-29 10:15:28</time>
      </trkpt>
      <trkpt lat="43.26818" lon="-1.98165">
        <ele>37.6</ele>
        <time>2021-05-29 10:15:29</time>
      </trkpt>
      <trkpt lat="43.26826" lon="-1.98174">
        <ele>37.2</ele>
        <time>2021-05-29 10:15:30</time>
      </trkpt>
      <trkpt lat="43.26834" lon="-1.98183">
        <ele>37</ele>
        <time>2021-05-29 10:15:31</time>
      </trkpt>
      <trkpt lat="43.26843" lon="-1.98192">
        <ele>36.8</ele>
        <time>2021-05-29 10:15:32</time>
      </trkpt>
      <trkpt lat="43.26852" lon="-1.982">
        <ele>36.6</ele>
        <time>2021-05-29 10:15:33</time>
      </trkpt>
      <trkpt lat="43.26861" lon="-1.98209">
        <ele>36.2</ele>
        <time>2021-05-29 10:15:34</time>
      </trkpt>
      <trkpt lat="43.2687" lon="-1.98217">
        <ele>35.6</ele>
        <time>2021-05-29 10:15:35</time>
      </trkpt>
      <trkpt lat="43.26879" lon="-1.98226">
        <ele>35.4</ele>
        <time>2021-05-29 10:15:36</time>
      </trkpt>
      <trkpt lat="43.26888" lon="-1.98235">
        <ele>35.2</ele>
        <time>2021-05-29 10:15:37</time>
      </trkpt>
      <trkpt lat="43.26896" lon="-1.98245">
        <ele>35</ele>
        <time>2021-05-29 10:15:38</time>
      </trkpt>
      <trkpt lat="43.26905" lon="-1.98254">
        <ele>34.6</ele>
        <time>2021-05-29 10:15:39</time>
      </trkpt>
      <trkpt lat="43.26914" lon="-1.98263">
        <ele>34</ele>
        <time>2021-05-29 10:15:40</time>
      </trkpt>
      <trkpt lat="43.26923" lon="-1.98271">
        <ele>33.6</ele>
        <time>2021-05-29 10:15:41</time>
      </trkpt>
      <trkpt lat="43.26932" lon="-1.98279">
        <ele>33.2</ele>
        <time>2021-05-29 10:15:42</time>
      </trkpt>
      <trkpt lat="43.26941" lon="-1.98286">
        <ele>32.8</ele>
        <time>2021-05-29 10:15:43</time>
      </trkpt>
      <trkpt lat="43.26951" lon="-1.98291">
        <ele>32.6</ele>
        <time>2021-05-29 10:15:44</time>
      </trkpt>
      <trkpt lat="43.26961" lon="-1.98295">
        <ele>32</ele>
        <time>2021-05-29 10:15:45</time>
      </trkpt>
      <trkpt lat="43.26971" lon="-1.98298">
        <ele>31.4</ele>
        <time>2021-05-29 10:15:46</time>
      </trkpt>
      <trkpt lat="43.26981" lon="-1.98301">
        <ele>31.2</ele>
        <time>2021-05-29 10:15:47</time>
      </trkpt>
      <trkpt lat="43.26991" lon="-1.98302">
        <ele>30.8</ele>
        <time>2021-05-29 10:15:48</time>
      </trkpt>
      <trkpt lat="43.27001" lon="-1.98304">
        <ele>30.8</ele>
        <time>2021-05-29 10:15:49</time>
      </trkpt>
      <trkpt lat="43.27011" lon="-1.98305">
        <ele>30.6</ele>
        <time>2021-05-29 10:15:50</time>
      </trkpt>
      <trkpt lat="43.27022" lon="-1.98306">
        <ele>30.6</ele>
        <time>2021-05-29 10:15:51</time>
      </trkpt>
      <trkpt lat="43.27032" lon="-1.98306">
        <ele>30</ele>
        <time>2021-05-29 10:15:52</time>
      </trkpt>
      <trkpt lat="43.27042" lon="-1.98307">
        <ele>30</ele>
        <time>2021-05-29 10:15:53</time>
      </trkpt>
      <trkpt lat="43.27052" lon="-1.98307">
        <ele>29.8</ele>
        <time>2021-05-29 10:15:54</time>
      </trkpt>
      <trkpt lat="43.27062" lon="-1.98308">
        <ele>29.8</ele>
        <time>2021-05-29 10:15:55</time>
      </trkpt>
      <trkpt lat="43.27072" lon="-1.98308">
        <ele>29.6</ele>
        <time>2021-05-29 10:15:56</time>
      </trkpt>
      <trkpt lat="43.27081" lon="-1.98309">
        <ele>29.2</ele>
        <time>2021-05-29 10:15:57</time>
      </trkpt>
      <trkpt lat="43.27091" lon="-1.98309">
        <ele>29</ele>
        <time>2021-05-29 10:15:58</time>
      </trkpt>
      <trkpt lat="43.27101" lon="-1.9831">
        <ele>29</ele>
        <time>2021-05-29 10:15:59</time>
      </trkpt>
      <trkpt lat="43.2711" lon="-1.9831">
        <ele>28.8</ele>
        <time>2021-05-29 10:16:00</time>
      </trkpt>
      <trkpt lat="43.2712" lon="-1.9831">
        <ele>28.6</ele>
        <time>2021-05-29 10:16:01</time>
      </trkpt>
      <trkpt lat="43.27129" lon="-1.9831">
        <ele>28.4</ele>
        <time>2021-05-29 10:16:02</time>
      </trkpt>
      <trkpt lat="43.27138" lon="-1.98311">
        <ele>28.4</ele>
        <time>2021-05-29 10:16:03</time>
      </trkpt>
      <trkpt lat="43.27147" lon="-1.98311">
        <ele>28.2</ele>
        <time>2021-05-29 10:16:04</time>
      </trkpt>
      <trkpt lat="43.27157" lon="-1.98311">
        <ele>28</ele>
        <time>2021-05-29 10:16:05</time>
      </trkpt>
      <trkpt lat="43.27166" lon="-1.98311">
        <ele>27.8</ele>
        <time>2021-05-29 10:16:06</time>
      </trkpt>
      <trkpt lat="43.27175" lon="-1.98311">
        <ele>27.4</ele>
        <time>2021-05-29 10:16:07</time>
      </trkpt>
      <trkpt lat="43.27184" lon="-1.98312">
        <ele>27.2</ele>
        <time>2021-05-29 10:16:08</time>
      </trkpt>
      <trkpt lat="43.27192" lon="-1.98312">
        <ele>27</ele>
        <time>2021-05-29 10:16:09</time>
      </trkpt>
      <trkpt lat="43.27201" lon="-1.98313">
        <ele>27</ele>
        <time>2021-05-29 10:16:10</time>
      </trkpt>
      <trkpt lat="43.27209" lon="-1.98313">
        <ele>27</ele>
        <time>2021-05-29 10:16:11</time>
      </trkpt>
      <trkpt lat="43.27217" lon="-1.98314">
        <ele>27</ele>
        <time>2021-05-29 10:16:12</time>
      </trkpt>
      <trkpt lat="43.27225" lon="-1.98314">
        <ele>27</ele>
        <time>2021-05-29 10:16:13</time>
      </trkpt>
      <trkpt lat="43.27233" lon="-1.98314">
        <ele>27</ele>
        <time>2021-05-29 10:16:14</time>
      </trkpt>
      <trkpt lat="43.27241" lon="-1.98314">
        <ele>27</ele>
        <time>2021-05-29 10:16:15</time>
      </trkpt>
      <trkpt lat="43.27248" lon="-1.98315">
        <ele>26.8</ele>
        <time>2021-05-29 10:16:16</time>
      </trkpt>
      <trkpt lat="43.27255" lon="-1.98315">
        <ele>26.8</ele>
        <time>2021-05-29 10:16:17</time>
      </trkpt>
      <trkpt lat="43.27262" lon="-1.98315">
        <ele>26.8</ele>
        <time>2021-05-29 10:16:18</time>
      </trkpt>
      <trkpt lat="43.27269" lon="-1.98315">
        <ele>26.8</ele>
        <time>2021-05-29 10:16:19</time>
      </trkpt>
      <trkpt lat="43.27276" lon="-1.98316">
        <ele>27</ele>
        <time>2021-05-29 10:16:20</time>
      </trkpt>
      <trkpt lat="43.27282" lon="-1.98316">
        <ele>27</ele>
        <time>2021-05-29 10:16:21</time>
      </trkpt>
      <trkpt lat="43.27288" lon="-1.98316">
        <ele>27</ele>
        <time>2021-05-29 10:16:22</time>
      </trkpt>
      <trkpt lat="43.27294" lon="-1.98317">
        <ele>27.2</ele>
        <time>2021-05-29 10:16:23</time>
      </trkpt>
      <trkpt lat="43.27299" lon="-1.98317">
        <ele>27</ele>
        <time>2021-05-29 10:16:24</time>
      </trkpt>
      <trkpt lat="43.27304" lon="-1.98317">
        <ele>27.2</ele>
        <time>2021-05-29 10:16:25</time>
      </trkpt>
      <trkpt lat="43.2731" lon="-1.98317">
        <ele>27.4</ele>
        <time>2021-05-29 10:16:26</time>
      </trkpt>
      <trkpt lat="43.27315" lon="-1.98317">
        <ele>28.2</ele>
        <time>2021-05-29 10:16:27</time>
      </trkpt>
      <trkpt lat="43.2732" lon="-1.98318">
        <ele>28.4</ele>
        <time>2021-05-29 10:16:28</time>
      </trkpt>
      <trkpt lat="43.27324" lon="-1.98318">
        <ele>28.8</ele>
        <time>2021-05-29 10:16:29</time>
      </trkpt>
      <trkpt lat="43.27329" lon="-1.98319">
        <ele>29</ele>
        <time>2021-05-29 10:16:30</time>
      </trkpt>
      <trkpt lat="43.27333" lon="-1.98319">
        <ele>29.4</ele>
        <time>2021-05-29 10:16:31</time>
      </trkpt>
      <trkpt lat="43.27338" lon="-1.98319">
        <ele>29.8</ele>
        <time>2021-05-29 10:16:32</time>
      </trkpt>
      <trkpt lat="43.27342" lon="-1.98318">
        <ele>30</ele>
        <time>2021-05-29 10:16:33</time>
      </trkpt>
      <trkpt lat="43.27347" lon="-1.98318">
        <ele>30.2</ele>
        <time>2021-05-29 10:16:34</time>
      </trkpt>
      <trkpt lat="43.27352" lon="-1.98318">
        <ele>30.6</ele>
        <time>2021-05-29 10:16:35</time>
      </trkpt>
      <trkpt lat="43.27356" lon="-1.98318">
        <ele>31</ele>
        <time>2021-05-29 10:16:36</time>
      </trkpt>
      <trkpt lat="43.27361" lon="-1.98318">
        <ele>31.2</ele>
        <time>2021-05-29 10:16:37</time>
      </trkpt>
      <trkpt lat="43.27365" lon="-1.98318">
        <ele>31.4</ele>
        <time>2021-05-29 10:16:38</time>
      </trkpt>
      <trkpt lat="43.27369" lon="-1.98318">
        <ele>32</ele>
        <time>2021-05-29 10:16:39</time>
      </trkpt>
      <trkpt lat="43.27374" lon="-1.98318">
        <ele>32.4</ele>
        <time>2021-05-29 10:16:40</time>
      </trkpt>
      <trkpt lat="43.27378" lon="-1.98318">
        <ele>32.8</ele>
        <time>2021-05-29 10:16:41</time>
      </trkpt>
      <trkpt lat="43.27382" lon="-1.98318">
        <ele>33</ele>
        <time>2021-05-29 10:16:42</time>
      </trkpt>
      <trkpt lat="43.27386" lon="-1.98318">
        <ele>33.2</ele>
        <time>2021-05-29 10:16:43</time>
      </trkpt>
      <trkpt lat="43.2739" lon="-1.98318">
        <ele>33.6</ele>
        <time>2021-05-29 10:16:44</time>
      </trkpt>
      <trkpt lat="43.27394" lon="-1.98318">
        <ele>34</ele>
        <time>2021-05-29 10:16:45</time>
      </trkpt>
      <trkpt lat="43.27398" lon="-1.98317">
        <ele>34.6</ele>
        <time>2021-05-29 10:16:46</time>
      </trkpt>
      <trkpt lat="43.27402" lon="-1.98318">
        <ele>34.6</ele>
        <time>2021-05-29 10:16:47</time>
      </trkpt>
      <trkpt lat="43.27406" lon="-1.98318">
        <ele>34.8</ele>
        <time>2021-05-29 10:16:48</time>
      </trkpt>
      <trkpt lat="43.27411" lon="-1.98319">
        <ele>35.2</ele>
        <time>2021-05-29 10:16:49</time>
      </trkpt>
      <trkpt lat="43.27415" lon="-1.9832">
        <ele>35.6</ele>
        <time>2021-05-29 10:16:50</time>
      </trkpt>
      <trkpt lat="43.27419" lon="-1.98321">
        <ele>35.8</ele>
        <time>2021-05-29 10:16:51</time>
      </trkpt>
      <trkpt lat="43.27423" lon="-1.98321">
        <ele>36.4</ele>
        <time>2021-05-29 10:16:52</time>
      </trkpt>
      <trkpt lat="43.27427" lon="-1.98322">
        <ele>36.6</ele>
        <time>2021-05-29 10:16:53</time>
      </trkpt>
      <trkpt lat="43.27431" lon="-1.98323">
        <ele>36.8</ele>
        <time>2021-05-29 10:16:54</time>
      </trkpt>
      <trkpt lat="43.27435" lon="-1.98324">
        <ele>37.2</ele>
        <time>2021-05-29 10:16:55</time>
      </trkpt>
      <trkpt lat="43.2744" lon="-1.98324">
        <ele>37.4</ele>
        <time>2021-05-29 10:16:56</time>
      </trkpt>
      <trkpt lat="43.27444" lon="-1.98325">
        <ele>37.6</ele>
        <time>2021-05-29 10:16:57</time>
      </trkpt>
      <trkpt lat="43.27449" lon="-1.98326">
        <ele>37.8</ele>
        <time>2021-05-29 10:16:58</time>
      </trkpt>
      <trkpt lat="43.27453" lon="-1.98327">
        <ele>38</ele>
        <time>2021-05-29 10:16:59</time>
      </trkpt>
      <trkpt lat="43.27457" lon="-1.98327">
        <ele>38.2</ele>
        <time>2021-05-29 10:17:00</time>
      </trkpt>
      <trkpt lat="43.27462" lon="-1.98328">
        <ele>38.8</ele>
        <time>2021-05-29 10:17:01</time>
      </trkpt>
      <trkpt lat="43.27466" lon="-1.98328">
        <ele>39.2</ele>
        <time>2021-05-29 10:17:02</time>
      </trkpt>
      <trkpt lat="43.2747" lon="-1.98328">
        <ele>39.4</ele>
        <time>2021-05-29 10:17:03</time>
      </trkpt>
      <trkpt lat="43.27474" lon="-1.98328">
        <ele>39.8</ele>
        <time>2021-05-29 10:17:04</time>
      </trkpt>
      <trkpt lat="43.27478" lon="-1.98328">
        <ele>40.2</ele>
        <time>2021-05-29 10:17:05</time>
      </trkpt>
      <trkpt lat="43.27482" lon="-1.98329">
        <ele>40.6</ele>
        <time>2021-05-29 10:17:06</time>
      </trkpt>
      <trkpt lat="43.27486" lon="-1.98329">
        <ele>40.6</ele>
        <time>2021-05-29 10:17:07</time>
      </trkpt>
      <trkpt lat="43.2749" lon="-1.98329">
        <ele>41</ele>
        <time>2021-05-29 10:17:08</time>
      </trkpt>
      <trkpt lat="43.27494" lon="-1.98329">
        <ele>41.2</ele>
        <time>2021-05-29 10:17:09</time>
      </trkpt>
      <trkpt lat="43.27498" lon="-1.9833">
        <ele>41.6</ele>
        <time>2021-05-29 10:17:10</time>
      </trkpt>
      <trkpt lat="43.27502" lon="-1.9833">
        <ele>41.8</ele>
        <time>2021-05-29 10:17:11</time>
      </trkpt>
      <trkpt lat="43.27506" lon="-1.9833">
        <ele>42</ele>
        <time>2021-05-29 10:17:12</time>
      </trkpt>
      <trkpt lat="43.2751" lon="-1.9833">
        <ele>42.2</ele>
        <time>2021-05-29 10:17:13</time>
      </trkpt>
      <trkpt lat="43.27514" lon="-1.9833">
        <ele>42.6</ele>
        <time>2021-05-29 10:17:14</time>
      </trkpt>
      <trkpt lat="43.27518" lon="-1.9833">
        <ele>42.6</ele>
        <time>2021-05-29 10:17:15</time>
      </trkpt>
      <trkpt lat="43.27522" lon="-1.9833">
        <ele>43</ele>
        <time>2021-05-29 10:17:16</time>
      </trkpt>
      <trkpt lat="43.27526" lon="-1.98331">
        <ele>43.4</ele>
        <time>2021-05-29 10:17:17</time>
      </trkpt>
      <trkpt lat="43.2753" lon="-1.98331">
        <ele>43.6</ele>
        <time>2021-05-29 10:17:18</time>
      </trkpt>
      <trkpt lat="43.27534" lon="-1.98332">
        <ele>44</ele>
        <time>2021-05-29 10:17:19</time>
      </trkpt>
      <trkpt lat="43.27539" lon="-1.98332">
        <ele>44.2</ele>
        <time>2021-05-29 10:17:20</time>
      </trkpt>
      <trkpt lat="43.27543" lon="-1.98333">
        <ele>44.4</ele>
        <time>2021-05-29 10:17:21</time>
      </trkpt>
      <trkpt lat="43.27547" lon="-1.98334">
        <ele>44.8</ele>
        <time>2021-05-29 10:17:22</time>
      </trkpt>
      <trkpt lat="43.27551" lon="-1.98335">
        <ele>45</ele>
        <time>2021-05-29 10:17:23</time>
      </trkpt>
      <trkpt lat="43.27556" lon="-1.98337">
        <ele>45.2</ele>
        <time>2021-05-29 10:17:24</time>
      </trkpt>
      <trkpt lat="43.27561" lon="-1.98339">
        <ele>45.4</ele>
        <time>2021-05-29 10:17:25</time>
      </trkpt>
      <trkpt lat="43.27565" lon="-1.98341">
        <ele>45.6</ele>
        <time>2021-05-29 10:17:26</time>
      </trkpt>
      <trkpt lat="43.2757" lon="-1.98343">
        <ele>45.8</ele>
        <time>2021-05-29 10:17:27</time>
      </trkpt>
      <trkpt lat="43.27574" lon="-1.98345">
        <ele>46.2</ele>
        <time>2021-05-29 10:17:28</time>
      </trkpt>
      <trkpt lat="43.27579" lon="-1.98347">
        <ele>46.8</ele>
        <time>2021-05-29 10:17:29</time>
      </trkpt>
      <trkpt lat="43.27583" lon="-1.98349">
        <ele>47</ele>
        <time>2021-05-29 10:17:30</time>
      </trkpt>
      <trkpt lat="43.27588" lon="-1.98352">
        <ele>47.4</ele>
        <time>2021-05-29 10:17:31</time>
      </trkpt>
      <trkpt lat="43.27592" lon="-1.98354">
        <ele>47.8</ele>
        <time>2021-05-29 10:17:32</time>
      </trkpt>
      <trkpt lat="43.27597" lon="-1.98357">
        <ele>48</ele>
        <time>2021-05-29 10:17:33</time>
      </trkpt>
      <trkpt lat="43.27602" lon="-1.98361">
        <ele>48.2</ele>
        <time>2021-05-29 10:17:34</time>
      </trkpt>
      <trkpt lat="43.27606" lon="-1.98364">
        <ele>48.4</ele>
        <time>2021-05-29 10:17:35</time>
      </trkpt>
      <trkpt lat="43.2761" lon="-1.98368">
        <ele>48.6</ele>
        <time>2021-05-29 10:17:36</time>
      </trkpt>
      <trkpt lat="43.27615" lon="-1.98373">
        <ele>48.8</ele>
        <time>2021-05-29 10:17:37</time>
      </trkpt>
      <trkpt lat="43.27619" lon="-1.98377">
        <ele>49</ele>
        <time>2021-05-29 10:17:38</time>
      </trkpt>
      <trkpt lat="43.27622" lon="-1.98382">
        <ele>49.2</ele>
        <time>2021-05-29 10:17:39</time>
      </trkpt>
      <trkpt lat="43.27625" lon="-1.98386">
        <ele>49.4</ele>
        <time>2021-05-29 10:17:40</time>
      </trkpt>
      <trkpt lat="43.27628" lon="-1.98391">
        <ele>49.4</ele>
        <time>2021-05-29 10:17:41</time>
      </trkpt>
      <trkpt lat="43.2763" lon="-1.98396">
        <ele>49.6</ele>
        <time>2021-05-29 10:17:42</time>
      </trkpt>
      <trkpt lat="43.27632" lon="-1.98402">
        <ele>50</ele>
        <time>2021-05-29 10:17:43</time>
      </trkpt>
      <trkpt lat="43.27634" lon="-1.98407">
        <ele>50.2</ele>
        <time>2021-05-29 10:17:44</time>
      </trkpt>
      <trkpt lat="43.27636" lon="-1.98413">
        <ele>50.2</ele>
        <time>2021-05-29 10:17:45</time>
      </trkpt>
      <trkpt lat="43.27638" lon="-1.98418">
        <ele>50.4</ele>
        <time>2021-05-29 10:17:46</time>
      </trkpt>
      <trkpt lat="43.2764" lon="-1.98424">
        <ele>50.6</ele>
        <time>2021-05-29 10:17:47</time>
      </trkpt>
      <trkpt lat="43.27641" lon="-1.9843">
        <ele>50.8</ele>
        <time>2021-05-29 10:17:48</time>
      </trkpt>
      <trkpt lat="43.27643" lon="-1.98437">
        <ele>50.8</ele>
        <time>2021-05-29 10:17:49</time>
      </trkpt>
      <trkpt lat="43.27645" lon="-1.98443">
        <ele>50.8</ele>
        <time>2021-05-29 10:17:50</time>
      </trkpt>
      <trkpt lat="43.27646" lon="-1.98449">
        <ele>51.2</ele>
        <time>2021-05-29 10:17:51</time>
      </trkpt>
      <trkpt lat="43.27648" lon="-1.98455">
        <ele>51.4</ele>
        <time>2021-05-29 10:17:52</time>
      </trkpt>
      <trkpt lat="43.27649" lon="-1.98461">
        <ele>51.6</ele>
        <time>2021-05-29 10:17:53</time>
      </trkpt>
      <trkpt lat="43.2765" lon="-1.98467">
        <ele>51.8</ele>
        <time>2021-05-29 10:17:54</time>
      </trkpt>
      <trkpt lat="43.27652" lon="-1.98474">
        <ele>52</ele>
        <time>2021-05-29 10:17:55</time>
      </trkpt>
      <trkpt lat="43.27653" lon="-1.9848">
        <ele>52.4</ele>
        <time>2021-05-29 10:17:56</time>
      </trkpt>
      <trkpt lat="43.27654" lon="-1.98487">
        <ele>52.8</ele>
        <time>2021-05-29 10:17:57</time>
      </trkpt>
      <trkpt lat="43.27655" lon="-1.98494">
        <ele>52.8</ele>
        <time>2021-05-29 10:17:58</time>
      </trkpt>
      <trkpt lat="43.27656" lon="-1.98501">
        <ele>53</ele>
        <time>2021-05-29 10:17:59</time>
      </trkpt>
      <trkpt lat="43.27657" lon="-1.98508">
        <ele>53.2</ele>
        <time>2021-05-29 10:18:00</time>
      </trkpt>
      <trkpt lat="43.27658" lon="-1.98515">
        <ele>53.4</ele>
        <time>2021-05-29 10:18:01</time>
      </trkpt>
      <trkpt lat="43.27659" lon="-1.98522">
        <ele>53.6</ele>
        <time>2021-05-29 10:18:02</time>
      </trkpt>
      <trkpt lat="43.2766" lon="-1.98529">
        <ele>53.8</ele>
        <time>2021-05-29 10:18:03</time>
      </trkpt>
      <trkpt lat="43.27661" lon="-1.98536">
        <ele>53.8</ele>
        <time>2021-05-29 10:18:04</time>
      </trkpt>
      <trkpt lat="43.27662" lon="-1.98542">
        <ele>54</ele>
        <time>2021-05-29 10:18:05</time>
      </trkpt>
      <trkpt lat="43.27664" lon="-1.98548">
        <ele>54</ele>
        <time>2021-05-29 10:18:06</time>
      </trkpt>
      <trkpt lat="43.27665" lon="-1.98555">
        <ele>54.4</ele>
        <time>2021-05-29 10:18:07</time>
      </trkpt>
      <trkpt lat="43.27667" lon="-1.98561">
        <ele>54.8</ele>
        <time>2021-05-29 10:18:08</time>
      </trkpt>
      <trkpt lat="43.2767" lon="-1.98566">
        <ele>54.8</ele>
        <time>2021-05-29 10:18:09</time>
      </trkpt>
      <trkpt lat="43.27672" lon="-1.98572">
        <ele>55.4</ele>
        <time>2021-05-29 10:18:10</time>
      </trkpt>
      <trkpt lat="43.27673" lon="-1.98579">
        <ele>55.8</ele>
        <time>2021-05-29 10:18:11</time>
      </trkpt>
      <trkpt lat="43.27674" lon="-1.98587">
        <ele>56.2</ele>
        <time>2021-05-29 10:18:12</time>
      </trkpt>
      <trkpt lat="43.27676" lon="-1.98594">
        <ele>56.2</ele>
        <time>2021-05-29 10:18:13</time>
      </trkpt>
      <trkpt lat="43.27677" lon="-1.986">
        <ele>56.4</ele>
        <time>2021-05-29 10:18:14</time>
      </trkpt>
      <trkpt lat="43.27679" lon="-1.98607">
        <ele>56.8</ele>
        <time>2021-05-29 10:18:15</time>
      </trkpt>
      <trkpt lat="43.27681" lon="-1.98614">
        <ele>57.2</ele>
        <time>2021-05-29 10:18:16</time>
      </trkpt>
      <trkpt lat="43.27683" lon="-1.9862">
        <ele>57.2</ele>
        <time>2021-05-29 10:18:17</time>
      </trkpt>
      <trkpt lat="43.27685" lon="-1.98627">
        <ele>57.2</ele>
        <time>2021-05-29 10:18:18</time>
      </trkpt>
      <trkpt lat="43.27687" lon="-1.98634">
        <ele>57.6</ele>
        <time>2021-05-29 10:18:19</time>
      </trkpt>
      <trkpt lat="43.2769" lon="-1.98641">
        <ele>57.6</ele>
        <time>2021-05-29 10:18:20</time>
      </trkpt>
      <trkpt lat="43.27692" lon="-1.98648">
        <ele>57.8</ele>
        <time>2021-05-29 10:18:21</time>
      </trkpt>
      <trkpt lat="43.27695" lon="-1.98654">
        <ele>58</ele>
        <time>2021-05-29 10:18:22</time>
      </trkpt>
      <trkpt lat="43.27698" lon="-1.98661">
        <ele>58</ele>
        <time>2021-05-29 10:18:23</time>
      </trkpt>
      <trkpt lat="43.277" lon="-1.98668">
        <ele>58</ele>
        <time>2021-05-29 10:18:24</time>
      </trkpt>
      <trkpt lat="43.27703" lon="-1.98676">
        <ele>58</ele>
        <time>2021-05-29 10:18:25</time>
      </trkpt>
      <trkpt lat="43.27706" lon="-1.98683">
        <ele>58</ele>
        <time>2021-05-29 10:18:26</time>
      </trkpt>
      <trkpt lat="43.27709" lon="-1.9869">
        <ele>58.2</ele>
        <time>2021-05-29 10:18:27</time>
      </trkpt>
      <trkpt lat="43.27712" lon="-1.98696">
        <ele>58.2</ele>
        <time>2021-05-29 10:18:28</time>
      </trkpt>
      <trkpt lat="43.27716" lon="-1.98703">
        <ele>58.2</ele>
        <time>2021-05-29 10:18:29</time>
      </trkpt>
      <trkpt lat="43.2772" lon="-1.98708">
        <ele>58.2</ele>
        <time>2021-05-29 10:18:30</time>
      </trkpt>
      <trkpt lat="43.27725" lon="-1.98713">
        <ele>58.4</ele>
        <time>2021-05-29 10:18:31</time>
      </trkpt>
      <trkpt lat="43.2773" lon="-1.98718">
        <ele>58.4</ele>
        <time>2021-05-29 10:18:32</time>
      </trkpt>
      <trkpt lat="43.27734" lon="-1.98723">
        <ele>58.4</ele>
        <time>2021-05-29 10:18:33</time>
      </trkpt>
      <trkpt lat="43.27737" lon="-1.98731">
        <ele>58.6</ele>
        <time>2021-05-29 10:18:34</time>
      </trkpt>
      <trkpt lat="43.27739" lon="-1.98739">
        <ele>58.8</ele>
        <time>2021-05-29 10:18:35</time>
      </trkpt>
      <trkpt lat="43.2774" lon="-1.98747">
        <ele>58.8</ele>
        <time>2021-05-29 10:18:36</time>
      </trkpt>
      <trkpt lat="43.2774" lon="-1.98756">
        <ele>59</ele>
        <time>2021-05-29 10:18:37</time>
      </trkpt>
      <trkpt lat="43.2774" lon="-1.98764">
        <ele>59.2</ele>
        <time>2021-05-29 10:18:38</time>
      </trkpt>
      <trkpt lat="43.27739" lon="-1.98771">
        <ele>59.4</ele>
        <time>2021-05-29 10:18:39</time>
      </trkpt>
      <trkpt lat="43.2774" lon="-1.98779">
        <ele>59.6</ele>
        <time>2021-05-29 10:18:40</time>
      </trkpt>
      <trkpt lat="43.27741" lon="-1.98786">
        <ele>59.6</ele>
        <time>2021-05-29 10:18:41</time>
      </trkpt>
      <trkpt lat="43.27742" lon="-1.98793">
        <ele>59.8</ele>
        <time>2021-05-29 10:18:42</time>
      </trkpt>
      <trkpt lat="43.27744" lon="-1.98801">
        <ele>59.8</ele>
        <time>2021-05-29 10:18:43</time>
      </trkpt>
      <trkpt lat="43.27745" lon="-1.98808">
        <ele>59.8</ele>
        <time>2021-05-29 10:18:44</time>
      </trkpt>
      <trkpt lat="43.27747" lon="-1.98816">
        <ele>60.2</ele>
        <time>2021-05-29 10:18:45</time>
      </trkpt>
      <trkpt lat="43.27748" lon="-1.98825">
        <ele>60.4</ele>
        <time>2021-05-29 10:18:46</time>
      </trkpt>
      <trkpt lat="43.27749" lon="-1.98834">
        <ele>60.6</ele>
        <time>2021-05-29 10:18:47</time>
      </trkpt>
      <trkpt lat="43.2775" lon="-1.98843">
        <ele>60.6</ele>
        <time>2021-05-29 10:18:48</time>
      </trkpt>
      <trkpt lat="43.27751" lon="-1.98853">
        <ele>60.8</ele>
        <time>2021-05-29 10:18:49</time>
      </trkpt>
      <trkpt lat="43.27753" lon="-1.98863">
        <ele>60.8</ele>
        <time>2021-05-29 10:18:50</time>
      </trkpt>
      <trkpt lat="43.27754" lon="-1.98874">
        <ele>61</ele>
        <time>2021-05-29 10:18:51</time>
      </trkpt>
      <trkpt lat="43.27756" lon="-1.98886">
        <ele>61</ele>
        <time>2021-05-29 10:18:52</time>
      </trkpt>
      <trkpt lat="43.27757" lon="-1.98898">
        <ele>61</ele>
        <time>2021-05-29 10:18:53</time>
      </trkpt>
      <trkpt lat="43.27759" lon="-1.9891">
        <ele>61</ele>
        <time>2021-05-29 10:18:54</time>
      </trkpt>
      <trkpt lat="43.2776" lon="-1.98923">
        <ele>61</ele>
        <time>2021-05-29 10:18:55</time>
      </trkpt>
      <trkpt lat="43.27762" lon="-1.98937">
        <ele>61</ele>
        <time>2021-05-29 10:18:56</time>
      </trkpt>
      <trkpt lat="43.27764" lon="-1.98951">
        <ele>61</ele>
        <time>2021-05-29 10:18:57</time>
      </trkpt>
      <trkpt lat="43.27765" lon="-1.98965">
        <ele>61</ele>
        <time>2021-05-29 10:18:58</time>
      </trkpt>
      <trkpt lat="43.27767" lon="-1.98979">
        <ele>60.8</ele>
        <time>2021-05-29 10:18:59</time>
      </trkpt>
      <trkpt lat="43.27769" lon="-1.98994">
        <ele>60.6</ele>
        <time>2021-05-29 10:19:00</time>
      </trkpt>
      <trkpt lat="43.27771" lon="-1.99009">
        <ele>60.6</ele>
        <time>2021-05-29 10:19:01</time>
      </trkpt>
      <trkpt lat="43.27773" lon="-1.99024">
        <ele>60</ele>
        <time>2021-05-29 10:19:02</time>
      </trkpt>
      <trkpt lat="43.27775" lon="-1.99039">
        <ele>59.4</ele>
        <time>2021-05-29 10:19:03</time>
      </trkpt>
      <trkpt lat="43.27778" lon="-1.99053">
        <ele>59</ele>
        <time>2021-05-29 10:19:04</time>
      </trkpt>
      <trkpt lat="43.2778" lon="-1.99068">
        <ele>58.4</ele>
        <time>2021-05-29 10:19:05</time>
      </trkpt>
      <trkpt lat="43.27782" lon="-1.99082">
        <ele>58</ele>
        <time>2021-05-29 10:19:06</time>
      </trkpt>
      <trkpt lat="43.27784" lon="-1.99097">
        <ele>57.6</ele>
        <time>2021-05-29 10:19:07</time>
      </trkpt>
      <trkpt lat="43.27785" lon="-1.99112">
        <ele>57</ele>
        <time>2021-05-29 10:19:08</time>
      </trkpt>
      <trkpt lat="43.27787" lon="-1.99126">
        <ele>56.6</ele>
        <time>2021-05-29 10:19:09</time>
      </trkpt>
      <trkpt lat="43.27789" lon="-1.99141">
        <ele>56.2</ele>
        <time>2021-05-29 10:19:10</time>
      </trkpt>
      <trkpt lat="43.27791" lon="-1.99156">
        <ele>55.6</ele>
        <time>2021-05-29 10:19:11</time>
      </trkpt>
      <trkpt lat="43.27793" lon="-1.99171">
        <ele>55</ele>
        <time>2021-05-29 10:19:12</time>
      </trkpt>
      <trkpt lat="43.27795" lon="-1.99185">
        <ele>54.4</ele>
        <time>2021-05-29 10:19:13</time>
      </trkpt>
      <trkpt lat="43.27797" lon="-1.99201">
        <ele>53.8</ele>
        <time>2021-05-29 10:19:14</time>
      </trkpt>
      <trkpt lat="43.278" lon="-1.99217">
        <ele>53.4</ele>
        <time>2021-05-29 10:19:15</time>
      </trkpt>
      <trkpt lat="43.27802" lon="-1.99233">
        <ele>52.6</ele>
        <time>2021-05-29 10:19:16</time>
      </trkpt>
      <trkpt lat="43.27803" lon="-1.99251">
        <ele>52.4</ele>
        <time>2021-05-29 10:19:17</time>
      </trkpt>
      <trkpt lat="43.27805" lon="-1.99268">
        <ele>52.2</ele>
        <time>2021-05-29 10:19:18</time>
      </trkpt>
      <trkpt lat="43.27807" lon="-1.99286">
        <ele>51.6</ele>
        <time>2021-05-29 10:19:19</time>
      </trkpt>
      <trkpt lat="43.27809" lon="-1.99304">
        <ele>51.2</ele>
        <time>2021-05-29 10:19:20</time>
      </trkpt>
      <trkpt lat="43.27811" lon="-1.99322">
        <ele>50.6</ele>
        <time>2021-05-29 10:19:21</time>
      </trkpt>
      <trkpt lat="43.27813" lon="-1.99341">
        <ele>50.2</ele>
        <time>2021-05-29 10:19:22</time>
      </trkpt>
      <trkpt lat="43.27815" lon="-1.99359">
        <ele>50</ele>
        <time>2021-05-29 10:19:23</time>
      </trkpt>
      <trkpt lat="43.27816" lon="-1.99377">
        <ele>49.6</ele>
        <time>2021-05-29 10:19:24</time>
      </trkpt>
      <trkpt lat="43.27817" lon="-1.99394">
        <ele>48.8</ele>
        <time>2021-05-29 10:19:25</time>
      </trkpt>
      <trkpt lat="43.27818" lon="-1.99411">
        <ele>48.4</ele>
        <time>2021-05-29 10:19:26</time>
      </trkpt>
      <trkpt lat="43.27818" lon="-1.99427">
        <ele>47.6</ele>
        <time>2021-05-29 10:19:27</time>
      </trkpt>
      <trkpt lat="43.27817" lon="-1.99442">
        <ele>46.8</ele>
        <time>2021-05-29 10:19:28</time>
      </trkpt>
      <trkpt lat="43.27816" lon="-1.99456">
        <ele>46.6</ele>
        <time>2021-05-29 10:19:29</time>
      </trkpt>
      <trkpt lat="43.27814" lon="-1.99468">
        <ele>46.2</ele>
        <time>2021-05-29 10:19:30</time>
      </trkpt>
      <trkpt lat="43.27812" lon="-1.99481">
        <ele>46.2</ele>
        <time>2021-05-29 10:19:31</time>
      </trkpt>
      <trkpt lat="43.27809" lon="-1.99493">
        <ele>46.2</ele>
        <time>2021-05-29 10:19:32</time>
      </trkpt>
      <trkpt lat="43.27805" lon="-1.99505">
        <ele>46</ele>
        <time>2021-05-29 10:19:33</time>
      </trkpt>
      <trkpt lat="43.27801" lon="-1.99517">
        <ele>46</ele>
        <time>2021-05-29 10:19:34</time>
      </trkpt>
      <trkpt lat="43.27796" lon="-1.99528">
        <ele>46</ele>
        <time>2021-05-29 10:19:35</time>
      </trkpt>
      <trkpt lat="43.27791" lon="-1.9954">
        <ele>46</ele>
        <time>2021-05-29 10:19:36</time>
      </trkpt>
      <trkpt lat="43.27787" lon="-1.99551">
        <ele>46</ele>
        <time>2021-05-29 10:19:37</time>
      </trkpt>
      <trkpt lat="43.27783" lon="-1.99562">
        <ele>46.4</ele>
        <time>2021-05-29 10:19:38</time>
      </trkpt>
      <trkpt lat="43.27779" lon="-1.99575">
        <ele>46.8</ele>
        <time>2021-05-29 10:19:39</time>
      </trkpt>
      <trkpt lat="43.27775" lon="-1.99588">
        <ele>47.2</ele>
        <time>2021-05-29 10:19:40</time>
      </trkpt>
      <trkpt lat="43.27771" lon="-1.99602">
        <ele>47.4</ele>
        <time>2021-05-29 10:19:41</time>
      </trkpt>
      <trkpt lat="43.27768" lon="-1.99616">
        <ele>47.8</ele>
        <time>2021-05-29 10:19:42</time>
      </trkpt>
      <trkpt lat="43.27765" lon="-1.9963">
        <ele>47.8</ele>
        <time>2021-05-29 10:19:43</time>
      </trkpt>
      <trkpt lat="43.27762" lon="-1.99645">
        <ele>48</ele>
        <time>2021-05-29 10:19:44</time>
      </trkpt>
      <trkpt lat="43.27759" lon="-1.99659">
        <ele>48</ele>
        <time>2021-05-29 10:19:45</time>
      </trkpt>
      <trkpt lat="43.27758" lon="-1.99674">
        <ele>48</ele>
        <time>2021-05-29 10:19:46</time>
      </trkpt>
      <trkpt lat="43.27756" lon="-1.9969">
        <ele>48</ele>
        <time>2021-05-29 10:19:47</time>
      </trkpt>
      <trkpt lat="43.27754" lon="-1.99707">
        <ele>48</ele>
        <time>2021-05-29 10:19:48</time>
      </trkpt>
      <trkpt lat="43.27752" lon="-1.99724">
        <ele>48</ele>
        <time>2021-05-29 10:19:49</time>
      </trkpt>
      <trkpt lat="43.27751" lon="-1.99741">
        <ele>48</ele>
        <time>2021-05-29 10:19:50</time>
      </trkpt>
      <trkpt lat="43.27749" lon="-1.99757">
        <ele>48</ele>
        <time>2021-05-29 10:19:51</time>
      </trkpt>
      <trkpt lat="43.27747" lon="-1.99775">
        <ele>47.8</ele>
        <time>2021-05-29 10:19:52</time>
      </trkpt>
      <trkpt lat="43.27745" lon="-1.99792">
        <ele>46.8</ele>
        <time>2021-05-29 10:19:53</time>
      </trkpt>
      <trkpt lat="43.27743" lon="-1.99811">
        <ele>46.4</ele>
        <time>2021-05-29 10:19:54</time>
      </trkpt>
      <trkpt lat="43.27741" lon="-1.99828">
        <ele>46</ele>
        <time>2021-05-29 10:19:55</time>
      </trkpt>
      <trkpt lat="43.27738" lon="-1.99846">
        <ele>45.4</ele>
        <time>2021-05-29 10:19:56</time>
      </trkpt>
      <trkpt lat="43.27736" lon="-1.99864">
        <ele>44.8</ele>
        <time>2021-05-29 10:19:57</time>
      </trkpt>
      <trkpt lat="43.27734" lon="-1.99882">
        <ele>44</ele>
        <time>2021-05-29 10:19:58</time>
      </trkpt>
      <trkpt lat="43.27732" lon="-1.999">
        <ele>43.4</ele>
        <time>2021-05-29 10:19:59</time>
      </trkpt>
      <trkpt lat="43.27732" lon="-1.99918">
        <ele>43</ele>
        <time>2021-05-29 10:20:00</time>
      </trkpt>
      <trkpt lat="43.27733" lon="-1.99935">
        <ele>42.4</ele>
        <time>2021-05-29 10:20:01</time>
      </trkpt>
      <trkpt lat="43.27735" lon="-1.99952">
        <ele>41.6</ele>
        <time>2021-05-29 10:20:02</time>
      </trkpt>
      <trkpt lat="43.27739" lon="-1.99969">
        <ele>41</ele>
        <time>2021-05-29 10:20:03</time>
      </trkpt>
      <trkpt lat="43.27744" lon="-1.99985">
        <ele>40.4</ele>
        <time>2021-05-29 10:20:04</time>
      </trkpt>
      <trkpt lat="43.27749" lon="-2.00001">
        <ele>40</ele>
        <time>2021-05-29 10:20:05</time>
      </trkpt>
      <trkpt lat="43.27754" lon="-2.00016">
        <ele>39.4</ele>
        <time>2021-05-29 10:20:06</time>
      </trkpt>
      <trkpt lat="43.2776" lon="-2.00031">
        <ele>39</ele>
        <time>2021-05-29 10:20:07</time>
      </trkpt>
      <trkpt lat="43.27765" lon="-2.00047">
        <ele>38.8</ele>
        <time>2021-05-29 10:20:08</time>
      </trkpt>
      <trkpt lat="43.2777" lon="-2.00063">
        <ele>38.6</ele>
        <time>2021-05-29 10:20:09</time>
      </trkpt>
      <trkpt lat="43.27775" lon="-2.00079">
        <ele>38.4</ele>
        <time>2021-05-29 10:20:10</time>
      </trkpt>
      <trkpt lat="43.2778" lon="-2.00095">
        <ele>38.2</ele>
        <time>2021-05-29 10:20:11</time>
      </trkpt>
      <trkpt lat="43.27785" lon="-2.00111">
        <ele>38</ele>
        <time>2021-05-29 10:20:12</time>
      </trkpt>
      <trkpt lat="43.2779" lon="-2.00127">
        <ele>38</ele>
        <time>2021-05-29 10:20:13</time>
      </trkpt>
      <trkpt lat="43.27795" lon="-2.00143">
        <ele>37.8</ele>
        <time>2021-05-29 10:20:14</time>
      </trkpt>
      <trkpt lat="43.278" lon="-2.00159">
        <ele>37.6</ele>
        <time>2021-05-29 10:20:15</time>
      </trkpt>
      <trkpt lat="43.27805" lon="-2.00174">
        <ele>37.6</ele>
        <time>2021-05-29 10:20:16</time>
      </trkpt>
      <trkpt lat="43.2781" lon="-2.00189">
        <ele>37.4</ele>
        <time>2021-05-29 10:20:17</time>
      </trkpt>
      <trkpt lat="43.27815" lon="-2.00204">
        <ele>37.2</ele>
        <time>2021-05-29 10:20:18</time>
      </trkpt>
      <trkpt lat="43.2782" lon="-2.00217">
        <ele>37</ele>
        <time>2021-05-29 10:20:19</time>
      </trkpt>
      <trkpt lat="43.27825" lon="-2.00231">
        <ele>36.8</ele>
        <time>2021-05-29 10:20:20</time>
      </trkpt>
      <trkpt lat="43.2783" lon="-2.00243">
        <ele>36.6</ele>
        <time>2021-05-29 10:20:21</time>
      </trkpt>
      <trkpt lat="43.27834" lon="-2.00256">
        <ele>36.2</ele>
        <time>2021-05-29 10:20:22</time>
      </trkpt>
      <trkpt lat="43.27838" lon="-2.00268">
        <ele>35.8</ele>
        <time>2021-05-29 10:20:23</time>
      </trkpt>
      <trkpt lat="43.27843" lon="-2.0028">
        <ele>35.6</ele>
        <time>2021-05-29 10:20:24</time>
      </trkpt>
      <trkpt lat="43.27847" lon="-2.00292">
        <ele>35.4</ele>
        <time>2021-05-29 10:20:25</time>
      </trkpt>
      <trkpt lat="43.27849" lon="-2.00305">
        <ele>35.4</ele>
        <time>2021-05-29 10:20:26</time>
      </trkpt>
      <trkpt lat="43.27852" lon="-2.00319">
        <ele>35.4</ele>
        <time>2021-05-29 10:20:27</time>
      </trkpt>
      <trkpt lat="43.27855" lon="-2.00333">
        <ele>35.2</ele>
        <time>2021-05-29 10:20:28</time>
      </trkpt>
      <trkpt lat="43.27857" lon="-2.00346">
        <ele>35.2</ele>
        <time>2021-05-29 10:20:29</time>
      </trkpt>
      <trkpt lat="43.27859" lon="-2.00361">
        <ele>35.2</ele>
        <time>2021-05-29 10:20:30</time>
      </trkpt>
      <trkpt lat="43.27861" lon="-2.00375">
        <ele>35.2</ele>
        <time>2021-05-29 10:20:31</time>
      </trkpt>
      <trkpt lat="43.27863" lon="-2.0039">
        <ele>35</ele>
        <time>2021-05-29 10:20:32</time>
      </trkpt>
      <trkpt lat="43.27865" lon="-2.00403">
        <ele>35</ele>
        <time>2021-05-29 10:20:33</time>
      </trkpt>
      <trkpt lat="43.27867" lon="-2.00418">
        <ele>34.8</ele>
        <time>2021-05-29 10:20:34</time>
      </trkpt>
      <trkpt lat="43.27869" lon="-2.00432">
        <ele>34.6</ele>
        <time>2021-05-29 10:20:35</time>
      </trkpt>
      <trkpt lat="43.27871" lon="-2.00446">
        <ele>34.2</ele>
        <time>2021-05-29 10:20:36</time>
      </trkpt>
      <trkpt lat="43.27874" lon="-2.00461">
        <ele>33.8</ele>
        <time>2021-05-29 10:20:37</time>
      </trkpt>
      <trkpt lat="43.27876" lon="-2.00476">
        <ele>33.2</ele>
        <time>2021-05-29 10:20:38</time>
      </trkpt>
      <trkpt lat="43.27879" lon="-2.0049">
        <ele>32.8</ele>
        <time>2021-05-29 10:20:39</time>
      </trkpt>
      <trkpt lat="43.27882" lon="-2.00504">
        <ele>32.4</ele>
        <time>2021-05-29 10:20:40</time>
      </trkpt>
      <trkpt lat="43.27885" lon="-2.00517">
        <ele>32</ele>
        <time>2021-05-29 10:20:41</time>
      </trkpt>
      <trkpt lat="43.2789" lon="-2.00529">
        <ele>31.4</ele>
        <time>2021-05-29 10:20:42</time>
      </trkpt>
      <trkpt lat="43.27896" lon="-2.00537">
        <ele>31.2</ele>
        <time>2021-05-29 10:20:43</time>
      </trkpt>
      <trkpt lat="43.27904" lon="-2.00543">
        <ele>31</ele>
        <time>2021-05-29 10:20:44</time>
      </trkpt>
      <trkpt lat="43.27912" lon="-2.00546">
        <ele>30.8</ele>
        <time>2021-05-29 10:20:45</time>
      </trkpt>
      <trkpt lat="43.27922" lon="-2.00546">
        <ele>30.6</ele>
        <time>2021-05-29 10:20:46</time>
      </trkpt>
      <trkpt lat="43.27932" lon="-2.00544">
        <ele>30.6</ele>
        <time>2021-05-29 10:20:47</time>
      </trkpt>
      <trkpt lat="43.27941" lon="-2.00538">
        <ele>30.6</ele>
        <time>2021-05-29 10:20:48</time>
      </trkpt>
      <trkpt lat="43.2795" lon="-2.00532">
        <ele>30.6</ele>
        <time>2021-05-29 10:20:49</time>
      </trkpt>
      <trkpt lat="43.27959" lon="-2.00523">
        <ele>30.4</ele>
        <time>2021-05-29 10:20:50</time>
      </trkpt>
      <trkpt lat="43.27968" lon="-2.00514">
        <ele>30.4</ele>
        <time>2021-05-29 10:20:51</time>
      </trkpt>
      <trkpt lat="43.27977" lon="-2.00506">
        <ele>30.4</ele>
        <time>2021-05-29 10:20:52</time>
      </trkpt>
      <trkpt lat="43.27987" lon="-2.00497">
        <ele>30.2</ele>
        <time>2021-05-29 10:20:53</time>
      </trkpt>
      <trkpt lat="43.27996" lon="-2.00489">
        <ele>30</ele>
        <time>2021-05-29 10:20:54</time>
      </trkpt>
      <trkpt lat="43.28005" lon="-2.0048">
        <ele>30</ele>
        <time>2021-05-29 10:20:55</time>
      </trkpt>
      <trkpt lat="43.28015" lon="-2.00471">
        <ele>30</ele>
        <time>2021-05-29 10:20:56</time>
      </trkpt>
      <trkpt lat="43.28025" lon="-2.00463">
        <ele>30</ele>
        <time>2021-05-29 10:20:57</time>
      </trkpt>
      <trkpt lat="43.28035" lon="-2.00455">
        <ele>30</ele>
        <time>2021-05-29 10:20:58</time>
      </trkpt>
      <trkpt lat="43.28045" lon="-2.00446">
        <ele>30</ele>
        <time>2021-05-29 10:20:59</time>
      </trkpt>
      <trkpt lat="43.28054" lon="-2.00437">
        <ele>30</ele>
        <time>2021-05-29 10:21:00</time>
      </trkpt>
      <trkpt lat="43.28063" lon="-2.00427">
        <ele>29.8</ele>
        <time>2021-05-29 10:21:01</time>
      </trkpt>
      <trkpt lat="43.28072" lon="-2.00417">
        <ele>29.4</ele>
        <time>2021-05-29 10:21:02</time>
      </trkpt>
      <trkpt lat="43.2808" lon="-2.00407">
        <ele>29</ele>
        <time>2021-05-29 10:21:03</time>
      </trkpt>
      <trkpt lat="43.28088" lon="-2.00398">
        <ele>28.8</ele>
        <time>2021-05-29 10:21:04</time>
      </trkpt>
      <trkpt lat="43.28096" lon="-2.00388">
        <ele>28.6</ele>
        <time>2021-05-29 10:21:05</time>
      </trkpt>
      <trkpt lat="43.28104" lon="-2.00377">
        <ele>28.2</ele>
        <time>2021-05-29 10:21:06</time>
      </trkpt>
      <trkpt lat="43.28112" lon="-2.00367">
        <ele>28</ele>
        <time>2021-05-29 10:21:07</time>
      </trkpt>
      <trkpt lat="43.2812" lon="-2.00356">
        <ele>27.8</ele>
        <time>2021-05-29 10:21:08</time>
      </trkpt>
      <trkpt lat="43.28128" lon="-2.00345">
        <ele>27.4</ele>
        <time>2021-05-29 10:21:09</time>
      </trkpt>
      <trkpt lat="43.28136" lon="-2.00335">
        <ele>27.2</ele>
        <time>2021-05-29 10:21:10</time>
      </trkpt>
      <trkpt lat="43.28144" lon="-2.00325">
        <ele>26.8</ele>
        <time>2021-05-29 10:21:11</time>
      </trkpt>
      <trkpt lat="43.28152" lon="-2.00315">
        <ele>26.8</ele>
        <time>2021-05-29 10:21:12</time>
      </trkpt>
      <trkpt lat="43.2816" lon="-2.00304">
        <ele>26.2</ele>
        <time>2021-05-29 10:21:13</time>
      </trkpt>
      <trkpt lat="43.28168" lon="-2.00295">
        <ele>26.2</ele>
        <time>2021-05-29 10:21:14</time>
      </trkpt>
      <trkpt lat="43.28176" lon="-2.00285">
        <ele>26</ele>
        <time>2021-05-29 10:21:15</time>
      </trkpt>
      <trkpt lat="43.28184" lon="-2.00275">
        <ele>25.6</ele>
        <time>2021-05-29 10:21:16</time>
      </trkpt>
      <trkpt lat="43.28192" lon="-2.00266">
        <ele>25.4</ele>
        <time>2021-05-29 10:21:17</time>
      </trkpt>
      <trkpt lat="43.28199" lon="-2.00256">
        <ele>25.4</ele>
        <time>2021-05-29 10:21:18</time>
      </trkpt>
      <trkpt lat="43.28207" lon="-2.00247">
        <ele>25.4</ele>
        <time>2021-05-29 10:21:19</time>
      </trkpt>
      <trkpt lat="43.28215" lon="-2.00237">
        <ele>25</ele>
        <time>2021-05-29 10:21:20</time>
      </trkpt>
      <trkpt lat="43.28222" lon="-2.00229">
        <ele>25</ele>
        <time>2021-05-29 10:21:21</time>
      </trkpt>
      <trkpt lat="43.2823" lon="-2.00221">
        <ele>24.8</ele>
        <time>2021-05-29 10:21:22</time>
      </trkpt>
      <trkpt lat="43.28238" lon="-2.00213">
        <ele>24.8</ele>
        <time>2021-05-29 10:21:23</time>
      </trkpt>
      <trkpt lat="43.28246" lon="-2.00206">
        <ele>24.8</ele>
        <time>2021-05-29 10:21:24</time>
      </trkpt>
      <trkpt lat="43.28253" lon="-2.00198">
        <ele>24.2</ele>
        <time>2021-05-29 10:21:25</time>
      </trkpt>
      <trkpt lat="43.28261" lon="-2.00191">
        <ele>23.8</ele>
        <time>2021-05-29 10:21:26</time>
      </trkpt>
      <trkpt lat="43.28268" lon="-2.00184">
        <ele>23.4</ele>
        <time>2021-05-29 10:21:27</time>
      </trkpt>
      <trkpt lat="43.28274" lon="-2.00176">
        <ele>23</ele>
        <time>2021-05-29 10:21:28</time>
      </trkpt>
      <trkpt lat="43.28279" lon="-2.00166">
        <ele>22.8</ele>
        <time>2021-05-29 10:21:29</time>
      </trkpt>
      <trkpt lat="43.28283" lon="-2.00155">
        <ele>22.8</ele>
        <time>2021-05-29 10:21:30</time>
      </trkpt>
      <trkpt lat="43.28288" lon="-2.00146">
        <ele>22.6</ele>
        <time>2021-05-29 10:21:31</time>
      </trkpt>
      <trkpt lat="43.28295" lon="-2.0014">
        <ele>22.6</ele>
        <time>2021-05-29 10:21:32</time>
      </trkpt>
      <trkpt lat="43.28302" lon="-2.00139">
        <ele>22.2</ele>
        <time>2021-05-29 10:21:33</time>
      </trkpt>
      <trkpt lat="43.2831" lon="-2.00141">
        <ele>22.2</ele>
        <time>2021-05-29 10:21:34</time>
      </trkpt>
      <trkpt lat="43.28317" lon="-2.00143">
        <ele>22</ele>
        <time>2021-05-29 10:21:35</time>
      </trkpt>
      <trkpt lat="43.28326" lon="-2.00144">
        <ele>21.6</ele>
        <time>2021-05-29 10:21:36</time>
      </trkpt>
      <trkpt lat="43.28334" lon="-2.00143">
        <ele>21</ele>
        <time>2021-05-29 10:21:37</time>
      </trkpt>
      <trkpt lat="43.28342" lon="-2.00141">
        <ele>20.8</ele>
        <time>2021-05-29 10:21:38</time>
      </trkpt>
      <trkpt lat="43.28351" lon="-2.00137">
        <ele>20.6</ele>
        <time>2021-05-29 10:21:39</time>
      </trkpt>
      <trkpt lat="43.2836" lon="-2.00134">
        <ele>20.6</ele>
        <time>2021-05-29 10:21:40</time>
      </trkpt>
      <trkpt lat="43.28368" lon="-2.0013">
        <ele>20.6</ele>
        <time>2021-05-29 10:21:41</time>
      </trkpt>
      <trkpt lat="43.28377" lon="-2.00126">
        <ele>20.2</ele>
        <time>2021-05-29 10:21:42</time>
      </trkpt>
      <trkpt lat="43.28386" lon="-2.00121">
        <ele>20</ele>
        <time>2021-05-29 10:21:43</time>
      </trkpt>
      <trkpt lat="43.28394" lon="-2.00117">
        <ele>20</ele>
        <time>2021-05-29 10:21:44</time>
      </trkpt>
      <trkpt lat="43.28403" lon="-2.00113">
        <ele>19.8</ele>
        <time>2021-05-29 10:21:45</time>
      </trkpt>
      <trkpt lat="43.28412" lon="-2.00108">
        <ele>19.6</ele>
        <time>2021-05-29 10:21:46</time>
      </trkpt>
      <trkpt lat="43.2842" lon="-2.00104">
        <ele>19.6</ele>
        <time>2021-05-29 10:21:47</time>
      </trkpt>
      <trkpt lat="43.28429" lon="-2.001">
        <ele>19.4</ele>
        <time>2021-05-29 10:21:48</time>
      </trkpt>
      <trkpt lat="43.28438" lon="-2.00095">
        <ele>19.4</ele>
        <time>2021-05-29 10:21:49</time>
      </trkpt>
      <trkpt lat="43.28446" lon="-2.00089">
        <ele>19.4</ele>
        <time>2021-05-29 10:21:50</time>
      </trkpt>
      <trkpt lat="43.28454" lon="-2.00083">
        <ele>19.4</ele>
        <time>2021-05-29 10:21:51</time>
      </trkpt>
      <trkpt lat="43.28463" lon="-2.00076">
        <ele>19.2</ele>
        <time>2021-05-29 10:21:52</time>
      </trkpt>
      <trkpt lat="43.28471" lon="-2.00069">
        <ele>19.2</ele>
        <time>2021-05-29 10:21:53</time>
      </trkpt>
      <trkpt lat="43.28479" lon="-2.00061">
        <ele>19.2</ele>
        <time>2021-05-29 10:21:54</time>
      </trkpt>
      <trkpt lat="43.28486" lon="-2.00052">
        <ele>19</ele>
        <time>2021-05-29 10:21:55</time>
      </trkpt>
      <trkpt lat="43.28494" lon="-2.00043">
        <ele>18.8</ele>
        <time>2021-05-29 10:21:56</time>
      </trkpt>
      <trkpt lat="43.28501" lon="-2.00034">
        <ele>18.8</ele>
        <time>2021-05-29 10:21:57</time>
      </trkpt>
      <trkpt lat="43.28509" lon="-2.00024">
        <ele>18.8</ele>
        <time>2021-05-29 10:21:58</time>
      </trkpt>
      <trkpt lat="43.28516" lon="-2.00015">
        <ele>18.6</ele>
        <time>2021-05-29 10:21:59</time>
      </trkpt>
      <trkpt lat="43.28523" lon="-2.00006">
        <ele>18.2</ele>
        <time>2021-05-29 10:22:00</time>
      </trkpt>
      <trkpt lat="43.2853" lon="-1.99997">
        <ele>18.2</ele>
        <time>2021-05-29 10:22:01</time>
      </trkpt>
      <trkpt lat="43.28537" lon="-1.99988">
        <ele>18.2</ele>
        <time>2021-05-29 10:22:02</time>
      </trkpt>
      <trkpt lat="43.28544" lon="-1.99979">
        <ele>18.2</ele>
        <time>2021-05-29 10:22:03</time>
      </trkpt>
      <trkpt lat="43.28551" lon="-1.9997">
        <ele>18</ele>
        <time>2021-05-29 10:22:04</time>
      </trkpt>
      <trkpt lat="43.28558" lon="-1.99961">
        <ele>18</ele>
        <time>2021-05-29 10:22:05</time>
      </trkpt>
      <trkpt lat="43.28565" lon="-1.99952">
        <ele>17.8</ele>
        <time>2021-05-29 10:22:06</time>
      </trkpt>
      <trkpt lat="43.28572" lon="-1.99942">
        <ele>17.6</ele>
        <time>2021-05-29 10:22:07</time>
      </trkpt>
      <trkpt lat="43.28579" lon="-1.99933">
        <ele>17.6</ele>
        <time>2021-05-29 10:22:08</time>
      </trkpt>
      <trkpt lat="43.28586" lon="-1.99924">
        <ele>17.2</ele>
        <time>2021-05-29 10:22:09</time>
      </trkpt>
      <trkpt lat="43.28592" lon="-1.99916">
        <ele>17.2</ele>
        <time>2021-05-29 10:22:10</time>
      </trkpt>
      <trkpt lat="43.28599" lon="-1.99907">
        <ele>17</ele>
        <time>2021-05-29 10:22:11</time>
      </trkpt>
      <trkpt lat="43.28606" lon="-1.99898">
        <ele>16.8</ele>
        <time>2021-05-29 10:22:12</time>
      </trkpt>
      <trkpt lat="43.28613" lon="-1.9989">
        <ele>16.8</ele>
        <time>2021-05-29 10:22:13</time>
      </trkpt>
      <trkpt lat="43.2862" lon="-1.99881">
        <ele>16.6</ele>
        <time>2021-05-29 10:22:14</time>
      </trkpt>
      <trkpt lat="43.28627" lon="-1.99873">
        <ele>16.6</ele>
        <time>2021-05-29 10:22:15</time>
      </trkpt>
      <trkpt lat="43.28634" lon="-1.99864">
        <ele>16.4</ele>
        <time>2021-05-29 10:22:16</time>
      </trkpt>
      <trkpt lat="43.28641" lon="-1.99855">
        <ele>16.4</ele>
        <time>2021-05-29 10:22:17</time>
      </trkpt>
      <trkpt lat="43.28649" lon="-1.99847">
        <ele>16.4</ele>
        <time>2021-05-29 10:22:18</time>
      </trkpt>
      <trkpt lat="43.28656" lon="-1.99839">
        <ele>16</ele>
        <time>2021-05-29 10:22:19</time>
      </trkpt>
      <trkpt lat="43.28663" lon="-1.99831">
        <ele>16</ele>
        <time>2021-05-29 10:22:20</time>
      </trkpt>
      <trkpt lat="43.28671" lon="-1.99823">
        <ele>15.8</ele>
        <time>2021-05-29 10:22:21</time>
      </trkpt>
      <trkpt lat="43.28679" lon="-1.99816">
        <ele>15.8</ele>
        <time>2021-05-29 10:22:22</time>
      </trkpt>
      <trkpt lat="43.28687" lon="-1.99809">
        <ele>15.6</ele>
        <time>2021-05-29 10:22:23</time>
      </trkpt>
      <trkpt lat="43.28695" lon="-1.99804">
        <ele>15.4</ele>
        <time>2021-05-29 10:22:24</time>
      </trkpt>
      <trkpt lat="43.28704" lon="-1.99799">
        <ele>15.2</ele>
        <time>2021-05-29 10:22:25</time>
      </trkpt>
      <trkpt lat="43.28713" lon="-1.99795">
        <ele>15</ele>
        <time>2021-05-29 10:22:26</time>
      </trkpt>
      <trkpt lat="43.28722" lon="-1.99792">
        <ele>14.8</ele>
        <time>2021-05-29 10:22:27</time>
      </trkpt>
      <trkpt lat="43.28731" lon="-1.99789">
        <ele>14.8</ele>
        <time>2021-05-29 10:22:28</time>
      </trkpt>
      <trkpt lat="43.28741" lon="-1.99788">
        <ele>14.8</ele>
        <time>2021-05-29 10:22:29</time>
      </trkpt>
      <trkpt lat="43.28751" lon="-1.99787">
        <ele>14.6</ele>
        <time>2021-05-29 10:22:30</time>
      </trkpt>
      <trkpt lat="43.28761" lon="-1.99788">
        <ele>14.4</ele>
        <time>2021-05-29 10:22:31</time>
      </trkpt>
      <trkpt lat="43.28772" lon="-1.9979">
        <ele>14.2</ele>
        <time>2021-05-29 10:22:32</time>
      </trkpt>
      <trkpt lat="43.28781" lon="-1.99791">
        <ele>14.2</ele>
        <time>2021-05-29 10:22:33</time>
      </trkpt>
      <trkpt lat="43.28791" lon="-1.99792">
        <ele>14</ele>
        <time>2021-05-29 10:22:34</time>
      </trkpt>
      <trkpt lat="43.28802" lon="-1.99793">
        <ele>13.8</ele>
        <time>2021-05-29 10:22:35</time>
      </trkpt>
      <trkpt lat="43.28812" lon="-1.99794">
        <ele>13.6</ele>
        <time>2021-05-29 10:22:36</time>
      </trkpt>
      <trkpt lat="43.28822" lon="-1.99795">
        <ele>13.4</ele>
        <time>2021-05-29 10:22:37</time>
      </trkpt>
      <trkpt lat="43.28833" lon="-1.99796">
        <ele>13.4</ele>
        <time>2021-05-29 10:22:38</time>
      </trkpt>
      <trkpt lat="43.28843" lon="-1.99797">
        <ele>13</ele>
        <time>2021-05-29 10:22:39</time>
      </trkpt>
      <trkpt lat="43.28854" lon="-1.99797">
        <ele>13</ele>
        <time>2021-05-29 10:22:40</time>
      </trkpt>
      <trkpt lat="43.28864" lon="-1.99798">
        <ele>13</ele>
        <time>2021-05-29 10:22:41</time>
      </trkpt>
      <trkpt lat="43.28874" lon="-1.99799">
        <ele>12.8</ele>
        <time>2021-05-29 10:22:42</time>
      </trkpt>
      <trkpt lat="43.28883" lon="-1.998">
        <ele>12.6</ele>
        <time>2021-05-29 10:22:43</time>
      </trkpt>
      <trkpt lat="43.28893" lon="-1.998">
        <ele>12.4</ele>
        <time>2021-05-29 10:22:44</time>
      </trkpt>
      <trkpt lat="43.28902" lon="-1.998">
        <ele>12.2</ele>
        <time>2021-05-29 10:22:45</time>
      </trkpt>
      <trkpt lat="43.2891" lon="-1.99799">
        <ele>12</ele>
        <time>2021-05-29 10:22:46</time>
      </trkpt>
      <trkpt lat="43.28919" lon="-1.99798">
        <ele>11.6</ele>
        <time>2021-05-29 10:22:47</time>
      </trkpt>
      <trkpt lat="43.28927" lon="-1.99797">
        <ele>11.6</ele>
        <time>2021-05-29 10:22:48</time>
      </trkpt>
      <trkpt lat="43.28934" lon="-1.99794">
        <ele>11.4</ele>
        <time>2021-05-29 10:22:49</time>
      </trkpt>
      <trkpt lat="43.28941" lon="-1.99788">
        <ele>11.4</ele>
        <time>2021-05-29 10:22:50</time>
      </trkpt>
      <trkpt lat="43.28948" lon="-1.99781">
        <ele>11.2</ele>
        <time>2021-05-29 10:22:51</time>
      </trkpt>
      <trkpt lat="43.28954" lon="-1.99773">
        <ele>11.2</ele>
        <time>2021-05-29 10:22:52</time>
      </trkpt>
      <trkpt lat="43.28961" lon="-1.99766">
        <ele>11.2</ele>
        <time>2021-05-29 10:22:53</time>
      </trkpt>
      <trkpt lat="43.28969" lon="-1.99763">
        <ele>11.2</ele>
        <time>2021-05-29 10:22:54</time>
      </trkpt>
      <trkpt lat="43.28977" lon="-1.99763">
        <ele>11.2</ele>
        <time>2021-05-29 10:22:55</time>
      </trkpt>
      <trkpt lat="43.28985" lon="-1.99765">
        <ele>11.2</ele>
        <time>2021-05-29 10:22:56</time>
      </trkpt>
      <trkpt lat="43.28993" lon="-1.99768">
        <ele>11.2</ele>
        <time>2021-05-29 10:22:57</time>
      </trkpt>
      <trkpt lat="43.29001" lon="-1.99773">
        <ele>11.2</ele>
        <time>2021-05-29 10:22:58</time>
      </trkpt>
      <trkpt lat="43.29007" lon="-1.99777">
        <ele>11.4</ele>
        <time>2021-05-29 10:22:59</time>
      </trkpt>
      <trkpt lat="43.29015" lon="-1.9978">
        <ele>11.2</ele>
        <time>2021-05-29 10:23:00</time>
      </trkpt>
      <trkpt lat="43.29022" lon="-1.99782">
        <ele>11.4</ele>
        <time>2021-05-29 10:23:01</time>
      </trkpt>
      <trkpt lat="43.2903" lon="-1.99782">
        <ele>11.6</ele>
        <time>2021-05-29 10:23:02</time>
      </trkpt>
      <trkpt lat="43.29037" lon="-1.99781">
        <ele>12</ele>
        <time>2021-05-29 10:23:03</time>
      </trkpt>
      <trkpt lat="43.29044" lon="-1.9978">
        <ele>12</ele>
        <time>2021-05-29 10:23:04</time>
      </trkpt>
      <trkpt lat="43.29051" lon="-1.99779">
        <ele>12.4</ele>
        <time>2021-05-29 10:23:05</time>
      </trkpt>
      <trkpt lat="43.29057" lon="-1.99778">
        <ele>12.4</ele>
        <time>2021-05-29 10:23:06</time>
      </trkpt>
      <trkpt lat="43.29063" lon="-1.99776">
        <ele>12.6</ele>
        <time>2021-05-29 10:23:07</time>
      </trkpt>
      <trkpt lat="43.29069" lon="-1.99775">
        <ele>13</ele>
        <time>2021-05-29 10:23:08</time>
      </trkpt>
      <trkpt lat="43.29075" lon="-1.99773">
        <ele>13.4</ele>
        <time>2021-05-29 10:23:09</time>
      </trkpt>
      <trkpt lat="43.29081" lon="-1.99771">
        <ele>13.8</ele>
        <time>2021-05-29 10:23:10</time>
      </trkpt>
      <trkpt lat="43.29087" lon="-1.99769">
        <ele>14.2</ele>
        <time>2021-05-29 10:23:11</time>
      </trkpt>
      <trkpt lat="43.29093" lon="-1.99768">
        <ele>14.2</ele>
        <time>2021-05-29 10:23:12</time>
      </trkpt>
      <trkpt lat="43.29099" lon="-1.99766">
        <ele>14.6</ele>
        <time>2021-05-29 10:23:13</time>
      </trkpt>
      <trkpt lat="43.29105" lon="-1.99764">
        <ele>14.8</ele>
        <time>2021-05-29 10:23:14</time>
      </trkpt>
      <trkpt lat="43.29112" lon="-1.99762">
        <ele>15.2</ele>
        <time>2021-05-29 10:23:15</time>
      </trkpt>
      <trkpt lat="43.29119" lon="-1.9976">
        <ele>15.4</ele>
        <time>2021-05-29 10:23:16</time>
      </trkpt>
      <trkpt lat="43.29126" lon="-1.99758">
        <ele>15.6</ele>
        <time>2021-05-29 10:23:17</time>
      </trkpt>
      <trkpt lat="43.29133" lon="-1.99756">
        <ele>15.8</ele>
        <time>2021-05-29 10:23:18</time>
      </trkpt>
      <trkpt lat="43.29139" lon="-1.99753">
        <ele>16</ele>
        <time>2021-05-29 10:23:19</time>
      </trkpt>
      <trkpt lat="43.29146" lon="-1.99751">
        <ele>16.4</ele>
        <time>2021-05-29 10:23:20</time>
      </trkpt>
      <trkpt lat="43.29154" lon="-1.99748">
        <ele>16.8</ele>
        <time>2021-05-29 10:23:21</time>
      </trkpt>
      <trkpt lat="43.29161" lon="-1.99744">
        <ele>17</ele>
        <time>2021-05-29 10:23:22</time>
      </trkpt>
      <trkpt lat="43.29168" lon="-1.99741">
        <ele>17</ele>
        <time>2021-05-29 10:23:23</time>
      </trkpt>
      <trkpt lat="43.29176" lon="-1.99737">
        <ele>17</ele>
        <time>2021-05-29 10:23:24</time>
      </trkpt>
      <trkpt lat="43.29183" lon="-1.99733">
        <ele>17.2</ele>
        <time>2021-05-29 10:23:25</time>
      </trkpt>
      <trkpt lat="43.29191" lon="-1.99729">
        <ele>17.2</ele>
        <time>2021-05-29 10:23:26</time>
      </trkpt>
      <trkpt lat="43.29198" lon="-1.99725">
        <ele>17.4</ele>
        <time>2021-05-29 10:23:27</time>
      </trkpt>
      <trkpt lat="43.29204" lon="-1.9972">
        <ele>17.6</ele>
        <time>2021-05-29 10:23:28</time>
      </trkpt>
      <trkpt lat="43.29211" lon="-1.99715">
        <ele>17.6</ele>
        <time>2021-05-29 10:23:29</time>
      </trkpt>
      <trkpt lat="43.29218" lon="-1.99711">
        <ele>17.6</ele>
        <time>2021-05-29 10:23:30</time>
      </trkpt>
      <trkpt lat="43.29225" lon="-1.99706">
        <ele>17.8</ele>
        <time>2021-05-29 10:23:31</time>
      </trkpt>
      <trkpt lat="43.29231" lon="-1.99701">
        <ele>17.8</ele>
        <time>2021-05-29 10:23:32</time>
      </trkpt>
      <trkpt lat="43.29238" lon="-1.99696">
        <ele>17.8</ele>
        <time>2021-05-29 10:23:33</time>
      </trkpt>
      <trkpt lat="43.29244" lon="-1.99691">
        <ele>18</ele>
        <time>2021-05-29 10:23:34</time>
      </trkpt>
      <trkpt lat="43.29251" lon="-1.99685">
        <ele>17.8</ele>
        <time>2021-05-29 10:23:35</time>
      </trkpt>
      <trkpt lat="43.29258" lon="-1.99679">
        <ele>18</ele>
        <time>2021-05-29 10:23:36</time>
      </trkpt>
      <trkpt lat="43.29265" lon="-1.99673">
        <ele>18</ele>
        <time>2021-05-29 10:23:37</time>
      </trkpt>
      <trkpt lat="43.29272" lon="-1.99667">
        <ele>18</ele>
        <time>2021-05-29 10:23:38</time>
      </trkpt>
      <trkpt lat="43.29279" lon="-1.99661">
        <ele>18.2</ele>
        <time>2021-05-29 10:23:39</time>
      </trkpt>
      <trkpt lat="43.29286" lon="-1.99656">
        <ele>18.2</ele>
        <time>2021-05-29 10:23:40</time>
      </trkpt>
      <trkpt lat="43.29292" lon="-1.9965">
        <ele>18.4</ele>
        <time>2021-05-29 10:23:41</time>
      </trkpt>
      <trkpt lat="43.29298" lon="-1.99645">
        <ele>18.4</ele>
        <time>2021-05-29 10:23:42</time>
      </trkpt>
      <trkpt lat="43.29305" lon="-1.99639">
        <ele>18.6</ele>
        <time>2021-05-29 10:23:43</time>
      </trkpt>
      <trkpt lat="43.29311" lon="-1.99634">
        <ele>18.6</ele>
        <time>2021-05-29 10:23:44</time>
      </trkpt>
      <trkpt lat="43.29318" lon="-1.99628">
        <ele>18.8</ele>
        <time>2021-05-29 10:23:45</time>
      </trkpt>
      <trkpt lat="43.29324" lon="-1.99623">
        <ele>18.8</ele>
        <time>2021-05-29 10:23:46</time>
      </trkpt>
      <trkpt lat="43.29331" lon="-1.99617">
        <ele>19</ele>
        <time>2021-05-29 10:23:47</time>
      </trkpt>
      <trkpt lat="43.29339" lon="-1.99611">
        <ele>19</ele>
        <time>2021-05-29 10:23:48</time>
      </trkpt>
      <trkpt lat="43.29346" lon="-1.99606">
        <ele>19</ele>
        <time>2021-05-29 10:23:49</time>
      </trkpt>
      <trkpt lat="43.29354" lon="-1.996">
        <ele>19</ele>
        <time>2021-05-29 10:23:50</time>
      </trkpt>
      <trkpt lat="43.29363" lon="-1.99595">
        <ele>19</ele>
        <time>2021-05-29 10:23:51</time>
      </trkpt>
      <trkpt lat="43.29371" lon="-1.9959">
        <ele>19</ele>
        <time>2021-05-29 10:23:52</time>
      </trkpt>
      <trkpt lat="43.29379" lon="-1.99585">
        <ele>19</ele>
        <time>2021-05-29 10:23:53</time>
      </trkpt>
      <trkpt lat="43.29388" lon="-1.9958">
        <ele>19</ele>
        <time>2021-05-29 10:23:54</time>
      </trkpt>
      <trkpt lat="43.29397" lon="-1.99575">
        <ele>19</ele>
        <time>2021-05-29 10:23:55</time>
      </trkpt>
      <trkpt lat="43.29406" lon="-1.99571">
        <ele>19</ele>
        <time>2021-05-29 10:23:56</time>
      </trkpt>
      <trkpt lat="43.29415" lon="-1.99567">
        <ele>18.8</ele>
        <time>2021-05-29 10:23:57</time>
      </trkpt>
      <trkpt lat="43.29425" lon="-1.99564">
        <ele>18.8</ele>
        <time>2021-05-29 10:23:58</time>
      </trkpt>
      <trkpt lat="43.29435" lon="-1.99561">
        <ele>18.8</ele>
        <time>2021-05-29 10:23:59</time>
      </trkpt>
      <trkpt lat="43.29445" lon="-1.99558">
        <ele>18.8</ele>
        <time>2021-05-29 10:24:00</time>
      </trkpt>
      <trkpt lat="43.29455" lon="-1.99556">
        <ele>18.6</ele>
        <time>2021-05-29 10:24:01</time>
      </trkpt>
      <trkpt lat="43.29465" lon="-1.99555">
        <ele>18.4</ele>
        <time>2021-05-29 10:24:02</time>
      </trkpt>
      <trkpt lat="43.29476" lon="-1.99553">
        <ele>18</ele>
        <time>2021-05-29 10:24:03</time>
      </trkpt>
      <trkpt lat="43.29487" lon="-1.99553">
        <ele>17.6</ele>
        <time>2021-05-29 10:24:04</time>
      </trkpt>
      <trkpt lat="43.29498" lon="-1.99552">
        <ele>17</ele>
        <time>2021-05-29 10:24:05</time>
      </trkpt>
      <trkpt lat="43.29509" lon="-1.99553">
        <ele>16.6</ele>
        <time>2021-05-29 10:24:06</time>
      </trkpt>
      <trkpt lat="43.2952" lon="-1.99554">
        <ele>16.4</ele>
        <time>2021-05-29 10:24:07</time>
      </trkpt>
      <trkpt lat="43.29531" lon="-1.99556">
        <ele>16</ele>
        <time>2021-05-29 10:24:08</time>
      </trkpt>
      <trkpt lat="43.29542" lon="-1.99558">
        <ele>15.4</ele>
        <time>2021-05-29 10:24:09</time>
      </trkpt>
      <trkpt lat="43.29554" lon="-1.99562">
        <ele>15.2</ele>
        <time>2021-05-29 10:24:10</time>
      </trkpt>
      <trkpt lat="43.29565" lon="-1.99565">
        <ele>14.6</ele>
        <time>2021-05-29 10:24:11</time>
      </trkpt>
      <trkpt lat="43.29576" lon="-1.99568">
        <ele>14.4</ele>
        <time>2021-05-29 10:24:12</time>
      </trkpt>
      <trkpt lat="43.29588" lon="-1.99573">
        <ele>14.2</ele>
        <time>2021-05-29 10:24:13</time>
      </trkpt>
      <trkpt lat="43.29599" lon="-1.99578">
        <ele>13.8</ele>
        <time>2021-05-29 10:24:14</time>
      </trkpt>
      <trkpt lat="43.2961" lon="-1.99584">
        <ele>13.4</ele>
        <time>2021-05-29 10:24:15</time>
      </trkpt>
      <trkpt lat="43.29621" lon="-1.99591">
        <ele>12.8</ele>
        <time>2021-05-29 10:24:16</time>
      </trkpt>
      <trkpt lat="43.29632" lon="-1.99598">
        <ele>12.2</ele>
        <time>2021-05-29 10:24:17</time>
      </trkpt>
      <trkpt lat="43.29643" lon="-1.99606">
        <ele>11.8</ele>
        <time>2021-05-29 10:24:18</time>
      </trkpt>
      <trkpt lat="43.29653" lon="-1.99615">
        <ele>11.2</ele>
        <time>2021-05-29 10:24:19</time>
      </trkpt>
      <trkpt lat="43.29662" lon="-1.99626">
        <ele>10.6</ele>
        <time>2021-05-29 10:24:20</time>
      </trkpt>
      <trkpt lat="43.29671" lon="-1.99638">
        <ele>10</ele>
        <time>2021-05-29 10:24:21</time>
      </trkpt>
      <trkpt lat="43.29679" lon="-1.9965">
        <ele>9.6</ele>
        <time>2021-05-29 10:24:22</time>
      </trkpt>
      <trkpt lat="43.29687" lon="-1.99664">
        <ele>9.4</ele>
        <time>2021-05-29 10:24:23</time>
      </trkpt>
      <trkpt lat="43.29694" lon="-1.99678">
        <ele>9</ele>
        <time>2021-05-29 10:24:24</time>
      </trkpt>
      <trkpt lat="43.29701" lon="-1.99692">
        <ele>8.2</ele>
        <time>2021-05-29 10:24:25</time>
      </trkpt>
      <trkpt lat="43.29707" lon="-1.99707">
        <ele>7.8</ele>
        <time>2021-05-29 10:24:26</time>
      </trkpt>
      <trkpt lat="43.29713" lon="-1.99722">
        <ele>7.4</ele>
        <time>2021-05-29 10:24:27</time>
      </trkpt>
      <trkpt lat="43.29718" lon="-1.99737">
        <ele>6.6</ele>
        <time>2021-05-29 10:24:28</time>
      </trkpt>
      <trkpt lat="43.29723" lon="-1.99752">
        <ele>5.6</ele>
        <time>2021-05-29 10:24:29</time>
      </trkpt>
      <trkpt lat="43.29728" lon="-1.99768">
        <ele>5</ele>
        <time>2021-05-29 10:24:30</time>
      </trkpt>
      <trkpt lat="43.29733" lon="-1.99783">
        <ele>4.4</ele>
        <time>2021-05-29 10:24:31</time>
      </trkpt>
      <trkpt lat="43.29739" lon="-1.99798">
        <ele>3.8</ele>
        <time>2021-05-29 10:24:32</time>
      </trkpt>
      <trkpt lat="43.29744" lon="-1.99813">
        <ele>3.4</ele>
        <time>2021-05-29 10:24:33</time>
      </trkpt>
      <trkpt lat="43.2975" lon="-1.99829">
        <ele>3.2</ele>
        <time>2021-05-29 10:24:34</time>
      </trkpt>
      <trkpt lat="43.29755" lon="-1.99844">
        <ele>2.6</ele>
        <time>2021-05-29 10:24:35</time>
      </trkpt>
      <trkpt lat="43.2976" lon="-1.99859">
        <ele>2</ele>
        <time>2021-05-29 10:24:36</time>
      </trkpt>
      <trkpt lat="43.29766" lon="-1.99875">
        <ele>1.4</ele>
        <time>2021-05-29 10:24:37</time>
      </trkpt>
      <trkpt lat="43.29772" lon="-1.9989">
        <ele>0.8</ele>
        <time>2021-05-29 10:24:38</time>
      </trkpt>
      <trkpt lat="43.29779" lon="-1.99906">
        <ele>-0.2</ele>
        <time>2021-05-29 10:24:39</time>
      </trkpt>
      <trkpt lat="43.29786" lon="-1.99921">
        <ele>-0.8</ele>
        <time>2021-05-29 10:24:40</time>
      </trkpt>
      <trkpt lat="43.29793" lon="-1.99936">
        <ele>-1.2</ele>
        <time>2021-05-29 10:24:41</time>
      </trkpt>
      <trkpt lat="43.29801" lon="-1.99951">
        <ele>-1.8</ele>
        <time>2021-05-29 10:24:42</time>
      </trkpt>
      <trkpt lat="43.2981" lon="-1.99965">
        <ele>-2.4</ele>
        <time>2021-05-29 10:24:43</time>
      </trkpt>
      <trkpt lat="43.29819" lon="-1.99978">
        <ele>-3</ele>
        <time>2021-05-29 10:24:44</time>
      </trkpt>
      <trkpt lat="43.29828" lon="-1.9999">
        <ele>-3.4</ele>
        <time>2021-05-29 10:24:45</time>
      </trkpt>
      <trkpt lat="43.29838" lon="-2.00002">
        <ele>-3.8</ele>
        <time>2021-05-29 10:24:46</time>
      </trkpt>
      <trkpt lat="43.29848" lon="-2.00013">
        <ele>-4.2</ele>
        <time>2021-05-29 10:24:47</time>
      </trkpt>
      <trkpt lat="43.29857" lon="-2.00024">
        <ele>-4.6</ele>
        <time>2021-05-29 10:24:48</time>
      </trkpt>
      <trkpt lat="43.29867" lon="-2.00033">
        <ele>-5</ele>
        <time>2021-05-29 10:24:49</time>
      </trkpt>
      <trkpt lat="43.29876" lon="-2.00043">
        <ele>-5.6</ele>
        <time>2021-05-29 10:24:50</time>
      </trkpt>
      <trkpt lat="43.29886" lon="-2.00052">
        <ele>-5.8</ele>
        <time>2021-05-29 10:24:51</time>
      </trkpt>
      <trkpt lat="43.29895" lon="-2.00061">
        <ele>-6.4</ele>
        <time>2021-05-29 10:24:52</time>
      </trkpt>
      <trkpt lat="43.29904" lon="-2.00069">
        <ele>-6.6</ele>
        <time>2021-05-29 10:24:53</time>
      </trkpt>
      <trkpt lat="43.29913" lon="-2.00078">
        <ele>-6.8</ele>
        <time>2021-05-29 10:24:54</time>
      </trkpt>
      <trkpt lat="43.29922" lon="-2.00086">
        <ele>-6.8</ele>
        <time>2021-05-29 10:24:55</time>
      </trkpt>
      <trkpt lat="43.29931" lon="-2.00094">
        <ele>-6.8</ele>
        <time>2021-05-29 10:24:56</time>
      </trkpt>
      <trkpt lat="43.29939" lon="-2.00102">
        <ele>-6.8</ele>
        <time>2021-05-29 10:24:57</time>
      </trkpt>
      <trkpt lat="43.29948" lon="-2.0011">
        <ele>-7</ele>
        <time>2021-05-29 10:24:58</time>
      </trkpt>
      <trkpt lat="43.29956" lon="-2.00118">
        <ele>-7</ele>
        <time>2021-05-29 10:24:59</time>
      </trkpt>
      <trkpt lat="43.29965" lon="-2.00126">
        <ele>-7</ele>
        <time>2021-05-29 10:25:00</time>
      </trkpt>
      <trkpt lat="43.29972" lon="-2.00135">
        <ele>-7</ele>
        <time>2021-05-29 10:25:01</time>
      </trkpt>
      <trkpt lat="43.2998" lon="-2.00143">
        <ele>-7</ele>
        <time>2021-05-29 10:25:02</time>
      </trkpt>
      <trkpt lat="43.29988" lon="-2.00151">
        <ele>-7</ele>
        <time>2021-05-29 10:25:03</time>
      </trkpt>
      <trkpt lat="43.29996" lon="-2.00159">
        <ele>-7</ele>
        <time>2021-05-29 10:25:04</time>
      </trkpt>
      <trkpt lat="43.30004" lon="-2.00167">
        <ele>-7</ele>
        <time>2021-05-29 10:25:05</time>
      </trkpt>
      <trkpt lat="43.30013" lon="-2.00174">
        <ele>-7</ele>
        <time>2021-05-29 10:25:06</time>
      </trkpt>
      <trkpt lat="43.30021" lon="-2.00182">
        <ele>-7</ele>
        <time>2021-05-29 10:25:07</time>
      </trkpt>
      <trkpt lat="43.3003" lon="-2.0019">
        <ele>-7</ele>
        <time>2021-05-29 10:25:08</time>
      </trkpt>
      <trkpt lat="43.30038" lon="-2.00198">
        <ele>-7</ele>
        <time>2021-05-29 10:25:09</time>
      </trkpt>
      <trkpt lat="43.30047" lon="-2.00207">
        <ele>-7</ele>
        <time>2021-05-29 10:25:10</time>
      </trkpt>
      <trkpt lat="43.30056" lon="-2.00215">
        <ele>-7</ele>
        <time>2021-05-29 10:25:11</time>
      </trkpt>
      <trkpt lat="43.30065" lon="-2.00224">
        <ele>-7</ele>
        <time>2021-05-29 10:25:12</time>
      </trkpt>
      <trkpt lat="43.30074" lon="-2.00233">
        <ele>-7</ele>
        <time>2021-05-29 10:25:13</time>
      </trkpt>
      <trkpt lat="43.30083" lon="-2.00241">
        <ele>-7</ele>
        <time>2021-05-29 10:25:14</time>
      </trkpt>
      <trkpt lat="43.30093" lon="-2.0025">
        <ele>-7.4</ele>
        <time>2021-05-29 10:25:15</time>
      </trkpt>
      <trkpt lat="43.30102" lon="-2.00259">
        <ele>-7.4</ele>
        <time>2021-05-29 10:25:16</time>
      </trkpt>
      <trkpt lat="43.30112" lon="-2.00268">
        <ele>-7.6</ele>
        <time>2021-05-29 10:25:17</time>
      </trkpt>
      <trkpt lat="43.30121" lon="-2.00277">
        <ele>-7.8</ele>
        <time>2021-05-29 10:25:18</time>
      </trkpt>
      <trkpt lat="43.30131" lon="-2.00286">
        <ele>-8.4</ele>
        <time>2021-05-29 10:25:19</time>
      </trkpt>
      <trkpt lat="43.30142" lon="-2.00294">
        <ele>-8.8</ele>
        <time>2021-05-29 10:25:20</time>
      </trkpt>
      <trkpt lat="43.30151" lon="-2.00304">
        <ele>-9.2</ele>
        <time>2021-05-29 10:25:21</time>
      </trkpt>
      <trkpt lat="43.3016" lon="-2.00313">
        <ele>-9.8</ele>
        <time>2021-05-29 10:25:22</time>
      </trkpt>
      <trkpt lat="43.3017" lon="-2.00322">
        <ele>-10.4</ele>
        <time>2021-05-29 10:25:23</time>
      </trkpt>
      <trkpt lat="43.30179" lon="-2.00332">
        <ele>-10.8</ele>
        <time>2021-05-29 10:25:24</time>
      </trkpt>
      <trkpt lat="43.30188" lon="-2.00341">
        <ele>-11.2</ele>
        <time>2021-05-29 10:25:25</time>
      </trkpt>
      <trkpt lat="43.30197" lon="-2.00349">
        <ele>-11.6</ele>
        <time>2021-05-29 10:25:26</time>
      </trkpt>
      <trkpt lat="43.30206" lon="-2.00357">
        <ele>-11.8</ele>
        <time>2021-05-29 10:25:27</time>
      </trkpt>
      <trkpt lat="43.30215" lon="-2.00364">
        <ele>-12.2</ele>
        <time>2021-05-29 10:25:28</time>
      </trkpt>
      <trkpt lat="43.30223" lon="-2.00371">
        <ele>-12.2</ele>
        <time>2021-05-29 10:25:29</time>
      </trkpt>
      <trkpt lat="43.30231" lon="-2.00378">
        <ele>-12.2</ele>
        <time>2021-05-29 10:25:30</time>
      </trkpt>
      <trkpt lat="43.30238" lon="-2.00385">
        <ele>-12.2</ele>
        <time>2021-05-29 10:25:31</time>
      </trkpt>
      <trkpt lat="43.30245" lon="-2.00391">
        <ele>-12.2</ele>
        <time>2021-05-29 10:25:32</time>
      </trkpt>
      <trkpt lat="43.30252" lon="-2.00397">
        <ele>-12.2</ele>
        <time>2021-05-29 10:25:33</time>
      </trkpt>
      <trkpt lat="43.30259" lon="-2.00403">
        <ele>-12.2</ele>
        <time>2021-05-29 10:25:34</time>
      </trkpt>
      <trkpt lat="43.30266" lon="-2.00409">
        <ele>-12.2</ele>
        <time>2021-05-29 10:25:35</time>
      </trkpt>
      <trkpt lat="43.30272" lon="-2.00416">
        <ele>-12.2</ele>
        <time>2021-05-29 10:25:36</time>
      </trkpt>
      <trkpt lat="43.30279" lon="-2.00422">
        <ele>-12.2</ele>
        <time>2021-05-29 10:25:37</time>
      </trkpt>
      <trkpt lat="43.30285" lon="-2.00428">
        <ele>-11.8</ele>
        <time>2021-05-29 10:25:38</time>
      </trkpt>
      <trkpt lat="43.30291" lon="-2.00434">
        <ele>-11.6</ele>
        <time>2021-05-29 10:25:39</time>
      </trkpt>
      <trkpt lat="43.30296" lon="-2.0044">
        <ele>-11</ele>
        <time>2021-05-29 10:25:40</time>
      </trkpt>
      <trkpt lat="43.30302" lon="-2.00446">
        <ele>-10.6</ele>
        <time>2021-05-29 10:25:41</time>
      </trkpt>
      <trkpt lat="43.30308" lon="-2.00452">
        <ele>-10.2</ele>
        <time>2021-05-29 10:25:42</time>
      </trkpt>
      <trkpt lat="43.30314" lon="-2.00458">
        <ele>-10</ele>
        <time>2021-05-29 10:25:43</time>
      </trkpt>
      <trkpt lat="43.3032" lon="-2.00464">
        <ele>-9.8</ele>
        <time>2021-05-29 10:25:44</time>
      </trkpt>
      <trkpt lat="43.30327" lon="-2.00469">
        <ele>-9.6</ele>
        <time>2021-05-29 10:25:45</time>
      </trkpt>
      <trkpt lat="43.30333" lon="-2.00474">
        <ele>-9.6</ele>
        <time>2021-05-29 10:25:46</time>
      </trkpt>
      <trkpt lat="43.3034" lon="-2.00479">
        <ele>-9.6</ele>
        <time>2021-05-29 10:25:47</time>
      </trkpt>
      <trkpt lat="43.30347" lon="-2.00484">
        <ele>-9.6</ele>
        <time>2021-05-29 10:25:48</time>
      </trkpt>
      <trkpt lat="43.30352" lon="-2.0049">
        <ele>-9.6</ele>
        <time>2021-05-29 10:25:49</time>
      </trkpt>
      <trkpt lat="43.30359" lon="-2.00495">
        <ele>-9.6</ele>
        <time>2021-05-29 10:25:50</time>
      </trkpt>
      <trkpt lat="43.30366" lon="-2.00501">
        <ele>-9.6</ele>
        <time>2021-05-29 10:25:51</time>
      </trkpt>
      <trkpt lat="43.30373" lon="-2.00507">
        <ele>-9.6</ele>
        <time>2021-05-29 10:25:52</time>
      </trkpt>
      <trkpt lat="43.30379" lon="-2.00513">
        <ele>-9.6</ele>
        <time>2021-05-29 10:25:53</time>
      </trkpt>
      <trkpt lat="43.30386" lon="-2.00519">
        <ele>-9.6</ele>
        <time>2021-05-29 10:25:54</time>
      </trkpt>
      <trkpt lat="43.30392" lon="-2.00524">
        <ele>-9.6</ele>
        <time>2021-05-29 10:25:55</time>
      </trkpt>
      <trkpt lat="43.30398" lon="-2.00529">
        <ele>-9.6</ele>
        <time>2021-05-29 10:25:56</time>
      </trkpt>
      <trkpt lat="43.30402" lon="-2.00534">
        <ele>-9.6</ele>
        <time>2021-05-29 10:25:57</time>
      </trkpt>
      <trkpt lat="43.30406" lon="-2.00538">
        <ele>-9.6</ele>
        <time>2021-05-29 10:25:58</time>
      </trkpt>
      <trkpt lat="43.30409" lon="-2.00539">
        <ele>-9.6</ele>
        <time>2021-05-29 10:25:59</time>
      </trkpt>
      <trkpt lat="43.30411" lon="-2.0054">
        <ele>-9.6</ele>
        <time>2021-05-29 10:26:00</time>
      </trkpt>
      <trkpt lat="43.30412" lon="-2.00541">
        <ele>-9.6</ele>
        <time>2021-05-29 10:26:01</time>
      </trkpt>
      <trkpt lat="43.30412" lon="-2.00542">
        <ele>-9.6</ele>
        <time>2021-05-29 10:26:02</time>
      </trkpt>
      <trkpt lat="43.30412" lon="-2.00542">
        <ele>-9.6</ele>
        <time>2021-05-29 10:26:03</time>
      </trkpt>
      <trkpt lat="43.30417" lon="-2.00542">
        <ele>-10.6</ele>
        <time>2021-05-29 10:26:38</time>
      </trkpt>
      <trkpt lat="43.30421" lon="-2.00544">
        <ele>-10.6</ele>
        <time>2021-05-29 10:26:39</time>
      </trkpt>
      <trkpt lat="43.30425" lon="-2.00545">
        <ele>-10.6</ele>
        <time>2021-05-29 10:26:40</time>
      </trkpt>
      <trkpt lat="43.30429" lon="-2.00545">
        <ele>-10.6</ele>
        <time>2021-05-29 10:26:41</time>
      </trkpt>
      <trkpt lat="43.30434" lon="-2.00546">
        <ele>-10.6</ele>
        <time>2021-05-29 10:26:42</time>
      </trkpt>
      <trkpt lat="43.30439" lon="-2.00546">
        <ele>-10.6</ele>
        <time>2021-05-29 10:26:43</time>
      </trkpt>
      <trkpt lat="43.30443" lon="-2.00547">
        <ele>-10.6</ele>
        <time>2021-05-29 10:26:44</time>
      </trkpt>
      <trkpt lat="43.30448" lon="-2.00548">
        <ele>-10.6</ele>
        <time>2021-05-29 10:26:45</time>
      </trkpt>
      <trkpt lat="43.30453" lon="-2.0055">
        <ele>-10.6</ele>
        <time>2021-05-29 10:26:46</time>
      </trkpt>
      <trkpt lat="43.30458" lon="-2.00553">
        <ele>-10.8</ele>
        <time>2021-05-29 10:26:47</time>
      </trkpt>
      <trkpt lat="43.30463" lon="-2.00558">
        <ele>-10.8</ele>
        <time>2021-05-29 10:26:48</time>
      </trkpt>
      <trkpt lat="43.30466" lon="-2.00564">
        <ele>-10.8</ele>
        <time>2021-05-29 10:26:49</time>
      </trkpt>
      <trkpt lat="43.30469" lon="-2.0057">
        <ele>-11</ele>
        <time>2021-05-29 10:26:50</time>
      </trkpt>
      <trkpt lat="43.30472" lon="-2.00577">
        <ele>-11</ele>
        <time>2021-05-29 10:26:51</time>
      </trkpt>
      <trkpt lat="43.30473" lon="-2.00584">
        <ele>-11</ele>
        <time>2021-05-29 10:26:52</time>
      </trkpt>
      <trkpt lat="43.30475" lon="-2.0059">
        <ele>-11</ele>
        <time>2021-05-29 10:26:53</time>
      </trkpt>
      <trkpt lat="43.30476" lon="-2.00596">
        <ele>-11</ele>
        <time>2021-05-29 10:26:54</time>
      </trkpt>
      <trkpt lat="43.30479" lon="-2.006">
        <ele>-11</ele>
        <time>2021-05-29 10:26:55</time>
      </trkpt>
      <trkpt lat="43.30481" lon="-2.00603">
        <ele>-11</ele>
        <time>2021-05-29 10:26:56</time>
      </trkpt>
      <trkpt lat="43.30484" lon="-2.00606">
        <ele>-11</ele>
        <time>2021-05-29 10:26:57</time>
      </trkpt>
      <trkpt lat="43.30487" lon="-2.00608">
        <ele>-11</ele>
        <time>2021-05-29 10:26:58</time>
      </trkpt>
      <trkpt lat="43.3049" lon="-2.00611">
        <ele>-10.8</ele>
        <time>2021-05-29 10:26:59</time>
      </trkpt>
      <trkpt lat="43.30491" lon="-2.00613">
        <ele>-11</ele>
        <time>2021-05-29 10:27:00</time>
      </trkpt>
      <trkpt lat="43.30493" lon="-2.00615">
        <ele>-11</ele>
        <time>2021-05-29 10:27:01</time>
      </trkpt>
      <trkpt lat="43.30494" lon="-2.00617">
        <ele>-11</ele>
        <time>2021-05-29 10:27:02</time>
      </trkpt>
      <trkpt lat="43.30494" lon="-2.00618">
        <ele>-10.8</ele>
        <time>2021-05-29 10:27:03</time>
      </trkpt>
      <trkpt lat="43.30495" lon="-2.00619">
        <ele>-11</ele>
        <time>2021-05-29 10:27:04</time>
      </trkpt>
      <trkpt lat="43.30495" lon="-2.00622">
        <ele>-11</ele>
        <time>2021-05-29 10:27:05</time>
      </trkpt>
      <trkpt lat="43.30496" lon="-2.00622">
        <ele>-10.8</ele>
        <time>2021-05-29 10:27:06</time>
      </trkpt>
      <trkpt lat="43.30496" lon="-2.00623">
        <ele>-10.8</ele>
        <time>2021-05-29 10:27:07</time>
      </trkpt>
      <trkpt lat="43.30496" lon="-2.00623">
        <ele>-10.8</ele>
        <time>2021-05-29 10:27:08</time>
      </trkpt>
      <trkpt lat="43.30503" lon="-2.0063">
        <ele>-10.8</ele>
        <time>2021-05-29 10:27:31</time>
      </trkpt>
      <trkpt lat="43.30505" lon="-2.00632">
        <ele>-11</ele>
        <time>2021-05-29 10:27:32</time>
      </trkpt>
      <trkpt lat="43.30508" lon="-2.00635">
        <ele>-11</ele>
        <time>2021-05-29 10:27:33</time>
      </trkpt>
      <trkpt lat="43.30512" lon="-2.00638">
        <ele>-11</ele>
        <time>2021-05-29 10:27:34</time>
      </trkpt>
      <trkpt lat="43.30517" lon="-2.0064">
        <ele>-10.8</ele>
        <time>2021-05-29 10:27:35</time>
      </trkpt>
      <trkpt lat="43.30522" lon="-2.00643">
        <ele>-10.8</ele>
        <time>2021-05-29 10:27:36</time>
      </trkpt>
      <trkpt lat="43.30527" lon="-2.00647">
        <ele>-10.8</ele>
        <time>2021-05-29 10:27:37</time>
      </trkpt>
      <trkpt lat="43.30533" lon="-2.00651">
        <ele>-10.8</ele>
        <time>2021-05-29 10:27:38</time>
      </trkpt>
      <trkpt lat="43.30538" lon="-2.00654">
        <ele>-10.8</ele>
        <time>2021-05-29 10:27:39</time>
      </trkpt>
      <trkpt lat="43.30543" lon="-2.00658">
        <ele>-10.8</ele>
        <time>2021-05-29 10:27:40</time>
      </trkpt>
      <trkpt lat="43.30549" lon="-2.00663">
        <ele>-10.8</ele>
        <time>2021-05-29 10:27:41</time>
      </trkpt>
      <trkpt lat="43.30554" lon="-2.00669">
        <ele>-11</ele>
        <time>2021-05-29 10:27:42</time>
      </trkpt>
      <trkpt lat="43.3056" lon="-2.00675">
        <ele>-11</ele>
        <time>2021-05-29 10:27:43</time>
      </trkpt>
      <trkpt lat="43.30565" lon="-2.00681">
        <ele>-11</ele>
        <time>2021-05-29 10:27:44</time>
      </trkpt>
      <trkpt lat="43.30571" lon="-2.00687">
        <ele>-11</ele>
        <time>2021-05-29 10:27:45</time>
      </trkpt>
      <trkpt lat="43.30577" lon="-2.00692">
        <ele>-11</ele>
        <time>2021-05-29 10:27:46</time>
      </trkpt>
      <trkpt lat="43.30583" lon="-2.00699">
        <ele>-11</ele>
        <time>2021-05-29 10:27:47</time>
      </trkpt>
      <trkpt lat="43.3059" lon="-2.00705">
        <ele>-11.2</ele>
        <time>2021-05-29 10:27:48</time>
      </trkpt>
      <trkpt lat="43.30596" lon="-2.00712">
        <ele>-11</ele>
        <time>2021-05-29 10:27:49</time>
      </trkpt>
      <trkpt lat="43.30602" lon="-2.00718">
        <ele>-11</ele>
        <time>2021-05-29 10:27:50</time>
      </trkpt>
      <trkpt lat="43.30608" lon="-2.00724">
        <ele>-11</ele>
        <time>2021-05-29 10:27:51</time>
      </trkpt>
      <trkpt lat="43.30614" lon="-2.00731">
        <ele>-11</ele>
        <time>2021-05-29 10:27:52</time>
      </trkpt>
      <trkpt lat="43.30619" lon="-2.00737">
        <ele>-11</ele>
        <time>2021-05-29 10:27:53</time>
      </trkpt>
      <trkpt lat="43.30625" lon="-2.00744">
        <ele>-10.8</ele>
        <time>2021-05-29 10:27:54</time>
      </trkpt>
      <trkpt lat="43.30632" lon="-2.0075">
        <ele>-11</ele>
        <time>2021-05-29 10:27:55</time>
      </trkpt>
      <trkpt lat="43.30638" lon="-2.00757">
        <ele>-11</ele>
        <time>2021-05-29 10:27:56</time>
      </trkpt>
      <trkpt lat="43.30645" lon="-2.00763">
        <ele>-11</ele>
        <time>2021-05-29 10:27:57</time>
      </trkpt>
      <trkpt lat="43.30652" lon="-2.00769">
        <ele>-11</ele>
        <time>2021-05-29 10:27:58</time>
      </trkpt>
      <trkpt lat="43.30659" lon="-2.00776">
        <ele>-11.2</ele>
        <time>2021-05-29 10:27:59</time>
      </trkpt>
      <trkpt lat="43.30666" lon="-2.00783">
        <ele>-11.2</ele>
        <time>2021-05-29 10:28:00</time>
      </trkpt>
      <trkpt lat="43.30673" lon="-2.0079">
        <ele>-11</ele>
        <time>2021-05-29 10:28:01</time>
      </trkpt>
      <trkpt lat="43.30679" lon="-2.00798">
        <ele>-11</ele>
        <time>2021-05-29 10:28:02</time>
      </trkpt>
      <trkpt lat="43.30686" lon="-2.00805">
        <ele>-11</ele>
        <time>2021-05-29 10:28:03</time>
      </trkpt>
      <trkpt lat="43.30693" lon="-2.00811">
        <ele>-11</ele>
        <time>2021-05-29 10:28:04</time>
      </trkpt>
      <trkpt lat="43.307" lon="-2.00817">
        <ele>-11</ele>
        <time>2021-05-29 10:28:05</time>
      </trkpt>
      <trkpt lat="43.30707" lon="-2.00824">
        <ele>-11</ele>
        <time>2021-05-29 10:28:06</time>
      </trkpt>
      <trkpt lat="43.30714" lon="-2.0083">
        <ele>-11</ele>
        <time>2021-05-29 10:28:07</time>
      </trkpt>
      <trkpt lat="43.3072" lon="-2.00836">
        <ele>-11</ele>
        <time>2021-05-29 10:28:08</time>
      </trkpt>
      <trkpt lat="43.30726" lon="-2.00842">
        <ele>-11</ele>
        <time>2021-05-29 10:28:09</time>
      </trkpt>
      <trkpt lat="43.30731" lon="-2.00846">
        <ele>-11</ele>
        <time>2021-05-29 10:28:10</time>
      </trkpt>
      <trkpt lat="43.30735" lon="-2.00849">
        <ele>-11</ele>
        <time>2021-05-29 10:28:11</time>
      </trkpt>
      <trkpt lat="43.30737" lon="-2.00852">
        <ele>-11</ele>
        <time>2021-05-29 10:28:12</time>
      </trkpt>
      <trkpt lat="43.30739" lon="-2.00853">
        <ele>-11</ele>
        <time>2021-05-29 10:28:13</time>
      </trkpt>
      <trkpt lat="43.30739" lon="-2.00854">
        <ele>-11</ele>
        <time>2021-05-29 10:28:14</time>
      </trkpt>
      <trkpt lat="43.30739" lon="-2.00854">
        <ele>-11.2</ele>
        <time>2021-05-29 10:28:15</time>
      </trkpt>
      <trkpt lat="43.30741" lon="-2.00854">
        <ele>-11.2</ele>
        <time>2021-05-29 10:28:46</time>
      </trkpt>
      <trkpt lat="43.30743" lon="-2.00855">
        <ele>-11.2</ele>
        <time>2021-05-29 10:28:47</time>
      </trkpt>
      <trkpt lat="43.30745" lon="-2.00857">
        <ele>-11.2</ele>
        <time>2021-05-29 10:28:48</time>
      </trkpt>
      <trkpt lat="43.30748" lon="-2.0086">
        <ele>-11.2</ele>
        <time>2021-05-29 10:28:49</time>
      </trkpt>
      <trkpt lat="43.30751" lon="-2.00863">
        <ele>-11.2</ele>
        <time>2021-05-29 10:28:50</time>
      </trkpt>
      <trkpt lat="43.30754" lon="-2.00866">
        <ele>-11.2</ele>
        <time>2021-05-29 10:28:51</time>
      </trkpt>
      <trkpt lat="43.30759" lon="-2.0087">
        <ele>-11.2</ele>
        <time>2021-05-29 10:28:52</time>
      </trkpt>
      <trkpt lat="43.30764" lon="-2.00874">
        <ele>-11.2</ele>
        <time>2021-05-29 10:28:53</time>
      </trkpt>
      <trkpt lat="43.30769" lon="-2.00879">
        <ele>-11.2</ele>
        <time>2021-05-29 10:28:54</time>
      </trkpt>
      <trkpt lat="43.30775" lon="-2.00885">
        <ele>-11.2</ele>
        <time>2021-05-29 10:28:55</time>
      </trkpt>
      <trkpt lat="43.3078" lon="-2.00891">
        <ele>-11.2</ele>
        <time>2021-05-29 10:28:56</time>
      </trkpt>
      <trkpt lat="43.30786" lon="-2.00897">
        <ele>-11.2</ele>
        <time>2021-05-29 10:28:57</time>
      </trkpt>
      <trkpt lat="43.30792" lon="-2.00904">
        <ele>-11.2</ele>
        <time>2021-05-29 10:28:58</time>
      </trkpt>
      <trkpt lat="43.30798" lon="-2.0091">
        <ele>-11.4</ele>
        <time>2021-05-29 10:28:59</time>
      </trkpt>
      <trkpt lat="43.30804" lon="-2.00916">
        <ele>-11.4</ele>
        <time>2021-05-29 10:29:00</time>
      </trkpt>
      <trkpt lat="43.3081" lon="-2.00922">
        <ele>-11.4</ele>
        <time>2021-05-29 10:29:01</time>
      </trkpt>
      <trkpt lat="43.30816" lon="-2.00928">
        <ele>-11.2</ele>
        <time>2021-05-29 10:29:02</time>
      </trkpt>
      <trkpt lat="43.30821" lon="-2.00933">
        <ele>-11.2</ele>
        <time>2021-05-29 10:29:03</time>
      </trkpt>
      <trkpt lat="43.30827" lon="-2.00939">
        <ele>-11.2</ele>
        <time>2021-05-29 10:29:04</time>
      </trkpt>
      <trkpt lat="43.30833" lon="-2.00944">
        <ele>-11.2</ele>
        <time>2021-05-29 10:29:05</time>
      </trkpt>
      <trkpt lat="43.30838" lon="-2.00949">
        <ele>-11.2</ele>
        <time>2021-05-29 10:29:06</time>
      </trkpt>
      <trkpt lat="43.30844" lon="-2.00953">
        <ele>-11.2</ele>
        <time>2021-05-29 10:29:07</time>
      </trkpt>
      <trkpt lat="43.30849" lon="-2.00955">
        <ele>-11.4</ele>
        <time>2021-05-29 10:29:08</time>
      </trkpt>
      <trkpt lat="43.30853" lon="-2.00956">
        <ele>-11.4</ele>
        <time>2021-05-29 10:29:09</time>
      </trkpt>
      <trkpt lat="43.30856" lon="-2.00956">
        <ele>-11.4</ele>
        <time>2021-05-29 10:29:10</time>
      </trkpt>
      <trkpt lat="43.30857" lon="-2.00956">
        <ele>-11.2</ele>
        <time>2021-05-29 10:29:11</time>
      </trkpt>
      <trkpt lat="43.30859" lon="-2.00956">
        <ele>-11.2</ele>
        <time>2021-05-29 10:29:12</time>
      </trkpt>
      <trkpt lat="43.30861" lon="-2.00956">
        <ele>-11.2</ele>
        <time>2021-05-29 10:29:13</time>
      </trkpt>
      <trkpt lat="43.30865" lon="-2.00956">
        <ele>-11.4</ele>
        <time>2021-05-29 10:29:14</time>
      </trkpt>
      <trkpt lat="43.30869" lon="-2.00957">
        <ele>-11.4</ele>
        <time>2021-05-29 10:29:15</time>
      </trkpt>
      <trkpt lat="43.30873" lon="-2.00958">
        <ele>-11.4</ele>
        <time>2021-05-29 10:29:16</time>
      </trkpt>
      <trkpt lat="43.30878" lon="-2.0096">
        <ele>-11.4</ele>
        <time>2021-05-29 10:29:17</time>
      </trkpt>
      <trkpt lat="43.30883" lon="-2.00964">
        <ele>-11.4</ele>
        <time>2021-05-29 10:29:18</time>
      </trkpt>
      <trkpt lat="43.30888" lon="-2.00968">
        <ele>-11.2</ele>
        <time>2021-05-29 10:29:19</time>
      </trkpt>
      <trkpt lat="43.30893" lon="-2.00973">
        <ele>-11.2</ele>
        <time>2021-05-29 10:29:20</time>
      </trkpt>
      <trkpt lat="43.30897" lon="-2.0098">
        <ele>-11.2</ele>
        <time>2021-05-29 10:29:21</time>
      </trkpt>
      <trkpt lat="43.30901" lon="-2.00987">
        <ele>-11.4</ele>
        <time>2021-05-29 10:29:22</time>
      </trkpt>
      <trkpt lat="43.30906" lon="-2.00995">
        <ele>-11.4</ele>
        <time>2021-05-29 10:29:23</time>
      </trkpt>
      <trkpt lat="43.30912" lon="-2.01002">
        <ele>-11.4</ele>
        <time>2021-05-29 10:29:24</time>
      </trkpt>
      <trkpt lat="43.30919" lon="-2.01008">
        <ele>-11.4</ele>
        <time>2021-05-29 10:29:25</time>
      </trkpt>
      <trkpt lat="43.30926" lon="-2.01013">
        <ele>-11.2</ele>
        <time>2021-05-29 10:29:26</time>
      </trkpt>
      <trkpt lat="43.30934" lon="-2.01017">
        <ele>-11.2</ele>
        <time>2021-05-29 10:29:27</time>
      </trkpt>
      <trkpt lat="43.30942" lon="-2.0102">
        <ele>-11.2</ele>
        <time>2021-05-29 10:29:28</time>
      </trkpt>
      <trkpt lat="43.3095" lon="-2.01023">
        <ele>-11.2</ele>
        <time>2021-05-29 10:29:29</time>
      </trkpt>
      <trkpt lat="43.30958" lon="-2.01024">
        <ele>-11.2</ele>
        <time>2021-05-29 10:29:30</time>
      </trkpt>
      <trkpt lat="43.30966" lon="-2.01025">
        <ele>-11.2</ele>
        <time>2021-05-29 10:29:31</time>
      </trkpt>
      <trkpt lat="43.30974" lon="-2.01026">
        <ele>-11.2</ele>
        <time>2021-05-29 10:29:32</time>
      </trkpt>
      <trkpt lat="43.30982" lon="-2.01026">
        <ele>-11.2</ele>
        <time>2021-05-29 10:29:33</time>
      </trkpt>
      <trkpt lat="43.3099" lon="-2.01026">
        <ele>-11.2</ele>
        <time>2021-05-29 10:29:34</time>
      </trkpt>
      <trkpt lat="43.30997" lon="-2.01024">
        <ele>-11.2</ele>
        <time>2021-05-29 10:29:35</time>
      </trkpt>
      <trkpt lat="43.31005" lon="-2.01022">
        <ele>-11.2</ele>
        <time>2021-05-29 10:29:36</time>
      </trkpt>
      <trkpt lat="43.31013" lon="-2.01021">
        <ele>-11</ele>
        <time>2021-05-29 10:29:37</time>
      </trkpt>
      <trkpt lat="43.31021" lon="-2.01019">
        <ele>-11</ele>
        <time>2021-05-29 10:29:38</time>
      </trkpt>
      <trkpt lat="43.31028" lon="-2.01017">
        <ele>-11</ele>
        <time>2021-05-29 10:29:39</time>
      </trkpt>
      <trkpt lat="43.31034" lon="-2.01015">
        <ele>-11.2</ele>
        <time>2021-05-29 10:29:40</time>
      </trkpt>
      <trkpt lat="43.31041" lon="-2.01011">
        <ele>-11.2</ele>
        <time>2021-05-29 10:29:41</time>
      </trkpt>
      <trkpt lat="43.31049" lon="-2.01007">
        <ele>-11.2</ele>
        <time>2021-05-29 10:29:42</time>
      </trkpt>
      <trkpt lat="43.31056" lon="-2.01002">
        <ele>-11.2</ele>
        <time>2021-05-29 10:29:43</time>
      </trkpt>
      <trkpt lat="43.31063" lon="-2.00996">
        <ele>-11.2</ele>
        <time>2021-05-29 10:29:44</time>
      </trkpt>
      <trkpt lat="43.3107" lon="-2.0099">
        <ele>-11.2</ele>
        <time>2021-05-29 10:29:45</time>
      </trkpt>
      <trkpt lat="43.31077" lon="-2.00984">
        <ele>-11.2</ele>
        <time>2021-05-29 10:29:46</time>
      </trkpt>
      <trkpt lat="43.31084" lon="-2.00977">
        <ele>-11.2</ele>
        <time>2021-05-29 10:29:47</time>
      </trkpt>
      <trkpt lat="43.3109" lon="-2.0097">
        <ele>-11.2</ele>
        <time>2021-05-29 10:29:48</time>
      </trkpt>
      <trkpt lat="43.31097" lon="-2.00962">
        <ele>-11.2</ele>
        <time>2021-05-29 10:29:49</time>
      </trkpt>
      <trkpt lat="43.31103" lon="-2.00955">
        <ele>-11.2</ele>
        <time>2021-05-29 10:29:50</time>
      </trkpt>
      <trkpt lat="43.31109" lon="-2.00946">
        <ele>-11.4</ele>
        <time>2021-05-29 10:29:51</time>
      </trkpt>
      <trkpt lat="43.31114" lon="-2.00937">
        <ele>-11.4</ele>
        <time>2021-05-29 10:29:52</time>
      </trkpt>
      <trkpt lat="43.3112" lon="-2.00929">
        <ele>-11.4</ele>
        <time>2021-05-29 10:29:53</time>
      </trkpt>
      <trkpt lat="43.31125" lon="-2.00919">
        <ele>-11.4</ele>
        <time>2021-05-29 10:29:54</time>
      </trkpt>
      <trkpt lat="43.3113" lon="-2.0091">
        <ele>-11.4</ele>
        <time>2021-05-29 10:29:55</time>
      </trkpt>
      <trkpt lat="43.31135" lon="-2.00901">
        <ele>-11.4</ele>
        <time>2021-05-29 10:29:56</time>
      </trkpt>
      <trkpt lat="43.31139" lon="-2.00891">
        <ele>-11.6</ele>
        <time>2021-05-29 10:29:57</time>
      </trkpt>
      <trkpt lat="43.31143" lon="-2.00881">
        <ele>-11.6</ele>
        <time>2021-05-29 10:29:58</time>
      </trkpt>
      <trkpt lat="43.31146" lon="-2.00871">
        <ele>-11.6</ele>
        <time>2021-05-29 10:29:59</time>
      </trkpt>
      <trkpt lat="43.31151" lon="-2.00861">
        <ele>-11.6</ele>
        <time>2021-05-29 10:30:00</time>
      </trkpt>
      <trkpt lat="43.31156" lon="-2.00851">
        <ele>-11.8</ele>
        <time>2021-05-29 10:30:01</time>
      </trkpt>
      <trkpt lat="43.3116" lon="-2.00841">
        <ele>-11.8</ele>
        <time>2021-05-29 10:30:02</time>
      </trkpt>
      <trkpt lat="43.31165" lon="-2.0083">
        <ele>-11.8</ele>
        <time>2021-05-29 10:30:03</time>
      </trkpt>
      <trkpt lat="43.3117" lon="-2.0082">
        <ele>-11.8</ele>
        <time>2021-05-29 10:30:04</time>
      </trkpt>
      <trkpt lat="43.31176" lon="-2.00809">
        <ele>-11.8</ele>
        <time>2021-05-29 10:30:05</time>
      </trkpt>
      <trkpt lat="43.31181" lon="-2.00798">
        <ele>-11.8</ele>
        <time>2021-05-29 10:30:06</time>
      </trkpt>
      <trkpt lat="43.31186" lon="-2.00787">
        <ele>-11.8</ele>
        <time>2021-05-29 10:30:07</time>
      </trkpt>
      <trkpt lat="43.31191" lon="-2.00776">
        <ele>-11.8</ele>
        <time>2021-05-29 10:30:08</time>
      </trkpt>
      <trkpt lat="43.31197" lon="-2.00765">
        <ele>-11.8</ele>
        <time>2021-05-29 10:30:09</time>
      </trkpt>
      <trkpt lat="43.31202" lon="-2.00755">
        <ele>-11.8</ele>
        <time>2021-05-29 10:30:10</time>
      </trkpt>
      <trkpt lat="43.31208" lon="-2.00744">
        <ele>-12</ele>
        <time>2021-05-29 10:30:11</time>
      </trkpt>
      <trkpt lat="43.31213" lon="-2.00734">
        <ele>-12</ele>
        <time>2021-05-29 10:30:12</time>
      </trkpt>
      <trkpt lat="43.31219" lon="-2.00724">
        <ele>-11.8</ele>
        <time>2021-05-29 10:30:13</time>
      </trkpt>
      <trkpt lat="43.31225" lon="-2.00714">
        <ele>-11.8</ele>
        <time>2021-05-29 10:30:14</time>
      </trkpt>
      <trkpt lat="43.31229" lon="-2.00705">
        <ele>-11.8</ele>
        <time>2021-05-29 10:30:15</time>
      </trkpt>
      <trkpt lat="43.31234" lon="-2.00697">
        <ele>-11.8</ele>
        <time>2021-05-29 10:30:16</time>
      </trkpt>
      <trkpt lat="43.31238" lon="-2.00689">
        <ele>-11.8</ele>
        <time>2021-05-29 10:30:17</time>
      </trkpt>
      <trkpt lat="43.31242" lon="-2.00682">
        <ele>-11.8</ele>
        <time>2021-05-29 10:30:18</time>
      </trkpt>
      <trkpt lat="43.31246" lon="-2.00676">
        <ele>-11.8</ele>
        <time>2021-05-29 10:30:19</time>
      </trkpt>
      <trkpt lat="43.31249" lon="-2.0067">
        <ele>-11.8</ele>
        <time>2021-05-29 10:30:20</time>
      </trkpt>
      <trkpt lat="43.31252" lon="-2.00666">
        <ele>-12</ele>
        <time>2021-05-29 10:30:21</time>
      </trkpt>
      <trkpt lat="43.31254" lon="-2.00663">
        <ele>-11.8</ele>
        <time>2021-05-29 10:30:22</time>
      </trkpt>
      <trkpt lat="43.31255" lon="-2.00661">
        <ele>-11.8</ele>
        <time>2021-05-29 10:30:23</time>
      </trkpt>
      <trkpt lat="43.31257" lon="-2.00659">
        <ele>-11.8</ele>
        <time>2021-05-29 10:30:24</time>
      </trkpt>
      <trkpt lat="43.31258" lon="-2.00657">
        <ele>-11.8</ele>
        <time>2021-05-29 10:30:25</time>
      </trkpt>
      <trkpt lat="43.31259" lon="-2.00655">
        <ele>-11.8</ele>
        <time>2021-05-29 10:30:26</time>
      </trkpt>
      <trkpt lat="43.3126" lon="-2.00654">
        <ele>-11.6</ele>
        <time>2021-05-29 10:30:27</time>
      </trkpt>
      <trkpt lat="43.31261" lon="-2.00653">
        <ele>-11.4</ele>
        <time>2021-05-29 10:30:28</time>
      </trkpt>
      <trkpt lat="43.31262" lon="-2.00649">
        <ele>-11.8</ele>
        <time>2021-05-29 10:30:54</time>
      </trkpt>
      <trkpt lat="43.31263" lon="-2.00647">
        <ele>-11.8</ele>
        <time>2021-05-29 10:30:55</time>
      </trkpt>
      <trkpt lat="43.31265" lon="-2.00644">
        <ele>-11.6</ele>
        <time>2021-05-29 10:30:56</time>
      </trkpt>
      <trkpt lat="43.31266" lon="-2.00641">
        <ele>-11.6</ele>
        <time>2021-05-29 10:30:57</time>
      </trkpt>
      <trkpt lat="43.31268" lon="-2.00638">
        <ele>-11.6</ele>
        <time>2021-05-29 10:30:58</time>
      </trkpt>
      <trkpt lat="43.3127" lon="-2.00634">
        <ele>-11.6</ele>
        <time>2021-05-29 10:30:59</time>
      </trkpt>
      <trkpt lat="43.31272" lon="-2.00629">
        <ele>-11.6</ele>
        <time>2021-05-29 10:31:00</time>
      </trkpt>
      <trkpt lat="43.31275" lon="-2.00624">
        <ele>-11.8</ele>
        <time>2021-05-29 10:31:01</time>
      </trkpt>
      <trkpt lat="43.31278" lon="-2.00619">
        <ele>-11.8</ele>
        <time>2021-05-29 10:31:02</time>
      </trkpt>
      <trkpt lat="43.31281" lon="-2.00613">
        <ele>-11.8</ele>
        <time>2021-05-29 10:31:03</time>
      </trkpt>
      <trkpt lat="43.31284" lon="-2.00606">
        <ele>-11.8</ele>
        <time>2021-05-29 10:31:04</time>
      </trkpt>
      <trkpt lat="43.31287" lon="-2.00599">
        <ele>-11.8</ele>
        <time>2021-05-29 10:31:05</time>
      </trkpt>
      <trkpt lat="43.31291" lon="-2.00591">
        <ele>-11.8</ele>
        <time>2021-05-29 10:31:06</time>
      </trkpt>
      <trkpt lat="43.31295" lon="-2.00584">
        <ele>-11.8</ele>
        <time>2021-05-29 10:31:07</time>
      </trkpt>
      <trkpt lat="43.31298" lon="-2.00577">
        <ele>-11.8</ele>
        <time>2021-05-29 10:31:08</time>
      </trkpt>
      <trkpt lat="43.31301" lon="-2.00569">
        <ele>-11.8</ele>
        <time>2021-05-29 10:31:09</time>
      </trkpt>
      <trkpt lat="43.31304" lon="-2.00561">
        <ele>-11.8</ele>
        <time>2021-05-29 10:31:10</time>
      </trkpt>
      <trkpt lat="43.31307" lon="-2.00553">
        <ele>-11.8</ele>
        <time>2021-05-29 10:31:11</time>
      </trkpt>
      <trkpt lat="43.31311" lon="-2.00546">
        <ele>-11.8</ele>
        <time>2021-05-29 10:31:12</time>
      </trkpt>
      <trkpt lat="43.31315" lon="-2.00538">
        <ele>-11.8</ele>
        <time>2021-05-29 10:31:13</time>
      </trkpt>
      <trkpt lat="43.31319" lon="-2.0053">
        <ele>-11.8</ele>
        <time>2021-05-29 10:31:14</time>
      </trkpt>
      <trkpt lat="43.31322" lon="-2.00523">
        <ele>-11.6</ele>
        <time>2021-05-29 10:31:15</time>
      </trkpt>
      <trkpt lat="43.31326" lon="-2.00515">
        <ele>-11.6</ele>
        <time>2021-05-29 10:31:16</time>
      </trkpt>
      <trkpt lat="43.31329" lon="-2.00507">
        <ele>-11.6</ele>
        <time>2021-05-29 10:31:17</time>
      </trkpt>
      <trkpt lat="43.31333" lon="-2.00499">
        <ele>-11.6</ele>
        <time>2021-05-29 10:31:18</time>
      </trkpt>
      <trkpt lat="43.31337" lon="-2.00492">
        <ele>-11.4</ele>
        <time>2021-05-29 10:31:19</time>
      </trkpt>
      <trkpt lat="43.31341" lon="-2.00484">
        <ele>-11.2</ele>
        <time>2021-05-29 10:31:20</time>
      </trkpt>
      <trkpt lat="43.31345" lon="-2.00476">
        <ele>-11.2</ele>
        <time>2021-05-29 10:31:21</time>
      </trkpt>
      <trkpt lat="43.31349" lon="-2.00469">
        <ele>-11</ele>
        <time>2021-05-29 10:31:22</time>
      </trkpt>
      <trkpt lat="43.31353" lon="-2.00461">
        <ele>-11</ele>
        <time>2021-05-29 10:31:23</time>
      </trkpt>
      <trkpt lat="43.31358" lon="-2.00453">
        <ele>-11</ele>
        <time>2021-05-29 10:31:24</time>
      </trkpt>
      <trkpt lat="43.31362" lon="-2.00445">
        <ele>-11</ele>
        <time>2021-05-29 10:31:25</time>
      </trkpt>
      <trkpt lat="43.31365" lon="-2.00437">
        <ele>-11</ele>
        <time>2021-05-29 10:31:26</time>
      </trkpt>
      <trkpt lat="43.31369" lon="-2.0043">
        <ele>-10.8</ele>
        <time>2021-05-29 10:31:27</time>
      </trkpt>
      <trkpt lat="43.31373" lon="-2.00422">
        <ele>-10.8</ele>
        <time>2021-05-29 10:31:28</time>
      </trkpt>
      <trkpt lat="43.31377" lon="-2.00414">
        <ele>-10.8</ele>
        <time>2021-05-29 10:31:29</time>
      </trkpt>
      <trkpt lat="43.31381" lon="-2.00406">
        <ele>-10.6</ele>
        <time>2021-05-29 10:31:30</time>
      </trkpt>
      <trkpt lat="43.31385" lon="-2.00398">
        <ele>-10.6</ele>
        <time>2021-05-29 10:31:31</time>
      </trkpt>
      <trkpt lat="43.31389" lon="-2.00391">
        <ele>-10.6</ele>
        <time>2021-05-29 10:31:32</time>
      </trkpt>
      <trkpt lat="43.31392" lon="-2.00383">
        <ele>-10.4</ele>
        <time>2021-05-29 10:31:33</time>
      </trkpt>
      <trkpt lat="43.31396" lon="-2.00377">
        <ele>-10.6</ele>
        <time>2021-05-29 10:31:34</time>
      </trkpt>
      <trkpt lat="43.31399" lon="-2.00372">
        <ele>-10.4</ele>
        <time>2021-05-29 10:31:35</time>
      </trkpt>
      <trkpt lat="43.31401" lon="-2.00367">
        <ele>-10.4</ele>
        <time>2021-05-29 10:31:36</time>
      </trkpt>
      <trkpt lat="43.31402" lon="-2.00364">
        <ele>-10.4</ele>
        <time>2021-05-29 10:31:37</time>
      </trkpt>
      <trkpt lat="43.31404" lon="-2.00362">
        <ele>-10.4</ele>
        <time>2021-05-29 10:31:38</time>
      </trkpt>
      <trkpt lat="43.31404" lon="-2.00361">
        <ele>-10.2</ele>
        <time>2021-05-29 10:31:39</time>
      </trkpt>
      <trkpt lat="43.31404" lon="-2.0036">
        <ele>-10.2</ele>
        <time>2021-05-29 10:31:40</time>
      </trkpt>
      <trkpt lat="43.31406" lon="-2.00356">
        <ele>-10.4</ele>
        <time>2021-05-29 10:32:15</time>
      </trkpt>
      <trkpt lat="43.31407" lon="-2.00354">
        <ele>-10.4</ele>
        <time>2021-05-29 10:32:16</time>
      </trkpt>
      <trkpt lat="43.31408" lon="-2.00352">
        <ele>-10.4</ele>
        <time>2021-05-29 10:32:17</time>
      </trkpt>
      <trkpt lat="43.31409" lon="-2.0035">
        <ele>-10.4</ele>
        <time>2021-05-29 10:32:18</time>
      </trkpt>
      <trkpt lat="43.31411" lon="-2.00347">
        <ele>-10.6</ele>
        <time>2021-05-29 10:32:19</time>
      </trkpt>
      <trkpt lat="43.31412" lon="-2.00343">
        <ele>-10.6</ele>
        <time>2021-05-29 10:32:20</time>
      </trkpt>
      <trkpt lat="43.31414" lon="-2.00339">
        <ele>-10.4</ele>
        <time>2021-05-29 10:32:21</time>
      </trkpt>
      <trkpt lat="43.31416" lon="-2.00335">
        <ele>-10.4</ele>
        <time>2021-05-29 10:32:22</time>
      </trkpt>
      <trkpt lat="43.31419" lon="-2.0033">
        <ele>-10.4</ele>
        <time>2021-05-29 10:32:23</time>
      </trkpt>
      <trkpt lat="43.31421" lon="-2.00324">
        <ele>-10.4</ele>
        <time>2021-05-29 10:32:24</time>
      </trkpt>
      <trkpt lat="43.31423" lon="-2.00319">
        <ele>-10.4</ele>
        <time>2021-05-29 10:32:25</time>
      </trkpt>
      <trkpt lat="43.31426" lon="-2.00313">
        <ele>-10.4</ele>
        <time>2021-05-29 10:32:26</time>
      </trkpt>
      <trkpt lat="43.31429" lon="-2.00307">
        <ele>-10.4</ele>
        <time>2021-05-29 10:32:27</time>
      </trkpt>
      <trkpt lat="43.31432" lon="-2.00301">
        <ele>-10.4</ele>
        <time>2021-05-29 10:32:28</time>
      </trkpt>
      <trkpt lat="43.31435" lon="-2.00295">
        <ele>-10.4</ele>
        <time>2021-05-29 10:32:29</time>
      </trkpt>
      <trkpt lat="43.31438" lon="-2.00289">
        <ele>-10.6</ele>
        <time>2021-05-29 10:32:30</time>
      </trkpt>
      <trkpt lat="43.31441" lon="-2.00282">
        <ele>-10.4</ele>
        <time>2021-05-29 10:32:31</time>
      </trkpt>
      <trkpt lat="43.31444" lon="-2.00276">
        <ele>-10.2</ele>
        <time>2021-05-29 10:32:32</time>
      </trkpt>
      <trkpt lat="43.31447" lon="-2.00269">
        <ele>-10.2</ele>
        <time>2021-05-29 10:32:33</time>
      </trkpt>
      <trkpt lat="43.3145" lon="-2.00263">
        <ele>-10.2</ele>
        <time>2021-05-29 10:32:34</time>
      </trkpt>
      <trkpt lat="43.31452" lon="-2.00256">
        <ele>-10.2</ele>
        <time>2021-05-29 10:32:35</time>
      </trkpt>
      <trkpt lat="43.31455" lon="-2.00249">
        <ele>-10</ele>
        <time>2021-05-29 10:32:36</time>
      </trkpt>
      <trkpt lat="43.31459" lon="-2.00243">
        <ele>-10.2</ele>
        <time>2021-05-29 10:32:37</time>
      </trkpt>
      <trkpt lat="43.31462" lon="-2.00235">
        <ele>-10.2</ele>
        <time>2021-05-29 10:32:38</time>
      </trkpt>
      <trkpt lat="43.31465" lon="-2.00229">
        <ele>-10</ele>
        <time>2021-05-29 10:32:39</time>
      </trkpt>
      <trkpt lat="43.31469" lon="-2.00222">
        <ele>-10</ele>
        <time>2021-05-29 10:32:40</time>
      </trkpt>
      <trkpt lat="43.31472" lon="-2.00215">
        <ele>-10</ele>
        <time>2021-05-29 10:32:41</time>
      </trkpt>
      <trkpt lat="43.31476" lon="-2.00208">
        <ele>-10</ele>
        <time>2021-05-29 10:32:42</time>
      </trkpt>
      <trkpt lat="43.3148" lon="-2.002">
        <ele>-10.2</ele>
        <time>2021-05-29 10:32:43</time>
      </trkpt>
      <trkpt lat="43.31483" lon="-2.00193">
        <ele>-10.2</ele>
        <time>2021-05-29 10:32:44</time>
      </trkpt>
      <trkpt lat="43.31487" lon="-2.00185">
        <ele>-10.2</ele>
        <time>2021-05-29 10:32:45</time>
      </trkpt>
      <trkpt lat="43.31492" lon="-2.00178">
        <ele>-10.2</ele>
        <time>2021-05-29 10:32:46</time>
      </trkpt>
      <trkpt lat="43.31495" lon="-2.0017">
        <ele>-10.2</ele>
        <time>2021-05-29 10:32:47</time>
      </trkpt>
      <trkpt lat="43.31499" lon="-2.00162">
        <ele>-10.2</ele>
        <time>2021-05-29 10:32:48</time>
      </trkpt>
      <trkpt lat="43.31503" lon="-2.00155">
        <ele>-10.2</ele>
        <time>2021-05-29 10:32:49</time>
      </trkpt>
      <trkpt lat="43.31507" lon="-2.00147">
        <ele>-10.2</ele>
        <time>2021-05-29 10:32:50</time>
      </trkpt>
      <trkpt lat="43.3151" lon="-2.0014">
        <ele>-10.2</ele>
        <time>2021-05-29 10:32:51</time>
      </trkpt>
      <trkpt lat="43.31515" lon="-2.00132">
        <ele>-10.2</ele>
        <time>2021-05-29 10:32:52</time>
      </trkpt>
      <trkpt lat="43.31519" lon="-2.00125">
        <ele>-10.4</ele>
        <time>2021-05-29 10:32:53</time>
      </trkpt>
      <trkpt lat="43.31523" lon="-2.00118">
        <ele>-10.4</ele>
        <time>2021-05-29 10:32:54</time>
      </trkpt>
      <trkpt lat="43.31526" lon="-2.0011">
        <ele>-10.6</ele>
        <time>2021-05-29 10:32:55</time>
      </trkpt>
      <trkpt lat="43.31528" lon="-2.00102">
        <ele>-10.6</ele>
        <time>2021-05-29 10:32:56</time>
      </trkpt>
      <trkpt lat="43.31527" lon="-2.00093">
        <ele>-10.8</ele>
        <time>2021-05-29 10:32:57</time>
      </trkpt>
      <trkpt lat="43.31525" lon="-2.00084">
        <ele>-10.8</ele>
        <time>2021-05-29 10:32:58</time>
      </trkpt>
      <trkpt lat="43.31523" lon="-2.00075">
        <ele>-10.8</ele>
        <time>2021-05-29 10:32:59</time>
      </trkpt>
      <trkpt lat="43.31521" lon="-2.00066">
        <ele>-10.8</ele>
        <time>2021-05-29 10:33:00</time>
      </trkpt>
      <trkpt lat="43.31519" lon="-2.00057">
        <ele>-11</ele>
        <time>2021-05-29 10:33:01</time>
      </trkpt>
      <trkpt lat="43.31517" lon="-2.00049">
        <ele>-11</ele>
        <time>2021-05-29 10:33:02</time>
      </trkpt>
      <trkpt lat="43.31515" lon="-2.0004">
        <ele>-11</ele>
        <time>2021-05-29 10:33:03</time>
      </trkpt>
      <trkpt lat="43.31513" lon="-2.00031">
        <ele>-11</ele>
        <time>2021-05-29 10:33:04</time>
      </trkpt>
      <trkpt lat="43.31512" lon="-2.00022">
        <ele>-11</ele>
        <time>2021-05-29 10:33:05</time>
      </trkpt>
      <trkpt lat="43.31512" lon="-2.00012">
        <ele>-11</ele>
        <time>2021-05-29 10:33:06</time>
      </trkpt>
      <trkpt lat="43.31513" lon="-2.00004">
        <ele>-10.8</ele>
        <time>2021-05-29 10:33:07</time>
      </trkpt>
      <trkpt lat="43.31515" lon="-1.99997">
        <ele>-11</ele>
        <time>2021-05-29 10:33:08</time>
      </trkpt>
      <trkpt lat="43.31518" lon="-1.9999">
        <ele>-10.8</ele>
        <time>2021-05-29 10:33:09</time>
      </trkpt>
      <trkpt lat="43.31521" lon="-1.99984">
        <ele>-10.4</ele>
        <time>2021-05-29 10:33:10</time>
      </trkpt>
      <trkpt lat="43.31522" lon="-1.99978">
        <ele>-10.2</ele>
        <time>2021-05-29 10:33:11</time>
      </trkpt>
      <trkpt lat="43.31524" lon="-1.99973">
        <ele>-9.8</ele>
        <time>2021-05-29 10:33:12</time>
      </trkpt>
      <trkpt lat="43.31525" lon="-1.99969">
        <ele>-9.6</ele>
        <time>2021-05-29 10:33:13</time>
      </trkpt>
      <trkpt lat="43.31526" lon="-1.99965">
        <ele>-9.4</ele>
        <time>2021-05-29 10:33:14</time>
      </trkpt>
      <trkpt lat="43.31527" lon="-1.99962">
        <ele>-9.2</ele>
        <time>2021-05-29 10:33:15</time>
      </trkpt>
      <trkpt lat="43.31528" lon="-1.99961">
        <ele>-9</ele>
        <time>2021-05-29 10:33:16</time>
      </trkpt>
      <trkpt lat="43.31529" lon="-1.99959">
        <ele>-8.8</ele>
        <time>2021-05-29 10:33:17</time>
      </trkpt>
      <trkpt lat="43.3153" lon="-1.99958">
        <ele>-8.8</ele>
        <time>2021-05-29 10:33:18</time>
      </trkpt>
      <trkpt lat="43.31532" lon="-1.99956">
        <ele>-8.6</ele>
        <time>2021-05-29 10:33:19</time>
      </trkpt>
      <trkpt lat="43.31534" lon="-1.99955">
        <ele>-8.6</ele>
        <time>2021-05-29 10:33:20</time>
      </trkpt>
      <trkpt lat="43.31537" lon="-1.99953">
        <ele>-8.6</ele>
        <time>2021-05-29 10:33:21</time>
      </trkpt>
      <trkpt lat="43.3154" lon="-1.99952">
        <ele>-8.4</ele>
        <time>2021-05-29 10:33:22</time>
      </trkpt>
      <trkpt lat="43.31543" lon="-1.99951">
        <ele>-8.4</ele>
        <time>2021-05-29 10:33:23</time>
      </trkpt>
      <trkpt lat="43.31547" lon="-1.99952">
        <ele>-8.4</ele>
        <time>2021-05-29 10:33:24</time>
      </trkpt>
      <trkpt lat="43.3155" lon="-1.99953">
        <ele>-8.4</ele>
        <time>2021-05-29 10:33:25</time>
      </trkpt>
      <trkpt lat="43.31553" lon="-1.99955">
        <ele>-8.4</ele>
        <time>2021-05-29 10:33:26</time>
      </trkpt>
      <trkpt lat="43.31554" lon="-1.99958">
        <ele>-8.4</ele>
        <time>2021-05-29 10:33:27</time>
      </trkpt>
      <trkpt lat="43.31556" lon="-1.99962">
        <ele>-8.2</ele>
        <time>2021-05-29 10:33:28</time>
      </trkpt>
      <trkpt lat="43.31557" lon="-1.99967">
        <ele>-8.2</ele>
        <time>2021-05-29 10:33:29</time>
      </trkpt>
      <trkpt lat="43.31558" lon="-1.99972">
        <ele>-8.4</ele>
        <time>2021-05-29 10:33:30</time>
      </trkpt>
      <trkpt lat="43.31559" lon="-1.99978">
        <ele>-8.4</ele>
        <time>2021-05-29 10:33:31</time>
      </trkpt>
      <trkpt lat="43.3156" lon="-1.99984">
        <ele>-8.4</ele>
        <time>2021-05-29 10:33:32</time>
      </trkpt>
      <trkpt lat="43.31561" lon="-1.9999">
        <ele>-8.4</ele>
        <time>2021-05-29 10:33:33</time>
      </trkpt>
      <trkpt lat="43.31562" lon="-1.99996">
        <ele>-8.4</ele>
        <time>2021-05-29 10:33:34</time>
      </trkpt>
      <trkpt lat="43.31563" lon="-2.00001">
        <ele>-8.4</ele>
        <time>2021-05-29 10:33:35</time>
      </trkpt>
      <trkpt lat="43.31564" lon="-2.00005">
        <ele>-8.4</ele>
        <time>2021-05-29 10:33:36</time>
      </trkpt>
      <trkpt lat="43.31565" lon="-2.00008">
        <ele>-8.4</ele>
        <time>2021-05-29 10:33:37</time>
      </trkpt>
      <trkpt lat="43.31565" lon="-2.0001">
        <ele>-8.4</ele>
        <time>2021-05-29 10:33:38</time>
      </trkpt>
      <trkpt lat="43.31566" lon="-2.00012">
        <ele>-8.4</ele>
        <time>2021-05-29 10:33:39</time>
      </trkpt>
      <trkpt lat="43.31566" lon="-2.00013">
        <ele>-8.8</ele>
        <time>2021-05-29 10:33:40</time>
      </trkpt>
      <trkpt lat="43.31566" lon="-2.00015">
        <ele>-9</ele>
        <time>2021-05-29 10:33:41</time>
      </trkpt>
      <trkpt lat="43.31566" lon="-2.00017">
        <ele>-9.2</ele>
        <time>2021-05-29 10:33:42</time>
      </trkpt>
      <trkpt lat="43.31566" lon="-2.00021">
        <ele>-9.4</ele>
        <time>2021-05-29 10:33:43</time>
      </trkpt>
      <trkpt lat="43.31566" lon="-2.00024">
        <ele>-9.6</ele>
        <time>2021-05-29 10:33:44</time>
      </trkpt>
      <trkpt lat="43.31565" lon="-2.00028">
        <ele>-10</ele>
        <time>2021-05-29 10:33:45</time>
      </trkpt>
      <trkpt lat="43.31565" lon="-2.00033">
        <ele>-10</ele>
        <time>2021-05-29 10:33:46</time>
      </trkpt>
      <trkpt lat="43.31565" lon="-2.00038">
        <ele>-10</ele>
        <time>2021-05-29 10:33:47</time>
      </trkpt>
      <trkpt lat="43.31563" lon="-2.00045">
        <ele>-10.2</ele>
        <time>2021-05-29 10:33:48</time>
      </trkpt>
      <trkpt lat="43.31562" lon="-2.00051">
        <ele>-10.4</ele>
        <time>2021-05-29 10:33:49</time>
      </trkpt>
      <trkpt lat="43.31561" lon="-2.00059">
        <ele>-10.6</ele>
        <time>2021-05-29 10:33:50</time>
      </trkpt>
      <trkpt lat="43.31559" lon="-2.00066">
        <ele>-10.6</ele>
        <time>2021-05-29 10:33:51</time>
      </trkpt>
      <trkpt lat="43.31557" lon="-2.00073">
        <ele>-10.6</ele>
        <time>2021-05-29 10:33:52</time>
      </trkpt>
      <trkpt lat="43.31555" lon="-2.00081">
        <ele>-10.6</ele>
        <time>2021-05-29 10:33:53</time>
      </trkpt>
      <trkpt lat="43.31553" lon="-2.00089">
        <ele>-10.8</ele>
        <time>2021-05-29 10:33:54</time>
      </trkpt>
      <trkpt lat="43.3155" lon="-2.00098">
        <ele>-11</ele>
        <time>2021-05-29 10:33:55</time>
      </trkpt>
      <trkpt lat="43.31549" lon="-2.00106">
        <ele>-11</ele>
        <time>2021-05-29 10:33:56</time>
      </trkpt>
      <trkpt lat="43.31549" lon="-2.00114">
        <ele>-11.2</ele>
        <time>2021-05-29 10:33:57</time>
      </trkpt>
      <trkpt lat="43.3155" lon="-2.00121">
        <ele>-11.2</ele>
        <time>2021-05-29 10:33:58</time>
      </trkpt>
      <trkpt lat="43.31552" lon="-2.00125">
        <ele>-11.4</ele>
        <time>2021-05-29 10:33:59</time>
      </trkpt>
      <trkpt lat="43.31554" lon="-2.00126">
        <ele>-11.6</ele>
        <time>2021-05-29 10:34:00</time>
      </trkpt>
      <trkpt lat="43.31556" lon="-2.00124">
        <ele>-12</ele>
        <time>2021-05-29 10:34:01</time>
      </trkpt>
      <trkpt lat="43.31557" lon="-2.00122">
        <ele>-12</ele>
        <time>2021-05-29 10:34:02</time>
      </trkpt>
      <trkpt lat="43.31557" lon="-2.00119">
        <ele>-12.2</ele>
        <time>2021-05-29 10:34:03</time>
      </trkpt>
      <trkpt lat="43.31556" lon="-2.00116">
        <ele>-12.2</ele>
        <time>2021-05-29 10:34:04</time>
      </trkpt>
      <trkpt lat="43.31555" lon="-2.00112">
        <ele>-12.2</ele>
        <time>2021-05-29 10:34:05</time>
      </trkpt>
      <trkpt lat="43.31555" lon="-2.00108">
        <ele>-12.4</ele>
        <time>2021-05-29 10:34:06</time>
      </trkpt>
      <trkpt lat="43.31555" lon="-2.00102">
        <ele>-12.4</ele>
        <time>2021-05-29 10:34:07</time>
      </trkpt>
      <trkpt lat="43.31557" lon="-2.00097">
        <ele>-12.4</ele>
        <time>2021-05-29 10:34:08</time>
      </trkpt>
      <trkpt lat="43.31559" lon="-2.00091">
        <ele>-12.4</ele>
        <time>2021-05-29 10:34:09</time>
      </trkpt>
      <trkpt lat="43.3156" lon="-2.00085">
        <ele>-12.4</ele>
        <time>2021-05-29 10:34:10</time>
      </trkpt>
      <trkpt lat="43.31562" lon="-2.00079">
        <ele>-12.4</ele>
        <time>2021-05-29 10:34:11</time>
      </trkpt>
      <trkpt lat="43.31563" lon="-2.00073">
        <ele>-12.4</ele>
        <time>2021-05-29 10:34:12</time>
      </trkpt>
      <trkpt lat="43.31563" lon="-2.00068">
        <ele>-12.4</ele>
        <time>2021-05-29 10:34:13</time>
      </trkpt>
      <trkpt lat="43.31564" lon="-2.00063">
        <ele>-12.4</ele>
        <time>2021-05-29 10:34:14</time>
      </trkpt>
      <trkpt lat="43.31564" lon="-2.00059">
        <ele>-12.4</ele>
        <time>2021-05-29 10:34:15</time>
      </trkpt>
      <trkpt lat="43.31564" lon="-2.00055">
        <ele>-12.4</ele>
        <time>2021-05-29 10:34:16</time>
      </trkpt>
      <trkpt lat="43.31563" lon="-2.00051">
        <ele>-12.4</ele>
        <time>2021-05-29 10:34:17</time>
      </trkpt>
      <trkpt lat="43.31563" lon="-2.00048">
        <ele>-12.4</ele>
        <time>2021-05-29 10:34:18</time>
      </trkpt>
      <trkpt lat="43.31563" lon="-2.00044">
        <ele>-12.2</ele>
        <time>2021-05-29 10:34:19</time>
      </trkpt>
      <trkpt lat="43.31563" lon="-2.00041">
        <ele>-12.2</ele>
        <time>2021-05-29 10:34:20</time>
      </trkpt>
      <trkpt lat="43.31562" lon="-2.00038">
        <ele>-12</ele>
        <time>2021-05-29 10:34:21</time>
      </trkpt>
      <trkpt lat="43.31562" lon="-2.00036">
        <ele>-11.8</ele>
        <time>2021-05-29 10:34:22</time>
      </trkpt>
      <trkpt lat="43.31563" lon="-2.00035">
        <ele>-11.6</ele>
        <time>2021-05-29 10:34:23</time>
      </trkpt>
      <trkpt lat="43.31563" lon="-2.00033">
        <ele>-11.4</ele>
        <time>2021-05-29 10:34:24</time>
      </trkpt>
      <trkpt lat="43.31564" lon="-2.00032">
        <ele>-11.4</ele>
        <time>2021-05-29 10:34:25</time>
      </trkpt>
      <trkpt lat="43.31571" lon="-2.00037">
        <ele>-11.4</ele>
        <time>2021-05-29 10:39:26</time>
      </trkpt>
      <trkpt lat="43.3157" lon="-2.00038">
        <ele>-11.4</ele>
        <time>2021-05-29 10:39:27</time>
      </trkpt>
      <trkpt lat="43.31568" lon="-2.00041">
        <ele>-11.4</ele>
        <time>2021-05-29 10:39:28</time>
      </trkpt>
      <trkpt lat="43.31567" lon="-2.00043">
        <ele>-11.6</ele>
        <time>2021-05-29 10:39:29</time>
      </trkpt>
      <trkpt lat="43.31566" lon="-2.00047">
        <ele>-11.6</ele>
        <time>2021-05-29 10:39:30</time>
      </trkpt>
      <trkpt lat="43.31566" lon="-2.00052">
        <ele>-11.6</ele>
        <time>2021-05-29 10:39:31</time>
      </trkpt>
      <trkpt lat="43.31565" lon="-2.00057">
        <ele>-11.6</ele>
        <time>2021-05-29 10:39:32</time>
      </trkpt>
      <trkpt lat="43.31564" lon="-2.00063">
        <ele>-11.6</ele>
        <time>2021-05-29 10:39:33</time>
      </trkpt>
      <trkpt lat="43.31563" lon="-2.00069">
        <ele>-11.6</ele>
        <time>2021-05-29 10:39:34</time>
      </trkpt>
      <trkpt lat="43.31561" lon="-2.00075">
        <ele>-11.6</ele>
        <time>2021-05-29 10:39:35</time>
      </trkpt>
      <trkpt lat="43.3156" lon="-2.00081">
        <ele>-11.6</ele>
        <time>2021-05-29 10:39:36</time>
      </trkpt>
      <trkpt lat="43.31558" lon="-2.00087">
        <ele>-11.6</ele>
        <time>2021-05-29 10:39:37</time>
      </trkpt>
      <trkpt lat="43.31555" lon="-2.00093">
        <ele>-11.6</ele>
        <time>2021-05-29 10:39:38</time>
      </trkpt>
      <trkpt lat="43.31553" lon="-2.001">
        <ele>-11.6</ele>
        <time>2021-05-29 10:39:39</time>
      </trkpt>
      <trkpt lat="43.31552" lon="-2.00108">
        <ele>-11.6</ele>
        <time>2021-05-29 10:39:40</time>
      </trkpt>
      <trkpt lat="43.31552" lon="-2.00116">
        <ele>-12</ele>
        <time>2021-05-29 10:39:41</time>
      </trkpt>
      <trkpt lat="43.31553" lon="-2.00124">
        <ele>-12.2</ele>
        <time>2021-05-29 10:39:42</time>
      </trkpt>
      <trkpt lat="43.31554" lon="-2.00132">
        <ele>-12.2</ele>
        <time>2021-05-29 10:39:43</time>
      </trkpt>
      <trkpt lat="43.31556" lon="-2.0014">
        <ele>-12.2</ele>
        <time>2021-05-29 10:39:44</time>
      </trkpt>
      <trkpt lat="43.31558" lon="-2.00147">
        <ele>-12.4</ele>
        <time>2021-05-29 10:39:45</time>
      </trkpt>
      <trkpt lat="43.31561" lon="-2.00155">
        <ele>-12.4</ele>
        <time>2021-05-29 10:39:46</time>
      </trkpt>
      <trkpt lat="43.31565" lon="-2.00163">
        <ele>-12.4</ele>
        <time>2021-05-29 10:39:47</time>
      </trkpt>
      <trkpt lat="43.31567" lon="-2.00171">
        <ele>-12.4</ele>
        <time>2021-05-29 10:39:48</time>
      </trkpt>
      <trkpt lat="43.31569" lon="-2.0018">
        <ele>-12.8</ele>
        <time>2021-05-29 10:39:49</time>
      </trkpt>
      <trkpt lat="43.31571" lon="-2.00188">
        <ele>-12.8</ele>
        <time>2021-05-29 10:39:50</time>
      </trkpt>
      <trkpt lat="43.31574" lon="-2.00197">
        <ele>-12.8</ele>
        <time>2021-05-29 10:39:51</time>
      </trkpt>
      <trkpt lat="43.31577" lon="-2.00206">
        <ele>-12.8</ele>
        <time>2021-05-29 10:39:52</time>
      </trkpt>
      <trkpt lat="43.31579" lon="-2.00215">
        <ele>-12.8</ele>
        <time>2021-05-29 10:39:53</time>
      </trkpt>
      <trkpt lat="43.31582" lon="-2.00224">
        <ele>-12.8</ele>
        <time>2021-05-29 10:39:54</time>
      </trkpt>
      <trkpt lat="43.31585" lon="-2.00232">
        <ele>-12.8</ele>
        <time>2021-05-29 10:39:55</time>
      </trkpt>
      <trkpt lat="43.31588" lon="-2.00241">
        <ele>-12.8</ele>
        <time>2021-05-29 10:39:56</time>
      </trkpt>
      <trkpt lat="43.3159" lon="-2.0025">
        <ele>-12.8</ele>
        <time>2021-05-29 10:39:57</time>
      </trkpt>
      <trkpt lat="43.31593" lon="-2.00258">
        <ele>-12.8</ele>
        <time>2021-05-29 10:39:58</time>
      </trkpt>
      <trkpt lat="43.31596" lon="-2.00267">
        <ele>-12.8</ele>
        <time>2021-05-29 10:39:59</time>
      </trkpt>
      <trkpt lat="43.31599" lon="-2.00276">
        <ele>-12.8</ele>
        <time>2021-05-29 10:40:00</time>
      </trkpt>
      <trkpt lat="43.31601" lon="-2.00285">
        <ele>-12.8</ele>
        <time>2021-05-29 10:40:01</time>
      </trkpt>
      <trkpt lat="43.31604" lon="-2.00293">
        <ele>-12.8</ele>
        <time>2021-05-29 10:40:02</time>
      </trkpt>
      <trkpt lat="43.31607" lon="-2.00302">
        <ele>-12.8</ele>
        <time>2021-05-29 10:40:03</time>
      </trkpt>
      <trkpt lat="43.31609" lon="-2.00311">
        <ele>-12.8</ele>
        <time>2021-05-29 10:40:04</time>
      </trkpt>
      <trkpt lat="43.31613" lon="-2.0032">
        <ele>-13</ele>
        <time>2021-05-29 10:40:05</time>
      </trkpt>
      <trkpt lat="43.31615" lon="-2.00328">
        <ele>-13</ele>
        <time>2021-05-29 10:40:06</time>
      </trkpt>
      <trkpt lat="43.31618" lon="-2.00337">
        <ele>-13</ele>
        <time>2021-05-29 10:40:07</time>
      </trkpt>
      <trkpt lat="43.31621" lon="-2.00345">
        <ele>-12.8</ele>
        <time>2021-05-29 10:40:08</time>
      </trkpt>
      <trkpt lat="43.31624" lon="-2.00354">
        <ele>-12.8</ele>
        <time>2021-05-29 10:40:09</time>
      </trkpt>
      <trkpt lat="43.31627" lon="-2.00363">
        <ele>-12.8</ele>
        <time>2021-05-29 10:40:10</time>
      </trkpt>
      <trkpt lat="43.31629" lon="-2.00372">
        <ele>-12.8</ele>
        <time>2021-05-29 10:40:11</time>
      </trkpt>
      <trkpt lat="43.31632" lon="-2.00381">
        <ele>-12.8</ele>
        <time>2021-05-29 10:40:12</time>
      </trkpt>
      <trkpt lat="43.31634" lon="-2.00389">
        <ele>-12.8</ele>
        <time>2021-05-29 10:40:13</time>
      </trkpt>
      <trkpt lat="43.31637" lon="-2.00398">
        <ele>-12.8</ele>
        <time>2021-05-29 10:40:14</time>
      </trkpt>
      <trkpt lat="43.31639" lon="-2.00406">
        <ele>-12.8</ele>
        <time>2021-05-29 10:40:15</time>
      </trkpt>
      <trkpt lat="43.31642" lon="-2.00413">
        <ele>-12.8</ele>
        <time>2021-05-29 10:40:16</time>
      </trkpt>
      <trkpt lat="43.31644" lon="-2.00421">
        <ele>-12.8</ele>
        <time>2021-05-29 10:40:17</time>
      </trkpt>
      <trkpt lat="43.31646" lon="-2.00428">
        <ele>-13</ele>
        <time>2021-05-29 10:40:18</time>
      </trkpt>
      <trkpt lat="43.31649" lon="-2.00434">
        <ele>-13</ele>
        <time>2021-05-29 10:40:19</time>
      </trkpt>
      <trkpt lat="43.31651" lon="-2.00441">
        <ele>-13</ele>
        <time>2021-05-29 10:40:20</time>
      </trkpt>
      <trkpt lat="43.31652" lon="-2.00446">
        <ele>-12.8</ele>
        <time>2021-05-29 10:40:21</time>
      </trkpt>
      <trkpt lat="43.31652" lon="-2.00449">
        <ele>-12.8</ele>
        <time>2021-05-29 10:40:22</time>
      </trkpt>
      <trkpt lat="43.31651" lon="-2.00452">
        <ele>-12.8</ele>
        <time>2021-05-29 10:40:23</time>
      </trkpt>
      <trkpt lat="43.3165" lon="-2.00454">
        <ele>-12.8</ele>
        <time>2021-05-29 10:40:24</time>
      </trkpt>
      <trkpt lat="43.31649" lon="-2.00455">
        <ele>-12.6</ele>
        <time>2021-05-29 10:40:25</time>
      </trkpt>
      <trkpt lat="43.31648" lon="-2.00456">
        <ele>-12.6</ele>
        <time>2021-05-29 10:40:26</time>
      </trkpt>
      <trkpt lat="43.31648" lon="-2.00456">
        <ele>-12.6</ele>
        <time>2021-05-29 10:40:27</time>
      </trkpt>
      <trkpt lat="43.31651" lon="-2.00461">
        <ele>-14</ele>
        <time>2021-05-29 11:08:52</time>
      </trkpt>
      <trkpt lat="43.31652" lon="-2.00462">
        <ele>-14</ele>
        <time>2021-05-29 11:08:53</time>
      </trkpt>
      <trkpt lat="43.31654" lon="-2.00465">
        <ele>-14</ele>
        <time>2021-05-29 11:08:54</time>
      </trkpt>
      <trkpt lat="43.31655" lon="-2.00467">
        <ele>-14</ele>
        <time>2021-05-29 11:08:55</time>
      </trkpt>
      <trkpt lat="43.31657" lon="-2.00471">
        <ele>-14</ele>
        <time>2021-05-29 11:08:56</time>
      </trkpt>
      <trkpt lat="43.31658" lon="-2.00475">
        <ele>-14</ele>
        <time>2021-05-29 11:08:57</time>
      </trkpt>
      <trkpt lat="43.3166" lon="-2.0048">
        <ele>-14</ele>
        <time>2021-05-29 11:08:58</time>
      </trkpt>
      <trkpt lat="43.31662" lon="-2.00486">
        <ele>-14</ele>
        <time>2021-05-29 11:08:59</time>
      </trkpt>
      <trkpt lat="43.31663" lon="-2.00492">
        <ele>-14</ele>
        <time>2021-05-29 11:09:00</time>
      </trkpt>
      <trkpt lat="43.31665" lon="-2.00498">
        <ele>-14</ele>
        <time>2021-05-29 11:09:01</time>
      </trkpt>
      <trkpt lat="43.31667" lon="-2.00504">
        <ele>-14</ele>
        <time>2021-05-29 11:09:02</time>
      </trkpt>
      <trkpt lat="43.31669" lon="-2.0051">
        <ele>-14</ele>
        <time>2021-05-29 11:09:03</time>
      </trkpt>
      <trkpt lat="43.31671" lon="-2.00517">
        <ele>-14</ele>
        <time>2021-05-29 11:09:04</time>
      </trkpt>
      <trkpt lat="43.31672" lon="-2.00524">
        <ele>-14.2</ele>
        <time>2021-05-29 11:09:05</time>
      </trkpt>
      <trkpt lat="43.31674" lon="-2.00531">
        <ele>-14.2</ele>
        <time>2021-05-29 11:09:06</time>
      </trkpt>
      <trkpt lat="43.31676" lon="-2.00539">
        <ele>-14.2</ele>
        <time>2021-05-29 11:09:07</time>
      </trkpt>
      <trkpt lat="43.31676" lon="-2.00546">
        <ele>-14.2</ele>
        <time>2021-05-29 11:09:08</time>
      </trkpt>
      <trkpt lat="43.31676" lon="-2.00553">
        <ele>-14.2</ele>
        <time>2021-05-29 11:09:09</time>
      </trkpt>
      <trkpt lat="43.31673" lon="-2.00561">
        <ele>-14.2</ele>
        <time>2021-05-29 11:09:10</time>
      </trkpt>
      <trkpt lat="43.31669" lon="-2.00569">
        <ele>-14.2</ele>
        <time>2021-05-29 11:09:11</time>
      </trkpt>
      <trkpt lat="43.31664" lon="-2.00575">
        <ele>-14.2</ele>
        <time>2021-05-29 11:09:12</time>
      </trkpt>
      <trkpt lat="43.31658" lon="-2.0058">
        <ele>-14.2</ele>
        <time>2021-05-29 11:09:13</time>
      </trkpt>
      <trkpt lat="43.31651" lon="-2.00583">
        <ele>-14.2</ele>
        <time>2021-05-29 11:09:14</time>
      </trkpt>
      <trkpt lat="43.31644" lon="-2.00586">
        <ele>-14.2</ele>
        <time>2021-05-29 11:09:15</time>
      </trkpt>
      <trkpt lat="43.31638" lon="-2.00589">
        <ele>-14.2</ele>
        <time>2021-05-29 11:09:16</time>
      </trkpt>
      <trkpt lat="43.31631" lon="-2.00592">
        <ele>-14.4</ele>
        <time>2021-05-29 11:09:17</time>
      </trkpt>
      <trkpt lat="43.31625" lon="-2.00595">
        <ele>-14.4</ele>
        <time>2021-05-29 11:09:18</time>
      </trkpt>
      <trkpt lat="43.31618" lon="-2.00598">
        <ele>-14.4</ele>
        <time>2021-05-29 11:09:19</time>
      </trkpt>
      <trkpt lat="43.31612" lon="-2.00602">
        <ele>-14.4</ele>
        <time>2021-05-29 11:09:20</time>
      </trkpt>
      <trkpt lat="43.31606" lon="-2.00605">
        <ele>-14.4</ele>
        <time>2021-05-29 11:09:21</time>
      </trkpt>
      <trkpt lat="43.31599" lon="-2.00608">
        <ele>-14.4</ele>
        <time>2021-05-29 11:09:22</time>
      </trkpt>
      <trkpt lat="43.31593" lon="-2.00612">
        <ele>-14.4</ele>
        <time>2021-05-29 11:09:23</time>
      </trkpt>
      <trkpt lat="43.31587" lon="-2.00617">
        <ele>-14.4</ele>
        <time>2021-05-29 11:09:24</time>
      </trkpt>
      <trkpt lat="43.31581" lon="-2.00622">
        <ele>-14.2</ele>
        <time>2021-05-29 11:09:25</time>
      </trkpt>
      <trkpt lat="43.31576" lon="-2.00627">
        <ele>-14.2</ele>
        <time>2021-05-29 11:09:26</time>
      </trkpt>
      <trkpt lat="43.3157" lon="-2.00632">
        <ele>-14.2</ele>
        <time>2021-05-29 11:09:27</time>
      </trkpt>
      <trkpt lat="43.31566" lon="-2.00637">
        <ele>-14.2</ele>
        <time>2021-05-29 11:09:28</time>
      </trkpt>
      <trkpt lat="43.31561" lon="-2.00643">
        <ele>-14</ele>
        <time>2021-05-29 11:09:29</time>
      </trkpt>
      <trkpt lat="43.31557" lon="-2.00649">
        <ele>-13.8</ele>
        <time>2021-05-29 11:09:30</time>
      </trkpt>
      <trkpt lat="43.31553" lon="-2.00654">
        <ele>-13.8</ele>
        <time>2021-05-29 11:09:31</time>
      </trkpt>
      <trkpt lat="43.31549" lon="-2.00661">
        <ele>-13.6</ele>
        <time>2021-05-29 11:09:32</time>
      </trkpt>
      <trkpt lat="43.31546" lon="-2.00668">
        <ele>-13.4</ele>
        <time>2021-05-29 11:09:33</time>
      </trkpt>
      <trkpt lat="43.31542" lon="-2.00675">
        <ele>-13.2</ele>
        <time>2021-05-29 11:09:34</time>
      </trkpt>
      <trkpt lat="43.31539" lon="-2.00683">
        <ele>-13</ele>
        <time>2021-05-29 11:09:35</time>
      </trkpt>
      <trkpt lat="43.31536" lon="-2.00689">
        <ele>-12.4</ele>
        <time>2021-05-29 11:09:36</time>
      </trkpt>
      <trkpt lat="43.31533" lon="-2.00696">
        <ele>-12</ele>
        <time>2021-05-29 11:09:37</time>
      </trkpt>
      <trkpt lat="43.31531" lon="-2.00702">
        <ele>-11.6</ele>
        <time>2021-05-29 11:09:38</time>
      </trkpt>
      <trkpt lat="43.31528" lon="-2.00707">
        <ele>-11</ele>
        <time>2021-05-29 11:09:39</time>
      </trkpt>
      <trkpt lat="43.31526" lon="-2.00711">
        <ele>-10.4</ele>
        <time>2021-05-29 11:09:40</time>
      </trkpt>
      <trkpt lat="43.31523" lon="-2.00714">
        <ele>-10</ele>
        <time>2021-05-29 11:09:41</time>
      </trkpt>
      <trkpt lat="43.3152" lon="-2.00719">
        <ele>-9.6</ele>
        <time>2021-05-29 11:09:42</time>
      </trkpt>
      <trkpt lat="43.31518" lon="-2.00724">
        <ele>-9</ele>
        <time>2021-05-29 11:09:43</time>
      </trkpt>
      <trkpt lat="43.31515" lon="-2.00728">
        <ele>-8.6</ele>
        <time>2021-05-29 11:09:44</time>
      </trkpt>
      <trkpt lat="43.31512" lon="-2.00732">
        <ele>-8.2</ele>
        <time>2021-05-29 11:09:45</time>
      </trkpt>
      <trkpt lat="43.31509" lon="-2.00735">
        <ele>-7.8</ele>
        <time>2021-05-29 11:09:46</time>
      </trkpt>
      <trkpt lat="43.31507" lon="-2.00739">
        <ele>-7.2</ele>
        <time>2021-05-29 11:09:47</time>
      </trkpt>
      <trkpt lat="43.31504" lon="-2.00743">
        <ele>-7</ele>
        <time>2021-05-29 11:09:48</time>
      </trkpt>
      <trkpt lat="43.31501" lon="-2.00747">
        <ele>-6.6</ele>
        <time>2021-05-29 11:09:49</time>
      </trkpt>
      <trkpt lat="43.31498" lon="-2.0075">
        <ele>-6.2</ele>
        <time>2021-05-29 11:09:50</time>
      </trkpt>
      <trkpt lat="43.31494" lon="-2.00753">
        <ele>-5.8</ele>
        <time>2021-05-29 11:09:51</time>
      </trkpt>
      <trkpt lat="43.31491" lon="-2.00756">
        <ele>-5.4</ele>
        <time>2021-05-29 11:09:52</time>
      </trkpt>
      <trkpt lat="43.31487" lon="-2.0076">
        <ele>-5</ele>
        <time>2021-05-29 11:09:53</time>
      </trkpt>
      <trkpt lat="43.31483" lon="-2.00762">
        <ele>-4.6</ele>
        <time>2021-05-29 11:09:54</time>
      </trkpt>
      <trkpt lat="43.3148" lon="-2.00766">
        <ele>-4.2</ele>
        <time>2021-05-29 11:09:55</time>
      </trkpt>
      <trkpt lat="43.31476" lon="-2.00769">
        <ele>-3.8</ele>
        <time>2021-05-29 11:09:56</time>
      </trkpt>
      <trkpt lat="43.31473" lon="-2.00772">
        <ele>-3.6</ele>
        <time>2021-05-29 11:09:57</time>
      </trkpt>
      <trkpt lat="43.3147" lon="-2.00775">
        <ele>-3.2</ele>
        <time>2021-05-29 11:09:58</time>
      </trkpt>
      <trkpt lat="43.31467" lon="-2.00779">
        <ele>-2.8</ele>
        <time>2021-05-29 11:09:59</time>
      </trkpt>
      <trkpt lat="43.31464" lon="-2.00784">
        <ele>-1.8</ele>
        <time>2021-05-29 11:10:00</time>
      </trkpt>
      <trkpt lat="43.31461" lon="-2.00788">
        <ele>-1.6</ele>
        <time>2021-05-29 11:10:01</time>
      </trkpt>
      <trkpt lat="43.31458" lon="-2.00792">
        <ele>-1.2</ele>
        <time>2021-05-29 11:10:02</time>
      </trkpt>
      <trkpt lat="43.31456" lon="-2.00796">
        <ele>-0.8</ele>
        <time>2021-05-29 11:10:03</time>
      </trkpt>
      <trkpt lat="43.31453" lon="-2.00799">
        <ele>-0.4</ele>
        <time>2021-05-29 11:10:04</time>
      </trkpt>
      <trkpt lat="43.31451" lon="-2.00803">
        <time>2021-05-29 11:10:05</time>
      </trkpt>
      <trkpt lat="43.31448" lon="-2.00805">
        <ele>0.4</ele>
        <time>2021-05-29 11:10:06</time>
      </trkpt>
      <trkpt lat="43.31445" lon="-2.00807">
        <ele>0.6</ele>
        <time>2021-05-29 11:10:07</time>
      </trkpt>
      <trkpt lat="43.31443" lon="-2.00809">
        <ele>1</ele>
        <time>2021-05-29 11:10:08</time>
      </trkpt>
      <trkpt lat="43.3144" lon="-2.00811">
        <ele>1.2</ele>
        <time>2021-05-29 11:10:09</time>
      </trkpt>
      <trkpt lat="43.31438" lon="-2.00814">
        <ele>1.6</ele>
        <time>2021-05-29 11:10:10</time>
      </trkpt>
      <trkpt lat="43.31437" lon="-2.00817">
        <ele>1.8</ele>
        <time>2021-05-29 11:10:11</time>
      </trkpt>
      <trkpt lat="43.31436" lon="-2.0082">
        <ele>2</ele>
        <time>2021-05-29 11:10:12</time>
      </trkpt>
      <trkpt lat="43.31435" lon="-2.00823">
        <ele>2.4</ele>
        <time>2021-05-29 11:10:13</time>
      </trkpt>
      <trkpt lat="43.31434" lon="-2.00827">
        <ele>2.6</ele>
        <time>2021-05-29 11:10:14</time>
      </trkpt>
      <trkpt lat="43.31434" lon="-2.00832">
        <ele>3</ele>
        <time>2021-05-29 11:10:15</time>
      </trkpt>
      <trkpt lat="43.31434" lon="-2.00835">
        <ele>3.4</ele>
        <time>2021-05-29 11:10:16</time>
      </trkpt>
      <trkpt lat="43.31434" lon="-2.00838">
        <ele>3.8</ele>
        <time>2021-05-29 11:10:17</time>
      </trkpt>
      <trkpt lat="43.31433" lon="-2.00842">
        <ele>4</ele>
        <time>2021-05-29 11:10:18</time>
      </trkpt>
      <trkpt lat="43.31433" lon="-2.00847">
        <ele>4.4</ele>
        <time>2021-05-29 11:10:19</time>
      </trkpt>
      <trkpt lat="43.31433" lon="-2.00851">
        <ele>4.6</ele>
        <time>2021-05-29 11:10:20</time>
      </trkpt>
      <trkpt lat="43.31432" lon="-2.00855">
        <ele>5</ele>
        <time>2021-05-29 11:10:21</time>
      </trkpt>
      <trkpt lat="43.31432" lon="-2.0086">
        <ele>5.2</ele>
        <time>2021-05-29 11:10:22</time>
      </trkpt>
      <trkpt lat="43.31431" lon="-2.00865">
        <ele>5.6</ele>
        <time>2021-05-29 11:10:23</time>
      </trkpt>
      <trkpt lat="43.31431" lon="-2.0087">
        <ele>5.8</ele>
        <time>2021-05-29 11:10:24</time>
      </trkpt>
      <trkpt lat="43.31431" lon="-2.00874">
        <ele>6</ele>
        <time>2021-05-29 11:10:25</time>
      </trkpt>
      <trkpt lat="43.3143" lon="-2.0088">
        <ele>6.2</ele>
        <time>2021-05-29 11:10:26</time>
      </trkpt>
      <trkpt lat="43.3143" lon="-2.00884">
        <ele>6.4</ele>
        <time>2021-05-29 11:10:27</time>
      </trkpt>
      <trkpt lat="43.3143" lon="-2.00889">
        <ele>6.6</ele>
        <time>2021-05-29 11:10:28</time>
      </trkpt>
      <trkpt lat="43.31429" lon="-2.00893">
        <ele>7.2</ele>
        <time>2021-05-29 11:10:29</time>
      </trkpt>
      <trkpt lat="43.31428" lon="-2.00897">
        <ele>7.4</ele>
        <time>2021-05-29 11:10:30</time>
      </trkpt>
      <trkpt lat="43.31428" lon="-2.00903">
        <ele>7.8</ele>
        <time>2021-05-29 11:10:31</time>
      </trkpt>
      <trkpt lat="43.31428" lon="-2.00907">
        <ele>8.2</ele>
        <time>2021-05-29 11:10:32</time>
      </trkpt>
      <trkpt lat="43.31428" lon="-2.00911">
        <ele>8.6</ele>
        <time>2021-05-29 11:10:33</time>
      </trkpt>
      <trkpt lat="43.31428" lon="-2.00915">
        <ele>8.8</ele>
        <time>2021-05-29 11:10:34</time>
      </trkpt>
      <trkpt lat="43.31427" lon="-2.00919">
        <ele>9.2</ele>
        <time>2021-05-29 11:10:35</time>
      </trkpt>
      <trkpt lat="43.31427" lon="-2.00923">
        <ele>9.4</ele>
        <time>2021-05-29 11:10:36</time>
      </trkpt>
      <trkpt lat="43.31427" lon="-2.00928">
        <ele>9.6</ele>
        <time>2021-05-29 11:10:37</time>
      </trkpt>
      <trkpt lat="43.31427" lon="-2.00932">
        <ele>10</ele>
        <time>2021-05-29 11:10:38</time>
      </trkpt>
      <trkpt lat="43.31426" lon="-2.00936">
        <ele>10.2</ele>
        <time>2021-05-29 11:10:39</time>
      </trkpt>
      <trkpt lat="43.31426" lon="-2.0094">
        <ele>10.4</ele>
        <time>2021-05-29 11:10:40</time>
      </trkpt>
      <trkpt lat="43.31425" lon="-2.00944">
        <ele>10.8</ele>
        <time>2021-05-29 11:10:41</time>
      </trkpt>
      <trkpt lat="43.31425" lon="-2.00948">
        <ele>11</ele>
        <time>2021-05-29 11:10:42</time>
      </trkpt>
      <trkpt lat="43.31423" lon="-2.00953">
        <ele>11.2</ele>
        <time>2021-05-29 11:10:43</time>
      </trkpt>
      <trkpt lat="43.31422" lon="-2.00957">
        <ele>11.4</ele>
        <time>2021-05-29 11:10:44</time>
      </trkpt>
      <trkpt lat="43.3142" lon="-2.00962">
        <ele>11.6</ele>
        <time>2021-05-29 11:10:45</time>
      </trkpt>
      <trkpt lat="43.31418" lon="-2.00965">
        <ele>12</ele>
        <time>2021-05-29 11:10:46</time>
      </trkpt>
      <trkpt lat="43.31416" lon="-2.00969">
        <ele>12.2</ele>
        <time>2021-05-29 11:10:47</time>
      </trkpt>
      <trkpt lat="43.31414" lon="-2.00973">
        <ele>12.6</ele>
        <time>2021-05-29 11:10:48</time>
      </trkpt>
      <trkpt lat="43.31412" lon="-2.00977">
        <ele>12.8</ele>
        <time>2021-05-29 11:10:49</time>
      </trkpt>
      <trkpt lat="43.31409" lon="-2.00981">
        <ele>13</ele>
        <time>2021-05-29 11:10:50</time>
      </trkpt>
      <trkpt lat="43.31407" lon="-2.00984">
        <ele>13.4</ele>
        <time>2021-05-29 11:10:51</time>
      </trkpt>
      <trkpt lat="43.31405" lon="-2.00987">
        <ele>13.6</ele>
        <time>2021-05-29 11:10:52</time>
      </trkpt>
      <trkpt lat="43.31403" lon="-2.00989">
        <ele>13.8</ele>
        <time>2021-05-29 11:10:53</time>
      </trkpt>
      <trkpt lat="43.31401" lon="-2.00991">
        <ele>14.2</ele>
        <time>2021-05-29 11:10:54</time>
      </trkpt>
      <trkpt lat="43.31399" lon="-2.00994">
        <ele>14.4</ele>
        <time>2021-05-29 11:10:55</time>
      </trkpt>
      <trkpt lat="43.31396" lon="-2.00996">
        <ele>14.6</ele>
        <time>2021-05-29 11:10:56</time>
      </trkpt>
      <trkpt lat="43.31394" lon="-2.01">
        <ele>14.8</ele>
        <time>2021-05-29 11:10:57</time>
      </trkpt>
      <trkpt lat="43.31392" lon="-2.01003">
        <ele>15.2</ele>
        <time>2021-05-29 11:10:58</time>
      </trkpt>
      <trkpt lat="43.3139" lon="-2.01007">
        <ele>15.4</ele>
        <time>2021-05-29 11:10:59</time>
      </trkpt>
      <trkpt lat="43.31388" lon="-2.0101">
        <ele>15.8</ele>
        <time>2021-05-29 11:11:00</time>
      </trkpt>
      <trkpt lat="43.31386" lon="-2.01013">
        <ele>16</ele>
        <time>2021-05-29 11:11:01</time>
      </trkpt>
      <trkpt lat="43.31384" lon="-2.01017">
        <ele>16.4</ele>
        <time>2021-05-29 11:11:02</time>
      </trkpt>
      <trkpt lat="43.31381" lon="-2.0102">
        <ele>16.6</ele>
        <time>2021-05-29 11:11:03</time>
      </trkpt>
      <trkpt lat="43.31379" lon="-2.01023">
        <ele>17</ele>
        <time>2021-05-29 11:11:04</time>
      </trkpt>
      <trkpt lat="43.31377" lon="-2.01026">
        <ele>17.2</ele>
        <time>2021-05-29 11:11:05</time>
      </trkpt>
      <trkpt lat="43.31375" lon="-2.01029">
        <ele>17.4</ele>
        <time>2021-05-29 11:11:06</time>
      </trkpt>
      <trkpt lat="43.31373" lon="-2.01033">
        <ele>17.8</ele>
        <time>2021-05-29 11:11:07</time>
      </trkpt>
      <trkpt lat="43.3137" lon="-2.01036">
        <ele>18</ele>
        <time>2021-05-29 11:11:08</time>
      </trkpt>
      <trkpt lat="43.31368" lon="-2.01038">
        <ele>18.4</ele>
        <time>2021-05-29 11:11:09</time>
      </trkpt>
      <trkpt lat="43.31366" lon="-2.01042">
        <ele>18.6</ele>
        <time>2021-05-29 11:11:10</time>
      </trkpt>
      <trkpt lat="43.31364" lon="-2.01045">
        <ele>18.8</ele>
        <time>2021-05-29 11:11:11</time>
      </trkpt>
      <trkpt lat="43.31362" lon="-2.01048">
        <ele>19.2</ele>
        <time>2021-05-29 11:11:12</time>
      </trkpt>
      <trkpt lat="43.3136" lon="-2.01052">
        <ele>19.6</ele>
        <time>2021-05-29 11:11:13</time>
      </trkpt>
      <trkpt lat="43.31358" lon="-2.01054">
        <ele>19.8</ele>
        <time>2021-05-29 11:11:14</time>
      </trkpt>
      <trkpt lat="43.31355" lon="-2.01057">
        <ele>20</ele>
        <time>2021-05-29 11:11:15</time>
      </trkpt>
      <trkpt lat="43.31353" lon="-2.01061">
        <ele>20.2</ele>
        <time>2021-05-29 11:11:16</time>
      </trkpt>
      <trkpt lat="43.31351" lon="-2.01064">
        <ele>20.4</ele>
        <time>2021-05-29 11:11:17</time>
      </trkpt>
      <trkpt lat="43.31349" lon="-2.01067">
        <ele>20.6</ele>
        <time>2021-05-29 11:11:18</time>
      </trkpt>
      <trkpt lat="43.31347" lon="-2.0107">
        <ele>20.8</ele>
        <time>2021-05-29 11:11:19</time>
      </trkpt>
      <trkpt lat="43.31345" lon="-2.01073">
        <ele>20.8</ele>
        <time>2021-05-29 11:11:20</time>
      </trkpt>
      <trkpt lat="43.31342" lon="-2.01076">
        <ele>21</ele>
        <time>2021-05-29 11:11:21</time>
      </trkpt>
      <trkpt lat="43.3134" lon="-2.01079">
        <ele>21.4</ele>
        <time>2021-05-29 11:11:22</time>
      </trkpt>
      <trkpt lat="43.31337" lon="-2.01081">
        <ele>21.6</ele>
        <time>2021-05-29 11:11:23</time>
      </trkpt>
      <trkpt lat="43.31335" lon="-2.01084">
        <ele>21.8</ele>
        <time>2021-05-29 11:11:24</time>
      </trkpt>
      <trkpt lat="43.31334" lon="-2.01088">
        <ele>22.2</ele>
        <time>2021-05-29 11:11:25</time>
      </trkpt>
      <trkpt lat="43.31333" lon="-2.01092">
        <ele>22.4</ele>
        <time>2021-05-29 11:11:26</time>
      </trkpt>
      <trkpt lat="43.31332" lon="-2.01096">
        <ele>22.8</ele>
        <time>2021-05-29 11:11:27</time>
      </trkpt>
      <trkpt lat="43.31331" lon="-2.01098">
        <ele>23</ele>
        <time>2021-05-29 11:11:28</time>
      </trkpt>
      <trkpt lat="43.3133" lon="-2.01101">
        <ele>23.2</ele>
        <time>2021-05-29 11:11:29</time>
      </trkpt>
      <trkpt lat="43.31331" lon="-2.01104">
        <ele>23.6</ele>
        <time>2021-05-29 11:11:30</time>
      </trkpt>
      <trkpt lat="43.31332" lon="-2.01107">
        <ele>23.8</ele>
        <time>2021-05-29 11:11:31</time>
      </trkpt>
      <trkpt lat="43.31332" lon="-2.01111">
        <ele>24</ele>
        <time>2021-05-29 11:11:32</time>
      </trkpt>
      <trkpt lat="43.31333" lon="-2.01114">
        <ele>24.2</ele>
        <time>2021-05-29 11:11:33</time>
      </trkpt>
      <trkpt lat="43.31334" lon="-2.01117">
        <ele>24.6</ele>
        <time>2021-05-29 11:11:34</time>
      </trkpt>
      <trkpt lat="43.31336" lon="-2.01121">
        <ele>25</ele>
        <time>2021-05-29 11:11:35</time>
      </trkpt>
      <trkpt lat="43.31338" lon="-2.01124">
        <ele>25.2</ele>
        <time>2021-05-29 11:11:36</time>
      </trkpt>
      <trkpt lat="43.31339" lon="-2.01127">
        <ele>25.4</ele>
        <time>2021-05-29 11:11:37</time>
      </trkpt>
      <trkpt lat="43.31341" lon="-2.01129">
        <ele>25.8</ele>
        <time>2021-05-29 11:11:38</time>
      </trkpt>
      <trkpt lat="43.31343" lon="-2.01132">
        <ele>26.2</ele>
        <time>2021-05-29 11:11:39</time>
      </trkpt>
      <trkpt lat="43.31345" lon="-2.01134">
        <ele>26.4</ele>
        <time>2021-05-29 11:11:40</time>
      </trkpt>
      <trkpt lat="43.31347" lon="-2.01137">
        <ele>26.8</ele>
        <time>2021-05-29 11:11:41</time>
      </trkpt>
      <trkpt lat="43.31349" lon="-2.0114">
        <ele>27.2</ele>
        <time>2021-05-29 11:11:42</time>
      </trkpt>
      <trkpt lat="43.31351" lon="-2.01142">
        <ele>27.6</ele>
        <time>2021-05-29 11:11:43</time>
      </trkpt>
      <trkpt lat="43.31353" lon="-2.01144">
        <ele>28.2</ele>
        <time>2021-05-29 11:11:44</time>
      </trkpt>
      <trkpt lat="43.31355" lon="-2.01146">
        <ele>28.4</ele>
        <time>2021-05-29 11:11:45</time>
      </trkpt>
      <trkpt lat="43.31357" lon="-2.01149">
        <ele>28.6</ele>
        <time>2021-05-29 11:11:46</time>
      </trkpt>
      <trkpt lat="43.3136" lon="-2.01151">
        <ele>28.8</ele>
        <time>2021-05-29 11:11:47</time>
      </trkpt>
      <trkpt lat="43.31363" lon="-2.01153">
        <ele>29</ele>
        <time>2021-05-29 11:11:48</time>
      </trkpt>
      <trkpt lat="43.31365" lon="-2.01155">
        <ele>29.4</ele>
        <time>2021-05-29 11:11:49</time>
      </trkpt>
      <trkpt lat="43.31368" lon="-2.01159">
        <ele>29.6</ele>
        <time>2021-05-29 11:11:50</time>
      </trkpt>
      <trkpt lat="43.31371" lon="-2.01161">
        <ele>29.8</ele>
        <time>2021-05-29 11:11:51</time>
      </trkpt>
      <trkpt lat="43.31373" lon="-2.01164">
        <ele>30.2</ele>
        <time>2021-05-29 11:11:52</time>
      </trkpt>
      <trkpt lat="43.31376" lon="-2.01166">
        <ele>30.4</ele>
        <time>2021-05-29 11:11:53</time>
      </trkpt>
      <trkpt lat="43.31379" lon="-2.01168">
        <ele>30.6</ele>
        <time>2021-05-29 11:11:54</time>
      </trkpt>
      <trkpt lat="43.31381" lon="-2.0117">
        <ele>30.8</ele>
        <time>2021-05-29 11:11:55</time>
      </trkpt>
      <trkpt lat="43.31384" lon="-2.01172">
        <ele>31.2</ele>
        <time>2021-05-29 11:11:56</time>
      </trkpt>
      <trkpt lat="43.31387" lon="-2.01174">
        <ele>31.4</ele>
        <time>2021-05-29 11:11:57</time>
      </trkpt>
      <trkpt lat="43.31389" lon="-2.01176">
        <ele>31.8</ele>
        <time>2021-05-29 11:11:58</time>
      </trkpt>
      <trkpt lat="43.31391" lon="-2.01179">
        <ele>32</ele>
        <time>2021-05-29 11:11:59</time>
      </trkpt>
      <trkpt lat="43.31394" lon="-2.0118">
        <ele>32.2</ele>
        <time>2021-05-29 11:12:00</time>
      </trkpt>
      <trkpt lat="43.31396" lon="-2.01182">
        <ele>32.6</ele>
        <time>2021-05-29 11:12:01</time>
      </trkpt>
      <trkpt lat="43.31399" lon="-2.01184">
        <ele>32.8</ele>
        <time>2021-05-29 11:12:02</time>
      </trkpt>
      <trkpt lat="43.31402" lon="-2.01185">
        <ele>33.2</ele>
        <time>2021-05-29 11:12:03</time>
      </trkpt>
      <trkpt lat="43.31405" lon="-2.01187">
        <ele>33.4</ele>
        <time>2021-05-29 11:12:04</time>
      </trkpt>
      <trkpt lat="43.31408" lon="-2.01188">
        <ele>33.6</ele>
        <time>2021-05-29 11:12:05</time>
      </trkpt>
      <trkpt lat="43.31411" lon="-2.01189">
        <ele>33.8</ele>
        <time>2021-05-29 11:12:06</time>
      </trkpt>
      <trkpt lat="43.31414" lon="-2.01189">
        <ele>34.2</ele>
        <time>2021-05-29 11:12:07</time>
      </trkpt>
      <trkpt lat="43.31417" lon="-2.0119">
        <ele>34.4</ele>
        <time>2021-05-29 11:12:08</time>
      </trkpt>
      <trkpt lat="43.3142" lon="-2.01191">
        <ele>34.6</ele>
        <time>2021-05-29 11:12:09</time>
      </trkpt>
      <trkpt lat="43.31423" lon="-2.01192">
        <ele>35</ele>
        <time>2021-05-29 11:12:10</time>
      </trkpt>
      <trkpt lat="43.31426" lon="-2.01194">
        <ele>35.4</ele>
        <time>2021-05-29 11:12:11</time>
      </trkpt>
      <trkpt lat="43.31428" lon="-2.01197">
        <ele>35.6</ele>
        <time>2021-05-29 11:12:12</time>
      </trkpt>
      <trkpt lat="43.31431" lon="-2.01199">
        <ele>36</ele>
        <time>2021-05-29 11:12:13</time>
      </trkpt>
      <trkpt lat="43.31434" lon="-2.01201">
        <ele>36.4</ele>
        <time>2021-05-29 11:12:14</time>
      </trkpt>
      <trkpt lat="43.31436" lon="-2.01203">
        <ele>36.6</ele>
        <time>2021-05-29 11:12:15</time>
      </trkpt>
      <trkpt lat="43.31439" lon="-2.01205">
        <ele>37</ele>
        <time>2021-05-29 11:12:16</time>
      </trkpt>
      <trkpt lat="43.31442" lon="-2.01206">
        <ele>37.2</ele>
        <time>2021-05-29 11:12:17</time>
      </trkpt>
      <trkpt lat="43.31445" lon="-2.01209">
        <ele>37.6</ele>
        <time>2021-05-29 11:12:18</time>
      </trkpt>
      <trkpt lat="43.31447" lon="-2.0121">
        <ele>38</ele>
        <time>2021-05-29 11:12:19</time>
      </trkpt>
      <trkpt lat="43.3145" lon="-2.01213">
        <ele>38.4</ele>
        <time>2021-05-29 11:12:20</time>
      </trkpt>
      <trkpt lat="43.31452" lon="-2.01216">
        <ele>38.6</ele>
        <time>2021-05-29 11:12:21</time>
      </trkpt>
      <trkpt lat="43.31455" lon="-2.01219">
        <ele>39</ele>
        <time>2021-05-29 11:12:22</time>
      </trkpt>
      <trkpt lat="43.31457" lon="-2.01222">
        <ele>39.2</ele>
        <time>2021-05-29 11:12:23</time>
      </trkpt>
      <trkpt lat="43.31459" lon="-2.01225">
        <ele>39.6</ele>
        <time>2021-05-29 11:12:24</time>
      </trkpt>
      <trkpt lat="43.31461" lon="-2.01227">
        <ele>39.8</ele>
        <time>2021-05-29 11:12:25</time>
      </trkpt>
      <trkpt lat="43.31464" lon="-2.01228">
        <ele>40.2</ele>
        <time>2021-05-29 11:12:26</time>
      </trkpt>
      <trkpt lat="43.31467" lon="-2.0123">
        <ele>40.4</ele>
        <time>2021-05-29 11:12:27</time>
      </trkpt>
      <trkpt lat="43.3147" lon="-2.01231">
        <ele>40.6</ele>
        <time>2021-05-29 11:12:28</time>
      </trkpt>
      <trkpt lat="43.31473" lon="-2.01232">
        <ele>40.8</ele>
        <time>2021-05-29 11:12:29</time>
      </trkpt>
      <trkpt lat="43.31476" lon="-2.01233">
        <ele>41</ele>
        <time>2021-05-29 11:12:30</time>
      </trkpt>
      <trkpt lat="43.31479" lon="-2.01234">
        <ele>41.4</ele>
        <time>2021-05-29 11:12:31</time>
      </trkpt>
      <trkpt lat="43.31481" lon="-2.01236">
        <ele>41.6</ele>
        <time>2021-05-29 11:12:32</time>
      </trkpt>
      <trkpt lat="43.31484" lon="-2.01237">
        <ele>42</ele>
        <time>2021-05-29 11:12:33</time>
      </trkpt>
      <trkpt lat="43.31487" lon="-2.01239">
        <ele>42.2</ele>
        <time>2021-05-29 11:12:34</time>
      </trkpt>
      <trkpt lat="43.31489" lon="-2.01241">
        <ele>42.6</ele>
        <time>2021-05-29 11:12:35</time>
      </trkpt>
      <trkpt lat="43.31491" lon="-2.01242">
        <ele>43</ele>
        <time>2021-05-29 11:12:36</time>
      </trkpt>
      <trkpt lat="43.31494" lon="-2.01244">
        <ele>43.2</ele>
        <time>2021-05-29 11:12:37</time>
      </trkpt>
      <trkpt lat="43.31496" lon="-2.01246">
        <ele>43.4</ele>
        <time>2021-05-29 11:12:38</time>
      </trkpt>
      <trkpt lat="43.31499" lon="-2.01247">
        <ele>43.8</ele>
        <time>2021-05-29 11:12:39</time>
      </trkpt>
      <trkpt lat="43.31502" lon="-2.01248">
        <ele>44</ele>
        <time>2021-05-29 11:12:40</time>
      </trkpt>
      <trkpt lat="43.31505" lon="-2.01249">
        <ele>44.4</ele>
        <time>2021-05-29 11:12:41</time>
      </trkpt>
      <trkpt lat="43.31508" lon="-2.0125">
        <ele>44.6</ele>
        <time>2021-05-29 11:12:42</time>
      </trkpt>
      <trkpt lat="43.31511" lon="-2.01251">
        <ele>45</ele>
        <time>2021-05-29 11:12:43</time>
      </trkpt>
      <trkpt lat="43.31514" lon="-2.01251">
        <ele>45.2</ele>
        <time>2021-05-29 11:12:44</time>
      </trkpt>
      <trkpt lat="43.31516" lon="-2.01253">
        <ele>45.4</ele>
        <time>2021-05-29 11:12:45</time>
      </trkpt>
      <trkpt lat="43.31518" lon="-2.01254">
        <ele>45.8</ele>
        <time>2021-05-29 11:12:46</time>
      </trkpt>
      <trkpt lat="43.3152" lon="-2.01256">
        <ele>46</ele>
        <time>2021-05-29 11:12:47</time>
      </trkpt>
      <trkpt lat="43.31522" lon="-2.01258">
        <ele>46.2</ele>
        <time>2021-05-29 11:12:48</time>
      </trkpt>
      <trkpt lat="43.31525" lon="-2.0126">
        <ele>46.6</ele>
        <time>2021-05-29 11:12:49</time>
      </trkpt>
      <trkpt lat="43.31527" lon="-2.01261">
        <ele>46.8</ele>
        <time>2021-05-29 11:12:50</time>
      </trkpt>
      <trkpt lat="43.31529" lon="-2.01263">
        <ele>47</ele>
        <time>2021-05-29 11:12:51</time>
      </trkpt>
      <trkpt lat="43.31531" lon="-2.01265">
        <ele>47.2</ele>
        <time>2021-05-29 11:12:52</time>
      </trkpt>
      <trkpt lat="43.31533" lon="-2.01267">
        <ele>48</ele>
        <time>2021-05-29 11:12:53</time>
      </trkpt>
      <trkpt lat="43.31536" lon="-2.01269">
        <ele>48.2</ele>
        <time>2021-05-29 11:12:54</time>
      </trkpt>
      <trkpt lat="43.31537" lon="-2.01271">
        <ele>48.6</ele>
        <time>2021-05-29 11:12:55</time>
      </trkpt>
      <trkpt lat="43.31539" lon="-2.01274">
        <ele>49</ele>
        <time>2021-05-29 11:12:56</time>
      </trkpt>
      <trkpt lat="43.31541" lon="-2.01276">
        <ele>49.2</ele>
        <time>2021-05-29 11:12:57</time>
      </trkpt>
      <trkpt lat="43.31544" lon="-2.01277">
        <ele>49.6</ele>
        <time>2021-05-29 11:12:58</time>
      </trkpt>
      <trkpt lat="43.31547" lon="-2.01279">
        <ele>49.8</ele>
        <time>2021-05-29 11:12:59</time>
      </trkpt>
      <trkpt lat="43.3155" lon="-2.01281">
        <ele>50.2</ele>
        <time>2021-05-29 11:13:00</time>
      </trkpt>
      <trkpt lat="43.31553" lon="-2.01283">
        <ele>50.6</ele>
        <time>2021-05-29 11:13:01</time>
      </trkpt>
      <trkpt lat="43.31556" lon="-2.01286">
        <ele>50.8</ele>
        <time>2021-05-29 11:13:02</time>
      </trkpt>
      <trkpt lat="43.31559" lon="-2.01288">
        <ele>51</ele>
        <time>2021-05-29 11:13:03</time>
      </trkpt>
      <trkpt lat="43.31561" lon="-2.01291">
        <ele>51.2</ele>
        <time>2021-05-29 11:13:04</time>
      </trkpt>
      <trkpt lat="43.31563" lon="-2.01294">
        <ele>51.4</ele>
        <time>2021-05-29 11:13:05</time>
      </trkpt>
      <trkpt lat="43.31565" lon="-2.01298">
        <ele>51.6</ele>
        <time>2021-05-29 11:13:06</time>
      </trkpt>
      <trkpt lat="43.31566" lon="-2.01303">
        <ele>51.8</ele>
        <time>2021-05-29 11:13:07</time>
      </trkpt>
      <trkpt lat="43.31569" lon="-2.01306">
        <ele>52</ele>
        <time>2021-05-29 11:13:08</time>
      </trkpt>
      <trkpt lat="43.31571" lon="-2.01309">
        <ele>52.2</ele>
        <time>2021-05-29 11:13:09</time>
      </trkpt>
      <trkpt lat="43.31574" lon="-2.01314">
        <ele>52.4</ele>
        <time>2021-05-29 11:13:10</time>
      </trkpt>
      <trkpt lat="43.31577" lon="-2.01317">
        <ele>52.6</ele>
        <time>2021-05-29 11:13:11</time>
      </trkpt>
      <trkpt lat="43.3158" lon="-2.01321">
        <ele>53</ele>
        <time>2021-05-29 11:13:12</time>
      </trkpt>
      <trkpt lat="43.31583" lon="-2.01324">
        <ele>53</ele>
        <time>2021-05-29 11:13:13</time>
      </trkpt>
      <trkpt lat="43.31587" lon="-2.01326">
        <ele>53.2</ele>
        <time>2021-05-29 11:13:14</time>
      </trkpt>
      <trkpt lat="43.3159" lon="-2.01328">
        <ele>53.6</ele>
        <time>2021-05-29 11:13:15</time>
      </trkpt>
      <trkpt lat="43.31592" lon="-2.01331">
        <ele>54</ele>
        <time>2021-05-29 11:13:16</time>
      </trkpt>
      <trkpt lat="43.31594" lon="-2.01336">
        <ele>54.2</ele>
        <time>2021-05-29 11:13:17</time>
      </trkpt>
      <trkpt lat="43.31597" lon="-2.01339">
        <ele>54.6</ele>
        <time>2021-05-29 11:13:18</time>
      </trkpt>
      <trkpt lat="43.316" lon="-2.01343">
        <ele>55</ele>
        <time>2021-05-29 11:13:19</time>
      </trkpt>
      <trkpt lat="43.31602" lon="-2.01346">
        <ele>55.4</ele>
        <time>2021-05-29 11:13:20</time>
      </trkpt>
      <trkpt lat="43.31605" lon="-2.01349">
        <ele>55.8</ele>
        <time>2021-05-29 11:13:21</time>
      </trkpt>
      <trkpt lat="43.31607" lon="-2.01353">
        <ele>56.2</ele>
        <time>2021-05-29 11:13:22</time>
      </trkpt>
      <trkpt lat="43.3161" lon="-2.01356">
        <ele>56.4</ele>
        <time>2021-05-29 11:13:23</time>
      </trkpt>
      <trkpt lat="43.31612" lon="-2.0136">
        <ele>56.6</ele>
        <time>2021-05-29 11:13:24</time>
      </trkpt>
      <trkpt lat="43.31615" lon="-2.01363">
        <ele>56.8</ele>
        <time>2021-05-29 11:13:25</time>
      </trkpt>
      <trkpt lat="43.31618" lon="-2.01366">
        <ele>57.2</ele>
        <time>2021-05-29 11:13:26</time>
      </trkpt>
      <trkpt lat="43.3162" lon="-2.01369">
        <ele>57.6</ele>
        <time>2021-05-29 11:13:27</time>
      </trkpt>
      <trkpt lat="43.31623" lon="-2.01372">
        <ele>58.2</ele>
        <time>2021-05-29 11:13:28</time>
      </trkpt>
      <trkpt lat="43.31626" lon="-2.01375">
        <ele>58.4</ele>
        <time>2021-05-29 11:13:29</time>
      </trkpt>
      <trkpt lat="43.31628" lon="-2.01378">
        <ele>58.6</ele>
        <time>2021-05-29 11:13:30</time>
      </trkpt>
      <trkpt lat="43.3163" lon="-2.01381">
        <ele>59</ele>
        <time>2021-05-29 11:13:31</time>
      </trkpt>
      <trkpt lat="43.31633" lon="-2.01385">
        <ele>59.2</ele>
        <time>2021-05-29 11:13:32</time>
      </trkpt>
      <trkpt lat="43.31635" lon="-2.01388">
        <ele>59.6</ele>
        <time>2021-05-29 11:13:33</time>
      </trkpt>
      <trkpt lat="43.31637" lon="-2.01392">
        <ele>59.8</ele>
        <time>2021-05-29 11:13:34</time>
      </trkpt>
      <trkpt lat="43.31639" lon="-2.01396">
        <ele>60</ele>
        <time>2021-05-29 11:13:35</time>
      </trkpt>
      <trkpt lat="43.31641" lon="-2.01398">
        <ele>60.4</ele>
        <time>2021-05-29 11:13:36</time>
      </trkpt>
      <trkpt lat="43.31644" lon="-2.01401">
        <ele>60.8</ele>
        <time>2021-05-29 11:13:37</time>
      </trkpt>
      <trkpt lat="43.31647" lon="-2.01403">
        <ele>61</ele>
        <time>2021-05-29 11:13:38</time>
      </trkpt>
      <trkpt lat="43.3165" lon="-2.01406">
        <ele>61.2</ele>
        <time>2021-05-29 11:13:39</time>
      </trkpt>
      <trkpt lat="43.31653" lon="-2.0141">
        <ele>61.4</ele>
        <time>2021-05-29 11:13:40</time>
      </trkpt>
      <trkpt lat="43.31656" lon="-2.01413">
        <ele>61.8</ele>
        <time>2021-05-29 11:13:41</time>
      </trkpt>
      <trkpt lat="43.31658" lon="-2.01416">
        <ele>62</ele>
        <time>2021-05-29 11:13:42</time>
      </trkpt>
      <trkpt lat="43.3166" lon="-2.01419">
        <ele>62.4</ele>
        <time>2021-05-29 11:13:43</time>
      </trkpt>
      <trkpt lat="43.31662" lon="-2.01422">
        <ele>62.6</ele>
        <time>2021-05-29 11:13:44</time>
      </trkpt>
      <trkpt lat="43.31664" lon="-2.01426">
        <ele>63</ele>
        <time>2021-05-29 11:13:45</time>
      </trkpt>
      <trkpt lat="43.31666" lon="-2.0143">
        <ele>63.2</ele>
        <time>2021-05-29 11:13:46</time>
      </trkpt>
      <trkpt lat="43.31668" lon="-2.01434">
        <ele>63.6</ele>
        <time>2021-05-29 11:13:47</time>
      </trkpt>
      <trkpt lat="43.31671" lon="-2.01438">
        <ele>63.6</ele>
        <time>2021-05-29 11:13:48</time>
      </trkpt>
      <trkpt lat="43.31673" lon="-2.01442">
        <ele>64</ele>
        <time>2021-05-29 11:13:49</time>
      </trkpt>
      <trkpt lat="43.31675" lon="-2.01446">
        <ele>64.2</ele>
        <time>2021-05-29 11:13:50</time>
      </trkpt>
      <trkpt lat="43.31677" lon="-2.0145">
        <ele>64.6</ele>
        <time>2021-05-29 11:13:51</time>
      </trkpt>
      <trkpt lat="43.31678" lon="-2.01455">
        <ele>65</ele>
        <time>2021-05-29 11:13:52</time>
      </trkpt>
      <trkpt lat="43.31679" lon="-2.0146">
        <ele>65.2</ele>
        <time>2021-05-29 11:13:53</time>
      </trkpt>
      <trkpt lat="43.31681" lon="-2.01465">
        <ele>65.4</ele>
        <time>2021-05-29 11:13:54</time>
      </trkpt>
      <trkpt lat="43.31682" lon="-2.0147">
        <ele>65.8</ele>
        <time>2021-05-29 11:13:55</time>
      </trkpt>
      <trkpt lat="43.31683" lon="-2.01474">
        <ele>66</ele>
        <time>2021-05-29 11:13:56</time>
      </trkpt>
      <trkpt lat="43.31684" lon="-2.01479">
        <ele>66.2</ele>
        <time>2021-05-29 11:13:57</time>
      </trkpt>
      <trkpt lat="43.31685" lon="-2.01485">
        <ele>66.6</ele>
        <time>2021-05-29 11:13:58</time>
      </trkpt>
      <trkpt lat="43.31686" lon="-2.01489">
        <ele>66.8</ele>
        <time>2021-05-29 11:13:59</time>
      </trkpt>
      <trkpt lat="43.31687" lon="-2.01494">
        <ele>67</ele>
        <time>2021-05-29 11:14:00</time>
      </trkpt>
      <trkpt lat="43.31688" lon="-2.01497">
        <ele>67.4</ele>
        <time>2021-05-29 11:14:01</time>
      </trkpt>
      <trkpt lat="43.31689" lon="-2.01502">
        <ele>67.6</ele>
        <time>2021-05-29 11:14:02</time>
      </trkpt>
      <trkpt lat="43.3169" lon="-2.01507">
        <ele>68.2</ele>
        <time>2021-05-29 11:14:03</time>
      </trkpt>
      <trkpt lat="43.3169" lon="-2.01514">
        <ele>68.4</ele>
        <time>2021-05-29 11:14:04</time>
      </trkpt>
      <trkpt lat="43.31691" lon="-2.01519">
        <ele>68.8</ele>
        <time>2021-05-29 11:14:05</time>
      </trkpt>
      <trkpt lat="43.31691" lon="-2.01525">
        <ele>69</ele>
        <time>2021-05-29 11:14:06</time>
      </trkpt>
      <trkpt lat="43.31692" lon="-2.01529">
        <ele>69.4</ele>
        <time>2021-05-29 11:14:07</time>
      </trkpt>
      <trkpt lat="43.31692" lon="-2.01534">
        <ele>69.8</ele>
        <time>2021-05-29 11:14:08</time>
      </trkpt>
      <trkpt lat="43.31693" lon="-2.01538">
        <ele>70</ele>
        <time>2021-05-29 11:14:09</time>
      </trkpt>
      <trkpt lat="43.31693" lon="-2.01541">
        <ele>70.2</ele>
        <time>2021-05-29 11:14:10</time>
      </trkpt>
      <trkpt lat="43.31693" lon="-2.01545">
        <ele>70.4</ele>
        <time>2021-05-29 11:14:11</time>
      </trkpt>
      <trkpt lat="43.31693" lon="-2.01549">
        <ele>70.6</ele>
        <time>2021-05-29 11:14:12</time>
      </trkpt>
      <trkpt lat="43.31693" lon="-2.01553">
        <ele>70.8</ele>
        <time>2021-05-29 11:14:13</time>
      </trkpt>
      <trkpt lat="43.31694" lon="-2.01557">
        <ele>71.2</ele>
        <time>2021-05-29 11:14:14</time>
      </trkpt>
      <trkpt lat="43.31694" lon="-2.01561">
        <ele>71.4</ele>
        <time>2021-05-29 11:14:15</time>
      </trkpt>
      <trkpt lat="43.31695" lon="-2.01564">
        <ele>71.8</ele>
        <time>2021-05-29 11:14:16</time>
      </trkpt>
      <trkpt lat="43.31695" lon="-2.01568">
        <ele>72</ele>
        <time>2021-05-29 11:14:17</time>
      </trkpt>
      <trkpt lat="43.31696" lon="-2.01572">
        <ele>72.4</ele>
        <time>2021-05-29 11:14:18</time>
      </trkpt>
      <trkpt lat="43.31697" lon="-2.01576">
        <ele>72.8</ele>
        <time>2021-05-29 11:14:19</time>
      </trkpt>
      <trkpt lat="43.31697" lon="-2.01581">
        <ele>73</ele>
        <time>2021-05-29 11:14:20</time>
      </trkpt>
      <trkpt lat="43.31698" lon="-2.01587">
        <ele>73.4</ele>
        <time>2021-05-29 11:14:21</time>
      </trkpt>
      <trkpt lat="43.31698" lon="-2.01592">
        <ele>73.6</ele>
        <time>2021-05-29 11:14:22</time>
      </trkpt>
      <trkpt lat="43.31698" lon="-2.01598">
        <ele>73.6</ele>
        <time>2021-05-29 11:14:23</time>
      </trkpt>
      <trkpt lat="43.31699" lon="-2.01603">
        <ele>73.8</ele>
        <time>2021-05-29 11:14:24</time>
      </trkpt>
      <trkpt lat="43.31699" lon="-2.01608">
        <ele>74.2</ele>
        <time>2021-05-29 11:14:25</time>
      </trkpt>
      <trkpt lat="43.317" lon="-2.01612">
        <ele>74.6</ele>
        <time>2021-05-29 11:14:26</time>
      </trkpt>
      <trkpt lat="43.317" lon="-2.01617">
        <ele>74.8</ele>
        <time>2021-05-29 11:14:27</time>
      </trkpt>
      <trkpt lat="43.31701" lon="-2.01622">
        <ele>75.2</ele>
        <time>2021-05-29 11:14:28</time>
      </trkpt>
      <trkpt lat="43.31701" lon="-2.01627">
        <ele>75.4</ele>
        <time>2021-05-29 11:14:29</time>
      </trkpt>
      <trkpt lat="43.31701" lon="-2.01632">
        <ele>75.8</ele>
        <time>2021-05-29 11:14:30</time>
      </trkpt>
      <trkpt lat="43.317" lon="-2.01639">
        <ele>76</ele>
        <time>2021-05-29 11:14:31</time>
      </trkpt>
      <trkpt lat="43.317" lon="-2.01644">
        <ele>76.2</ele>
        <time>2021-05-29 11:14:32</time>
      </trkpt>
      <trkpt lat="43.31699" lon="-2.01649">
        <ele>76.6</ele>
        <time>2021-05-29 11:14:33</time>
      </trkpt>
      <trkpt lat="43.31699" lon="-2.01654">
        <ele>76.8</ele>
        <time>2021-05-29 11:14:34</time>
      </trkpt>
      <trkpt lat="43.31699" lon="-2.01658">
        <ele>77</ele>
        <time>2021-05-29 11:14:35</time>
      </trkpt>
      <trkpt lat="43.31698" lon="-2.01664">
        <ele>77.4</ele>
        <time>2021-05-29 11:14:36</time>
      </trkpt>
      <trkpt lat="43.31697" lon="-2.01669">
        <ele>78</ele>
        <time>2021-05-29 11:14:37</time>
      </trkpt>
      <trkpt lat="43.31697" lon="-2.01673">
        <ele>78.2</ele>
        <time>2021-05-29 11:14:38</time>
      </trkpt>
      <trkpt lat="43.31696" lon="-2.01677">
        <ele>78.4</ele>
        <time>2021-05-29 11:14:39</time>
      </trkpt>
      <trkpt lat="43.31695" lon="-2.01682">
        <ele>78.6</ele>
        <time>2021-05-29 11:14:40</time>
      </trkpt>
      <trkpt lat="43.31695" lon="-2.01686">
        <ele>78.8</ele>
        <time>2021-05-29 11:14:41</time>
      </trkpt>
      <trkpt lat="43.31694" lon="-2.01691">
        <ele>79</ele>
        <time>2021-05-29 11:14:42</time>
      </trkpt>
      <trkpt lat="43.31693" lon="-2.01695">
        <ele>79.4</ele>
        <time>2021-05-29 11:14:43</time>
      </trkpt>
      <trkpt lat="43.31692" lon="-2.017">
        <ele>79.6</ele>
        <time>2021-05-29 11:14:44</time>
      </trkpt>
      <trkpt lat="43.31692" lon="-2.01704">
        <ele>80</ele>
        <time>2021-05-29 11:14:45</time>
      </trkpt>
      <trkpt lat="43.31691" lon="-2.01708">
        <ele>80.2</ele>
        <time>2021-05-29 11:14:46</time>
      </trkpt>
      <trkpt lat="43.31691" lon="-2.01712">
        <ele>80.4</ele>
        <time>2021-05-29 11:14:47</time>
      </trkpt>
      <trkpt lat="43.31691" lon="-2.01715">
        <ele>80.6</ele>
        <time>2021-05-29 11:14:48</time>
      </trkpt>
      <trkpt lat="43.3169" lon="-2.01719">
        <ele>81</ele>
        <time>2021-05-29 11:14:49</time>
      </trkpt>
      <trkpt lat="43.3169" lon="-2.01724">
        <ele>81.2</ele>
        <time>2021-05-29 11:14:50</time>
      </trkpt>
      <trkpt lat="43.31689" lon="-2.01728">
        <ele>81.6</ele>
        <time>2021-05-29 11:14:51</time>
      </trkpt>
      <trkpt lat="43.31688" lon="-2.01732">
        <ele>81.8</ele>
        <time>2021-05-29 11:14:52</time>
      </trkpt>
      <trkpt lat="43.31688" lon="-2.01737">
        <ele>82</ele>
        <time>2021-05-29 11:14:53</time>
      </trkpt>
      <trkpt lat="43.31687" lon="-2.01741">
        <ele>82.4</ele>
        <time>2021-05-29 11:14:54</time>
      </trkpt>
      <trkpt lat="43.31686" lon="-2.01745">
        <ele>82.6</ele>
        <time>2021-05-29 11:14:55</time>
      </trkpt>
      <trkpt lat="43.31686" lon="-2.01749">
        <ele>82.8</ele>
        <time>2021-05-29 11:14:56</time>
      </trkpt>
      <trkpt lat="43.31686" lon="-2.01752">
        <ele>83.2</ele>
        <time>2021-05-29 11:14:57</time>
      </trkpt>
      <trkpt lat="43.31685" lon="-2.01756">
        <ele>83.4</ele>
        <time>2021-05-29 11:14:58</time>
      </trkpt>
      <trkpt lat="43.31685" lon="-2.0176">
        <ele>83.8</ele>
        <time>2021-05-29 11:14:59</time>
      </trkpt>
      <trkpt lat="43.31685" lon="-2.01763">
        <ele>83.8</ele>
        <time>2021-05-29 11:15:00</time>
      </trkpt>
      <trkpt lat="43.31684" lon="-2.01767">
        <ele>84.2</ele>
        <time>2021-05-29 11:15:01</time>
      </trkpt>
      <trkpt lat="43.31684" lon="-2.0177">
        <ele>84.4</ele>
        <time>2021-05-29 11:15:02</time>
      </trkpt>
      <trkpt lat="43.31683" lon="-2.01774">
        <ele>84.6</ele>
        <time>2021-05-29 11:15:03</time>
      </trkpt>
      <trkpt lat="43.31683" lon="-2.01778">
        <ele>85</ele>
        <time>2021-05-29 11:15:04</time>
      </trkpt>
      <trkpt lat="43.31682" lon="-2.01782">
        <ele>85.2</ele>
        <time>2021-05-29 11:15:05</time>
      </trkpt>
      <trkpt lat="43.31681" lon="-2.01786">
        <ele>85.4</ele>
        <time>2021-05-29 11:15:06</time>
      </trkpt>
      <trkpt lat="43.3168" lon="-2.0179">
        <ele>85.6</ele>
        <time>2021-05-29 11:15:07</time>
      </trkpt>
      <trkpt lat="43.3168" lon="-2.01794">
        <ele>85.8</ele>
        <time>2021-05-29 11:15:08</time>
      </trkpt>
      <trkpt lat="43.3168" lon="-2.01797">
        <ele>86.2</ele>
        <time>2021-05-29 11:15:09</time>
      </trkpt>
      <trkpt lat="43.31679" lon="-2.01802">
        <ele>86.6</ele>
        <time>2021-05-29 11:15:10</time>
      </trkpt>
      <trkpt lat="43.31679" lon="-2.01805">
        <ele>87</ele>
        <time>2021-05-29 11:15:11</time>
      </trkpt>
      <trkpt lat="43.31679" lon="-2.01808">
        <ele>87.4</ele>
        <time>2021-05-29 11:15:12</time>
      </trkpt>
      <trkpt lat="43.31679" lon="-2.01811">
        <ele>87.8</ele>
        <time>2021-05-29 11:15:13</time>
      </trkpt>
      <trkpt lat="43.31678" lon="-2.01815">
        <ele>87.8</ele>
        <time>2021-05-29 11:15:14</time>
      </trkpt>
      <trkpt lat="43.31677" lon="-2.0182">
        <ele>88.2</ele>
        <time>2021-05-29 11:15:15</time>
      </trkpt>
      <trkpt lat="43.31677" lon="-2.01825">
        <ele>88.4</ele>
        <time>2021-05-29 11:15:16</time>
      </trkpt>
      <trkpt lat="43.31677" lon="-2.01829">
        <ele>88.8</ele>
        <time>2021-05-29 11:15:17</time>
      </trkpt>
      <trkpt lat="43.31677" lon="-2.01833">
        <ele>89</ele>
        <time>2021-05-29 11:15:18</time>
      </trkpt>
      <trkpt lat="43.31679" lon="-2.01836">
        <ele>89.2</ele>
        <time>2021-05-29 11:15:19</time>
      </trkpt>
      <trkpt lat="43.31681" lon="-2.01839">
        <ele>89.6</ele>
        <time>2021-05-29 11:15:20</time>
      </trkpt>
      <trkpt lat="43.31683" lon="-2.01841">
        <ele>89.8</ele>
        <time>2021-05-29 11:15:21</time>
      </trkpt>
      <trkpt lat="43.31685" lon="-2.01843">
        <ele>90.2</ele>
        <time>2021-05-29 11:15:22</time>
      </trkpt>
      <trkpt lat="43.31687" lon="-2.01843">
        <ele>90.6</ele>
        <time>2021-05-29 11:15:23</time>
      </trkpt>
      <trkpt lat="43.3169" lon="-2.01843">
        <ele>90.8</ele>
        <time>2021-05-29 11:15:24</time>
      </trkpt>
      <trkpt lat="43.31692" lon="-2.01842">
        <ele>91.2</ele>
        <time>2021-05-29 11:15:25</time>
      </trkpt>
      <trkpt lat="43.31694" lon="-2.01841">
        <ele>91.6</ele>
        <time>2021-05-29 11:15:26</time>
      </trkpt>
      <trkpt lat="43.31695" lon="-2.01838">
        <ele>92</ele>
        <time>2021-05-29 11:15:27</time>
      </trkpt>
      <trkpt lat="43.31697" lon="-2.01835">
        <ele>92.2</ele>
        <time>2021-05-29 11:15:28</time>
      </trkpt>
      <trkpt lat="43.31699" lon="-2.01831">
        <ele>92.6</ele>
        <time>2021-05-29 11:15:29</time>
      </trkpt>
      <trkpt lat="43.31699" lon="-2.01828">
        <ele>93</ele>
        <time>2021-05-29 11:15:30</time>
      </trkpt>
      <trkpt lat="43.317" lon="-2.01824">
        <ele>93.2</ele>
        <time>2021-05-29 11:15:31</time>
      </trkpt>
      <trkpt lat="43.31699" lon="-2.0182">
        <ele>93.4</ele>
        <time>2021-05-29 11:15:32</time>
      </trkpt>
      <trkpt lat="43.31699" lon="-2.01817">
        <ele>93.6</ele>
        <time>2021-05-29 11:15:33</time>
      </trkpt>
      <trkpt lat="43.31699" lon="-2.01813">
        <ele>93.8</ele>
        <time>2021-05-29 11:15:34</time>
      </trkpt>
      <trkpt lat="43.31698" lon="-2.01808">
        <ele>94.2</ele>
        <time>2021-05-29 11:15:35</time>
      </trkpt>
      <trkpt lat="43.31699" lon="-2.01804">
        <ele>94.4</ele>
        <time>2021-05-29 11:15:36</time>
      </trkpt>
      <trkpt lat="43.317" lon="-2.018">
        <ele>94.6</ele>
        <time>2021-05-29 11:15:37</time>
      </trkpt>
      <trkpt lat="43.31701" lon="-2.01796">
        <ele>94.6</ele>
        <time>2021-05-29 11:15:38</time>
      </trkpt>
      <trkpt lat="43.31702" lon="-2.01792">
        <ele>95</ele>
        <time>2021-05-29 11:15:39</time>
      </trkpt>
      <trkpt lat="43.31703" lon="-2.01788">
        <ele>95</ele>
        <time>2021-05-29 11:15:40</time>
      </trkpt>
      <trkpt lat="43.31704" lon="-2.01785">
        <ele>95.2</ele>
        <time>2021-05-29 11:15:41</time>
      </trkpt>
      <trkpt lat="43.31705" lon="-2.01781">
        <ele>95.6</ele>
        <time>2021-05-29 11:15:42</time>
      </trkpt>
      <trkpt lat="43.31706" lon="-2.01776">
        <ele>95.8</ele>
        <time>2021-05-29 11:15:43</time>
      </trkpt>
      <trkpt lat="43.31709" lon="-2.01772">
        <ele>96</ele>
        <time>2021-05-29 11:15:44</time>
      </trkpt>
      <trkpt lat="43.3171" lon="-2.01768">
        <ele>96.2</ele>
        <time>2021-05-29 11:15:45</time>
      </trkpt>
      <trkpt lat="43.31712" lon="-2.01765">
        <ele>96.8</ele>
        <time>2021-05-29 11:15:46</time>
      </trkpt>
      <trkpt lat="43.31714" lon="-2.0176">
        <ele>97.2</ele>
        <time>2021-05-29 11:15:47</time>
      </trkpt>
      <trkpt lat="43.31715" lon="-2.01755">
        <ele>97.4</ele>
        <time>2021-05-29 11:15:48</time>
      </trkpt>
      <trkpt lat="43.31717" lon="-2.01751">
        <ele>97.8</ele>
        <time>2021-05-29 11:15:49</time>
      </trkpt>
      <trkpt lat="43.31717" lon="-2.01746">
        <ele>98</ele>
        <time>2021-05-29 11:15:50</time>
      </trkpt>
      <trkpt lat="43.31719" lon="-2.01741">
        <ele>98.2</ele>
        <time>2021-05-29 11:15:51</time>
      </trkpt>
      <trkpt lat="43.3172" lon="-2.01735">
        <ele>98.6</ele>
        <time>2021-05-29 11:15:52</time>
      </trkpt>
      <trkpt lat="43.3172" lon="-2.01729">
        <ele>98.6</ele>
        <time>2021-05-29 11:15:53</time>
      </trkpt>
      <trkpt lat="43.31723" lon="-2.01725">
        <ele>98.8</ele>
        <time>2021-05-29 11:15:54</time>
      </trkpt>
      <trkpt lat="43.31724" lon="-2.0172">
        <ele>99</ele>
        <time>2021-05-29 11:15:55</time>
      </trkpt>
      <trkpt lat="43.31727" lon="-2.01716">
        <ele>99.2</ele>
        <time>2021-05-29 11:15:56</time>
      </trkpt>
      <trkpt lat="43.31729" lon="-2.01711">
        <ele>99.4</ele>
        <time>2021-05-29 11:15:57</time>
      </trkpt>
      <trkpt lat="43.31731" lon="-2.01706">
        <ele>99.6</ele>
        <time>2021-05-29 11:15:58</time>
      </trkpt>
      <trkpt lat="43.31733" lon="-2.01701">
        <ele>99.8</ele>
        <time>2021-05-29 11:15:59</time>
      </trkpt>
      <trkpt lat="43.31735" lon="-2.01696">
        <ele>100.2</ele>
        <time>2021-05-29 11:16:00</time>
      </trkpt>
      <trkpt lat="43.31737" lon="-2.01691">
        <ele>100.4</ele>
        <time>2021-05-29 11:16:01</time>
      </trkpt>
      <trkpt lat="43.31739" lon="-2.01686">
        <ele>100.4</ele>
        <time>2021-05-29 11:16:02</time>
      </trkpt>
      <trkpt lat="43.31741" lon="-2.01682">
        <ele>100.6</ele>
        <time>2021-05-29 11:16:03</time>
      </trkpt>
      <trkpt lat="43.31743" lon="-2.01678">
        <ele>100.8</ele>
        <time>2021-05-29 11:16:04</time>
      </trkpt>
      <trkpt lat="43.31745" lon="-2.01674">
        <ele>101</ele>
        <time>2021-05-29 11:16:05</time>
      </trkpt>
      <trkpt lat="43.31747" lon="-2.01669">
        <ele>101.4</ele>
        <time>2021-05-29 11:16:06</time>
      </trkpt>
      <trkpt lat="43.3175" lon="-2.01664">
        <ele>101.6</ele>
        <time>2021-05-29 11:16:07</time>
      </trkpt>
      <trkpt lat="43.31752" lon="-2.0166">
        <ele>101.6</ele>
        <time>2021-05-29 11:16:08</time>
      </trkpt>
      <trkpt lat="43.31755" lon="-2.01656">
        <ele>102</ele>
        <time>2021-05-29 11:16:09</time>
      </trkpt>
      <trkpt lat="43.31757" lon="-2.01652">
        <ele>102.2</ele>
        <time>2021-05-29 11:16:10</time>
      </trkpt>
      <trkpt lat="43.3176" lon="-2.01648">
        <ele>102.4</ele>
        <time>2021-05-29 11:16:11</time>
      </trkpt>
      <trkpt lat="43.31763" lon="-2.01644">
        <ele>102.6</ele>
        <time>2021-05-29 11:16:12</time>
      </trkpt>
      <trkpt lat="43.31766" lon="-2.01641">
        <ele>102.8</ele>
        <time>2021-05-29 11:16:13</time>
      </trkpt>
      <trkpt lat="43.31769" lon="-2.01638">
        <ele>103</ele>
        <time>2021-05-29 11:16:14</time>
      </trkpt>
      <trkpt lat="43.31773" lon="-2.01635">
        <ele>103</ele>
        <time>2021-05-29 11:16:15</time>
      </trkpt>
      <trkpt lat="43.31776" lon="-2.01633">
        <ele>103.2</ele>
        <time>2021-05-29 11:16:16</time>
      </trkpt>
      <trkpt lat="43.3178" lon="-2.01632">
        <ele>103.4</ele>
        <time>2021-05-29 11:16:17</time>
      </trkpt>
      <trkpt lat="43.31783" lon="-2.0163">
        <ele>103.6</ele>
        <time>2021-05-29 11:16:18</time>
      </trkpt>
      <trkpt lat="43.31787" lon="-2.01629">
        <ele>104</ele>
        <time>2021-05-29 11:16:19</time>
      </trkpt>
      <trkpt lat="43.3179" lon="-2.01628">
        <ele>104</ele>
        <time>2021-05-29 11:16:20</time>
      </trkpt>
      <trkpt lat="43.31794" lon="-2.01628">
        <ele>104.6</ele>
        <time>2021-05-29 11:16:21</time>
      </trkpt>
      <trkpt lat="43.31797" lon="-2.01627">
        <ele>104.8</ele>
        <time>2021-05-29 11:16:22</time>
      </trkpt>
      <trkpt lat="43.31801" lon="-2.01627">
        <ele>105.2</ele>
        <time>2021-05-29 11:16:23</time>
      </trkpt>
      <trkpt lat="43.31804" lon="-2.01628">
        <ele>105.6</ele>
        <time>2021-05-29 11:16:24</time>
      </trkpt>
      <trkpt lat="43.31808" lon="-2.01628">
        <ele>105.8</ele>
        <time>2021-05-29 11:16:25</time>
      </trkpt>
      <trkpt lat="43.31811" lon="-2.0163">
        <ele>106</ele>
        <time>2021-05-29 11:16:26</time>
      </trkpt>
      <trkpt lat="43.31814" lon="-2.01631">
        <ele>106.4</ele>
        <time>2021-05-29 11:16:27</time>
      </trkpt>
      <trkpt lat="43.31818" lon="-2.01633">
        <ele>106.6</ele>
        <time>2021-05-29 11:16:28</time>
      </trkpt>
      <trkpt lat="43.31821" lon="-2.01636">
        <ele>106.8</ele>
        <time>2021-05-29 11:16:29</time>
      </trkpt>
      <trkpt lat="43.31824" lon="-2.01638">
        <ele>107.2</ele>
        <time>2021-05-29 11:16:30</time>
      </trkpt>
      <trkpt lat="43.31827" lon="-2.01641">
        <ele>107.4</ele>
        <time>2021-05-29 11:16:31</time>
      </trkpt>
      <trkpt lat="43.3183" lon="-2.01643">
        <ele>107.6</ele>
        <time>2021-05-29 11:16:32</time>
      </trkpt>
      <trkpt lat="43.31833" lon="-2.01646">
        <ele>108</ele>
        <time>2021-05-29 11:16:33</time>
      </trkpt>
      <trkpt lat="43.31836" lon="-2.01649">
        <ele>108.2</ele>
        <time>2021-05-29 11:16:34</time>
      </trkpt>
      <trkpt lat="43.31839" lon="-2.01652">
        <ele>108.4</ele>
        <time>2021-05-29 11:16:35</time>
      </trkpt>
      <trkpt lat="43.31842" lon="-2.01655">
        <ele>108.6</ele>
        <time>2021-05-29 11:16:36</time>
      </trkpt>
      <trkpt lat="43.31845" lon="-2.01658">
        <ele>108.8</ele>
        <time>2021-05-29 11:16:37</time>
      </trkpt>
      <trkpt lat="43.31848" lon="-2.01661">
        <ele>109.2</ele>
        <time>2021-05-29 11:16:38</time>
      </trkpt>
      <trkpt lat="43.3185" lon="-2.01663">
        <ele>109.4</ele>
        <time>2021-05-29 11:16:39</time>
      </trkpt>
      <trkpt lat="43.31853" lon="-2.01666">
        <ele>109.6</ele>
        <time>2021-05-29 11:16:40</time>
      </trkpt>
      <trkpt lat="43.31856" lon="-2.01669">
        <ele>109.8</ele>
        <time>2021-05-29 11:16:41</time>
      </trkpt>
      <trkpt lat="43.31859" lon="-2.01672">
        <ele>110.2</ele>
        <time>2021-05-29 11:16:42</time>
      </trkpt>
      <trkpt lat="43.31861" lon="-2.01674">
        <ele>110.4</ele>
        <time>2021-05-29 11:16:43</time>
      </trkpt>
      <trkpt lat="43.31864" lon="-2.01676">
        <ele>110.6</ele>
        <time>2021-05-29 11:16:44</time>
      </trkpt>
      <trkpt lat="43.31867" lon="-2.01679">
        <ele>110.8</ele>
        <time>2021-05-29 11:16:45</time>
      </trkpt>
      <trkpt lat="43.31869" lon="-2.01681">
        <ele>111</ele>
        <time>2021-05-29 11:16:46</time>
      </trkpt>
      <trkpt lat="43.31872" lon="-2.01683">
        <ele>111.4</ele>
        <time>2021-05-29 11:16:47</time>
      </trkpt>
      <trkpt lat="43.31875" lon="-2.01686">
        <ele>111.6</ele>
        <time>2021-05-29 11:16:48</time>
      </trkpt>
      <trkpt lat="43.31877" lon="-2.01689">
        <ele>111.8</ele>
        <time>2021-05-29 11:16:49</time>
      </trkpt>
      <trkpt lat="43.31879" lon="-2.01692">
        <ele>112</ele>
        <time>2021-05-29 11:16:50</time>
      </trkpt>
      <trkpt lat="43.31882" lon="-2.01694">
        <ele>112.2</ele>
        <time>2021-05-29 11:16:51</time>
      </trkpt>
      <trkpt lat="43.31885" lon="-2.01698">
        <ele>112.2</ele>
        <time>2021-05-29 11:16:52</time>
      </trkpt>
      <trkpt lat="43.31888" lon="-2.017">
        <ele>112.6</ele>
        <time>2021-05-29 11:16:53</time>
      </trkpt>
      <trkpt lat="43.31891" lon="-2.01703">
        <ele>112.8</ele>
        <time>2021-05-29 11:16:54</time>
      </trkpt>
      <trkpt lat="43.31893" lon="-2.01706">
        <ele>113.2</ele>
        <time>2021-05-29 11:16:55</time>
      </trkpt>
      <trkpt lat="43.31896" lon="-2.01709">
        <ele>113.4</ele>
        <time>2021-05-29 11:16:56</time>
      </trkpt>
      <trkpt lat="43.31899" lon="-2.01711">
        <ele>113.6</ele>
        <time>2021-05-29 11:16:57</time>
      </trkpt>
      <trkpt lat="43.31901" lon="-2.01714">
        <ele>114</ele>
        <time>2021-05-29 11:16:58</time>
      </trkpt>
      <trkpt lat="43.31904" lon="-2.01717">
        <ele>114.2</ele>
        <time>2021-05-29 11:16:59</time>
      </trkpt>
      <trkpt lat="43.31907" lon="-2.01719">
        <ele>114.6</ele>
        <time>2021-05-29 11:17:00</time>
      </trkpt>
      <trkpt lat="43.3191" lon="-2.01722">
        <ele>114.8</ele>
        <time>2021-05-29 11:17:01</time>
      </trkpt>
      <trkpt lat="43.31913" lon="-2.01725">
        <ele>115</ele>
        <time>2021-05-29 11:17:02</time>
      </trkpt>
      <trkpt lat="43.31915" lon="-2.01728">
        <ele>115.4</ele>
        <time>2021-05-29 11:17:03</time>
      </trkpt>
      <trkpt lat="43.31917" lon="-2.0173">
        <ele>115.6</ele>
        <time>2021-05-29 11:17:04</time>
      </trkpt>
      <trkpt lat="43.31919" lon="-2.01734">
        <ele>116</ele>
        <time>2021-05-29 11:17:05</time>
      </trkpt>
      <trkpt lat="43.31921" lon="-2.01737">
        <ele>116.2</ele>
        <time>2021-05-29 11:17:06</time>
      </trkpt>
      <trkpt lat="43.31922" lon="-2.01741">
        <ele>116.6</ele>
        <time>2021-05-29 11:17:07</time>
      </trkpt>
      <trkpt lat="43.31923" lon="-2.01746">
        <ele>116.8</ele>
        <time>2021-05-29 11:17:08</time>
      </trkpt>
      <trkpt lat="43.31923" lon="-2.0175">
        <ele>117</ele>
        <time>2021-05-29 11:17:09</time>
      </trkpt>
      <trkpt lat="43.31923" lon="-2.01754">
        <ele>117.4</ele>
        <time>2021-05-29 11:17:10</time>
      </trkpt>
      <trkpt lat="43.31923" lon="-2.01758">
        <ele>117.6</ele>
        <time>2021-05-29 11:17:11</time>
      </trkpt>
      <trkpt lat="43.31921" lon="-2.01762">
        <ele>118</ele>
        <time>2021-05-29 11:17:12</time>
      </trkpt>
      <trkpt lat="43.31919" lon="-2.01767">
        <ele>118.2</ele>
        <time>2021-05-29 11:17:13</time>
      </trkpt>
      <trkpt lat="43.31917" lon="-2.01771">
        <ele>118.6</ele>
        <time>2021-05-29 11:17:14</time>
      </trkpt>
      <trkpt lat="43.31914" lon="-2.01774">
        <ele>119</ele>
        <time>2021-05-29 11:17:15</time>
      </trkpt>
      <trkpt lat="43.31911" lon="-2.01778">
        <ele>119.2</ele>
        <time>2021-05-29 11:17:16</time>
      </trkpt>
      <trkpt lat="43.31908" lon="-2.01781">
        <ele>119.4</ele>
        <time>2021-05-29 11:17:17</time>
      </trkpt>
      <trkpt lat="43.31905" lon="-2.01785">
        <ele>119.8</ele>
        <time>2021-05-29 11:17:18</time>
      </trkpt>
      <trkpt lat="43.31903" lon="-2.01789">
        <ele>120</ele>
        <time>2021-05-29 11:17:19</time>
      </trkpt>
      <trkpt lat="43.319" lon="-2.01792">
        <ele>120.2</ele>
        <time>2021-05-29 11:17:20</time>
      </trkpt>
      <trkpt lat="43.31897" lon="-2.01796">
        <ele>120.4</ele>
        <time>2021-05-29 11:17:21</time>
      </trkpt>
      <trkpt lat="43.31895" lon="-2.018">
        <ele>120.6</ele>
        <time>2021-05-29 11:17:22</time>
      </trkpt>
      <trkpt lat="43.31892" lon="-2.01804">
        <ele>120.8</ele>
        <time>2021-05-29 11:17:23</time>
      </trkpt>
      <trkpt lat="43.31889" lon="-2.01807">
        <ele>120.8</ele>
        <time>2021-05-29 11:17:24</time>
      </trkpt>
      <trkpt lat="43.31886" lon="-2.01812">
        <ele>121</ele>
        <time>2021-05-29 11:17:25</time>
      </trkpt>
      <trkpt lat="43.31884" lon="-2.01816">
        <ele>121.4</ele>
        <time>2021-05-29 11:17:26</time>
      </trkpt>
      <trkpt lat="43.31882" lon="-2.01821">
        <ele>121.6</ele>
        <time>2021-05-29 11:17:27</time>
      </trkpt>
      <trkpt lat="43.3188" lon="-2.01826">
        <ele>122</ele>
        <time>2021-05-29 11:17:28</time>
      </trkpt>
      <trkpt lat="43.31878" lon="-2.01831">
        <ele>122.4</ele>
        <time>2021-05-29 11:17:29</time>
      </trkpt>
      <trkpt lat="43.31876" lon="-2.01836">
        <ele>122.6</ele>
        <time>2021-05-29 11:17:30</time>
      </trkpt>
      <trkpt lat="43.31875" lon="-2.01841">
        <ele>123</ele>
        <time>2021-05-29 11:17:31</time>
      </trkpt>
      <trkpt lat="43.31874" lon="-2.01846">
        <ele>123.2</ele>
        <time>2021-05-29 11:17:32</time>
      </trkpt>
      <trkpt lat="43.31873" lon="-2.01851">
        <ele>123.6</ele>
        <time>2021-05-29 11:17:33</time>
      </trkpt>
      <trkpt lat="43.31874" lon="-2.01856">
        <ele>123.8</ele>
        <time>2021-05-29 11:17:34</time>
      </trkpt>
      <trkpt lat="43.31873" lon="-2.01862">
        <ele>124.2</ele>
        <time>2021-05-29 11:17:35</time>
      </trkpt>
      <trkpt lat="43.31874" lon="-2.01867">
        <ele>124.6</ele>
        <time>2021-05-29 11:17:36</time>
      </trkpt>
      <trkpt lat="43.31874" lon="-2.01872">
        <ele>124.8</ele>
        <time>2021-05-29 11:17:37</time>
      </trkpt>
      <trkpt lat="43.31875" lon="-2.01877">
        <ele>125.2</ele>
        <time>2021-05-29 11:17:38</time>
      </trkpt>
      <trkpt lat="43.31876" lon="-2.01881">
        <ele>125.4</ele>
        <time>2021-05-29 11:17:39</time>
      </trkpt>
      <trkpt lat="43.31877" lon="-2.01885">
        <ele>125.8</ele>
        <time>2021-05-29 11:17:40</time>
      </trkpt>
      <trkpt lat="43.31879" lon="-2.01889">
        <ele>126</ele>
        <time>2021-05-29 11:17:41</time>
      </trkpt>
      <trkpt lat="43.31879" lon="-2.01894">
        <ele>126.2</ele>
        <time>2021-05-29 11:17:42</time>
      </trkpt>
      <trkpt lat="43.31879" lon="-2.01899">
        <ele>126.4</ele>
        <time>2021-05-29 11:17:43</time>
      </trkpt>
      <trkpt lat="43.31879" lon="-2.01903">
        <ele>126.6</ele>
        <time>2021-05-29 11:17:44</time>
      </trkpt>
      <trkpt lat="43.31879" lon="-2.01907">
        <ele>127</ele>
        <time>2021-05-29 11:17:45</time>
      </trkpt>
      <trkpt lat="43.3188" lon="-2.01911">
        <ele>127.2</ele>
        <time>2021-05-29 11:17:46</time>
      </trkpt>
      <trkpt lat="43.3188" lon="-2.01914">
        <ele>127.6</ele>
        <time>2021-05-29 11:17:47</time>
      </trkpt>
      <trkpt lat="43.31879" lon="-2.01919">
        <ele>128</ele>
        <time>2021-05-29 11:17:48</time>
      </trkpt>
      <trkpt lat="43.31879" lon="-2.01924">
        <ele>128.4</ele>
        <time>2021-05-29 11:17:49</time>
      </trkpt>
      <trkpt lat="43.31879" lon="-2.01929">
        <ele>128.8</ele>
        <time>2021-05-29 11:17:50</time>
      </trkpt>
      <trkpt lat="43.3188" lon="-2.01934">
        <ele>129</ele>
        <time>2021-05-29 11:17:51</time>
      </trkpt>
      <trkpt lat="43.3188" lon="-2.01939">
        <ele>129.4</ele>
        <time>2021-05-29 11:17:52</time>
      </trkpt>
      <trkpt lat="43.3188" lon="-2.01944">
        <ele>129.6</ele>
        <time>2021-05-29 11:17:53</time>
      </trkpt>
      <trkpt lat="43.31881" lon="-2.01948">
        <ele>129.8</ele>
        <time>2021-05-29 11:17:54</time>
      </trkpt>
      <trkpt lat="43.3188" lon="-2.01953">
        <ele>130.2</ele>
        <time>2021-05-29 11:17:55</time>
      </trkpt>
      <trkpt lat="43.31879" lon="-2.01958">
        <ele>130.2</ele>
        <time>2021-05-29 11:17:56</time>
      </trkpt>
      <trkpt lat="43.31877" lon="-2.01963">
        <ele>130.6</ele>
        <time>2021-05-29 11:17:57</time>
      </trkpt>
      <trkpt lat="43.31874" lon="-2.01968">
        <ele>131</ele>
        <time>2021-05-29 11:17:58</time>
      </trkpt>
      <trkpt lat="43.31871" lon="-2.01972">
        <ele>131.2</ele>
        <time>2021-05-29 11:17:59</time>
      </trkpt>
      <trkpt lat="43.31868" lon="-2.01977">
        <ele>131.4</ele>
        <time>2021-05-29 11:18:00</time>
      </trkpt>
      <trkpt lat="43.31865" lon="-2.01981">
        <ele>131.8</ele>
        <time>2021-05-29 11:18:01</time>
      </trkpt>
      <trkpt lat="43.31862" lon="-2.01985">
        <ele>132</ele>
        <time>2021-05-29 11:18:02</time>
      </trkpt>
      <trkpt lat="43.31859" lon="-2.01989">
        <ele>132</ele>
        <time>2021-05-29 11:18:03</time>
      </trkpt>
      <trkpt lat="43.31856" lon="-2.01993">
        <ele>132.8</ele>
        <time>2021-05-29 11:18:04</time>
      </trkpt>
      <trkpt lat="43.31852" lon="-2.01996">
        <ele>133</ele>
        <time>2021-05-29 11:18:05</time>
      </trkpt>
      <trkpt lat="43.31849" lon="-2.01999">
        <ele>133.2</ele>
        <time>2021-05-29 11:18:06</time>
      </trkpt>
      <trkpt lat="43.31846" lon="-2.02002">
        <ele>133.2</ele>
        <time>2021-05-29 11:18:07</time>
      </trkpt>
      <trkpt lat="43.31842" lon="-2.02005">
        <ele>133.8</ele>
        <time>2021-05-29 11:18:08</time>
      </trkpt>
      <trkpt lat="43.31839" lon="-2.02009">
        <ele>134.2</ele>
        <time>2021-05-29 11:18:09</time>
      </trkpt>
      <trkpt lat="43.31835" lon="-2.02013">
        <ele>134.6</ele>
        <time>2021-05-29 11:18:10</time>
      </trkpt>
      <trkpt lat="43.31832" lon="-2.02017">
        <ele>134.6</ele>
        <time>2021-05-29 11:18:11</time>
      </trkpt>
      <trkpt lat="43.31829" lon="-2.02021">
        <ele>135.2</ele>
        <time>2021-05-29 11:18:12</time>
      </trkpt>
      <trkpt lat="43.31825" lon="-2.02025">
        <ele>135.8</ele>
        <time>2021-05-29 11:18:13</time>
      </trkpt>
      <trkpt lat="43.31822" lon="-2.02028">
        <ele>136</ele>
        <time>2021-05-29 11:18:14</time>
      </trkpt>
      <trkpt lat="43.31819" lon="-2.02032">
        <ele>136.4</ele>
        <time>2021-05-29 11:18:15</time>
      </trkpt>
      <trkpt lat="43.31816" lon="-2.02035">
        <ele>136.8</ele>
        <time>2021-05-29 11:18:16</time>
      </trkpt>
      <trkpt lat="43.31813" lon="-2.02038">
        <ele>137</ele>
        <time>2021-05-29 11:18:17</time>
      </trkpt>
      <trkpt lat="43.31809" lon="-2.02042">
        <ele>137.2</ele>
        <time>2021-05-29 11:18:18</time>
      </trkpt>
      <trkpt lat="43.31806" lon="-2.02045">
        <ele>137.4</ele>
        <time>2021-05-29 11:18:19</time>
      </trkpt>
      <trkpt lat="43.31802" lon="-2.02048">
        <ele>137.6</ele>
        <time>2021-05-29 11:18:20</time>
      </trkpt>
      <trkpt lat="43.31799" lon="-2.02051">
        <ele>138.2</ele>
        <time>2021-05-29 11:18:21</time>
      </trkpt>
      <trkpt lat="43.31796" lon="-2.02054">
        <ele>138.6</ele>
        <time>2021-05-29 11:18:22</time>
      </trkpt>
      <trkpt lat="43.31793" lon="-2.02057">
        <ele>138.8</ele>
        <time>2021-05-29 11:18:23</time>
      </trkpt>
      <trkpt lat="43.3179" lon="-2.0206">
        <ele>139.2</ele>
        <time>2021-05-29 11:18:24</time>
      </trkpt>
      <trkpt lat="43.31787" lon="-2.02063">
        <ele>139.6</ele>
        <time>2021-05-29 11:18:25</time>
      </trkpt>
      <trkpt lat="43.31784" lon="-2.02066">
        <ele>140</ele>
        <time>2021-05-29 11:18:26</time>
      </trkpt>
      <trkpt lat="43.31781" lon="-2.02068">
        <ele>140.2</ele>
        <time>2021-05-29 11:18:27</time>
      </trkpt>
      <trkpt lat="43.31778" lon="-2.02071">
        <ele>140.4</ele>
        <time>2021-05-29 11:18:28</time>
      </trkpt>
      <trkpt lat="43.31775" lon="-2.02074">
        <ele>140.8</ele>
        <time>2021-05-29 11:18:29</time>
      </trkpt>
      <trkpt lat="43.31772" lon="-2.02077">
        <ele>141.2</ele>
        <time>2021-05-29 11:18:30</time>
      </trkpt>
      <trkpt lat="43.31769" lon="-2.0208">
        <ele>141.4</ele>
        <time>2021-05-29 11:18:31</time>
      </trkpt>
      <trkpt lat="43.31766" lon="-2.02082">
        <ele>141.8</ele>
        <time>2021-05-29 11:18:32</time>
      </trkpt>
      <trkpt lat="43.31764" lon="-2.02085">
        <ele>142</ele>
        <time>2021-05-29 11:18:33</time>
      </trkpt>
      <trkpt lat="43.31761" lon="-2.02088">
        <ele>142.4</ele>
        <time>2021-05-29 11:18:34</time>
      </trkpt>
      <trkpt lat="43.31758" lon="-2.02091">
        <ele>142.6</ele>
        <time>2021-05-29 11:18:35</time>
      </trkpt>
      <trkpt lat="43.31756" lon="-2.02094">
        <ele>143</ele>
        <time>2021-05-29 11:18:36</time>
      </trkpt>
      <trkpt lat="43.31753" lon="-2.02096">
        <ele>143.2</ele>
        <time>2021-05-29 11:18:37</time>
      </trkpt>
      <trkpt lat="43.3175" lon="-2.02099">
        <ele>143.6</ele>
        <time>2021-05-29 11:18:38</time>
      </trkpt>
      <trkpt lat="43.31747" lon="-2.02101">
        <ele>143.8</ele>
        <time>2021-05-29 11:18:39</time>
      </trkpt>
      <trkpt lat="43.31745" lon="-2.02102">
        <ele>144</ele>
        <time>2021-05-29 11:18:40</time>
      </trkpt>
      <trkpt lat="43.31742" lon="-2.02104">
        <ele>144.4</ele>
        <time>2021-05-29 11:18:41</time>
      </trkpt>
      <trkpt lat="43.31739" lon="-2.02105">
        <ele>144.8</ele>
        <time>2021-05-29 11:18:42</time>
      </trkpt>
      <trkpt lat="43.31736" lon="-2.02107">
        <ele>145</ele>
        <time>2021-05-29 11:18:43</time>
      </trkpt>
      <trkpt lat="43.31733" lon="-2.02109">
        <ele>145.4</ele>
        <time>2021-05-29 11:18:44</time>
      </trkpt>
      <trkpt lat="43.3173" lon="-2.02111">
        <ele>145.6</ele>
        <time>2021-05-29 11:18:45</time>
      </trkpt>
      <trkpt lat="43.31727" lon="-2.02113">
        <ele>145.8</ele>
        <time>2021-05-29 11:18:46</time>
      </trkpt>
      <trkpt lat="43.31724" lon="-2.02114">
        <ele>146.2</ele>
        <time>2021-05-29 11:18:47</time>
      </trkpt>
      <trkpt lat="43.31721" lon="-2.02115">
        <ele>146.6</ele>
        <time>2021-05-29 11:18:48</time>
      </trkpt>
      <trkpt lat="43.31717" lon="-2.02116">
        <ele>147</ele>
        <time>2021-05-29 11:18:49</time>
      </trkpt>
      <trkpt lat="43.31714" lon="-2.02118">
        <ele>147.2</ele>
        <time>2021-05-29 11:18:50</time>
      </trkpt>
      <trkpt lat="43.31711" lon="-2.02121">
        <ele>147.4</ele>
        <time>2021-05-29 11:18:51</time>
      </trkpt>
      <trkpt lat="43.31708" lon="-2.02122">
        <ele>147.4</ele>
        <time>2021-05-29 11:18:52</time>
      </trkpt>
      <trkpt lat="43.31705" lon="-2.02124">
        <ele>147.8</ele>
        <time>2021-05-29 11:18:53</time>
      </trkpt>
      <trkpt lat="43.31702" lon="-2.02126">
        <ele>148.2</ele>
        <time>2021-05-29 11:18:54</time>
      </trkpt>
      <trkpt lat="43.31699" lon="-2.02128">
        <ele>148.6</ele>
        <time>2021-05-29 11:18:55</time>
      </trkpt>
      <trkpt lat="43.31695" lon="-2.02129">
        <ele>149</ele>
        <time>2021-05-29 11:18:56</time>
      </trkpt>
      <trkpt lat="43.31692" lon="-2.02131">
        <ele>149.2</ele>
        <time>2021-05-29 11:18:57</time>
      </trkpt>
      <trkpt lat="43.3169" lon="-2.02133">
        <ele>149.6</ele>
        <time>2021-05-29 11:18:58</time>
      </trkpt>
      <trkpt lat="43.31687" lon="-2.02135">
        <ele>149.8</ele>
        <time>2021-05-29 11:18:59</time>
      </trkpt>
      <trkpt lat="43.31684" lon="-2.02137">
        <ele>150.2</ele>
        <time>2021-05-29 11:19:00</time>
      </trkpt>
      <trkpt lat="43.31681" lon="-2.02139">
        <ele>150.6</ele>
        <time>2021-05-29 11:19:01</time>
      </trkpt>
      <trkpt lat="43.31679" lon="-2.02141">
        <ele>150.8</ele>
        <time>2021-05-29 11:19:02</time>
      </trkpt>
      <trkpt lat="43.31677" lon="-2.02144">
        <ele>151.2</ele>
        <time>2021-05-29 11:19:03</time>
      </trkpt>
      <trkpt lat="43.31676" lon="-2.02146">
        <ele>151.4</ele>
        <time>2021-05-29 11:19:04</time>
      </trkpt>
      <trkpt lat="43.31675" lon="-2.0215">
        <ele>151.6</ele>
        <time>2021-05-29 11:19:05</time>
      </trkpt>
      <trkpt lat="43.31673" lon="-2.02153">
        <ele>152</ele>
        <time>2021-05-29 11:19:06</time>
      </trkpt>
      <trkpt lat="43.31669" lon="-2.02157">
        <ele>152.4</ele>
        <time>2021-05-29 11:19:07</time>
      </trkpt>
      <trkpt lat="43.31667" lon="-2.02162">
        <ele>152.6</ele>
        <time>2021-05-29 11:19:08</time>
      </trkpt>
      <trkpt lat="43.31665" lon="-2.02166">
        <ele>153</ele>
        <time>2021-05-29 11:19:09</time>
      </trkpt>
      <trkpt lat="43.31664" lon="-2.02171">
        <ele>153.4</ele>
        <time>2021-05-29 11:19:10</time>
      </trkpt>
      <trkpt lat="43.31662" lon="-2.02176">
        <ele>153.6</ele>
        <time>2021-05-29 11:19:11</time>
      </trkpt>
      <trkpt lat="43.3166" lon="-2.02181">
        <ele>153.8</ele>
        <time>2021-05-29 11:19:12</time>
      </trkpt>
      <trkpt lat="43.31657" lon="-2.02186">
        <ele>154.4</ele>
        <time>2021-05-29 11:19:13</time>
      </trkpt>
      <trkpt lat="43.31656" lon="-2.0219">
        <ele>155</ele>
        <time>2021-05-29 11:19:14</time>
      </trkpt>
      <trkpt lat="43.31655" lon="-2.02196">
        <ele>155.2</ele>
        <time>2021-05-29 11:19:15</time>
      </trkpt>
      <trkpt lat="43.31653" lon="-2.02201">
        <ele>155.4</ele>
        <time>2021-05-29 11:19:16</time>
      </trkpt>
      <trkpt lat="43.31652" lon="-2.02206">
        <ele>155.6</ele>
        <time>2021-05-29 11:19:17</time>
      </trkpt>
      <trkpt lat="43.3165" lon="-2.02212">
        <ele>155.8</ele>
        <time>2021-05-29 11:19:18</time>
      </trkpt>
      <trkpt lat="43.31648" lon="-2.02217">
        <ele>156</ele>
        <time>2021-05-29 11:19:19</time>
      </trkpt>
      <trkpt lat="43.31646" lon="-2.02222">
        <ele>156.4</ele>
        <time>2021-05-29 11:19:20</time>
      </trkpt>
      <trkpt lat="43.31645" lon="-2.02227">
        <ele>156.6</ele>
        <time>2021-05-29 11:19:21</time>
      </trkpt>
      <trkpt lat="43.31644" lon="-2.02232">
        <ele>157</ele>
        <time>2021-05-29 11:19:22</time>
      </trkpt>
      <trkpt lat="43.31643" lon="-2.02236">
        <ele>157.2</ele>
        <time>2021-05-29 11:19:23</time>
      </trkpt>
      <trkpt lat="43.31642" lon="-2.0224">
        <ele>157.6</ele>
        <time>2021-05-29 11:19:24</time>
      </trkpt>
      <trkpt lat="43.3164" lon="-2.02244">
        <ele>157.6</ele>
        <time>2021-05-29 11:19:25</time>
      </trkpt>
      <trkpt lat="43.31639" lon="-2.02249">
        <ele>157.8</ele>
        <time>2021-05-29 11:19:26</time>
      </trkpt>
      <trkpt lat="43.31637" lon="-2.02255">
        <ele>158</ele>
        <time>2021-05-29 11:19:27</time>
      </trkpt>
      <trkpt lat="43.31635" lon="-2.0226">
        <ele>158.4</ele>
        <time>2021-05-29 11:19:28</time>
      </trkpt>
      <trkpt lat="43.31634" lon="-2.02265">
        <ele>158.6</ele>
        <time>2021-05-29 11:19:29</time>
      </trkpt>
      <trkpt lat="43.31632" lon="-2.0227">
        <ele>158.8</ele>
        <time>2021-05-29 11:19:30</time>
      </trkpt>
      <trkpt lat="43.3163" lon="-2.02275">
        <ele>159</ele>
        <time>2021-05-29 11:19:31</time>
      </trkpt>
      <trkpt lat="43.31629" lon="-2.0228">
        <ele>159.4</ele>
        <time>2021-05-29 11:19:32</time>
      </trkpt>
      <trkpt lat="43.31627" lon="-2.02284">
        <ele>159.8</ele>
        <time>2021-05-29 11:19:33</time>
      </trkpt>
      <trkpt lat="43.31625" lon="-2.02288">
        <ele>160.2</ele>
        <time>2021-05-29 11:19:34</time>
      </trkpt>
      <trkpt lat="43.31623" lon="-2.02293">
        <ele>160.4</ele>
        <time>2021-05-29 11:19:35</time>
      </trkpt>
      <trkpt lat="43.31621" lon="-2.02298">
        <ele>160.6</ele>
        <time>2021-05-29 11:19:36</time>
      </trkpt>
      <trkpt lat="43.31618" lon="-2.02302">
        <ele>160.8</ele>
        <time>2021-05-29 11:19:37</time>
      </trkpt>
      <trkpt lat="43.31615" lon="-2.02307">
        <ele>161</ele>
        <time>2021-05-29 11:19:38</time>
      </trkpt>
      <trkpt lat="43.31612" lon="-2.0231">
        <ele>161.2</ele>
        <time>2021-05-29 11:19:39</time>
      </trkpt>
      <trkpt lat="43.31609" lon="-2.02313">
        <ele>161.4</ele>
        <time>2021-05-29 11:19:40</time>
      </trkpt>
      <trkpt lat="43.31606" lon="-2.02317">
        <ele>161.8</ele>
        <time>2021-05-29 11:19:41</time>
      </trkpt>
      <trkpt lat="43.31602" lon="-2.0232">
        <ele>162</ele>
        <time>2021-05-29 11:19:42</time>
      </trkpt>
      <trkpt lat="43.31598" lon="-2.02323">
        <ele>162.2</ele>
        <time>2021-05-29 11:19:43</time>
      </trkpt>
      <trkpt lat="43.31594" lon="-2.02326">
        <ele>162.4</ele>
        <time>2021-05-29 11:19:44</time>
      </trkpt>
      <trkpt lat="43.3159" lon="-2.0233">
        <ele>162.8</ele>
        <time>2021-05-29 11:19:45</time>
      </trkpt>
      <trkpt lat="43.31586" lon="-2.02333">
        <ele>163</ele>
        <time>2021-05-29 11:19:46</time>
      </trkpt>
      <trkpt lat="43.31583" lon="-2.02337">
        <ele>163.4</ele>
        <time>2021-05-29 11:19:47</time>
      </trkpt>
      <trkpt lat="43.31579" lon="-2.02341">
        <ele>163.6</ele>
        <time>2021-05-29 11:19:48</time>
      </trkpt>
      <trkpt lat="43.31576" lon="-2.02344">
        <ele>164</ele>
        <time>2021-05-29 11:19:49</time>
      </trkpt>
      <trkpt lat="43.31573" lon="-2.02348">
        <ele>164.2</ele>
        <time>2021-05-29 11:19:50</time>
      </trkpt>
      <trkpt lat="43.3157" lon="-2.02353">
        <ele>164.6</ele>
        <time>2021-05-29 11:19:51</time>
      </trkpt>
      <trkpt lat="43.31567" lon="-2.02357">
        <ele>164.8</ele>
        <time>2021-05-29 11:19:52</time>
      </trkpt>
      <trkpt lat="43.31564" lon="-2.02362">
        <ele>165</ele>
        <time>2021-05-29 11:19:53</time>
      </trkpt>
      <trkpt lat="43.31562" lon="-2.02367">
        <ele>165.2</ele>
        <time>2021-05-29 11:19:54</time>
      </trkpt>
      <trkpt lat="43.31559" lon="-2.02372">
        <ele>165.4</ele>
        <time>2021-05-29 11:19:55</time>
      </trkpt>
      <trkpt lat="43.31558" lon="-2.02378">
        <ele>165.8</ele>
        <time>2021-05-29 11:19:56</time>
      </trkpt>
      <trkpt lat="43.31556" lon="-2.02384">
        <ele>166</ele>
        <time>2021-05-29 11:19:57</time>
      </trkpt>
      <trkpt lat="43.31555" lon="-2.0239">
        <ele>166.2</ele>
        <time>2021-05-29 11:19:58</time>
      </trkpt>
      <trkpt lat="43.31555" lon="-2.02396">
        <ele>166.4</ele>
        <time>2021-05-29 11:19:59</time>
      </trkpt>
      <trkpt lat="43.31554" lon="-2.02402">
        <ele>166.6</ele>
        <time>2021-05-29 11:20:00</time>
      </trkpt>
      <trkpt lat="43.31553" lon="-2.02407">
        <ele>166.8</ele>
        <time>2021-05-29 11:20:01</time>
      </trkpt>
      <trkpt lat="43.31553" lon="-2.02413">
        <ele>167</ele>
        <time>2021-05-29 11:20:02</time>
      </trkpt>
      <trkpt lat="43.31552" lon="-2.02418">
        <ele>167.2</ele>
        <time>2021-05-29 11:20:03</time>
      </trkpt>
      <trkpt lat="43.31552" lon="-2.02424">
        <ele>167.4</ele>
        <time>2021-05-29 11:20:04</time>
      </trkpt>
      <trkpt lat="43.31552" lon="-2.02429">
        <ele>167.6</ele>
        <time>2021-05-29 11:20:05</time>
      </trkpt>
      <trkpt lat="43.31552" lon="-2.02435">
        <ele>167.8</ele>
        <time>2021-05-29 11:20:06</time>
      </trkpt>
      <trkpt lat="43.31551" lon="-2.02441">
        <ele>168</ele>
        <time>2021-05-29 11:20:07</time>
      </trkpt>
      <trkpt lat="43.3155" lon="-2.02447">
        <ele>168.2</ele>
        <time>2021-05-29 11:20:08</time>
      </trkpt>
      <trkpt lat="43.31547" lon="-2.02453">
        <ele>168.6</ele>
        <time>2021-05-29 11:20:09</time>
      </trkpt>
      <trkpt lat="43.31546" lon="-2.02458">
        <ele>168.8</ele>
        <time>2021-05-29 11:20:10</time>
      </trkpt>
      <trkpt lat="43.31545" lon="-2.02464">
        <ele>168.8</ele>
        <time>2021-05-29 11:20:11</time>
      </trkpt>
      <trkpt lat="43.31544" lon="-2.0247">
        <ele>169</ele>
        <time>2021-05-29 11:20:12</time>
      </trkpt>
      <trkpt lat="43.31544" lon="-2.02476">
        <ele>169.6</ele>
        <time>2021-05-29 11:20:13</time>
      </trkpt>
      <trkpt lat="43.31543" lon="-2.02482">
        <ele>169.8</ele>
        <time>2021-05-29 11:20:14</time>
      </trkpt>
      <trkpt lat="43.31542" lon="-2.02489">
        <ele>169.8</ele>
        <time>2021-05-29 11:20:15</time>
      </trkpt>
      <trkpt lat="43.31539" lon="-2.02495">
        <ele>170.2</ele>
        <time>2021-05-29 11:20:16</time>
      </trkpt>
      <trkpt lat="43.31539" lon="-2.02502">
        <ele>170.4</ele>
        <time>2021-05-29 11:20:17</time>
      </trkpt>
      <trkpt lat="43.31538" lon="-2.02507">
        <ele>170.4</ele>
        <time>2021-05-29 11:20:18</time>
      </trkpt>
      <trkpt lat="43.31538" lon="-2.02514">
        <ele>170.4</ele>
        <time>2021-05-29 11:20:19</time>
      </trkpt>
      <trkpt lat="43.31537" lon="-2.02519">
        <ele>170.8</ele>
        <time>2021-05-29 11:20:20</time>
      </trkpt>
      <trkpt lat="43.31537" lon="-2.02524">
        <ele>171</ele>
        <time>2021-05-29 11:20:21</time>
      </trkpt>
      <trkpt lat="43.31536" lon="-2.0253">
        <ele>171.2</ele>
        <time>2021-05-29 11:20:22</time>
      </trkpt>
      <trkpt lat="43.31536" lon="-2.02536">
        <ele>171.4</ele>
        <time>2021-05-29 11:20:23</time>
      </trkpt>
      <trkpt lat="43.31536" lon="-2.02542">
        <ele>171.6</ele>
        <time>2021-05-29 11:20:24</time>
      </trkpt>
      <trkpt lat="43.31535" lon="-2.02548">
        <ele>171.8</ele>
        <time>2021-05-29 11:20:25</time>
      </trkpt>
      <trkpt lat="43.31535" lon="-2.02554">
        <ele>172.2</ele>
        <time>2021-05-29 11:20:26</time>
      </trkpt>
      <trkpt lat="43.31534" lon="-2.02559">
        <ele>172.4</ele>
        <time>2021-05-29 11:20:27</time>
      </trkpt>
      <trkpt lat="43.31531" lon="-2.02566">
        <ele>172.6</ele>
        <time>2021-05-29 11:20:28</time>
      </trkpt>
      <trkpt lat="43.31529" lon="-2.02572">
        <ele>172.8</ele>
        <time>2021-05-29 11:20:29</time>
      </trkpt>
      <trkpt lat="43.31525" lon="-2.02579">
        <ele>173</ele>
        <time>2021-05-29 11:20:30</time>
      </trkpt>
      <trkpt lat="43.31521" lon="-2.02585">
        <ele>173.4</ele>
        <time>2021-05-29 11:20:31</time>
      </trkpt>
      <trkpt lat="43.31517" lon="-2.02592">
        <ele>173.6</ele>
        <time>2021-05-29 11:20:32</time>
      </trkpt>
      <trkpt lat="43.31513" lon="-2.02598">
        <ele>173.8</ele>
        <time>2021-05-29 11:20:33</time>
      </trkpt>
      <trkpt lat="43.31509" lon="-2.02604">
        <ele>174</ele>
        <time>2021-05-29 11:20:34</time>
      </trkpt>
      <trkpt lat="43.31504" lon="-2.0261">
        <ele>174</ele>
        <time>2021-05-29 11:20:35</time>
      </trkpt>
      <trkpt lat="43.315" lon="-2.02615">
        <ele>174.2</ele>
        <time>2021-05-29 11:20:36</time>
      </trkpt>
      <trkpt lat="43.31497" lon="-2.02621">
        <ele>174.4</ele>
        <time>2021-05-29 11:20:37</time>
      </trkpt>
      <trkpt lat="43.31493" lon="-2.02627">
        <ele>174.6</ele>
        <time>2021-05-29 11:20:38</time>
      </trkpt>
      <trkpt lat="43.3149" lon="-2.02633">
        <ele>174.6</ele>
        <time>2021-05-29 11:20:39</time>
      </trkpt>
      <trkpt lat="43.31486" lon="-2.02639">
        <ele>174.8</ele>
        <time>2021-05-29 11:20:40</time>
      </trkpt>
      <trkpt lat="43.31483" lon="-2.02645">
        <ele>175.2</ele>
        <time>2021-05-29 11:20:41</time>
      </trkpt>
      <trkpt lat="43.31479" lon="-2.02652">
        <ele>175.4</ele>
        <time>2021-05-29 11:20:42</time>
      </trkpt>
      <trkpt lat="43.31476" lon="-2.02659">
        <ele>175.6</ele>
        <time>2021-05-29 11:20:43</time>
      </trkpt>
      <trkpt lat="43.31473" lon="-2.02665">
        <ele>175.8</ele>
        <time>2021-05-29 11:20:44</time>
      </trkpt>
      <trkpt lat="43.3147" lon="-2.02671">
        <ele>176</ele>
        <time>2021-05-29 11:20:45</time>
      </trkpt>
      <trkpt lat="43.31467" lon="-2.02677">
        <ele>176.4</ele>
        <time>2021-05-29 11:20:46</time>
      </trkpt>
      <trkpt lat="43.31464" lon="-2.02683">
        <ele>176.4</ele>
        <time>2021-05-29 11:20:47</time>
      </trkpt>
      <trkpt lat="43.31462" lon="-2.02689">
        <ele>176.6</ele>
        <time>2021-05-29 11:20:48</time>
      </trkpt>
      <trkpt lat="43.31459" lon="-2.02695">
        <ele>176.8</ele>
        <time>2021-05-29 11:20:49</time>
      </trkpt>
      <trkpt lat="43.31457" lon="-2.027">
        <ele>177</ele>
        <time>2021-05-29 11:20:50</time>
      </trkpt>
      <trkpt lat="43.31453" lon="-2.02706">
        <ele>177.2</ele>
        <time>2021-05-29 11:20:51</time>
      </trkpt>
      <trkpt lat="43.31451" lon="-2.02711">
        <ele>177.2</ele>
        <time>2021-05-29 11:20:52</time>
      </trkpt>
      <trkpt lat="43.31448" lon="-2.02716">
        <ele>177.4</ele>
        <time>2021-05-29 11:20:53</time>
      </trkpt>
      <trkpt lat="43.31446" lon="-2.02721">
        <ele>177.6</ele>
        <time>2021-05-29 11:20:54</time>
      </trkpt>
      <trkpt lat="43.31443" lon="-2.02727">
        <ele>177.8</ele>
        <time>2021-05-29 11:20:55</time>
      </trkpt>
      <trkpt lat="43.31441" lon="-2.02733">
        <ele>178.2</ele>
        <time>2021-05-29 11:20:56</time>
      </trkpt>
      <trkpt lat="43.31438" lon="-2.02739">
        <ele>178.8</ele>
        <time>2021-05-29 11:20:57</time>
      </trkpt>
      <trkpt lat="43.31434" lon="-2.02745">
        <ele>179</ele>
        <time>2021-05-29 11:20:58</time>
      </trkpt>
      <trkpt lat="43.31431" lon="-2.02751">
        <ele>179.2</ele>
        <time>2021-05-29 11:20:59</time>
      </trkpt>
      <trkpt lat="43.31428" lon="-2.02757">
        <ele>179.4</ele>
        <time>2021-05-29 11:21:00</time>
      </trkpt>
      <trkpt lat="43.31425" lon="-2.02763">
        <ele>179.6</ele>
        <time>2021-05-29 11:21:01</time>
      </trkpt>
      <trkpt lat="43.31422" lon="-2.0277">
        <ele>179.8</ele>
        <time>2021-05-29 11:21:02</time>
      </trkpt>
      <trkpt lat="43.31419" lon="-2.02777">
        <ele>179.8</ele>
        <time>2021-05-29 11:21:03</time>
      </trkpt>
      <trkpt lat="43.31416" lon="-2.02783">
        <ele>180</ele>
        <time>2021-05-29 11:21:04</time>
      </trkpt>
      <trkpt lat="43.31413" lon="-2.02789">
        <ele>180.2</ele>
        <time>2021-05-29 11:21:05</time>
      </trkpt>
      <trkpt lat="43.31409" lon="-2.02796">
        <ele>180.4</ele>
        <time>2021-05-29 11:21:06</time>
      </trkpt>
      <trkpt lat="43.31407" lon="-2.02802">
        <ele>180.4</ele>
        <time>2021-05-29 11:21:07</time>
      </trkpt>
      <trkpt lat="43.31404" lon="-2.02808">
        <ele>180.6</ele>
        <time>2021-05-29 11:21:08</time>
      </trkpt>
      <trkpt lat="43.31401" lon="-2.02814">
        <ele>180.8</ele>
        <time>2021-05-29 11:21:09</time>
      </trkpt>
      <trkpt lat="43.31397" lon="-2.0282">
        <ele>181</ele>
        <time>2021-05-29 11:21:10</time>
      </trkpt>
      <trkpt lat="43.31394" lon="-2.02825">
        <ele>181.2</ele>
        <time>2021-05-29 11:21:11</time>
      </trkpt>
      <trkpt lat="43.31391" lon="-2.02831">
        <ele>181.4</ele>
        <time>2021-05-29 11:21:12</time>
      </trkpt>
      <trkpt lat="43.31388" lon="-2.02836">
        <ele>181.6</ele>
        <time>2021-05-29 11:21:13</time>
      </trkpt>
      <trkpt lat="43.31385" lon="-2.02842">
        <ele>181.8</ele>
        <time>2021-05-29 11:21:14</time>
      </trkpt>
      <trkpt lat="43.31382" lon="-2.02847">
        <ele>182</ele>
        <time>2021-05-29 11:21:15</time>
      </trkpt>
      <trkpt lat="43.31378" lon="-2.02851">
        <ele>182</ele>
        <time>2021-05-29 11:21:16</time>
      </trkpt>
      <trkpt lat="43.31375" lon="-2.02856">
        <ele>182.2</ele>
        <time>2021-05-29 11:21:17</time>
      </trkpt>
      <trkpt lat="43.31372" lon="-2.02861">
        <ele>182.4</ele>
        <time>2021-05-29 11:21:18</time>
      </trkpt>
      <trkpt lat="43.31368" lon="-2.02865">
        <ele>182.6</ele>
        <time>2021-05-29 11:21:19</time>
      </trkpt>
      <trkpt lat="43.31365" lon="-2.02869">
        <ele>182.8</ele>
        <time>2021-05-29 11:21:20</time>
      </trkpt>
      <trkpt lat="43.31361" lon="-2.02874">
        <ele>183</ele>
        <time>2021-05-29 11:21:21</time>
      </trkpt>
      <trkpt lat="43.31357" lon="-2.02879">
        <ele>183.2</ele>
        <time>2021-05-29 11:21:22</time>
      </trkpt>
      <trkpt lat="43.31354" lon="-2.02883">
        <ele>183.4</ele>
        <time>2021-05-29 11:21:23</time>
      </trkpt>
      <trkpt lat="43.3135" lon="-2.02887">
        <ele>183.8</ele>
        <time>2021-05-29 11:21:24</time>
      </trkpt>
      <trkpt lat="43.31347" lon="-2.02891">
        <ele>184</ele>
        <time>2021-05-29 11:21:25</time>
      </trkpt>
      <trkpt lat="43.31343" lon="-2.02896">
        <ele>184.2</ele>
        <time>2021-05-29 11:21:26</time>
      </trkpt>
      <trkpt lat="43.31339" lon="-2.029">
        <ele>184.4</ele>
        <time>2021-05-29 11:21:27</time>
      </trkpt>
      <trkpt lat="43.31335" lon="-2.02904">
        <ele>184.6</ele>
        <time>2021-05-29 11:21:28</time>
      </trkpt>
      <trkpt lat="43.31331" lon="-2.02908">
        <ele>184.8</ele>
        <time>2021-05-29 11:21:29</time>
      </trkpt>
      <trkpt lat="43.31327" lon="-2.02913">
        <ele>185</ele>
        <time>2021-05-29 11:21:30</time>
      </trkpt>
      <trkpt lat="43.31324" lon="-2.02918">
        <ele>185.6</ele>
        <time>2021-05-29 11:21:31</time>
      </trkpt>
      <trkpt lat="43.3132" lon="-2.02923">
        <ele>185.8</ele>
        <time>2021-05-29 11:21:32</time>
      </trkpt>
      <trkpt lat="43.31316" lon="-2.02928">
        <ele>186</ele>
        <time>2021-05-29 11:21:33</time>
      </trkpt>
      <trkpt lat="43.31313" lon="-2.02933">
        <ele>186.2</ele>
        <time>2021-05-29 11:21:34</time>
      </trkpt>
      <trkpt lat="43.31309" lon="-2.02938">
        <ele>186.4</ele>
        <time>2021-05-29 11:21:35</time>
      </trkpt>
      <trkpt lat="43.31305" lon="-2.02942">
        <ele>186.6</ele>
        <time>2021-05-29 11:21:36</time>
      </trkpt>
      <trkpt lat="43.31301" lon="-2.02947">
        <ele>186.8</ele>
        <time>2021-05-29 11:21:37</time>
      </trkpt>
      <trkpt lat="43.31298" lon="-2.02952">
        <ele>187</ele>
        <time>2021-05-29 11:21:38</time>
      </trkpt>
      <trkpt lat="43.31294" lon="-2.02956">
        <ele>187.2</ele>
        <time>2021-05-29 11:21:39</time>
      </trkpt>
      <trkpt lat="43.31291" lon="-2.02961">
        <ele>187.6</ele>
        <time>2021-05-29 11:21:40</time>
      </trkpt>
      <trkpt lat="43.31287" lon="-2.02966">
        <ele>188</ele>
        <time>2021-05-29 11:21:41</time>
      </trkpt>
      <trkpt lat="43.31284" lon="-2.02971">
        <ele>188.2</ele>
        <time>2021-05-29 11:21:42</time>
      </trkpt>
      <trkpt lat="43.31281" lon="-2.02976">
        <ele>188.2</ele>
        <time>2021-05-29 11:21:43</time>
      </trkpt>
      <trkpt lat="43.31277" lon="-2.02981">
        <ele>188.6</ele>
        <time>2021-05-29 11:21:44</time>
      </trkpt>
      <trkpt lat="43.31274" lon="-2.02986">
        <ele>188.8</ele>
        <time>2021-05-29 11:21:45</time>
      </trkpt>
      <trkpt lat="43.31271" lon="-2.02991">
        <ele>189.2</ele>
        <time>2021-05-29 11:21:46</time>
      </trkpt>
      <trkpt lat="43.31269" lon="-2.02996">
        <ele>189.4</ele>
        <time>2021-05-29 11:21:47</time>
      </trkpt>
      <trkpt lat="43.31266" lon="-2.03002">
        <ele>189.6</ele>
        <time>2021-05-29 11:21:48</time>
      </trkpt>
      <trkpt lat="43.31263" lon="-2.03007">
        <ele>189.8</ele>
        <time>2021-05-29 11:21:49</time>
      </trkpt>
      <trkpt lat="43.3126" lon="-2.03013">
        <ele>190.2</ele>
        <time>2021-05-29 11:21:50</time>
      </trkpt>
      <trkpt lat="43.31257" lon="-2.03019">
        <ele>190.6</ele>
        <time>2021-05-29 11:21:51</time>
      </trkpt>
      <trkpt lat="43.31254" lon="-2.03025">
        <ele>190.8</ele>
        <time>2021-05-29 11:21:52</time>
      </trkpt>
      <trkpt lat="43.31251" lon="-2.03031">
        <ele>191.2</ele>
        <time>2021-05-29 11:21:53</time>
      </trkpt>
      <trkpt lat="43.31248" lon="-2.03037">
        <ele>191.4</ele>
        <time>2021-05-29 11:21:54</time>
      </trkpt>
      <trkpt lat="43.31246" lon="-2.03042">
        <ele>191.8</ele>
        <time>2021-05-29 11:21:55</time>
      </trkpt>
      <trkpt lat="43.31243" lon="-2.03048">
        <ele>192</ele>
        <time>2021-05-29 11:21:56</time>
      </trkpt>
      <trkpt lat="43.3124" lon="-2.03054">
        <ele>192</ele>
        <time>2021-05-29 11:21:57</time>
      </trkpt>
      <trkpt lat="43.31237" lon="-2.0306">
        <ele>192.4</ele>
        <time>2021-05-29 11:21:58</time>
      </trkpt>
      <trkpt lat="43.31234" lon="-2.03065">
        <ele>192.6</ele>
        <time>2021-05-29 11:21:59</time>
      </trkpt>
      <trkpt lat="43.31231" lon="-2.03071">
        <ele>192.6</ele>
        <time>2021-05-29 11:22:00</time>
      </trkpt>
      <trkpt lat="43.31229" lon="-2.03077">
        <ele>192.6</ele>
        <time>2021-05-29 11:22:01</time>
      </trkpt>
      <trkpt lat="43.31226" lon="-2.03083">
        <ele>192.8</ele>
        <time>2021-05-29 11:22:02</time>
      </trkpt>
      <trkpt lat="43.31223" lon="-2.03088">
        <ele>193.2</ele>
        <time>2021-05-29 11:22:03</time>
      </trkpt>
      <trkpt lat="43.3122" lon="-2.03094">
        <ele>193.4</ele>
        <time>2021-05-29 11:22:04</time>
      </trkpt>
      <trkpt lat="43.31218" lon="-2.031">
        <ele>193.6</ele>
        <time>2021-05-29 11:22:05</time>
      </trkpt>
      <trkpt lat="43.31215" lon="-2.03105">
        <ele>194</ele>
        <time>2021-05-29 11:22:06</time>
      </trkpt>
      <trkpt lat="43.31212" lon="-2.03111">
        <ele>194.2</ele>
        <time>2021-05-29 11:22:07</time>
      </trkpt>
      <trkpt lat="43.31209" lon="-2.03117">
        <ele>194.4</ele>
        <time>2021-05-29 11:22:08</time>
      </trkpt>
      <trkpt lat="43.31206" lon="-2.03123">
        <ele>194.6</ele>
        <time>2021-05-29 11:22:09</time>
      </trkpt>
      <trkpt lat="43.31203" lon="-2.03129">
        <ele>194.6</ele>
        <time>2021-05-29 11:22:10</time>
      </trkpt>
      <trkpt lat="43.312" lon="-2.03135">
        <ele>195</ele>
        <time>2021-05-29 11:22:11</time>
      </trkpt>
      <trkpt lat="43.31197" lon="-2.03141">
        <ele>195.2</ele>
        <time>2021-05-29 11:22:12</time>
      </trkpt>
      <trkpt lat="43.31194" lon="-2.03147">
        <ele>195.4</ele>
        <time>2021-05-29 11:22:13</time>
      </trkpt>
      <trkpt lat="43.31192" lon="-2.03152">
        <ele>195.4</ele>
        <time>2021-05-29 11:22:14</time>
      </trkpt>
      <trkpt lat="43.31189" lon="-2.03158">
        <ele>195.6</ele>
        <time>2021-05-29 11:22:15</time>
      </trkpt>
      <trkpt lat="43.31186" lon="-2.03164">
        <ele>195.8</ele>
        <time>2021-05-29 11:22:16</time>
      </trkpt>
      <trkpt lat="43.31183" lon="-2.0317">
        <ele>196.2</ele>
        <time>2021-05-29 11:22:17</time>
      </trkpt>
      <trkpt lat="43.3118" lon="-2.03176">
        <ele>196.4</ele>
        <time>2021-05-29 11:22:18</time>
      </trkpt>
      <trkpt lat="43.31177" lon="-2.03181">
        <ele>196.6</ele>
        <time>2021-05-29 11:22:19</time>
      </trkpt>
      <trkpt lat="43.31174" lon="-2.03187">
        <ele>196.8</ele>
        <time>2021-05-29 11:22:20</time>
      </trkpt>
      <trkpt lat="43.31171" lon="-2.03193">
        <ele>197</ele>
        <time>2021-05-29 11:22:21</time>
      </trkpt>
      <trkpt lat="43.31168" lon="-2.03198">
        <ele>197.2</ele>
        <time>2021-05-29 11:22:22</time>
      </trkpt>
      <trkpt lat="43.31166" lon="-2.03204">
        <ele>197.2</ele>
        <time>2021-05-29 11:22:23</time>
      </trkpt>
      <trkpt lat="43.31163" lon="-2.0321">
        <ele>197.4</ele>
        <time>2021-05-29 11:22:24</time>
      </trkpt>
      <trkpt lat="43.3116" lon="-2.03216">
        <ele>197.8</ele>
        <time>2021-05-29 11:22:25</time>
      </trkpt>
      <trkpt lat="43.31157" lon="-2.03222">
        <ele>198</ele>
        <time>2021-05-29 11:22:26</time>
      </trkpt>
      <trkpt lat="43.31154" lon="-2.03228">
        <ele>198.4</ele>
        <time>2021-05-29 11:22:27</time>
      </trkpt>
      <trkpt lat="43.3115" lon="-2.03234">
        <ele>198.6</ele>
        <time>2021-05-29 11:22:28</time>
      </trkpt>
      <trkpt lat="43.31147" lon="-2.0324">
        <ele>198.8</ele>
        <time>2021-05-29 11:22:29</time>
      </trkpt>
      <trkpt lat="43.31144" lon="-2.03245">
        <ele>199</ele>
        <time>2021-05-29 11:22:30</time>
      </trkpt>
      <trkpt lat="43.3114" lon="-2.03251">
        <ele>199.2</ele>
        <time>2021-05-29 11:22:31</time>
      </trkpt>
      <trkpt lat="43.31136" lon="-2.03256">
        <ele>199.4</ele>
        <time>2021-05-29 11:22:32</time>
      </trkpt>
      <trkpt lat="43.31132" lon="-2.0326">
        <ele>199.6</ele>
        <time>2021-05-29 11:22:33</time>
      </trkpt>
      <trkpt lat="43.31128" lon="-2.03265">
        <ele>199.8</ele>
        <time>2021-05-29 11:22:34</time>
      </trkpt>
      <trkpt lat="43.31123" lon="-2.03269">
        <ele>199.8</ele>
        <time>2021-05-29 11:22:35</time>
      </trkpt>
      <trkpt lat="43.31119" lon="-2.03272">
        <ele>200</ele>
        <time>2021-05-29 11:22:36</time>
      </trkpt>
      <trkpt lat="43.31114" lon="-2.03276">
        <ele>200.2</ele>
        <time>2021-05-29 11:22:37</time>
      </trkpt>
      <trkpt lat="43.3111" lon="-2.0328">
        <ele>200.4</ele>
        <time>2021-05-29 11:22:38</time>
      </trkpt>
      <trkpt lat="43.31106" lon="-2.03283">
        <ele>200.6</ele>
        <time>2021-05-29 11:22:39</time>
      </trkpt>
      <trkpt lat="43.31101" lon="-2.03287">
        <ele>200.8</ele>
        <time>2021-05-29 11:22:40</time>
      </trkpt>
      <trkpt lat="43.31097" lon="-2.0329">
        <ele>200.8</ele>
        <time>2021-05-29 11:22:41</time>
      </trkpt>
      <trkpt lat="43.31093" lon="-2.03294">
        <ele>201</ele>
        <time>2021-05-29 11:22:42</time>
      </trkpt>
      <trkpt lat="43.31089" lon="-2.03297">
        <ele>201.2</ele>
        <time>2021-05-29 11:22:43</time>
      </trkpt>
      <trkpt lat="43.31085" lon="-2.033">
        <ele>201.6</ele>
        <time>2021-05-29 11:22:44</time>
      </trkpt>
      <trkpt lat="43.31081" lon="-2.03304">
        <ele>201.8</ele>
        <time>2021-05-29 11:22:45</time>
      </trkpt>
      <trkpt lat="43.31077" lon="-2.03307">
        <ele>202</ele>
        <time>2021-05-29 11:22:46</time>
      </trkpt>
      <trkpt lat="43.31073" lon="-2.03311">
        <ele>202.2</ele>
        <time>2021-05-29 11:22:47</time>
      </trkpt>
      <trkpt lat="43.31069" lon="-2.03315">
        <ele>202.4</ele>
        <time>2021-05-29 11:22:48</time>
      </trkpt>
      <trkpt lat="43.31066" lon="-2.03319">
        <ele>202.6</ele>
        <time>2021-05-29 11:22:49</time>
      </trkpt>
      <trkpt lat="43.31062" lon="-2.03324">
        <ele>203</ele>
        <time>2021-05-29 11:22:50</time>
      </trkpt>
      <trkpt lat="43.31059" lon="-2.03329">
        <ele>203.2</ele>
        <time>2021-05-29 11:22:51</time>
      </trkpt>
      <trkpt lat="43.31056" lon="-2.03334">
        <ele>203.4</ele>
        <time>2021-05-29 11:22:52</time>
      </trkpt>
      <trkpt lat="43.31053" lon="-2.03339">
        <ele>203.6</ele>
        <time>2021-05-29 11:22:53</time>
      </trkpt>
      <trkpt lat="43.3105" lon="-2.03344">
        <ele>203.8</ele>
        <time>2021-05-29 11:22:54</time>
      </trkpt>
      <trkpt lat="43.31047" lon="-2.03349">
        <ele>204.2</ele>
        <time>2021-05-29 11:22:55</time>
      </trkpt>
      <trkpt lat="43.31045" lon="-2.03354">
        <ele>204.4</ele>
        <time>2021-05-29 11:22:56</time>
      </trkpt>
      <trkpt lat="43.31042" lon="-2.03358">
        <ele>204.8</ele>
        <time>2021-05-29 11:22:57</time>
      </trkpt>
      <trkpt lat="43.3104" lon="-2.03362">
        <ele>205.2</ele>
        <time>2021-05-29 11:22:58</time>
      </trkpt>
      <trkpt lat="43.31037" lon="-2.03367">
        <ele>205.4</ele>
        <time>2021-05-29 11:22:59</time>
      </trkpt>
      <trkpt lat="43.31035" lon="-2.03373">
        <ele>205.6</ele>
        <time>2021-05-29 11:23:00</time>
      </trkpt>
      <trkpt lat="43.31032" lon="-2.03378">
        <ele>206</ele>
        <time>2021-05-29 11:23:01</time>
      </trkpt>
      <trkpt lat="43.3103" lon="-2.03384">
        <ele>206.2</ele>
        <time>2021-05-29 11:23:02</time>
      </trkpt>
      <trkpt lat="43.31028" lon="-2.0339">
        <ele>206.4</ele>
        <time>2021-05-29 11:23:03</time>
      </trkpt>
      <trkpt lat="43.31026" lon="-2.03396">
        <ele>206.6</ele>
        <time>2021-05-29 11:23:04</time>
      </trkpt>
      <trkpt lat="43.31024" lon="-2.03402">
        <ele>206.8</ele>
        <time>2021-05-29 11:23:05</time>
      </trkpt>
      <trkpt lat="43.31022" lon="-2.03408">
        <ele>207</ele>
        <time>2021-05-29 11:23:06</time>
      </trkpt>
      <trkpt lat="43.3102" lon="-2.03414">
        <ele>207.2</ele>
        <time>2021-05-29 11:23:07</time>
      </trkpt>
      <trkpt lat="43.31018" lon="-2.0342">
        <ele>207.4</ele>
        <time>2021-05-29 11:23:08</time>
      </trkpt>
      <trkpt lat="43.31016" lon="-2.03426">
        <ele>207.6</ele>
        <time>2021-05-29 11:23:09</time>
      </trkpt>
      <trkpt lat="43.31014" lon="-2.03433">
        <ele>208</ele>
        <time>2021-05-29 11:23:10</time>
      </trkpt>
      <trkpt lat="43.31012" lon="-2.0344">
        <ele>208.2</ele>
        <time>2021-05-29 11:23:11</time>
      </trkpt>
      <trkpt lat="43.3101" lon="-2.03447">
        <ele>208.6</ele>
        <time>2021-05-29 11:23:12</time>
      </trkpt>
      <trkpt lat="43.31008" lon="-2.03454">
        <ele>208.8</ele>
        <time>2021-05-29 11:23:13</time>
      </trkpt>
      <trkpt lat="43.31006" lon="-2.03461">
        <ele>208.8</ele>
        <time>2021-05-29 11:23:14</time>
      </trkpt>
      <trkpt lat="43.31003" lon="-2.03469">
        <ele>209</ele>
        <time>2021-05-29 11:23:15</time>
      </trkpt>
      <trkpt lat="43.31001" lon="-2.03476">
        <ele>209</ele>
        <time>2021-05-29 11:23:16</time>
      </trkpt>
      <trkpt lat="43.30999" lon="-2.03484">
        <ele>209</ele>
        <time>2021-05-29 11:23:17</time>
      </trkpt>
      <trkpt lat="43.30996" lon="-2.03492">
        <ele>209</ele>
        <time>2021-05-29 11:23:18</time>
      </trkpt>
      <trkpt lat="43.30994" lon="-2.035">
        <ele>209</ele>
        <time>2021-05-29 11:23:19</time>
      </trkpt>
      <trkpt lat="43.30991" lon="-2.03508">
        <ele>209</ele>
        <time>2021-05-29 11:23:20</time>
      </trkpt>
      <trkpt lat="43.30989" lon="-2.03516">
        <ele>209</ele>
        <time>2021-05-29 11:23:21</time>
      </trkpt>
      <trkpt lat="43.30986" lon="-2.03525">
        <ele>209</ele>
        <time>2021-05-29 11:23:22</time>
      </trkpt>
      <trkpt lat="43.30983" lon="-2.03533">
        <ele>208.8</ele>
        <time>2021-05-29 11:23:23</time>
      </trkpt>
      <trkpt lat="43.3098" lon="-2.03541">
        <ele>208.8</ele>
        <time>2021-05-29 11:23:24</time>
      </trkpt>
      <trkpt lat="43.30977" lon="-2.03549">
        <ele>208.8</ele>
        <time>2021-05-29 11:23:25</time>
      </trkpt>
      <trkpt lat="43.30973" lon="-2.03557">
        <ele>208.6</ele>
        <time>2021-05-29 11:23:26</time>
      </trkpt>
      <trkpt lat="43.3097" lon="-2.03565">
        <ele>208.4</ele>
        <time>2021-05-29 11:23:27</time>
      </trkpt>
      <trkpt lat="43.30967" lon="-2.03574">
        <ele>208.2</ele>
        <time>2021-05-29 11:23:28</time>
      </trkpt>
      <trkpt lat="43.30963" lon="-2.03583">
        <ele>208.2</ele>
        <time>2021-05-29 11:23:29</time>
      </trkpt>
      <trkpt lat="43.30959" lon="-2.03592">
        <ele>208</ele>
        <time>2021-05-29 11:23:30</time>
      </trkpt>
      <trkpt lat="43.30956" lon="-2.03601">
        <ele>208</ele>
        <time>2021-05-29 11:23:31</time>
      </trkpt>
      <trkpt lat="43.30952" lon="-2.0361">
        <ele>207.8</ele>
        <time>2021-05-29 11:23:32</time>
      </trkpt>
      <trkpt lat="43.30949" lon="-2.03618">
        <ele>207.8</ele>
        <time>2021-05-29 11:23:33</time>
      </trkpt>
      <trkpt lat="43.30946" lon="-2.03627">
        <ele>207.8</ele>
        <time>2021-05-29 11:23:34</time>
      </trkpt>
      <trkpt lat="43.30943" lon="-2.03636">
        <ele>207.8</ele>
        <time>2021-05-29 11:23:35</time>
      </trkpt>
      <trkpt lat="43.3094" lon="-2.03644">
        <ele>207.8</ele>
        <time>2021-05-29 11:23:36</time>
      </trkpt>
      <trkpt lat="43.30937" lon="-2.03652">
        <ele>207.8</ele>
        <time>2021-05-29 11:23:37</time>
      </trkpt>
      <trkpt lat="43.30934" lon="-2.03659">
        <ele>207.8</ele>
        <time>2021-05-29 11:23:38</time>
      </trkpt>
      <trkpt lat="43.30931" lon="-2.03667">
        <ele>207.8</ele>
        <time>2021-05-29 11:23:39</time>
      </trkpt>
      <trkpt lat="43.30928" lon="-2.03673">
        <ele>207.8</ele>
        <time>2021-05-29 11:23:40</time>
      </trkpt>
      <trkpt lat="43.30926" lon="-2.0368">
        <ele>207.8</ele>
        <time>2021-05-29 11:23:41</time>
      </trkpt>
      <trkpt lat="43.30923" lon="-2.03686">
        <ele>207.8</ele>
        <time>2021-05-29 11:23:42</time>
      </trkpt>
      <trkpt lat="43.30921" lon="-2.03692">
        <ele>207.8</ele>
        <time>2021-05-29 11:23:43</time>
      </trkpt>
      <trkpt lat="43.30918" lon="-2.03698">
        <ele>207.8</ele>
        <time>2021-05-29 11:23:44</time>
      </trkpt>
      <trkpt lat="43.30916" lon="-2.03703">
        <ele>208</ele>
        <time>2021-05-29 11:23:45</time>
      </trkpt>
      <trkpt lat="43.30913" lon="-2.03708">
        <ele>208.4</ele>
        <time>2021-05-29 11:23:46</time>
      </trkpt>
      <trkpt lat="43.30911" lon="-2.03713">
        <ele>208.6</ele>
        <time>2021-05-29 11:23:47</time>
      </trkpt>
      <trkpt lat="43.30908" lon="-2.03718">
        <ele>209</ele>
        <time>2021-05-29 11:23:48</time>
      </trkpt>
      <trkpt lat="43.30906" lon="-2.03722">
        <ele>209.8</ele>
        <time>2021-05-29 11:23:49</time>
      </trkpt>
      <trkpt lat="43.30903" lon="-2.03726">
        <ele>210.2</ele>
        <time>2021-05-29 11:23:50</time>
      </trkpt>
      <trkpt lat="43.309" lon="-2.03731">
        <ele>210.8</ele>
        <time>2021-05-29 11:23:51</time>
      </trkpt>
      <trkpt lat="43.30897" lon="-2.03735">
        <ele>211.2</ele>
        <time>2021-05-29 11:23:52</time>
      </trkpt>
      <trkpt lat="43.30895" lon="-2.03739">
        <ele>211.6</ele>
        <time>2021-05-29 11:23:53</time>
      </trkpt>
      <trkpt lat="43.30892" lon="-2.03743">
        <ele>212</ele>
        <time>2021-05-29 11:23:54</time>
      </trkpt>
      <trkpt lat="43.30889" lon="-2.03747">
        <ele>212.4</ele>
        <time>2021-05-29 11:23:55</time>
      </trkpt>
      <trkpt lat="43.30886" lon="-2.03751">
        <ele>213</ele>
        <time>2021-05-29 11:23:56</time>
      </trkpt>
      <trkpt lat="43.30883" lon="-2.03755">
        <ele>213</ele>
        <time>2021-05-29 11:23:57</time>
      </trkpt>
      <trkpt lat="43.3088" lon="-2.03759">
        <ele>213.4</ele>
        <time>2021-05-29 11:23:58</time>
      </trkpt>
      <trkpt lat="43.30877" lon="-2.03763">
        <ele>214</ele>
        <time>2021-05-29 11:23:59</time>
      </trkpt>
      <trkpt lat="43.30874" lon="-2.03767">
        <ele>214.2</ele>
        <time>2021-05-29 11:24:00</time>
      </trkpt>
      <trkpt lat="43.30871" lon="-2.0377">
        <ele>214.6</ele>
        <time>2021-05-29 11:24:01</time>
      </trkpt>
      <trkpt lat="43.30868" lon="-2.03774">
        <ele>214.8</ele>
        <time>2021-05-29 11:24:02</time>
      </trkpt>
      <trkpt lat="43.30866" lon="-2.03778">
        <ele>215.2</ele>
        <time>2021-05-29 11:24:03</time>
      </trkpt>
      <trkpt lat="43.30863" lon="-2.03781">
        <ele>215.6</ele>
        <time>2021-05-29 11:24:04</time>
      </trkpt>
      <trkpt lat="43.3086" lon="-2.03785">
        <ele>215.8</ele>
        <time>2021-05-29 11:24:05</time>
      </trkpt>
      <trkpt lat="43.30857" lon="-2.03789">
        <ele>216.2</ele>
        <time>2021-05-29 11:24:06</time>
      </trkpt>
      <trkpt lat="43.30854" lon="-2.03793">
        <ele>216.6</ele>
        <time>2021-05-29 11:24:07</time>
      </trkpt>
      <trkpt lat="43.3085" lon="-2.03797">
        <ele>217</ele>
        <time>2021-05-29 11:24:08</time>
      </trkpt>
      <trkpt lat="43.30847" lon="-2.038">
        <ele>217.2</ele>
        <time>2021-05-29 11:24:09</time>
      </trkpt>
      <trkpt lat="43.30843" lon="-2.03804">
        <ele>217.4</ele>
        <time>2021-05-29 11:24:10</time>
      </trkpt>
      <trkpt lat="43.3084" lon="-2.03809">
        <ele>217.8</ele>
        <time>2021-05-29 11:24:11</time>
      </trkpt>
      <trkpt lat="43.30837" lon="-2.03813">
        <ele>218.2</ele>
        <time>2021-05-29 11:24:12</time>
      </trkpt>
      <trkpt lat="43.30833" lon="-2.03817">
        <ele>218.2</ele>
        <time>2021-05-29 11:24:13</time>
      </trkpt>
      <trkpt lat="43.3083" lon="-2.03821">
        <ele>218.6</ele>
        <time>2021-05-29 11:24:14</time>
      </trkpt>
      <trkpt lat="43.30827" lon="-2.03826">
        <ele>218.8</ele>
        <time>2021-05-29 11:24:15</time>
      </trkpt>
      <trkpt lat="43.30824" lon="-2.0383">
        <ele>219.2</ele>
        <time>2021-05-29 11:24:16</time>
      </trkpt>
      <trkpt lat="43.3082" lon="-2.03834">
        <ele>219.6</ele>
        <time>2021-05-29 11:24:17</time>
      </trkpt>
      <trkpt lat="43.30817" lon="-2.03837">
        <ele>220</ele>
        <time>2021-05-29 11:24:18</time>
      </trkpt>
      <trkpt lat="43.30814" lon="-2.03841">
        <ele>220.4</ele>
        <time>2021-05-29 11:24:19</time>
      </trkpt>
      <trkpt lat="43.3081" lon="-2.03845">
        <ele>220.6</ele>
        <time>2021-05-29 11:24:20</time>
      </trkpt>
      <trkpt lat="43.30807" lon="-2.03849">
        <ele>221</ele>
        <time>2021-05-29 11:24:21</time>
      </trkpt>
      <trkpt lat="43.30803" lon="-2.03853">
        <ele>221.2</ele>
        <time>2021-05-29 11:24:22</time>
      </trkpt>
      <trkpt lat="43.30799" lon="-2.03857">
        <ele>221.8</ele>
        <time>2021-05-29 11:24:23</time>
      </trkpt>
      <trkpt lat="43.30796" lon="-2.03861">
        <ele>222.2</ele>
        <time>2021-05-29 11:24:24</time>
      </trkpt>
      <trkpt lat="43.30792" lon="-2.03864">
        <ele>222.4</ele>
        <time>2021-05-29 11:24:25</time>
      </trkpt>
      <trkpt lat="43.30789" lon="-2.03867">
        <ele>222.8</ele>
        <time>2021-05-29 11:24:26</time>
      </trkpt>
      <trkpt lat="43.30785" lon="-2.03871">
        <ele>223</ele>
        <time>2021-05-29 11:24:27</time>
      </trkpt>
      <trkpt lat="43.30781" lon="-2.03874">
        <ele>223.2</ele>
        <time>2021-05-29 11:24:28</time>
      </trkpt>
      <trkpt lat="43.30778" lon="-2.03876">
        <ele>223.4</ele>
        <time>2021-05-29 11:24:29</time>
      </trkpt>
      <trkpt lat="43.30774" lon="-2.03879">
        <ele>223.6</ele>
        <time>2021-05-29 11:24:30</time>
      </trkpt>
      <trkpt lat="43.3077" lon="-2.03882">
        <ele>224</ele>
        <time>2021-05-29 11:24:31</time>
      </trkpt>
      <trkpt lat="43.30766" lon="-2.03884">
        <ele>224.2</ele>
        <time>2021-05-29 11:24:32</time>
      </trkpt>
      <trkpt lat="43.30762" lon="-2.03887">
        <ele>224.6</ele>
        <time>2021-05-29 11:24:33</time>
      </trkpt>
      <trkpt lat="43.30758" lon="-2.03889">
        <ele>224.8</ele>
        <time>2021-05-29 11:24:34</time>
      </trkpt>
      <trkpt lat="43.30754" lon="-2.03891">
        <ele>225</ele>
        <time>2021-05-29 11:24:35</time>
      </trkpt>
      <trkpt lat="43.3075" lon="-2.03894">
        <ele>225</ele>
        <time>2021-05-29 11:24:36</time>
      </trkpt>
      <trkpt lat="43.30746" lon="-2.03897">
        <ele>225.2</ele>
        <time>2021-05-29 11:24:37</time>
      </trkpt>
      <trkpt lat="43.30742" lon="-2.039">
        <ele>225.4</ele>
        <time>2021-05-29 11:24:38</time>
      </trkpt>
      <trkpt lat="43.30738" lon="-2.03903">
        <ele>225.8</ele>
        <time>2021-05-29 11:24:39</time>
      </trkpt>
      <trkpt lat="43.30733" lon="-2.03906">
        <ele>226</ele>
        <time>2021-05-29 11:24:40</time>
      </trkpt>
      <trkpt lat="43.30728" lon="-2.03909">
        <ele>226.4</ele>
        <time>2021-05-29 11:24:41</time>
      </trkpt>
      <trkpt lat="43.30723" lon="-2.03913">
        <ele>226.6</ele>
        <time>2021-05-29 11:24:42</time>
      </trkpt>
      <trkpt lat="43.30719" lon="-2.03916">
        <ele>226.8</ele>
        <time>2021-05-29 11:24:43</time>
      </trkpt>
      <trkpt lat="43.30714" lon="-2.0392">
        <ele>227</ele>
        <time>2021-05-29 11:24:44</time>
      </trkpt>
      <trkpt lat="43.30709" lon="-2.03924">
        <ele>227.2</ele>
        <time>2021-05-29 11:24:45</time>
      </trkpt>
      <trkpt lat="43.30704" lon="-2.03927">
        <ele>227.4</ele>
        <time>2021-05-29 11:24:46</time>
      </trkpt>
      <trkpt lat="43.307" lon="-2.03931">
        <ele>227.6</ele>
        <time>2021-05-29 11:24:47</time>
      </trkpt>
      <trkpt lat="43.30695" lon="-2.03935">
        <ele>227.8</ele>
        <time>2021-05-29 11:24:48</time>
      </trkpt>
      <trkpt lat="43.3069" lon="-2.03939">
        <ele>227.8</ele>
        <time>2021-05-29 11:24:49</time>
      </trkpt>
      <trkpt lat="43.30686" lon="-2.03943">
        <ele>227.8</ele>
        <time>2021-05-29 11:24:50</time>
      </trkpt>
      <trkpt lat="43.30681" lon="-2.03948">
        <ele>228</ele>
        <time>2021-05-29 11:24:51</time>
      </trkpt>
      <trkpt lat="43.30677" lon="-2.03953">
        <ele>228</ele>
        <time>2021-05-29 11:24:52</time>
      </trkpt>
      <trkpt lat="43.30673" lon="-2.03958">
        <ele>228.2</ele>
        <time>2021-05-29 11:24:53</time>
      </trkpt>
      <trkpt lat="43.30669" lon="-2.03964">
        <ele>228.4</ele>
        <time>2021-05-29 11:24:54</time>
      </trkpt>
      <trkpt lat="43.30665" lon="-2.0397">
        <ele>228.4</ele>
        <time>2021-05-29 11:24:55</time>
      </trkpt>
      <trkpt lat="43.30662" lon="-2.03977">
        <ele>228.2</ele>
        <time>2021-05-29 11:24:56</time>
      </trkpt>
      <trkpt lat="43.30659" lon="-2.03983">
        <ele>228.4</ele>
        <time>2021-05-29 11:24:57</time>
      </trkpt>
      <trkpt lat="43.30656" lon="-2.0399">
        <ele>228.4</ele>
        <time>2021-05-29 11:24:58</time>
      </trkpt>
      <trkpt lat="43.30653" lon="-2.03997">
        <ele>228.6</ele>
        <time>2021-05-29 11:24:59</time>
      </trkpt>
      <trkpt lat="43.3065" lon="-2.04004">
        <ele>228.6</ele>
        <time>2021-05-29 11:25:00</time>
      </trkpt>
      <trkpt lat="43.30648" lon="-2.04012">
        <ele>228.8</ele>
        <time>2021-05-29 11:25:01</time>
      </trkpt>
      <trkpt lat="43.30646" lon="-2.0402">
        <ele>228.8</ele>
        <time>2021-05-29 11:25:02</time>
      </trkpt>
      <trkpt lat="43.30644" lon="-2.04028">
        <ele>228.8</ele>
        <time>2021-05-29 11:25:03</time>
      </trkpt>
      <trkpt lat="43.30643" lon="-2.04036">
        <ele>228.8</ele>
        <time>2021-05-29 11:25:04</time>
      </trkpt>
      <trkpt lat="43.30641" lon="-2.04044">
        <ele>229</ele>
        <time>2021-05-29 11:25:05</time>
      </trkpt>
      <trkpt lat="43.3064" lon="-2.04053">
        <ele>229</ele>
        <time>2021-05-29 11:25:06</time>
      </trkpt>
      <trkpt lat="43.30638" lon="-2.04061">
        <ele>229.2</ele>
        <time>2021-05-29 11:25:07</time>
      </trkpt>
      <trkpt lat="43.30637" lon="-2.04069">
        <ele>229.4</ele>
        <time>2021-05-29 11:25:08</time>
      </trkpt>
      <trkpt lat="43.30635" lon="-2.04078">
        <ele>229.6</ele>
        <time>2021-05-29 11:25:09</time>
      </trkpt>
      <trkpt lat="43.30633" lon="-2.04087">
        <ele>229.6</ele>
        <time>2021-05-29 11:25:10</time>
      </trkpt>
      <trkpt lat="43.30631" lon="-2.04095">
        <ele>229.8</ele>
        <time>2021-05-29 11:25:11</time>
      </trkpt>
      <trkpt lat="43.3063" lon="-2.04104">
        <ele>229.8</ele>
        <time>2021-05-29 11:25:12</time>
      </trkpt>
      <trkpt lat="43.30628" lon="-2.04113">
        <ele>229.8</ele>
        <time>2021-05-29 11:25:13</time>
      </trkpt>
      <trkpt lat="43.30626" lon="-2.04122">
        <ele>229.8</ele>
        <time>2021-05-29 11:25:14</time>
      </trkpt>
      <trkpt lat="43.30624" lon="-2.04131">
        <ele>229.8</ele>
        <time>2021-05-29 11:25:15</time>
      </trkpt>
      <trkpt lat="43.30623" lon="-2.0414">
        <ele>229.8</ele>
        <time>2021-05-29 11:25:16</time>
      </trkpt>
      <trkpt lat="43.3062" lon="-2.04149">
        <ele>229.8</ele>
        <time>2021-05-29 11:25:17</time>
      </trkpt>
      <trkpt lat="43.30618" lon="-2.04159">
        <ele>229.8</ele>
        <time>2021-05-29 11:25:18</time>
      </trkpt>
      <trkpt lat="43.30616" lon="-2.04168">
        <ele>229.8</ele>
        <time>2021-05-29 11:25:19</time>
      </trkpt>
      <trkpt lat="43.30614" lon="-2.04177">
        <ele>229.8</ele>
        <time>2021-05-29 11:25:20</time>
      </trkpt>
      <trkpt lat="43.30612" lon="-2.04187">
        <ele>229.8</ele>
        <time>2021-05-29 11:25:21</time>
      </trkpt>
      <trkpt lat="43.30611" lon="-2.04197">
        <ele>229.8</ele>
        <time>2021-05-29 11:25:22</time>
      </trkpt>
      <trkpt lat="43.30609" lon="-2.04207">
        <ele>229.6</ele>
        <time>2021-05-29 11:25:23</time>
      </trkpt>
      <trkpt lat="43.30607" lon="-2.04218">
        <ele>229.6</ele>
        <time>2021-05-29 11:25:24</time>
      </trkpt>
      <trkpt lat="43.30605" lon="-2.04228">
        <ele>229.4</ele>
        <time>2021-05-29 11:25:25</time>
      </trkpt>
      <trkpt lat="43.30603" lon="-2.04238">
        <ele>229.4</ele>
        <time>2021-05-29 11:25:26</time>
      </trkpt>
      <trkpt lat="43.30601" lon="-2.04249">
        <ele>229.4</ele>
        <time>2021-05-29 11:25:27</time>
      </trkpt>
      <trkpt lat="43.30599" lon="-2.0426">
        <ele>229.4</ele>
        <time>2021-05-29 11:25:28</time>
      </trkpt>
      <trkpt lat="43.30597" lon="-2.0427">
        <ele>229.2</ele>
        <time>2021-05-29 11:25:29</time>
      </trkpt>
      <trkpt lat="43.30595" lon="-2.04281">
        <ele>229.2</ele>
        <time>2021-05-29 11:25:30</time>
      </trkpt>
      <trkpt lat="43.30593" lon="-2.04292">
        <ele>229.2</ele>
        <time>2021-05-29 11:25:31</time>
      </trkpt>
      <trkpt lat="43.3059" lon="-2.04303">
        <ele>229</ele>
        <time>2021-05-29 11:25:32</time>
      </trkpt>
      <trkpt lat="43.30588" lon="-2.04313">
        <ele>229</ele>
        <time>2021-05-29 11:25:33</time>
      </trkpt>
      <trkpt lat="43.30586" lon="-2.04324">
        <ele>228.8</ele>
        <time>2021-05-29 11:25:34</time>
      </trkpt>
      <trkpt lat="43.30584" lon="-2.04335">
        <ele>228.8</ele>
        <time>2021-05-29 11:25:35</time>
      </trkpt>
      <trkpt lat="43.30582" lon="-2.04345">
        <ele>228.6</ele>
        <time>2021-05-29 11:25:36</time>
      </trkpt>
      <trkpt lat="43.3058" lon="-2.04356">
        <ele>228.4</ele>
        <time>2021-05-29 11:25:37</time>
      </trkpt>
      <trkpt lat="43.30578" lon="-2.04366">
        <ele>228.2</ele>
        <time>2021-05-29 11:25:38</time>
      </trkpt>
      <trkpt lat="43.30576" lon="-2.04377">
        <ele>228.2</ele>
        <time>2021-05-29 11:25:39</time>
      </trkpt>
      <trkpt lat="43.30574" lon="-2.04387">
        <ele>228.2</ele>
        <time>2021-05-29 11:25:40</time>
      </trkpt>
      <trkpt lat="43.30572" lon="-2.04397">
        <ele>228.2</ele>
        <time>2021-05-29 11:25:41</time>
      </trkpt>
      <trkpt lat="43.3057" lon="-2.04407">
        <ele>228.2</ele>
        <time>2021-05-29 11:25:42</time>
      </trkpt>
      <trkpt lat="43.30568" lon="-2.04418">
        <ele>228</ele>
        <time>2021-05-29 11:25:43</time>
      </trkpt>
      <trkpt lat="43.30566" lon="-2.04428">
        <ele>228</ele>
        <time>2021-05-29 11:25:44</time>
      </trkpt>
      <trkpt lat="43.30564" lon="-2.04439">
        <ele>228</ele>
        <time>2021-05-29 11:25:45</time>
      </trkpt>
      <trkpt lat="43.30562" lon="-2.0445">
        <ele>228</ele>
        <time>2021-05-29 11:25:46</time>
      </trkpt>
      <trkpt lat="43.3056" lon="-2.04461">
        <ele>228</ele>
        <time>2021-05-29 11:25:47</time>
      </trkpt>
      <trkpt lat="43.30558" lon="-2.04472">
        <ele>228</ele>
        <time>2021-05-29 11:25:48</time>
      </trkpt>
      <trkpt lat="43.30556" lon="-2.04482">
        <ele>228</ele>
        <time>2021-05-29 11:25:49</time>
      </trkpt>
      <trkpt lat="43.30554" lon="-2.04493">
        <ele>228</ele>
        <time>2021-05-29 11:25:50</time>
      </trkpt>
      <trkpt lat="43.30552" lon="-2.04503">
        <ele>227.8</ele>
        <time>2021-05-29 11:25:51</time>
      </trkpt>
      <trkpt lat="43.3055" lon="-2.04513">
        <ele>227.8</ele>
        <time>2021-05-29 11:25:52</time>
      </trkpt>
      <trkpt lat="43.30548" lon="-2.04523">
        <ele>227.6</ele>
        <time>2021-05-29 11:25:53</time>
      </trkpt>
      <trkpt lat="43.30545" lon="-2.04532">
        <ele>227.4</ele>
        <time>2021-05-29 11:25:54</time>
      </trkpt>
      <trkpt lat="43.30541" lon="-2.04541">
        <ele>227.4</ele>
        <time>2021-05-29 11:25:55</time>
      </trkpt>
      <trkpt lat="43.30537" lon="-2.04549">
        <ele>227.2</ele>
        <time>2021-05-29 11:25:56</time>
      </trkpt>
      <trkpt lat="43.30532" lon="-2.04556">
        <ele>227.2</ele>
        <time>2021-05-29 11:25:57</time>
      </trkpt>
      <trkpt lat="43.30526" lon="-2.04561">
        <ele>227</ele>
        <time>2021-05-29 11:25:58</time>
      </trkpt>
      <trkpt lat="43.3052" lon="-2.04566">
        <ele>226.8</ele>
        <time>2021-05-29 11:25:59</time>
      </trkpt>
      <trkpt lat="43.30514" lon="-2.04572">
        <ele>226.8</ele>
        <time>2021-05-29 11:26:00</time>
      </trkpt>
      <trkpt lat="43.30508" lon="-2.04577">
        <ele>226.8</ele>
        <time>2021-05-29 11:26:01</time>
      </trkpt>
      <trkpt lat="43.30502" lon="-2.04583">
        <ele>226.8</ele>
        <time>2021-05-29 11:26:02</time>
      </trkpt>
      <trkpt lat="43.30496" lon="-2.04588">
        <ele>226.8</ele>
        <time>2021-05-29 11:26:03</time>
      </trkpt>
      <trkpt lat="43.3049" lon="-2.04593">
        <ele>226.8</ele>
        <time>2021-05-29 11:26:04</time>
      </trkpt>
      <trkpt lat="43.30485" lon="-2.04599">
        <ele>226.8</ele>
        <time>2021-05-29 11:26:05</time>
      </trkpt>
      <trkpt lat="43.30481" lon="-2.04605">
        <ele>226.8</ele>
        <time>2021-05-29 11:26:06</time>
      </trkpt>
      <trkpt lat="43.30477" lon="-2.04611">
        <ele>226.8</ele>
        <time>2021-05-29 11:26:07</time>
      </trkpt>
      <trkpt lat="43.30473" lon="-2.04618">
        <ele>227</ele>
        <time>2021-05-29 11:26:08</time>
      </trkpt>
      <trkpt lat="43.30469" lon="-2.04625">
        <ele>227.2</ele>
        <time>2021-05-29 11:26:09</time>
      </trkpt>
      <trkpt lat="43.30466" lon="-2.04631">
        <ele>227.6</ele>
        <time>2021-05-29 11:26:10</time>
      </trkpt>
      <trkpt lat="43.30462" lon="-2.04638">
        <ele>227.8</ele>
        <time>2021-05-29 11:26:11</time>
      </trkpt>
      <trkpt lat="43.30459" lon="-2.04644">
        <ele>228</ele>
        <time>2021-05-29 11:26:12</time>
      </trkpt>
      <trkpt lat="43.30456" lon="-2.0465">
        <ele>228.4</ele>
        <time>2021-05-29 11:26:13</time>
      </trkpt>
      <trkpt lat="43.30453" lon="-2.04657">
        <ele>228.8</ele>
        <time>2021-05-29 11:26:14</time>
      </trkpt>
      <trkpt lat="43.30449" lon="-2.04663">
        <ele>229.2</ele>
        <time>2021-05-29 11:26:15</time>
      </trkpt>
      <trkpt lat="43.30445" lon="-2.0467">
        <ele>229.4</ele>
        <time>2021-05-29 11:26:16</time>
      </trkpt>
      <trkpt lat="43.30442" lon="-2.04677">
        <ele>229.6</ele>
        <time>2021-05-29 11:26:17</time>
      </trkpt>
      <trkpt lat="43.30438" lon="-2.04684">
        <ele>229.6</ele>
        <time>2021-05-29 11:26:18</time>
      </trkpt>
      <trkpt lat="43.30435" lon="-2.04691">
        <ele>229.8</ele>
        <time>2021-05-29 11:26:19</time>
      </trkpt>
      <trkpt lat="43.30431" lon="-2.04698">
        <ele>229.8</ele>
        <time>2021-05-29 11:26:20</time>
      </trkpt>
      <trkpt lat="43.30428" lon="-2.04704">
        <ele>230</ele>
        <time>2021-05-29 11:26:21</time>
      </trkpt>
      <trkpt lat="43.30424" lon="-2.04711">
        <ele>230.2</ele>
        <time>2021-05-29 11:26:22</time>
      </trkpt>
      <trkpt lat="43.30421" lon="-2.04718">
        <ele>230.4</ele>
        <time>2021-05-29 11:26:23</time>
      </trkpt>
      <trkpt lat="43.30417" lon="-2.04724">
        <ele>230.4</ele>
        <time>2021-05-29 11:26:24</time>
      </trkpt>
      <trkpt lat="43.30414" lon="-2.04731">
        <ele>230.6</ele>
        <time>2021-05-29 11:26:25</time>
      </trkpt>
      <trkpt lat="43.3041" lon="-2.04737">
        <ele>230.6</ele>
        <time>2021-05-29 11:26:26</time>
      </trkpt>
      <trkpt lat="43.30407" lon="-2.04744">
        <ele>231</ele>
        <time>2021-05-29 11:26:27</time>
      </trkpt>
      <trkpt lat="43.30403" lon="-2.04751">
        <ele>231</ele>
        <time>2021-05-29 11:26:28</time>
      </trkpt>
      <trkpt lat="43.304" lon="-2.04759">
        <ele>231.2</ele>
        <time>2021-05-29 11:26:29</time>
      </trkpt>
      <trkpt lat="43.30397" lon="-2.04767">
        <ele>231.2</ele>
        <time>2021-05-29 11:26:30</time>
      </trkpt>
      <trkpt lat="43.30394" lon="-2.04775">
        <ele>231.2</ele>
        <time>2021-05-29 11:26:31</time>
      </trkpt>
      <trkpt lat="43.30391" lon="-2.04784">
        <ele>231.2</ele>
        <time>2021-05-29 11:26:32</time>
      </trkpt>
      <trkpt lat="43.30388" lon="-2.04793">
        <ele>231.2</ele>
        <time>2021-05-29 11:26:33</time>
      </trkpt>
      <trkpt lat="43.30385" lon="-2.04803">
        <ele>231.2</ele>
        <time>2021-05-29 11:26:34</time>
      </trkpt>
      <trkpt lat="43.30382" lon="-2.04812">
        <ele>231.2</ele>
        <time>2021-05-29 11:26:35</time>
      </trkpt>
      <trkpt lat="43.30378" lon="-2.04822">
        <ele>231.2</ele>
        <time>2021-05-29 11:26:36</time>
      </trkpt>
      <trkpt lat="43.30375" lon="-2.04832">
        <ele>231.2</ele>
        <time>2021-05-29 11:26:37</time>
      </trkpt>
      <trkpt lat="43.30372" lon="-2.04842">
        <ele>231.2</ele>
        <time>2021-05-29 11:26:38</time>
      </trkpt>
      <trkpt lat="43.30368" lon="-2.04851">
        <ele>231</ele>
        <time>2021-05-29 11:26:39</time>
      </trkpt>
      <trkpt lat="43.30365" lon="-2.0486">
        <ele>231</ele>
        <time>2021-05-29 11:26:40</time>
      </trkpt>
      <trkpt lat="43.30362" lon="-2.04869">
        <ele>231</ele>
        <time>2021-05-29 11:26:41</time>
      </trkpt>
      <trkpt lat="43.30359" lon="-2.04877">
        <ele>231</ele>
        <time>2021-05-29 11:26:42</time>
      </trkpt>
      <trkpt lat="43.30357" lon="-2.04885">
        <ele>231</ele>
        <time>2021-05-29 11:26:43</time>
      </trkpt>
      <trkpt lat="43.30354" lon="-2.04892">
        <ele>231</ele>
        <time>2021-05-29 11:26:44</time>
      </trkpt>
      <trkpt lat="43.30351" lon="-2.04898">
        <ele>231</ele>
        <time>2021-05-29 11:26:45</time>
      </trkpt>
      <trkpt lat="43.30348" lon="-2.04904">
        <ele>231</ele>
        <time>2021-05-29 11:26:46</time>
      </trkpt>
      <trkpt lat="43.30344" lon="-2.04908">
        <ele>231</ele>
        <time>2021-05-29 11:26:47</time>
      </trkpt>
      <trkpt lat="43.3034" lon="-2.04912">
        <ele>231.2</ele>
        <time>2021-05-29 11:26:48</time>
      </trkpt>
      <trkpt lat="43.30336" lon="-2.04916">
        <ele>231.4</ele>
        <time>2021-05-29 11:26:49</time>
      </trkpt>
      <trkpt lat="43.30332" lon="-2.04919">
        <ele>231.6</ele>
        <time>2021-05-29 11:26:50</time>
      </trkpt>
      <trkpt lat="43.30328" lon="-2.04922">
        <ele>231.8</ele>
        <time>2021-05-29 11:26:51</time>
      </trkpt>
      <trkpt lat="43.30324" lon="-2.04925">
        <ele>232.2</ele>
        <time>2021-05-29 11:26:52</time>
      </trkpt>
      <trkpt lat="43.30319" lon="-2.04928">
        <ele>232.6</ele>
        <time>2021-05-29 11:26:53</time>
      </trkpt>
      <trkpt lat="43.30315" lon="-2.04931">
        <ele>233</ele>
        <time>2021-05-29 11:26:54</time>
      </trkpt>
      <trkpt lat="43.30311" lon="-2.04933">
        <ele>233.4</ele>
        <time>2021-05-29 11:26:55</time>
      </trkpt>
      <trkpt lat="43.30308" lon="-2.04935">
        <ele>234</ele>
        <time>2021-05-29 11:26:56</time>
      </trkpt>
      <trkpt lat="43.30304" lon="-2.04938">
        <ele>234.4</ele>
        <time>2021-05-29 11:26:57</time>
      </trkpt>
      <trkpt lat="43.303" lon="-2.04941">
        <ele>234.6</ele>
        <time>2021-05-29 11:26:58</time>
      </trkpt>
      <trkpt lat="43.30297" lon="-2.04945">
        <ele>235</ele>
        <time>2021-05-29 11:26:59</time>
      </trkpt>
      <trkpt lat="43.30294" lon="-2.04949">
        <ele>235.4</ele>
        <time>2021-05-29 11:27:00</time>
      </trkpt>
      <trkpt lat="43.30292" lon="-2.04953">
        <ele>235.8</ele>
        <time>2021-05-29 11:27:01</time>
      </trkpt>
      <trkpt lat="43.3029" lon="-2.04958">
        <ele>236</ele>
        <time>2021-05-29 11:27:02</time>
      </trkpt>
      <trkpt lat="43.30289" lon="-2.04964">
        <ele>236.4</ele>
        <time>2021-05-29 11:27:03</time>
      </trkpt>
      <trkpt lat="43.30288" lon="-2.0497">
        <ele>236.8</ele>
        <time>2021-05-29 11:27:04</time>
      </trkpt>
      <trkpt lat="43.30287" lon="-2.04976">
        <ele>237</ele>
        <time>2021-05-29 11:27:05</time>
      </trkpt>
      <trkpt lat="43.30287" lon="-2.04982">
        <ele>237.4</ele>
        <time>2021-05-29 11:27:06</time>
      </trkpt>
      <trkpt lat="43.30287" lon="-2.04988">
        <ele>237.6</ele>
        <time>2021-05-29 11:27:07</time>
      </trkpt>
      <trkpt lat="43.30286" lon="-2.04994">
        <ele>238</ele>
        <time>2021-05-29 11:27:08</time>
      </trkpt>
      <trkpt lat="43.30286" lon="-2.05">
        <ele>238.4</ele>
        <time>2021-05-29 11:27:09</time>
      </trkpt>
      <trkpt lat="43.30285" lon="-2.05006">
        <ele>238.8</ele>
        <time>2021-05-29 11:27:10</time>
      </trkpt>
      <trkpt lat="43.30285" lon="-2.05012">
        <ele>239.2</ele>
        <time>2021-05-29 11:27:11</time>
      </trkpt>
      <trkpt lat="43.30284" lon="-2.05019">
        <ele>239.6</ele>
        <time>2021-05-29 11:27:12</time>
      </trkpt>
      <trkpt lat="43.30284" lon="-2.05025">
        <ele>240</ele>
        <time>2021-05-29 11:27:13</time>
      </trkpt>
      <trkpt lat="43.30283" lon="-2.05031">
        <ele>240.4</ele>
        <time>2021-05-29 11:27:14</time>
      </trkpt>
      <trkpt lat="43.30282" lon="-2.05038">
        <ele>240.6</ele>
        <time>2021-05-29 11:27:15</time>
      </trkpt>
      <trkpt lat="43.30281" lon="-2.05044">
        <ele>241.2</ele>
        <time>2021-05-29 11:27:16</time>
      </trkpt>
      <trkpt lat="43.3028" lon="-2.05051">
        <ele>241.6</ele>
        <time>2021-05-29 11:27:17</time>
      </trkpt>
      <trkpt lat="43.30278" lon="-2.05059">
        <ele>242</ele>
        <time>2021-05-29 11:27:18</time>
      </trkpt>
      <trkpt lat="43.30277" lon="-2.05066">
        <ele>242.4</ele>
        <time>2021-05-29 11:27:19</time>
      </trkpt>
      <trkpt lat="43.30275" lon="-2.05074">
        <ele>242.6</ele>
        <time>2021-05-29 11:27:20</time>
      </trkpt>
      <trkpt lat="43.30273" lon="-2.05082">
        <ele>242.8</ele>
        <time>2021-05-29 11:27:21</time>
      </trkpt>
      <trkpt lat="43.30271" lon="-2.05089">
        <ele>243</ele>
        <time>2021-05-29 11:27:22</time>
      </trkpt>
      <trkpt lat="43.30268" lon="-2.05097">
        <ele>243</ele>
        <time>2021-05-29 11:27:23</time>
      </trkpt>
      <trkpt lat="43.30265" lon="-2.05104">
        <ele>243</ele>
        <time>2021-05-29 11:27:24</time>
      </trkpt>
      <trkpt lat="43.30263" lon="-2.05111">
        <ele>243</ele>
        <time>2021-05-29 11:27:25</time>
      </trkpt>
      <trkpt lat="43.3026" lon="-2.05118">
        <ele>243</ele>
        <time>2021-05-29 11:27:26</time>
      </trkpt>
      <trkpt lat="43.30257" lon="-2.05125">
        <ele>243</ele>
        <time>2021-05-29 11:27:27</time>
      </trkpt>
      <trkpt lat="43.30254" lon="-2.05132">
        <ele>243</ele>
        <time>2021-05-29 11:27:28</time>
      </trkpt>
      <trkpt lat="43.30251" lon="-2.05138">
        <ele>243.2</ele>
        <time>2021-05-29 11:27:29</time>
      </trkpt>
      <trkpt lat="43.30248" lon="-2.05144">
        <ele>243.2</ele>
        <time>2021-05-29 11:27:30</time>
      </trkpt>
      <trkpt lat="43.30245" lon="-2.05151">
        <ele>243.2</ele>
        <time>2021-05-29 11:27:31</time>
      </trkpt>
      <trkpt lat="43.30242" lon="-2.05157">
        <ele>243.2</ele>
        <time>2021-05-29 11:27:32</time>
      </trkpt>
      <trkpt lat="43.3024" lon="-2.05163">
        <ele>243.2</ele>
        <time>2021-05-29 11:27:33</time>
      </trkpt>
      <trkpt lat="43.30238" lon="-2.05169">
        <ele>243.2</ele>
        <time>2021-05-29 11:27:34</time>
      </trkpt>
      <trkpt lat="43.30235" lon="-2.05175">
        <ele>243.4</ele>
        <time>2021-05-29 11:27:35</time>
      </trkpt>
      <trkpt lat="43.30233" lon="-2.05181">
        <ele>243.6</ele>
        <time>2021-05-29 11:27:36</time>
      </trkpt>
      <trkpt lat="43.30231" lon="-2.05188">
        <ele>243.8</ele>
        <time>2021-05-29 11:27:37</time>
      </trkpt>
      <trkpt lat="43.30228" lon="-2.05195">
        <ele>244</ele>
        <time>2021-05-29 11:27:38</time>
      </trkpt>
      <trkpt lat="43.30226" lon="-2.05201">
        <ele>244.2</ele>
        <time>2021-05-29 11:27:39</time>
      </trkpt>
      <trkpt lat="43.30224" lon="-2.05206">
        <ele>244.4</ele>
        <time>2021-05-29 11:27:40</time>
      </trkpt>
      <trkpt lat="43.30222" lon="-2.05212">
        <ele>244.6</ele>
        <time>2021-05-29 11:27:41</time>
      </trkpt>
      <trkpt lat="43.30219" lon="-2.05218">
        <ele>245</ele>
        <time>2021-05-29 11:27:42</time>
      </trkpt>
      <trkpt lat="43.30217" lon="-2.05224">
        <ele>245.2</ele>
        <time>2021-05-29 11:27:43</time>
      </trkpt>
      <trkpt lat="43.30214" lon="-2.0523">
        <ele>245.4</ele>
        <time>2021-05-29 11:27:44</time>
      </trkpt>
      <trkpt lat="43.30212" lon="-2.05236">
        <ele>245.8</ele>
        <time>2021-05-29 11:27:45</time>
      </trkpt>
      <trkpt lat="43.30209" lon="-2.05242">
        <ele>246.4</ele>
        <time>2021-05-29 11:27:46</time>
      </trkpt>
      <trkpt lat="43.30207" lon="-2.05248">
        <ele>246.6</ele>
        <time>2021-05-29 11:27:47</time>
      </trkpt>
      <trkpt lat="43.30204" lon="-2.05254">
        <ele>246.8</ele>
        <time>2021-05-29 11:27:48</time>
      </trkpt>
      <trkpt lat="43.30201" lon="-2.05261">
        <ele>247</ele>
        <time>2021-05-29 11:27:49</time>
      </trkpt>
      <trkpt lat="43.30199" lon="-2.05267">
        <ele>247.2</ele>
        <time>2021-05-29 11:27:50</time>
      </trkpt>
      <trkpt lat="43.30197" lon="-2.05274">
        <ele>247.6</ele>
        <time>2021-05-29 11:27:51</time>
      </trkpt>
      <trkpt lat="43.30195" lon="-2.05281">
        <ele>247.8</ele>
        <time>2021-05-29 11:27:52</time>
      </trkpt>
      <trkpt lat="43.30192" lon="-2.05288">
        <ele>248</ele>
        <time>2021-05-29 11:27:53</time>
      </trkpt>
      <trkpt lat="43.3019" lon="-2.05294">
        <ele>248</ele>
        <time>2021-05-29 11:27:54</time>
      </trkpt>
      <trkpt lat="43.30188" lon="-2.05301">
        <ele>248</ele>
        <time>2021-05-29 11:27:55</time>
      </trkpt>
      <trkpt lat="43.30187" lon="-2.05308">
        <ele>248.2</ele>
        <time>2021-05-29 11:27:56</time>
      </trkpt>
      <trkpt lat="43.30185" lon="-2.05314">
        <ele>248.2</ele>
        <time>2021-05-29 11:27:57</time>
      </trkpt>
      <trkpt lat="43.30183" lon="-2.05321">
        <ele>248.2</ele>
        <time>2021-05-29 11:27:58</time>
      </trkpt>
      <trkpt lat="43.30182" lon="-2.05327">
        <ele>248.2</ele>
        <time>2021-05-29 11:27:59</time>
      </trkpt>
      <trkpt lat="43.30181" lon="-2.05334">
        <ele>248.2</ele>
        <time>2021-05-29 11:28:00</time>
      </trkpt>
      <trkpt lat="43.30179" lon="-2.0534">
        <ele>248.2</ele>
        <time>2021-05-29 11:28:01</time>
      </trkpt>
      <trkpt lat="43.30178" lon="-2.05347">
        <ele>248.2</ele>
        <time>2021-05-29 11:28:02</time>
      </trkpt>
      <trkpt lat="43.30177" lon="-2.05353">
        <ele>248.4</ele>
        <time>2021-05-29 11:28:03</time>
      </trkpt>
      <trkpt lat="43.30175" lon="-2.05359">
        <ele>248.6</ele>
        <time>2021-05-29 11:28:04</time>
      </trkpt>
      <trkpt lat="43.30173" lon="-2.05366">
        <ele>248.8</ele>
        <time>2021-05-29 11:28:05</time>
      </trkpt>
      <trkpt lat="43.30172" lon="-2.05372">
        <ele>249</ele>
        <time>2021-05-29 11:28:06</time>
      </trkpt>
      <trkpt lat="43.3017" lon="-2.05378">
        <ele>249.2</ele>
        <time>2021-05-29 11:28:07</time>
      </trkpt>
      <trkpt lat="43.30169" lon="-2.05384">
        <ele>249.4</ele>
        <time>2021-05-29 11:28:08</time>
      </trkpt>
      <trkpt lat="43.30168" lon="-2.0539">
        <ele>249.6</ele>
        <time>2021-05-29 11:28:09</time>
      </trkpt>
      <trkpt lat="43.30166" lon="-2.05396">
        <ele>250</ele>
        <time>2021-05-29 11:28:10</time>
      </trkpt>
      <trkpt lat="43.30165" lon="-2.05401">
        <ele>250.2</ele>
        <time>2021-05-29 11:28:11</time>
      </trkpt>
      <trkpt lat="43.30164" lon="-2.05407">
        <ele>250.4</ele>
        <time>2021-05-29 11:28:12</time>
      </trkpt>
      <trkpt lat="43.30163" lon="-2.05412">
        <ele>250.6</ele>
        <time>2021-05-29 11:28:13</time>
      </trkpt>
      <trkpt lat="43.30162" lon="-2.05418">
        <ele>251</ele>
        <time>2021-05-29 11:28:14</time>
      </trkpt>
      <trkpt lat="43.3016" lon="-2.05423">
        <ele>251.2</ele>
        <time>2021-05-29 11:28:15</time>
      </trkpt>
      <trkpt lat="43.30159" lon="-2.05429">
        <ele>251.6</ele>
        <time>2021-05-29 11:28:16</time>
      </trkpt>
      <trkpt lat="43.30158" lon="-2.05434">
        <ele>252</ele>
        <time>2021-05-29 11:28:17</time>
      </trkpt>
      <trkpt lat="43.30157" lon="-2.0544">
        <ele>252.4</ele>
        <time>2021-05-29 11:28:18</time>
      </trkpt>
      <trkpt lat="43.30156" lon="-2.05445">
        <ele>253</ele>
        <time>2021-05-29 11:28:19</time>
      </trkpt>
      <trkpt lat="43.30155" lon="-2.05451">
        <ele>253.2</ele>
        <time>2021-05-29 11:28:20</time>
      </trkpt>
      <trkpt lat="43.30154" lon="-2.05456">
        <ele>253.4</ele>
        <time>2021-05-29 11:28:21</time>
      </trkpt>
      <trkpt lat="43.30152" lon="-2.05461">
        <ele>253.8</ele>
        <time>2021-05-29 11:28:22</time>
      </trkpt>
      <trkpt lat="43.30151" lon="-2.05467">
        <ele>254</ele>
        <time>2021-05-29 11:28:23</time>
      </trkpt>
      <trkpt lat="43.30151" lon="-2.05471">
        <ele>254.4</ele>
        <time>2021-05-29 11:28:24</time>
      </trkpt>
      <trkpt lat="43.3015" lon="-2.05475">
        <ele>254.6</ele>
        <time>2021-05-29 11:28:25</time>
      </trkpt>
      <trkpt lat="43.30148" lon="-2.05479">
        <ele>255</ele>
        <time>2021-05-29 11:28:26</time>
      </trkpt>
      <trkpt lat="43.30147" lon="-2.05483">
        <ele>255.2</ele>
        <time>2021-05-29 11:28:27</time>
      </trkpt>
      <trkpt lat="43.30145" lon="-2.05487">
        <ele>255.4</ele>
        <time>2021-05-29 11:28:28</time>
      </trkpt>
      <trkpt lat="43.30142" lon="-2.05491">
        <ele>255.6</ele>
        <time>2021-05-29 11:28:29</time>
      </trkpt>
      <trkpt lat="43.3014" lon="-2.05495">
        <ele>256</ele>
        <time>2021-05-29 11:28:30</time>
      </trkpt>
      <trkpt lat="43.30137" lon="-2.05499">
        <ele>256.2</ele>
        <time>2021-05-29 11:28:31</time>
      </trkpt>
      <trkpt lat="43.30135" lon="-2.05503">
        <ele>256.4</ele>
        <time>2021-05-29 11:28:32</time>
      </trkpt>
      <trkpt lat="43.30131" lon="-2.05507">
        <ele>256.6</ele>
        <time>2021-05-29 11:28:33</time>
      </trkpt>
      <trkpt lat="43.30128" lon="-2.05511">
        <ele>257</ele>
        <time>2021-05-29 11:28:34</time>
      </trkpt>
      <trkpt lat="43.30124" lon="-2.05515">
        <ele>257.2</ele>
        <time>2021-05-29 11:28:35</time>
      </trkpt>
      <trkpt lat="43.30121" lon="-2.05519">
        <ele>257.6</ele>
        <time>2021-05-29 11:28:36</time>
      </trkpt>
      <trkpt lat="43.30116" lon="-2.05522">
        <ele>258</ele>
        <time>2021-05-29 11:28:37</time>
      </trkpt>
      <trkpt lat="43.30113" lon="-2.05526">
        <ele>258.2</ele>
        <time>2021-05-29 11:28:38</time>
      </trkpt>
      <trkpt lat="43.30109" lon="-2.05529">
        <ele>258.6</ele>
        <time>2021-05-29 11:28:39</time>
      </trkpt>
      <trkpt lat="43.30105" lon="-2.05532">
        <ele>258.6</ele>
        <time>2021-05-29 11:28:40</time>
      </trkpt>
      <trkpt lat="43.30101" lon="-2.05534">
        <ele>258.8</ele>
        <time>2021-05-29 11:28:41</time>
      </trkpt>
      <trkpt lat="43.30097" lon="-2.05537">
        <ele>258.8</ele>
        <time>2021-05-29 11:28:42</time>
      </trkpt>
      <trkpt lat="43.30093" lon="-2.05539">
        <ele>259</ele>
        <time>2021-05-29 11:28:43</time>
      </trkpt>
      <trkpt lat="43.30089" lon="-2.05541">
        <ele>259.2</ele>
        <time>2021-05-29 11:28:44</time>
      </trkpt>
      <trkpt lat="43.30085" lon="-2.05543">
        <ele>259.4</ele>
        <time>2021-05-29 11:28:45</time>
      </trkpt>
      <trkpt lat="43.30082" lon="-2.05545">
        <ele>259.6</ele>
        <time>2021-05-29 11:28:46</time>
      </trkpt>
      <trkpt lat="43.30078" lon="-2.05548">
        <ele>259.8</ele>
        <time>2021-05-29 11:28:47</time>
      </trkpt>
      <trkpt lat="43.30074" lon="-2.0555">
        <ele>260</ele>
        <time>2021-05-29 11:28:48</time>
      </trkpt>
      <trkpt lat="43.30071" lon="-2.05553">
        <ele>260.2</ele>
        <time>2021-05-29 11:28:49</time>
      </trkpt>
      <trkpt lat="43.30067" lon="-2.05556">
        <ele>260.4</ele>
        <time>2021-05-29 11:28:50</time>
      </trkpt>
      <trkpt lat="43.30064" lon="-2.05558">
        <ele>261.2</ele>
        <time>2021-05-29 11:28:51</time>
      </trkpt>
      <trkpt lat="43.30061" lon="-2.0556">
        <ele>261.6</ele>
        <time>2021-05-29 11:28:52</time>
      </trkpt>
      <trkpt lat="43.30057" lon="-2.05562">
        <ele>262</ele>
        <time>2021-05-29 11:28:53</time>
      </trkpt>
      <trkpt lat="43.30054" lon="-2.05564">
        <ele>262.4</ele>
        <time>2021-05-29 11:28:54</time>
      </trkpt>
      <trkpt lat="43.3005" lon="-2.05567">
        <ele>262.6</ele>
        <time>2021-05-29 11:28:55</time>
      </trkpt>
      <trkpt lat="43.30047" lon="-2.0557">
        <ele>263</ele>
        <time>2021-05-29 11:28:56</time>
      </trkpt>
      <trkpt lat="43.30044" lon="-2.05572">
        <ele>263.2</ele>
        <time>2021-05-29 11:28:57</time>
      </trkpt>
      <trkpt lat="43.30041" lon="-2.05575">
        <ele>263.4</ele>
        <time>2021-05-29 11:28:58</time>
      </trkpt>
      <trkpt lat="43.30038" lon="-2.05578">
        <ele>263.8</ele>
        <time>2021-05-29 11:28:59</time>
      </trkpt>
      <trkpt lat="43.30035" lon="-2.05581">
        <ele>264.2</ele>
        <time>2021-05-29 11:29:00</time>
      </trkpt>
      <trkpt lat="43.30032" lon="-2.05584">
        <ele>264.6</ele>
        <time>2021-05-29 11:29:01</time>
      </trkpt>
      <trkpt lat="43.30029" lon="-2.05587">
        <ele>264.8</ele>
        <time>2021-05-29 11:29:02</time>
      </trkpt>
      <trkpt lat="43.30027" lon="-2.0559">
        <ele>265.2</ele>
        <time>2021-05-29 11:29:03</time>
      </trkpt>
      <trkpt lat="43.30025" lon="-2.05594">
        <ele>265.4</ele>
        <time>2021-05-29 11:29:04</time>
      </trkpt>
      <trkpt lat="43.30023" lon="-2.05598">
        <ele>265.8</ele>
        <time>2021-05-29 11:29:05</time>
      </trkpt>
      <trkpt lat="43.3002" lon="-2.05603">
        <ele>266</ele>
        <time>2021-05-29 11:29:06</time>
      </trkpt>
      <trkpt lat="43.30019" lon="-2.05607">
        <ele>266.4</ele>
        <time>2021-05-29 11:29:07</time>
      </trkpt>
      <trkpt lat="43.30017" lon="-2.05611">
        <ele>266.6</ele>
        <time>2021-05-29 11:29:08</time>
      </trkpt>
      <trkpt lat="43.30015" lon="-2.05616">
        <ele>266.8</ele>
        <time>2021-05-29 11:29:09</time>
      </trkpt>
      <trkpt lat="43.30013" lon="-2.0562">
        <ele>267</ele>
        <time>2021-05-29 11:29:10</time>
      </trkpt>
      <trkpt lat="43.30012" lon="-2.05624">
        <ele>267</ele>
        <time>2021-05-29 11:29:11</time>
      </trkpt>
      <trkpt lat="43.30011" lon="-2.05629">
        <ele>267.4</ele>
        <time>2021-05-29 11:29:12</time>
      </trkpt>
      <trkpt lat="43.3001" lon="-2.05634">
        <ele>267.6</ele>
        <time>2021-05-29 11:29:13</time>
      </trkpt>
      <trkpt lat="43.30009" lon="-2.05638">
        <ele>268</ele>
        <time>2021-05-29 11:29:14</time>
      </trkpt>
      <trkpt lat="43.30008" lon="-2.05643">
        <ele>268.2</ele>
        <time>2021-05-29 11:29:15</time>
      </trkpt>
      <trkpt lat="43.30008" lon="-2.05648">
        <ele>268.6</ele>
        <time>2021-05-29 11:29:16</time>
      </trkpt>
      <trkpt lat="43.30007" lon="-2.05652">
        <ele>269</ele>
        <time>2021-05-29 11:29:17</time>
      </trkpt>
      <trkpt lat="43.30007" lon="-2.05657">
        <ele>269.2</ele>
        <time>2021-05-29 11:29:18</time>
      </trkpt>
      <trkpt lat="43.30007" lon="-2.05661">
        <ele>269.4</ele>
        <time>2021-05-29 11:29:19</time>
      </trkpt>
      <trkpt lat="43.30007" lon="-2.05666">
        <ele>269.8</ele>
        <time>2021-05-29 11:29:20</time>
      </trkpt>
      <trkpt lat="43.30007" lon="-2.0567">
        <ele>270</ele>
        <time>2021-05-29 11:29:21</time>
      </trkpt>
      <trkpt lat="43.30006" lon="-2.05675">
        <ele>270.2</ele>
        <time>2021-05-29 11:29:22</time>
      </trkpt>
      <trkpt lat="43.30006" lon="-2.05679">
        <ele>270.4</ele>
        <time>2021-05-29 11:29:23</time>
      </trkpt>
      <trkpt lat="43.30006" lon="-2.05684">
        <ele>270.6</ele>
        <time>2021-05-29 11:29:24</time>
      </trkpt>
      <trkpt lat="43.30006" lon="-2.05689">
        <ele>271</ele>
        <time>2021-05-29 11:29:25</time>
      </trkpt>
      <trkpt lat="43.30006" lon="-2.05693">
        <ele>271.2</ele>
        <time>2021-05-29 11:29:26</time>
      </trkpt>
      <trkpt lat="43.30005" lon="-2.05698">
        <ele>271.6</ele>
        <time>2021-05-29 11:29:27</time>
      </trkpt>
      <trkpt lat="43.30005" lon="-2.05703">
        <ele>271.8</ele>
        <time>2021-05-29 11:29:28</time>
      </trkpt>
      <trkpt lat="43.30005" lon="-2.05708">
        <ele>272.2</ele>
        <time>2021-05-29 11:29:29</time>
      </trkpt>
      <trkpt lat="43.30005" lon="-2.05713">
        <ele>272.2</ele>
        <time>2021-05-29 11:29:30</time>
      </trkpt>
      <trkpt lat="43.30005" lon="-2.05717">
        <ele>272.6</ele>
        <time>2021-05-29 11:29:31</time>
      </trkpt>
      <trkpt lat="43.30005" lon="-2.05722">
        <ele>273</ele>
        <time>2021-05-29 11:29:32</time>
      </trkpt>
      <trkpt lat="43.30005" lon="-2.05727">
        <ele>273.2</ele>
        <time>2021-05-29 11:29:33</time>
      </trkpt>
      <trkpt lat="43.30005" lon="-2.05732">
        <ele>274</ele>
        <time>2021-05-29 11:29:34</time>
      </trkpt>
      <trkpt lat="43.30006" lon="-2.05736">
        <ele>274.4</ele>
        <time>2021-05-29 11:29:35</time>
      </trkpt>
      <trkpt lat="43.30006" lon="-2.05741">
        <ele>274.8</ele>
        <time>2021-05-29 11:29:36</time>
      </trkpt>
      <trkpt lat="43.30006" lon="-2.05746">
        <ele>275</ele>
        <time>2021-05-29 11:29:37</time>
      </trkpt>
      <trkpt lat="43.30007" lon="-2.0575">
        <ele>275.2</ele>
        <time>2021-05-29 11:29:38</time>
      </trkpt>
      <trkpt lat="43.30007" lon="-2.05755">
        <ele>275.4</ele>
        <time>2021-05-29 11:29:39</time>
      </trkpt>
      <trkpt lat="43.30008" lon="-2.0576">
        <ele>275.6</ele>
        <time>2021-05-29 11:29:40</time>
      </trkpt>
      <trkpt lat="43.30008" lon="-2.05765">
        <ele>275.8</ele>
        <time>2021-05-29 11:29:41</time>
      </trkpt>
      <trkpt lat="43.30008" lon="-2.05769">
        <ele>276.2</ele>
        <time>2021-05-29 11:29:42</time>
      </trkpt>
      <trkpt lat="43.30009" lon="-2.05774">
        <ele>276.6</ele>
        <time>2021-05-29 11:29:43</time>
      </trkpt>
      <trkpt lat="43.30009" lon="-2.05779">
        <ele>277</ele>
        <time>2021-05-29 11:29:44</time>
      </trkpt>
      <trkpt lat="43.30009" lon="-2.05784">
        <ele>277.2</ele>
        <time>2021-05-29 11:29:45</time>
      </trkpt>
      <trkpt lat="43.30009" lon="-2.05788">
        <ele>277.4</ele>
        <time>2021-05-29 11:29:46</time>
      </trkpt>
      <trkpt lat="43.3001" lon="-2.05793">
        <ele>277.4</ele>
        <time>2021-05-29 11:29:47</time>
      </trkpt>
      <trkpt lat="43.3001" lon="-2.05798">
        <ele>277.6</ele>
        <time>2021-05-29 11:29:48</time>
      </trkpt>
      <trkpt lat="43.3001" lon="-2.05803">
        <ele>278</ele>
        <time>2021-05-29 11:29:49</time>
      </trkpt>
      <trkpt lat="43.30011" lon="-2.05807">
        <ele>278.2</ele>
        <time>2021-05-29 11:29:50</time>
      </trkpt>
      <trkpt lat="43.30012" lon="-2.05812">
        <ele>278.8</ele>
        <time>2021-05-29 11:29:51</time>
      </trkpt>
      <trkpt lat="43.30012" lon="-2.05816">
        <ele>278.8</ele>
        <time>2021-05-29 11:29:52</time>
      </trkpt>
      <trkpt lat="43.30013" lon="-2.05821">
        <ele>279.2</ele>
        <time>2021-05-29 11:29:53</time>
      </trkpt>
      <trkpt lat="43.30014" lon="-2.05825">
        <ele>279.8</ele>
        <time>2021-05-29 11:29:54</time>
      </trkpt>
      <trkpt lat="43.30015" lon="-2.0583">
        <ele>280.2</ele>
        <time>2021-05-29 11:29:55</time>
      </trkpt>
      <trkpt lat="43.30016" lon="-2.05834">
        <ele>280.6</ele>
        <time>2021-05-29 11:29:56</time>
      </trkpt>
      <trkpt lat="43.30016" lon="-2.05838">
        <ele>280.8</ele>
        <time>2021-05-29 11:29:57</time>
      </trkpt>
      <trkpt lat="43.30017" lon="-2.05843">
        <ele>281</ele>
        <time>2021-05-29 11:29:58</time>
      </trkpt>
      <trkpt lat="43.30018" lon="-2.05847">
        <ele>281.2</ele>
        <time>2021-05-29 11:29:59</time>
      </trkpt>
      <trkpt lat="43.30018" lon="-2.05852">
        <ele>281.4</ele>
        <time>2021-05-29 11:30:00</time>
      </trkpt>
      <trkpt lat="43.30019" lon="-2.05856">
        <ele>281.8</ele>
        <time>2021-05-29 11:30:01</time>
      </trkpt>
      <trkpt lat="43.30019" lon="-2.05861">
        <ele>282.2</ele>
        <time>2021-05-29 11:30:02</time>
      </trkpt>
      <trkpt lat="43.30019" lon="-2.05866">
        <ele>282.6</ele>
        <time>2021-05-29 11:30:03</time>
      </trkpt>
      <trkpt lat="43.30019" lon="-2.0587">
        <ele>282.8</ele>
        <time>2021-05-29 11:30:04</time>
      </trkpt>
      <trkpt lat="43.30019" lon="-2.05875">
        <ele>283</ele>
        <time>2021-05-29 11:30:05</time>
      </trkpt>
      <trkpt lat="43.30019" lon="-2.0588">
        <ele>283.2</ele>
        <time>2021-05-29 11:30:06</time>
      </trkpt>
      <trkpt lat="43.30019" lon="-2.05885">
        <ele>283.4</ele>
        <time>2021-05-29 11:30:07</time>
      </trkpt>
      <trkpt lat="43.30018" lon="-2.0589">
        <ele>283.4</ele>
        <time>2021-05-29 11:30:08</time>
      </trkpt>
      <trkpt lat="43.30017" lon="-2.05895">
        <ele>284.2</ele>
        <time>2021-05-29 11:30:09</time>
      </trkpt>
      <trkpt lat="43.30017" lon="-2.059">
        <ele>284.6</ele>
        <time>2021-05-29 11:30:10</time>
      </trkpt>
      <trkpt lat="43.30016" lon="-2.05905">
        <ele>285</ele>
        <time>2021-05-29 11:30:11</time>
      </trkpt>
      <trkpt lat="43.30014" lon="-2.05909">
        <ele>285.4</ele>
        <time>2021-05-29 11:30:12</time>
      </trkpt>
      <trkpt lat="43.30013" lon="-2.05914">
        <ele>285.8</ele>
        <time>2021-05-29 11:30:13</time>
      </trkpt>
      <trkpt lat="43.30011" lon="-2.05919">
        <ele>285.8</ele>
        <time>2021-05-29 11:30:14</time>
      </trkpt>
      <trkpt lat="43.3001" lon="-2.05923">
        <ele>286</ele>
        <time>2021-05-29 11:30:15</time>
      </trkpt>
      <trkpt lat="43.30008" lon="-2.05928">
        <ele>286.2</ele>
        <time>2021-05-29 11:30:16</time>
      </trkpt>
      <trkpt lat="43.30006" lon="-2.05932">
        <ele>286.4</ele>
        <time>2021-05-29 11:30:17</time>
      </trkpt>
      <trkpt lat="43.30005" lon="-2.05936">
        <ele>286.6</ele>
        <time>2021-05-29 11:30:18</time>
      </trkpt>
      <trkpt lat="43.30003" lon="-2.0594">
        <ele>287</ele>
        <time>2021-05-29 11:30:19</time>
      </trkpt>
      <trkpt lat="43.30002" lon="-2.05944">
        <ele>287.2</ele>
        <time>2021-05-29 11:30:20</time>
      </trkpt>
      <trkpt lat="43.3" lon="-2.05949">
        <ele>287.4</ele>
        <time>2021-05-29 11:30:21</time>
      </trkpt>
      <trkpt lat="43.29999" lon="-2.05953">
        <ele>287.8</ele>
        <time>2021-05-29 11:30:22</time>
      </trkpt>
      <trkpt lat="43.29998" lon="-2.05957">
        <ele>288</ele>
        <time>2021-05-29 11:30:23</time>
      </trkpt>
      <trkpt lat="43.29996" lon="-2.05962">
        <ele>288.4</ele>
        <time>2021-05-29 11:30:24</time>
      </trkpt>
      <trkpt lat="43.29994" lon="-2.05965">
        <ele>288.6</ele>
        <time>2021-05-29 11:30:25</time>
      </trkpt>
      <trkpt lat="43.29993" lon="-2.05969">
        <ele>288.8</ele>
        <time>2021-05-29 11:30:26</time>
      </trkpt>
      <trkpt lat="43.29991" lon="-2.05974">
        <ele>289</ele>
        <time>2021-05-29 11:30:27</time>
      </trkpt>
      <trkpt lat="43.29989" lon="-2.05978">
        <ele>289.6</ele>
        <time>2021-05-29 11:30:28</time>
      </trkpt>
      <trkpt lat="43.29987" lon="-2.05982">
        <ele>289.8</ele>
        <time>2021-05-29 11:30:29</time>
      </trkpt>
      <trkpt lat="43.29986" lon="-2.05987">
        <ele>290</ele>
        <time>2021-05-29 11:30:30</time>
      </trkpt>
      <trkpt lat="43.29986" lon="-2.05992">
        <ele>290.4</ele>
        <time>2021-05-29 11:30:31</time>
      </trkpt>
      <trkpt lat="43.29985" lon="-2.05997">
        <ele>290.8</ele>
        <time>2021-05-29 11:30:32</time>
      </trkpt>
      <trkpt lat="43.29985" lon="-2.06003">
        <ele>291</ele>
        <time>2021-05-29 11:30:33</time>
      </trkpt>
      <trkpt lat="43.29984" lon="-2.06008">
        <ele>291.2</ele>
        <time>2021-05-29 11:30:34</time>
      </trkpt>
      <trkpt lat="43.29984" lon="-2.06012">
        <ele>291.4</ele>
        <time>2021-05-29 11:30:35</time>
      </trkpt>
      <trkpt lat="43.29983" lon="-2.06017">
        <ele>291.6</ele>
        <time>2021-05-29 11:30:36</time>
      </trkpt>
      <trkpt lat="43.29983" lon="-2.06022">
        <ele>292</ele>
        <time>2021-05-29 11:30:37</time>
      </trkpt>
      <trkpt lat="43.29983" lon="-2.06026">
        <ele>292.2</ele>
        <time>2021-05-29 11:30:38</time>
      </trkpt>
      <trkpt lat="43.29983" lon="-2.0603">
        <ele>292.4</ele>
        <time>2021-05-29 11:30:39</time>
      </trkpt>
      <trkpt lat="43.29983" lon="-2.06035">
        <ele>292.8</ele>
        <time>2021-05-29 11:30:40</time>
      </trkpt>
      <trkpt lat="43.29983" lon="-2.06041">
        <ele>293</ele>
        <time>2021-05-29 11:30:41</time>
      </trkpt>
      <trkpt lat="43.29983" lon="-2.06046">
        <ele>293.2</ele>
        <time>2021-05-29 11:30:42</time>
      </trkpt>
      <trkpt lat="43.29982" lon="-2.06051">
        <ele>293.8</ele>
        <time>2021-05-29 11:30:43</time>
      </trkpt>
      <trkpt lat="43.29982" lon="-2.06056">
        <ele>294</ele>
        <time>2021-05-29 11:30:44</time>
      </trkpt>
      <trkpt lat="43.29981" lon="-2.06062">
        <ele>294.4</ele>
        <time>2021-05-29 11:30:45</time>
      </trkpt>
      <trkpt lat="43.29981" lon="-2.06068">
        <ele>294.6</ele>
        <time>2021-05-29 11:30:46</time>
      </trkpt>
      <trkpt lat="43.29981" lon="-2.06074">
        <ele>295</ele>
        <time>2021-05-29 11:30:47</time>
      </trkpt>
      <trkpt lat="43.2998" lon="-2.0608">
        <ele>295.2</ele>
        <time>2021-05-29 11:30:48</time>
      </trkpt>
      <trkpt lat="43.2998" lon="-2.06086">
        <ele>295.2</ele>
        <time>2021-05-29 11:30:49</time>
      </trkpt>
      <trkpt lat="43.29979" lon="-2.06093">
        <ele>295.8</ele>
        <time>2021-05-29 11:30:50</time>
      </trkpt>
      <trkpt lat="43.29979" lon="-2.061">
        <ele>296</ele>
        <time>2021-05-29 11:30:51</time>
      </trkpt>
      <trkpt lat="43.29979" lon="-2.06106">
        <ele>296.2</ele>
        <time>2021-05-29 11:30:52</time>
      </trkpt>
      <trkpt lat="43.29979" lon="-2.06113">
        <ele>296.4</ele>
        <time>2021-05-29 11:30:53</time>
      </trkpt>
      <trkpt lat="43.29978" lon="-2.06119">
        <ele>296.4</ele>
        <time>2021-05-29 11:30:54</time>
      </trkpt>
      <trkpt lat="43.29978" lon="-2.06126">
        <ele>296.6</ele>
        <time>2021-05-29 11:30:55</time>
      </trkpt>
      <trkpt lat="43.29977" lon="-2.06132">
        <ele>296.6</ele>
        <time>2021-05-29 11:30:56</time>
      </trkpt>
      <trkpt lat="43.29976" lon="-2.06137">
        <ele>296.8</ele>
        <time>2021-05-29 11:30:57</time>
      </trkpt>
      <trkpt lat="43.29975" lon="-2.06143">
        <ele>296.8</ele>
        <time>2021-05-29 11:30:58</time>
      </trkpt>
      <trkpt lat="43.29974" lon="-2.06148">
        <ele>297</ele>
        <time>2021-05-29 11:30:59</time>
      </trkpt>
      <trkpt lat="43.29973" lon="-2.06153">
        <ele>297</ele>
        <time>2021-05-29 11:31:00</time>
      </trkpt>
      <trkpt lat="43.29972" lon="-2.06158">
        <ele>297</ele>
        <time>2021-05-29 11:31:01</time>
      </trkpt>
      <trkpt lat="43.29971" lon="-2.06162">
        <ele>297.2</ele>
        <time>2021-05-29 11:31:02</time>
      </trkpt>
      <trkpt lat="43.2997" lon="-2.06167">
        <ele>297.2</ele>
        <time>2021-05-29 11:31:03</time>
      </trkpt>
      <trkpt lat="43.29968" lon="-2.06171">
        <ele>297.2</ele>
        <time>2021-05-29 11:31:04</time>
      </trkpt>
      <trkpt lat="43.29967" lon="-2.06176">
        <ele>297.4</ele>
        <time>2021-05-29 11:31:05</time>
      </trkpt>
      <trkpt lat="43.29965" lon="-2.06181">
        <ele>297.4</ele>
        <time>2021-05-29 11:31:06</time>
      </trkpt>
      <trkpt lat="43.29964" lon="-2.06186">
        <ele>297.8</ele>
        <time>2021-05-29 11:31:07</time>
      </trkpt>
      <trkpt lat="43.29963" lon="-2.0619">
        <ele>298.2</ele>
        <time>2021-05-29 11:31:08</time>
      </trkpt>
      <trkpt lat="43.29961" lon="-2.06195">
        <ele>298.2</ele>
        <time>2021-05-29 11:31:09</time>
      </trkpt>
      <trkpt lat="43.2996" lon="-2.06199">
        <ele>298.6</ele>
        <time>2021-05-29 11:31:10</time>
      </trkpt>
      <trkpt lat="43.29958" lon="-2.06204">
        <ele>299</ele>
        <time>2021-05-29 11:31:11</time>
      </trkpt>
      <trkpt lat="43.29957" lon="-2.06208">
        <ele>299.2</ele>
        <time>2021-05-29 11:31:12</time>
      </trkpt>
      <trkpt lat="43.29955" lon="-2.06213">
        <ele>299.4</ele>
        <time>2021-05-29 11:31:13</time>
      </trkpt>
      <trkpt lat="43.29954" lon="-2.06217">
        <ele>299.8</ele>
        <time>2021-05-29 11:31:14</time>
      </trkpt>
      <trkpt lat="43.29952" lon="-2.06221">
        <ele>300.2</ele>
        <time>2021-05-29 11:31:15</time>
      </trkpt>
      <trkpt lat="43.29951" lon="-2.06225">
        <ele>300.4</ele>
        <time>2021-05-29 11:31:16</time>
      </trkpt>
      <trkpt lat="43.2995" lon="-2.06228">
        <ele>300.8</ele>
        <time>2021-05-29 11:31:17</time>
      </trkpt>
      <trkpt lat="43.29949" lon="-2.06231">
        <ele>301.4</ele>
        <time>2021-05-29 11:31:18</time>
      </trkpt>
      <trkpt lat="43.29947" lon="-2.06235">
        <ele>301.6</ele>
        <time>2021-05-29 11:31:19</time>
      </trkpt>
      <trkpt lat="43.29946" lon="-2.06239">
        <ele>301.8</ele>
        <time>2021-05-29 11:31:20</time>
      </trkpt>
      <trkpt lat="43.29945" lon="-2.06242">
        <ele>302</ele>
        <time>2021-05-29 11:31:21</time>
      </trkpt>
      <trkpt lat="43.29944" lon="-2.06246">
        <ele>302.4</ele>
        <time>2021-05-29 11:31:22</time>
      </trkpt>
      <trkpt lat="43.29942" lon="-2.06249">
        <ele>302.6</ele>
        <time>2021-05-29 11:31:23</time>
      </trkpt>
      <trkpt lat="43.29941" lon="-2.06252">
        <ele>303</ele>
        <time>2021-05-29 11:31:24</time>
      </trkpt>
      <trkpt lat="43.29939" lon="-2.06255">
        <ele>303.4</ele>
        <time>2021-05-29 11:31:25</time>
      </trkpt>
      <trkpt lat="43.29938" lon="-2.06258">
        <ele>303.8</ele>
        <time>2021-05-29 11:31:26</time>
      </trkpt>
      <trkpt lat="43.29937" lon="-2.06262">
        <ele>303.8</ele>
        <time>2021-05-29 11:31:27</time>
      </trkpt>
      <trkpt lat="43.29935" lon="-2.06265">
        <ele>304.2</ele>
        <time>2021-05-29 11:31:28</time>
      </trkpt>
      <trkpt lat="43.29934" lon="-2.06269">
        <ele>304.6</ele>
        <time>2021-05-29 11:31:29</time>
      </trkpt>
      <trkpt lat="43.29932" lon="-2.06273">
        <ele>305</ele>
        <time>2021-05-29 11:31:30</time>
      </trkpt>
      <trkpt lat="43.2993" lon="-2.06276">
        <ele>305.2</ele>
        <time>2021-05-29 11:31:31</time>
      </trkpt>
      <trkpt lat="43.29929" lon="-2.0628">
        <ele>305.6</ele>
        <time>2021-05-29 11:31:32</time>
      </trkpt>
      <trkpt lat="43.29928" lon="-2.06284">
        <ele>306</ele>
        <time>2021-05-29 11:31:33</time>
      </trkpt>
      <trkpt lat="43.29927" lon="-2.06288">
        <ele>306.4</ele>
        <time>2021-05-29 11:31:34</time>
      </trkpt>
      <trkpt lat="43.29926" lon="-2.06292">
        <ele>306.8</ele>
        <time>2021-05-29 11:31:35</time>
      </trkpt>
      <trkpt lat="43.29925" lon="-2.06296">
        <ele>307</ele>
        <time>2021-05-29 11:31:36</time>
      </trkpt>
      <trkpt lat="43.29924" lon="-2.063">
        <ele>307.2</ele>
        <time>2021-05-29 11:31:37</time>
      </trkpt>
      <trkpt lat="43.29924" lon="-2.06304">
        <ele>307.4</ele>
        <time>2021-05-29 11:31:38</time>
      </trkpt>
      <trkpt lat="43.29923" lon="-2.06308">
        <ele>307.8</ele>
        <time>2021-05-29 11:31:39</time>
      </trkpt>
      <trkpt lat="43.29923" lon="-2.06312">
        <ele>308.2</ele>
        <time>2021-05-29 11:31:40</time>
      </trkpt>
      <trkpt lat="43.29923" lon="-2.06317">
        <ele>308.4</ele>
        <time>2021-05-29 11:31:41</time>
      </trkpt>
      <trkpt lat="43.29922" lon="-2.06323">
        <ele>308.8</ele>
        <time>2021-05-29 11:31:42</time>
      </trkpt>
      <trkpt lat="43.29922" lon="-2.06327">
        <ele>309</ele>
        <time>2021-05-29 11:31:43</time>
      </trkpt>
      <trkpt lat="43.29923" lon="-2.06333">
        <ele>309.4</ele>
        <time>2021-05-29 11:31:44</time>
      </trkpt>
      <trkpt lat="43.29923" lon="-2.06338">
        <ele>309.6</ele>
        <time>2021-05-29 11:31:45</time>
      </trkpt>
      <trkpt lat="43.29924" lon="-2.06342">
        <ele>310</ele>
        <time>2021-05-29 11:31:46</time>
      </trkpt>
      <trkpt lat="43.29926" lon="-2.06347">
        <ele>310.2</ele>
        <time>2021-05-29 11:31:47</time>
      </trkpt>
      <trkpt lat="43.29926" lon="-2.06351">
        <ele>310.6</ele>
        <time>2021-05-29 11:31:48</time>
      </trkpt>
      <trkpt lat="43.29927" lon="-2.06356">
        <ele>310.8</ele>
        <time>2021-05-29 11:31:49</time>
      </trkpt>
      <trkpt lat="43.29927" lon="-2.0636">
        <ele>311.2</ele>
        <time>2021-05-29 11:31:50</time>
      </trkpt>
      <trkpt lat="43.29929" lon="-2.06365">
        <ele>311.4</ele>
        <time>2021-05-29 11:31:51</time>
      </trkpt>
      <trkpt lat="43.29931" lon="-2.0637">
        <ele>311.8</ele>
        <time>2021-05-29 11:31:52</time>
      </trkpt>
      <trkpt lat="43.29933" lon="-2.06375">
        <ele>312.4</ele>
        <time>2021-05-29 11:31:53</time>
      </trkpt>
      <trkpt lat="43.29935" lon="-2.0638">
        <ele>312.8</ele>
        <time>2021-05-29 11:31:54</time>
      </trkpt>
      <trkpt lat="43.29938" lon="-2.06386">
        <ele>312.8</ele>
        <time>2021-05-29 11:31:55</time>
      </trkpt>
      <trkpt lat="43.2994" lon="-2.06391">
        <ele>313</ele>
        <time>2021-05-29 11:31:56</time>
      </trkpt>
      <trkpt lat="43.29942" lon="-2.06397">
        <ele>313</ele>
        <time>2021-05-29 11:31:57</time>
      </trkpt>
      <trkpt lat="43.29945" lon="-2.06402">
        <ele>313.2</ele>
        <time>2021-05-29 11:31:58</time>
      </trkpt>
      <trkpt lat="43.29947" lon="-2.06408">
        <ele>313.2</ele>
        <time>2021-05-29 11:31:59</time>
      </trkpt>
      <trkpt lat="43.2995" lon="-2.06413">
        <ele>313.2</ele>
        <time>2021-05-29 11:32:00</time>
      </trkpt>
      <trkpt lat="43.29952" lon="-2.06419">
        <ele>313.2</ele>
        <time>2021-05-29 11:32:01</time>
      </trkpt>
      <trkpt lat="43.29954" lon="-2.06425">
        <ele>313.2</ele>
        <time>2021-05-29 11:32:02</time>
      </trkpt>
      <trkpt lat="43.29955" lon="-2.06432">
        <ele>313.2</ele>
        <time>2021-05-29 11:32:03</time>
      </trkpt>
      <trkpt lat="43.29957" lon="-2.06439">
        <ele>313.2</ele>
        <time>2021-05-29 11:32:04</time>
      </trkpt>
      <trkpt lat="43.29959" lon="-2.06445">
        <ele>313.2</ele>
        <time>2021-05-29 11:32:05</time>
      </trkpt>
      <trkpt lat="43.29961" lon="-2.06451">
        <ele>313.2</ele>
        <time>2021-05-29 11:32:06</time>
      </trkpt>
      <trkpt lat="43.29963" lon="-2.06457">
        <ele>313</ele>
        <time>2021-05-29 11:32:07</time>
      </trkpt>
      <trkpt lat="43.29965" lon="-2.06463">
        <ele>313</ele>
        <time>2021-05-29 11:32:08</time>
      </trkpt>
      <trkpt lat="43.29968" lon="-2.06469">
        <ele>313</ele>
        <time>2021-05-29 11:32:09</time>
      </trkpt>
      <trkpt lat="43.29971" lon="-2.06476">
        <ele>312.8</ele>
        <time>2021-05-29 11:32:10</time>
      </trkpt>
      <trkpt lat="43.29973" lon="-2.06483">
        <ele>312.8</ele>
        <time>2021-05-29 11:32:11</time>
      </trkpt>
      <trkpt lat="43.29975" lon="-2.06491">
        <ele>312.8</ele>
        <time>2021-05-29 11:32:12</time>
      </trkpt>
      <trkpt lat="43.29976" lon="-2.065">
        <ele>312.8</ele>
        <time>2021-05-29 11:32:13</time>
      </trkpt>
      <trkpt lat="43.29975" lon="-2.06509">
        <ele>312.8</ele>
        <time>2021-05-29 11:32:14</time>
      </trkpt>
      <trkpt lat="43.29972" lon="-2.06518">
        <ele>312.8</ele>
        <time>2021-05-29 11:32:15</time>
      </trkpt>
      <trkpt lat="43.29969" lon="-2.06526">
        <ele>312.6</ele>
        <time>2021-05-29 11:32:16</time>
      </trkpt>
      <trkpt lat="43.29965" lon="-2.06534">
        <ele>312.6</ele>
        <time>2021-05-29 11:32:17</time>
      </trkpt>
      <trkpt lat="43.29962" lon="-2.06543">
        <ele>312.6</ele>
        <time>2021-05-29 11:32:18</time>
      </trkpt>
      <trkpt lat="43.29958" lon="-2.06553">
        <ele>312.6</ele>
        <time>2021-05-29 11:32:19</time>
      </trkpt>
      <trkpt lat="43.29956" lon="-2.06564">
        <ele>312.6</ele>
        <time>2021-05-29 11:32:20</time>
      </trkpt>
      <trkpt lat="43.29954" lon="-2.06575">
        <ele>312.4</ele>
        <time>2021-05-29 11:32:21</time>
      </trkpt>
      <trkpt lat="43.29953" lon="-2.06585">
        <ele>312.2</ele>
        <time>2021-05-29 11:32:22</time>
      </trkpt>
      <trkpt lat="43.29953" lon="-2.06595">
        <ele>312</ele>
        <time>2021-05-29 11:32:23</time>
      </trkpt>
      <trkpt lat="43.29955" lon="-2.06604">
        <ele>311.8</ele>
        <time>2021-05-29 11:32:24</time>
      </trkpt>
      <trkpt lat="43.29958" lon="-2.06611">
        <ele>311.8</ele>
        <time>2021-05-29 11:32:25</time>
      </trkpt>
      <trkpt lat="43.29964" lon="-2.06616">
        <ele>311.6</ele>
        <time>2021-05-29 11:32:26</time>
      </trkpt>
      <trkpt lat="43.29969" lon="-2.0662">
        <ele>311</ele>
        <time>2021-05-29 11:32:27</time>
      </trkpt>
      <trkpt lat="43.29973" lon="-2.06624">
        <ele>310.8</ele>
        <time>2021-05-29 11:32:28</time>
      </trkpt>
      <trkpt lat="43.29978" lon="-2.06627">
        <ele>310.8</ele>
        <time>2021-05-29 11:32:29</time>
      </trkpt>
      <trkpt lat="43.29983" lon="-2.0663">
        <ele>310.8</ele>
        <time>2021-05-29 11:32:30</time>
      </trkpt>
      <trkpt lat="43.29987" lon="-2.06634">
        <ele>310.8</ele>
        <time>2021-05-29 11:32:31</time>
      </trkpt>
      <trkpt lat="43.29992" lon="-2.06639">
        <ele>310.8</ele>
        <time>2021-05-29 11:32:32</time>
      </trkpt>
      <trkpt lat="43.29997" lon="-2.06645">
        <ele>310.8</ele>
        <time>2021-05-29 11:32:33</time>
      </trkpt>
      <trkpt lat="43.30001" lon="-2.06652">
        <ele>310.8</ele>
        <time>2021-05-29 11:32:34</time>
      </trkpt>
      <trkpt lat="43.30004" lon="-2.0666">
        <ele>310.8</ele>
        <time>2021-05-29 11:32:35</time>
      </trkpt>
      <trkpt lat="43.30006" lon="-2.06669">
        <ele>311.2</ele>
        <time>2021-05-29 11:32:36</time>
      </trkpt>
      <trkpt lat="43.30007" lon="-2.06677">
        <ele>311.6</ele>
        <time>2021-05-29 11:32:37</time>
      </trkpt>
      <trkpt lat="43.30008" lon="-2.06685">
        <ele>311.6</ele>
        <time>2021-05-29 11:32:38</time>
      </trkpt>
      <trkpt lat="43.30009" lon="-2.06693">
        <ele>311.8</ele>
        <time>2021-05-29 11:32:39</time>
      </trkpt>
      <trkpt lat="43.30009" lon="-2.067">
        <ele>312</ele>
        <time>2021-05-29 11:32:40</time>
      </trkpt>
      <trkpt lat="43.30009" lon="-2.06707">
        <ele>312.2</ele>
        <time>2021-05-29 11:32:41</time>
      </trkpt>
      <trkpt lat="43.30008" lon="-2.06714">
        <ele>312.4</ele>
        <time>2021-05-29 11:32:42</time>
      </trkpt>
      <trkpt lat="43.30006" lon="-2.06719">
        <ele>312.6</ele>
        <time>2021-05-29 11:32:43</time>
      </trkpt>
      <trkpt lat="43.30004" lon="-2.06725">
        <ele>312.8</ele>
        <time>2021-05-29 11:32:44</time>
      </trkpt>
      <trkpt lat="43.30003" lon="-2.06731">
        <ele>313.2</ele>
        <time>2021-05-29 11:32:45</time>
      </trkpt>
      <trkpt lat="43.30001" lon="-2.06737">
        <ele>313.4</ele>
        <time>2021-05-29 11:32:46</time>
      </trkpt>
      <trkpt lat="43.29999" lon="-2.06742">
        <ele>313.8</ele>
        <time>2021-05-29 11:32:47</time>
      </trkpt>
      <trkpt lat="43.29997" lon="-2.06747">
        <ele>314.2</ele>
        <time>2021-05-29 11:32:48</time>
      </trkpt>
      <trkpt lat="43.29994" lon="-2.06753">
        <ele>314.4</ele>
        <time>2021-05-29 11:32:49</time>
      </trkpt>
      <trkpt lat="43.29991" lon="-2.06758">
        <ele>314.8</ele>
        <time>2021-05-29 11:32:50</time>
      </trkpt>
      <trkpt lat="43.29988" lon="-2.06764">
        <ele>315.2</ele>
        <time>2021-05-29 11:32:51</time>
      </trkpt>
      <trkpt lat="43.29985" lon="-2.06769">
        <ele>315.6</ele>
        <time>2021-05-29 11:32:52</time>
      </trkpt>
      <trkpt lat="43.29982" lon="-2.06774">
        <ele>315.8</ele>
        <time>2021-05-29 11:32:53</time>
      </trkpt>
      <trkpt lat="43.29978" lon="-2.0678">
        <ele>316</ele>
        <time>2021-05-29 11:32:54</time>
      </trkpt>
      <trkpt lat="43.29975" lon="-2.06785">
        <ele>316.2</ele>
        <time>2021-05-29 11:32:55</time>
      </trkpt>
      <trkpt lat="43.29972" lon="-2.0679">
        <ele>316.6</ele>
        <time>2021-05-29 11:32:56</time>
      </trkpt>
      <trkpt lat="43.29968" lon="-2.06796">
        <ele>316.8</ele>
        <time>2021-05-29 11:32:57</time>
      </trkpt>
      <trkpt lat="43.29965" lon="-2.06801">
        <ele>317</ele>
        <time>2021-05-29 11:32:58</time>
      </trkpt>
      <trkpt lat="43.29962" lon="-2.06807">
        <ele>317.2</ele>
        <time>2021-05-29 11:32:59</time>
      </trkpt>
      <trkpt lat="43.29959" lon="-2.06813">
        <ele>317.4</ele>
        <time>2021-05-29 11:33:00</time>
      </trkpt>
      <trkpt lat="43.29956" lon="-2.06819">
        <ele>318.2</ele>
        <time>2021-05-29 11:33:01</time>
      </trkpt>
      <trkpt lat="43.29953" lon="-2.06825">
        <ele>318.4</ele>
        <time>2021-05-29 11:33:02</time>
      </trkpt>
      <trkpt lat="43.29949" lon="-2.06831">
        <ele>318.8</ele>
        <time>2021-05-29 11:33:03</time>
      </trkpt>
      <trkpt lat="43.29947" lon="-2.06837">
        <ele>319</ele>
        <time>2021-05-29 11:33:04</time>
      </trkpt>
      <trkpt lat="43.29944" lon="-2.06844">
        <ele>319.2</ele>
        <time>2021-05-29 11:33:05</time>
      </trkpt>
      <trkpt lat="43.29942" lon="-2.06852">
        <ele>319.2</ele>
        <time>2021-05-29 11:33:06</time>
      </trkpt>
      <trkpt lat="43.29939" lon="-2.0686">
        <ele>319.4</ele>
        <time>2021-05-29 11:33:07</time>
      </trkpt>
      <trkpt lat="43.29937" lon="-2.06868">
        <ele>319.6</ele>
        <time>2021-05-29 11:33:08</time>
      </trkpt>
      <trkpt lat="43.29936" lon="-2.06876">
        <ele>319.6</ele>
        <time>2021-05-29 11:33:09</time>
      </trkpt>
      <trkpt lat="43.29935" lon="-2.06884">
        <ele>319.6</ele>
        <time>2021-05-29 11:33:10</time>
      </trkpt>
      <trkpt lat="43.29935" lon="-2.06892">
        <ele>319.6</ele>
        <time>2021-05-29 11:33:11</time>
      </trkpt>
      <trkpt lat="43.29936" lon="-2.069">
        <ele>319.8</ele>
        <time>2021-05-29 11:33:12</time>
      </trkpt>
      <trkpt lat="43.29936" lon="-2.06908">
        <ele>319.8</ele>
        <time>2021-05-29 11:33:13</time>
      </trkpt>
      <trkpt lat="43.29936" lon="-2.06916">
        <ele>319.8</ele>
        <time>2021-05-29 11:33:14</time>
      </trkpt>
      <trkpt lat="43.29935" lon="-2.06923">
        <ele>320</ele>
        <time>2021-05-29 11:33:15</time>
      </trkpt>
      <trkpt lat="43.29934" lon="-2.0693">
        <ele>320.2</ele>
        <time>2021-05-29 11:33:16</time>
      </trkpt>
      <trkpt lat="43.29933" lon="-2.06937">
        <ele>320.4</ele>
        <time>2021-05-29 11:33:17</time>
      </trkpt>
      <trkpt lat="43.29931" lon="-2.06945">
        <ele>320.6</ele>
        <time>2021-05-29 11:33:18</time>
      </trkpt>
      <trkpt lat="43.29929" lon="-2.06952">
        <ele>320.6</ele>
        <time>2021-05-29 11:33:19</time>
      </trkpt>
      <trkpt lat="43.29927" lon="-2.06959">
        <ele>320.8</ele>
        <time>2021-05-29 11:33:20</time>
      </trkpt>
      <trkpt lat="43.29924" lon="-2.06965">
        <ele>321</ele>
        <time>2021-05-29 11:33:21</time>
      </trkpt>
      <trkpt lat="43.29921" lon="-2.06972">
        <ele>321.4</ele>
        <time>2021-05-29 11:33:22</time>
      </trkpt>
      <trkpt lat="43.29918" lon="-2.06978">
        <ele>321.6</ele>
        <time>2021-05-29 11:33:23</time>
      </trkpt>
      <trkpt lat="43.29914" lon="-2.06984">
        <ele>322</ele>
        <time>2021-05-29 11:33:24</time>
      </trkpt>
      <trkpt lat="43.29911" lon="-2.0699">
        <ele>322.2</ele>
        <time>2021-05-29 11:33:25</time>
      </trkpt>
      <trkpt lat="43.29908" lon="-2.06995">
        <ele>322.4</ele>
        <time>2021-05-29 11:33:26</time>
      </trkpt>
      <trkpt lat="43.29904" lon="-2.07001">
        <ele>322.6</ele>
        <time>2021-05-29 11:33:27</time>
      </trkpt>
      <trkpt lat="43.29901" lon="-2.07007">
        <ele>323</ele>
        <time>2021-05-29 11:33:28</time>
      </trkpt>
      <trkpt lat="43.29897" lon="-2.07012">
        <ele>323.2</ele>
        <time>2021-05-29 11:33:29</time>
      </trkpt>
      <trkpt lat="43.29893" lon="-2.07018">
        <ele>323.4</ele>
        <time>2021-05-29 11:33:30</time>
      </trkpt>
      <trkpt lat="43.29889" lon="-2.07024">
        <ele>323.6</ele>
        <time>2021-05-29 11:33:31</time>
      </trkpt>
      <trkpt lat="43.29884" lon="-2.0703">
        <ele>324</ele>
        <time>2021-05-29 11:33:32</time>
      </trkpt>
      <trkpt lat="43.29879" lon="-2.07035">
        <ele>324.2</ele>
        <time>2021-05-29 11:33:33</time>
      </trkpt>
      <trkpt lat="43.29873" lon="-2.07039">
        <ele>324.6</ele>
        <time>2021-05-29 11:33:34</time>
      </trkpt>
      <trkpt lat="43.29866" lon="-2.07042">
        <ele>324.8</ele>
        <time>2021-05-29 11:33:35</time>
      </trkpt>
      <trkpt lat="43.29858" lon="-2.07045">
        <ele>325</ele>
        <time>2021-05-29 11:33:36</time>
      </trkpt>
      <trkpt lat="43.2985" lon="-2.07048">
        <ele>325</ele>
        <time>2021-05-29 11:33:37</time>
      </trkpt>
      <trkpt lat="43.29842" lon="-2.07051">
        <ele>325</ele>
        <time>2021-05-29 11:33:38</time>
      </trkpt>
      <trkpt lat="43.29834" lon="-2.07054">
        <ele>325</ele>
        <time>2021-05-29 11:33:39</time>
      </trkpt>
      <trkpt lat="43.29826" lon="-2.07058">
        <ele>325</ele>
        <time>2021-05-29 11:33:40</time>
      </trkpt>
      <trkpt lat="43.29818" lon="-2.07062">
        <ele>325</ele>
        <time>2021-05-29 11:33:41</time>
      </trkpt>
      <trkpt lat="43.29811" lon="-2.07067">
        <ele>325</ele>
        <time>2021-05-29 11:33:42</time>
      </trkpt>
      <trkpt lat="43.29804" lon="-2.07073">
        <ele>324.8</ele>
        <time>2021-05-29 11:33:43</time>
      </trkpt>
      <trkpt lat="43.29798" lon="-2.07081">
        <ele>324.6</ele>
        <time>2021-05-29 11:33:44</time>
      </trkpt>
      <trkpt lat="43.29792" lon="-2.0709">
        <ele>324.4</ele>
        <time>2021-05-29 11:33:45</time>
      </trkpt>
      <trkpt lat="43.29787" lon="-2.071">
        <ele>324.2</ele>
        <time>2021-05-29 11:33:46</time>
      </trkpt>
      <trkpt lat="43.29783" lon="-2.0711">
        <ele>323.8</ele>
        <time>2021-05-29 11:33:47</time>
      </trkpt>
      <trkpt lat="43.2978" lon="-2.07122">
        <ele>323.4</ele>
        <time>2021-05-29 11:33:48</time>
      </trkpt>
      <trkpt lat="43.29777" lon="-2.07134">
        <ele>323</ele>
        <time>2021-05-29 11:33:49</time>
      </trkpt>
      <trkpt lat="43.29775" lon="-2.07146">
        <ele>322.8</ele>
        <time>2021-05-29 11:33:50</time>
      </trkpt>
      <trkpt lat="43.29775" lon="-2.07159">
        <ele>322.6</ele>
        <time>2021-05-29 11:33:51</time>
      </trkpt>
      <trkpt lat="43.29774" lon="-2.07171">
        <ele>322.2</ele>
        <time>2021-05-29 11:33:52</time>
      </trkpt>
      <trkpt lat="43.29775" lon="-2.07184">
        <ele>322</ele>
        <time>2021-05-29 11:33:53</time>
      </trkpt>
      <trkpt lat="43.29775" lon="-2.07196">
        <ele>321.8</ele>
        <time>2021-05-29 11:33:54</time>
      </trkpt>
      <trkpt lat="43.29775" lon="-2.07209">
        <ele>321.8</ele>
        <time>2021-05-29 11:33:55</time>
      </trkpt>
      <trkpt lat="43.29775" lon="-2.07222">
        <ele>321.6</ele>
        <time>2021-05-29 11:33:56</time>
      </trkpt>
      <trkpt lat="43.29773" lon="-2.07236">
        <ele>321.6</ele>
        <time>2021-05-29 11:33:57</time>
      </trkpt>
      <trkpt lat="43.29771" lon="-2.0725">
        <ele>321.6</ele>
        <time>2021-05-29 11:33:58</time>
      </trkpt>
      <trkpt lat="43.29768" lon="-2.07263">
        <ele>321.6</ele>
        <time>2021-05-29 11:33:59</time>
      </trkpt>
      <trkpt lat="43.29765" lon="-2.07277">
        <ele>321.4</ele>
        <time>2021-05-29 11:34:00</time>
      </trkpt>
      <trkpt lat="43.29762" lon="-2.0729">
        <ele>321.4</ele>
        <time>2021-05-29 11:34:01</time>
      </trkpt>
      <trkpt lat="43.2976" lon="-2.07304">
        <ele>321.2</ele>
        <time>2021-05-29 11:34:02</time>
      </trkpt>
      <trkpt lat="43.29757" lon="-2.07317">
        <ele>321</ele>
        <time>2021-05-29 11:34:03</time>
      </trkpt>
      <trkpt lat="43.29755" lon="-2.0733">
        <ele>320.8</ele>
        <time>2021-05-29 11:34:04</time>
      </trkpt>
      <trkpt lat="43.29753" lon="-2.07344">
        <ele>320.4</ele>
        <time>2021-05-29 11:34:05</time>
      </trkpt>
      <trkpt lat="43.29751" lon="-2.07357">
        <ele>320.2</ele>
        <time>2021-05-29 11:34:06</time>
      </trkpt>
      <trkpt lat="43.2975" lon="-2.07369">
        <ele>320.2</ele>
        <time>2021-05-29 11:34:07</time>
      </trkpt>
      <trkpt lat="43.29749" lon="-2.07381">
        <ele>320</ele>
        <time>2021-05-29 11:34:08</time>
      </trkpt>
      <trkpt lat="43.29749" lon="-2.07393">
        <ele>320</ele>
        <time>2021-05-29 11:34:09</time>
      </trkpt>
      <trkpt lat="43.29751" lon="-2.07404">
        <ele>320</ele>
        <time>2021-05-29 11:34:10</time>
      </trkpt>
      <trkpt lat="43.29753" lon="-2.07413">
        <ele>319.8</ele>
        <time>2021-05-29 11:34:11</time>
      </trkpt>
      <trkpt lat="43.29756" lon="-2.07422">
        <ele>319.8</ele>
        <time>2021-05-29 11:34:12</time>
      </trkpt>
      <trkpt lat="43.2976" lon="-2.0743">
        <ele>319.8</ele>
        <time>2021-05-29 11:34:13</time>
      </trkpt>
      <trkpt lat="43.29763" lon="-2.07438">
        <ele>320</ele>
        <time>2021-05-29 11:34:14</time>
      </trkpt>
      <trkpt lat="43.29765" lon="-2.07446">
        <ele>320.2</ele>
        <time>2021-05-29 11:34:15</time>
      </trkpt>
      <trkpt lat="43.29766" lon="-2.07455">
        <ele>320.4</ele>
        <time>2021-05-29 11:34:16</time>
      </trkpt>
      <trkpt lat="43.29766" lon="-2.07463">
        <ele>320.6</ele>
        <time>2021-05-29 11:34:17</time>
      </trkpt>
      <trkpt lat="43.29766" lon="-2.07472">
        <ele>321</ele>
        <time>2021-05-29 11:34:18</time>
      </trkpt>
      <trkpt lat="43.29765" lon="-2.07481">
        <ele>321.6</ele>
        <time>2021-05-29 11:34:19</time>
      </trkpt>
      <trkpt lat="43.29763" lon="-2.0749">
        <ele>322.2</ele>
        <time>2021-05-29 11:34:20</time>
      </trkpt>
      <trkpt lat="43.2976" lon="-2.07498">
        <ele>322.6</ele>
        <time>2021-05-29 11:34:21</time>
      </trkpt>
      <trkpt lat="43.29758" lon="-2.07506">
        <ele>323</ele>
        <time>2021-05-29 11:34:22</time>
      </trkpt>
      <trkpt lat="43.29755" lon="-2.07513">
        <ele>323.2</ele>
        <time>2021-05-29 11:34:23</time>
      </trkpt>
      <trkpt lat="43.29752" lon="-2.07521">
        <ele>323.6</ele>
        <time>2021-05-29 11:34:24</time>
      </trkpt>
      <trkpt lat="43.29748" lon="-2.07527">
        <ele>323.8</ele>
        <time>2021-05-29 11:34:25</time>
      </trkpt>
      <trkpt lat="43.29743" lon="-2.07534">
        <ele>323.8</ele>
        <time>2021-05-29 11:34:26</time>
      </trkpt>
      <trkpt lat="43.29738" lon="-2.07541">
        <ele>324.2</ele>
        <time>2021-05-29 11:34:27</time>
      </trkpt>
      <trkpt lat="43.29732" lon="-2.07547">
        <ele>324.4</ele>
        <time>2021-05-29 11:34:28</time>
      </trkpt>
      <trkpt lat="43.29726" lon="-2.07554">
        <ele>324.6</ele>
        <time>2021-05-29 11:34:29</time>
      </trkpt>
      <trkpt lat="43.29719" lon="-2.07559">
        <ele>324.6</ele>
        <time>2021-05-29 11:34:30</time>
      </trkpt>
      <trkpt lat="43.29712" lon="-2.07565">
        <ele>324.8</ele>
        <time>2021-05-29 11:34:31</time>
      </trkpt>
      <trkpt lat="43.29705" lon="-2.07571">
        <ele>324.8</ele>
        <time>2021-05-29 11:34:32</time>
      </trkpt>
      <trkpt lat="43.29698" lon="-2.07577">
        <ele>324.8</ele>
        <time>2021-05-29 11:34:33</time>
      </trkpt>
      <trkpt lat="43.29691" lon="-2.07583">
        <ele>324.8</ele>
        <time>2021-05-29 11:34:34</time>
      </trkpt>
      <trkpt lat="43.29684" lon="-2.07589">
        <ele>324.8</ele>
        <time>2021-05-29 11:34:35</time>
      </trkpt>
      <trkpt lat="43.29677" lon="-2.07596">
        <ele>324.8</ele>
        <time>2021-05-29 11:34:36</time>
      </trkpt>
      <trkpt lat="43.2967" lon="-2.07603">
        <ele>324.8</ele>
        <time>2021-05-29 11:34:37</time>
      </trkpt>
      <trkpt lat="43.29664" lon="-2.0761">
        <ele>324.8</ele>
        <time>2021-05-29 11:34:38</time>
      </trkpt>
      <trkpt lat="43.29659" lon="-2.07618">
        <ele>324.8</ele>
        <time>2021-05-29 11:34:39</time>
      </trkpt>
      <trkpt lat="43.29655" lon="-2.07626">
        <ele>324.8</ele>
        <time>2021-05-29 11:34:40</time>
      </trkpt>
      <trkpt lat="43.29649" lon="-2.07635">
        <ele>324.8</ele>
        <time>2021-05-29 11:34:41</time>
      </trkpt>
      <trkpt lat="43.29644" lon="-2.07643">
        <ele>324.6</ele>
        <time>2021-05-29 11:34:42</time>
      </trkpt>
      <trkpt lat="43.29639" lon="-2.07652">
        <ele>324.6</ele>
        <time>2021-05-29 11:34:43</time>
      </trkpt>
      <trkpt lat="43.29633" lon="-2.0766">
        <ele>324.4</ele>
        <time>2021-05-29 11:34:44</time>
      </trkpt>
      <trkpt lat="43.29627" lon="-2.07669">
        <ele>324.4</ele>
        <time>2021-05-29 11:34:45</time>
      </trkpt>
      <trkpt lat="43.2962" lon="-2.07677">
        <ele>324.4</ele>
        <time>2021-05-29 11:34:46</time>
      </trkpt>
      <trkpt lat="43.29613" lon="-2.07685">
        <ele>324.2</ele>
        <time>2021-05-29 11:34:47</time>
      </trkpt>
      <trkpt lat="43.29606" lon="-2.07692">
        <ele>324.2</ele>
        <time>2021-05-29 11:34:48</time>
      </trkpt>
      <trkpt lat="43.29599" lon="-2.07699">
        <ele>324.2</ele>
        <time>2021-05-29 11:34:49</time>
      </trkpt>
      <trkpt lat="43.29592" lon="-2.07706">
        <ele>324.2</ele>
        <time>2021-05-29 11:34:50</time>
      </trkpt>
      <trkpt lat="43.29585" lon="-2.07714">
        <ele>323.8</ele>
        <time>2021-05-29 11:34:51</time>
      </trkpt>
      <trkpt lat="43.29579" lon="-2.07722">
        <ele>323.8</ele>
        <time>2021-05-29 11:34:52</time>
      </trkpt>
      <trkpt lat="43.29574" lon="-2.07732">
        <ele>323.8</ele>
        <time>2021-05-29 11:34:53</time>
      </trkpt>
      <trkpt lat="43.2957" lon="-2.07742">
        <ele>323.8</ele>
        <time>2021-05-29 11:34:54</time>
      </trkpt>
      <trkpt lat="43.29568" lon="-2.07753">
        <ele>323.8</ele>
        <time>2021-05-29 11:34:55</time>
      </trkpt>
      <trkpt lat="43.29565" lon="-2.07764">
        <ele>323.8</ele>
        <time>2021-05-29 11:34:56</time>
      </trkpt>
      <trkpt lat="43.29562" lon="-2.07774">
        <ele>323.8</ele>
        <time>2021-05-29 11:34:57</time>
      </trkpt>
      <trkpt lat="43.29559" lon="-2.07784">
        <ele>323.8</ele>
        <time>2021-05-29 11:34:58</time>
      </trkpt>
      <trkpt lat="43.29555" lon="-2.07794">
        <ele>323.8</ele>
        <time>2021-05-29 11:34:59</time>
      </trkpt>
      <trkpt lat="43.29552" lon="-2.07804">
        <ele>323.8</ele>
        <time>2021-05-29 11:35:00</time>
      </trkpt>
      <trkpt lat="43.29549" lon="-2.07814">
        <ele>323.8</ele>
        <time>2021-05-29 11:35:01</time>
      </trkpt>
      <trkpt lat="43.29546" lon="-2.07824">
        <ele>323.8</ele>
        <time>2021-05-29 11:35:02</time>
      </trkpt>
      <trkpt lat="43.29543" lon="-2.07835">
        <ele>324</ele>
        <time>2021-05-29 11:35:03</time>
      </trkpt>
      <trkpt lat="43.2954" lon="-2.07845">
        <ele>324</ele>
        <time>2021-05-29 11:35:04</time>
      </trkpt>
      <trkpt lat="43.29537" lon="-2.07855">
        <ele>324.2</ele>
        <time>2021-05-29 11:35:05</time>
      </trkpt>
      <trkpt lat="43.29534" lon="-2.07865">
        <ele>324.4</ele>
        <time>2021-05-29 11:35:06</time>
      </trkpt>
      <trkpt lat="43.2953" lon="-2.07875">
        <ele>324.4</ele>
        <time>2021-05-29 11:35:07</time>
      </trkpt>
      <trkpt lat="43.29527" lon="-2.07885">
        <ele>324.4</ele>
        <time>2021-05-29 11:35:08</time>
      </trkpt>
      <trkpt lat="43.29524" lon="-2.07896">
        <ele>324.4</ele>
        <time>2021-05-29 11:35:09</time>
      </trkpt>
      <trkpt lat="43.29522" lon="-2.07908">
        <ele>324.6</ele>
        <time>2021-05-29 11:35:10</time>
      </trkpt>
      <trkpt lat="43.29521" lon="-2.0792">
        <ele>324.6</ele>
        <time>2021-05-29 11:35:11</time>
      </trkpt>
      <trkpt lat="43.29521" lon="-2.07932">
        <ele>324.6</ele>
        <time>2021-05-29 11:35:12</time>
      </trkpt>
      <trkpt lat="43.29522" lon="-2.07945">
        <ele>324.6</ele>
        <time>2021-05-29 11:35:13</time>
      </trkpt>
      <trkpt lat="43.29523" lon="-2.07958">
        <ele>324.6</ele>
        <time>2021-05-29 11:35:14</time>
      </trkpt>
      <trkpt lat="43.29524" lon="-2.07971">
        <ele>324.6</ele>
        <time>2021-05-29 11:35:15</time>
      </trkpt>
      <trkpt lat="43.29525" lon="-2.07984">
        <ele>324.6</ele>
        <time>2021-05-29 11:35:16</time>
      </trkpt>
      <trkpt lat="43.29526" lon="-2.07997">
        <ele>324.4</ele>
        <time>2021-05-29 11:35:17</time>
      </trkpt>
      <trkpt lat="43.29526" lon="-2.0801">
        <ele>324.4</ele>
        <time>2021-05-29 11:35:18</time>
      </trkpt>
      <trkpt lat="43.29526" lon="-2.08022">
        <ele>324</ele>
        <time>2021-05-29 11:35:19</time>
      </trkpt>
      <trkpt lat="43.29526" lon="-2.08035">
        <ele>323.8</ele>
        <time>2021-05-29 11:35:20</time>
      </trkpt>
      <trkpt lat="43.29525" lon="-2.08048">
        <ele>323.4</ele>
        <time>2021-05-29 11:35:21</time>
      </trkpt>
      <trkpt lat="43.29523" lon="-2.08061">
        <ele>323</ele>
        <time>2021-05-29 11:35:22</time>
      </trkpt>
      <trkpt lat="43.29521" lon="-2.08073">
        <ele>322.8</ele>
        <time>2021-05-29 11:35:23</time>
      </trkpt>
      <trkpt lat="43.29519" lon="-2.08085">
        <ele>322.8</ele>
        <time>2021-05-29 11:35:24</time>
      </trkpt>
      <trkpt lat="43.29517" lon="-2.08097">
        <ele>322.6</ele>
        <time>2021-05-29 11:35:25</time>
      </trkpt>
      <trkpt lat="43.29515" lon="-2.08109">
        <ele>322.6</ele>
        <time>2021-05-29 11:35:26</time>
      </trkpt>
      <trkpt lat="43.29513" lon="-2.08122">
        <ele>322.4</ele>
        <time>2021-05-29 11:35:27</time>
      </trkpt>
      <trkpt lat="43.29512" lon="-2.08135">
        <ele>322.4</ele>
        <time>2021-05-29 11:35:28</time>
      </trkpt>
      <trkpt lat="43.2951" lon="-2.08147">
        <ele>322.4</ele>
        <time>2021-05-29 11:35:29</time>
      </trkpt>
      <trkpt lat="43.29508" lon="-2.0816">
        <ele>322.4</ele>
        <time>2021-05-29 11:35:30</time>
      </trkpt>
      <trkpt lat="43.29507" lon="-2.08173">
        <ele>322.4</ele>
        <time>2021-05-29 11:35:31</time>
      </trkpt>
      <trkpt lat="43.29505" lon="-2.08185">
        <ele>322.4</ele>
        <time>2021-05-29 11:35:32</time>
      </trkpt>
      <trkpt lat="43.29504" lon="-2.08197">
        <ele>322.4</ele>
        <time>2021-05-29 11:35:33</time>
      </trkpt>
      <trkpt lat="43.29503" lon="-2.08209">
        <ele>322.4</ele>
        <time>2021-05-29 11:35:34</time>
      </trkpt>
      <trkpt lat="43.29502" lon="-2.0822">
        <ele>322.4</ele>
        <time>2021-05-29 11:35:35</time>
      </trkpt>
      <trkpt lat="43.29502" lon="-2.08232">
        <ele>322.4</ele>
        <time>2021-05-29 11:35:36</time>
      </trkpt>
      <trkpt lat="43.29502" lon="-2.08243">
        <ele>322.4</ele>
        <time>2021-05-29 11:35:37</time>
      </trkpt>
      <trkpt lat="43.29503" lon="-2.08254">
        <ele>322.4</ele>
        <time>2021-05-29 11:35:38</time>
      </trkpt>
      <trkpt lat="43.29503" lon="-2.08264">
        <ele>322.4</ele>
        <time>2021-05-29 11:35:39</time>
      </trkpt>
      <trkpt lat="43.29504" lon="-2.08275">
        <ele>322.6</ele>
        <time>2021-05-29 11:35:40</time>
      </trkpt>
      <trkpt lat="43.29504" lon="-2.08285">
        <ele>322.6</ele>
        <time>2021-05-29 11:35:41</time>
      </trkpt>
      <trkpt lat="43.29504" lon="-2.08295">
        <ele>322.4</ele>
        <time>2021-05-29 11:35:42</time>
      </trkpt>
      <trkpt lat="43.29504" lon="-2.08305">
        <ele>322.6</ele>
        <time>2021-05-29 11:35:43</time>
      </trkpt>
      <trkpt lat="43.29504" lon="-2.08316">
        <ele>322.6</ele>
        <time>2021-05-29 11:35:44</time>
      </trkpt>
      <trkpt lat="43.29504" lon="-2.08326">
        <ele>322.8</ele>
        <time>2021-05-29 11:35:45</time>
      </trkpt>
      <trkpt lat="43.29505" lon="-2.08337">
        <ele>323.2</ele>
        <time>2021-05-29 11:35:46</time>
      </trkpt>
      <trkpt lat="43.29506" lon="-2.08348">
        <ele>323.2</ele>
        <time>2021-05-29 11:35:47</time>
      </trkpt>
      <trkpt lat="43.29508" lon="-2.08359">
        <ele>323.4</ele>
        <time>2021-05-29 11:35:48</time>
      </trkpt>
      <trkpt lat="43.2951" lon="-2.08371">
        <ele>323.4</ele>
        <time>2021-05-29 11:35:49</time>
      </trkpt>
      <trkpt lat="43.29513" lon="-2.08383">
        <ele>323.6</ele>
        <time>2021-05-29 11:35:50</time>
      </trkpt>
      <trkpt lat="43.29515" lon="-2.08396">
        <ele>323.6</ele>
        <time>2021-05-29 11:35:51</time>
      </trkpt>
      <trkpt lat="43.29518" lon="-2.08409">
        <ele>323.6</ele>
        <time>2021-05-29 11:35:52</time>
      </trkpt>
      <trkpt lat="43.2952" lon="-2.0842">
        <ele>323.6</ele>
        <time>2021-05-29 11:35:53</time>
      </trkpt>
      <trkpt lat="43.29522" lon="-2.08432">
        <ele>323.8</ele>
        <time>2021-05-29 11:35:54</time>
      </trkpt>
      <trkpt lat="43.29523" lon="-2.08445">
        <ele>323.8</ele>
        <time>2021-05-29 11:35:55</time>
      </trkpt>
      <trkpt lat="43.29524" lon="-2.08457">
        <ele>324</ele>
        <time>2021-05-29 11:35:56</time>
      </trkpt>
      <trkpt lat="43.29525" lon="-2.08469">
        <ele>324</ele>
        <time>2021-05-29 11:35:57</time>
      </trkpt>
      <trkpt lat="43.29524" lon="-2.08482">
        <ele>324</ele>
        <time>2021-05-29 11:35:58</time>
      </trkpt>
      <trkpt lat="43.29521" lon="-2.08494">
        <ele>324</ele>
        <time>2021-05-29 11:35:59</time>
      </trkpt>
      <trkpt lat="43.29519" lon="-2.08506">
        <ele>324</ele>
        <time>2021-05-29 11:36:00</time>
      </trkpt>
      <trkpt lat="43.29516" lon="-2.08517">
        <ele>324</ele>
        <time>2021-05-29 11:36:01</time>
      </trkpt>
      <trkpt lat="43.29514" lon="-2.08529">
        <ele>324</ele>
        <time>2021-05-29 11:36:02</time>
      </trkpt>
      <trkpt lat="43.29511" lon="-2.08542">
        <ele>324</ele>
        <time>2021-05-29 11:36:03</time>
      </trkpt>
      <trkpt lat="43.29508" lon="-2.08556">
        <ele>324</ele>
        <time>2021-05-29 11:36:04</time>
      </trkpt>
      <trkpt lat="43.29505" lon="-2.08569">
        <ele>324</ele>
        <time>2021-05-29 11:36:05</time>
      </trkpt>
      <trkpt lat="43.29502" lon="-2.08583">
        <ele>324</ele>
        <time>2021-05-29 11:36:06</time>
      </trkpt>
      <trkpt lat="43.29498" lon="-2.08596">
        <ele>324</ele>
        <time>2021-05-29 11:36:07</time>
      </trkpt>
      <trkpt lat="43.29494" lon="-2.08609">
        <ele>323.8</ele>
        <time>2021-05-29 11:36:08</time>
      </trkpt>
      <trkpt lat="43.2949" lon="-2.08622">
        <ele>323.6</ele>
        <time>2021-05-29 11:36:09</time>
      </trkpt>
      <trkpt lat="43.29486" lon="-2.08635">
        <ele>323.4</ele>
        <time>2021-05-29 11:36:10</time>
      </trkpt>
      <trkpt lat="43.29482" lon="-2.08648">
        <ele>323.2</ele>
        <time>2021-05-29 11:36:11</time>
      </trkpt>
      <trkpt lat="43.29477" lon="-2.08662">
        <ele>322.8</ele>
        <time>2021-05-29 11:36:12</time>
      </trkpt>
      <trkpt lat="43.29472" lon="-2.08675">
        <ele>322.6</ele>
        <time>2021-05-29 11:36:13</time>
      </trkpt>
      <trkpt lat="43.29467" lon="-2.08688">
        <ele>322</ele>
        <time>2021-05-29 11:36:14</time>
      </trkpt>
      <trkpt lat="43.29461" lon="-2.08702">
        <ele>321.8</ele>
        <time>2021-05-29 11:36:15</time>
      </trkpt>
      <trkpt lat="43.29456" lon="-2.08715">
        <ele>321.6</ele>
        <time>2021-05-29 11:36:16</time>
      </trkpt>
      <trkpt lat="43.29451" lon="-2.08728">
        <ele>321.2</ele>
        <time>2021-05-29 11:36:17</time>
      </trkpt>
      <trkpt lat="43.29446" lon="-2.08742">
        <ele>320.8</ele>
        <time>2021-05-29 11:36:18</time>
      </trkpt>
      <trkpt lat="43.29441" lon="-2.08756">
        <ele>320.4</ele>
        <time>2021-05-29 11:36:19</time>
      </trkpt>
      <trkpt lat="43.29437" lon="-2.08771">
        <ele>320</ele>
        <time>2021-05-29 11:36:20</time>
      </trkpt>
      <trkpt lat="43.29432" lon="-2.08786">
        <ele>319.6</ele>
        <time>2021-05-29 11:36:21</time>
      </trkpt>
      <trkpt lat="43.29427" lon="-2.08801">
        <ele>319.2</ele>
        <time>2021-05-29 11:36:22</time>
      </trkpt>
      <trkpt lat="43.29422" lon="-2.08816">
        <ele>319.2</ele>
        <time>2021-05-29 11:36:23</time>
      </trkpt>
      <trkpt lat="43.29416" lon="-2.08831">
        <ele>318.8</ele>
        <time>2021-05-29 11:36:24</time>
      </trkpt>
      <trkpt lat="43.29412" lon="-2.08846">
        <ele>318.2</ele>
        <time>2021-05-29 11:36:25</time>
      </trkpt>
      <trkpt lat="43.29408" lon="-2.08861">
        <ele>317.6</ele>
        <time>2021-05-29 11:36:26</time>
      </trkpt>
      <trkpt lat="43.29404" lon="-2.08876">
        <ele>317</ele>
        <time>2021-05-29 11:36:27</time>
      </trkpt>
      <trkpt lat="43.29401" lon="-2.08889">
        <ele>316.8</ele>
        <time>2021-05-29 11:36:28</time>
      </trkpt>
      <trkpt lat="43.29397" lon="-2.08902">
        <ele>315.4</ele>
        <time>2021-05-29 11:36:29</time>
      </trkpt>
      <trkpt lat="43.29393" lon="-2.08915">
        <ele>314.8</ele>
        <time>2021-05-29 11:36:30</time>
      </trkpt>
      <trkpt lat="43.29389" lon="-2.08928">
        <ele>314</ele>
        <time>2021-05-29 11:36:31</time>
      </trkpt>
      <trkpt lat="43.29385" lon="-2.0894">
        <ele>313.6</ele>
        <time>2021-05-29 11:36:32</time>
      </trkpt>
      <trkpt lat="43.29381" lon="-2.08951">
        <ele>313.4</ele>
        <time>2021-05-29 11:36:33</time>
      </trkpt>
      <trkpt lat="43.29378" lon="-2.08961">
        <ele>313</ele>
        <time>2021-05-29 11:36:34</time>
      </trkpt>
      <trkpt lat="43.29376" lon="-2.08971">
        <ele>312.8</ele>
        <time>2021-05-29 11:36:35</time>
      </trkpt>
      <trkpt lat="43.29374" lon="-2.08981">
        <ele>312.8</ele>
        <time>2021-05-29 11:36:36</time>
      </trkpt>
      <trkpt lat="43.29372" lon="-2.08992">
        <ele>312.6</ele>
        <time>2021-05-29 11:36:37</time>
      </trkpt>
      <trkpt lat="43.29371" lon="-2.09002">
        <ele>312.6</ele>
        <time>2021-05-29 11:36:38</time>
      </trkpt>
      <trkpt lat="43.29368" lon="-2.09013">
        <ele>312.6</ele>
        <time>2021-05-29 11:36:39</time>
      </trkpt>
      <trkpt lat="43.29366" lon="-2.09025">
        <ele>312.4</ele>
        <time>2021-05-29 11:36:40</time>
      </trkpt>
      <trkpt lat="43.29364" lon="-2.09037">
        <ele>312.2</ele>
        <time>2021-05-29 11:36:41</time>
      </trkpt>
      <trkpt lat="43.29362" lon="-2.09049">
        <ele>312</ele>
        <time>2021-05-29 11:36:42</time>
      </trkpt>
      <trkpt lat="43.29359" lon="-2.09062">
        <ele>312</ele>
        <time>2021-05-29 11:36:43</time>
      </trkpt>
      <trkpt lat="43.29357" lon="-2.09074">
        <ele>312</ele>
        <time>2021-05-29 11:36:44</time>
      </trkpt>
      <trkpt lat="43.29354" lon="-2.09087">
        <ele>311.8</ele>
        <time>2021-05-29 11:36:45</time>
      </trkpt>
      <trkpt lat="43.29351" lon="-2.091">
        <ele>311.8</ele>
        <time>2021-05-29 11:36:46</time>
      </trkpt>
      <trkpt lat="43.29347" lon="-2.09112">
        <ele>311.6</ele>
        <time>2021-05-29 11:36:47</time>
      </trkpt>
      <trkpt lat="43.29344" lon="-2.09125">
        <ele>311.4</ele>
        <time>2021-05-29 11:36:48</time>
      </trkpt>
      <trkpt lat="43.29341" lon="-2.09137">
        <ele>311.2</ele>
        <time>2021-05-29 11:36:49</time>
      </trkpt>
      <trkpt lat="43.29338" lon="-2.0915">
        <ele>311.2</ele>
        <time>2021-05-29 11:36:50</time>
      </trkpt>
      <trkpt lat="43.29336" lon="-2.09163">
        <ele>311</ele>
        <time>2021-05-29 11:36:51</time>
      </trkpt>
      <trkpt lat="43.29334" lon="-2.09176">
        <ele>311</ele>
        <time>2021-05-29 11:36:52</time>
      </trkpt>
      <trkpt lat="43.29333" lon="-2.09189">
        <ele>311</ele>
        <time>2021-05-29 11:36:53</time>
      </trkpt>
      <trkpt lat="43.29332" lon="-2.09203">
        <ele>310.8</ele>
        <time>2021-05-29 11:36:54</time>
      </trkpt>
      <trkpt lat="43.29331" lon="-2.09216">
        <ele>310.6</ele>
        <time>2021-05-29 11:36:55</time>
      </trkpt>
      <trkpt lat="43.2933" lon="-2.09229">
        <ele>310.4</ele>
        <time>2021-05-29 11:36:56</time>
      </trkpt>
      <trkpt lat="43.29329" lon="-2.09242">
        <ele>310.4</ele>
        <time>2021-05-29 11:36:57</time>
      </trkpt>
      <trkpt lat="43.29329" lon="-2.09256">
        <ele>310</ele>
        <time>2021-05-29 11:36:58</time>
      </trkpt>
      <trkpt lat="43.29328" lon="-2.09269">
        <ele>309.6</ele>
        <time>2021-05-29 11:36:59</time>
      </trkpt>
      <trkpt lat="43.29328" lon="-2.09283">
        <ele>309.4</ele>
        <time>2021-05-29 11:37:00</time>
      </trkpt>
      <trkpt lat="43.29328" lon="-2.09296">
        <ele>309</ele>
        <time>2021-05-29 11:37:01</time>
      </trkpt>
      <trkpt lat="43.29327" lon="-2.0931">
        <ele>308.8</ele>
        <time>2021-05-29 11:37:02</time>
      </trkpt>
      <trkpt lat="43.29327" lon="-2.09324">
        <ele>308</ele>
        <time>2021-05-29 11:37:03</time>
      </trkpt>
      <trkpt lat="43.29327" lon="-2.09337">
        <ele>307.6</ele>
        <time>2021-05-29 11:37:04</time>
      </trkpt>
      <trkpt lat="43.29327" lon="-2.09349">
        <ele>307.6</ele>
        <time>2021-05-29 11:37:05</time>
      </trkpt>
      <trkpt lat="43.29327" lon="-2.09361">
        <ele>307.2</ele>
        <time>2021-05-29 11:37:06</time>
      </trkpt>
      <trkpt lat="43.29326" lon="-2.09374">
        <ele>307.2</ele>
        <time>2021-05-29 11:37:07</time>
      </trkpt>
      <trkpt lat="43.29326" lon="-2.09386">
        <ele>307</ele>
        <time>2021-05-29 11:37:08</time>
      </trkpt>
      <trkpt lat="43.29326" lon="-2.09398">
        <ele>306.8</ele>
        <time>2021-05-29 11:37:09</time>
      </trkpt>
      <trkpt lat="43.29327" lon="-2.09409">
        <ele>306.6</ele>
        <time>2021-05-29 11:37:10</time>
      </trkpt>
      <trkpt lat="43.29328" lon="-2.09421">
        <ele>306.4</ele>
        <time>2021-05-29 11:37:11</time>
      </trkpt>
      <trkpt lat="43.29328" lon="-2.09433">
        <ele>306.2</ele>
        <time>2021-05-29 11:37:12</time>
      </trkpt>
      <trkpt lat="43.29329" lon="-2.09445">
        <ele>305.6</ele>
        <time>2021-05-29 11:37:13</time>
      </trkpt>
      <trkpt lat="43.29329" lon="-2.09458">
        <ele>305.2</ele>
        <time>2021-05-29 11:37:14</time>
      </trkpt>
      <trkpt lat="43.29329" lon="-2.09471">
        <ele>305</ele>
        <time>2021-05-29 11:37:15</time>
      </trkpt>
      <trkpt lat="43.29329" lon="-2.09484">
        <ele>304.6</ele>
        <time>2021-05-29 11:37:16</time>
      </trkpt>
      <trkpt lat="43.29329" lon="-2.09497">
        <ele>304.4</ele>
        <time>2021-05-29 11:37:17</time>
      </trkpt>
      <trkpt lat="43.29329" lon="-2.0951">
        <ele>304.2</ele>
        <time>2021-05-29 11:37:18</time>
      </trkpt>
      <trkpt lat="43.29329" lon="-2.09523">
        <ele>303.8</ele>
        <time>2021-05-29 11:37:19</time>
      </trkpt>
      <trkpt lat="43.29328" lon="-2.09537">
        <ele>303.6</ele>
        <time>2021-05-29 11:37:20</time>
      </trkpt>
      <trkpt lat="43.29327" lon="-2.0955">
        <ele>303.4</ele>
        <time>2021-05-29 11:37:21</time>
      </trkpt>
      <trkpt lat="43.29326" lon="-2.09563">
        <ele>303.2</ele>
        <time>2021-05-29 11:37:22</time>
      </trkpt>
      <trkpt lat="43.29323" lon="-2.09576">
        <ele>303.2</ele>
        <time>2021-05-29 11:37:23</time>
      </trkpt>
      <trkpt lat="43.2932" lon="-2.09589">
        <ele>303.2</ele>
        <time>2021-05-29 11:37:24</time>
      </trkpt>
      <trkpt lat="43.29317" lon="-2.09601">
        <ele>303</ele>
        <time>2021-05-29 11:37:25</time>
      </trkpt>
      <trkpt lat="43.29313" lon="-2.09614">
        <ele>302.8</ele>
        <time>2021-05-29 11:37:26</time>
      </trkpt>
      <trkpt lat="43.29309" lon="-2.09627">
        <ele>302</ele>
        <time>2021-05-29 11:37:27</time>
      </trkpt>
      <trkpt lat="43.29305" lon="-2.09641">
        <ele>301.6</ele>
        <time>2021-05-29 11:37:28</time>
      </trkpt>
      <trkpt lat="43.29301" lon="-2.09655">
        <ele>301.2</ele>
        <time>2021-05-29 11:37:29</time>
      </trkpt>
      <trkpt lat="43.29297" lon="-2.09669">
        <ele>300.8</ele>
        <time>2021-05-29 11:37:30</time>
      </trkpt>
      <trkpt lat="43.29292" lon="-2.09683">
        <ele>300.6</ele>
        <time>2021-05-29 11:37:31</time>
      </trkpt>
      <trkpt lat="43.29288" lon="-2.09698">
        <ele>300.2</ele>
        <time>2021-05-29 11:37:32</time>
      </trkpt>
      <trkpt lat="43.29283" lon="-2.09712">
        <ele>300</ele>
        <time>2021-05-29 11:37:33</time>
      </trkpt>
      <trkpt lat="43.29279" lon="-2.09727">
        <ele>299.6</ele>
        <time>2021-05-29 11:37:34</time>
      </trkpt>
      <trkpt lat="43.29274" lon="-2.09742">
        <ele>298.6</ele>
        <time>2021-05-29 11:37:35</time>
      </trkpt>
      <trkpt lat="43.2927" lon="-2.09757">
        <ele>298</ele>
        <time>2021-05-29 11:37:36</time>
      </trkpt>
      <trkpt lat="43.29266" lon="-2.09772">
        <ele>297.6</ele>
        <time>2021-05-29 11:37:37</time>
      </trkpt>
      <trkpt lat="43.29262" lon="-2.09786">
        <ele>297.2</ele>
        <time>2021-05-29 11:37:38</time>
      </trkpt>
      <trkpt lat="43.29258" lon="-2.09801">
        <ele>296.8</ele>
        <time>2021-05-29 11:37:39</time>
      </trkpt>
      <trkpt lat="43.29255" lon="-2.09815">
        <ele>296.4</ele>
        <time>2021-05-29 11:37:40</time>
      </trkpt>
      <trkpt lat="43.29252" lon="-2.0983">
        <ele>296</ele>
        <time>2021-05-29 11:37:41</time>
      </trkpt>
      <trkpt lat="43.29249" lon="-2.09845">
        <ele>295.4</ele>
        <time>2021-05-29 11:37:42</time>
      </trkpt>
      <trkpt lat="43.29247" lon="-2.09859">
        <ele>295.2</ele>
        <time>2021-05-29 11:37:43</time>
      </trkpt>
      <trkpt lat="43.29245" lon="-2.09874">
        <ele>294.6</ele>
        <time>2021-05-29 11:37:44</time>
      </trkpt>
      <trkpt lat="43.29242" lon="-2.0989">
        <ele>294.2</ele>
        <time>2021-05-29 11:37:45</time>
      </trkpt>
      <trkpt lat="43.2924" lon="-2.09905">
        <ele>293.6</ele>
        <time>2021-05-29 11:37:46</time>
      </trkpt>
      <trkpt lat="43.29237" lon="-2.09921">
        <ele>293.4</ele>
        <time>2021-05-29 11:37:47</time>
      </trkpt>
      <trkpt lat="43.29233" lon="-2.09938">
        <ele>293.2</ele>
        <time>2021-05-29 11:37:48</time>
      </trkpt>
      <trkpt lat="43.2923" lon="-2.09954">
        <ele>293</ele>
        <time>2021-05-29 11:37:49</time>
      </trkpt>
      <trkpt lat="43.29226" lon="-2.09971">
        <ele>292.6</ele>
        <time>2021-05-29 11:37:50</time>
      </trkpt>
      <trkpt lat="43.29222" lon="-2.09987">
        <ele>292.4</ele>
        <time>2021-05-29 11:37:51</time>
      </trkpt>
      <trkpt lat="43.29219" lon="-2.10003">
        <ele>292</ele>
        <time>2021-05-29 11:37:52</time>
      </trkpt>
      <trkpt lat="43.29216" lon="-2.10018">
        <ele>291.2</ele>
        <time>2021-05-29 11:37:53</time>
      </trkpt>
      <trkpt lat="43.29213" lon="-2.10032">
        <ele>290.6</ele>
        <time>2021-05-29 11:37:54</time>
      </trkpt>
      <trkpt lat="43.29211" lon="-2.10044">
        <ele>289.8</ele>
        <time>2021-05-29 11:37:55</time>
      </trkpt>
      <trkpt lat="43.29209" lon="-2.10056">
        <ele>288.8</ele>
        <time>2021-05-29 11:37:56</time>
      </trkpt>
      <trkpt lat="43.29206" lon="-2.10068">
        <ele>287.8</ele>
        <time>2021-05-29 11:37:57</time>
      </trkpt>
      <trkpt lat="43.29204" lon="-2.10079">
        <ele>286.6</ele>
        <time>2021-05-29 11:37:58</time>
      </trkpt>
      <trkpt lat="43.29201" lon="-2.1009">
        <ele>285.4</ele>
        <time>2021-05-29 11:37:59</time>
      </trkpt>
      <trkpt lat="43.29196" lon="-2.10101">
        <ele>284.6</ele>
        <time>2021-05-29 11:38:00</time>
      </trkpt>
      <trkpt lat="43.29191" lon="-2.1011">
        <ele>283.6</ele>
        <time>2021-05-29 11:38:01</time>
      </trkpt>
      <trkpt lat="43.29184" lon="-2.10119">
        <ele>282.4</ele>
        <time>2021-05-29 11:38:02</time>
      </trkpt>
      <trkpt lat="43.29176" lon="-2.10126">
        <ele>281.8</ele>
        <time>2021-05-29 11:38:03</time>
      </trkpt>
      <trkpt lat="43.29168" lon="-2.10133">
        <ele>280.6</ele>
        <time>2021-05-29 11:38:04</time>
      </trkpt>
      <trkpt lat="43.29159" lon="-2.10139">
        <ele>279.4</ele>
        <time>2021-05-29 11:38:05</time>
      </trkpt>
      <trkpt lat="43.29149" lon="-2.10146">
        <ele>277.8</ele>
        <time>2021-05-29 11:38:06</time>
      </trkpt>
      <trkpt lat="43.29141" lon="-2.10154">
        <ele>276.4</ele>
        <time>2021-05-29 11:38:07</time>
      </trkpt>
      <trkpt lat="43.29133" lon="-2.10164">
        <ele>275.4</ele>
        <time>2021-05-29 11:38:08</time>
      </trkpt>
      <trkpt lat="43.29125" lon="-2.10174">
        <ele>275</ele>
        <time>2021-05-29 11:38:09</time>
      </trkpt>
      <trkpt lat="43.29118" lon="-2.10186">
        <ele>274.6</ele>
        <time>2021-05-29 11:38:10</time>
      </trkpt>
      <trkpt lat="43.29111" lon="-2.10198">
        <ele>273.8</ele>
        <time>2021-05-29 11:38:11</time>
      </trkpt>
      <trkpt lat="43.29105" lon="-2.10211">
        <ele>273</ele>
        <time>2021-05-29 11:38:12</time>
      </trkpt>
      <trkpt lat="43.291" lon="-2.10224">
        <ele>272.4</ele>
        <time>2021-05-29 11:38:13</time>
      </trkpt>
      <trkpt lat="43.29096" lon="-2.10237">
        <ele>272</ele>
        <time>2021-05-29 11:38:14</time>
      </trkpt>
      <trkpt lat="43.29091" lon="-2.1025">
        <ele>271.6</ele>
        <time>2021-05-29 11:38:15</time>
      </trkpt>
      <trkpt lat="43.29087" lon="-2.10263">
        <ele>271.2</ele>
        <time>2021-05-29 11:38:16</time>
      </trkpt>
      <trkpt lat="43.29083" lon="-2.10276">
        <ele>271</ele>
        <time>2021-05-29 11:38:17</time>
      </trkpt>
      <trkpt lat="43.29078" lon="-2.10289">
        <ele>270.8</ele>
        <time>2021-05-29 11:38:18</time>
      </trkpt>
      <trkpt lat="43.29075" lon="-2.10302">
        <ele>270.4</ele>
        <time>2021-05-29 11:38:19</time>
      </trkpt>
      <trkpt lat="43.29071" lon="-2.10315">
        <ele>270.4</ele>
        <time>2021-05-29 11:38:20</time>
      </trkpt>
      <trkpt lat="43.29069" lon="-2.10328">
        <ele>270.2</ele>
        <time>2021-05-29 11:38:21</time>
      </trkpt>
      <trkpt lat="43.29066" lon="-2.10341">
        <ele>270</ele>
        <time>2021-05-29 11:38:22</time>
      </trkpt>
      <trkpt lat="43.29063" lon="-2.10354">
        <ele>270</ele>
        <time>2021-05-29 11:38:23</time>
      </trkpt>
      <trkpt lat="43.29059" lon="-2.10367">
        <ele>269.8</ele>
        <time>2021-05-29 11:38:24</time>
      </trkpt>
      <trkpt lat="43.29054" lon="-2.1038">
        <ele>269.8</ele>
        <time>2021-05-29 11:38:25</time>
      </trkpt>
      <trkpt lat="43.29048" lon="-2.10392">
        <ele>269.6</ele>
        <time>2021-05-29 11:38:26</time>
      </trkpt>
      <trkpt lat="43.29041" lon="-2.10404">
        <ele>269.6</ele>
        <time>2021-05-29 11:38:27</time>
      </trkpt>
      <trkpt lat="43.29034" lon="-2.10416">
        <ele>269.6</ele>
        <time>2021-05-29 11:38:28</time>
      </trkpt>
      <trkpt lat="43.29027" lon="-2.10426">
        <ele>269.4</ele>
        <time>2021-05-29 11:38:29</time>
      </trkpt>
      <trkpt lat="43.29021" lon="-2.10437">
        <ele>269.2</ele>
        <time>2021-05-29 11:38:30</time>
      </trkpt>
      <trkpt lat="43.29014" lon="-2.10448">
        <ele>269</ele>
        <time>2021-05-29 11:38:31</time>
      </trkpt>
      <trkpt lat="43.29008" lon="-2.10458">
        <ele>269</ele>
        <time>2021-05-29 11:38:32</time>
      </trkpt>
      <trkpt lat="43.29003" lon="-2.10468">
        <ele>268.8</ele>
        <time>2021-05-29 11:38:33</time>
      </trkpt>
      <trkpt lat="43.28999" lon="-2.10478">
        <ele>268.6</ele>
        <time>2021-05-29 11:38:34</time>
      </trkpt>
      <trkpt lat="43.28995" lon="-2.10487">
        <ele>268.2</ele>
        <time>2021-05-29 11:38:35</time>
      </trkpt>
      <trkpt lat="43.28991" lon="-2.10494">
        <ele>267.8</ele>
        <time>2021-05-29 11:38:36</time>
      </trkpt>
      <trkpt lat="43.28986" lon="-2.10498">
        <ele>267.6</ele>
        <time>2021-05-29 11:38:37</time>
      </trkpt>
      <trkpt lat="43.28981" lon="-2.10498">
        <ele>267.4</ele>
        <time>2021-05-29 11:38:38</time>
      </trkpt>
      <trkpt lat="43.28978" lon="-2.10495">
        <ele>267.4</ele>
        <time>2021-05-29 11:38:39</time>
      </trkpt>
      <trkpt lat="43.28976" lon="-2.10488">
        <ele>266.8</ele>
        <time>2021-05-29 11:38:40</time>
      </trkpt>
      <trkpt lat="43.28975" lon="-2.10479">
        <ele>266</ele>
        <time>2021-05-29 11:38:41</time>
      </trkpt>
      <trkpt lat="43.28975" lon="-2.10469">
        <ele>265</ele>
        <time>2021-05-29 11:38:42</time>
      </trkpt>
      <trkpt lat="43.28976" lon="-2.10457">
        <ele>263.8</ele>
        <time>2021-05-29 11:38:43</time>
      </trkpt>
      <trkpt lat="43.28978" lon="-2.10445">
        <ele>262.6</ele>
        <time>2021-05-29 11:38:44</time>
      </trkpt>
      <trkpt lat="43.28982" lon="-2.10433">
        <ele>261.4</ele>
        <time>2021-05-29 11:38:45</time>
      </trkpt>
      <trkpt lat="43.28988" lon="-2.10422">
        <ele>260.4</ele>
        <time>2021-05-29 11:38:46</time>
      </trkpt>
      <trkpt lat="43.28994" lon="-2.10412">
        <ele>258.8</ele>
        <time>2021-05-29 11:38:47</time>
      </trkpt>
      <trkpt lat="43.29" lon="-2.10402">
        <ele>258.2</ele>
        <time>2021-05-29 11:38:48</time>
      </trkpt>
      <trkpt lat="43.29006" lon="-2.10393">
        <ele>257</ele>
        <time>2021-05-29 11:38:49</time>
      </trkpt>
      <trkpt lat="43.29011" lon="-2.10382">
        <ele>256</ele>
        <time>2021-05-29 11:38:50</time>
      </trkpt>
      <trkpt lat="43.29015" lon="-2.10368">
        <ele>255.2</ele>
        <time>2021-05-29 11:38:51</time>
      </trkpt>
      <trkpt lat="43.29016" lon="-2.10353">
        <ele>253.6</ele>
        <time>2021-05-29 11:38:52</time>
      </trkpt>
      <trkpt lat="43.29017" lon="-2.10337">
        <ele>252.8</ele>
        <time>2021-05-29 11:38:53</time>
      </trkpt>
      <trkpt lat="43.29018" lon="-2.10321">
        <ele>251.6</ele>
        <time>2021-05-29 11:38:54</time>
      </trkpt>
      <trkpt lat="43.29019" lon="-2.10306">
        <ele>250.8</ele>
        <time>2021-05-29 11:38:55</time>
      </trkpt>
      <trkpt lat="43.29021" lon="-2.1029">
        <ele>250.2</ele>
        <time>2021-05-29 11:38:56</time>
      </trkpt>
      <trkpt lat="43.29025" lon="-2.10274">
        <ele>250</ele>
        <time>2021-05-29 11:38:57</time>
      </trkpt>
      <trkpt lat="43.2903" lon="-2.10258">
        <ele>249</ele>
        <time>2021-05-29 11:38:58</time>
      </trkpt>
      <trkpt lat="43.29035" lon="-2.10241">
        <ele>248</ele>
        <time>2021-05-29 11:38:59</time>
      </trkpt>
      <trkpt lat="43.29038" lon="-2.10223">
        <ele>247.2</ele>
        <time>2021-05-29 11:39:00</time>
      </trkpt>
      <trkpt lat="43.29042" lon="-2.10206">
        <ele>246.6</ele>
        <time>2021-05-29 11:39:01</time>
      </trkpt>
      <trkpt lat="43.29047" lon="-2.10191">
        <ele>245.8</ele>
        <time>2021-05-29 11:39:02</time>
      </trkpt>
      <trkpt lat="43.29054" lon="-2.10176">
        <ele>245</ele>
        <time>2021-05-29 11:39:03</time>
      </trkpt>
      <trkpt lat="43.29061" lon="-2.10162">
        <ele>244.2</ele>
        <time>2021-05-29 11:39:04</time>
      </trkpt>
      <trkpt lat="43.29069" lon="-2.10146">
        <ele>243.4</ele>
        <time>2021-05-29 11:39:05</time>
      </trkpt>
      <trkpt lat="43.29072" lon="-2.10129">
        <ele>243</ele>
        <time>2021-05-29 11:39:06</time>
      </trkpt>
      <trkpt lat="43.29072" lon="-2.10114">
        <ele>242.4</ele>
        <time>2021-05-29 11:39:07</time>
      </trkpt>
      <trkpt lat="43.29069" lon="-2.10102">
        <ele>241.6</ele>
        <time>2021-05-29 11:39:08</time>
      </trkpt>
      <trkpt lat="43.2906" lon="-2.10092">
        <ele>240.6</ele>
        <time>2021-05-29 11:39:09</time>
      </trkpt>
      <trkpt lat="43.29047" lon="-2.1008">
        <ele>239.6</ele>
        <time>2021-05-29 11:39:10</time>
      </trkpt>
      <trkpt lat="43.29038" lon="-2.10069">
        <ele>238.4</ele>
        <time>2021-05-29 11:39:11</time>
      </trkpt>
      <trkpt lat="43.29029" lon="-2.10058">
        <ele>237.2</ele>
        <time>2021-05-29 11:39:12</time>
      </trkpt>
      <trkpt lat="43.2902" lon="-2.10049">
        <ele>236</ele>
        <time>2021-05-29 11:39:13</time>
      </trkpt>
      <trkpt lat="43.29009" lon="-2.10047">
        <ele>235</ele>
        <time>2021-05-29 11:39:14</time>
      </trkpt>
      <trkpt lat="43.28997" lon="-2.10047">
        <ele>234</ele>
        <time>2021-05-29 11:39:15</time>
      </trkpt>
      <trkpt lat="43.28987" lon="-2.10047">
        <ele>233.4</ele>
        <time>2021-05-29 11:39:16</time>
      </trkpt>
      <trkpt lat="43.28976" lon="-2.10043">
        <ele>232.4</ele>
        <time>2021-05-29 11:39:17</time>
      </trkpt>
      <trkpt lat="43.28966" lon="-2.10037">
        <ele>231.6</ele>
        <time>2021-05-29 11:39:18</time>
      </trkpt>
      <trkpt lat="43.28955" lon="-2.10031">
        <ele>231.2</ele>
        <time>2021-05-29 11:39:19</time>
      </trkpt>
      <trkpt lat="43.28943" lon="-2.10024">
        <ele>230.2</ele>
        <time>2021-05-29 11:39:20</time>
      </trkpt>
      <trkpt lat="43.28931" lon="-2.10017">
        <ele>228</ele>
        <time>2021-05-29 11:39:21</time>
      </trkpt>
      <trkpt lat="43.28919" lon="-2.1001">
        <ele>227.2</ele>
        <time>2021-05-29 11:39:22</time>
      </trkpt>
      <trkpt lat="43.28908" lon="-2.09999">
        <ele>226.4</ele>
        <time>2021-05-29 11:39:23</time>
      </trkpt>
      <trkpt lat="43.28898" lon="-2.09988">
        <ele>225.4</ele>
        <time>2021-05-29 11:39:24</time>
      </trkpt>
      <trkpt lat="43.28891" lon="-2.09975">
        <ele>225</ele>
        <time>2021-05-29 11:39:25</time>
      </trkpt>
      <trkpt lat="43.28885" lon="-2.0996">
        <ele>224.4</ele>
        <time>2021-05-29 11:39:26</time>
      </trkpt>
      <trkpt lat="43.28881" lon="-2.09944">
        <ele>223.8</ele>
        <time>2021-05-29 11:39:27</time>
      </trkpt>
      <trkpt lat="43.28877" lon="-2.09926">
        <ele>222.6</ele>
        <time>2021-05-29 11:39:28</time>
      </trkpt>
      <trkpt lat="43.28875" lon="-2.09909">
        <ele>221.2</ele>
        <time>2021-05-29 11:39:29</time>
      </trkpt>
      <trkpt lat="43.28873" lon="-2.0989">
        <ele>220.2</ele>
        <time>2021-05-29 11:39:30</time>
      </trkpt>
      <trkpt lat="43.28873" lon="-2.09872">
        <ele>219.6</ele>
        <time>2021-05-29 11:39:31</time>
      </trkpt>
      <trkpt lat="43.28873" lon="-2.09853">
        <ele>219</ele>
        <time>2021-05-29 11:39:32</time>
      </trkpt>
      <trkpt lat="43.28874" lon="-2.09835">
        <ele>218.4</ele>
        <time>2021-05-29 11:39:33</time>
      </trkpt>
      <trkpt lat="43.28876" lon="-2.09815">
        <ele>217</ele>
        <time>2021-05-29 11:39:34</time>
      </trkpt>
      <trkpt lat="43.28879" lon="-2.09795">
        <ele>215.4</ele>
        <time>2021-05-29 11:39:35</time>
      </trkpt>
      <trkpt lat="43.2888" lon="-2.09775">
        <ele>214.2</ele>
        <time>2021-05-29 11:39:36</time>
      </trkpt>
      <trkpt lat="43.28882" lon="-2.09755">
        <ele>212.8</ele>
        <time>2021-05-29 11:39:37</time>
      </trkpt>
      <trkpt lat="43.28883" lon="-2.09736">
        <ele>211.6</ele>
        <time>2021-05-29 11:39:38</time>
      </trkpt>
      <trkpt lat="43.28884" lon="-2.09717">
        <ele>210.8</ele>
        <time>2021-05-29 11:39:39</time>
      </trkpt>
      <trkpt lat="43.28885" lon="-2.09699">
        <ele>210</ele>
        <time>2021-05-29 11:39:40</time>
      </trkpt>
      <trkpt lat="43.28887" lon="-2.09682">
        <ele>209.4</ele>
        <time>2021-05-29 11:39:41</time>
      </trkpt>
      <trkpt lat="43.2889" lon="-2.09667">
        <ele>208.4</ele>
        <time>2021-05-29 11:39:42</time>
      </trkpt>
      <trkpt lat="43.28896" lon="-2.09653">
        <ele>207.4</ele>
        <time>2021-05-29 11:39:43</time>
      </trkpt>
      <trkpt lat="43.28902" lon="-2.09639">
        <ele>206.4</ele>
        <time>2021-05-29 11:39:44</time>
      </trkpt>
      <trkpt lat="43.2891" lon="-2.09625">
        <ele>205</ele>
        <time>2021-05-29 11:39:45</time>
      </trkpt>
      <trkpt lat="43.28918" lon="-2.09613">
        <ele>203.8</ele>
        <time>2021-05-29 11:39:46</time>
      </trkpt>
      <trkpt lat="43.28926" lon="-2.09601">
        <ele>202.6</ele>
        <time>2021-05-29 11:39:47</time>
      </trkpt>
      <trkpt lat="43.28935" lon="-2.09588">
        <ele>201.6</ele>
        <time>2021-05-29 11:39:48</time>
      </trkpt>
      <trkpt lat="43.28943" lon="-2.09574">
        <ele>200.4</ele>
        <time>2021-05-29 11:39:49</time>
      </trkpt>
      <trkpt lat="43.28949" lon="-2.09556">
        <ele>199.4</ele>
        <time>2021-05-29 11:39:50</time>
      </trkpt>
      <trkpt lat="43.28952" lon="-2.09538">
        <ele>198.4</ele>
        <time>2021-05-29 11:39:51</time>
      </trkpt>
      <trkpt lat="43.28952" lon="-2.09519">
        <ele>197.2</ele>
        <time>2021-05-29 11:39:52</time>
      </trkpt>
      <trkpt lat="43.28949" lon="-2.09502">
        <ele>196.2</ele>
        <time>2021-05-29 11:39:53</time>
      </trkpt>
      <trkpt lat="43.28946" lon="-2.09486">
        <ele>194.8</ele>
        <time>2021-05-29 11:39:54</time>
      </trkpt>
      <trkpt lat="43.28945" lon="-2.09472">
        <ele>193.6</ele>
        <time>2021-05-29 11:39:55</time>
      </trkpt>
      <trkpt lat="43.28943" lon="-2.0946">
        <ele>191.4</ele>
        <time>2021-05-29 11:39:56</time>
      </trkpt>
      <trkpt lat="43.28942" lon="-2.0945">
        <ele>190</ele>
        <time>2021-05-29 11:39:57</time>
      </trkpt>
      <trkpt lat="43.28939" lon="-2.09443">
        <ele>189.2</ele>
        <time>2021-05-29 11:39:58</time>
      </trkpt>
      <trkpt lat="43.28936" lon="-2.09438">
        <ele>188.4</ele>
        <time>2021-05-29 11:39:59</time>
      </trkpt>
      <trkpt lat="43.28932" lon="-2.09439">
        <ele>187.4</ele>
        <time>2021-05-29 11:40:00</time>
      </trkpt>
      <trkpt lat="43.28929" lon="-2.09441">
        <ele>186.2</ele>
        <time>2021-05-29 11:40:01</time>
      </trkpt>
      <trkpt lat="43.28929" lon="-2.09446">
        <ele>185.2</ele>
        <time>2021-05-29 11:40:02</time>
      </trkpt>
      <trkpt lat="43.2893" lon="-2.09452">
        <ele>183.6</ele>
        <time>2021-05-29 11:40:03</time>
      </trkpt>
      <trkpt lat="43.28933" lon="-2.09461">
        <ele>182.4</ele>
        <time>2021-05-29 11:40:04</time>
      </trkpt>
      <trkpt lat="43.28936" lon="-2.09472">
        <ele>181.6</ele>
        <time>2021-05-29 11:40:05</time>
      </trkpt>
      <trkpt lat="43.28938" lon="-2.09484">
        <ele>181</ele>
        <time>2021-05-29 11:40:06</time>
      </trkpt>
      <trkpt lat="43.2894" lon="-2.09498">
        <ele>180.4</ele>
        <time>2021-05-29 11:40:07</time>
      </trkpt>
      <trkpt lat="43.28938" lon="-2.09513">
        <ele>179.8</ele>
        <time>2021-05-29 11:40:08</time>
      </trkpt>
      <trkpt lat="43.28935" lon="-2.09527">
        <ele>179.4</ele>
        <time>2021-05-29 11:40:09</time>
      </trkpt>
      <trkpt lat="43.28931" lon="-2.0954">
        <ele>179</ele>
        <time>2021-05-29 11:40:10</time>
      </trkpt>
      <trkpt lat="43.28923" lon="-2.09551">
        <ele>178.4</ele>
        <time>2021-05-29 11:40:11</time>
      </trkpt>
      <trkpt lat="43.28914" lon="-2.09562">
        <ele>177.6</ele>
        <time>2021-05-29 11:40:12</time>
      </trkpt>
      <trkpt lat="43.28902" lon="-2.09574">
        <ele>177</ele>
        <time>2021-05-29 11:40:13</time>
      </trkpt>
      <trkpt lat="43.28891" lon="-2.09583">
        <ele>176.4</ele>
        <time>2021-05-29 11:40:14</time>
      </trkpt>
      <trkpt lat="43.28877" lon="-2.09591">
        <ele>175.8</ele>
        <time>2021-05-29 11:40:15</time>
      </trkpt>
      <trkpt lat="43.28863" lon="-2.09598">
        <ele>175.2</ele>
        <time>2021-05-29 11:40:16</time>
      </trkpt>
      <trkpt lat="43.28851" lon="-2.09604">
        <ele>174.4</ele>
        <time>2021-05-29 11:40:17</time>
      </trkpt>
      <trkpt lat="43.28839" lon="-2.0961">
        <ele>173.6</ele>
        <time>2021-05-29 11:40:18</time>
      </trkpt>
      <trkpt lat="43.2883" lon="-2.09618">
        <ele>173</ele>
        <time>2021-05-29 11:40:19</time>
      </trkpt>
      <trkpt lat="43.28824" lon="-2.09629">
        <ele>172.2</ele>
        <time>2021-05-29 11:40:20</time>
      </trkpt>
      <trkpt lat="43.28819" lon="-2.09642">
        <ele>171.4</ele>
        <time>2021-05-29 11:40:21</time>
      </trkpt>
      <trkpt lat="43.28815" lon="-2.09657">
        <ele>170.4</ele>
        <time>2021-05-29 11:40:22</time>
      </trkpt>
      <trkpt lat="43.28813" lon="-2.09672">
        <ele>169.8</ele>
        <time>2021-05-29 11:40:23</time>
      </trkpt>
      <trkpt lat="43.28811" lon="-2.09688">
        <ele>169</ele>
        <time>2021-05-29 11:40:24</time>
      </trkpt>
      <trkpt lat="43.28811" lon="-2.09704">
        <ele>168</ele>
        <time>2021-05-29 11:40:25</time>
      </trkpt>
      <trkpt lat="43.2881" lon="-2.09721">
        <ele>167.4</ele>
        <time>2021-05-29 11:40:26</time>
      </trkpt>
      <trkpt lat="43.28808" lon="-2.09738">
        <ele>166.4</ele>
        <time>2021-05-29 11:40:27</time>
      </trkpt>
      <trkpt lat="43.28803" lon="-2.09756">
        <ele>165</ele>
        <time>2021-05-29 11:40:28</time>
      </trkpt>
      <trkpt lat="43.28798" lon="-2.09773">
        <ele>163.8</ele>
        <time>2021-05-29 11:40:29</time>
      </trkpt>
      <trkpt lat="43.28792" lon="-2.0979">
        <ele>162</ele>
        <time>2021-05-29 11:40:30</time>
      </trkpt>
      <trkpt lat="43.28785" lon="-2.09807">
        <ele>161.4</ele>
        <time>2021-05-29 11:40:31</time>
      </trkpt>
      <trkpt lat="43.28777" lon="-2.09823">
        <ele>160.8</ele>
        <time>2021-05-29 11:40:32</time>
      </trkpt>
      <trkpt lat="43.28768" lon="-2.09839">
        <ele>160</ele>
        <time>2021-05-29 11:40:33</time>
      </trkpt>
      <trkpt lat="43.28759" lon="-2.09854">
        <ele>158.8</ele>
        <time>2021-05-29 11:40:34</time>
      </trkpt>
      <trkpt lat="43.2875" lon="-2.09871">
        <ele>157.8</ele>
        <time>2021-05-29 11:40:35</time>
      </trkpt>
      <trkpt lat="43.28742" lon="-2.09887">
        <ele>156.2</ele>
        <time>2021-05-29 11:40:36</time>
      </trkpt>
      <trkpt lat="43.28736" lon="-2.09905">
        <ele>155.2</ele>
        <time>2021-05-29 11:40:37</time>
      </trkpt>
      <trkpt lat="43.28731" lon="-2.09923">
        <ele>154.4</ele>
        <time>2021-05-29 11:40:38</time>
      </trkpt>
      <trkpt lat="43.28727" lon="-2.09942">
        <ele>153.2</ele>
        <time>2021-05-29 11:40:39</time>
      </trkpt>
      <trkpt lat="43.28724" lon="-2.0996">
        <ele>152.2</ele>
        <time>2021-05-29 11:40:40</time>
      </trkpt>
      <trkpt lat="43.28724" lon="-2.09979">
        <ele>151</ele>
        <time>2021-05-29 11:40:41</time>
      </trkpt>
      <trkpt lat="43.28726" lon="-2.09996">
        <ele>150</ele>
        <time>2021-05-29 11:40:42</time>
      </trkpt>
      <trkpt lat="43.28731" lon="-2.10012">
        <ele>149.4</ele>
        <time>2021-05-29 11:40:43</time>
      </trkpt>
      <trkpt lat="43.28738" lon="-2.10026">
        <ele>148.8</ele>
        <time>2021-05-29 11:40:44</time>
      </trkpt>
      <trkpt lat="43.28747" lon="-2.10038">
        <ele>147.6</ele>
        <time>2021-05-29 11:40:45</time>
      </trkpt>
      <trkpt lat="43.28757" lon="-2.10049">
        <ele>146.8</ele>
        <time>2021-05-29 11:40:46</time>
      </trkpt>
      <trkpt lat="43.28766" lon="-2.1006">
        <ele>145.2</ele>
        <time>2021-05-29 11:40:47</time>
      </trkpt>
      <trkpt lat="43.28772" lon="-2.10073">
        <ele>144</ele>
        <time>2021-05-29 11:40:48</time>
      </trkpt>
      <trkpt lat="43.28776" lon="-2.10088">
        <ele>143</ele>
        <time>2021-05-29 11:40:49</time>
      </trkpt>
      <trkpt lat="43.28777" lon="-2.10103">
        <ele>142.2</ele>
        <time>2021-05-29 11:40:50</time>
      </trkpt>
      <trkpt lat="43.28779" lon="-2.10119">
        <ele>141.2</ele>
        <time>2021-05-29 11:40:51</time>
      </trkpt>
      <trkpt lat="43.28785" lon="-2.10132">
        <ele>140.4</ele>
        <time>2021-05-29 11:40:52</time>
      </trkpt>
      <trkpt lat="43.28792" lon="-2.10145">
        <ele>139.6</ele>
        <time>2021-05-29 11:40:53</time>
      </trkpt>
      <trkpt lat="43.28801" lon="-2.10155">
        <ele>138.8</ele>
        <time>2021-05-29 11:40:54</time>
      </trkpt>
      <trkpt lat="43.28811" lon="-2.1016">
        <ele>137.8</ele>
        <time>2021-05-29 11:40:55</time>
      </trkpt>
      <trkpt lat="43.2882" lon="-2.1016">
        <ele>136.8</ele>
        <time>2021-05-29 11:40:56</time>
      </trkpt>
      <trkpt lat="43.28829" lon="-2.10162">
        <ele>136</ele>
        <time>2021-05-29 11:40:57</time>
      </trkpt>
      <trkpt lat="43.28837" lon="-2.10166">
        <ele>135.2</ele>
        <time>2021-05-29 11:40:58</time>
      </trkpt>
      <trkpt lat="43.28844" lon="-2.10174">
        <ele>134.4</ele>
        <time>2021-05-29 11:40:59</time>
      </trkpt>
      <trkpt lat="43.28852" lon="-2.10182">
        <ele>133.4</ele>
        <time>2021-05-29 11:41:00</time>
      </trkpt>
      <trkpt lat="43.2886" lon="-2.10187">
        <ele>132.6</ele>
        <time>2021-05-29 11:41:01</time>
      </trkpt>
      <trkpt lat="43.28869" lon="-2.10186">
        <ele>131.4</ele>
        <time>2021-05-29 11:41:02</time>
      </trkpt>
      <trkpt lat="43.28877" lon="-2.10184">
        <ele>130.2</ele>
        <time>2021-05-29 11:41:03</time>
      </trkpt>
      <trkpt lat="43.28884" lon="-2.10183">
        <ele>129</ele>
        <time>2021-05-29 11:41:04</time>
      </trkpt>
      <trkpt lat="43.2889" lon="-2.10182">
        <ele>128</ele>
        <time>2021-05-29 11:41:05</time>
      </trkpt>
      <trkpt lat="43.28895" lon="-2.10185">
        <ele>127.6</ele>
        <time>2021-05-29 11:41:06</time>
      </trkpt>
      <trkpt lat="43.28899" lon="-2.10188">
        <ele>127.4</ele>
        <time>2021-05-29 11:41:07</time>
      </trkpt>
      <trkpt lat="43.28902" lon="-2.10191">
        <ele>127</ele>
        <time>2021-05-29 11:41:08</time>
      </trkpt>
      <trkpt lat="43.28902" lon="-2.10198">
        <ele>126.8</ele>
        <time>2021-05-29 11:41:09</time>
      </trkpt>
      <trkpt lat="43.289" lon="-2.1021">
        <ele>126.6</ele>
        <time>2021-05-29 11:41:10</time>
      </trkpt>
      <trkpt lat="43.28897" lon="-2.10219">
        <ele>126.4</ele>
        <time>2021-05-29 11:41:11</time>
      </trkpt>
      <trkpt lat="43.28889" lon="-2.10229">
        <ele>126.2</ele>
        <time>2021-05-29 11:41:12</time>
      </trkpt>
      <trkpt lat="43.28873" lon="-2.1024">
        <ele>126.2</ele>
        <time>2021-05-29 11:41:13</time>
      </trkpt>
      <trkpt lat="43.28859" lon="-2.10252">
        <ele>125.8</ele>
        <time>2021-05-29 11:41:14</time>
      </trkpt>
      <trkpt lat="43.28847" lon="-2.1026">
        <ele>125.4</ele>
        <time>2021-05-29 11:41:15</time>
      </trkpt>
      <trkpt lat="43.28834" lon="-2.10269">
        <ele>125</ele>
        <time>2021-05-29 11:41:16</time>
      </trkpt>
      <trkpt lat="43.28823" lon="-2.10278">
        <ele>124.8</ele>
        <time>2021-05-29 11:41:17</time>
      </trkpt>
      <trkpt lat="43.28811" lon="-2.10289">
        <ele>124.4</ele>
        <time>2021-05-29 11:41:18</time>
      </trkpt>
      <trkpt lat="43.28799" lon="-2.10299">
        <ele>124</ele>
        <time>2021-05-29 11:41:19</time>
      </trkpt>
      <trkpt lat="43.28787" lon="-2.10308">
        <ele>123.6</ele>
        <time>2021-05-29 11:41:20</time>
      </trkpt>
      <trkpt lat="43.28772" lon="-2.10314">
        <ele>123</ele>
        <time>2021-05-29 11:41:21</time>
      </trkpt>
      <trkpt lat="43.28758" lon="-2.10317">
        <ele>122.6</ele>
        <time>2021-05-29 11:41:22</time>
      </trkpt>
      <trkpt lat="43.28744" lon="-2.1032">
        <ele>121.6</ele>
        <time>2021-05-29 11:41:23</time>
      </trkpt>
      <trkpt lat="43.2873" lon="-2.10323">
        <ele>120.8</ele>
        <time>2021-05-29 11:41:24</time>
      </trkpt>
      <trkpt lat="43.28717" lon="-2.10328">
        <ele>119.8</ele>
        <time>2021-05-29 11:41:25</time>
      </trkpt>
      <trkpt lat="43.28702" lon="-2.10333">
        <ele>118.8</ele>
        <time>2021-05-29 11:41:26</time>
      </trkpt>
      <trkpt lat="43.28689" lon="-2.10339">
        <ele>117.8</ele>
        <time>2021-05-29 11:41:27</time>
      </trkpt>
      <trkpt lat="43.28675" lon="-2.10345">
        <ele>117.2</ele>
        <time>2021-05-29 11:41:28</time>
      </trkpt>
      <trkpt lat="43.28662" lon="-2.10353">
        <ele>116.4</ele>
        <time>2021-05-29 11:41:29</time>
      </trkpt>
      <trkpt lat="43.28651" lon="-2.10363">
        <ele>115.2</ele>
        <time>2021-05-29 11:41:30</time>
      </trkpt>
      <trkpt lat="43.2864" lon="-2.10374">
        <ele>114.4</ele>
        <time>2021-05-29 11:41:31</time>
      </trkpt>
      <trkpt lat="43.2863" lon="-2.10386">
        <ele>113.6</ele>
        <time>2021-05-29 11:41:32</time>
      </trkpt>
      <trkpt lat="43.28621" lon="-2.10398">
        <ele>112.6</ele>
        <time>2021-05-29 11:41:33</time>
      </trkpt>
      <trkpt lat="43.28611" lon="-2.10407">
        <ele>111.4</ele>
        <time>2021-05-29 11:41:34</time>
      </trkpt>
      <trkpt lat="43.28599" lon="-2.10412">
        <ele>110.4</ele>
        <time>2021-05-29 11:41:35</time>
      </trkpt>
      <trkpt lat="43.28589" lon="-2.10416">
        <ele>109.2</ele>
        <time>2021-05-29 11:41:36</time>
      </trkpt>
      <trkpt lat="43.28578" lon="-2.1042">
        <ele>108.2</ele>
        <time>2021-05-29 11:41:37</time>
      </trkpt>
      <trkpt lat="43.2857" lon="-2.10428">
        <ele>107.4</ele>
        <time>2021-05-29 11:41:38</time>
      </trkpt>
      <trkpt lat="43.28563" lon="-2.10439">
        <ele>106.6</ele>
        <time>2021-05-29 11:41:39</time>
      </trkpt>
      <trkpt lat="43.28557" lon="-2.10451">
        <ele>105</ele>
        <time>2021-05-29 11:41:40</time>
      </trkpt>
      <trkpt lat="43.28551" lon="-2.10465">
        <ele>103.6</ele>
        <time>2021-05-29 11:41:41</time>
      </trkpt>
      <trkpt lat="43.28547" lon="-2.10479">
        <ele>102.6</ele>
        <time>2021-05-29 11:41:42</time>
      </trkpt>
      <trkpt lat="43.28544" lon="-2.10495">
        <ele>101.4</ele>
        <time>2021-05-29 11:41:43</time>
      </trkpt>
      <trkpt lat="43.28541" lon="-2.10512">
        <ele>100.6</ele>
        <time>2021-05-29 11:41:44</time>
      </trkpt>
      <trkpt lat="43.28538" lon="-2.10528">
        <ele>100</ele>
        <time>2021-05-29 11:41:45</time>
      </trkpt>
      <trkpt lat="43.28536" lon="-2.10546">
        <ele>98.8</ele>
        <time>2021-05-29 11:41:46</time>
      </trkpt>
      <trkpt lat="43.28534" lon="-2.10564">
        <ele>98</ele>
        <time>2021-05-29 11:41:47</time>
      </trkpt>
      <trkpt lat="43.28531" lon="-2.10582">
        <ele>97.2</ele>
        <time>2021-05-29 11:41:48</time>
      </trkpt>
      <trkpt lat="43.28529" lon="-2.106">
        <ele>96.2</ele>
        <time>2021-05-29 11:41:49</time>
      </trkpt>
      <trkpt lat="43.28525" lon="-2.10618">
        <ele>95.4</ele>
        <time>2021-05-29 11:41:50</time>
      </trkpt>
      <trkpt lat="43.28519" lon="-2.10636">
        <ele>95</ele>
        <time>2021-05-29 11:41:51</time>
      </trkpt>
      <trkpt lat="43.28512" lon="-2.10653">
        <ele>94.4</ele>
        <time>2021-05-29 11:41:52</time>
      </trkpt>
      <trkpt lat="43.28506" lon="-2.1067">
        <ele>93</ele>
        <time>2021-05-29 11:41:53</time>
      </trkpt>
      <trkpt lat="43.285" lon="-2.10687">
        <ele>92</ele>
        <time>2021-05-29 11:41:54</time>
      </trkpt>
      <trkpt lat="43.28494" lon="-2.10704">
        <ele>91</ele>
        <time>2021-05-29 11:41:55</time>
      </trkpt>
      <trkpt lat="43.28488" lon="-2.10719">
        <ele>89.6</ele>
        <time>2021-05-29 11:41:56</time>
      </trkpt>
      <trkpt lat="43.28482" lon="-2.10734">
        <ele>88.4</ele>
        <time>2021-05-29 11:41:57</time>
      </trkpt>
      <trkpt lat="43.28475" lon="-2.10747">
        <ele>87.8</ele>
        <time>2021-05-29 11:41:58</time>
      </trkpt>
      <trkpt lat="43.28472" lon="-2.10761">
        <ele>87</ele>
        <time>2021-05-29 11:41:59</time>
      </trkpt>
      <trkpt lat="43.2847" lon="-2.10776">
        <ele>86</ele>
        <time>2021-05-29 11:42:00</time>
      </trkpt>
      <trkpt lat="43.28471" lon="-2.10791">
        <ele>85</ele>
        <time>2021-05-29 11:42:01</time>
      </trkpt>
      <trkpt lat="43.28473" lon="-2.10808">
        <ele>84</ele>
        <time>2021-05-29 11:42:02</time>
      </trkpt>
      <trkpt lat="43.28473" lon="-2.10826">
        <ele>82.8</ele>
        <time>2021-05-29 11:42:03</time>
      </trkpt>
      <trkpt lat="43.28471" lon="-2.10844">
        <ele>82</ele>
        <time>2021-05-29 11:42:04</time>
      </trkpt>
      <trkpt lat="43.28466" lon="-2.10862">
        <ele>80.4</ele>
        <time>2021-05-29 11:42:05</time>
      </trkpt>
      <trkpt lat="43.2846" lon="-2.10879">
        <ele>77.8</ele>
        <time>2021-05-29 11:42:06</time>
      </trkpt>
      <trkpt lat="43.28456" lon="-2.10895">
        <ele>76</ele>
        <time>2021-05-29 11:42:07</time>
      </trkpt>
      <trkpt lat="43.28455" lon="-2.10911">
        <ele>74.8</ele>
        <time>2021-05-29 11:42:08</time>
      </trkpt>
      <trkpt lat="43.28456" lon="-2.10927">
        <ele>73</ele>
        <time>2021-05-29 11:42:09</time>
      </trkpt>
      <trkpt lat="43.28459" lon="-2.10941">
        <ele>71.4</ele>
        <time>2021-05-29 11:42:10</time>
      </trkpt>
      <trkpt lat="43.28464" lon="-2.10954">
        <ele>70.4</ele>
        <time>2021-05-29 11:42:11</time>
      </trkpt>
      <trkpt lat="43.2847" lon="-2.10966">
        <ele>69.4</ele>
        <time>2021-05-29 11:42:12</time>
      </trkpt>
      <trkpt lat="43.28476" lon="-2.1098">
        <ele>68.2</ele>
        <time>2021-05-29 11:42:13</time>
      </trkpt>
      <trkpt lat="43.28479" lon="-2.10994">
        <ele>67.2</ele>
        <time>2021-05-29 11:42:14</time>
      </trkpt>
      <trkpt lat="43.2848" lon="-2.1101">
        <ele>66</ele>
        <time>2021-05-29 11:42:15</time>
      </trkpt>
      <trkpt lat="43.28478" lon="-2.11026">
        <ele>65.8</ele>
        <time>2021-05-29 11:42:16</time>
      </trkpt>
      <trkpt lat="43.28474" lon="-2.11042">
        <ele>65</ele>
        <time>2021-05-29 11:42:17</time>
      </trkpt>
      <trkpt lat="43.28469" lon="-2.11058">
        <ele>64.8</ele>
        <time>2021-05-29 11:42:18</time>
      </trkpt>
      <trkpt lat="43.28463" lon="-2.11072">
        <ele>64.6</ele>
        <time>2021-05-29 11:42:19</time>
      </trkpt>
      <trkpt lat="43.28455" lon="-2.11086">
        <ele>63.6</ele>
        <time>2021-05-29 11:42:20</time>
      </trkpt>
      <trkpt lat="43.28446" lon="-2.11098">
        <ele>63</ele>
        <time>2021-05-29 11:42:21</time>
      </trkpt>
      <trkpt lat="43.28435" lon="-2.11108">
        <ele>62.6</ele>
        <time>2021-05-29 11:42:22</time>
      </trkpt>
      <trkpt lat="43.28423" lon="-2.11117">
        <ele>61.6</ele>
        <time>2021-05-29 11:42:23</time>
      </trkpt>
      <trkpt lat="43.28411" lon="-2.11123">
        <ele>61.2</ele>
        <time>2021-05-29 11:42:24</time>
      </trkpt>
      <trkpt lat="43.28398" lon="-2.11127">
        <ele>60.8</ele>
        <time>2021-05-29 11:42:25</time>
      </trkpt>
      <trkpt lat="43.28385" lon="-2.11129">
        <ele>60.6</ele>
        <time>2021-05-29 11:42:26</time>
      </trkpt>
      <trkpt lat="43.28371" lon="-2.11128">
        <ele>60.2</ele>
        <time>2021-05-29 11:42:27</time>
      </trkpt>
      <trkpt lat="43.28357" lon="-2.11128">
        <ele>60</ele>
        <time>2021-05-29 11:42:28</time>
      </trkpt>
      <trkpt lat="43.28344" lon="-2.11128">
        <ele>59.6</ele>
        <time>2021-05-29 11:42:29</time>
      </trkpt>
      <trkpt lat="43.2833" lon="-2.11129">
        <ele>59.4</ele>
        <time>2021-05-29 11:42:30</time>
      </trkpt>
      <trkpt lat="43.28316" lon="-2.1113">
        <ele>58.6</ele>
        <time>2021-05-29 11:42:31</time>
      </trkpt>
      <trkpt lat="43.28302" lon="-2.11133">
        <ele>57</ele>
        <time>2021-05-29 11:42:32</time>
      </trkpt>
      <trkpt lat="43.28289" lon="-2.11139">
        <ele>55.6</ele>
        <time>2021-05-29 11:42:33</time>
      </trkpt>
      <trkpt lat="43.28278" lon="-2.11148">
        <ele>54.8</ele>
        <time>2021-05-29 11:42:34</time>
      </trkpt>
      <trkpt lat="43.28267" lon="-2.11158">
        <ele>53.8</ele>
        <time>2021-05-29 11:42:35</time>
      </trkpt>
      <trkpt lat="43.28258" lon="-2.11167">
        <ele>52.8</ele>
        <time>2021-05-29 11:42:36</time>
      </trkpt>
      <trkpt lat="43.28249" lon="-2.11177">
        <ele>52.2</ele>
        <time>2021-05-29 11:42:37</time>
      </trkpt>
      <trkpt lat="43.28243" lon="-2.11188">
        <ele>51.6</ele>
        <time>2021-05-29 11:42:38</time>
      </trkpt>
      <trkpt lat="43.28238" lon="-2.112">
        <ele>50.4</ele>
        <time>2021-05-29 11:42:39</time>
      </trkpt>
      <trkpt lat="43.28233" lon="-2.1121">
        <ele>49</ele>
        <time>2021-05-29 11:42:40</time>
      </trkpt>
      <trkpt lat="43.28226" lon="-2.11216">
        <ele>48</ele>
        <time>2021-05-29 11:42:41</time>
      </trkpt>
      <trkpt lat="43.28218" lon="-2.11216">
        <ele>46.6</ele>
        <time>2021-05-29 11:42:42</time>
      </trkpt>
      <trkpt lat="43.28212" lon="-2.11212">
        <ele>45.6</ele>
        <time>2021-05-29 11:42:43</time>
      </trkpt>
      <trkpt lat="43.28207" lon="-2.11205">
        <ele>44.4</ele>
        <time>2021-05-29 11:42:44</time>
      </trkpt>
      <trkpt lat="43.28205" lon="-2.11195">
        <ele>43</ele>
        <time>2021-05-29 11:42:45</time>
      </trkpt>
      <trkpt lat="43.28206" lon="-2.11186">
        <ele>41.8</ele>
        <time>2021-05-29 11:42:46</time>
      </trkpt>
      <trkpt lat="43.2821" lon="-2.11178">
        <ele>41</ele>
        <time>2021-05-29 11:42:47</time>
      </trkpt>
      <trkpt lat="43.28216" lon="-2.11172">
        <ele>40.4</ele>
        <time>2021-05-29 11:42:48</time>
      </trkpt>
      <trkpt lat="43.28222" lon="-2.11172">
        <ele>39.8</ele>
        <time>2021-05-29 11:42:49</time>
      </trkpt>
      <trkpt lat="43.28227" lon="-2.11174">
        <ele>39.6</ele>
        <time>2021-05-29 11:42:50</time>
      </trkpt>
      <trkpt lat="43.28232" lon="-2.11179">
        <ele>39.6</ele>
        <time>2021-05-29 11:42:51</time>
      </trkpt>
      <trkpt lat="43.28236" lon="-2.11186">
        <ele>39.6</ele>
        <time>2021-05-29 11:42:52</time>
      </trkpt>
      <trkpt lat="43.28238" lon="-2.11193">
        <ele>39.6</ele>
        <time>2021-05-29 11:42:53</time>
      </trkpt>
      <trkpt lat="43.28239" lon="-2.11199">
        <ele>39.6</ele>
        <time>2021-05-29 11:42:54</time>
      </trkpt>
      <trkpt lat="43.28238" lon="-2.11205">
        <ele>39.6</ele>
        <time>2021-05-29 11:42:55</time>
      </trkpt>
      <trkpt lat="43.28238" lon="-2.11209">
        <ele>39.4</ele>
        <time>2021-05-29 11:42:56</time>
      </trkpt>
      <trkpt lat="43.28237" lon="-2.11213">
        <ele>39.4</ele>
        <time>2021-05-29 11:42:57</time>
      </trkpt>
      <trkpt lat="43.28236" lon="-2.11218">
        <ele>39.4</ele>
        <time>2021-05-29 11:42:58</time>
      </trkpt>
      <trkpt lat="43.28235" lon="-2.11223">
        <ele>39.4</ele>
        <time>2021-05-29 11:42:59</time>
      </trkpt>
      <trkpt lat="43.28235" lon="-2.11227">
        <ele>39.4</ele>
        <time>2021-05-29 11:43:00</time>
      </trkpt>
      <trkpt lat="43.28236" lon="-2.1123">
        <ele>39.4</ele>
        <time>2021-05-29 11:43:01</time>
      </trkpt>
      <trkpt lat="43.28236" lon="-2.11231">
        <ele>39.4</ele>
        <time>2021-05-29 11:43:02</time>
      </trkpt>
      <trkpt lat="43.28236" lon="-2.11232">
        <ele>39.4</ele>
        <time>2021-05-29 11:43:03</time>
      </trkpt>
      <trkpt lat="43.28235" lon="-2.1122">
        <ele>39.2</ele>
        <time>2021-05-29 11:43:13</time>
      </trkpt>
      <trkpt lat="43.28236" lon="-2.11218">
        <ele>39.2</ele>
        <time>2021-05-29 11:43:14</time>
      </trkpt>
      <trkpt lat="43.28236" lon="-2.11218">
        <ele>39.2</ele>
        <time>2021-05-29 11:43:15</time>
      </trkpt>
      <trkpt lat="43.28236" lon="-2.11218">
        <ele>39.2</ele>
        <time>2021-05-29 11:43:16</time>
      </trkpt>
      <trkpt lat="43.28235" lon="-2.1122">
        <ele>39.4</ele>
        <time>2021-05-29 11:44:02</time>
      </trkpt>
      <trkpt lat="43.28234" lon="-2.11222">
        <ele>39.4</ele>
        <time>2021-05-29 11:44:03</time>
      </trkpt>
      <trkpt lat="43.28234" lon="-2.11225">
        <ele>39.4</ele>
        <time>2021-05-29 11:44:04</time>
      </trkpt>
      <trkpt lat="43.28233" lon="-2.11228">
        <ele>39.4</ele>
        <time>2021-05-29 11:44:05</time>
      </trkpt>
      <trkpt lat="43.28233" lon="-2.1123">
        <ele>39.4</ele>
        <time>2021-05-29 11:44:06</time>
      </trkpt>
      <trkpt lat="43.28234" lon="-2.11232">
        <ele>39.4</ele>
        <time>2021-05-29 11:44:07</time>
      </trkpt>
      <trkpt lat="43.28234" lon="-2.11234">
        <ele>39.4</ele>
        <time>2021-05-29 11:44:08</time>
      </trkpt>
      <trkpt lat="43.28235" lon="-2.11235">
        <ele>39.4</ele>
        <time>2021-05-29 11:44:09</time>
      </trkpt>
      <trkpt lat="43.28235" lon="-2.11235">
        <ele>39.2</ele>
        <time>2021-05-29 11:44:10</time>
      </trkpt>
      <trkpt lat="43.28235" lon="-2.11235">
        <ele>39.2</ele>
        <time>2021-05-29 11:44:11</time>
      </trkpt>
      <trkpt lat="43.28228" lon="-2.11233">
        <ele>39.6</ele>
        <time>2021-05-29 11:44:54</time>
      </trkpt>
      <trkpt lat="43.28224" lon="-2.11231">
        <ele>39.6</ele>
        <time>2021-05-29 11:44:55</time>
      </trkpt>
      <trkpt lat="43.28219" lon="-2.11229">
        <ele>39.6</ele>
        <time>2021-05-29 11:44:56</time>
      </trkpt>
      <trkpt lat="43.28212" lon="-2.1123">
        <ele>39.6</ele>
        <time>2021-05-29 11:44:57</time>
      </trkpt>
      <trkpt lat="43.28205" lon="-2.11233">
        <ele>39.6</ele>
        <time>2021-05-29 11:44:58</time>
      </trkpt>
      <trkpt lat="43.28198" lon="-2.11238">
        <ele>39.6</ele>
        <time>2021-05-29 11:44:59</time>
      </trkpt>
      <trkpt lat="43.28192" lon="-2.11245">
        <ele>39.6</ele>
        <time>2021-05-29 11:45:00</time>
      </trkpt>
      <trkpt lat="43.28188" lon="-2.11254">
        <ele>39.4</ele>
        <time>2021-05-29 11:45:01</time>
      </trkpt>
      <trkpt lat="43.28184" lon="-2.11265">
        <ele>39.4</ele>
        <time>2021-05-29 11:45:02</time>
      </trkpt>
      <trkpt lat="43.28181" lon="-2.11277">
        <ele>39.2</ele>
        <time>2021-05-29 11:45:03</time>
      </trkpt>
      <trkpt lat="43.28178" lon="-2.11289">
        <ele>39</ele>
        <time>2021-05-29 11:45:04</time>
      </trkpt>
      <trkpt lat="43.28174" lon="-2.11302">
        <ele>38.8</ele>
        <time>2021-05-29 11:45:05</time>
      </trkpt>
      <trkpt lat="43.2817" lon="-2.11315">
        <ele>38.6</ele>
        <time>2021-05-29 11:45:06</time>
      </trkpt>
      <trkpt lat="43.28165" lon="-2.11329">
        <ele>38.4</ele>
        <time>2021-05-29 11:45:07</time>
      </trkpt>
      <trkpt lat="43.2816" lon="-2.11342">
        <ele>37.6</ele>
        <time>2021-05-29 11:45:08</time>
      </trkpt>
      <trkpt lat="43.28155" lon="-2.11357">
        <ele>37.2</ele>
        <time>2021-05-29 11:45:09</time>
      </trkpt>
      <trkpt lat="43.28149" lon="-2.11371">
        <ele>36.8</ele>
        <time>2021-05-29 11:45:10</time>
      </trkpt>
      <trkpt lat="43.28144" lon="-2.11386">
        <ele>36</ele>
        <time>2021-05-29 11:45:11</time>
      </trkpt>
      <trkpt lat="43.28138" lon="-2.114">
        <ele>35.6</ele>
        <time>2021-05-29 11:45:12</time>
      </trkpt>
      <trkpt lat="43.28132" lon="-2.11414">
        <ele>35</ele>
        <time>2021-05-29 11:45:13</time>
      </trkpt>
      <trkpt lat="43.28126" lon="-2.11428">
        <ele>34.2</ele>
        <time>2021-05-29 11:45:14</time>
      </trkpt>
      <trkpt lat="43.28119" lon="-2.11442">
        <ele>33.6</ele>
        <time>2021-05-29 11:45:15</time>
      </trkpt>
      <trkpt lat="43.28108" lon="-2.11458">
        <ele>32.8</ele>
        <time>2021-05-29 11:45:16</time>
      </trkpt>
      <trkpt lat="43.28097" lon="-2.1146">
        <ele>32</ele>
        <time>2021-05-29 11:45:17</time>
      </trkpt>
      <trkpt lat="43.28086" lon="-2.11467">
        <ele>31</ele>
        <time>2021-05-29 11:45:18</time>
      </trkpt>
      <trkpt lat="43.28072" lon="-2.1147">
        <ele>30.2</ele>
        <time>2021-05-29 11:45:19</time>
      </trkpt>
      <trkpt lat="43.28057" lon="-2.11471">
        <ele>29.6</ele>
        <time>2021-05-29 11:45:20</time>
      </trkpt>
      <trkpt lat="43.28042" lon="-2.11469">
        <ele>28.8</ele>
        <time>2021-05-29 11:45:21</time>
      </trkpt>
      <trkpt lat="43.28026" lon="-2.11465">
        <ele>28.4</ele>
        <time>2021-05-29 11:45:22</time>
      </trkpt>
      <trkpt lat="43.28012" lon="-2.11461">
        <ele>27.6</ele>
        <time>2021-05-29 11:45:23</time>
      </trkpt>
      <trkpt lat="43.27997" lon="-2.11457">
        <ele>27.2</ele>
        <time>2021-05-29 11:45:24</time>
      </trkpt>
      <trkpt lat="43.27983" lon="-2.11453">
        <ele>26.8</ele>
        <time>2021-05-29 11:45:25</time>
      </trkpt>
      <trkpt lat="43.27969" lon="-2.11449">
        <ele>26.2</ele>
        <time>2021-05-29 11:45:26</time>
      </trkpt>
      <trkpt lat="43.27956" lon="-2.11444">
        <ele>25.4</ele>
        <time>2021-05-29 11:45:27</time>
      </trkpt>
      <trkpt lat="43.27942" lon="-2.11438">
        <ele>24.4</ele>
        <time>2021-05-29 11:45:28</time>
      </trkpt>
      <trkpt lat="43.27929" lon="-2.11429">
        <ele>23.2</ele>
        <time>2021-05-29 11:45:29</time>
      </trkpt>
      <trkpt lat="43.27917" lon="-2.11419">
        <ele>22</ele>
        <time>2021-05-29 11:45:30</time>
      </trkpt>
      <trkpt lat="43.27904" lon="-2.11409">
        <ele>20.6</ele>
        <time>2021-05-29 11:45:31</time>
      </trkpt>
      <trkpt lat="43.27893" lon="-2.114">
        <ele>19.2</ele>
        <time>2021-05-29 11:45:32</time>
      </trkpt>
      <trkpt lat="43.27883" lon="-2.11389">
        <ele>18</ele>
        <time>2021-05-29 11:45:33</time>
      </trkpt>
      <trkpt lat="43.27874" lon="-2.11375">
        <ele>16.6</ele>
        <time>2021-05-29 11:45:34</time>
      </trkpt>
      <trkpt lat="43.27866" lon="-2.1136">
        <ele>15.4</ele>
        <time>2021-05-29 11:45:35</time>
      </trkpt>
      <trkpt lat="43.2786" lon="-2.11343">
        <ele>14</ele>
        <time>2021-05-29 11:45:36</time>
      </trkpt>
      <trkpt lat="43.27853" lon="-2.11327">
        <ele>12.8</ele>
        <time>2021-05-29 11:45:37</time>
      </trkpt>
      <trkpt lat="43.27847" lon="-2.11313">
        <ele>11.8</ele>
        <time>2021-05-29 11:45:38</time>
      </trkpt>
      <trkpt lat="43.27839" lon="-2.11301">
        <ele>10.4</ele>
        <time>2021-05-29 11:45:39</time>
      </trkpt>
      <trkpt lat="43.27829" lon="-2.11292">
        <ele>9.2</ele>
        <time>2021-05-29 11:45:40</time>
      </trkpt>
      <trkpt lat="43.27816" lon="-2.11288">
        <ele>7.8</ele>
        <time>2021-05-29 11:45:41</time>
      </trkpt>
      <trkpt lat="43.27803" lon="-2.11288">
        <ele>6.2</ele>
        <time>2021-05-29 11:45:42</time>
      </trkpt>
      <trkpt lat="43.27789" lon="-2.11292">
        <ele>5.2</ele>
        <time>2021-05-29 11:45:43</time>
      </trkpt>
      <trkpt lat="43.27776" lon="-2.11297">
        <ele>4.2</ele>
        <time>2021-05-29 11:45:44</time>
      </trkpt>
      <trkpt lat="43.27763" lon="-2.11303">
        <ele>3</ele>
        <time>2021-05-29 11:45:45</time>
      </trkpt>
      <trkpt lat="43.27752" lon="-2.11308">
        <ele>2</ele>
        <time>2021-05-29 11:45:46</time>
      </trkpt>
      <trkpt lat="43.27741" lon="-2.11312">
        <ele>1</ele>
        <time>2021-05-29 11:45:47</time>
      </trkpt>
      <trkpt lat="43.2773" lon="-2.11316">
        <time>2021-05-29 11:45:48</time>
      </trkpt>
      <trkpt lat="43.27719" lon="-2.1132">
        <ele>-1</ele>
        <time>2021-05-29 11:45:49</time>
      </trkpt>
      <trkpt lat="43.27708" lon="-2.11325">
        <ele>-2.2</ele>
        <time>2021-05-29 11:45:50</time>
      </trkpt>
      <trkpt lat="43.27698" lon="-2.11332">
        <ele>-3.2</ele>
        <time>2021-05-29 11:45:51</time>
      </trkpt>
      <trkpt lat="43.27691" lon="-2.11343">
        <ele>-4.4</ele>
        <time>2021-05-29 11:45:52</time>
      </trkpt>
      <trkpt lat="43.27686" lon="-2.11357">
        <ele>-5.8</ele>
        <time>2021-05-29 11:45:53</time>
      </trkpt>
      <trkpt lat="43.27681" lon="-2.11371">
        <ele>-7.2</ele>
        <time>2021-05-29 11:45:54</time>
      </trkpt>
      <trkpt lat="43.2768" lon="-2.11386">
        <ele>-8.2</ele>
        <time>2021-05-29 11:45:55</time>
      </trkpt>
      <trkpt lat="43.27679" lon="-2.11402">
        <ele>-9.6</ele>
        <time>2021-05-29 11:45:56</time>
      </trkpt>
      <trkpt lat="43.2768" lon="-2.11417">
        <ele>-10.8</ele>
        <time>2021-05-29 11:45:57</time>
      </trkpt>
      <trkpt lat="43.27682" lon="-2.11434">
        <ele>-11.8</ele>
        <time>2021-05-29 11:45:58</time>
      </trkpt>
      <trkpt lat="43.27683" lon="-2.1145">
        <ele>-12.4</ele>
        <time>2021-05-29 11:45:59</time>
      </trkpt>
      <trkpt lat="43.27686" lon="-2.11465">
        <ele>-13.2</ele>
        <time>2021-05-29 11:46:00</time>
      </trkpt>
      <trkpt lat="43.27689" lon="-2.1148">
        <ele>-13.6</ele>
        <time>2021-05-29 11:46:01</time>
      </trkpt>
      <trkpt lat="43.27694" lon="-2.11495">
        <ele>-14</ele>
        <time>2021-05-29 11:46:02</time>
      </trkpt>
      <trkpt lat="43.27699" lon="-2.11509">
        <ele>-14.2</ele>
        <time>2021-05-29 11:46:03</time>
      </trkpt>
      <trkpt lat="43.27705" lon="-2.11522">
        <ele>-14.6</ele>
        <time>2021-05-29 11:46:04</time>
      </trkpt>
      <trkpt lat="43.27712" lon="-2.11536">
        <ele>-15</ele>
        <time>2021-05-29 11:46:05</time>
      </trkpt>
      <trkpt lat="43.27717" lon="-2.11549">
        <ele>-15.4</ele>
        <time>2021-05-29 11:46:06</time>
      </trkpt>
      <trkpt lat="43.27723" lon="-2.11563">
        <ele>-15.4</ele>
        <time>2021-05-29 11:46:07</time>
      </trkpt>
      <trkpt lat="43.27728" lon="-2.11577">
        <ele>-15.6</ele>
        <time>2021-05-29 11:46:08</time>
      </trkpt>
      <trkpt lat="43.27732" lon="-2.11591">
        <ele>-15.6</ele>
        <time>2021-05-29 11:46:09</time>
      </trkpt>
      <trkpt lat="43.27735" lon="-2.11606">
        <ele>-15.8</ele>
        <time>2021-05-29 11:46:10</time>
      </trkpt>
      <trkpt lat="43.27738" lon="-2.1162">
        <ele>-15.8</ele>
        <time>2021-05-29 11:46:11</time>
      </trkpt>
      <trkpt lat="43.2774" lon="-2.11635">
        <ele>-16</ele>
        <time>2021-05-29 11:46:12</time>
      </trkpt>
      <trkpt lat="43.27742" lon="-2.11649">
        <ele>-16</ele>
        <time>2021-05-29 11:46:13</time>
      </trkpt>
      <trkpt lat="43.27726" lon="-2.11726">
        <ele>-16.4</ele>
        <time>2021-05-29 11:46:18</time>
      </trkpt>
      <trkpt lat="43.27721" lon="-2.1174">
        <ele>-16.4</ele>
        <time>2021-05-29 11:46:19</time>
      </trkpt>
      <trkpt lat="43.27715" lon="-2.11753">
        <ele>-16.4</ele>
        <time>2021-05-29 11:46:20</time>
      </trkpt>
      <trkpt lat="43.27709" lon="-2.11767">
        <ele>-16.4</ele>
        <time>2021-05-29 11:46:21</time>
      </trkpt>
      <trkpt lat="43.27704" lon="-2.1178">
        <ele>-16.4</ele>
        <time>2021-05-29 11:46:22</time>
      </trkpt>
      <trkpt lat="43.27699" lon="-2.11793">
        <ele>-16.4</ele>
        <time>2021-05-29 11:46:23</time>
      </trkpt>
      <trkpt lat="43.27694" lon="-2.11806">
        <ele>-16.6</ele>
        <time>2021-05-29 11:46:24</time>
      </trkpt>
      <trkpt lat="43.27689" lon="-2.11819">
        <ele>-16.6</ele>
        <time>2021-05-29 11:46:25</time>
      </trkpt>
      <trkpt lat="43.27684" lon="-2.11832">
        <ele>-16.6</ele>
        <time>2021-05-29 11:46:26</time>
      </trkpt>
      <trkpt lat="43.27679" lon="-2.11845">
        <ele>-16.6</ele>
        <time>2021-05-29 11:46:27</time>
      </trkpt>
      <trkpt lat="43.27673" lon="-2.11857">
        <ele>-16.6</ele>
        <time>2021-05-29 11:46:28</time>
      </trkpt>
      <trkpt lat="43.27668" lon="-2.11868">
        <ele>-16.6</ele>
        <time>2021-05-29 11:46:29</time>
      </trkpt>
      <trkpt lat="43.27663" lon="-2.11879">
        <ele>-16.6</ele>
        <time>2021-05-29 11:46:30</time>
      </trkpt>
      <trkpt lat="43.27659" lon="-2.1189">
        <ele>-16.6</ele>
        <time>2021-05-29 11:46:31</time>
      </trkpt>
      <trkpt lat="43.27654" lon="-2.11902">
        <ele>-16.6</ele>
        <time>2021-05-29 11:46:32</time>
      </trkpt>
      <trkpt lat="43.27651" lon="-2.11913">
        <ele>-16.6</ele>
        <time>2021-05-29 11:46:33</time>
      </trkpt>
      <trkpt lat="43.27649" lon="-2.11925">
        <ele>-16.6</ele>
        <time>2021-05-29 11:46:34</time>
      </trkpt>
      <trkpt lat="43.27647" lon="-2.11938">
        <ele>-16.4</ele>
        <time>2021-05-29 11:46:35</time>
      </trkpt>
      <trkpt lat="43.27645" lon="-2.1195">
        <ele>-16.6</ele>
        <time>2021-05-29 11:46:36</time>
      </trkpt>
      <trkpt lat="43.27644" lon="-2.11963">
        <ele>-16.4</ele>
        <time>2021-05-29 11:46:37</time>
      </trkpt>
      <trkpt lat="43.27644" lon="-2.11976">
        <ele>-16.4</ele>
        <time>2021-05-29 11:46:38</time>
      </trkpt>
      <trkpt lat="43.27645" lon="-2.1199">
        <ele>-16.4</ele>
        <time>2021-05-29 11:46:39</time>
      </trkpt>
      <trkpt lat="43.27645" lon="-2.12003">
        <ele>-16.4</ele>
        <time>2021-05-29 11:46:40</time>
      </trkpt>
      <trkpt lat="43.27646" lon="-2.12017">
        <ele>-16.6</ele>
        <time>2021-05-29 11:46:41</time>
      </trkpt>
      <trkpt lat="43.27645" lon="-2.12028">
        <ele>-16.4</ele>
        <time>2021-05-29 11:46:42</time>
      </trkpt>
      <trkpt lat="43.27645" lon="-2.1204">
        <ele>-16.4</ele>
        <time>2021-05-29 11:46:43</time>
      </trkpt>
      <trkpt lat="43.27646" lon="-2.12052">
        <ele>-16.4</ele>
        <time>2021-05-29 11:46:44</time>
      </trkpt>
      <trkpt lat="43.27648" lon="-2.12064">
        <ele>-16.2</ele>
        <time>2021-05-29 11:46:45</time>
      </trkpt>
      <trkpt lat="43.2765" lon="-2.12076">
        <ele>-16.2</ele>
        <time>2021-05-29 11:46:46</time>
      </trkpt>
      <trkpt lat="43.27654" lon="-2.12087">
        <ele>-16.2</ele>
        <time>2021-05-29 11:46:47</time>
      </trkpt>
      <trkpt lat="43.27658" lon="-2.12099">
        <ele>-16.2</ele>
        <time>2021-05-29 11:46:48</time>
      </trkpt>
      <trkpt lat="43.27663" lon="-2.1211">
        <ele>-16.2</ele>
        <time>2021-05-29 11:46:49</time>
      </trkpt>
      <trkpt lat="43.27668" lon="-2.12121">
        <ele>-16.2</ele>
        <time>2021-05-29 11:46:50</time>
      </trkpt>
      <trkpt lat="43.27673" lon="-2.12132">
        <ele>-16</ele>
        <time>2021-05-29 11:46:51</time>
      </trkpt>
      <trkpt lat="43.27677" lon="-2.12143">
        <ele>-16</ele>
        <time>2021-05-29 11:46:52</time>
      </trkpt>
      <trkpt lat="43.27682" lon="-2.12154">
        <ele>-16</ele>
        <time>2021-05-29 11:46:53</time>
      </trkpt>
      <trkpt lat="43.27686" lon="-2.12165">
        <ele>-16</ele>
        <time>2021-05-29 11:46:54</time>
      </trkpt>
      <trkpt lat="43.2769" lon="-2.12177">
        <ele>-16</ele>
        <time>2021-05-29 11:46:55</time>
      </trkpt>
      <trkpt lat="43.27694" lon="-2.12189">
        <ele>-15.8</ele>
        <time>2021-05-29 11:46:56</time>
      </trkpt>
      <trkpt lat="43.27698" lon="-2.122">
        <ele>-15.8</ele>
        <time>2021-05-29 11:46:57</time>
      </trkpt>
      <trkpt lat="43.27701" lon="-2.12213">
        <ele>-15.8</ele>
        <time>2021-05-29 11:46:58</time>
      </trkpt>
      <trkpt lat="43.27704" lon="-2.12224">
        <ele>-15.8</ele>
        <time>2021-05-29 11:46:59</time>
      </trkpt>
      <trkpt lat="43.27706" lon="-2.12236">
        <ele>-15.6</ele>
        <time>2021-05-29 11:47:00</time>
      </trkpt>
      <trkpt lat="43.27708" lon="-2.12248">
        <ele>-15.6</ele>
        <time>2021-05-29 11:47:01</time>
      </trkpt>
      <trkpt lat="43.27709" lon="-2.12259">
        <ele>-15.6</ele>
        <time>2021-05-29 11:47:02</time>
      </trkpt>
      <trkpt lat="43.2771" lon="-2.12271">
        <ele>-15.6</ele>
        <time>2021-05-29 11:47:03</time>
      </trkpt>
      <trkpt lat="43.2771" lon="-2.12283">
        <ele>-15.6</ele>
        <time>2021-05-29 11:47:04</time>
      </trkpt>
      <trkpt lat="43.27711" lon="-2.12293">
        <ele>-15.6</ele>
        <time>2021-05-29 11:47:05</time>
      </trkpt>
      <trkpt lat="43.27712" lon="-2.12303">
        <ele>-15.6</ele>
        <time>2021-05-29 11:47:06</time>
      </trkpt>
      <trkpt lat="43.27713" lon="-2.12313">
        <ele>-15.6</ele>
        <time>2021-05-29 11:47:07</time>
      </trkpt>
      <trkpt lat="43.27713" lon="-2.12322">
        <ele>-15.6</ele>
        <time>2021-05-29 11:47:08</time>
      </trkpt>
      <trkpt lat="43.27714" lon="-2.12331">
        <ele>-15.6</ele>
        <time>2021-05-29 11:47:09</time>
      </trkpt>
      <trkpt lat="43.27715" lon="-2.1234">
        <ele>-15.6</ele>
        <time>2021-05-29 11:47:10</time>
      </trkpt>
      <trkpt lat="43.27715" lon="-2.12347">
        <ele>-15.6</ele>
        <time>2021-05-29 11:47:11</time>
      </trkpt>
      <trkpt lat="43.27716" lon="-2.12354">
        <ele>-15.6</ele>
        <time>2021-05-29 11:47:12</time>
      </trkpt>
      <trkpt lat="43.27715" lon="-2.12362">
        <ele>-15.6</ele>
        <time>2021-05-29 11:47:13</time>
      </trkpt>
      <trkpt lat="43.27716" lon="-2.12369">
        <ele>-15.6</ele>
        <time>2021-05-29 11:47:14</time>
      </trkpt>
      <trkpt lat="43.27716" lon="-2.12377">
        <ele>-15.6</ele>
        <time>2021-05-29 11:47:15</time>
      </trkpt>
      <trkpt lat="43.27715" lon="-2.12383">
        <ele>-15.6</ele>
        <time>2021-05-29 11:47:16</time>
      </trkpt>
      <trkpt lat="43.27714" lon="-2.12389">
        <ele>-15.8</ele>
        <time>2021-05-29 11:47:17</time>
      </trkpt>
      <trkpt lat="43.27712" lon="-2.12394">
        <ele>-15.8</ele>
        <time>2021-05-29 11:47:18</time>
      </trkpt>
      <trkpt lat="43.27711" lon="-2.124">
        <ele>-15.8</ele>
        <time>2021-05-29 11:47:19</time>
      </trkpt>
      <trkpt lat="43.2771" lon="-2.12405">
        <ele>-15.8</ele>
        <time>2021-05-29 11:47:20</time>
      </trkpt>
      <trkpt lat="43.27708" lon="-2.12411">
        <ele>-16</ele>
        <time>2021-05-29 11:47:21</time>
      </trkpt>
      <trkpt lat="43.27706" lon="-2.12416">
        <ele>-16</ele>
        <time>2021-05-29 11:47:22</time>
      </trkpt>
      <trkpt lat="43.27704" lon="-2.12421">
        <ele>-16</ele>
        <time>2021-05-29 11:47:23</time>
      </trkpt>
      <trkpt lat="43.27701" lon="-2.12429">
        <ele>-16</ele>
        <time>2021-05-29 11:47:24</time>
      </trkpt>
      <trkpt lat="43.27699" lon="-2.12433">
        <ele>-16</ele>
        <time>2021-05-29 11:47:25</time>
      </trkpt>
      <trkpt lat="43.27697" lon="-2.12438">
        <ele>-16.2</ele>
        <time>2021-05-29 11:47:26</time>
      </trkpt>
      <trkpt lat="43.27694" lon="-2.12442">
        <ele>-16.2</ele>
        <time>2021-05-29 11:47:27</time>
      </trkpt>
      <trkpt lat="43.27691" lon="-2.12446">
        <ele>-16.2</ele>
        <time>2021-05-29 11:47:28</time>
      </trkpt>
      <trkpt lat="43.27689" lon="-2.1245">
        <ele>-16.2</ele>
        <time>2021-05-29 11:47:29</time>
      </trkpt>
      <trkpt lat="43.27685" lon="-2.12453">
        <ele>-16.4</ele>
        <time>2021-05-29 11:47:30</time>
      </trkpt>
      <trkpt lat="43.27683" lon="-2.12458">
        <ele>-16.4</ele>
        <time>2021-05-29 11:47:31</time>
      </trkpt>
      <trkpt lat="43.27681" lon="-2.12462">
        <ele>-16.4</ele>
        <time>2021-05-29 11:47:32</time>
      </trkpt>
      <trkpt lat="43.27678" lon="-2.12467">
        <ele>-16.6</ele>
        <time>2021-05-29 11:47:33</time>
      </trkpt>
      <trkpt lat="43.27676" lon="-2.1247">
        <ele>-16.6</ele>
        <time>2021-05-29 11:47:34</time>
      </trkpt>
      <trkpt lat="43.27674" lon="-2.12474">
        <ele>-16.6</ele>
        <time>2021-05-29 11:47:35</time>
      </trkpt>
      <trkpt lat="43.27673" lon="-2.12477">
        <ele>-16.6</ele>
        <time>2021-05-29 11:47:36</time>
      </trkpt>
      <trkpt lat="43.27671" lon="-2.1248">
        <ele>-16.6</ele>
        <time>2021-05-29 11:47:37</time>
      </trkpt>
      <trkpt lat="43.2767" lon="-2.12483">
        <ele>-16.6</ele>
        <time>2021-05-29 11:47:38</time>
      </trkpt>
      <trkpt lat="43.27669" lon="-2.12486">
        <ele>-16.6</ele>
        <time>2021-05-29 11:47:39</time>
      </trkpt>
      <trkpt lat="43.27666" lon="-2.1249">
        <ele>-16.6</ele>
        <time>2021-05-29 11:47:40</time>
      </trkpt>
      <trkpt lat="43.27664" lon="-2.12496">
        <ele>-16.6</ele>
        <time>2021-05-29 11:47:41</time>
      </trkpt>
      <trkpt lat="43.2766" lon="-2.125">
        <ele>-16.6</ele>
        <time>2021-05-29 11:47:42</time>
      </trkpt>
      <trkpt lat="43.27658" lon="-2.12507">
        <ele>-16.6</ele>
        <time>2021-05-29 11:47:43</time>
      </trkpt>
      <trkpt lat="43.27655" lon="-2.12514">
        <ele>-16.6</ele>
        <time>2021-05-29 11:47:44</time>
      </trkpt>
      <trkpt lat="43.27651" lon="-2.1252">
        <ele>-16.6</ele>
        <time>2021-05-29 11:47:45</time>
      </trkpt>
      <trkpt lat="43.27647" lon="-2.12527">
        <ele>-16.6</ele>
        <time>2021-05-29 11:47:46</time>
      </trkpt>
      <trkpt lat="43.27643" lon="-2.12533">
        <ele>-16.6</ele>
        <time>2021-05-29 11:47:47</time>
      </trkpt>
      <trkpt lat="43.2764" lon="-2.1254">
        <ele>-16.6</ele>
        <time>2021-05-29 11:47:48</time>
      </trkpt>
      <trkpt lat="43.27636" lon="-2.12547">
        <ele>-16.6</ele>
        <time>2021-05-29 11:47:49</time>
      </trkpt>
      <trkpt lat="43.27633" lon="-2.12554">
        <ele>-16.6</ele>
        <time>2021-05-29 11:47:50</time>
      </trkpt>
      <trkpt lat="43.2763" lon="-2.1256">
        <ele>-16.6</ele>
        <time>2021-05-29 11:47:51</time>
      </trkpt>
      <trkpt lat="43.27626" lon="-2.12567">
        <ele>-16.4</ele>
        <time>2021-05-29 11:47:52</time>
      </trkpt>
      <trkpt lat="43.2762" lon="-2.1257">
        <ele>-16.4</ele>
        <time>2021-05-29 11:47:53</time>
      </trkpt>
      <trkpt lat="43.27615" lon="-2.12575">
        <ele>-16.4</ele>
        <time>2021-05-29 11:47:54</time>
      </trkpt>
      <trkpt lat="43.27611" lon="-2.12579">
        <ele>-16.4</ele>
        <time>2021-05-29 11:47:55</time>
      </trkpt>
      <trkpt lat="43.27605" lon="-2.12582">
        <ele>-16.2</ele>
        <time>2021-05-29 11:47:56</time>
      </trkpt>
      <trkpt lat="43.27599" lon="-2.12583">
        <ele>-16.2</ele>
        <time>2021-05-29 11:47:57</time>
      </trkpt>
      <trkpt lat="43.27593" lon="-2.12582">
        <ele>-16.2</ele>
        <time>2021-05-29 11:47:58</time>
      </trkpt>
      <trkpt lat="43.27587" lon="-2.12581">
        <ele>-16.2</ele>
        <time>2021-05-29 11:47:59</time>
      </trkpt>
      <trkpt lat="43.27581" lon="-2.1258">
        <ele>-16</ele>
        <time>2021-05-29 11:48:00</time>
      </trkpt>
      <trkpt lat="43.27576" lon="-2.12579">
        <ele>-16</ele>
        <time>2021-05-29 11:48:01</time>
      </trkpt>
      <trkpt lat="43.2757" lon="-2.12577">
        <ele>-16</ele>
        <time>2021-05-29 11:48:02</time>
      </trkpt>
      <trkpt lat="43.27564" lon="-2.12576">
        <ele>-16</ele>
        <time>2021-05-29 11:48:03</time>
      </trkpt>
      <trkpt lat="43.27558" lon="-2.12575">
        <ele>-16</ele>
        <time>2021-05-29 11:48:04</time>
      </trkpt>
      <trkpt lat="43.27551" lon="-2.12573">
        <ele>-15.8</ele>
        <time>2021-05-29 11:48:05</time>
      </trkpt>
      <trkpt lat="43.27545" lon="-2.12572">
        <ele>-15.6</ele>
        <time>2021-05-29 11:48:06</time>
      </trkpt>
      <trkpt lat="43.2754" lon="-2.12571">
        <ele>-15.6</ele>
        <time>2021-05-29 11:48:07</time>
      </trkpt>
      <trkpt lat="43.27534" lon="-2.1257">
        <ele>-15.8</ele>
        <time>2021-05-29 11:48:08</time>
      </trkpt>
      <trkpt lat="43.27528" lon="-2.12569">
        <ele>-15.6</ele>
        <time>2021-05-29 11:48:09</time>
      </trkpt>
      <trkpt lat="43.27522" lon="-2.12567">
        <ele>-15.4</ele>
        <time>2021-05-29 11:48:10</time>
      </trkpt>
      <trkpt lat="43.27516" lon="-2.12566">
        <ele>-15.4</ele>
        <time>2021-05-29 11:48:11</time>
      </trkpt>
      <trkpt lat="43.2751" lon="-2.12565">
        <ele>-15.4</ele>
        <time>2021-05-29 11:48:12</time>
      </trkpt>
      <trkpt lat="43.27504" lon="-2.12564">
        <ele>-15.4</ele>
        <time>2021-05-29 11:48:13</time>
      </trkpt>
      <trkpt lat="43.27498" lon="-2.12563">
        <ele>-15.2</ele>
        <time>2021-05-29 11:48:14</time>
      </trkpt>
      <trkpt lat="43.27492" lon="-2.12562">
        <ele>-15.2</ele>
        <time>2021-05-29 11:48:15</time>
      </trkpt>
      <trkpt lat="43.27486" lon="-2.12561">
        <ele>-15.4</ele>
        <time>2021-05-29 11:48:16</time>
      </trkpt>
      <trkpt lat="43.2748" lon="-2.1256">
        <ele>-15.4</ele>
        <time>2021-05-29 11:48:17</time>
      </trkpt>
      <trkpt lat="43.27474" lon="-2.12559">
        <ele>-15.4</ele>
        <time>2021-05-29 11:48:18</time>
      </trkpt>
      <trkpt lat="43.27468" lon="-2.12558">
        <ele>-15.4</ele>
        <time>2021-05-29 11:48:19</time>
      </trkpt>
      <trkpt lat="43.27462" lon="-2.12557">
        <ele>-15.4</ele>
        <time>2021-05-29 11:48:20</time>
      </trkpt>
      <trkpt lat="43.27456" lon="-2.12557">
        <ele>-15.4</ele>
        <time>2021-05-29 11:48:21</time>
      </trkpt>
      <trkpt lat="43.27451" lon="-2.12559">
        <ele>-15.4</ele>
        <time>2021-05-29 11:48:22</time>
      </trkpt>
      <trkpt lat="43.27445" lon="-2.12561">
        <ele>-15.4</ele>
        <time>2021-05-29 11:48:23</time>
      </trkpt>
      <trkpt lat="43.2744" lon="-2.12566">
        <ele>-15.4</ele>
        <time>2021-05-29 11:48:24</time>
      </trkpt>
      <trkpt lat="43.27436" lon="-2.12573">
        <ele>-15.4</ele>
        <time>2021-05-29 11:48:25</time>
      </trkpt>
      <trkpt lat="43.27434" lon="-2.12582">
        <ele>-15.4</ele>
        <time>2021-05-29 11:48:26</time>
      </trkpt>
      <trkpt lat="43.27433" lon="-2.12592">
        <ele>-15.4</ele>
        <time>2021-05-29 11:48:27</time>
      </trkpt>
      <trkpt lat="43.27433" lon="-2.12601">
        <ele>-15.4</ele>
        <time>2021-05-29 11:48:28</time>
      </trkpt>
      <trkpt lat="43.27433" lon="-2.12612">
        <ele>-15.4</ele>
        <time>2021-05-29 11:48:29</time>
      </trkpt>
      <trkpt lat="43.27433" lon="-2.12622">
        <ele>-15.4</ele>
        <time>2021-05-29 11:48:30</time>
      </trkpt>
      <trkpt lat="43.27433" lon="-2.12633">
        <ele>-15.4</ele>
        <time>2021-05-29 11:48:31</time>
      </trkpt>
      <trkpt lat="43.27433" lon="-2.12643">
        <ele>-15.4</ele>
        <time>2021-05-29 11:48:32</time>
      </trkpt>
      <trkpt lat="43.27434" lon="-2.12653">
        <ele>-15.4</ele>
        <time>2021-05-29 11:48:33</time>
      </trkpt>
      <trkpt lat="43.27434" lon="-2.12664">
        <ele>-15.4</ele>
        <time>2021-05-29 11:48:34</time>
      </trkpt>
      <trkpt lat="43.27435" lon="-2.12674">
        <ele>-15.4</ele>
        <time>2021-05-29 11:48:35</time>
      </trkpt>
      <trkpt lat="43.27435" lon="-2.12685">
        <ele>-15.4</ele>
        <time>2021-05-29 11:48:36</time>
      </trkpt>
      <trkpt lat="43.27436" lon="-2.12696">
        <ele>-15.4</ele>
        <time>2021-05-29 11:48:37</time>
      </trkpt>
      <trkpt lat="43.27437" lon="-2.12706">
        <ele>-15.4</ele>
        <time>2021-05-29 11:48:38</time>
      </trkpt>
      <trkpt lat="43.27438" lon="-2.12717">
        <ele>-15.4</ele>
        <time>2021-05-29 11:48:39</time>
      </trkpt>
      <trkpt lat="43.2744" lon="-2.12728">
        <ele>-15.4</ele>
        <time>2021-05-29 11:48:40</time>
      </trkpt>
      <trkpt lat="43.27441" lon="-2.12739">
        <ele>-15.4</ele>
        <time>2021-05-29 11:48:41</time>
      </trkpt>
      <trkpt lat="43.27441" lon="-2.12751">
        <ele>-15.4</ele>
        <time>2021-05-29 11:48:42</time>
      </trkpt>
      <trkpt lat="43.27441" lon="-2.12763">
        <ele>-15.2</ele>
        <time>2021-05-29 11:48:43</time>
      </trkpt>
      <trkpt lat="43.27441" lon="-2.12775">
        <ele>-15.2</ele>
        <time>2021-05-29 11:48:44</time>
      </trkpt>
      <trkpt lat="43.2744" lon="-2.12787">
        <ele>-15.2</ele>
        <time>2021-05-29 11:48:45</time>
      </trkpt>
      <trkpt lat="43.2744" lon="-2.128">
        <ele>-15.2</ele>
        <time>2021-05-29 11:48:46</time>
      </trkpt>
      <trkpt lat="43.27439" lon="-2.12813">
        <ele>-15.2</ele>
        <time>2021-05-29 11:48:47</time>
      </trkpt>
      <trkpt lat="43.27439" lon="-2.12826">
        <ele>-15.2</ele>
        <time>2021-05-29 11:48:48</time>
      </trkpt>
      <trkpt lat="43.27438" lon="-2.12839">
        <ele>-15.2</ele>
        <time>2021-05-29 11:48:49</time>
      </trkpt>
      <trkpt lat="43.27438" lon="-2.12851">
        <ele>-15.2</ele>
        <time>2021-05-29 11:48:50</time>
      </trkpt>
      <trkpt lat="43.27438" lon="-2.12864">
        <ele>-15.2</ele>
        <time>2021-05-29 11:48:51</time>
      </trkpt>
      <trkpt lat="43.27439" lon="-2.12876">
        <ele>-15.2</ele>
        <time>2021-05-29 11:48:52</time>
      </trkpt>
      <trkpt lat="43.27439" lon="-2.12888">
        <ele>-15.2</ele>
        <time>2021-05-29 11:48:53</time>
      </trkpt>
      <trkpt lat="43.2744" lon="-2.12901">
        <ele>-15.4</ele>
        <time>2021-05-29 11:48:54</time>
      </trkpt>
      <trkpt lat="43.2744" lon="-2.12913">
        <ele>-15.8</ele>
        <time>2021-05-29 11:48:55</time>
      </trkpt>
      <trkpt lat="43.27441" lon="-2.12925">
        <ele>-16.2</ele>
        <time>2021-05-29 11:48:56</time>
      </trkpt>
      <trkpt lat="43.27441" lon="-2.12937">
        <ele>-16.4</ele>
        <time>2021-05-29 11:48:57</time>
      </trkpt>
      <trkpt lat="43.27442" lon="-2.12949">
        <ele>-16.6</ele>
        <time>2021-05-29 11:48:58</time>
      </trkpt>
      <trkpt lat="43.27442" lon="-2.12961">
        <ele>-16.8</ele>
        <time>2021-05-29 11:48:59</time>
      </trkpt>
      <trkpt lat="43.27442" lon="-2.12974">
        <ele>-16.8</ele>
        <time>2021-05-29 11:49:00</time>
      </trkpt>
      <trkpt lat="43.27443" lon="-2.12986">
        <ele>-17</ele>
        <time>2021-05-29 11:49:01</time>
      </trkpt>
      <trkpt lat="43.27444" lon="-2.12997">
        <ele>-17</ele>
        <time>2021-05-29 11:49:02</time>
      </trkpt>
      <trkpt lat="43.27445" lon="-2.13009">
        <ele>-17.4</ele>
        <time>2021-05-29 11:49:03</time>
      </trkpt>
      <trkpt lat="43.27447" lon="-2.1302">
        <ele>-17.6</ele>
        <time>2021-05-29 11:49:04</time>
      </trkpt>
      <trkpt lat="43.27449" lon="-2.1303">
        <ele>-17.4</ele>
        <time>2021-05-29 11:49:05</time>
      </trkpt>
      <trkpt lat="43.27452" lon="-2.13041">
        <ele>-17.4</ele>
        <time>2021-05-29 11:49:06</time>
      </trkpt>
      <trkpt lat="43.27454" lon="-2.13051">
        <ele>-17.4</ele>
        <time>2021-05-29 11:49:07</time>
      </trkpt>
      <trkpt lat="43.27457" lon="-2.13061">
        <ele>-17.4</ele>
        <time>2021-05-29 11:49:08</time>
      </trkpt>
      <trkpt lat="43.2746" lon="-2.1307">
        <ele>-17.4</ele>
        <time>2021-05-29 11:49:09</time>
      </trkpt>
      <trkpt lat="43.27463" lon="-2.13079">
        <ele>-17.4</ele>
        <time>2021-05-29 11:49:10</time>
      </trkpt>
      <trkpt lat="43.27465" lon="-2.13088">
        <ele>-17.4</ele>
        <time>2021-05-29 11:49:11</time>
      </trkpt>
      <trkpt lat="43.27468" lon="-2.13095">
        <ele>-17.4</ele>
        <time>2021-05-29 11:49:12</time>
      </trkpt>
      <trkpt lat="43.2747" lon="-2.13103">
        <ele>-17.4</ele>
        <time>2021-05-29 11:49:13</time>
      </trkpt>
      <trkpt lat="43.27472" lon="-2.13109">
        <ele>-17.4</ele>
        <time>2021-05-29 11:49:14</time>
      </trkpt>
      <trkpt lat="43.27473" lon="-2.13116">
        <ele>-17.2</ele>
        <time>2021-05-29 11:49:15</time>
      </trkpt>
      <trkpt lat="43.27474" lon="-2.13123">
        <ele>-17</ele>
        <time>2021-05-29 11:49:16</time>
      </trkpt>
      <trkpt lat="43.27475" lon="-2.1313">
        <ele>-16.6</ele>
        <time>2021-05-29 11:49:17</time>
      </trkpt>
      <trkpt lat="43.27474" lon="-2.13137">
        <ele>-16</ele>
        <time>2021-05-29 11:49:18</time>
      </trkpt>
      <trkpt lat="43.27474" lon="-2.13143">
        <ele>-15.4</ele>
        <time>2021-05-29 11:49:19</time>
      </trkpt>
      <trkpt lat="43.27473" lon="-2.13149">
        <ele>-15</ele>
        <time>2021-05-29 11:49:20</time>
      </trkpt>
      <trkpt lat="43.27473" lon="-2.13155">
        <ele>-14.6</ele>
        <time>2021-05-29 11:49:21</time>
      </trkpt>
      <trkpt lat="43.27472" lon="-2.13161">
        <ele>-14</ele>
        <time>2021-05-29 11:49:22</time>
      </trkpt>
      <trkpt lat="43.27471" lon="-2.13167">
        <ele>-13.8</ele>
        <time>2021-05-29 11:49:23</time>
      </trkpt>
      <trkpt lat="43.27469" lon="-2.13172">
        <ele>-13.4</ele>
        <time>2021-05-29 11:49:24</time>
      </trkpt>
      <trkpt lat="43.27467" lon="-2.13178">
        <ele>-12.8</ele>
        <time>2021-05-29 11:49:25</time>
      </trkpt>
      <trkpt lat="43.27465" lon="-2.13184">
        <ele>-12.4</ele>
        <time>2021-05-29 11:49:26</time>
      </trkpt>
      <trkpt lat="43.27463" lon="-2.13189">
        <ele>-12.4</ele>
        <time>2021-05-29 11:49:27</time>
      </trkpt>
      <trkpt lat="43.2746" lon="-2.13194">
        <ele>-11.8</ele>
        <time>2021-05-29 11:49:28</time>
      </trkpt>
      <trkpt lat="43.27457" lon="-2.13199">
        <ele>-11.4</ele>
        <time>2021-05-29 11:49:29</time>
      </trkpt>
      <trkpt lat="43.27454" lon="-2.13203">
        <ele>-11.2</ele>
        <time>2021-05-29 11:49:30</time>
      </trkpt>
      <trkpt lat="43.27451" lon="-2.13207">
        <ele>-11</ele>
        <time>2021-05-29 11:49:31</time>
      </trkpt>
      <trkpt lat="43.27448" lon="-2.13212">
        <ele>-10.6</ele>
        <time>2021-05-29 11:49:32</time>
      </trkpt>
      <trkpt lat="43.27445" lon="-2.13216">
        <ele>-10.4</ele>
        <time>2021-05-29 11:49:33</time>
      </trkpt>
      <trkpt lat="43.27442" lon="-2.1322">
        <ele>-10</ele>
        <time>2021-05-29 11:49:34</time>
      </trkpt>
      <trkpt lat="43.27438" lon="-2.13224">
        <ele>-9.6</ele>
        <time>2021-05-29 11:49:35</time>
      </trkpt>
      <trkpt lat="43.27435" lon="-2.13228">
        <ele>-9</ele>
        <time>2021-05-29 11:49:36</time>
      </trkpt>
      <trkpt lat="43.27432" lon="-2.13232">
        <ele>-8.8</ele>
        <time>2021-05-29 11:49:37</time>
      </trkpt>
      <trkpt lat="43.27429" lon="-2.13235">
        <ele>-8.4</ele>
        <time>2021-05-29 11:49:38</time>
      </trkpt>
      <trkpt lat="43.27425" lon="-2.13239">
        <ele>-8</ele>
        <time>2021-05-29 11:49:39</time>
      </trkpt>
      <trkpt lat="43.27422" lon="-2.13243">
        <ele>-7.8</ele>
        <time>2021-05-29 11:49:40</time>
      </trkpt>
      <trkpt lat="43.27419" lon="-2.13246">
        <ele>-7.6</ele>
        <time>2021-05-29 11:49:41</time>
      </trkpt>
      <trkpt lat="43.27416" lon="-2.1325">
        <ele>-7.6</ele>
        <time>2021-05-29 11:49:42</time>
      </trkpt>
      <trkpt lat="43.27413" lon="-2.13253">
        <ele>-7.4</ele>
        <time>2021-05-29 11:49:43</time>
      </trkpt>
      <trkpt lat="43.2741" lon="-2.13256">
        <ele>-7.2</ele>
        <time>2021-05-29 11:49:44</time>
      </trkpt>
      <trkpt lat="43.27407" lon="-2.1326">
        <ele>-6.6</ele>
        <time>2021-05-29 11:49:45</time>
      </trkpt>
      <trkpt lat="43.27405" lon="-2.13263">
        <ele>-6.2</ele>
        <time>2021-05-29 11:49:46</time>
      </trkpt>
      <trkpt lat="43.27402" lon="-2.13266">
        <ele>-6</ele>
        <time>2021-05-29 11:49:47</time>
      </trkpt>
      <trkpt lat="43.27399" lon="-2.1327">
        <ele>-6</ele>
        <time>2021-05-29 11:49:48</time>
      </trkpt>
      <trkpt lat="43.27396" lon="-2.13274">
        <ele>-5.6</ele>
        <time>2021-05-29 11:49:49</time>
      </trkpt>
      <trkpt lat="43.27393" lon="-2.13278">
        <ele>-5.2</ele>
        <time>2021-05-29 11:49:50</time>
      </trkpt>
      <trkpt lat="43.2739" lon="-2.13281">
        <ele>-5</ele>
        <time>2021-05-29 11:49:51</time>
      </trkpt>
      <trkpt lat="43.27387" lon="-2.13283">
        <ele>-4.6</ele>
        <time>2021-05-29 11:49:52</time>
      </trkpt>
      <trkpt lat="43.27384" lon="-2.13286">
        <ele>-4.2</ele>
        <time>2021-05-29 11:49:53</time>
      </trkpt>
      <trkpt lat="43.27381" lon="-2.13289">
        <ele>-3.8</ele>
        <time>2021-05-29 11:49:54</time>
      </trkpt>
      <trkpt lat="43.27379" lon="-2.13292">
        <ele>-3.6</ele>
        <time>2021-05-29 11:49:55</time>
      </trkpt>
      <trkpt lat="43.27376" lon="-2.13295">
        <ele>-3.4</ele>
        <time>2021-05-29 11:49:56</time>
      </trkpt>
      <trkpt lat="43.27373" lon="-2.13297">
        <ele>-3</ele>
        <time>2021-05-29 11:49:57</time>
      </trkpt>
      <trkpt lat="43.27371" lon="-2.133">
        <ele>-2.8</ele>
        <time>2021-05-29 11:49:58</time>
      </trkpt>
      <trkpt lat="43.27368" lon="-2.13303">
        <ele>-2.6</ele>
        <time>2021-05-29 11:49:59</time>
      </trkpt>
      <trkpt lat="43.27365" lon="-2.13305">
        <ele>-2.2</ele>
        <time>2021-05-29 11:50:00</time>
      </trkpt>
      <trkpt lat="43.27362" lon="-2.13307">
        <ele>-1.8</ele>
        <time>2021-05-29 11:50:01</time>
      </trkpt>
      <trkpt lat="43.27358" lon="-2.1331">
        <ele>-1.6</ele>
        <time>2021-05-29 11:50:02</time>
      </trkpt>
      <trkpt lat="43.27355" lon="-2.13311">
        <ele>-1.2</ele>
        <time>2021-05-29 11:50:03</time>
      </trkpt>
      <trkpt lat="43.27352" lon="-2.13313">
        <ele>-1</ele>
        <time>2021-05-29 11:50:04</time>
      </trkpt>
      <trkpt lat="43.27349" lon="-2.13315">
        <ele>-0.8</ele>
        <time>2021-05-29 11:50:05</time>
      </trkpt>
      <trkpt lat="43.27346" lon="-2.13317">
        <ele>-0.4</ele>
        <time>2021-05-29 11:50:06</time>
      </trkpt>
      <trkpt lat="43.27343" lon="-2.13319">
        <ele>-0.2</ele>
        <time>2021-05-29 11:50:07</time>
      </trkpt>
      <trkpt lat="43.2734" lon="-2.13321">
        <ele>0.2</ele>
        <time>2021-05-29 11:50:08</time>
      </trkpt>
      <trkpt lat="43.27336" lon="-2.13323">
        <ele>0.4</ele>
        <time>2021-05-29 11:50:09</time>
      </trkpt>
      <trkpt lat="43.27334" lon="-2.13325">
        <ele>0.8</ele>
        <time>2021-05-29 11:50:10</time>
      </trkpt>
      <trkpt lat="43.27331" lon="-2.13328">
        <ele>1.2</ele>
        <time>2021-05-29 11:50:11</time>
      </trkpt>
      <trkpt lat="43.27328" lon="-2.1333">
        <ele>1.4</ele>
        <time>2021-05-29 11:50:12</time>
      </trkpt>
      <trkpt lat="43.27325" lon="-2.13333">
        <ele>1.6</ele>
        <time>2021-05-29 11:50:13</time>
      </trkpt>
      <trkpt lat="43.27323" lon="-2.13336">
        <ele>1.8</ele>
        <time>2021-05-29 11:50:14</time>
      </trkpt>
      <trkpt lat="43.2732" lon="-2.13339">
        <ele>2</ele>
        <time>2021-05-29 11:50:15</time>
      </trkpt>
      <trkpt lat="43.27317" lon="-2.13342">
        <ele>2.4</ele>
        <time>2021-05-29 11:50:16</time>
      </trkpt>
      <trkpt lat="43.27315" lon="-2.13345">
        <ele>2.8</ele>
        <time>2021-05-29 11:50:17</time>
      </trkpt>
      <trkpt lat="43.27312" lon="-2.13348">
        <ele>3</ele>
        <time>2021-05-29 11:50:18</time>
      </trkpt>
      <trkpt lat="43.27311" lon="-2.13352">
        <ele>3.4</ele>
        <time>2021-05-29 11:50:19</time>
      </trkpt>
      <trkpt lat="43.27308" lon="-2.13355">
        <ele>3.8</ele>
        <time>2021-05-29 11:50:20</time>
      </trkpt>
      <trkpt lat="43.27306" lon="-2.13358">
        <ele>4.2</ele>
        <time>2021-05-29 11:50:21</time>
      </trkpt>
      <trkpt lat="43.27304" lon="-2.13362">
        <ele>4.6</ele>
        <time>2021-05-29 11:50:22</time>
      </trkpt>
      <trkpt lat="43.27302" lon="-2.13365">
        <ele>4.8</ele>
        <time>2021-05-29 11:50:23</time>
      </trkpt>
      <trkpt lat="43.273" lon="-2.13368">
        <ele>5.2</ele>
        <time>2021-05-29 11:50:24</time>
      </trkpt>
      <trkpt lat="43.27298" lon="-2.13372">
        <ele>5.6</ele>
        <time>2021-05-29 11:50:25</time>
      </trkpt>
      <trkpt lat="43.27296" lon="-2.13376">
        <ele>6</ele>
        <time>2021-05-29 11:50:26</time>
      </trkpt>
      <trkpt lat="43.27294" lon="-2.1338">
        <ele>6.2</ele>
        <time>2021-05-29 11:50:27</time>
      </trkpt>
      <trkpt lat="43.27293" lon="-2.13384">
        <ele>6.4</ele>
        <time>2021-05-29 11:50:28</time>
      </trkpt>
      <trkpt lat="43.27291" lon="-2.13388">
        <ele>6.6</ele>
        <time>2021-05-29 11:50:29</time>
      </trkpt>
      <trkpt lat="43.27289" lon="-2.13392">
        <ele>6.8</ele>
        <time>2021-05-29 11:50:30</time>
      </trkpt>
      <trkpt lat="43.27288" lon="-2.13395">
        <ele>7</ele>
        <time>2021-05-29 11:50:31</time>
      </trkpt>
      <trkpt lat="43.27286" lon="-2.13399">
        <ele>7.4</ele>
        <time>2021-05-29 11:50:32</time>
      </trkpt>
      <trkpt lat="43.27285" lon="-2.13403">
        <ele>7.8</ele>
        <time>2021-05-29 11:50:33</time>
      </trkpt>
      <trkpt lat="43.27283" lon="-2.13406">
        <ele>8.2</ele>
        <time>2021-05-29 11:50:34</time>
      </trkpt>
      <trkpt lat="43.27281" lon="-2.1341">
        <ele>8.2</ele>
        <time>2021-05-29 11:50:35</time>
      </trkpt>
      <trkpt lat="43.2728" lon="-2.13413">
        <ele>8.6</ele>
        <time>2021-05-29 11:50:36</time>
      </trkpt>
      <trkpt lat="43.2728" lon="-2.13417">
        <ele>8.8</ele>
        <time>2021-05-29 11:50:37</time>
      </trkpt>
      <trkpt lat="43.27278" lon="-2.13422">
        <ele>9</ele>
        <time>2021-05-29 11:50:38</time>
      </trkpt>
      <trkpt lat="43.27277" lon="-2.13426">
        <ele>9.4</ele>
        <time>2021-05-29 11:50:39</time>
      </trkpt>
      <trkpt lat="43.27277" lon="-2.1343">
        <ele>9.6</ele>
        <time>2021-05-29 11:50:40</time>
      </trkpt>
      <trkpt lat="43.27275" lon="-2.13435">
        <ele>9.8</ele>
        <time>2021-05-29 11:50:41</time>
      </trkpt>
      <trkpt lat="43.27274" lon="-2.13439">
        <ele>10</ele>
        <time>2021-05-29 11:50:42</time>
      </trkpt>
      <trkpt lat="43.27273" lon="-2.13444">
        <ele>10.4</ele>
        <time>2021-05-29 11:50:43</time>
      </trkpt>
      <trkpt lat="43.27273" lon="-2.13448">
        <ele>10.6</ele>
        <time>2021-05-29 11:50:44</time>
      </trkpt>
      <trkpt lat="43.27272" lon="-2.13452">
        <ele>11</ele>
        <time>2021-05-29 11:50:45</time>
      </trkpt>
      <trkpt lat="43.27271" lon="-2.13456">
        <ele>11.2</ele>
        <time>2021-05-29 11:50:46</time>
      </trkpt>
      <trkpt lat="43.2727" lon="-2.13461">
        <ele>11.4</ele>
        <time>2021-05-29 11:50:47</time>
      </trkpt>
      <trkpt lat="43.27269" lon="-2.13465">
        <ele>11.8</ele>
        <time>2021-05-29 11:50:48</time>
      </trkpt>
      <trkpt lat="43.27268" lon="-2.13469">
        <ele>12.2</ele>
        <time>2021-05-29 11:50:49</time>
      </trkpt>
      <trkpt lat="43.27267" lon="-2.13473">
        <ele>12.6</ele>
        <time>2021-05-29 11:50:50</time>
      </trkpt>
      <trkpt lat="43.27266" lon="-2.13477">
        <ele>13</ele>
        <time>2021-05-29 11:50:51</time>
      </trkpt>
      <trkpt lat="43.27265" lon="-2.13481">
        <ele>13.4</ele>
        <time>2021-05-29 11:50:52</time>
      </trkpt>
      <trkpt lat="43.27264" lon="-2.13485">
        <ele>13.6</ele>
        <time>2021-05-29 11:50:53</time>
      </trkpt>
      <trkpt lat="43.27263" lon="-2.13489">
        <ele>14.2</ele>
        <time>2021-05-29 11:50:54</time>
      </trkpt>
      <trkpt lat="43.27262" lon="-2.13493">
        <ele>14.6</ele>
        <time>2021-05-29 11:50:55</time>
      </trkpt>
      <trkpt lat="43.27261" lon="-2.13497">
        <ele>15</ele>
        <time>2021-05-29 11:50:56</time>
      </trkpt>
      <trkpt lat="43.2726" lon="-2.13501">
        <ele>15.2</ele>
        <time>2021-05-29 11:50:57</time>
      </trkpt>
      <trkpt lat="43.27258" lon="-2.13506">
        <ele>15.4</ele>
        <time>2021-05-29 11:50:58</time>
      </trkpt>
      <trkpt lat="43.27257" lon="-2.1351">
        <ele>15.8</ele>
        <time>2021-05-29 11:50:59</time>
      </trkpt>
      <trkpt lat="43.27256" lon="-2.13515">
        <ele>16</ele>
        <time>2021-05-29 11:51:00</time>
      </trkpt>
      <trkpt lat="43.27255" lon="-2.13519">
        <ele>16.4</ele>
        <time>2021-05-29 11:51:01</time>
      </trkpt>
      <trkpt lat="43.27254" lon="-2.13523">
        <ele>16.6</ele>
        <time>2021-05-29 11:51:02</time>
      </trkpt>
      <trkpt lat="43.27252" lon="-2.13527">
        <ele>17</ele>
        <time>2021-05-29 11:51:03</time>
      </trkpt>
      <trkpt lat="43.27251" lon="-2.13531">
        <ele>17.2</ele>
        <time>2021-05-29 11:51:04</time>
      </trkpt>
      <trkpt lat="43.27249" lon="-2.13535">
        <ele>17.4</ele>
        <time>2021-05-29 11:51:05</time>
      </trkpt>
      <trkpt lat="43.27247" lon="-2.13539">
        <ele>17.8</ele>
        <time>2021-05-29 11:51:06</time>
      </trkpt>
      <trkpt lat="43.27245" lon="-2.13543">
        <ele>18</ele>
        <time>2021-05-29 11:51:07</time>
      </trkpt>
      <trkpt lat="43.27243" lon="-2.13547">
        <ele>18.2</ele>
        <time>2021-05-29 11:51:08</time>
      </trkpt>
      <trkpt lat="43.2724" lon="-2.13551">
        <ele>18.6</ele>
        <time>2021-05-29 11:51:09</time>
      </trkpt>
      <trkpt lat="43.27238" lon="-2.13554">
        <ele>19</ele>
        <time>2021-05-29 11:51:10</time>
      </trkpt>
      <trkpt lat="43.27236" lon="-2.13558">
        <ele>19.4</ele>
        <time>2021-05-29 11:51:11</time>
      </trkpt>
      <trkpt lat="43.27233" lon="-2.13561">
        <ele>19.6</ele>
        <time>2021-05-29 11:51:12</time>
      </trkpt>
      <trkpt lat="43.27229" lon="-2.13564">
        <ele>20</ele>
        <time>2021-05-29 11:51:13</time>
      </trkpt>
      <trkpt lat="43.27226" lon="-2.13568">
        <ele>20.2</ele>
        <time>2021-05-29 11:51:14</time>
      </trkpt>
      <trkpt lat="43.27223" lon="-2.13571">
        <ele>20.4</ele>
        <time>2021-05-29 11:51:15</time>
      </trkpt>
      <trkpt lat="43.2722" lon="-2.13574">
        <ele>20.8</ele>
        <time>2021-05-29 11:51:16</time>
      </trkpt>
      <trkpt lat="43.27216" lon="-2.13577">
        <ele>21</ele>
        <time>2021-05-29 11:51:17</time>
      </trkpt>
      <trkpt lat="43.27213" lon="-2.1358">
        <ele>21.2</ele>
        <time>2021-05-29 11:51:18</time>
      </trkpt>
      <trkpt lat="43.2721" lon="-2.13584">
        <ele>21.4</ele>
        <time>2021-05-29 11:51:19</time>
      </trkpt>
      <trkpt lat="43.27207" lon="-2.13586">
        <ele>21.6</ele>
        <time>2021-05-29 11:51:20</time>
      </trkpt>
      <trkpt lat="43.27204" lon="-2.13589">
        <ele>21.6</ele>
        <time>2021-05-29 11:51:21</time>
      </trkpt>
      <trkpt lat="43.27201" lon="-2.13592">
        <ele>21.8</ele>
        <time>2021-05-29 11:51:22</time>
      </trkpt>
      <trkpt lat="43.27197" lon="-2.13595">
        <ele>22</ele>
        <time>2021-05-29 11:51:23</time>
      </trkpt>
      <trkpt lat="43.27194" lon="-2.13598">
        <ele>22.2</ele>
        <time>2021-05-29 11:51:24</time>
      </trkpt>
      <trkpt lat="43.2719" lon="-2.13601">
        <ele>22.4</ele>
        <time>2021-05-29 11:51:25</time>
      </trkpt>
      <trkpt lat="43.27187" lon="-2.13604">
        <ele>22.8</ele>
        <time>2021-05-29 11:51:26</time>
      </trkpt>
      <trkpt lat="43.27184" lon="-2.13607">
        <ele>23</ele>
        <time>2021-05-29 11:51:27</time>
      </trkpt>
      <trkpt lat="43.27181" lon="-2.13611">
        <ele>23.2</ele>
        <time>2021-05-29 11:51:28</time>
      </trkpt>
      <trkpt lat="43.27178" lon="-2.13614">
        <ele>23.4</ele>
        <time>2021-05-29 11:51:29</time>
      </trkpt>
      <trkpt lat="43.27175" lon="-2.13617">
        <ele>23.6</ele>
        <time>2021-05-29 11:51:30</time>
      </trkpt>
      <trkpt lat="43.27172" lon="-2.13621">
        <ele>23.8</ele>
        <time>2021-05-29 11:51:31</time>
      </trkpt>
      <trkpt lat="43.27169" lon="-2.13624">
        <ele>24</ele>
        <time>2021-05-29 11:51:32</time>
      </trkpt>
      <trkpt lat="43.27165" lon="-2.13627">
        <ele>24.2</ele>
        <time>2021-05-29 11:51:33</time>
      </trkpt>
      <trkpt lat="43.27162" lon="-2.1363">
        <ele>24.4</ele>
        <time>2021-05-29 11:51:34</time>
      </trkpt>
      <trkpt lat="43.27159" lon="-2.13633">
        <ele>24.6</ele>
        <time>2021-05-29 11:51:35</time>
      </trkpt>
      <trkpt lat="43.27156" lon="-2.13636">
        <ele>24.8</ele>
        <time>2021-05-29 11:51:36</time>
      </trkpt>
      <trkpt lat="43.27153" lon="-2.1364">
        <ele>25</ele>
        <time>2021-05-29 11:51:37</time>
      </trkpt>
      <trkpt lat="43.27149" lon="-2.13643">
        <ele>25.2</ele>
        <time>2021-05-29 11:51:38</time>
      </trkpt>
      <trkpt lat="43.27146" lon="-2.13647">
        <ele>25.4</ele>
        <time>2021-05-29 11:51:39</time>
      </trkpt>
      <trkpt lat="43.27143" lon="-2.1365">
        <ele>25.6</ele>
        <time>2021-05-29 11:51:40</time>
      </trkpt>
      <trkpt lat="43.27139" lon="-2.13653">
        <ele>25.8</ele>
        <time>2021-05-29 11:51:41</time>
      </trkpt>
      <trkpt lat="43.27136" lon="-2.13657">
        <ele>26</ele>
        <time>2021-05-29 11:51:42</time>
      </trkpt>
      <trkpt lat="43.27133" lon="-2.13661">
        <ele>26.2</ele>
        <time>2021-05-29 11:51:43</time>
      </trkpt>
      <trkpt lat="43.27129" lon="-2.13665">
        <ele>26.4</ele>
        <time>2021-05-29 11:51:44</time>
      </trkpt>
      <trkpt lat="43.27126" lon="-2.13669">
        <ele>26.6</ele>
        <time>2021-05-29 11:51:45</time>
      </trkpt>
      <trkpt lat="43.27123" lon="-2.13673">
        <ele>26.8</ele>
        <time>2021-05-29 11:51:46</time>
      </trkpt>
      <trkpt lat="43.2712" lon="-2.13676">
        <ele>27</ele>
        <time>2021-05-29 11:51:47</time>
      </trkpt>
      <trkpt lat="43.27117" lon="-2.13679">
        <ele>27.4</ele>
        <time>2021-05-29 11:51:48</time>
      </trkpt>
      <trkpt lat="43.27114" lon="-2.13682">
        <ele>27.6</ele>
        <time>2021-05-29 11:51:49</time>
      </trkpt>
      <trkpt lat="43.27111" lon="-2.13685">
        <ele>27.8</ele>
        <time>2021-05-29 11:51:50</time>
      </trkpt>
      <trkpt lat="43.27107" lon="-2.13688">
        <ele>28</ele>
        <time>2021-05-29 11:51:51</time>
      </trkpt>
      <trkpt lat="43.27104" lon="-2.1369">
        <ele>28.4</ele>
        <time>2021-05-29 11:51:52</time>
      </trkpt>
      <trkpt lat="43.27101" lon="-2.13693">
        <ele>28.6</ele>
        <time>2021-05-29 11:51:53</time>
      </trkpt>
      <trkpt lat="43.27098" lon="-2.13696">
        <ele>28.8</ele>
        <time>2021-05-29 11:51:54</time>
      </trkpt>
      <trkpt lat="43.27094" lon="-2.13698">
        <ele>29</ele>
        <time>2021-05-29 11:51:55</time>
      </trkpt>
      <trkpt lat="43.2709" lon="-2.13698">
        <ele>29</ele>
        <time>2021-05-29 11:51:56</time>
      </trkpt>
      <trkpt lat="43.27085" lon="-2.13698">
        <ele>29.4</ele>
        <time>2021-05-29 11:51:57</time>
      </trkpt>
      <trkpt lat="43.27081" lon="-2.13698">
        <ele>29.6</ele>
        <time>2021-05-29 11:51:58</time>
      </trkpt>
      <trkpt lat="43.27077" lon="-2.13698">
        <ele>29.8</ele>
        <time>2021-05-29 11:51:59</time>
      </trkpt>
      <trkpt lat="43.27073" lon="-2.13696">
        <ele>30</ele>
        <time>2021-05-29 11:52:00</time>
      </trkpt>
      <trkpt lat="43.27069" lon="-2.13695">
        <ele>30.2</ele>
        <time>2021-05-29 11:52:01</time>
      </trkpt>
      <trkpt lat="43.27065" lon="-2.13694">
        <ele>30.4</ele>
        <time>2021-05-29 11:52:02</time>
      </trkpt>
      <trkpt lat="43.27062" lon="-2.13691">
        <ele>31</ele>
        <time>2021-05-29 11:52:03</time>
      </trkpt>
      <trkpt lat="43.27058" lon="-2.13688">
        <ele>31.4</ele>
        <time>2021-05-29 11:52:04</time>
      </trkpt>
      <trkpt lat="43.27055" lon="-2.13685">
        <ele>31.6</ele>
        <time>2021-05-29 11:52:05</time>
      </trkpt>
      <trkpt lat="43.27053" lon="-2.13682">
        <ele>31.8</ele>
        <time>2021-05-29 11:52:06</time>
      </trkpt>
      <trkpt lat="43.2705" lon="-2.13678">
        <ele>32</ele>
        <time>2021-05-29 11:52:07</time>
      </trkpt>
      <trkpt lat="43.27047" lon="-2.13675">
        <ele>32.4</ele>
        <time>2021-05-29 11:52:08</time>
      </trkpt>
      <trkpt lat="43.27045" lon="-2.13671">
        <ele>32.6</ele>
        <time>2021-05-29 11:52:09</time>
      </trkpt>
      <trkpt lat="43.27043" lon="-2.13667">
        <ele>32.6</ele>
        <time>2021-05-29 11:52:10</time>
      </trkpt>
      <trkpt lat="43.27041" lon="-2.13662">
        <ele>32.8</ele>
        <time>2021-05-29 11:52:11</time>
      </trkpt>
      <trkpt lat="43.27037" lon="-2.13657">
        <ele>33.2</ele>
        <time>2021-05-29 11:52:12</time>
      </trkpt>
      <trkpt lat="43.27036" lon="-2.13652">
        <ele>33.4</ele>
        <time>2021-05-29 11:52:13</time>
      </trkpt>
      <trkpt lat="43.27034" lon="-2.13646">
        <ele>33.8</ele>
        <time>2021-05-29 11:52:14</time>
      </trkpt>
      <trkpt lat="43.27034" lon="-2.13641">
        <ele>34</ele>
        <time>2021-05-29 11:52:15</time>
      </trkpt>
      <trkpt lat="43.27034" lon="-2.13635">
        <ele>34.2</ele>
        <time>2021-05-29 11:52:16</time>
      </trkpt>
      <trkpt lat="43.27035" lon="-2.13629">
        <ele>34.4</ele>
        <time>2021-05-29 11:52:17</time>
      </trkpt>
      <trkpt lat="43.27035" lon="-2.13623">
        <ele>34.4</ele>
        <time>2021-05-29 11:52:18</time>
      </trkpt>
      <trkpt lat="43.27036" lon="-2.13617">
        <ele>34.6</ele>
        <time>2021-05-29 11:52:19</time>
      </trkpt>
      <trkpt lat="43.27036" lon="-2.13611">
        <ele>34.8</ele>
        <time>2021-05-29 11:52:20</time>
      </trkpt>
      <trkpt lat="43.27036" lon="-2.13606">
        <ele>35.2</ele>
        <time>2021-05-29 11:52:21</time>
      </trkpt>
      <trkpt lat="43.27035" lon="-2.13598">
        <ele>35.4</ele>
        <time>2021-05-29 11:52:22</time>
      </trkpt>
      <trkpt lat="43.27034" lon="-2.1359">
        <ele>35.6</ele>
        <time>2021-05-29 11:52:23</time>
      </trkpt>
      <trkpt lat="43.27033" lon="-2.13582">
        <ele>36</ele>
        <time>2021-05-29 11:52:24</time>
      </trkpt>
      <trkpt lat="43.27033" lon="-2.13576">
        <ele>36.2</ele>
        <time>2021-05-29 11:52:25</time>
      </trkpt>
      <trkpt lat="43.27032" lon="-2.1357">
        <ele>36.2</ele>
        <time>2021-05-29 11:52:26</time>
      </trkpt>
      <trkpt lat="43.27031" lon="-2.13564">
        <ele>36.6</ele>
        <time>2021-05-29 11:52:27</time>
      </trkpt>
      <trkpt lat="43.27031" lon="-2.13558">
        <ele>36.8</ele>
        <time>2021-05-29 11:52:28</time>
      </trkpt>
      <trkpt lat="43.27031" lon="-2.13551">
        <ele>37.2</ele>
        <time>2021-05-29 11:52:29</time>
      </trkpt>
      <trkpt lat="43.27031" lon="-2.13544">
        <ele>37.4</ele>
        <time>2021-05-29 11:52:30</time>
      </trkpt>
      <trkpt lat="43.27031" lon="-2.13538">
        <ele>37.6</ele>
        <time>2021-05-29 11:52:31</time>
      </trkpt>
      <trkpt lat="43.2703" lon="-2.13532">
        <ele>38</ele>
        <time>2021-05-29 11:52:32</time>
      </trkpt>
      <trkpt lat="43.2703" lon="-2.13526">
        <ele>38.6</ele>
        <time>2021-05-29 11:52:33</time>
      </trkpt>
      <trkpt lat="43.2703" lon="-2.1352">
        <ele>38.8</ele>
        <time>2021-05-29 11:52:34</time>
      </trkpt>
      <trkpt lat="43.27029" lon="-2.13514">
        <ele>39.2</ele>
        <time>2021-05-29 11:52:35</time>
      </trkpt>
      <trkpt lat="43.27029" lon="-2.13508">
        <ele>39.4</ele>
        <time>2021-05-29 11:52:36</time>
      </trkpt>
      <trkpt lat="43.27029" lon="-2.13503">
        <ele>39.6</ele>
        <time>2021-05-29 11:52:37</time>
      </trkpt>
      <trkpt lat="43.27029" lon="-2.13498">
        <ele>40.2</ele>
        <time>2021-05-29 11:52:38</time>
      </trkpt>
      <trkpt lat="43.27028" lon="-2.13493">
        <ele>40.6</ele>
        <time>2021-05-29 11:52:39</time>
      </trkpt>
      <trkpt lat="43.27026" lon="-2.1349">
        <ele>40.8</ele>
        <time>2021-05-29 11:52:40</time>
      </trkpt>
      <trkpt lat="43.27023" lon="-2.13488">
        <ele>41</ele>
        <time>2021-05-29 11:52:41</time>
      </trkpt>
      <trkpt lat="43.27019" lon="-2.13488">
        <ele>41.2</ele>
        <time>2021-05-29 11:52:42</time>
      </trkpt>
      <trkpt lat="43.27015" lon="-2.13491">
        <ele>41.6</ele>
        <time>2021-05-29 11:52:43</time>
      </trkpt>
      <trkpt lat="43.27012" lon="-2.13495">
        <ele>41.8</ele>
        <time>2021-05-29 11:52:44</time>
      </trkpt>
      <trkpt lat="43.27011" lon="-2.13501">
        <ele>42</ele>
        <time>2021-05-29 11:52:45</time>
      </trkpt>
      <trkpt lat="43.2701" lon="-2.13507">
        <ele>42.4</ele>
        <time>2021-05-29 11:52:46</time>
      </trkpt>
      <trkpt lat="43.2701" lon="-2.13513">
        <ele>42.8</ele>
        <time>2021-05-29 11:52:47</time>
      </trkpt>
      <trkpt lat="43.2701" lon="-2.13519">
        <ele>43</ele>
        <time>2021-05-29 11:52:48</time>
      </trkpt>
      <trkpt lat="43.2701" lon="-2.13524">
        <ele>43.2</ele>
        <time>2021-05-29 11:52:49</time>
      </trkpt>
      <trkpt lat="43.27011" lon="-2.1353">
        <ele>43.4</ele>
        <time>2021-05-29 11:52:50</time>
      </trkpt>
      <trkpt lat="43.27011" lon="-2.13535">
        <ele>43.8</ele>
        <time>2021-05-29 11:52:51</time>
      </trkpt>
      <trkpt lat="43.27012" lon="-2.1354">
        <ele>44.2</ele>
        <time>2021-05-29 11:52:52</time>
      </trkpt>
      <trkpt lat="43.27013" lon="-2.13545">
        <ele>44.6</ele>
        <time>2021-05-29 11:52:53</time>
      </trkpt>
      <trkpt lat="43.27013" lon="-2.1355">
        <ele>45</ele>
        <time>2021-05-29 11:52:54</time>
      </trkpt>
      <trkpt lat="43.27013" lon="-2.13554">
        <ele>45.2</ele>
        <time>2021-05-29 11:52:55</time>
      </trkpt>
      <trkpt lat="43.27013" lon="-2.13559">
        <ele>45.6</ele>
        <time>2021-05-29 11:52:56</time>
      </trkpt>
      <trkpt lat="43.27013" lon="-2.13564">
        <ele>45.8</ele>
        <time>2021-05-29 11:52:57</time>
      </trkpt>
      <trkpt lat="43.27013" lon="-2.13569">
        <ele>46.2</ele>
        <time>2021-05-29 11:52:58</time>
      </trkpt>
      <trkpt lat="43.27013" lon="-2.13573">
        <ele>46.4</ele>
        <time>2021-05-29 11:52:59</time>
      </trkpt>
      <trkpt lat="43.27014" lon="-2.13578">
        <ele>46.6</ele>
        <time>2021-05-29 11:53:00</time>
      </trkpt>
      <trkpt lat="43.27014" lon="-2.13582">
        <ele>46.8</ele>
        <time>2021-05-29 11:53:01</time>
      </trkpt>
      <trkpt lat="43.27014" lon="-2.13587">
        <ele>47</ele>
        <time>2021-05-29 11:53:02</time>
      </trkpt>
      <trkpt lat="43.27014" lon="-2.13592">
        <ele>47.2</ele>
        <time>2021-05-29 11:53:03</time>
      </trkpt>
      <trkpt lat="43.27014" lon="-2.13598">
        <ele>47.4</ele>
        <time>2021-05-29 11:53:04</time>
      </trkpt>
      <trkpt lat="43.27013" lon="-2.13604">
        <ele>47.8</ele>
        <time>2021-05-29 11:53:05</time>
      </trkpt>
      <trkpt lat="43.27013" lon="-2.13609">
        <ele>48</ele>
        <time>2021-05-29 11:53:06</time>
      </trkpt>
      <trkpt lat="43.27013" lon="-2.13614">
        <ele>48.2</ele>
        <time>2021-05-29 11:53:07</time>
      </trkpt>
      <trkpt lat="43.27013" lon="-2.13619">
        <ele>48.4</ele>
        <time>2021-05-29 11:53:08</time>
      </trkpt>
      <trkpt lat="43.27013" lon="-2.13624">
        <ele>48.6</ele>
        <time>2021-05-29 11:53:09</time>
      </trkpt>
      <trkpt lat="43.27012" lon="-2.13629">
        <ele>49</ele>
        <time>2021-05-29 11:53:10</time>
      </trkpt>
      <trkpt lat="43.27012" lon="-2.13634">
        <ele>49.2</ele>
        <time>2021-05-29 11:53:11</time>
      </trkpt>
      <trkpt lat="43.27011" lon="-2.13639">
        <ele>49.6</ele>
        <time>2021-05-29 11:53:12</time>
      </trkpt>
      <trkpt lat="43.2701" lon="-2.13643">
        <ele>50</ele>
        <time>2021-05-29 11:53:13</time>
      </trkpt>
      <trkpt lat="43.2701" lon="-2.13648">
        <ele>50.2</ele>
        <time>2021-05-29 11:53:14</time>
      </trkpt>
      <trkpt lat="43.2701" lon="-2.13652">
        <ele>50.4</ele>
        <time>2021-05-29 11:53:15</time>
      </trkpt>
      <trkpt lat="43.2701" lon="-2.13656">
        <ele>50.8</ele>
        <time>2021-05-29 11:53:16</time>
      </trkpt>
      <trkpt lat="43.27011" lon="-2.1366">
        <ele>51</ele>
        <time>2021-05-29 11:53:17</time>
      </trkpt>
      <trkpt lat="43.27011" lon="-2.13665">
        <ele>51.4</ele>
        <time>2021-05-29 11:53:18</time>
      </trkpt>
      <trkpt lat="43.27012" lon="-2.1367">
        <ele>51.6</ele>
        <time>2021-05-29 11:53:19</time>
      </trkpt>
      <trkpt lat="43.27014" lon="-2.13675">
        <ele>51.8</ele>
        <time>2021-05-29 11:53:20</time>
      </trkpt>
      <trkpt lat="43.27015" lon="-2.1368">
        <ele>52.2</ele>
        <time>2021-05-29 11:53:21</time>
      </trkpt>
      <trkpt lat="43.27018" lon="-2.13684">
        <ele>52.6</ele>
        <time>2021-05-29 11:53:22</time>
      </trkpt>
      <trkpt lat="43.27022" lon="-2.13688">
        <ele>52.8</ele>
        <time>2021-05-29 11:53:23</time>
      </trkpt>
      <trkpt lat="43.27023" lon="-2.13694">
        <ele>53</ele>
        <time>2021-05-29 11:53:24</time>
      </trkpt>
      <trkpt lat="43.27026" lon="-2.13698">
        <ele>53.4</ele>
        <time>2021-05-29 11:53:25</time>
      </trkpt>
      <trkpt lat="43.2703" lon="-2.13703">
        <ele>53.6</ele>
        <time>2021-05-29 11:53:26</time>
      </trkpt>
      <trkpt lat="43.27032" lon="-2.13708">
        <ele>54</ele>
        <time>2021-05-29 11:53:27</time>
      </trkpt>
      <trkpt lat="43.27035" lon="-2.13712">
        <ele>54.2</ele>
        <time>2021-05-29 11:53:28</time>
      </trkpt>
      <trkpt lat="43.27039" lon="-2.13716">
        <ele>54.6</ele>
        <time>2021-05-29 11:53:29</time>
      </trkpt>
      <trkpt lat="43.27041" lon="-2.13722">
        <ele>54.8</ele>
        <time>2021-05-29 11:53:30</time>
      </trkpt>
      <trkpt lat="43.27044" lon="-2.13727">
        <ele>55</ele>
        <time>2021-05-29 11:53:31</time>
      </trkpt>
      <trkpt lat="43.27046" lon="-2.13732">
        <ele>55.2</ele>
        <time>2021-05-29 11:53:32</time>
      </trkpt>
      <trkpt lat="43.2705" lon="-2.13734">
        <ele>55.4</ele>
        <time>2021-05-29 11:53:33</time>
      </trkpt>
      <trkpt lat="43.27055" lon="-2.13735">
        <ele>55.6</ele>
        <time>2021-05-29 11:53:34</time>
      </trkpt>
      <trkpt lat="43.2706" lon="-2.13737">
        <ele>55.8</ele>
        <time>2021-05-29 11:53:35</time>
      </trkpt>
      <trkpt lat="43.27064" lon="-2.13739">
        <ele>56</ele>
        <time>2021-05-29 11:53:36</time>
      </trkpt>
      <trkpt lat="43.27068" lon="-2.13739">
        <ele>56.2</ele>
        <time>2021-05-29 11:53:37</time>
      </trkpt>
      <trkpt lat="43.27071" lon="-2.13741">
        <ele>56.4</ele>
        <time>2021-05-29 11:53:38</time>
      </trkpt>
      <trkpt lat="43.27074" lon="-2.13744">
        <ele>56.6</ele>
        <time>2021-05-29 11:53:39</time>
      </trkpt>
      <trkpt lat="43.27078" lon="-2.13745">
        <ele>56.8</ele>
        <time>2021-05-29 11:53:40</time>
      </trkpt>
      <trkpt lat="43.27082" lon="-2.13745">
        <ele>57</ele>
        <time>2021-05-29 11:53:41</time>
      </trkpt>
      <trkpt lat="43.27086" lon="-2.13744">
        <ele>57.2</ele>
        <time>2021-05-29 11:53:42</time>
      </trkpt>
      <trkpt lat="43.27091" lon="-2.13744">
        <ele>57.4</ele>
        <time>2021-05-29 11:53:43</time>
      </trkpt>
      <trkpt lat="43.27096" lon="-2.13744">
        <ele>57.6</ele>
        <time>2021-05-29 11:53:44</time>
      </trkpt>
      <trkpt lat="43.271" lon="-2.13741">
        <ele>57.8</ele>
        <time>2021-05-29 11:53:45</time>
      </trkpt>
      <trkpt lat="43.27105" lon="-2.13738">
        <ele>58</ele>
        <time>2021-05-29 11:53:46</time>
      </trkpt>
      <trkpt lat="43.27108" lon="-2.13735">
        <ele>58.2</ele>
        <time>2021-05-29 11:53:47</time>
      </trkpt>
      <trkpt lat="43.27112" lon="-2.13733">
        <ele>58.8</ele>
        <time>2021-05-29 11:53:48</time>
      </trkpt>
      <trkpt lat="43.27116" lon="-2.1373">
        <ele>59</ele>
        <time>2021-05-29 11:53:49</time>
      </trkpt>
      <trkpt lat="43.27118" lon="-2.13727">
        <ele>59.2</ele>
        <time>2021-05-29 11:53:50</time>
      </trkpt>
      <trkpt lat="43.27122" lon="-2.13724">
        <ele>59.2</ele>
        <time>2021-05-29 11:53:51</time>
      </trkpt>
      <trkpt lat="43.27125" lon="-2.13721">
        <ele>59.4</ele>
        <time>2021-05-29 11:53:52</time>
      </trkpt>
      <trkpt lat="43.27129" lon="-2.13718">
        <ele>59.6</ele>
        <time>2021-05-29 11:53:53</time>
      </trkpt>
      <trkpt lat="43.27133" lon="-2.13715">
        <ele>60</ele>
        <time>2021-05-29 11:53:54</time>
      </trkpt>
      <trkpt lat="43.27137" lon="-2.13713">
        <ele>60.2</ele>
        <time>2021-05-29 11:53:55</time>
      </trkpt>
      <trkpt lat="43.27141" lon="-2.13711">
        <ele>60.6</ele>
        <time>2021-05-29 11:53:56</time>
      </trkpt>
      <trkpt lat="43.27146" lon="-2.13709">
        <ele>60.8</ele>
        <time>2021-05-29 11:53:57</time>
      </trkpt>
      <trkpt lat="43.2715" lon="-2.13707">
        <ele>61.2</ele>
        <time>2021-05-29 11:53:58</time>
      </trkpt>
      <trkpt lat="43.27154" lon="-2.13706">
        <ele>61.4</ele>
        <time>2021-05-29 11:53:59</time>
      </trkpt>
      <trkpt lat="43.27159" lon="-2.13704">
        <ele>61.6</ele>
        <time>2021-05-29 11:54:00</time>
      </trkpt>
      <trkpt lat="43.27164" lon="-2.13703">
        <ele>61.6</ele>
        <time>2021-05-29 11:54:01</time>
      </trkpt>
      <trkpt lat="43.27169" lon="-2.13702">
        <ele>62</ele>
        <time>2021-05-29 11:54:02</time>
      </trkpt>
      <trkpt lat="43.27173" lon="-2.13701">
        <ele>62</ele>
        <time>2021-05-29 11:54:03</time>
      </trkpt>
      <trkpt lat="43.27178" lon="-2.137">
        <ele>62.4</ele>
        <time>2021-05-29 11:54:04</time>
      </trkpt>
      <trkpt lat="43.27182" lon="-2.13699">
        <ele>62.6</ele>
        <time>2021-05-29 11:54:05</time>
      </trkpt>
      <trkpt lat="43.27187" lon="-2.13699">
        <ele>62.8</ele>
        <time>2021-05-29 11:54:06</time>
      </trkpt>
      <trkpt lat="43.27191" lon="-2.13698">
        <ele>63.2</ele>
        <time>2021-05-29 11:54:07</time>
      </trkpt>
      <trkpt lat="43.27195" lon="-2.13698">
        <ele>63.6</ele>
        <time>2021-05-29 11:54:08</time>
      </trkpt>
      <trkpt lat="43.27199" lon="-2.13698">
        <ele>63.8</ele>
        <time>2021-05-29 11:54:09</time>
      </trkpt>
      <trkpt lat="43.27202" lon="-2.13699">
        <ele>64</ele>
        <time>2021-05-29 11:54:10</time>
      </trkpt>
      <trkpt lat="43.27206" lon="-2.13699">
        <ele>64.2</ele>
        <time>2021-05-29 11:54:11</time>
      </trkpt>
      <trkpt lat="43.27211" lon="-2.13701">
        <ele>64.2</ele>
        <time>2021-05-29 11:54:12</time>
      </trkpt>
      <trkpt lat="43.27215" lon="-2.13702">
        <ele>64.6</ele>
        <time>2021-05-29 11:54:13</time>
      </trkpt>
      <trkpt lat="43.27221" lon="-2.13705">
        <ele>64.8</ele>
        <time>2021-05-29 11:54:14</time>
      </trkpt>
      <trkpt lat="43.27226" lon="-2.13708">
        <ele>65.2</ele>
        <time>2021-05-29 11:54:15</time>
      </trkpt>
      <trkpt lat="43.27231" lon="-2.13711">
        <ele>65.4</ele>
        <time>2021-05-29 11:54:16</time>
      </trkpt>
      <trkpt lat="43.27236" lon="-2.13715">
        <ele>65.6</ele>
        <time>2021-05-29 11:54:17</time>
      </trkpt>
      <trkpt lat="43.2724" lon="-2.13719">
        <ele>66</ele>
        <time>2021-05-29 11:54:18</time>
      </trkpt>
      <trkpt lat="43.27244" lon="-2.13723">
        <ele>66.2</ele>
        <time>2021-05-29 11:54:19</time>
      </trkpt>
      <trkpt lat="43.27249" lon="-2.13727">
        <ele>66.4</ele>
        <time>2021-05-29 11:54:20</time>
      </trkpt>
      <trkpt lat="43.27253" lon="-2.1373">
        <ele>66.6</ele>
        <time>2021-05-29 11:54:21</time>
      </trkpt>
      <trkpt lat="43.27258" lon="-2.13734">
        <ele>66.6</ele>
        <time>2021-05-29 11:54:22</time>
      </trkpt>
      <trkpt lat="43.27263" lon="-2.13738">
        <ele>66.8</ele>
        <time>2021-05-29 11:54:23</time>
      </trkpt>
      <trkpt lat="43.27268" lon="-2.13742">
        <ele>66.8</ele>
        <time>2021-05-29 11:54:24</time>
      </trkpt>
      <trkpt lat="43.27273" lon="-2.13746">
        <ele>66.8</ele>
        <time>2021-05-29 11:54:25</time>
      </trkpt>
      <trkpt lat="43.27278" lon="-2.13751">
        <ele>67</ele>
        <time>2021-05-29 11:54:26</time>
      </trkpt>
      <trkpt lat="43.27284" lon="-2.13755">
        <ele>67</ele>
        <time>2021-05-29 11:54:27</time>
      </trkpt>
      <trkpt lat="43.27289" lon="-2.13759">
        <ele>67</ele>
        <time>2021-05-29 11:54:28</time>
      </trkpt>
      <trkpt lat="43.27295" lon="-2.13764">
        <ele>67</ele>
        <time>2021-05-29 11:54:29</time>
      </trkpt>
      <trkpt lat="43.27301" lon="-2.13768">
        <ele>67</ele>
        <time>2021-05-29 11:54:30</time>
      </trkpt>
      <trkpt lat="43.27307" lon="-2.13774">
        <ele>67</ele>
        <time>2021-05-29 11:54:31</time>
      </trkpt>
      <trkpt lat="43.27313" lon="-2.13779">
        <ele>67</ele>
        <time>2021-05-29 11:54:32</time>
      </trkpt>
      <trkpt lat="43.27319" lon="-2.13786">
        <ele>67</ele>
        <time>2021-05-29 11:54:33</time>
      </trkpt>
      <trkpt lat="43.27325" lon="-2.13793">
        <ele>67</ele>
        <time>2021-05-29 11:54:34</time>
      </trkpt>
      <trkpt lat="43.27331" lon="-2.138">
        <ele>66.8</ele>
        <time>2021-05-29 11:54:35</time>
      </trkpt>
      <trkpt lat="43.27337" lon="-2.13807">
        <ele>66.4</ele>
        <time>2021-05-29 11:54:36</time>
      </trkpt>
      <trkpt lat="43.27342" lon="-2.13816">
        <ele>66.2</ele>
        <time>2021-05-29 11:54:37</time>
      </trkpt>
      <trkpt lat="43.27348" lon="-2.13825">
        <ele>66.2</ele>
        <time>2021-05-29 11:54:38</time>
      </trkpt>
      <trkpt lat="43.27354" lon="-2.13834">
        <ele>66</ele>
        <time>2021-05-29 11:54:39</time>
      </trkpt>
      <trkpt lat="43.27359" lon="-2.13845">
        <ele>66</ele>
        <time>2021-05-29 11:54:40</time>
      </trkpt>
      <trkpt lat="43.27365" lon="-2.13855">
        <ele>65.8</ele>
        <time>2021-05-29 11:54:41</time>
      </trkpt>
      <trkpt lat="43.27371" lon="-2.13865">
        <ele>65.6</ele>
        <time>2021-05-29 11:54:42</time>
      </trkpt>
      <trkpt lat="43.27376" lon="-2.13875">
        <ele>65</ele>
        <time>2021-05-29 11:54:43</time>
      </trkpt>
      <trkpt lat="43.27382" lon="-2.13886">
        <ele>64.6</ele>
        <time>2021-05-29 11:54:44</time>
      </trkpt>
      <trkpt lat="43.27388" lon="-2.13897">
        <ele>64.2</ele>
        <time>2021-05-29 11:54:45</time>
      </trkpt>
      <trkpt lat="43.27394" lon="-2.13908">
        <ele>63.8</ele>
        <time>2021-05-29 11:54:46</time>
      </trkpt>
      <trkpt lat="43.274" lon="-2.13919">
        <ele>63.4</ele>
        <time>2021-05-29 11:54:47</time>
      </trkpt>
      <trkpt lat="43.27406" lon="-2.1393">
        <ele>63.2</ele>
        <time>2021-05-29 11:54:48</time>
      </trkpt>
      <trkpt lat="43.27412" lon="-2.13942">
        <ele>63</ele>
        <time>2021-05-29 11:54:49</time>
      </trkpt>
      <trkpt lat="43.27418" lon="-2.13953">
        <ele>62.6</ele>
        <time>2021-05-29 11:54:50</time>
      </trkpt>
      <trkpt lat="43.27425" lon="-2.13964">
        <ele>62.2</ele>
        <time>2021-05-29 11:54:51</time>
      </trkpt>
      <trkpt lat="43.27432" lon="-2.13974">
        <ele>61.8</ele>
        <time>2021-05-29 11:54:52</time>
      </trkpt>
      <trkpt lat="43.2744" lon="-2.13985">
        <ele>61.4</ele>
        <time>2021-05-29 11:54:53</time>
      </trkpt>
      <trkpt lat="43.27448" lon="-2.13994">
        <ele>61.2</ele>
        <time>2021-05-29 11:54:54</time>
      </trkpt>
      <trkpt lat="43.27457" lon="-2.14003">
        <ele>61</ele>
        <time>2021-05-29 11:54:55</time>
      </trkpt>
      <trkpt lat="43.27466" lon="-2.14011">
        <ele>60.6</ele>
        <time>2021-05-29 11:54:56</time>
      </trkpt>
      <trkpt lat="43.27475" lon="-2.14021">
        <ele>59.8</ele>
        <time>2021-05-29 11:54:57</time>
      </trkpt>
      <trkpt lat="43.27484" lon="-2.1403">
        <ele>59.6</ele>
        <time>2021-05-29 11:54:58</time>
      </trkpt>
      <trkpt lat="43.27493" lon="-2.1404">
        <ele>59</ele>
        <time>2021-05-29 11:54:59</time>
      </trkpt>
      <trkpt lat="43.27502" lon="-2.1405">
        <ele>58.4</ele>
        <time>2021-05-29 11:55:00</time>
      </trkpt>
      <trkpt lat="43.27511" lon="-2.1406">
        <ele>57.6</ele>
        <time>2021-05-29 11:55:01</time>
      </trkpt>
      <trkpt lat="43.2752" lon="-2.1407">
        <ele>57.2</ele>
        <time>2021-05-29 11:55:02</time>
      </trkpt>
      <trkpt lat="43.2753" lon="-2.14079">
        <ele>56.8</ele>
        <time>2021-05-29 11:55:03</time>
      </trkpt>
      <trkpt lat="43.2754" lon="-2.14088">
        <ele>56.4</ele>
        <time>2021-05-29 11:55:04</time>
      </trkpt>
      <trkpt lat="43.27549" lon="-2.14097">
        <ele>55.8</ele>
        <time>2021-05-29 11:55:05</time>
      </trkpt>
      <trkpt lat="43.27559" lon="-2.14104">
        <ele>55.2</ele>
        <time>2021-05-29 11:55:06</time>
      </trkpt>
      <trkpt lat="43.2757" lon="-2.1411">
        <ele>54.6</ele>
        <time>2021-05-29 11:55:07</time>
      </trkpt>
      <trkpt lat="43.27582" lon="-2.14113">
        <ele>54.2</ele>
        <time>2021-05-29 11:55:08</time>
      </trkpt>
      <trkpt lat="43.27593" lon="-2.14113">
        <ele>53.8</ele>
        <time>2021-05-29 11:55:09</time>
      </trkpt>
      <trkpt lat="43.27604" lon="-2.14111">
        <ele>53.8</ele>
        <time>2021-05-29 11:55:10</time>
      </trkpt>
      <trkpt lat="43.27615" lon="-2.14107">
        <ele>53.6</ele>
        <time>2021-05-29 11:55:11</time>
      </trkpt>
      <trkpt lat="43.27625" lon="-2.14103">
        <ele>53</ele>
        <time>2021-05-29 11:55:12</time>
      </trkpt>
      <trkpt lat="43.27635" lon="-2.14099">
        <ele>52.2</ele>
        <time>2021-05-29 11:55:13</time>
      </trkpt>
      <trkpt lat="43.27644" lon="-2.14097">
        <ele>51.6</ele>
        <time>2021-05-29 11:55:14</time>
      </trkpt>
      <trkpt lat="43.27654" lon="-2.14098">
        <ele>51</ele>
        <time>2021-05-29 11:55:15</time>
      </trkpt>
      <trkpt lat="43.27663" lon="-2.14102">
        <ele>50.6</ele>
        <time>2021-05-29 11:55:16</time>
      </trkpt>
      <trkpt lat="43.27673" lon="-2.14108">
        <ele>50.2</ele>
        <time>2021-05-29 11:55:17</time>
      </trkpt>
      <trkpt lat="43.27683" lon="-2.14115">
        <ele>50</ele>
        <time>2021-05-29 11:55:18</time>
      </trkpt>
      <trkpt lat="43.27694" lon="-2.14121">
        <ele>49.6</ele>
        <time>2021-05-29 11:55:19</time>
      </trkpt>
      <trkpt lat="43.27704" lon="-2.14127">
        <ele>49.4</ele>
        <time>2021-05-29 11:55:20</time>
      </trkpt>
      <trkpt lat="43.27715" lon="-2.14134">
        <ele>49.4</ele>
        <time>2021-05-29 11:55:21</time>
      </trkpt>
      <trkpt lat="43.27726" lon="-2.14141">
        <ele>49</ele>
        <time>2021-05-29 11:55:22</time>
      </trkpt>
      <trkpt lat="43.27736" lon="-2.14147">
        <ele>48.6</ele>
        <time>2021-05-29 11:55:23</time>
      </trkpt>
      <trkpt lat="43.27747" lon="-2.14154">
        <ele>48.4</ele>
        <time>2021-05-29 11:55:24</time>
      </trkpt>
      <trkpt lat="43.27758" lon="-2.1416">
        <ele>47.8</ele>
        <time>2021-05-29 11:55:25</time>
      </trkpt>
      <trkpt lat="43.27768" lon="-2.14166">
        <ele>47.4</ele>
        <time>2021-05-29 11:55:26</time>
      </trkpt>
      <trkpt lat="43.2778" lon="-2.1417">
        <ele>46.6</ele>
        <time>2021-05-29 11:55:27</time>
      </trkpt>
      <trkpt lat="43.27791" lon="-2.14173">
        <ele>46</ele>
        <time>2021-05-29 11:55:28</time>
      </trkpt>
      <trkpt lat="43.27803" lon="-2.14175">
        <ele>45.6</ele>
        <time>2021-05-29 11:55:29</time>
      </trkpt>
      <trkpt lat="43.27815" lon="-2.14175">
        <ele>45</ele>
        <time>2021-05-29 11:55:30</time>
      </trkpt>
      <trkpt lat="43.27827" lon="-2.14176">
        <ele>44.2</ele>
        <time>2021-05-29 11:55:31</time>
      </trkpt>
      <trkpt lat="43.27839" lon="-2.14176">
        <ele>44</ele>
        <time>2021-05-29 11:55:32</time>
      </trkpt>
      <trkpt lat="43.27851" lon="-2.14178">
        <ele>43.4</ele>
        <time>2021-05-29 11:55:33</time>
      </trkpt>
      <trkpt lat="43.27863" lon="-2.14181">
        <ele>42.8</ele>
        <time>2021-05-29 11:55:34</time>
      </trkpt>
      <trkpt lat="43.27874" lon="-2.14188">
        <ele>42.2</ele>
        <time>2021-05-29 11:55:35</time>
      </trkpt>
      <trkpt lat="43.27885" lon="-2.14196">
        <ele>41.6</ele>
        <time>2021-05-29 11:55:36</time>
      </trkpt>
      <trkpt lat="43.27895" lon="-2.14206">
        <ele>41</ele>
        <time>2021-05-29 11:55:37</time>
      </trkpt>
      <trkpt lat="43.27905" lon="-2.14216">
        <ele>40.4</ele>
        <time>2021-05-29 11:55:38</time>
      </trkpt>
      <trkpt lat="43.27914" lon="-2.14228">
        <ele>39.8</ele>
        <time>2021-05-29 11:55:39</time>
      </trkpt>
      <trkpt lat="43.27921" lon="-2.14242">
        <ele>39.4</ele>
        <time>2021-05-29 11:55:40</time>
      </trkpt>
      <trkpt lat="43.27928" lon="-2.14256">
        <ele>38.8</ele>
        <time>2021-05-29 11:55:41</time>
      </trkpt>
      <trkpt lat="43.27933" lon="-2.14271">
        <ele>38.2</ele>
        <time>2021-05-29 11:55:42</time>
      </trkpt>
      <trkpt lat="43.27938" lon="-2.14287">
        <ele>37.6</ele>
        <time>2021-05-29 11:55:43</time>
      </trkpt>
      <trkpt lat="43.27943" lon="-2.14302">
        <ele>37.4</ele>
        <time>2021-05-29 11:55:44</time>
      </trkpt>
      <trkpt lat="43.27947" lon="-2.14318">
        <ele>36.8</ele>
        <time>2021-05-29 11:55:45</time>
      </trkpt>
      <trkpt lat="43.27952" lon="-2.14335">
        <ele>36</ele>
        <time>2021-05-29 11:55:46</time>
      </trkpt>
      <trkpt lat="43.27959" lon="-2.1435">
        <ele>35.4</ele>
        <time>2021-05-29 11:55:47</time>
      </trkpt>
      <trkpt lat="43.27966" lon="-2.14365">
        <ele>35</ele>
        <time>2021-05-29 11:55:48</time>
      </trkpt>
      <trkpt lat="43.27974" lon="-2.14379">
        <ele>34.4</ele>
        <time>2021-05-29 11:55:49</time>
      </trkpt>
      <trkpt lat="43.27981" lon="-2.14394">
        <ele>33.8</ele>
        <time>2021-05-29 11:55:50</time>
      </trkpt>
      <trkpt lat="43.27989" lon="-2.14408">
        <ele>33.2</ele>
        <time>2021-05-29 11:55:51</time>
      </trkpt>
      <trkpt lat="43.27997" lon="-2.14422">
        <ele>32.6</ele>
        <time>2021-05-29 11:55:52</time>
      </trkpt>
      <trkpt lat="43.28005" lon="-2.14436">
        <ele>32</ele>
        <time>2021-05-29 11:55:53</time>
      </trkpt>
      <trkpt lat="43.28013" lon="-2.1445">
        <ele>31</ele>
        <time>2021-05-29 11:55:54</time>
      </trkpt>
      <trkpt lat="43.28021" lon="-2.14464">
        <ele>30.2</ele>
        <time>2021-05-29 11:55:55</time>
      </trkpt>
      <trkpt lat="43.28029" lon="-2.14477">
        <ele>29.6</ele>
        <time>2021-05-29 11:55:56</time>
      </trkpt>
      <trkpt lat="43.28037" lon="-2.1449">
        <ele>29</ele>
        <time>2021-05-29 11:55:57</time>
      </trkpt>
      <trkpt lat="43.28045" lon="-2.14503">
        <ele>28.4</ele>
        <time>2021-05-29 11:55:58</time>
      </trkpt>
      <trkpt lat="43.28052" lon="-2.14516">
        <ele>27.8</ele>
        <time>2021-05-29 11:55:59</time>
      </trkpt>
      <trkpt lat="43.2806" lon="-2.14529">
        <ele>27</ele>
        <time>2021-05-29 11:56:00</time>
      </trkpt>
      <trkpt lat="43.28068" lon="-2.14542">
        <ele>26.2</ele>
        <time>2021-05-29 11:56:01</time>
      </trkpt>
      <trkpt lat="43.28075" lon="-2.14555">
        <ele>25.6</ele>
        <time>2021-05-29 11:56:02</time>
      </trkpt>
      <trkpt lat="43.28083" lon="-2.14568">
        <ele>25</ele>
        <time>2021-05-29 11:56:03</time>
      </trkpt>
      <trkpt lat="43.28091" lon="-2.14581">
        <ele>24.2</ele>
        <time>2021-05-29 11:56:04</time>
      </trkpt>
      <trkpt lat="43.28098" lon="-2.14594">
        <ele>23.6</ele>
        <time>2021-05-29 11:56:05</time>
      </trkpt>
      <trkpt lat="43.28106" lon="-2.14607">
        <ele>22.4</ele>
        <time>2021-05-29 11:56:06</time>
      </trkpt>
      <trkpt lat="43.28113" lon="-2.1462">
        <ele>21.8</ele>
        <time>2021-05-29 11:56:07</time>
      </trkpt>
      <trkpt lat="43.28121" lon="-2.14634">
        <ele>21.2</ele>
        <time>2021-05-29 11:56:08</time>
      </trkpt>
      <trkpt lat="43.28128" lon="-2.14648">
        <ele>20.8</ele>
        <time>2021-05-29 11:56:09</time>
      </trkpt>
      <trkpt lat="43.28135" lon="-2.14663">
        <ele>20.2</ele>
        <time>2021-05-29 11:56:10</time>
      </trkpt>
      <trkpt lat="43.28141" lon="-2.14678">
        <ele>19.4</ele>
        <time>2021-05-29 11:56:11</time>
      </trkpt>
      <trkpt lat="43.28145" lon="-2.14694">
        <ele>18.4</ele>
        <time>2021-05-29 11:56:12</time>
      </trkpt>
      <trkpt lat="43.28148" lon="-2.1471">
        <ele>17.6</ele>
        <time>2021-05-29 11:56:13</time>
      </trkpt>
      <trkpt lat="43.28149" lon="-2.14727">
        <ele>17</ele>
        <time>2021-05-29 11:56:14</time>
      </trkpt>
      <trkpt lat="43.28149" lon="-2.14744">
        <ele>16.6</ele>
        <time>2021-05-29 11:56:15</time>
      </trkpt>
      <trkpt lat="43.28147" lon="-2.1476">
        <ele>15.8</ele>
        <time>2021-05-29 11:56:16</time>
      </trkpt>
      <trkpt lat="43.28145" lon="-2.14777">
        <ele>15.2</ele>
        <time>2021-05-29 11:56:17</time>
      </trkpt>
      <trkpt lat="43.28144" lon="-2.14794">
        <ele>14.8</ele>
        <time>2021-05-29 11:56:18</time>
      </trkpt>
      <trkpt lat="43.28143" lon="-2.14811">
        <ele>14.2</ele>
        <time>2021-05-29 11:56:19</time>
      </trkpt>
      <trkpt lat="43.28144" lon="-2.14828">
        <ele>13.4</ele>
        <time>2021-05-29 11:56:20</time>
      </trkpt>
      <trkpt lat="43.28145" lon="-2.14846">
        <ele>12.6</ele>
        <time>2021-05-29 11:56:21</time>
      </trkpt>
      <trkpt lat="43.28147" lon="-2.14864">
        <ele>11.8</ele>
        <time>2021-05-29 11:56:22</time>
      </trkpt>
      <trkpt lat="43.28151" lon="-2.14881">
        <ele>11</ele>
        <time>2021-05-29 11:56:23</time>
      </trkpt>
      <trkpt lat="43.28157" lon="-2.14897">
        <ele>10.4</ele>
        <time>2021-05-29 11:56:24</time>
      </trkpt>
      <trkpt lat="43.28163" lon="-2.14913">
        <ele>9.6</ele>
        <time>2021-05-29 11:56:25</time>
      </trkpt>
      <trkpt lat="43.28168" lon="-2.1493">
        <ele>8.8</ele>
        <time>2021-05-29 11:56:26</time>
      </trkpt>
      <trkpt lat="43.28174" lon="-2.14946">
        <ele>8.4</ele>
        <time>2021-05-29 11:56:27</time>
      </trkpt>
      <trkpt lat="43.28179" lon="-2.14962">
        <ele>7.8</ele>
        <time>2021-05-29 11:56:28</time>
      </trkpt>
      <trkpt lat="43.28183" lon="-2.14979">
        <ele>7.4</ele>
        <time>2021-05-29 11:56:29</time>
      </trkpt>
      <trkpt lat="43.28187" lon="-2.14996">
        <ele>6.8</ele>
        <time>2021-05-29 11:56:30</time>
      </trkpt>
      <trkpt lat="43.2819" lon="-2.15013">
        <ele>6.2</ele>
        <time>2021-05-29 11:56:31</time>
      </trkpt>
      <trkpt lat="43.28193" lon="-2.1503">
        <ele>5.2</ele>
        <time>2021-05-29 11:56:32</time>
      </trkpt>
      <trkpt lat="43.28195" lon="-2.15047">
        <ele>4.2</ele>
        <time>2021-05-29 11:56:33</time>
      </trkpt>
      <trkpt lat="43.28197" lon="-2.15064">
        <ele>3.4</ele>
        <time>2021-05-29 11:56:34</time>
      </trkpt>
      <trkpt lat="43.28198" lon="-2.15081">
        <ele>2.4</ele>
        <time>2021-05-29 11:56:35</time>
      </trkpt>
      <trkpt lat="43.28199" lon="-2.15097">
        <ele>1.4</ele>
        <time>2021-05-29 11:56:36</time>
      </trkpt>
      <trkpt lat="43.28201" lon="-2.15113">
        <ele>0.8</ele>
        <time>2021-05-29 11:56:37</time>
      </trkpt>
      <trkpt lat="43.28202" lon="-2.15128">
        <ele>0.2</ele>
        <time>2021-05-29 11:56:38</time>
      </trkpt>
      <trkpt lat="43.28204" lon="-2.15144">
        <ele>-0.4</ele>
        <time>2021-05-29 11:56:39</time>
      </trkpt>
      <trkpt lat="43.28206" lon="-2.15159">
        <ele>-1</ele>
        <time>2021-05-29 11:56:40</time>
      </trkpt>
      <trkpt lat="43.28208" lon="-2.15174">
        <ele>-2.2</ele>
        <time>2021-05-29 11:56:41</time>
      </trkpt>
      <trkpt lat="43.28211" lon="-2.15189">
        <ele>-2.6</ele>
        <time>2021-05-29 11:56:42</time>
      </trkpt>
      <trkpt lat="43.28214" lon="-2.15203">
        <ele>-3</ele>
        <time>2021-05-29 11:56:43</time>
      </trkpt>
      <trkpt lat="43.28218" lon="-2.15218">
        <ele>-3.4</ele>
        <time>2021-05-29 11:56:44</time>
      </trkpt>
      <trkpt lat="43.28223" lon="-2.15232">
        <ele>-3.6</ele>
        <time>2021-05-29 11:56:45</time>
      </trkpt>
      <trkpt lat="43.28227" lon="-2.15246">
        <ele>-3.8</ele>
        <time>2021-05-29 11:56:46</time>
      </trkpt>
      <trkpt lat="43.28232" lon="-2.1526">
        <ele>-4</ele>
        <time>2021-05-29 11:56:47</time>
      </trkpt>
      <trkpt lat="43.28238" lon="-2.15274">
        <ele>-4.2</ele>
        <time>2021-05-29 11:56:48</time>
      </trkpt>
      <trkpt lat="43.28243" lon="-2.15287">
        <ele>-4.6</ele>
        <time>2021-05-29 11:56:49</time>
      </trkpt>
      <trkpt lat="43.28249" lon="-2.15301">
        <ele>-4.8</ele>
        <time>2021-05-29 11:56:50</time>
      </trkpt>
      <trkpt lat="43.28255" lon="-2.15315">
        <ele>-5.2</ele>
        <time>2021-05-29 11:56:51</time>
      </trkpt>
      <trkpt lat="43.28261" lon="-2.1533">
        <ele>-5.6</ele>
        <time>2021-05-29 11:56:52</time>
      </trkpt>
      <trkpt lat="43.28267" lon="-2.15344">
        <ele>-6</ele>
        <time>2021-05-29 11:56:53</time>
      </trkpt>
      <trkpt lat="43.28273" lon="-2.15359">
        <ele>-6.4</ele>
        <time>2021-05-29 11:56:54</time>
      </trkpt>
      <trkpt lat="43.28278" lon="-2.15373">
        <ele>-6.8</ele>
        <time>2021-05-29 11:56:55</time>
      </trkpt>
      <trkpt lat="43.28284" lon="-2.15388">
        <ele>-7.4</ele>
        <time>2021-05-29 11:56:56</time>
      </trkpt>
      <trkpt lat="43.2829" lon="-2.15401">
        <ele>-8.2</ele>
        <time>2021-05-29 11:56:57</time>
      </trkpt>
      <trkpt lat="43.28295" lon="-2.15415">
        <ele>-8.6</ele>
        <time>2021-05-29 11:56:58</time>
      </trkpt>
      <trkpt lat="43.28301" lon="-2.15428">
        <ele>-9.2</ele>
        <time>2021-05-29 11:56:59</time>
      </trkpt>
      <trkpt lat="43.28306" lon="-2.1544">
        <ele>-9.6</ele>
        <time>2021-05-29 11:57:00</time>
      </trkpt>
      <trkpt lat="43.28312" lon="-2.15453">
        <ele>-9.8</ele>
        <time>2021-05-29 11:57:01</time>
      </trkpt>
      <trkpt lat="43.28317" lon="-2.15465">
        <ele>-10.2</ele>
        <time>2021-05-29 11:57:02</time>
      </trkpt>
      <trkpt lat="43.28322" lon="-2.15477">
        <ele>-10.8</ele>
        <time>2021-05-29 11:57:03</time>
      </trkpt>
      <trkpt lat="43.28327" lon="-2.15489">
        <ele>-11</ele>
        <time>2021-05-29 11:57:04</time>
      </trkpt>
      <trkpt lat="43.28332" lon="-2.15501">
        <ele>-11.2</ele>
        <time>2021-05-29 11:57:05</time>
      </trkpt>
      <trkpt lat="43.28337" lon="-2.15513">
        <ele>-11.4</ele>
        <time>2021-05-29 11:57:06</time>
      </trkpt>
      <trkpt lat="43.28343" lon="-2.15524">
        <ele>-11.8</ele>
        <time>2021-05-29 11:57:07</time>
      </trkpt>
      <trkpt lat="43.28348" lon="-2.15535">
        <ele>-12</ele>
        <time>2021-05-29 11:57:08</time>
      </trkpt>
      <trkpt lat="43.28353" lon="-2.15546">
        <ele>-12.4</ele>
        <time>2021-05-29 11:57:09</time>
      </trkpt>
      <trkpt lat="43.28357" lon="-2.15557">
        <ele>-12.8</ele>
        <time>2021-05-29 11:57:10</time>
      </trkpt>
      <trkpt lat="43.28362" lon="-2.15568">
        <ele>-13.4</ele>
        <time>2021-05-29 11:57:11</time>
      </trkpt>
      <trkpt lat="43.28366" lon="-2.15578">
        <ele>-13.8</ele>
        <time>2021-05-29 11:57:12</time>
      </trkpt>
      <trkpt lat="43.28369" lon="-2.15588">
        <ele>-14</ele>
        <time>2021-05-29 11:57:13</time>
      </trkpt>
      <trkpt lat="43.28372" lon="-2.15597">
        <ele>-14.4</ele>
        <time>2021-05-29 11:57:14</time>
      </trkpt>
      <trkpt lat="43.28375" lon="-2.15604">
        <ele>-14.8</ele>
        <time>2021-05-29 11:57:15</time>
      </trkpt>
      <trkpt lat="43.28378" lon="-2.1561">
        <ele>-15</ele>
        <time>2021-05-29 11:57:16</time>
      </trkpt>
      <trkpt lat="43.2838" lon="-2.15614">
        <ele>-15.4</ele>
        <time>2021-05-29 11:57:17</time>
      </trkpt>
      <trkpt lat="43.28383" lon="-2.15617">
        <ele>-15.6</ele>
        <time>2021-05-29 11:57:18</time>
      </trkpt>
      <trkpt lat="43.28385" lon="-2.15618">
        <ele>-15.8</ele>
        <time>2021-05-29 11:57:19</time>
      </trkpt>
      <trkpt lat="43.28389" lon="-2.1562">
        <ele>-15.8</ele>
        <time>2021-05-29 11:57:20</time>
      </trkpt>
      <trkpt lat="43.28392" lon="-2.15621">
        <ele>-16</ele>
        <time>2021-05-29 11:57:21</time>
      </trkpt>
      <trkpt lat="43.28396" lon="-2.15624">
        <ele>-16</ele>
        <time>2021-05-29 11:57:22</time>
      </trkpt>
      <trkpt lat="43.284" lon="-2.15627">
        <ele>-16.2</ele>
        <time>2021-05-29 11:57:23</time>
      </trkpt>
      <trkpt lat="43.28404" lon="-2.15633">
        <ele>-16.2</ele>
        <time>2021-05-29 11:57:24</time>
      </trkpt>
      <trkpt lat="43.28406" lon="-2.1564">
        <ele>-16.2</ele>
        <time>2021-05-29 11:57:25</time>
      </trkpt>
      <trkpt lat="43.28408" lon="-2.15649">
        <ele>-16.2</ele>
        <time>2021-05-29 11:57:26</time>
      </trkpt>
      <trkpt lat="43.28408" lon="-2.15658">
        <ele>-16.2</ele>
        <time>2021-05-29 11:57:27</time>
      </trkpt>
      <trkpt lat="43.2841" lon="-2.15668">
        <ele>-16.2</ele>
        <time>2021-05-29 11:57:28</time>
      </trkpt>
      <trkpt lat="43.28412" lon="-2.15678">
        <ele>-16.4</ele>
        <time>2021-05-29 11:57:29</time>
      </trkpt>
      <trkpt lat="43.28415" lon="-2.15687">
        <ele>-16.4</ele>
        <time>2021-05-29 11:57:30</time>
      </trkpt>
      <trkpt lat="43.28418" lon="-2.15696">
        <ele>-16.4</ele>
        <time>2021-05-29 11:57:31</time>
      </trkpt>
      <trkpt lat="43.28423" lon="-2.15705">
        <ele>-16.4</ele>
        <time>2021-05-29 11:57:32</time>
      </trkpt>
      <trkpt lat="43.28427" lon="-2.15714">
        <ele>-16.4</ele>
        <time>2021-05-29 11:57:33</time>
      </trkpt>
      <trkpt lat="43.2843" lon="-2.15724">
        <ele>-16.4</ele>
        <time>2021-05-29 11:57:34</time>
      </trkpt>
      <trkpt lat="43.28434" lon="-2.15733">
        <ele>-16.4</ele>
        <time>2021-05-29 11:57:35</time>
      </trkpt>
      <trkpt lat="43.28438" lon="-2.15742">
        <ele>-16.8</ele>
        <time>2021-05-29 11:57:36</time>
      </trkpt>
      <trkpt lat="43.28442" lon="-2.15751">
        <ele>-17</ele>
        <time>2021-05-29 11:57:37</time>
      </trkpt>
      <trkpt lat="43.28446" lon="-2.1576">
        <ele>-17</ele>
        <time>2021-05-29 11:57:38</time>
      </trkpt>
      <trkpt lat="43.28449" lon="-2.15769">
        <ele>-17</ele>
        <time>2021-05-29 11:57:39</time>
      </trkpt>
      <trkpt lat="43.28453" lon="-2.15778">
        <ele>-17.2</ele>
        <time>2021-05-29 11:57:40</time>
      </trkpt>
      <trkpt lat="43.28457" lon="-2.15786">
        <ele>-17.2</ele>
        <time>2021-05-29 11:57:41</time>
      </trkpt>
      <trkpt lat="43.28461" lon="-2.15795">
        <ele>-17.2</ele>
        <time>2021-05-29 11:57:42</time>
      </trkpt>
      <trkpt lat="43.28465" lon="-2.15804">
        <ele>-17.2</ele>
        <time>2021-05-29 11:57:43</time>
      </trkpt>
      <trkpt lat="43.28469" lon="-2.15813">
        <ele>-17.2</ele>
        <time>2021-05-29 11:57:44</time>
      </trkpt>
      <trkpt lat="43.28473" lon="-2.15823">
        <ele>-17.2</ele>
        <time>2021-05-29 11:57:45</time>
      </trkpt>
      <trkpt lat="43.28477" lon="-2.15832">
        <ele>-17.2</ele>
        <time>2021-05-29 11:57:46</time>
      </trkpt>
      <trkpt lat="43.28481" lon="-2.15842">
        <ele>-17.2</ele>
        <time>2021-05-29 11:57:47</time>
      </trkpt>
      <trkpt lat="43.28485" lon="-2.15852">
        <ele>-17.2</ele>
        <time>2021-05-29 11:57:48</time>
      </trkpt>
      <trkpt lat="43.2849" lon="-2.15861">
        <ele>-17.2</ele>
        <time>2021-05-29 11:57:49</time>
      </trkpt>
      <trkpt lat="43.28494" lon="-2.15871">
        <ele>-17.2</ele>
        <time>2021-05-29 11:57:50</time>
      </trkpt>
      <trkpt lat="43.28498" lon="-2.15881">
        <ele>-17.2</ele>
        <time>2021-05-29 11:57:51</time>
      </trkpt>
      <trkpt lat="43.28503" lon="-2.1589">
        <ele>-17.2</ele>
        <time>2021-05-29 11:57:52</time>
      </trkpt>
      <trkpt lat="43.28507" lon="-2.159">
        <ele>-17.2</ele>
        <time>2021-05-29 11:57:53</time>
      </trkpt>
      <trkpt lat="43.28511" lon="-2.1591">
        <ele>-17.2</ele>
        <time>2021-05-29 11:57:54</time>
      </trkpt>
      <trkpt lat="43.28516" lon="-2.1592">
        <ele>-17.2</ele>
        <time>2021-05-29 11:57:55</time>
      </trkpt>
      <trkpt lat="43.2852" lon="-2.15929">
        <ele>-17.2</ele>
        <time>2021-05-29 11:57:56</time>
      </trkpt>
      <trkpt lat="43.28524" lon="-2.15939">
        <ele>-17.2</ele>
        <time>2021-05-29 11:57:57</time>
      </trkpt>
      <trkpt lat="43.28528" lon="-2.15949">
        <ele>-17.2</ele>
        <time>2021-05-29 11:57:58</time>
      </trkpt>
      <trkpt lat="43.28532" lon="-2.15959">
        <ele>-17</ele>
        <time>2021-05-29 11:57:59</time>
      </trkpt>
      <trkpt lat="43.28536" lon="-2.15969">
        <ele>-17</ele>
        <time>2021-05-29 11:58:00</time>
      </trkpt>
      <trkpt lat="43.2854" lon="-2.15979">
        <ele>-17</ele>
        <time>2021-05-29 11:58:01</time>
      </trkpt>
      <trkpt lat="43.28543" lon="-2.15989">
        <ele>-17</ele>
        <time>2021-05-29 11:58:02</time>
      </trkpt>
      <trkpt lat="43.28547" lon="-2.15999">
        <ele>-16.8</ele>
        <time>2021-05-29 11:58:03</time>
      </trkpt>
      <trkpt lat="43.28549" lon="-2.16009">
        <ele>-17</ele>
        <time>2021-05-29 11:58:04</time>
      </trkpt>
      <trkpt lat="43.28552" lon="-2.16019">
        <ele>-16.8</ele>
        <time>2021-05-29 11:58:05</time>
      </trkpt>
      <trkpt lat="43.28555" lon="-2.16029">
        <ele>-16.6</ele>
        <time>2021-05-29 11:58:06</time>
      </trkpt>
      <trkpt lat="43.28557" lon="-2.1604">
        <ele>-16.6</ele>
        <time>2021-05-29 11:58:07</time>
      </trkpt>
      <trkpt lat="43.28559" lon="-2.1605">
        <ele>-16.4</ele>
        <time>2021-05-29 11:58:08</time>
      </trkpt>
      <trkpt lat="43.28561" lon="-2.1606">
        <ele>-16.4</ele>
        <time>2021-05-29 11:58:09</time>
      </trkpt>
      <trkpt lat="43.28562" lon="-2.16071">
        <ele>-16.2</ele>
        <time>2021-05-29 11:58:10</time>
      </trkpt>
      <trkpt lat="43.28564" lon="-2.16082">
        <ele>-16.2</ele>
        <time>2021-05-29 11:58:11</time>
      </trkpt>
      <trkpt lat="43.28565" lon="-2.16093">
        <ele>-16</ele>
        <time>2021-05-29 11:58:12</time>
      </trkpt>
      <trkpt lat="43.28566" lon="-2.16103">
        <ele>-16</ele>
        <time>2021-05-29 11:58:13</time>
      </trkpt>
      <trkpt lat="43.28566" lon="-2.16113">
        <ele>-16</ele>
        <time>2021-05-29 11:58:14</time>
      </trkpt>
      <trkpt lat="43.28567" lon="-2.16122">
        <ele>-15.8</ele>
        <time>2021-05-29 11:58:15</time>
      </trkpt>
      <trkpt lat="43.28567" lon="-2.16131">
        <ele>-15.8</ele>
        <time>2021-05-29 11:58:16</time>
      </trkpt>
      <trkpt lat="43.28568" lon="-2.1614">
        <ele>-15.6</ele>
        <time>2021-05-29 11:58:17</time>
      </trkpt>
      <trkpt lat="43.28569" lon="-2.16149">
        <ele>-15.4</ele>
        <time>2021-05-29 11:58:18</time>
      </trkpt>
      <trkpt lat="43.2857" lon="-2.16157">
        <ele>-15.4</ele>
        <time>2021-05-29 11:58:19</time>
      </trkpt>
      <trkpt lat="43.2857" lon="-2.16164">
        <ele>-15.2</ele>
        <time>2021-05-29 11:58:20</time>
      </trkpt>
      <trkpt lat="43.28571" lon="-2.1617">
        <ele>-15.2</ele>
        <time>2021-05-29 11:58:21</time>
      </trkpt>
      <trkpt lat="43.28572" lon="-2.16175">
        <ele>-15.2</ele>
        <time>2021-05-29 11:58:22</time>
      </trkpt>
      <trkpt lat="43.28573" lon="-2.16179">
        <ele>-15</ele>
        <time>2021-05-29 11:58:23</time>
      </trkpt>
      <trkpt lat="43.28573" lon="-2.16182">
        <ele>-15</ele>
        <time>2021-05-29 11:58:24</time>
      </trkpt>
      <trkpt lat="43.28574" lon="-2.16185">
        <ele>-15</ele>
        <time>2021-05-29 11:58:25</time>
      </trkpt>
      <trkpt lat="43.28574" lon="-2.16187">
        <ele>-14.8</ele>
        <time>2021-05-29 11:58:26</time>
      </trkpt>
      <trkpt lat="43.28575" lon="-2.16189">
        <ele>-14.8</ele>
        <time>2021-05-29 11:58:27</time>
      </trkpt>
      <trkpt lat="43.28575" lon="-2.16191">
        <ele>-14.8</ele>
        <time>2021-05-29 11:58:28</time>
      </trkpt>
      <trkpt lat="43.28575" lon="-2.16192">
        <ele>-14.6</ele>
        <time>2021-05-29 11:58:29</time>
      </trkpt>
      <trkpt lat="43.28574" lon="-2.16192">
        <ele>-14.6</ele>
        <time>2021-05-29 11:58:30</time>
      </trkpt>
      <trkpt lat="43.28575" lon="-2.16195">
        <ele>-14.4</ele>
        <time>2021-05-29 11:58:58</time>
      </trkpt>
      <trkpt lat="43.28575" lon="-2.16198">
        <ele>-14.4</ele>
        <time>2021-05-29 11:58:59</time>
      </trkpt>
      <trkpt lat="43.28575" lon="-2.16203">
        <ele>-14.4</ele>
        <time>2021-05-29 11:59:00</time>
      </trkpt>
      <trkpt lat="43.28575" lon="-2.16209">
        <ele>-14.4</ele>
        <time>2021-05-29 11:59:01</time>
      </trkpt>
      <trkpt lat="43.28576" lon="-2.16215">
        <ele>-14.4</ele>
        <time>2021-05-29 11:59:02</time>
      </trkpt>
      <trkpt lat="43.28576" lon="-2.16221">
        <ele>-14.4</ele>
        <time>2021-05-29 11:59:03</time>
      </trkpt>
      <trkpt lat="43.28576" lon="-2.16228">
        <ele>-14.4</ele>
        <time>2021-05-29 11:59:04</time>
      </trkpt>
      <trkpt lat="43.28577" lon="-2.16236">
        <ele>-14.4</ele>
        <time>2021-05-29 11:59:05</time>
      </trkpt>
      <trkpt lat="43.28577" lon="-2.16244">
        <ele>-14.6</ele>
        <time>2021-05-29 11:59:06</time>
      </trkpt>
      <trkpt lat="43.28576" lon="-2.16253">
        <ele>-14.4</ele>
        <time>2021-05-29 11:59:07</time>
      </trkpt>
      <trkpt lat="43.28576" lon="-2.16261">
        <ele>-14.4</ele>
        <time>2021-05-29 11:59:08</time>
      </trkpt>
      <trkpt lat="43.28576" lon="-2.16271">
        <ele>-14.4</ele>
        <time>2021-05-29 11:59:09</time>
      </trkpt>
      <trkpt lat="43.28576" lon="-2.1628">
        <ele>-14.4</ele>
        <time>2021-05-29 11:59:10</time>
      </trkpt>
      <trkpt lat="43.28577" lon="-2.1629">
        <ele>-14.2</ele>
        <time>2021-05-29 11:59:11</time>
      </trkpt>
      <trkpt lat="43.28576" lon="-2.163">
        <ele>-14.2</ele>
        <time>2021-05-29 11:59:12</time>
      </trkpt>
      <trkpt lat="43.28576" lon="-2.1631">
        <ele>-14.2</ele>
        <time>2021-05-29 11:59:13</time>
      </trkpt>
      <trkpt lat="43.28576" lon="-2.1632">
        <ele>-14.2</ele>
        <time>2021-05-29 11:59:14</time>
      </trkpt>
      <trkpt lat="43.28577" lon="-2.1633">
        <ele>-14</ele>
        <time>2021-05-29 11:59:15</time>
      </trkpt>
      <trkpt lat="43.28577" lon="-2.16341">
        <ele>-14</ele>
        <time>2021-05-29 11:59:16</time>
      </trkpt>
      <trkpt lat="43.28577" lon="-2.16351">
        <ele>-14</ele>
        <time>2021-05-29 11:59:17</time>
      </trkpt>
      <trkpt lat="43.28577" lon="-2.16362">
        <ele>-13.8</ele>
        <time>2021-05-29 11:59:18</time>
      </trkpt>
      <trkpt lat="43.28577" lon="-2.16372">
        <ele>-13.8</ele>
        <time>2021-05-29 11:59:19</time>
      </trkpt>
      <trkpt lat="43.28577" lon="-2.16383">
        <ele>-13.8</ele>
        <time>2021-05-29 11:59:20</time>
      </trkpt>
      <trkpt lat="43.28577" lon="-2.16393">
        <ele>-13.8</ele>
        <time>2021-05-29 11:59:21</time>
      </trkpt>
      <trkpt lat="43.28577" lon="-2.16404">
        <ele>-13.8</ele>
        <time>2021-05-29 11:59:22</time>
      </trkpt>
      <trkpt lat="43.28577" lon="-2.16414">
        <ele>-13.8</ele>
        <time>2021-05-29 11:59:23</time>
      </trkpt>
      <trkpt lat="43.28578" lon="-2.16425">
        <ele>-13.8</ele>
        <time>2021-05-29 11:59:24</time>
      </trkpt>
      <trkpt lat="43.28578" lon="-2.16435">
        <ele>-13.8</ele>
        <time>2021-05-29 11:59:25</time>
      </trkpt>
      <trkpt lat="43.28578" lon="-2.16446">
        <ele>-13.6</ele>
        <time>2021-05-29 11:59:26</time>
      </trkpt>
      <trkpt lat="43.28578" lon="-2.16457">
        <ele>-13.6</ele>
        <time>2021-05-29 11:59:27</time>
      </trkpt>
      <trkpt lat="43.28578" lon="-2.16467">
        <ele>-13.6</ele>
        <time>2021-05-29 11:59:28</time>
      </trkpt>
      <trkpt lat="43.28578" lon="-2.16478">
        <ele>-13.6</ele>
        <time>2021-05-29 11:59:29</time>
      </trkpt>
      <trkpt lat="43.28578" lon="-2.16489">
        <ele>-13.6</ele>
        <time>2021-05-29 11:59:30</time>
      </trkpt>
      <trkpt lat="43.28578" lon="-2.16499">
        <ele>-13.4</ele>
        <time>2021-05-29 11:59:31</time>
      </trkpt>
      <trkpt lat="43.28578" lon="-2.1651">
        <ele>-13.4</ele>
        <time>2021-05-29 11:59:32</time>
      </trkpt>
      <trkpt lat="43.28579" lon="-2.1652">
        <ele>-13.6</ele>
        <time>2021-05-29 11:59:33</time>
      </trkpt>
      <trkpt lat="43.28579" lon="-2.1653">
        <ele>-13.6</ele>
        <time>2021-05-29 11:59:34</time>
      </trkpt>
      <trkpt lat="43.28579" lon="-2.1654">
        <ele>-13.4</ele>
        <time>2021-05-29 11:59:35</time>
      </trkpt>
      <trkpt lat="43.28579" lon="-2.16549">
        <ele>-13.2</ele>
        <time>2021-05-29 11:59:36</time>
      </trkpt>
      <trkpt lat="43.28579" lon="-2.16559">
        <ele>-13.2</ele>
        <time>2021-05-29 11:59:37</time>
      </trkpt>
      <trkpt lat="43.28579" lon="-2.16568">
        <ele>-13</ele>
        <time>2021-05-29 11:59:38</time>
      </trkpt>
      <trkpt lat="43.28579" lon="-2.16576">
        <ele>-13</ele>
        <time>2021-05-29 11:59:39</time>
      </trkpt>
      <trkpt lat="43.28578" lon="-2.16582">
        <ele>-12.8</ele>
        <time>2021-05-29 11:59:40</time>
      </trkpt>
      <trkpt lat="43.28578" lon="-2.16588">
        <ele>-12.8</ele>
        <time>2021-05-29 11:59:41</time>
      </trkpt>
      <trkpt lat="43.28578" lon="-2.16591">
        <ele>-12.8</ele>
        <time>2021-05-29 11:59:42</time>
      </trkpt>
      <trkpt lat="43.28578" lon="-2.16594">
        <ele>-12.8</ele>
        <time>2021-05-29 11:59:43</time>
      </trkpt>
      <trkpt lat="43.28578" lon="-2.16596">
        <ele>-12.8</ele>
        <time>2021-05-29 11:59:44</time>
      </trkpt>
      <trkpt lat="43.28578" lon="-2.16598">
        <ele>-12.8</ele>
        <time>2021-05-29 11:59:45</time>
      </trkpt>
      <trkpt lat="43.28578" lon="-2.166">
        <ele>-12.8</ele>
        <time>2021-05-29 11:59:46</time>
      </trkpt>
      <trkpt lat="43.28578" lon="-2.16601">
        <ele>-12.8</ele>
        <time>2021-05-29 11:59:47</time>
      </trkpt>
      <trkpt lat="43.28578" lon="-2.16601">
        <ele>-12.8</ele>
        <time>2021-05-29 11:59:48</time>
      </trkpt>
      <trkpt lat="43.28577" lon="-2.16609">
        <ele>-12.8</ele>
        <time>2021-05-29 11:59:57</time>
      </trkpt>
      <trkpt lat="43.28577" lon="-2.16613">
        <ele>-12.8</ele>
        <time>2021-05-29 11:59:58</time>
      </trkpt>
      <trkpt lat="43.28578" lon="-2.16618">
        <ele>-12.8</ele>
        <time>2021-05-29 11:59:59</time>
      </trkpt>
      <trkpt lat="43.28577" lon="-2.16623">
        <ele>-12.8</ele>
        <time>2021-05-29 12:00:00</time>
      </trkpt>
      <trkpt lat="43.28577" lon="-2.16628">
        <ele>-13</ele>
        <time>2021-05-29 12:00:01</time>
      </trkpt>
      <trkpt lat="43.28578" lon="-2.16633">
        <ele>-13</ele>
        <time>2021-05-29 12:00:02</time>
      </trkpt>
      <trkpt lat="43.28579" lon="-2.16639">
        <ele>-13</ele>
        <time>2021-05-29 12:00:03</time>
      </trkpt>
      <trkpt lat="43.28579" lon="-2.16645">
        <ele>-13</ele>
        <time>2021-05-29 12:00:04</time>
      </trkpt>
      <trkpt lat="43.2858" lon="-2.16652">
        <ele>-13.2</ele>
        <time>2021-05-29 12:00:05</time>
      </trkpt>
      <trkpt lat="43.28581" lon="-2.16658">
        <ele>-13.2</ele>
        <time>2021-05-29 12:00:06</time>
      </trkpt>
      <trkpt lat="43.28581" lon="-2.16665">
        <ele>-13.2</ele>
        <time>2021-05-29 12:00:07</time>
      </trkpt>
      <trkpt lat="43.28582" lon="-2.16673">
        <ele>-13.2</ele>
        <time>2021-05-29 12:00:08</time>
      </trkpt>
      <trkpt lat="43.28583" lon="-2.1668">
        <ele>-13.2</ele>
        <time>2021-05-29 12:00:09</time>
      </trkpt>
      <trkpt lat="43.28586" lon="-2.16688">
        <ele>-13.2</ele>
        <time>2021-05-29 12:00:10</time>
      </trkpt>
      <trkpt lat="43.28588" lon="-2.16694">
        <ele>-13.2</ele>
        <time>2021-05-29 12:00:11</time>
      </trkpt>
      <trkpt lat="43.28592" lon="-2.167">
        <ele>-13.2</ele>
        <time>2021-05-29 12:00:12</time>
      </trkpt>
      <trkpt lat="43.28595" lon="-2.16706">
        <ele>-13.2</ele>
        <time>2021-05-29 12:00:13</time>
      </trkpt>
      <trkpt lat="43.28596" lon="-2.16711">
        <ele>-13.4</ele>
        <time>2021-05-29 12:00:14</time>
      </trkpt>
      <trkpt lat="43.28596" lon="-2.16716">
        <ele>-13.4</ele>
        <time>2021-05-29 12:00:15</time>
      </trkpt>
      <trkpt lat="43.28596" lon="-2.16719">
        <ele>-13.4</ele>
        <time>2021-05-29 12:00:16</time>
      </trkpt>
      <trkpt lat="43.28594" lon="-2.16722">
        <ele>-13.4</ele>
        <time>2021-05-29 12:00:17</time>
      </trkpt>
      <trkpt lat="43.28593" lon="-2.16725">
        <ele>-13.4</ele>
        <time>2021-05-29 12:00:18</time>
      </trkpt>
      <trkpt lat="43.28592" lon="-2.16727">
        <ele>-13.4</ele>
        <time>2021-05-29 12:00:19</time>
      </trkpt>
      <trkpt lat="43.28591" lon="-2.16729">
        <ele>-13.4</ele>
        <time>2021-05-29 12:00:20</time>
      </trkpt>
      <trkpt lat="43.28591" lon="-2.16731">
        <ele>-13.6</ele>
        <time>2021-05-29 12:00:21</time>
      </trkpt>
      <trkpt lat="43.2859" lon="-2.16732">
        <ele>-13.6</ele>
        <time>2021-05-29 12:00:22</time>
      </trkpt>
      <trkpt lat="43.2859" lon="-2.16734">
        <ele>-13.6</ele>
        <time>2021-05-29 12:00:23</time>
      </trkpt>
      <trkpt lat="43.28589" lon="-2.16736">
        <ele>-13.6</ele>
        <time>2021-05-29 12:00:24</time>
      </trkpt>
      <trkpt lat="43.28589" lon="-2.16739">
        <ele>-13.6</ele>
        <time>2021-05-29 12:00:25</time>
      </trkpt>
      <trkpt lat="43.28588" lon="-2.16742">
        <ele>-13.6</ele>
        <time>2021-05-29 12:00:26</time>
      </trkpt>
      <trkpt lat="43.28587" lon="-2.16745">
        <ele>-13.6</ele>
        <time>2021-05-29 12:00:27</time>
      </trkpt>
      <trkpt lat="43.28587" lon="-2.16747">
        <ele>-13.6</ele>
        <time>2021-05-29 12:00:28</time>
      </trkpt>
      <trkpt lat="43.28586" lon="-2.16748">
        <ele>-13.6</ele>
        <time>2021-05-29 12:00:29</time>
      </trkpt>
      <trkpt lat="43.28586" lon="-2.1675">
        <ele>-13.6</ele>
        <time>2021-05-29 12:00:30</time>
      </trkpt>
      <trkpt lat="43.28586" lon="-2.16752">
        <ele>-13.6</ele>
        <time>2021-05-29 12:00:31</time>
      </trkpt>
      <trkpt lat="43.28586" lon="-2.16754">
        <ele>-13.8</ele>
        <time>2021-05-29 12:00:32</time>
      </trkpt>
      <trkpt lat="43.28586" lon="-2.16758">
        <ele>-14</ele>
        <time>2021-05-29 12:00:33</time>
      </trkpt>
      <trkpt lat="43.28586" lon="-2.16762">
        <ele>-14</ele>
        <time>2021-05-29 12:00:34</time>
      </trkpt>
      <trkpt lat="43.28587" lon="-2.16766">
        <ele>-14</ele>
        <time>2021-05-29 12:00:35</time>
      </trkpt>
      <trkpt lat="43.28588" lon="-2.16772">
        <ele>-13.8</ele>
        <time>2021-05-29 12:00:36</time>
      </trkpt>
      <trkpt lat="43.28588" lon="-2.16778">
        <ele>-13.8</ele>
        <time>2021-05-29 12:00:37</time>
      </trkpt>
      <trkpt lat="43.28589" lon="-2.16784">
        <ele>-13.8</ele>
        <time>2021-05-29 12:00:38</time>
      </trkpt>
      <trkpt lat="43.2859" lon="-2.16792">
        <ele>-13.8</ele>
        <time>2021-05-29 12:00:39</time>
      </trkpt>
      <trkpt lat="43.2859" lon="-2.168">
        <ele>-13.8</ele>
        <time>2021-05-29 12:00:40</time>
      </trkpt>
      <trkpt lat="43.28591" lon="-2.16808">
        <ele>-14</ele>
        <time>2021-05-29 12:00:41</time>
      </trkpt>
      <trkpt lat="43.28592" lon="-2.16816">
        <ele>-14</ele>
        <time>2021-05-29 12:00:42</time>
      </trkpt>
      <trkpt lat="43.28593" lon="-2.16825">
        <ele>-14</ele>
        <time>2021-05-29 12:00:43</time>
      </trkpt>
      <trkpt lat="43.28594" lon="-2.16833">
        <ele>-14</ele>
        <time>2021-05-29 12:00:44</time>
      </trkpt>
      <trkpt lat="43.28594" lon="-2.16842">
        <ele>-13.8</ele>
        <time>2021-05-29 12:00:45</time>
      </trkpt>
      <trkpt lat="43.28595" lon="-2.16851">
        <ele>-13.8</ele>
        <time>2021-05-29 12:00:46</time>
      </trkpt>
      <trkpt lat="43.28597" lon="-2.1686">
        <ele>-13.8</ele>
        <time>2021-05-29 12:00:47</time>
      </trkpt>
      <trkpt lat="43.28598" lon="-2.1687">
        <ele>-13.8</ele>
        <time>2021-05-29 12:00:48</time>
      </trkpt>
      <trkpt lat="43.28599" lon="-2.16879">
        <ele>-13.8</ele>
        <time>2021-05-29 12:00:49</time>
      </trkpt>
      <trkpt lat="43.286" lon="-2.16889">
        <ele>-13.8</ele>
        <time>2021-05-29 12:00:50</time>
      </trkpt>
      <trkpt lat="43.286" lon="-2.16899">
        <ele>-13.8</ele>
        <time>2021-05-29 12:00:51</time>
      </trkpt>
      <trkpt lat="43.28601" lon="-2.16909">
        <ele>-13.6</ele>
        <time>2021-05-29 12:00:52</time>
      </trkpt>
      <trkpt lat="43.28602" lon="-2.1692">
        <ele>-13.8</ele>
        <time>2021-05-29 12:00:53</time>
      </trkpt>
      <trkpt lat="43.28603" lon="-2.1693">
        <ele>-13.6</ele>
        <time>2021-05-29 12:00:54</time>
      </trkpt>
      <trkpt lat="43.28604" lon="-2.16941">
        <ele>-13.6</ele>
        <time>2021-05-29 12:00:55</time>
      </trkpt>
      <trkpt lat="43.28605" lon="-2.16952">
        <ele>-13.4</ele>
        <time>2021-05-29 12:00:56</time>
      </trkpt>
      <trkpt lat="43.28607" lon="-2.16963">
        <ele>-13.4</ele>
        <time>2021-05-29 12:00:57</time>
      </trkpt>
      <trkpt lat="43.28608" lon="-2.16973">
        <ele>-13.2</ele>
        <time>2021-05-29 12:00:58</time>
      </trkpt>
      <trkpt lat="43.28609" lon="-2.16983">
        <ele>-13.2</ele>
        <time>2021-05-29 12:00:59</time>
      </trkpt>
      <trkpt lat="43.2861" lon="-2.16994">
        <ele>-13.2</ele>
        <time>2021-05-29 12:01:00</time>
      </trkpt>
      <trkpt lat="43.28612" lon="-2.17005">
        <ele>-13.2</ele>
        <time>2021-05-29 12:01:01</time>
      </trkpt>
      <trkpt lat="43.28613" lon="-2.17016">
        <ele>-13.2</ele>
        <time>2021-05-29 12:01:02</time>
      </trkpt>
      <trkpt lat="43.28613" lon="-2.17027">
        <ele>-13.2</ele>
        <time>2021-05-29 12:01:03</time>
      </trkpt>
      <trkpt lat="43.28614" lon="-2.17039">
        <ele>-13</ele>
        <time>2021-05-29 12:01:04</time>
      </trkpt>
      <trkpt lat="43.28615" lon="-2.1705">
        <ele>-13</ele>
        <time>2021-05-29 12:01:05</time>
      </trkpt>
      <trkpt lat="43.28616" lon="-2.17061">
        <ele>-13</ele>
        <time>2021-05-29 12:01:06</time>
      </trkpt>
      <trkpt lat="43.28616" lon="-2.17072">
        <ele>-13</ele>
        <time>2021-05-29 12:01:07</time>
      </trkpt>
      <trkpt lat="43.28617" lon="-2.17083">
        <ele>-13</ele>
        <time>2021-05-29 12:01:08</time>
      </trkpt>
      <trkpt lat="43.28618" lon="-2.17095">
        <ele>-13</ele>
        <time>2021-05-29 12:01:09</time>
      </trkpt>
      <trkpt lat="43.2862" lon="-2.17106">
        <ele>-13</ele>
        <time>2021-05-29 12:01:10</time>
      </trkpt>
      <trkpt lat="43.28621" lon="-2.17117">
        <ele>-13</ele>
        <time>2021-05-29 12:01:11</time>
      </trkpt>
      <trkpt lat="43.28622" lon="-2.17128">
        <ele>-13</ele>
        <time>2021-05-29 12:01:12</time>
      </trkpt>
      <trkpt lat="43.28623" lon="-2.17139">
        <ele>-13</ele>
        <time>2021-05-29 12:01:13</time>
      </trkpt>
      <trkpt lat="43.28624" lon="-2.17151">
        <ele>-13</ele>
        <time>2021-05-29 12:01:14</time>
      </trkpt>
      <trkpt lat="43.28625" lon="-2.17161">
        <ele>-13</ele>
        <time>2021-05-29 12:01:15</time>
      </trkpt>
      <trkpt lat="43.28627" lon="-2.17171">
        <ele>-13</ele>
        <time>2021-05-29 12:01:16</time>
      </trkpt>
      <trkpt lat="43.28628" lon="-2.17181">
        <ele>-13</ele>
        <time>2021-05-29 12:01:17</time>
      </trkpt>
      <trkpt lat="43.28629" lon="-2.17191">
        <ele>-13</ele>
        <time>2021-05-29 12:01:18</time>
      </trkpt>
      <trkpt lat="43.2863" lon="-2.172">
        <ele>-13</ele>
        <time>2021-05-29 12:01:19</time>
      </trkpt>
      <trkpt lat="43.28632" lon="-2.17209">
        <ele>-13</ele>
        <time>2021-05-29 12:01:20</time>
      </trkpt>
      <trkpt lat="43.28634" lon="-2.17218">
        <ele>-13</ele>
        <time>2021-05-29 12:01:21</time>
      </trkpt>
      <trkpt lat="43.28636" lon="-2.17226">
        <ele>-13</ele>
        <time>2021-05-29 12:01:22</time>
      </trkpt>
      <trkpt lat="43.28638" lon="-2.17234">
        <ele>-13</ele>
        <time>2021-05-29 12:01:23</time>
      </trkpt>
      <trkpt lat="43.28639" lon="-2.17242">
        <ele>-13</ele>
        <time>2021-05-29 12:01:24</time>
      </trkpt>
      <trkpt lat="43.2864" lon="-2.1725">
        <ele>-13</ele>
        <time>2021-05-29 12:01:25</time>
      </trkpt>
      <trkpt lat="43.28641" lon="-2.17258">
        <ele>-13</ele>
        <time>2021-05-29 12:01:26</time>
      </trkpt>
      <trkpt lat="43.28643" lon="-2.17265">
        <ele>-13</ele>
        <time>2021-05-29 12:01:27</time>
      </trkpt>
      <trkpt lat="43.28644" lon="-2.17272">
        <ele>-13</ele>
        <time>2021-05-29 12:01:28</time>
      </trkpt>
      <trkpt lat="43.28646" lon="-2.17278">
        <ele>-13</ele>
        <time>2021-05-29 12:01:29</time>
      </trkpt>
      <trkpt lat="43.28647" lon="-2.17284">
        <ele>-13</ele>
        <time>2021-05-29 12:01:30</time>
      </trkpt>
      <trkpt lat="43.28648" lon="-2.17291">
        <ele>-13</ele>
        <time>2021-05-29 12:01:31</time>
      </trkpt>
      <trkpt lat="43.28649" lon="-2.17297">
        <ele>-13</ele>
        <time>2021-05-29 12:01:32</time>
      </trkpt>
      <trkpt lat="43.2865" lon="-2.17302">
        <ele>-13.2</ele>
        <time>2021-05-29 12:01:33</time>
      </trkpt>
      <trkpt lat="43.28651" lon="-2.17306">
        <ele>-13.2</ele>
        <time>2021-05-29 12:01:34</time>
      </trkpt>
      <trkpt lat="43.28651" lon="-2.17309">
        <ele>-13.2</ele>
        <time>2021-05-29 12:01:35</time>
      </trkpt>
      <trkpt lat="43.28651" lon="-2.17312">
        <ele>-13.2</ele>
        <time>2021-05-29 12:01:36</time>
      </trkpt>
      <trkpt lat="43.28651" lon="-2.17313">
        <ele>-13.4</ele>
        <time>2021-05-29 12:01:37</time>
      </trkpt>
      <trkpt lat="43.28651" lon="-2.17314">
        <ele>-13.4</ele>
        <time>2021-05-29 12:01:38</time>
      </trkpt>
      <trkpt lat="43.28651" lon="-2.17314">
        <ele>-13.4</ele>
        <time>2021-05-29 12:01:39</time>
      </trkpt>
      <trkpt lat="43.28652" lon="-2.17322">
        <ele>-14</ele>
        <time>2021-05-29 12:01:51</time>
      </trkpt>
      <trkpt lat="43.28653" lon="-2.17326">
        <ele>-14</ele>
        <time>2021-05-29 12:01:52</time>
      </trkpt>
      <trkpt lat="43.28654" lon="-2.1733">
        <ele>-14</ele>
        <time>2021-05-29 12:01:53</time>
      </trkpt>
      <trkpt lat="43.28654" lon="-2.17335">
        <ele>-14</ele>
        <time>2021-05-29 12:01:54</time>
      </trkpt>
      <trkpt lat="43.28655" lon="-2.1734">
        <ele>-14</ele>
        <time>2021-05-29 12:01:55</time>
      </trkpt>
      <trkpt lat="43.28656" lon="-2.17346">
        <ele>-14</ele>
        <time>2021-05-29 12:01:56</time>
      </trkpt>
      <trkpt lat="43.28657" lon="-2.17353">
        <ele>-14</ele>
        <time>2021-05-29 12:01:57</time>
      </trkpt>
      <trkpt lat="43.28658" lon="-2.1736">
        <ele>-14</ele>
        <time>2021-05-29 12:01:58</time>
      </trkpt>
      <trkpt lat="43.28658" lon="-2.17368">
        <ele>-14</ele>
        <time>2021-05-29 12:01:59</time>
      </trkpt>
      <trkpt lat="43.28659" lon="-2.17375">
        <ele>-14</ele>
        <time>2021-05-29 12:02:00</time>
      </trkpt>
      <trkpt lat="43.2866" lon="-2.17383">
        <ele>-14</ele>
        <time>2021-05-29 12:02:01</time>
      </trkpt>
      <trkpt lat="43.28661" lon="-2.1739">
        <ele>-14</ele>
        <time>2021-05-29 12:02:02</time>
      </trkpt>
      <trkpt lat="43.28662" lon="-2.17397">
        <ele>-14</ele>
        <time>2021-05-29 12:02:03</time>
      </trkpt>
      <trkpt lat="43.28663" lon="-2.17404">
        <ele>-14</ele>
        <time>2021-05-29 12:02:04</time>
      </trkpt>
      <trkpt lat="43.28663" lon="-2.17411">
        <ele>-14</ele>
        <time>2021-05-29 12:02:05</time>
      </trkpt>
      <trkpt lat="43.28664" lon="-2.17417">
        <ele>-14</ele>
        <time>2021-05-29 12:02:06</time>
      </trkpt>
      <trkpt lat="43.28665" lon="-2.17424">
        <ele>-14</ele>
        <time>2021-05-29 12:02:07</time>
      </trkpt>
      <trkpt lat="43.28665" lon="-2.17431">
        <ele>-14.2</ele>
        <time>2021-05-29 12:02:08</time>
      </trkpt>
      <trkpt lat="43.28666" lon="-2.17438">
        <ele>-14.2</ele>
        <time>2021-05-29 12:02:09</time>
      </trkpt>
      <trkpt lat="43.28667" lon="-2.17446">
        <ele>-14.2</ele>
        <time>2021-05-29 12:02:10</time>
      </trkpt>
      <trkpt lat="43.28667" lon="-2.17453">
        <ele>-14.2</ele>
        <time>2021-05-29 12:02:11</time>
      </trkpt>
      <trkpt lat="43.28668" lon="-2.17462">
        <ele>-14.2</ele>
        <time>2021-05-29 12:02:12</time>
      </trkpt>
      <trkpt lat="43.28668" lon="-2.1747">
        <ele>-14.2</ele>
        <time>2021-05-29 12:02:13</time>
      </trkpt>
      <trkpt lat="43.28668" lon="-2.1748">
        <ele>-14.2</ele>
        <time>2021-05-29 12:02:14</time>
      </trkpt>
      <trkpt lat="43.28669" lon="-2.17489">
        <ele>-14.2</ele>
        <time>2021-05-29 12:02:15</time>
      </trkpt>
      <trkpt lat="43.28669" lon="-2.17498">
        <ele>-14.4</ele>
        <time>2021-05-29 12:02:16</time>
      </trkpt>
      <trkpt lat="43.28669" lon="-2.17508">
        <ele>-14.4</ele>
        <time>2021-05-29 12:02:17</time>
      </trkpt>
      <trkpt lat="43.2867" lon="-2.17517">
        <ele>-14.4</ele>
        <time>2021-05-29 12:02:18</time>
      </trkpt>
      <trkpt lat="43.2867" lon="-2.17526">
        <ele>-14.4</ele>
        <time>2021-05-29 12:02:19</time>
      </trkpt>
      <trkpt lat="43.28669" lon="-2.17536">
        <ele>-14.4</ele>
        <time>2021-05-29 12:02:20</time>
      </trkpt>
      <trkpt lat="43.28669" lon="-2.17545">
        <ele>-14.6</ele>
        <time>2021-05-29 12:02:21</time>
      </trkpt>
      <trkpt lat="43.28668" lon="-2.17555">
        <ele>-14.6</ele>
        <time>2021-05-29 12:02:22</time>
      </trkpt>
      <trkpt lat="43.28668" lon="-2.17565">
        <ele>-14.6</ele>
        <time>2021-05-29 12:02:23</time>
      </trkpt>
      <trkpt lat="43.28667" lon="-2.17574">
        <ele>-14.6</ele>
        <time>2021-05-29 12:02:24</time>
      </trkpt>
      <trkpt lat="43.28667" lon="-2.17583">
        <ele>-14.6</ele>
        <time>2021-05-29 12:02:25</time>
      </trkpt>
      <trkpt lat="43.28666" lon="-2.17592">
        <ele>-14.8</ele>
        <time>2021-05-29 12:02:26</time>
      </trkpt>
      <trkpt lat="43.28665" lon="-2.17601">
        <ele>-14.8</ele>
        <time>2021-05-29 12:02:27</time>
      </trkpt>
      <trkpt lat="43.28664" lon="-2.17609">
        <ele>-14.8</ele>
        <time>2021-05-29 12:02:28</time>
      </trkpt>
      <trkpt lat="43.28663" lon="-2.17617">
        <ele>-14.8</ele>
        <time>2021-05-29 12:02:29</time>
      </trkpt>
      <trkpt lat="43.28662" lon="-2.17625">
        <ele>-14.8</ele>
        <time>2021-05-29 12:02:30</time>
      </trkpt>
      <trkpt lat="43.28661" lon="-2.17633">
        <ele>-14.8</ele>
        <time>2021-05-29 12:02:31</time>
      </trkpt>
      <trkpt lat="43.28661" lon="-2.17642">
        <ele>-14.8</ele>
        <time>2021-05-29 12:02:32</time>
      </trkpt>
      <trkpt lat="43.2866" lon="-2.1765">
        <ele>-14.8</ele>
        <time>2021-05-29 12:02:33</time>
      </trkpt>
      <trkpt lat="43.28658" lon="-2.17659">
        <ele>-14.8</ele>
        <time>2021-05-29 12:02:34</time>
      </trkpt>
      <trkpt lat="43.28657" lon="-2.17667">
        <ele>-14.8</ele>
        <time>2021-05-29 12:02:35</time>
      </trkpt>
      <trkpt lat="43.28656" lon="-2.17676">
        <ele>-14.8</ele>
        <time>2021-05-29 12:02:36</time>
      </trkpt>
      <trkpt lat="43.28655" lon="-2.17685">
        <ele>-15</ele>
        <time>2021-05-29 12:02:37</time>
      </trkpt>
      <trkpt lat="43.28655" lon="-2.17694">
        <ele>-14.8</ele>
        <time>2021-05-29 12:02:38</time>
      </trkpt>
      <trkpt lat="43.28654" lon="-2.17704">
        <ele>-15</ele>
        <time>2021-05-29 12:02:39</time>
      </trkpt>
      <trkpt lat="43.28655" lon="-2.17714">
        <ele>-15</ele>
        <time>2021-05-29 12:02:40</time>
      </trkpt>
      <trkpt lat="43.28655" lon="-2.17724">
        <ele>-15</ele>
        <time>2021-05-29 12:02:41</time>
      </trkpt>
      <trkpt lat="43.28657" lon="-2.17734">
        <ele>-15</ele>
        <time>2021-05-29 12:02:42</time>
      </trkpt>
      <trkpt lat="43.28659" lon="-2.17744">
        <ele>-15</ele>
        <time>2021-05-29 12:02:43</time>
      </trkpt>
      <trkpt lat="43.28663" lon="-2.17753">
        <ele>-15</ele>
        <time>2021-05-29 12:02:44</time>
      </trkpt>
      <trkpt lat="43.28668" lon="-2.17761">
        <ele>-15</ele>
        <time>2021-05-29 12:02:45</time>
      </trkpt>
      <trkpt lat="43.28674" lon="-2.17769">
        <ele>-15</ele>
        <time>2021-05-29 12:02:46</time>
      </trkpt>
      <trkpt lat="43.2868" lon="-2.17775">
        <ele>-15</ele>
        <time>2021-05-29 12:02:47</time>
      </trkpt>
      <trkpt lat="43.28687" lon="-2.1778">
        <ele>-15</ele>
        <time>2021-05-29 12:02:48</time>
      </trkpt>
      <trkpt lat="43.28694" lon="-2.17784">
        <ele>-15</ele>
        <time>2021-05-29 12:02:49</time>
      </trkpt>
      <trkpt lat="43.28702" lon="-2.17787">
        <ele>-15</ele>
        <time>2021-05-29 12:02:50</time>
      </trkpt>
      <trkpt lat="43.28709" lon="-2.17789">
        <ele>-15</ele>
        <time>2021-05-29 12:02:51</time>
      </trkpt>
      <trkpt lat="43.28717" lon="-2.17791">
        <ele>-15</ele>
        <time>2021-05-29 12:02:52</time>
      </trkpt>
      <trkpt lat="43.28724" lon="-2.17793">
        <ele>-14.8</ele>
        <time>2021-05-29 12:02:53</time>
      </trkpt>
      <trkpt lat="43.28731" lon="-2.17797">
        <ele>-14.6</ele>
        <time>2021-05-29 12:02:54</time>
      </trkpt>
      <trkpt lat="43.28738" lon="-2.17802">
        <ele>-14.6</ele>
        <time>2021-05-29 12:02:55</time>
      </trkpt>
      <trkpt lat="43.28744" lon="-2.17808">
        <ele>-14.6</ele>
        <time>2021-05-29 12:02:56</time>
      </trkpt>
      <trkpt lat="43.2875" lon="-2.17815">
        <ele>-14.6</ele>
        <time>2021-05-29 12:02:57</time>
      </trkpt>
      <trkpt lat="43.28756" lon="-2.17823">
        <ele>-14.4</ele>
        <time>2021-05-29 12:02:58</time>
      </trkpt>
      <trkpt lat="43.28763" lon="-2.17831">
        <ele>-14.4</ele>
        <time>2021-05-29 12:02:59</time>
      </trkpt>
      <trkpt lat="43.28769" lon="-2.1784">
        <ele>-14.4</ele>
        <time>2021-05-29 12:03:00</time>
      </trkpt>
      <trkpt lat="43.28776" lon="-2.17848">
        <ele>-14.4</ele>
        <time>2021-05-29 12:03:01</time>
      </trkpt>
      <trkpt lat="43.28783" lon="-2.17856">
        <ele>-14.4</ele>
        <time>2021-05-29 12:03:02</time>
      </trkpt>
      <trkpt lat="43.28791" lon="-2.17863">
        <ele>-14.4</ele>
        <time>2021-05-29 12:03:03</time>
      </trkpt>
      <trkpt lat="43.28799" lon="-2.17868">
        <ele>-14.4</ele>
        <time>2021-05-29 12:03:04</time>
      </trkpt>
      <trkpt lat="43.28807" lon="-2.17873">
        <ele>-14.4</ele>
        <time>2021-05-29 12:03:05</time>
      </trkpt>
      <trkpt lat="43.28816" lon="-2.17876">
        <ele>-14.8</ele>
        <time>2021-05-29 12:03:06</time>
      </trkpt>
      <trkpt lat="43.28825" lon="-2.17877">
        <ele>-14.8</ele>
        <time>2021-05-29 12:03:07</time>
      </trkpt>
      <trkpt lat="43.28835" lon="-2.17878">
        <ele>-15.2</ele>
        <time>2021-05-29 12:03:08</time>
      </trkpt>
      <trkpt lat="43.28844" lon="-2.17879">
        <ele>-15.6</ele>
        <time>2021-05-29 12:03:09</time>
      </trkpt>
      <trkpt lat="43.28853" lon="-2.1788">
        <ele>-15.8</ele>
        <time>2021-05-29 12:03:10</time>
      </trkpt>
      <trkpt lat="43.28861" lon="-2.17881">
        <ele>-16</ele>
        <time>2021-05-29 12:03:11</time>
      </trkpt>
      <trkpt lat="43.28869" lon="-2.17882">
        <ele>-16</ele>
        <time>2021-05-29 12:03:12</time>
      </trkpt>
      <trkpt lat="43.28876" lon="-2.17883">
        <ele>-16</ele>
        <time>2021-05-29 12:03:13</time>
      </trkpt>
      <trkpt lat="43.28883" lon="-2.17884">
        <ele>-16.2</ele>
        <time>2021-05-29 12:03:14</time>
      </trkpt>
      <trkpt lat="43.2889" lon="-2.17884">
        <ele>-16.2</ele>
        <time>2021-05-29 12:03:15</time>
      </trkpt>
      <trkpt lat="43.28898" lon="-2.17885">
        <ele>-16.2</ele>
        <time>2021-05-29 12:03:16</time>
      </trkpt>
      <trkpt lat="43.28905" lon="-2.17886">
        <ele>-16.2</ele>
        <time>2021-05-29 12:03:17</time>
      </trkpt>
      <trkpt lat="43.28913" lon="-2.17887">
        <ele>-16.2</ele>
        <time>2021-05-29 12:03:18</time>
      </trkpt>
      <trkpt lat="43.2892" lon="-2.17887">
        <ele>-16.2</ele>
        <time>2021-05-29 12:03:19</time>
      </trkpt>
      <trkpt lat="43.28928" lon="-2.17888">
        <ele>-16.2</ele>
        <time>2021-05-29 12:03:20</time>
      </trkpt>
      <trkpt lat="43.28936" lon="-2.17889">
        <ele>-16</ele>
        <time>2021-05-29 12:03:21</time>
      </trkpt>
      <trkpt lat="43.28944" lon="-2.1789">
        <ele>-16</ele>
        <time>2021-05-29 12:03:22</time>
      </trkpt>
      <trkpt lat="43.28952" lon="-2.17891">
        <ele>-16</ele>
        <time>2021-05-29 12:03:23</time>
      </trkpt>
      <trkpt lat="43.2896" lon="-2.17892">
        <ele>-16</ele>
        <time>2021-05-29 12:03:24</time>
      </trkpt>
      <trkpt lat="43.28968" lon="-2.17893">
        <ele>-16</ele>
        <time>2021-05-29 12:03:25</time>
      </trkpt>
      <trkpt lat="43.28976" lon="-2.17894">
        <ele>-15.8</ele>
        <time>2021-05-29 12:03:26</time>
      </trkpt>
      <trkpt lat="43.28984" lon="-2.17895">
        <ele>-15.6</ele>
        <time>2021-05-29 12:03:27</time>
      </trkpt>
      <trkpt lat="43.28992" lon="-2.17896">
        <ele>-15.4</ele>
        <time>2021-05-29 12:03:28</time>
      </trkpt>
      <trkpt lat="43.29" lon="-2.17897">
        <ele>-15.4</ele>
        <time>2021-05-29 12:03:29</time>
      </trkpt>
      <trkpt lat="43.29008" lon="-2.17898">
        <ele>-15.2</ele>
        <time>2021-05-29 12:03:30</time>
      </trkpt>
      <trkpt lat="43.29016" lon="-2.17899">
        <ele>-15.2</ele>
        <time>2021-05-29 12:03:31</time>
      </trkpt>
      <trkpt lat="43.29024" lon="-2.179">
        <ele>-15</ele>
        <time>2021-05-29 12:03:32</time>
      </trkpt>
      <trkpt lat="43.29032" lon="-2.179">
        <ele>-15</ele>
        <time>2021-05-29 12:03:33</time>
      </trkpt>
      <trkpt lat="43.2904" lon="-2.179">
        <ele>-15</ele>
        <time>2021-05-29 12:03:34</time>
      </trkpt>
      <trkpt lat="43.29049" lon="-2.17899">
        <ele>-14.8</ele>
        <time>2021-05-29 12:03:35</time>
      </trkpt>
      <trkpt lat="43.29057" lon="-2.17898">
        <ele>-14.6</ele>
        <time>2021-05-29 12:03:36</time>
      </trkpt>
      <trkpt lat="43.29065" lon="-2.17897">
        <ele>-14.4</ele>
        <time>2021-05-29 12:03:37</time>
      </trkpt>
      <trkpt lat="43.29073" lon="-2.17896">
        <ele>-14.4</ele>
        <time>2021-05-29 12:03:38</time>
      </trkpt>
      <trkpt lat="43.29081" lon="-2.17895">
        <ele>-14.2</ele>
        <time>2021-05-29 12:03:39</time>
      </trkpt>
      <trkpt lat="43.29088" lon="-2.17894">
        <ele>-14.2</ele>
        <time>2021-05-29 12:03:40</time>
      </trkpt>
      <trkpt lat="43.29095" lon="-2.17893">
        <ele>-14</ele>
        <time>2021-05-29 12:03:41</time>
      </trkpt>
      <trkpt lat="43.29101" lon="-2.17893">
        <ele>-14</ele>
        <time>2021-05-29 12:03:42</time>
      </trkpt>
      <trkpt lat="43.29106" lon="-2.17892">
        <ele>-14</ele>
        <time>2021-05-29 12:03:43</time>
      </trkpt>
      <trkpt lat="43.29112" lon="-2.17894">
        <ele>-13.8</ele>
        <time>2021-05-29 12:03:44</time>
      </trkpt>
      <trkpt lat="43.29117" lon="-2.17898">
        <ele>-13.8</ele>
        <time>2021-05-29 12:03:45</time>
      </trkpt>
      <trkpt lat="43.29122" lon="-2.17903">
        <ele>-13.6</ele>
        <time>2021-05-29 12:03:46</time>
      </trkpt>
      <trkpt lat="43.29126" lon="-2.17911">
        <ele>-13.4</ele>
        <time>2021-05-29 12:03:47</time>
      </trkpt>
      <trkpt lat="43.29129" lon="-2.17918">
        <ele>-13</ele>
        <time>2021-05-29 12:03:48</time>
      </trkpt>
      <trkpt lat="43.29132" lon="-2.17925">
        <ele>-12.8</ele>
        <time>2021-05-29 12:03:49</time>
      </trkpt>
      <trkpt lat="43.29135" lon="-2.17933">
        <ele>-12.6</ele>
        <time>2021-05-29 12:03:50</time>
      </trkpt>
      <trkpt lat="43.29138" lon="-2.17941">
        <ele>-12</ele>
        <time>2021-05-29 12:03:51</time>
      </trkpt>
      <trkpt lat="43.29142" lon="-2.17949">
        <ele>-11.8</ele>
        <time>2021-05-29 12:03:52</time>
      </trkpt>
      <trkpt lat="43.29145" lon="-2.17957">
        <ele>-11.6</ele>
        <time>2021-05-29 12:03:53</time>
      </trkpt>
      <trkpt lat="43.29148" lon="-2.17966">
        <ele>-11.4</ele>
        <time>2021-05-29 12:03:54</time>
      </trkpt>
      <trkpt lat="43.29152" lon="-2.17974">
        <ele>-11.2</ele>
        <time>2021-05-29 12:03:55</time>
      </trkpt>
      <trkpt lat="43.29155" lon="-2.17982">
        <ele>-11.2</ele>
        <time>2021-05-29 12:03:56</time>
      </trkpt>
      <trkpt lat="43.29159" lon="-2.1799">
        <ele>-11.2</ele>
        <time>2021-05-29 12:03:57</time>
      </trkpt>
      <trkpt lat="43.29162" lon="-2.17999">
        <ele>-11.2</ele>
        <time>2021-05-29 12:03:58</time>
      </trkpt>
      <trkpt lat="43.29164" lon="-2.18007">
        <ele>-11.2</ele>
        <time>2021-05-29 12:03:59</time>
      </trkpt>
      <trkpt lat="43.29167" lon="-2.18016">
        <ele>-11.2</ele>
        <time>2021-05-29 12:04:00</time>
      </trkpt>
      <trkpt lat="43.29168" lon="-2.18026">
        <ele>-11</ele>
        <time>2021-05-29 12:04:01</time>
      </trkpt>
      <trkpt lat="43.2917" lon="-2.18035">
        <ele>-11</ele>
        <time>2021-05-29 12:04:02</time>
      </trkpt>
      <trkpt lat="43.29172" lon="-2.18045">
        <ele>-11</ele>
        <time>2021-05-29 12:04:03</time>
      </trkpt>
      <trkpt lat="43.29173" lon="-2.18054">
        <ele>-11</ele>
        <time>2021-05-29 12:04:04</time>
      </trkpt>
      <trkpt lat="43.29175" lon="-2.18064">
        <ele>-11.2</ele>
        <time>2021-05-29 12:04:05</time>
      </trkpt>
      <trkpt lat="43.29177" lon="-2.18074">
        <ele>-11.2</ele>
        <time>2021-05-29 12:04:06</time>
      </trkpt>
      <trkpt lat="43.2918" lon="-2.18084">
        <ele>-11.2</ele>
        <time>2021-05-29 12:04:07</time>
      </trkpt>
      <trkpt lat="43.29183" lon="-2.18094">
        <ele>-11.2</ele>
        <time>2021-05-29 12:04:08</time>
      </trkpt>
      <trkpt lat="43.29188" lon="-2.18103">
        <ele>-11.2</ele>
        <time>2021-05-29 12:04:09</time>
      </trkpt>
      <trkpt lat="43.29193" lon="-2.18111">
        <ele>-11.4</ele>
        <time>2021-05-29 12:04:10</time>
      </trkpt>
      <trkpt lat="43.29199" lon="-2.18118">
        <ele>-11.4</ele>
        <time>2021-05-29 12:04:11</time>
      </trkpt>
      <trkpt lat="43.29205" lon="-2.18124">
        <ele>-11.4</ele>
        <time>2021-05-29 12:04:12</time>
      </trkpt>
      <trkpt lat="43.29212" lon="-2.18129">
        <ele>-11.4</ele>
        <time>2021-05-29 12:04:13</time>
      </trkpt>
      <trkpt lat="43.2922" lon="-2.18134">
        <ele>-11.4</ele>
        <time>2021-05-29 12:04:14</time>
      </trkpt>
      <trkpt lat="43.29227" lon="-2.1814">
        <ele>-11.4</ele>
        <time>2021-05-29 12:04:15</time>
      </trkpt>
      <trkpt lat="43.29234" lon="-2.18145">
        <ele>-11.4</ele>
        <time>2021-05-29 12:04:16</time>
      </trkpt>
      <trkpt lat="43.29242" lon="-2.18151">
        <ele>-11.6</ele>
        <time>2021-05-29 12:04:17</time>
      </trkpt>
      <trkpt lat="43.29249" lon="-2.18157">
        <ele>-11.6</ele>
        <time>2021-05-29 12:04:18</time>
      </trkpt>
      <trkpt lat="43.29257" lon="-2.18163">
        <ele>-11.8</ele>
        <time>2021-05-29 12:04:19</time>
      </trkpt>
      <trkpt lat="43.29264" lon="-2.18169">
        <ele>-11.8</ele>
        <time>2021-05-29 12:04:20</time>
      </trkpt>
      <trkpt lat="43.29271" lon="-2.18177">
        <ele>-11.6</ele>
        <time>2021-05-29 12:04:21</time>
      </trkpt>
      <trkpt lat="43.29277" lon="-2.18184">
        <ele>-11.8</ele>
        <time>2021-05-29 12:04:22</time>
      </trkpt>
      <trkpt lat="43.29283" lon="-2.18192">
        <ele>-11.8</ele>
        <time>2021-05-29 12:04:23</time>
      </trkpt>
      <trkpt lat="43.29289" lon="-2.182">
        <ele>-11.6</ele>
        <time>2021-05-29 12:04:24</time>
      </trkpt>
      <trkpt lat="43.29295" lon="-2.18209">
        <ele>-11.8</ele>
        <time>2021-05-29 12:04:25</time>
      </trkpt>
      <trkpt lat="43.29301" lon="-2.18217">
        <ele>-11.8</ele>
        <time>2021-05-29 12:04:26</time>
      </trkpt>
      <trkpt lat="43.29307" lon="-2.18226">
        <ele>-11.8</ele>
        <time>2021-05-29 12:04:27</time>
      </trkpt>
      <trkpt lat="43.29313" lon="-2.18234">
        <ele>-11.6</ele>
        <time>2021-05-29 12:04:28</time>
      </trkpt>
      <trkpt lat="43.29319" lon="-2.18243">
        <ele>-11.6</ele>
        <time>2021-05-29 12:04:29</time>
      </trkpt>
      <trkpt lat="43.29324" lon="-2.18252">
        <ele>-11.6</ele>
        <time>2021-05-29 12:04:30</time>
      </trkpt>
      <trkpt lat="43.2933" lon="-2.1826">
        <ele>-11.6</ele>
        <time>2021-05-29 12:04:31</time>
      </trkpt>
      <trkpt lat="43.29336" lon="-2.18269">
        <ele>-11.6</ele>
        <time>2021-05-29 12:04:32</time>
      </trkpt>
      <trkpt lat="43.29342" lon="-2.18278">
        <ele>-11.6</ele>
        <time>2021-05-29 12:04:33</time>
      </trkpt>
      <trkpt lat="43.29348" lon="-2.18286">
        <ele>-11.6</ele>
        <time>2021-05-29 12:04:34</time>
      </trkpt>
      <trkpt lat="43.29354" lon="-2.18295">
        <ele>-11.6</ele>
        <time>2021-05-29 12:04:35</time>
      </trkpt>
      <trkpt lat="43.29359" lon="-2.18303">
        <ele>-11.6</ele>
        <time>2021-05-29 12:04:36</time>
      </trkpt>
      <trkpt lat="43.29365" lon="-2.18312">
        <ele>-11.6</ele>
        <time>2021-05-29 12:04:37</time>
      </trkpt>
      <trkpt lat="43.29371" lon="-2.1832">
        <ele>-11.4</ele>
        <time>2021-05-29 12:04:38</time>
      </trkpt>
      <trkpt lat="43.29377" lon="-2.18329">
        <ele>-11.4</ele>
        <time>2021-05-29 12:04:39</time>
      </trkpt>
      <trkpt lat="43.29382" lon="-2.18337">
        <ele>-11.2</ele>
        <time>2021-05-29 12:04:40</time>
      </trkpt>
      <trkpt lat="43.29388" lon="-2.18345">
        <ele>-11.2</ele>
        <time>2021-05-29 12:04:41</time>
      </trkpt>
      <trkpt lat="43.29393" lon="-2.18353">
        <ele>-11.2</ele>
        <time>2021-05-29 12:04:42</time>
      </trkpt>
      <trkpt lat="43.29398" lon="-2.18362">
        <ele>-11.2</ele>
        <time>2021-05-29 12:04:43</time>
      </trkpt>
      <trkpt lat="43.29404" lon="-2.1837">
        <ele>-11.2</ele>
        <time>2021-05-29 12:04:44</time>
      </trkpt>
      <trkpt lat="43.29408" lon="-2.18379">
        <ele>-11.2</ele>
        <time>2021-05-29 12:04:45</time>
      </trkpt>
      <trkpt lat="43.29411" lon="-2.18388">
        <ele>-11.2</ele>
        <time>2021-05-29 12:04:46</time>
      </trkpt>
      <trkpt lat="43.29412" lon="-2.18399">
        <ele>-11.2</ele>
        <time>2021-05-29 12:04:47</time>
      </trkpt>
      <trkpt lat="43.29412" lon="-2.1841">
        <ele>-11.2</ele>
        <time>2021-05-29 12:04:48</time>
      </trkpt>
      <trkpt lat="43.29409" lon="-2.18421">
        <ele>-11.2</ele>
        <time>2021-05-29 12:04:49</time>
      </trkpt>
      <trkpt lat="43.29405" lon="-2.1843">
        <ele>-11.2</ele>
        <time>2021-05-29 12:04:50</time>
      </trkpt>
      <trkpt lat="43.294" lon="-2.18438">
        <ele>-11.2</ele>
        <time>2021-05-29 12:04:51</time>
      </trkpt>
      <trkpt lat="43.29395" lon="-2.18445">
        <ele>-11.2</ele>
        <time>2021-05-29 12:04:52</time>
      </trkpt>
      <trkpt lat="43.29389" lon="-2.18453">
        <ele>-11.2</ele>
        <time>2021-05-29 12:04:53</time>
      </trkpt>
      <trkpt lat="43.29383" lon="-2.1846">
        <ele>-11.2</ele>
        <time>2021-05-29 12:04:54</time>
      </trkpt>
      <trkpt lat="43.29376" lon="-2.18467">
        <ele>-11.2</ele>
        <time>2021-05-29 12:04:55</time>
      </trkpt>
      <trkpt lat="43.29369" lon="-2.18475">
        <ele>-11.2</ele>
        <time>2021-05-29 12:04:56</time>
      </trkpt>
      <trkpt lat="43.29362" lon="-2.18483">
        <ele>-11.4</ele>
        <time>2021-05-29 12:04:57</time>
      </trkpt>
      <trkpt lat="43.29355" lon="-2.1849">
        <ele>-11.8</ele>
        <time>2021-05-29 12:04:58</time>
      </trkpt>
      <trkpt lat="43.29348" lon="-2.18498">
        <ele>-12.2</ele>
        <time>2021-05-29 12:04:59</time>
      </trkpt>
      <trkpt lat="43.29342" lon="-2.18505">
        <ele>-12.6</ele>
        <time>2021-05-29 12:05:00</time>
      </trkpt>
      <trkpt lat="43.29335" lon="-2.18513">
        <ele>-12.8</ele>
        <time>2021-05-29 12:05:01</time>
      </trkpt>
      <trkpt lat="43.29328" lon="-2.1852">
        <ele>-13.2</ele>
        <time>2021-05-29 12:05:02</time>
      </trkpt>
      <trkpt lat="43.29321" lon="-2.18528">
        <ele>-13.4</ele>
        <time>2021-05-29 12:05:03</time>
      </trkpt>
      <trkpt lat="43.29314" lon="-2.18536">
        <ele>-13.6</ele>
        <time>2021-05-29 12:05:04</time>
      </trkpt>
      <trkpt lat="43.29307" lon="-2.18544">
        <ele>-14</ele>
        <time>2021-05-29 12:05:05</time>
      </trkpt>
      <trkpt lat="43.293" lon="-2.18552">
        <ele>-14.2</ele>
        <time>2021-05-29 12:05:06</time>
      </trkpt>
      <trkpt lat="43.29294" lon="-2.1856">
        <ele>-14.2</ele>
        <time>2021-05-29 12:05:07</time>
      </trkpt>
      <trkpt lat="43.29289" lon="-2.1857">
        <ele>-14.4</ele>
        <time>2021-05-29 12:05:08</time>
      </trkpt>
      <trkpt lat="43.29284" lon="-2.18581">
        <ele>-14.6</ele>
        <time>2021-05-29 12:05:09</time>
      </trkpt>
      <trkpt lat="43.2928" lon="-2.18593">
        <ele>-14.6</ele>
        <time>2021-05-29 12:05:10</time>
      </trkpt>
      <trkpt lat="43.29276" lon="-2.18604">
        <ele>-14.6</ele>
        <time>2021-05-29 12:05:11</time>
      </trkpt>
      <trkpt lat="43.29273" lon="-2.18616">
        <ele>-14.6</ele>
        <time>2021-05-29 12:05:12</time>
      </trkpt>
      <trkpt lat="43.29269" lon="-2.18628">
        <ele>-14.6</ele>
        <time>2021-05-29 12:05:13</time>
      </trkpt>
      <trkpt lat="43.29266" lon="-2.18639">
        <ele>-14.8</ele>
        <time>2021-05-29 12:05:14</time>
      </trkpt>
      <trkpt lat="43.29263" lon="-2.18651">
        <ele>-14.8</ele>
        <time>2021-05-29 12:05:15</time>
      </trkpt>
      <trkpt lat="43.29259" lon="-2.18663">
        <ele>-14.8</ele>
        <time>2021-05-29 12:05:16</time>
      </trkpt>
      <trkpt lat="43.29256" lon="-2.18675">
        <ele>-14.8</ele>
        <time>2021-05-29 12:05:17</time>
      </trkpt>
      <trkpt lat="43.29253" lon="-2.18687">
        <ele>-15</ele>
        <time>2021-05-29 12:05:18</time>
      </trkpt>
      <trkpt lat="43.29251" lon="-2.187">
        <ele>-15</ele>
        <time>2021-05-29 12:05:19</time>
      </trkpt>
      <trkpt lat="43.2925" lon="-2.18713">
        <ele>-15</ele>
        <time>2021-05-29 12:05:20</time>
      </trkpt>
      <trkpt lat="43.29251" lon="-2.18726">
        <ele>-15</ele>
        <time>2021-05-29 12:05:21</time>
      </trkpt>
      <trkpt lat="43.29252" lon="-2.1874">
        <ele>-15</ele>
        <time>2021-05-29 12:05:22</time>
      </trkpt>
      <trkpt lat="43.29252" lon="-2.18753">
        <ele>-15</ele>
        <time>2021-05-29 12:05:23</time>
      </trkpt>
      <trkpt lat="43.29254" lon="-2.18766">
        <ele>-15</ele>
        <time>2021-05-29 12:05:24</time>
      </trkpt>
      <trkpt lat="43.29255" lon="-2.18779">
        <ele>-15</ele>
        <time>2021-05-29 12:05:25</time>
      </trkpt>
      <trkpt lat="43.29255" lon="-2.18792">
        <ele>-15</ele>
        <time>2021-05-29 12:05:26</time>
      </trkpt>
      <trkpt lat="43.29254" lon="-2.18805">
        <ele>-15</ele>
        <time>2021-05-29 12:05:27</time>
      </trkpt>
      <trkpt lat="43.29252" lon="-2.18818">
        <ele>-14.8</ele>
        <time>2021-05-29 12:05:28</time>
      </trkpt>
      <trkpt lat="43.29249" lon="-2.18831">
        <ele>-15</ele>
        <time>2021-05-29 12:05:29</time>
      </trkpt>
      <trkpt lat="43.29245" lon="-2.18843">
        <ele>-15</ele>
        <time>2021-05-29 12:05:30</time>
      </trkpt>
      <trkpt lat="43.29239" lon="-2.18854">
        <ele>-15</ele>
        <time>2021-05-29 12:05:31</time>
      </trkpt>
      <trkpt lat="43.29233" lon="-2.18864">
        <ele>-14.8</ele>
        <time>2021-05-29 12:05:32</time>
      </trkpt>
      <trkpt lat="43.29227" lon="-2.18875">
        <ele>-14.8</ele>
        <time>2021-05-29 12:05:33</time>
      </trkpt>
      <trkpt lat="43.29221" lon="-2.18885">
        <ele>-14.8</ele>
        <time>2021-05-29 12:05:34</time>
      </trkpt>
      <trkpt lat="43.29215" lon="-2.18897">
        <ele>-14.8</ele>
        <time>2021-05-29 12:05:35</time>
      </trkpt>
      <trkpt lat="43.2921" lon="-2.18908">
        <ele>-14.8</ele>
        <time>2021-05-29 12:05:36</time>
      </trkpt>
      <trkpt lat="43.29206" lon="-2.18921">
        <ele>-14.8</ele>
        <time>2021-05-29 12:05:37</time>
      </trkpt>
      <trkpt lat="43.29204" lon="-2.18935">
        <ele>-14.8</ele>
        <time>2021-05-29 12:05:38</time>
      </trkpt>
      <trkpt lat="43.29203" lon="-2.18948">
        <ele>-14.8</ele>
        <time>2021-05-29 12:05:39</time>
      </trkpt>
      <trkpt lat="43.29202" lon="-2.18962">
        <ele>-14.8</ele>
        <time>2021-05-29 12:05:40</time>
      </trkpt>
      <trkpt lat="43.29204" lon="-2.18976">
        <ele>-14.8</ele>
        <time>2021-05-29 12:05:41</time>
      </trkpt>
      <trkpt lat="43.29207" lon="-2.18988">
        <ele>-14.8</ele>
        <time>2021-05-29 12:05:42</time>
      </trkpt>
      <trkpt lat="43.29211" lon="-2.19001">
        <ele>-14.8</ele>
        <time>2021-05-29 12:05:43</time>
      </trkpt>
      <trkpt lat="43.29217" lon="-2.19011">
        <ele>-14.8</ele>
        <time>2021-05-29 12:05:44</time>
      </trkpt>
      <trkpt lat="43.29224" lon="-2.19021">
        <ele>-14.8</ele>
        <time>2021-05-29 12:05:45</time>
      </trkpt>
      <trkpt lat="43.29233" lon="-2.19029">
        <ele>-14.8</ele>
        <time>2021-05-29 12:05:46</time>
      </trkpt>
      <trkpt lat="43.29241" lon="-2.19036">
        <ele>-14.8</ele>
        <time>2021-05-29 12:05:47</time>
      </trkpt>
      <trkpt lat="43.2925" lon="-2.19043">
        <ele>-14.8</ele>
        <time>2021-05-29 12:05:48</time>
      </trkpt>
      <trkpt lat="43.29259" lon="-2.19049">
        <ele>-14.8</ele>
        <time>2021-05-29 12:05:49</time>
      </trkpt>
      <trkpt lat="43.29267" lon="-2.19056">
        <ele>-14.8</ele>
        <time>2021-05-29 12:05:50</time>
      </trkpt>
      <trkpt lat="43.29275" lon="-2.19063">
        <ele>-14.8</ele>
        <time>2021-05-29 12:05:51</time>
      </trkpt>
      <trkpt lat="43.29284" lon="-2.1907">
        <ele>-14.8</ele>
        <time>2021-05-29 12:05:52</time>
      </trkpt>
      <trkpt lat="43.29292" lon="-2.19077">
        <ele>-14.8</ele>
        <time>2021-05-29 12:05:53</time>
      </trkpt>
      <trkpt lat="43.293" lon="-2.19083">
        <ele>-14.8</ele>
        <time>2021-05-29 12:05:54</time>
      </trkpt>
      <trkpt lat="43.29309" lon="-2.19089">
        <ele>-14.8</ele>
        <time>2021-05-29 12:05:55</time>
      </trkpt>
      <trkpt lat="43.29317" lon="-2.19095">
        <ele>-14.8</ele>
        <time>2021-05-29 12:05:56</time>
      </trkpt>
      <trkpt lat="43.29325" lon="-2.19101">
        <ele>-14.8</ele>
        <time>2021-05-29 12:05:57</time>
      </trkpt>
      <trkpt lat="43.29333" lon="-2.19107">
        <ele>-14.8</ele>
        <time>2021-05-29 12:05:58</time>
      </trkpt>
      <trkpt lat="43.29341" lon="-2.19112">
        <ele>-14.8</ele>
        <time>2021-05-29 12:05:59</time>
      </trkpt>
      <trkpt lat="43.2935" lon="-2.19116">
        <ele>-14.6</ele>
        <time>2021-05-29 12:06:00</time>
      </trkpt>
      <trkpt lat="43.29359" lon="-2.19119">
        <ele>-14.6</ele>
        <time>2021-05-29 12:06:01</time>
      </trkpt>
      <trkpt lat="43.29369" lon="-2.19121">
        <ele>-14.6</ele>
        <time>2021-05-29 12:06:02</time>
      </trkpt>
      <trkpt lat="43.29379" lon="-2.19123">
        <ele>-14.6</ele>
        <time>2021-05-29 12:06:03</time>
      </trkpt>
      <trkpt lat="43.29388" lon="-2.19123">
        <ele>-14.6</ele>
        <time>2021-05-29 12:06:04</time>
      </trkpt>
      <trkpt lat="43.29398" lon="-2.19124">
        <ele>-14.6</ele>
        <time>2021-05-29 12:06:05</time>
      </trkpt>
      <trkpt lat="43.29407" lon="-2.19125">
        <ele>-14.6</ele>
        <time>2021-05-29 12:06:06</time>
      </trkpt>
      <trkpt lat="43.29416" lon="-2.19126">
        <ele>-14.6</ele>
        <time>2021-05-29 12:06:07</time>
      </trkpt>
      <trkpt lat="43.29425" lon="-2.19126">
        <ele>-14.6</ele>
        <time>2021-05-29 12:06:08</time>
      </trkpt>
      <trkpt lat="43.29434" lon="-2.19127">
        <ele>-14.4</ele>
        <time>2021-05-29 12:06:09</time>
      </trkpt>
      <trkpt lat="43.29443" lon="-2.19128">
        <ele>-14.4</ele>
        <time>2021-05-29 12:06:10</time>
      </trkpt>
      <trkpt lat="43.29452" lon="-2.19129">
        <ele>-14.4</ele>
        <time>2021-05-29 12:06:11</time>
      </trkpt>
      <trkpt lat="43.29461" lon="-2.1913">
        <ele>-14.4</ele>
        <time>2021-05-29 12:06:12</time>
      </trkpt>
      <trkpt lat="43.2947" lon="-2.19131">
        <ele>-14.4</ele>
        <time>2021-05-29 12:06:13</time>
      </trkpt>
      <trkpt lat="43.29478" lon="-2.19134">
        <ele>-14.4</ele>
        <time>2021-05-29 12:06:14</time>
      </trkpt>
      <trkpt lat="43.29486" lon="-2.19138">
        <ele>-14.4</ele>
        <time>2021-05-29 12:06:15</time>
      </trkpt>
      <trkpt lat="43.29494" lon="-2.19143">
        <ele>-14.4</ele>
        <time>2021-05-29 12:06:16</time>
      </trkpt>
      <trkpt lat="43.29502" lon="-2.1915">
        <ele>-14.4</ele>
        <time>2021-05-29 12:06:17</time>
      </trkpt>
      <trkpt lat="43.29509" lon="-2.19157">
        <ele>-14.4</ele>
        <time>2021-05-29 12:06:18</time>
      </trkpt>
      <trkpt lat="43.29516" lon="-2.19165">
        <ele>-14.4</ele>
        <time>2021-05-29 12:06:19</time>
      </trkpt>
      <trkpt lat="43.29522" lon="-2.19173">
        <ele>-14.4</ele>
        <time>2021-05-29 12:06:20</time>
      </trkpt>
      <trkpt lat="43.29528" lon="-2.19181">
        <ele>-14.4</ele>
        <time>2021-05-29 12:06:21</time>
      </trkpt>
      <trkpt lat="43.29534" lon="-2.1919">
        <ele>-14.4</ele>
        <time>2021-05-29 12:06:22</time>
      </trkpt>
      <trkpt lat="43.29541" lon="-2.19198">
        <ele>-14.4</ele>
        <time>2021-05-29 12:06:23</time>
      </trkpt>
      <trkpt lat="43.29548" lon="-2.19205">
        <ele>-14.4</ele>
        <time>2021-05-29 12:06:24</time>
      </trkpt>
      <trkpt lat="43.29556" lon="-2.1921">
        <ele>-14.4</ele>
        <time>2021-05-29 12:06:25</time>
      </trkpt>
      <trkpt lat="43.29564" lon="-2.19214">
        <ele>-14.6</ele>
        <time>2021-05-29 12:06:26</time>
      </trkpt>
      <trkpt lat="43.29573" lon="-2.19217">
        <ele>-14.4</ele>
        <time>2021-05-29 12:06:27</time>
      </trkpt>
      <trkpt lat="43.29583" lon="-2.1922">
        <ele>-14.4</ele>
        <time>2021-05-29 12:06:28</time>
      </trkpt>
      <trkpt lat="43.29592" lon="-2.19223">
        <ele>-14.4</ele>
        <time>2021-05-29 12:06:29</time>
      </trkpt>
      <trkpt lat="43.29601" lon="-2.19226">
        <ele>-14.4</ele>
        <time>2021-05-29 12:06:30</time>
      </trkpt>
      <trkpt lat="43.2961" lon="-2.19229">
        <ele>-14.4</ele>
        <time>2021-05-29 12:06:31</time>
      </trkpt>
      <trkpt lat="43.2962" lon="-2.19232">
        <ele>-14.4</ele>
        <time>2021-05-29 12:06:32</time>
      </trkpt>
      <trkpt lat="43.29629" lon="-2.19235">
        <ele>-14.4</ele>
        <time>2021-05-29 12:06:33</time>
      </trkpt>
      <trkpt lat="43.29638" lon="-2.19238">
        <ele>-14.4</ele>
        <time>2021-05-29 12:06:34</time>
      </trkpt>
      <trkpt lat="43.29647" lon="-2.19241">
        <ele>-14.4</ele>
        <time>2021-05-29 12:06:35</time>
      </trkpt>
      <trkpt lat="43.29656" lon="-2.19241">
        <ele>-14.4</ele>
        <time>2021-05-29 12:06:36</time>
      </trkpt>
      <trkpt lat="43.29665" lon="-2.1924">
        <ele>-14.4</ele>
        <time>2021-05-29 12:06:37</time>
      </trkpt>
      <trkpt lat="43.29675" lon="-2.19238">
        <ele>-14.2</ele>
        <time>2021-05-29 12:06:38</time>
      </trkpt>
      <trkpt lat="43.29684" lon="-2.19237">
        <ele>-14.2</ele>
        <time>2021-05-29 12:06:39</time>
      </trkpt>
      <trkpt lat="43.29693" lon="-2.19235">
        <ele>-14.2</ele>
        <time>2021-05-29 12:06:40</time>
      </trkpt>
      <trkpt lat="43.29702" lon="-2.19234">
        <ele>-14.2</ele>
        <time>2021-05-29 12:06:41</time>
      </trkpt>
      <trkpt lat="43.29712" lon="-2.19232">
        <ele>-14.2</ele>
        <time>2021-05-29 12:06:42</time>
      </trkpt>
      <trkpt lat="43.29721" lon="-2.19231">
        <ele>-14.2</ele>
        <time>2021-05-29 12:06:43</time>
      </trkpt>
      <trkpt lat="43.2973" lon="-2.19229">
        <ele>-14.2</ele>
        <time>2021-05-29 12:06:44</time>
      </trkpt>
      <trkpt lat="43.29739" lon="-2.19227">
        <ele>-14</ele>
        <time>2021-05-29 12:06:45</time>
      </trkpt>
      <trkpt lat="43.29748" lon="-2.19226">
        <ele>-14</ele>
        <time>2021-05-29 12:06:46</time>
      </trkpt>
      <trkpt lat="43.29757" lon="-2.19225">
        <ele>-14</ele>
        <time>2021-05-29 12:06:47</time>
      </trkpt>
      <trkpt lat="43.29766" lon="-2.19223">
        <ele>-14</ele>
        <time>2021-05-29 12:06:48</time>
      </trkpt>
      <trkpt lat="43.29775" lon="-2.19221">
        <ele>-13.8</ele>
        <time>2021-05-29 12:06:49</time>
      </trkpt>
      <trkpt lat="43.29784" lon="-2.1922">
        <ele>-13.8</ele>
        <time>2021-05-29 12:06:50</time>
      </trkpt>
      <trkpt lat="43.29792" lon="-2.19218">
        <ele>-13.8</ele>
        <time>2021-05-29 12:06:51</time>
      </trkpt>
      <trkpt lat="43.29801" lon="-2.19217">
        <ele>-13.6</ele>
        <time>2021-05-29 12:06:52</time>
      </trkpt>
      <trkpt lat="43.29809" lon="-2.19216">
        <ele>-13.6</ele>
        <time>2021-05-29 12:06:53</time>
      </trkpt>
      <trkpt lat="43.29817" lon="-2.19218">
        <ele>-13.6</ele>
        <time>2021-05-29 12:06:54</time>
      </trkpt>
      <trkpt lat="43.29825" lon="-2.1922">
        <ele>-13.6</ele>
        <time>2021-05-29 12:06:55</time>
      </trkpt>
      <trkpt lat="43.29833" lon="-2.19225">
        <ele>-13.4</ele>
        <time>2021-05-29 12:06:56</time>
      </trkpt>
      <trkpt lat="43.2984" lon="-2.19231">
        <ele>-13.2</ele>
        <time>2021-05-29 12:06:57</time>
      </trkpt>
      <trkpt lat="43.29847" lon="-2.19238">
        <ele>-13</ele>
        <time>2021-05-29 12:06:58</time>
      </trkpt>
      <trkpt lat="43.29854" lon="-2.19246">
        <ele>-13</ele>
        <time>2021-05-29 12:06:59</time>
      </trkpt>
      <trkpt lat="43.29859" lon="-2.19255">
        <ele>-12.8</ele>
        <time>2021-05-29 12:07:00</time>
      </trkpt>
      <trkpt lat="43.29864" lon="-2.19265">
        <ele>-12.6</ele>
        <time>2021-05-29 12:07:01</time>
      </trkpt>
      <trkpt lat="43.29869" lon="-2.19275">
        <ele>-12.2</ele>
        <time>2021-05-29 12:07:02</time>
      </trkpt>
      <trkpt lat="43.29873" lon="-2.19286">
        <ele>-12</ele>
        <time>2021-05-29 12:07:03</time>
      </trkpt>
      <trkpt lat="43.29878" lon="-2.19296">
        <ele>-11.8</ele>
        <time>2021-05-29 12:07:04</time>
      </trkpt>
      <trkpt lat="43.29882" lon="-2.19307">
        <ele>-11.6</ele>
        <time>2021-05-29 12:07:05</time>
      </trkpt>
      <trkpt lat="43.29886" lon="-2.19317">
        <ele>-11.4</ele>
        <time>2021-05-29 12:07:06</time>
      </trkpt>
      <trkpt lat="43.2989" lon="-2.19327">
        <ele>-11.2</ele>
        <time>2021-05-29 12:07:07</time>
      </trkpt>
      <trkpt lat="43.29894" lon="-2.19337">
        <ele>-11.2</ele>
        <time>2021-05-29 12:07:08</time>
      </trkpt>
      <trkpt lat="43.29898" lon="-2.19348">
        <ele>-11</ele>
        <time>2021-05-29 12:07:09</time>
      </trkpt>
      <trkpt lat="43.29902" lon="-2.19358">
        <ele>-11</ele>
        <time>2021-05-29 12:07:10</time>
      </trkpt>
      <trkpt lat="43.29906" lon="-2.19368">
        <ele>-11</ele>
        <time>2021-05-29 12:07:11</time>
      </trkpt>
      <trkpt lat="43.2991" lon="-2.19377">
        <ele>-10.8</ele>
        <time>2021-05-29 12:07:12</time>
      </trkpt>
      <trkpt lat="43.29914" lon="-2.19387">
        <ele>-10.8</ele>
        <time>2021-05-29 12:07:13</time>
      </trkpt>
      <trkpt lat="43.29917" lon="-2.19396">
        <ele>-10.8</ele>
        <time>2021-05-29 12:07:14</time>
      </trkpt>
      <trkpt lat="43.2992" lon="-2.19405">
        <ele>-10.8</ele>
        <time>2021-05-29 12:07:15</time>
      </trkpt>
      <trkpt lat="43.29921" lon="-2.19414">
        <ele>-10.6</ele>
        <time>2021-05-29 12:07:16</time>
      </trkpt>
      <trkpt lat="43.29922" lon="-2.19424">
        <ele>-10.4</ele>
        <time>2021-05-29 12:07:17</time>
      </trkpt>
      <trkpt lat="43.29921" lon="-2.19433">
        <ele>-10.2</ele>
        <time>2021-05-29 12:07:18</time>
      </trkpt>
      <trkpt lat="43.2992" lon="-2.19442">
        <ele>-9.8</ele>
        <time>2021-05-29 12:07:19</time>
      </trkpt>
      <trkpt lat="43.29918" lon="-2.19451">
        <ele>-9.6</ele>
        <time>2021-05-29 12:07:20</time>
      </trkpt>
      <trkpt lat="43.29916" lon="-2.19461">
        <ele>-9.4</ele>
        <time>2021-05-29 12:07:21</time>
      </trkpt>
      <trkpt lat="43.29913" lon="-2.1947">
        <ele>-9.2</ele>
        <time>2021-05-29 12:07:22</time>
      </trkpt>
      <trkpt lat="43.2991" lon="-2.1948">
        <ele>-9.2</ele>
        <time>2021-05-29 12:07:23</time>
      </trkpt>
      <trkpt lat="43.29907" lon="-2.1949">
        <ele>-9</ele>
        <time>2021-05-29 12:07:24</time>
      </trkpt>
      <trkpt lat="43.29904" lon="-2.195">
        <ele>-9</ele>
        <time>2021-05-29 12:07:25</time>
      </trkpt>
      <trkpt lat="43.29901" lon="-2.19509">
        <ele>-8.8</ele>
        <time>2021-05-29 12:07:26</time>
      </trkpt>
      <trkpt lat="43.29899" lon="-2.19518">
        <ele>-8.8</ele>
        <time>2021-05-29 12:07:27</time>
      </trkpt>
      <trkpt lat="43.29896" lon="-2.19528">
        <ele>-8.6</ele>
        <time>2021-05-29 12:07:28</time>
      </trkpt>
      <trkpt lat="43.29894" lon="-2.19536">
        <ele>-8.6</ele>
        <time>2021-05-29 12:07:29</time>
      </trkpt>
      <trkpt lat="43.29891" lon="-2.19545">
        <ele>-8.6</ele>
        <time>2021-05-29 12:07:30</time>
      </trkpt>
      <trkpt lat="43.29888" lon="-2.19555">
        <ele>-8.6</ele>
        <time>2021-05-29 12:07:31</time>
      </trkpt>
      <trkpt lat="43.29886" lon="-2.19564">
        <ele>-8.6</ele>
        <time>2021-05-29 12:07:32</time>
      </trkpt>
      <trkpt lat="43.29883" lon="-2.19574">
        <ele>-8.4</ele>
        <time>2021-05-29 12:07:33</time>
      </trkpt>
      <trkpt lat="43.2988" lon="-2.19583">
        <ele>-8.4</ele>
        <time>2021-05-29 12:07:34</time>
      </trkpt>
      <trkpt lat="43.29877" lon="-2.19593">
        <ele>-8.4</ele>
        <time>2021-05-29 12:07:35</time>
      </trkpt>
      <trkpt lat="43.29874" lon="-2.19603">
        <ele>-8.2</ele>
        <time>2021-05-29 12:07:36</time>
      </trkpt>
      <trkpt lat="43.29872" lon="-2.19613">
        <ele>-8.2</ele>
        <time>2021-05-29 12:07:37</time>
      </trkpt>
      <trkpt lat="43.2987" lon="-2.19623">
        <ele>-8</ele>
        <time>2021-05-29 12:07:38</time>
      </trkpt>
      <trkpt lat="43.29868" lon="-2.19633">
        <ele>-8</ele>
        <time>2021-05-29 12:07:39</time>
      </trkpt>
      <trkpt lat="43.29867" lon="-2.19643">
        <ele>-7.8</ele>
        <time>2021-05-29 12:07:40</time>
      </trkpt>
      <trkpt lat="43.29865" lon="-2.19653">
        <ele>-7.6</ele>
        <time>2021-05-29 12:07:41</time>
      </trkpt>
      <trkpt lat="43.29864" lon="-2.19663">
        <ele>-7.6</ele>
        <time>2021-05-29 12:07:42</time>
      </trkpt>
      <trkpt lat="43.29863" lon="-2.19674">
        <ele>-7.6</ele>
        <time>2021-05-29 12:07:43</time>
      </trkpt>
      <trkpt lat="43.29862" lon="-2.19684">
        <ele>-7.4</ele>
        <time>2021-05-29 12:07:44</time>
      </trkpt>
      <trkpt lat="43.29862" lon="-2.19694">
        <ele>-7.2</ele>
        <time>2021-05-29 12:07:45</time>
      </trkpt>
      <trkpt lat="43.29861" lon="-2.19705">
        <ele>-7.2</ele>
        <time>2021-05-29 12:07:46</time>
      </trkpt>
      <trkpt lat="43.29861" lon="-2.19715">
        <ele>-7.2</ele>
        <time>2021-05-29 12:07:47</time>
      </trkpt>
      <trkpt lat="43.29862" lon="-2.19725">
        <ele>-7</ele>
        <time>2021-05-29 12:07:48</time>
      </trkpt>
      <trkpt lat="43.29862" lon="-2.19735">
        <ele>-6.8</ele>
        <time>2021-05-29 12:07:49</time>
      </trkpt>
      <trkpt lat="43.29863" lon="-2.19745">
        <ele>-6.6</ele>
        <time>2021-05-29 12:07:50</time>
      </trkpt>
      <trkpt lat="43.29864" lon="-2.19755">
        <ele>-6.4</ele>
        <time>2021-05-29 12:07:51</time>
      </trkpt>
      <trkpt lat="43.29865" lon="-2.19765">
        <ele>-6.2</ele>
        <time>2021-05-29 12:07:52</time>
      </trkpt>
      <trkpt lat="43.29866" lon="-2.19775">
        <ele>-6.2</ele>
        <time>2021-05-29 12:07:53</time>
      </trkpt>
      <trkpt lat="43.29867" lon="-2.19786">
        <ele>-6</ele>
        <time>2021-05-29 12:07:54</time>
      </trkpt>
      <trkpt lat="43.29869" lon="-2.19796">
        <ele>-6</ele>
        <time>2021-05-29 12:07:55</time>
      </trkpt>
      <trkpt lat="43.29872" lon="-2.19806">
        <ele>-5.8</ele>
        <time>2021-05-29 12:07:56</time>
      </trkpt>
      <trkpt lat="43.29874" lon="-2.19816">
        <ele>-5.6</ele>
        <time>2021-05-29 12:07:57</time>
      </trkpt>
      <trkpt lat="43.29877" lon="-2.19825">
        <ele>-5.4</ele>
        <time>2021-05-29 12:07:58</time>
      </trkpt>
      <trkpt lat="43.29879" lon="-2.19835">
        <ele>-5.4</ele>
        <time>2021-05-29 12:07:59</time>
      </trkpt>
      <trkpt lat="43.29882" lon="-2.19844">
        <ele>-5.2</ele>
        <time>2021-05-29 12:08:00</time>
      </trkpt>
      <trkpt lat="43.29884" lon="-2.19854">
        <ele>-5.2</ele>
        <time>2021-05-29 12:08:01</time>
      </trkpt>
      <trkpt lat="43.29886" lon="-2.19863">
        <ele>-5.2</ele>
        <time>2021-05-29 12:08:02</time>
      </trkpt>
      <trkpt lat="43.29889" lon="-2.19872">
        <ele>-5</ele>
        <time>2021-05-29 12:08:03</time>
      </trkpt>
      <trkpt lat="43.29891" lon="-2.19881">
        <ele>-4.8</ele>
        <time>2021-05-29 12:08:04</time>
      </trkpt>
      <trkpt lat="43.29893" lon="-2.1989">
        <ele>-4.8</ele>
        <time>2021-05-29 12:08:05</time>
      </trkpt>
      <trkpt lat="43.29896" lon="-2.19899">
        <ele>-4.6</ele>
        <time>2021-05-29 12:08:06</time>
      </trkpt>
      <trkpt lat="43.29898" lon="-2.19908">
        <ele>-4.4</ele>
        <time>2021-05-29 12:08:07</time>
      </trkpt>
      <trkpt lat="43.29901" lon="-2.19917">
        <ele>-4.4</ele>
        <time>2021-05-29 12:08:08</time>
      </trkpt>
      <trkpt lat="43.29903" lon="-2.19927">
        <ele>-4.2</ele>
        <time>2021-05-29 12:08:09</time>
      </trkpt>
      <trkpt lat="43.29905" lon="-2.19936">
        <ele>-4.2</ele>
        <time>2021-05-29 12:08:10</time>
      </trkpt>
      <trkpt lat="43.29908" lon="-2.19946">
        <ele>-4</ele>
        <time>2021-05-29 12:08:11</time>
      </trkpt>
      <trkpt lat="43.2991" lon="-2.19955">
        <ele>-3.8</ele>
        <time>2021-05-29 12:08:12</time>
      </trkpt>
      <trkpt lat="43.29913" lon="-2.19964">
        <ele>-3.6</ele>
        <time>2021-05-29 12:08:13</time>
      </trkpt>
      <trkpt lat="43.29916" lon="-2.19973">
        <ele>-3.4</ele>
        <time>2021-05-29 12:08:14</time>
      </trkpt>
      <trkpt lat="43.2992" lon="-2.19982">
        <ele>-3.4</ele>
        <time>2021-05-29 12:08:15</time>
      </trkpt>
      <trkpt lat="43.29924" lon="-2.1999">
        <ele>-3.2</ele>
        <time>2021-05-29 12:08:16</time>
      </trkpt>
      <trkpt lat="43.29929" lon="-2.19998">
        <ele>-3</ele>
        <time>2021-05-29 12:08:17</time>
      </trkpt>
      <trkpt lat="43.29934" lon="-2.20005">
        <ele>-2.8</ele>
        <time>2021-05-29 12:08:18</time>
      </trkpt>
      <trkpt lat="43.29939" lon="-2.20012">
        <ele>-2.6</ele>
        <time>2021-05-29 12:08:19</time>
      </trkpt>
      <trkpt lat="43.29944" lon="-2.20019">
        <ele>-2.6</ele>
        <time>2021-05-29 12:08:20</time>
      </trkpt>
      <trkpt lat="43.29949" lon="-2.20026">
        <ele>-2.4</ele>
        <time>2021-05-29 12:08:21</time>
      </trkpt>
      <trkpt lat="43.29954" lon="-2.20032">
        <ele>-2.2</ele>
        <time>2021-05-29 12:08:22</time>
      </trkpt>
      <trkpt lat="43.29959" lon="-2.20038">
        <ele>-2</ele>
        <time>2021-05-29 12:08:23</time>
      </trkpt>
      <trkpt lat="43.29964" lon="-2.20045">
        <ele>-1.8</ele>
        <time>2021-05-29 12:08:24</time>
      </trkpt>
      <trkpt lat="43.2997" lon="-2.20051">
        <ele>-1.8</ele>
        <time>2021-05-29 12:08:25</time>
      </trkpt>
      <trkpt lat="43.29975" lon="-2.20058">
        <ele>-1.6</ele>
        <time>2021-05-29 12:08:26</time>
      </trkpt>
      <trkpt lat="43.2998" lon="-2.20064">
        <ele>-1.6</ele>
        <time>2021-05-29 12:08:27</time>
      </trkpt>
      <trkpt lat="43.29985" lon="-2.2007">
        <ele>-1.4</ele>
        <time>2021-05-29 12:08:28</time>
      </trkpt>
      <trkpt lat="43.2999" lon="-2.20076">
        <ele>-1.2</ele>
        <time>2021-05-29 12:08:29</time>
      </trkpt>
      <trkpt lat="43.29994" lon="-2.20083">
        <ele>-1</ele>
        <time>2021-05-29 12:08:30</time>
      </trkpt>
      <trkpt lat="43.29999" lon="-2.20089">
        <ele>-0.8</ele>
        <time>2021-05-29 12:08:31</time>
      </trkpt>
      <trkpt lat="43.30004" lon="-2.20095">
        <ele>-0.4</ele>
        <time>2021-05-29 12:08:32</time>
      </trkpt>
      <trkpt lat="43.30009" lon="-2.20101">
        <ele>-0.2</ele>
        <time>2021-05-29 12:08:33</time>
      </trkpt>
      <trkpt lat="43.30013" lon="-2.20108">
        <ele>-0.2</ele>
        <time>2021-05-29 12:08:34</time>
      </trkpt>
      <trkpt lat="43.30018" lon="-2.20114">
        <ele>-0.2</ele>
        <time>2021-05-29 12:08:35</time>
      </trkpt>
      <trkpt lat="43.30023" lon="-2.2012">
        <time>2021-05-29 12:08:36</time>
      </trkpt>
      <trkpt lat="43.30027" lon="-2.20127">
        <time>2021-05-29 12:08:37</time>
      </trkpt>
      <trkpt lat="43.30032" lon="-2.20135">
        <time>2021-05-29 12:08:38</time>
      </trkpt>
      <trkpt lat="43.30035" lon="-2.20143">
        <ele>0.2</ele>
        <time>2021-05-29 12:08:39</time>
      </trkpt>
      <trkpt lat="43.30039" lon="-2.20152">
        <ele>0.2</ele>
        <time>2021-05-29 12:08:40</time>
      </trkpt>
      <trkpt lat="43.30043" lon="-2.20161">
        <ele>0.4</ele>
        <time>2021-05-29 12:08:41</time>
      </trkpt>
      <trkpt lat="43.30046" lon="-2.2017">
        <ele>0.6</ele>
        <time>2021-05-29 12:08:42</time>
      </trkpt>
      <trkpt lat="43.3005" lon="-2.20178">
        <ele>0.6</ele>
        <time>2021-05-29 12:08:43</time>
      </trkpt>
      <trkpt lat="43.30054" lon="-2.20187">
        <ele>0.8</ele>
        <time>2021-05-29 12:08:44</time>
      </trkpt>
      <trkpt lat="43.30058" lon="-2.20195">
        <ele>1.2</ele>
        <time>2021-05-29 12:08:45</time>
      </trkpt>
      <trkpt lat="43.30062" lon="-2.20204">
        <ele>1.2</ele>
        <time>2021-05-29 12:08:46</time>
      </trkpt>
      <trkpt lat="43.30066" lon="-2.20213">
        <ele>1.2</ele>
        <time>2021-05-29 12:08:47</time>
      </trkpt>
      <trkpt lat="43.3007" lon="-2.20222">
        <ele>1.2</ele>
        <time>2021-05-29 12:08:48</time>
      </trkpt>
      <trkpt lat="43.30074" lon="-2.20231">
        <ele>1.4</ele>
        <time>2021-05-29 12:08:49</time>
      </trkpt>
      <trkpt lat="43.30078" lon="-2.2024">
        <ele>1.4</ele>
        <time>2021-05-29 12:08:50</time>
      </trkpt>
      <trkpt lat="43.30082" lon="-2.20249">
        <ele>1.4</ele>
        <time>2021-05-29 12:08:51</time>
      </trkpt>
      <trkpt lat="43.30085" lon="-2.20257">
        <ele>1.6</ele>
        <time>2021-05-29 12:08:52</time>
      </trkpt>
      <trkpt lat="43.30089" lon="-2.20265">
        <ele>1.8</ele>
        <time>2021-05-29 12:08:53</time>
      </trkpt>
      <trkpt lat="43.30093" lon="-2.20273">
        <ele>2</ele>
        <time>2021-05-29 12:08:54</time>
      </trkpt>
      <trkpt lat="43.30097" lon="-2.2028">
        <ele>2</ele>
        <time>2021-05-29 12:08:55</time>
      </trkpt>
      <trkpt lat="43.30102" lon="-2.20287">
        <ele>2.2</ele>
        <time>2021-05-29 12:08:56</time>
      </trkpt>
      <trkpt lat="43.30107" lon="-2.20294">
        <ele>2.2</ele>
        <time>2021-05-29 12:08:57</time>
      </trkpt>
      <trkpt lat="43.30113" lon="-2.20299">
        <ele>2.2</ele>
        <time>2021-05-29 12:08:58</time>
      </trkpt>
      <trkpt lat="43.30119" lon="-2.20304">
        <ele>2.6</ele>
        <time>2021-05-29 12:08:59</time>
      </trkpt>
      <trkpt lat="43.30125" lon="-2.20308">
        <ele>2.8</ele>
        <time>2021-05-29 12:09:00</time>
      </trkpt>
      <trkpt lat="43.30132" lon="-2.20312">
        <ele>3</ele>
        <time>2021-05-29 12:09:01</time>
      </trkpt>
      <trkpt lat="43.30138" lon="-2.20315">
        <ele>3.2</ele>
        <time>2021-05-29 12:09:02</time>
      </trkpt>
      <trkpt lat="43.30144" lon="-2.20319">
        <ele>3.4</ele>
        <time>2021-05-29 12:09:03</time>
      </trkpt>
      <trkpt lat="43.3015" lon="-2.20322">
        <ele>3.8</ele>
        <time>2021-05-29 12:09:04</time>
      </trkpt>
      <trkpt lat="43.30155" lon="-2.20326">
        <ele>4.2</ele>
        <time>2021-05-29 12:09:05</time>
      </trkpt>
      <trkpt lat="43.3016" lon="-2.20328">
        <ele>4.8</ele>
        <time>2021-05-29 12:09:06</time>
      </trkpt>
      <trkpt lat="43.30165" lon="-2.20331">
        <ele>5</ele>
        <time>2021-05-29 12:09:07</time>
      </trkpt>
      <trkpt lat="43.3017" lon="-2.20334">
        <ele>5.2</ele>
        <time>2021-05-29 12:09:08</time>
      </trkpt>
      <trkpt lat="43.30174" lon="-2.20336">
        <ele>5.4</ele>
        <time>2021-05-29 12:09:09</time>
      </trkpt>
      <trkpt lat="43.30179" lon="-2.20339">
        <ele>5.4</ele>
        <time>2021-05-29 12:09:10</time>
      </trkpt>
      <trkpt lat="43.30183" lon="-2.20341">
        <ele>5.6</ele>
        <time>2021-05-29 12:09:11</time>
      </trkpt>
      <trkpt lat="43.30186" lon="-2.20342">
        <ele>5.6</ele>
        <time>2021-05-29 12:09:12</time>
      </trkpt>
      <trkpt lat="43.30189" lon="-2.20344">
        <ele>5.8</ele>
        <time>2021-05-29 12:09:13</time>
      </trkpt>
      <trkpt lat="43.30192" lon="-2.20346">
        <ele>5.8</ele>
        <time>2021-05-29 12:09:14</time>
      </trkpt>
      <trkpt lat="43.30194" lon="-2.20347">
        <ele>5.8</ele>
        <time>2021-05-29 12:09:15</time>
      </trkpt>
      <trkpt lat="43.30196" lon="-2.20348">
        <ele>5.8</ele>
        <time>2021-05-29 12:09:16</time>
      </trkpt>
      <trkpt lat="43.30198" lon="-2.20349">
        <ele>6</ele>
        <time>2021-05-29 12:09:17</time>
      </trkpt>
      <trkpt lat="43.302" lon="-2.20349">
        <ele>6</ele>
        <time>2021-05-29 12:09:18</time>
      </trkpt>
      <trkpt lat="43.30201" lon="-2.2035">
        <ele>6</ele>
        <time>2021-05-29 12:09:19</time>
      </trkpt>
      <trkpt lat="43.30202" lon="-2.20351">
        <ele>6.2</ele>
        <time>2021-05-29 12:09:20</time>
      </trkpt>
      <trkpt lat="43.30203" lon="-2.20352">
        <ele>6.2</ele>
        <time>2021-05-29 12:09:21</time>
      </trkpt>
      <trkpt lat="43.30205" lon="-2.20353">
        <ele>6.4</ele>
        <time>2021-05-29 12:09:22</time>
      </trkpt>
      <trkpt lat="43.30207" lon="-2.20355">
        <ele>6.4</ele>
        <time>2021-05-29 12:09:23</time>
      </trkpt>
      <trkpt lat="43.30211" lon="-2.20356">
        <ele>6.4</ele>
        <time>2021-05-29 12:09:24</time>
      </trkpt>
      <trkpt lat="43.30215" lon="-2.20358">
        <ele>6.6</ele>
        <time>2021-05-29 12:09:25</time>
      </trkpt>
      <trkpt lat="43.30219" lon="-2.20361">
        <ele>6.6</ele>
        <time>2021-05-29 12:09:26</time>
      </trkpt>
      <trkpt lat="43.30224" lon="-2.20363">
        <ele>6.6</ele>
        <time>2021-05-29 12:09:27</time>
      </trkpt>
      <trkpt lat="43.30229" lon="-2.20365">
        <ele>6.6</ele>
        <time>2021-05-29 12:09:28</time>
      </trkpt>
      <trkpt lat="43.30234" lon="-2.20368">
        <ele>6.6</ele>
        <time>2021-05-29 12:09:29</time>
      </trkpt>
      <trkpt lat="43.3024" lon="-2.20371">
        <ele>6.6</ele>
        <time>2021-05-29 12:09:30</time>
      </trkpt>
      <trkpt lat="43.30245" lon="-2.20375">
        <ele>6.6</ele>
        <time>2021-05-29 12:09:31</time>
      </trkpt>
      <trkpt lat="43.30251" lon="-2.20379">
        <ele>6.6</ele>
        <time>2021-05-29 12:09:32</time>
      </trkpt>
      <trkpt lat="43.30257" lon="-2.20383">
        <ele>6.8</ele>
        <time>2021-05-29 12:09:33</time>
      </trkpt>
      <trkpt lat="43.30263" lon="-2.20388">
        <ele>6.8</ele>
        <time>2021-05-29 12:09:34</time>
      </trkpt>
      <trkpt lat="43.30268" lon="-2.20394">
        <ele>6.8</ele>
        <time>2021-05-29 12:09:35</time>
      </trkpt>
      <trkpt lat="43.30273" lon="-2.20401">
        <ele>6.8</ele>
        <time>2021-05-29 12:09:36</time>
      </trkpt>
      <trkpt lat="43.30277" lon="-2.20409">
        <ele>6.8</ele>
        <time>2021-05-29 12:09:37</time>
      </trkpt>
      <trkpt lat="43.30281" lon="-2.20416">
        <ele>6.8</ele>
        <time>2021-05-29 12:09:38</time>
      </trkpt>
      <trkpt lat="43.30285" lon="-2.20425">
        <ele>6.8</ele>
        <time>2021-05-29 12:09:39</time>
      </trkpt>
      <trkpt lat="43.30289" lon="-2.20434">
        <ele>6.8</ele>
        <time>2021-05-29 12:09:40</time>
      </trkpt>
      <trkpt lat="43.30293" lon="-2.20444">
        <ele>6.8</ele>
        <time>2021-05-29 12:09:41</time>
      </trkpt>
      <trkpt lat="43.30296" lon="-2.20453">
        <ele>6.8</ele>
        <time>2021-05-29 12:09:42</time>
      </trkpt>
      <trkpt lat="43.303" lon="-2.20462">
        <ele>6.8</ele>
        <time>2021-05-29 12:09:43</time>
      </trkpt>
      <trkpt lat="43.30303" lon="-2.20472">
        <ele>6.8</ele>
        <time>2021-05-29 12:09:44</time>
      </trkpt>
      <trkpt lat="43.30306" lon="-2.20482">
        <ele>6.8</ele>
        <time>2021-05-29 12:09:45</time>
      </trkpt>
      <trkpt lat="43.30309" lon="-2.20491">
        <ele>6.6</ele>
        <time>2021-05-29 12:09:46</time>
      </trkpt>
      <trkpt lat="43.30312" lon="-2.20501">
        <ele>6.4</ele>
        <time>2021-05-29 12:09:47</time>
      </trkpt>
      <trkpt lat="43.30315" lon="-2.20512">
        <ele>6.4</ele>
        <time>2021-05-29 12:09:48</time>
      </trkpt>
      <trkpt lat="43.30317" lon="-2.20523">
        <ele>6.2</ele>
        <time>2021-05-29 12:09:49</time>
      </trkpt>
      <trkpt lat="43.30318" lon="-2.20534">
        <ele>6.2</ele>
        <time>2021-05-29 12:09:50</time>
      </trkpt>
      <trkpt lat="43.30319" lon="-2.20546">
        <ele>6.2</ele>
        <time>2021-05-29 12:09:51</time>
      </trkpt>
      <trkpt lat="43.30319" lon="-2.20558">
        <ele>6</ele>
        <time>2021-05-29 12:09:52</time>
      </trkpt>
      <trkpt lat="43.30317" lon="-2.2057">
        <ele>5.8</ele>
        <time>2021-05-29 12:09:53</time>
      </trkpt>
      <trkpt lat="43.30315" lon="-2.20582">
        <ele>5.6</ele>
        <time>2021-05-29 12:09:54</time>
      </trkpt>
      <trkpt lat="43.30313" lon="-2.20595">
        <ele>5.2</ele>
        <time>2021-05-29 12:09:55</time>
      </trkpt>
      <trkpt lat="43.30311" lon="-2.20608">
        <ele>5</ele>
        <time>2021-05-29 12:09:56</time>
      </trkpt>
      <trkpt lat="43.3031" lon="-2.20622">
        <ele>4.6</ele>
        <time>2021-05-29 12:09:57</time>
      </trkpt>
      <trkpt lat="43.3031" lon="-2.20638">
        <ele>4.2</ele>
        <time>2021-05-29 12:09:58</time>
      </trkpt>
      <trkpt lat="43.30312" lon="-2.20654">
        <ele>3.8</ele>
        <time>2021-05-29 12:09:59</time>
      </trkpt>
      <trkpt lat="43.30315" lon="-2.20671">
        <ele>3.2</ele>
        <time>2021-05-29 12:10:00</time>
      </trkpt>
      <trkpt lat="43.3032" lon="-2.20687">
        <ele>2.4</ele>
        <time>2021-05-29 12:10:01</time>
      </trkpt>
      <trkpt lat="43.30328" lon="-2.20702">
        <ele>2</ele>
        <time>2021-05-29 12:10:02</time>
      </trkpt>
      <trkpt lat="43.30336" lon="-2.20717">
        <ele>0.8</ele>
        <time>2021-05-29 12:10:03</time>
      </trkpt>
      <trkpt lat="43.30345" lon="-2.2073">
        <ele>0.4</ele>
        <time>2021-05-29 12:10:04</time>
      </trkpt>
      <trkpt lat="43.30356" lon="-2.20743">
        <ele>-0.2</ele>
        <time>2021-05-29 12:10:05</time>
      </trkpt>
      <trkpt lat="43.30367" lon="-2.20754">
        <ele>-0.6</ele>
        <time>2021-05-29 12:10:06</time>
      </trkpt>
      <trkpt lat="43.30377" lon="-2.20765">
        <ele>-1.2</ele>
        <time>2021-05-29 12:10:07</time>
      </trkpt>
      <trkpt lat="43.30388" lon="-2.20775">
        <ele>-1.8</ele>
        <time>2021-05-29 12:10:08</time>
      </trkpt>
      <trkpt lat="43.30398" lon="-2.20786">
        <ele>-2.4</ele>
        <time>2021-05-29 12:10:09</time>
      </trkpt>
      <trkpt lat="43.30409" lon="-2.20796">
        <ele>-3</ele>
        <time>2021-05-29 12:10:10</time>
      </trkpt>
      <trkpt lat="43.3042" lon="-2.20805">
        <ele>-4</ele>
        <time>2021-05-29 12:10:11</time>
      </trkpt>
      <trkpt lat="43.30432" lon="-2.20812">
        <ele>-4.6</ele>
        <time>2021-05-29 12:10:12</time>
      </trkpt>
      <trkpt lat="43.30444" lon="-2.20818">
        <ele>-5.2</ele>
        <time>2021-05-29 12:10:13</time>
      </trkpt>
      <trkpt lat="43.30457" lon="-2.20822">
        <ele>-5.8</ele>
        <time>2021-05-29 12:10:14</time>
      </trkpt>
      <trkpt lat="43.30469" lon="-2.20825">
        <ele>-6.6</ele>
        <time>2021-05-29 12:10:15</time>
      </trkpt>
      <trkpt lat="43.30481" lon="-2.20829">
        <ele>-7</ele>
        <time>2021-05-29 12:10:16</time>
      </trkpt>
      <trkpt lat="43.30492" lon="-2.20833">
        <ele>-7.4</ele>
        <time>2021-05-29 12:10:17</time>
      </trkpt>
      <trkpt lat="43.30504" lon="-2.20838">
        <ele>-7.6</ele>
        <time>2021-05-29 12:10:18</time>
      </trkpt>
      <trkpt lat="43.30515" lon="-2.20843">
        <ele>-8</ele>
        <time>2021-05-29 12:10:19</time>
      </trkpt>
      <trkpt lat="43.30525" lon="-2.20849">
        <ele>-8.4</ele>
        <time>2021-05-29 12:10:20</time>
      </trkpt>
      <trkpt lat="43.30535" lon="-2.20856">
        <ele>-8.6</ele>
        <time>2021-05-29 12:10:21</time>
      </trkpt>
      <trkpt lat="43.30543" lon="-2.20864">
        <ele>-8.8</ele>
        <time>2021-05-29 12:10:22</time>
      </trkpt>
      <trkpt lat="43.30551" lon="-2.20872">
        <ele>-9</ele>
        <time>2021-05-29 12:10:23</time>
      </trkpt>
      <trkpt lat="43.30557" lon="-2.20881">
        <ele>-9</ele>
        <time>2021-05-29 12:10:24</time>
      </trkpt>
      <trkpt lat="43.30562" lon="-2.2089">
        <ele>-9</ele>
        <time>2021-05-29 12:10:25</time>
      </trkpt>
      <trkpt lat="43.30567" lon="-2.209">
        <ele>-9</ele>
        <time>2021-05-29 12:10:26</time>
      </trkpt>
      <trkpt lat="43.30571" lon="-2.20911">
        <ele>-9</ele>
        <time>2021-05-29 12:10:27</time>
      </trkpt>
      <trkpt lat="43.30574" lon="-2.20922">
        <ele>-9</ele>
        <time>2021-05-29 12:10:28</time>
      </trkpt>
      <trkpt lat="43.30576" lon="-2.20933">
        <ele>-9</ele>
        <time>2021-05-29 12:10:29</time>
      </trkpt>
      <trkpt lat="43.30577" lon="-2.20944">
        <ele>-9</ele>
        <time>2021-05-29 12:10:30</time>
      </trkpt>
      <trkpt lat="43.30577" lon="-2.20955">
        <ele>-8.8</ele>
        <time>2021-05-29 12:10:31</time>
      </trkpt>
      <trkpt lat="43.30575" lon="-2.20967">
        <ele>-8.8</ele>
        <time>2021-05-29 12:10:32</time>
      </trkpt>
      <trkpt lat="43.30574" lon="-2.20978">
        <ele>-8.6</ele>
        <time>2021-05-29 12:10:33</time>
      </trkpt>
      <trkpt lat="43.30573" lon="-2.2099">
        <ele>-8.6</ele>
        <time>2021-05-29 12:10:34</time>
      </trkpt>
      <trkpt lat="43.30573" lon="-2.21001">
        <ele>-8.6</ele>
        <time>2021-05-29 12:10:35</time>
      </trkpt>
      <trkpt lat="43.30572" lon="-2.21011">
        <ele>-8.6</ele>
        <time>2021-05-29 12:10:36</time>
      </trkpt>
      <trkpt lat="43.30572" lon="-2.21022">
        <ele>-8.6</ele>
        <time>2021-05-29 12:10:37</time>
      </trkpt>
      <trkpt lat="43.30572" lon="-2.21033">
        <ele>-8.4</ele>
        <time>2021-05-29 12:10:38</time>
      </trkpt>
      <trkpt lat="43.30573" lon="-2.21044">
        <ele>-8.4</ele>
        <time>2021-05-29 12:10:39</time>
      </trkpt>
      <trkpt lat="43.30575" lon="-2.21055">
        <ele>-8.2</ele>
        <time>2021-05-29 12:10:40</time>
      </trkpt>
      <trkpt lat="43.30577" lon="-2.21066">
        <ele>-8.2</ele>
        <time>2021-05-29 12:10:41</time>
      </trkpt>
      <trkpt lat="43.30581" lon="-2.21077">
        <ele>-8.2</ele>
        <time>2021-05-29 12:10:42</time>
      </trkpt>
      <trkpt lat="43.30585" lon="-2.21087">
        <ele>-8</ele>
        <time>2021-05-29 12:10:43</time>
      </trkpt>
      <trkpt lat="43.30589" lon="-2.21097">
        <ele>-8</ele>
        <time>2021-05-29 12:10:44</time>
      </trkpt>
      <trkpt lat="43.30595" lon="-2.21106">
        <ele>-8</ele>
        <time>2021-05-29 12:10:45</time>
      </trkpt>
      <trkpt lat="43.306" lon="-2.21114">
        <ele>-8</ele>
        <time>2021-05-29 12:10:46</time>
      </trkpt>
      <trkpt lat="43.30605" lon="-2.21123">
        <ele>-8</ele>
        <time>2021-05-29 12:10:47</time>
      </trkpt>
      <trkpt lat="43.3061" lon="-2.21132">
        <ele>-8</ele>
        <time>2021-05-29 12:10:48</time>
      </trkpt>
      <trkpt lat="43.30615" lon="-2.21141">
        <ele>-8</ele>
        <time>2021-05-29 12:10:49</time>
      </trkpt>
      <trkpt lat="43.30621" lon="-2.21149">
        <ele>-8</ele>
        <time>2021-05-29 12:10:50</time>
      </trkpt>
      <trkpt lat="43.30626" lon="-2.21158">
        <ele>-8</ele>
        <time>2021-05-29 12:10:51</time>
      </trkpt>
      <trkpt lat="43.30631" lon="-2.21166">
        <ele>-8</ele>
        <time>2021-05-29 12:10:52</time>
      </trkpt>
      <trkpt lat="43.30636" lon="-2.21174">
        <ele>-8</ele>
        <time>2021-05-29 12:10:53</time>
      </trkpt>
      <trkpt lat="43.30641" lon="-2.21183">
        <ele>-8</ele>
        <time>2021-05-29 12:10:54</time>
      </trkpt>
      <trkpt lat="43.30647" lon="-2.21192">
        <ele>-8</ele>
        <time>2021-05-29 12:10:55</time>
      </trkpt>
      <trkpt lat="43.30652" lon="-2.212">
        <ele>-8</ele>
        <time>2021-05-29 12:10:56</time>
      </trkpt>
      <trkpt lat="43.30658" lon="-2.21209">
        <ele>-8</ele>
        <time>2021-05-29 12:10:57</time>
      </trkpt>
      <trkpt lat="43.30663" lon="-2.21218">
        <ele>-7.8</ele>
        <time>2021-05-29 12:10:58</time>
      </trkpt>
      <trkpt lat="43.30668" lon="-2.21227">
        <ele>-7.8</ele>
        <time>2021-05-29 12:10:59</time>
      </trkpt>
      <trkpt lat="43.30673" lon="-2.21235">
        <ele>-7.8</ele>
        <time>2021-05-29 12:11:00</time>
      </trkpt>
      <trkpt lat="43.30677" lon="-2.21244">
        <ele>-7.8</ele>
        <time>2021-05-29 12:11:01</time>
      </trkpt>
      <trkpt lat="43.30682" lon="-2.21252">
        <ele>-7.8</ele>
        <time>2021-05-29 12:11:02</time>
      </trkpt>
      <trkpt lat="43.30685" lon="-2.21261">
        <ele>-7.8</ele>
        <time>2021-05-29 12:11:03</time>
      </trkpt>
      <trkpt lat="43.30688" lon="-2.2127">
        <ele>-7.8</ele>
        <time>2021-05-29 12:11:04</time>
      </trkpt>
      <trkpt lat="43.3069" lon="-2.21279">
        <ele>-7.8</ele>
        <time>2021-05-29 12:11:05</time>
      </trkpt>
      <trkpt lat="43.30691" lon="-2.21289">
        <ele>-7.8</ele>
        <time>2021-05-29 12:11:06</time>
      </trkpt>
      <trkpt lat="43.30692" lon="-2.21299">
        <ele>-7.6</ele>
        <time>2021-05-29 12:11:07</time>
      </trkpt>
      <trkpt lat="43.30692" lon="-2.21309">
        <ele>-7.6</ele>
        <time>2021-05-29 12:11:08</time>
      </trkpt>
      <trkpt lat="43.30691" lon="-2.21319">
        <ele>-7.6</ele>
        <time>2021-05-29 12:11:09</time>
      </trkpt>
      <trkpt lat="43.3069" lon="-2.21329">
        <ele>-7.6</ele>
        <time>2021-05-29 12:11:10</time>
      </trkpt>
      <trkpt lat="43.30689" lon="-2.21339">
        <ele>-7.6</ele>
        <time>2021-05-29 12:11:11</time>
      </trkpt>
      <trkpt lat="43.30688" lon="-2.21349">
        <ele>-7.6</ele>
        <time>2021-05-29 12:11:12</time>
      </trkpt>
      <trkpt lat="43.30687" lon="-2.2136">
        <ele>-7.6</ele>
        <time>2021-05-29 12:11:13</time>
      </trkpt>
      <trkpt lat="43.30685" lon="-2.21371">
        <ele>-7.6</ele>
        <time>2021-05-29 12:11:14</time>
      </trkpt>
      <trkpt lat="43.30684" lon="-2.21383">
        <ele>-7.6</ele>
        <time>2021-05-29 12:11:15</time>
      </trkpt>
      <trkpt lat="43.30684" lon="-2.21395">
        <ele>-7.6</ele>
        <time>2021-05-29 12:11:16</time>
      </trkpt>
      <trkpt lat="43.30684" lon="-2.21406">
        <ele>-7.8</ele>
        <time>2021-05-29 12:11:17</time>
      </trkpt>
      <trkpt lat="43.30685" lon="-2.21417">
        <ele>-7.8</ele>
        <time>2021-05-29 12:11:18</time>
      </trkpt>
      <trkpt lat="43.30687" lon="-2.21428">
        <ele>-7.8</ele>
        <time>2021-05-29 12:11:19</time>
      </trkpt>
      <trkpt lat="43.30689" lon="-2.21439">
        <ele>-7.8</ele>
        <time>2021-05-29 12:11:20</time>
      </trkpt>
      <trkpt lat="43.30692" lon="-2.21449">
        <ele>-7.8</ele>
        <time>2021-05-29 12:11:21</time>
      </trkpt>
      <trkpt lat="43.30696" lon="-2.21459">
        <ele>-7.8</ele>
        <time>2021-05-29 12:11:22</time>
      </trkpt>
      <trkpt lat="43.30701" lon="-2.21469">
        <ele>-7.8</ele>
        <time>2021-05-29 12:11:23</time>
      </trkpt>
      <trkpt lat="43.30706" lon="-2.21478">
        <ele>-7.8</ele>
        <time>2021-05-29 12:11:24</time>
      </trkpt>
      <trkpt lat="43.30712" lon="-2.21487">
        <ele>-7.8</ele>
        <time>2021-05-29 12:11:25</time>
      </trkpt>
      <trkpt lat="43.30719" lon="-2.21494">
        <ele>-7.8</ele>
        <time>2021-05-29 12:11:26</time>
      </trkpt>
      <trkpt lat="43.30726" lon="-2.21501">
        <ele>-7.8</ele>
        <time>2021-05-29 12:11:27</time>
      </trkpt>
      <trkpt lat="43.30733" lon="-2.21507">
        <ele>-7.8</ele>
        <time>2021-05-29 12:11:28</time>
      </trkpt>
      <trkpt lat="43.30741" lon="-2.21513">
        <ele>-7.8</ele>
        <time>2021-05-29 12:11:29</time>
      </trkpt>
      <trkpt lat="43.30748" lon="-2.21518">
        <ele>-7.8</ele>
        <time>2021-05-29 12:11:30</time>
      </trkpt>
      <trkpt lat="43.30756" lon="-2.21523">
        <ele>-7.6</ele>
        <time>2021-05-29 12:11:31</time>
      </trkpt>
      <trkpt lat="43.30763" lon="-2.21528">
        <ele>-7.6</ele>
        <time>2021-05-29 12:11:32</time>
      </trkpt>
      <trkpt lat="43.3077" lon="-2.21533">
        <ele>-7.4</ele>
        <time>2021-05-29 12:11:33</time>
      </trkpt>
      <trkpt lat="43.30777" lon="-2.21539">
        <ele>-7.4</ele>
        <time>2021-05-29 12:11:34</time>
      </trkpt>
      <trkpt lat="43.30784" lon="-2.21544">
        <ele>-7.2</ele>
        <time>2021-05-29 12:11:35</time>
      </trkpt>
      <trkpt lat="43.30792" lon="-2.21549">
        <ele>-7.2</ele>
        <time>2021-05-29 12:11:36</time>
      </trkpt>
      <trkpt lat="43.30799" lon="-2.21555">
        <ele>-7</ele>
        <time>2021-05-29 12:11:37</time>
      </trkpt>
      <trkpt lat="43.30806" lon="-2.2156">
        <ele>-7</ele>
        <time>2021-05-29 12:11:38</time>
      </trkpt>
      <trkpt lat="43.30813" lon="-2.21565">
        <ele>-6.6</ele>
        <time>2021-05-29 12:11:39</time>
      </trkpt>
      <trkpt lat="43.3082" lon="-2.21571">
        <ele>-6.6</ele>
        <time>2021-05-29 12:11:40</time>
      </trkpt>
      <trkpt lat="43.30827" lon="-2.21577">
        <ele>-6.4</ele>
        <time>2021-05-29 12:11:41</time>
      </trkpt>
      <trkpt lat="43.30833" lon="-2.21584">
        <ele>-6.4</ele>
        <time>2021-05-29 12:11:42</time>
      </trkpt>
      <trkpt lat="43.30839" lon="-2.21592">
        <ele>-6.4</ele>
        <time>2021-05-29 12:11:43</time>
      </trkpt>
      <trkpt lat="43.30843" lon="-2.216">
        <ele>-6.2</ele>
        <time>2021-05-29 12:11:44</time>
      </trkpt>
      <trkpt lat="43.30848" lon="-2.21609">
        <ele>-6</ele>
        <time>2021-05-29 12:11:45</time>
      </trkpt>
      <trkpt lat="43.30852" lon="-2.21618">
        <ele>-6</ele>
        <time>2021-05-29 12:11:46</time>
      </trkpt>
      <trkpt lat="43.30855" lon="-2.21627">
        <ele>-6</ele>
        <time>2021-05-29 12:11:47</time>
      </trkpt>
      <trkpt lat="43.30859" lon="-2.21637">
        <ele>-5.8</ele>
        <time>2021-05-29 12:11:48</time>
      </trkpt>
      <trkpt lat="43.30861" lon="-2.21647">
        <ele>-5.8</ele>
        <time>2021-05-29 12:11:49</time>
      </trkpt>
      <trkpt lat="43.30864" lon="-2.21657">
        <ele>-5.8</ele>
        <time>2021-05-29 12:11:50</time>
      </trkpt>
      <trkpt lat="43.30867" lon="-2.21667">
        <ele>-5.6</ele>
        <time>2021-05-29 12:11:51</time>
      </trkpt>
      <trkpt lat="43.3087" lon="-2.21677">
        <ele>-5.6</ele>
        <time>2021-05-29 12:11:52</time>
      </trkpt>
      <trkpt lat="43.30872" lon="-2.21687">
        <ele>-5.6</ele>
        <time>2021-05-29 12:11:53</time>
      </trkpt>
      <trkpt lat="43.30874" lon="-2.21698">
        <ele>-5.6</ele>
        <time>2021-05-29 12:11:54</time>
      </trkpt>
      <trkpt lat="43.30876" lon="-2.21709">
        <ele>-5.6</ele>
        <time>2021-05-29 12:11:55</time>
      </trkpt>
      <trkpt lat="43.30878" lon="-2.21721">
        <ele>-5.6</ele>
        <time>2021-05-29 12:11:56</time>
      </trkpt>
      <trkpt lat="43.3088" lon="-2.21733">
        <ele>-5.6</ele>
        <time>2021-05-29 12:11:57</time>
      </trkpt>
      <trkpt lat="43.30882" lon="-2.21745">
        <ele>-5.6</ele>
        <time>2021-05-29 12:11:58</time>
      </trkpt>
      <trkpt lat="43.30883" lon="-2.21757">
        <ele>-5.8</ele>
        <time>2021-05-29 12:11:59</time>
      </trkpt>
      <trkpt lat="43.30884" lon="-2.21768">
        <ele>-5.8</ele>
        <time>2021-05-29 12:12:00</time>
      </trkpt>
      <trkpt lat="43.30885" lon="-2.2178">
        <ele>-6</ele>
        <time>2021-05-29 12:12:01</time>
      </trkpt>
      <trkpt lat="43.30886" lon="-2.21791">
        <ele>-6</ele>
        <time>2021-05-29 12:12:02</time>
      </trkpt>
      <trkpt lat="43.30887" lon="-2.21801">
        <ele>-6.2</ele>
        <time>2021-05-29 12:12:03</time>
      </trkpt>
      <trkpt lat="43.30888" lon="-2.21812">
        <ele>-6.2</ele>
        <time>2021-05-29 12:12:04</time>
      </trkpt>
      <trkpt lat="43.30889" lon="-2.21823">
        <ele>-6.2</ele>
        <time>2021-05-29 12:12:05</time>
      </trkpt>
      <trkpt lat="43.30889" lon="-2.21834">
        <ele>-6.2</ele>
        <time>2021-05-29 12:12:06</time>
      </trkpt>
      <trkpt lat="43.30889" lon="-2.21844">
        <ele>-6.4</ele>
        <time>2021-05-29 12:12:07</time>
      </trkpt>
      <trkpt lat="43.30889" lon="-2.21854">
        <ele>-6.4</ele>
        <time>2021-05-29 12:12:08</time>
      </trkpt>
      <trkpt lat="43.30889" lon="-2.21863">
        <ele>-6.6</ele>
        <time>2021-05-29 12:12:09</time>
      </trkpt>
      <trkpt lat="43.3089" lon="-2.21873">
        <ele>-6.8</ele>
        <time>2021-05-29 12:12:10</time>
      </trkpt>
      <trkpt lat="43.3089" lon="-2.21883">
        <ele>-6.8</ele>
        <time>2021-05-29 12:12:11</time>
      </trkpt>
      <trkpt lat="43.3089" lon="-2.21893">
        <ele>-6.8</ele>
        <time>2021-05-29 12:12:12</time>
      </trkpt>
      <trkpt lat="43.3089" lon="-2.21903">
        <ele>-6.8</ele>
        <time>2021-05-29 12:12:13</time>
      </trkpt>
      <trkpt lat="43.3089" lon="-2.21912">
        <ele>-6.8</ele>
        <time>2021-05-29 12:12:14</time>
      </trkpt>
      <trkpt lat="43.3089" lon="-2.21921">
        <ele>-6.8</ele>
        <time>2021-05-29 12:12:15</time>
      </trkpt>
      <trkpt lat="43.3089" lon="-2.21931">
        <ele>-6.8</ele>
        <time>2021-05-29 12:12:16</time>
      </trkpt>
      <trkpt lat="43.30891" lon="-2.2194">
        <ele>-6.8</ele>
        <time>2021-05-29 12:12:17</time>
      </trkpt>
      <trkpt lat="43.30891" lon="-2.21948">
        <ele>-6.8</ele>
        <time>2021-05-29 12:12:18</time>
      </trkpt>
      <trkpt lat="43.30892" lon="-2.21957">
        <ele>-6.6</ele>
        <time>2021-05-29 12:12:19</time>
      </trkpt>
      <trkpt lat="43.30892" lon="-2.21965">
        <ele>-6.6</ele>
        <time>2021-05-29 12:12:20</time>
      </trkpt>
      <trkpt lat="43.30892" lon="-2.21973">
        <ele>-6.2</ele>
        <time>2021-05-29 12:12:21</time>
      </trkpt>
      <trkpt lat="43.30892" lon="-2.21981">
        <ele>-6</ele>
        <time>2021-05-29 12:12:22</time>
      </trkpt>
      <trkpt lat="43.30892" lon="-2.21989">
        <ele>-5.8</ele>
        <time>2021-05-29 12:12:23</time>
      </trkpt>
      <trkpt lat="43.30892" lon="-2.21997">
        <ele>-5.4</ele>
        <time>2021-05-29 12:12:24</time>
      </trkpt>
      <trkpt lat="43.30892" lon="-2.22005">
        <ele>-5.2</ele>
        <time>2021-05-29 12:12:25</time>
      </trkpt>
      <trkpt lat="43.30891" lon="-2.22014">
        <ele>-4.8</ele>
        <time>2021-05-29 12:12:26</time>
      </trkpt>
      <trkpt lat="43.30891" lon="-2.22023">
        <ele>-4.6</ele>
        <time>2021-05-29 12:12:27</time>
      </trkpt>
      <trkpt lat="43.30891" lon="-2.22031">
        <ele>-4.4</ele>
        <time>2021-05-29 12:12:28</time>
      </trkpt>
      <trkpt lat="43.30891" lon="-2.2204">
        <ele>-4.2</ele>
        <time>2021-05-29 12:12:29</time>
      </trkpt>
      <trkpt lat="43.30891" lon="-2.22048">
        <ele>-4</ele>
        <time>2021-05-29 12:12:30</time>
      </trkpt>
      <trkpt lat="43.3089" lon="-2.22057">
        <ele>-3.6</ele>
        <time>2021-05-29 12:12:31</time>
      </trkpt>
      <trkpt lat="43.30891" lon="-2.22065">
        <ele>-3.4</ele>
        <time>2021-05-29 12:12:32</time>
      </trkpt>
      <trkpt lat="43.30893" lon="-2.22071">
        <ele>-3.2</ele>
        <time>2021-05-29 12:12:33</time>
      </trkpt>
      <trkpt lat="43.30894" lon="-2.2208">
        <ele>-3</ele>
        <time>2021-05-29 12:12:34</time>
      </trkpt>
      <trkpt lat="43.30894" lon="-2.2209">
        <ele>-2.6</ele>
        <time>2021-05-29 12:12:35</time>
      </trkpt>
      <trkpt lat="43.30895" lon="-2.221">
        <ele>-2.4</ele>
        <time>2021-05-29 12:12:36</time>
      </trkpt>
      <trkpt lat="43.30896" lon="-2.22109">
        <ele>-2.2</ele>
        <time>2021-05-29 12:12:37</time>
      </trkpt>
      <trkpt lat="43.30898" lon="-2.22118">
        <ele>-1.8</ele>
        <time>2021-05-29 12:12:38</time>
      </trkpt>
      <trkpt lat="43.309" lon="-2.22128">
        <ele>-1.6</ele>
        <time>2021-05-29 12:12:39</time>
      </trkpt>
      <trkpt lat="43.30902" lon="-2.22137">
        <ele>-1.4</ele>
        <time>2021-05-29 12:12:40</time>
      </trkpt>
      <trkpt lat="43.30904" lon="-2.22146">
        <ele>-1.2</ele>
        <time>2021-05-29 12:12:41</time>
      </trkpt>
      <trkpt lat="43.30906" lon="-2.22154">
        <ele>-0.8</ele>
        <time>2021-05-29 12:12:42</time>
      </trkpt>
      <trkpt lat="43.30909" lon="-2.22162">
        <ele>-0.6</ele>
        <time>2021-05-29 12:12:43</time>
      </trkpt>
      <trkpt lat="43.30912" lon="-2.2217">
        <ele>-0.4</ele>
        <time>2021-05-29 12:12:44</time>
      </trkpt>
      <trkpt lat="43.30914" lon="-2.22177">
        <ele>-0.2</ele>
        <time>2021-05-29 12:12:45</time>
      </trkpt>
      <trkpt lat="43.30917" lon="-2.22185">
        <time>2021-05-29 12:12:46</time>
      </trkpt>
      <trkpt lat="43.30921" lon="-2.22193">
        <ele>0.2</ele>
        <time>2021-05-29 12:12:47</time>
      </trkpt>
      <trkpt lat="43.30925" lon="-2.222">
        <ele>0.8</ele>
        <time>2021-05-29 12:12:48</time>
      </trkpt>
      <trkpt lat="43.30928" lon="-2.22207">
        <ele>1</ele>
        <time>2021-05-29 12:12:49</time>
      </trkpt>
      <trkpt lat="43.30933" lon="-2.22214">
        <ele>1.2</ele>
        <time>2021-05-29 12:12:50</time>
      </trkpt>
      <trkpt lat="43.30937" lon="-2.2222">
        <ele>1.4</ele>
        <time>2021-05-29 12:12:51</time>
      </trkpt>
      <trkpt lat="43.30942" lon="-2.22226">
        <ele>1.6</ele>
        <time>2021-05-29 12:12:52</time>
      </trkpt>
      <trkpt lat="43.30946" lon="-2.22233">
        <ele>2</ele>
        <time>2021-05-29 12:12:53</time>
      </trkpt>
      <trkpt lat="43.3095" lon="-2.22239">
        <ele>2.2</ele>
        <time>2021-05-29 12:12:54</time>
      </trkpt>
      <trkpt lat="43.30954" lon="-2.22244">
        <ele>2.4</ele>
        <time>2021-05-29 12:12:55</time>
      </trkpt>
      <trkpt lat="43.30957" lon="-2.2225">
        <ele>2.6</ele>
        <time>2021-05-29 12:12:56</time>
      </trkpt>
      <trkpt lat="43.3096" lon="-2.22256">
        <ele>3</ele>
        <time>2021-05-29 12:12:57</time>
      </trkpt>
      <trkpt lat="43.30963" lon="-2.22262">
        <ele>3.2</ele>
        <time>2021-05-29 12:12:58</time>
      </trkpt>
      <trkpt lat="43.30966" lon="-2.22268">
        <ele>3.4</ele>
        <time>2021-05-29 12:12:59</time>
      </trkpt>
      <trkpt lat="43.30968" lon="-2.22274">
        <ele>3.6</ele>
        <time>2021-05-29 12:13:00</time>
      </trkpt>
      <trkpt lat="43.3097" lon="-2.2228">
        <ele>4</ele>
        <time>2021-05-29 12:13:01</time>
      </trkpt>
      <trkpt lat="43.30972" lon="-2.22286">
        <ele>4</ele>
        <time>2021-05-29 12:13:02</time>
      </trkpt>
      <trkpt lat="43.30973" lon="-2.22292">
        <ele>4.4</ele>
        <time>2021-05-29 12:13:03</time>
      </trkpt>
      <trkpt lat="43.30974" lon="-2.22298">
        <ele>4.8</ele>
        <time>2021-05-29 12:13:04</time>
      </trkpt>
      <trkpt lat="43.30975" lon="-2.22304">
        <ele>5</ele>
        <time>2021-05-29 12:13:05</time>
      </trkpt>
      <trkpt lat="43.30976" lon="-2.22311">
        <ele>5.4</ele>
        <time>2021-05-29 12:13:06</time>
      </trkpt>
      <trkpt lat="43.30977" lon="-2.22318">
        <ele>5.6</ele>
        <time>2021-05-29 12:13:07</time>
      </trkpt>
      <trkpt lat="43.30977" lon="-2.22325">
        <ele>5.8</ele>
        <time>2021-05-29 12:13:08</time>
      </trkpt>
      <trkpt lat="43.30977" lon="-2.22332">
        <ele>6.2</ele>
        <time>2021-05-29 12:13:09</time>
      </trkpt>
      <trkpt lat="43.30977" lon="-2.22339">
        <ele>6.4</ele>
        <time>2021-05-29 12:13:10</time>
      </trkpt>
      <trkpt lat="43.30976" lon="-2.22347">
        <ele>6.6</ele>
        <time>2021-05-29 12:13:11</time>
      </trkpt>
      <trkpt lat="43.30975" lon="-2.22354">
        <ele>6.8</ele>
        <time>2021-05-29 12:13:12</time>
      </trkpt>
      <trkpt lat="43.30974" lon="-2.22361">
        <ele>7</ele>
        <time>2021-05-29 12:13:13</time>
      </trkpt>
      <trkpt lat="43.30973" lon="-2.22368">
        <ele>7.2</ele>
        <time>2021-05-29 12:13:14</time>
      </trkpt>
      <trkpt lat="43.30972" lon="-2.22376">
        <ele>7.2</ele>
        <time>2021-05-29 12:13:15</time>
      </trkpt>
      <trkpt lat="43.30971" lon="-2.22383">
        <ele>7.4</ele>
        <time>2021-05-29 12:13:16</time>
      </trkpt>
      <trkpt lat="43.3097" lon="-2.2239">
        <ele>7.6</ele>
        <time>2021-05-29 12:13:17</time>
      </trkpt>
      <trkpt lat="43.30969" lon="-2.22397">
        <ele>7.8</ele>
        <time>2021-05-29 12:13:18</time>
      </trkpt>
      <trkpt lat="43.30968" lon="-2.22404">
        <ele>8</ele>
        <time>2021-05-29 12:13:19</time>
      </trkpt>
      <trkpt lat="43.30967" lon="-2.22411">
        <ele>8.2</ele>
        <time>2021-05-29 12:13:20</time>
      </trkpt>
      <trkpt lat="43.30967" lon="-2.22419">
        <ele>8.4</ele>
        <time>2021-05-29 12:13:21</time>
      </trkpt>
      <trkpt lat="43.30966" lon="-2.22426">
        <ele>8.6</ele>
        <time>2021-05-29 12:13:22</time>
      </trkpt>
      <trkpt lat="43.30967" lon="-2.22433">
        <ele>8.8</ele>
        <time>2021-05-29 12:13:23</time>
      </trkpt>
      <trkpt lat="43.30967" lon="-2.22439">
        <ele>8.8</ele>
        <time>2021-05-29 12:13:24</time>
      </trkpt>
      <trkpt lat="43.30967" lon="-2.22446">
        <ele>9</ele>
        <time>2021-05-29 12:13:25</time>
      </trkpt>
      <trkpt lat="43.30968" lon="-2.22452">
        <ele>9.2</ele>
        <time>2021-05-29 12:13:26</time>
      </trkpt>
      <trkpt lat="43.30969" lon="-2.22459">
        <ele>9.2</ele>
        <time>2021-05-29 12:13:27</time>
      </trkpt>
      <trkpt lat="43.3097" lon="-2.22465">
        <ele>9.6</ele>
        <time>2021-05-29 12:13:28</time>
      </trkpt>
      <trkpt lat="43.30971" lon="-2.22471">
        <ele>9.8</ele>
        <time>2021-05-29 12:13:29</time>
      </trkpt>
      <trkpt lat="43.30972" lon="-2.22477">
        <ele>9.8</ele>
        <time>2021-05-29 12:13:30</time>
      </trkpt>
      <trkpt lat="43.30973" lon="-2.22483">
        <ele>10</ele>
        <time>2021-05-29 12:13:31</time>
      </trkpt>
      <trkpt lat="43.30974" lon="-2.22489">
        <ele>10.2</ele>
        <time>2021-05-29 12:13:32</time>
      </trkpt>
      <trkpt lat="43.30975" lon="-2.22495">
        <ele>10.4</ele>
        <time>2021-05-29 12:13:33</time>
      </trkpt>
      <trkpt lat="43.30977" lon="-2.22502">
        <ele>10.6</ele>
        <time>2021-05-29 12:13:34</time>
      </trkpt>
      <trkpt lat="43.30978" lon="-2.22508">
        <ele>11</ele>
        <time>2021-05-29 12:13:35</time>
      </trkpt>
      <trkpt lat="43.30979" lon="-2.22514">
        <ele>11.2</ele>
        <time>2021-05-29 12:13:36</time>
      </trkpt>
      <trkpt lat="43.30981" lon="-2.22521">
        <ele>11.2</ele>
        <time>2021-05-29 12:13:37</time>
      </trkpt>
      <trkpt lat="43.30983" lon="-2.22527">
        <ele>11.4</ele>
        <time>2021-05-29 12:13:38</time>
      </trkpt>
      <trkpt lat="43.30985" lon="-2.22534">
        <ele>11.6</ele>
        <time>2021-05-29 12:13:39</time>
      </trkpt>
      <trkpt lat="43.30988" lon="-2.22542">
        <ele>11.6</ele>
        <time>2021-05-29 12:13:40</time>
      </trkpt>
      <trkpt lat="43.3099" lon="-2.22549">
        <ele>11.8</ele>
        <time>2021-05-29 12:13:41</time>
      </trkpt>
      <trkpt lat="43.30993" lon="-2.22558">
        <ele>11.8</ele>
        <time>2021-05-29 12:13:42</time>
      </trkpt>
      <trkpt lat="43.30995" lon="-2.22568">
        <ele>11.8</ele>
        <time>2021-05-29 12:13:43</time>
      </trkpt>
      <trkpt lat="43.30998" lon="-2.22578">
        <ele>11.8</ele>
        <time>2021-05-29 12:13:44</time>
      </trkpt>
      <trkpt lat="43.31001" lon="-2.22589">
        <ele>11.8</ele>
        <time>2021-05-29 12:13:45</time>
      </trkpt>
      <trkpt lat="43.31004" lon="-2.226">
        <ele>11.8</ele>
        <time>2021-05-29 12:13:46</time>
      </trkpt>
      <trkpt lat="43.31007" lon="-2.22611">
        <ele>11.8</ele>
        <time>2021-05-29 12:13:47</time>
      </trkpt>
      <trkpt lat="43.31011" lon="-2.22623">
        <ele>11.8</ele>
        <time>2021-05-29 12:13:48</time>
      </trkpt>
      <trkpt lat="43.31014" lon="-2.22635">
        <ele>11.8</ele>
        <time>2021-05-29 12:13:49</time>
      </trkpt>
      <trkpt lat="43.31016" lon="-2.22648">
        <ele>11.8</ele>
        <time>2021-05-29 12:13:50</time>
      </trkpt>
      <trkpt lat="43.31019" lon="-2.22661">
        <ele>11.6</ele>
        <time>2021-05-29 12:13:51</time>
      </trkpt>
      <trkpt lat="43.3102" lon="-2.22674">
        <ele>11.4</ele>
        <time>2021-05-29 12:13:52</time>
      </trkpt>
      <trkpt lat="43.31021" lon="-2.22687">
        <ele>11.2</ele>
        <time>2021-05-29 12:13:53</time>
      </trkpt>
      <trkpt lat="43.31023" lon="-2.22699">
        <ele>10.8</ele>
        <time>2021-05-29 12:13:54</time>
      </trkpt>
      <trkpt lat="43.31024" lon="-2.22712">
        <ele>10.6</ele>
        <time>2021-05-29 12:13:55</time>
      </trkpt>
      <trkpt lat="43.31025" lon="-2.22726">
        <ele>10.2</ele>
        <time>2021-05-29 12:13:56</time>
      </trkpt>
      <trkpt lat="43.31026" lon="-2.22739">
        <ele>9.4</ele>
        <time>2021-05-29 12:13:57</time>
      </trkpt>
      <trkpt lat="43.31027" lon="-2.22753">
        <ele>9</ele>
        <time>2021-05-29 12:13:58</time>
      </trkpt>
      <trkpt lat="43.31029" lon="-2.22767">
        <ele>8.4</ele>
        <time>2021-05-29 12:13:59</time>
      </trkpt>
      <trkpt lat="43.3103" lon="-2.22781">
        <ele>8</ele>
        <time>2021-05-29 12:14:00</time>
      </trkpt>
      <trkpt lat="43.3103" lon="-2.22795">
        <ele>7.6</ele>
        <time>2021-05-29 12:14:01</time>
      </trkpt>
      <trkpt lat="43.31031" lon="-2.22809">
        <ele>7</ele>
        <time>2021-05-29 12:14:02</time>
      </trkpt>
      <trkpt lat="43.3103" lon="-2.22823">
        <ele>6.4</ele>
        <time>2021-05-29 12:14:03</time>
      </trkpt>
      <trkpt lat="43.31027" lon="-2.22838">
        <ele>6</ele>
        <time>2021-05-29 12:14:04</time>
      </trkpt>
      <trkpt lat="43.31024" lon="-2.22852">
        <ele>5.6</ele>
        <time>2021-05-29 12:14:05</time>
      </trkpt>
      <trkpt lat="43.31019" lon="-2.22866">
        <ele>5</ele>
        <time>2021-05-29 12:14:06</time>
      </trkpt>
      <trkpt lat="43.31014" lon="-2.2288">
        <ele>4.6</ele>
        <time>2021-05-29 12:14:07</time>
      </trkpt>
      <trkpt lat="43.31008" lon="-2.22893">
        <ele>4.4</ele>
        <time>2021-05-29 12:14:08</time>
      </trkpt>
      <trkpt lat="43.31002" lon="-2.22906">
        <ele>4.2</ele>
        <time>2021-05-29 12:14:09</time>
      </trkpt>
      <trkpt lat="43.30997" lon="-2.22918">
        <ele>3.8</ele>
        <time>2021-05-29 12:14:10</time>
      </trkpt>
      <trkpt lat="43.30993" lon="-2.22932">
        <ele>3.6</ele>
        <time>2021-05-29 12:14:11</time>
      </trkpt>
      <trkpt lat="43.30989" lon="-2.22947">
        <ele>3.2</ele>
        <time>2021-05-29 12:14:12</time>
      </trkpt>
      <trkpt lat="43.30987" lon="-2.22962">
        <ele>2.8</ele>
        <time>2021-05-29 12:14:13</time>
      </trkpt>
      <trkpt lat="43.30984" lon="-2.22977">
        <ele>2.4</ele>
        <time>2021-05-29 12:14:14</time>
      </trkpt>
      <trkpt lat="43.30982" lon="-2.22991">
        <ele>1.8</ele>
        <time>2021-05-29 12:14:15</time>
      </trkpt>
      <trkpt lat="43.30979" lon="-2.23006">
        <ele>1</ele>
        <time>2021-05-29 12:14:16</time>
      </trkpt>
      <trkpt lat="43.30976" lon="-2.23021">
        <ele>0.2</ele>
        <time>2021-05-29 12:14:17</time>
      </trkpt>
      <trkpt lat="43.30974" lon="-2.23035">
        <ele>-0.4</ele>
        <time>2021-05-29 12:14:18</time>
      </trkpt>
      <trkpt lat="43.30971" lon="-2.2305">
        <ele>-1</ele>
        <time>2021-05-29 12:14:19</time>
      </trkpt>
      <trkpt lat="43.30968" lon="-2.23064">
        <ele>-1.4</ele>
        <time>2021-05-29 12:14:20</time>
      </trkpt>
      <trkpt lat="43.30964" lon="-2.23079">
        <ele>-1.8</ele>
        <time>2021-05-29 12:14:21</time>
      </trkpt>
      <trkpt lat="43.3096" lon="-2.23093">
        <ele>-2</ele>
        <time>2021-05-29 12:14:22</time>
      </trkpt>
      <trkpt lat="43.30955" lon="-2.23106">
        <ele>-2.2</ele>
        <time>2021-05-29 12:14:23</time>
      </trkpt>
      <trkpt lat="43.3095" lon="-2.23119">
        <ele>-2.4</ele>
        <time>2021-05-29 12:14:24</time>
      </trkpt>
      <trkpt lat="43.30944" lon="-2.23132">
        <ele>-2.6</ele>
        <time>2021-05-29 12:14:25</time>
      </trkpt>
      <trkpt lat="43.30938" lon="-2.23144">
        <ele>-2.8</ele>
        <time>2021-05-29 12:14:26</time>
      </trkpt>
      <trkpt lat="43.30933" lon="-2.23155">
        <ele>-2.8</ele>
        <time>2021-05-29 12:14:27</time>
      </trkpt>
      <trkpt lat="43.30927" lon="-2.23167">
        <ele>-2.8</ele>
        <time>2021-05-29 12:14:28</time>
      </trkpt>
      <trkpt lat="43.30922" lon="-2.23179">
        <ele>-3</ele>
        <time>2021-05-29 12:14:29</time>
      </trkpt>
      <trkpt lat="43.30917" lon="-2.2319">
        <ele>-3.2</ele>
        <time>2021-05-29 12:14:30</time>
      </trkpt>
      <trkpt lat="43.30912" lon="-2.23201">
        <ele>-3.2</ele>
        <time>2021-05-29 12:14:31</time>
      </trkpt>
      <trkpt lat="43.30907" lon="-2.23212">
        <ele>-3.4</ele>
        <time>2021-05-29 12:14:32</time>
      </trkpt>
      <trkpt lat="43.30901" lon="-2.23223">
        <ele>-3.6</ele>
        <time>2021-05-29 12:14:33</time>
      </trkpt>
      <trkpt lat="43.30896" lon="-2.23235">
        <ele>-3.8</ele>
        <time>2021-05-29 12:14:34</time>
      </trkpt>
      <trkpt lat="43.30891" lon="-2.23246">
        <ele>-4</ele>
        <time>2021-05-29 12:14:35</time>
      </trkpt>
      <trkpt lat="43.30886" lon="-2.23258">
        <ele>-4.2</ele>
        <time>2021-05-29 12:14:36</time>
      </trkpt>
      <trkpt lat="43.30881" lon="-2.2327">
        <ele>-4.4</ele>
        <time>2021-05-29 12:14:37</time>
      </trkpt>
      <trkpt lat="43.30876" lon="-2.23282">
        <ele>-4.6</ele>
        <time>2021-05-29 12:14:38</time>
      </trkpt>
      <trkpt lat="43.30872" lon="-2.23294">
        <ele>-4.8</ele>
        <time>2021-05-29 12:14:39</time>
      </trkpt>
      <trkpt lat="43.30867" lon="-2.23306">
        <ele>-5</ele>
        <time>2021-05-29 12:14:40</time>
      </trkpt>
      <trkpt lat="43.30863" lon="-2.23319">
        <ele>-5.2</ele>
        <time>2021-05-29 12:14:41</time>
      </trkpt>
      <trkpt lat="43.30859" lon="-2.23331">
        <ele>-5.4</ele>
        <time>2021-05-29 12:14:42</time>
      </trkpt>
      <trkpt lat="43.30855" lon="-2.23344">
        <ele>-5.6</ele>
        <time>2021-05-29 12:14:43</time>
      </trkpt>
      <trkpt lat="43.30852" lon="-2.23357">
        <ele>-5.8</ele>
        <time>2021-05-29 12:14:44</time>
      </trkpt>
      <trkpt lat="43.30849" lon="-2.23369">
        <ele>-6</ele>
        <time>2021-05-29 12:14:45</time>
      </trkpt>
      <trkpt lat="43.30846" lon="-2.23382">
        <ele>-6</ele>
        <time>2021-05-29 12:14:46</time>
      </trkpt>
      <trkpt lat="43.30843" lon="-2.23395">
        <ele>-6.2</ele>
        <time>2021-05-29 12:14:47</time>
      </trkpt>
      <trkpt lat="43.30841" lon="-2.23408">
        <ele>-6.4</ele>
        <time>2021-05-29 12:14:48</time>
      </trkpt>
      <trkpt lat="43.30838" lon="-2.23422">
        <ele>-6.4</ele>
        <time>2021-05-29 12:14:49</time>
      </trkpt>
      <trkpt lat="43.30836" lon="-2.23435">
        <ele>-6.4</ele>
        <time>2021-05-29 12:14:50</time>
      </trkpt>
      <trkpt lat="43.30834" lon="-2.23448">
        <ele>-6.6</ele>
        <time>2021-05-29 12:14:51</time>
      </trkpt>
      <trkpt lat="43.30832" lon="-2.23461">
        <ele>-6.6</ele>
        <time>2021-05-29 12:14:52</time>
      </trkpt>
      <trkpt lat="43.30831" lon="-2.23474">
        <ele>-6.6</ele>
        <time>2021-05-29 12:14:53</time>
      </trkpt>
      <trkpt lat="43.30829" lon="-2.23487">
        <ele>-6.8</ele>
        <time>2021-05-29 12:14:54</time>
      </trkpt>
      <trkpt lat="43.30828" lon="-2.235">
        <ele>-6.8</ele>
        <time>2021-05-29 12:14:55</time>
      </trkpt>
      <trkpt lat="43.30826" lon="-2.23514">
        <ele>-6.8</ele>
        <time>2021-05-29 12:14:56</time>
      </trkpt>
      <trkpt lat="43.30825" lon="-2.23526">
        <ele>-7</ele>
        <time>2021-05-29 12:14:57</time>
      </trkpt>
      <trkpt lat="43.30824" lon="-2.2354">
        <ele>-7</ele>
        <time>2021-05-29 12:14:58</time>
      </trkpt>
      <trkpt lat="43.30822" lon="-2.23553">
        <ele>-7</ele>
        <time>2021-05-29 12:14:59</time>
      </trkpt>
      <trkpt lat="43.30821" lon="-2.23566">
        <ele>-7.2</ele>
        <time>2021-05-29 12:15:00</time>
      </trkpt>
      <trkpt lat="43.3082" lon="-2.23579">
        <ele>-7.2</ele>
        <time>2021-05-29 12:15:01</time>
      </trkpt>
      <trkpt lat="43.30819" lon="-2.23592">
        <ele>-7.2</ele>
        <time>2021-05-29 12:15:02</time>
      </trkpt>
      <trkpt lat="43.30818" lon="-2.23606">
        <ele>-7.2</ele>
        <time>2021-05-29 12:15:03</time>
      </trkpt>
      <trkpt lat="43.30818" lon="-2.23619">
        <ele>-7.2</ele>
        <time>2021-05-29 12:15:04</time>
      </trkpt>
      <trkpt lat="43.30818" lon="-2.23633">
        <ele>-7.2</ele>
        <time>2021-05-29 12:15:05</time>
      </trkpt>
      <trkpt lat="43.30819" lon="-2.23646">
        <ele>-7.4</ele>
        <time>2021-05-29 12:15:06</time>
      </trkpt>
      <trkpt lat="43.30821" lon="-2.23659">
        <ele>-7.4</ele>
        <time>2021-05-29 12:15:07</time>
      </trkpt>
      <trkpt lat="43.30823" lon="-2.23672">
        <ele>-7.4</ele>
        <time>2021-05-29 12:15:08</time>
      </trkpt>
      <trkpt lat="43.30824" lon="-2.23685">
        <ele>-7.4</ele>
        <time>2021-05-29 12:15:09</time>
      </trkpt>
      <trkpt lat="43.30825" lon="-2.23698">
        <ele>-7.4</ele>
        <time>2021-05-29 12:15:10</time>
      </trkpt>
      <trkpt lat="43.30826" lon="-2.23712">
        <ele>-7.6</ele>
        <time>2021-05-29 12:15:11</time>
      </trkpt>
      <trkpt lat="43.30826" lon="-2.23725">
        <ele>-7.6</ele>
        <time>2021-05-29 12:15:12</time>
      </trkpt>
      <trkpt lat="43.30825" lon="-2.23738">
        <ele>-7.6</ele>
        <time>2021-05-29 12:15:13</time>
      </trkpt>
      <trkpt lat="43.30823" lon="-2.23751">
        <ele>-7.6</ele>
        <time>2021-05-29 12:15:14</time>
      </trkpt>
      <trkpt lat="43.30821" lon="-2.23764">
        <ele>-7.6</ele>
        <time>2021-05-29 12:15:15</time>
      </trkpt>
      <trkpt lat="43.30818" lon="-2.23777">
        <ele>-7.6</ele>
        <time>2021-05-29 12:15:16</time>
      </trkpt>
      <trkpt lat="43.30815" lon="-2.2379">
        <ele>-7.6</ele>
        <time>2021-05-29 12:15:17</time>
      </trkpt>
      <trkpt lat="43.30811" lon="-2.23802">
        <ele>-7.6</ele>
        <time>2021-05-29 12:15:18</time>
      </trkpt>
      <trkpt lat="43.30806" lon="-2.23814">
        <ele>-7.6</ele>
        <time>2021-05-29 12:15:19</time>
      </trkpt>
      <trkpt lat="43.308" lon="-2.23826">
        <ele>-7.8</ele>
        <time>2021-05-29 12:15:20</time>
      </trkpt>
      <trkpt lat="43.30795" lon="-2.23837">
        <ele>-8</ele>
        <time>2021-05-29 12:15:21</time>
      </trkpt>
      <trkpt lat="43.3079" lon="-2.23849">
        <ele>-8.2</ele>
        <time>2021-05-29 12:15:22</time>
      </trkpt>
      <trkpt lat="43.30784" lon="-2.23861">
        <ele>-8.4</ele>
        <time>2021-05-29 12:15:23</time>
      </trkpt>
      <trkpt lat="43.30779" lon="-2.23873">
        <ele>-8.4</ele>
        <time>2021-05-29 12:15:24</time>
      </trkpt>
      <trkpt lat="43.30773" lon="-2.23884">
        <ele>-8.6</ele>
        <time>2021-05-29 12:15:25</time>
      </trkpt>
      <trkpt lat="43.30766" lon="-2.23894">
        <ele>-8.6</ele>
        <time>2021-05-29 12:15:26</time>
      </trkpt>
      <trkpt lat="43.30759" lon="-2.23904">
        <ele>-9</ele>
        <time>2021-05-29 12:15:27</time>
      </trkpt>
      <trkpt lat="43.30751" lon="-2.23912">
        <ele>-9.2</ele>
        <time>2021-05-29 12:15:28</time>
      </trkpt>
      <trkpt lat="43.30742" lon="-2.23919">
        <ele>-9.4</ele>
        <time>2021-05-29 12:15:29</time>
      </trkpt>
      <trkpt lat="43.30733" lon="-2.23924">
        <ele>-9.6</ele>
        <time>2021-05-29 12:15:30</time>
      </trkpt>
      <trkpt lat="43.30723" lon="-2.23927">
        <ele>-9.8</ele>
        <time>2021-05-29 12:15:31</time>
      </trkpt>
      <trkpt lat="43.30713" lon="-2.23928">
        <ele>-10</ele>
        <time>2021-05-29 12:15:32</time>
      </trkpt>
      <trkpt lat="43.30702" lon="-2.23927">
        <ele>-10</ele>
        <time>2021-05-29 12:15:33</time>
      </trkpt>
      <trkpt lat="43.30692" lon="-2.23925">
        <ele>-10.2</ele>
        <time>2021-05-29 12:15:34</time>
      </trkpt>
      <trkpt lat="43.30681" lon="-2.23922">
        <ele>-10.2</ele>
        <time>2021-05-29 12:15:35</time>
      </trkpt>
      <trkpt lat="43.3067" lon="-2.2392">
        <ele>-10.2</ele>
        <time>2021-05-29 12:15:36</time>
      </trkpt>
      <trkpt lat="43.30659" lon="-2.23917">
        <ele>-10.2</ele>
        <time>2021-05-29 12:15:37</time>
      </trkpt>
      <trkpt lat="43.30648" lon="-2.23915">
        <ele>-10.4</ele>
        <time>2021-05-29 12:15:38</time>
      </trkpt>
      <trkpt lat="43.30637" lon="-2.23912">
        <ele>-10.4</ele>
        <time>2021-05-29 12:15:39</time>
      </trkpt>
      <trkpt lat="43.30626" lon="-2.2391">
        <ele>-10.4</ele>
        <time>2021-05-29 12:15:40</time>
      </trkpt>
      <trkpt lat="43.30615" lon="-2.23908">
        <ele>-10.6</ele>
        <time>2021-05-29 12:15:41</time>
      </trkpt>
      <trkpt lat="43.30604" lon="-2.23906">
        <ele>-10.8</ele>
        <time>2021-05-29 12:15:42</time>
      </trkpt>
      <trkpt lat="43.30592" lon="-2.23903">
        <ele>-10.8</ele>
        <time>2021-05-29 12:15:43</time>
      </trkpt>
      <trkpt lat="43.30581" lon="-2.23901">
        <ele>-10.8</ele>
        <time>2021-05-29 12:15:44</time>
      </trkpt>
      <trkpt lat="43.3057" lon="-2.23898">
        <ele>-11</ele>
        <time>2021-05-29 12:15:45</time>
      </trkpt>
      <trkpt lat="43.3056" lon="-2.23896">
        <ele>-11</ele>
        <time>2021-05-29 12:15:46</time>
      </trkpt>
      <trkpt lat="43.30549" lon="-2.23893">
        <ele>-11</ele>
        <time>2021-05-29 12:15:47</time>
      </trkpt>
      <trkpt lat="43.30538" lon="-2.23891">
        <ele>-11.2</ele>
        <time>2021-05-29 12:15:48</time>
      </trkpt>
      <trkpt lat="43.30527" lon="-2.23888">
        <ele>-11.4</ele>
        <time>2021-05-29 12:15:49</time>
      </trkpt>
      <trkpt lat="43.30516" lon="-2.23887">
        <ele>-11.6</ele>
        <time>2021-05-29 12:15:50</time>
      </trkpt>
      <trkpt lat="43.30505" lon="-2.23885">
        <ele>-11.6</ele>
        <time>2021-05-29 12:15:51</time>
      </trkpt>
      <trkpt lat="43.30494" lon="-2.23884">
        <ele>-11.6</ele>
        <time>2021-05-29 12:15:52</time>
      </trkpt>
      <trkpt lat="43.30482" lon="-2.23885">
        <ele>-11.8</ele>
        <time>2021-05-29 12:15:53</time>
      </trkpt>
      <trkpt lat="43.30471" lon="-2.23887">
        <ele>-12</ele>
        <time>2021-05-29 12:15:54</time>
      </trkpt>
      <trkpt lat="43.30459" lon="-2.2389">
        <ele>-12.2</ele>
        <time>2021-05-29 12:15:55</time>
      </trkpt>
      <trkpt lat="43.30448" lon="-2.23895">
        <ele>-12.2</ele>
        <time>2021-05-29 12:15:56</time>
      </trkpt>
      <trkpt lat="43.30438" lon="-2.23901">
        <ele>-12.2</ele>
        <time>2021-05-29 12:15:57</time>
      </trkpt>
      <trkpt lat="43.30428" lon="-2.23908">
        <ele>-12.4</ele>
        <time>2021-05-29 12:15:58</time>
      </trkpt>
      <trkpt lat="43.30418" lon="-2.23917">
        <ele>-12.4</ele>
        <time>2021-05-29 12:15:59</time>
      </trkpt>
      <trkpt lat="43.3041" lon="-2.23927">
        <ele>-12.4</ele>
        <time>2021-05-29 12:16:00</time>
      </trkpt>
      <trkpt lat="43.30402" lon="-2.23938">
        <ele>-12.4</ele>
        <time>2021-05-29 12:16:01</time>
      </trkpt>
      <trkpt lat="43.30395" lon="-2.2395">
        <ele>-12.6</ele>
        <time>2021-05-29 12:16:02</time>
      </trkpt>
      <trkpt lat="43.30389" lon="-2.23961">
        <ele>-12.6</ele>
        <time>2021-05-29 12:16:03</time>
      </trkpt>
      <trkpt lat="43.30383" lon="-2.23974">
        <ele>-12.6</ele>
        <time>2021-05-29 12:16:04</time>
      </trkpt>
      <trkpt lat="43.30378" lon="-2.23986">
        <ele>-12.6</ele>
        <time>2021-05-29 12:16:05</time>
      </trkpt>
      <trkpt lat="43.30372" lon="-2.23998">
        <ele>-12.6</ele>
        <time>2021-05-29 12:16:06</time>
      </trkpt>
      <trkpt lat="43.30367" lon="-2.24009">
        <ele>-12.6</ele>
        <time>2021-05-29 12:16:07</time>
      </trkpt>
      <trkpt lat="43.30362" lon="-2.24021">
        <ele>-12.6</ele>
        <time>2021-05-29 12:16:08</time>
      </trkpt>
      <trkpt lat="43.30357" lon="-2.24033">
        <ele>-12.4</ele>
        <time>2021-05-29 12:16:09</time>
      </trkpt>
      <trkpt lat="43.30352" lon="-2.24045">
        <ele>-12.6</ele>
        <time>2021-05-29 12:16:10</time>
      </trkpt>
      <trkpt lat="43.30346" lon="-2.24057">
        <ele>-12.6</ele>
        <time>2021-05-29 12:16:11</time>
      </trkpt>
      <trkpt lat="43.30341" lon="-2.24069">
        <ele>-12.6</ele>
        <time>2021-05-29 12:16:12</time>
      </trkpt>
      <trkpt lat="43.30336" lon="-2.24081">
        <ele>-12.6</ele>
        <time>2021-05-29 12:16:13</time>
      </trkpt>
      <trkpt lat="43.30332" lon="-2.24094">
        <ele>-12.6</ele>
        <time>2021-05-29 12:16:14</time>
      </trkpt>
      <trkpt lat="43.30329" lon="-2.24108">
        <ele>-12.6</ele>
        <time>2021-05-29 12:16:15</time>
      </trkpt>
      <trkpt lat="43.30326" lon="-2.24122">
        <ele>-12.8</ele>
        <time>2021-05-29 12:16:16</time>
      </trkpt>
      <trkpt lat="43.30325" lon="-2.24136">
        <ele>-12.8</ele>
        <time>2021-05-29 12:16:17</time>
      </trkpt>
      <trkpt lat="43.30325" lon="-2.24151">
        <ele>-13</ele>
        <time>2021-05-29 12:16:18</time>
      </trkpt>
      <trkpt lat="43.30324" lon="-2.24165">
        <ele>-13</ele>
        <time>2021-05-29 12:16:19</time>
      </trkpt>
      <trkpt lat="43.30324" lon="-2.2418">
        <ele>-13</ele>
        <time>2021-05-29 12:16:20</time>
      </trkpt>
      <trkpt lat="43.30324" lon="-2.24194">
        <ele>-13.2</ele>
        <time>2021-05-29 12:16:21</time>
      </trkpt>
      <trkpt lat="43.30324" lon="-2.24208">
        <ele>-13.2</ele>
        <time>2021-05-29 12:16:22</time>
      </trkpt>
      <trkpt lat="43.30324" lon="-2.24222">
        <ele>-13.2</ele>
        <time>2021-05-29 12:16:23</time>
      </trkpt>
      <trkpt lat="43.30324" lon="-2.24236">
        <ele>-13.2</ele>
        <time>2021-05-29 12:16:24</time>
      </trkpt>
      <trkpt lat="43.30324" lon="-2.24249">
        <ele>-13.2</ele>
        <time>2021-05-29 12:16:25</time>
      </trkpt>
      <trkpt lat="43.30324" lon="-2.24261">
        <ele>-13.2</ele>
        <time>2021-05-29 12:16:26</time>
      </trkpt>
      <trkpt lat="43.30324" lon="-2.24274">
        <ele>-13.2</ele>
        <time>2021-05-29 12:16:27</time>
      </trkpt>
      <trkpt lat="43.30324" lon="-2.24286">
        <ele>-13</ele>
        <time>2021-05-29 12:16:28</time>
      </trkpt>
      <trkpt lat="43.30324" lon="-2.24298">
        <ele>-13</ele>
        <time>2021-05-29 12:16:29</time>
      </trkpt>
      <trkpt lat="43.30324" lon="-2.2431">
        <ele>-12.8</ele>
        <time>2021-05-29 12:16:30</time>
      </trkpt>
      <trkpt lat="43.30324" lon="-2.24323">
        <ele>-12.8</ele>
        <time>2021-05-29 12:16:31</time>
      </trkpt>
      <trkpt lat="43.30324" lon="-2.24335">
        <ele>-12.8</ele>
        <time>2021-05-29 12:16:32</time>
      </trkpt>
      <trkpt lat="43.30323" lon="-2.24348">
        <ele>-12.8</ele>
        <time>2021-05-29 12:16:33</time>
      </trkpt>
      <trkpt lat="43.30323" lon="-2.2436">
        <ele>-12.8</ele>
        <time>2021-05-29 12:16:34</time>
      </trkpt>
      <trkpt lat="43.30323" lon="-2.24372">
        <ele>-12.6</ele>
        <time>2021-05-29 12:16:35</time>
      </trkpt>
      <trkpt lat="43.30322" lon="-2.24384">
        <ele>-12.6</ele>
        <time>2021-05-29 12:16:36</time>
      </trkpt>
      <trkpt lat="43.3032" lon="-2.24396">
        <ele>-12.6</ele>
        <time>2021-05-29 12:16:37</time>
      </trkpt>
      <trkpt lat="43.30317" lon="-2.24407">
        <ele>-12.6</ele>
        <time>2021-05-29 12:16:38</time>
      </trkpt>
      <trkpt lat="43.30312" lon="-2.24418">
        <ele>-12.4</ele>
        <time>2021-05-29 12:16:39</time>
      </trkpt>
      <trkpt lat="43.30307" lon="-2.24428">
        <ele>-12.4</ele>
        <time>2021-05-29 12:16:40</time>
      </trkpt>
      <trkpt lat="43.303" lon="-2.24437">
        <ele>-12.4</ele>
        <time>2021-05-29 12:16:41</time>
      </trkpt>
      <trkpt lat="43.30293" lon="-2.24446">
        <ele>-12.4</ele>
        <time>2021-05-29 12:16:42</time>
      </trkpt>
      <trkpt lat="43.30284" lon="-2.24453">
        <ele>-12.2</ele>
        <time>2021-05-29 12:16:43</time>
      </trkpt>
      <trkpt lat="43.30276" lon="-2.24461">
        <ele>-12.2</ele>
        <time>2021-05-29 12:16:44</time>
      </trkpt>
      <trkpt lat="43.30267" lon="-2.24469">
        <ele>-12.2</ele>
        <time>2021-05-29 12:16:45</time>
      </trkpt>
      <trkpt lat="43.30259" lon="-2.24478">
        <ele>-12.2</ele>
        <time>2021-05-29 12:16:46</time>
      </trkpt>
      <trkpt lat="43.3025" lon="-2.24486">
        <ele>-12.2</ele>
        <time>2021-05-29 12:16:47</time>
      </trkpt>
      <trkpt lat="43.30241" lon="-2.24494">
        <ele>-12.2</ele>
        <time>2021-05-29 12:16:48</time>
      </trkpt>
      <trkpt lat="43.30232" lon="-2.24502">
        <ele>-12.2</ele>
        <time>2021-05-29 12:16:49</time>
      </trkpt>
      <trkpt lat="43.30224" lon="-2.2451">
        <ele>-12.2</ele>
        <time>2021-05-29 12:16:50</time>
      </trkpt>
      <trkpt lat="43.30215" lon="-2.24517">
        <ele>-12.2</ele>
        <time>2021-05-29 12:16:51</time>
      </trkpt>
      <trkpt lat="43.30207" lon="-2.24525">
        <ele>-12.2</ele>
        <time>2021-05-29 12:16:52</time>
      </trkpt>
      <trkpt lat="43.30199" lon="-2.24533">
        <ele>-12.4</ele>
        <time>2021-05-29 12:16:53</time>
      </trkpt>
      <trkpt lat="43.30191" lon="-2.2454">
        <ele>-12.6</ele>
        <time>2021-05-29 12:16:54</time>
      </trkpt>
      <trkpt lat="43.30183" lon="-2.24548">
        <ele>-12.8</ele>
        <time>2021-05-29 12:16:55</time>
      </trkpt>
      <trkpt lat="43.30173" lon="-2.24559">
        <ele>-13</ele>
        <time>2021-05-29 12:16:56</time>
      </trkpt>
      <trkpt lat="43.30163" lon="-2.24566">
        <ele>-13.2</ele>
        <time>2021-05-29 12:16:57</time>
      </trkpt>
      <trkpt lat="43.30156" lon="-2.24573">
        <ele>-13.6</ele>
        <time>2021-05-29 12:16:58</time>
      </trkpt>
      <trkpt lat="43.30147" lon="-2.2458">
        <ele>-13.6</ele>
        <time>2021-05-29 12:16:59</time>
      </trkpt>
      <trkpt lat="43.30138" lon="-2.24587">
        <ele>-13.8</ele>
        <time>2021-05-29 12:17:00</time>
      </trkpt>
      <trkpt lat="43.3013" lon="-2.24594">
        <ele>-13.8</ele>
        <time>2021-05-29 12:17:01</time>
      </trkpt>
      <trkpt lat="43.30121" lon="-2.24601">
        <ele>-13.8</ele>
        <time>2021-05-29 12:17:02</time>
      </trkpt>
      <trkpt lat="43.30112" lon="-2.24608">
        <ele>-13.8</ele>
        <time>2021-05-29 12:17:03</time>
      </trkpt>
      <trkpt lat="43.30103" lon="-2.24616">
        <ele>-13.8</ele>
        <time>2021-05-29 12:17:04</time>
      </trkpt>
      <trkpt lat="43.30094" lon="-2.24623">
        <ele>-13.8</ele>
        <time>2021-05-29 12:17:05</time>
      </trkpt>
      <trkpt lat="43.30085" lon="-2.24628">
        <ele>-13.8</ele>
        <time>2021-05-29 12:17:06</time>
      </trkpt>
      <trkpt lat="43.30075" lon="-2.24632">
        <ele>-13.8</ele>
        <time>2021-05-29 12:17:07</time>
      </trkpt>
      <trkpt lat="43.30066" lon="-2.24634">
        <ele>-13.8</ele>
        <time>2021-05-29 12:17:08</time>
      </trkpt>
      <trkpt lat="43.30056" lon="-2.24635">
        <ele>-13.8</ele>
        <time>2021-05-29 12:17:09</time>
      </trkpt>
      <trkpt lat="43.30046" lon="-2.24634">
        <ele>-13.6</ele>
        <time>2021-05-29 12:17:10</time>
      </trkpt>
      <trkpt lat="43.30036" lon="-2.24633">
        <ele>-13.4</ele>
        <time>2021-05-29 12:17:11</time>
      </trkpt>
      <trkpt lat="43.30025" lon="-2.24632">
        <ele>-13.2</ele>
        <time>2021-05-29 12:17:12</time>
      </trkpt>
      <trkpt lat="43.30015" lon="-2.2463">
        <ele>-13.2</ele>
        <time>2021-05-29 12:17:13</time>
      </trkpt>
      <trkpt lat="43.30004" lon="-2.24628">
        <ele>-13</ele>
        <time>2021-05-29 12:17:14</time>
      </trkpt>
      <trkpt lat="43.29993" lon="-2.24627">
        <ele>-13</ele>
        <time>2021-05-29 12:17:15</time>
      </trkpt>
      <trkpt lat="43.29983" lon="-2.24625">
        <ele>-13</ele>
        <time>2021-05-29 12:17:16</time>
      </trkpt>
      <trkpt lat="43.29972" lon="-2.24624">
        <ele>-13</ele>
        <time>2021-05-29 12:17:17</time>
      </trkpt>
      <trkpt lat="43.29961" lon="-2.24623">
        <ele>-13</ele>
        <time>2021-05-29 12:17:18</time>
      </trkpt>
      <trkpt lat="43.2995" lon="-2.24624">
        <ele>-13</ele>
        <time>2021-05-29 12:17:19</time>
      </trkpt>
      <trkpt lat="43.29939" lon="-2.24625">
        <ele>-13</ele>
        <time>2021-05-29 12:17:20</time>
      </trkpt>
      <trkpt lat="43.29928" lon="-2.24629">
        <ele>-13</ele>
        <time>2021-05-29 12:17:21</time>
      </trkpt>
      <trkpt lat="43.29917" lon="-2.24634">
        <ele>-13</ele>
        <time>2021-05-29 12:17:22</time>
      </trkpt>
      <trkpt lat="43.29907" lon="-2.2464">
        <ele>-13.2</ele>
        <time>2021-05-29 12:17:23</time>
      </trkpt>
      <trkpt lat="43.29897" lon="-2.24648">
        <ele>-13.4</ele>
        <time>2021-05-29 12:17:24</time>
      </trkpt>
      <trkpt lat="43.29888" lon="-2.24657">
        <ele>-13.8</ele>
        <time>2021-05-29 12:17:25</time>
      </trkpt>
      <trkpt lat="43.29879" lon="-2.24666">
        <ele>-14</ele>
        <time>2021-05-29 12:17:26</time>
      </trkpt>
      <trkpt lat="43.29871" lon="-2.24675">
        <ele>-14.2</ele>
        <time>2021-05-29 12:17:27</time>
      </trkpt>
      <trkpt lat="43.29862" lon="-2.24684">
        <ele>-14.2</ele>
        <time>2021-05-29 12:17:28</time>
      </trkpt>
      <trkpt lat="43.29854" lon="-2.24693">
        <ele>-14.2</ele>
        <time>2021-05-29 12:17:29</time>
      </trkpt>
      <trkpt lat="43.29846" lon="-2.24703">
        <ele>-14.4</ele>
        <time>2021-05-29 12:17:30</time>
      </trkpt>
      <trkpt lat="43.29837" lon="-2.24714">
        <ele>-14.4</ele>
        <time>2021-05-29 12:17:31</time>
      </trkpt>
      <trkpt lat="43.2983" lon="-2.24725">
        <ele>-14.4</ele>
        <time>2021-05-29 12:17:32</time>
      </trkpt>
      <trkpt lat="43.29822" lon="-2.24736">
        <ele>-14.6</ele>
        <time>2021-05-29 12:17:33</time>
      </trkpt>
      <trkpt lat="43.29814" lon="-2.24746">
        <ele>-14.6</ele>
        <time>2021-05-29 12:17:34</time>
      </trkpt>
      <trkpt lat="43.29807" lon="-2.24757">
        <ele>-14.6</ele>
        <time>2021-05-29 12:17:35</time>
      </trkpt>
      <trkpt lat="43.298" lon="-2.24766">
        <ele>-14.8</ele>
        <time>2021-05-29 12:17:36</time>
      </trkpt>
      <trkpt lat="43.29793" lon="-2.24776">
        <ele>-15</ele>
        <time>2021-05-29 12:17:37</time>
      </trkpt>
      <trkpt lat="43.29786" lon="-2.24786">
        <ele>-15</ele>
        <time>2021-05-29 12:17:38</time>
      </trkpt>
      <trkpt lat="43.29779" lon="-2.24795">
        <ele>-15.2</ele>
        <time>2021-05-29 12:17:39</time>
      </trkpt>
      <trkpt lat="43.29772" lon="-2.24806">
        <ele>-15.2</ele>
        <time>2021-05-29 12:17:40</time>
      </trkpt>
      <trkpt lat="43.29765" lon="-2.24816">
        <ele>-15.4</ele>
        <time>2021-05-29 12:17:41</time>
      </trkpt>
      <trkpt lat="43.29758" lon="-2.24826">
        <ele>-15.4</ele>
        <time>2021-05-29 12:17:42</time>
      </trkpt>
      <trkpt lat="43.29751" lon="-2.24836">
        <ele>-15.6</ele>
        <time>2021-05-29 12:17:43</time>
      </trkpt>
      <trkpt lat="43.29744" lon="-2.24846">
        <ele>-15.6</ele>
        <time>2021-05-29 12:17:44</time>
      </trkpt>
      <trkpt lat="43.29736" lon="-2.24855">
        <ele>-15.8</ele>
        <time>2021-05-29 12:17:45</time>
      </trkpt>
      <trkpt lat="43.29729" lon="-2.24865">
        <ele>-15.8</ele>
        <time>2021-05-29 12:17:46</time>
      </trkpt>
      <trkpt lat="43.29722" lon="-2.24874">
        <ele>-16</ele>
        <time>2021-05-29 12:17:47</time>
      </trkpt>
      <trkpt lat="43.29714" lon="-2.24884">
        <ele>-16.2</ele>
        <time>2021-05-29 12:17:48</time>
      </trkpt>
      <trkpt lat="43.29707" lon="-2.24893">
        <ele>-16.4</ele>
        <time>2021-05-29 12:17:49</time>
      </trkpt>
      <trkpt lat="43.297" lon="-2.24903">
        <ele>-16.4</ele>
        <time>2021-05-29 12:17:50</time>
      </trkpt>
      <trkpt lat="43.29693" lon="-2.24912">
        <ele>-16.4</ele>
        <time>2021-05-29 12:17:51</time>
      </trkpt>
      <trkpt lat="43.29686" lon="-2.24922">
        <ele>-16.4</ele>
        <time>2021-05-29 12:17:52</time>
      </trkpt>
      <trkpt lat="43.2968" lon="-2.24931">
        <ele>-16.4</ele>
        <time>2021-05-29 12:17:53</time>
      </trkpt>
      <trkpt lat="43.29673" lon="-2.2494">
        <ele>-16.6</ele>
        <time>2021-05-29 12:17:54</time>
      </trkpt>
      <trkpt lat="43.29666" lon="-2.2495">
        <ele>-16.6</ele>
        <time>2021-05-29 12:17:55</time>
      </trkpt>
      <trkpt lat="43.29659" lon="-2.24959">
        <ele>-16.6</ele>
        <time>2021-05-29 12:17:56</time>
      </trkpt>
      <trkpt lat="43.29653" lon="-2.24968">
        <ele>-16.6</ele>
        <time>2021-05-29 12:17:57</time>
      </trkpt>
      <trkpt lat="43.29646" lon="-2.24978">
        <ele>-16.6</ele>
        <time>2021-05-29 12:17:58</time>
      </trkpt>
      <trkpt lat="43.2964" lon="-2.24987">
        <ele>-16.8</ele>
        <time>2021-05-29 12:17:59</time>
      </trkpt>
      <trkpt lat="43.29634" lon="-2.24996">
        <ele>-16.8</ele>
        <time>2021-05-29 12:18:00</time>
      </trkpt>
      <trkpt lat="43.29627" lon="-2.25005">
        <ele>-16.8</ele>
        <time>2021-05-29 12:18:01</time>
      </trkpt>
      <trkpt lat="43.2962" lon="-2.25014">
        <ele>-16.8</ele>
        <time>2021-05-29 12:18:02</time>
      </trkpt>
      <trkpt lat="43.29613" lon="-2.25023">
        <ele>-16.8</ele>
        <time>2021-05-29 12:18:03</time>
      </trkpt>
      <trkpt lat="43.29606" lon="-2.25032">
        <ele>-16.8</ele>
        <time>2021-05-29 12:18:04</time>
      </trkpt>
      <trkpt lat="43.29599" lon="-2.25041">
        <ele>-16.8</ele>
        <time>2021-05-29 12:18:05</time>
      </trkpt>
      <trkpt lat="43.29592" lon="-2.2505">
        <ele>-16.8</ele>
        <time>2021-05-29 12:18:06</time>
      </trkpt>
      <trkpt lat="43.29585" lon="-2.25059">
        <ele>-16.8</ele>
        <time>2021-05-29 12:18:07</time>
      </trkpt>
      <trkpt lat="43.29578" lon="-2.25067">
        <ele>-16.8</ele>
        <time>2021-05-29 12:18:08</time>
      </trkpt>
      <trkpt lat="43.29571" lon="-2.25076">
        <ele>-16.8</ele>
        <time>2021-05-29 12:18:09</time>
      </trkpt>
      <trkpt lat="43.29564" lon="-2.25083">
        <ele>-16.8</ele>
        <time>2021-05-29 12:18:10</time>
      </trkpt>
      <trkpt lat="43.29556" lon="-2.25091">
        <ele>-16.8</ele>
        <time>2021-05-29 12:18:11</time>
      </trkpt>
      <trkpt lat="43.29547" lon="-2.25098">
        <ele>-16.6</ele>
        <time>2021-05-29 12:18:12</time>
      </trkpt>
      <trkpt lat="43.29538" lon="-2.25105">
        <ele>-16.6</ele>
        <time>2021-05-29 12:18:13</time>
      </trkpt>
      <trkpt lat="43.29529" lon="-2.25112">
        <ele>-16.4</ele>
        <time>2021-05-29 12:18:14</time>
      </trkpt>
      <trkpt lat="43.2952" lon="-2.25118">
        <ele>-16.4</ele>
        <time>2021-05-29 12:18:15</time>
      </trkpt>
      <trkpt lat="43.29511" lon="-2.25125">
        <ele>-16.4</ele>
        <time>2021-05-29 12:18:16</time>
      </trkpt>
      <trkpt lat="43.29502" lon="-2.25132">
        <ele>-16.2</ele>
        <time>2021-05-29 12:18:17</time>
      </trkpt>
      <trkpt lat="43.29494" lon="-2.25139">
        <ele>-16.2</ele>
        <time>2021-05-29 12:18:18</time>
      </trkpt>
      <trkpt lat="43.29485" lon="-2.25145">
        <ele>-16.2</ele>
        <time>2021-05-29 12:18:19</time>
      </trkpt>
      <trkpt lat="43.29476" lon="-2.25152">
        <ele>-16.2</ele>
        <time>2021-05-29 12:18:20</time>
      </trkpt>
      <trkpt lat="43.29468" lon="-2.25158">
        <ele>-16.2</ele>
        <time>2021-05-29 12:18:21</time>
      </trkpt>
      <trkpt lat="43.2946" lon="-2.25165">
        <ele>-16</ele>
        <time>2021-05-29 12:18:22</time>
      </trkpt>
      <trkpt lat="43.29451" lon="-2.25171">
        <ele>-16</ele>
        <time>2021-05-29 12:18:23</time>
      </trkpt>
      <trkpt lat="43.29443" lon="-2.25177">
        <ele>-16</ele>
        <time>2021-05-29 12:18:24</time>
      </trkpt>
      <trkpt lat="43.29435" lon="-2.25183">
        <ele>-16</ele>
        <time>2021-05-29 12:18:25</time>
      </trkpt>
      <trkpt lat="43.29427" lon="-2.25189">
        <ele>-16</ele>
        <time>2021-05-29 12:18:26</time>
      </trkpt>
      <trkpt lat="43.29419" lon="-2.25196">
        <ele>-16</ele>
        <time>2021-05-29 12:18:27</time>
      </trkpt>
      <trkpt lat="43.29411" lon="-2.25202">
        <ele>-16</ele>
        <time>2021-05-29 12:18:28</time>
      </trkpt>
      <trkpt lat="43.29402" lon="-2.25208">
        <ele>-16</ele>
        <time>2021-05-29 12:18:29</time>
      </trkpt>
      <trkpt lat="43.29394" lon="-2.25214">
        <ele>-16</ele>
        <time>2021-05-29 12:18:30</time>
      </trkpt>
      <trkpt lat="43.29386" lon="-2.2522">
        <ele>-16</ele>
        <time>2021-05-29 12:18:31</time>
      </trkpt>
      <trkpt lat="43.29378" lon="-2.25227">
        <ele>-16</ele>
        <time>2021-05-29 12:18:32</time>
      </trkpt>
      <trkpt lat="43.29372" lon="-2.25235">
        <ele>-16</ele>
        <time>2021-05-29 12:18:33</time>
      </trkpt>
      <trkpt lat="43.29367" lon="-2.25243">
        <ele>-16</ele>
        <time>2021-05-29 12:18:34</time>
      </trkpt>
      <trkpt lat="43.29363" lon="-2.25254">
        <ele>-16</ele>
        <time>2021-05-29 12:18:35</time>
      </trkpt>
      <trkpt lat="43.29361" lon="-2.25265">
        <ele>-16</ele>
        <time>2021-05-29 12:18:36</time>
      </trkpt>
      <trkpt lat="43.29359" lon="-2.25276">
        <ele>-16</ele>
        <time>2021-05-29 12:18:37</time>
      </trkpt>
      <trkpt lat="43.29356" lon="-2.25286">
        <ele>-16</ele>
        <time>2021-05-29 12:18:38</time>
      </trkpt>
      <trkpt lat="43.29351" lon="-2.25295">
        <ele>-16</ele>
        <time>2021-05-29 12:18:39</time>
      </trkpt>
      <trkpt lat="43.29345" lon="-2.25303">
        <ele>-16</ele>
        <time>2021-05-29 12:18:40</time>
      </trkpt>
      <trkpt lat="43.29336" lon="-2.25308">
        <ele>-16</ele>
        <time>2021-05-29 12:18:41</time>
      </trkpt>
      <trkpt lat="43.29327" lon="-2.25311">
        <ele>-16</ele>
        <time>2021-05-29 12:18:42</time>
      </trkpt>
      <trkpt lat="43.29318" lon="-2.25313">
        <ele>-16</ele>
        <time>2021-05-29 12:18:43</time>
      </trkpt>
      <trkpt lat="43.29308" lon="-2.25314">
        <ele>-16</ele>
        <time>2021-05-29 12:18:44</time>
      </trkpt>
      <trkpt lat="43.29299" lon="-2.25315">
        <ele>-16</ele>
        <time>2021-05-29 12:18:45</time>
      </trkpt>
      <trkpt lat="43.29289" lon="-2.25316">
        <ele>-16</ele>
        <time>2021-05-29 12:18:46</time>
      </trkpt>
      <trkpt lat="43.2928" lon="-2.25316">
        <ele>-16</ele>
        <time>2021-05-29 12:18:47</time>
      </trkpt>
      <trkpt lat="43.29271" lon="-2.25317">
        <ele>-16</ele>
        <time>2021-05-29 12:18:48</time>
      </trkpt>
      <trkpt lat="43.29262" lon="-2.25317">
        <ele>-16</ele>
        <time>2021-05-29 12:18:49</time>
      </trkpt>
      <trkpt lat="43.29253" lon="-2.25318">
        <ele>-16</ele>
        <time>2021-05-29 12:18:50</time>
      </trkpt>
      <trkpt lat="43.29244" lon="-2.25319">
        <ele>-16</ele>
        <time>2021-05-29 12:18:51</time>
      </trkpt>
      <trkpt lat="43.29234" lon="-2.2532">
        <ele>-16</ele>
        <time>2021-05-29 12:18:52</time>
      </trkpt>
      <trkpt lat="43.29225" lon="-2.25321">
        <ele>-16</ele>
        <time>2021-05-29 12:18:53</time>
      </trkpt>
      <trkpt lat="43.29215" lon="-2.25322">
        <ele>-16</ele>
        <time>2021-05-29 12:18:54</time>
      </trkpt>
      <trkpt lat="43.29205" lon="-2.25324">
        <ele>-16</ele>
        <time>2021-05-29 12:18:55</time>
      </trkpt>
      <trkpt lat="43.29195" lon="-2.25326">
        <ele>-16</ele>
        <time>2021-05-29 12:18:56</time>
      </trkpt>
      <trkpt lat="43.29185" lon="-2.25328">
        <ele>-16</ele>
        <time>2021-05-29 12:18:57</time>
      </trkpt>
      <trkpt lat="43.29174" lon="-2.25331">
        <ele>-16</ele>
        <time>2021-05-29 12:18:58</time>
      </trkpt>
      <trkpt lat="43.29164" lon="-2.25334">
        <ele>-16</ele>
        <time>2021-05-29 12:18:59</time>
      </trkpt>
      <trkpt lat="43.29154" lon="-2.25338">
        <ele>-16</ele>
        <time>2021-05-29 12:19:00</time>
      </trkpt>
      <trkpt lat="43.29145" lon="-2.25342">
        <ele>-16</ele>
        <time>2021-05-29 12:19:01</time>
      </trkpt>
      <trkpt lat="43.29135" lon="-2.25347">
        <ele>-16</ele>
        <time>2021-05-29 12:19:02</time>
      </trkpt>
      <trkpt lat="43.29126" lon="-2.25352">
        <ele>-16</ele>
        <time>2021-05-29 12:19:03</time>
      </trkpt>
      <trkpt lat="43.29117" lon="-2.25357">
        <ele>-16</ele>
        <time>2021-05-29 12:19:04</time>
      </trkpt>
      <trkpt lat="43.29108" lon="-2.25363">
        <ele>-16</ele>
        <time>2021-05-29 12:19:05</time>
      </trkpt>
      <trkpt lat="43.291" lon="-2.25368">
        <ele>-16</ele>
        <time>2021-05-29 12:19:06</time>
      </trkpt>
      <trkpt lat="43.29091" lon="-2.25373">
        <ele>-16</ele>
        <time>2021-05-29 12:19:07</time>
      </trkpt>
      <trkpt lat="43.29083" lon="-2.25379">
        <ele>-16</ele>
        <time>2021-05-29 12:19:08</time>
      </trkpt>
      <trkpt lat="43.29075" lon="-2.25384">
        <ele>-15.8</ele>
        <time>2021-05-29 12:19:09</time>
      </trkpt>
      <trkpt lat="43.29068" lon="-2.2539">
        <ele>-15.8</ele>
        <time>2021-05-29 12:19:10</time>
      </trkpt>
      <trkpt lat="43.2906" lon="-2.25395">
        <ele>-15.8</ele>
        <time>2021-05-29 12:19:11</time>
      </trkpt>
      <trkpt lat="43.29052" lon="-2.254">
        <ele>-15.4</ele>
        <time>2021-05-29 12:19:12</time>
      </trkpt>
      <trkpt lat="43.29045" lon="-2.25405">
        <ele>-15</ele>
        <time>2021-05-29 12:19:13</time>
      </trkpt>
      <trkpt lat="43.29038" lon="-2.25409">
        <ele>-14.6</ele>
        <time>2021-05-29 12:19:14</time>
      </trkpt>
      <trkpt lat="43.29031" lon="-2.25414">
        <ele>-14.4</ele>
        <time>2021-05-29 12:19:15</time>
      </trkpt>
      <trkpt lat="43.29024" lon="-2.25418">
        <ele>-14.2</ele>
        <time>2021-05-29 12:19:16</time>
      </trkpt>
      <trkpt lat="43.29017" lon="-2.25422">
        <ele>-14</ele>
        <time>2021-05-29 12:19:17</time>
      </trkpt>
      <trkpt lat="43.2901" lon="-2.25425">
        <ele>-13.8</ele>
        <time>2021-05-29 12:19:18</time>
      </trkpt>
      <trkpt lat="43.29002" lon="-2.25428">
        <ele>-13.4</ele>
        <time>2021-05-29 12:19:19</time>
      </trkpt>
      <trkpt lat="43.28995" lon="-2.25431">
        <ele>-13</ele>
        <time>2021-05-29 12:19:20</time>
      </trkpt>
      <trkpt lat="43.28987" lon="-2.25434">
        <ele>-12.8</ele>
        <time>2021-05-29 12:19:21</time>
      </trkpt>
      <trkpt lat="43.2898" lon="-2.25437">
        <ele>-12.6</ele>
        <time>2021-05-29 12:19:22</time>
      </trkpt>
      <trkpt lat="43.28972" lon="-2.2544">
        <ele>-12.2</ele>
        <time>2021-05-29 12:19:23</time>
      </trkpt>
      <trkpt lat="43.28964" lon="-2.25442">
        <ele>-11.8</ele>
        <time>2021-05-29 12:19:24</time>
      </trkpt>
      <trkpt lat="43.28956" lon="-2.25445">
        <ele>-11.6</ele>
        <time>2021-05-29 12:19:25</time>
      </trkpt>
      <trkpt lat="43.28949" lon="-2.25447">
        <ele>-11.4</ele>
        <time>2021-05-29 12:19:26</time>
      </trkpt>
      <trkpt lat="43.28941" lon="-2.2545">
        <ele>-11.2</ele>
        <time>2021-05-29 12:19:27</time>
      </trkpt>
      <trkpt lat="43.28933" lon="-2.25452">
        <ele>-11.2</ele>
        <time>2021-05-29 12:19:28</time>
      </trkpt>
      <trkpt lat="43.28926" lon="-2.25454">
        <ele>-11</ele>
        <time>2021-05-29 12:19:29</time>
      </trkpt>
      <trkpt lat="43.28919" lon="-2.25456">
        <ele>-11</ele>
        <time>2021-05-29 12:19:30</time>
      </trkpt>
      <trkpt lat="43.28911" lon="-2.25459">
        <ele>-10.8</ele>
        <time>2021-05-29 12:19:31</time>
      </trkpt>
      <trkpt lat="43.28904" lon="-2.25461">
        <ele>-10.8</ele>
        <time>2021-05-29 12:19:32</time>
      </trkpt>
      <trkpt lat="43.28897" lon="-2.25463">
        <ele>-10.6</ele>
        <time>2021-05-29 12:19:33</time>
      </trkpt>
      <trkpt lat="43.2889" lon="-2.25465">
        <ele>-10.8</ele>
        <time>2021-05-29 12:19:34</time>
      </trkpt>
      <trkpt lat="43.28882" lon="-2.25467">
        <ele>-10.6</ele>
        <time>2021-05-29 12:19:35</time>
      </trkpt>
      <trkpt lat="43.28875" lon="-2.25469">
        <ele>-10.4</ele>
        <time>2021-05-29 12:19:36</time>
      </trkpt>
      <trkpt lat="43.28868" lon="-2.25472">
        <ele>-10.4</ele>
        <time>2021-05-29 12:19:37</time>
      </trkpt>
      <trkpt lat="43.2886" lon="-2.25474">
        <ele>-10.2</ele>
        <time>2021-05-29 12:19:38</time>
      </trkpt>
      <trkpt lat="43.28853" lon="-2.25476">
        <ele>-10.2</ele>
        <time>2021-05-29 12:19:39</time>
      </trkpt>
      <trkpt lat="43.28846" lon="-2.25478">
        <ele>-10</ele>
        <time>2021-05-29 12:19:40</time>
      </trkpt>
      <trkpt lat="43.28838" lon="-2.25481">
        <ele>-10</ele>
        <time>2021-05-29 12:19:41</time>
      </trkpt>
      <trkpt lat="43.28831" lon="-2.25483">
        <ele>-9.8</ele>
        <time>2021-05-29 12:19:42</time>
      </trkpt>
      <trkpt lat="43.28824" lon="-2.25485">
        <ele>-9.6</ele>
        <time>2021-05-29 12:19:43</time>
      </trkpt>
      <trkpt lat="43.28816" lon="-2.25488">
        <ele>-9.6</ele>
        <time>2021-05-29 12:19:44</time>
      </trkpt>
      <trkpt lat="43.28809" lon="-2.2549">
        <ele>-9.6</ele>
        <time>2021-05-29 12:19:45</time>
      </trkpt>
      <trkpt lat="43.28802" lon="-2.25492">
        <ele>-9.4</ele>
        <time>2021-05-29 12:19:46</time>
      </trkpt>
      <trkpt lat="43.28795" lon="-2.25494">
        <ele>-9.2</ele>
        <time>2021-05-29 12:19:47</time>
      </trkpt>
      <trkpt lat="43.28787" lon="-2.25496">
        <ele>-9</ele>
        <time>2021-05-29 12:19:48</time>
      </trkpt>
      <trkpt lat="43.2878" lon="-2.25499">
        <ele>-8.8</ele>
        <time>2021-05-29 12:19:49</time>
      </trkpt>
      <trkpt lat="43.28773" lon="-2.25501">
        <ele>-8.8</ele>
        <time>2021-05-29 12:19:50</time>
      </trkpt>
      <trkpt lat="43.28766" lon="-2.25504">
        <ele>-8.6</ele>
        <time>2021-05-29 12:19:51</time>
      </trkpt>
      <trkpt lat="43.28759" lon="-2.25506">
        <ele>-8.6</ele>
        <time>2021-05-29 12:19:52</time>
      </trkpt>
      <trkpt lat="43.28752" lon="-2.25508">
        <ele>-8.4</ele>
        <time>2021-05-29 12:19:53</time>
      </trkpt>
      <trkpt lat="43.28745" lon="-2.2551">
        <ele>-8.4</ele>
        <time>2021-05-29 12:19:54</time>
      </trkpt>
      <trkpt lat="43.28738" lon="-2.25512">
        <ele>-8.2</ele>
        <time>2021-05-29 12:19:55</time>
      </trkpt>
      <trkpt lat="43.28731" lon="-2.25515">
        <ele>-8.2</ele>
        <time>2021-05-29 12:19:56</time>
      </trkpt>
      <trkpt lat="43.28724" lon="-2.25517">
        <ele>-8</ele>
        <time>2021-05-29 12:19:57</time>
      </trkpt>
      <trkpt lat="43.28717" lon="-2.25519">
        <ele>-7.6</ele>
        <time>2021-05-29 12:19:58</time>
      </trkpt>
      <trkpt lat="43.2871" lon="-2.25521">
        <ele>-7.4</ele>
        <time>2021-05-29 12:19:59</time>
      </trkpt>
      <trkpt lat="43.28703" lon="-2.25523">
        <ele>-7.2</ele>
        <time>2021-05-29 12:20:00</time>
      </trkpt>
      <trkpt lat="43.28696" lon="-2.25525">
        <ele>-7</ele>
        <time>2021-05-29 12:20:01</time>
      </trkpt>
      <trkpt lat="43.28689" lon="-2.25527">
        <ele>-6.8</ele>
        <time>2021-05-29 12:20:02</time>
      </trkpt>
      <trkpt lat="43.28683" lon="-2.25529">
        <ele>-6.8</ele>
        <time>2021-05-29 12:20:03</time>
      </trkpt>
      <trkpt lat="43.28676" lon="-2.25532">
        <ele>-6.4</ele>
        <time>2021-05-29 12:20:04</time>
      </trkpt>
      <trkpt lat="43.28669" lon="-2.25534">
        <ele>-6</ele>
        <time>2021-05-29 12:20:05</time>
      </trkpt>
      <trkpt lat="43.28662" lon="-2.25536">
        <ele>-5.8</ele>
        <time>2021-05-29 12:20:06</time>
      </trkpt>
      <trkpt lat="43.28655" lon="-2.25538">
        <ele>-5.6</ele>
        <time>2021-05-29 12:20:07</time>
      </trkpt>
      <trkpt lat="43.28648" lon="-2.2554">
        <ele>-5.4</ele>
        <time>2021-05-29 12:20:08</time>
      </trkpt>
      <trkpt lat="43.28641" lon="-2.25542">
        <ele>-5</ele>
        <time>2021-05-29 12:20:09</time>
      </trkpt>
      <trkpt lat="43.28633" lon="-2.25544">
        <ele>-4.8</ele>
        <time>2021-05-29 12:20:10</time>
      </trkpt>
      <trkpt lat="43.28626" lon="-2.25547">
        <ele>-4.6</ele>
        <time>2021-05-29 12:20:11</time>
      </trkpt>
      <trkpt lat="43.28619" lon="-2.25548">
        <ele>-4.4</ele>
        <time>2021-05-29 12:20:12</time>
      </trkpt>
      <trkpt lat="43.28611" lon="-2.2555">
        <ele>-4</ele>
        <time>2021-05-29 12:20:13</time>
      </trkpt>
      <trkpt lat="43.28604" lon="-2.25552">
        <ele>-3.6</ele>
        <time>2021-05-29 12:20:14</time>
      </trkpt>
      <trkpt lat="43.28597" lon="-2.25554">
        <ele>-3.4</ele>
        <time>2021-05-29 12:20:15</time>
      </trkpt>
      <trkpt lat="43.28589" lon="-2.25555">
        <ele>-3.2</ele>
        <time>2021-05-29 12:20:16</time>
      </trkpt>
      <trkpt lat="43.28582" lon="-2.25556">
        <ele>-3</ele>
        <time>2021-05-29 12:20:17</time>
      </trkpt>
      <trkpt lat="43.28574" lon="-2.25557">
        <ele>-2.6</ele>
        <time>2021-05-29 12:20:18</time>
      </trkpt>
      <trkpt lat="43.28565" lon="-2.25557">
        <ele>-2.4</ele>
        <time>2021-05-29 12:20:19</time>
      </trkpt>
      <trkpt lat="43.28557" lon="-2.25558">
        <ele>-2.2</ele>
        <time>2021-05-29 12:20:20</time>
      </trkpt>
      <trkpt lat="43.28549" lon="-2.25558">
        <ele>-2</ele>
        <time>2021-05-29 12:20:21</time>
      </trkpt>
      <trkpt lat="43.2854" lon="-2.25558">
        <ele>-2</ele>
        <time>2021-05-29 12:20:22</time>
      </trkpt>
      <trkpt lat="43.28532" lon="-2.25557">
        <ele>-1.8</ele>
        <time>2021-05-29 12:20:23</time>
      </trkpt>
      <trkpt lat="43.28524" lon="-2.25557">
        <ele>-1.8</ele>
        <time>2021-05-29 12:20:24</time>
      </trkpt>
      <trkpt lat="43.28515" lon="-2.25557">
        <ele>-1.6</ele>
        <time>2021-05-29 12:20:25</time>
      </trkpt>
      <trkpt lat="43.28506" lon="-2.25557">
        <ele>-1.6</ele>
        <time>2021-05-29 12:20:26</time>
      </trkpt>
      <trkpt lat="43.28498" lon="-2.25557">
        <ele>-1.6</ele>
        <time>2021-05-29 12:20:27</time>
      </trkpt>
      <trkpt lat="43.28489" lon="-2.25557">
        <ele>-1.4</ele>
        <time>2021-05-29 12:20:28</time>
      </trkpt>
      <trkpt lat="43.2848" lon="-2.25557">
        <ele>-1.4</ele>
        <time>2021-05-29 12:20:29</time>
      </trkpt>
      <trkpt lat="43.28471" lon="-2.25558">
        <ele>-1.4</ele>
        <time>2021-05-29 12:20:30</time>
      </trkpt>
      <trkpt lat="43.28462" lon="-2.2556">
        <ele>-1.2</ele>
        <time>2021-05-29 12:20:31</time>
      </trkpt>
      <trkpt lat="43.28452" lon="-2.25561">
        <ele>-1.2</ele>
        <time>2021-05-29 12:20:32</time>
      </trkpt>
      <trkpt lat="43.28443" lon="-2.25564">
        <ele>-1.2</ele>
        <time>2021-05-29 12:20:33</time>
      </trkpt>
      <trkpt lat="43.28434" lon="-2.25567">
        <ele>-1.2</ele>
        <time>2021-05-29 12:20:34</time>
      </trkpt>
      <trkpt lat="43.28425" lon="-2.25571">
        <ele>-1.2</ele>
        <time>2021-05-29 12:20:35</time>
      </trkpt>
      <trkpt lat="43.28417" lon="-2.25575">
        <ele>-1</ele>
        <time>2021-05-29 12:20:36</time>
      </trkpt>
      <trkpt lat="43.28409" lon="-2.2558">
        <ele>-1</ele>
        <time>2021-05-29 12:20:37</time>
      </trkpt>
      <trkpt lat="43.28401" lon="-2.25585">
        <ele>-1</ele>
        <time>2021-05-29 12:20:38</time>
      </trkpt>
      <trkpt lat="43.28393" lon="-2.25592">
        <ele>-1</ele>
        <time>2021-05-29 12:20:39</time>
      </trkpt>
      <trkpt lat="43.28386" lon="-2.25598">
        <ele>-1</ele>
        <time>2021-05-29 12:20:40</time>
      </trkpt>
      <trkpt lat="43.28379" lon="-2.25605">
        <ele>-1</ele>
        <time>2021-05-29 12:20:41</time>
      </trkpt>
      <trkpt lat="43.28372" lon="-2.25612">
        <ele>-1</ele>
        <time>2021-05-29 12:20:42</time>
      </trkpt>
      <trkpt lat="43.28366" lon="-2.2562">
        <ele>-0.8</ele>
        <time>2021-05-29 12:20:43</time>
      </trkpt>
      <trkpt lat="43.2836" lon="-2.25628">
        <ele>-0.8</ele>
        <time>2021-05-29 12:20:44</time>
      </trkpt>
      <trkpt lat="43.28356" lon="-2.25637">
        <ele>-0.8</ele>
        <time>2021-05-29 12:20:45</time>
      </trkpt>
      <trkpt lat="43.28353" lon="-2.25648">
        <ele>-0.6</ele>
        <time>2021-05-29 12:20:46</time>
      </trkpt>
      <trkpt lat="43.28351" lon="-2.25659">
        <ele>-0.6</ele>
        <time>2021-05-29 12:20:47</time>
      </trkpt>
      <trkpt lat="43.28352" lon="-2.25671">
        <ele>-0.6</ele>
        <time>2021-05-29 12:20:48</time>
      </trkpt>
      <trkpt lat="43.28352" lon="-2.25683">
        <ele>-0.4</ele>
        <time>2021-05-29 12:20:49</time>
      </trkpt>
      <trkpt lat="43.28354" lon="-2.25695">
        <ele>-0.4</ele>
        <time>2021-05-29 12:20:50</time>
      </trkpt>
      <trkpt lat="43.28356" lon="-2.25707">
        <ele>-0.2</ele>
        <time>2021-05-29 12:20:51</time>
      </trkpt>
      <trkpt lat="43.28359" lon="-2.25719">
        <time>2021-05-29 12:20:52</time>
      </trkpt>
      <trkpt lat="43.28362" lon="-2.25731">
        <ele>0.2</ele>
        <time>2021-05-29 12:20:53</time>
      </trkpt>
      <trkpt lat="43.28367" lon="-2.25743">
        <ele>0.2</ele>
        <time>2021-05-29 12:20:54</time>
      </trkpt>
      <trkpt lat="43.28372" lon="-2.25756">
        <ele>0.2</ele>
        <time>2021-05-29 12:20:55</time>
      </trkpt>
      <trkpt lat="43.28377" lon="-2.2577">
        <ele>0.2</ele>
        <time>2021-05-29 12:20:56</time>
      </trkpt>
      <trkpt lat="43.28382" lon="-2.25784">
        <ele>0.2</ele>
        <time>2021-05-29 12:20:57</time>
      </trkpt>
      <trkpt lat="43.28388" lon="-2.25799">
        <ele>0.2</ele>
        <time>2021-05-29 12:20:58</time>
      </trkpt>
      <trkpt lat="43.28393" lon="-2.25815">
        <ele>0.2</ele>
        <time>2021-05-29 12:20:59</time>
      </trkpt>
      <trkpt lat="43.28399" lon="-2.25831">
        <ele>0.2</ele>
        <time>2021-05-29 12:21:00</time>
      </trkpt>
      <trkpt lat="43.28404" lon="-2.25847">
        <ele>0.2</ele>
        <time>2021-05-29 12:21:01</time>
      </trkpt>
      <trkpt lat="43.2841" lon="-2.25864">
        <ele>-0.2</ele>
        <time>2021-05-29 12:21:02</time>
      </trkpt>
      <trkpt lat="43.28416" lon="-2.2588">
        <ele>-1</ele>
        <time>2021-05-29 12:21:03</time>
      </trkpt>
      <trkpt lat="43.28423" lon="-2.25896">
        <ele>-2</ele>
        <time>2021-05-29 12:21:04</time>
      </trkpt>
      <trkpt lat="43.28431" lon="-2.25911">
        <ele>-3</ele>
        <time>2021-05-29 12:21:05</time>
      </trkpt>
      <trkpt lat="43.2844" lon="-2.25923">
        <ele>-4</ele>
        <time>2021-05-29 12:21:06</time>
      </trkpt>
      <trkpt lat="43.2845" lon="-2.25932">
        <ele>-5</ele>
        <time>2021-05-29 12:21:07</time>
      </trkpt>
      <trkpt lat="43.28461" lon="-2.25938">
        <ele>-6</ele>
        <time>2021-05-29 12:21:08</time>
      </trkpt>
      <trkpt lat="43.28473" lon="-2.25942">
        <ele>-7.2</ele>
        <time>2021-05-29 12:21:09</time>
      </trkpt>
      <trkpt lat="43.28484" lon="-2.25945">
        <ele>-8.4</ele>
        <time>2021-05-29 12:21:10</time>
      </trkpt>
      <trkpt lat="43.28493" lon="-2.25952">
        <ele>-9.6</ele>
        <time>2021-05-29 12:21:11</time>
      </trkpt>
      <trkpt lat="43.285" lon="-2.25962">
        <ele>-10.4</ele>
        <time>2021-05-29 12:21:12</time>
      </trkpt>
      <trkpt lat="43.28502" lon="-2.25974">
        <ele>-11</ele>
        <time>2021-05-29 12:21:13</time>
      </trkpt>
      <trkpt lat="43.285" lon="-2.25986">
        <ele>-11.8</ele>
        <time>2021-05-29 12:21:14</time>
      </trkpt>
      <trkpt lat="43.28496" lon="-2.25998">
        <ele>-12.8</ele>
        <time>2021-05-29 12:21:15</time>
      </trkpt>
      <trkpt lat="43.28493" lon="-2.2601">
        <ele>-13.4</ele>
        <time>2021-05-29 12:21:16</time>
      </trkpt>
      <trkpt lat="43.28491" lon="-2.26022">
        <ele>-13.8</ele>
        <time>2021-05-29 12:21:17</time>
      </trkpt>
      <trkpt lat="43.28492" lon="-2.26036">
        <ele>-14.2</ele>
        <time>2021-05-29 12:21:18</time>
      </trkpt>
      <trkpt lat="43.28495" lon="-2.26049">
        <ele>-14.6</ele>
        <time>2021-05-29 12:21:19</time>
      </trkpt>
      <trkpt lat="43.28499" lon="-2.26061">
        <ele>-15</ele>
        <time>2021-05-29 12:21:20</time>
      </trkpt>
      <trkpt lat="43.28505" lon="-2.26073">
        <ele>-15.4</ele>
        <time>2021-05-29 12:21:21</time>
      </trkpt>
      <trkpt lat="43.28511" lon="-2.26084">
        <ele>-15.6</ele>
        <time>2021-05-29 12:21:22</time>
      </trkpt>
      <trkpt lat="43.28517" lon="-2.26095">
        <ele>-15.8</ele>
        <time>2021-05-29 12:21:23</time>
      </trkpt>
      <trkpt lat="43.28524" lon="-2.26106">
        <ele>-16</ele>
        <time>2021-05-29 12:21:24</time>
      </trkpt>
      <trkpt lat="43.28531" lon="-2.26117">
        <ele>-16</ele>
        <time>2021-05-29 12:21:25</time>
      </trkpt>
      <trkpt lat="43.28537" lon="-2.26128">
        <ele>-16.2</ele>
        <time>2021-05-29 12:21:26</time>
      </trkpt>
      <trkpt lat="43.28543" lon="-2.26139">
        <ele>-16.8</ele>
        <time>2021-05-29 12:21:27</time>
      </trkpt>
      <trkpt lat="43.28547" lon="-2.26152">
        <ele>-17.2</ele>
        <time>2021-05-29 12:21:28</time>
      </trkpt>
      <trkpt lat="43.28551" lon="-2.26165">
        <ele>-17.4</ele>
        <time>2021-05-29 12:21:29</time>
      </trkpt>
      <trkpt lat="43.28553" lon="-2.26179">
        <ele>-17.4</ele>
        <time>2021-05-29 12:21:30</time>
      </trkpt>
      <trkpt lat="43.28554" lon="-2.26193">
        <ele>-17.6</ele>
        <time>2021-05-29 12:21:31</time>
      </trkpt>
      <trkpt lat="43.28554" lon="-2.26205">
        <ele>-17.6</ele>
        <time>2021-05-29 12:21:32</time>
      </trkpt>
      <trkpt lat="43.28554" lon="-2.26218">
        <ele>-17.6</ele>
        <time>2021-05-29 12:21:33</time>
      </trkpt>
      <trkpt lat="43.28552" lon="-2.26231">
        <ele>-17.6</ele>
        <time>2021-05-29 12:21:34</time>
      </trkpt>
      <trkpt lat="43.28549" lon="-2.26242">
        <ele>-17.6</ele>
        <time>2021-05-29 12:21:35</time>
      </trkpt>
      <trkpt lat="43.28545" lon="-2.26253">
        <ele>-17.6</ele>
        <time>2021-05-29 12:21:36</time>
      </trkpt>
      <trkpt lat="43.28542" lon="-2.26262">
        <ele>-17.6</ele>
        <time>2021-05-29 12:21:37</time>
      </trkpt>
      <trkpt lat="43.28536" lon="-2.26271">
        <ele>-17.6</ele>
        <time>2021-05-29 12:21:38</time>
      </trkpt>
      <trkpt lat="43.28529" lon="-2.2628">
        <ele>-17.4</ele>
        <time>2021-05-29 12:21:39</time>
      </trkpt>
      <trkpt lat="43.28523" lon="-2.26289">
        <ele>-17.2</ele>
        <time>2021-05-29 12:21:40</time>
      </trkpt>
      <trkpt lat="43.28515" lon="-2.26297">
        <ele>-17</ele>
        <time>2021-05-29 12:21:41</time>
      </trkpt>
      <trkpt lat="43.28508" lon="-2.26305">
        <ele>-16.8</ele>
        <time>2021-05-29 12:21:42</time>
      </trkpt>
      <trkpt lat="43.28501" lon="-2.26312">
        <ele>-16.8</ele>
        <time>2021-05-29 12:21:43</time>
      </trkpt>
      <trkpt lat="43.28494" lon="-2.2632">
        <ele>-16.8</ele>
        <time>2021-05-29 12:21:44</time>
      </trkpt>
      <trkpt lat="43.28486" lon="-2.26328">
        <ele>-16.8</ele>
        <time>2021-05-29 12:21:45</time>
      </trkpt>
      <trkpt lat="43.28479" lon="-2.26335">
        <ele>-16.8</ele>
        <time>2021-05-29 12:21:46</time>
      </trkpt>
      <trkpt lat="43.28471" lon="-2.26343">
        <ele>-16.8</ele>
        <time>2021-05-29 12:21:47</time>
      </trkpt>
      <trkpt lat="43.28466" lon="-2.26352">
        <ele>-16.6</ele>
        <time>2021-05-29 12:21:48</time>
      </trkpt>
      <trkpt lat="43.28462" lon="-2.26363">
        <ele>-16.6</ele>
        <time>2021-05-29 12:21:49</time>
      </trkpt>
      <trkpt lat="43.2846" lon="-2.26375">
        <ele>-16.6</ele>
        <time>2021-05-29 12:21:50</time>
      </trkpt>
      <trkpt lat="43.2846" lon="-2.26387">
        <ele>-16.6</ele>
        <time>2021-05-29 12:21:51</time>
      </trkpt>
      <trkpt lat="43.28461" lon="-2.26399">
        <ele>-16.6</ele>
        <time>2021-05-29 12:21:52</time>
      </trkpt>
      <trkpt lat="43.28463" lon="-2.2641">
        <ele>-16.6</ele>
        <time>2021-05-29 12:21:53</time>
      </trkpt>
      <trkpt lat="43.28465" lon="-2.26422">
        <ele>-16.6</ele>
        <time>2021-05-29 12:21:54</time>
      </trkpt>
      <trkpt lat="43.28468" lon="-2.26433">
        <ele>-16.6</ele>
        <time>2021-05-29 12:21:55</time>
      </trkpt>
      <trkpt lat="43.28471" lon="-2.26444">
        <ele>-16.6</ele>
        <time>2021-05-29 12:21:56</time>
      </trkpt>
      <trkpt lat="43.28475" lon="-2.26456">
        <ele>-16.6</ele>
        <time>2021-05-29 12:21:57</time>
      </trkpt>
      <trkpt lat="43.28478" lon="-2.26467">
        <ele>-16.6</ele>
        <time>2021-05-29 12:21:58</time>
      </trkpt>
      <trkpt lat="43.28481" lon="-2.26478">
        <ele>-16.6</ele>
        <time>2021-05-29 12:21:59</time>
      </trkpt>
      <trkpt lat="43.28484" lon="-2.2649">
        <ele>-16.4</ele>
        <time>2021-05-29 12:22:00</time>
      </trkpt>
      <trkpt lat="43.28487" lon="-2.26501">
        <ele>-16</ele>
        <time>2021-05-29 12:22:01</time>
      </trkpt>
      <trkpt lat="43.28489" lon="-2.26513">
        <ele>-15.8</ele>
        <time>2021-05-29 12:22:02</time>
      </trkpt>
      <trkpt lat="43.2849" lon="-2.26525">
        <ele>-15.6</ele>
        <time>2021-05-29 12:22:03</time>
      </trkpt>
      <trkpt lat="43.28491" lon="-2.26538">
        <ele>-15.6</ele>
        <time>2021-05-29 12:22:04</time>
      </trkpt>
      <trkpt lat="43.2849" lon="-2.26549">
        <ele>-15.4</ele>
        <time>2021-05-29 12:22:05</time>
      </trkpt>
      <trkpt lat="43.28487" lon="-2.26561">
        <ele>-15.4</ele>
        <time>2021-05-29 12:22:06</time>
      </trkpt>
      <trkpt lat="43.28484" lon="-2.26572">
        <ele>-15.2</ele>
        <time>2021-05-29 12:22:07</time>
      </trkpt>
      <trkpt lat="43.28479" lon="-2.26582">
        <ele>-15.2</ele>
        <time>2021-05-29 12:22:08</time>
      </trkpt>
      <trkpt lat="43.28473" lon="-2.26591">
        <ele>-15.2</ele>
        <time>2021-05-29 12:22:09</time>
      </trkpt>
      <trkpt lat="43.28466" lon="-2.26599">
        <ele>-15</ele>
        <time>2021-05-29 12:22:10</time>
      </trkpt>
      <trkpt lat="43.28459" lon="-2.26605">
        <ele>-15</ele>
        <time>2021-05-29 12:22:11</time>
      </trkpt>
      <trkpt lat="43.28451" lon="-2.26611">
        <ele>-14.8</ele>
        <time>2021-05-29 12:22:12</time>
      </trkpt>
      <trkpt lat="43.28442" lon="-2.26616">
        <ele>-14.8</ele>
        <time>2021-05-29 12:22:13</time>
      </trkpt>
      <trkpt lat="43.28434" lon="-2.2662">
        <ele>-14.8</ele>
        <time>2021-05-29 12:22:14</time>
      </trkpt>
      <trkpt lat="43.28425" lon="-2.26624">
        <ele>-14.8</ele>
        <time>2021-05-29 12:22:15</time>
      </trkpt>
      <trkpt lat="43.28417" lon="-2.26628">
        <ele>-14.8</ele>
        <time>2021-05-29 12:22:16</time>
      </trkpt>
      <trkpt lat="43.28409" lon="-2.26631">
        <ele>-14.6</ele>
        <time>2021-05-29 12:22:17</time>
      </trkpt>
      <trkpt lat="43.28401" lon="-2.26635">
        <ele>-14.6</ele>
        <time>2021-05-29 12:22:18</time>
      </trkpt>
      <trkpt lat="43.28393" lon="-2.26638">
        <ele>-14.6</ele>
        <time>2021-05-29 12:22:19</time>
      </trkpt>
      <trkpt lat="43.28385" lon="-2.26641">
        <ele>-14.4</ele>
        <time>2021-05-29 12:22:20</time>
      </trkpt>
      <trkpt lat="43.28378" lon="-2.26644">
        <ele>-14.4</ele>
        <time>2021-05-29 12:22:21</time>
      </trkpt>
      <trkpt lat="43.28369" lon="-2.26647">
        <ele>-14.4</ele>
        <time>2021-05-29 12:22:22</time>
      </trkpt>
      <trkpt lat="43.28361" lon="-2.2665">
        <ele>-14.4</ele>
        <time>2021-05-29 12:22:23</time>
      </trkpt>
      <trkpt lat="43.28352" lon="-2.26652">
        <ele>-14.4</ele>
        <time>2021-05-29 12:22:24</time>
      </trkpt>
      <trkpt lat="43.28344" lon="-2.26655">
        <ele>-14.4</ele>
        <time>2021-05-29 12:22:25</time>
      </trkpt>
      <trkpt lat="43.28336" lon="-2.26656">
        <ele>-14.4</ele>
        <time>2021-05-29 12:22:26</time>
      </trkpt>
      <trkpt lat="43.28328" lon="-2.26656">
        <ele>-14.2</ele>
        <time>2021-05-29 12:22:27</time>
      </trkpt>
      <trkpt lat="43.2832" lon="-2.26656">
        <ele>-14.2</ele>
        <time>2021-05-29 12:22:28</time>
      </trkpt>
      <trkpt lat="43.28312" lon="-2.26656">
        <ele>-14.2</ele>
        <time>2021-05-29 12:22:29</time>
      </trkpt>
      <trkpt lat="43.28304" lon="-2.26656">
        <ele>-14.2</ele>
        <time>2021-05-29 12:22:30</time>
      </trkpt>
      <trkpt lat="43.28296" lon="-2.26654">
        <ele>-14.2</ele>
        <time>2021-05-29 12:22:31</time>
      </trkpt>
      <trkpt lat="43.28288" lon="-2.26652">
        <ele>-14.2</ele>
        <time>2021-05-29 12:22:32</time>
      </trkpt>
      <trkpt lat="43.28279" lon="-2.2665">
        <ele>-14</ele>
        <time>2021-05-29 12:22:33</time>
      </trkpt>
      <trkpt lat="43.28272" lon="-2.26648">
        <ele>-13.6</ele>
        <time>2021-05-29 12:22:34</time>
      </trkpt>
      <trkpt lat="43.28264" lon="-2.26646">
        <ele>-13.6</ele>
        <time>2021-05-29 12:22:35</time>
      </trkpt>
      <trkpt lat="43.28256" lon="-2.26645">
        <ele>-13.2</ele>
        <time>2021-05-29 12:22:36</time>
      </trkpt>
      <trkpt lat="43.28248" lon="-2.26644">
        <ele>-13.2</ele>
        <time>2021-05-29 12:22:37</time>
      </trkpt>
      <trkpt lat="43.28241" lon="-2.26642">
        <ele>-13</ele>
        <time>2021-05-29 12:22:38</time>
      </trkpt>
      <trkpt lat="43.28233" lon="-2.2664">
        <ele>-13</ele>
        <time>2021-05-29 12:22:39</time>
      </trkpt>
      <trkpt lat="43.28226" lon="-2.26636">
        <ele>-12.8</ele>
        <time>2021-05-29 12:22:40</time>
      </trkpt>
      <trkpt lat="43.28219" lon="-2.26634">
        <ele>-12.8</ele>
        <time>2021-05-29 12:22:41</time>
      </trkpt>
      <trkpt lat="43.28211" lon="-2.26631">
        <ele>-12.4</ele>
        <time>2021-05-29 12:22:42</time>
      </trkpt>
      <trkpt lat="43.28203" lon="-2.26628">
        <ele>-12.4</ele>
        <time>2021-05-29 12:22:43</time>
      </trkpt>
      <trkpt lat="43.28195" lon="-2.26625">
        <ele>-12.2</ele>
        <time>2021-05-29 12:22:44</time>
      </trkpt>
      <trkpt lat="43.28187" lon="-2.26622">
        <ele>-12</ele>
        <time>2021-05-29 12:22:45</time>
      </trkpt>
      <trkpt lat="43.28178" lon="-2.26619">
        <ele>-11.6</ele>
        <time>2021-05-29 12:22:46</time>
      </trkpt>
      <trkpt lat="43.2817" lon="-2.26617">
        <ele>-11.2</ele>
        <time>2021-05-29 12:22:47</time>
      </trkpt>
      <trkpt lat="43.28161" lon="-2.26615">
        <ele>-11</ele>
        <time>2021-05-29 12:22:48</time>
      </trkpt>
      <trkpt lat="43.28153" lon="-2.26613">
        <ele>-10.6</ele>
        <time>2021-05-29 12:22:49</time>
      </trkpt>
      <trkpt lat="43.28145" lon="-2.26613">
        <ele>-10.4</ele>
        <time>2021-05-29 12:22:50</time>
      </trkpt>
      <trkpt lat="43.28137" lon="-2.26613">
        <ele>-10.2</ele>
        <time>2021-05-29 12:22:51</time>
      </trkpt>
      <trkpt lat="43.28128" lon="-2.26614">
        <ele>-10</ele>
        <time>2021-05-29 12:22:52</time>
      </trkpt>
      <trkpt lat="43.28119" lon="-2.26616">
        <ele>-9.8</ele>
        <time>2021-05-29 12:22:53</time>
      </trkpt>
      <trkpt lat="43.28111" lon="-2.26619">
        <ele>-9.8</ele>
        <time>2021-05-29 12:22:54</time>
      </trkpt>
      <trkpt lat="43.28104" lon="-2.26623">
        <ele>-9.6</ele>
        <time>2021-05-29 12:22:55</time>
      </trkpt>
      <trkpt lat="43.28097" lon="-2.26628">
        <ele>-9.4</ele>
        <time>2021-05-29 12:22:56</time>
      </trkpt>
      <trkpt lat="43.2809" lon="-2.26634">
        <ele>-9.4</ele>
        <time>2021-05-29 12:22:57</time>
      </trkpt>
      <trkpt lat="43.28083" lon="-2.2664">
        <ele>-9.4</ele>
        <time>2021-05-29 12:22:58</time>
      </trkpt>
      <trkpt lat="43.28076" lon="-2.26646">
        <ele>-9.2</ele>
        <time>2021-05-29 12:22:59</time>
      </trkpt>
      <trkpt lat="43.2807" lon="-2.26653">
        <ele>-9</ele>
        <time>2021-05-29 12:23:00</time>
      </trkpt>
      <trkpt lat="43.28064" lon="-2.26659">
        <ele>-8.8</ele>
        <time>2021-05-29 12:23:01</time>
      </trkpt>
      <trkpt lat="43.28058" lon="-2.26667">
        <ele>-8.6</ele>
        <time>2021-05-29 12:23:02</time>
      </trkpt>
      <trkpt lat="43.28053" lon="-2.26675">
        <ele>-8.4</ele>
        <time>2021-05-29 12:23:03</time>
      </trkpt>
      <trkpt lat="43.28047" lon="-2.26683">
        <ele>-8.2</ele>
        <time>2021-05-29 12:23:04</time>
      </trkpt>
      <trkpt lat="43.28041" lon="-2.2669">
        <ele>-8</ele>
        <time>2021-05-29 12:23:05</time>
      </trkpt>
      <trkpt lat="43.28036" lon="-2.26698">
        <ele>-7.8</ele>
        <time>2021-05-29 12:23:06</time>
      </trkpt>
      <trkpt lat="43.28031" lon="-2.26707">
        <ele>-7.6</ele>
        <time>2021-05-29 12:23:07</time>
      </trkpt>
      <trkpt lat="43.28026" lon="-2.26716">
        <ele>-7.6</ele>
        <time>2021-05-29 12:23:08</time>
      </trkpt>
      <trkpt lat="43.28022" lon="-2.26726">
        <ele>-7.4</ele>
        <time>2021-05-29 12:23:09</time>
      </trkpt>
      <trkpt lat="43.28019" lon="-2.26738">
        <ele>-7.2</ele>
        <time>2021-05-29 12:23:10</time>
      </trkpt>
      <trkpt lat="43.28016" lon="-2.2675">
        <ele>-7</ele>
        <time>2021-05-29 12:23:11</time>
      </trkpt>
      <trkpt lat="43.28013" lon="-2.26762">
        <ele>-7</ele>
        <time>2021-05-29 12:23:12</time>
      </trkpt>
      <trkpt lat="43.2801" lon="-2.26774">
        <ele>-6.8</ele>
        <time>2021-05-29 12:23:13</time>
      </trkpt>
      <trkpt lat="43.28006" lon="-2.26785">
        <ele>-6.8</ele>
        <time>2021-05-29 12:23:14</time>
      </trkpt>
      <trkpt lat="43.28003" lon="-2.26796">
        <ele>-6.6</ele>
        <time>2021-05-29 12:23:15</time>
      </trkpt>
      <trkpt lat="43.28" lon="-2.26806">
        <ele>-6.6</ele>
        <time>2021-05-29 12:23:16</time>
      </trkpt>
      <trkpt lat="43.27997" lon="-2.26816">
        <ele>-6.4</ele>
        <time>2021-05-29 12:23:17</time>
      </trkpt>
      <trkpt lat="43.27993" lon="-2.26824">
        <ele>-6</ele>
        <time>2021-05-29 12:23:18</time>
      </trkpt>
      <trkpt lat="43.27988" lon="-2.26833">
        <ele>-5.8</ele>
        <time>2021-05-29 12:23:19</time>
      </trkpt>
      <trkpt lat="43.27984" lon="-2.2684">
        <ele>-5.6</ele>
        <time>2021-05-29 12:23:20</time>
      </trkpt>
      <trkpt lat="43.2798" lon="-2.26847">
        <ele>-5.6</ele>
        <time>2021-05-29 12:23:21</time>
      </trkpt>
      <trkpt lat="43.27976" lon="-2.26854">
        <ele>-5.4</ele>
        <time>2021-05-29 12:23:22</time>
      </trkpt>
      <trkpt lat="43.27972" lon="-2.26861">
        <ele>-5.4</ele>
        <time>2021-05-29 12:23:23</time>
      </trkpt>
      <trkpt lat="43.27968" lon="-2.26867">
        <ele>-5.2</ele>
        <time>2021-05-29 12:23:24</time>
      </trkpt>
      <trkpt lat="43.27963" lon="-2.26873">
        <ele>-5</ele>
        <time>2021-05-29 12:23:25</time>
      </trkpt>
      <trkpt lat="43.27958" lon="-2.26879">
        <ele>-5</ele>
        <time>2021-05-29 12:23:26</time>
      </trkpt>
      <trkpt lat="43.27954" lon="-2.26885">
        <ele>-4.8</ele>
        <time>2021-05-29 12:23:27</time>
      </trkpt>
      <trkpt lat="43.27949" lon="-2.26891">
        <ele>-4.4</ele>
        <time>2021-05-29 12:23:28</time>
      </trkpt>
      <trkpt lat="43.27944" lon="-2.26897">
        <ele>-4.2</ele>
        <time>2021-05-29 12:23:29</time>
      </trkpt>
      <trkpt lat="43.27939" lon="-2.26902">
        <ele>-4</ele>
        <time>2021-05-29 12:23:30</time>
      </trkpt>
      <trkpt lat="43.27933" lon="-2.26907">
        <ele>-3.8</ele>
        <time>2021-05-29 12:23:31</time>
      </trkpt>
      <trkpt lat="43.27928" lon="-2.26912">
        <ele>-3.4</ele>
        <time>2021-05-29 12:23:32</time>
      </trkpt>
      <trkpt lat="43.27922" lon="-2.26918">
        <ele>-3</ele>
        <time>2021-05-29 12:23:33</time>
      </trkpt>
      <trkpt lat="43.27917" lon="-2.26923">
        <ele>-2.8</ele>
        <time>2021-05-29 12:23:34</time>
      </trkpt>
      <trkpt lat="43.27912" lon="-2.26929">
        <ele>-2.4</ele>
        <time>2021-05-29 12:23:35</time>
      </trkpt>
      <trkpt lat="43.27907" lon="-2.26934">
        <ele>-2.2</ele>
        <time>2021-05-29 12:23:36</time>
      </trkpt>
      <trkpt lat="43.27902" lon="-2.26939">
        <ele>-1.8</ele>
        <time>2021-05-29 12:23:37</time>
      </trkpt>
      <trkpt lat="43.27897" lon="-2.26944">
        <ele>-1.4</ele>
        <time>2021-05-29 12:23:38</time>
      </trkpt>
      <trkpt lat="43.27892" lon="-2.2695">
        <ele>-1</ele>
        <time>2021-05-29 12:23:39</time>
      </trkpt>
      <trkpt lat="43.27887" lon="-2.26955">
        <ele>-0.6</ele>
        <time>2021-05-29 12:23:40</time>
      </trkpt>
      <trkpt lat="43.27882" lon="-2.2696">
        <ele>-0.4</ele>
        <time>2021-05-29 12:23:41</time>
      </trkpt>
      <trkpt lat="43.27876" lon="-2.26966">
        <time>2021-05-29 12:23:42</time>
      </trkpt>
      <trkpt lat="43.27871" lon="-2.26972">
        <ele>0.2</ele>
        <time>2021-05-29 12:23:43</time>
      </trkpt>
      <trkpt lat="43.27866" lon="-2.26978">
        <ele>0.4</ele>
        <time>2021-05-29 12:23:44</time>
      </trkpt>
      <trkpt lat="43.27861" lon="-2.26984">
        <ele>1</ele>
        <time>2021-05-29 12:23:45</time>
      </trkpt>
      <trkpt lat="43.27856" lon="-2.2699">
        <ele>1.4</ele>
        <time>2021-05-29 12:23:46</time>
      </trkpt>
      <trkpt lat="43.27851" lon="-2.26996">
        <ele>1.6</ele>
        <time>2021-05-29 12:23:47</time>
      </trkpt>
      <trkpt lat="43.27846" lon="-2.27002">
        <ele>1.8</ele>
        <time>2021-05-29 12:23:48</time>
      </trkpt>
      <trkpt lat="43.27841" lon="-2.27008">
        <ele>2</ele>
        <time>2021-05-29 12:23:49</time>
      </trkpt>
      <trkpt lat="43.27835" lon="-2.27014">
        <ele>2.2</ele>
        <time>2021-05-29 12:23:50</time>
      </trkpt>
      <trkpt lat="43.2783" lon="-2.2702">
        <ele>2.4</ele>
        <time>2021-05-29 12:23:51</time>
      </trkpt>
      <trkpt lat="43.27825" lon="-2.27026">
        <ele>2.4</ele>
        <time>2021-05-29 12:23:52</time>
      </trkpt>
      <trkpt lat="43.2782" lon="-2.27032">
        <ele>2.8</ele>
        <time>2021-05-29 12:23:53</time>
      </trkpt>
      <trkpt lat="43.27815" lon="-2.27038">
        <ele>2.8</ele>
        <time>2021-05-29 12:23:54</time>
      </trkpt>
      <trkpt lat="43.27809" lon="-2.27043">
        <ele>3</ele>
        <time>2021-05-29 12:23:55</time>
      </trkpt>
      <trkpt lat="43.27804" lon="-2.27049">
        <ele>3</ele>
        <time>2021-05-29 12:23:56</time>
      </trkpt>
      <trkpt lat="43.27798" lon="-2.27055">
        <ele>3.2</ele>
        <time>2021-05-29 12:23:57</time>
      </trkpt>
      <trkpt lat="43.27792" lon="-2.27061">
        <ele>3.2</ele>
        <time>2021-05-29 12:23:58</time>
      </trkpt>
      <trkpt lat="43.27786" lon="-2.27066">
        <ele>3.4</ele>
        <time>2021-05-29 12:23:59</time>
      </trkpt>
      <trkpt lat="43.2778" lon="-2.27072">
        <ele>3.6</ele>
        <time>2021-05-29 12:24:00</time>
      </trkpt>
      <trkpt lat="43.27774" lon="-2.27078">
        <ele>4</ele>
        <time>2021-05-29 12:24:01</time>
      </trkpt>
      <trkpt lat="43.27768" lon="-2.27083">
        <ele>4</ele>
        <time>2021-05-29 12:24:02</time>
      </trkpt>
      <trkpt lat="43.27761" lon="-2.27088">
        <ele>4.2</ele>
        <time>2021-05-29 12:24:03</time>
      </trkpt>
      <trkpt lat="43.27755" lon="-2.27093">
        <ele>4.2</ele>
        <time>2021-05-29 12:24:04</time>
      </trkpt>
      <trkpt lat="43.27748" lon="-2.27097">
        <ele>4.2</ele>
        <time>2021-05-29 12:24:05</time>
      </trkpt>
      <trkpt lat="43.27742" lon="-2.27102">
        <ele>4.4</ele>
        <time>2021-05-29 12:24:06</time>
      </trkpt>
      <trkpt lat="43.27736" lon="-2.27108">
        <ele>4.4</ele>
        <time>2021-05-29 12:24:07</time>
      </trkpt>
      <trkpt lat="43.2773" lon="-2.27114">
        <ele>4.4</ele>
        <time>2021-05-29 12:24:08</time>
      </trkpt>
      <trkpt lat="43.27724" lon="-2.2712">
        <ele>4.4</ele>
        <time>2021-05-29 12:24:09</time>
      </trkpt>
      <trkpt lat="43.27718" lon="-2.27127">
        <ele>4.6</ele>
        <time>2021-05-29 12:24:10</time>
      </trkpt>
      <trkpt lat="43.27713" lon="-2.27134">
        <ele>4.8</ele>
        <time>2021-05-29 12:24:11</time>
      </trkpt>
      <trkpt lat="43.27707" lon="-2.27141">
        <ele>4.8</ele>
        <time>2021-05-29 12:24:12</time>
      </trkpt>
      <trkpt lat="43.27702" lon="-2.27148">
        <ele>5</ele>
        <time>2021-05-29 12:24:13</time>
      </trkpt>
      <trkpt lat="43.27696" lon="-2.27154">
        <ele>5</ele>
        <time>2021-05-29 12:24:14</time>
      </trkpt>
      <trkpt lat="43.2769" lon="-2.27162">
        <ele>5.2</ele>
        <time>2021-05-29 12:24:15</time>
      </trkpt>
      <trkpt lat="43.27685" lon="-2.2717">
        <ele>5.2</ele>
        <time>2021-05-29 12:24:16</time>
      </trkpt>
      <trkpt lat="43.27679" lon="-2.27178">
        <ele>5.2</ele>
        <time>2021-05-29 12:24:17</time>
      </trkpt>
      <trkpt lat="43.27673" lon="-2.27185">
        <ele>5.4</ele>
        <time>2021-05-29 12:24:18</time>
      </trkpt>
      <trkpt lat="43.27667" lon="-2.27192">
        <ele>5.4</ele>
        <time>2021-05-29 12:24:19</time>
      </trkpt>
      <trkpt lat="43.27661" lon="-2.272">
        <ele>5.4</ele>
        <time>2021-05-29 12:24:20</time>
      </trkpt>
      <trkpt lat="43.27655" lon="-2.27208">
        <ele>5.4</ele>
        <time>2021-05-29 12:24:21</time>
      </trkpt>
      <trkpt lat="43.27649" lon="-2.27215">
        <ele>5.4</ele>
        <time>2021-05-29 12:24:22</time>
      </trkpt>
      <trkpt lat="43.27643" lon="-2.27223">
        <ele>5.4</ele>
        <time>2021-05-29 12:24:23</time>
      </trkpt>
      <trkpt lat="43.27637" lon="-2.27232">
        <ele>5.4</ele>
        <time>2021-05-29 12:24:24</time>
      </trkpt>
      <trkpt lat="43.27632" lon="-2.2724">
        <ele>5.6</ele>
        <time>2021-05-29 12:24:25</time>
      </trkpt>
      <trkpt lat="43.27627" lon="-2.27249">
        <ele>5.6</ele>
        <time>2021-05-29 12:24:26</time>
      </trkpt>
      <trkpt lat="43.27622" lon="-2.27258">
        <ele>5.6</ele>
        <time>2021-05-29 12:24:27</time>
      </trkpt>
      <trkpt lat="43.27617" lon="-2.27267">
        <ele>5.6</ele>
        <time>2021-05-29 12:24:28</time>
      </trkpt>
      <trkpt lat="43.27612" lon="-2.27275">
        <ele>5.6</ele>
        <time>2021-05-29 12:24:29</time>
      </trkpt>
      <trkpt lat="43.27607" lon="-2.27283">
        <ele>5.6</ele>
        <time>2021-05-29 12:24:30</time>
      </trkpt>
      <trkpt lat="43.27601" lon="-2.27292">
        <ele>5.6</ele>
        <time>2021-05-29 12:24:31</time>
      </trkpt>
      <trkpt lat="43.27597" lon="-2.273">
        <ele>5.6</ele>
        <time>2021-05-29 12:24:32</time>
      </trkpt>
      <trkpt lat="43.27592" lon="-2.27309">
        <ele>5.6</ele>
        <time>2021-05-29 12:24:33</time>
      </trkpt>
      <trkpt lat="43.27588" lon="-2.27318">
        <ele>5.6</ele>
        <time>2021-05-29 12:24:34</time>
      </trkpt>
      <trkpt lat="43.27583" lon="-2.27327">
        <ele>5.6</ele>
        <time>2021-05-29 12:24:35</time>
      </trkpt>
      <trkpt lat="43.27579" lon="-2.27336">
        <ele>5.6</ele>
        <time>2021-05-29 12:24:36</time>
      </trkpt>
      <trkpt lat="43.27575" lon="-2.27345">
        <ele>5.6</ele>
        <time>2021-05-29 12:24:37</time>
      </trkpt>
      <trkpt lat="43.27569" lon="-2.27353">
        <ele>5.6</ele>
        <time>2021-05-29 12:24:38</time>
      </trkpt>
      <trkpt lat="43.27564" lon="-2.27361">
        <ele>5.6</ele>
        <time>2021-05-29 12:24:39</time>
      </trkpt>
      <trkpt lat="43.27558" lon="-2.27369">
        <ele>5.6</ele>
        <time>2021-05-29 12:24:40</time>
      </trkpt>
      <trkpt lat="43.27554" lon="-2.27378">
        <ele>5.6</ele>
        <time>2021-05-29 12:24:41</time>
      </trkpt>
      <trkpt lat="43.2755" lon="-2.27388">
        <ele>5.6</ele>
        <time>2021-05-29 12:24:42</time>
      </trkpt>
      <trkpt lat="43.27546" lon="-2.27398">
        <ele>5.8</ele>
        <time>2021-05-29 12:24:43</time>
      </trkpt>
      <trkpt lat="43.27543" lon="-2.27408">
        <ele>5.8</ele>
        <time>2021-05-29 12:24:44</time>
      </trkpt>
      <trkpt lat="43.27542" lon="-2.27419">
        <ele>5.8</ele>
        <time>2021-05-29 12:24:45</time>
      </trkpt>
      <trkpt lat="43.27541" lon="-2.2743">
        <ele>5.8</ele>
        <time>2021-05-29 12:24:46</time>
      </trkpt>
      <trkpt lat="43.27542" lon="-2.27442">
        <ele>6</ele>
        <time>2021-05-29 12:24:47</time>
      </trkpt>
      <trkpt lat="43.27543" lon="-2.27452">
        <ele>6</ele>
        <time>2021-05-29 12:24:48</time>
      </trkpt>
      <trkpt lat="43.27545" lon="-2.27463">
        <ele>6</ele>
        <time>2021-05-29 12:24:49</time>
      </trkpt>
      <trkpt lat="43.27548" lon="-2.27474">
        <ele>6.2</ele>
        <time>2021-05-29 12:24:50</time>
      </trkpt>
      <trkpt lat="43.2755" lon="-2.27484">
        <ele>6.2</ele>
        <time>2021-05-29 12:24:51</time>
      </trkpt>
      <trkpt lat="43.27553" lon="-2.27495">
        <ele>6.2</ele>
        <time>2021-05-29 12:24:52</time>
      </trkpt>
      <trkpt lat="43.27556" lon="-2.27505">
        <ele>6.2</ele>
        <time>2021-05-29 12:24:53</time>
      </trkpt>
      <trkpt lat="43.27559" lon="-2.27515">
        <ele>6.4</ele>
        <time>2021-05-29 12:24:54</time>
      </trkpt>
      <trkpt lat="43.27562" lon="-2.27526">
        <ele>6.4</ele>
        <time>2021-05-29 12:24:55</time>
      </trkpt>
      <trkpt lat="43.27565" lon="-2.27536">
        <ele>6.4</ele>
        <time>2021-05-29 12:24:56</time>
      </trkpt>
      <trkpt lat="43.27568" lon="-2.27546">
        <ele>6.6</ele>
        <time>2021-05-29 12:24:57</time>
      </trkpt>
      <trkpt lat="43.27571" lon="-2.27557">
        <ele>6.6</ele>
        <time>2021-05-29 12:24:58</time>
      </trkpt>
      <trkpt lat="43.27574" lon="-2.27567">
        <ele>6.6</ele>
        <time>2021-05-29 12:24:59</time>
      </trkpt>
      <trkpt lat="43.27577" lon="-2.27577">
        <ele>6.6</ele>
        <time>2021-05-29 12:25:00</time>
      </trkpt>
      <trkpt lat="43.2758" lon="-2.27587">
        <ele>6.6</ele>
        <time>2021-05-29 12:25:01</time>
      </trkpt>
      <trkpt lat="43.27583" lon="-2.27598">
        <ele>6.8</ele>
        <time>2021-05-29 12:25:02</time>
      </trkpt>
      <trkpt lat="43.27585" lon="-2.27608">
        <ele>6.8</ele>
        <time>2021-05-29 12:25:03</time>
      </trkpt>
      <trkpt lat="43.27588" lon="-2.27618">
        <ele>7</ele>
        <time>2021-05-29 12:25:04</time>
      </trkpt>
      <trkpt lat="43.27591" lon="-2.27627">
        <ele>7</ele>
        <time>2021-05-29 12:25:05</time>
      </trkpt>
      <trkpt lat="43.27594" lon="-2.27636">
        <ele>7.2</ele>
        <time>2021-05-29 12:25:06</time>
      </trkpt>
      <trkpt lat="43.27598" lon="-2.27645">
        <ele>7.2</ele>
        <time>2021-05-29 12:25:07</time>
      </trkpt>
      <trkpt lat="43.276" lon="-2.27653">
        <ele>7.2</ele>
        <time>2021-05-29 12:25:08</time>
      </trkpt>
      <trkpt lat="43.27604" lon="-2.2766">
        <ele>7.4</ele>
        <time>2021-05-29 12:25:09</time>
      </trkpt>
      <trkpt lat="43.27607" lon="-2.27667">
        <ele>7.4</ele>
        <time>2021-05-29 12:25:10</time>
      </trkpt>
      <trkpt lat="43.2761" lon="-2.27675">
        <ele>7.6</ele>
        <time>2021-05-29 12:25:11</time>
      </trkpt>
      <trkpt lat="43.27612" lon="-2.27682">
        <ele>7.6</ele>
        <time>2021-05-29 12:25:12</time>
      </trkpt>
      <trkpt lat="43.27614" lon="-2.27691">
        <ele>7.8</ele>
        <time>2021-05-29 12:25:13</time>
      </trkpt>
      <trkpt lat="43.27617" lon="-2.27699">
        <ele>8</ele>
        <time>2021-05-29 12:25:14</time>
      </trkpt>
      <trkpt lat="43.2762" lon="-2.27708">
        <ele>8.2</ele>
        <time>2021-05-29 12:25:15</time>
      </trkpt>
      <trkpt lat="43.27622" lon="-2.27716">
        <ele>8.4</ele>
        <time>2021-05-29 12:25:16</time>
      </trkpt>
      <trkpt lat="43.27625" lon="-2.27724">
        <ele>8.4</ele>
        <time>2021-05-29 12:25:17</time>
      </trkpt>
      <trkpt lat="43.27627" lon="-2.27734">
        <ele>8.6</ele>
        <time>2021-05-29 12:25:18</time>
      </trkpt>
      <trkpt lat="43.2763" lon="-2.27743">
        <ele>8.6</ele>
        <time>2021-05-29 12:25:19</time>
      </trkpt>
      <trkpt lat="43.27633" lon="-2.27751">
        <ele>8.8</ele>
        <time>2021-05-29 12:25:20</time>
      </trkpt>
      <trkpt lat="43.27635" lon="-2.2776">
        <ele>9</ele>
        <time>2021-05-29 12:25:21</time>
      </trkpt>
      <trkpt lat="43.27638" lon="-2.27769">
        <ele>9</ele>
        <time>2021-05-29 12:25:22</time>
      </trkpt>
      <trkpt lat="43.2764" lon="-2.27778">
        <ele>9.2</ele>
        <time>2021-05-29 12:25:23</time>
      </trkpt>
      <trkpt lat="43.27642" lon="-2.27788">
        <ele>9.4</ele>
        <time>2021-05-29 12:25:24</time>
      </trkpt>
      <trkpt lat="43.27645" lon="-2.27797">
        <ele>9.6</ele>
        <time>2021-05-29 12:25:25</time>
      </trkpt>
      <trkpt lat="43.27647" lon="-2.27807">
        <ele>9.8</ele>
        <time>2021-05-29 12:25:26</time>
      </trkpt>
      <trkpt lat="43.27648" lon="-2.27817">
        <ele>10</ele>
        <time>2021-05-29 12:25:27</time>
      </trkpt>
      <trkpt lat="43.2765" lon="-2.27826">
        <ele>10.2</ele>
        <time>2021-05-29 12:25:28</time>
      </trkpt>
      <trkpt lat="43.27652" lon="-2.27836">
        <ele>10.4</ele>
        <time>2021-05-29 12:25:29</time>
      </trkpt>
      <trkpt lat="43.27654" lon="-2.27845">
        <ele>10.6</ele>
        <time>2021-05-29 12:25:30</time>
      </trkpt>
      <trkpt lat="43.27655" lon="-2.27855">
        <ele>10.8</ele>
        <time>2021-05-29 12:25:31</time>
      </trkpt>
      <trkpt lat="43.27657" lon="-2.27864">
        <ele>11</ele>
        <time>2021-05-29 12:25:32</time>
      </trkpt>
      <trkpt lat="43.27659" lon="-2.27874">
        <ele>11.2</ele>
        <time>2021-05-29 12:25:33</time>
      </trkpt>
      <trkpt lat="43.27661" lon="-2.27883">
        <ele>11.4</ele>
        <time>2021-05-29 12:25:34</time>
      </trkpt>
      <trkpt lat="43.27663" lon="-2.27893">
        <ele>11.4</ele>
        <time>2021-05-29 12:25:35</time>
      </trkpt>
      <trkpt lat="43.27664" lon="-2.27902">
        <ele>11.4</ele>
        <time>2021-05-29 12:25:36</time>
      </trkpt>
      <trkpt lat="43.27666" lon="-2.27912">
        <ele>11.6</ele>
        <time>2021-05-29 12:25:37</time>
      </trkpt>
      <trkpt lat="43.27668" lon="-2.27922">
        <ele>11.6</ele>
        <time>2021-05-29 12:25:38</time>
      </trkpt>
      <trkpt lat="43.27669" lon="-2.27932">
        <ele>11.6</ele>
        <time>2021-05-29 12:25:39</time>
      </trkpt>
      <trkpt lat="43.27671" lon="-2.27941">
        <ele>11.8</ele>
        <time>2021-05-29 12:25:40</time>
      </trkpt>
      <trkpt lat="43.27673" lon="-2.2795">
        <ele>11.8</ele>
        <time>2021-05-29 12:25:41</time>
      </trkpt>
      <trkpt lat="43.27675" lon="-2.27959">
        <ele>11.8</ele>
        <time>2021-05-29 12:25:42</time>
      </trkpt>
      <trkpt lat="43.27677" lon="-2.27968">
        <ele>12</ele>
        <time>2021-05-29 12:25:43</time>
      </trkpt>
      <trkpt lat="43.27679" lon="-2.27976">
        <ele>12.2</ele>
        <time>2021-05-29 12:25:44</time>
      </trkpt>
      <trkpt lat="43.27681" lon="-2.27985">
        <ele>12.4</ele>
        <time>2021-05-29 12:25:45</time>
      </trkpt>
      <trkpt lat="43.27683" lon="-2.27994">
        <ele>12.6</ele>
        <time>2021-05-29 12:25:46</time>
      </trkpt>
      <trkpt lat="43.27685" lon="-2.28002">
        <ele>12.8</ele>
        <time>2021-05-29 12:25:47</time>
      </trkpt>
      <trkpt lat="43.27687" lon="-2.28011">
        <ele>12.8</ele>
        <time>2021-05-29 12:25:48</time>
      </trkpt>
      <trkpt lat="43.27689" lon="-2.28019">
        <ele>13</ele>
        <time>2021-05-29 12:25:49</time>
      </trkpt>
      <trkpt lat="43.27691" lon="-2.28029">
        <ele>13</ele>
        <time>2021-05-29 12:25:50</time>
      </trkpt>
      <trkpt lat="43.27692" lon="-2.28038">
        <ele>13.2</ele>
        <time>2021-05-29 12:25:51</time>
      </trkpt>
      <trkpt lat="43.27694" lon="-2.28046">
        <ele>13.2</ele>
        <time>2021-05-29 12:25:52</time>
      </trkpt>
      <trkpt lat="43.27696" lon="-2.28055">
        <ele>13.2</ele>
        <time>2021-05-29 12:25:53</time>
      </trkpt>
      <trkpt lat="43.27698" lon="-2.28063">
        <ele>13.2</ele>
        <time>2021-05-29 12:25:54</time>
      </trkpt>
      <trkpt lat="43.277" lon="-2.28072">
        <ele>13.4</ele>
        <time>2021-05-29 12:25:55</time>
      </trkpt>
      <trkpt lat="43.27701" lon="-2.28081">
        <ele>13.6</ele>
        <time>2021-05-29 12:25:56</time>
      </trkpt>
      <trkpt lat="43.27703" lon="-2.28091">
        <ele>13.6</ele>
        <time>2021-05-29 12:25:57</time>
      </trkpt>
      <trkpt lat="43.27704" lon="-2.281">
        <ele>13.8</ele>
        <time>2021-05-29 12:25:58</time>
      </trkpt>
      <trkpt lat="43.27706" lon="-2.28108">
        <ele>14</ele>
        <time>2021-05-29 12:25:59</time>
      </trkpt>
      <trkpt lat="43.27708" lon="-2.28116">
        <ele>14</ele>
        <time>2021-05-29 12:26:00</time>
      </trkpt>
      <trkpt lat="43.2771" lon="-2.28123">
        <ele>14.2</ele>
        <time>2021-05-29 12:26:01</time>
      </trkpt>
      <trkpt lat="43.27712" lon="-2.28131">
        <ele>14.4</ele>
        <time>2021-05-29 12:26:02</time>
      </trkpt>
      <trkpt lat="43.27713" lon="-2.28139">
        <ele>14.6</ele>
        <time>2021-05-29 12:26:03</time>
      </trkpt>
      <trkpt lat="43.27715" lon="-2.28147">
        <ele>14.8</ele>
        <time>2021-05-29 12:26:04</time>
      </trkpt>
      <trkpt lat="43.27717" lon="-2.28156">
        <ele>15</ele>
        <time>2021-05-29 12:26:05</time>
      </trkpt>
      <trkpt lat="43.27719" lon="-2.28164">
        <ele>15.2</ele>
        <time>2021-05-29 12:26:06</time>
      </trkpt>
      <trkpt lat="43.2772" lon="-2.28173">
        <ele>15.4</ele>
        <time>2021-05-29 12:26:07</time>
      </trkpt>
      <trkpt lat="43.27722" lon="-2.28182">
        <ele>15.6</ele>
        <time>2021-05-29 12:26:08</time>
      </trkpt>
      <trkpt lat="43.27723" lon="-2.28193">
        <ele>15.8</ele>
        <time>2021-05-29 12:26:09</time>
      </trkpt>
      <trkpt lat="43.27725" lon="-2.28203">
        <ele>16</ele>
        <time>2021-05-29 12:26:10</time>
      </trkpt>
      <trkpt lat="43.27727" lon="-2.28212">
        <ele>16.2</ele>
        <time>2021-05-29 12:26:11</time>
      </trkpt>
      <trkpt lat="43.27729" lon="-2.28221">
        <ele>16.4</ele>
        <time>2021-05-29 12:26:12</time>
      </trkpt>
      <trkpt lat="43.27731" lon="-2.2823">
        <ele>16.6</ele>
        <time>2021-05-29 12:26:13</time>
      </trkpt>
      <trkpt lat="43.27734" lon="-2.2824">
        <ele>16.6</ele>
        <time>2021-05-29 12:26:14</time>
      </trkpt>
      <trkpt lat="43.27736" lon="-2.28249">
        <ele>16.8</ele>
        <time>2021-05-29 12:26:15</time>
      </trkpt>
      <trkpt lat="43.27739" lon="-2.28257">
        <ele>17</ele>
        <time>2021-05-29 12:26:16</time>
      </trkpt>
      <trkpt lat="43.27742" lon="-2.28265">
        <ele>17</ele>
        <time>2021-05-29 12:26:17</time>
      </trkpt>
      <trkpt lat="43.27745" lon="-2.28273">
        <ele>17.2</ele>
        <time>2021-05-29 12:26:18</time>
      </trkpt>
      <trkpt lat="43.27748" lon="-2.2828">
        <ele>17.4</ele>
        <time>2021-05-29 12:26:19</time>
      </trkpt>
      <trkpt lat="43.27752" lon="-2.28288">
        <ele>17.6</ele>
        <time>2021-05-29 12:26:20</time>
      </trkpt>
      <trkpt lat="43.27755" lon="-2.28294">
        <ele>18</ele>
        <time>2021-05-29 12:26:21</time>
      </trkpt>
      <trkpt lat="43.27758" lon="-2.28301">
        <ele>18.2</ele>
        <time>2021-05-29 12:26:22</time>
      </trkpt>
      <trkpt lat="43.27762" lon="-2.28307">
        <ele>18.6</ele>
        <time>2021-05-29 12:26:23</time>
      </trkpt>
      <trkpt lat="43.27765" lon="-2.28313">
        <ele>18.8</ele>
        <time>2021-05-29 12:26:24</time>
      </trkpt>
      <trkpt lat="43.27769" lon="-2.28318">
        <ele>19.2</ele>
        <time>2021-05-29 12:26:25</time>
      </trkpt>
      <trkpt lat="43.27772" lon="-2.28324">
        <ele>19.4</ele>
        <time>2021-05-29 12:26:26</time>
      </trkpt>
      <trkpt lat="43.27776" lon="-2.28329">
        <ele>19.6</ele>
        <time>2021-05-29 12:26:27</time>
      </trkpt>
      <trkpt lat="43.27779" lon="-2.28336">
        <ele>19.8</ele>
        <time>2021-05-29 12:26:28</time>
      </trkpt>
      <trkpt lat="43.27782" lon="-2.28342">
        <ele>20.2</ele>
        <time>2021-05-29 12:26:29</time>
      </trkpt>
      <trkpt lat="43.27786" lon="-2.28348">
        <ele>20.4</ele>
        <time>2021-05-29 12:26:30</time>
      </trkpt>
      <trkpt lat="43.27789" lon="-2.28354">
        <ele>20.8</ele>
        <time>2021-05-29 12:26:31</time>
      </trkpt>
      <trkpt lat="43.27792" lon="-2.2836">
        <ele>21</ele>
        <time>2021-05-29 12:26:32</time>
      </trkpt>
      <trkpt lat="43.27795" lon="-2.28366">
        <ele>21.2</ele>
        <time>2021-05-29 12:26:33</time>
      </trkpt>
      <trkpt lat="43.27799" lon="-2.28372">
        <ele>21.6</ele>
        <time>2021-05-29 12:26:34</time>
      </trkpt>
      <trkpt lat="43.27802" lon="-2.28378">
        <ele>21.8</ele>
        <time>2021-05-29 12:26:35</time>
      </trkpt>
      <trkpt lat="43.27805" lon="-2.28384">
        <ele>22.4</ele>
        <time>2021-05-29 12:26:36</time>
      </trkpt>
      <trkpt lat="43.27808" lon="-2.2839">
        <ele>22.6</ele>
        <time>2021-05-29 12:26:37</time>
      </trkpt>
      <trkpt lat="43.27812" lon="-2.28395">
        <ele>22.8</ele>
        <time>2021-05-29 12:26:38</time>
      </trkpt>
      <trkpt lat="43.27815" lon="-2.28401">
        <ele>23</ele>
        <time>2021-05-29 12:26:39</time>
      </trkpt>
      <trkpt lat="43.27818" lon="-2.28407">
        <ele>23.2</ele>
        <time>2021-05-29 12:26:40</time>
      </trkpt>
      <trkpt lat="43.27822" lon="-2.28413">
        <ele>23.6</ele>
        <time>2021-05-29 12:26:41</time>
      </trkpt>
      <trkpt lat="43.27825" lon="-2.28418">
        <ele>24</ele>
        <time>2021-05-29 12:26:42</time>
      </trkpt>
      <trkpt lat="43.27829" lon="-2.28424">
        <ele>24.2</ele>
        <time>2021-05-29 12:26:43</time>
      </trkpt>
      <trkpt lat="43.27832" lon="-2.2843">
        <ele>24.4</ele>
        <time>2021-05-29 12:26:44</time>
      </trkpt>
      <trkpt lat="43.27835" lon="-2.28436">
        <ele>24.6</ele>
        <time>2021-05-29 12:26:45</time>
      </trkpt>
      <trkpt lat="43.27838" lon="-2.28442">
        <ele>24.8</ele>
        <time>2021-05-29 12:26:46</time>
      </trkpt>
      <trkpt lat="43.27842" lon="-2.28448">
        <ele>24.6</ele>
        <time>2021-05-29 12:26:47</time>
      </trkpt>
      <trkpt lat="43.27846" lon="-2.28454">
        <ele>24.8</ele>
        <time>2021-05-29 12:26:48</time>
      </trkpt>
      <trkpt lat="43.27849" lon="-2.28459">
        <ele>25</ele>
        <time>2021-05-29 12:26:49</time>
      </trkpt>
      <trkpt lat="43.27852" lon="-2.28466">
        <ele>25.2</ele>
        <time>2021-05-29 12:26:50</time>
      </trkpt>
      <trkpt lat="43.27856" lon="-2.28471">
        <ele>25.2</ele>
        <time>2021-05-29 12:26:51</time>
      </trkpt>
      <trkpt lat="43.27859" lon="-2.28477">
        <ele>25.4</ele>
        <time>2021-05-29 12:26:52</time>
      </trkpt>
      <trkpt lat="43.27863" lon="-2.28483">
        <ele>25.8</ele>
        <time>2021-05-29 12:26:53</time>
      </trkpt>
      <trkpt lat="43.27866" lon="-2.28489">
        <ele>26.2</ele>
        <time>2021-05-29 12:26:54</time>
      </trkpt>
      <trkpt lat="43.2787" lon="-2.28495">
        <ele>26.4</ele>
        <time>2021-05-29 12:26:55</time>
      </trkpt>
      <trkpt lat="43.27873" lon="-2.285">
        <ele>26.6</ele>
        <time>2021-05-29 12:26:56</time>
      </trkpt>
      <trkpt lat="43.27876" lon="-2.28506">
        <ele>26.8</ele>
        <time>2021-05-29 12:26:57</time>
      </trkpt>
      <trkpt lat="43.27879" lon="-2.28512">
        <ele>27</ele>
        <time>2021-05-29 12:26:58</time>
      </trkpt>
      <trkpt lat="43.27882" lon="-2.28518">
        <ele>27.2</ele>
        <time>2021-05-29 12:26:59</time>
      </trkpt>
      <trkpt lat="43.27885" lon="-2.28524">
        <ele>27.6</ele>
        <time>2021-05-29 12:27:00</time>
      </trkpt>
      <trkpt lat="43.27888" lon="-2.28529">
        <ele>27.6</ele>
        <time>2021-05-29 12:27:01</time>
      </trkpt>
      <trkpt lat="43.27892" lon="-2.28535">
        <ele>28</ele>
        <time>2021-05-29 12:27:02</time>
      </trkpt>
      <trkpt lat="43.27895" lon="-2.2854">
        <ele>28.2</ele>
        <time>2021-05-29 12:27:03</time>
      </trkpt>
      <trkpt lat="43.27898" lon="-2.28546">
        <ele>28.4</ele>
        <time>2021-05-29 12:27:04</time>
      </trkpt>
      <trkpt lat="43.279" lon="-2.28552">
        <ele>28.8</ele>
        <time>2021-05-29 12:27:05</time>
      </trkpt>
      <trkpt lat="43.27903" lon="-2.28557">
        <ele>29</ele>
        <time>2021-05-29 12:27:06</time>
      </trkpt>
      <trkpt lat="43.27906" lon="-2.28563">
        <ele>29.2</ele>
        <time>2021-05-29 12:27:07</time>
      </trkpt>
      <trkpt lat="43.27908" lon="-2.2857">
        <ele>29.4</ele>
        <time>2021-05-29 12:27:08</time>
      </trkpt>
      <trkpt lat="43.2791" lon="-2.28577">
        <ele>29.4</ele>
        <time>2021-05-29 12:27:09</time>
      </trkpt>
      <trkpt lat="43.27912" lon="-2.28584">
        <ele>29.8</ele>
        <time>2021-05-29 12:27:10</time>
      </trkpt>
      <trkpt lat="43.27914" lon="-2.2859">
        <ele>30.4</ele>
        <time>2021-05-29 12:27:11</time>
      </trkpt>
      <trkpt lat="43.27916" lon="-2.28597">
        <ele>30.6</ele>
        <time>2021-05-29 12:27:12</time>
      </trkpt>
      <trkpt lat="43.27917" lon="-2.28604">
        <ele>30.8</ele>
        <time>2021-05-29 12:27:13</time>
      </trkpt>
      <trkpt lat="43.27918" lon="-2.28611">
        <ele>31.2</ele>
        <time>2021-05-29 12:27:14</time>
      </trkpt>
      <trkpt lat="43.27918" lon="-2.28619">
        <ele>31.4</ele>
        <time>2021-05-29 12:27:15</time>
      </trkpt>
      <trkpt lat="43.27919" lon="-2.28626">
        <ele>31.8</ele>
        <time>2021-05-29 12:27:16</time>
      </trkpt>
      <trkpt lat="43.27919" lon="-2.28633">
        <ele>32.2</ele>
        <time>2021-05-29 12:27:17</time>
      </trkpt>
      <trkpt lat="43.27919" lon="-2.2864">
        <ele>32.4</ele>
        <time>2021-05-29 12:27:18</time>
      </trkpt>
      <trkpt lat="43.27918" lon="-2.28648">
        <ele>32.6</ele>
        <time>2021-05-29 12:27:19</time>
      </trkpt>
      <trkpt lat="43.27918" lon="-2.28654">
        <ele>33</ele>
        <time>2021-05-29 12:27:20</time>
      </trkpt>
      <trkpt lat="43.27918" lon="-2.28661">
        <ele>33.2</ele>
        <time>2021-05-29 12:27:21</time>
      </trkpt>
      <trkpt lat="43.27918" lon="-2.28667">
        <ele>33.4</ele>
        <time>2021-05-29 12:27:22</time>
      </trkpt>
      <trkpt lat="43.27919" lon="-2.28673">
        <ele>33.6</ele>
        <time>2021-05-29 12:27:23</time>
      </trkpt>
      <trkpt lat="43.27918" lon="-2.2868">
        <ele>33.8</ele>
        <time>2021-05-29 12:27:24</time>
      </trkpt>
      <trkpt lat="43.27918" lon="-2.28686">
        <ele>34</ele>
        <time>2021-05-29 12:27:25</time>
      </trkpt>
      <trkpt lat="43.27918" lon="-2.28692">
        <ele>34.2</ele>
        <time>2021-05-29 12:27:26</time>
      </trkpt>
      <trkpt lat="43.27918" lon="-2.28699">
        <ele>34.6</ele>
        <time>2021-05-29 12:27:27</time>
      </trkpt>
      <trkpt lat="43.27918" lon="-2.28706">
        <ele>34.8</ele>
        <time>2021-05-29 12:27:28</time>
      </trkpt>
      <trkpt lat="43.27917" lon="-2.28712">
        <ele>35.2</ele>
        <time>2021-05-29 12:27:29</time>
      </trkpt>
      <trkpt lat="43.27918" lon="-2.28718">
        <ele>35.6</ele>
        <time>2021-05-29 12:27:30</time>
      </trkpt>
      <trkpt lat="43.27917" lon="-2.28725">
        <ele>35.8</ele>
        <time>2021-05-29 12:27:31</time>
      </trkpt>
      <trkpt lat="43.27917" lon="-2.28732">
        <ele>36</ele>
        <time>2021-05-29 12:27:32</time>
      </trkpt>
      <trkpt lat="43.27917" lon="-2.28739">
        <ele>36.2</ele>
        <time>2021-05-29 12:27:33</time>
      </trkpt>
      <trkpt lat="43.27917" lon="-2.28746">
        <ele>36.4</ele>
        <time>2021-05-29 12:27:34</time>
      </trkpt>
      <trkpt lat="43.27916" lon="-2.28752">
        <ele>36.6</ele>
        <time>2021-05-29 12:27:35</time>
      </trkpt>
      <trkpt lat="43.27916" lon="-2.28759">
        <ele>36.8</ele>
        <time>2021-05-29 12:27:36</time>
      </trkpt>
      <trkpt lat="43.27916" lon="-2.28765">
        <ele>37.2</ele>
        <time>2021-05-29 12:27:37</time>
      </trkpt>
      <trkpt lat="43.27916" lon="-2.28772">
        <ele>37.6</ele>
        <time>2021-05-29 12:27:38</time>
      </trkpt>
      <trkpt lat="43.27916" lon="-2.28778">
        <ele>38</ele>
        <time>2021-05-29 12:27:39</time>
      </trkpt>
      <trkpt lat="43.27915" lon="-2.28785">
        <ele>38.2</ele>
        <time>2021-05-29 12:27:40</time>
      </trkpt>
      <trkpt lat="43.27915" lon="-2.28792">
        <ele>38.6</ele>
        <time>2021-05-29 12:27:41</time>
      </trkpt>
      <trkpt lat="43.27915" lon="-2.28798">
        <ele>38.8</ele>
        <time>2021-05-29 12:27:42</time>
      </trkpt>
      <trkpt lat="43.27915" lon="-2.28804">
        <ele>39.2</ele>
        <time>2021-05-29 12:27:43</time>
      </trkpt>
      <trkpt lat="43.27915" lon="-2.28811">
        <ele>39.6</ele>
        <time>2021-05-29 12:27:44</time>
      </trkpt>
      <trkpt lat="43.27916" lon="-2.28817">
        <ele>40.2</ele>
        <time>2021-05-29 12:27:45</time>
      </trkpt>
      <trkpt lat="43.27918" lon="-2.28823">
        <ele>40.4</ele>
        <time>2021-05-29 12:27:46</time>
      </trkpt>
      <trkpt lat="43.2792" lon="-2.2883">
        <ele>40.6</ele>
        <time>2021-05-29 12:27:47</time>
      </trkpt>
      <trkpt lat="43.27922" lon="-2.28835">
        <ele>41</ele>
        <time>2021-05-29 12:27:48</time>
      </trkpt>
      <trkpt lat="43.27924" lon="-2.28841">
        <ele>41.4</ele>
        <time>2021-05-29 12:27:49</time>
      </trkpt>
      <trkpt lat="43.27926" lon="-2.28847">
        <ele>41.6</ele>
        <time>2021-05-29 12:27:50</time>
      </trkpt>
      <trkpt lat="43.27929" lon="-2.28854">
        <ele>42</ele>
        <time>2021-05-29 12:27:51</time>
      </trkpt>
      <trkpt lat="43.27931" lon="-2.28861">
        <ele>42.2</ele>
        <time>2021-05-29 12:27:52</time>
      </trkpt>
      <trkpt lat="43.27934" lon="-2.28868">
        <ele>42.6</ele>
        <time>2021-05-29 12:27:53</time>
      </trkpt>
      <trkpt lat="43.27936" lon="-2.28875">
        <ele>43</ele>
        <time>2021-05-29 12:27:54</time>
      </trkpt>
      <trkpt lat="43.27939" lon="-2.28882">
        <ele>43.2</ele>
        <time>2021-05-29 12:27:55</time>
      </trkpt>
      <trkpt lat="43.27942" lon="-2.28889">
        <ele>43.6</ele>
        <time>2021-05-29 12:27:56</time>
      </trkpt>
      <trkpt lat="43.27944" lon="-2.28896">
        <ele>44</ele>
        <time>2021-05-29 12:27:57</time>
      </trkpt>
      <trkpt lat="43.27947" lon="-2.28903">
        <ele>44.2</ele>
        <time>2021-05-29 12:27:58</time>
      </trkpt>
      <trkpt lat="43.27949" lon="-2.2891">
        <ele>44.2</ele>
        <time>2021-05-29 12:27:59</time>
      </trkpt>
      <trkpt lat="43.27952" lon="-2.28917">
        <ele>44.4</ele>
        <time>2021-05-29 12:28:00</time>
      </trkpt>
      <trkpt lat="43.27955" lon="-2.28924">
        <ele>44.4</ele>
        <time>2021-05-29 12:28:01</time>
      </trkpt>
      <trkpt lat="43.27957" lon="-2.28931">
        <ele>44.4</ele>
        <time>2021-05-29 12:28:02</time>
      </trkpt>
      <trkpt lat="43.27959" lon="-2.28937">
        <ele>44.6</ele>
        <time>2021-05-29 12:28:03</time>
      </trkpt>
      <trkpt lat="43.27962" lon="-2.28943">
        <ele>44.6</ele>
        <time>2021-05-29 12:28:04</time>
      </trkpt>
      <trkpt lat="43.27964" lon="-2.28949">
        <ele>44.8</ele>
        <time>2021-05-29 12:28:05</time>
      </trkpt>
      <trkpt lat="43.27966" lon="-2.28955">
        <ele>45</ele>
        <time>2021-05-29 12:28:06</time>
      </trkpt>
      <trkpt lat="43.27968" lon="-2.2896">
        <ele>45.2</ele>
        <time>2021-05-29 12:28:07</time>
      </trkpt>
      <trkpt lat="43.2797" lon="-2.28965">
        <ele>45.6</ele>
        <time>2021-05-29 12:28:08</time>
      </trkpt>
      <trkpt lat="43.27973" lon="-2.28971">
        <ele>45.6</ele>
        <time>2021-05-29 12:28:09</time>
      </trkpt>
      <trkpt lat="43.27974" lon="-2.28976">
        <ele>46</ele>
        <time>2021-05-29 12:28:10</time>
      </trkpt>
      <trkpt lat="43.27976" lon="-2.28981">
        <ele>46.2</ele>
        <time>2021-05-29 12:28:11</time>
      </trkpt>
      <trkpt lat="43.27978" lon="-2.28986">
        <ele>46.6</ele>
        <time>2021-05-29 12:28:12</time>
      </trkpt>
      <trkpt lat="43.2798" lon="-2.28991">
        <ele>46.8</ele>
        <time>2021-05-29 12:28:13</time>
      </trkpt>
      <trkpt lat="43.27982" lon="-2.28996">
        <ele>47</ele>
        <time>2021-05-29 12:28:14</time>
      </trkpt>
      <trkpt lat="43.27985" lon="-2.29">
        <ele>47.2</ele>
        <time>2021-05-29 12:28:15</time>
      </trkpt>
      <trkpt lat="43.27987" lon="-2.29005">
        <ele>47.6</ele>
        <time>2021-05-29 12:28:16</time>
      </trkpt>
      <trkpt lat="43.27989" lon="-2.2901">
        <ele>47.8</ele>
        <time>2021-05-29 12:28:17</time>
      </trkpt>
      <trkpt lat="43.2799" lon="-2.29015">
        <ele>48.2</ele>
        <time>2021-05-29 12:28:18</time>
      </trkpt>
      <trkpt lat="43.27992" lon="-2.29021">
        <ele>48.6</ele>
        <time>2021-05-29 12:28:19</time>
      </trkpt>
      <trkpt lat="43.27994" lon="-2.29026">
        <ele>49.2</ele>
        <time>2021-05-29 12:28:20</time>
      </trkpt>
      <trkpt lat="43.27995" lon="-2.29031">
        <ele>49.6</ele>
        <time>2021-05-29 12:28:21</time>
      </trkpt>
      <trkpt lat="43.27996" lon="-2.29036">
        <ele>49.8</ele>
        <time>2021-05-29 12:28:22</time>
      </trkpt>
      <trkpt lat="43.27997" lon="-2.29042">
        <ele>50.2</ele>
        <time>2021-05-29 12:28:23</time>
      </trkpt>
      <trkpt lat="43.27997" lon="-2.29047">
        <ele>50.6</ele>
        <time>2021-05-29 12:28:24</time>
      </trkpt>
      <trkpt lat="43.27998" lon="-2.29053">
        <ele>50.8</ele>
        <time>2021-05-29 12:28:25</time>
      </trkpt>
      <trkpt lat="43.27998" lon="-2.29058">
        <ele>51</ele>
        <time>2021-05-29 12:28:26</time>
      </trkpt>
      <trkpt lat="43.27998" lon="-2.29064">
        <ele>51.2</ele>
        <time>2021-05-29 12:28:27</time>
      </trkpt>
      <trkpt lat="43.27998" lon="-2.2907">
        <ele>51.4</ele>
        <time>2021-05-29 12:28:28</time>
      </trkpt>
      <trkpt lat="43.27998" lon="-2.29075">
        <ele>51.6</ele>
        <time>2021-05-29 12:28:29</time>
      </trkpt>
      <trkpt lat="43.27997" lon="-2.29081">
        <ele>52</ele>
        <time>2021-05-29 12:28:30</time>
      </trkpt>
      <trkpt lat="43.27997" lon="-2.29087">
        <ele>52.2</ele>
        <time>2021-05-29 12:28:31</time>
      </trkpt>
      <trkpt lat="43.27996" lon="-2.29093">
        <ele>52.4</ele>
        <time>2021-05-29 12:28:32</time>
      </trkpt>
      <trkpt lat="43.27996" lon="-2.29098">
        <ele>52.8</ele>
        <time>2021-05-29 12:28:33</time>
      </trkpt>
      <trkpt lat="43.27995" lon="-2.29104">
        <ele>53</ele>
        <time>2021-05-29 12:28:34</time>
      </trkpt>
      <trkpt lat="43.27995" lon="-2.2911">
        <ele>53.2</ele>
        <time>2021-05-29 12:28:35</time>
      </trkpt>
      <trkpt lat="43.27994" lon="-2.29115">
        <ele>53.6</ele>
        <time>2021-05-29 12:28:36</time>
      </trkpt>
      <trkpt lat="43.27993" lon="-2.29121">
        <ele>53.8</ele>
        <time>2021-05-29 12:28:37</time>
      </trkpt>
      <trkpt lat="43.27993" lon="-2.29127">
        <ele>54</ele>
        <time>2021-05-29 12:28:38</time>
      </trkpt>
      <trkpt lat="43.27992" lon="-2.29132">
        <ele>54</ele>
        <time>2021-05-29 12:28:39</time>
      </trkpt>
      <trkpt lat="43.27991" lon="-2.29137">
        <ele>54.2</ele>
        <time>2021-05-29 12:28:40</time>
      </trkpt>
      <trkpt lat="43.2799" lon="-2.29143">
        <ele>54.4</ele>
        <time>2021-05-29 12:28:41</time>
      </trkpt>
      <trkpt lat="43.2799" lon="-2.29148">
        <ele>54.6</ele>
        <time>2021-05-29 12:28:42</time>
      </trkpt>
      <trkpt lat="43.27989" lon="-2.29154">
        <ele>54.8</ele>
        <time>2021-05-29 12:28:43</time>
      </trkpt>
      <trkpt lat="43.27989" lon="-2.29159">
        <ele>55</ele>
        <time>2021-05-29 12:28:44</time>
      </trkpt>
      <trkpt lat="43.27989" lon="-2.29164">
        <ele>55.2</ele>
        <time>2021-05-29 12:28:45</time>
      </trkpt>
      <trkpt lat="43.2799" lon="-2.29169">
        <ele>55.6</ele>
        <time>2021-05-29 12:28:46</time>
      </trkpt>
      <trkpt lat="43.27991" lon="-2.29174">
        <ele>55.8</ele>
        <time>2021-05-29 12:28:47</time>
      </trkpt>
      <trkpt lat="43.27992" lon="-2.29178">
        <ele>56</ele>
        <time>2021-05-29 12:28:48</time>
      </trkpt>
      <trkpt lat="43.27994" lon="-2.29183">
        <ele>56.2</ele>
        <time>2021-05-29 12:28:49</time>
      </trkpt>
      <trkpt lat="43.27996" lon="-2.29188">
        <ele>56.4</ele>
        <time>2021-05-29 12:28:50</time>
      </trkpt>
      <trkpt lat="43.27999" lon="-2.29192">
        <ele>56.4</ele>
        <time>2021-05-29 12:28:51</time>
      </trkpt>
      <trkpt lat="43.28001" lon="-2.29196">
        <ele>56.6</ele>
        <time>2021-05-29 12:28:52</time>
      </trkpt>
      <trkpt lat="43.28004" lon="-2.292">
        <ele>57</ele>
        <time>2021-05-29 12:28:53</time>
      </trkpt>
      <trkpt lat="43.28007" lon="-2.29204">
        <ele>57.2</ele>
        <time>2021-05-29 12:28:54</time>
      </trkpt>
      <trkpt lat="43.28011" lon="-2.29207">
        <ele>57.8</ele>
        <time>2021-05-29 12:28:55</time>
      </trkpt>
      <trkpt lat="43.28014" lon="-2.2921">
        <ele>58</ele>
        <time>2021-05-29 12:28:56</time>
      </trkpt>
      <trkpt lat="43.28017" lon="-2.29212">
        <ele>58.2</ele>
        <time>2021-05-29 12:28:57</time>
      </trkpt>
      <trkpt lat="43.28021" lon="-2.29215">
        <ele>58.4</ele>
        <time>2021-05-29 12:28:58</time>
      </trkpt>
      <trkpt lat="43.28024" lon="-2.29217">
        <ele>58.6</ele>
        <time>2021-05-29 12:28:59</time>
      </trkpt>
      <trkpt lat="43.28028" lon="-2.29219">
        <ele>58.8</ele>
        <time>2021-05-29 12:29:00</time>
      </trkpt>
      <trkpt lat="43.28032" lon="-2.29222">
        <ele>59.2</ele>
        <time>2021-05-29 12:29:01</time>
      </trkpt>
      <trkpt lat="43.28035" lon="-2.29224">
        <ele>59.4</ele>
        <time>2021-05-29 12:29:02</time>
      </trkpt>
      <trkpt lat="43.28039" lon="-2.29226">
        <ele>59.6</ele>
        <time>2021-05-29 12:29:03</time>
      </trkpt>
      <trkpt lat="43.28042" lon="-2.29228">
        <ele>60</ele>
        <time>2021-05-29 12:29:04</time>
      </trkpt>
      <trkpt lat="43.28046" lon="-2.2923">
        <ele>60.2</ele>
        <time>2021-05-29 12:29:05</time>
      </trkpt>
      <trkpt lat="43.2805" lon="-2.29231">
        <ele>60.6</ele>
        <time>2021-05-29 12:29:06</time>
      </trkpt>
      <trkpt lat="43.28053" lon="-2.29233">
        <ele>60.8</ele>
        <time>2021-05-29 12:29:07</time>
      </trkpt>
      <trkpt lat="43.28057" lon="-2.29235">
        <ele>61</ele>
        <time>2021-05-29 12:29:08</time>
      </trkpt>
      <trkpt lat="43.28061" lon="-2.29237">
        <ele>61.4</ele>
        <time>2021-05-29 12:29:09</time>
      </trkpt>
      <trkpt lat="43.28064" lon="-2.29238">
        <ele>61.8</ele>
        <time>2021-05-29 12:29:10</time>
      </trkpt>
      <trkpt lat="43.28068" lon="-2.2924">
        <ele>62</ele>
        <time>2021-05-29 12:29:11</time>
      </trkpt>
      <trkpt lat="43.28072" lon="-2.29242">
        <ele>62.4</ele>
        <time>2021-05-29 12:29:12</time>
      </trkpt>
      <trkpt lat="43.28075" lon="-2.29244">
        <ele>62.8</ele>
        <time>2021-05-29 12:29:13</time>
      </trkpt>
      <trkpt lat="43.28079" lon="-2.29246">
        <ele>63</ele>
        <time>2021-05-29 12:29:14</time>
      </trkpt>
      <trkpt lat="43.28083" lon="-2.29248">
        <ele>63.2</ele>
        <time>2021-05-29 12:29:15</time>
      </trkpt>
      <trkpt lat="43.28086" lon="-2.29249">
        <ele>63.4</ele>
        <time>2021-05-29 12:29:16</time>
      </trkpt>
      <trkpt lat="43.2809" lon="-2.29251">
        <ele>63.6</ele>
        <time>2021-05-29 12:29:17</time>
      </trkpt>
      <trkpt lat="43.28094" lon="-2.29254">
        <ele>63.8</ele>
        <time>2021-05-29 12:29:18</time>
      </trkpt>
      <trkpt lat="43.28098" lon="-2.29256">
        <ele>64.2</ele>
        <time>2021-05-29 12:29:19</time>
      </trkpt>
      <trkpt lat="43.28101" lon="-2.29258">
        <ele>64.4</ele>
        <time>2021-05-29 12:29:20</time>
      </trkpt>
      <trkpt lat="43.28105" lon="-2.29261">
        <ele>64.6</ele>
        <time>2021-05-29 12:29:21</time>
      </trkpt>
      <trkpt lat="43.28109" lon="-2.29264">
        <ele>64.6</ele>
        <time>2021-05-29 12:29:22</time>
      </trkpt>
      <trkpt lat="43.28112" lon="-2.29266">
        <ele>65</ele>
        <time>2021-05-29 12:29:23</time>
      </trkpt>
      <trkpt lat="43.28116" lon="-2.29269">
        <ele>65.2</ele>
        <time>2021-05-29 12:29:24</time>
      </trkpt>
      <trkpt lat="43.2812" lon="-2.29271">
        <ele>65.4</ele>
        <time>2021-05-29 12:29:25</time>
      </trkpt>
      <trkpt lat="43.28124" lon="-2.29274">
        <ele>65.8</ele>
        <time>2021-05-29 12:29:26</time>
      </trkpt>
      <trkpt lat="43.28128" lon="-2.29276">
        <ele>65.8</ele>
        <time>2021-05-29 12:29:27</time>
      </trkpt>
      <trkpt lat="43.28132" lon="-2.29279">
        <ele>66</ele>
        <time>2021-05-29 12:29:28</time>
      </trkpt>
      <trkpt lat="43.28136" lon="-2.29281">
        <ele>66.4</ele>
        <time>2021-05-29 12:29:29</time>
      </trkpt>
      <trkpt lat="43.2814" lon="-2.29284">
        <ele>66.8</ele>
        <time>2021-05-29 12:29:30</time>
      </trkpt>
      <trkpt lat="43.28144" lon="-2.29286">
        <ele>67</ele>
        <time>2021-05-29 12:29:31</time>
      </trkpt>
      <trkpt lat="43.28148" lon="-2.29288">
        <ele>67.2</ele>
        <time>2021-05-29 12:29:32</time>
      </trkpt>
      <trkpt lat="43.28152" lon="-2.2929">
        <ele>67.4</ele>
        <time>2021-05-29 12:29:33</time>
      </trkpt>
      <trkpt lat="43.28156" lon="-2.29293">
        <ele>67.8</ele>
        <time>2021-05-29 12:29:34</time>
      </trkpt>
      <trkpt lat="43.2816" lon="-2.29295">
        <ele>68</ele>
        <time>2021-05-29 12:29:35</time>
      </trkpt>
      <trkpt lat="43.28163" lon="-2.29298">
        <ele>68.2</ele>
        <time>2021-05-29 12:29:36</time>
      </trkpt>
      <trkpt lat="43.28167" lon="-2.293">
        <ele>68.6</ele>
        <time>2021-05-29 12:29:37</time>
      </trkpt>
      <trkpt lat="43.28171" lon="-2.29301">
        <ele>68.8</ele>
        <time>2021-05-29 12:29:38</time>
      </trkpt>
      <trkpt lat="43.28175" lon="-2.29303">
        <ele>69</ele>
        <time>2021-05-29 12:29:39</time>
      </trkpt>
      <trkpt lat="43.28179" lon="-2.29305">
        <ele>69.4</ele>
        <time>2021-05-29 12:29:40</time>
      </trkpt>
      <trkpt lat="43.28183" lon="-2.29307">
        <ele>69.8</ele>
        <time>2021-05-29 12:29:41</time>
      </trkpt>
      <trkpt lat="43.28186" lon="-2.29311">
        <ele>70.2</ele>
        <time>2021-05-29 12:29:42</time>
      </trkpt>
      <trkpt lat="43.28189" lon="-2.29315">
        <ele>70.4</ele>
        <time>2021-05-29 12:29:43</time>
      </trkpt>
      <trkpt lat="43.28192" lon="-2.29321">
        <ele>70.6</ele>
        <time>2021-05-29 12:29:44</time>
      </trkpt>
      <trkpt lat="43.28194" lon="-2.29326">
        <ele>70.8</ele>
        <time>2021-05-29 12:29:45</time>
      </trkpt>
      <trkpt lat="43.28196" lon="-2.29332">
        <ele>71.2</ele>
        <time>2021-05-29 12:29:46</time>
      </trkpt>
      <trkpt lat="43.28197" lon="-2.29339">
        <ele>71.4</ele>
        <time>2021-05-29 12:29:47</time>
      </trkpt>
      <trkpt lat="43.28198" lon="-2.29347">
        <ele>71.6</ele>
        <time>2021-05-29 12:29:48</time>
      </trkpt>
      <trkpt lat="43.28199" lon="-2.29354">
        <ele>72.2</ele>
        <time>2021-05-29 12:29:49</time>
      </trkpt>
      <trkpt lat="43.28198" lon="-2.29362">
        <ele>72.4</ele>
        <time>2021-05-29 12:29:50</time>
      </trkpt>
      <trkpt lat="43.28198" lon="-2.29369">
        <ele>72.6</ele>
        <time>2021-05-29 12:29:51</time>
      </trkpt>
      <trkpt lat="43.28197" lon="-2.29377">
        <ele>72.8</ele>
        <time>2021-05-29 12:29:52</time>
      </trkpt>
      <trkpt lat="43.28196" lon="-2.29383">
        <ele>73</ele>
        <time>2021-05-29 12:29:53</time>
      </trkpt>
      <trkpt lat="43.28194" lon="-2.2939">
        <ele>73.4</ele>
        <time>2021-05-29 12:29:54</time>
      </trkpt>
      <trkpt lat="43.28192" lon="-2.29396">
        <ele>73.6</ele>
        <time>2021-05-29 12:29:55</time>
      </trkpt>
      <trkpt lat="43.2819" lon="-2.29401">
        <ele>73.6</ele>
        <time>2021-05-29 12:29:56</time>
      </trkpt>
      <trkpt lat="43.28187" lon="-2.29406">
        <ele>73.8</ele>
        <time>2021-05-29 12:29:57</time>
      </trkpt>
      <trkpt lat="43.28184" lon="-2.29412">
        <ele>74</ele>
        <time>2021-05-29 12:29:58</time>
      </trkpt>
      <trkpt lat="43.28181" lon="-2.29417">
        <ele>74.2</ele>
        <time>2021-05-29 12:29:59</time>
      </trkpt>
      <trkpt lat="43.28178" lon="-2.29422">
        <ele>74.4</ele>
        <time>2021-05-29 12:30:00</time>
      </trkpt>
      <trkpt lat="43.28174" lon="-2.29426">
        <ele>74.8</ele>
        <time>2021-05-29 12:30:01</time>
      </trkpt>
      <trkpt lat="43.2817" lon="-2.2943">
        <ele>75</ele>
        <time>2021-05-29 12:30:02</time>
      </trkpt>
      <trkpt lat="43.28166" lon="-2.29434">
        <ele>75.4</ele>
        <time>2021-05-29 12:30:03</time>
      </trkpt>
      <trkpt lat="43.28162" lon="-2.29439">
        <ele>76</ele>
        <time>2021-05-29 12:30:04</time>
      </trkpt>
      <trkpt lat="43.28159" lon="-2.29443">
        <ele>76.2</ele>
        <time>2021-05-29 12:30:05</time>
      </trkpt>
      <trkpt lat="43.28155" lon="-2.29447">
        <ele>76.4</ele>
        <time>2021-05-29 12:30:06</time>
      </trkpt>
      <trkpt lat="43.28151" lon="-2.29452">
        <ele>76.8</ele>
        <time>2021-05-29 12:30:07</time>
      </trkpt>
      <trkpt lat="43.28148" lon="-2.29456">
        <ele>77</ele>
        <time>2021-05-29 12:30:08</time>
      </trkpt>
      <trkpt lat="43.28144" lon="-2.2946">
        <ele>77.4</ele>
        <time>2021-05-29 12:30:09</time>
      </trkpt>
      <trkpt lat="43.28141" lon="-2.29465">
        <ele>77.4</ele>
        <time>2021-05-29 12:30:10</time>
      </trkpt>
      <trkpt lat="43.28138" lon="-2.29471">
        <ele>77.6</ele>
        <time>2021-05-29 12:30:11</time>
      </trkpt>
      <trkpt lat="43.28135" lon="-2.29477">
        <ele>77.8</ele>
        <time>2021-05-29 12:30:12</time>
      </trkpt>
      <trkpt lat="43.28133" lon="-2.29483">
        <ele>78.2</ele>
        <time>2021-05-29 12:30:13</time>
      </trkpt>
      <trkpt lat="43.2813" lon="-2.29489">
        <ele>78.2</ele>
        <time>2021-05-29 12:30:14</time>
      </trkpt>
      <trkpt lat="43.28128" lon="-2.29495">
        <ele>78.4</ele>
        <time>2021-05-29 12:30:15</time>
      </trkpt>
      <trkpt lat="43.28126" lon="-2.295">
        <ele>78.6</ele>
        <time>2021-05-29 12:30:16</time>
      </trkpt>
      <trkpt lat="43.28124" lon="-2.29506">
        <ele>79</ele>
        <time>2021-05-29 12:30:17</time>
      </trkpt>
      <trkpt lat="43.28122" lon="-2.29512">
        <ele>79.4</ele>
        <time>2021-05-29 12:30:18</time>
      </trkpt>
      <trkpt lat="43.2812" lon="-2.29518">
        <ele>79.6</ele>
        <time>2021-05-29 12:30:19</time>
      </trkpt>
      <trkpt lat="43.28118" lon="-2.29524">
        <ele>79.8</ele>
        <time>2021-05-29 12:30:20</time>
      </trkpt>
      <trkpt lat="43.28116" lon="-2.29531">
        <ele>80</ele>
        <time>2021-05-29 12:30:21</time>
      </trkpt>
      <trkpt lat="43.28115" lon="-2.29537">
        <ele>80.2</ele>
        <time>2021-05-29 12:30:22</time>
      </trkpt>
      <trkpt lat="43.28113" lon="-2.29544">
        <ele>80.4</ele>
        <time>2021-05-29 12:30:23</time>
      </trkpt>
      <trkpt lat="43.28111" lon="-2.2955">
        <ele>80.8</ele>
        <time>2021-05-29 12:30:24</time>
      </trkpt>
      <trkpt lat="43.2811" lon="-2.29557">
        <ele>81</ele>
        <time>2021-05-29 12:30:25</time>
      </trkpt>
      <trkpt lat="43.28108" lon="-2.29563">
        <ele>81.4</ele>
        <time>2021-05-29 12:30:26</time>
      </trkpt>
      <trkpt lat="43.28106" lon="-2.2957">
        <ele>81.6</ele>
        <time>2021-05-29 12:30:27</time>
      </trkpt>
      <trkpt lat="43.28104" lon="-2.29576">
        <ele>82</ele>
        <time>2021-05-29 12:30:28</time>
      </trkpt>
      <trkpt lat="43.28103" lon="-2.29582">
        <ele>82.2</ele>
        <time>2021-05-29 12:30:29</time>
      </trkpt>
      <trkpt lat="43.28101" lon="-2.29588">
        <ele>82.4</ele>
        <time>2021-05-29 12:30:30</time>
      </trkpt>
      <trkpt lat="43.281" lon="-2.29593">
        <ele>82.6</ele>
        <time>2021-05-29 12:30:31</time>
      </trkpt>
      <trkpt lat="43.28098" lon="-2.29599">
        <ele>82.8</ele>
        <time>2021-05-29 12:30:32</time>
      </trkpt>
      <trkpt lat="43.28097" lon="-2.29605">
        <ele>83.2</ele>
        <time>2021-05-29 12:30:33</time>
      </trkpt>
      <trkpt lat="43.28096" lon="-2.2961">
        <ele>83.4</ele>
        <time>2021-05-29 12:30:34</time>
      </trkpt>
      <trkpt lat="43.28095" lon="-2.29616">
        <ele>83.6</ele>
        <time>2021-05-29 12:30:35</time>
      </trkpt>
      <trkpt lat="43.28093" lon="-2.29622">
        <ele>83.8</ele>
        <time>2021-05-29 12:30:36</time>
      </trkpt>
      <trkpt lat="43.28092" lon="-2.29628">
        <ele>84</ele>
        <time>2021-05-29 12:30:37</time>
      </trkpt>
      <trkpt lat="43.2809" lon="-2.29634">
        <ele>84.4</ele>
        <time>2021-05-29 12:30:38</time>
      </trkpt>
      <trkpt lat="43.28088" lon="-2.2964">
        <ele>84.6</ele>
        <time>2021-05-29 12:30:39</time>
      </trkpt>
      <trkpt lat="43.28087" lon="-2.29646">
        <ele>84.6</ele>
        <time>2021-05-29 12:30:40</time>
      </trkpt>
      <trkpt lat="43.28085" lon="-2.29652">
        <ele>84.8</ele>
        <time>2021-05-29 12:30:41</time>
      </trkpt>
      <trkpt lat="43.28083" lon="-2.29659">
        <ele>85</ele>
        <time>2021-05-29 12:30:42</time>
      </trkpt>
      <trkpt lat="43.2808" lon="-2.29665">
        <ele>85.2</ele>
        <time>2021-05-29 12:30:43</time>
      </trkpt>
      <trkpt lat="43.28078" lon="-2.29671">
        <ele>85.4</ele>
        <time>2021-05-29 12:30:44</time>
      </trkpt>
      <trkpt lat="43.28075" lon="-2.29676">
        <ele>85.8</ele>
        <time>2021-05-29 12:30:45</time>
      </trkpt>
      <trkpt lat="43.28072" lon="-2.29681">
        <ele>86</ele>
        <time>2021-05-29 12:30:46</time>
      </trkpt>
      <trkpt lat="43.28068" lon="-2.29687">
        <ele>86.2</ele>
        <time>2021-05-29 12:30:47</time>
      </trkpt>
      <trkpt lat="43.28064" lon="-2.29692">
        <ele>86.4</ele>
        <time>2021-05-29 12:30:48</time>
      </trkpt>
      <trkpt lat="43.2806" lon="-2.29697">
        <ele>86.4</ele>
        <time>2021-05-29 12:30:49</time>
      </trkpt>
      <trkpt lat="43.28056" lon="-2.29701">
        <ele>86.6</ele>
        <time>2021-05-29 12:30:50</time>
      </trkpt>
      <trkpt lat="43.28051" lon="-2.29705">
        <ele>86.8</ele>
        <time>2021-05-29 12:30:51</time>
      </trkpt>
      <trkpt lat="43.28047" lon="-2.29709">
        <ele>87</ele>
        <time>2021-05-29 12:30:52</time>
      </trkpt>
      <trkpt lat="43.28042" lon="-2.29713">
        <ele>87.2</ele>
        <time>2021-05-29 12:30:53</time>
      </trkpt>
      <trkpt lat="43.28038" lon="-2.29716">
        <ele>87.6</ele>
        <time>2021-05-29 12:30:54</time>
      </trkpt>
      <trkpt lat="43.28033" lon="-2.29718">
        <ele>87.8</ele>
        <time>2021-05-29 12:30:55</time>
      </trkpt>
      <trkpt lat="43.28028" lon="-2.2972">
        <ele>87.8</ele>
        <time>2021-05-29 12:30:56</time>
      </trkpt>
      <trkpt lat="43.28023" lon="-2.29722">
        <ele>88.2</ele>
        <time>2021-05-29 12:30:57</time>
      </trkpt>
      <trkpt lat="43.28019" lon="-2.29723">
        <ele>88.4</ele>
        <time>2021-05-29 12:30:58</time>
      </trkpt>
      <trkpt lat="43.28014" lon="-2.29725">
        <ele>88.6</ele>
        <time>2021-05-29 12:30:59</time>
      </trkpt>
      <trkpt lat="43.28009" lon="-2.29726">
        <ele>88.8</ele>
        <time>2021-05-29 12:31:00</time>
      </trkpt>
      <trkpt lat="43.28004" lon="-2.29727">
        <ele>89</ele>
        <time>2021-05-29 12:31:01</time>
      </trkpt>
      <trkpt lat="43.27999" lon="-2.29729">
        <ele>89.4</ele>
        <time>2021-05-29 12:31:02</time>
      </trkpt>
      <trkpt lat="43.27995" lon="-2.29731">
        <ele>89.6</ele>
        <time>2021-05-29 12:31:03</time>
      </trkpt>
      <trkpt lat="43.2799" lon="-2.29734">
        <ele>89.8</ele>
        <time>2021-05-29 12:31:04</time>
      </trkpt>
      <trkpt lat="43.27986" lon="-2.29738">
        <ele>90</ele>
        <time>2021-05-29 12:31:05</time>
      </trkpt>
      <trkpt lat="43.27983" lon="-2.29741">
        <ele>90.2</ele>
        <time>2021-05-29 12:31:06</time>
      </trkpt>
      <trkpt lat="43.27979" lon="-2.29745">
        <ele>90.4</ele>
        <time>2021-05-29 12:31:07</time>
      </trkpt>
      <trkpt lat="43.27976" lon="-2.29749">
        <ele>90.6</ele>
        <time>2021-05-29 12:31:08</time>
      </trkpt>
      <trkpt lat="43.27973" lon="-2.29753">
        <ele>90.8</ele>
        <time>2021-05-29 12:31:09</time>
      </trkpt>
      <trkpt lat="43.27969" lon="-2.29758">
        <ele>91</ele>
        <time>2021-05-29 12:31:10</time>
      </trkpt>
      <trkpt lat="43.27966" lon="-2.29763">
        <ele>91</ele>
        <time>2021-05-29 12:31:11</time>
      </trkpt>
      <trkpt lat="43.27962" lon="-2.29768">
        <ele>91.2</ele>
        <time>2021-05-29 12:31:12</time>
      </trkpt>
      <trkpt lat="43.27959" lon="-2.29774">
        <ele>91.6</ele>
        <time>2021-05-29 12:31:13</time>
      </trkpt>
      <trkpt lat="43.27956" lon="-2.29778">
        <ele>91.8</ele>
        <time>2021-05-29 12:31:14</time>
      </trkpt>
      <trkpt lat="43.27953" lon="-2.29783">
        <ele>92</ele>
        <time>2021-05-29 12:31:15</time>
      </trkpt>
      <trkpt lat="43.2795" lon="-2.29787">
        <ele>92.2</ele>
        <time>2021-05-29 12:31:16</time>
      </trkpt>
      <trkpt lat="43.27947" lon="-2.29791">
        <ele>92.6</ele>
        <time>2021-05-29 12:31:17</time>
      </trkpt>
      <trkpt lat="43.27944" lon="-2.29796">
        <ele>92.8</ele>
        <time>2021-05-29 12:31:18</time>
      </trkpt>
      <trkpt lat="43.27941" lon="-2.298">
        <ele>93</ele>
        <time>2021-05-29 12:31:19</time>
      </trkpt>
      <trkpt lat="43.27939" lon="-2.29805">
        <ele>93.4</ele>
        <time>2021-05-29 12:31:20</time>
      </trkpt>
      <trkpt lat="43.27936" lon="-2.2981">
        <ele>93.6</ele>
        <time>2021-05-29 12:31:21</time>
      </trkpt>
      <trkpt lat="43.27933" lon="-2.29816">
        <ele>93.8</ele>
        <time>2021-05-29 12:31:22</time>
      </trkpt>
      <trkpt lat="43.2793" lon="-2.29821">
        <ele>94.2</ele>
        <time>2021-05-29 12:31:23</time>
      </trkpt>
      <trkpt lat="43.27927" lon="-2.29827">
        <ele>94.4</ele>
        <time>2021-05-29 12:31:24</time>
      </trkpt>
      <trkpt lat="43.27925" lon="-2.29833">
        <ele>94.6</ele>
        <time>2021-05-29 12:31:25</time>
      </trkpt>
      <trkpt lat="43.27922" lon="-2.29839">
        <ele>95.2</ele>
        <time>2021-05-29 12:31:26</time>
      </trkpt>
      <trkpt lat="43.2792" lon="-2.29844">
        <ele>95.2</ele>
        <time>2021-05-29 12:31:27</time>
      </trkpt>
      <trkpt lat="43.27918" lon="-2.2985">
        <ele>95.4</ele>
        <time>2021-05-29 12:31:28</time>
      </trkpt>
      <trkpt lat="43.27916" lon="-2.29856">
        <ele>95.6</ele>
        <time>2021-05-29 12:31:29</time>
      </trkpt>
      <trkpt lat="43.27913" lon="-2.29862">
        <ele>96</ele>
        <time>2021-05-29 12:31:30</time>
      </trkpt>
      <trkpt lat="43.27912" lon="-2.29869">
        <ele>96.2</ele>
        <time>2021-05-29 12:31:31</time>
      </trkpt>
      <trkpt lat="43.2791" lon="-2.29875">
        <ele>96.4</ele>
        <time>2021-05-29 12:31:32</time>
      </trkpt>
      <trkpt lat="43.27908" lon="-2.29882">
        <ele>96.6</ele>
        <time>2021-05-29 12:31:33</time>
      </trkpt>
      <trkpt lat="43.27906" lon="-2.29888">
        <ele>96.8</ele>
        <time>2021-05-29 12:31:34</time>
      </trkpt>
      <trkpt lat="43.27905" lon="-2.29895">
        <ele>97.2</ele>
        <time>2021-05-29 12:31:35</time>
      </trkpt>
      <trkpt lat="43.27904" lon="-2.29902">
        <ele>97.4</ele>
        <time>2021-05-29 12:31:36</time>
      </trkpt>
      <trkpt lat="43.27904" lon="-2.29908">
        <ele>97.8</ele>
        <time>2021-05-29 12:31:37</time>
      </trkpt>
      <trkpt lat="43.27904" lon="-2.29915">
        <ele>97.8</ele>
        <time>2021-05-29 12:31:38</time>
      </trkpt>
      <trkpt lat="43.27904" lon="-2.29923">
        <ele>97.8</ele>
        <time>2021-05-29 12:31:39</time>
      </trkpt>
      <trkpt lat="43.27904" lon="-2.2993">
        <ele>98</ele>
        <time>2021-05-29 12:31:40</time>
      </trkpt>
      <trkpt lat="43.27905" lon="-2.29937">
        <ele>98</ele>
        <time>2021-05-29 12:31:41</time>
      </trkpt>
      <trkpt lat="43.27906" lon="-2.29944">
        <ele>98.2</ele>
        <time>2021-05-29 12:31:42</time>
      </trkpt>
      <trkpt lat="43.27907" lon="-2.29952">
        <ele>98.6</ele>
        <time>2021-05-29 12:31:43</time>
      </trkpt>
      <trkpt lat="43.27908" lon="-2.29959">
        <ele>98.6</ele>
        <time>2021-05-29 12:31:44</time>
      </trkpt>
      <trkpt lat="43.27911" lon="-2.29967">
        <ele>99</ele>
        <time>2021-05-29 12:31:45</time>
      </trkpt>
      <trkpt lat="43.27913" lon="-2.29974">
        <ele>99.2</ele>
        <time>2021-05-29 12:31:46</time>
      </trkpt>
      <trkpt lat="43.27915" lon="-2.29981">
        <ele>99.6</ele>
        <time>2021-05-29 12:31:47</time>
      </trkpt>
      <trkpt lat="43.27917" lon="-2.29989">
        <ele>99.6</ele>
        <time>2021-05-29 12:31:48</time>
      </trkpt>
      <trkpt lat="43.27919" lon="-2.29996">
        <ele>99.8</ele>
        <time>2021-05-29 12:31:49</time>
      </trkpt>
      <trkpt lat="43.27921" lon="-2.30003">
        <ele>99.8</ele>
        <time>2021-05-29 12:31:50</time>
      </trkpt>
      <trkpt lat="43.27924" lon="-2.30009">
        <ele>100</ele>
        <time>2021-05-29 12:31:51</time>
      </trkpt>
      <trkpt lat="43.27926" lon="-2.30016">
        <ele>100</ele>
        <time>2021-05-29 12:31:52</time>
      </trkpt>
      <trkpt lat="43.27928" lon="-2.30022">
        <ele>100.2</ele>
        <time>2021-05-29 12:31:53</time>
      </trkpt>
      <trkpt lat="43.2793" lon="-2.30029">
        <ele>100.2</ele>
        <time>2021-05-29 12:31:54</time>
      </trkpt>
      <trkpt lat="43.27933" lon="-2.30035">
        <ele>100.2</ele>
        <time>2021-05-29 12:31:55</time>
      </trkpt>
      <trkpt lat="43.27935" lon="-2.30041">
        <ele>100.2</ele>
        <time>2021-05-29 12:31:56</time>
      </trkpt>
      <trkpt lat="43.27937" lon="-2.30048">
        <ele>100.4</ele>
        <time>2021-05-29 12:31:57</time>
      </trkpt>
      <trkpt lat="43.27939" lon="-2.30055">
        <ele>100.6</ele>
        <time>2021-05-29 12:31:58</time>
      </trkpt>
      <trkpt lat="43.27941" lon="-2.30062">
        <ele>100.8</ele>
        <time>2021-05-29 12:31:59</time>
      </trkpt>
      <trkpt lat="43.27943" lon="-2.30069">
        <ele>101</ele>
        <time>2021-05-29 12:32:00</time>
      </trkpt>
      <trkpt lat="43.27946" lon="-2.30076">
        <ele>101.4</ele>
        <time>2021-05-29 12:32:01</time>
      </trkpt>
      <trkpt lat="43.27948" lon="-2.30083">
        <ele>101.6</ele>
        <time>2021-05-29 12:32:02</time>
      </trkpt>
      <trkpt lat="43.2795" lon="-2.30089">
        <ele>101.8</ele>
        <time>2021-05-29 12:32:03</time>
      </trkpt>
      <trkpt lat="43.27952" lon="-2.30096">
        <ele>101.8</ele>
        <time>2021-05-29 12:32:04</time>
      </trkpt>
      <trkpt lat="43.27954" lon="-2.30103">
        <ele>102</ele>
        <time>2021-05-29 12:32:05</time>
      </trkpt>
      <trkpt lat="43.27956" lon="-2.3011">
        <ele>102.2</ele>
        <time>2021-05-29 12:32:06</time>
      </trkpt>
      <trkpt lat="43.27958" lon="-2.30117">
        <ele>102.4</ele>
        <time>2021-05-29 12:32:07</time>
      </trkpt>
      <trkpt lat="43.2796" lon="-2.30124">
        <ele>102.6</ele>
        <time>2021-05-29 12:32:08</time>
      </trkpt>
      <trkpt lat="43.27961" lon="-2.30132">
        <ele>102.8</ele>
        <time>2021-05-29 12:32:09</time>
      </trkpt>
      <trkpt lat="43.27963" lon="-2.30139">
        <ele>103</ele>
        <time>2021-05-29 12:32:10</time>
      </trkpt>
      <trkpt lat="43.27965" lon="-2.30146">
        <ele>103.2</ele>
        <time>2021-05-29 12:32:11</time>
      </trkpt>
      <trkpt lat="43.27966" lon="-2.30154">
        <ele>103.2</ele>
        <time>2021-05-29 12:32:12</time>
      </trkpt>
      <trkpt lat="43.27967" lon="-2.30162">
        <ele>103.4</ele>
        <time>2021-05-29 12:32:13</time>
      </trkpt>
      <trkpt lat="43.27969" lon="-2.3017">
        <ele>103.6</ele>
        <time>2021-05-29 12:32:14</time>
      </trkpt>
      <trkpt lat="43.2797" lon="-2.30178">
        <ele>103.8</ele>
        <time>2021-05-29 12:32:15</time>
      </trkpt>
      <trkpt lat="43.27971" lon="-2.30185">
        <ele>103.8</ele>
        <time>2021-05-29 12:32:16</time>
      </trkpt>
      <trkpt lat="43.27973" lon="-2.30192">
        <ele>104</ele>
        <time>2021-05-29 12:32:17</time>
      </trkpt>
      <trkpt lat="43.27975" lon="-2.302">
        <ele>104.4</ele>
        <time>2021-05-29 12:32:18</time>
      </trkpt>
      <trkpt lat="43.27976" lon="-2.3021">
        <ele>104.4</ele>
        <time>2021-05-29 12:32:19</time>
      </trkpt>
      <trkpt lat="43.27977" lon="-2.30219">
        <ele>104.8</ele>
        <time>2021-05-29 12:32:20</time>
      </trkpt>
      <trkpt lat="43.27979" lon="-2.30227">
        <ele>105.4</ele>
        <time>2021-05-29 12:32:21</time>
      </trkpt>
      <trkpt lat="43.27982" lon="-2.30235">
        <ele>105.6</ele>
        <time>2021-05-29 12:32:22</time>
      </trkpt>
      <trkpt lat="43.27984" lon="-2.30243">
        <ele>105.8</ele>
        <time>2021-05-29 12:32:23</time>
      </trkpt>
      <trkpt lat="43.27987" lon="-2.30251">
        <ele>106</ele>
        <time>2021-05-29 12:32:24</time>
      </trkpt>
      <trkpt lat="43.2799" lon="-2.30258">
        <ele>106</ele>
        <time>2021-05-29 12:32:25</time>
      </trkpt>
      <trkpt lat="43.27992" lon="-2.30266">
        <ele>106.2</ele>
        <time>2021-05-29 12:32:26</time>
      </trkpt>
      <trkpt lat="43.27995" lon="-2.30273">
        <ele>106.2</ele>
        <time>2021-05-29 12:32:27</time>
      </trkpt>
      <trkpt lat="43.27998" lon="-2.3028">
        <ele>106.4</ele>
        <time>2021-05-29 12:32:28</time>
      </trkpt>
      <trkpt lat="43.28" lon="-2.30287">
        <ele>106.4</ele>
        <time>2021-05-29 12:32:29</time>
      </trkpt>
      <trkpt lat="43.28002" lon="-2.30295">
        <ele>106.6</ele>
        <time>2021-05-29 12:32:30</time>
      </trkpt>
      <trkpt lat="43.28005" lon="-2.30302">
        <ele>106.8</ele>
        <time>2021-05-29 12:32:31</time>
      </trkpt>
      <trkpt lat="43.28008" lon="-2.3031">
        <ele>107</ele>
        <time>2021-05-29 12:32:32</time>
      </trkpt>
      <trkpt lat="43.2801" lon="-2.30317">
        <ele>107.2</ele>
        <time>2021-05-29 12:32:33</time>
      </trkpt>
      <trkpt lat="43.28013" lon="-2.30325">
        <ele>107.4</ele>
        <time>2021-05-29 12:32:34</time>
      </trkpt>
      <trkpt lat="43.28015" lon="-2.30332">
        <ele>107.6</ele>
        <time>2021-05-29 12:32:35</time>
      </trkpt>
      <trkpt lat="43.28017" lon="-2.3034">
        <ele>107.8</ele>
        <time>2021-05-29 12:32:36</time>
      </trkpt>
      <trkpt lat="43.2802" lon="-2.30347">
        <ele>108</ele>
        <time>2021-05-29 12:32:37</time>
      </trkpt>
      <trkpt lat="43.28022" lon="-2.30355">
        <ele>108</ele>
        <time>2021-05-29 12:32:38</time>
      </trkpt>
      <trkpt lat="43.28025" lon="-2.30362">
        <ele>108.2</ele>
        <time>2021-05-29 12:32:39</time>
      </trkpt>
      <trkpt lat="43.28027" lon="-2.30369">
        <ele>108.6</ele>
        <time>2021-05-29 12:32:40</time>
      </trkpt>
      <trkpt lat="43.2803" lon="-2.30376">
        <ele>108.8</ele>
        <time>2021-05-29 12:32:41</time>
      </trkpt>
      <trkpt lat="43.28032" lon="-2.30383">
        <ele>109</ele>
        <time>2021-05-29 12:32:42</time>
      </trkpt>
      <trkpt lat="43.28034" lon="-2.30391">
        <ele>109</ele>
        <time>2021-05-29 12:32:43</time>
      </trkpt>
      <trkpt lat="43.28037" lon="-2.30399">
        <ele>109.2</ele>
        <time>2021-05-29 12:32:44</time>
      </trkpt>
      <trkpt lat="43.28039" lon="-2.30406">
        <ele>109.4</ele>
        <time>2021-05-29 12:32:45</time>
      </trkpt>
      <trkpt lat="43.28042" lon="-2.30413">
        <ele>109.6</ele>
        <time>2021-05-29 12:32:46</time>
      </trkpt>
      <trkpt lat="43.28044" lon="-2.30421">
        <ele>110</ele>
        <time>2021-05-29 12:32:47</time>
      </trkpt>
      <trkpt lat="43.28046" lon="-2.30428">
        <ele>110.2</ele>
        <time>2021-05-29 12:32:48</time>
      </trkpt>
      <trkpt lat="43.28049" lon="-2.30435">
        <ele>110.4</ele>
        <time>2021-05-29 12:32:49</time>
      </trkpt>
      <trkpt lat="43.28052" lon="-2.30443">
        <ele>110.6</ele>
        <time>2021-05-29 12:32:50</time>
      </trkpt>
      <trkpt lat="43.28054" lon="-2.3045">
        <ele>110.8</ele>
        <time>2021-05-29 12:32:51</time>
      </trkpt>
      <trkpt lat="43.28057" lon="-2.30458">
        <ele>111</ele>
        <time>2021-05-29 12:32:52</time>
      </trkpt>
      <trkpt lat="43.28059" lon="-2.30465">
        <ele>111.2</ele>
        <time>2021-05-29 12:32:53</time>
      </trkpt>
      <trkpt lat="43.28062" lon="-2.30472">
        <ele>111.4</ele>
        <time>2021-05-29 12:32:54</time>
      </trkpt>
      <trkpt lat="43.28065" lon="-2.30479">
        <ele>111.8</ele>
        <time>2021-05-29 12:32:55</time>
      </trkpt>
      <trkpt lat="43.28067" lon="-2.30486">
        <ele>112</ele>
        <time>2021-05-29 12:32:56</time>
      </trkpt>
      <trkpt lat="43.2807" lon="-2.30493">
        <ele>112.2</ele>
        <time>2021-05-29 12:32:57</time>
      </trkpt>
      <trkpt lat="43.28072" lon="-2.30501">
        <ele>112.4</ele>
        <time>2021-05-29 12:32:58</time>
      </trkpt>
      <trkpt lat="43.28075" lon="-2.30508">
        <ele>112.4</ele>
        <time>2021-05-29 12:32:59</time>
      </trkpt>
      <trkpt lat="43.28077" lon="-2.30515">
        <ele>112.6</ele>
        <time>2021-05-29 12:33:00</time>
      </trkpt>
      <trkpt lat="43.2808" lon="-2.30522">
        <ele>112.8</ele>
        <time>2021-05-29 12:33:01</time>
      </trkpt>
      <trkpt lat="43.28083" lon="-2.30529">
        <ele>113</ele>
        <time>2021-05-29 12:33:02</time>
      </trkpt>
      <trkpt lat="43.28086" lon="-2.30535">
        <ele>113.2</ele>
        <time>2021-05-29 12:33:03</time>
      </trkpt>
      <trkpt lat="43.28089" lon="-2.30541">
        <ele>113.2</ele>
        <time>2021-05-29 12:33:04</time>
      </trkpt>
      <trkpt lat="43.28091" lon="-2.30548">
        <ele>113.6</ele>
        <time>2021-05-29 12:33:05</time>
      </trkpt>
      <trkpt lat="43.28094" lon="-2.30555">
        <ele>113.8</ele>
        <time>2021-05-29 12:33:06</time>
      </trkpt>
      <trkpt lat="43.28096" lon="-2.30562">
        <ele>114</ele>
        <time>2021-05-29 12:33:07</time>
      </trkpt>
      <trkpt lat="43.28099" lon="-2.30569">
        <ele>114.4</ele>
        <time>2021-05-29 12:33:08</time>
      </trkpt>
      <trkpt lat="43.28102" lon="-2.30576">
        <ele>114.6</ele>
        <time>2021-05-29 12:33:09</time>
      </trkpt>
      <trkpt lat="43.28104" lon="-2.30583">
        <ele>114.8</ele>
        <time>2021-05-29 12:33:10</time>
      </trkpt>
      <trkpt lat="43.28106" lon="-2.30591">
        <ele>115</ele>
        <time>2021-05-29 12:33:11</time>
      </trkpt>
      <trkpt lat="43.28109" lon="-2.30598">
        <ele>115.2</ele>
        <time>2021-05-29 12:33:12</time>
      </trkpt>
      <trkpt lat="43.28111" lon="-2.30604">
        <ele>115.4</ele>
        <time>2021-05-29 12:33:13</time>
      </trkpt>
      <trkpt lat="43.28114" lon="-2.30611">
        <ele>115.6</ele>
        <time>2021-05-29 12:33:14</time>
      </trkpt>
      <trkpt lat="43.28116" lon="-2.30618">
        <ele>115.8</ele>
        <time>2021-05-29 12:33:15</time>
      </trkpt>
      <trkpt lat="43.28119" lon="-2.30626">
        <ele>116</ele>
        <time>2021-05-29 12:33:16</time>
      </trkpt>
      <trkpt lat="43.28122" lon="-2.30634">
        <ele>116.2</ele>
        <time>2021-05-29 12:33:17</time>
      </trkpt>
      <trkpt lat="43.28125" lon="-2.30641">
        <ele>116.2</ele>
        <time>2021-05-29 12:33:18</time>
      </trkpt>
      <trkpt lat="43.28128" lon="-2.30649">
        <ele>116.4</ele>
        <time>2021-05-29 12:33:19</time>
      </trkpt>
      <trkpt lat="43.2813" lon="-2.30658">
        <ele>116.6</ele>
        <time>2021-05-29 12:33:20</time>
      </trkpt>
      <trkpt lat="43.28133" lon="-2.30666">
        <ele>116.8</ele>
        <time>2021-05-29 12:33:21</time>
      </trkpt>
      <trkpt lat="43.28136" lon="-2.30673">
        <ele>116.8</ele>
        <time>2021-05-29 12:33:22</time>
      </trkpt>
      <trkpt lat="43.28139" lon="-2.30681">
        <ele>117</ele>
        <time>2021-05-29 12:33:23</time>
      </trkpt>
      <trkpt lat="43.28142" lon="-2.30689">
        <ele>117.2</ele>
        <time>2021-05-29 12:33:24</time>
      </trkpt>
      <trkpt lat="43.28145" lon="-2.30697">
        <ele>117.4</ele>
        <time>2021-05-29 12:33:25</time>
      </trkpt>
      <trkpt lat="43.28148" lon="-2.30704">
        <ele>117.6</ele>
        <time>2021-05-29 12:33:26</time>
      </trkpt>
      <trkpt lat="43.28151" lon="-2.30712">
        <ele>117.8</ele>
        <time>2021-05-29 12:33:27</time>
      </trkpt>
      <trkpt lat="43.28154" lon="-2.3072">
        <ele>118</ele>
        <time>2021-05-29 12:33:28</time>
      </trkpt>
      <trkpt lat="43.28157" lon="-2.30728">
        <ele>118</ele>
        <time>2021-05-29 12:33:29</time>
      </trkpt>
      <trkpt lat="43.2816" lon="-2.30735">
        <ele>118.4</ele>
        <time>2021-05-29 12:33:30</time>
      </trkpt>
      <trkpt lat="43.28164" lon="-2.30743">
        <ele>118.4</ele>
        <time>2021-05-29 12:33:31</time>
      </trkpt>
      <trkpt lat="43.28168" lon="-2.30749">
        <ele>118.6</ele>
        <time>2021-05-29 12:33:32</time>
      </trkpt>
      <trkpt lat="43.28173" lon="-2.30756">
        <ele>118.8</ele>
        <time>2021-05-29 12:33:33</time>
      </trkpt>
      <trkpt lat="43.28177" lon="-2.30762">
        <ele>119</ele>
        <time>2021-05-29 12:33:34</time>
      </trkpt>
      <trkpt lat="43.28182" lon="-2.30769">
        <ele>119.2</ele>
        <time>2021-05-29 12:33:35</time>
      </trkpt>
      <trkpt lat="43.28186" lon="-2.30775">
        <ele>119.2</ele>
        <time>2021-05-29 12:33:36</time>
      </trkpt>
      <trkpt lat="43.28191" lon="-2.30781">
        <ele>119.6</ele>
        <time>2021-05-29 12:33:37</time>
      </trkpt>
      <trkpt lat="43.28196" lon="-2.30786">
        <ele>119.8</ele>
        <time>2021-05-29 12:33:38</time>
      </trkpt>
      <trkpt lat="43.28202" lon="-2.30792">
        <ele>120</ele>
        <time>2021-05-29 12:33:39</time>
      </trkpt>
      <trkpt lat="43.28207" lon="-2.30797">
        <ele>120.2</ele>
        <time>2021-05-29 12:33:40</time>
      </trkpt>
      <trkpt lat="43.28212" lon="-2.30802">
        <ele>120.4</ele>
        <time>2021-05-29 12:33:41</time>
      </trkpt>
      <trkpt lat="43.28218" lon="-2.30808">
        <ele>120.6</ele>
        <time>2021-05-29 12:33:42</time>
      </trkpt>
      <trkpt lat="43.28223" lon="-2.30812">
        <ele>120.8</ele>
        <time>2021-05-29 12:33:43</time>
      </trkpt>
      <trkpt lat="43.28228" lon="-2.30817">
        <ele>120.8</ele>
        <time>2021-05-29 12:33:44</time>
      </trkpt>
      <trkpt lat="43.28234" lon="-2.30822">
        <ele>120.8</ele>
        <time>2021-05-29 12:33:45</time>
      </trkpt>
      <trkpt lat="43.28239" lon="-2.30827">
        <ele>121</ele>
        <time>2021-05-29 12:33:46</time>
      </trkpt>
      <trkpt lat="43.28245" lon="-2.30832">
        <ele>121</ele>
        <time>2021-05-29 12:33:47</time>
      </trkpt>
      <trkpt lat="43.2825" lon="-2.30837">
        <ele>121.2</ele>
        <time>2021-05-29 12:33:48</time>
      </trkpt>
      <trkpt lat="43.28256" lon="-2.30842">
        <ele>121.4</ele>
        <time>2021-05-29 12:33:49</time>
      </trkpt>
      <trkpt lat="43.28261" lon="-2.30847">
        <ele>121.6</ele>
        <time>2021-05-29 12:33:50</time>
      </trkpt>
      <trkpt lat="43.28267" lon="-2.30852">
        <ele>121.8</ele>
        <time>2021-05-29 12:33:51</time>
      </trkpt>
      <trkpt lat="43.28273" lon="-2.30856">
        <ele>122</ele>
        <time>2021-05-29 12:33:52</time>
      </trkpt>
      <trkpt lat="43.28278" lon="-2.30861">
        <ele>122.2</ele>
        <time>2021-05-29 12:33:53</time>
      </trkpt>
      <trkpt lat="43.28284" lon="-2.30866">
        <ele>122.4</ele>
        <time>2021-05-29 12:33:54</time>
      </trkpt>
      <trkpt lat="43.2829" lon="-2.30871">
        <ele>122.4</ele>
        <time>2021-05-29 12:33:55</time>
      </trkpt>
      <trkpt lat="43.28295" lon="-2.30876">
        <ele>122.6</ele>
        <time>2021-05-29 12:33:56</time>
      </trkpt>
      <trkpt lat="43.28301" lon="-2.30881">
        <ele>122.8</ele>
        <time>2021-05-29 12:33:57</time>
      </trkpt>
      <trkpt lat="43.28307" lon="-2.30885">
        <ele>123</ele>
        <time>2021-05-29 12:33:58</time>
      </trkpt>
      <trkpt lat="43.28312" lon="-2.30891">
        <ele>123</ele>
        <time>2021-05-29 12:33:59</time>
      </trkpt>
      <trkpt lat="43.28318" lon="-2.30896">
        <ele>123.2</ele>
        <time>2021-05-29 12:34:00</time>
      </trkpt>
      <trkpt lat="43.28324" lon="-2.309">
        <ele>123.6</ele>
        <time>2021-05-29 12:34:01</time>
      </trkpt>
      <trkpt lat="43.28329" lon="-2.30905">
        <ele>123.6</ele>
        <time>2021-05-29 12:34:02</time>
      </trkpt>
      <trkpt lat="43.28335" lon="-2.3091">
        <ele>123.8</ele>
        <time>2021-05-29 12:34:03</time>
      </trkpt>
      <trkpt lat="43.28341" lon="-2.30915">
        <ele>124</ele>
        <time>2021-05-29 12:34:04</time>
      </trkpt>
      <trkpt lat="43.28347" lon="-2.30919">
        <ele>124.2</ele>
        <time>2021-05-29 12:34:05</time>
      </trkpt>
      <trkpt lat="43.28352" lon="-2.30924">
        <ele>124.4</ele>
        <time>2021-05-29 12:34:06</time>
      </trkpt>
      <trkpt lat="43.28358" lon="-2.30929">
        <ele>124.4</ele>
        <time>2021-05-29 12:34:07</time>
      </trkpt>
      <trkpt lat="43.28363" lon="-2.30934">
        <ele>124.4</ele>
        <time>2021-05-29 12:34:08</time>
      </trkpt>
      <trkpt lat="43.28369" lon="-2.30939">
        <ele>124.6</ele>
        <time>2021-05-29 12:34:09</time>
      </trkpt>
      <trkpt lat="43.28375" lon="-2.30945">
        <ele>124.6</ele>
        <time>2021-05-29 12:34:10</time>
      </trkpt>
      <trkpt lat="43.2838" lon="-2.30952">
        <ele>124.8</ele>
        <time>2021-05-29 12:34:11</time>
      </trkpt>
      <trkpt lat="43.28385" lon="-2.30959">
        <ele>124.8</ele>
        <time>2021-05-29 12:34:12</time>
      </trkpt>
      <trkpt lat="43.28391" lon="-2.30967">
        <ele>124.8</ele>
        <time>2021-05-29 12:34:13</time>
      </trkpt>
      <trkpt lat="43.28395" lon="-2.30976">
        <ele>124.8</ele>
        <time>2021-05-29 12:34:14</time>
      </trkpt>
      <trkpt lat="43.284" lon="-2.30985">
        <ele>124.8</ele>
        <time>2021-05-29 12:34:15</time>
      </trkpt>
      <trkpt lat="43.28404" lon="-2.30995">
        <ele>124.8</ele>
        <time>2021-05-29 12:34:16</time>
      </trkpt>
      <trkpt lat="43.28407" lon="-2.31005">
        <ele>124.8</ele>
        <time>2021-05-29 12:34:17</time>
      </trkpt>
      <trkpt lat="43.28411" lon="-2.31016">
        <ele>124.8</ele>
        <time>2021-05-29 12:34:18</time>
      </trkpt>
      <trkpt lat="43.28415" lon="-2.31027">
        <ele>124.8</ele>
        <time>2021-05-29 12:34:19</time>
      </trkpt>
      <trkpt lat="43.28418" lon="-2.31038">
        <ele>124.8</ele>
        <time>2021-05-29 12:34:20</time>
      </trkpt>
      <trkpt lat="43.28421" lon="-2.31049">
        <ele>124.8</ele>
        <time>2021-05-29 12:34:21</time>
      </trkpt>
      <trkpt lat="43.28425" lon="-2.31061">
        <ele>124.6</ele>
        <time>2021-05-29 12:34:22</time>
      </trkpt>
      <trkpt lat="43.28428" lon="-2.31073">
        <ele>124.2</ele>
        <time>2021-05-29 12:34:23</time>
      </trkpt>
      <trkpt lat="43.2843" lon="-2.31085">
        <ele>123.8</ele>
        <time>2021-05-29 12:34:24</time>
      </trkpt>
      <trkpt lat="43.28432" lon="-2.31098">
        <ele>123.6</ele>
        <time>2021-05-29 12:34:25</time>
      </trkpt>
      <trkpt lat="43.28432" lon="-2.31111">
        <ele>123</ele>
        <time>2021-05-29 12:34:26</time>
      </trkpt>
      <trkpt lat="43.2843" lon="-2.31123">
        <ele>122.6</ele>
        <time>2021-05-29 12:34:27</time>
      </trkpt>
      <trkpt lat="43.28428" lon="-2.31136">
        <ele>122.4</ele>
        <time>2021-05-29 12:34:28</time>
      </trkpt>
      <trkpt lat="43.28425" lon="-2.31147">
        <ele>122</ele>
        <time>2021-05-29 12:34:29</time>
      </trkpt>
      <trkpt lat="43.2842" lon="-2.31158">
        <ele>121.8</ele>
        <time>2021-05-29 12:34:30</time>
      </trkpt>
      <trkpt lat="43.28415" lon="-2.31169">
        <ele>121.6</ele>
        <time>2021-05-29 12:34:31</time>
      </trkpt>
      <trkpt lat="43.28409" lon="-2.31178">
        <ele>121.4</ele>
        <time>2021-05-29 12:34:32</time>
      </trkpt>
      <trkpt lat="43.28401" lon="-2.31186">
        <ele>121.4</ele>
        <time>2021-05-29 12:34:33</time>
      </trkpt>
      <trkpt lat="43.28394" lon="-2.31192">
        <ele>121.4</ele>
        <time>2021-05-29 12:34:34</time>
      </trkpt>
      <trkpt lat="43.28385" lon="-2.31198">
        <ele>121.2</ele>
        <time>2021-05-29 12:34:35</time>
      </trkpt>
      <trkpt lat="43.28376" lon="-2.31201">
        <ele>121.2</ele>
        <time>2021-05-29 12:34:36</time>
      </trkpt>
      <trkpt lat="43.28367" lon="-2.31203">
        <ele>121</ele>
        <time>2021-05-29 12:34:37</time>
      </trkpt>
      <trkpt lat="43.28358" lon="-2.31203">
        <ele>121</ele>
        <time>2021-05-29 12:34:38</time>
      </trkpt>
      <trkpt lat="43.28348" lon="-2.31202">
        <ele>121</ele>
        <time>2021-05-29 12:34:39</time>
      </trkpt>
      <trkpt lat="43.28339" lon="-2.312">
        <ele>120.8</ele>
        <time>2021-05-29 12:34:40</time>
      </trkpt>
      <trkpt lat="43.28329" lon="-2.31197">
        <ele>120.6</ele>
        <time>2021-05-29 12:34:41</time>
      </trkpt>
      <trkpt lat="43.28319" lon="-2.31193">
        <ele>120.6</ele>
        <time>2021-05-29 12:34:42</time>
      </trkpt>
      <trkpt lat="43.2831" lon="-2.3119">
        <ele>120.4</ele>
        <time>2021-05-29 12:34:43</time>
      </trkpt>
      <trkpt lat="43.283" lon="-2.31186">
        <ele>120.4</ele>
        <time>2021-05-29 12:34:44</time>
      </trkpt>
      <trkpt lat="43.28291" lon="-2.31181">
        <ele>120</ele>
        <time>2021-05-29 12:34:45</time>
      </trkpt>
      <trkpt lat="43.28282" lon="-2.31177">
        <ele>119.8</ele>
        <time>2021-05-29 12:34:46</time>
      </trkpt>
      <trkpt lat="43.28273" lon="-2.31172">
        <ele>119.8</ele>
        <time>2021-05-29 12:34:47</time>
      </trkpt>
      <trkpt lat="43.28263" lon="-2.31167">
        <ele>119.6</ele>
        <time>2021-05-29 12:34:48</time>
      </trkpt>
      <trkpt lat="43.28254" lon="-2.31161">
        <ele>119.4</ele>
        <time>2021-05-29 12:34:49</time>
      </trkpt>
      <trkpt lat="43.28245" lon="-2.31155">
        <ele>119.4</ele>
        <time>2021-05-29 12:34:50</time>
      </trkpt>
      <trkpt lat="43.28236" lon="-2.3115">
        <ele>119.4</ele>
        <time>2021-05-29 12:34:51</time>
      </trkpt>
      <trkpt lat="43.28227" lon="-2.31144">
        <ele>119.4</ele>
        <time>2021-05-29 12:34:52</time>
      </trkpt>
      <trkpt lat="43.28218" lon="-2.31138">
        <ele>119.2</ele>
        <time>2021-05-29 12:34:53</time>
      </trkpt>
      <trkpt lat="43.28209" lon="-2.31132">
        <ele>119</ele>
        <time>2021-05-29 12:34:54</time>
      </trkpt>
      <trkpt lat="43.282" lon="-2.31127">
        <ele>118.8</ele>
        <time>2021-05-29 12:34:55</time>
      </trkpt>
      <trkpt lat="43.28191" lon="-2.31121">
        <ele>118.8</ele>
        <time>2021-05-29 12:34:56</time>
      </trkpt>
      <trkpt lat="43.28181" lon="-2.31116">
        <ele>118.6</ele>
        <time>2021-05-29 12:34:57</time>
      </trkpt>
      <trkpt lat="43.28173" lon="-2.3111">
        <ele>118.6</ele>
        <time>2021-05-29 12:34:58</time>
      </trkpt>
      <trkpt lat="43.28164" lon="-2.31105">
        <ele>118.6</ele>
        <time>2021-05-29 12:34:59</time>
      </trkpt>
      <trkpt lat="43.28155" lon="-2.31099">
        <ele>118.4</ele>
        <time>2021-05-29 12:35:00</time>
      </trkpt>
      <trkpt lat="43.28146" lon="-2.31092">
        <ele>118.4</ele>
        <time>2021-05-29 12:35:01</time>
      </trkpt>
      <trkpt lat="43.28137" lon="-2.31087">
        <ele>118.4</ele>
        <time>2021-05-29 12:35:02</time>
      </trkpt>
      <trkpt lat="43.28128" lon="-2.31081">
        <ele>118.4</ele>
        <time>2021-05-29 12:35:03</time>
      </trkpt>
      <trkpt lat="43.28119" lon="-2.31075">
        <ele>118.4</ele>
        <time>2021-05-29 12:35:04</time>
      </trkpt>
      <trkpt lat="43.2811" lon="-2.31069">
        <ele>118.4</ele>
        <time>2021-05-29 12:35:05</time>
      </trkpt>
      <trkpt lat="43.28101" lon="-2.31064">
        <ele>118.2</ele>
        <time>2021-05-29 12:35:06</time>
      </trkpt>
      <trkpt lat="43.28092" lon="-2.31058">
        <ele>118.2</ele>
        <time>2021-05-29 12:35:07</time>
      </trkpt>
      <trkpt lat="43.28082" lon="-2.31053">
        <ele>118</ele>
        <time>2021-05-29 12:35:08</time>
      </trkpt>
      <trkpt lat="43.28073" lon="-2.31048">
        <ele>118</ele>
        <time>2021-05-29 12:35:09</time>
      </trkpt>
      <trkpt lat="43.28063" lon="-2.31043">
        <ele>118</ele>
        <time>2021-05-29 12:35:10</time>
      </trkpt>
      <trkpt lat="43.28055" lon="-2.31037">
        <ele>117.8</ele>
        <time>2021-05-29 12:35:11</time>
      </trkpt>
      <trkpt lat="43.28046" lon="-2.31031">
        <ele>117.8</ele>
        <time>2021-05-29 12:35:12</time>
      </trkpt>
      <trkpt lat="43.28038" lon="-2.31025">
        <ele>117.8</ele>
        <time>2021-05-29 12:35:13</time>
      </trkpt>
      <trkpt lat="43.28029" lon="-2.31019">
        <ele>117.8</ele>
        <time>2021-05-29 12:35:14</time>
      </trkpt>
      <trkpt lat="43.2802" lon="-2.31014">
        <ele>117.6</ele>
        <time>2021-05-29 12:35:15</time>
      </trkpt>
      <trkpt lat="43.2801" lon="-2.31011">
        <ele>117.4</ele>
        <time>2021-05-29 12:35:16</time>
      </trkpt>
      <trkpt lat="43.28" lon="-2.31009">
        <ele>117.4</ele>
        <time>2021-05-29 12:35:17</time>
      </trkpt>
      <trkpt lat="43.2799" lon="-2.31008">
        <ele>117.4</ele>
        <time>2021-05-29 12:35:18</time>
      </trkpt>
      <trkpt lat="43.2798" lon="-2.31009">
        <ele>117.4</ele>
        <time>2021-05-29 12:35:19</time>
      </trkpt>
      <trkpt lat="43.27971" lon="-2.3101">
        <ele>117.2</ele>
        <time>2021-05-29 12:35:20</time>
      </trkpt>
      <trkpt lat="43.27961" lon="-2.31013">
        <ele>117</ele>
        <time>2021-05-29 12:35:21</time>
      </trkpt>
      <trkpt lat="43.27952" lon="-2.31018">
        <ele>116.8</ele>
        <time>2021-05-29 12:35:22</time>
      </trkpt>
      <trkpt lat="43.27943" lon="-2.31023">
        <ele>116.8</ele>
        <time>2021-05-29 12:35:23</time>
      </trkpt>
      <trkpt lat="43.27934" lon="-2.31031">
        <ele>116.6</ele>
        <time>2021-05-29 12:35:24</time>
      </trkpt>
      <trkpt lat="43.27927" lon="-2.3104">
        <ele>116.4</ele>
        <time>2021-05-29 12:35:25</time>
      </trkpt>
      <trkpt lat="43.27921" lon="-2.3105">
        <ele>116.4</ele>
        <time>2021-05-29 12:35:26</time>
      </trkpt>
      <trkpt lat="43.27916" lon="-2.31062">
        <ele>116.2</ele>
        <time>2021-05-29 12:35:27</time>
      </trkpt>
      <trkpt lat="43.27912" lon="-2.31073">
        <ele>116.2</ele>
        <time>2021-05-29 12:35:28</time>
      </trkpt>
      <trkpt lat="43.27908" lon="-2.31085">
        <ele>116.2</ele>
        <time>2021-05-29 12:35:29</time>
      </trkpt>
      <trkpt lat="43.27905" lon="-2.31098">
        <ele>116.2</ele>
        <time>2021-05-29 12:35:30</time>
      </trkpt>
      <trkpt lat="43.27902" lon="-2.3111">
        <ele>116.2</ele>
        <time>2021-05-29 12:35:31</time>
      </trkpt>
      <trkpt lat="43.279" lon="-2.31122">
        <ele>116.2</ele>
        <time>2021-05-29 12:35:32</time>
      </trkpt>
      <trkpt lat="43.27898" lon="-2.31134">
        <ele>116.2</ele>
        <time>2021-05-29 12:35:33</time>
      </trkpt>
      <trkpt lat="43.27896" lon="-2.31147">
        <ele>116.2</ele>
        <time>2021-05-29 12:35:34</time>
      </trkpt>
      <trkpt lat="43.27894" lon="-2.31158">
        <ele>116.2</ele>
        <time>2021-05-29 12:35:35</time>
      </trkpt>
      <trkpt lat="43.27892" lon="-2.3117">
        <ele>116.2</ele>
        <time>2021-05-29 12:35:36</time>
      </trkpt>
      <trkpt lat="43.27891" lon="-2.31182">
        <ele>116.2</ele>
        <time>2021-05-29 12:35:37</time>
      </trkpt>
      <trkpt lat="43.27891" lon="-2.31194">
        <ele>116.2</ele>
        <time>2021-05-29 12:35:38</time>
      </trkpt>
      <trkpt lat="43.2789" lon="-2.31206">
        <ele>116.2</ele>
        <time>2021-05-29 12:35:39</time>
      </trkpt>
      <trkpt lat="43.27891" lon="-2.31217">
        <ele>116.2</ele>
        <time>2021-05-29 12:35:40</time>
      </trkpt>
      <trkpt lat="43.27892" lon="-2.31228">
        <ele>116.4</ele>
        <time>2021-05-29 12:35:41</time>
      </trkpt>
      <trkpt lat="43.27893" lon="-2.31239">
        <ele>116.6</ele>
        <time>2021-05-29 12:35:42</time>
      </trkpt>
      <trkpt lat="43.27896" lon="-2.31249">
        <ele>116.8</ele>
        <time>2021-05-29 12:35:43</time>
      </trkpt>
      <trkpt lat="43.27899" lon="-2.31259">
        <ele>117</ele>
        <time>2021-05-29 12:35:44</time>
      </trkpt>
      <trkpt lat="43.27903" lon="-2.31269">
        <ele>117.2</ele>
        <time>2021-05-29 12:35:45</time>
      </trkpt>
      <trkpt lat="43.27907" lon="-2.31278">
        <ele>117.2</ele>
        <time>2021-05-29 12:35:46</time>
      </trkpt>
      <trkpt lat="43.27911" lon="-2.31286">
        <ele>117.2</ele>
        <time>2021-05-29 12:35:47</time>
      </trkpt>
      <trkpt lat="43.27916" lon="-2.31294">
        <ele>117.4</ele>
        <time>2021-05-29 12:35:48</time>
      </trkpt>
      <trkpt lat="43.27921" lon="-2.31302">
        <ele>117.6</ele>
        <time>2021-05-29 12:35:49</time>
      </trkpt>
      <trkpt lat="43.27925" lon="-2.3131">
        <ele>117.8</ele>
        <time>2021-05-29 12:35:50</time>
      </trkpt>
      <trkpt lat="43.2793" lon="-2.31318">
        <ele>118.2</ele>
        <time>2021-05-29 12:35:51</time>
      </trkpt>
      <trkpt lat="43.27935" lon="-2.31325">
        <ele>118.4</ele>
        <time>2021-05-29 12:35:52</time>
      </trkpt>
      <trkpt lat="43.2794" lon="-2.31333">
        <ele>118.6</ele>
        <time>2021-05-29 12:35:53</time>
      </trkpt>
      <trkpt lat="43.27945" lon="-2.3134">
        <ele>119</ele>
        <time>2021-05-29 12:35:54</time>
      </trkpt>
      <trkpt lat="43.2795" lon="-2.31348">
        <ele>119.2</ele>
        <time>2021-05-29 12:35:55</time>
      </trkpt>
      <trkpt lat="43.27954" lon="-2.31354">
        <ele>119.2</ele>
        <time>2021-05-29 12:35:56</time>
      </trkpt>
      <trkpt lat="43.27959" lon="-2.3136">
        <ele>119.4</ele>
        <time>2021-05-29 12:35:57</time>
      </trkpt>
      <trkpt lat="43.27964" lon="-2.31366">
        <ele>119.6</ele>
        <time>2021-05-29 12:35:58</time>
      </trkpt>
      <trkpt lat="43.27969" lon="-2.31372">
        <ele>119.8</ele>
        <time>2021-05-29 12:35:59</time>
      </trkpt>
      <trkpt lat="43.27975" lon="-2.31378">
        <ele>120</ele>
        <time>2021-05-29 12:36:00</time>
      </trkpt>
      <trkpt lat="43.2798" lon="-2.31383">
        <ele>120.2</ele>
        <time>2021-05-29 12:36:01</time>
      </trkpt>
      <trkpt lat="43.27985" lon="-2.31389">
        <ele>120.2</ele>
        <time>2021-05-29 12:36:02</time>
      </trkpt>
      <trkpt lat="43.2799" lon="-2.31395">
        <ele>120.2</ele>
        <time>2021-05-29 12:36:03</time>
      </trkpt>
      <trkpt lat="43.27995" lon="-2.31401">
        <ele>120.4</ele>
        <time>2021-05-29 12:36:04</time>
      </trkpt>
      <trkpt lat="43.28" lon="-2.31407">
        <ele>120.6</ele>
        <time>2021-05-29 12:36:05</time>
      </trkpt>
      <trkpt lat="43.28004" lon="-2.31414">
        <ele>120.6</ele>
        <time>2021-05-29 12:36:06</time>
      </trkpt>
      <trkpt lat="43.28009" lon="-2.3142">
        <ele>120.8</ele>
        <time>2021-05-29 12:36:07</time>
      </trkpt>
      <trkpt lat="43.28013" lon="-2.31427">
        <ele>121</ele>
        <time>2021-05-29 12:36:08</time>
      </trkpt>
      <trkpt lat="43.28017" lon="-2.31433">
        <ele>121.2</ele>
        <time>2021-05-29 12:36:09</time>
      </trkpt>
      <trkpt lat="43.28022" lon="-2.3144">
        <ele>121.2</ele>
        <time>2021-05-29 12:36:10</time>
      </trkpt>
      <trkpt lat="43.28026" lon="-2.31447">
        <ele>121.4</ele>
        <time>2021-05-29 12:36:11</time>
      </trkpt>
      <trkpt lat="43.2803" lon="-2.31455">
        <ele>121.4</ele>
        <time>2021-05-29 12:36:12</time>
      </trkpt>
      <trkpt lat="43.28034" lon="-2.31462">
        <ele>121.6</ele>
        <time>2021-05-29 12:36:13</time>
      </trkpt>
      <trkpt lat="43.28039" lon="-2.31469">
        <ele>121.8</ele>
        <time>2021-05-29 12:36:14</time>
      </trkpt>
      <trkpt lat="43.28043" lon="-2.31476">
        <ele>122</ele>
        <time>2021-05-29 12:36:15</time>
      </trkpt>
      <trkpt lat="43.28047" lon="-2.31483">
        <ele>122.2</ele>
        <time>2021-05-29 12:36:16</time>
      </trkpt>
      <trkpt lat="43.28051" lon="-2.3149">
        <ele>122.4</ele>
        <time>2021-05-29 12:36:17</time>
      </trkpt>
      <trkpt lat="43.28055" lon="-2.31497">
        <ele>122.6</ele>
        <time>2021-05-29 12:36:18</time>
      </trkpt>
      <trkpt lat="43.28059" lon="-2.31503">
        <ele>122.8</ele>
        <time>2021-05-29 12:36:19</time>
      </trkpt>
      <trkpt lat="43.28063" lon="-2.31509">
        <ele>122.8</ele>
        <time>2021-05-29 12:36:20</time>
      </trkpt>
      <trkpt lat="43.28068" lon="-2.31515">
        <ele>122.8</ele>
        <time>2021-05-29 12:36:21</time>
      </trkpt>
      <trkpt lat="43.28072" lon="-2.31521">
        <ele>123.2</ele>
        <time>2021-05-29 12:36:22</time>
      </trkpt>
      <trkpt lat="43.28076" lon="-2.31527">
        <ele>123.2</ele>
        <time>2021-05-29 12:36:23</time>
      </trkpt>
      <trkpt lat="43.28079" lon="-2.31533">
        <ele>123.4</ele>
        <time>2021-05-29 12:36:24</time>
      </trkpt>
      <trkpt lat="43.28083" lon="-2.31539">
        <ele>123.6</ele>
        <time>2021-05-29 12:36:25</time>
      </trkpt>
      <trkpt lat="43.28086" lon="-2.31544">
        <ele>123.8</ele>
        <time>2021-05-29 12:36:26</time>
      </trkpt>
      <trkpt lat="43.2809" lon="-2.3155">
        <ele>124</ele>
        <time>2021-05-29 12:36:27</time>
      </trkpt>
      <trkpt lat="43.28092" lon="-2.31555">
        <ele>124.6</ele>
        <time>2021-05-29 12:36:28</time>
      </trkpt>
      <trkpt lat="43.28094" lon="-2.31561">
        <ele>124.8</ele>
        <time>2021-05-29 12:36:29</time>
      </trkpt>
      <trkpt lat="43.28095" lon="-2.31567">
        <ele>125</ele>
        <time>2021-05-29 12:36:30</time>
      </trkpt>
      <trkpt lat="43.28097" lon="-2.31574">
        <ele>125.2</ele>
        <time>2021-05-29 12:36:31</time>
      </trkpt>
      <trkpt lat="43.28098" lon="-2.3158">
        <ele>125.6</ele>
        <time>2021-05-29 12:36:32</time>
      </trkpt>
      <trkpt lat="43.281" lon="-2.31588">
        <ele>125.8</ele>
        <time>2021-05-29 12:36:33</time>
      </trkpt>
      <trkpt lat="43.28101" lon="-2.31595">
        <ele>126.2</ele>
        <time>2021-05-29 12:36:34</time>
      </trkpt>
      <trkpt lat="43.28102" lon="-2.31602">
        <ele>126.6</ele>
        <time>2021-05-29 12:36:35</time>
      </trkpt>
      <trkpt lat="43.28104" lon="-2.31609">
        <ele>126.8</ele>
        <time>2021-05-29 12:36:36</time>
      </trkpt>
      <trkpt lat="43.28105" lon="-2.31617">
        <ele>127</ele>
        <time>2021-05-29 12:36:37</time>
      </trkpt>
      <trkpt lat="43.28106" lon="-2.31626">
        <ele>127.2</ele>
        <time>2021-05-29 12:36:38</time>
      </trkpt>
      <trkpt lat="43.28107" lon="-2.31633">
        <ele>127.4</ele>
        <time>2021-05-29 12:36:39</time>
      </trkpt>
      <trkpt lat="43.28108" lon="-2.31641">
        <ele>127.4</ele>
        <time>2021-05-29 12:36:40</time>
      </trkpt>
      <trkpt lat="43.2811" lon="-2.31649">
        <ele>127.6</ele>
        <time>2021-05-29 12:36:41</time>
      </trkpt>
      <trkpt lat="43.2811" lon="-2.31656">
        <ele>127.6</ele>
        <time>2021-05-29 12:36:42</time>
      </trkpt>
      <trkpt lat="43.28111" lon="-2.31663">
        <ele>127.8</ele>
        <time>2021-05-29 12:36:43</time>
      </trkpt>
      <trkpt lat="43.28111" lon="-2.31671">
        <ele>127.8</ele>
        <time>2021-05-29 12:36:44</time>
      </trkpt>
      <trkpt lat="43.28112" lon="-2.31678">
        <ele>128</ele>
        <time>2021-05-29 12:36:45</time>
      </trkpt>
      <trkpt lat="43.28112" lon="-2.31686">
        <ele>128.4</ele>
        <time>2021-05-29 12:36:46</time>
      </trkpt>
      <trkpt lat="43.28112" lon="-2.31693">
        <ele>128.6</ele>
        <time>2021-05-29 12:36:47</time>
      </trkpt>
      <trkpt lat="43.28111" lon="-2.31702">
        <ele>128.8</ele>
        <time>2021-05-29 12:36:48</time>
      </trkpt>
      <trkpt lat="43.2811" lon="-2.31711">
        <ele>129</ele>
        <time>2021-05-29 12:36:49</time>
      </trkpt>
      <trkpt lat="43.28109" lon="-2.31721">
        <ele>129</ele>
        <time>2021-05-29 12:36:50</time>
      </trkpt>
      <trkpt lat="43.28107" lon="-2.3173">
        <ele>129.2</ele>
        <time>2021-05-29 12:36:51</time>
      </trkpt>
      <trkpt lat="43.28105" lon="-2.31739">
        <ele>129.2</ele>
        <time>2021-05-29 12:36:52</time>
      </trkpt>
      <trkpt lat="43.28103" lon="-2.31748">
        <ele>129.4</ele>
        <time>2021-05-29 12:36:53</time>
      </trkpt>
      <trkpt lat="43.28101" lon="-2.31756">
        <ele>129.6</ele>
        <time>2021-05-29 12:36:54</time>
      </trkpt>
      <trkpt lat="43.28098" lon="-2.31764">
        <ele>129.8</ele>
        <time>2021-05-29 12:36:55</time>
      </trkpt>
      <trkpt lat="43.28094" lon="-2.31771">
        <ele>130.2</ele>
        <time>2021-05-29 12:36:56</time>
      </trkpt>
      <trkpt lat="43.28091" lon="-2.31779">
        <ele>130.6</ele>
        <time>2021-05-29 12:36:57</time>
      </trkpt>
      <trkpt lat="43.28087" lon="-2.31786">
        <ele>130.8</ele>
        <time>2021-05-29 12:36:58</time>
      </trkpt>
      <trkpt lat="43.28084" lon="-2.31794">
        <ele>131</ele>
        <time>2021-05-29 12:36:59</time>
      </trkpt>
      <trkpt lat="43.2808" lon="-2.31801">
        <ele>131.2</ele>
        <time>2021-05-29 12:37:00</time>
      </trkpt>
      <trkpt lat="43.28077" lon="-2.31808">
        <ele>131.2</ele>
        <time>2021-05-29 12:37:01</time>
      </trkpt>
      <trkpt lat="43.28072" lon="-2.31815">
        <ele>131.2</ele>
        <time>2021-05-29 12:37:02</time>
      </trkpt>
      <trkpt lat="43.28068" lon="-2.31821">
        <ele>131.4</ele>
        <time>2021-05-29 12:37:03</time>
      </trkpt>
      <trkpt lat="43.28064" lon="-2.31827">
        <ele>131.4</ele>
        <time>2021-05-29 12:37:04</time>
      </trkpt>
      <trkpt lat="43.2806" lon="-2.31834">
        <ele>131.4</ele>
        <time>2021-05-29 12:37:05</time>
      </trkpt>
      <trkpt lat="43.28056" lon="-2.3184">
        <ele>131.4</ele>
        <time>2021-05-29 12:37:06</time>
      </trkpt>
      <trkpt lat="43.28052" lon="-2.31846">
        <ele>131.8</ele>
        <time>2021-05-29 12:37:07</time>
      </trkpt>
      <trkpt lat="43.28048" lon="-2.31852">
        <ele>132</ele>
        <time>2021-05-29 12:37:08</time>
      </trkpt>
      <trkpt lat="43.28044" lon="-2.31859">
        <ele>132.2</ele>
        <time>2021-05-29 12:37:09</time>
      </trkpt>
      <trkpt lat="43.28039" lon="-2.31866">
        <ele>132.4</ele>
        <time>2021-05-29 12:37:10</time>
      </trkpt>
      <trkpt lat="43.28035" lon="-2.31872">
        <ele>132.4</ele>
        <time>2021-05-29 12:37:11</time>
      </trkpt>
      <trkpt lat="43.28032" lon="-2.31879">
        <ele>132.6</ele>
        <time>2021-05-29 12:37:12</time>
      </trkpt>
      <trkpt lat="43.28029" lon="-2.31887">
        <ele>132.8</ele>
        <time>2021-05-29 12:37:13</time>
      </trkpt>
      <trkpt lat="43.28026" lon="-2.31894">
        <ele>133</ele>
        <time>2021-05-29 12:37:14</time>
      </trkpt>
      <trkpt lat="43.28023" lon="-2.31901">
        <ele>133</ele>
        <time>2021-05-29 12:37:15</time>
      </trkpt>
      <trkpt lat="43.28022" lon="-2.31909">
        <ele>133.2</ele>
        <time>2021-05-29 12:37:16</time>
      </trkpt>
      <trkpt lat="43.2802" lon="-2.31916">
        <ele>133.2</ele>
        <time>2021-05-29 12:37:17</time>
      </trkpt>
      <trkpt lat="43.28018" lon="-2.31924">
        <ele>133.4</ele>
        <time>2021-05-29 12:37:18</time>
      </trkpt>
      <trkpt lat="43.28017" lon="-2.31931">
        <ele>133.8</ele>
        <time>2021-05-29 12:37:19</time>
      </trkpt>
      <trkpt lat="43.28016" lon="-2.31939">
        <ele>134</ele>
        <time>2021-05-29 12:37:20</time>
      </trkpt>
      <trkpt lat="43.28014" lon="-2.31946">
        <ele>134.2</ele>
        <time>2021-05-29 12:37:21</time>
      </trkpt>
      <trkpt lat="43.28013" lon="-2.31953">
        <ele>134.4</ele>
        <time>2021-05-29 12:37:22</time>
      </trkpt>
      <trkpt lat="43.28012" lon="-2.31961">
        <ele>134.6</ele>
        <time>2021-05-29 12:37:23</time>
      </trkpt>
      <trkpt lat="43.28011" lon="-2.31967">
        <ele>134.8</ele>
        <time>2021-05-29 12:37:24</time>
      </trkpt>
      <trkpt lat="43.28009" lon="-2.31974">
        <ele>135</ele>
        <time>2021-05-29 12:37:25</time>
      </trkpt>
      <trkpt lat="43.28008" lon="-2.3198">
        <ele>135</ele>
        <time>2021-05-29 12:37:26</time>
      </trkpt>
      <trkpt lat="43.28006" lon="-2.31986">
        <ele>135.4</ele>
        <time>2021-05-29 12:37:27</time>
      </trkpt>
      <trkpt lat="43.28004" lon="-2.31993">
        <ele>135.8</ele>
        <time>2021-05-29 12:37:28</time>
      </trkpt>
      <trkpt lat="43.28001" lon="-2.32">
        <ele>136.4</ele>
        <time>2021-05-29 12:37:29</time>
      </trkpt>
      <trkpt lat="43.27998" lon="-2.32007">
        <ele>136.6</ele>
        <time>2021-05-29 12:37:30</time>
      </trkpt>
      <trkpt lat="43.27995" lon="-2.32014">
        <ele>137</ele>
        <time>2021-05-29 12:37:31</time>
      </trkpt>
      <trkpt lat="43.27992" lon="-2.3202">
        <ele>137.2</ele>
        <time>2021-05-29 12:37:32</time>
      </trkpt>
      <trkpt lat="43.27988" lon="-2.32027">
        <ele>137.2</ele>
        <time>2021-05-29 12:37:33</time>
      </trkpt>
      <trkpt lat="43.27984" lon="-2.32033">
        <ele>137.4</ele>
        <time>2021-05-29 12:37:34</time>
      </trkpt>
      <trkpt lat="43.2798" lon="-2.32038">
        <ele>137.4</ele>
        <time>2021-05-29 12:37:35</time>
      </trkpt>
      <trkpt lat="43.27976" lon="-2.32044">
        <ele>137.6</ele>
        <time>2021-05-29 12:37:36</time>
      </trkpt>
      <trkpt lat="43.27972" lon="-2.32049">
        <ele>138</ele>
        <time>2021-05-29 12:37:37</time>
      </trkpt>
      <trkpt lat="43.27968" lon="-2.32053">
        <ele>138.2</ele>
        <time>2021-05-29 12:37:38</time>
      </trkpt>
      <trkpt lat="43.27964" lon="-2.32058">
        <ele>138.4</ele>
        <time>2021-05-29 12:37:39</time>
      </trkpt>
      <trkpt lat="43.2796" lon="-2.32063">
        <ele>138.6</ele>
        <time>2021-05-29 12:37:40</time>
      </trkpt>
      <trkpt lat="43.27957" lon="-2.32067">
        <ele>138.6</ele>
        <time>2021-05-29 12:37:41</time>
      </trkpt>
      <trkpt lat="43.27953" lon="-2.32072">
        <ele>138.8</ele>
        <time>2021-05-29 12:37:42</time>
      </trkpt>
      <trkpt lat="43.27949" lon="-2.32077">
        <ele>138.8</ele>
        <time>2021-05-29 12:37:43</time>
      </trkpt>
      <trkpt lat="43.27945" lon="-2.32081">
        <ele>139.2</ele>
        <time>2021-05-29 12:37:44</time>
      </trkpt>
      <trkpt lat="43.27942" lon="-2.32086">
        <ele>139.4</ele>
        <time>2021-05-29 12:37:45</time>
      </trkpt>
      <trkpt lat="43.27938" lon="-2.32091">
        <ele>139.6</ele>
        <time>2021-05-29 12:37:46</time>
      </trkpt>
      <trkpt lat="43.27934" lon="-2.32096">
        <ele>140.2</ele>
        <time>2021-05-29 12:37:47</time>
      </trkpt>
      <trkpt lat="43.2793" lon="-2.321">
        <ele>140.4</ele>
        <time>2021-05-29 12:37:48</time>
      </trkpt>
      <trkpt lat="43.27927" lon="-2.32105">
        <ele>140.6</ele>
        <time>2021-05-29 12:37:49</time>
      </trkpt>
      <trkpt lat="43.27924" lon="-2.32109">
        <ele>140.8</ele>
        <time>2021-05-29 12:37:50</time>
      </trkpt>
      <trkpt lat="43.27921" lon="-2.32114">
        <ele>141</ele>
        <time>2021-05-29 12:37:51</time>
      </trkpt>
      <trkpt lat="43.27918" lon="-2.32119">
        <ele>141.4</ele>
        <time>2021-05-29 12:37:52</time>
      </trkpt>
      <trkpt lat="43.27915" lon="-2.32124">
        <ele>141.6</ele>
        <time>2021-05-29 12:37:53</time>
      </trkpt>
      <trkpt lat="43.27912" lon="-2.32129">
        <ele>142.2</ele>
        <time>2021-05-29 12:37:54</time>
      </trkpt>
      <trkpt lat="43.2791" lon="-2.32134">
        <ele>142.6</ele>
        <time>2021-05-29 12:37:55</time>
      </trkpt>
      <trkpt lat="43.27907" lon="-2.32139">
        <ele>142.8</ele>
        <time>2021-05-29 12:37:56</time>
      </trkpt>
      <trkpt lat="43.27905" lon="-2.32144">
        <ele>142.8</ele>
        <time>2021-05-29 12:37:57</time>
      </trkpt>
      <trkpt lat="43.27903" lon="-2.32149">
        <ele>143.2</ele>
        <time>2021-05-29 12:37:58</time>
      </trkpt>
      <trkpt lat="43.27901" lon="-2.32154">
        <ele>143.2</ele>
        <time>2021-05-29 12:37:59</time>
      </trkpt>
      <trkpt lat="43.27898" lon="-2.3216">
        <ele>143.4</ele>
        <time>2021-05-29 12:38:00</time>
      </trkpt>
      <trkpt lat="43.27896" lon="-2.32166">
        <ele>143.8</ele>
        <time>2021-05-29 12:38:01</time>
      </trkpt>
      <trkpt lat="43.27894" lon="-2.32171">
        <ele>144</ele>
        <time>2021-05-29 12:38:02</time>
      </trkpt>
      <trkpt lat="43.27891" lon="-2.32177">
        <ele>144.2</ele>
        <time>2021-05-29 12:38:03</time>
      </trkpt>
      <trkpt lat="43.27889" lon="-2.32183">
        <ele>144.2</ele>
        <time>2021-05-29 12:38:04</time>
      </trkpt>
      <trkpt lat="43.27886" lon="-2.3219">
        <ele>145.2</ele>
        <time>2021-05-29 12:38:05</time>
      </trkpt>
      <trkpt lat="43.27884" lon="-2.32196">
        <ele>145.4</ele>
        <time>2021-05-29 12:38:06</time>
      </trkpt>
      <trkpt lat="43.27882" lon="-2.32203">
        <ele>145.8</ele>
        <time>2021-05-29 12:38:07</time>
      </trkpt>
      <trkpt lat="43.27879" lon="-2.3221">
        <ele>145.8</ele>
        <time>2021-05-29 12:38:08</time>
      </trkpt>
      <trkpt lat="43.27877" lon="-2.32217">
        <ele>146</ele>
        <time>2021-05-29 12:38:09</time>
      </trkpt>
      <trkpt lat="43.27875" lon="-2.32223">
        <ele>146</ele>
        <time>2021-05-29 12:38:10</time>
      </trkpt>
      <trkpt lat="43.27873" lon="-2.3223">
        <ele>146.2</ele>
        <time>2021-05-29 12:38:11</time>
      </trkpt>
      <trkpt lat="43.2787" lon="-2.32236">
        <ele>146.6</ele>
        <time>2021-05-29 12:38:12</time>
      </trkpt>
      <trkpt lat="43.27867" lon="-2.32242">
        <ele>146.8</ele>
        <time>2021-05-29 12:38:13</time>
      </trkpt>
      <trkpt lat="43.27864" lon="-2.32247">
        <ele>147.2</ele>
        <time>2021-05-29 12:38:14</time>
      </trkpt>
      <trkpt lat="43.27861" lon="-2.32253">
        <ele>147.4</ele>
        <time>2021-05-29 12:38:15</time>
      </trkpt>
      <trkpt lat="43.27858" lon="-2.32258">
        <ele>147.8</ele>
        <time>2021-05-29 12:38:16</time>
      </trkpt>
      <trkpt lat="43.27855" lon="-2.32263">
        <ele>148</ele>
        <time>2021-05-29 12:38:17</time>
      </trkpt>
      <trkpt lat="43.27852" lon="-2.32268">
        <ele>148.6</ele>
        <time>2021-05-29 12:38:18</time>
      </trkpt>
      <trkpt lat="43.27848" lon="-2.32273">
        <ele>148.8</ele>
        <time>2021-05-29 12:38:19</time>
      </trkpt>
      <trkpt lat="43.27845" lon="-2.32277">
        <ele>149</ele>
        <time>2021-05-29 12:38:20</time>
      </trkpt>
      <trkpt lat="43.27842" lon="-2.32282">
        <ele>149.2</ele>
        <time>2021-05-29 12:38:21</time>
      </trkpt>
      <trkpt lat="43.27839" lon="-2.32287">
        <ele>149.6</ele>
        <time>2021-05-29 12:38:22</time>
      </trkpt>
      <trkpt lat="43.27835" lon="-2.32291">
        <ele>149.8</ele>
        <time>2021-05-29 12:38:23</time>
      </trkpt>
      <trkpt lat="43.27832" lon="-2.32296">
        <ele>150.2</ele>
        <time>2021-05-29 12:38:24</time>
      </trkpt>
      <trkpt lat="43.27829" lon="-2.32301">
        <ele>150.4</ele>
        <time>2021-05-29 12:38:25</time>
      </trkpt>
      <trkpt lat="43.27826" lon="-2.32306">
        <ele>150.6</ele>
        <time>2021-05-29 12:38:26</time>
      </trkpt>
      <trkpt lat="43.27822" lon="-2.32312">
        <ele>150.8</ele>
        <time>2021-05-29 12:38:27</time>
      </trkpt>
      <trkpt lat="43.27819" lon="-2.32317">
        <ele>151.2</ele>
        <time>2021-05-29 12:38:28</time>
      </trkpt>
      <trkpt lat="43.27815" lon="-2.32322">
        <ele>151.4</ele>
        <time>2021-05-29 12:38:29</time>
      </trkpt>
      <trkpt lat="43.27812" lon="-2.32327">
        <ele>151.6</ele>
        <time>2021-05-29 12:38:30</time>
      </trkpt>
      <trkpt lat="43.27808" lon="-2.32332">
        <ele>151.8</ele>
        <time>2021-05-29 12:38:31</time>
      </trkpt>
      <trkpt lat="43.27805" lon="-2.32337">
        <ele>152</ele>
        <time>2021-05-29 12:38:32</time>
      </trkpt>
      <trkpt lat="43.27802" lon="-2.32342">
        <ele>152.2</ele>
        <time>2021-05-29 12:38:33</time>
      </trkpt>
      <trkpt lat="43.27799" lon="-2.32347">
        <ele>152.4</ele>
        <time>2021-05-29 12:38:34</time>
      </trkpt>
      <trkpt lat="43.27796" lon="-2.32351">
        <ele>152.6</ele>
        <time>2021-05-29 12:38:35</time>
      </trkpt>
      <trkpt lat="43.27792" lon="-2.32356">
        <ele>153</ele>
        <time>2021-05-29 12:38:36</time>
      </trkpt>
      <trkpt lat="43.27789" lon="-2.32361">
        <ele>153</ele>
        <time>2021-05-29 12:38:37</time>
      </trkpt>
      <trkpt lat="43.27786" lon="-2.32365">
        <ele>153.4</ele>
        <time>2021-05-29 12:38:38</time>
      </trkpt>
      <trkpt lat="43.27783" lon="-2.3237">
        <ele>153.8</ele>
        <time>2021-05-29 12:38:39</time>
      </trkpt>
      <trkpt lat="43.27779" lon="-2.32374">
        <ele>154.2</ele>
        <time>2021-05-29 12:38:40</time>
      </trkpt>
      <trkpt lat="43.27775" lon="-2.32378">
        <ele>154.4</ele>
        <time>2021-05-29 12:38:41</time>
      </trkpt>
      <trkpt lat="43.27771" lon="-2.32382">
        <ele>154.6</ele>
        <time>2021-05-29 12:38:42</time>
      </trkpt>
      <trkpt lat="43.27768" lon="-2.32386">
        <ele>154.6</ele>
        <time>2021-05-29 12:38:43</time>
      </trkpt>
      <trkpt lat="43.27764" lon="-2.32389">
        <ele>154.8</ele>
        <time>2021-05-29 12:38:44</time>
      </trkpt>
      <trkpt lat="43.2776" lon="-2.32392">
        <ele>155.2</ele>
        <time>2021-05-29 12:38:45</time>
      </trkpt>
      <trkpt lat="43.27756" lon="-2.32395">
        <ele>155.6</ele>
        <time>2021-05-29 12:38:46</time>
      </trkpt>
      <trkpt lat="43.27752" lon="-2.32398">
        <ele>156</ele>
        <time>2021-05-29 12:38:47</time>
      </trkpt>
      <trkpt lat="43.27748" lon="-2.32402">
        <ele>156.2</ele>
        <time>2021-05-29 12:38:48</time>
      </trkpt>
      <trkpt lat="43.27743" lon="-2.32405">
        <ele>156.2</ele>
        <time>2021-05-29 12:38:49</time>
      </trkpt>
      <trkpt lat="43.27739" lon="-2.32409">
        <ele>156.4</ele>
        <time>2021-05-29 12:38:50</time>
      </trkpt>
      <trkpt lat="43.27734" lon="-2.32413">
        <ele>156.8</ele>
        <time>2021-05-29 12:38:51</time>
      </trkpt>
      <trkpt lat="43.2773" lon="-2.32416">
        <ele>157.2</ele>
        <time>2021-05-29 12:38:52</time>
      </trkpt>
      <trkpt lat="43.27725" lon="-2.3242">
        <ele>157.6</ele>
        <time>2021-05-29 12:38:53</time>
      </trkpt>
      <trkpt lat="43.27721" lon="-2.32423">
        <ele>157.8</ele>
        <time>2021-05-29 12:38:54</time>
      </trkpt>
      <trkpt lat="43.27717" lon="-2.32426">
        <ele>157.8</ele>
        <time>2021-05-29 12:38:55</time>
      </trkpt>
      <trkpt lat="43.27713" lon="-2.32429">
        <ele>158.2</ele>
        <time>2021-05-29 12:38:56</time>
      </trkpt>
      <trkpt lat="43.27709" lon="-2.32432">
        <ele>158.4</ele>
        <time>2021-05-29 12:38:57</time>
      </trkpt>
      <trkpt lat="43.27704" lon="-2.32436">
        <ele>158.6</ele>
        <time>2021-05-29 12:38:58</time>
      </trkpt>
      <trkpt lat="43.27699" lon="-2.32438">
        <ele>158.8</ele>
        <time>2021-05-29 12:38:59</time>
      </trkpt>
      <trkpt lat="43.27695" lon="-2.32441">
        <ele>159</ele>
        <time>2021-05-29 12:39:00</time>
      </trkpt>
      <trkpt lat="43.2769" lon="-2.32443">
        <ele>159.4</ele>
        <time>2021-05-29 12:39:01</time>
      </trkpt>
      <trkpt lat="43.27686" lon="-2.32445">
        <ele>159.6</ele>
        <time>2021-05-29 12:39:02</time>
      </trkpt>
      <trkpt lat="43.27681" lon="-2.32447">
        <ele>160.2</ele>
        <time>2021-05-29 12:39:03</time>
      </trkpt>
      <trkpt lat="43.27676" lon="-2.32449">
        <ele>160.2</ele>
        <time>2021-05-29 12:39:04</time>
      </trkpt>
      <trkpt lat="43.27671" lon="-2.32451">
        <ele>160.8</ele>
        <time>2021-05-29 12:39:05</time>
      </trkpt>
      <trkpt lat="43.27666" lon="-2.32452">
        <ele>161.2</ele>
        <time>2021-05-29 12:39:06</time>
      </trkpt>
      <trkpt lat="43.27661" lon="-2.32453">
        <ele>161.4</ele>
        <time>2021-05-29 12:39:07</time>
      </trkpt>
      <trkpt lat="43.27657" lon="-2.32454">
        <ele>161.8</ele>
        <time>2021-05-29 12:39:08</time>
      </trkpt>
      <trkpt lat="43.27653" lon="-2.32455">
        <ele>162</ele>
        <time>2021-05-29 12:39:09</time>
      </trkpt>
      <trkpt lat="43.27648" lon="-2.32456">
        <ele>162.2</ele>
        <time>2021-05-29 12:39:10</time>
      </trkpt>
      <trkpt lat="43.27643" lon="-2.32457">
        <ele>162.4</ele>
        <time>2021-05-29 12:39:11</time>
      </trkpt>
      <trkpt lat="43.27638" lon="-2.32458">
        <ele>162.8</ele>
        <time>2021-05-29 12:39:12</time>
      </trkpt>
      <trkpt lat="43.27633" lon="-2.32458">
        <ele>163.2</ele>
        <time>2021-05-29 12:39:13</time>
      </trkpt>
      <trkpt lat="43.27629" lon="-2.32459">
        <ele>163.6</ele>
        <time>2021-05-29 12:39:14</time>
      </trkpt>
      <trkpt lat="43.27624" lon="-2.3246">
        <ele>163.8</ele>
        <time>2021-05-29 12:39:15</time>
      </trkpt>
      <trkpt lat="43.27619" lon="-2.32461">
        <ele>164</ele>
        <time>2021-05-29 12:39:16</time>
      </trkpt>
      <trkpt lat="43.27614" lon="-2.32462">
        <ele>164.2</ele>
        <time>2021-05-29 12:39:17</time>
      </trkpt>
      <trkpt lat="43.2761" lon="-2.32463">
        <ele>164.2</ele>
        <time>2021-05-29 12:39:18</time>
      </trkpt>
      <trkpt lat="43.27605" lon="-2.32465">
        <ele>164.6</ele>
        <time>2021-05-29 12:39:19</time>
      </trkpt>
      <trkpt lat="43.27601" lon="-2.32466">
        <ele>164.6</ele>
        <time>2021-05-29 12:39:20</time>
      </trkpt>
      <trkpt lat="43.27596" lon="-2.32467">
        <ele>164.8</ele>
        <time>2021-05-29 12:39:21</time>
      </trkpt>
      <trkpt lat="43.27591" lon="-2.32468">
        <ele>165</ele>
        <time>2021-05-29 12:39:22</time>
      </trkpt>
      <trkpt lat="43.27587" lon="-2.3247">
        <ele>165.4</ele>
        <time>2021-05-29 12:39:23</time>
      </trkpt>
      <trkpt lat="43.27582" lon="-2.32471">
        <ele>165.6</ele>
        <time>2021-05-29 12:39:24</time>
      </trkpt>
      <trkpt lat="43.27577" lon="-2.32471">
        <ele>165.8</ele>
        <time>2021-05-29 12:39:25</time>
      </trkpt>
      <trkpt lat="43.27572" lon="-2.32472">
        <ele>166.2</ele>
        <time>2021-05-29 12:39:26</time>
      </trkpt>
      <trkpt lat="43.27567" lon="-2.32473">
        <ele>166.4</ele>
        <time>2021-05-29 12:39:27</time>
      </trkpt>
      <trkpt lat="43.27563" lon="-2.32474">
        <ele>166.6</ele>
        <time>2021-05-29 12:39:28</time>
      </trkpt>
      <trkpt lat="43.27558" lon="-2.32474">
        <ele>167</ele>
        <time>2021-05-29 12:39:29</time>
      </trkpt>
      <trkpt lat="43.27553" lon="-2.32475">
        <ele>167.2</ele>
        <time>2021-05-29 12:39:30</time>
      </trkpt>
      <trkpt lat="43.27548" lon="-2.32475">
        <ele>167.4</ele>
        <time>2021-05-29 12:39:31</time>
      </trkpt>
      <trkpt lat="43.27544" lon="-2.32476">
        <ele>167.6</ele>
        <time>2021-05-29 12:39:32</time>
      </trkpt>
      <trkpt lat="43.27539" lon="-2.32477">
        <ele>167.8</ele>
        <time>2021-05-29 12:39:33</time>
      </trkpt>
      <trkpt lat="43.27534" lon="-2.32478">
        <ele>168</ele>
        <time>2021-05-29 12:39:34</time>
      </trkpt>
      <trkpt lat="43.2753" lon="-2.32479">
        <ele>168.4</ele>
        <time>2021-05-29 12:39:35</time>
      </trkpt>
      <trkpt lat="43.27525" lon="-2.3248">
        <ele>168.6</ele>
        <time>2021-05-29 12:39:36</time>
      </trkpt>
      <trkpt lat="43.27521" lon="-2.32482">
        <ele>168.6</ele>
        <time>2021-05-29 12:39:37</time>
      </trkpt>
      <trkpt lat="43.27517" lon="-2.32483">
        <ele>169</ele>
        <time>2021-05-29 12:39:38</time>
      </trkpt>
      <trkpt lat="43.27512" lon="-2.32485">
        <ele>169.4</ele>
        <time>2021-05-29 12:39:39</time>
      </trkpt>
      <trkpt lat="43.27508" lon="-2.32487">
        <ele>169.6</ele>
        <time>2021-05-29 12:39:40</time>
      </trkpt>
      <trkpt lat="43.27503" lon="-2.32489">
        <ele>169.8</ele>
        <time>2021-05-29 12:39:41</time>
      </trkpt>
      <trkpt lat="43.27499" lon="-2.32492">
        <ele>170</ele>
        <time>2021-05-29 12:39:42</time>
      </trkpt>
      <trkpt lat="43.27496" lon="-2.32494">
        <ele>170.2</ele>
        <time>2021-05-29 12:39:43</time>
      </trkpt>
      <trkpt lat="43.27492" lon="-2.32497">
        <ele>170.4</ele>
        <time>2021-05-29 12:39:44</time>
      </trkpt>
      <trkpt lat="43.27488" lon="-2.325">
        <ele>170.8</ele>
        <time>2021-05-29 12:39:45</time>
      </trkpt>
      <trkpt lat="43.27485" lon="-2.32504">
        <ele>171</ele>
        <time>2021-05-29 12:39:46</time>
      </trkpt>
      <trkpt lat="43.27481" lon="-2.32508">
        <ele>171.4</ele>
        <time>2021-05-29 12:39:47</time>
      </trkpt>
      <trkpt lat="43.27478" lon="-2.32513">
        <ele>171.8</ele>
        <time>2021-05-29 12:39:48</time>
      </trkpt>
      <trkpt lat="43.27476" lon="-2.32517">
        <ele>172</ele>
        <time>2021-05-29 12:39:49</time>
      </trkpt>
      <trkpt lat="43.27473" lon="-2.32522">
        <ele>172.2</ele>
        <time>2021-05-29 12:39:50</time>
      </trkpt>
      <trkpt lat="43.27472" lon="-2.32527">
        <ele>172.6</ele>
        <time>2021-05-29 12:39:51</time>
      </trkpt>
      <trkpt lat="43.2747" lon="-2.32532">
        <ele>172.8</ele>
        <time>2021-05-29 12:39:52</time>
      </trkpt>
      <trkpt lat="43.27469" lon="-2.32538">
        <ele>173.2</ele>
        <time>2021-05-29 12:39:53</time>
      </trkpt>
      <trkpt lat="43.27468" lon="-2.32543">
        <ele>173.6</ele>
        <time>2021-05-29 12:39:54</time>
      </trkpt>
      <trkpt lat="43.27468" lon="-2.32549">
        <ele>174</ele>
        <time>2021-05-29 12:39:55</time>
      </trkpt>
      <trkpt lat="43.27467" lon="-2.32555">
        <ele>174.2</ele>
        <time>2021-05-29 12:39:56</time>
      </trkpt>
      <trkpt lat="43.27468" lon="-2.32561">
        <ele>174.6</ele>
        <time>2021-05-29 12:39:57</time>
      </trkpt>
      <trkpt lat="43.27469" lon="-2.32566">
        <ele>174.8</ele>
        <time>2021-05-29 12:39:58</time>
      </trkpt>
      <trkpt lat="43.2747" lon="-2.32571">
        <ele>175</ele>
        <time>2021-05-29 12:39:59</time>
      </trkpt>
      <trkpt lat="43.27472" lon="-2.32577">
        <ele>175.2</ele>
        <time>2021-05-29 12:40:00</time>
      </trkpt>
      <trkpt lat="43.27474" lon="-2.32583">
        <ele>175.6</ele>
        <time>2021-05-29 12:40:01</time>
      </trkpt>
      <trkpt lat="43.27476" lon="-2.32588">
        <ele>176</ele>
        <time>2021-05-29 12:40:02</time>
      </trkpt>
      <trkpt lat="43.27479" lon="-2.32594">
        <ele>176.4</ele>
        <time>2021-05-29 12:40:03</time>
      </trkpt>
      <trkpt lat="43.27482" lon="-2.32599">
        <ele>176.6</ele>
        <time>2021-05-29 12:40:04</time>
      </trkpt>
      <trkpt lat="43.27486" lon="-2.32604">
        <ele>177.2</ele>
        <time>2021-05-29 12:40:05</time>
      </trkpt>
      <trkpt lat="43.2749" lon="-2.32609">
        <ele>177.4</ele>
        <time>2021-05-29 12:40:06</time>
      </trkpt>
      <trkpt lat="43.27494" lon="-2.32612">
        <ele>177.6</ele>
        <time>2021-05-29 12:40:07</time>
      </trkpt>
      <trkpt lat="43.27499" lon="-2.32616">
        <ele>177.6</ele>
        <time>2021-05-29 12:40:08</time>
      </trkpt>
      <trkpt lat="43.27503" lon="-2.32618">
        <ele>177.8</ele>
        <time>2021-05-29 12:40:09</time>
      </trkpt>
      <trkpt lat="43.27508" lon="-2.32619">
        <ele>177.8</ele>
        <time>2021-05-29 12:40:10</time>
      </trkpt>
      <trkpt lat="43.27514" lon="-2.32619">
        <ele>178</ele>
        <time>2021-05-29 12:40:11</time>
      </trkpt>
      <trkpt lat="43.27519" lon="-2.32619">
        <ele>178.2</ele>
        <time>2021-05-29 12:40:12</time>
      </trkpt>
      <trkpt lat="43.27524" lon="-2.32618">
        <ele>178.2</ele>
        <time>2021-05-29 12:40:13</time>
      </trkpt>
      <trkpt lat="43.27529" lon="-2.32617">
        <ele>178.6</ele>
        <time>2021-05-29 12:40:14</time>
      </trkpt>
      <trkpt lat="43.27534" lon="-2.32615">
        <ele>178.6</ele>
        <time>2021-05-29 12:40:15</time>
      </trkpt>
      <trkpt lat="43.27539" lon="-2.32614">
        <ele>178.8</ele>
        <time>2021-05-29 12:40:16</time>
      </trkpt>
      <trkpt lat="43.27544" lon="-2.32612">
        <ele>179</ele>
        <time>2021-05-29 12:40:17</time>
      </trkpt>
      <trkpt lat="43.27549" lon="-2.32611">
        <ele>179.2</ele>
        <time>2021-05-29 12:40:18</time>
      </trkpt>
      <trkpt lat="43.27554" lon="-2.32609">
        <ele>179.4</ele>
        <time>2021-05-29 12:40:19</time>
      </trkpt>
      <trkpt lat="43.27559" lon="-2.32608">
        <ele>179.4</ele>
        <time>2021-05-29 12:40:20</time>
      </trkpt>
      <trkpt lat="43.27564" lon="-2.32607">
        <ele>179.6</ele>
        <time>2021-05-29 12:40:21</time>
      </trkpt>
      <trkpt lat="43.27569" lon="-2.32606">
        <ele>180</ele>
        <time>2021-05-29 12:40:22</time>
      </trkpt>
      <trkpt lat="43.27574" lon="-2.32606">
        <ele>180.4</ele>
        <time>2021-05-29 12:40:23</time>
      </trkpt>
      <trkpt lat="43.2758" lon="-2.32606">
        <ele>180.6</ele>
        <time>2021-05-29 12:40:24</time>
      </trkpt>
      <trkpt lat="43.27586" lon="-2.32607">
        <ele>180.8</ele>
        <time>2021-05-29 12:40:25</time>
      </trkpt>
      <trkpt lat="43.27591" lon="-2.32609">
        <ele>181</ele>
        <time>2021-05-29 12:40:26</time>
      </trkpt>
      <trkpt lat="43.27597" lon="-2.32611">
        <ele>181.2</ele>
        <time>2021-05-29 12:40:27</time>
      </trkpt>
      <trkpt lat="43.27602" lon="-2.32613">
        <ele>181.6</ele>
        <time>2021-05-29 12:40:28</time>
      </trkpt>
      <trkpt lat="43.27607" lon="-2.32616">
        <ele>181.6</ele>
        <time>2021-05-29 12:40:29</time>
      </trkpt>
      <trkpt lat="43.27612" lon="-2.32619">
        <ele>182</ele>
        <time>2021-05-29 12:40:30</time>
      </trkpt>
      <trkpt lat="43.27617" lon="-2.32623">
        <ele>182.4</ele>
        <time>2021-05-29 12:40:31</time>
      </trkpt>
      <trkpt lat="43.27622" lon="-2.32627">
        <ele>182.6</ele>
        <time>2021-05-29 12:40:32</time>
      </trkpt>
      <trkpt lat="43.27627" lon="-2.3263">
        <ele>182.8</ele>
        <time>2021-05-29 12:40:33</time>
      </trkpt>
      <trkpt lat="43.27632" lon="-2.32634">
        <ele>182.8</ele>
        <time>2021-05-29 12:40:34</time>
      </trkpt>
      <trkpt lat="43.27637" lon="-2.32638">
        <ele>183</ele>
        <time>2021-05-29 12:40:35</time>
      </trkpt>
      <trkpt lat="43.27642" lon="-2.32642">
        <ele>183</ele>
        <time>2021-05-29 12:40:36</time>
      </trkpt>
      <trkpt lat="43.27647" lon="-2.32646">
        <ele>183</ele>
        <time>2021-05-29 12:40:37</time>
      </trkpt>
      <trkpt lat="43.27652" lon="-2.32649">
        <ele>183.2</ele>
        <time>2021-05-29 12:40:38</time>
      </trkpt>
      <trkpt lat="43.27657" lon="-2.32653">
        <ele>183.2</ele>
        <time>2021-05-29 12:40:39</time>
      </trkpt>
      <trkpt lat="43.27662" lon="-2.32657">
        <ele>183.4</ele>
        <time>2021-05-29 12:40:40</time>
      </trkpt>
      <trkpt lat="43.27668" lon="-2.3266">
        <ele>183.6</ele>
        <time>2021-05-29 12:40:41</time>
      </trkpt>
      <trkpt lat="43.27673" lon="-2.32664">
        <ele>183.6</ele>
        <time>2021-05-29 12:40:42</time>
      </trkpt>
      <trkpt lat="43.27678" lon="-2.32667">
        <ele>183.8</ele>
        <time>2021-05-29 12:40:43</time>
      </trkpt>
      <trkpt lat="43.27684" lon="-2.32671">
        <ele>184</ele>
        <time>2021-05-29 12:40:44</time>
      </trkpt>
      <trkpt lat="43.27689" lon="-2.32674">
        <ele>184.2</ele>
        <time>2021-05-29 12:40:45</time>
      </trkpt>
      <trkpt lat="43.27695" lon="-2.32678">
        <ele>184.2</ele>
        <time>2021-05-29 12:40:46</time>
      </trkpt>
      <trkpt lat="43.277" lon="-2.32681">
        <ele>184.4</ele>
        <time>2021-05-29 12:40:47</time>
      </trkpt>
      <trkpt lat="43.27705" lon="-2.32685">
        <ele>184.4</ele>
        <time>2021-05-29 12:40:48</time>
      </trkpt>
      <trkpt lat="43.2771" lon="-2.32688">
        <ele>184.4</ele>
        <time>2021-05-29 12:40:49</time>
      </trkpt>
      <trkpt lat="43.27715" lon="-2.32692">
        <ele>184.6</ele>
        <time>2021-05-29 12:40:50</time>
      </trkpt>
      <trkpt lat="43.2772" lon="-2.32696">
        <ele>184.8</ele>
        <time>2021-05-29 12:40:51</time>
      </trkpt>
      <trkpt lat="43.27726" lon="-2.32699">
        <ele>184.8</ele>
        <time>2021-05-29 12:40:52</time>
      </trkpt>
      <trkpt lat="43.27731" lon="-2.32703">
        <ele>185</ele>
        <time>2021-05-29 12:40:53</time>
      </trkpt>
      <trkpt lat="43.27736" lon="-2.32707">
        <ele>185</ele>
        <time>2021-05-29 12:40:54</time>
      </trkpt>
      <trkpt lat="43.27741" lon="-2.32711">
        <ele>185.4</ele>
        <time>2021-05-29 12:40:55</time>
      </trkpt>
      <trkpt lat="43.27746" lon="-2.32714">
        <ele>185.4</ele>
        <time>2021-05-29 12:40:56</time>
      </trkpt>
      <trkpt lat="43.2775" lon="-2.32718">
        <ele>186</ele>
        <time>2021-05-29 12:40:57</time>
      </trkpt>
      <trkpt lat="43.27755" lon="-2.32721">
        <ele>186.4</ele>
        <time>2021-05-29 12:40:58</time>
      </trkpt>
      <trkpt lat="43.2776" lon="-2.32724">
        <ele>186.4</ele>
        <time>2021-05-29 12:40:59</time>
      </trkpt>
      <trkpt lat="43.27765" lon="-2.32727">
        <ele>186.6</ele>
        <time>2021-05-29 12:41:00</time>
      </trkpt>
      <trkpt lat="43.27769" lon="-2.3273">
        <ele>186.8</ele>
        <time>2021-05-29 12:41:01</time>
      </trkpt>
      <trkpt lat="43.27773" lon="-2.32733">
        <ele>187</ele>
        <time>2021-05-29 12:41:02</time>
      </trkpt>
      <trkpt lat="43.27777" lon="-2.32736">
        <ele>187.4</ele>
        <time>2021-05-29 12:41:03</time>
      </trkpt>
      <trkpt lat="43.27781" lon="-2.32739">
        <ele>187.6</ele>
        <time>2021-05-29 12:41:04</time>
      </trkpt>
      <trkpt lat="43.27785" lon="-2.32743">
        <ele>188.2</ele>
        <time>2021-05-29 12:41:05</time>
      </trkpt>
      <trkpt lat="43.27789" lon="-2.32746">
        <ele>188.6</ele>
        <time>2021-05-29 12:41:06</time>
      </trkpt>
      <trkpt lat="43.27794" lon="-2.3275">
        <ele>188.8</ele>
        <time>2021-05-29 12:41:07</time>
      </trkpt>
      <trkpt lat="43.27798" lon="-2.32754">
        <ele>189</ele>
        <time>2021-05-29 12:41:08</time>
      </trkpt>
      <trkpt lat="43.27802" lon="-2.32759">
        <ele>189.4</ele>
        <time>2021-05-29 12:41:09</time>
      </trkpt>
      <trkpt lat="43.27805" lon="-2.32763">
        <ele>189.6</ele>
        <time>2021-05-29 12:41:10</time>
      </trkpt>
      <trkpt lat="43.27809" lon="-2.32768">
        <ele>189.8</ele>
        <time>2021-05-29 12:41:11</time>
      </trkpt>
      <trkpt lat="43.27813" lon="-2.32773">
        <ele>190</ele>
        <time>2021-05-29 12:41:12</time>
      </trkpt>
      <trkpt lat="43.27816" lon="-2.32778">
        <ele>190.4</ele>
        <time>2021-05-29 12:41:13</time>
      </trkpt>
      <trkpt lat="43.27819" lon="-2.32783">
        <ele>190.6</ele>
        <time>2021-05-29 12:41:14</time>
      </trkpt>
      <trkpt lat="43.27822" lon="-2.32789">
        <ele>190.8</ele>
        <time>2021-05-29 12:41:15</time>
      </trkpt>
      <trkpt lat="43.27825" lon="-2.32795">
        <ele>191.2</ele>
        <time>2021-05-29 12:41:16</time>
      </trkpt>
      <trkpt lat="43.27827" lon="-2.32801">
        <ele>191.2</ele>
        <time>2021-05-29 12:41:17</time>
      </trkpt>
      <trkpt lat="43.2783" lon="-2.32806">
        <ele>191.6</ele>
        <time>2021-05-29 12:41:18</time>
      </trkpt>
      <trkpt lat="43.27832" lon="-2.32813">
        <ele>191.8</ele>
        <time>2021-05-29 12:41:19</time>
      </trkpt>
      <trkpt lat="43.27834" lon="-2.32819">
        <ele>192</ele>
        <time>2021-05-29 12:41:20</time>
      </trkpt>
      <trkpt lat="43.27836" lon="-2.32825">
        <ele>192.2</ele>
        <time>2021-05-29 12:41:21</time>
      </trkpt>
      <trkpt lat="43.27838" lon="-2.32831">
        <ele>192.4</ele>
        <time>2021-05-29 12:41:22</time>
      </trkpt>
      <trkpt lat="43.27839" lon="-2.32836">
        <ele>192.6</ele>
        <time>2021-05-29 12:41:23</time>
      </trkpt>
      <trkpt lat="43.27841" lon="-2.32842">
        <ele>192.6</ele>
        <time>2021-05-29 12:41:24</time>
      </trkpt>
      <trkpt lat="43.27842" lon="-2.32848">
        <ele>192.8</ele>
        <time>2021-05-29 12:41:25</time>
      </trkpt>
      <trkpt lat="43.27844" lon="-2.32853">
        <ele>193</ele>
        <time>2021-05-29 12:41:26</time>
      </trkpt>
      <trkpt lat="43.27846" lon="-2.32858">
        <ele>193.2</ele>
        <time>2021-05-29 12:41:27</time>
      </trkpt>
      <trkpt lat="43.27847" lon="-2.32864">
        <ele>193.4</ele>
        <time>2021-05-29 12:41:28</time>
      </trkpt>
      <trkpt lat="43.27849" lon="-2.3287">
        <ele>193.6</ele>
        <time>2021-05-29 12:41:29</time>
      </trkpt>
      <trkpt lat="43.2785" lon="-2.32875">
        <ele>193.8</ele>
        <time>2021-05-29 12:41:30</time>
      </trkpt>
      <trkpt lat="43.27852" lon="-2.32881">
        <ele>194</ele>
        <time>2021-05-29 12:41:31</time>
      </trkpt>
      <trkpt lat="43.27853" lon="-2.32887">
        <ele>194.2</ele>
        <time>2021-05-29 12:41:32</time>
      </trkpt>
      <trkpt lat="43.27854" lon="-2.32892">
        <ele>194.2</ele>
        <time>2021-05-29 12:41:33</time>
      </trkpt>
      <trkpt lat="43.27856" lon="-2.32897">
        <ele>194.4</ele>
        <time>2021-05-29 12:41:34</time>
      </trkpt>
      <trkpt lat="43.27857" lon="-2.32901">
        <ele>194.8</ele>
        <time>2021-05-29 12:41:35</time>
      </trkpt>
      <trkpt lat="43.27859" lon="-2.32904">
        <ele>195</ele>
        <time>2021-05-29 12:41:36</time>
      </trkpt>
      <trkpt lat="43.2786" lon="-2.32907">
        <ele>195.2</ele>
        <time>2021-05-29 12:41:37</time>
      </trkpt>
      <trkpt lat="43.27862" lon="-2.32909">
        <ele>195.4</ele>
        <time>2021-05-29 12:41:38</time>
      </trkpt>
      <trkpt lat="43.27863" lon="-2.3291">
        <ele>195.6</ele>
        <time>2021-05-29 12:41:39</time>
      </trkpt>
      <trkpt lat="43.27865" lon="-2.32911">
        <ele>195.8</ele>
        <time>2021-05-29 12:41:40</time>
      </trkpt>
      <trkpt lat="43.27866" lon="-2.32913">
        <ele>196.2</ele>
        <time>2021-05-29 12:41:41</time>
      </trkpt>
      <trkpt lat="43.27868" lon="-2.32914">
        <ele>196.4</ele>
        <time>2021-05-29 12:41:42</time>
      </trkpt>
      <trkpt lat="43.27869" lon="-2.32914">
        <ele>196.8</ele>
        <time>2021-05-29 12:41:43</time>
      </trkpt>
      <trkpt lat="43.27872" lon="-2.32915">
        <ele>197</ele>
        <time>2021-05-29 12:41:44</time>
      </trkpt>
      <trkpt lat="43.27874" lon="-2.32914">
        <ele>197</ele>
        <time>2021-05-29 12:41:45</time>
      </trkpt>
      <trkpt lat="43.27876" lon="-2.32915">
        <ele>197.2</ele>
        <time>2021-05-29 12:41:46</time>
      </trkpt>
      <trkpt lat="43.27878" lon="-2.32916">
        <ele>197.2</ele>
        <time>2021-05-29 12:41:47</time>
      </trkpt>
      <trkpt lat="43.27879" lon="-2.32918">
        <ele>197.2</ele>
        <time>2021-05-29 12:41:48</time>
      </trkpt>
      <trkpt lat="43.27879" lon="-2.32921">
        <ele>197.2</ele>
        <time>2021-05-29 12:41:49</time>
      </trkpt>
      <trkpt lat="43.2788" lon="-2.32923">
        <ele>197.2</ele>
        <time>2021-05-29 12:41:50</time>
      </trkpt>
      <trkpt lat="43.27881" lon="-2.32925">
        <ele>197.2</ele>
        <time>2021-05-29 12:41:51</time>
      </trkpt>
      <trkpt lat="43.27881" lon="-2.32927">
        <ele>197.2</ele>
        <time>2021-05-29 12:41:52</time>
      </trkpt>
      <trkpt lat="43.27882" lon="-2.3293">
        <ele>197.2</ele>
        <time>2021-05-29 12:41:53</time>
      </trkpt>
      <trkpt lat="43.27882" lon="-2.32932">
        <ele>197.4</ele>
        <time>2021-05-29 12:41:54</time>
      </trkpt>
      <trkpt lat="43.27881" lon="-2.32934">
        <ele>197.4</ele>
        <time>2021-05-29 12:41:55</time>
      </trkpt>
      <trkpt lat="43.2788" lon="-2.32937">
        <ele>197.4</ele>
        <time>2021-05-29 12:41:56</time>
      </trkpt>
      <trkpt lat="43.27879" lon="-2.32939">
        <ele>197.4</ele>
        <time>2021-05-29 12:41:57</time>
      </trkpt>
      <trkpt lat="43.27879" lon="-2.32942">
        <ele>197.4</ele>
        <time>2021-05-29 12:41:58</time>
      </trkpt>
      <trkpt lat="43.27879" lon="-2.32944">
        <ele>197.4</ele>
        <time>2021-05-29 12:41:59</time>
      </trkpt>
      <trkpt lat="43.27879" lon="-2.32945">
        <ele>197.4</ele>
        <time>2021-05-29 12:42:00</time>
      </trkpt>
      <trkpt lat="43.27878" lon="-2.32947">
        <ele>197.4</ele>
        <time>2021-05-29 12:42:01</time>
      </trkpt>
      <trkpt lat="43.27878" lon="-2.32947">
        <ele>197.4</ele>
        <time>2021-05-29 12:42:02</time>
      </trkpt>
      <trkpt lat="43.27877" lon="-2.32953">
        <ele>197.6</ele>
        <time>2021-05-29 12:42:53</time>
      </trkpt>
      <trkpt lat="43.27876" lon="-2.32955">
        <ele>197.6</ele>
        <time>2021-05-29 12:42:54</time>
      </trkpt>
      <trkpt lat="43.27876" lon="-2.32959">
        <ele>197.6</ele>
        <time>2021-05-29 12:42:55</time>
      </trkpt>
      <trkpt lat="43.27875" lon="-2.32962">
        <ele>197.6</ele>
        <time>2021-05-29 12:42:56</time>
      </trkpt>
      <trkpt lat="43.27875" lon="-2.32966">
        <ele>197.6</ele>
        <time>2021-05-29 12:42:57</time>
      </trkpt>
      <trkpt lat="43.27876" lon="-2.3297">
        <ele>197.6</ele>
        <time>2021-05-29 12:42:58</time>
      </trkpt>
      <trkpt lat="43.27876" lon="-2.32975">
        <ele>197.6</ele>
        <time>2021-05-29 12:42:59</time>
      </trkpt>
      <trkpt lat="43.27877" lon="-2.3298">
        <ele>197.6</ele>
        <time>2021-05-29 12:43:00</time>
      </trkpt>
      <trkpt lat="43.27877" lon="-2.32985">
        <ele>197.6</ele>
        <time>2021-05-29 12:43:01</time>
      </trkpt>
      <trkpt lat="43.27877" lon="-2.32992">
        <ele>197.6</ele>
        <time>2021-05-29 12:43:02</time>
      </trkpt>
      <trkpt lat="43.27877" lon="-2.32998">
        <ele>197.6</ele>
        <time>2021-05-29 12:43:03</time>
      </trkpt>
      <trkpt lat="43.27877" lon="-2.33005">
        <ele>197.6</ele>
        <time>2021-05-29 12:43:04</time>
      </trkpt>
      <trkpt lat="43.27876" lon="-2.33013">
        <ele>197.6</ele>
        <time>2021-05-29 12:43:05</time>
      </trkpt>
      <trkpt lat="43.27875" lon="-2.33021">
        <ele>197.4</ele>
        <time>2021-05-29 12:43:06</time>
      </trkpt>
      <trkpt lat="43.27873" lon="-2.33029">
        <ele>197.4</ele>
        <time>2021-05-29 12:43:07</time>
      </trkpt>
      <trkpt lat="43.27871" lon="-2.33037">
        <ele>197.4</ele>
        <time>2021-05-29 12:43:08</time>
      </trkpt>
      <trkpt lat="43.27869" lon="-2.33046">
        <ele>197.2</ele>
        <time>2021-05-29 12:43:09</time>
      </trkpt>
      <trkpt lat="43.27867" lon="-2.33054">
        <ele>197.2</ele>
        <time>2021-05-29 12:43:10</time>
      </trkpt>
      <trkpt lat="43.27865" lon="-2.33063">
        <ele>197.2</ele>
        <time>2021-05-29 12:43:11</time>
      </trkpt>
      <trkpt lat="43.27862" lon="-2.33071">
        <ele>197</ele>
        <time>2021-05-29 12:43:12</time>
      </trkpt>
      <trkpt lat="43.2786" lon="-2.33079">
        <ele>197</ele>
        <time>2021-05-29 12:43:13</time>
      </trkpt>
      <trkpt lat="43.27858" lon="-2.33088">
        <ele>196.6</ele>
        <time>2021-05-29 12:43:14</time>
      </trkpt>
      <trkpt lat="43.27855" lon="-2.33096">
        <ele>196.4</ele>
        <time>2021-05-29 12:43:15</time>
      </trkpt>
      <trkpt lat="43.27853" lon="-2.33105">
        <ele>196.2</ele>
        <time>2021-05-29 12:43:16</time>
      </trkpt>
      <trkpt lat="43.2785" lon="-2.33113">
        <ele>195.8</ele>
        <time>2021-05-29 12:43:17</time>
      </trkpt>
      <trkpt lat="43.27847" lon="-2.33121">
        <ele>195.4</ele>
        <time>2021-05-29 12:43:18</time>
      </trkpt>
      <trkpt lat="43.27844" lon="-2.33129">
        <ele>194.8</ele>
        <time>2021-05-29 12:43:19</time>
      </trkpt>
      <trkpt lat="43.27841" lon="-2.33137">
        <ele>194.4</ele>
        <time>2021-05-29 12:43:20</time>
      </trkpt>
      <trkpt lat="43.27837" lon="-2.33145">
        <ele>194.2</ele>
        <time>2021-05-29 12:43:21</time>
      </trkpt>
      <trkpt lat="43.27835" lon="-2.33154">
        <ele>194.2</ele>
        <time>2021-05-29 12:43:22</time>
      </trkpt>
      <trkpt lat="43.27835" lon="-2.33164">
        <ele>194</ele>
        <time>2021-05-29 12:43:23</time>
      </trkpt>
      <trkpt lat="43.27837" lon="-2.33173">
        <ele>193.8</ele>
        <time>2021-05-29 12:43:24</time>
      </trkpt>
      <trkpt lat="43.27842" lon="-2.33182">
        <ele>193.8</ele>
        <time>2021-05-29 12:43:25</time>
      </trkpt>
      <trkpt lat="43.27846" lon="-2.33191">
        <ele>194</ele>
        <time>2021-05-29 12:43:26</time>
      </trkpt>
      <trkpt lat="43.2785" lon="-2.33201">
        <ele>193.8</ele>
        <time>2021-05-29 12:43:27</time>
      </trkpt>
      <trkpt lat="43.27851" lon="-2.33211">
        <ele>193.6</ele>
        <time>2021-05-29 12:43:28</time>
      </trkpt>
      <trkpt lat="43.27853" lon="-2.33221">
        <ele>193.6</ele>
        <time>2021-05-29 12:43:29</time>
      </trkpt>
      <trkpt lat="43.27855" lon="-2.33231">
        <ele>193.4</ele>
        <time>2021-05-29 12:43:30</time>
      </trkpt>
      <trkpt lat="43.27858" lon="-2.33241">
        <ele>193.4</ele>
        <time>2021-05-29 12:43:31</time>
      </trkpt>
      <trkpt lat="43.27864" lon="-2.3325">
        <ele>193.2</ele>
        <time>2021-05-29 12:43:32</time>
      </trkpt>
      <trkpt lat="43.2787" lon="-2.33257">
        <ele>193</ele>
        <time>2021-05-29 12:43:33</time>
      </trkpt>
      <trkpt lat="43.27878" lon="-2.33264">
        <ele>193</ele>
        <time>2021-05-29 12:43:34</time>
      </trkpt>
      <trkpt lat="43.27886" lon="-2.3327">
        <ele>193</ele>
        <time>2021-05-29 12:43:35</time>
      </trkpt>
      <trkpt lat="43.27894" lon="-2.33278">
        <ele>192.8</ele>
        <time>2021-05-29 12:43:36</time>
      </trkpt>
      <trkpt lat="43.27901" lon="-2.33285">
        <ele>192.8</ele>
        <time>2021-05-29 12:43:37</time>
      </trkpt>
      <trkpt lat="43.2791" lon="-2.33292">
        <ele>192.8</ele>
        <time>2021-05-29 12:43:38</time>
      </trkpt>
      <trkpt lat="43.27918" lon="-2.333">
        <ele>192.8</ele>
        <time>2021-05-29 12:43:39</time>
      </trkpt>
      <trkpt lat="43.27926" lon="-2.33308">
        <ele>192.4</ele>
        <time>2021-05-29 12:43:40</time>
      </trkpt>
      <trkpt lat="43.27934" lon="-2.33315">
        <ele>192.4</ele>
        <time>2021-05-29 12:43:41</time>
      </trkpt>
      <trkpt lat="43.27943" lon="-2.33323">
        <ele>192</ele>
        <time>2021-05-29 12:43:42</time>
      </trkpt>
      <trkpt lat="43.27951" lon="-2.33331">
        <ele>191.6</ele>
        <time>2021-05-29 12:43:43</time>
      </trkpt>
      <trkpt lat="43.27959" lon="-2.33339">
        <ele>191.2</ele>
        <time>2021-05-29 12:43:44</time>
      </trkpt>
      <trkpt lat="43.27967" lon="-2.33349">
        <ele>190.8</ele>
        <time>2021-05-29 12:43:45</time>
      </trkpt>
      <trkpt lat="43.27974" lon="-2.3336">
        <ele>190.8</ele>
        <time>2021-05-29 12:43:46</time>
      </trkpt>
      <trkpt lat="43.2798" lon="-2.33372">
        <ele>190.6</ele>
        <time>2021-05-29 12:43:47</time>
      </trkpt>
      <trkpt lat="43.27985" lon="-2.33384">
        <ele>190.4</ele>
        <time>2021-05-29 12:43:48</time>
      </trkpt>
      <trkpt lat="43.27989" lon="-2.33397">
        <ele>189.4</ele>
        <time>2021-05-29 12:43:49</time>
      </trkpt>
      <trkpt lat="43.27992" lon="-2.33411">
        <ele>189.2</ele>
        <time>2021-05-29 12:43:50</time>
      </trkpt>
      <trkpt lat="43.27995" lon="-2.33425">
        <ele>189.2</ele>
        <time>2021-05-29 12:43:51</time>
      </trkpt>
      <trkpt lat="43.27998" lon="-2.3344">
        <ele>188.6</ele>
        <time>2021-05-29 12:43:52</time>
      </trkpt>
      <trkpt lat="43.28" lon="-2.33455">
        <ele>188.2</ele>
        <time>2021-05-29 12:43:53</time>
      </trkpt>
      <trkpt lat="43.28003" lon="-2.33469">
        <ele>188</ele>
        <time>2021-05-29 12:43:54</time>
      </trkpt>
      <trkpt lat="43.28006" lon="-2.33484">
        <ele>188</ele>
        <time>2021-05-29 12:43:55</time>
      </trkpt>
      <trkpt lat="43.28009" lon="-2.33499">
        <ele>187.4</ele>
        <time>2021-05-29 12:43:56</time>
      </trkpt>
      <trkpt lat="43.28012" lon="-2.33514">
        <ele>187.2</ele>
        <time>2021-05-29 12:43:57</time>
      </trkpt>
      <trkpt lat="43.28015" lon="-2.33529">
        <ele>186.8</ele>
        <time>2021-05-29 12:43:58</time>
      </trkpt>
      <trkpt lat="43.28019" lon="-2.33543">
        <ele>186.6</ele>
        <time>2021-05-29 12:43:59</time>
      </trkpt>
      <trkpt lat="43.28024" lon="-2.33557">
        <ele>186.6</ele>
        <time>2021-05-29 12:44:00</time>
      </trkpt>
      <trkpt lat="43.28031" lon="-2.3357">
        <ele>186</ele>
        <time>2021-05-29 12:44:01</time>
      </trkpt>
      <trkpt lat="43.28039" lon="-2.33582">
        <ele>185.4</ele>
        <time>2021-05-29 12:44:02</time>
      </trkpt>
      <trkpt lat="43.28049" lon="-2.3359">
        <ele>185.2</ele>
        <time>2021-05-29 12:44:03</time>
      </trkpt>
      <trkpt lat="43.28061" lon="-2.33594">
        <ele>184.8</ele>
        <time>2021-05-29 12:44:04</time>
      </trkpt>
      <trkpt lat="43.28072" lon="-2.33597">
        <ele>184.6</ele>
        <time>2021-05-29 12:44:05</time>
      </trkpt>
      <trkpt lat="43.28083" lon="-2.33599">
        <ele>184</ele>
        <time>2021-05-29 12:44:06</time>
      </trkpt>
      <trkpt lat="43.28095" lon="-2.33601">
        <ele>183.8</ele>
        <time>2021-05-29 12:44:07</time>
      </trkpt>
      <trkpt lat="43.28106" lon="-2.33604">
        <ele>183.4</ele>
        <time>2021-05-29 12:44:08</time>
      </trkpt>
      <trkpt lat="43.28117" lon="-2.33609">
        <ele>183.2</ele>
        <time>2021-05-29 12:44:09</time>
      </trkpt>
      <trkpt lat="43.28127" lon="-2.33615">
        <ele>182.8</ele>
        <time>2021-05-29 12:44:10</time>
      </trkpt>
      <trkpt lat="43.28137" lon="-2.33624">
        <ele>182.6</ele>
        <time>2021-05-29 12:44:11</time>
      </trkpt>
      <trkpt lat="43.28146" lon="-2.33633">
        <ele>182</ele>
        <time>2021-05-29 12:44:12</time>
      </trkpt>
      <trkpt lat="43.28155" lon="-2.33644">
        <ele>182</ele>
        <time>2021-05-29 12:44:13</time>
      </trkpt>
      <trkpt lat="43.28163" lon="-2.33655">
        <ele>181.6</ele>
        <time>2021-05-29 12:44:14</time>
      </trkpt>
      <trkpt lat="43.2817" lon="-2.33668">
        <ele>181.4</ele>
        <time>2021-05-29 12:44:15</time>
      </trkpt>
      <trkpt lat="43.28176" lon="-2.33681">
        <ele>181.2</ele>
        <time>2021-05-29 12:44:16</time>
      </trkpt>
      <trkpt lat="43.28182" lon="-2.33695">
        <ele>181</ele>
        <time>2021-05-29 12:44:17</time>
      </trkpt>
      <trkpt lat="43.28187" lon="-2.33709">
        <ele>180.4</ele>
        <time>2021-05-29 12:44:18</time>
      </trkpt>
      <trkpt lat="43.28193" lon="-2.33724">
        <ele>179.8</ele>
        <time>2021-05-29 12:44:19</time>
      </trkpt>
      <trkpt lat="43.28201" lon="-2.33734">
        <ele>179.4</ele>
        <time>2021-05-29 12:44:20</time>
      </trkpt>
      <trkpt lat="43.28213" lon="-2.33739">
        <ele>179</ele>
        <time>2021-05-29 12:44:21</time>
      </trkpt>
      <trkpt lat="43.28223" lon="-2.33743">
        <ele>178.6</ele>
        <time>2021-05-29 12:44:22</time>
      </trkpt>
      <trkpt lat="43.28234" lon="-2.33743">
        <ele>177.6</ele>
        <time>2021-05-29 12:44:23</time>
      </trkpt>
      <trkpt lat="43.28245" lon="-2.3374">
        <ele>177.2</ele>
        <time>2021-05-29 12:44:24</time>
      </trkpt>
      <trkpt lat="43.28256" lon="-2.33736">
        <ele>177.2</ele>
        <time>2021-05-29 12:44:25</time>
      </trkpt>
      <trkpt lat="43.28267" lon="-2.33734">
        <ele>177</ele>
        <time>2021-05-29 12:44:26</time>
      </trkpt>
      <trkpt lat="43.28279" lon="-2.33732">
        <ele>176.6</ele>
        <time>2021-05-29 12:44:27</time>
      </trkpt>
      <trkpt lat="43.2829" lon="-2.33734">
        <ele>176</ele>
        <time>2021-05-29 12:44:28</time>
      </trkpt>
      <trkpt lat="43.28301" lon="-2.33738">
        <ele>175.4</ele>
        <time>2021-05-29 12:44:29</time>
      </trkpt>
      <trkpt lat="43.28312" lon="-2.33744">
        <ele>175.2</ele>
        <time>2021-05-29 12:44:30</time>
      </trkpt>
      <trkpt lat="43.28322" lon="-2.33752">
        <ele>175</ele>
        <time>2021-05-29 12:44:31</time>
      </trkpt>
      <trkpt lat="43.28331" lon="-2.33761">
        <ele>174.6</ele>
        <time>2021-05-29 12:44:32</time>
      </trkpt>
      <trkpt lat="43.28341" lon="-2.33772">
        <ele>174.2</ele>
        <time>2021-05-29 12:44:33</time>
      </trkpt>
      <trkpt lat="43.28351" lon="-2.33781">
        <ele>173.8</ele>
        <time>2021-05-29 12:44:34</time>
      </trkpt>
      <trkpt lat="43.28362" lon="-2.33787">
        <ele>173.4</ele>
        <time>2021-05-29 12:44:35</time>
      </trkpt>
      <trkpt lat="43.28374" lon="-2.33791">
        <ele>173.4</ele>
        <time>2021-05-29 12:44:36</time>
      </trkpt>
      <trkpt lat="43.28387" lon="-2.33794">
        <ele>173</ele>
        <time>2021-05-29 12:44:37</time>
      </trkpt>
      <trkpt lat="43.28399" lon="-2.33798">
        <ele>172.6</ele>
        <time>2021-05-29 12:44:38</time>
      </trkpt>
      <trkpt lat="43.28412" lon="-2.33802">
        <ele>172.2</ele>
        <time>2021-05-29 12:44:39</time>
      </trkpt>
      <trkpt lat="43.28424" lon="-2.33808">
        <ele>171.6</ele>
        <time>2021-05-29 12:44:40</time>
      </trkpt>
      <trkpt lat="43.28436" lon="-2.33815">
        <ele>171</ele>
        <time>2021-05-29 12:44:41</time>
      </trkpt>
      <trkpt lat="43.28448" lon="-2.33822">
        <ele>170.4</ele>
        <time>2021-05-29 12:44:42</time>
      </trkpt>
      <trkpt lat="43.2846" lon="-2.3383">
        <ele>169.8</ele>
        <time>2021-05-29 12:44:43</time>
      </trkpt>
      <trkpt lat="43.28473" lon="-2.33837">
        <ele>169.4</ele>
        <time>2021-05-29 12:44:44</time>
      </trkpt>
      <trkpt lat="43.28485" lon="-2.33845">
        <ele>168.8</ele>
        <time>2021-05-29 12:44:45</time>
      </trkpt>
      <trkpt lat="43.28498" lon="-2.33852">
        <ele>168</ele>
        <time>2021-05-29 12:44:46</time>
      </trkpt>
      <trkpt lat="43.2851" lon="-2.33858">
        <ele>167.2</ele>
        <time>2021-05-29 12:44:47</time>
      </trkpt>
      <trkpt lat="43.28523" lon="-2.33864">
        <ele>166.2</ele>
        <time>2021-05-29 12:44:48</time>
      </trkpt>
      <trkpt lat="43.28537" lon="-2.33868">
        <ele>165.4</ele>
        <time>2021-05-29 12:44:49</time>
      </trkpt>
      <trkpt lat="43.2855" lon="-2.33872">
        <ele>165</ele>
        <time>2021-05-29 12:44:50</time>
      </trkpt>
      <trkpt lat="43.28563" lon="-2.33875">
        <ele>164.4</ele>
        <time>2021-05-29 12:44:51</time>
      </trkpt>
      <trkpt lat="43.28577" lon="-2.33877">
        <ele>163.8</ele>
        <time>2021-05-29 12:44:52</time>
      </trkpt>
      <trkpt lat="43.2859" lon="-2.33881">
        <ele>163.4</ele>
        <time>2021-05-29 12:44:53</time>
      </trkpt>
      <trkpt lat="43.28603" lon="-2.33884">
        <ele>163.2</ele>
        <time>2021-05-29 12:44:54</time>
      </trkpt>
      <trkpt lat="43.28616" lon="-2.33887">
        <ele>162.4</ele>
        <time>2021-05-29 12:44:55</time>
      </trkpt>
      <trkpt lat="43.28629" lon="-2.33889">
        <ele>161.6</ele>
        <time>2021-05-29 12:44:56</time>
      </trkpt>
      <trkpt lat="43.28642" lon="-2.33892">
        <ele>160.4</ele>
        <time>2021-05-29 12:44:57</time>
      </trkpt>
      <trkpt lat="43.28654" lon="-2.33896">
        <ele>159.8</ele>
        <time>2021-05-29 12:44:58</time>
      </trkpt>
      <trkpt lat="43.28667" lon="-2.33901">
        <ele>159</ele>
        <time>2021-05-29 12:44:59</time>
      </trkpt>
      <trkpt lat="43.28679" lon="-2.33906">
        <ele>158.2</ele>
        <time>2021-05-29 12:45:00</time>
      </trkpt>
      <trkpt lat="43.2869" lon="-2.33912">
        <ele>157.6</ele>
        <time>2021-05-29 12:45:01</time>
      </trkpt>
      <trkpt lat="43.28702" lon="-2.33918">
        <ele>157</ele>
        <time>2021-05-29 12:45:02</time>
      </trkpt>
      <trkpt lat="43.28713" lon="-2.33925">
        <ele>156.6</ele>
        <time>2021-05-29 12:45:03</time>
      </trkpt>
      <trkpt lat="43.28725" lon="-2.33931">
        <ele>156.4</ele>
        <time>2021-05-29 12:45:04</time>
      </trkpt>
      <trkpt lat="43.28736" lon="-2.33937">
        <ele>156.2</ele>
        <time>2021-05-29 12:45:05</time>
      </trkpt>
      <trkpt lat="43.28748" lon="-2.33943">
        <ele>156</ele>
        <time>2021-05-29 12:45:06</time>
      </trkpt>
      <trkpt lat="43.2876" lon="-2.33945">
        <ele>156</ele>
        <time>2021-05-29 12:45:07</time>
      </trkpt>
      <trkpt lat="43.28773" lon="-2.33946">
        <ele>156</ele>
        <time>2021-05-29 12:45:08</time>
      </trkpt>
      <trkpt lat="43.28785" lon="-2.33944">
        <ele>155.6</ele>
        <time>2021-05-29 12:45:09</time>
      </trkpt>
      <trkpt lat="43.28798" lon="-2.3394">
        <ele>155.4</ele>
        <time>2021-05-29 12:45:10</time>
      </trkpt>
      <trkpt lat="43.28811" lon="-2.33936">
        <ele>154.8</ele>
        <time>2021-05-29 12:45:11</time>
      </trkpt>
      <trkpt lat="43.28823" lon="-2.33931">
        <ele>154.4</ele>
        <time>2021-05-29 12:45:12</time>
      </trkpt>
      <trkpt lat="43.28836" lon="-2.33928">
        <ele>154</ele>
        <time>2021-05-29 12:45:13</time>
      </trkpt>
      <trkpt lat="43.28849" lon="-2.33926">
        <ele>153.4</ele>
        <time>2021-05-29 12:45:14</time>
      </trkpt>
      <trkpt lat="43.28862" lon="-2.33925">
        <ele>152.8</ele>
        <time>2021-05-29 12:45:15</time>
      </trkpt>
      <trkpt lat="43.28875" lon="-2.33925">
        <ele>152.2</ele>
        <time>2021-05-29 12:45:16</time>
      </trkpt>
      <trkpt lat="43.28888" lon="-2.33925">
        <ele>151.8</ele>
        <time>2021-05-29 12:45:17</time>
      </trkpt>
      <trkpt lat="43.28902" lon="-2.33924">
        <ele>151.4</ele>
        <time>2021-05-29 12:45:18</time>
      </trkpt>
      <trkpt lat="43.28914" lon="-2.3392">
        <ele>151</ele>
        <time>2021-05-29 12:45:19</time>
      </trkpt>
      <trkpt lat="43.28924" lon="-2.33912">
        <ele>150.8</ele>
        <time>2021-05-29 12:45:20</time>
      </trkpt>
      <trkpt lat="43.28934" lon="-2.339">
        <ele>150.6</ele>
        <time>2021-05-29 12:45:21</time>
      </trkpt>
      <trkpt lat="43.28942" lon="-2.33887">
        <ele>149.8</ele>
        <time>2021-05-29 12:45:22</time>
      </trkpt>
      <trkpt lat="43.28951" lon="-2.33875">
        <ele>149.2</ele>
        <time>2021-05-29 12:45:23</time>
      </trkpt>
      <trkpt lat="43.28961" lon="-2.33866">
        <ele>148.4</ele>
        <time>2021-05-29 12:45:24</time>
      </trkpt>
      <trkpt lat="43.28972" lon="-2.3386">
        <ele>147.8</ele>
        <time>2021-05-29 12:45:25</time>
      </trkpt>
      <trkpt lat="43.28984" lon="-2.33858">
        <ele>147</ele>
        <time>2021-05-29 12:45:26</time>
      </trkpt>
      <trkpt lat="43.28996" lon="-2.33858">
        <ele>146.4</ele>
        <time>2021-05-29 12:45:27</time>
      </trkpt>
      <trkpt lat="43.29008" lon="-2.33858">
        <ele>146</ele>
        <time>2021-05-29 12:45:28</time>
      </trkpt>
      <trkpt lat="43.29021" lon="-2.33854">
        <ele>145.6</ele>
        <time>2021-05-29 12:45:29</time>
      </trkpt>
      <trkpt lat="43.29032" lon="-2.33846">
        <ele>145.2</ele>
        <time>2021-05-29 12:45:30</time>
      </trkpt>
      <trkpt lat="43.29041" lon="-2.33834">
        <ele>144.4</ele>
        <time>2021-05-29 12:45:31</time>
      </trkpt>
      <trkpt lat="43.29048" lon="-2.3382">
        <ele>143.8</ele>
        <time>2021-05-29 12:45:32</time>
      </trkpt>
      <trkpt lat="43.29052" lon="-2.33804">
        <ele>143.6</ele>
        <time>2021-05-29 12:45:33</time>
      </trkpt>
      <trkpt lat="43.29057" lon="-2.33788">
        <ele>143</ele>
        <time>2021-05-29 12:45:34</time>
      </trkpt>
      <trkpt lat="43.29061" lon="-2.33771">
        <ele>142.4</ele>
        <time>2021-05-29 12:45:35</time>
      </trkpt>
      <trkpt lat="43.29066" lon="-2.33755">
        <ele>141.8</ele>
        <time>2021-05-29 12:45:36</time>
      </trkpt>
      <trkpt lat="43.2907" lon="-2.33739">
        <ele>141</ele>
        <time>2021-05-29 12:45:37</time>
      </trkpt>
      <trkpt lat="43.29075" lon="-2.33722">
        <ele>140.2</ele>
        <time>2021-05-29 12:45:38</time>
      </trkpt>
      <trkpt lat="43.2908" lon="-2.33706">
        <ele>139.6</ele>
        <time>2021-05-29 12:45:39</time>
      </trkpt>
      <trkpt lat="43.29086" lon="-2.3369">
        <ele>139</ele>
        <time>2021-05-29 12:45:40</time>
      </trkpt>
      <trkpt lat="43.29093" lon="-2.33677">
        <ele>138.6</ele>
        <time>2021-05-29 12:45:41</time>
      </trkpt>
      <trkpt lat="43.29102" lon="-2.33666">
        <ele>138.4</ele>
        <time>2021-05-29 12:45:42</time>
      </trkpt>
      <trkpt lat="43.29112" lon="-2.33658">
        <ele>138</ele>
        <time>2021-05-29 12:45:43</time>
      </trkpt>
      <trkpt lat="43.29125" lon="-2.33653">
        <ele>137.6</ele>
        <time>2021-05-29 12:45:44</time>
      </trkpt>
      <trkpt lat="43.29137" lon="-2.3365">
        <ele>137.4</ele>
        <time>2021-05-29 12:45:45</time>
      </trkpt>
      <trkpt lat="43.2915" lon="-2.33648">
        <ele>136.8</ele>
        <time>2021-05-29 12:45:46</time>
      </trkpt>
      <trkpt lat="43.29163" lon="-2.33648">
        <ele>136.4</ele>
        <time>2021-05-29 12:45:47</time>
      </trkpt>
      <trkpt lat="43.29176" lon="-2.33648">
        <ele>135.8</ele>
        <time>2021-05-29 12:45:48</time>
      </trkpt>
      <trkpt lat="43.29189" lon="-2.33649">
        <ele>135.6</ele>
        <time>2021-05-29 12:45:49</time>
      </trkpt>
      <trkpt lat="43.29202" lon="-2.3365">
        <ele>135</ele>
        <time>2021-05-29 12:45:50</time>
      </trkpt>
      <trkpt lat="43.29215" lon="-2.33652">
        <ele>134.6</ele>
        <time>2021-05-29 12:45:51</time>
      </trkpt>
      <trkpt lat="43.29228" lon="-2.33654">
        <ele>134.2</ele>
        <time>2021-05-29 12:45:52</time>
      </trkpt>
      <trkpt lat="43.29241" lon="-2.33656">
        <ele>133.6</ele>
        <time>2021-05-29 12:45:53</time>
      </trkpt>
      <trkpt lat="43.29254" lon="-2.33658">
        <ele>133</ele>
        <time>2021-05-29 12:45:54</time>
      </trkpt>
      <trkpt lat="43.29267" lon="-2.3366">
        <ele>132.4</ele>
        <time>2021-05-29 12:45:55</time>
      </trkpt>
      <trkpt lat="43.2928" lon="-2.33661">
        <ele>131.8</ele>
        <time>2021-05-29 12:45:56</time>
      </trkpt>
      <trkpt lat="43.29293" lon="-2.33664">
        <ele>131.2</ele>
        <time>2021-05-29 12:45:57</time>
      </trkpt>
      <trkpt lat="43.29306" lon="-2.33667">
        <ele>130.6</ele>
        <time>2021-05-29 12:45:58</time>
      </trkpt>
      <trkpt lat="43.29318" lon="-2.3367">
        <ele>129.8</ele>
        <time>2021-05-29 12:45:59</time>
      </trkpt>
      <trkpt lat="43.29331" lon="-2.33672">
        <ele>129</ele>
        <time>2021-05-29 12:46:00</time>
      </trkpt>
      <trkpt lat="43.29343" lon="-2.33675">
        <ele>128.6</ele>
        <time>2021-05-29 12:46:01</time>
      </trkpt>
      <trkpt lat="43.29355" lon="-2.33678">
        <ele>128</ele>
        <time>2021-05-29 12:46:02</time>
      </trkpt>
      <trkpt lat="43.29366" lon="-2.33682">
        <ele>127.4</ele>
        <time>2021-05-29 12:46:03</time>
      </trkpt>
      <trkpt lat="43.29378" lon="-2.33684">
        <ele>126.6</ele>
        <time>2021-05-29 12:46:04</time>
      </trkpt>
      <trkpt lat="43.2939" lon="-2.33688">
        <ele>126</ele>
        <time>2021-05-29 12:46:05</time>
      </trkpt>
      <trkpt lat="43.29401" lon="-2.33694">
        <ele>124.4</ele>
        <time>2021-05-29 12:46:06</time>
      </trkpt>
      <trkpt lat="43.29411" lon="-2.33702">
        <ele>123.8</ele>
        <time>2021-05-29 12:46:07</time>
      </trkpt>
      <trkpt lat="43.2942" lon="-2.33715">
        <ele>123.4</ele>
        <time>2021-05-29 12:46:08</time>
      </trkpt>
      <trkpt lat="43.29426" lon="-2.33731">
        <ele>122.8</ele>
        <time>2021-05-29 12:46:09</time>
      </trkpt>
      <trkpt lat="43.29427" lon="-2.33749">
        <ele>122.2</ele>
        <time>2021-05-29 12:46:10</time>
      </trkpt>
      <trkpt lat="43.29425" lon="-2.33766">
        <ele>121.6</ele>
        <time>2021-05-29 12:46:11</time>
      </trkpt>
      <trkpt lat="43.2942" lon="-2.33783">
        <ele>121.2</ele>
        <time>2021-05-29 12:46:12</time>
      </trkpt>
      <trkpt lat="43.29412" lon="-2.33797">
        <ele>120.8</ele>
        <time>2021-05-29 12:46:13</time>
      </trkpt>
      <trkpt lat="43.29403" lon="-2.33811">
        <ele>120.6</ele>
        <time>2021-05-29 12:46:14</time>
      </trkpt>
      <trkpt lat="43.29393" lon="-2.33824">
        <ele>119.8</ele>
        <time>2021-05-29 12:46:15</time>
      </trkpt>
      <trkpt lat="43.29384" lon="-2.33836">
        <ele>119</ele>
        <time>2021-05-29 12:46:16</time>
      </trkpt>
      <trkpt lat="43.29376" lon="-2.3385">
        <ele>118</ele>
        <time>2021-05-29 12:46:17</time>
      </trkpt>
      <trkpt lat="43.29369" lon="-2.33864">
        <ele>117.2</ele>
        <time>2021-05-29 12:46:18</time>
      </trkpt>
      <trkpt lat="43.29365" lon="-2.3388">
        <ele>116.2</ele>
        <time>2021-05-29 12:46:19</time>
      </trkpt>
      <trkpt lat="43.29363" lon="-2.33897">
        <ele>115.6</ele>
        <time>2021-05-29 12:46:20</time>
      </trkpt>
      <trkpt lat="43.29365" lon="-2.33914">
        <ele>115</ele>
        <time>2021-05-29 12:46:21</time>
      </trkpt>
      <trkpt lat="43.2937" lon="-2.3393">
        <ele>114.4</ele>
        <time>2021-05-29 12:46:22</time>
      </trkpt>
      <trkpt lat="43.29378" lon="-2.33944">
        <ele>113.8</ele>
        <time>2021-05-29 12:46:23</time>
      </trkpt>
      <trkpt lat="43.29386" lon="-2.33958">
        <ele>113.2</ele>
        <time>2021-05-29 12:46:24</time>
      </trkpt>
      <trkpt lat="43.29393" lon="-2.33971">
        <ele>113</ele>
        <time>2021-05-29 12:46:25</time>
      </trkpt>
      <trkpt lat="43.294" lon="-2.33986">
        <ele>112.6</ele>
        <time>2021-05-29 12:46:26</time>
      </trkpt>
      <trkpt lat="43.29404" lon="-2.34001">
        <ele>112.2</ele>
        <time>2021-05-29 12:46:27</time>
      </trkpt>
      <trkpt lat="43.29406" lon="-2.34019">
        <ele>111.8</ele>
        <time>2021-05-29 12:46:28</time>
      </trkpt>
      <trkpt lat="43.29406" lon="-2.34036">
        <ele>111</ele>
        <time>2021-05-29 12:46:29</time>
      </trkpt>
      <trkpt lat="43.29406" lon="-2.34054">
        <ele>110.6</ele>
        <time>2021-05-29 12:46:30</time>
      </trkpt>
      <trkpt lat="43.29406" lon="-2.34071">
        <ele>110.4</ele>
        <time>2021-05-29 12:46:31</time>
      </trkpt>
      <trkpt lat="43.29407" lon="-2.34088">
        <ele>109.8</ele>
        <time>2021-05-29 12:46:32</time>
      </trkpt>
      <trkpt lat="43.29408" lon="-2.34105">
        <ele>109</ele>
        <time>2021-05-29 12:46:33</time>
      </trkpt>
      <trkpt lat="43.29412" lon="-2.34123">
        <ele>108.2</ele>
        <time>2021-05-29 12:46:34</time>
      </trkpt>
      <trkpt lat="43.29419" lon="-2.34138">
        <ele>107.6</ele>
        <time>2021-05-29 12:46:35</time>
      </trkpt>
      <trkpt lat="43.29429" lon="-2.34149">
        <ele>107</ele>
        <time>2021-05-29 12:46:36</time>
      </trkpt>
      <trkpt lat="43.29441" lon="-2.34155">
        <ele>106.2</ele>
        <time>2021-05-29 12:46:37</time>
      </trkpt>
      <trkpt lat="43.29454" lon="-2.34158">
        <ele>105</ele>
        <time>2021-05-29 12:46:38</time>
      </trkpt>
      <trkpt lat="43.29468" lon="-2.34157">
        <ele>103.8</ele>
        <time>2021-05-29 12:46:39</time>
      </trkpt>
      <trkpt lat="43.29481" lon="-2.34154">
        <ele>102.8</ele>
        <time>2021-05-29 12:46:40</time>
      </trkpt>
      <trkpt lat="43.29494" lon="-2.34147">
        <ele>101.2</ele>
        <time>2021-05-29 12:46:41</time>
      </trkpt>
      <trkpt lat="43.29506" lon="-2.34138">
        <ele>100.2</ele>
        <time>2021-05-29 12:46:42</time>
      </trkpt>
      <trkpt lat="43.29516" lon="-2.34125">
        <ele>99.8</ele>
        <time>2021-05-29 12:46:43</time>
      </trkpt>
      <trkpt lat="43.29526" lon="-2.34112">
        <ele>99.2</ele>
        <time>2021-05-29 12:46:44</time>
      </trkpt>
      <trkpt lat="43.29536" lon="-2.34099">
        <ele>98.4</ele>
        <time>2021-05-29 12:46:45</time>
      </trkpt>
      <trkpt lat="43.29547" lon="-2.34088">
        <ele>97.6</ele>
        <time>2021-05-29 12:46:46</time>
      </trkpt>
      <trkpt lat="43.29559" lon="-2.34078">
        <ele>97.2</ele>
        <time>2021-05-29 12:46:47</time>
      </trkpt>
      <trkpt lat="43.29571" lon="-2.34068">
        <ele>96.8</ele>
        <time>2021-05-29 12:46:48</time>
      </trkpt>
      <trkpt lat="43.29583" lon="-2.34058">
        <ele>96.4</ele>
        <time>2021-05-29 12:46:49</time>
      </trkpt>
      <trkpt lat="43.29596" lon="-2.34048">
        <ele>96.2</ele>
        <time>2021-05-29 12:46:50</time>
      </trkpt>
      <trkpt lat="43.2961" lon="-2.34038">
        <ele>95.8</ele>
        <time>2021-05-29 12:46:51</time>
      </trkpt>
      <trkpt lat="43.29623" lon="-2.34028">
        <ele>95.4</ele>
        <time>2021-05-29 12:46:52</time>
      </trkpt>
      <trkpt lat="43.29637" lon="-2.34019">
        <ele>94.4</ele>
        <time>2021-05-29 12:46:53</time>
      </trkpt>
      <trkpt lat="43.2965" lon="-2.3401">
        <ele>93.4</ele>
        <time>2021-05-29 12:46:54</time>
      </trkpt>
      <trkpt lat="43.29664" lon="-2.34002">
        <ele>92.6</ele>
        <time>2021-05-29 12:46:55</time>
      </trkpt>
      <trkpt lat="43.29676" lon="-2.33993">
        <ele>91.6</ele>
        <time>2021-05-29 12:46:56</time>
      </trkpt>
      <trkpt lat="43.29688" lon="-2.33985">
        <ele>90.8</ele>
        <time>2021-05-29 12:46:57</time>
      </trkpt>
      <trkpt lat="43.29701" lon="-2.33977">
        <ele>90.2</ele>
        <time>2021-05-29 12:46:58</time>
      </trkpt>
      <trkpt lat="43.29713" lon="-2.33968">
        <ele>88.8</ele>
        <time>2021-05-29 12:46:59</time>
      </trkpt>
      <trkpt lat="43.29725" lon="-2.3396">
        <ele>87.6</ele>
        <time>2021-05-29 12:47:00</time>
      </trkpt>
      <trkpt lat="43.29737" lon="-2.33952">
        <ele>86.6</ele>
        <time>2021-05-29 12:47:01</time>
      </trkpt>
      <trkpt lat="43.29749" lon="-2.33944">
        <ele>85.8</ele>
        <time>2021-05-29 12:47:02</time>
      </trkpt>
      <trkpt lat="43.29762" lon="-2.33937">
        <ele>85.4</ele>
        <time>2021-05-29 12:47:03</time>
      </trkpt>
      <trkpt lat="43.29775" lon="-2.3393">
        <ele>85.2</ele>
        <time>2021-05-29 12:47:04</time>
      </trkpt>
      <trkpt lat="43.29787" lon="-2.33922">
        <ele>84.4</ele>
        <time>2021-05-29 12:47:05</time>
      </trkpt>
      <trkpt lat="43.29799" lon="-2.33914">
        <ele>83.4</ele>
        <time>2021-05-29 12:47:06</time>
      </trkpt>
      <trkpt lat="43.29811" lon="-2.33904">
        <ele>82.4</ele>
        <time>2021-05-29 12:47:07</time>
      </trkpt>
      <trkpt lat="43.2982" lon="-2.33891">
        <ele>81.6</ele>
        <time>2021-05-29 12:47:08</time>
      </trkpt>
      <trkpt lat="43.29829" lon="-2.33875">
        <ele>80.8</ele>
        <time>2021-05-29 12:47:09</time>
      </trkpt>
      <trkpt lat="43.29835" lon="-2.33858">
        <ele>80.2</ele>
        <time>2021-05-29 12:47:10</time>
      </trkpt>
      <trkpt lat="43.2984" lon="-2.3384">
        <ele>79.4</ele>
        <time>2021-05-29 12:47:11</time>
      </trkpt>
      <trkpt lat="43.29843" lon="-2.33821">
        <ele>78.2</ele>
        <time>2021-05-29 12:47:12</time>
      </trkpt>
      <trkpt lat="43.29845" lon="-2.33802">
        <ele>77.6</ele>
        <time>2021-05-29 12:47:13</time>
      </trkpt>
      <trkpt lat="43.29847" lon="-2.33783">
        <ele>77</ele>
        <time>2021-05-29 12:47:14</time>
      </trkpt>
      <trkpt lat="43.2985" lon="-2.33766">
        <ele>76</ele>
        <time>2021-05-29 12:47:15</time>
      </trkpt>
      <trkpt lat="43.29855" lon="-2.33749">
        <ele>75.2</ele>
        <time>2021-05-29 12:47:16</time>
      </trkpt>
      <trkpt lat="43.29863" lon="-2.33736">
        <ele>74.4</ele>
        <time>2021-05-29 12:47:17</time>
      </trkpt>
      <trkpt lat="43.29872" lon="-2.33723">
        <ele>73.6</ele>
        <time>2021-05-29 12:47:18</time>
      </trkpt>
      <trkpt lat="43.29883" lon="-2.33713">
        <ele>72.8</ele>
        <time>2021-05-29 12:47:19</time>
      </trkpt>
      <trkpt lat="43.29895" lon="-2.33705">
        <ele>71.4</ele>
        <time>2021-05-29 12:47:20</time>
      </trkpt>
      <trkpt lat="43.29907" lon="-2.33699">
        <ele>70.2</ele>
        <time>2021-05-29 12:47:21</time>
      </trkpt>
      <trkpt lat="43.29921" lon="-2.337">
        <ele>69.4</ele>
        <time>2021-05-29 12:47:22</time>
      </trkpt>
      <trkpt lat="43.29936" lon="-2.33703">
        <ele>68.8</ele>
        <time>2021-05-29 12:47:23</time>
      </trkpt>
      <trkpt lat="43.29951" lon="-2.33707">
        <ele>68</ele>
        <time>2021-05-29 12:47:24</time>
      </trkpt>
      <trkpt lat="43.29965" lon="-2.33711">
        <ele>67.4</ele>
        <time>2021-05-29 12:47:25</time>
      </trkpt>
      <trkpt lat="43.29978" lon="-2.33714">
        <ele>66.4</ele>
        <time>2021-05-29 12:47:26</time>
      </trkpt>
      <trkpt lat="43.2999" lon="-2.33718">
        <ele>65.6</ele>
        <time>2021-05-29 12:47:27</time>
      </trkpt>
      <trkpt lat="43.30001" lon="-2.33724">
        <ele>65.2</ele>
        <time>2021-05-29 12:47:28</time>
      </trkpt>
      <trkpt lat="43.3001" lon="-2.33733">
        <ele>64.4</ele>
        <time>2021-05-29 12:47:29</time>
      </trkpt>
      <trkpt lat="43.30018" lon="-2.33746">
        <ele>63.6</ele>
        <time>2021-05-29 12:47:30</time>
      </trkpt>
      <trkpt lat="43.30023" lon="-2.33761">
        <ele>62.4</ele>
        <time>2021-05-29 12:47:31</time>
      </trkpt>
      <trkpt lat="43.30027" lon="-2.33777">
        <ele>61.6</ele>
        <time>2021-05-29 12:47:32</time>
      </trkpt>
      <trkpt lat="43.30028" lon="-2.33795">
        <ele>60.8</ele>
        <time>2021-05-29 12:47:33</time>
      </trkpt>
      <trkpt lat="43.30027" lon="-2.33813">
        <ele>60.2</ele>
        <time>2021-05-29 12:47:34</time>
      </trkpt>
      <trkpt lat="43.30027" lon="-2.33832">
        <ele>59.8</ele>
        <time>2021-05-29 12:47:35</time>
      </trkpt>
      <trkpt lat="43.30028" lon="-2.3385">
        <ele>59.4</ele>
        <time>2021-05-29 12:47:36</time>
      </trkpt>
      <trkpt lat="43.30028" lon="-2.33868">
        <ele>59</ele>
        <time>2021-05-29 12:47:37</time>
      </trkpt>
      <trkpt lat="43.30028" lon="-2.33887">
        <ele>58.6</ele>
        <time>2021-05-29 12:47:38</time>
      </trkpt>
      <trkpt lat="43.30028" lon="-2.33906">
        <ele>58</ele>
        <time>2021-05-29 12:47:39</time>
      </trkpt>
      <trkpt lat="43.30029" lon="-2.33925">
        <ele>57.6</ele>
        <time>2021-05-29 12:47:40</time>
      </trkpt>
      <trkpt lat="43.30031" lon="-2.33943">
        <ele>56.8</ele>
        <time>2021-05-29 12:47:41</time>
      </trkpt>
      <trkpt lat="43.30035" lon="-2.33961">
        <ele>56.2</ele>
        <time>2021-05-29 12:47:42</time>
      </trkpt>
      <trkpt lat="43.3004" lon="-2.33977">
        <ele>55.4</ele>
        <time>2021-05-29 12:47:43</time>
      </trkpt>
      <trkpt lat="43.30048" lon="-2.3399">
        <ele>54.6</ele>
        <time>2021-05-29 12:47:44</time>
      </trkpt>
      <trkpt lat="43.30058" lon="-2.34002">
        <ele>53.6</ele>
        <time>2021-05-29 12:47:45</time>
      </trkpt>
      <trkpt lat="43.30068" lon="-2.34013">
        <ele>53.2</ele>
        <time>2021-05-29 12:47:46</time>
      </trkpt>
      <trkpt lat="43.30079" lon="-2.3402">
        <ele>52.8</ele>
        <time>2021-05-29 12:47:47</time>
      </trkpt>
      <trkpt lat="43.3009" lon="-2.34028">
        <ele>52.4</ele>
        <time>2021-05-29 12:47:48</time>
      </trkpt>
      <trkpt lat="43.30101" lon="-2.34039">
        <ele>51.6</ele>
        <time>2021-05-29 12:47:49</time>
      </trkpt>
      <trkpt lat="43.30109" lon="-2.34053">
        <ele>51.2</ele>
        <time>2021-05-29 12:47:50</time>
      </trkpt>
      <trkpt lat="43.30114" lon="-2.34069">
        <ele>50.6</ele>
        <time>2021-05-29 12:47:51</time>
      </trkpt>
      <trkpt lat="43.30119" lon="-2.34087">
        <ele>49.6</ele>
        <time>2021-05-29 12:47:52</time>
      </trkpt>
      <trkpt lat="43.30123" lon="-2.34106">
        <ele>48.8</ele>
        <time>2021-05-29 12:47:53</time>
      </trkpt>
      <trkpt lat="43.30128" lon="-2.34124">
        <ele>47.8</ele>
        <time>2021-05-29 12:47:54</time>
      </trkpt>
      <trkpt lat="43.30135" lon="-2.34141">
        <ele>47</ele>
        <time>2021-05-29 12:47:55</time>
      </trkpt>
      <trkpt lat="43.30142" lon="-2.34159">
        <ele>46.2</ele>
        <time>2021-05-29 12:47:56</time>
      </trkpt>
      <trkpt lat="43.3015" lon="-2.34176">
        <ele>45.4</ele>
        <time>2021-05-29 12:47:57</time>
      </trkpt>
      <trkpt lat="43.30158" lon="-2.34193">
        <ele>44.6</ele>
        <time>2021-05-29 12:47:58</time>
      </trkpt>
      <trkpt lat="43.30165" lon="-2.34211">
        <ele>43.4</ele>
        <time>2021-05-29 12:47:59</time>
      </trkpt>
      <trkpt lat="43.30173" lon="-2.34228">
        <ele>42.2</ele>
        <time>2021-05-29 12:48:00</time>
      </trkpt>
      <trkpt lat="43.30181" lon="-2.34244">
        <ele>41</ele>
        <time>2021-05-29 12:48:01</time>
      </trkpt>
      <trkpt lat="43.30189" lon="-2.3426">
        <ele>40</ele>
        <time>2021-05-29 12:48:02</time>
      </trkpt>
      <trkpt lat="43.30197" lon="-2.34275">
        <ele>39.2</ele>
        <time>2021-05-29 12:48:03</time>
      </trkpt>
      <trkpt lat="43.30205" lon="-2.3429">
        <ele>38.4</ele>
        <time>2021-05-29 12:48:04</time>
      </trkpt>
      <trkpt lat="43.30212" lon="-2.34304">
        <ele>37.4</ele>
        <time>2021-05-29 12:48:05</time>
      </trkpt>
      <trkpt lat="43.30217" lon="-2.3432">
        <ele>36</ele>
        <time>2021-05-29 12:48:06</time>
      </trkpt>
      <trkpt lat="43.30219" lon="-2.34336">
        <ele>35</ele>
        <time>2021-05-29 12:48:07</time>
      </trkpt>
      <trkpt lat="43.30216" lon="-2.34352">
        <ele>34.4</ele>
        <time>2021-05-29 12:48:08</time>
      </trkpt>
      <trkpt lat="43.30211" lon="-2.34367">
        <ele>33.6</ele>
        <time>2021-05-29 12:48:09</time>
      </trkpt>
      <trkpt lat="43.30203" lon="-2.3438">
        <ele>33</ele>
        <time>2021-05-29 12:48:10</time>
      </trkpt>
      <trkpt lat="43.30192" lon="-2.3439">
        <ele>32.2</ele>
        <time>2021-05-29 12:48:11</time>
      </trkpt>
      <trkpt lat="43.3018" lon="-2.34398">
        <ele>31.2</ele>
        <time>2021-05-29 12:48:12</time>
      </trkpt>
      <trkpt lat="43.30167" lon="-2.34405">
        <ele>30.2</ele>
        <time>2021-05-29 12:48:13</time>
      </trkpt>
      <trkpt lat="43.30155" lon="-2.34413">
        <ele>29.6</ele>
        <time>2021-05-29 12:48:14</time>
      </trkpt>
      <trkpt lat="43.30145" lon="-2.34425">
        <ele>28.8</ele>
        <time>2021-05-29 12:48:15</time>
      </trkpt>
      <trkpt lat="43.30137" lon="-2.34439">
        <ele>27.6</ele>
        <time>2021-05-29 12:48:16</time>
      </trkpt>
      <trkpt lat="43.3013" lon="-2.34454">
        <ele>26.8</ele>
        <time>2021-05-29 12:48:17</time>
      </trkpt>
      <trkpt lat="43.30121" lon="-2.34468">
        <ele>25.8</ele>
        <time>2021-05-29 12:48:18</time>
      </trkpt>
      <trkpt lat="43.3011" lon="-2.34478">
        <ele>24.6</ele>
        <time>2021-05-29 12:48:19</time>
      </trkpt>
      <trkpt lat="43.30097" lon="-2.34485">
        <ele>23.8</ele>
        <time>2021-05-29 12:48:20</time>
      </trkpt>
      <trkpt lat="43.30084" lon="-2.34488">
        <ele>23.4</ele>
        <time>2021-05-29 12:48:21</time>
      </trkpt>
      <trkpt lat="43.3007" lon="-2.34486">
        <ele>22.6</ele>
        <time>2021-05-29 12:48:22</time>
      </trkpt>
      <trkpt lat="43.30056" lon="-2.34484">
        <ele>21.2</ele>
        <time>2021-05-29 12:48:23</time>
      </trkpt>
      <trkpt lat="43.30041" lon="-2.34484">
        <ele>20.2</ele>
        <time>2021-05-29 12:48:24</time>
      </trkpt>
      <trkpt lat="43.30027" lon="-2.34489">
        <ele>19.4</ele>
        <time>2021-05-29 12:48:25</time>
      </trkpt>
      <trkpt lat="43.30012" lon="-2.34497">
        <ele>18.8</ele>
        <time>2021-05-29 12:48:26</time>
      </trkpt>
      <trkpt lat="43.29999" lon="-2.34509">
        <ele>18.2</ele>
        <time>2021-05-29 12:48:27</time>
      </trkpt>
      <trkpt lat="43.29987" lon="-2.34522">
        <ele>17.6</ele>
        <time>2021-05-29 12:48:28</time>
      </trkpt>
      <trkpt lat="43.29977" lon="-2.34538">
        <ele>17</ele>
        <time>2021-05-29 12:48:29</time>
      </trkpt>
      <trkpt lat="43.29967" lon="-2.34554">
        <ele>16.4</ele>
        <time>2021-05-29 12:48:30</time>
      </trkpt>
      <trkpt lat="43.29957" lon="-2.3457">
        <ele>15.6</ele>
        <time>2021-05-29 12:48:31</time>
      </trkpt>
      <trkpt lat="43.29947" lon="-2.34585">
        <ele>14.8</ele>
        <time>2021-05-29 12:48:32</time>
      </trkpt>
      <trkpt lat="43.29937" lon="-2.34598">
        <ele>14.2</ele>
        <time>2021-05-29 12:48:33</time>
      </trkpt>
      <trkpt lat="43.29926" lon="-2.34612">
        <ele>13.2</ele>
        <time>2021-05-29 12:48:34</time>
      </trkpt>
      <trkpt lat="43.29917" lon="-2.34628">
        <ele>12.4</ele>
        <time>2021-05-29 12:48:35</time>
      </trkpt>
      <trkpt lat="43.29911" lon="-2.34646">
        <ele>11.8</ele>
        <time>2021-05-29 12:48:36</time>
      </trkpt>
      <trkpt lat="43.29905" lon="-2.34666">
        <ele>11.2</ele>
        <time>2021-05-29 12:48:37</time>
      </trkpt>
      <trkpt lat="43.299" lon="-2.34685">
        <ele>10.8</ele>
        <time>2021-05-29 12:48:38</time>
      </trkpt>
      <trkpt lat="43.29892" lon="-2.34702">
        <ele>10.4</ele>
        <time>2021-05-29 12:48:39</time>
      </trkpt>
      <trkpt lat="43.29884" lon="-2.34719">
        <ele>9.4</ele>
        <time>2021-05-29 12:48:40</time>
      </trkpt>
      <trkpt lat="43.29876" lon="-2.34736">
        <ele>7.8</ele>
        <time>2021-05-29 12:48:41</time>
      </trkpt>
      <trkpt lat="43.29869" lon="-2.34753">
        <ele>6.6</ele>
        <time>2021-05-29 12:48:42</time>
      </trkpt>
      <trkpt lat="43.29863" lon="-2.3477">
        <ele>5.4</ele>
        <time>2021-05-29 12:48:43</time>
      </trkpt>
      <trkpt lat="43.29859" lon="-2.34788">
        <ele>4.4</ele>
        <time>2021-05-29 12:48:44</time>
      </trkpt>
      <trkpt lat="43.29857" lon="-2.34807">
        <ele>3.4</ele>
        <time>2021-05-29 12:48:45</time>
      </trkpt>
      <trkpt lat="43.29857" lon="-2.34827">
        <ele>2.6</ele>
        <time>2021-05-29 12:48:46</time>
      </trkpt>
      <trkpt lat="43.29858" lon="-2.34846">
        <ele>1.6</ele>
        <time>2021-05-29 12:48:47</time>
      </trkpt>
      <trkpt lat="43.29858" lon="-2.34866">
        <ele>0.4</ele>
        <time>2021-05-29 12:48:48</time>
      </trkpt>
      <trkpt lat="43.29858" lon="-2.34885">
        <ele>-0.8</ele>
        <time>2021-05-29 12:48:49</time>
      </trkpt>
      <trkpt lat="43.29858" lon="-2.34904">
        <ele>-1.6</ele>
        <time>2021-05-29 12:48:50</time>
      </trkpt>
      <trkpt lat="43.29858" lon="-2.34922">
        <ele>-2</ele>
        <time>2021-05-29 12:48:51</time>
      </trkpt>
      <trkpt lat="43.29858" lon="-2.34941">
        <ele>-2.6</ele>
        <time>2021-05-29 12:48:52</time>
      </trkpt>
      <trkpt lat="43.29858" lon="-2.34959">
        <ele>-3.4</ele>
        <time>2021-05-29 12:48:53</time>
      </trkpt>
      <trkpt lat="43.29858" lon="-2.34977">
        <ele>-3.8</ele>
        <time>2021-05-29 12:48:54</time>
      </trkpt>
      <trkpt lat="43.29858" lon="-2.34993">
        <ele>-4.4</ele>
        <time>2021-05-29 12:48:55</time>
      </trkpt>
      <trkpt lat="43.29858" lon="-2.35009">
        <ele>-4.8</ele>
        <time>2021-05-29 12:48:56</time>
      </trkpt>
      <trkpt lat="43.29858" lon="-2.35024">
        <ele>-5.2</ele>
        <time>2021-05-29 12:48:57</time>
      </trkpt>
      <trkpt lat="43.29858" lon="-2.35039">
        <ele>-6.8</ele>
        <time>2021-05-29 12:48:58</time>
      </trkpt>
      <trkpt lat="43.29857" lon="-2.35053">
        <ele>-7.6</ele>
        <time>2021-05-29 12:48:59</time>
      </trkpt>
      <trkpt lat="43.29853" lon="-2.35066">
        <ele>-8.4</ele>
        <time>2021-05-29 12:49:00</time>
      </trkpt>
      <trkpt lat="43.29846" lon="-2.35073">
        <ele>-9.2</ele>
        <time>2021-05-29 12:49:01</time>
      </trkpt>
      <trkpt lat="43.29837" lon="-2.35077">
        <ele>-9.8</ele>
        <time>2021-05-29 12:49:02</time>
      </trkpt>
      <trkpt lat="43.29828" lon="-2.35076">
        <ele>-10.2</ele>
        <time>2021-05-29 12:49:03</time>
      </trkpt>
      <trkpt lat="43.29818" lon="-2.35072">
        <ele>-10.6</ele>
        <time>2021-05-29 12:49:04</time>
      </trkpt>
      <trkpt lat="43.29809" lon="-2.35065">
        <ele>-11.2</ele>
        <time>2021-05-29 12:49:05</time>
      </trkpt>
      <trkpt lat="43.298" lon="-2.35056">
        <ele>-11.8</ele>
        <time>2021-05-29 12:49:06</time>
      </trkpt>
      <trkpt lat="43.29791" lon="-2.35047">
        <ele>-12</ele>
        <time>2021-05-29 12:49:07</time>
      </trkpt>
      <trkpt lat="43.29782" lon="-2.35039">
        <ele>-12.4</ele>
        <time>2021-05-29 12:49:08</time>
      </trkpt>
      <trkpt lat="43.29773" lon="-2.35032">
        <ele>-12.6</ele>
        <time>2021-05-29 12:49:09</time>
      </trkpt>
      <trkpt lat="43.29763" lon="-2.35028">
        <ele>-13</ele>
        <time>2021-05-29 12:49:10</time>
      </trkpt>
      <trkpt lat="43.29753" lon="-2.35024">
        <ele>-13.2</ele>
        <time>2021-05-29 12:49:11</time>
      </trkpt>
      <trkpt lat="43.29743" lon="-2.35021">
        <ele>-13.6</ele>
        <time>2021-05-29 12:49:12</time>
      </trkpt>
      <trkpt lat="43.29733" lon="-2.3502">
        <ele>-14</ele>
        <time>2021-05-29 12:49:13</time>
      </trkpt>
      <trkpt lat="43.29723" lon="-2.35021">
        <ele>-14.4</ele>
        <time>2021-05-29 12:49:14</time>
      </trkpt>
      <trkpt lat="43.29714" lon="-2.35025">
        <ele>-14.8</ele>
        <time>2021-05-29 12:49:15</time>
      </trkpt>
      <trkpt lat="43.29705" lon="-2.35032">
        <ele>-15.2</ele>
        <time>2021-05-29 12:49:16</time>
      </trkpt>
      <trkpt lat="43.29696" lon="-2.35041">
        <ele>-15.4</ele>
        <time>2021-05-29 12:49:17</time>
      </trkpt>
      <trkpt lat="43.29688" lon="-2.3505">
        <ele>-15.8</ele>
        <time>2021-05-29 12:49:18</time>
      </trkpt>
      <trkpt lat="43.29681" lon="-2.3506">
        <ele>-16</ele>
        <time>2021-05-29 12:49:19</time>
      </trkpt>
      <trkpt lat="43.29674" lon="-2.35071">
        <ele>-16.4</ele>
        <time>2021-05-29 12:49:20</time>
      </trkpt>
      <trkpt lat="43.29668" lon="-2.35082">
        <ele>-16.6</ele>
        <time>2021-05-29 12:49:21</time>
      </trkpt>
      <trkpt lat="43.29664" lon="-2.35094">
        <ele>-16.8</ele>
        <time>2021-05-29 12:49:22</time>
      </trkpt>
      <trkpt lat="43.29659" lon="-2.35105">
        <ele>-16.8</ele>
        <time>2021-05-29 12:49:23</time>
      </trkpt>
      <trkpt lat="43.29655" lon="-2.35117">
        <ele>-17</ele>
        <time>2021-05-29 12:49:24</time>
      </trkpt>
      <trkpt lat="43.29651" lon="-2.35128">
        <ele>-17.2</ele>
        <time>2021-05-29 12:49:25</time>
      </trkpt>
      <trkpt lat="43.29647" lon="-2.35139">
        <ele>-17.4</ele>
        <time>2021-05-29 12:49:26</time>
      </trkpt>
      <trkpt lat="43.29643" lon="-2.35151">
        <ele>-17.4</ele>
        <time>2021-05-29 12:49:27</time>
      </trkpt>
      <trkpt lat="43.2964" lon="-2.35162">
        <ele>-17.6</ele>
        <time>2021-05-29 12:49:28</time>
      </trkpt>
      <trkpt lat="43.29635" lon="-2.35173">
        <ele>-17.8</ele>
        <time>2021-05-29 12:49:29</time>
      </trkpt>
      <trkpt lat="43.29631" lon="-2.35185">
        <ele>-17.8</ele>
        <time>2021-05-29 12:49:30</time>
      </trkpt>
      <trkpt lat="43.29626" lon="-2.35198">
        <ele>-18</ele>
        <time>2021-05-29 12:49:31</time>
      </trkpt>
      <trkpt lat="43.29622" lon="-2.3521">
        <ele>-18</ele>
        <time>2021-05-29 12:49:32</time>
      </trkpt>
      <trkpt lat="43.29618" lon="-2.35223">
        <ele>-18.2</ele>
        <time>2021-05-29 12:49:33</time>
      </trkpt>
      <trkpt lat="43.29613" lon="-2.35236">
        <ele>-18.2</ele>
        <time>2021-05-29 12:49:34</time>
      </trkpt>
      <trkpt lat="43.29608" lon="-2.35248">
        <ele>-18.4</ele>
        <time>2021-05-29 12:49:35</time>
      </trkpt>
      <trkpt lat="43.29604" lon="-2.3526">
        <ele>-18.4</ele>
        <time>2021-05-29 12:49:36</time>
      </trkpt>
      <trkpt lat="43.296" lon="-2.35271">
        <ele>-18.4</ele>
        <time>2021-05-29 12:49:37</time>
      </trkpt>
      <trkpt lat="43.29597" lon="-2.35282">
        <ele>-18.4</ele>
        <time>2021-05-29 12:49:38</time>
      </trkpt>
      <trkpt lat="43.29594" lon="-2.35291">
        <ele>-18.4</ele>
        <time>2021-05-29 12:49:39</time>
      </trkpt>
      <trkpt lat="43.29591" lon="-2.353">
        <ele>-18.6</ele>
        <time>2021-05-29 12:49:40</time>
      </trkpt>
      <trkpt lat="43.29588" lon="-2.35308">
        <ele>-18.6</ele>
        <time>2021-05-29 12:49:41</time>
      </trkpt>
      <trkpt lat="43.29585" lon="-2.35316">
        <ele>-18.6</ele>
        <time>2021-05-29 12:49:42</time>
      </trkpt>
      <trkpt lat="43.29582" lon="-2.35323">
        <ele>-18.8</ele>
        <time>2021-05-29 12:49:43</time>
      </trkpt>
      <trkpt lat="43.2958" lon="-2.3533">
        <ele>-18.8</ele>
        <time>2021-05-29 12:49:44</time>
      </trkpt>
      <trkpt lat="43.29577" lon="-2.35336">
        <ele>-18.6</ele>
        <time>2021-05-29 12:49:45</time>
      </trkpt>
      <trkpt lat="43.29575" lon="-2.35342">
        <ele>-18.8</ele>
        <time>2021-05-29 12:49:46</time>
      </trkpt>
      <trkpt lat="43.29573" lon="-2.35348">
        <ele>-19</ele>
        <time>2021-05-29 12:49:47</time>
      </trkpt>
      <trkpt lat="43.29571" lon="-2.35353">
        <ele>-19</ele>
        <time>2021-05-29 12:49:48</time>
      </trkpt>
      <trkpt lat="43.29569" lon="-2.35357">
        <ele>-19.2</ele>
        <time>2021-05-29 12:49:49</time>
      </trkpt>
      <trkpt lat="43.29567" lon="-2.35363">
        <ele>-19.2</ele>
        <time>2021-05-29 12:49:50</time>
      </trkpt>
      <trkpt lat="43.29566" lon="-2.3537">
        <ele>-19.2</ele>
        <time>2021-05-29 12:49:51</time>
      </trkpt>
      <trkpt lat="43.29564" lon="-2.35375">
        <ele>-19.2</ele>
        <time>2021-05-29 12:49:52</time>
      </trkpt>
      <trkpt lat="43.29562" lon="-2.35379">
        <ele>-19.2</ele>
        <time>2021-05-29 12:49:53</time>
      </trkpt>
      <trkpt lat="43.2956" lon="-2.35384">
        <ele>-19.2</ele>
        <time>2021-05-29 12:49:54</time>
      </trkpt>
      <trkpt lat="43.29558" lon="-2.35387">
        <ele>-19.2</ele>
        <time>2021-05-29 12:49:55</time>
      </trkpt>
      <trkpt lat="43.29556" lon="-2.35391">
        <ele>-19.4</ele>
        <time>2021-05-29 12:49:56</time>
      </trkpt>
      <trkpt lat="43.29555" lon="-2.35396">
        <ele>-19.4</ele>
        <time>2021-05-29 12:49:57</time>
      </trkpt>
      <trkpt lat="43.29553" lon="-2.354">
        <ele>-19.4</ele>
        <time>2021-05-29 12:49:58</time>
      </trkpt>
      <trkpt lat="43.29552" lon="-2.35403">
        <ele>-19.4</ele>
        <time>2021-05-29 12:49:59</time>
      </trkpt>
      <trkpt lat="43.2955" lon="-2.35407">
        <ele>-19.4</ele>
        <time>2021-05-29 12:50:00</time>
      </trkpt>
      <trkpt lat="43.29549" lon="-2.3541">
        <ele>-19.4</ele>
        <time>2021-05-29 12:50:01</time>
      </trkpt>
      <trkpt lat="43.29547" lon="-2.35412">
        <ele>-19.4</ele>
        <time>2021-05-29 12:50:02</time>
      </trkpt>
      <trkpt lat="43.29545" lon="-2.35415">
        <ele>-19.4</ele>
        <time>2021-05-29 12:50:03</time>
      </trkpt>
      <trkpt lat="43.29544" lon="-2.35418">
        <ele>-19.6</ele>
        <time>2021-05-29 12:50:04</time>
      </trkpt>
      <trkpt lat="43.29542" lon="-2.35421">
        <ele>-19.6</ele>
        <time>2021-05-29 12:50:05</time>
      </trkpt>
      <trkpt lat="43.2954" lon="-2.35424">
        <ele>-19.6</ele>
        <time>2021-05-29 12:50:06</time>
      </trkpt>
      <trkpt lat="43.29539" lon="-2.35427">
        <ele>-19.6</ele>
        <time>2021-05-29 12:50:07</time>
      </trkpt>
      <trkpt lat="43.29538" lon="-2.3543">
        <ele>-19.6</ele>
        <time>2021-05-29 12:50:08</time>
      </trkpt>
      <trkpt lat="43.29537" lon="-2.35433">
        <ele>-19.6</ele>
        <time>2021-05-29 12:50:09</time>
      </trkpt>
      <trkpt lat="43.29536" lon="-2.35435">
        <ele>-19.6</ele>
        <time>2021-05-29 12:50:10</time>
      </trkpt>
      <trkpt lat="43.29535" lon="-2.35439">
        <ele>-19.6</ele>
        <time>2021-05-29 12:50:11</time>
      </trkpt>
      <trkpt lat="43.29533" lon="-2.35442">
        <ele>-19.6</ele>
        <time>2021-05-29 12:50:12</time>
      </trkpt>
      <trkpt lat="43.29532" lon="-2.35445">
        <ele>-19.6</ele>
        <time>2021-05-29 12:50:13</time>
      </trkpt>
      <trkpt lat="43.29531" lon="-2.35449">
        <ele>-19.6</ele>
        <time>2021-05-29 12:50:14</time>
      </trkpt>
      <trkpt lat="43.2953" lon="-2.35451">
        <ele>-19.6</ele>
        <time>2021-05-29 12:50:15</time>
      </trkpt>
      <trkpt lat="43.29529" lon="-2.35454">
        <ele>-19.6</ele>
        <time>2021-05-29 12:50:16</time>
      </trkpt>
      <trkpt lat="43.29528" lon="-2.35458">
        <ele>-19.6</ele>
        <time>2021-05-29 12:50:17</time>
      </trkpt>
      <trkpt lat="43.29526" lon="-2.3546">
        <ele>-19.6</ele>
        <time>2021-05-29 12:50:18</time>
      </trkpt>
      <trkpt lat="43.29525" lon="-2.35462">
        <ele>-19.6</ele>
        <time>2021-05-29 12:50:19</time>
      </trkpt>
      <trkpt lat="43.29524" lon="-2.35464">
        <ele>-19.6</ele>
        <time>2021-05-29 12:50:20</time>
      </trkpt>
      <trkpt lat="43.29523" lon="-2.35467">
        <ele>-19.6</ele>
        <time>2021-05-29 12:50:21</time>
      </trkpt>
      <trkpt lat="43.29522" lon="-2.35469">
        <ele>-19.6</ele>
        <time>2021-05-29 12:50:22</time>
      </trkpt>
      <trkpt lat="43.29521" lon="-2.35472">
        <ele>-19.6</ele>
        <time>2021-05-29 12:50:23</time>
      </trkpt>
      <trkpt lat="43.2952" lon="-2.35474">
        <ele>-19.6</ele>
        <time>2021-05-29 12:50:24</time>
      </trkpt>
      <trkpt lat="43.29519" lon="-2.35476">
        <ele>-19.4</ele>
        <time>2021-05-29 12:50:25</time>
      </trkpt>
      <trkpt lat="43.29517" lon="-2.35477">
        <ele>-19.4</ele>
        <time>2021-05-29 12:50:26</time>
      </trkpt>
      <trkpt lat="43.29516" lon="-2.35478">
        <ele>-19.4</ele>
        <time>2021-05-29 12:50:27</time>
      </trkpt>
      <trkpt lat="43.29516" lon="-2.35479">
        <ele>-19.2</ele>
        <time>2021-05-29 12:50:28</time>
      </trkpt>
      <trkpt lat="43.29516" lon="-2.35479">
        <ele>-19.2</ele>
        <time>2021-05-29 12:50:29</time>
      </trkpt>
      <trkpt lat="43.29514" lon="-2.35484">
        <ele>-19</ele>
        <time>2021-05-29 12:51:39</time>
      </trkpt>
      <trkpt lat="43.29515" lon="-2.35484">
        <ele>-18.8</ele>
        <time>2021-05-29 12:51:40</time>
      </trkpt>
      <trkpt lat="43.29516" lon="-2.35484">
        <ele>-18.8</ele>
        <time>2021-05-29 12:51:41</time>
      </trkpt>
      <trkpt lat="43.29517" lon="-2.35483">
        <ele>-18.8</ele>
        <time>2021-05-29 12:51:42</time>
      </trkpt>
      <trkpt lat="43.29518" lon="-2.35481">
        <ele>-18.8</ele>
        <time>2021-05-29 12:51:43</time>
      </trkpt>
      <trkpt lat="43.2952" lon="-2.35478">
        <ele>-19</ele>
        <time>2021-05-29 12:51:44</time>
      </trkpt>
      <trkpt lat="43.29522" lon="-2.35475">
        <ele>-19</ele>
        <time>2021-05-29 12:51:45</time>
      </trkpt>
      <trkpt lat="43.29523" lon="-2.35472">
        <ele>-19</ele>
        <time>2021-05-29 12:51:46</time>
      </trkpt>
      <trkpt lat="43.29526" lon="-2.35468">
        <ele>-19</ele>
        <time>2021-05-29 12:51:47</time>
      </trkpt>
      <trkpt lat="43.29528" lon="-2.35464">
        <ele>-19</ele>
        <time>2021-05-29 12:51:48</time>
      </trkpt>
      <trkpt lat="43.29529" lon="-2.35459">
        <ele>-19</ele>
        <time>2021-05-29 12:51:49</time>
      </trkpt>
      <trkpt lat="43.2953" lon="-2.35454">
        <ele>-19</ele>
        <time>2021-05-29 12:51:50</time>
      </trkpt>
      <trkpt lat="43.29532" lon="-2.35449">
        <ele>-19</ele>
        <time>2021-05-29 12:51:51</time>
      </trkpt>
      <trkpt lat="43.29533" lon="-2.35445">
        <ele>-19.2</ele>
        <time>2021-05-29 12:51:52</time>
      </trkpt>
      <trkpt lat="43.29536" lon="-2.35441">
        <ele>-19.2</ele>
        <time>2021-05-29 12:51:53</time>
      </trkpt>
      <trkpt lat="43.29537" lon="-2.35436">
        <ele>-19.2</ele>
        <time>2021-05-29 12:51:54</time>
      </trkpt>
      <trkpt lat="43.29539" lon="-2.35431">
        <ele>-19.4</ele>
        <time>2021-05-29 12:51:55</time>
      </trkpt>
      <trkpt lat="43.2954" lon="-2.35426">
        <ele>-19.4</ele>
        <time>2021-05-29 12:51:56</time>
      </trkpt>
      <trkpt lat="43.29542" lon="-2.35422">
        <ele>-19.6</ele>
        <time>2021-05-29 12:51:57</time>
      </trkpt>
      <trkpt lat="43.29544" lon="-2.35418">
        <ele>-19.6</ele>
        <time>2021-05-29 12:51:58</time>
      </trkpt>
      <trkpt lat="43.29545" lon="-2.35414">
        <ele>-19.6</ele>
        <time>2021-05-29 12:51:59</time>
      </trkpt>
      <trkpt lat="43.29546" lon="-2.35411">
        <ele>-19.6</ele>
        <time>2021-05-29 12:52:00</time>
      </trkpt>
      <trkpt lat="43.29548" lon="-2.35408">
        <ele>-19.6</ele>
        <time>2021-05-29 12:52:01</time>
      </trkpt>
      <trkpt lat="43.2955" lon="-2.35404">
        <ele>-19.6</ele>
        <time>2021-05-29 12:52:02</time>
      </trkpt>
      <trkpt lat="43.29552" lon="-2.354">
        <ele>-19.6</ele>
        <time>2021-05-29 12:52:03</time>
      </trkpt>
      <trkpt lat="43.29554" lon="-2.35396">
        <ele>-19.6</ele>
        <time>2021-05-29 12:52:04</time>
      </trkpt>
      <trkpt lat="43.29556" lon="-2.35392">
        <ele>-19.6</ele>
        <time>2021-05-29 12:52:05</time>
      </trkpt>
      <trkpt lat="43.29558" lon="-2.35388">
        <ele>-19.6</ele>
        <time>2021-05-29 12:52:06</time>
      </trkpt>
      <trkpt lat="43.2956" lon="-2.35386">
        <ele>-19.6</ele>
        <time>2021-05-29 12:52:07</time>
      </trkpt>
      <trkpt lat="43.29561" lon="-2.35384">
        <ele>-19.6</ele>
        <time>2021-05-29 12:52:08</time>
      </trkpt>
      <trkpt lat="43.29561" lon="-2.35383">
        <ele>-19.6</ele>
        <time>2021-05-29 12:52:09</time>
      </trkpt>
      <trkpt lat="43.29562" lon="-2.35383">
        <ele>-19.6</ele>
        <time>2021-05-29 12:52:10</time>
      </trkpt>
      <trkpt lat="43.29558" lon="-2.35389">
        <ele>-19.4</ele>
        <time>2021-05-29 12:54:00</time>
      </trkpt>
      <trkpt lat="43.29557" lon="-2.35392">
        <ele>-19.2</ele>
        <time>2021-05-29 12:54:01</time>
      </trkpt>
      <trkpt lat="43.29556" lon="-2.35395">
        <ele>-19.2</ele>
        <time>2021-05-29 12:54:02</time>
      </trkpt>
      <trkpt lat="43.29555" lon="-2.35399">
        <ele>-19.2</ele>
        <time>2021-05-29 12:54:03</time>
      </trkpt>
      <trkpt lat="43.29554" lon="-2.35403">
        <ele>-19.2</ele>
        <time>2021-05-29 12:54:04</time>
      </trkpt>
      <trkpt lat="43.29553" lon="-2.35407">
        <ele>-19.2</ele>
        <time>2021-05-29 12:54:05</time>
      </trkpt>
      <trkpt lat="43.29551" lon="-2.35412">
        <ele>-19.2</ele>
        <time>2021-05-29 12:54:06</time>
      </trkpt>
      <trkpt lat="43.2955" lon="-2.35417">
        <ele>-19.2</ele>
        <time>2021-05-29 12:54:07</time>
      </trkpt>
      <trkpt lat="43.29548" lon="-2.35422">
        <ele>-19.4</ele>
        <time>2021-05-29 12:54:08</time>
      </trkpt>
      <trkpt lat="43.29546" lon="-2.35427">
        <ele>-19.4</ele>
        <time>2021-05-29 12:54:09</time>
      </trkpt>
      <trkpt lat="43.29544" lon="-2.35433">
        <ele>-19.4</ele>
        <time>2021-05-29 12:54:10</time>
      </trkpt>
      <trkpt lat="43.29542" lon="-2.35438">
        <ele>-19.4</ele>
        <time>2021-05-29 12:54:11</time>
      </trkpt>
      <trkpt lat="43.2954" lon="-2.35444">
        <ele>-19.4</ele>
        <time>2021-05-29 12:54:12</time>
      </trkpt>
      <trkpt lat="43.29538" lon="-2.3545">
        <ele>-19.2</ele>
        <time>2021-05-29 12:54:13</time>
      </trkpt>
      <trkpt lat="43.29536" lon="-2.35455">
        <ele>-19.2</ele>
        <time>2021-05-29 12:54:14</time>
      </trkpt>
      <trkpt lat="43.29534" lon="-2.35461">
        <ele>-19.4</ele>
        <time>2021-05-29 12:54:15</time>
      </trkpt>
      <trkpt lat="43.29532" lon="-2.35466">
        <ele>-19.4</ele>
        <time>2021-05-29 12:54:16</time>
      </trkpt>
      <trkpt lat="43.2953" lon="-2.35471">
        <ele>-19.4</ele>
        <time>2021-05-29 12:54:17</time>
      </trkpt>
      <trkpt lat="43.29527" lon="-2.35476">
        <ele>-19.4</ele>
        <time>2021-05-29 12:54:18</time>
      </trkpt>
      <trkpt lat="43.29524" lon="-2.3548">
        <ele>-19.4</ele>
        <time>2021-05-29 12:54:19</time>
      </trkpt>
      <trkpt lat="43.29521" lon="-2.35483">
        <ele>-19.4</ele>
        <time>2021-05-29 12:54:20</time>
      </trkpt>
      <trkpt lat="43.29518" lon="-2.35486">
        <ele>-19.4</ele>
        <time>2021-05-29 12:54:21</time>
      </trkpt>
      <trkpt lat="43.29515" lon="-2.35488">
        <ele>-19.4</ele>
        <time>2021-05-29 12:54:22</time>
      </trkpt>
      <trkpt lat="43.29513" lon="-2.3549">
        <ele>-19.4</ele>
        <time>2021-05-29 12:54:23</time>
      </trkpt>
      <trkpt lat="43.29511" lon="-2.35491">
        <ele>-19.4</ele>
        <time>2021-05-29 12:54:24</time>
      </trkpt>
      <trkpt lat="43.2951" lon="-2.35491">
        <ele>-19.4</ele>
        <time>2021-05-29 12:54:25</time>
      </trkpt>
      <trkpt lat="43.29507" lon="-2.35491">
        <ele>-19.4</ele>
        <time>2021-05-29 12:54:26</time>
      </trkpt>
      <trkpt lat="43.29504" lon="-2.35491">
        <ele>-19.4</ele>
        <time>2021-05-29 12:54:27</time>
      </trkpt>
      <trkpt lat="43.29501" lon="-2.3549">
        <ele>-19.4</ele>
        <time>2021-05-29 12:54:28</time>
      </trkpt>
      <trkpt lat="43.29496" lon="-2.35491">
        <ele>-19.4</ele>
        <time>2021-05-29 12:54:29</time>
      </trkpt>
      <trkpt lat="43.29492" lon="-2.35492">
        <ele>-19.2</ele>
        <time>2021-05-29 12:54:30</time>
      </trkpt>
      <trkpt lat="43.29489" lon="-2.35494">
        <ele>-19.2</ele>
        <time>2021-05-29 12:54:31</time>
      </trkpt>
      <trkpt lat="43.29485" lon="-2.35497">
        <ele>-19.2</ele>
        <time>2021-05-29 12:54:32</time>
      </trkpt>
      <trkpt lat="43.2948" lon="-2.355">
        <ele>-19.2</ele>
        <time>2021-05-29 12:54:33</time>
      </trkpt>
      <trkpt lat="43.29475" lon="-2.35502">
        <ele>-19.2</ele>
        <time>2021-05-29 12:54:34</time>
      </trkpt>
      <trkpt lat="43.2947" lon="-2.35505">
        <ele>-19.2</ele>
        <time>2021-05-29 12:54:35</time>
      </trkpt>
      <trkpt lat="43.2946" lon="-2.35513">
        <ele>-19.2</ele>
        <time>2021-05-29 12:54:36</time>
      </trkpt>
      <trkpt lat="43.2945" lon="-2.35518">
        <ele>-19.2</ele>
        <time>2021-05-29 12:54:37</time>
      </trkpt>
      <trkpt lat="43.29443" lon="-2.35522">
        <ele>-19.2</ele>
        <time>2021-05-29 12:54:38</time>
      </trkpt>
      <trkpt lat="43.29437" lon="-2.35526">
        <ele>-19.4</ele>
        <time>2021-05-29 12:54:39</time>
      </trkpt>
      <trkpt lat="43.2943" lon="-2.35528">
        <ele>-19.4</ele>
        <time>2021-05-29 12:54:40</time>
      </trkpt>
      <trkpt lat="43.29423" lon="-2.35528">
        <ele>-19.4</ele>
        <time>2021-05-29 12:54:41</time>
      </trkpt>
      <trkpt lat="43.29417" lon="-2.35529">
        <ele>-19.4</ele>
        <time>2021-05-29 12:54:42</time>
      </trkpt>
      <trkpt lat="43.2941" lon="-2.35529">
        <ele>-19.6</ele>
        <time>2021-05-29 12:54:43</time>
      </trkpt>
      <trkpt lat="43.29403" lon="-2.35529">
        <ele>-19.4</ele>
        <time>2021-05-29 12:54:44</time>
      </trkpt>
      <trkpt lat="43.29396" lon="-2.35529">
        <ele>-19.4</ele>
        <time>2021-05-29 12:54:45</time>
      </trkpt>
      <trkpt lat="43.29389" lon="-2.35528">
        <ele>-19.6</ele>
        <time>2021-05-29 12:54:46</time>
      </trkpt>
      <trkpt lat="43.29381" lon="-2.35526">
        <ele>-19.6</ele>
        <time>2021-05-29 12:54:47</time>
      </trkpt>
      <trkpt lat="43.29373" lon="-2.35525">
        <ele>-19.6</ele>
        <time>2021-05-29 12:54:48</time>
      </trkpt>
      <trkpt lat="43.29365" lon="-2.35525">
        <ele>-19.6</ele>
        <time>2021-05-29 12:54:49</time>
      </trkpt>
      <trkpt lat="43.29357" lon="-2.35525">
        <ele>-19.8</ele>
        <time>2021-05-29 12:54:50</time>
      </trkpt>
      <trkpt lat="43.29348" lon="-2.35526">
        <ele>-19.8</ele>
        <time>2021-05-29 12:54:51</time>
      </trkpt>
      <trkpt lat="43.2934" lon="-2.35528">
        <ele>-19.8</ele>
        <time>2021-05-29 12:54:52</time>
      </trkpt>
      <trkpt lat="43.29332" lon="-2.35531">
        <ele>-19.8</ele>
        <time>2021-05-29 12:54:53</time>
      </trkpt>
      <trkpt lat="43.29324" lon="-2.35535">
        <ele>-20</ele>
        <time>2021-05-29 12:54:54</time>
      </trkpt>
      <trkpt lat="43.29316" lon="-2.3554">
        <ele>-20</ele>
        <time>2021-05-29 12:54:55</time>
      </trkpt>
      <trkpt lat="43.29308" lon="-2.35545">
        <ele>-20</ele>
        <time>2021-05-29 12:54:56</time>
      </trkpt>
      <trkpt lat="43.29301" lon="-2.3555">
        <ele>-20</ele>
        <time>2021-05-29 12:54:57</time>
      </trkpt>
      <trkpt lat="43.29293" lon="-2.35555">
        <ele>-19.8</ele>
        <time>2021-05-29 12:54:58</time>
      </trkpt>
      <trkpt lat="43.29286" lon="-2.3556">
        <ele>-19.8</ele>
        <time>2021-05-29 12:54:59</time>
      </trkpt>
      <trkpt lat="43.29278" lon="-2.35566">
        <ele>-19.8</ele>
        <time>2021-05-29 12:55:00</time>
      </trkpt>
      <trkpt lat="43.2927" lon="-2.35573">
        <ele>-20</ele>
        <time>2021-05-29 12:55:01</time>
      </trkpt>
      <trkpt lat="43.29263" lon="-2.3558">
        <ele>-20</ele>
        <time>2021-05-29 12:55:02</time>
      </trkpt>
      <trkpt lat="43.29256" lon="-2.35586">
        <ele>-20</ele>
        <time>2021-05-29 12:55:03</time>
      </trkpt>
      <trkpt lat="43.29248" lon="-2.35592">
        <ele>-20</ele>
        <time>2021-05-29 12:55:04</time>
      </trkpt>
      <trkpt lat="43.29241" lon="-2.35598">
        <ele>-20</ele>
        <time>2021-05-29 12:55:05</time>
      </trkpt>
      <trkpt lat="43.29233" lon="-2.35605">
        <ele>-20</ele>
        <time>2021-05-29 12:55:06</time>
      </trkpt>
      <trkpt lat="43.29225" lon="-2.35612">
        <ele>-20</ele>
        <time>2021-05-29 12:55:07</time>
      </trkpt>
      <trkpt lat="43.29218" lon="-2.35619">
        <ele>-20</ele>
        <time>2021-05-29 12:55:08</time>
      </trkpt>
      <trkpt lat="43.2921" lon="-2.35624">
        <ele>-20</ele>
        <time>2021-05-29 12:55:09</time>
      </trkpt>
      <trkpt lat="43.29202" lon="-2.35629">
        <ele>-20</ele>
        <time>2021-05-29 12:55:10</time>
      </trkpt>
      <trkpt lat="43.29193" lon="-2.35634">
        <ele>-20</ele>
        <time>2021-05-29 12:55:11</time>
      </trkpt>
      <trkpt lat="43.29185" lon="-2.35638">
        <ele>-20</ele>
        <time>2021-05-29 12:55:12</time>
      </trkpt>
      <trkpt lat="43.29177" lon="-2.35642">
        <ele>-19.8</ele>
        <time>2021-05-29 12:55:13</time>
      </trkpt>
      <trkpt lat="43.29169" lon="-2.35646">
        <ele>-19.8</ele>
        <time>2021-05-29 12:55:14</time>
      </trkpt>
      <trkpt lat="43.29161" lon="-2.35649">
        <ele>-19.8</ele>
        <time>2021-05-29 12:55:15</time>
      </trkpt>
      <trkpt lat="43.29153" lon="-2.35653">
        <ele>-19.8</ele>
        <time>2021-05-29 12:55:16</time>
      </trkpt>
      <trkpt lat="43.29144" lon="-2.35656">
        <ele>-19.8</ele>
        <time>2021-05-29 12:55:17</time>
      </trkpt>
      <trkpt lat="43.29136" lon="-2.35659">
        <ele>-19.8</ele>
        <time>2021-05-29 12:55:18</time>
      </trkpt>
      <trkpt lat="43.29128" lon="-2.35663">
        <ele>-19.8</ele>
        <time>2021-05-29 12:55:19</time>
      </trkpt>
      <trkpt lat="43.29119" lon="-2.35667">
        <ele>-19.8</ele>
        <time>2021-05-29 12:55:20</time>
      </trkpt>
      <trkpt lat="43.29111" lon="-2.3567">
        <ele>-19.6</ele>
        <time>2021-05-29 12:55:21</time>
      </trkpt>
      <trkpt lat="43.29103" lon="-2.35673">
        <ele>-19.6</ele>
        <time>2021-05-29 12:55:22</time>
      </trkpt>
      <trkpt lat="43.29095" lon="-2.35678">
        <ele>-19.6</ele>
        <time>2021-05-29 12:55:23</time>
      </trkpt>
      <trkpt lat="43.29086" lon="-2.35682">
        <ele>-19.4</ele>
        <time>2021-05-29 12:55:24</time>
      </trkpt>
      <trkpt lat="43.29078" lon="-2.35687">
        <ele>-19.6</ele>
        <time>2021-05-29 12:55:25</time>
      </trkpt>
      <trkpt lat="43.29069" lon="-2.35691">
        <ele>-19.4</ele>
        <time>2021-05-29 12:55:26</time>
      </trkpt>
      <trkpt lat="43.29061" lon="-2.35695">
        <ele>-19.4</ele>
        <time>2021-05-29 12:55:27</time>
      </trkpt>
      <trkpt lat="43.29053" lon="-2.35699">
        <ele>-19.2</ele>
        <time>2021-05-29 12:55:28</time>
      </trkpt>
      <trkpt lat="43.29045" lon="-2.35702">
        <ele>-19.2</ele>
        <time>2021-05-29 12:55:29</time>
      </trkpt>
      <trkpt lat="43.29038" lon="-2.35705">
        <ele>-19.2</ele>
        <time>2021-05-29 12:55:30</time>
      </trkpt>
      <trkpt lat="43.2903" lon="-2.35707">
        <ele>-19.2</ele>
        <time>2021-05-29 12:55:31</time>
      </trkpt>
      <trkpt lat="43.29023" lon="-2.35709">
        <ele>-19</ele>
        <time>2021-05-29 12:55:32</time>
      </trkpt>
      <trkpt lat="43.29016" lon="-2.3571">
        <ele>-19</ele>
        <time>2021-05-29 12:55:33</time>
      </trkpt>
      <trkpt lat="43.29008" lon="-2.35712">
        <ele>-18.8</ele>
        <time>2021-05-29 12:55:34</time>
      </trkpt>
      <trkpt lat="43.29001" lon="-2.35713">
        <ele>-18.4</ele>
        <time>2021-05-29 12:55:35</time>
      </trkpt>
      <trkpt lat="43.28993" lon="-2.35715">
        <ele>-18</ele>
        <time>2021-05-29 12:55:36</time>
      </trkpt>
      <trkpt lat="43.28986" lon="-2.35716">
        <ele>-17.6</ele>
        <time>2021-05-29 12:55:37</time>
      </trkpt>
      <trkpt lat="43.28977" lon="-2.35717">
        <ele>-17.2</ele>
        <time>2021-05-29 12:55:38</time>
      </trkpt>
      <trkpt lat="43.28969" lon="-2.35718">
        <ele>-17</ele>
        <time>2021-05-29 12:55:39</time>
      </trkpt>
      <trkpt lat="43.2896" lon="-2.3572">
        <ele>-16.6</ele>
        <time>2021-05-29 12:55:40</time>
      </trkpt>
      <trkpt lat="43.28952" lon="-2.35722">
        <ele>-16.4</ele>
        <time>2021-05-29 12:55:41</time>
      </trkpt>
      <trkpt lat="43.28943" lon="-2.35725">
        <ele>-16.2</ele>
        <time>2021-05-29 12:55:42</time>
      </trkpt>
      <trkpt lat="43.28935" lon="-2.35729">
        <ele>-16.2</ele>
        <time>2021-05-29 12:55:43</time>
      </trkpt>
      <trkpt lat="43.28927" lon="-2.35735">
        <ele>-16</ele>
        <time>2021-05-29 12:55:44</time>
      </trkpt>
      <trkpt lat="43.28919" lon="-2.35741">
        <ele>-16</ele>
        <time>2021-05-29 12:55:45</time>
      </trkpt>
      <trkpt lat="43.28911" lon="-2.35749">
        <ele>-16</ele>
        <time>2021-05-29 12:55:46</time>
      </trkpt>
      <trkpt lat="43.28905" lon="-2.35757">
        <ele>-16</ele>
        <time>2021-05-29 12:55:47</time>
      </trkpt>
      <trkpt lat="43.28898" lon="-2.35766">
        <ele>-16</ele>
        <time>2021-05-29 12:55:48</time>
      </trkpt>
      <trkpt lat="43.28892" lon="-2.35774">
        <ele>-16</ele>
        <time>2021-05-29 12:55:49</time>
      </trkpt>
      <trkpt lat="43.28885" lon="-2.35783">
        <ele>-16</ele>
        <time>2021-05-29 12:55:50</time>
      </trkpt>
      <trkpt lat="43.28879" lon="-2.35791">
        <ele>-16</ele>
        <time>2021-05-29 12:55:51</time>
      </trkpt>
      <trkpt lat="43.28873" lon="-2.358">
        <ele>-16</ele>
        <time>2021-05-29 12:55:52</time>
      </trkpt>
      <trkpt lat="43.28867" lon="-2.35809">
        <ele>-16</ele>
        <time>2021-05-29 12:55:53</time>
      </trkpt>
      <trkpt lat="43.28861" lon="-2.35817">
        <ele>-16</ele>
        <time>2021-05-29 12:55:54</time>
      </trkpt>
      <trkpt lat="43.28855" lon="-2.35826">
        <ele>-16</ele>
        <time>2021-05-29 12:55:55</time>
      </trkpt>
      <trkpt lat="43.28849" lon="-2.35836">
        <ele>-16</ele>
        <time>2021-05-29 12:55:56</time>
      </trkpt>
      <trkpt lat="43.28843" lon="-2.35845">
        <ele>-16</ele>
        <time>2021-05-29 12:55:57</time>
      </trkpt>
      <trkpt lat="43.28838" lon="-2.35855">
        <ele>-16</ele>
        <time>2021-05-29 12:55:58</time>
      </trkpt>
      <trkpt lat="43.28833" lon="-2.35865">
        <ele>-16</ele>
        <time>2021-05-29 12:55:59</time>
      </trkpt>
      <trkpt lat="43.28829" lon="-2.35876">
        <ele>-16</ele>
        <time>2021-05-29 12:56:00</time>
      </trkpt>
      <trkpt lat="43.28825" lon="-2.35888">
        <ele>-15.8</ele>
        <time>2021-05-29 12:56:01</time>
      </trkpt>
      <trkpt lat="43.28822" lon="-2.35899">
        <ele>-15.8</ele>
        <time>2021-05-29 12:56:02</time>
      </trkpt>
      <trkpt lat="43.2882" lon="-2.35912">
        <ele>-15.8</ele>
        <time>2021-05-29 12:56:03</time>
      </trkpt>
      <trkpt lat="43.28818" lon="-2.35925">
        <ele>-15.8</ele>
        <time>2021-05-29 12:56:04</time>
      </trkpt>
      <trkpt lat="43.28816" lon="-2.35938">
        <ele>-15.8</ele>
        <time>2021-05-29 12:56:05</time>
      </trkpt>
      <trkpt lat="43.28816" lon="-2.35952">
        <ele>-15.8</ele>
        <time>2021-05-29 12:56:06</time>
      </trkpt>
      <trkpt lat="43.28816" lon="-2.35965">
        <ele>-15.8</ele>
        <time>2021-05-29 12:56:07</time>
      </trkpt>
      <trkpt lat="43.28816" lon="-2.35979">
        <ele>-15.8</ele>
        <time>2021-05-29 12:56:08</time>
      </trkpt>
      <trkpt lat="43.28818" lon="-2.35993">
        <ele>-15.8</ele>
        <time>2021-05-29 12:56:09</time>
      </trkpt>
      <trkpt lat="43.28821" lon="-2.36007">
        <ele>-16</ele>
        <time>2021-05-29 12:56:10</time>
      </trkpt>
      <trkpt lat="43.28824" lon="-2.3602">
        <ele>-16.2</ele>
        <time>2021-05-29 12:56:11</time>
      </trkpt>
      <trkpt lat="43.28828" lon="-2.36033">
        <ele>-16.4</ele>
        <time>2021-05-29 12:56:12</time>
      </trkpt>
      <trkpt lat="43.28832" lon="-2.36046">
        <ele>-16.4</ele>
        <time>2021-05-29 12:56:13</time>
      </trkpt>
      <trkpt lat="43.28836" lon="-2.3606">
        <ele>-16.6</ele>
        <time>2021-05-29 12:56:14</time>
      </trkpt>
      <trkpt lat="43.2884" lon="-2.36073">
        <ele>-16.6</ele>
        <time>2021-05-29 12:56:15</time>
      </trkpt>
      <trkpt lat="43.28844" lon="-2.36086">
        <ele>-17</ele>
        <time>2021-05-29 12:56:16</time>
      </trkpt>
      <trkpt lat="43.28849" lon="-2.36098">
        <ele>-17.2</ele>
        <time>2021-05-29 12:56:17</time>
      </trkpt>
      <trkpt lat="43.28854" lon="-2.36111">
        <ele>-17.2</ele>
        <time>2021-05-29 12:56:18</time>
      </trkpt>
      <trkpt lat="43.28859" lon="-2.36123">
        <ele>-17.2</ele>
        <time>2021-05-29 12:56:19</time>
      </trkpt>
      <trkpt lat="43.28865" lon="-2.36136">
        <ele>-17.4</ele>
        <time>2021-05-29 12:56:20</time>
      </trkpt>
      <trkpt lat="43.28871" lon="-2.36147">
        <ele>-17.6</ele>
        <time>2021-05-29 12:56:21</time>
      </trkpt>
      <trkpt lat="43.28878" lon="-2.36158">
        <ele>-18</ele>
        <time>2021-05-29 12:56:22</time>
      </trkpt>
      <trkpt lat="43.28884" lon="-2.36169">
        <ele>-18.4</ele>
        <time>2021-05-29 12:56:23</time>
      </trkpt>
      <trkpt lat="43.28891" lon="-2.36179">
        <ele>-18.4</ele>
        <time>2021-05-29 12:56:24</time>
      </trkpt>
      <trkpt lat="43.28898" lon="-2.36189">
        <ele>-18.4</ele>
        <time>2021-05-29 12:56:25</time>
      </trkpt>
      <trkpt lat="43.28905" lon="-2.36198">
        <ele>-18.4</ele>
        <time>2021-05-29 12:56:26</time>
      </trkpt>
      <trkpt lat="43.28912" lon="-2.36207">
        <ele>-18.6</ele>
        <time>2021-05-29 12:56:27</time>
      </trkpt>
      <trkpt lat="43.28919" lon="-2.36214">
        <ele>-18.4</ele>
        <time>2021-05-29 12:56:28</time>
      </trkpt>
      <trkpt lat="43.28927" lon="-2.36222">
        <ele>-18.4</ele>
        <time>2021-05-29 12:56:29</time>
      </trkpt>
      <trkpt lat="43.28934" lon="-2.36229">
        <ele>-18.4</ele>
        <time>2021-05-29 12:56:30</time>
      </trkpt>
      <trkpt lat="43.28941" lon="-2.36236">
        <ele>-18.4</ele>
        <time>2021-05-29 12:56:31</time>
      </trkpt>
      <trkpt lat="43.28949" lon="-2.36243">
        <ele>-18.4</ele>
        <time>2021-05-29 12:56:32</time>
      </trkpt>
      <trkpt lat="43.28956" lon="-2.3625">
        <ele>-18.4</ele>
        <time>2021-05-29 12:56:33</time>
      </trkpt>
      <trkpt lat="43.28963" lon="-2.36257">
        <ele>-18.4</ele>
        <time>2021-05-29 12:56:34</time>
      </trkpt>
      <trkpt lat="43.2897" lon="-2.36263">
        <ele>-18.2</ele>
        <time>2021-05-29 12:56:35</time>
      </trkpt>
      <trkpt lat="43.28977" lon="-2.3627">
        <ele>-18</ele>
        <time>2021-05-29 12:56:36</time>
      </trkpt>
      <trkpt lat="43.28984" lon="-2.36277">
        <ele>-17.8</ele>
        <time>2021-05-29 12:56:37</time>
      </trkpt>
      <trkpt lat="43.28991" lon="-2.36283">
        <ele>-17.6</ele>
        <time>2021-05-29 12:56:38</time>
      </trkpt>
      <trkpt lat="43.28998" lon="-2.3629">
        <ele>-17.4</ele>
        <time>2021-05-29 12:56:39</time>
      </trkpt>
      <trkpt lat="43.29004" lon="-2.36297">
        <ele>-17.2</ele>
        <time>2021-05-29 12:56:40</time>
      </trkpt>
      <trkpt lat="43.29011" lon="-2.36304">
        <ele>-17</ele>
        <time>2021-05-29 12:56:41</time>
      </trkpt>
      <trkpt lat="43.29017" lon="-2.36312">
        <ele>-16.8</ele>
        <time>2021-05-29 12:56:42</time>
      </trkpt>
      <trkpt lat="43.29023" lon="-2.36319">
        <ele>-16.6</ele>
        <time>2021-05-29 12:56:43</time>
      </trkpt>
      <trkpt lat="43.29028" lon="-2.36326">
        <ele>-16.4</ele>
        <time>2021-05-29 12:56:44</time>
      </trkpt>
      <trkpt lat="43.29034" lon="-2.36333">
        <ele>-16</ele>
        <time>2021-05-29 12:56:45</time>
      </trkpt>
      <trkpt lat="43.2904" lon="-2.3634">
        <ele>-15.6</ele>
        <time>2021-05-29 12:56:46</time>
      </trkpt>
      <trkpt lat="43.29046" lon="-2.36345">
        <ele>-15.6</ele>
        <time>2021-05-29 12:56:47</time>
      </trkpt>
      <trkpt lat="43.29052" lon="-2.3635">
        <ele>-15.4</ele>
        <time>2021-05-29 12:56:48</time>
      </trkpt>
      <trkpt lat="43.29059" lon="-2.36353">
        <ele>-15</ele>
        <time>2021-05-29 12:56:49</time>
      </trkpt>
      <trkpt lat="43.29064" lon="-2.36355">
        <ele>-14.8</ele>
        <time>2021-05-29 12:56:50</time>
      </trkpt>
      <trkpt lat="43.2907" lon="-2.36356">
        <ele>-14.4</ele>
        <time>2021-05-29 12:56:51</time>
      </trkpt>
      <trkpt lat="43.29076" lon="-2.36354">
        <ele>-14.4</ele>
        <time>2021-05-29 12:56:52</time>
      </trkpt>
      <trkpt lat="43.29081" lon="-2.3635">
        <ele>-14.2</ele>
        <time>2021-05-29 12:56:53</time>
      </trkpt>
      <trkpt lat="43.29086" lon="-2.36346">
        <ele>-13.8</ele>
        <time>2021-05-29 12:56:54</time>
      </trkpt>
      <trkpt lat="43.29091" lon="-2.36341">
        <ele>-13.4</ele>
        <time>2021-05-29 12:56:55</time>
      </trkpt>
      <trkpt lat="43.29096" lon="-2.36336">
        <ele>-13.2</ele>
        <time>2021-05-29 12:56:56</time>
      </trkpt>
      <trkpt lat="43.29101" lon="-2.36328">
        <ele>-12.8</ele>
        <time>2021-05-29 12:56:57</time>
      </trkpt>
      <trkpt lat="43.29105" lon="-2.36319">
        <ele>-12.2</ele>
        <time>2021-05-29 12:56:58</time>
      </trkpt>
      <trkpt lat="43.29107" lon="-2.36308">
        <ele>-11.8</ele>
        <time>2021-05-29 12:56:59</time>
      </trkpt>
      <trkpt lat="43.29109" lon="-2.36298">
        <ele>-11.2</ele>
        <time>2021-05-29 12:57:00</time>
      </trkpt>
      <trkpt lat="43.2911" lon="-2.36287">
        <ele>-11.2</ele>
        <time>2021-05-29 12:57:01</time>
      </trkpt>
      <trkpt lat="43.29112" lon="-2.36276">
        <ele>-11</ele>
        <time>2021-05-29 12:57:02</time>
      </trkpt>
      <trkpt lat="43.29114" lon="-2.36265">
        <ele>-11</ele>
        <time>2021-05-29 12:57:03</time>
      </trkpt>
      <trkpt lat="43.29117" lon="-2.36254">
        <ele>-11</ele>
        <time>2021-05-29 12:57:04</time>
      </trkpt>
      <trkpt lat="43.29119" lon="-2.36243">
        <ele>-11</ele>
        <time>2021-05-29 12:57:05</time>
      </trkpt>
      <trkpt lat="43.29122" lon="-2.36232">
        <ele>-11</ele>
        <time>2021-05-29 12:57:06</time>
      </trkpt>
      <trkpt lat="43.29124" lon="-2.3622">
        <ele>-11</ele>
        <time>2021-05-29 12:57:07</time>
      </trkpt>
      <trkpt lat="43.29127" lon="-2.36209">
        <ele>-11</ele>
        <time>2021-05-29 12:57:08</time>
      </trkpt>
      <trkpt lat="43.2913" lon="-2.36197">
        <ele>-11</ele>
        <time>2021-05-29 12:57:09</time>
      </trkpt>
      <trkpt lat="43.29133" lon="-2.36186">
        <ele>-11.2</ele>
        <time>2021-05-29 12:57:10</time>
      </trkpt>
      <trkpt lat="43.29136" lon="-2.36174">
        <ele>-11.2</ele>
        <time>2021-05-29 12:57:11</time>
      </trkpt>
      <trkpt lat="43.29139" lon="-2.36163">
        <ele>-11.4</ele>
        <time>2021-05-29 12:57:12</time>
      </trkpt>
      <trkpt lat="43.29142" lon="-2.36151">
        <ele>-11.6</ele>
        <time>2021-05-29 12:57:13</time>
      </trkpt>
      <trkpt lat="43.29145" lon="-2.3614">
        <ele>-11.6</ele>
        <time>2021-05-29 12:57:14</time>
      </trkpt>
      <trkpt lat="43.29148" lon="-2.36128">
        <ele>-11.6</ele>
        <time>2021-05-29 12:57:15</time>
      </trkpt>
      <trkpt lat="43.29151" lon="-2.36116">
        <ele>-11.8</ele>
        <time>2021-05-29 12:57:16</time>
      </trkpt>
      <trkpt lat="43.29154" lon="-2.36104">
        <ele>-12</ele>
        <time>2021-05-29 12:57:17</time>
      </trkpt>
      <trkpt lat="43.29157" lon="-2.36093">
        <ele>-12</ele>
        <time>2021-05-29 12:57:18</time>
      </trkpt>
      <trkpt lat="43.2916" lon="-2.36081">
        <ele>-12.2</ele>
        <time>2021-05-29 12:57:19</time>
      </trkpt>
      <trkpt lat="43.29163" lon="-2.3607">
        <ele>-12.2</ele>
        <time>2021-05-29 12:57:20</time>
      </trkpt>
      <trkpt lat="43.29166" lon="-2.36058">
        <ele>-12.2</ele>
        <time>2021-05-29 12:57:21</time>
      </trkpt>
      <trkpt lat="43.29168" lon="-2.36046">
        <ele>-12.4</ele>
        <time>2021-05-29 12:57:22</time>
      </trkpt>
      <trkpt lat="43.29171" lon="-2.36034">
        <ele>-12.4</ele>
        <time>2021-05-29 12:57:23</time>
      </trkpt>
      <trkpt lat="43.29174" lon="-2.36021">
        <ele>-12.4</ele>
        <time>2021-05-29 12:57:24</time>
      </trkpt>
      <trkpt lat="43.29177" lon="-2.36009">
        <ele>-12.8</ele>
        <time>2021-05-29 12:57:25</time>
      </trkpt>
      <trkpt lat="43.2918" lon="-2.35997">
        <ele>-13</ele>
        <time>2021-05-29 12:57:26</time>
      </trkpt>
      <trkpt lat="43.29183" lon="-2.35985">
        <ele>-13.2</ele>
        <time>2021-05-29 12:57:27</time>
      </trkpt>
      <trkpt lat="43.29186" lon="-2.35972">
        <ele>-13.2</ele>
        <time>2021-05-29 12:57:28</time>
      </trkpt>
      <trkpt lat="43.29188" lon="-2.3596">
        <ele>-13.2</ele>
        <time>2021-05-29 12:57:29</time>
      </trkpt>
      <trkpt lat="43.29191" lon="-2.35947">
        <ele>-13.4</ele>
        <time>2021-05-29 12:57:30</time>
      </trkpt>
      <trkpt lat="43.29342" lon="-2.35804">
        <ele>-14.8</ele>
        <time>2021-05-29 12:57:31</time>
      </trkpt>
      <trkpt lat="43.29336" lon="-2.35788">
        <ele>-14.8</ele>
        <time>2021-05-29 12:57:32</time>
      </trkpt>
      <trkpt lat="43.29338" lon="-2.35775">
        <ele>-15</ele>
        <time>2021-05-29 12:57:33</time>
      </trkpt>
      <trkpt lat="43.29346" lon="-2.35766">
        <ele>-15</ele>
        <time>2021-05-29 12:57:34</time>
      </trkpt>
      <trkpt lat="43.29354" lon="-2.35756">
        <ele>-15</ele>
        <time>2021-05-29 12:57:35</time>
      </trkpt>
      <trkpt lat="43.29365" lon="-2.35749">
        <ele>-15.2</ele>
        <time>2021-05-29 12:57:36</time>
      </trkpt>
      <trkpt lat="43.29374" lon="-2.35742">
        <ele>-15.2</ele>
        <time>2021-05-29 12:57:37</time>
      </trkpt>
      <trkpt lat="43.29384" lon="-2.35735">
        <ele>-15.2</ele>
        <time>2021-05-29 12:57:38</time>
      </trkpt>
      <trkpt lat="43.29395" lon="-2.35728">
        <ele>-15.2</ele>
        <time>2021-05-29 12:57:39</time>
      </trkpt>
      <trkpt lat="43.29404" lon="-2.3572">
        <ele>-15.2</ele>
        <time>2021-05-29 12:57:40</time>
      </trkpt>
      <trkpt lat="43.29413" lon="-2.35712">
        <ele>-15.2</ele>
        <time>2021-05-29 12:57:41</time>
      </trkpt>
      <trkpt lat="43.29422" lon="-2.35705">
        <ele>-15.4</ele>
        <time>2021-05-29 12:57:42</time>
      </trkpt>
      <trkpt lat="43.29431" lon="-2.35699">
        <ele>-15.6</ele>
        <time>2021-05-29 12:57:43</time>
      </trkpt>
      <trkpt lat="43.29439" lon="-2.35693">
        <ele>-15.8</ele>
        <time>2021-05-29 12:57:44</time>
      </trkpt>
      <trkpt lat="43.29448" lon="-2.35687">
        <ele>-16.4</ele>
        <time>2021-05-29 12:57:45</time>
      </trkpt>
      <trkpt lat="43.29456" lon="-2.35681">
        <ele>-16.8</ele>
        <time>2021-05-29 12:57:46</time>
      </trkpt>
      <trkpt lat="43.29464" lon="-2.35674">
        <ele>-17</ele>
        <time>2021-05-29 12:57:47</time>
      </trkpt>
      <trkpt lat="43.29472" lon="-2.35668">
        <ele>-17.2</ele>
        <time>2021-05-29 12:57:48</time>
      </trkpt>
      <trkpt lat="43.29481" lon="-2.35663">
        <ele>-17.4</ele>
        <time>2021-05-29 12:57:49</time>
      </trkpt>
      <trkpt lat="43.29489" lon="-2.35658">
        <ele>-17.4</ele>
        <time>2021-05-29 12:57:50</time>
      </trkpt>
      <trkpt lat="43.29497" lon="-2.35655">
        <ele>-17.6</ele>
        <time>2021-05-29 12:57:51</time>
      </trkpt>
      <trkpt lat="43.29505" lon="-2.35654">
        <ele>-17.6</ele>
        <time>2021-05-29 12:57:52</time>
      </trkpt>
      <trkpt lat="43.29513" lon="-2.35654">
        <ele>-17.6</ele>
        <time>2021-05-29 12:57:53</time>
      </trkpt>
      <trkpt lat="43.29521" lon="-2.35654">
        <ele>-17.6</ele>
        <time>2021-05-29 12:57:54</time>
      </trkpt>
      <trkpt lat="43.29529" lon="-2.35654">
        <ele>-17.6</ele>
        <time>2021-05-29 12:57:55</time>
      </trkpt>
      <trkpt lat="43.29538" lon="-2.35655">
        <ele>-17.6</ele>
        <time>2021-05-29 12:57:56</time>
      </trkpt>
      <trkpt lat="43.29546" lon="-2.35656">
        <ele>-17.6</ele>
        <time>2021-05-29 12:57:57</time>
      </trkpt>
      <trkpt lat="43.29553" lon="-2.35656">
        <ele>-17.8</ele>
        <time>2021-05-29 12:57:58</time>
      </trkpt>
      <trkpt lat="43.29561" lon="-2.35657">
        <ele>-17.8</ele>
        <time>2021-05-29 12:57:59</time>
      </trkpt>
      <trkpt lat="43.29569" lon="-2.35658">
        <ele>-17.8</ele>
        <time>2021-05-29 12:58:00</time>
      </trkpt>
      <trkpt lat="43.29577" lon="-2.35659">
        <ele>-17.8</ele>
        <time>2021-05-29 12:58:01</time>
      </trkpt>
      <trkpt lat="43.29584" lon="-2.3566">
        <ele>-17.8</ele>
        <time>2021-05-29 12:58:02</time>
      </trkpt>
      <trkpt lat="43.29592" lon="-2.35661">
        <ele>-17.8</ele>
        <time>2021-05-29 12:58:03</time>
      </trkpt>
      <trkpt lat="43.29599" lon="-2.35662">
        <ele>-17.8</ele>
        <time>2021-05-29 12:58:04</time>
      </trkpt>
      <trkpt lat="43.29607" lon="-2.35663">
        <ele>-18</ele>
        <time>2021-05-29 12:58:05</time>
      </trkpt>
      <trkpt lat="43.29614" lon="-2.35665">
        <ele>-18</ele>
        <time>2021-05-29 12:58:06</time>
      </trkpt>
      <trkpt lat="43.29622" lon="-2.35668">
        <ele>-18</ele>
        <time>2021-05-29 12:58:07</time>
      </trkpt>
      <trkpt lat="43.29629" lon="-2.35672">
        <ele>-18</ele>
        <time>2021-05-29 12:58:08</time>
      </trkpt>
      <trkpt lat="43.29636" lon="-2.35675">
        <ele>-18</ele>
        <time>2021-05-29 12:58:09</time>
      </trkpt>
      <trkpt lat="43.29643" lon="-2.35679">
        <ele>-18</ele>
        <time>2021-05-29 12:58:10</time>
      </trkpt>
      <trkpt lat="43.2965" lon="-2.35683">
        <ele>-18</ele>
        <time>2021-05-29 12:58:11</time>
      </trkpt>
      <trkpt lat="43.29657" lon="-2.35688">
        <ele>-18</ele>
        <time>2021-05-29 12:58:12</time>
      </trkpt>
      <trkpt lat="43.29664" lon="-2.35693">
        <ele>-18</ele>
        <time>2021-05-29 12:58:13</time>
      </trkpt>
      <trkpt lat="43.29672" lon="-2.35697">
        <ele>-18</ele>
        <time>2021-05-29 12:58:14</time>
      </trkpt>
      <trkpt lat="43.29679" lon="-2.35702">
        <ele>-18</ele>
        <time>2021-05-29 12:58:15</time>
      </trkpt>
      <trkpt lat="43.29687" lon="-2.35706">
        <ele>-18</ele>
        <time>2021-05-29 12:58:16</time>
      </trkpt>
      <trkpt lat="43.29694" lon="-2.3571">
        <ele>-18</ele>
        <time>2021-05-29 12:58:17</time>
      </trkpt>
      <trkpt lat="43.29702" lon="-2.35713">
        <ele>-18</ele>
        <time>2021-05-29 12:58:18</time>
      </trkpt>
      <trkpt lat="43.29709" lon="-2.35716">
        <ele>-18</ele>
        <time>2021-05-29 12:58:19</time>
      </trkpt>
      <trkpt lat="43.29717" lon="-2.35719">
        <ele>-18</ele>
        <time>2021-05-29 12:58:20</time>
      </trkpt>
      <trkpt lat="43.29725" lon="-2.35721">
        <ele>-18</ele>
        <time>2021-05-29 12:58:21</time>
      </trkpt>
      <trkpt lat="43.29732" lon="-2.35723">
        <ele>-18</ele>
        <time>2021-05-29 12:58:22</time>
      </trkpt>
      <trkpt lat="43.2974" lon="-2.35725">
        <ele>-18</ele>
        <time>2021-05-29 12:58:23</time>
      </trkpt>
      <trkpt lat="43.29748" lon="-2.35726">
        <ele>-18</ele>
        <time>2021-05-29 12:58:24</time>
      </trkpt>
      <trkpt lat="43.29756" lon="-2.35727">
        <ele>-18</ele>
        <time>2021-05-29 12:58:25</time>
      </trkpt>
      <trkpt lat="43.29763" lon="-2.35727">
        <ele>-18</ele>
        <time>2021-05-29 12:58:26</time>
      </trkpt>
      <trkpt lat="43.29771" lon="-2.35726">
        <ele>-18</ele>
        <time>2021-05-29 12:58:27</time>
      </trkpt>
      <trkpt lat="43.29779" lon="-2.35725">
        <ele>-18</ele>
        <time>2021-05-29 12:58:28</time>
      </trkpt>
      <trkpt lat="43.29787" lon="-2.35723">
        <ele>-18</ele>
        <time>2021-05-29 12:58:29</time>
      </trkpt>
      <trkpt lat="43.29794" lon="-2.3572">
        <ele>-18</ele>
        <time>2021-05-29 12:58:30</time>
      </trkpt>
      <trkpt lat="43.29801" lon="-2.35717">
        <ele>-18</ele>
        <time>2021-05-29 12:58:31</time>
      </trkpt>
      <trkpt lat="43.29808" lon="-2.35712">
        <ele>-18</ele>
        <time>2021-05-29 12:58:32</time>
      </trkpt>
      <trkpt lat="43.29814" lon="-2.35707">
        <ele>-18</ele>
        <time>2021-05-29 12:58:33</time>
      </trkpt>
      <trkpt lat="43.2982" lon="-2.35701">
        <ele>-18</ele>
        <time>2021-05-29 12:58:34</time>
      </trkpt>
      <trkpt lat="43.29826" lon="-2.35695">
        <ele>-18</ele>
        <time>2021-05-29 12:58:35</time>
      </trkpt>
      <trkpt lat="43.29831" lon="-2.35689">
        <ele>-18</ele>
        <time>2021-05-29 12:58:36</time>
      </trkpt>
      <trkpt lat="43.29837" lon="-2.35683">
        <ele>-18</ele>
        <time>2021-05-29 12:58:37</time>
      </trkpt>
      <trkpt lat="43.29843" lon="-2.35676">
        <ele>-17.8</ele>
        <time>2021-05-29 12:58:38</time>
      </trkpt>
      <trkpt lat="43.29849" lon="-2.35671">
        <ele>-17.8</ele>
        <time>2021-05-29 12:58:39</time>
      </trkpt>
      <trkpt lat="43.29855" lon="-2.35665">
        <ele>-17.8</ele>
        <time>2021-05-29 12:58:40</time>
      </trkpt>
      <trkpt lat="43.29861" lon="-2.3566">
        <ele>-17.8</ele>
        <time>2021-05-29 12:58:41</time>
      </trkpt>
      <trkpt lat="43.29868" lon="-2.35654">
        <ele>-17.8</ele>
        <time>2021-05-29 12:58:42</time>
      </trkpt>
      <trkpt lat="43.29874" lon="-2.35649">
        <ele>-17.6</ele>
        <time>2021-05-29 12:58:43</time>
      </trkpt>
      <trkpt lat="43.29881" lon="-2.35644">
        <ele>-17.6</ele>
        <time>2021-05-29 12:58:44</time>
      </trkpt>
      <trkpt lat="43.29887" lon="-2.3564">
        <ele>-17.4</ele>
        <time>2021-05-29 12:58:45</time>
      </trkpt>
      <trkpt lat="43.29894" lon="-2.35637">
        <ele>-17.4</ele>
        <time>2021-05-29 12:58:46</time>
      </trkpt>
      <trkpt lat="43.29901" lon="-2.35636">
        <ele>-17.2</ele>
        <time>2021-05-29 12:58:47</time>
      </trkpt>
      <trkpt lat="43.29908" lon="-2.35636">
        <ele>-17.2</ele>
        <time>2021-05-29 12:58:48</time>
      </trkpt>
      <trkpt lat="43.29915" lon="-2.35637">
        <ele>-17</ele>
        <time>2021-05-29 12:58:49</time>
      </trkpt>
      <trkpt lat="43.29921" lon="-2.35639">
        <ele>-17</ele>
        <time>2021-05-29 12:58:50</time>
      </trkpt>
      <trkpt lat="43.29927" lon="-2.35641">
        <ele>-16.8</ele>
        <time>2021-05-29 12:58:51</time>
      </trkpt>
      <trkpt lat="43.29933" lon="-2.35643">
        <ele>-16.6</ele>
        <time>2021-05-29 12:58:52</time>
      </trkpt>
      <trkpt lat="43.29939" lon="-2.35647">
        <ele>-16.8</ele>
        <time>2021-05-29 12:58:53</time>
      </trkpt>
      <trkpt lat="43.29945" lon="-2.35651">
        <ele>-16.4</ele>
        <time>2021-05-29 12:58:54</time>
      </trkpt>
      <trkpt lat="43.29951" lon="-2.35655">
        <ele>-16.2</ele>
        <time>2021-05-29 12:58:55</time>
      </trkpt>
      <trkpt lat="43.29958" lon="-2.35659">
        <ele>-16</ele>
        <time>2021-05-29 12:58:56</time>
      </trkpt>
      <trkpt lat="43.29965" lon="-2.35663">
        <ele>-16</ele>
        <time>2021-05-29 12:58:57</time>
      </trkpt>
      <trkpt lat="43.29971" lon="-2.35668">
        <ele>-15.8</ele>
        <time>2021-05-29 12:58:58</time>
      </trkpt>
      <trkpt lat="43.29978" lon="-2.35672">
        <ele>-15.8</ele>
        <time>2021-05-29 12:58:59</time>
      </trkpt>
      <trkpt lat="43.29985" lon="-2.35676">
        <ele>-15.8</ele>
        <time>2021-05-29 12:59:00</time>
      </trkpt>
      <trkpt lat="43.29993" lon="-2.35681">
        <ele>-15.6</ele>
        <time>2021-05-29 12:59:01</time>
      </trkpt>
      <trkpt lat="43.29999" lon="-2.35685">
        <ele>-15.6</ele>
        <time>2021-05-29 12:59:02</time>
      </trkpt>
      <trkpt lat="43.30006" lon="-2.35689">
        <ele>-15.6</ele>
        <time>2021-05-29 12:59:03</time>
      </trkpt>
      <trkpt lat="43.30013" lon="-2.35693">
        <ele>-15.6</ele>
        <time>2021-05-29 12:59:04</time>
      </trkpt>
      <trkpt lat="43.3002" lon="-2.35696">
        <ele>-15.6</ele>
        <time>2021-05-29 12:59:05</time>
      </trkpt>
      <trkpt lat="43.30027" lon="-2.357">
        <ele>-15.6</ele>
        <time>2021-05-29 12:59:06</time>
      </trkpt>
      <trkpt lat="43.30034" lon="-2.35704">
        <ele>-15.6</ele>
        <time>2021-05-29 12:59:07</time>
      </trkpt>
      <trkpt lat="43.30041" lon="-2.35708">
        <ele>-15.6</ele>
        <time>2021-05-29 12:59:08</time>
      </trkpt>
      <trkpt lat="43.30048" lon="-2.35712">
        <ele>-15.6</ele>
        <time>2021-05-29 12:59:09</time>
      </trkpt>
      <trkpt lat="43.30055" lon="-2.35716">
        <ele>-15.6</ele>
        <time>2021-05-29 12:59:10</time>
      </trkpt>
      <trkpt lat="43.30062" lon="-2.35719">
        <ele>-15.6</ele>
        <time>2021-05-29 12:59:11</time>
      </trkpt>
      <trkpt lat="43.30069" lon="-2.35723">
        <ele>-15.6</ele>
        <time>2021-05-29 12:59:12</time>
      </trkpt>
      <trkpt lat="43.30076" lon="-2.35726">
        <ele>-15.6</ele>
        <time>2021-05-29 12:59:13</time>
      </trkpt>
      <trkpt lat="43.30084" lon="-2.3573">
        <ele>-15.6</ele>
        <time>2021-05-29 12:59:14</time>
      </trkpt>
      <trkpt lat="43.3009" lon="-2.35733">
        <ele>-15.6</ele>
        <time>2021-05-29 12:59:15</time>
      </trkpt>
      <trkpt lat="43.30097" lon="-2.35736">
        <ele>-15.4</ele>
        <time>2021-05-29 12:59:16</time>
      </trkpt>
      <trkpt lat="43.30104" lon="-2.3574">
        <ele>-15.4</ele>
        <time>2021-05-29 12:59:17</time>
      </trkpt>
      <trkpt lat="43.30111" lon="-2.35743">
        <ele>-15.4</ele>
        <time>2021-05-29 12:59:18</time>
      </trkpt>
      <trkpt lat="43.30118" lon="-2.35746">
        <ele>-15.4</ele>
        <time>2021-05-29 12:59:19</time>
      </trkpt>
      <trkpt lat="43.30126" lon="-2.35748">
        <ele>-15.4</ele>
        <time>2021-05-29 12:59:20</time>
      </trkpt>
      <trkpt lat="43.30133" lon="-2.3575">
        <ele>-15.4</ele>
        <time>2021-05-29 12:59:21</time>
      </trkpt>
      <trkpt lat="43.3014" lon="-2.35752">
        <ele>-15.4</ele>
        <time>2021-05-29 12:59:22</time>
      </trkpt>
      <trkpt lat="43.30148" lon="-2.35754">
        <ele>-15.4</ele>
        <time>2021-05-29 12:59:23</time>
      </trkpt>
      <trkpt lat="43.30156" lon="-2.35756">
        <ele>-15.2</ele>
        <time>2021-05-29 12:59:24</time>
      </trkpt>
      <trkpt lat="43.30163" lon="-2.35757">
        <ele>-15.2</ele>
        <time>2021-05-29 12:59:25</time>
      </trkpt>
      <trkpt lat="43.30171" lon="-2.35759">
        <ele>-15.2</ele>
        <time>2021-05-29 12:59:26</time>
      </trkpt>
      <trkpt lat="43.30179" lon="-2.35759">
        <ele>-15</ele>
        <time>2021-05-29 12:59:27</time>
      </trkpt>
      <trkpt lat="43.30186" lon="-2.35759">
        <ele>-15</ele>
        <time>2021-05-29 12:59:28</time>
      </trkpt>
      <trkpt lat="43.30194" lon="-2.35759">
        <ele>-15</ele>
        <time>2021-05-29 12:59:29</time>
      </trkpt>
      <trkpt lat="43.30201" lon="-2.35759">
        <ele>-15</ele>
        <time>2021-05-29 12:59:30</time>
      </trkpt>
      <trkpt lat="43.30208" lon="-2.35758">
        <ele>-14.8</ele>
        <time>2021-05-29 12:59:31</time>
      </trkpt>
      <trkpt lat="43.30215" lon="-2.35757">
        <ele>-14.8</ele>
        <time>2021-05-29 12:59:32</time>
      </trkpt>
      <trkpt lat="43.30222" lon="-2.35755">
        <ele>-14.6</ele>
        <time>2021-05-29 12:59:33</time>
      </trkpt>
      <trkpt lat="43.30229" lon="-2.35753">
        <ele>-14.4</ele>
        <time>2021-05-29 12:59:34</time>
      </trkpt>
      <trkpt lat="43.30235" lon="-2.35752">
        <ele>-14.4</ele>
        <time>2021-05-29 12:59:35</time>
      </trkpt>
      <trkpt lat="43.30242" lon="-2.35749">
        <ele>-14.4</ele>
        <time>2021-05-29 12:59:36</time>
      </trkpt>
      <trkpt lat="43.30249" lon="-2.35746">
        <ele>-14.2</ele>
        <time>2021-05-29 12:59:37</time>
      </trkpt>
      <trkpt lat="43.30255" lon="-2.35744">
        <ele>-14.2</ele>
        <time>2021-05-29 12:59:38</time>
      </trkpt>
      <trkpt lat="43.30262" lon="-2.35742">
        <ele>-14</ele>
        <time>2021-05-29 12:59:39</time>
      </trkpt>
      <trkpt lat="43.30269" lon="-2.3574">
        <ele>-13.8</ele>
        <time>2021-05-29 12:59:40</time>
      </trkpt>
      <trkpt lat="43.30275" lon="-2.35738">
        <ele>-13.6</ele>
        <time>2021-05-29 12:59:41</time>
      </trkpt>
      <trkpt lat="43.30281" lon="-2.35735">
        <ele>-13.4</ele>
        <time>2021-05-29 12:59:42</time>
      </trkpt>
      <trkpt lat="43.30286" lon="-2.35733">
        <ele>-13.2</ele>
        <time>2021-05-29 12:59:43</time>
      </trkpt>
      <trkpt lat="43.30291" lon="-2.35731">
        <ele>-13</ele>
        <time>2021-05-29 12:59:44</time>
      </trkpt>
      <trkpt lat="43.30297" lon="-2.35728">
        <ele>-12.6</ele>
        <time>2021-05-29 12:59:45</time>
      </trkpt>
      <trkpt lat="43.30302" lon="-2.35727">
        <ele>-12.4</ele>
        <time>2021-05-29 12:59:46</time>
      </trkpt>
      <trkpt lat="43.30307" lon="-2.35726">
        <ele>-12</ele>
        <time>2021-05-29 12:59:47</time>
      </trkpt>
      <trkpt lat="43.30313" lon="-2.35725">
        <ele>-11.8</ele>
        <time>2021-05-29 12:59:48</time>
      </trkpt>
      <trkpt lat="43.30318" lon="-2.35726">
        <ele>-11.4</ele>
        <time>2021-05-29 12:59:49</time>
      </trkpt>
      <trkpt lat="43.30323" lon="-2.35727">
        <ele>-11</ele>
        <time>2021-05-29 12:59:50</time>
      </trkpt>
      <trkpt lat="43.30328" lon="-2.35729">
        <ele>-10.4</ele>
        <time>2021-05-29 12:59:51</time>
      </trkpt>
      <trkpt lat="43.30332" lon="-2.35731">
        <ele>-9.8</ele>
        <time>2021-05-29 12:59:52</time>
      </trkpt>
      <trkpt lat="43.30337" lon="-2.35734">
        <ele>-9.4</ele>
        <time>2021-05-29 12:59:53</time>
      </trkpt>
      <trkpt lat="43.30341" lon="-2.35737">
        <ele>-9</ele>
        <time>2021-05-29 12:59:54</time>
      </trkpt>
      <trkpt lat="43.30345" lon="-2.35741">
        <ele>-8.6</ele>
        <time>2021-05-29 12:59:55</time>
      </trkpt>
      <trkpt lat="43.30349" lon="-2.35746">
        <ele>-8.4</ele>
        <time>2021-05-29 12:59:56</time>
      </trkpt>
      <trkpt lat="43.30352" lon="-2.3575">
        <ele>-8</ele>
        <time>2021-05-29 12:59:57</time>
      </trkpt>
      <trkpt lat="43.30355" lon="-2.35756">
        <ele>-8</ele>
        <time>2021-05-29 12:59:58</time>
      </trkpt>
      <trkpt lat="43.30358" lon="-2.35761">
        <ele>-7.8</ele>
        <time>2021-05-29 12:59:59</time>
      </trkpt>
      <trkpt lat="43.3036" lon="-2.35766">
        <ele>-7.6</ele>
        <time>2021-05-29 13:00:00</time>
      </trkpt>
      <trkpt lat="43.30362" lon="-2.35773">
        <ele>-7.2</ele>
        <time>2021-05-29 13:00:01</time>
      </trkpt>
      <trkpt lat="43.30363" lon="-2.35779">
        <ele>-6.8</ele>
        <time>2021-05-29 13:00:02</time>
      </trkpt>
      <trkpt lat="43.30365" lon="-2.35786">
        <ele>-6.4</ele>
        <time>2021-05-29 13:00:03</time>
      </trkpt>
      <trkpt lat="43.30366" lon="-2.35793">
        <ele>-6</ele>
        <time>2021-05-29 13:00:04</time>
      </trkpt>
      <trkpt lat="43.30366" lon="-2.358">
        <ele>-5.8</ele>
        <time>2021-05-29 13:00:05</time>
      </trkpt>
      <trkpt lat="43.30366" lon="-2.35808">
        <ele>-5.4</ele>
        <time>2021-05-29 13:00:06</time>
      </trkpt>
      <trkpt lat="43.30367" lon="-2.35815">
        <ele>-5.2</ele>
        <time>2021-05-29 13:00:07</time>
      </trkpt>
      <trkpt lat="43.30367" lon="-2.35823">
        <ele>-5</ele>
        <time>2021-05-29 13:00:08</time>
      </trkpt>
      <trkpt lat="43.30367" lon="-2.35831">
        <ele>-4.4</ele>
        <time>2021-05-29 13:00:09</time>
      </trkpt>
      <trkpt lat="43.30368" lon="-2.3584">
        <ele>-4</ele>
        <time>2021-05-29 13:00:10</time>
      </trkpt>
      <trkpt lat="43.30369" lon="-2.35848">
        <ele>-3.8</ele>
        <time>2021-05-29 13:00:11</time>
      </trkpt>
      <trkpt lat="43.3037" lon="-2.35857">
        <ele>-3.6</ele>
        <time>2021-05-29 13:00:12</time>
      </trkpt>
      <trkpt lat="43.30371" lon="-2.35865">
        <ele>-3.4</ele>
        <time>2021-05-29 13:00:13</time>
      </trkpt>
      <trkpt lat="43.30372" lon="-2.35873">
        <ele>-3.2</ele>
        <time>2021-05-29 13:00:14</time>
      </trkpt>
      <trkpt lat="43.30373" lon="-2.35881">
        <ele>-3.4</ele>
        <time>2021-05-29 13:00:15</time>
      </trkpt>
      <trkpt lat="43.30375" lon="-2.35888">
        <ele>-3.2</ele>
        <time>2021-05-29 13:00:16</time>
      </trkpt>
      <trkpt lat="43.30376" lon="-2.35895">
        <ele>-3</ele>
        <time>2021-05-29 13:00:17</time>
      </trkpt>
      <trkpt lat="43.30378" lon="-2.35903">
        <ele>-3.2</ele>
        <time>2021-05-29 13:00:18</time>
      </trkpt>
      <trkpt lat="43.3038" lon="-2.3591">
        <ele>-3</ele>
        <time>2021-05-29 13:00:19</time>
      </trkpt>
      <trkpt lat="43.30382" lon="-2.35918">
        <ele>-3</ele>
        <time>2021-05-29 13:00:20</time>
      </trkpt>
      <trkpt lat="43.30384" lon="-2.35926">
        <ele>-3</ele>
        <time>2021-05-29 13:00:21</time>
      </trkpt>
      <trkpt lat="43.30386" lon="-2.35933">
        <ele>-2.8</ele>
        <time>2021-05-29 13:00:22</time>
      </trkpt>
      <trkpt lat="43.30388" lon="-2.35941">
        <ele>-2.8</ele>
        <time>2021-05-29 13:00:23</time>
      </trkpt>
      <trkpt lat="43.3039" lon="-2.35947">
        <ele>-2.8</ele>
        <time>2021-05-29 13:00:24</time>
      </trkpt>
      <trkpt lat="43.30392" lon="-2.35954">
        <ele>-2.8</ele>
        <time>2021-05-29 13:00:25</time>
      </trkpt>
      <trkpt lat="43.30394" lon="-2.35961">
        <ele>-2.6</ele>
        <time>2021-05-29 13:00:26</time>
      </trkpt>
      <trkpt lat="43.30396" lon="-2.35968">
        <ele>-2.4</ele>
        <time>2021-05-29 13:00:27</time>
      </trkpt>
      <trkpt lat="43.30398" lon="-2.35975">
        <ele>-2.2</ele>
        <time>2021-05-29 13:00:28</time>
      </trkpt>
      <trkpt lat="43.304" lon="-2.35981">
        <ele>-2</ele>
        <time>2021-05-29 13:00:29</time>
      </trkpt>
      <trkpt lat="43.30402" lon="-2.35988">
        <ele>-1.6</ele>
        <time>2021-05-29 13:00:30</time>
      </trkpt>
      <trkpt lat="43.30404" lon="-2.35995">
        <ele>-1.4</ele>
        <time>2021-05-29 13:00:31</time>
      </trkpt>
      <trkpt lat="43.30406" lon="-2.36002">
        <ele>-1</ele>
        <time>2021-05-29 13:00:32</time>
      </trkpt>
      <trkpt lat="43.30408" lon="-2.36008">
        <ele>-0.8</ele>
        <time>2021-05-29 13:00:33</time>
      </trkpt>
      <trkpt lat="43.3041" lon="-2.36015">
        <ele>-0.6</ele>
        <time>2021-05-29 13:00:34</time>
      </trkpt>
      <trkpt lat="43.30412" lon="-2.36022">
        <ele>-0.4</ele>
        <time>2021-05-29 13:00:35</time>
      </trkpt>
      <trkpt lat="43.30414" lon="-2.36029">
        <time>2021-05-29 13:00:36</time>
      </trkpt>
      <trkpt lat="43.30416" lon="-2.36035">
        <ele>0.2</ele>
        <time>2021-05-29 13:00:37</time>
      </trkpt>
      <trkpt lat="43.30418" lon="-2.36042">
        <ele>0.4</ele>
        <time>2021-05-29 13:00:38</time>
      </trkpt>
      <trkpt lat="43.3042" lon="-2.36049">
        <ele>0.6</ele>
        <time>2021-05-29 13:00:39</time>
      </trkpt>
      <trkpt lat="43.30423" lon="-2.36056">
        <ele>0.8</ele>
        <time>2021-05-29 13:00:40</time>
      </trkpt>
      <trkpt lat="43.30425" lon="-2.36063">
        <ele>0.8</ele>
        <time>2021-05-29 13:00:41</time>
      </trkpt>
      <trkpt lat="43.30427" lon="-2.3607">
        <ele>1</ele>
        <time>2021-05-29 13:00:42</time>
      </trkpt>
      <trkpt lat="43.3043" lon="-2.36077">
        <ele>1.6</ele>
        <time>2021-05-29 13:00:43</time>
      </trkpt>
      <trkpt lat="43.30432" lon="-2.36085">
        <ele>1.4</ele>
        <time>2021-05-29 13:00:44</time>
      </trkpt>
      <trkpt lat="43.30435" lon="-2.36091">
        <ele>1.8</ele>
        <time>2021-05-29 13:00:45</time>
      </trkpt>
      <trkpt lat="43.30438" lon="-2.36098">
        <ele>1.8</ele>
        <time>2021-05-29 13:00:46</time>
      </trkpt>
      <trkpt lat="43.30441" lon="-2.36105">
        <ele>2</ele>
        <time>2021-05-29 13:00:47</time>
      </trkpt>
      <trkpt lat="43.30443" lon="-2.36112">
        <ele>2</ele>
        <time>2021-05-29 13:00:48</time>
      </trkpt>
      <trkpt lat="43.30446" lon="-2.36119">
        <ele>2.2</ele>
        <time>2021-05-29 13:00:49</time>
      </trkpt>
      <trkpt lat="43.30448" lon="-2.36126">
        <ele>2.4</ele>
        <time>2021-05-29 13:00:50</time>
      </trkpt>
      <trkpt lat="43.3045" lon="-2.36133">
        <ele>3</ele>
        <time>2021-05-29 13:00:51</time>
      </trkpt>
      <trkpt lat="43.30452" lon="-2.3614">
        <ele>3</ele>
        <time>2021-05-29 13:00:52</time>
      </trkpt>
      <trkpt lat="43.30454" lon="-2.36147">
        <ele>3.2</ele>
        <time>2021-05-29 13:00:53</time>
      </trkpt>
      <trkpt lat="43.30456" lon="-2.36154">
        <ele>3.4</ele>
        <time>2021-05-29 13:00:54</time>
      </trkpt>
      <trkpt lat="43.30458" lon="-2.36161">
        <ele>3.6</ele>
        <time>2021-05-29 13:00:55</time>
      </trkpt>
      <trkpt lat="43.3046" lon="-2.36168">
        <ele>3.8</ele>
        <time>2021-05-29 13:00:56</time>
      </trkpt>
      <trkpt lat="43.30463" lon="-2.36175">
        <ele>4</ele>
        <time>2021-05-29 13:00:57</time>
      </trkpt>
      <trkpt lat="43.30465" lon="-2.36182">
        <ele>4.2</ele>
        <time>2021-05-29 13:00:58</time>
      </trkpt>
      <trkpt lat="43.30467" lon="-2.36189">
        <ele>4.2</ele>
        <time>2021-05-29 13:00:59</time>
      </trkpt>
      <trkpt lat="43.30469" lon="-2.36196">
        <ele>4.4</ele>
        <time>2021-05-29 13:01:00</time>
      </trkpt>
      <trkpt lat="43.30472" lon="-2.36203">
        <ele>4.6</ele>
        <time>2021-05-29 13:01:01</time>
      </trkpt>
      <trkpt lat="43.30474" lon="-2.3621">
        <ele>5</ele>
        <time>2021-05-29 13:01:02</time>
      </trkpt>
      <trkpt lat="43.30477" lon="-2.36216">
        <ele>5.2</ele>
        <time>2021-05-29 13:01:03</time>
      </trkpt>
      <trkpt lat="43.3048" lon="-2.36223">
        <ele>5.4</ele>
        <time>2021-05-29 13:01:04</time>
      </trkpt>
      <trkpt lat="43.30482" lon="-2.36229">
        <ele>5.6</ele>
        <time>2021-05-29 13:01:05</time>
      </trkpt>
      <trkpt lat="43.30485" lon="-2.36236">
        <ele>5.8</ele>
        <time>2021-05-29 13:01:06</time>
      </trkpt>
      <trkpt lat="43.30487" lon="-2.36243">
        <ele>6.2</ele>
        <time>2021-05-29 13:01:07</time>
      </trkpt>
      <trkpt lat="43.3049" lon="-2.3625">
        <ele>6.4</ele>
        <time>2021-05-29 13:01:08</time>
      </trkpt>
      <trkpt lat="43.30493" lon="-2.36256">
        <ele>6.6</ele>
        <time>2021-05-29 13:01:09</time>
      </trkpt>
      <trkpt lat="43.30496" lon="-2.36262">
        <ele>6.6</ele>
        <time>2021-05-29 13:01:10</time>
      </trkpt>
      <trkpt lat="43.30498" lon="-2.36269">
        <ele>6.8</ele>
        <time>2021-05-29 13:01:11</time>
      </trkpt>
      <trkpt lat="43.30501" lon="-2.36276">
        <ele>7</ele>
        <time>2021-05-29 13:01:12</time>
      </trkpt>
      <trkpt lat="43.30503" lon="-2.36283">
        <ele>7.2</ele>
        <time>2021-05-29 13:01:13</time>
      </trkpt>
      <trkpt lat="43.30505" lon="-2.3629">
        <ele>7.4</ele>
        <time>2021-05-29 13:01:14</time>
      </trkpt>
      <trkpt lat="43.30507" lon="-2.36297">
        <ele>7.6</ele>
        <time>2021-05-29 13:01:15</time>
      </trkpt>
      <trkpt lat="43.30508" lon="-2.36304">
        <ele>7.8</ele>
        <time>2021-05-29 13:01:16</time>
      </trkpt>
      <trkpt lat="43.30509" lon="-2.36312">
        <ele>8</ele>
        <time>2021-05-29 13:01:17</time>
      </trkpt>
      <trkpt lat="43.30509" lon="-2.3632">
        <ele>8.4</ele>
        <time>2021-05-29 13:01:18</time>
      </trkpt>
      <trkpt lat="43.30509" lon="-2.36328">
        <ele>8.6</ele>
        <time>2021-05-29 13:01:19</time>
      </trkpt>
      <trkpt lat="43.30508" lon="-2.36336">
        <ele>8.8</ele>
        <time>2021-05-29 13:01:20</time>
      </trkpt>
      <trkpt lat="43.30506" lon="-2.36344">
        <ele>9</ele>
        <time>2021-05-29 13:01:21</time>
      </trkpt>
      <trkpt lat="43.30504" lon="-2.36352">
        <ele>9.2</ele>
        <time>2021-05-29 13:01:22</time>
      </trkpt>
      <trkpt lat="43.30502" lon="-2.3636">
        <ele>9.4</ele>
        <time>2021-05-29 13:01:23</time>
      </trkpt>
      <trkpt lat="43.30499" lon="-2.36369">
        <ele>9.6</ele>
        <time>2021-05-29 13:01:24</time>
      </trkpt>
      <trkpt lat="43.30496" lon="-2.36378">
        <ele>9.8</ele>
        <time>2021-05-29 13:01:25</time>
      </trkpt>
      <trkpt lat="43.30492" lon="-2.36387">
        <ele>9.8</ele>
        <time>2021-05-29 13:01:26</time>
      </trkpt>
      <trkpt lat="43.30488" lon="-2.36396">
        <ele>10</ele>
        <time>2021-05-29 13:01:27</time>
      </trkpt>
      <trkpt lat="43.30484" lon="-2.36406">
        <ele>10</ele>
        <time>2021-05-29 13:01:28</time>
      </trkpt>
      <trkpt lat="43.3048" lon="-2.36416">
        <ele>10</ele>
        <time>2021-05-29 13:01:29</time>
      </trkpt>
      <trkpt lat="43.30477" lon="-2.36426">
        <ele>10</ele>
        <time>2021-05-29 13:01:30</time>
      </trkpt>
      <trkpt lat="43.30475" lon="-2.36437">
        <ele>10</ele>
        <time>2021-05-29 13:01:31</time>
      </trkpt>
      <trkpt lat="43.30473" lon="-2.36448">
        <ele>10</ele>
        <time>2021-05-29 13:01:32</time>
      </trkpt>
      <trkpt lat="43.30472" lon="-2.36458">
        <ele>10</ele>
        <time>2021-05-29 13:01:33</time>
      </trkpt>
      <trkpt lat="43.30471" lon="-2.36469">
        <ele>10</ele>
        <time>2021-05-29 13:01:34</time>
      </trkpt>
      <trkpt lat="43.30471" lon="-2.3648">
        <ele>9.8</ele>
        <time>2021-05-29 13:01:35</time>
      </trkpt>
      <trkpt lat="43.3047" lon="-2.3649">
        <ele>9.8</ele>
        <time>2021-05-29 13:01:36</time>
      </trkpt>
      <trkpt lat="43.3047" lon="-2.365">
        <ele>9.6</ele>
        <time>2021-05-29 13:01:37</time>
      </trkpt>
      <trkpt lat="43.3047" lon="-2.3651">
        <ele>9.6</ele>
        <time>2021-05-29 13:01:38</time>
      </trkpt>
      <trkpt lat="43.3047" lon="-2.3652">
        <ele>9.6</ele>
        <time>2021-05-29 13:01:39</time>
      </trkpt>
      <trkpt lat="43.30469" lon="-2.3653">
        <ele>9.6</ele>
        <time>2021-05-29 13:01:40</time>
      </trkpt>
      <trkpt lat="43.30469" lon="-2.36539">
        <ele>9.6</ele>
        <time>2021-05-29 13:01:41</time>
      </trkpt>
      <trkpt lat="43.30469" lon="-2.36549">
        <ele>9.6</ele>
        <time>2021-05-29 13:01:42</time>
      </trkpt>
      <trkpt lat="43.30469" lon="-2.36558">
        <ele>9.6</ele>
        <time>2021-05-29 13:01:43</time>
      </trkpt>
      <trkpt lat="43.30469" lon="-2.36568">
        <ele>9.6</ele>
        <time>2021-05-29 13:01:44</time>
      </trkpt>
      <trkpt lat="43.30469" lon="-2.36578">
        <ele>9.6</ele>
        <time>2021-05-29 13:01:45</time>
      </trkpt>
      <trkpt lat="43.30468" lon="-2.36588">
        <ele>9.8</ele>
        <time>2021-05-29 13:01:46</time>
      </trkpt>
      <trkpt lat="43.30468" lon="-2.36598">
        <ele>9.8</ele>
        <time>2021-05-29 13:01:47</time>
      </trkpt>
      <trkpt lat="43.30468" lon="-2.36608">
        <ele>9.8</ele>
        <time>2021-05-29 13:01:48</time>
      </trkpt>
      <trkpt lat="43.30469" lon="-2.36618">
        <ele>9.8</ele>
        <time>2021-05-29 13:01:49</time>
      </trkpt>
      <trkpt lat="43.30469" lon="-2.36629">
        <ele>9.8</ele>
        <time>2021-05-29 13:01:50</time>
      </trkpt>
      <trkpt lat="43.3047" lon="-2.3664">
        <ele>9.8</ele>
        <time>2021-05-29 13:01:51</time>
      </trkpt>
      <trkpt lat="43.30472" lon="-2.36651">
        <ele>9.8</ele>
        <time>2021-05-29 13:01:52</time>
      </trkpt>
      <trkpt lat="43.30474" lon="-2.36662">
        <ele>9.8</ele>
        <time>2021-05-29 13:01:53</time>
      </trkpt>
      <trkpt lat="43.30477" lon="-2.36673">
        <ele>9.8</ele>
        <time>2021-05-29 13:01:54</time>
      </trkpt>
      <trkpt lat="43.30479" lon="-2.36683">
        <ele>9.8</ele>
        <time>2021-05-29 13:01:55</time>
      </trkpt>
      <trkpt lat="43.30482" lon="-2.36692">
        <ele>9.8</ele>
        <time>2021-05-29 13:01:56</time>
      </trkpt>
      <trkpt lat="43.30484" lon="-2.36702">
        <ele>9.8</ele>
        <time>2021-05-29 13:01:57</time>
      </trkpt>
      <trkpt lat="43.30487" lon="-2.3671">
        <ele>9.8</ele>
        <time>2021-05-29 13:01:58</time>
      </trkpt>
      <trkpt lat="43.3049" lon="-2.36718">
        <ele>10</ele>
        <time>2021-05-29 13:01:59</time>
      </trkpt>
      <trkpt lat="43.30493" lon="-2.36725">
        <ele>10</ele>
        <time>2021-05-29 13:02:00</time>
      </trkpt>
      <trkpt lat="43.30496" lon="-2.36731">
        <ele>10</ele>
        <time>2021-05-29 13:02:01</time>
      </trkpt>
      <trkpt lat="43.30498" lon="-2.36737">
        <ele>10</ele>
        <time>2021-05-29 13:02:02</time>
      </trkpt>
      <trkpt lat="43.30501" lon="-2.36743">
        <ele>10.2</ele>
        <time>2021-05-29 13:02:03</time>
      </trkpt>
      <trkpt lat="43.30503" lon="-2.36749">
        <ele>10.2</ele>
        <time>2021-05-29 13:02:04</time>
      </trkpt>
      <trkpt lat="43.30506" lon="-2.36754">
        <ele>10.4</ele>
        <time>2021-05-29 13:02:05</time>
      </trkpt>
      <trkpt lat="43.30508" lon="-2.3676">
        <ele>10.8</ele>
        <time>2021-05-29 13:02:06</time>
      </trkpt>
      <trkpt lat="43.3051" lon="-2.36765">
        <ele>11.2</ele>
        <time>2021-05-29 13:02:07</time>
      </trkpt>
      <trkpt lat="43.30513" lon="-2.3677">
        <ele>11.4</ele>
        <time>2021-05-29 13:02:08</time>
      </trkpt>
      <trkpt lat="43.30515" lon="-2.36775">
        <ele>11.8</ele>
        <time>2021-05-29 13:02:09</time>
      </trkpt>
      <trkpt lat="43.30517" lon="-2.36781">
        <ele>12.4</ele>
        <time>2021-05-29 13:02:10</time>
      </trkpt>
      <trkpt lat="43.3052" lon="-2.36786">
        <ele>12.8</ele>
        <time>2021-05-29 13:02:11</time>
      </trkpt>
      <trkpt lat="43.30522" lon="-2.36791">
        <ele>13</ele>
        <time>2021-05-29 13:02:12</time>
      </trkpt>
      <trkpt lat="43.30525" lon="-2.36796">
        <ele>13.6</ele>
        <time>2021-05-29 13:02:13</time>
      </trkpt>
      <trkpt lat="43.30528" lon="-2.36801">
        <ele>14</ele>
        <time>2021-05-29 13:02:14</time>
      </trkpt>
      <trkpt lat="43.30531" lon="-2.36807">
        <ele>14.4</ele>
        <time>2021-05-29 13:02:15</time>
      </trkpt>
      <trkpt lat="43.30534" lon="-2.36811">
        <ele>14.8</ele>
        <time>2021-05-29 13:02:16</time>
      </trkpt>
      <trkpt lat="43.30536" lon="-2.36817">
        <ele>15.2</ele>
        <time>2021-05-29 13:02:17</time>
      </trkpt>
      <trkpt lat="43.30538" lon="-2.36822">
        <ele>15.6</ele>
        <time>2021-05-29 13:02:18</time>
      </trkpt>
      <trkpt lat="43.30541" lon="-2.36827">
        <ele>16</ele>
        <time>2021-05-29 13:02:19</time>
      </trkpt>
      <trkpt lat="43.30544" lon="-2.36832">
        <ele>16.2</ele>
        <time>2021-05-29 13:02:20</time>
      </trkpt>
      <trkpt lat="43.30546" lon="-2.36837">
        <ele>16.6</ele>
        <time>2021-05-29 13:02:21</time>
      </trkpt>
      <trkpt lat="43.30549" lon="-2.36842">
        <ele>17</ele>
        <time>2021-05-29 13:02:22</time>
      </trkpt>
      <trkpt lat="43.30551" lon="-2.36848">
        <ele>17.4</ele>
        <time>2021-05-29 13:02:23</time>
      </trkpt>
      <trkpt lat="43.30553" lon="-2.36853">
        <ele>17.8</ele>
        <time>2021-05-29 13:02:24</time>
      </trkpt>
      <trkpt lat="43.30556" lon="-2.36858">
        <ele>18.2</ele>
        <time>2021-05-29 13:02:25</time>
      </trkpt>
      <trkpt lat="43.30558" lon="-2.36863">
        <ele>18.4</ele>
        <time>2021-05-29 13:02:26</time>
      </trkpt>
      <trkpt lat="43.30561" lon="-2.36868">
        <ele>19.2</ele>
        <time>2021-05-29 13:02:27</time>
      </trkpt>
      <trkpt lat="43.30564" lon="-2.36872">
        <ele>19.6</ele>
        <time>2021-05-29 13:02:28</time>
      </trkpt>
      <trkpt lat="43.30567" lon="-2.36877">
        <ele>20</ele>
        <time>2021-05-29 13:02:29</time>
      </trkpt>
      <trkpt lat="43.3057" lon="-2.36882">
        <ele>20.4</ele>
        <time>2021-05-29 13:02:30</time>
      </trkpt>
      <trkpt lat="43.30573" lon="-2.36886">
        <ele>20.8</ele>
        <time>2021-05-29 13:02:31</time>
      </trkpt>
      <trkpt lat="43.30576" lon="-2.36891">
        <ele>21.2</ele>
        <time>2021-05-29 13:02:32</time>
      </trkpt>
      <trkpt lat="43.30578" lon="-2.36897">
        <ele>21.6</ele>
        <time>2021-05-29 13:02:33</time>
      </trkpt>
      <trkpt lat="43.30581" lon="-2.36902">
        <ele>22</ele>
        <time>2021-05-29 13:02:34</time>
      </trkpt>
      <trkpt lat="43.30583" lon="-2.36908">
        <ele>22.4</ele>
        <time>2021-05-29 13:02:35</time>
      </trkpt>
      <trkpt lat="43.30586" lon="-2.36914">
        <ele>22.8</ele>
        <time>2021-05-29 13:02:36</time>
      </trkpt>
      <trkpt lat="43.30589" lon="-2.3692">
        <ele>23.2</ele>
        <time>2021-05-29 13:02:37</time>
      </trkpt>
      <trkpt lat="43.30591" lon="-2.36926">
        <ele>23.6</ele>
        <time>2021-05-29 13:02:38</time>
      </trkpt>
      <trkpt lat="43.30595" lon="-2.36933">
        <ele>24</ele>
        <time>2021-05-29 13:02:39</time>
      </trkpt>
      <trkpt lat="43.30598" lon="-2.3694">
        <ele>24.2</ele>
        <time>2021-05-29 13:02:40</time>
      </trkpt>
      <trkpt lat="43.30602" lon="-2.36947">
        <ele>24.4</ele>
        <time>2021-05-29 13:02:41</time>
      </trkpt>
      <trkpt lat="43.30605" lon="-2.36954">
        <ele>24.8</ele>
        <time>2021-05-29 13:02:42</time>
      </trkpt>
      <trkpt lat="43.30609" lon="-2.36962">
        <ele>25</ele>
        <time>2021-05-29 13:02:43</time>
      </trkpt>
      <trkpt lat="43.30613" lon="-2.36969">
        <ele>25.2</ele>
        <time>2021-05-29 13:02:44</time>
      </trkpt>
      <trkpt lat="43.30617" lon="-2.36976">
        <ele>25.6</ele>
        <time>2021-05-29 13:02:45</time>
      </trkpt>
      <trkpt lat="43.30622" lon="-2.36983">
        <ele>25.8</ele>
        <time>2021-05-29 13:02:46</time>
      </trkpt>
      <trkpt lat="43.30625" lon="-2.36991">
        <ele>26</ele>
        <time>2021-05-29 13:02:47</time>
      </trkpt>
      <trkpt lat="43.30629" lon="-2.36999">
        <ele>26</ele>
        <time>2021-05-29 13:02:48</time>
      </trkpt>
      <trkpt lat="43.30632" lon="-2.37007">
        <ele>26.2</ele>
        <time>2021-05-29 13:02:49</time>
      </trkpt>
      <trkpt lat="43.30635" lon="-2.37016">
        <ele>26.4</ele>
        <time>2021-05-29 13:02:50</time>
      </trkpt>
      <trkpt lat="43.30637" lon="-2.37025">
        <ele>26.4</ele>
        <time>2021-05-29 13:02:51</time>
      </trkpt>
      <trkpt lat="43.30639" lon="-2.37034">
        <ele>26.6</ele>
        <time>2021-05-29 13:02:52</time>
      </trkpt>
      <trkpt lat="43.30641" lon="-2.37044">
        <ele>26.6</ele>
        <time>2021-05-29 13:02:53</time>
      </trkpt>
      <trkpt lat="43.30643" lon="-2.37052">
        <ele>26.8</ele>
        <time>2021-05-29 13:02:54</time>
      </trkpt>
      <trkpt lat="43.30645" lon="-2.3706">
        <ele>27</ele>
        <time>2021-05-29 13:02:55</time>
      </trkpt>
      <trkpt lat="43.30647" lon="-2.37069">
        <ele>27</ele>
        <time>2021-05-29 13:02:56</time>
      </trkpt>
      <trkpt lat="43.30649" lon="-2.37077">
        <ele>27.2</ele>
        <time>2021-05-29 13:02:57</time>
      </trkpt>
      <trkpt lat="43.30652" lon="-2.37085">
        <ele>27.4</ele>
        <time>2021-05-29 13:02:58</time>
      </trkpt>
      <trkpt lat="43.30655" lon="-2.37092">
        <ele>27.4</ele>
        <time>2021-05-29 13:02:59</time>
      </trkpt>
      <trkpt lat="43.30657" lon="-2.371">
        <ele>27.6</ele>
        <time>2021-05-29 13:03:00</time>
      </trkpt>
      <trkpt lat="43.30659" lon="-2.37108">
        <ele>27.8</ele>
        <time>2021-05-29 13:03:01</time>
      </trkpt>
      <trkpt lat="43.30661" lon="-2.37116">
        <ele>28.2</ele>
        <time>2021-05-29 13:03:02</time>
      </trkpt>
      <trkpt lat="43.30663" lon="-2.37125">
        <ele>28.4</ele>
        <time>2021-05-29 13:03:03</time>
      </trkpt>
      <trkpt lat="43.30665" lon="-2.37134">
        <ele>28.6</ele>
        <time>2021-05-29 13:03:04</time>
      </trkpt>
      <trkpt lat="43.30667" lon="-2.37143">
        <ele>28.8</ele>
        <time>2021-05-29 13:03:05</time>
      </trkpt>
      <trkpt lat="43.30669" lon="-2.37152">
        <ele>29.2</ele>
        <time>2021-05-29 13:03:06</time>
      </trkpt>
      <trkpt lat="43.30671" lon="-2.37161">
        <ele>29.4</ele>
        <time>2021-05-29 13:03:07</time>
      </trkpt>
      <trkpt lat="43.30673" lon="-2.37169">
        <ele>29.6</ele>
        <time>2021-05-29 13:03:08</time>
      </trkpt>
      <trkpt lat="43.30675" lon="-2.37178">
        <ele>29.8</ele>
        <time>2021-05-29 13:03:09</time>
      </trkpt>
      <trkpt lat="43.30678" lon="-2.37186">
        <ele>30</ele>
        <time>2021-05-29 13:03:10</time>
      </trkpt>
      <trkpt lat="43.3068" lon="-2.37195">
        <ele>30.2</ele>
        <time>2021-05-29 13:03:11</time>
      </trkpt>
      <trkpt lat="43.30683" lon="-2.37203">
        <ele>30.2</ele>
        <time>2021-05-29 13:03:12</time>
      </trkpt>
      <trkpt lat="43.30685" lon="-2.37211">
        <ele>30.4</ele>
        <time>2021-05-29 13:03:13</time>
      </trkpt>
      <trkpt lat="43.30687" lon="-2.3722">
        <ele>30.8</ele>
        <time>2021-05-29 13:03:14</time>
      </trkpt>
      <trkpt lat="43.30689" lon="-2.37228">
        <ele>31</ele>
        <time>2021-05-29 13:03:15</time>
      </trkpt>
      <trkpt lat="43.30692" lon="-2.37236">
        <ele>31.2</ele>
        <time>2021-05-29 13:03:16</time>
      </trkpt>
      <trkpt lat="43.30695" lon="-2.37245">
        <ele>31.4</ele>
        <time>2021-05-29 13:03:17</time>
      </trkpt>
      <trkpt lat="43.30698" lon="-2.37252">
        <ele>31.6</ele>
        <time>2021-05-29 13:03:18</time>
      </trkpt>
      <trkpt lat="43.30702" lon="-2.37259">
        <ele>31.6</ele>
        <time>2021-05-29 13:03:19</time>
      </trkpt>
      <trkpt lat="43.30705" lon="-2.37267">
        <ele>31.8</ele>
        <time>2021-05-29 13:03:20</time>
      </trkpt>
      <trkpt lat="43.30708" lon="-2.37275">
        <ele>32</ele>
        <time>2021-05-29 13:03:21</time>
      </trkpt>
      <trkpt lat="43.30711" lon="-2.37283">
        <ele>32</ele>
        <time>2021-05-29 13:03:22</time>
      </trkpt>
      <trkpt lat="43.30713" lon="-2.37291">
        <ele>32.2</ele>
        <time>2021-05-29 13:03:23</time>
      </trkpt>
      <trkpt lat="43.30717" lon="-2.37299">
        <ele>32.4</ele>
        <time>2021-05-29 13:03:24</time>
      </trkpt>
      <trkpt lat="43.3072" lon="-2.37307">
        <ele>32.6</ele>
        <time>2021-05-29 13:03:25</time>
      </trkpt>
      <trkpt lat="43.30723" lon="-2.37315">
        <ele>33</ele>
        <time>2021-05-29 13:03:26</time>
      </trkpt>
      <trkpt lat="43.30726" lon="-2.37323">
        <ele>33</ele>
        <time>2021-05-29 13:03:27</time>
      </trkpt>
      <trkpt lat="43.3073" lon="-2.37331">
        <ele>33.2</ele>
        <time>2021-05-29 13:03:28</time>
      </trkpt>
      <trkpt lat="43.30733" lon="-2.3734">
        <ele>33.4</ele>
        <time>2021-05-29 13:03:29</time>
      </trkpt>
      <trkpt lat="43.30737" lon="-2.37349">
        <ele>33.4</ele>
        <time>2021-05-29 13:03:30</time>
      </trkpt>
      <trkpt lat="43.30739" lon="-2.37357">
        <ele>33.4</ele>
        <time>2021-05-29 13:03:31</time>
      </trkpt>
      <trkpt lat="43.30739" lon="-2.37366">
        <ele>33.4</ele>
        <time>2021-05-29 13:03:32</time>
      </trkpt>
      <trkpt lat="43.3074" lon="-2.37376">
        <ele>33.4</ele>
        <time>2021-05-29 13:03:33</time>
      </trkpt>
      <trkpt lat="43.30743" lon="-2.37385">
        <ele>33.4</ele>
        <time>2021-05-29 13:03:34</time>
      </trkpt>
      <trkpt lat="43.30746" lon="-2.37398">
        <ele>33.4</ele>
        <time>2021-05-29 13:03:35</time>
      </trkpt>
      <trkpt lat="43.30745" lon="-2.37413">
        <ele>33.4</ele>
        <time>2021-05-29 13:03:36</time>
      </trkpt>
      <trkpt lat="43.30746" lon="-2.37425">
        <ele>33.4</ele>
        <time>2021-05-29 13:03:37</time>
      </trkpt>
      <trkpt lat="43.30745" lon="-2.37439">
        <ele>33.4</ele>
        <time>2021-05-29 13:03:38</time>
      </trkpt>
      <trkpt lat="43.30747" lon="-2.37451">
        <ele>33.4</ele>
        <time>2021-05-29 13:03:39</time>
      </trkpt>
      <trkpt lat="43.30752" lon="-2.37461">
        <ele>33.4</ele>
        <time>2021-05-29 13:03:40</time>
      </trkpt>
      <trkpt lat="43.30755" lon="-2.37471">
        <ele>33.4</ele>
        <time>2021-05-29 13:03:41</time>
      </trkpt>
      <trkpt lat="43.30757" lon="-2.37482">
        <ele>33.4</ele>
        <time>2021-05-29 13:03:42</time>
      </trkpt>
      <trkpt lat="43.30759" lon="-2.37494">
        <ele>33.2</ele>
        <time>2021-05-29 13:03:43</time>
      </trkpt>
      <trkpt lat="43.3076" lon="-2.37505">
        <ele>33</ele>
        <time>2021-05-29 13:03:44</time>
      </trkpt>
      <trkpt lat="43.30762" lon="-2.37517">
        <ele>32.8</ele>
        <time>2021-05-29 13:03:45</time>
      </trkpt>
      <trkpt lat="43.30764" lon="-2.3753">
        <ele>32.6</ele>
        <time>2021-05-29 13:03:46</time>
      </trkpt>
      <trkpt lat="43.30765" lon="-2.37542">
        <ele>32.6</ele>
        <time>2021-05-29 13:03:47</time>
      </trkpt>
      <trkpt lat="43.30766" lon="-2.37554">
        <ele>32.6</ele>
        <time>2021-05-29 13:03:48</time>
      </trkpt>
      <trkpt lat="43.30768" lon="-2.37566">
        <ele>32.4</ele>
        <time>2021-05-29 13:03:49</time>
      </trkpt>
      <trkpt lat="43.30769" lon="-2.37578">
        <ele>32.4</ele>
        <time>2021-05-29 13:03:50</time>
      </trkpt>
      <trkpt lat="43.30769" lon="-2.3759">
        <ele>32.4</ele>
        <time>2021-05-29 13:03:51</time>
      </trkpt>
      <trkpt lat="43.30769" lon="-2.37603">
        <ele>32.2</ele>
        <time>2021-05-29 13:03:52</time>
      </trkpt>
      <trkpt lat="43.30768" lon="-2.37615">
        <ele>32.2</ele>
        <time>2021-05-29 13:03:53</time>
      </trkpt>
      <trkpt lat="43.30767" lon="-2.37627">
        <ele>32.2</ele>
        <time>2021-05-29 13:03:54</time>
      </trkpt>
      <trkpt lat="43.30764" lon="-2.3764">
        <ele>32</ele>
        <time>2021-05-29 13:03:55</time>
      </trkpt>
      <trkpt lat="43.30761" lon="-2.37653">
        <ele>32.2</ele>
        <time>2021-05-29 13:03:56</time>
      </trkpt>
      <trkpt lat="43.30758" lon="-2.37665">
        <ele>31.8</ele>
        <time>2021-05-29 13:03:57</time>
      </trkpt>
      <trkpt lat="43.30755" lon="-2.37678">
        <ele>31.8</ele>
        <time>2021-05-29 13:03:58</time>
      </trkpt>
      <trkpt lat="43.30751" lon="-2.37691">
        <ele>31.8</ele>
        <time>2021-05-29 13:03:59</time>
      </trkpt>
      <trkpt lat="43.30748" lon="-2.37705">
        <ele>31.8</ele>
        <time>2021-05-29 13:04:00</time>
      </trkpt>
      <trkpt lat="43.30745" lon="-2.37718">
        <ele>31.8</ele>
        <time>2021-05-29 13:04:01</time>
      </trkpt>
      <trkpt lat="43.30741" lon="-2.37731">
        <ele>31.6</ele>
        <time>2021-05-29 13:04:02</time>
      </trkpt>
      <trkpt lat="43.30738" lon="-2.37743">
        <ele>31.6</ele>
        <time>2021-05-29 13:04:03</time>
      </trkpt>
      <trkpt lat="43.30735" lon="-2.37756">
        <ele>31.4</ele>
        <time>2021-05-29 13:04:04</time>
      </trkpt>
      <trkpt lat="43.30732" lon="-2.37769">
        <ele>31.2</ele>
        <time>2021-05-29 13:04:05</time>
      </trkpt>
      <trkpt lat="43.30729" lon="-2.37783">
        <ele>31</ele>
        <time>2021-05-29 13:04:06</time>
      </trkpt>
      <trkpt lat="43.30726" lon="-2.37797">
        <ele>30.4</ele>
        <time>2021-05-29 13:04:07</time>
      </trkpt>
      <trkpt lat="43.30725" lon="-2.37811">
        <ele>30.2</ele>
        <time>2021-05-29 13:04:08</time>
      </trkpt>
      <trkpt lat="43.30724" lon="-2.37825">
        <ele>30</ele>
        <time>2021-05-29 13:04:09</time>
      </trkpt>
      <trkpt lat="43.30725" lon="-2.37839">
        <ele>30</ele>
        <time>2021-05-29 13:04:10</time>
      </trkpt>
      <trkpt lat="43.30727" lon="-2.37853">
        <ele>29.4</ele>
        <time>2021-05-29 13:04:11</time>
      </trkpt>
      <trkpt lat="43.30729" lon="-2.37867">
        <ele>29.4</ele>
        <time>2021-05-29 13:04:12</time>
      </trkpt>
      <trkpt lat="43.3073" lon="-2.37881">
        <ele>29</ele>
        <time>2021-05-29 13:04:13</time>
      </trkpt>
      <trkpt lat="43.3073" lon="-2.37895">
        <ele>28.6</ele>
        <time>2021-05-29 13:04:14</time>
      </trkpt>
      <trkpt lat="43.30728" lon="-2.37909">
        <ele>28.4</ele>
        <time>2021-05-29 13:04:15</time>
      </trkpt>
      <trkpt lat="43.30725" lon="-2.37922">
        <ele>28.2</ele>
        <time>2021-05-29 13:04:16</time>
      </trkpt>
      <trkpt lat="43.3072" lon="-2.37934">
        <ele>27.8</ele>
        <time>2021-05-29 13:04:17</time>
      </trkpt>
      <trkpt lat="43.30715" lon="-2.37945">
        <ele>27.6</ele>
        <time>2021-05-29 13:04:18</time>
      </trkpt>
      <trkpt lat="43.3071" lon="-2.37956">
        <ele>27.4</ele>
        <time>2021-05-29 13:04:19</time>
      </trkpt>
      <trkpt lat="43.30706" lon="-2.37969">
        <ele>27.2</ele>
        <time>2021-05-29 13:04:20</time>
      </trkpt>
      <trkpt lat="43.30703" lon="-2.37982">
        <ele>27.2</ele>
        <time>2021-05-29 13:04:21</time>
      </trkpt>
      <trkpt lat="43.30701" lon="-2.37996">
        <ele>26.6</ele>
        <time>2021-05-29 13:04:22</time>
      </trkpt>
      <trkpt lat="43.30701" lon="-2.3801">
        <ele>26.4</ele>
        <time>2021-05-29 13:04:23</time>
      </trkpt>
      <trkpt lat="43.30702" lon="-2.38023">
        <ele>26</ele>
        <time>2021-05-29 13:04:24</time>
      </trkpt>
      <trkpt lat="43.30703" lon="-2.38035">
        <ele>25.8</ele>
        <time>2021-05-29 13:04:25</time>
      </trkpt>
      <trkpt lat="43.30702" lon="-2.38048">
        <ele>25.4</ele>
        <time>2021-05-29 13:04:26</time>
      </trkpt>
      <trkpt lat="43.307" lon="-2.38061">
        <ele>25</ele>
        <time>2021-05-29 13:04:27</time>
      </trkpt>
      <trkpt lat="43.30697" lon="-2.38074">
        <ele>24.6</ele>
        <time>2021-05-29 13:04:28</time>
      </trkpt>
      <trkpt lat="43.30694" lon="-2.38086">
        <ele>24.4</ele>
        <time>2021-05-29 13:04:29</time>
      </trkpt>
      <trkpt lat="43.30691" lon="-2.38099">
        <ele>24</ele>
        <time>2021-05-29 13:04:30</time>
      </trkpt>
      <trkpt lat="43.30688" lon="-2.38111">
        <ele>23.8</ele>
        <time>2021-05-29 13:04:31</time>
      </trkpt>
      <trkpt lat="43.30685" lon="-2.38124">
        <ele>23.6</ele>
        <time>2021-05-29 13:04:32</time>
      </trkpt>
      <trkpt lat="43.30682" lon="-2.38136">
        <ele>23.6</ele>
        <time>2021-05-29 13:04:33</time>
      </trkpt>
      <trkpt lat="43.30679" lon="-2.38149">
        <ele>23.4</ele>
        <time>2021-05-29 13:04:34</time>
      </trkpt>
      <trkpt lat="43.30676" lon="-2.38161">
        <ele>23.2</ele>
        <time>2021-05-29 13:04:35</time>
      </trkpt>
      <trkpt lat="43.30673" lon="-2.38173">
        <ele>23</ele>
        <time>2021-05-29 13:04:36</time>
      </trkpt>
      <trkpt lat="43.30669" lon="-2.38185">
        <ele>23</ele>
        <time>2021-05-29 13:04:37</time>
      </trkpt>
      <trkpt lat="43.30664" lon="-2.38196">
        <ele>22.6</ele>
        <time>2021-05-29 13:04:38</time>
      </trkpt>
      <trkpt lat="43.3066" lon="-2.38207">
        <ele>22.4</ele>
        <time>2021-05-29 13:04:39</time>
      </trkpt>
      <trkpt lat="43.30656" lon="-2.38218">
        <ele>22.2</ele>
        <time>2021-05-29 13:04:40</time>
      </trkpt>
      <trkpt lat="43.30652" lon="-2.38227">
        <ele>22</ele>
        <time>2021-05-29 13:04:41</time>
      </trkpt>
      <trkpt lat="43.30648" lon="-2.38236">
        <ele>22</ele>
        <time>2021-05-29 13:04:42</time>
      </trkpt>
      <trkpt lat="43.30645" lon="-2.38244">
        <ele>21.8</ele>
        <time>2021-05-29 13:04:43</time>
      </trkpt>
      <trkpt lat="43.30642" lon="-2.38252">
        <ele>21.8</ele>
        <time>2021-05-29 13:04:44</time>
      </trkpt>
      <trkpt lat="43.30639" lon="-2.3826">
        <ele>21.2</ele>
        <time>2021-05-29 13:04:45</time>
      </trkpt>
      <trkpt lat="43.30636" lon="-2.38267">
        <ele>21</ele>
        <time>2021-05-29 13:04:46</time>
      </trkpt>
      <trkpt lat="43.30634" lon="-2.38273">
        <ele>20.8</ele>
        <time>2021-05-29 13:04:47</time>
      </trkpt>
      <trkpt lat="43.30632" lon="-2.38278">
        <ele>20.4</ele>
        <time>2021-05-29 13:04:48</time>
      </trkpt>
      <trkpt lat="43.3063" lon="-2.38282">
        <ele>20</ele>
        <time>2021-05-29 13:04:49</time>
      </trkpt>
      <trkpt lat="43.30628" lon="-2.38286">
        <ele>19.6</ele>
        <time>2021-05-29 13:04:50</time>
      </trkpt>
      <trkpt lat="43.30626" lon="-2.38289">
        <ele>19.4</ele>
        <time>2021-05-29 13:04:51</time>
      </trkpt>
      <trkpt lat="43.30625" lon="-2.38292">
        <ele>19</ele>
        <time>2021-05-29 13:04:52</time>
      </trkpt>
      <trkpt lat="43.30624" lon="-2.38294">
        <ele>18.8</ele>
        <time>2021-05-29 13:04:53</time>
      </trkpt>
      <trkpt lat="43.30623" lon="-2.38295">
        <ele>18.4</ele>
        <time>2021-05-29 13:04:54</time>
      </trkpt>
      <trkpt lat="43.30622" lon="-2.38297">
        <ele>18.2</ele>
        <time>2021-05-29 13:04:55</time>
      </trkpt>
      <trkpt lat="43.30622" lon="-2.38299">
        <ele>18</ele>
        <time>2021-05-29 13:04:56</time>
      </trkpt>
      <trkpt lat="43.30621" lon="-2.383">
        <ele>17.8</ele>
        <time>2021-05-29 13:04:57</time>
      </trkpt>
      <trkpt lat="43.30621" lon="-2.38301">
        <ele>17.8</ele>
        <time>2021-05-29 13:04:58</time>
      </trkpt>
      <trkpt lat="43.3062" lon="-2.38302">
        <ele>17.6</ele>
        <time>2021-05-29 13:04:59</time>
      </trkpt>
      <trkpt lat="43.3062" lon="-2.38303">
        <ele>17.6</ele>
        <time>2021-05-29 13:05:00</time>
      </trkpt>
      <trkpt lat="43.30619" lon="-2.38303">
        <ele>17.4</ele>
        <time>2021-05-29 13:05:01</time>
      </trkpt>
      <trkpt lat="43.30619" lon="-2.38303">
        <ele>17.4</ele>
        <time>2021-05-29 13:05:02</time>
      </trkpt>
      <trkpt lat="43.30618" lon="-2.38311">
        <ele>17</ele>
        <time>2021-05-29 13:05:03</time>
      </trkpt>
      <trkpt lat="43.30615" lon="-2.38317">
        <ele>17</ele>
        <time>2021-05-29 13:05:04</time>
      </trkpt>
      <trkpt lat="43.30612" lon="-2.38324">
        <ele>17</ele>
        <time>2021-05-29 13:05:05</time>
      </trkpt>
      <trkpt lat="43.30609" lon="-2.3833">
        <ele>17</ele>
        <time>2021-05-29 13:05:06</time>
      </trkpt>
      <trkpt lat="43.30605" lon="-2.38338">
        <ele>17</ele>
        <time>2021-05-29 13:05:07</time>
      </trkpt>
      <trkpt lat="43.306" lon="-2.38345">
        <ele>17</ele>
        <time>2021-05-29 13:05:08</time>
      </trkpt>
      <trkpt lat="43.30595" lon="-2.38352">
        <ele>16.8</ele>
        <time>2021-05-29 13:05:09</time>
      </trkpt>
      <trkpt lat="43.30589" lon="-2.38357">
        <ele>16.8</ele>
        <time>2021-05-29 13:05:10</time>
      </trkpt>
      <trkpt lat="43.30583" lon="-2.38362">
        <ele>16.4</ele>
        <time>2021-05-29 13:05:11</time>
      </trkpt>
      <trkpt lat="43.30577" lon="-2.38366">
        <ele>16.2</ele>
        <time>2021-05-29 13:05:12</time>
      </trkpt>
      <trkpt lat="43.30573" lon="-2.3837">
        <ele>16</ele>
        <time>2021-05-29 13:05:13</time>
      </trkpt>
      <trkpt lat="43.3057" lon="-2.38373">
        <ele>15.8</ele>
        <time>2021-05-29 13:05:14</time>
      </trkpt>
      <trkpt lat="43.30567" lon="-2.38375">
        <ele>15.6</ele>
        <time>2021-05-29 13:05:15</time>
      </trkpt>
      <trkpt lat="43.30565" lon="-2.38376">
        <ele>15.4</ele>
        <time>2021-05-29 13:05:16</time>
      </trkpt>
      <trkpt lat="43.30564" lon="-2.38376">
        <ele>15.2</ele>
        <time>2021-05-29 13:05:17</time>
      </trkpt>
      <trkpt lat="43.30564" lon="-2.38376">
        <ele>14.8</ele>
        <time>2021-05-29 13:05:18</time>
      </trkpt>
      <trkpt lat="43.30555" lon="-2.38387">
        <ele>14</ele>
        <time>2021-05-29 13:05:19</time>
      </trkpt>
      <trkpt lat="43.30554" lon="-2.3839">
        <ele>14</ele>
        <time>2021-05-29 13:05:20</time>
      </trkpt>
      <trkpt lat="43.30553" lon="-2.38394">
        <ele>14</ele>
        <time>2021-05-29 13:05:30</time>
      </trkpt>
      <trkpt lat="43.30551" lon="-2.38398">
        <ele>14.2</ele>
        <time>2021-05-29 13:05:31</time>
      </trkpt>
      <trkpt lat="43.30549" lon="-2.38402">
        <ele>14.2</ele>
        <time>2021-05-29 13:05:32</time>
      </trkpt>
      <trkpt lat="43.30546" lon="-2.38407">
        <ele>14.2</ele>
        <time>2021-05-29 13:05:33</time>
      </trkpt>
      <trkpt lat="43.30544" lon="-2.38411">
        <ele>14.4</ele>
        <time>2021-05-29 13:05:34</time>
      </trkpt>
      <trkpt lat="43.30542" lon="-2.38416">
        <ele>14.6</ele>
        <time>2021-05-29 13:05:35</time>
      </trkpt>
      <trkpt lat="43.30541" lon="-2.38421">
        <ele>14.6</ele>
        <time>2021-05-29 13:05:36</time>
      </trkpt>
      <trkpt lat="43.30539" lon="-2.38426">
        <ele>14.6</ele>
        <time>2021-05-29 13:05:37</time>
      </trkpt>
      <trkpt lat="43.30537" lon="-2.3843">
        <ele>14.8</ele>
        <time>2021-05-29 13:05:38</time>
      </trkpt>
      <trkpt lat="43.30536" lon="-2.38435">
        <ele>15</ele>
        <time>2021-05-29 13:05:39</time>
      </trkpt>
      <trkpt lat="43.30534" lon="-2.3844">
        <ele>15</ele>
        <time>2021-05-29 13:05:40</time>
      </trkpt>
      <trkpt lat="43.30532" lon="-2.38445">
        <ele>15.2</ele>
        <time>2021-05-29 13:05:41</time>
      </trkpt>
      <trkpt lat="43.3053" lon="-2.38449">
        <ele>15.6</ele>
        <time>2021-05-29 13:05:42</time>
      </trkpt>
      <trkpt lat="43.30528" lon="-2.38454">
        <ele>15.8</ele>
        <time>2021-05-29 13:05:43</time>
      </trkpt>
      <trkpt lat="43.30525" lon="-2.38459">
        <ele>16</ele>
        <time>2021-05-29 13:05:44</time>
      </trkpt>
      <trkpt lat="43.30523" lon="-2.38465">
        <ele>16.2</ele>
        <time>2021-05-29 13:05:45</time>
      </trkpt>
      <trkpt lat="43.3052" lon="-2.3847">
        <ele>16.4</ele>
        <time>2021-05-29 13:06:07</time>
      </trkpt>
      <trkpt lat="43.30518" lon="-2.38476">
        <ele>16.8</ele>
        <time>2021-05-29 13:06:08</time>
      </trkpt>
      <trkpt lat="43.30515" lon="-2.38482">
        <ele>17</ele>
        <time>2021-05-29 13:06:09</time>
      </trkpt>
      <trkpt lat="43.30513" lon="-2.38488">
        <ele>17.2</ele>
        <time>2021-05-29 13:06:10</time>
      </trkpt>
      <trkpt lat="43.3051" lon="-2.38494">
        <ele>17.4</ele>
        <time>2021-05-29 13:06:11</time>
      </trkpt>
      <trkpt lat="43.30507" lon="-2.385">
        <ele>17.8</ele>
        <time>2021-05-29 13:06:12</time>
      </trkpt>
      <trkpt lat="43.30504" lon="-2.38505">
        <ele>18</ele>
        <time>2021-05-29 13:06:13</time>
      </trkpt>
      <trkpt lat="43.30501" lon="-2.38511">
        <ele>18.2</ele>
        <time>2021-05-29 13:06:14</time>
      </trkpt>
      <trkpt lat="43.30498" lon="-2.38517">
        <ele>18.4</ele>
        <time>2021-05-29 13:06:15</time>
      </trkpt>
      <trkpt lat="43.30495" lon="-2.38523">
        <ele>18.6</ele>
        <time>2021-05-29 13:06:16</time>
      </trkpt>
      <trkpt lat="43.30492" lon="-2.3853">
        <ele>18.8</ele>
        <time>2021-05-29 13:06:17</time>
      </trkpt>
      <trkpt lat="43.30489" lon="-2.38536">
        <ele>19</ele>
        <time>2021-05-29 13:06:18</time>
      </trkpt>
      <trkpt lat="43.30486" lon="-2.38543">
        <ele>19.2</ele>
        <time>2021-05-29 13:06:19</time>
      </trkpt>
      <trkpt lat="43.30483" lon="-2.38549">
        <ele>19.6</ele>
        <time>2021-05-29 13:06:20</time>
      </trkpt>
      <trkpt lat="43.3048" lon="-2.38555">
        <ele>19.8</ele>
        <time>2021-05-29 13:06:21</time>
      </trkpt>
      <trkpt lat="43.30477" lon="-2.38562">
        <ele>20.2</ele>
        <time>2021-05-29 13:06:22</time>
      </trkpt>
      <trkpt lat="43.30474" lon="-2.38568">
        <ele>20.4</ele>
        <time>2021-05-29 13:06:23</time>
      </trkpt>
      <trkpt lat="43.30471" lon="-2.38575">
        <ele>20.6</ele>
        <time>2021-05-29 13:06:24</time>
      </trkpt>
      <trkpt lat="43.30468" lon="-2.38582">
        <ele>20.8</ele>
        <time>2021-05-29 13:06:25</time>
      </trkpt>
      <trkpt lat="43.30465" lon="-2.38589">
        <ele>21</ele>
        <time>2021-05-29 13:06:26</time>
      </trkpt>
      <trkpt lat="43.30461" lon="-2.38595">
        <ele>21.2</ele>
        <time>2021-05-29 13:06:27</time>
      </trkpt>
      <trkpt lat="43.30458" lon="-2.38602">
        <ele>21.2</ele>
        <time>2021-05-29 13:06:28</time>
      </trkpt>
      <trkpt lat="43.30455" lon="-2.38609">
        <ele>21.6</ele>
        <time>2021-05-29 13:06:29</time>
      </trkpt>
      <trkpt lat="43.30451" lon="-2.38617">
        <ele>21.6</ele>
        <time>2021-05-29 13:06:30</time>
      </trkpt>
      <trkpt lat="43.30447" lon="-2.38624">
        <ele>21.6</ele>
        <time>2021-05-29 13:06:31</time>
      </trkpt>
      <trkpt lat="43.30444" lon="-2.38631">
        <ele>21.6</ele>
        <time>2021-05-29 13:06:32</time>
      </trkpt>
      <trkpt lat="43.3044" lon="-2.38639">
        <ele>21.6</ele>
        <time>2021-05-29 13:06:33</time>
      </trkpt>
      <trkpt lat="43.30437" lon="-2.38646">
        <ele>21.6</ele>
        <time>2021-05-29 13:06:34</time>
      </trkpt>
      <trkpt lat="43.30434" lon="-2.38654">
        <ele>21.6</ele>
        <time>2021-05-29 13:06:35</time>
      </trkpt>
      <trkpt lat="43.30431" lon="-2.38661">
        <ele>21.6</ele>
        <time>2021-05-29 13:06:36</time>
      </trkpt>
      <trkpt lat="43.30427" lon="-2.38669">
        <ele>21.8</ele>
        <time>2021-05-29 13:06:37</time>
      </trkpt>
      <trkpt lat="43.30424" lon="-2.38677">
        <ele>21.8</ele>
        <time>2021-05-29 13:06:38</time>
      </trkpt>
      <trkpt lat="43.30422" lon="-2.38685">
        <ele>21.8</ele>
        <time>2021-05-29 13:06:39</time>
      </trkpt>
      <trkpt lat="43.30421" lon="-2.38693">
        <ele>21.8</ele>
        <time>2021-05-29 13:06:40</time>
      </trkpt>
      <trkpt lat="43.30422" lon="-2.38701">
        <ele>22</ele>
        <time>2021-05-29 13:06:41</time>
      </trkpt>
      <trkpt lat="43.30424" lon="-2.38709">
        <ele>22.2</ele>
        <time>2021-05-29 13:06:42</time>
      </trkpt>
      <trkpt lat="43.30427" lon="-2.38716">
        <ele>22.2</ele>
        <time>2021-05-29 13:06:43</time>
      </trkpt>
      <trkpt lat="43.30431" lon="-2.38721">
        <ele>22.4</ele>
        <time>2021-05-29 13:06:44</time>
      </trkpt>
      <trkpt lat="43.30437" lon="-2.38722">
        <ele>22.6</ele>
        <time>2021-05-29 13:06:45</time>
      </trkpt>
      <trkpt lat="43.30443" lon="-2.38723">
        <ele>22.8</ele>
        <time>2021-05-29 13:06:46</time>
      </trkpt>
      <trkpt lat="43.30449" lon="-2.38722">
        <ele>23.2</ele>
        <time>2021-05-29 13:06:47</time>
      </trkpt>
      <trkpt lat="43.30454" lon="-2.38722">
        <ele>23.4</ele>
        <time>2021-05-29 13:06:48</time>
      </trkpt>
      <trkpt lat="43.3046" lon="-2.38722">
        <ele>23.8</ele>
        <time>2021-05-29 13:06:49</time>
      </trkpt>
      <trkpt lat="43.30465" lon="-2.38722">
        <ele>24.2</ele>
        <time>2021-05-29 13:06:50</time>
      </trkpt>
      <trkpt lat="43.30471" lon="-2.38723">
        <ele>24.6</ele>
        <time>2021-05-29 13:06:51</time>
      </trkpt>
      <trkpt lat="43.30476" lon="-2.38722">
        <ele>24.8</ele>
        <time>2021-05-29 13:06:52</time>
      </trkpt>
      <trkpt lat="43.30481" lon="-2.38722">
        <ele>24.8</ele>
        <time>2021-05-29 13:06:53</time>
      </trkpt>
      <trkpt lat="43.30486" lon="-2.38722">
        <ele>25.2</ele>
        <time>2021-05-29 13:06:54</time>
      </trkpt>
      <trkpt lat="43.30491" lon="-2.38722">
        <ele>25.4</ele>
        <time>2021-05-29 13:06:55</time>
      </trkpt>
      <trkpt lat="43.30496" lon="-2.38722">
        <ele>25.6</ele>
        <time>2021-05-29 13:06:56</time>
      </trkpt>
      <trkpt lat="43.30501" lon="-2.38722">
        <ele>25.8</ele>
        <time>2021-05-29 13:06:57</time>
      </trkpt>
      <trkpt lat="43.30507" lon="-2.38722">
        <ele>26</ele>
        <time>2021-05-29 13:06:58</time>
      </trkpt>
      <trkpt lat="43.30512" lon="-2.38722">
        <ele>26.2</ele>
        <time>2021-05-29 13:06:59</time>
      </trkpt>
      <trkpt lat="43.30518" lon="-2.38723">
        <ele>26.6</ele>
        <time>2021-05-29 13:07:00</time>
      </trkpt>
      <trkpt lat="43.30525" lon="-2.38723">
        <ele>26.8</ele>
        <time>2021-05-29 13:07:01</time>
      </trkpt>
      <trkpt lat="43.30531" lon="-2.38723">
        <ele>27.2</ele>
        <time>2021-05-29 13:07:02</time>
      </trkpt>
      <trkpt lat="43.30537" lon="-2.38724">
        <ele>27.6</ele>
        <time>2021-05-29 13:07:03</time>
      </trkpt>
      <trkpt lat="43.30542" lon="-2.38724">
        <ele>28</ele>
        <time>2021-05-29 13:07:04</time>
      </trkpt>
      <trkpt lat="43.30549" lon="-2.38724">
        <ele>28.2</ele>
        <time>2021-05-29 13:07:05</time>
      </trkpt>
      <trkpt lat="43.30556" lon="-2.38724">
        <ele>28.4</ele>
        <time>2021-05-29 13:07:06</time>
      </trkpt>
      <trkpt lat="43.30563" lon="-2.38724">
        <ele>28.4</ele>
        <time>2021-05-29 13:07:07</time>
      </trkpt>
      <trkpt lat="43.3057" lon="-2.38723">
        <ele>28.4</ele>
        <time>2021-05-29 13:07:08</time>
      </trkpt>
      <trkpt lat="43.30576" lon="-2.38723">
        <ele>28.6</ele>
        <time>2021-05-29 13:07:09</time>
      </trkpt>
      <trkpt lat="43.30583" lon="-2.38723">
        <ele>28.6</ele>
        <time>2021-05-29 13:07:10</time>
      </trkpt>
      <trkpt lat="43.3059" lon="-2.38723">
        <ele>28.6</ele>
        <time>2021-05-29 13:07:11</time>
      </trkpt>
      <trkpt lat="43.30596" lon="-2.38723">
        <ele>28.6</ele>
        <time>2021-05-29 13:07:12</time>
      </trkpt>
      <trkpt lat="43.30603" lon="-2.38723">
        <ele>28.6</ele>
        <time>2021-05-29 13:07:13</time>
      </trkpt>
      <trkpt lat="43.3061" lon="-2.38724">
        <ele>28.6</ele>
        <time>2021-05-29 13:07:14</time>
      </trkpt>
      <trkpt lat="43.30617" lon="-2.38724">
        <ele>28.6</ele>
        <time>2021-05-29 13:07:15</time>
      </trkpt>
      <trkpt lat="43.30625" lon="-2.38725">
        <ele>28.6</ele>
        <time>2021-05-29 13:07:16</time>
      </trkpt>
      <trkpt lat="43.30632" lon="-2.38726">
        <ele>28.6</ele>
        <time>2021-05-29 13:07:17</time>
      </trkpt>
      <trkpt lat="43.30639" lon="-2.38726">
        <ele>28.6</ele>
        <time>2021-05-29 13:07:18</time>
      </trkpt>
      <trkpt lat="43.30647" lon="-2.38726">
        <ele>28.6</ele>
        <time>2021-05-29 13:07:19</time>
      </trkpt>
      <trkpt lat="43.30655" lon="-2.38726">
        <ele>28.6</ele>
        <time>2021-05-29 13:07:20</time>
      </trkpt>
      <trkpt lat="43.30662" lon="-2.38727">
        <ele>28.6</ele>
        <time>2021-05-29 13:07:21</time>
      </trkpt>
      <trkpt lat="43.30669" lon="-2.38729">
        <ele>28.6</ele>
        <time>2021-05-29 13:07:22</time>
      </trkpt>
      <trkpt lat="43.30676" lon="-2.38734">
        <ele>28.6</ele>
        <time>2021-05-29 13:07:23</time>
      </trkpt>
      <trkpt lat="43.30682" lon="-2.38736">
        <ele>28.6</ele>
        <time>2021-05-29 13:07:24</time>
      </trkpt>
      <trkpt lat="43.30687" lon="-2.3874">
        <ele>28.6</ele>
        <time>2021-05-29 13:07:25</time>
      </trkpt>
      <trkpt lat="43.3069" lon="-2.38748">
        <ele>28.6</ele>
        <time>2021-05-29 13:07:26</time>
      </trkpt>
      <trkpt lat="43.30692" lon="-2.38755">
        <ele>28.6</ele>
        <time>2021-05-29 13:07:27</time>
      </trkpt>
      <trkpt lat="43.30695" lon="-2.38761">
        <ele>28.6</ele>
        <time>2021-05-29 13:07:28</time>
      </trkpt>
      <trkpt lat="43.30697" lon="-2.38768">
        <ele>28.6</ele>
        <time>2021-05-29 13:07:29</time>
      </trkpt>
      <trkpt lat="43.30698" lon="-2.38778">
        <ele>28.6</ele>
        <time>2021-05-29 13:07:30</time>
      </trkpt>
      <trkpt lat="43.30697" lon="-2.38786">
        <ele>28.8</ele>
        <time>2021-05-29 13:07:31</time>
      </trkpt>
      <trkpt lat="43.30695" lon="-2.38794">
        <ele>28.8</ele>
        <time>2021-05-29 13:07:32</time>
      </trkpt>
      <trkpt lat="43.30693" lon="-2.38801">
        <ele>29</ele>
        <time>2021-05-29 13:07:33</time>
      </trkpt>
      <trkpt lat="43.30692" lon="-2.38809">
        <ele>29.2</ele>
        <time>2021-05-29 13:07:34</time>
      </trkpt>
      <trkpt lat="43.3069" lon="-2.38816">
        <ele>29.6</ele>
        <time>2021-05-29 13:07:35</time>
      </trkpt>
      <trkpt lat="43.30689" lon="-2.38822">
        <ele>29.8</ele>
        <time>2021-05-29 13:07:36</time>
      </trkpt>
      <trkpt lat="43.30688" lon="-2.38828">
        <ele>30</ele>
        <time>2021-05-29 13:07:37</time>
      </trkpt>
      <trkpt lat="43.30687" lon="-2.38834">
        <ele>30.2</ele>
        <time>2021-05-29 13:07:38</time>
      </trkpt>
      <trkpt lat="43.30687" lon="-2.38839">
        <ele>30.4</ele>
        <time>2021-05-29 13:07:39</time>
      </trkpt>
      <trkpt lat="43.30687" lon="-2.38845">
        <ele>30.6</ele>
        <time>2021-05-29 13:07:40</time>
      </trkpt>
      <trkpt lat="43.30688" lon="-2.3885">
        <ele>30.8</ele>
        <time>2021-05-29 13:07:41</time>
      </trkpt>
      <trkpt lat="43.30689" lon="-2.38855">
        <ele>31.4</ele>
        <time>2021-05-29 13:07:42</time>
      </trkpt>
      <trkpt lat="43.30689" lon="-2.3886">
        <ele>31.8</ele>
        <time>2021-05-29 13:07:43</time>
      </trkpt>
      <trkpt lat="43.3069" lon="-2.38865">
        <ele>32.2</ele>
        <time>2021-05-29 13:07:44</time>
      </trkpt>
      <trkpt lat="43.30691" lon="-2.38869">
        <ele>32.8</ele>
        <time>2021-05-29 13:07:45</time>
      </trkpt>
      <trkpt lat="43.30693" lon="-2.38874">
        <ele>33.2</ele>
        <time>2021-05-29 13:07:46</time>
      </trkpt>
      <trkpt lat="43.30694" lon="-2.38878">
        <ele>33.6</ele>
        <time>2021-05-29 13:07:47</time>
      </trkpt>
      <trkpt lat="43.30696" lon="-2.38883">
        <ele>34</ele>
        <time>2021-05-29 13:07:48</time>
      </trkpt>
      <trkpt lat="43.30697" lon="-2.38888">
        <ele>34.6</ele>
        <time>2021-05-29 13:07:49</time>
      </trkpt>
      <trkpt lat="43.30698" lon="-2.38892">
        <ele>35.2</ele>
        <time>2021-05-29 13:07:50</time>
      </trkpt>
      <trkpt lat="43.30699" lon="-2.38897">
        <ele>35.6</ele>
        <time>2021-05-29 13:07:51</time>
      </trkpt>
      <trkpt lat="43.30699" lon="-2.38901">
        <ele>36.2</ele>
        <time>2021-05-29 13:07:52</time>
      </trkpt>
      <trkpt lat="43.30701" lon="-2.38905">
        <ele>36.6</ele>
        <time>2021-05-29 13:07:53</time>
      </trkpt>
      <trkpt lat="43.30702" lon="-2.38908">
        <ele>37</ele>
        <time>2021-05-29 13:07:54</time>
      </trkpt>
      <trkpt lat="43.30703" lon="-2.38912">
        <ele>37.4</ele>
        <time>2021-05-29 13:07:55</time>
      </trkpt>
      <trkpt lat="43.30705" lon="-2.38916">
        <ele>37.8</ele>
        <time>2021-05-29 13:07:56</time>
      </trkpt>
      <trkpt lat="43.30706" lon="-2.38919">
        <ele>38.2</ele>
        <time>2021-05-29 13:07:57</time>
      </trkpt>
      <trkpt lat="43.30707" lon="-2.38922">
        <ele>38.8</ele>
        <time>2021-05-29 13:07:58</time>
      </trkpt>
      <trkpt lat="43.30707" lon="-2.38925">
        <ele>39.2</ele>
        <time>2021-05-29 13:07:59</time>
      </trkpt>
      <trkpt lat="43.30708" lon="-2.38928">
        <ele>39.6</ele>
        <time>2021-05-29 13:08:00</time>
      </trkpt>
      <trkpt lat="43.30709" lon="-2.38931">
        <ele>40.2</ele>
        <time>2021-05-29 13:08:01</time>
      </trkpt>
      <trkpt lat="43.3071" lon="-2.38935">
        <ele>40.6</ele>
        <time>2021-05-29 13:08:02</time>
      </trkpt>
      <trkpt lat="43.30711" lon="-2.38939">
        <ele>41</ele>
        <time>2021-05-29 13:08:03</time>
      </trkpt>
      <trkpt lat="43.30712" lon="-2.38942">
        <ele>41.4</ele>
        <time>2021-05-29 13:08:04</time>
      </trkpt>
      <trkpt lat="43.30713" lon="-2.38946">
        <ele>41.8</ele>
        <time>2021-05-29 13:08:05</time>
      </trkpt>
      <trkpt lat="43.30714" lon="-2.38949">
        <ele>42.2</ele>
        <time>2021-05-29 13:08:06</time>
      </trkpt>
      <trkpt lat="43.30715" lon="-2.38952">
        <ele>42.6</ele>
        <time>2021-05-29 13:08:07</time>
      </trkpt>
      <trkpt lat="43.30716" lon="-2.38956">
        <ele>42.8</ele>
        <time>2021-05-29 13:08:08</time>
      </trkpt>
      <trkpt lat="43.30718" lon="-2.38959">
        <ele>43</ele>
        <time>2021-05-29 13:08:09</time>
      </trkpt>
      <trkpt lat="43.30719" lon="-2.3896">
        <ele>43.2</ele>
        <time>2021-05-29 13:08:10</time>
      </trkpt>
      <trkpt lat="43.3072" lon="-2.38959">
        <ele>43.4</ele>
        <time>2021-05-29 13:08:11</time>
      </trkpt>
      <trkpt lat="43.30722" lon="-2.38957">
        <ele>44</ele>
        <time>2021-05-29 13:08:12</time>
      </trkpt>
      <trkpt lat="43.30723" lon="-2.38956">
        <ele>44.8</ele>
        <time>2021-05-29 13:08:13</time>
      </trkpt>
      <trkpt lat="43.30724" lon="-2.38954">
        <ele>45</ele>
        <time>2021-05-29 13:08:14</time>
      </trkpt>
      <trkpt lat="43.30725" lon="-2.38953">
        <ele>45.2</ele>
        <time>2021-05-29 13:08:15</time>
      </trkpt>
      <trkpt lat="43.30725" lon="-2.38952">
        <ele>45.2</ele>
        <time>2021-05-29 13:08:16</time>
      </trkpt>
      <trkpt lat="43.30725" lon="-2.38981">
        <ele>46</ele>
        <time>2021-05-29 13:08:17</time>
      </trkpt>
      <trkpt lat="43.30726" lon="-2.38983">
        <ele>46</ele>
        <time>2021-05-29 13:08:18</time>
      </trkpt>
      <trkpt lat="43.30727" lon="-2.38986">
        <ele>46</ele>
        <time>2021-05-29 13:08:19</time>
      </trkpt>
      <trkpt lat="43.30728" lon="-2.38989">
        <ele>46</ele>
        <time>2021-05-29 13:08:20</time>
      </trkpt>
      <trkpt lat="43.30729" lon="-2.38993">
        <ele>46</ele>
        <time>2021-05-29 13:08:21</time>
      </trkpt>
      <trkpt lat="43.3073" lon="-2.38996">
        <ele>46.2</ele>
        <time>2021-05-29 13:08:22</time>
      </trkpt>
      <trkpt lat="43.30732" lon="-2.38999">
        <ele>46.2</ele>
        <time>2021-05-29 13:08:23</time>
      </trkpt>
      <trkpt lat="43.30734" lon="-2.39003">
        <ele>46.2</ele>
        <time>2021-05-29 13:08:24</time>
      </trkpt>
      <trkpt lat="43.30735" lon="-2.39007">
        <ele>46.2</ele>
        <time>2021-05-29 13:08:25</time>
      </trkpt>
      <trkpt lat="43.30737" lon="-2.3901">
        <ele>46.4</ele>
        <time>2021-05-29 13:08:26</time>
      </trkpt>
      <trkpt lat="43.30739" lon="-2.39014">
        <ele>46.4</ele>
        <time>2021-05-29 13:08:27</time>
      </trkpt>
      <trkpt lat="43.30741" lon="-2.39018">
        <ele>46.6</ele>
        <time>2021-05-29 13:08:28</time>
      </trkpt>
      <trkpt lat="43.30743" lon="-2.39021">
        <ele>46.8</ele>
        <time>2021-05-29 13:08:29</time>
      </trkpt>
      <trkpt lat="43.30745" lon="-2.39025">
        <ele>47</ele>
        <time>2021-05-29 13:08:30</time>
      </trkpt>
      <trkpt lat="43.30746" lon="-2.39029">
        <ele>47.2</ele>
        <time>2021-05-29 13:08:31</time>
      </trkpt>
      <trkpt lat="43.30747" lon="-2.39034">
        <ele>47.4</ele>
        <time>2021-05-29 13:08:32</time>
      </trkpt>
      <trkpt lat="43.30748" lon="-2.39039">
        <ele>47.8</ele>
        <time>2021-05-29 13:08:33</time>
      </trkpt>
      <trkpt lat="43.30748" lon="-2.39045">
        <ele>48</ele>
        <time>2021-05-29 13:08:34</time>
      </trkpt>
      <trkpt lat="43.30748" lon="-2.39051">
        <ele>48.2</ele>
        <time>2021-05-29 13:18:03</time>
      </trkpt>
      <trkpt lat="43.30747" lon="-2.39057">
        <ele>48.4</ele>
        <time>2021-05-29 13:18:04</time>
      </trkpt>
      <trkpt lat="43.30747" lon="-2.39063">
        <ele>48.6</ele>
        <time>2021-05-29 13:18:05</time>
      </trkpt>
      <trkpt lat="43.30746" lon="-2.39068">
        <ele>48.8</ele>
        <time>2021-05-29 13:18:06</time>
      </trkpt>
      <trkpt lat="43.30745" lon="-2.39073">
        <ele>49.2</ele>
        <time>2021-05-29 13:18:07</time>
      </trkpt>
      <trkpt lat="43.30744" lon="-2.39078">
        <ele>49.2</ele>
        <time>2021-05-29 13:18:08</time>
      </trkpt>
      <trkpt lat="43.30743" lon="-2.39084">
        <ele>49.4</ele>
        <time>2021-05-29 13:18:09</time>
      </trkpt>
      <trkpt lat="43.30742" lon="-2.39091">
        <ele>49.4</ele>
        <time>2021-05-29 13:18:10</time>
      </trkpt>
      <trkpt lat="43.30741" lon="-2.39097">
        <ele>49.6</ele>
        <time>2021-05-29 13:18:11</time>
      </trkpt>
      <trkpt lat="43.30739" lon="-2.39104">
        <ele>49.8</ele>
        <time>2021-05-29 13:18:12</time>
      </trkpt>
      <trkpt lat="43.30738" lon="-2.39111">
        <ele>49.8</ele>
        <time>2021-05-29 13:18:13</time>
      </trkpt>
      <trkpt lat="43.30737" lon="-2.39117">
        <ele>49.8</ele>
        <time>2021-05-29 13:18:14</time>
      </trkpt>
      <trkpt lat="43.30736" lon="-2.39124">
        <ele>50</ele>
        <time>2021-05-29 13:18:15</time>
      </trkpt>
      <trkpt lat="43.30734" lon="-2.39133">
        <ele>50</ele>
        <time>2021-05-29 13:18:16</time>
      </trkpt>
      <trkpt lat="43.30732" lon="-2.39142">
        <ele>50</ele>
        <time>2021-05-29 13:18:17</time>
      </trkpt>
      <trkpt lat="43.30731" lon="-2.39151">
        <ele>50</ele>
        <time>2021-05-29 13:18:18</time>
      </trkpt>
      <trkpt lat="43.30729" lon="-2.39161">
        <ele>50</ele>
        <time>2021-05-29 13:18:19</time>
      </trkpt>
      <trkpt lat="43.30728" lon="-2.3917">
        <ele>50</ele>
        <time>2021-05-29 13:18:20</time>
      </trkpt>
      <trkpt lat="43.30726" lon="-2.3918">
        <ele>50</ele>
        <time>2021-05-29 13:18:21</time>
      </trkpt>
      <trkpt lat="43.30723" lon="-2.3919">
        <ele>50</ele>
        <time>2021-05-29 13:18:22</time>
      </trkpt>
      <trkpt lat="43.3072" lon="-2.39201">
        <ele>49.8</ele>
        <time>2021-05-29 13:18:23</time>
      </trkpt>
      <trkpt lat="43.30716" lon="-2.3921">
        <ele>49.6</ele>
        <time>2021-05-29 13:18:24</time>
      </trkpt>
      <trkpt lat="43.30711" lon="-2.3922">
        <ele>49.4</ele>
        <time>2021-05-29 13:18:25</time>
      </trkpt>
      <trkpt lat="43.30706" lon="-2.39229">
        <ele>49.2</ele>
        <time>2021-05-29 13:18:26</time>
      </trkpt>
      <trkpt lat="43.30699" lon="-2.39237">
        <ele>49</ele>
        <time>2021-05-29 13:18:27</time>
      </trkpt>
      <trkpt lat="43.30692" lon="-2.39245">
        <ele>48.8</ele>
        <time>2021-05-29 13:18:28</time>
      </trkpt>
      <trkpt lat="43.30685" lon="-2.39253">
        <ele>48.4</ele>
        <time>2021-05-29 13:18:29</time>
      </trkpt>
      <trkpt lat="43.30679" lon="-2.39262">
        <ele>48.2</ele>
        <time>2021-05-29 13:18:30</time>
      </trkpt>
      <trkpt lat="43.30672" lon="-2.39271">
        <ele>47.6</ele>
        <time>2021-05-29 13:18:31</time>
      </trkpt>
      <trkpt lat="43.30666" lon="-2.39282">
        <ele>47</ele>
        <time>2021-05-29 13:18:32</time>
      </trkpt>
      <trkpt lat="43.3066" lon="-2.39293">
        <ele>46.6</ele>
        <time>2021-05-29 13:18:33</time>
      </trkpt>
      <trkpt lat="43.30655" lon="-2.39307">
        <ele>46.4</ele>
        <time>2021-05-29 13:18:34</time>
      </trkpt>
      <trkpt lat="43.30651" lon="-2.39321">
        <ele>45.6</ele>
        <time>2021-05-29 13:18:35</time>
      </trkpt>
      <trkpt lat="43.30649" lon="-2.39336">
        <ele>45</ele>
        <time>2021-05-29 13:18:36</time>
      </trkpt>
      <trkpt lat="43.30649" lon="-2.39352">
        <ele>44.6</ele>
        <time>2021-05-29 13:18:37</time>
      </trkpt>
      <trkpt lat="43.3065" lon="-2.39367">
        <ele>44.4</ele>
        <time>2021-05-29 13:18:38</time>
      </trkpt>
      <trkpt lat="43.30652" lon="-2.39383">
        <ele>44</ele>
        <time>2021-05-29 13:18:39</time>
      </trkpt>
      <trkpt lat="43.30655" lon="-2.39398">
        <ele>43.2</ele>
        <time>2021-05-29 13:18:40</time>
      </trkpt>
      <trkpt lat="43.30658" lon="-2.39413">
        <ele>42.6</ele>
        <time>2021-05-29 13:18:41</time>
      </trkpt>
      <trkpt lat="43.30663" lon="-2.39428">
        <ele>42.2</ele>
        <time>2021-05-29 13:18:42</time>
      </trkpt>
      <trkpt lat="43.30668" lon="-2.39443">
        <ele>41.6</ele>
        <time>2021-05-29 13:18:43</time>
      </trkpt>
      <trkpt lat="43.30674" lon="-2.39457">
        <ele>41.2</ele>
        <time>2021-05-29 13:18:44</time>
      </trkpt>
      <trkpt lat="43.3068" lon="-2.39471">
        <ele>40.8</ele>
        <time>2021-05-29 13:18:45</time>
      </trkpt>
      <trkpt lat="43.30688" lon="-2.39484">
        <ele>40.2</ele>
        <time>2021-05-29 13:18:46</time>
      </trkpt>
      <trkpt lat="43.30697" lon="-2.39496">
        <ele>39.6</ele>
        <time>2021-05-29 13:18:47</time>
      </trkpt>
      <trkpt lat="43.30707" lon="-2.39508">
        <ele>39.2</ele>
        <time>2021-05-29 13:18:48</time>
      </trkpt>
      <trkpt lat="43.30716" lon="-2.39519">
        <ele>38.8</ele>
        <time>2021-05-29 13:18:49</time>
      </trkpt>
      <trkpt lat="43.30727" lon="-2.39528">
        <ele>38</ele>
        <time>2021-05-29 13:18:50</time>
      </trkpt>
      <trkpt lat="43.30739" lon="-2.39535">
        <ele>37.4</ele>
        <time>2021-05-29 13:18:51</time>
      </trkpt>
      <trkpt lat="43.30751" lon="-2.39541">
        <ele>36.8</ele>
        <time>2021-05-29 13:18:52</time>
      </trkpt>
      <trkpt lat="43.30763" lon="-2.39547">
        <ele>36.2</ele>
        <time>2021-05-29 13:18:53</time>
      </trkpt>
      <trkpt lat="43.30775" lon="-2.39555">
        <ele>35.2</ele>
        <time>2021-05-29 13:18:54</time>
      </trkpt>
      <trkpt lat="43.30786" lon="-2.39566">
        <ele>34.4</ele>
        <time>2021-05-29 13:18:55</time>
      </trkpt>
      <trkpt lat="43.30796" lon="-2.39579">
        <ele>33.4</ele>
        <time>2021-05-29 13:18:56</time>
      </trkpt>
      <trkpt lat="43.30804" lon="-2.39593">
        <ele>32.8</ele>
        <time>2021-05-29 13:18:57</time>
      </trkpt>
      <trkpt lat="43.30809" lon="-2.3961">
        <ele>32</ele>
        <time>2021-05-29 13:18:58</time>
      </trkpt>
      <trkpt lat="43.30813" lon="-2.39628">
        <ele>31.6</ele>
        <time>2021-05-29 13:18:59</time>
      </trkpt>
      <trkpt lat="43.30815" lon="-2.39645">
        <ele>31.2</ele>
        <time>2021-05-29 13:19:00</time>
      </trkpt>
      <trkpt lat="43.30815" lon="-2.39662">
        <ele>30.2</ele>
        <time>2021-05-29 13:19:01</time>
      </trkpt>
      <trkpt lat="43.30815" lon="-2.39677">
        <ele>29.4</ele>
        <time>2021-05-29 13:19:02</time>
      </trkpt>
      <trkpt lat="43.30816" lon="-2.39692">
        <ele>28.8</ele>
        <time>2021-05-29 13:19:03</time>
      </trkpt>
      <trkpt lat="43.30818" lon="-2.39707">
        <ele>28</ele>
        <time>2021-05-29 13:19:04</time>
      </trkpt>
      <trkpt lat="43.30818" lon="-2.39723">
        <ele>26.8</ele>
        <time>2021-05-29 13:19:05</time>
      </trkpt>
      <trkpt lat="43.30817" lon="-2.39738">
        <ele>25.8</ele>
        <time>2021-05-29 13:19:06</time>
      </trkpt>
      <trkpt lat="43.30815" lon="-2.39753">
        <ele>25.2</ele>
        <time>2021-05-29 13:19:07</time>
      </trkpt>
      <trkpt lat="43.30814" lon="-2.39768">
        <ele>24.6</ele>
        <time>2021-05-29 13:19:08</time>
      </trkpt>
      <trkpt lat="43.30814" lon="-2.39784">
        <ele>23.8</ele>
        <time>2021-05-29 13:19:09</time>
      </trkpt>
      <trkpt lat="43.30813" lon="-2.398">
        <ele>22.4</ele>
        <time>2021-05-29 13:19:10</time>
      </trkpt>
      <trkpt lat="43.30813" lon="-2.39816">
        <ele>21.6</ele>
        <time>2021-05-29 13:19:11</time>
      </trkpt>
      <trkpt lat="43.30813" lon="-2.39833">
        <ele>21.2</ele>
        <time>2021-05-29 13:19:12</time>
      </trkpt>
      <trkpt lat="43.30813" lon="-2.39849">
        <ele>20.6</ele>
        <time>2021-05-29 13:19:13</time>
      </trkpt>
      <trkpt lat="43.30813" lon="-2.39866">
        <ele>20.2</ele>
        <time>2021-05-29 13:19:14</time>
      </trkpt>
      <trkpt lat="43.30813" lon="-2.39883">
        <ele>19.6</ele>
        <time>2021-05-29 13:19:15</time>
      </trkpt>
      <trkpt lat="43.30813" lon="-2.399">
        <ele>19.2</ele>
        <time>2021-05-29 13:19:16</time>
      </trkpt>
      <trkpt lat="43.30814" lon="-2.39917">
        <ele>18.6</ele>
        <time>2021-05-29 13:19:17</time>
      </trkpt>
      <trkpt lat="43.30814" lon="-2.39933">
        <ele>18.4</ele>
        <time>2021-05-29 13:19:18</time>
      </trkpt>
      <trkpt lat="43.30814" lon="-2.3995">
        <ele>18</ele>
        <time>2021-05-29 13:19:19</time>
      </trkpt>
      <trkpt lat="43.30815" lon="-2.39967">
        <ele>17.2</ele>
        <time>2021-05-29 13:19:20</time>
      </trkpt>
      <trkpt lat="43.30815" lon="-2.39984">
        <ele>16.8</ele>
        <time>2021-05-29 13:19:21</time>
      </trkpt>
      <trkpt lat="43.30815" lon="-2.40001">
        <ele>16.4</ele>
        <time>2021-05-29 13:19:22</time>
      </trkpt>
      <trkpt lat="43.30816" lon="-2.40017">
        <ele>16</ele>
        <time>2021-05-29 13:19:23</time>
      </trkpt>
      <trkpt lat="43.30817" lon="-2.40033">
        <ele>15.4</ele>
        <time>2021-05-29 13:19:24</time>
      </trkpt>
      <trkpt lat="43.30817" lon="-2.40049">
        <ele>14.8</ele>
        <time>2021-05-29 13:19:25</time>
      </trkpt>
      <trkpt lat="43.30817" lon="-2.40065">
        <ele>14.6</ele>
        <time>2021-05-29 13:19:26</time>
      </trkpt>
      <trkpt lat="43.30818" lon="-2.40082">
        <ele>14.4</ele>
        <time>2021-05-29 13:19:27</time>
      </trkpt>
      <trkpt lat="43.30818" lon="-2.40098">
        <ele>14.2</ele>
        <time>2021-05-29 13:19:28</time>
      </trkpt>
      <trkpt lat="43.30819" lon="-2.40114">
        <ele>13.8</ele>
        <time>2021-05-29 13:19:29</time>
      </trkpt>
      <trkpt lat="43.30819" lon="-2.4013">
        <ele>13.8</ele>
        <time>2021-05-29 13:19:30</time>
      </trkpt>
      <trkpt lat="43.3082" lon="-2.40146">
        <ele>13.6</ele>
        <time>2021-05-29 13:19:31</time>
      </trkpt>
      <trkpt lat="43.3082" lon="-2.40163">
        <ele>13.6</ele>
        <time>2021-05-29 13:19:32</time>
      </trkpt>
      <trkpt lat="43.3082" lon="-2.40179">
        <ele>13.4</ele>
        <time>2021-05-29 13:19:33</time>
      </trkpt>
      <trkpt lat="43.30821" lon="-2.40196">
        <ele>13.2</ele>
        <time>2021-05-29 13:19:34</time>
      </trkpt>
      <trkpt lat="43.30821" lon="-2.40212">
        <ele>13</ele>
        <time>2021-05-29 13:19:35</time>
      </trkpt>
      <trkpt lat="43.30821" lon="-2.40228">
        <ele>13</ele>
        <time>2021-05-29 13:19:36</time>
      </trkpt>
      <trkpt lat="43.30822" lon="-2.40244">
        <ele>12.4</ele>
        <time>2021-05-29 13:19:37</time>
      </trkpt>
      <trkpt lat="43.30823" lon="-2.4026">
        <ele>12.2</ele>
        <time>2021-05-29 13:19:38</time>
      </trkpt>
      <trkpt lat="43.30823" lon="-2.40276">
        <ele>11.8</ele>
        <time>2021-05-29 13:19:39</time>
      </trkpt>
      <trkpt lat="43.30823" lon="-2.40292">
        <ele>11.4</ele>
        <time>2021-05-29 13:19:40</time>
      </trkpt>
      <trkpt lat="43.30824" lon="-2.40308">
        <ele>11</ele>
        <time>2021-05-29 13:19:41</time>
      </trkpt>
      <trkpt lat="43.30825" lon="-2.40324">
        <ele>10.4</ele>
        <time>2021-05-29 13:19:42</time>
      </trkpt>
      <trkpt lat="43.30825" lon="-2.4034">
        <ele>10</ele>
        <time>2021-05-29 13:19:43</time>
      </trkpt>
      <trkpt lat="43.30826" lon="-2.40355">
        <ele>9.2</ele>
        <time>2021-05-29 13:19:44</time>
      </trkpt>
      <trkpt lat="43.30827" lon="-2.40371">
        <ele>9</ele>
        <time>2021-05-29 13:19:45</time>
      </trkpt>
      <trkpt lat="43.30829" lon="-2.40387">
        <ele>8.8</ele>
        <time>2021-05-29 13:19:46</time>
      </trkpt>
      <trkpt lat="43.30831" lon="-2.40403">
        <ele>8.8</ele>
        <time>2021-05-29 13:19:47</time>
      </trkpt>
      <trkpt lat="43.30835" lon="-2.40419">
        <ele>8.6</ele>
        <time>2021-05-29 13:19:48</time>
      </trkpt>
      <trkpt lat="43.3084" lon="-2.40435">
        <ele>8.2</ele>
        <time>2021-05-29 13:19:49</time>
      </trkpt>
      <trkpt lat="43.30845" lon="-2.4045">
        <ele>8</ele>
        <time>2021-05-29 13:19:50</time>
      </trkpt>
      <trkpt lat="43.30851" lon="-2.40464">
        <ele>8</ele>
        <time>2021-05-29 13:19:51</time>
      </trkpt>
      <trkpt lat="43.30857" lon="-2.40479">
        <ele>8</ele>
        <time>2021-05-29 13:19:52</time>
      </trkpt>
      <trkpt lat="43.30862" lon="-2.40493">
        <ele>7.6</ele>
        <time>2021-05-29 13:19:53</time>
      </trkpt>
      <trkpt lat="43.30868" lon="-2.40508">
        <ele>7.6</ele>
        <time>2021-05-29 13:19:54</time>
      </trkpt>
      <trkpt lat="43.30873" lon="-2.40523">
        <ele>7.2</ele>
        <time>2021-05-29 13:19:55</time>
      </trkpt>
      <trkpt lat="43.30878" lon="-2.40538">
        <ele>6.8</ele>
        <time>2021-05-29 13:19:56</time>
      </trkpt>
      <trkpt lat="43.30882" lon="-2.40553">
        <ele>6.6</ele>
        <time>2021-05-29 13:19:57</time>
      </trkpt>
      <trkpt lat="43.30887" lon="-2.40568">
        <ele>6</ele>
        <time>2021-05-29 13:19:58</time>
      </trkpt>
      <trkpt lat="43.30891" lon="-2.40584">
        <ele>5.8</ele>
        <time>2021-05-29 13:19:59</time>
      </trkpt>
      <trkpt lat="43.30896" lon="-2.40599">
        <ele>5.6</ele>
        <time>2021-05-29 13:20:00</time>
      </trkpt>
      <trkpt lat="43.309" lon="-2.40614">
        <ele>5.6</ele>
        <time>2021-05-29 13:20:01</time>
      </trkpt>
      <trkpt lat="43.30905" lon="-2.40629">
        <ele>5.4</ele>
        <time>2021-05-29 13:20:02</time>
      </trkpt>
      <trkpt lat="43.3091" lon="-2.40644">
        <ele>5.2</ele>
        <time>2021-05-29 13:20:03</time>
      </trkpt>
      <trkpt lat="43.30914" lon="-2.40659">
        <ele>5</ele>
        <time>2021-05-29 13:20:04</time>
      </trkpt>
      <trkpt lat="43.30919" lon="-2.40675">
        <ele>4.8</ele>
        <time>2021-05-29 13:20:05</time>
      </trkpt>
      <trkpt lat="43.30924" lon="-2.40691">
        <ele>4.4</ele>
        <time>2021-05-29 13:20:06</time>
      </trkpt>
      <trkpt lat="43.30929" lon="-2.40706">
        <ele>4</ele>
        <time>2021-05-29 13:20:07</time>
      </trkpt>
      <trkpt lat="43.30933" lon="-2.40721">
        <ele>3.6</ele>
        <time>2021-05-29 13:20:08</time>
      </trkpt>
      <trkpt lat="43.30938" lon="-2.40736">
        <ele>3</ele>
        <time>2021-05-29 13:20:09</time>
      </trkpt>
      <trkpt lat="43.30943" lon="-2.40751">
        <ele>2.6</ele>
        <time>2021-05-29 13:20:10</time>
      </trkpt>
      <trkpt lat="43.30947" lon="-2.40766">
        <ele>2.2</ele>
        <time>2021-05-29 13:20:11</time>
      </trkpt>
      <trkpt lat="43.30952" lon="-2.40781">
        <ele>2</ele>
        <time>2021-05-29 13:20:12</time>
      </trkpt>
      <trkpt lat="43.30956" lon="-2.40796">
        <ele>1.6</ele>
        <time>2021-05-29 13:20:13</time>
      </trkpt>
      <trkpt lat="43.3096" lon="-2.40812">
        <ele>1.4</ele>
        <time>2021-05-29 13:20:14</time>
      </trkpt>
      <trkpt lat="43.30965" lon="-2.40826">
        <ele>1.2</ele>
        <time>2021-05-29 13:20:15</time>
      </trkpt>
      <trkpt lat="43.3097" lon="-2.40841">
        <ele>0.8</ele>
        <time>2021-05-29 13:20:16</time>
      </trkpt>
      <trkpt lat="43.30975" lon="-2.40854">
        <ele>0.6</ele>
        <time>2021-05-29 13:20:17</time>
      </trkpt>
      <trkpt lat="43.30982" lon="-2.40867">
        <ele>0.4</ele>
        <time>2021-05-29 13:20:18</time>
      </trkpt>
      <trkpt lat="43.3099" lon="-2.40879">
        <time>2021-05-29 13:20:19</time>
      </trkpt>
      <trkpt lat="43.30998" lon="-2.40889">
        <time>2021-05-29 13:20:20</time>
      </trkpt>
      <trkpt lat="43.31007" lon="-2.40898">
        <ele>-0.2</ele>
        <time>2021-05-29 13:20:21</time>
      </trkpt>
      <trkpt lat="43.31016" lon="-2.40908">
        <ele>-0.2</ele>
        <time>2021-05-29 13:20:22</time>
      </trkpt>
      <trkpt lat="43.31024" lon="-2.40916">
        <ele>-0.4</ele>
        <time>2021-05-29 13:20:23</time>
      </trkpt>
      <trkpt lat="43.31032" lon="-2.40925">
        <ele>-0.6</ele>
        <time>2021-05-29 13:20:24</time>
      </trkpt>
      <trkpt lat="43.3104" lon="-2.40934">
        <ele>-1</ele>
        <time>2021-05-29 13:20:25</time>
      </trkpt>
      <trkpt lat="43.31049" lon="-2.40943">
        <ele>-1.4</ele>
        <time>2021-05-29 13:20:26</time>
      </trkpt>
      <trkpt lat="43.31056" lon="-2.40953">
        <ele>-1.6</ele>
        <time>2021-05-29 13:20:27</time>
      </trkpt>
      <trkpt lat="43.31064" lon="-2.40963">
        <ele>-1.8</ele>
        <time>2021-05-29 13:20:28</time>
      </trkpt>
      <trkpt lat="43.31072" lon="-2.40973">
        <ele>-2</ele>
        <time>2021-05-29 13:20:29</time>
      </trkpt>
      <trkpt lat="43.31081" lon="-2.40981">
        <ele>-2</ele>
        <time>2021-05-29 13:20:30</time>
      </trkpt>
      <trkpt lat="43.31091" lon="-2.40989">
        <ele>-2.2</ele>
        <time>2021-05-29 13:20:31</time>
      </trkpt>
      <trkpt lat="43.311" lon="-2.40996">
        <ele>-2.6</ele>
        <time>2021-05-29 13:20:32</time>
      </trkpt>
      <trkpt lat="43.31109" lon="-2.41003">
        <ele>-2.6</ele>
        <time>2021-05-29 13:20:33</time>
      </trkpt>
      <trkpt lat="43.31119" lon="-2.4101">
        <ele>-3</ele>
        <time>2021-05-29 13:20:34</time>
      </trkpt>
      <trkpt lat="43.31129" lon="-2.41016">
        <ele>-3.4</ele>
        <time>2021-05-29 13:20:35</time>
      </trkpt>
      <trkpt lat="43.31139" lon="-2.4102">
        <ele>-3.6</ele>
        <time>2021-05-29 13:20:36</time>
      </trkpt>
      <trkpt lat="43.31149" lon="-2.41023">
        <ele>-3.8</ele>
        <time>2021-05-29 13:20:37</time>
      </trkpt>
      <trkpt lat="43.3116" lon="-2.41026">
        <ele>-4</ele>
        <time>2021-05-29 13:20:38</time>
      </trkpt>
      <trkpt lat="43.3117" lon="-2.41028">
        <ele>-4</ele>
        <time>2021-05-29 13:20:39</time>
      </trkpt>
      <trkpt lat="43.3118" lon="-2.4103">
        <ele>-4.2</ele>
        <time>2021-05-29 13:20:40</time>
      </trkpt>
      <trkpt lat="43.3119" lon="-2.41032">
        <ele>-4.2</ele>
        <time>2021-05-29 13:20:41</time>
      </trkpt>
      <trkpt lat="43.312" lon="-2.41033">
        <ele>-4.2</ele>
        <time>2021-05-29 13:20:42</time>
      </trkpt>
      <trkpt lat="43.3121" lon="-2.41034">
        <ele>-4.2</ele>
        <time>2021-05-29 13:20:43</time>
      </trkpt>
      <trkpt lat="43.3122" lon="-2.41036">
        <ele>-4.2</ele>
        <time>2021-05-29 13:20:44</time>
      </trkpt>
      <trkpt lat="43.3123" lon="-2.41037">
        <ele>-4.4</ele>
        <time>2021-05-29 13:20:45</time>
      </trkpt>
      <trkpt lat="43.3124" lon="-2.41039">
        <ele>-4.4</ele>
        <time>2021-05-29 13:20:46</time>
      </trkpt>
      <trkpt lat="43.31249" lon="-2.41041">
        <ele>-4.6</ele>
        <time>2021-05-29 13:20:47</time>
      </trkpt>
      <trkpt lat="43.31259" lon="-2.41043">
        <ele>-4.8</ele>
        <time>2021-05-29 13:20:48</time>
      </trkpt>
      <trkpt lat="43.31268" lon="-2.41045">
        <ele>-5</ele>
        <time>2021-05-29 13:20:49</time>
      </trkpt>
      <trkpt lat="43.31276" lon="-2.41048">
        <ele>-5.2</ele>
        <time>2021-05-29 13:20:50</time>
      </trkpt>
      <trkpt lat="43.31285" lon="-2.41051">
        <ele>-5.2</ele>
        <time>2021-05-29 13:20:51</time>
      </trkpt>
      <trkpt lat="43.31293" lon="-2.41054">
        <ele>-5.4</ele>
        <time>2021-05-29 13:20:52</time>
      </trkpt>
      <trkpt lat="43.31302" lon="-2.41057">
        <ele>-5.4</ele>
        <time>2021-05-29 13:20:53</time>
      </trkpt>
      <trkpt lat="43.3131" lon="-2.4106">
        <ele>-5.6</ele>
        <time>2021-05-29 13:20:54</time>
      </trkpt>
      <trkpt lat="43.31318" lon="-2.41064">
        <ele>-5.6</ele>
        <time>2021-05-29 13:20:55</time>
      </trkpt>
      <trkpt lat="43.31327" lon="-2.41067">
        <ele>-5.8</ele>
        <time>2021-05-29 13:20:56</time>
      </trkpt>
      <trkpt lat="43.31335" lon="-2.41071">
        <ele>-5.8</ele>
        <time>2021-05-29 13:20:57</time>
      </trkpt>
      <trkpt lat="43.31344" lon="-2.41075">
        <ele>-5.8</ele>
        <time>2021-05-29 13:20:58</time>
      </trkpt>
      <trkpt lat="43.31353" lon="-2.41079">
        <ele>-5.8</ele>
        <time>2021-05-29 13:20:59</time>
      </trkpt>
      <trkpt lat="43.31362" lon="-2.41083">
        <ele>-6</ele>
        <time>2021-05-29 13:21:00</time>
      </trkpt>
      <trkpt lat="43.31371" lon="-2.41087">
        <ele>-6</ele>
        <time>2021-05-29 13:21:01</time>
      </trkpt>
      <trkpt lat="43.3138" lon="-2.41092">
        <ele>-6</ele>
        <time>2021-05-29 13:21:02</time>
      </trkpt>
      <trkpt lat="43.3139" lon="-2.41097">
        <ele>-6</ele>
        <time>2021-05-29 13:21:03</time>
      </trkpt>
      <trkpt lat="43.314" lon="-2.41102">
        <ele>-6.2</ele>
        <time>2021-05-29 13:21:04</time>
      </trkpt>
      <trkpt lat="43.31409" lon="-2.41107">
        <ele>-6.2</ele>
        <time>2021-05-29 13:21:05</time>
      </trkpt>
      <trkpt lat="43.31419" lon="-2.41111">
        <ele>-6.2</ele>
        <time>2021-05-29 13:21:06</time>
      </trkpt>
      <trkpt lat="43.31429" lon="-2.41115">
        <ele>-6.4</ele>
        <time>2021-05-29 13:21:07</time>
      </trkpt>
      <trkpt lat="43.31439" lon="-2.41119">
        <ele>-6.6</ele>
        <time>2021-05-29 13:21:08</time>
      </trkpt>
      <trkpt lat="43.31448" lon="-2.41123">
        <ele>-7</ele>
        <time>2021-05-29 13:21:09</time>
      </trkpt>
      <trkpt lat="43.31458" lon="-2.41127">
        <ele>-7.6</ele>
        <time>2021-05-29 13:21:10</time>
      </trkpt>
      <trkpt lat="43.31467" lon="-2.41131">
        <ele>-8</ele>
        <time>2021-05-29 13:21:11</time>
      </trkpt>
      <trkpt lat="43.31477" lon="-2.41134">
        <ele>-8.4</ele>
        <time>2021-05-29 13:21:12</time>
      </trkpt>
      <trkpt lat="43.31487" lon="-2.41137">
        <ele>-8.6</ele>
        <time>2021-05-29 13:21:13</time>
      </trkpt>
      <trkpt lat="43.31497" lon="-2.41139">
        <ele>-8.6</ele>
        <time>2021-05-29 13:21:14</time>
      </trkpt>
      <trkpt lat="43.31506" lon="-2.4114">
        <ele>-9</ele>
        <time>2021-05-29 13:21:15</time>
      </trkpt>
      <trkpt lat="43.31516" lon="-2.41142">
        <ele>-9.2</ele>
        <time>2021-05-29 13:21:16</time>
      </trkpt>
      <trkpt lat="43.31525" lon="-2.41143">
        <ele>-9.2</ele>
        <time>2021-05-29 13:21:17</time>
      </trkpt>
      <trkpt lat="43.31534" lon="-2.41144">
        <ele>-9.4</ele>
        <time>2021-05-29 13:21:18</time>
      </trkpt>
      <trkpt lat="43.31543" lon="-2.41145">
        <ele>-9.4</ele>
        <time>2021-05-29 13:21:19</time>
      </trkpt>
      <trkpt lat="43.31552" lon="-2.41146">
        <ele>-9.4</ele>
        <time>2021-05-29 13:21:20</time>
      </trkpt>
      <trkpt lat="43.31561" lon="-2.41148">
        <ele>-9.4</ele>
        <time>2021-05-29 13:21:21</time>
      </trkpt>
      <trkpt lat="43.3157" lon="-2.41149">
        <ele>-9.4</ele>
        <time>2021-05-29 13:21:22</time>
      </trkpt>
      <trkpt lat="43.31578" lon="-2.41151">
        <ele>-9.4</ele>
        <time>2021-05-29 13:21:23</time>
      </trkpt>
      <trkpt lat="43.31586" lon="-2.41152">
        <ele>-9.4</ele>
        <time>2021-05-29 13:21:24</time>
      </trkpt>
      <trkpt lat="43.31594" lon="-2.41153">
        <ele>-9.4</ele>
        <time>2021-05-29 13:21:25</time>
      </trkpt>
      <trkpt lat="43.31602" lon="-2.41154">
        <ele>-9.4</ele>
        <time>2021-05-29 13:21:26</time>
      </trkpt>
      <trkpt lat="43.31609" lon="-2.41155">
        <ele>-9.4</ele>
        <time>2021-05-29 13:21:27</time>
      </trkpt>
      <trkpt lat="43.31616" lon="-2.41156">
        <ele>-9.4</ele>
        <time>2021-05-29 13:21:28</time>
      </trkpt>
      <trkpt lat="43.31623" lon="-2.41157">
        <ele>-9.4</ele>
        <time>2021-05-29 13:21:29</time>
      </trkpt>
      <trkpt lat="43.3163" lon="-2.41158">
        <ele>-9.4</ele>
        <time>2021-05-29 13:21:30</time>
      </trkpt>
      <trkpt lat="43.31636" lon="-2.4116">
        <ele>-9.2</ele>
        <time>2021-05-29 13:21:31</time>
      </trkpt>
      <trkpt lat="43.31643" lon="-2.41163">
        <ele>-9</ele>
        <time>2021-05-29 13:21:32</time>
      </trkpt>
      <trkpt lat="43.31649" lon="-2.41165">
        <ele>-8.6</ele>
        <time>2021-05-29 13:21:33</time>
      </trkpt>
      <trkpt lat="43.31655" lon="-2.41167">
        <ele>-8.2</ele>
        <time>2021-05-29 13:21:34</time>
      </trkpt>
      <trkpt lat="43.3166" lon="-2.41169">
        <ele>-7.6</ele>
        <time>2021-05-29 13:21:35</time>
      </trkpt>
      <trkpt lat="43.31666" lon="-2.41172">
        <ele>-7.2</ele>
        <time>2021-05-29 13:21:36</time>
      </trkpt>
      <trkpt lat="43.31671" lon="-2.41175">
        <ele>-6.8</ele>
        <time>2021-05-29 13:21:37</time>
      </trkpt>
      <trkpt lat="43.31676" lon="-2.41178">
        <ele>-6.4</ele>
        <time>2021-05-29 13:21:38</time>
      </trkpt>
      <trkpt lat="43.31681" lon="-2.41181">
        <ele>-6</ele>
        <time>2021-05-29 13:21:39</time>
      </trkpt>
      <trkpt lat="43.31686" lon="-2.41185">
        <ele>-5.6</ele>
        <time>2021-05-29 13:21:40</time>
      </trkpt>
      <trkpt lat="43.3169" lon="-2.4119">
        <ele>-5.4</ele>
        <time>2021-05-29 13:21:41</time>
      </trkpt>
      <trkpt lat="43.31694" lon="-2.41196">
        <ele>-5</ele>
        <time>2021-05-29 13:21:42</time>
      </trkpt>
      <trkpt lat="43.31698" lon="-2.41202">
        <ele>-4.8</ele>
        <time>2021-05-29 13:21:43</time>
      </trkpt>
      <trkpt lat="43.31701" lon="-2.41208">
        <ele>-4.4</ele>
        <time>2021-05-29 13:21:44</time>
      </trkpt>
      <trkpt lat="43.31704" lon="-2.41215">
        <ele>-4.2</ele>
        <time>2021-05-29 13:21:45</time>
      </trkpt>
      <trkpt lat="43.31707" lon="-2.41221">
        <ele>-3.8</ele>
        <time>2021-05-29 13:21:46</time>
      </trkpt>
      <trkpt lat="43.3171" lon="-2.41227">
        <ele>-3.6</ele>
        <time>2021-05-29 13:21:47</time>
      </trkpt>
      <trkpt lat="43.31713" lon="-2.41232">
        <ele>-3.2</ele>
        <time>2021-05-29 13:21:48</time>
      </trkpt>
      <trkpt lat="43.31717" lon="-2.41237">
        <ele>-3</ele>
        <time>2021-05-29 13:21:49</time>
      </trkpt>
      <trkpt lat="43.31721" lon="-2.41242">
        <ele>-2.6</ele>
        <time>2021-05-29 13:21:50</time>
      </trkpt>
      <trkpt lat="43.31726" lon="-2.41245">
        <ele>-2.2</ele>
        <time>2021-05-29 13:21:51</time>
      </trkpt>
      <trkpt lat="43.3173" lon="-2.41248">
        <ele>-2</ele>
        <time>2021-05-29 13:21:52</time>
      </trkpt>
      <trkpt lat="43.31735" lon="-2.4125">
        <ele>-1.8</ele>
        <time>2021-05-29 13:21:53</time>
      </trkpt>
      <trkpt lat="43.31739" lon="-2.41252">
        <ele>-1.6</ele>
        <time>2021-05-29 13:21:54</time>
      </trkpt>
      <trkpt lat="43.31743" lon="-2.41253">
        <ele>-1.4</ele>
        <time>2021-05-29 13:21:55</time>
      </trkpt>
      <trkpt lat="43.31747" lon="-2.41254">
        <ele>-1</ele>
        <time>2021-05-29 13:21:56</time>
      </trkpt>
      <trkpt lat="43.31752" lon="-2.41253">
        <ele>-0.8</ele>
        <time>2021-05-29 13:21:57</time>
      </trkpt>
      <trkpt lat="43.31756" lon="-2.41253">
        <ele>-0.6</ele>
        <time>2021-05-29 13:21:58</time>
      </trkpt>
      <trkpt lat="43.31761" lon="-2.41252">
        <ele>-0.4</ele>
        <time>2021-05-29 13:21:59</time>
      </trkpt>
      <trkpt lat="43.31765" lon="-2.41251">
        <ele>-0.2</ele>
        <time>2021-05-29 13:22:00</time>
      </trkpt>
      <trkpt lat="43.3177" lon="-2.41251">
        <time>2021-05-29 13:22:01</time>
      </trkpt>
      <trkpt lat="43.31776" lon="-2.41251">
        <ele>0.8</ele>
        <time>2021-05-29 13:22:02</time>
      </trkpt>
      <trkpt lat="43.31782" lon="-2.41253">
        <ele>1.2</ele>
        <time>2021-05-29 13:22:03</time>
      </trkpt>
      <trkpt lat="43.31788" lon="-2.41255">
        <ele>1.4</ele>
        <time>2021-05-29 13:22:04</time>
      </trkpt>
      <trkpt lat="43.31793" lon="-2.41257">
        <ele>1.6</ele>
        <time>2021-05-29 13:22:05</time>
      </trkpt>
      <trkpt lat="43.31798" lon="-2.4126">
        <ele>1.8</ele>
        <time>2021-05-29 13:22:06</time>
      </trkpt>
      <trkpt lat="43.31802" lon="-2.41264">
        <ele>2</ele>
        <time>2021-05-29 13:22:07</time>
      </trkpt>
      <trkpt lat="43.31806" lon="-2.41268">
        <ele>2.4</ele>
        <time>2021-05-29 13:22:08</time>
      </trkpt>
      <trkpt lat="43.3181" lon="-2.41273">
        <ele>2.8</ele>
        <time>2021-05-29 13:22:09</time>
      </trkpt>
      <trkpt lat="43.31814" lon="-2.41277">
        <ele>3.2</ele>
        <time>2021-05-29 13:22:10</time>
      </trkpt>
      <trkpt lat="43.31819" lon="-2.41281">
        <ele>3.6</ele>
        <time>2021-05-29 13:22:11</time>
      </trkpt>
      <trkpt lat="43.31823" lon="-2.41286">
        <ele>3.8</ele>
        <time>2021-05-29 13:22:12</time>
      </trkpt>
      <trkpt lat="43.31828" lon="-2.4129">
        <ele>4.2</ele>
        <time>2021-05-29 13:22:13</time>
      </trkpt>
      <trkpt lat="43.31832" lon="-2.41294">
        <ele>4.6</ele>
        <time>2021-05-29 13:22:14</time>
      </trkpt>
      <trkpt lat="43.31837" lon="-2.41297">
        <ele>5.2</ele>
        <time>2021-05-29 13:22:15</time>
      </trkpt>
      <trkpt lat="43.31843" lon="-2.413">
        <ele>5.6</ele>
        <time>2021-05-29 13:22:16</time>
      </trkpt>
      <trkpt lat="43.31848" lon="-2.41302">
        <ele>6.2</ele>
        <time>2021-05-29 13:22:17</time>
      </trkpt>
      <trkpt lat="43.31854" lon="-2.41303">
        <ele>6.6</ele>
        <time>2021-05-29 13:22:18</time>
      </trkpt>
      <trkpt lat="43.31859" lon="-2.41303">
        <ele>6.8</ele>
        <time>2021-05-29 13:22:19</time>
      </trkpt>
      <trkpt lat="43.31864" lon="-2.41304">
        <ele>7.2</ele>
        <time>2021-05-29 13:22:20</time>
      </trkpt>
      <trkpt lat="43.31868" lon="-2.41304">
        <ele>7.6</ele>
        <time>2021-05-29 13:22:21</time>
      </trkpt>
      <trkpt lat="43.31873" lon="-2.41304">
        <ele>8</ele>
        <time>2021-05-29 13:22:22</time>
      </trkpt>
      <trkpt lat="43.31878" lon="-2.41304">
        <ele>8.2</ele>
        <time>2021-05-29 13:22:23</time>
      </trkpt>
      <trkpt lat="43.31883" lon="-2.41304">
        <ele>8.6</ele>
        <time>2021-05-29 13:22:24</time>
      </trkpt>
      <trkpt lat="43.31888" lon="-2.41303">
        <ele>9</ele>
        <time>2021-05-29 13:22:25</time>
      </trkpt>
      <trkpt lat="43.31893" lon="-2.41303">
        <ele>9.4</ele>
        <time>2021-05-29 13:22:26</time>
      </trkpt>
      <trkpt lat="43.31897" lon="-2.41303">
        <ele>9.8</ele>
        <time>2021-05-29 13:22:27</time>
      </trkpt>
      <trkpt lat="43.31901" lon="-2.41303">
        <ele>10.4</ele>
        <time>2021-05-29 13:22:28</time>
      </trkpt>
      <trkpt lat="43.31906" lon="-2.41303">
        <ele>10.6</ele>
        <time>2021-05-29 13:22:29</time>
      </trkpt>
      <trkpt lat="43.31911" lon="-2.41302">
        <ele>10.8</ele>
        <time>2021-05-29 13:22:30</time>
      </trkpt>
      <trkpt lat="43.31916" lon="-2.41302">
        <ele>11.2</ele>
        <time>2021-05-29 13:22:31</time>
      </trkpt>
      <trkpt lat="43.3192" lon="-2.41302">
        <ele>11.6</ele>
        <time>2021-05-29 13:22:32</time>
      </trkpt>
      <trkpt lat="43.31925" lon="-2.41301">
        <ele>12</ele>
        <time>2021-05-29 13:22:33</time>
      </trkpt>
      <trkpt lat="43.31929" lon="-2.41301">
        <ele>12.2</ele>
        <time>2021-05-29 13:22:34</time>
      </trkpt>
      <trkpt lat="43.31933" lon="-2.413">
        <ele>12.6</ele>
        <time>2021-05-29 13:22:35</time>
      </trkpt>
      <trkpt lat="43.31937" lon="-2.41299">
        <ele>13.2</ele>
        <time>2021-05-29 13:22:36</time>
      </trkpt>
      <trkpt lat="43.31941" lon="-2.41298">
        <ele>13.6</ele>
        <time>2021-05-29 13:22:37</time>
      </trkpt>
      <trkpt lat="43.31946" lon="-2.41297">
        <ele>14</ele>
        <time>2021-05-29 13:22:38</time>
      </trkpt>
      <trkpt lat="43.31951" lon="-2.41296">
        <ele>14.4</ele>
        <time>2021-05-29 13:22:39</time>
      </trkpt>
      <trkpt lat="43.31957" lon="-2.41295">
        <ele>14.6</ele>
        <time>2021-05-29 13:22:40</time>
      </trkpt>
      <trkpt lat="43.31962" lon="-2.41295">
        <ele>14.8</ele>
        <time>2021-05-29 13:22:41</time>
      </trkpt>
      <trkpt lat="43.31967" lon="-2.41294">
        <ele>15.4</ele>
        <time>2021-05-29 13:22:42</time>
      </trkpt>
      <trkpt lat="43.31972" lon="-2.41294">
        <ele>15.8</ele>
        <time>2021-05-29 13:22:43</time>
      </trkpt>
      <trkpt lat="43.31977" lon="-2.41293">
        <ele>16</ele>
        <time>2021-05-29 13:22:44</time>
      </trkpt>
      <trkpt lat="43.31981" lon="-2.41291">
        <ele>16.4</ele>
        <time>2021-05-29 13:22:45</time>
      </trkpt>
      <trkpt lat="43.31986" lon="-2.41291">
        <ele>16.6</ele>
        <time>2021-05-29 13:22:46</time>
      </trkpt>
      <trkpt lat="43.3199" lon="-2.4129">
        <ele>17</ele>
        <time>2021-05-29 13:22:47</time>
      </trkpt>
      <trkpt lat="43.31995" lon="-2.4129">
        <ele>17.4</ele>
        <time>2021-05-29 13:22:48</time>
      </trkpt>
      <trkpt lat="43.31999" lon="-2.41289">
        <ele>17.6</ele>
        <time>2021-05-29 13:22:49</time>
      </trkpt>
      <trkpt lat="43.32005" lon="-2.41289">
        <ele>18</ele>
        <time>2021-05-29 13:22:50</time>
      </trkpt>
      <trkpt lat="43.3201" lon="-2.41288">
        <ele>18.6</ele>
        <time>2021-05-29 13:22:51</time>
      </trkpt>
      <trkpt lat="43.32016" lon="-2.41288">
        <ele>19</ele>
        <time>2021-05-29 13:22:52</time>
      </trkpt>
      <trkpt lat="43.32021" lon="-2.41287">
        <ele>19.4</ele>
        <time>2021-05-29 13:22:53</time>
      </trkpt>
      <trkpt lat="43.32026" lon="-2.41286">
        <ele>19.8</ele>
        <time>2021-05-29 13:22:54</time>
      </trkpt>
      <trkpt lat="43.32031" lon="-2.41285">
        <ele>20.2</ele>
        <time>2021-05-29 13:22:55</time>
      </trkpt>
      <trkpt lat="43.32036" lon="-2.41284">
        <ele>20.4</ele>
        <time>2021-05-29 13:22:56</time>
      </trkpt>
      <trkpt lat="43.32041" lon="-2.41284">
        <ele>20.6</ele>
        <time>2021-05-29 13:22:57</time>
      </trkpt>
      <trkpt lat="43.32047" lon="-2.41284">
        <ele>20.8</ele>
        <time>2021-05-29 13:22:58</time>
      </trkpt>
      <trkpt lat="43.32052" lon="-2.41286">
        <ele>21.2</ele>
        <time>2021-05-29 13:22:59</time>
      </trkpt>
      <trkpt lat="43.32057" lon="-2.41289">
        <ele>21.4</ele>
        <time>2021-05-29 13:23:00</time>
      </trkpt>
      <trkpt lat="43.32062" lon="-2.41293">
        <ele>21.8</ele>
        <time>2021-05-29 13:23:01</time>
      </trkpt>
      <trkpt lat="43.32066" lon="-2.41299">
        <ele>22</ele>
        <time>2021-05-29 13:23:02</time>
      </trkpt>
      <trkpt lat="43.32069" lon="-2.41305">
        <ele>22.2</ele>
        <time>2021-05-29 13:23:03</time>
      </trkpt>
      <trkpt lat="43.32071" lon="-2.41313">
        <ele>22.4</ele>
        <time>2021-05-29 13:23:04</time>
      </trkpt>
      <trkpt lat="43.32072" lon="-2.41321">
        <ele>22.6</ele>
        <time>2021-05-29 13:23:05</time>
      </trkpt>
      <trkpt lat="43.32073" lon="-2.41329">
        <ele>22.6</ele>
        <time>2021-05-29 13:23:06</time>
      </trkpt>
      <trkpt lat="43.32074" lon="-2.41339">
        <ele>22.6</ele>
        <time>2021-05-29 13:23:07</time>
      </trkpt>
      <trkpt lat="43.32075" lon="-2.41349">
        <ele>22.6</ele>
        <time>2021-05-29 13:23:08</time>
      </trkpt>
      <trkpt lat="43.32077" lon="-2.41359">
        <ele>22.6</ele>
        <time>2021-05-29 13:23:09</time>
      </trkpt>
      <trkpt lat="43.3208" lon="-2.4137">
        <ele>22.6</ele>
        <time>2021-05-29 13:23:10</time>
      </trkpt>
      <trkpt lat="43.32084" lon="-2.4138">
        <ele>22.6</ele>
        <time>2021-05-29 13:23:11</time>
      </trkpt>
      <trkpt lat="43.32087" lon="-2.41391">
        <ele>22.6</ele>
        <time>2021-05-29 13:23:12</time>
      </trkpt>
      <trkpt lat="43.3209" lon="-2.41401">
        <ele>22.4</ele>
        <time>2021-05-29 13:23:13</time>
      </trkpt>
      <trkpt lat="43.32093" lon="-2.41412">
        <ele>22.2</ele>
        <time>2021-05-29 13:23:14</time>
      </trkpt>
      <trkpt lat="43.32095" lon="-2.41422">
        <ele>22.2</ele>
        <time>2021-05-29 13:23:15</time>
      </trkpt>
      <trkpt lat="43.32097" lon="-2.41433">
        <ele>21.6</ele>
        <time>2021-05-29 13:23:16</time>
      </trkpt>
      <trkpt lat="43.321" lon="-2.41444">
        <ele>21.4</ele>
        <time>2021-05-29 13:23:17</time>
      </trkpt>
      <trkpt lat="43.32103" lon="-2.41455">
        <ele>21</ele>
        <time>2021-05-29 13:23:18</time>
      </trkpt>
      <trkpt lat="43.32105" lon="-2.41466">
        <ele>20.8</ele>
        <time>2021-05-29 13:23:19</time>
      </trkpt>
      <trkpt lat="43.32108" lon="-2.41477">
        <ele>20.6</ele>
        <time>2021-05-29 13:23:20</time>
      </trkpt>
      <trkpt lat="43.32111" lon="-2.41488">
        <ele>20.4</ele>
        <time>2021-05-29 13:23:21</time>
      </trkpt>
      <trkpt lat="43.32114" lon="-2.41499">
        <ele>20.2</ele>
        <time>2021-05-29 13:23:22</time>
      </trkpt>
      <trkpt lat="43.32117" lon="-2.41511">
        <ele>20</ele>
        <time>2021-05-29 13:23:23</time>
      </trkpt>
      <trkpt lat="43.32121" lon="-2.41523">
        <ele>19.6</ele>
        <time>2021-05-29 13:23:24</time>
      </trkpt>
      <trkpt lat="43.32125" lon="-2.41534">
        <ele>19.2</ele>
        <time>2021-05-29 13:23:25</time>
      </trkpt>
      <trkpt lat="43.32129" lon="-2.41545">
        <ele>18.8</ele>
        <time>2021-05-29 13:23:26</time>
      </trkpt>
      <trkpt lat="43.32135" lon="-2.41556">
        <ele>18.4</ele>
        <time>2021-05-29 13:23:27</time>
      </trkpt>
      <trkpt lat="43.32141" lon="-2.41566">
        <ele>17.8</ele>
        <time>2021-05-29 13:23:28</time>
      </trkpt>
      <trkpt lat="43.32148" lon="-2.41575">
        <ele>17.6</ele>
        <time>2021-05-29 13:23:29</time>
      </trkpt>
      <trkpt lat="43.32154" lon="-2.41583">
        <ele>17.4</ele>
        <time>2021-05-29 13:23:30</time>
      </trkpt>
      <trkpt lat="43.32159" lon="-2.41593">
        <ele>17.2</ele>
        <time>2021-05-29 13:23:31</time>
      </trkpt>
      <trkpt lat="43.32164" lon="-2.41603">
        <ele>17.2</ele>
        <time>2021-05-29 13:23:32</time>
      </trkpt>
      <trkpt lat="43.32169" lon="-2.41613">
        <ele>17</ele>
        <time>2021-05-29 13:23:33</time>
      </trkpt>
      <trkpt lat="43.32173" lon="-2.41624">
        <ele>16.8</ele>
        <time>2021-05-29 13:23:34</time>
      </trkpt>
      <trkpt lat="43.32176" lon="-2.41635">
        <ele>16.6</ele>
        <time>2021-05-29 13:23:35</time>
      </trkpt>
      <trkpt lat="43.3218" lon="-2.41646">
        <ele>16.4</ele>
        <time>2021-05-29 13:23:36</time>
      </trkpt>
      <trkpt lat="43.32184" lon="-2.41657">
        <ele>16.2</ele>
        <time>2021-05-29 13:23:37</time>
      </trkpt>
      <trkpt lat="43.32187" lon="-2.4167">
        <ele>16.2</ele>
        <time>2021-05-29 13:23:38</time>
      </trkpt>
      <trkpt lat="43.32191" lon="-2.41682">
        <ele>16</ele>
        <time>2021-05-29 13:23:39</time>
      </trkpt>
      <trkpt lat="43.32195" lon="-2.41695">
        <ele>16</ele>
        <time>2021-05-29 13:23:40</time>
      </trkpt>
      <trkpt lat="43.32198" lon="-2.41707">
        <ele>16</ele>
        <time>2021-05-29 13:23:41</time>
      </trkpt>
      <trkpt lat="43.32202" lon="-2.41719">
        <ele>16</ele>
        <time>2021-05-29 13:23:42</time>
      </trkpt>
      <trkpt lat="43.32205" lon="-2.41732">
        <ele>15.4</ele>
        <time>2021-05-29 13:23:43</time>
      </trkpt>
      <trkpt lat="43.32207" lon="-2.41744">
        <ele>15</ele>
        <time>2021-05-29 13:23:44</time>
      </trkpt>
      <trkpt lat="43.32208" lon="-2.41758">
        <ele>13.8</ele>
        <time>2021-05-29 13:23:45</time>
      </trkpt>
      <trkpt lat="43.32207" lon="-2.41771">
        <ele>13.4</ele>
        <time>2021-05-29 13:23:46</time>
      </trkpt>
      <trkpt lat="43.32207" lon="-2.41785">
        <ele>13</ele>
        <time>2021-05-29 13:23:47</time>
      </trkpt>
      <trkpt lat="43.32207" lon="-2.418">
        <ele>12.8</ele>
        <time>2021-05-29 13:23:48</time>
      </trkpt>
      <trkpt lat="43.32208" lon="-2.41814">
        <ele>12.4</ele>
        <time>2021-05-29 13:23:49</time>
      </trkpt>
      <trkpt lat="43.3221" lon="-2.41828">
        <ele>12.2</ele>
        <time>2021-05-29 13:23:50</time>
      </trkpt>
      <trkpt lat="43.32212" lon="-2.41841">
        <ele>12</ele>
        <time>2021-05-29 13:23:51</time>
      </trkpt>
      <trkpt lat="43.32216" lon="-2.41854">
        <ele>11.6</ele>
        <time>2021-05-29 13:23:52</time>
      </trkpt>
      <trkpt lat="43.32218" lon="-2.41868">
        <ele>11.2</ele>
        <time>2021-05-29 13:23:53</time>
      </trkpt>
      <trkpt lat="43.3222" lon="-2.41881">
        <ele>10.6</ele>
        <time>2021-05-29 13:23:54</time>
      </trkpt>
      <trkpt lat="43.32218" lon="-2.41895">
        <ele>10.4</ele>
        <time>2021-05-29 13:23:55</time>
      </trkpt>
      <trkpt lat="43.32215" lon="-2.41909">
        <ele>10</ele>
        <time>2021-05-29 13:23:56</time>
      </trkpt>
      <trkpt lat="43.3221" lon="-2.41921">
        <ele>9.8</ele>
        <time>2021-05-29 13:23:57</time>
      </trkpt>
      <trkpt lat="43.32202" lon="-2.4193">
        <ele>9.6</ele>
        <time>2021-05-29 13:23:58</time>
      </trkpt>
      <trkpt lat="43.32192" lon="-2.41935">
        <ele>9.2</ele>
        <time>2021-05-29 13:23:59</time>
      </trkpt>
      <trkpt lat="43.32182" lon="-2.41936">
        <ele>8.8</ele>
        <time>2021-05-29 13:24:00</time>
      </trkpt>
      <trkpt lat="43.32172" lon="-2.41933">
        <ele>8.4</ele>
        <time>2021-05-29 13:24:01</time>
      </trkpt>
      <trkpt lat="43.32162" lon="-2.41927">
        <ele>8</ele>
        <time>2021-05-29 13:24:02</time>
      </trkpt>
      <trkpt lat="43.32153" lon="-2.41919">
        <ele>7.6</ele>
        <time>2021-05-29 13:24:03</time>
      </trkpt>
      <trkpt lat="43.32143" lon="-2.41911">
        <ele>7.2</ele>
        <time>2021-05-29 13:24:04</time>
      </trkpt>
      <trkpt lat="43.32133" lon="-2.41902">
        <ele>6.8</ele>
        <time>2021-05-29 13:24:05</time>
      </trkpt>
      <trkpt lat="43.32123" lon="-2.41895">
        <ele>6</ele>
        <time>2021-05-29 13:24:06</time>
      </trkpt>
      <trkpt lat="43.32112" lon="-2.41889">
        <ele>5.6</ele>
        <time>2021-05-29 13:24:07</time>
      </trkpt>
      <trkpt lat="43.321" lon="-2.41885">
        <ele>5.2</ele>
        <time>2021-05-29 13:24:08</time>
      </trkpt>
      <trkpt lat="43.32088" lon="-2.41881">
        <ele>4.8</ele>
        <time>2021-05-29 13:24:09</time>
      </trkpt>
      <trkpt lat="43.32075" lon="-2.41881">
        <ele>4.4</ele>
        <time>2021-05-29 13:24:10</time>
      </trkpt>
      <trkpt lat="43.32063" lon="-2.4188">
        <ele>3.6</ele>
        <time>2021-05-29 13:24:11</time>
      </trkpt>
      <trkpt lat="43.3205" lon="-2.41882">
        <ele>3</ele>
        <time>2021-05-29 13:24:12</time>
      </trkpt>
      <trkpt lat="43.32038" lon="-2.41884">
        <ele>2.4</ele>
        <time>2021-05-29 13:24:13</time>
      </trkpt>
      <trkpt lat="43.32027" lon="-2.41889">
        <ele>1.8</ele>
        <time>2021-05-29 13:24:14</time>
      </trkpt>
      <trkpt lat="43.32016" lon="-2.41896">
        <ele>1.2</ele>
        <time>2021-05-29 13:24:15</time>
      </trkpt>
      <trkpt lat="43.32005" lon="-2.41903">
        <ele>0.6</ele>
        <time>2021-05-29 13:24:16</time>
      </trkpt>
      <trkpt lat="43.31994" lon="-2.41911">
        <ele>0.2</ele>
        <time>2021-05-29 13:24:17</time>
      </trkpt>
      <trkpt lat="43.31984" lon="-2.41918">
        <time>2021-05-29 13:24:18</time>
      </trkpt>
      <trkpt lat="43.31973" lon="-2.41926">
        <ele>-0.4</ele>
        <time>2021-05-29 13:24:19</time>
      </trkpt>
      <trkpt lat="43.31963" lon="-2.41936">
        <ele>-1.2</ele>
        <time>2021-05-29 13:24:20</time>
      </trkpt>
      <trkpt lat="43.31953" lon="-2.41947">
        <ele>-2</ele>
        <time>2021-05-29 13:24:21</time>
      </trkpt>
      <trkpt lat="43.31945" lon="-2.41958">
        <ele>-2.8</ele>
        <time>2021-05-29 13:24:22</time>
      </trkpt>
      <trkpt lat="43.31939" lon="-2.41971">
        <ele>-3.8</ele>
        <time>2021-05-29 13:24:23</time>
      </trkpt>
      <trkpt lat="43.31935" lon="-2.41983">
        <ele>-4.2</ele>
        <time>2021-05-29 13:24:24</time>
      </trkpt>
      <trkpt lat="43.31934" lon="-2.41995">
        <ele>-5.2</ele>
        <time>2021-05-29 13:24:25</time>
      </trkpt>
      <trkpt lat="43.31936" lon="-2.42006">
        <ele>-6.2</ele>
        <time>2021-05-29 13:24:26</time>
      </trkpt>
      <trkpt lat="43.31938" lon="-2.42017">
        <ele>-7</ele>
        <time>2021-05-29 13:24:27</time>
      </trkpt>
      <trkpt lat="43.31937" lon="-2.42026">
        <ele>-7.8</ele>
        <time>2021-05-29 13:24:28</time>
      </trkpt>
      <trkpt lat="43.31934" lon="-2.42036">
        <ele>-8.4</ele>
        <time>2021-05-29 13:24:29</time>
      </trkpt>
      <trkpt lat="43.3193" lon="-2.42044">
        <ele>-9</ele>
        <time>2021-05-29 13:24:30</time>
      </trkpt>
      <trkpt lat="43.31926" lon="-2.42051">
        <ele>-9.6</ele>
        <time>2021-05-29 13:24:31</time>
      </trkpt>
      <trkpt lat="43.31924" lon="-2.42057">
        <ele>-10</ele>
        <time>2021-05-29 13:24:32</time>
      </trkpt>
      <trkpt lat="43.31923" lon="-2.42063">
        <ele>-10.4</ele>
        <time>2021-05-29 13:24:33</time>
      </trkpt>
      <trkpt lat="43.31922" lon="-2.42068">
        <ele>-10.6</ele>
        <time>2021-05-29 13:24:34</time>
      </trkpt>
      <trkpt lat="43.31922" lon="-2.42073">
        <ele>-10.8</ele>
        <time>2021-05-29 13:24:35</time>
      </trkpt>
      <trkpt lat="43.31922" lon="-2.42078">
        <ele>-10.8</ele>
        <time>2021-05-29 13:24:36</time>
      </trkpt>
      <trkpt lat="43.31922" lon="-2.42081">
        <ele>-10.8</ele>
        <time>2021-05-29 13:24:37</time>
      </trkpt>
      <trkpt lat="43.31922" lon="-2.42084">
        <ele>-11</ele>
        <time>2021-05-29 13:24:38</time>
      </trkpt>
      <trkpt lat="43.31921" lon="-2.42087">
        <ele>-11</ele>
        <time>2021-05-29 13:24:39</time>
      </trkpt>
      <trkpt lat="43.31919" lon="-2.42089">
        <ele>-11</ele>
        <time>2021-05-29 13:24:40</time>
      </trkpt>
      <trkpt lat="43.31917" lon="-2.42088">
        <ele>-11</ele>
        <time>2021-05-29 13:24:41</time>
      </trkpt>
      <trkpt lat="43.31917" lon="-2.42086">
        <ele>-11</ele>
        <time>2021-05-29 13:24:42</time>
      </trkpt>
      <trkpt lat="43.31918" lon="-2.42083">
        <ele>-11</ele>
        <time>2021-05-29 13:24:43</time>
      </trkpt>
      <trkpt lat="43.31918" lon="-2.42078">
        <ele>-11</ele>
        <time>2021-05-29 13:24:44</time>
      </trkpt>
      <trkpt lat="43.31919" lon="-2.42073">
        <ele>-11</ele>
        <time>2021-05-29 13:24:45</time>
      </trkpt>
      <trkpt lat="43.31919" lon="-2.42069">
        <ele>-11</ele>
        <time>2021-05-29 13:24:46</time>
      </trkpt>
      <trkpt lat="43.3192" lon="-2.42063">
        <ele>-11</ele>
        <time>2021-05-29 13:24:47</time>
      </trkpt>
      <trkpt lat="43.3192" lon="-2.42058">
        <ele>-11</ele>
        <time>2021-05-29 13:24:48</time>
      </trkpt>
      <trkpt lat="43.31921" lon="-2.42052">
        <ele>-11</ele>
        <time>2021-05-29 13:24:49</time>
      </trkpt>
      <trkpt lat="43.31921" lon="-2.42044">
        <ele>-11</ele>
        <time>2021-05-29 13:24:50</time>
      </trkpt>
      <trkpt lat="43.31923" lon="-2.42037">
        <ele>-11</ele>
        <time>2021-05-29 13:24:51</time>
      </trkpt>
      <trkpt lat="43.31924" lon="-2.4203">
        <ele>-11</ele>
        <time>2021-05-29 13:24:52</time>
      </trkpt>
      <trkpt lat="43.31928" lon="-2.42024">
        <ele>-11</ele>
        <time>2021-05-29 13:24:53</time>
      </trkpt>
      <trkpt lat="43.31933" lon="-2.42019">
        <ele>-11</ele>
        <time>2021-05-29 13:24:54</time>
      </trkpt>
      <trkpt lat="43.31939" lon="-2.42017">
        <ele>-11</ele>
        <time>2021-05-29 13:24:55</time>
      </trkpt>
      <trkpt lat="43.31946" lon="-2.42015">
        <ele>-10.8</ele>
        <time>2021-05-29 13:24:56</time>
      </trkpt>
      <trkpt lat="43.31953" lon="-2.42013">
        <ele>-10.8</ele>
        <time>2021-05-29 13:24:57</time>
      </trkpt>
      <trkpt lat="43.31958" lon="-2.42006">
        <ele>-10.8</ele>
        <time>2021-05-29 13:24:58</time>
      </trkpt>
      <trkpt lat="43.31963" lon="-2.41998">
        <ele>-11</ele>
        <time>2021-05-29 13:24:59</time>
      </trkpt>
      <trkpt lat="43.31967" lon="-2.41987">
        <ele>-11</ele>
        <time>2021-05-29 13:25:00</time>
      </trkpt>
      <trkpt lat="43.31971" lon="-2.41977">
        <ele>-11</ele>
        <time>2021-05-29 13:25:01</time>
      </trkpt>
      <trkpt lat="43.31975" lon="-2.41967">
        <ele>-11</ele>
        <time>2021-05-29 13:25:02</time>
      </trkpt>
      <trkpt lat="43.3198" lon="-2.41957">
        <ele>-11</ele>
        <time>2021-05-29 13:25:03</time>
      </trkpt>
      <trkpt lat="43.31987" lon="-2.41947">
        <ele>-11.4</ele>
        <time>2021-05-29 13:25:04</time>
      </trkpt>
      <trkpt lat="43.31994" lon="-2.41939">
        <ele>-11.6</ele>
        <time>2021-05-29 13:25:05</time>
      </trkpt>
      <trkpt lat="43.32001" lon="-2.41931">
        <ele>-12</ele>
        <time>2021-05-29 13:25:06</time>
      </trkpt>
      <trkpt lat="43.3201" lon="-2.41925">
        <ele>-12.4</ele>
        <time>2021-05-29 13:25:07</time>
      </trkpt>
      <trkpt lat="43.32019" lon="-2.41919">
        <ele>-12.8</ele>
        <time>2021-05-29 13:25:08</time>
      </trkpt>
      <trkpt lat="43.32028" lon="-2.41914">
        <ele>-13.4</ele>
        <time>2021-05-29 13:25:09</time>
      </trkpt>
      <trkpt lat="43.32037" lon="-2.41909">
        <ele>-14</ele>
        <time>2021-05-29 13:25:10</time>
      </trkpt>
      <trkpt lat="43.32047" lon="-2.41904">
        <ele>-14.4</ele>
        <time>2021-05-29 13:25:11</time>
      </trkpt>
      <trkpt lat="43.32056" lon="-2.41902">
        <ele>-14.8</ele>
        <time>2021-05-29 13:25:12</time>
      </trkpt>
      <trkpt lat="43.32066" lon="-2.41901">
        <ele>-15</ele>
        <time>2021-05-29 13:25:13</time>
      </trkpt>
      <trkpt lat="43.32076" lon="-2.41901">
        <ele>-15</ele>
        <time>2021-05-29 13:25:14</time>
      </trkpt>
      <trkpt lat="43.32086" lon="-2.41902">
        <ele>-15</ele>
        <time>2021-05-29 13:25:15</time>
      </trkpt>
      <trkpt lat="43.32095" lon="-2.41904">
        <ele>-15.2</ele>
        <time>2021-05-29 13:25:16</time>
      </trkpt>
      <trkpt lat="43.32105" lon="-2.41907">
        <ele>-15.2</ele>
        <time>2021-05-29 13:25:17</time>
      </trkpt>
      <trkpt lat="43.32114" lon="-2.41911">
        <ele>-15.4</ele>
        <time>2021-05-29 13:25:18</time>
      </trkpt>
      <trkpt lat="43.32123" lon="-2.41917">
        <ele>-15.4</ele>
        <time>2021-05-29 13:25:19</time>
      </trkpt>
      <trkpt lat="43.32131" lon="-2.41923">
        <ele>-15.6</ele>
        <time>2021-05-29 13:25:20</time>
      </trkpt>
      <trkpt lat="43.32139" lon="-2.4193">
        <ele>-15.6</ele>
        <time>2021-05-29 13:25:21</time>
      </trkpt>
      <trkpt lat="43.32147" lon="-2.41938">
        <ele>-15.8</ele>
        <time>2021-05-29 13:25:22</time>
      </trkpt>
      <trkpt lat="43.32154" lon="-2.41945">
        <ele>-15.8</ele>
        <time>2021-05-29 13:25:23</time>
      </trkpt>
      <trkpt lat="43.32162" lon="-2.41952">
        <ele>-15.8</ele>
        <time>2021-05-29 13:25:24</time>
      </trkpt>
      <trkpt lat="43.32169" lon="-2.41958">
        <ele>-15.8</ele>
        <time>2021-05-29 13:25:25</time>
      </trkpt>
      <trkpt lat="43.32177" lon="-2.41964">
        <ele>-15.8</ele>
        <time>2021-05-29 13:25:26</time>
      </trkpt>
      <trkpt lat="43.32185" lon="-2.4197">
        <ele>-16</ele>
        <time>2021-05-29 13:25:27</time>
      </trkpt>
      <trkpt lat="43.32193" lon="-2.41977">
        <ele>-16</ele>
        <time>2021-05-29 13:25:28</time>
      </trkpt>
      <trkpt lat="43.322" lon="-2.41982">
        <ele>-16</ele>
        <time>2021-05-29 13:25:29</time>
      </trkpt>
      <trkpt lat="43.32207" lon="-2.41988">
        <ele>-16</ele>
        <time>2021-05-29 13:25:30</time>
      </trkpt>
      <trkpt lat="43.32213" lon="-2.41995">
        <ele>-16</ele>
        <time>2021-05-29 13:25:31</time>
      </trkpt>
      <trkpt lat="43.32219" lon="-2.42003">
        <ele>-16</ele>
        <time>2021-05-29 13:25:32</time>
      </trkpt>
      <trkpt lat="43.32224" lon="-2.42012">
        <ele>-16</ele>
        <time>2021-05-29 13:25:33</time>
      </trkpt>
      <trkpt lat="43.3223" lon="-2.4202">
        <ele>-16</ele>
        <time>2021-05-29 13:25:34</time>
      </trkpt>
      <trkpt lat="43.32235" lon="-2.42029">
        <ele>-16</ele>
        <time>2021-05-29 13:25:35</time>
      </trkpt>
      <trkpt lat="43.3224" lon="-2.42039">
        <ele>-15.8</ele>
        <time>2021-05-29 13:25:36</time>
      </trkpt>
      <trkpt lat="43.32246" lon="-2.42049">
        <ele>-15.6</ele>
        <time>2021-05-29 13:25:37</time>
      </trkpt>
      <trkpt lat="43.32251" lon="-2.42058">
        <ele>-15.4</ele>
        <time>2021-05-29 13:25:38</time>
      </trkpt>
      <trkpt lat="43.32256" lon="-2.42067">
        <ele>-15.4</ele>
        <time>2021-05-29 13:25:39</time>
      </trkpt>
      <trkpt lat="43.32262" lon="-2.42077">
        <ele>-15.2</ele>
        <time>2021-05-29 13:25:40</time>
      </trkpt>
      <trkpt lat="43.32267" lon="-2.42086">
        <ele>-15.2</ele>
        <time>2021-05-29 13:25:41</time>
      </trkpt>
      <trkpt lat="43.32272" lon="-2.42095">
        <ele>-15.2</ele>
        <time>2021-05-29 13:25:42</time>
      </trkpt>
      <trkpt lat="43.32277" lon="-2.42104">
        <ele>-15.2</ele>
        <time>2021-05-29 13:25:43</time>
      </trkpt>
      <trkpt lat="43.32282" lon="-2.42113">
        <ele>-15.2</ele>
        <time>2021-05-29 13:25:44</time>
      </trkpt>
      <trkpt lat="43.32286" lon="-2.42122">
        <ele>-15.2</ele>
        <time>2021-05-29 13:25:45</time>
      </trkpt>
      <trkpt lat="43.3229" lon="-2.42133">
        <ele>-15.2</ele>
        <time>2021-05-29 13:25:46</time>
      </trkpt>
      <trkpt lat="43.32294" lon="-2.42144">
        <ele>-15.2</ele>
        <time>2021-05-29 13:25:47</time>
      </trkpt>
      <trkpt lat="43.32297" lon="-2.42156">
        <ele>-15.2</ele>
        <time>2021-05-29 13:25:48</time>
      </trkpt>
      <trkpt lat="43.32299" lon="-2.42167">
        <ele>-15.2</ele>
        <time>2021-05-29 13:25:49</time>
      </trkpt>
      <trkpt lat="43.32302" lon="-2.4218">
        <ele>-15.2</ele>
        <time>2021-05-29 13:25:50</time>
      </trkpt>
      <trkpt lat="43.32305" lon="-2.42192">
        <ele>-15.4</ele>
        <time>2021-05-29 13:25:51</time>
      </trkpt>
      <trkpt lat="43.32308" lon="-2.42202">
        <ele>-15.6</ele>
        <time>2021-05-29 13:25:52</time>
      </trkpt>
      <trkpt lat="43.3231" lon="-2.42213">
        <ele>-16</ele>
        <time>2021-05-29 13:25:53</time>
      </trkpt>
      <trkpt lat="43.32313" lon="-2.42222">
        <ele>-16.2</ele>
        <time>2021-05-29 13:25:54</time>
      </trkpt>
      <trkpt lat="43.32314" lon="-2.4223">
        <ele>-16.4</ele>
        <time>2021-05-29 13:25:55</time>
      </trkpt>
      <trkpt lat="43.32313" lon="-2.42236">
        <ele>-16.6</ele>
        <time>2021-05-29 13:25:56</time>
      </trkpt>
      <trkpt lat="43.3231" lon="-2.42241">
        <ele>-16.8</ele>
        <time>2021-05-29 13:25:57</time>
      </trkpt>
      <trkpt lat="43.32306" lon="-2.42243">
        <ele>-16.8</ele>
        <time>2021-05-29 13:25:58</time>
      </trkpt>
      <trkpt lat="43.32302" lon="-2.42244">
        <ele>-16.8</ele>
        <time>2021-05-29 13:25:59</time>
      </trkpt>
      <trkpt lat="43.32298" lon="-2.42243">
        <ele>-17</ele>
        <time>2021-05-29 13:26:00</time>
      </trkpt>
      <trkpt lat="43.32294" lon="-2.42242">
        <ele>-17</ele>
        <time>2021-05-29 13:26:01</time>
      </trkpt>
      <trkpt lat="43.32289" lon="-2.42241">
        <ele>-17</ele>
        <time>2021-05-29 13:26:02</time>
      </trkpt>
      <trkpt lat="43.32286" lon="-2.42239">
        <ele>-17</ele>
        <time>2021-05-29 13:26:03</time>
      </trkpt>
      <trkpt lat="43.32282" lon="-2.42236">
        <ele>-17</ele>
        <time>2021-05-29 13:26:04</time>
      </trkpt>
      <trkpt lat="43.32278" lon="-2.42234">
        <ele>-17</ele>
        <time>2021-05-29 13:26:05</time>
      </trkpt>
      <trkpt lat="43.32273" lon="-2.42231">
        <ele>-17</ele>
        <time>2021-05-29 13:26:06</time>
      </trkpt>
      <trkpt lat="43.32269" lon="-2.42229">
        <ele>-16.8</ele>
        <time>2021-05-29 13:26:07</time>
      </trkpt>
      <trkpt lat="43.32266" lon="-2.42227">
        <ele>-16.8</ele>
        <time>2021-05-29 13:26:08</time>
      </trkpt>
      <trkpt lat="43.32263" lon="-2.42226">
        <ele>-16.6</ele>
        <time>2021-05-29 13:26:09</time>
      </trkpt>
      <trkpt lat="43.3226" lon="-2.42225">
        <ele>-16.6</ele>
        <time>2021-05-29 13:26:10</time>
      </trkpt>
      <trkpt lat="43.32256" lon="-2.42223">
        <ele>-16.6</ele>
        <time>2021-05-29 13:26:11</time>
      </trkpt>
      <trkpt lat="43.32253" lon="-2.42221">
        <ele>-16.6</ele>
        <time>2021-05-29 13:26:12</time>
      </trkpt>
      <trkpt lat="43.3225" lon="-2.42219">
        <ele>-16.4</ele>
        <time>2021-05-29 13:26:13</time>
      </trkpt>
      <trkpt lat="43.32247" lon="-2.42217">
        <ele>-16.4</ele>
        <time>2021-05-29 13:26:14</time>
      </trkpt>
      <trkpt lat="43.32244" lon="-2.42215">
        <ele>-16.4</ele>
        <time>2021-05-29 13:26:15</time>
      </trkpt>
      <trkpt lat="43.32239" lon="-2.42214">
        <ele>-16.4</ele>
        <time>2021-05-29 13:26:16</time>
      </trkpt>
      <trkpt lat="43.32235" lon="-2.42211">
        <ele>-16.4</ele>
        <time>2021-05-29 13:26:17</time>
      </trkpt>
      <trkpt lat="43.32231" lon="-2.42206">
        <ele>-16.4</ele>
        <time>2021-05-29 13:26:18</time>
      </trkpt>
      <trkpt lat="43.32225" lon="-2.42207">
        <ele>-16.4</ele>
        <time>2021-05-29 13:26:19</time>
      </trkpt>
      <trkpt lat="43.32219" lon="-2.42205">
        <ele>-16.2</ele>
        <time>2021-05-29 13:26:20</time>
      </trkpt>
      <trkpt lat="43.32215" lon="-2.42202">
        <ele>-16.2</ele>
        <time>2021-05-29 13:26:21</time>
      </trkpt>
      <trkpt lat="43.32211" lon="-2.42198">
        <ele>-16.2</ele>
        <time>2021-05-29 13:26:22</time>
      </trkpt>
      <trkpt lat="43.32207" lon="-2.42194">
        <ele>-16.2</ele>
        <time>2021-05-29 13:26:23</time>
      </trkpt>
      <trkpt lat="43.32203" lon="-2.42191">
        <ele>-16.2</ele>
        <time>2021-05-29 13:26:24</time>
      </trkpt>
      <trkpt lat="43.32199" lon="-2.42186">
        <ele>-16.2</ele>
        <time>2021-05-29 13:26:25</time>
      </trkpt>
      <trkpt lat="43.32194" lon="-2.42184">
        <ele>-16.2</ele>
        <time>2021-05-29 13:26:26</time>
      </trkpt>
      <trkpt lat="43.3219" lon="-2.42182">
        <ele>-16.2</ele>
        <time>2021-05-29 13:26:27</time>
      </trkpt>
      <trkpt lat="43.32188" lon="-2.42185">
        <ele>-16.2</ele>
        <time>2021-05-29 13:26:28</time>
      </trkpt>
      <trkpt lat="43.32187" lon="-2.42187">
        <ele>-16</ele>
        <time>2021-05-29 13:26:29</time>
      </trkpt>
      <trkpt lat="43.32187" lon="-2.42191">
        <ele>-15.8</ele>
        <time>2021-05-29 13:26:30</time>
      </trkpt>
      <trkpt lat="43.32188" lon="-2.42194">
        <ele>-15.8</ele>
        <time>2021-05-29 13:26:31</time>
      </trkpt>
      <trkpt lat="43.32189" lon="-2.42198">
        <ele>-15.6</ele>
        <time>2021-05-29 13:26:32</time>
      </trkpt>
      <trkpt lat="43.32192" lon="-2.42201">
        <ele>-15.6</ele>
        <time>2021-05-29 13:26:33</time>
      </trkpt>
      <trkpt lat="43.32196" lon="-2.42204">
        <ele>-15.4</ele>
        <time>2021-05-29 13:26:34</time>
      </trkpt>
      <trkpt lat="43.32199" lon="-2.42208">
        <ele>-15.2</ele>
        <time>2021-05-29 13:26:35</time>
      </trkpt>
      <trkpt lat="43.32202" lon="-2.42214">
        <ele>-14.6</ele>
        <time>2021-05-29 13:26:36</time>
      </trkpt>
      <trkpt lat="43.32206" lon="-2.42218">
        <ele>-13.8</ele>
        <time>2021-05-29 13:26:37</time>
      </trkpt>
      <trkpt lat="43.3221" lon="-2.42221">
        <ele>-13</ele>
        <time>2021-05-29 13:26:38</time>
      </trkpt>
      <trkpt lat="43.32214" lon="-2.42225">
        <ele>-12.6</ele>
        <time>2021-05-29 13:26:39</time>
      </trkpt>
      <trkpt lat="43.32217" lon="-2.42232">
        <ele>-12.4</ele>
        <time>2021-05-29 13:26:40</time>
      </trkpt>
      <trkpt lat="43.32221" lon="-2.42236">
        <ele>-12.4</ele>
        <time>2021-05-29 13:26:41</time>
      </trkpt>
      <trkpt lat="43.32225" lon="-2.4224">
        <ele>-12</ele>
        <time>2021-05-29 13:26:42</time>
      </trkpt>
      <trkpt lat="43.32228" lon="-2.42244">
        <ele>-11.8</ele>
        <time>2021-05-29 13:26:43</time>
      </trkpt>
      <trkpt lat="43.32231" lon="-2.42248">
        <ele>-11.6</ele>
        <time>2021-05-29 13:26:44</time>
      </trkpt>
      <trkpt lat="43.32235" lon="-2.42253">
        <ele>-11.2</ele>
        <time>2021-05-29 13:26:45</time>
      </trkpt>
      <trkpt lat="43.32238" lon="-2.42257">
        <ele>-11.2</ele>
        <time>2021-05-29 13:26:46</time>
      </trkpt>
      <trkpt lat="43.32241" lon="-2.42261">
        <ele>-10.8</ele>
        <time>2021-05-29 13:26:47</time>
      </trkpt>
      <trkpt lat="43.32245" lon="-2.42265">
        <ele>-10.6</ele>
        <time>2021-05-29 13:26:48</time>
      </trkpt>
      <trkpt lat="43.32248" lon="-2.42269">
        <ele>-10.4</ele>
        <time>2021-05-29 13:26:49</time>
      </trkpt>
      <trkpt lat="43.32252" lon="-2.42273">
        <ele>-10.2</ele>
        <time>2021-05-29 13:26:50</time>
      </trkpt>
      <trkpt lat="43.32256" lon="-2.42276">
        <ele>-9.8</ele>
        <time>2021-05-29 13:26:51</time>
      </trkpt>
      <trkpt lat="43.32257" lon="-2.42284">
        <ele>-9.6</ele>
        <time>2021-05-29 13:26:52</time>
      </trkpt>
      <trkpt lat="43.32259" lon="-2.42291">
        <ele>-9.2</ele>
        <time>2021-05-29 13:26:53</time>
      </trkpt>
      <trkpt lat="43.32262" lon="-2.42295">
        <ele>-9</ele>
        <time>2021-05-29 13:26:54</time>
      </trkpt>
      <trkpt lat="43.32266" lon="-2.42299">
        <ele>-8.8</ele>
        <time>2021-05-29 13:26:55</time>
      </trkpt>
      <trkpt lat="43.32269" lon="-2.42302">
        <ele>-8.6</ele>
        <time>2021-05-29 13:26:56</time>
      </trkpt>
      <trkpt lat="43.32272" lon="-2.42306">
        <ele>-8.4</ele>
        <time>2021-05-29 13:26:57</time>
      </trkpt>
      <trkpt lat="43.32276" lon="-2.42309">
        <ele>-8</ele>
        <time>2021-05-29 13:26:58</time>
      </trkpt>
      <trkpt lat="43.32279" lon="-2.42311">
        <ele>-7.8</ele>
        <time>2021-05-29 13:26:59</time>
      </trkpt>
      <trkpt lat="43.32284" lon="-2.42313">
        <ele>-7.4</ele>
        <time>2021-05-29 13:27:00</time>
      </trkpt>
      <trkpt lat="43.32288" lon="-2.42315">
        <ele>-7</ele>
        <time>2021-05-29 13:27:01</time>
      </trkpt>
      <trkpt lat="43.32293" lon="-2.42316">
        <ele>-6.6</ele>
        <time>2021-05-29 13:27:02</time>
      </trkpt>
      <trkpt lat="43.32297" lon="-2.42319">
        <ele>-6.4</ele>
        <time>2021-05-29 13:27:03</time>
      </trkpt>
      <trkpt lat="43.32302" lon="-2.4232">
        <ele>-6.2</ele>
        <time>2021-05-29 13:27:04</time>
      </trkpt>
      <trkpt lat="43.32306" lon="-2.42323">
        <ele>-5.8</ele>
        <time>2021-05-29 13:27:05</time>
      </trkpt>
      <trkpt lat="43.32309" lon="-2.42326">
        <ele>-5.2</ele>
        <time>2021-05-29 13:27:06</time>
      </trkpt>
      <trkpt lat="43.32313" lon="-2.42329">
        <ele>-4.8</ele>
        <time>2021-05-29 13:27:07</time>
      </trkpt>
      <trkpt lat="43.32316" lon="-2.42331">
        <ele>-4.4</ele>
        <time>2021-05-29 13:27:08</time>
      </trkpt>
      <trkpt lat="43.32319" lon="-2.42334">
        <ele>-4.2</ele>
        <time>2021-05-29 13:27:09</time>
      </trkpt>
      <trkpt lat="43.32322" lon="-2.42337">
        <ele>-4</ele>
        <time>2021-05-29 13:27:10</time>
      </trkpt>
      <trkpt lat="43.32325" lon="-2.42339">
        <ele>-3.8</ele>
        <time>2021-05-29 13:27:11</time>
      </trkpt>
      <trkpt lat="43.32327" lon="-2.4234">
        <ele>-3.4</ele>
        <time>2021-05-29 13:27:12</time>
      </trkpt>
      <trkpt lat="43.32331" lon="-2.42344">
        <ele>-3.2</ele>
        <time>2021-05-29 13:27:13</time>
      </trkpt>
      <trkpt lat="43.32335" lon="-2.42347">
        <ele>-3</ele>
        <time>2021-05-29 13:27:14</time>
      </trkpt>
      <trkpt lat="43.32338" lon="-2.42349">
        <ele>-2.6</ele>
        <time>2021-05-29 13:27:15</time>
      </trkpt>
      <trkpt lat="43.32342" lon="-2.4235">
        <ele>-2.4</ele>
        <time>2021-05-29 13:27:16</time>
      </trkpt>
      <trkpt lat="43.32346" lon="-2.4235">
        <ele>-2</ele>
        <time>2021-05-29 13:27:17</time>
      </trkpt>
      <trkpt lat="43.32349" lon="-2.4235">
        <ele>-1.6</ele>
        <time>2021-05-29 13:27:18</time>
      </trkpt>
      <trkpt lat="43.32351" lon="-2.4235">
        <ele>-1.4</ele>
        <time>2021-05-29 13:27:19</time>
      </trkpt>
      <trkpt lat="43.32354" lon="-2.42349">
        <ele>-1.2</ele>
        <time>2021-05-29 13:27:20</time>
      </trkpt>
      <trkpt lat="43.32352" lon="-2.42365">
        <ele>-1</ele>
        <time>2021-05-29 13:27:21</time>
      </trkpt>
      <trkpt lat="43.32355" lon="-2.42367">
        <ele>-1</ele>
        <time>2021-05-29 13:27:22</time>
      </trkpt>
      <trkpt lat="43.32359" lon="-2.42368">
        <ele>-0.8</ele>
        <time>2021-05-29 13:27:23</time>
      </trkpt>
      <trkpt lat="43.32364" lon="-2.4237">
        <ele>-0.6</ele>
        <time>2021-05-29 13:27:24</time>
      </trkpt>
      <trkpt lat="43.32368" lon="-2.42372">
        <ele>-0.2</ele>
        <time>2021-05-29 13:27:25</time>
      </trkpt>
      <trkpt lat="43.32371" lon="-2.42373">
        <time>2021-05-29 13:27:26</time>
      </trkpt>
      <trkpt lat="43.32375" lon="-2.42375">
        <ele>0.2</ele>
        <time>2021-05-29 13:27:27</time>
      </trkpt>
      <trkpt lat="43.32378" lon="-2.42376">
        <ele>0.4</ele>
        <time>2021-05-29 13:27:28</time>
      </trkpt>
      <trkpt lat="43.32382" lon="-2.42377">
        <ele>0.4</ele>
        <time>2021-05-29 13:27:29</time>
      </trkpt>
      <trkpt lat="43.32386" lon="-2.42377">
        <ele>0.6</ele>
        <time>2021-05-29 13:27:30</time>
      </trkpt>
      <trkpt lat="43.32389" lon="-2.42378">
        <ele>0.8</ele>
        <time>2021-05-29 13:27:31</time>
      </trkpt>
      <trkpt lat="43.32393" lon="-2.42377">
        <ele>1.4</ele>
        <time>2021-05-29 13:27:32</time>
      </trkpt>
      <trkpt lat="43.32396" lon="-2.42378">
        <ele>1.8</ele>
        <time>2021-05-29 13:27:33</time>
      </trkpt>
      <trkpt lat="43.324" lon="-2.42378">
        <ele>2</ele>
        <time>2021-05-29 13:27:34</time>
      </trkpt>
      <trkpt lat="43.32404" lon="-2.42377">
        <ele>2.4</ele>
        <time>2021-05-29 13:27:35</time>
      </trkpt>
      <trkpt lat="43.32409" lon="-2.42377">
        <ele>2.6</ele>
        <time>2021-05-29 13:27:36</time>
      </trkpt>
      <trkpt lat="43.32413" lon="-2.42377">
        <ele>2.8</ele>
        <time>2021-05-29 13:27:37</time>
      </trkpt>
      <trkpt lat="43.32418" lon="-2.42377">
        <ele>3</ele>
        <time>2021-05-29 13:27:38</time>
      </trkpt>
      <trkpt lat="43.32423" lon="-2.42377">
        <ele>3.2</ele>
        <time>2021-05-29 13:27:39</time>
      </trkpt>
      <trkpt lat="43.32426" lon="-2.42377">
        <ele>3.4</ele>
        <time>2021-05-29 13:27:40</time>
      </trkpt>
      <trkpt lat="43.3243" lon="-2.42377">
        <ele>3.4</ele>
        <time>2021-05-29 13:27:41</time>
      </trkpt>
      <trkpt lat="43.32434" lon="-2.42378">
        <ele>3.8</ele>
        <time>2021-05-29 13:27:42</time>
      </trkpt>
      <trkpt lat="43.32438" lon="-2.42377">
        <ele>4</ele>
        <time>2021-05-29 13:27:43</time>
      </trkpt>
      <trkpt lat="43.32444" lon="-2.42377">
        <ele>4.4</ele>
        <time>2021-05-29 13:27:44</time>
      </trkpt>
      <trkpt lat="43.3245" lon="-2.42377">
        <ele>4.6</ele>
        <time>2021-05-29 13:27:45</time>
      </trkpt>
      <trkpt lat="43.32456" lon="-2.42377">
        <ele>4.8</ele>
        <time>2021-05-29 13:27:46</time>
      </trkpt>
      <trkpt lat="43.32464" lon="-2.42374">
        <ele>5.2</ele>
        <time>2021-05-29 13:27:47</time>
      </trkpt>
      <trkpt lat="43.32468" lon="-2.42373">
        <ele>5.4</ele>
        <time>2021-05-29 13:27:48</time>
      </trkpt>
      <trkpt lat="43.32475" lon="-2.4237">
        <ele>5.6</ele>
        <time>2021-05-29 13:27:49</time>
      </trkpt>
      <trkpt lat="43.3248" lon="-2.42367">
        <ele>5.8</ele>
        <time>2021-05-29 13:27:50</time>
      </trkpt>
      <trkpt lat="43.32484" lon="-2.42363">
        <ele>6.2</ele>
        <time>2021-05-29 13:27:51</time>
      </trkpt>
      <trkpt lat="43.32488" lon="-2.42358">
        <ele>6.6</ele>
        <time>2021-05-29 13:27:52</time>
      </trkpt>
      <trkpt lat="43.32492" lon="-2.42354">
        <ele>6.6</ele>
        <time>2021-05-29 13:27:53</time>
      </trkpt>
      <trkpt lat="43.32498" lon="-2.4235">
        <ele>6.8</ele>
        <time>2021-05-29 13:27:54</time>
      </trkpt>
      <trkpt lat="43.32503" lon="-2.42345">
        <ele>7</ele>
        <time>2021-05-29 13:27:55</time>
      </trkpt>
      <trkpt lat="43.32506" lon="-2.42342">
        <ele>7</ele>
        <time>2021-05-29 13:27:56</time>
      </trkpt>
      <trkpt lat="43.32511" lon="-2.42339">
        <ele>7.6</ele>
        <time>2021-05-29 13:27:57</time>
      </trkpt>
      <trkpt lat="43.32517" lon="-2.42335">
        <ele>7.8</ele>
        <time>2021-05-29 13:27:58</time>
      </trkpt>
      <trkpt lat="43.32521" lon="-2.42332">
        <ele>8.4</ele>
        <time>2021-05-29 13:27:59</time>
      </trkpt>
      <trkpt lat="43.32526" lon="-2.42329">
        <ele>8.6</ele>
        <time>2021-05-29 13:28:00</time>
      </trkpt>
      <trkpt lat="43.32531" lon="-2.42326">
        <ele>9</ele>
        <time>2021-05-29 13:28:01</time>
      </trkpt>
      <trkpt lat="43.32536" lon="-2.42322">
        <ele>9.2</ele>
        <time>2021-05-29 13:28:02</time>
      </trkpt>
      <trkpt lat="43.32541" lon="-2.42319">
        <ele>9.4</ele>
        <time>2021-05-29 13:28:03</time>
      </trkpt>
      <trkpt lat="43.32547" lon="-2.42316">
        <ele>9.8</ele>
        <time>2021-05-29 13:28:04</time>
      </trkpt>
      <trkpt lat="43.32551" lon="-2.42312">
        <ele>10</ele>
        <time>2021-05-29 13:28:05</time>
      </trkpt>
      <trkpt lat="43.32556" lon="-2.42309">
        <ele>10.2</ele>
        <time>2021-05-29 13:28:06</time>
      </trkpt>
      <trkpt lat="43.3256" lon="-2.42306">
        <ele>10.2</ele>
        <time>2021-05-29 13:28:07</time>
      </trkpt>
      <trkpt lat="43.32565" lon="-2.42303">
        <ele>10.6</ele>
        <time>2021-05-29 13:28:08</time>
      </trkpt>
      <trkpt lat="43.3257" lon="-2.42299">
        <ele>10.8</ele>
        <time>2021-05-29 13:28:09</time>
      </trkpt>
      <trkpt lat="43.32574" lon="-2.42296">
        <ele>11</ele>
        <time>2021-05-29 13:28:10</time>
      </trkpt>
      <trkpt lat="43.32578" lon="-2.42293">
        <ele>11.2</ele>
        <time>2021-05-29 13:28:11</time>
      </trkpt>
      <trkpt lat="43.32583" lon="-2.42289">
        <ele>11.6</ele>
        <time>2021-05-29 13:28:12</time>
      </trkpt>
      <trkpt lat="43.32588" lon="-2.42285">
        <ele>11.8</ele>
        <time>2021-05-29 13:28:13</time>
      </trkpt>
      <trkpt lat="43.32592" lon="-2.42282">
        <ele>12</ele>
        <time>2021-05-29 13:28:14</time>
      </trkpt>
      <trkpt lat="43.32596" lon="-2.42279">
        <ele>12</ele>
        <time>2021-05-29 13:28:15</time>
      </trkpt>
      <trkpt lat="43.326" lon="-2.42276">
        <ele>12.4</ele>
        <time>2021-05-29 13:28:16</time>
      </trkpt>
      <trkpt lat="43.32603" lon="-2.42273">
        <ele>12.6</ele>
        <time>2021-05-29 13:28:17</time>
      </trkpt>
      <trkpt lat="43.32607" lon="-2.4227">
        <ele>12.8</ele>
        <time>2021-05-29 13:28:18</time>
      </trkpt>
      <trkpt lat="43.32611" lon="-2.42267">
        <ele>13</ele>
        <time>2021-05-29 13:28:19</time>
      </trkpt>
      <trkpt lat="43.32615" lon="-2.42264">
        <ele>13.6</ele>
        <time>2021-05-29 13:28:20</time>
      </trkpt>
      <trkpt lat="43.32619" lon="-2.42261">
        <ele>14</ele>
        <time>2021-05-29 13:28:21</time>
      </trkpt>
      <trkpt lat="43.32623" lon="-2.42258">
        <ele>14</ele>
        <time>2021-05-29 13:28:22</time>
      </trkpt>
      <trkpt lat="43.32627" lon="-2.42255">
        <ele>14.4</ele>
        <time>2021-05-29 13:28:23</time>
      </trkpt>
      <trkpt lat="43.32633" lon="-2.42253">
        <ele>14.6</ele>
        <time>2021-05-29 13:28:24</time>
      </trkpt>
      <trkpt lat="43.32637" lon="-2.4225">
        <ele>14.8</ele>
        <time>2021-05-29 13:28:25</time>
      </trkpt>
      <trkpt lat="43.32641" lon="-2.42249">
        <ele>15.2</ele>
        <time>2021-05-29 13:28:26</time>
      </trkpt>
      <trkpt lat="43.32645" lon="-2.42246">
        <ele>15.2</ele>
        <time>2021-05-29 13:28:27</time>
      </trkpt>
      <trkpt lat="43.3265" lon="-2.42244">
        <ele>15.8</ele>
        <time>2021-05-29 13:28:28</time>
      </trkpt>
      <trkpt lat="43.32654" lon="-2.4224">
        <ele>16</ele>
        <time>2021-05-29 13:28:29</time>
      </trkpt>
      <trkpt lat="43.32658" lon="-2.42236">
        <ele>16.2</ele>
        <time>2021-05-29 13:28:30</time>
      </trkpt>
      <trkpt lat="43.32662" lon="-2.42232">
        <ele>16.4</ele>
        <time>2021-05-29 13:28:31</time>
      </trkpt>
      <trkpt lat="43.32666" lon="-2.42227">
        <ele>16.6</ele>
        <time>2021-05-29 13:28:32</time>
      </trkpt>
      <trkpt lat="43.3267" lon="-2.42222">
        <ele>17.2</ele>
        <time>2021-05-29 13:28:33</time>
      </trkpt>
      <trkpt lat="43.32673" lon="-2.42216">
        <ele>17.4</ele>
        <time>2021-05-29 13:28:34</time>
      </trkpt>
      <trkpt lat="43.32678" lon="-2.42211">
        <ele>17.6</ele>
        <time>2021-05-29 13:28:35</time>
      </trkpt>
      <trkpt lat="43.32681" lon="-2.42205">
        <ele>18</ele>
        <time>2021-05-29 13:28:36</time>
      </trkpt>
      <trkpt lat="43.32685" lon="-2.42199">
        <ele>18.2</ele>
        <time>2021-05-29 13:28:37</time>
      </trkpt>
      <trkpt lat="43.32689" lon="-2.42194">
        <ele>18.4</ele>
        <time>2021-05-29 13:28:38</time>
      </trkpt>
      <trkpt lat="43.32693" lon="-2.42189">
        <ele>18.6</ele>
        <time>2021-05-29 13:28:39</time>
      </trkpt>
      <trkpt lat="43.32697" lon="-2.42184">
        <ele>19</ele>
        <time>2021-05-29 13:28:40</time>
      </trkpt>
      <trkpt lat="43.32701" lon="-2.42178">
        <ele>19.4</ele>
        <time>2021-05-29 13:28:41</time>
      </trkpt>
      <trkpt lat="43.32704" lon="-2.42173">
        <ele>19.6</ele>
        <time>2021-05-29 13:28:42</time>
      </trkpt>
      <trkpt lat="43.32708" lon="-2.42167">
        <ele>19.8</ele>
        <time>2021-05-29 13:28:43</time>
      </trkpt>
      <trkpt lat="43.32712" lon="-2.42162">
        <ele>19.8</ele>
        <time>2021-05-29 13:28:44</time>
      </trkpt>
      <trkpt lat="43.32716" lon="-2.42156">
        <ele>20</ele>
        <time>2021-05-29 13:28:45</time>
      </trkpt>
      <trkpt lat="43.32719" lon="-2.42149">
        <ele>20.2</ele>
        <time>2021-05-29 13:28:46</time>
      </trkpt>
      <trkpt lat="43.32722" lon="-2.42143">
        <ele>20.6</ele>
        <time>2021-05-29 13:28:47</time>
      </trkpt>
      <trkpt lat="43.32725" lon="-2.42138">
        <ele>20.8</ele>
        <time>2021-05-29 13:28:48</time>
      </trkpt>
      <trkpt lat="43.3273" lon="-2.42131">
        <ele>21.2</ele>
        <time>2021-05-29 13:28:49</time>
      </trkpt>
      <trkpt lat="43.32735" lon="-2.42124">
        <ele>21.2</ele>
        <time>2021-05-29 13:28:50</time>
      </trkpt>
      <trkpt lat="43.3274" lon="-2.4212">
        <ele>21.4</ele>
        <time>2021-05-29 13:28:51</time>
      </trkpt>
      <trkpt lat="43.32751" lon="-2.42116">
        <ele>21.4</ele>
        <time>2021-05-29 13:28:52</time>
      </trkpt>
      <trkpt lat="43.32759" lon="-2.42116">
        <ele>21.6</ele>
        <time>2021-05-29 13:28:53</time>
      </trkpt>
      <trkpt lat="43.32766" lon="-2.42117">
        <ele>21.8</ele>
        <time>2021-05-29 13:28:54</time>
      </trkpt>
      <trkpt lat="43.32772" lon="-2.42121">
        <ele>22.6</ele>
        <time>2021-05-29 13:28:55</time>
      </trkpt>
      <trkpt lat="43.32777" lon="-2.42125">
        <ele>22.8</ele>
        <time>2021-05-29 13:28:56</time>
      </trkpt>
      <trkpt lat="43.32782" lon="-2.4213">
        <ele>22.8</ele>
        <time>2021-05-29 13:28:57</time>
      </trkpt>
      <trkpt lat="43.32786" lon="-2.42135">
        <ele>23</ele>
        <time>2021-05-29 13:28:58</time>
      </trkpt>
      <trkpt lat="43.3279" lon="-2.42141">
        <ele>23</ele>
        <time>2021-05-29 13:28:59</time>
      </trkpt>
      <trkpt lat="43.32793" lon="-2.42147">
        <ele>23</ele>
        <time>2021-05-29 13:29:00</time>
      </trkpt>
      <trkpt lat="43.32797" lon="-2.42153">
        <ele>23.2</ele>
        <time>2021-05-29 13:29:01</time>
      </trkpt>
      <trkpt lat="43.32802" lon="-2.42159">
        <ele>23.2</ele>
        <time>2021-05-29 13:29:02</time>
      </trkpt>
      <trkpt lat="43.32806" lon="-2.42165">
        <ele>23.6</ele>
        <time>2021-05-29 13:29:03</time>
      </trkpt>
      <trkpt lat="43.32811" lon="-2.4217">
        <ele>23.8</ele>
        <time>2021-05-29 13:29:04</time>
      </trkpt>
      <trkpt lat="43.32816" lon="-2.42175">
        <ele>24</ele>
        <time>2021-05-29 13:29:05</time>
      </trkpt>
      <trkpt lat="43.3282" lon="-2.4218">
        <ele>24.2</ele>
        <time>2021-05-29 13:29:06</time>
      </trkpt>
      <trkpt lat="43.32824" lon="-2.42186">
        <ele>24.4</ele>
        <time>2021-05-29 13:29:07</time>
      </trkpt>
      <trkpt lat="43.32828" lon="-2.42192">
        <ele>24.4</ele>
        <time>2021-05-29 13:29:08</time>
      </trkpt>
      <trkpt lat="43.32832" lon="-2.42198">
        <ele>24.6</ele>
        <time>2021-05-29 13:29:09</time>
      </trkpt>
      <trkpt lat="43.32835" lon="-2.42206">
        <ele>24.8</ele>
        <time>2021-05-29 13:29:10</time>
      </trkpt>
      <trkpt lat="43.32838" lon="-2.42214">
        <ele>25</ele>
        <time>2021-05-29 13:29:11</time>
      </trkpt>
      <trkpt lat="43.32841" lon="-2.42221">
        <ele>25.2</ele>
        <time>2021-05-29 13:29:12</time>
      </trkpt>
      <trkpt lat="43.32843" lon="-2.42229">
        <ele>25.4</ele>
        <time>2021-05-29 13:29:13</time>
      </trkpt>
      <trkpt lat="43.32846" lon="-2.42236">
        <ele>25.4</ele>
        <time>2021-05-29 13:29:14</time>
      </trkpt>
      <trkpt lat="43.32849" lon="-2.42243">
        <ele>25.6</ele>
        <time>2021-05-29 13:29:15</time>
      </trkpt>
      <trkpt lat="43.32851" lon="-2.42251">
        <ele>25.6</ele>
        <time>2021-05-29 13:29:16</time>
      </trkpt>
      <trkpt lat="43.32853" lon="-2.42258">
        <ele>25.6</ele>
        <time>2021-05-29 13:29:17</time>
      </trkpt>
      <trkpt lat="43.32856" lon="-2.42265">
        <ele>25.8</ele>
        <time>2021-05-29 13:29:18</time>
      </trkpt>
      <trkpt lat="43.32859" lon="-2.42271">
        <ele>25.8</ele>
        <time>2021-05-29 13:29:19</time>
      </trkpt>
      <trkpt lat="43.32862" lon="-2.42277">
        <ele>25.8</ele>
        <time>2021-05-29 13:29:20</time>
      </trkpt>
      <trkpt lat="43.32866" lon="-2.42284">
        <ele>25.8</ele>
        <time>2021-05-29 13:29:21</time>
      </trkpt>
      <trkpt lat="43.32869" lon="-2.4229">
        <ele>25.8</ele>
        <time>2021-05-29 13:29:22</time>
      </trkpt>
      <trkpt lat="43.32873" lon="-2.42296">
        <ele>26</ele>
        <time>2021-05-29 13:29:23</time>
      </trkpt>
      <trkpt lat="43.32877" lon="-2.42303">
        <ele>26</ele>
        <time>2021-05-29 13:29:24</time>
      </trkpt>
      <trkpt lat="43.32882" lon="-2.42309">
        <ele>26</ele>
        <time>2021-05-29 13:29:25</time>
      </trkpt>
      <trkpt lat="43.32888" lon="-2.42315">
        <ele>26</ele>
        <time>2021-05-29 13:29:26</time>
      </trkpt>
      <trkpt lat="43.32893" lon="-2.42321">
        <ele>26</ele>
        <time>2021-05-29 13:29:27</time>
      </trkpt>
      <trkpt lat="43.32899" lon="-2.42327">
        <ele>26</ele>
        <time>2021-05-29 13:29:28</time>
      </trkpt>
      <trkpt lat="43.32905" lon="-2.42333">
        <ele>26.2</ele>
        <time>2021-05-29 13:29:29</time>
      </trkpt>
      <trkpt lat="43.32912" lon="-2.42339">
        <ele>26.2</ele>
        <time>2021-05-29 13:29:30</time>
      </trkpt>
      <trkpt lat="43.32918" lon="-2.42346">
        <ele>26.2</ele>
        <time>2021-05-29 13:29:31</time>
      </trkpt>
      <trkpt lat="43.32924" lon="-2.42353">
        <ele>26.2</ele>
        <time>2021-05-29 13:29:32</time>
      </trkpt>
      <trkpt lat="43.3293" lon="-2.42361">
        <ele>26.2</ele>
        <time>2021-05-29 13:29:33</time>
      </trkpt>
      <trkpt lat="43.32935" lon="-2.42368">
        <ele>26.2</ele>
        <time>2021-05-29 13:29:34</time>
      </trkpt>
      <trkpt lat="43.32941" lon="-2.42376">
        <ele>26.2</ele>
        <time>2021-05-29 13:29:35</time>
      </trkpt>
      <trkpt lat="43.32947" lon="-2.42382">
        <ele>26.2</ele>
        <time>2021-05-29 13:29:36</time>
      </trkpt>
      <trkpt lat="43.32952" lon="-2.42389">
        <ele>26.2</ele>
        <time>2021-05-29 13:29:37</time>
      </trkpt>
      <trkpt lat="43.32957" lon="-2.42396">
        <ele>26.2</ele>
        <time>2021-05-29 13:29:38</time>
      </trkpt>
      <trkpt lat="43.32962" lon="-2.42403">
        <ele>26.2</ele>
        <time>2021-05-29 13:29:39</time>
      </trkpt>
      <trkpt lat="43.32966" lon="-2.4241">
        <ele>26.2</ele>
        <time>2021-05-29 13:29:40</time>
      </trkpt>
      <trkpt lat="43.32971" lon="-2.42417">
        <ele>26.2</ele>
        <time>2021-05-29 13:29:41</time>
      </trkpt>
      <trkpt lat="43.32976" lon="-2.42425">
        <ele>26.2</ele>
        <time>2021-05-29 13:29:42</time>
      </trkpt>
      <trkpt lat="43.32982" lon="-2.42432">
        <ele>26.2</ele>
        <time>2021-05-29 13:29:43</time>
      </trkpt>
      <trkpt lat="43.32987" lon="-2.4244">
        <ele>26.2</ele>
        <time>2021-05-29 13:29:44</time>
      </trkpt>
      <trkpt lat="43.32991" lon="-2.42449">
        <ele>26.2</ele>
        <time>2021-05-29 13:29:45</time>
      </trkpt>
      <trkpt lat="43.32995" lon="-2.42457">
        <ele>26.2</ele>
        <time>2021-05-29 13:29:46</time>
      </trkpt>
      <trkpt lat="43.32999" lon="-2.42466">
        <ele>26.2</ele>
        <time>2021-05-29 13:29:47</time>
      </trkpt>
      <trkpt lat="43.33003" lon="-2.42474">
        <ele>26.2</ele>
        <time>2021-05-29 13:29:48</time>
      </trkpt>
      <trkpt lat="43.33008" lon="-2.42484">
        <ele>26.2</ele>
        <time>2021-05-29 13:29:49</time>
      </trkpt>
      <trkpt lat="43.33011" lon="-2.42494">
        <ele>26.2</ele>
        <time>2021-05-29 13:29:50</time>
      </trkpt>
      <trkpt lat="43.33012" lon="-2.42505">
        <ele>26.2</ele>
        <time>2021-05-29 13:29:51</time>
      </trkpt>
      <trkpt lat="43.33013" lon="-2.42514">
        <ele>26.2</ele>
        <time>2021-05-29 13:29:52</time>
      </trkpt>
      <trkpt lat="43.33013" lon="-2.42525">
        <ele>26.2</ele>
        <time>2021-05-29 13:29:53</time>
      </trkpt>
      <trkpt lat="43.33013" lon="-2.42536">
        <ele>26.2</ele>
        <time>2021-05-29 13:29:54</time>
      </trkpt>
      <trkpt lat="43.33013" lon="-2.42546">
        <ele>26.2</ele>
        <time>2021-05-29 13:29:55</time>
      </trkpt>
      <trkpt lat="43.33014" lon="-2.42555">
        <ele>26.2</ele>
        <time>2021-05-29 13:29:56</time>
      </trkpt>
      <trkpt lat="43.33016" lon="-2.42564">
        <ele>26.2</ele>
        <time>2021-05-29 13:29:57</time>
      </trkpt>
      <trkpt lat="43.33018" lon="-2.42573">
        <ele>26</ele>
        <time>2021-05-29 13:29:58</time>
      </trkpt>
      <trkpt lat="43.33021" lon="-2.42581">
        <ele>26.2</ele>
        <time>2021-05-29 13:29:59</time>
      </trkpt>
      <trkpt lat="43.33023" lon="-2.42588">
        <ele>26.2</ele>
        <time>2021-05-29 13:30:00</time>
      </trkpt>
      <trkpt lat="43.33026" lon="-2.42594">
        <ele>26.2</ele>
        <time>2021-05-29 13:30:01</time>
      </trkpt>
      <trkpt lat="43.33029" lon="-2.42601">
        <ele>26.2</ele>
        <time>2021-05-29 13:30:02</time>
      </trkpt>
      <trkpt lat="43.33032" lon="-2.42608">
        <ele>26.2</ele>
        <time>2021-05-29 13:30:03</time>
      </trkpt>
      <trkpt lat="43.33034" lon="-2.42615">
        <ele>26.2</ele>
        <time>2021-05-29 13:30:04</time>
      </trkpt>
      <trkpt lat="43.33036" lon="-2.42623">
        <ele>26.2</ele>
        <time>2021-05-29 13:30:05</time>
      </trkpt>
      <trkpt lat="43.33039" lon="-2.4263">
        <ele>26.4</ele>
        <time>2021-05-29 13:30:06</time>
      </trkpt>
      <trkpt lat="43.3304" lon="-2.42638">
        <ele>26.6</ele>
        <time>2021-05-29 13:30:07</time>
      </trkpt>
      <trkpt lat="43.33043" lon="-2.42645">
        <ele>26.8</ele>
        <time>2021-05-29 13:30:08</time>
      </trkpt>
      <trkpt lat="43.33045" lon="-2.42651">
        <ele>27.2</ele>
        <time>2021-05-29 13:30:09</time>
      </trkpt>
      <trkpt lat="43.33047" lon="-2.42658">
        <ele>27.4</ele>
        <time>2021-05-29 13:30:10</time>
      </trkpt>
      <trkpt lat="43.33049" lon="-2.42664">
        <ele>27.8</ele>
        <time>2021-05-29 13:30:11</time>
      </trkpt>
      <trkpt lat="43.33051" lon="-2.42671">
        <ele>28</ele>
        <time>2021-05-29 13:30:12</time>
      </trkpt>
      <trkpt lat="43.33053" lon="-2.42678">
        <ele>28.2</ele>
        <time>2021-05-29 13:30:13</time>
      </trkpt>
      <trkpt lat="43.33056" lon="-2.42684">
        <ele>28.4</ele>
        <time>2021-05-29 13:30:14</time>
      </trkpt>
      <trkpt lat="43.33059" lon="-2.4269">
        <ele>28.4</ele>
        <time>2021-05-29 13:30:15</time>
      </trkpt>
      <trkpt lat="43.33062" lon="-2.42696">
        <ele>28.6</ele>
        <time>2021-05-29 13:30:16</time>
      </trkpt>
      <trkpt lat="43.33065" lon="-2.42702">
        <ele>28.8</ele>
        <time>2021-05-29 13:30:17</time>
      </trkpt>
      <trkpt lat="43.33068" lon="-2.42708">
        <ele>29.2</ele>
        <time>2021-05-29 13:30:18</time>
      </trkpt>
      <trkpt lat="43.33073" lon="-2.42714">
        <ele>29.6</ele>
        <time>2021-05-29 13:30:19</time>
      </trkpt>
      <trkpt lat="43.33076" lon="-2.4272">
        <ele>29.8</ele>
        <time>2021-05-29 13:30:20</time>
      </trkpt>
      <trkpt lat="43.33078" lon="-2.42727">
        <ele>30.2</ele>
        <time>2021-05-29 13:30:21</time>
      </trkpt>
      <trkpt lat="43.3308" lon="-2.42734">
        <ele>30.2</ele>
        <time>2021-05-29 13:30:22</time>
      </trkpt>
      <trkpt lat="43.33082" lon="-2.42741">
        <ele>30.4</ele>
        <time>2021-05-29 13:30:23</time>
      </trkpt>
      <trkpt lat="43.33083" lon="-2.42748">
        <ele>30.6</ele>
        <time>2021-05-29 13:30:24</time>
      </trkpt>
      <trkpt lat="43.33083" lon="-2.42755">
        <ele>30.8</ele>
        <time>2021-05-29 13:30:25</time>
      </trkpt>
      <trkpt lat="43.33084" lon="-2.42762">
        <ele>31</ele>
        <time>2021-05-29 13:30:26</time>
      </trkpt>
      <trkpt lat="43.33084" lon="-2.42769">
        <ele>31.2</ele>
        <time>2021-05-29 13:30:27</time>
      </trkpt>
      <trkpt lat="43.33084" lon="-2.42776">
        <ele>31.4</ele>
        <time>2021-05-29 13:30:28</time>
      </trkpt>
      <trkpt lat="43.33084" lon="-2.42782">
        <ele>31.4</ele>
        <time>2021-05-29 13:30:29</time>
      </trkpt>
      <trkpt lat="43.33084" lon="-2.42788">
        <ele>31.6</ele>
        <time>2021-05-29 13:30:30</time>
      </trkpt>
      <trkpt lat="43.33085" lon="-2.42794">
        <ele>31.6</ele>
        <time>2021-05-29 13:30:31</time>
      </trkpt>
      <trkpt lat="43.33085" lon="-2.428">
        <ele>31.6</ele>
        <time>2021-05-29 13:30:32</time>
      </trkpt>
      <trkpt lat="43.33086" lon="-2.42806">
        <ele>31.8</ele>
        <time>2021-05-29 13:30:33</time>
      </trkpt>
      <trkpt lat="43.33087" lon="-2.42811">
        <ele>32</ele>
        <time>2021-05-29 13:30:34</time>
      </trkpt>
      <trkpt lat="43.33088" lon="-2.42817">
        <ele>32.2</ele>
        <time>2021-05-29 13:30:35</time>
      </trkpt>
      <trkpt lat="43.3309" lon="-2.42822">
        <ele>32.2</ele>
        <time>2021-05-29 13:30:36</time>
      </trkpt>
      <trkpt lat="43.33091" lon="-2.42827">
        <ele>32.4</ele>
        <time>2021-05-29 13:30:37</time>
      </trkpt>
      <trkpt lat="43.33093" lon="-2.42833">
        <ele>32.6</ele>
        <time>2021-05-29 13:30:38</time>
      </trkpt>
      <trkpt lat="43.33095" lon="-2.42838">
        <ele>33.4</ele>
        <time>2021-05-29 13:30:39</time>
      </trkpt>
      <trkpt lat="43.33098" lon="-2.42842">
        <ele>33.8</ele>
        <time>2021-05-29 13:30:40</time>
      </trkpt>
      <trkpt lat="43.331" lon="-2.42847">
        <ele>34.2</ele>
        <time>2021-05-29 13:30:41</time>
      </trkpt>
      <trkpt lat="43.33103" lon="-2.42852">
        <ele>34.8</ele>
        <time>2021-05-29 13:30:42</time>
      </trkpt>
      <trkpt lat="43.33106" lon="-2.42856">
        <ele>35.2</ele>
        <time>2021-05-29 13:30:43</time>
      </trkpt>
      <trkpt lat="43.33108" lon="-2.42861">
        <ele>35.8</ele>
        <time>2021-05-29 13:30:44</time>
      </trkpt>
      <trkpt lat="43.33111" lon="-2.42866">
        <ele>36.2</ele>
        <time>2021-05-29 13:30:45</time>
      </trkpt>
      <trkpt lat="43.33113" lon="-2.4287">
        <ele>36.6</ele>
        <time>2021-05-29 13:30:46</time>
      </trkpt>
      <trkpt lat="43.33116" lon="-2.42875">
        <ele>37.2</ele>
        <time>2021-05-29 13:30:47</time>
      </trkpt>
      <trkpt lat="43.33118" lon="-2.42879">
        <ele>37.6</ele>
        <time>2021-05-29 13:30:48</time>
      </trkpt>
      <trkpt lat="43.33121" lon="-2.42884">
        <ele>38</ele>
        <time>2021-05-29 13:30:49</time>
      </trkpt>
      <trkpt lat="43.33123" lon="-2.42889">
        <ele>38.6</ele>
        <time>2021-05-29 13:30:50</time>
      </trkpt>
      <trkpt lat="43.33125" lon="-2.42894">
        <ele>38.8</ele>
        <time>2021-05-29 13:30:51</time>
      </trkpt>
      <trkpt lat="43.33127" lon="-2.429">
        <ele>39.2</ele>
        <time>2021-05-29 13:30:52</time>
      </trkpt>
      <trkpt lat="43.33129" lon="-2.42905">
        <ele>39.8</ele>
        <time>2021-05-29 13:30:53</time>
      </trkpt>
      <trkpt lat="43.33131" lon="-2.42911">
        <ele>40.2</ele>
        <time>2021-05-29 13:30:54</time>
      </trkpt>
      <trkpt lat="43.33133" lon="-2.42917">
        <ele>40.6</ele>
        <time>2021-05-29 13:30:55</time>
      </trkpt>
      <trkpt lat="43.33134" lon="-2.42923">
        <ele>41.2</ele>
        <time>2021-05-29 13:30:56</time>
      </trkpt>
      <trkpt lat="43.33136" lon="-2.42929">
        <ele>41.6</ele>
        <time>2021-05-29 13:30:57</time>
      </trkpt>
      <trkpt lat="43.33138" lon="-2.42935">
        <ele>42</ele>
        <time>2021-05-29 13:30:58</time>
      </trkpt>
      <trkpt lat="43.3314" lon="-2.42942">
        <ele>42.4</ele>
        <time>2021-05-29 13:30:59</time>
      </trkpt>
      <trkpt lat="43.33142" lon="-2.42948">
        <ele>42.8</ele>
        <time>2021-05-29 13:31:00</time>
      </trkpt>
      <trkpt lat="43.33143" lon="-2.42954">
        <ele>43</ele>
        <time>2021-05-29 13:31:01</time>
      </trkpt>
      <trkpt lat="43.33145" lon="-2.42961">
        <ele>43.2</ele>
        <time>2021-05-29 13:31:02</time>
      </trkpt>
      <trkpt lat="43.33147" lon="-2.42967">
        <ele>43.4</ele>
        <time>2021-05-29 13:31:03</time>
      </trkpt>
      <trkpt lat="43.33149" lon="-2.42974">
        <ele>43.6</ele>
        <time>2021-05-29 13:31:04</time>
      </trkpt>
      <trkpt lat="43.3315" lon="-2.4298">
        <ele>43.8</ele>
        <time>2021-05-29 13:31:05</time>
      </trkpt>
      <trkpt lat="43.33152" lon="-2.42987">
        <ele>43.8</ele>
        <time>2021-05-29 13:31:06</time>
      </trkpt>
      <trkpt lat="43.33153" lon="-2.42994">
        <ele>44.2</ele>
        <time>2021-05-29 13:31:07</time>
      </trkpt>
      <trkpt lat="43.33155" lon="-2.43">
        <ele>44.2</ele>
        <time>2021-05-29 13:31:08</time>
      </trkpt>
      <trkpt lat="43.33157" lon="-2.43006">
        <ele>44.4</ele>
        <time>2021-05-29 13:31:09</time>
      </trkpt>
      <trkpt lat="43.3316" lon="-2.43012">
        <ele>44.6</ele>
        <time>2021-05-29 13:31:10</time>
      </trkpt>
      <trkpt lat="43.33162" lon="-2.43018">
        <ele>44.8</ele>
        <time>2021-05-29 13:31:11</time>
      </trkpt>
      <trkpt lat="43.33165" lon="-2.43024">
        <ele>44.8</ele>
        <time>2021-05-29 13:31:12</time>
      </trkpt>
      <trkpt lat="43.33167" lon="-2.4303">
        <ele>45.4</ele>
        <time>2021-05-29 13:31:13</time>
      </trkpt>
      <trkpt lat="43.33169" lon="-2.43036">
        <ele>45.6</ele>
        <time>2021-05-29 13:31:14</time>
      </trkpt>
      <trkpt lat="43.33172" lon="-2.43042">
        <ele>45.6</ele>
        <time>2021-05-29 13:31:15</time>
      </trkpt>
      <trkpt lat="43.33175" lon="-2.43048">
        <ele>45.6</ele>
        <time>2021-05-29 13:31:16</time>
      </trkpt>
      <trkpt lat="43.33179" lon="-2.43055">
        <ele>46</ele>
        <time>2021-05-29 13:31:17</time>
      </trkpt>
      <trkpt lat="43.33182" lon="-2.43062">
        <ele>46</ele>
        <time>2021-05-29 13:31:18</time>
      </trkpt>
      <trkpt lat="43.33185" lon="-2.4307">
        <ele>46.2</ele>
        <time>2021-05-29 13:31:19</time>
      </trkpt>
      <trkpt lat="43.33187" lon="-2.43079">
        <ele>46.2</ele>
        <time>2021-05-29 13:31:20</time>
      </trkpt>
      <trkpt lat="43.33189" lon="-2.43088">
        <ele>46.4</ele>
        <time>2021-05-29 13:31:21</time>
      </trkpt>
      <trkpt lat="43.3319" lon="-2.43097">
        <ele>46.4</ele>
        <time>2021-05-29 13:31:22</time>
      </trkpt>
      <trkpt lat="43.33192" lon="-2.43107">
        <ele>46.4</ele>
        <time>2021-05-29 13:31:23</time>
      </trkpt>
      <trkpt lat="43.33193" lon="-2.43115">
        <ele>46.4</ele>
        <time>2021-05-29 13:31:24</time>
      </trkpt>
      <trkpt lat="43.33194" lon="-2.43124">
        <ele>46.6</ele>
        <time>2021-05-29 13:31:25</time>
      </trkpt>
      <trkpt lat="43.33195" lon="-2.43132">
        <ele>46.6</ele>
        <time>2021-05-29 13:31:26</time>
      </trkpt>
      <trkpt lat="43.33196" lon="-2.4314">
        <ele>46.6</ele>
        <time>2021-05-29 13:31:27</time>
      </trkpt>
      <trkpt lat="43.33197" lon="-2.43148">
        <ele>46.8</ele>
        <time>2021-05-29 13:31:28</time>
      </trkpt>
      <trkpt lat="43.33199" lon="-2.43155">
        <ele>46.8</ele>
        <time>2021-05-29 13:31:29</time>
      </trkpt>
      <trkpt lat="43.33201" lon="-2.43163">
        <ele>46.8</ele>
        <time>2021-05-29 13:31:30</time>
      </trkpt>
      <trkpt lat="43.33203" lon="-2.4317">
        <ele>47</ele>
        <time>2021-05-29 13:31:31</time>
      </trkpt>
      <trkpt lat="43.33205" lon="-2.43178">
        <ele>47.4</ele>
        <time>2021-05-29 13:31:32</time>
      </trkpt>
      <trkpt lat="43.33206" lon="-2.43186">
        <ele>47.8</ele>
        <time>2021-05-29 13:31:33</time>
      </trkpt>
      <trkpt lat="43.33207" lon="-2.43195">
        <ele>48.2</ele>
        <time>2021-05-29 13:31:34</time>
      </trkpt>
      <trkpt lat="43.33208" lon="-2.43204">
        <ele>48.6</ele>
        <time>2021-05-29 13:31:35</time>
      </trkpt>
      <trkpt lat="43.33209" lon="-2.43213">
        <ele>48.8</ele>
        <time>2021-05-29 13:31:36</time>
      </trkpt>
      <trkpt lat="43.33209" lon="-2.43222">
        <ele>49.2</ele>
        <time>2021-05-29 13:31:37</time>
      </trkpt>
      <trkpt lat="43.33209" lon="-2.4323">
        <ele>49.6</ele>
        <time>2021-05-29 13:31:38</time>
      </trkpt>
      <trkpt lat="43.33209" lon="-2.43238">
        <ele>49.8</ele>
        <time>2021-05-29 13:31:39</time>
      </trkpt>
      <trkpt lat="43.3321" lon="-2.43246">
        <ele>50</ele>
        <time>2021-05-29 13:31:40</time>
      </trkpt>
      <trkpt lat="43.3321" lon="-2.43254">
        <ele>50</ele>
        <time>2021-05-29 13:31:41</time>
      </trkpt>
      <trkpt lat="43.3321" lon="-2.43263">
        <ele>50.2</ele>
        <time>2021-05-29 13:31:42</time>
      </trkpt>
      <trkpt lat="43.3321" lon="-2.43271">
        <ele>50.6</ele>
        <time>2021-05-29 13:31:43</time>
      </trkpt>
      <trkpt lat="43.33211" lon="-2.43279">
        <ele>51</ele>
        <time>2021-05-29 13:31:44</time>
      </trkpt>
      <trkpt lat="43.33212" lon="-2.43287">
        <ele>51.2</ele>
        <time>2021-05-29 13:31:45</time>
      </trkpt>
      <trkpt lat="43.33214" lon="-2.43294">
        <ele>51.6</ele>
        <time>2021-05-29 13:31:46</time>
      </trkpt>
      <trkpt lat="43.33217" lon="-2.43302">
        <ele>52.2</ele>
        <time>2021-05-29 13:31:47</time>
      </trkpt>
      <trkpt lat="43.33219" lon="-2.4331">
        <ele>52.4</ele>
        <time>2021-05-29 13:31:48</time>
      </trkpt>
      <trkpt lat="43.33221" lon="-2.43318">
        <ele>52.6</ele>
        <time>2021-05-29 13:31:49</time>
      </trkpt>
      <trkpt lat="43.33224" lon="-2.43326">
        <ele>52.8</ele>
        <time>2021-05-29 13:31:50</time>
      </trkpt>
      <trkpt lat="43.33226" lon="-2.43333">
        <ele>53</ele>
        <time>2021-05-29 13:31:51</time>
      </trkpt>
      <trkpt lat="43.33229" lon="-2.4334">
        <ele>53.2</ele>
        <time>2021-05-29 13:31:52</time>
      </trkpt>
      <trkpt lat="43.33232" lon="-2.43347">
        <ele>53.4</ele>
        <time>2021-05-29 13:31:53</time>
      </trkpt>
      <trkpt lat="43.33235" lon="-2.43354">
        <ele>53.4</ele>
        <time>2021-05-29 13:31:54</time>
      </trkpt>
      <trkpt lat="43.33239" lon="-2.4336">
        <ele>53.4</ele>
        <time>2021-05-29 13:31:55</time>
      </trkpt>
      <trkpt lat="43.33242" lon="-2.43366">
        <ele>53.4</ele>
        <time>2021-05-29 13:31:56</time>
      </trkpt>
      <trkpt lat="43.33244" lon="-2.43373">
        <ele>53.6</ele>
        <time>2021-05-29 13:31:57</time>
      </trkpt>
      <trkpt lat="43.33247" lon="-2.4338">
        <ele>53.8</ele>
        <time>2021-05-29 13:31:58</time>
      </trkpt>
      <trkpt lat="43.33249" lon="-2.43386">
        <ele>54</ele>
        <time>2021-05-29 13:31:59</time>
      </trkpt>
      <trkpt lat="43.33251" lon="-2.43393">
        <ele>54.2</ele>
        <time>2021-05-29 13:32:00</time>
      </trkpt>
      <trkpt lat="43.33252" lon="-2.434">
        <ele>54.4</ele>
        <time>2021-05-29 13:32:01</time>
      </trkpt>
      <trkpt lat="43.33254" lon="-2.43407">
        <ele>54.6</ele>
        <time>2021-05-29 13:32:02</time>
      </trkpt>
      <trkpt lat="43.33256" lon="-2.43414">
        <ele>54.8</ele>
        <time>2021-05-29 13:32:03</time>
      </trkpt>
      <trkpt lat="43.33257" lon="-2.43421">
        <ele>55.2</ele>
        <time>2021-05-29 13:32:04</time>
      </trkpt>
      <trkpt lat="43.33259" lon="-2.43429">
        <ele>55.2</ele>
        <time>2021-05-29 13:32:05</time>
      </trkpt>
      <trkpt lat="43.33261" lon="-2.43437">
        <ele>55.4</ele>
        <time>2021-05-29 13:32:06</time>
      </trkpt>
      <trkpt lat="43.33262" lon="-2.43445">
        <ele>55.8</ele>
        <time>2021-05-29 13:32:07</time>
      </trkpt>
      <trkpt lat="43.33264" lon="-2.43454">
        <ele>56</ele>
        <time>2021-05-29 13:32:08</time>
      </trkpt>
      <trkpt lat="43.33265" lon="-2.43462">
        <ele>56.2</ele>
        <time>2021-05-29 13:32:09</time>
      </trkpt>
      <trkpt lat="43.33267" lon="-2.43471">
        <ele>56.4</ele>
        <time>2021-05-29 13:32:10</time>
      </trkpt>
      <trkpt lat="43.33268" lon="-2.43479">
        <ele>56.6</ele>
        <time>2021-05-29 13:32:11</time>
      </trkpt>
      <trkpt lat="43.33267" lon="-2.43486">
        <ele>56.8</ele>
        <time>2021-05-29 13:32:12</time>
      </trkpt>
      <trkpt lat="43.33267" lon="-2.43494">
        <ele>57</ele>
        <time>2021-05-29 13:32:13</time>
      </trkpt>
      <trkpt lat="43.33268" lon="-2.43501">
        <ele>57</ele>
        <time>2021-05-29 13:32:14</time>
      </trkpt>
      <trkpt lat="43.33268" lon="-2.43508">
        <ele>57.4</ele>
        <time>2021-05-29 13:32:15</time>
      </trkpt>
      <trkpt lat="43.33265" lon="-2.43516">
        <ele>57.8</ele>
        <time>2021-05-29 13:32:16</time>
      </trkpt>
      <trkpt lat="43.3326" lon="-2.43524">
        <ele>57.8</ele>
        <time>2021-05-29 13:32:17</time>
      </trkpt>
      <trkpt lat="43.33255" lon="-2.4353">
        <ele>58</ele>
        <time>2021-05-29 13:32:18</time>
      </trkpt>
      <trkpt lat="43.3325" lon="-2.43534">
        <ele>58.2</ele>
        <time>2021-05-29 13:32:19</time>
      </trkpt>
      <trkpt lat="43.33245" lon="-2.43538">
        <ele>58.4</ele>
        <time>2021-05-29 13:32:20</time>
      </trkpt>
      <trkpt lat="43.33241" lon="-2.43544">
        <ele>58.4</ele>
        <time>2021-05-29 13:32:21</time>
      </trkpt>
      <trkpt lat="43.33237" lon="-2.43552">
        <ele>58.6</ele>
        <time>2021-05-29 13:32:22</time>
      </trkpt>
      <trkpt lat="43.33236" lon="-2.43561">
        <ele>58.6</ele>
        <time>2021-05-29 13:32:23</time>
      </trkpt>
      <trkpt lat="43.33234" lon="-2.43572">
        <ele>58.6</ele>
        <time>2021-05-29 13:32:24</time>
      </trkpt>
      <trkpt lat="43.33233" lon="-2.43582">
        <ele>59</ele>
        <time>2021-05-29 13:32:25</time>
      </trkpt>
      <trkpt lat="43.33233" lon="-2.43591">
        <ele>59</ele>
        <time>2021-05-29 13:32:26</time>
      </trkpt>
      <trkpt lat="43.33232" lon="-2.436">
        <ele>59</ele>
        <time>2021-05-29 13:32:27</time>
      </trkpt>
      <trkpt lat="43.33231" lon="-2.43609">
        <ele>59</ele>
        <time>2021-05-29 13:32:28</time>
      </trkpt>
      <trkpt lat="43.3323" lon="-2.43618">
        <ele>59.2</ele>
        <time>2021-05-29 13:32:29</time>
      </trkpt>
      <trkpt lat="43.3323" lon="-2.43627">
        <ele>59.2</ele>
        <time>2021-05-29 13:32:30</time>
      </trkpt>
      <trkpt lat="43.33229" lon="-2.43635">
        <ele>59.4</ele>
        <time>2021-05-29 13:32:31</time>
      </trkpt>
      <trkpt lat="43.33228" lon="-2.43643">
        <ele>59.4</ele>
        <time>2021-05-29 13:32:32</time>
      </trkpt>
      <trkpt lat="43.33227" lon="-2.43652">
        <ele>59.6</ele>
        <time>2021-05-29 13:32:33</time>
      </trkpt>
      <trkpt lat="43.33224" lon="-2.43661">
        <ele>59.6</ele>
        <time>2021-05-29 13:32:34</time>
      </trkpt>
      <trkpt lat="43.33223" lon="-2.4367">
        <ele>59.8</ele>
        <time>2021-05-29 13:32:35</time>
      </trkpt>
      <trkpt lat="43.33221" lon="-2.4368">
        <ele>59.8</ele>
        <time>2021-05-29 13:32:36</time>
      </trkpt>
      <trkpt lat="43.3322" lon="-2.4369">
        <ele>59.8</ele>
        <time>2021-05-29 13:32:37</time>
      </trkpt>
      <trkpt lat="43.33218" lon="-2.437">
        <ele>60</ele>
        <time>2021-05-29 13:32:38</time>
      </trkpt>
      <trkpt lat="43.33217" lon="-2.4371">
        <ele>60.2</ele>
        <time>2021-05-29 13:32:39</time>
      </trkpt>
      <trkpt lat="43.33214" lon="-2.4372">
        <ele>60.2</ele>
        <time>2021-05-29 13:32:40</time>
      </trkpt>
      <trkpt lat="43.33211" lon="-2.4373">
        <ele>60.2</ele>
        <time>2021-05-29 13:32:41</time>
      </trkpt>
      <trkpt lat="43.33207" lon="-2.43738">
        <ele>60.2</ele>
        <time>2021-05-29 13:32:42</time>
      </trkpt>
      <trkpt lat="43.33202" lon="-2.43745">
        <ele>60.2</ele>
        <time>2021-05-29 13:32:43</time>
      </trkpt>
      <trkpt lat="43.33195" lon="-2.43751">
        <ele>60.2</ele>
        <time>2021-05-29 13:32:44</time>
      </trkpt>
      <trkpt lat="43.33187" lon="-2.43755">
        <ele>60.2</ele>
        <time>2021-05-29 13:32:45</time>
      </trkpt>
      <trkpt lat="43.3318" lon="-2.43759">
        <ele>60.2</ele>
        <time>2021-05-29 13:32:46</time>
      </trkpt>
      <trkpt lat="43.33172" lon="-2.43761">
        <ele>60.2</ele>
        <time>2021-05-29 13:32:47</time>
      </trkpt>
      <trkpt lat="43.33165" lon="-2.43763">
        <ele>60.2</ele>
        <time>2021-05-29 13:32:48</time>
      </trkpt>
      <trkpt lat="43.33158" lon="-2.43765">
        <ele>60.4</ele>
        <time>2021-05-29 13:32:49</time>
      </trkpt>
      <trkpt lat="43.3315" lon="-2.43767">
        <ele>60.4</ele>
        <time>2021-05-29 13:32:50</time>
      </trkpt>
      <trkpt lat="43.33142" lon="-2.43767">
        <ele>60.6</ele>
        <time>2021-05-29 13:32:51</time>
      </trkpt>
      <trkpt lat="43.33134" lon="-2.43769">
        <ele>60.8</ele>
        <time>2021-05-29 13:32:52</time>
      </trkpt>
      <trkpt lat="43.33126" lon="-2.4377">
        <ele>61</ele>
        <time>2021-05-29 13:32:53</time>
      </trkpt>
      <trkpt lat="43.33118" lon="-2.43772">
        <ele>61.2</ele>
        <time>2021-05-29 13:32:54</time>
      </trkpt>
      <trkpt lat="43.33111" lon="-2.43773">
        <ele>61.4</ele>
        <time>2021-05-29 13:32:55</time>
      </trkpt>
      <trkpt lat="43.33103" lon="-2.43774">
        <ele>61.4</ele>
        <time>2021-05-29 13:32:56</time>
      </trkpt>
      <trkpt lat="43.33096" lon="-2.43774">
        <ele>61.4</ele>
        <time>2021-05-29 13:32:57</time>
      </trkpt>
      <trkpt lat="43.33088" lon="-2.43775">
        <ele>61.4</ele>
        <time>2021-05-29 13:32:58</time>
      </trkpt>
      <trkpt lat="43.33081" lon="-2.43777">
        <ele>61.4</ele>
        <time>2021-05-29 13:32:59</time>
      </trkpt>
      <trkpt lat="43.33074" lon="-2.43781">
        <ele>61.4</ele>
        <time>2021-05-29 13:33:00</time>
      </trkpt>
      <trkpt lat="43.33069" lon="-2.43788">
        <ele>61.4</ele>
        <time>2021-05-29 13:33:01</time>
      </trkpt>
      <trkpt lat="43.33065" lon="-2.43797">
        <ele>61.4</ele>
        <time>2021-05-29 13:33:02</time>
      </trkpt>
      <trkpt lat="43.33061" lon="-2.43806">
        <ele>61.4</ele>
        <time>2021-05-29 13:33:03</time>
      </trkpt>
      <trkpt lat="43.33059" lon="-2.43816">
        <ele>61.4</ele>
        <time>2021-05-29 13:33:04</time>
      </trkpt>
      <trkpt lat="43.33056" lon="-2.43825">
        <ele>61.4</ele>
        <time>2021-05-29 13:33:05</time>
      </trkpt>
      <trkpt lat="43.33054" lon="-2.43835">
        <ele>61.6</ele>
        <time>2021-05-29 13:33:06</time>
      </trkpt>
      <trkpt lat="43.33054" lon="-2.43844">
        <ele>61.8</ele>
        <time>2021-05-29 13:33:07</time>
      </trkpt>
      <trkpt lat="43.33059" lon="-2.43852">
        <ele>61.8</ele>
        <time>2021-05-29 13:33:08</time>
      </trkpt>
      <trkpt lat="43.33063" lon="-2.4386">
        <ele>61.8</ele>
        <time>2021-05-29 13:33:09</time>
      </trkpt>
      <trkpt lat="43.33069" lon="-2.43863">
        <ele>61.8</ele>
        <time>2021-05-29 13:33:10</time>
      </trkpt>
      <trkpt lat="43.33074" lon="-2.43867">
        <ele>61.8</ele>
        <time>2021-05-29 13:33:11</time>
      </trkpt>
      <trkpt lat="43.33079" lon="-2.43869">
        <ele>61.8</ele>
        <time>2021-05-29 13:33:12</time>
      </trkpt>
      <trkpt lat="43.33084" lon="-2.43871">
        <ele>61.8</ele>
        <time>2021-05-29 13:33:13</time>
      </trkpt>
      <trkpt lat="43.3309" lon="-2.43873">
        <ele>61.8</ele>
        <time>2021-05-29 13:33:14</time>
      </trkpt>
      <trkpt lat="43.33097" lon="-2.43876">
        <ele>61.8</ele>
        <time>2021-05-29 13:33:15</time>
      </trkpt>
      <trkpt lat="43.33104" lon="-2.4388">
        <ele>61.8</ele>
        <time>2021-05-29 13:33:16</time>
      </trkpt>
      <trkpt lat="43.33112" lon="-2.43884">
        <ele>61.8</ele>
        <time>2021-05-29 13:33:17</time>
      </trkpt>
      <trkpt lat="43.3312" lon="-2.43887">
        <ele>61.8</ele>
        <time>2021-05-29 13:33:18</time>
      </trkpt>
      <trkpt lat="43.33128" lon="-2.43893">
        <ele>61.8</ele>
        <time>2021-05-29 13:33:19</time>
      </trkpt>
      <trkpt lat="43.33136" lon="-2.43899">
        <ele>61.8</ele>
        <time>2021-05-29 13:33:20</time>
      </trkpt>
      <trkpt lat="43.33144" lon="-2.43907">
        <ele>62</ele>
        <time>2021-05-29 13:33:21</time>
      </trkpt>
      <trkpt lat="43.33152" lon="-2.43915">
        <ele>61.8</ele>
        <time>2021-05-29 13:33:22</time>
      </trkpt>
      <trkpt lat="43.33158" lon="-2.43926">
        <ele>61.8</ele>
        <time>2021-05-29 13:33:23</time>
      </trkpt>
      <trkpt lat="43.33162" lon="-2.43938">
        <ele>61.6</ele>
        <time>2021-05-29 13:33:24</time>
      </trkpt>
      <trkpt lat="43.33169" lon="-2.43947">
        <ele>61.2</ele>
        <time>2021-05-29 13:33:25</time>
      </trkpt>
      <trkpt lat="43.33171" lon="-2.43961">
        <ele>60.8</ele>
        <time>2021-05-29 13:33:26</time>
      </trkpt>
      <trkpt lat="43.33172" lon="-2.43974">
        <ele>60.6</ele>
        <time>2021-05-29 13:33:27</time>
      </trkpt>
      <trkpt lat="43.33174" lon="-2.43985">
        <ele>60</ele>
        <time>2021-05-29 13:33:28</time>
      </trkpt>
      <trkpt lat="43.33174" lon="-2.43997">
        <ele>59.2</ele>
        <time>2021-05-29 13:33:29</time>
      </trkpt>
      <trkpt lat="43.33173" lon="-2.44009">
        <ele>58.4</ele>
        <time>2021-05-29 13:33:30</time>
      </trkpt>
      <trkpt lat="43.33173" lon="-2.44021">
        <ele>58</ele>
        <time>2021-05-29 13:33:31</time>
      </trkpt>
      <trkpt lat="43.33172" lon="-2.44032">
        <ele>57.8</ele>
        <time>2021-05-29 13:33:32</time>
      </trkpt>
      <trkpt lat="43.33171" lon="-2.44044">
        <ele>57.4</ele>
        <time>2021-05-29 13:33:33</time>
      </trkpt>
      <trkpt lat="43.33169" lon="-2.44056">
        <ele>57.2</ele>
        <time>2021-05-29 13:33:34</time>
      </trkpt>
      <trkpt lat="43.33168" lon="-2.44068">
        <ele>57</ele>
        <time>2021-05-29 13:33:35</time>
      </trkpt>
      <trkpt lat="43.33167" lon="-2.4408">
        <ele>56.8</ele>
        <time>2021-05-29 13:33:36</time>
      </trkpt>
      <trkpt lat="43.33167" lon="-2.44092">
        <ele>56.6</ele>
        <time>2021-05-29 13:33:37</time>
      </trkpt>
      <trkpt lat="43.33167" lon="-2.44105">
        <ele>56.4</ele>
        <time>2021-05-29 13:33:38</time>
      </trkpt>
      <trkpt lat="43.33167" lon="-2.44117">
        <ele>56.4</ele>
        <time>2021-05-29 13:33:39</time>
      </trkpt>
      <trkpt lat="43.33167" lon="-2.44129">
        <ele>56.2</ele>
        <time>2021-05-29 13:33:40</time>
      </trkpt>
      <trkpt lat="43.33167" lon="-2.44142">
        <ele>56</ele>
        <time>2021-05-29 13:33:41</time>
      </trkpt>
      <trkpt lat="43.33168" lon="-2.44154">
        <ele>55.8</ele>
        <time>2021-05-29 13:33:42</time>
      </trkpt>
      <trkpt lat="43.3317" lon="-2.44166">
        <ele>55.8</ele>
        <time>2021-05-29 13:33:43</time>
      </trkpt>
      <trkpt lat="43.33172" lon="-2.44179">
        <ele>55.6</ele>
        <time>2021-05-29 13:33:44</time>
      </trkpt>
      <trkpt lat="43.33173" lon="-2.44191">
        <ele>55.6</ele>
        <time>2021-05-29 13:33:45</time>
      </trkpt>
      <trkpt lat="43.33175" lon="-2.44204">
        <ele>55.6</ele>
        <time>2021-05-29 13:33:46</time>
      </trkpt>
      <trkpt lat="43.33178" lon="-2.44216">
        <ele>55.6</ele>
        <time>2021-05-29 13:33:47</time>
      </trkpt>
      <trkpt lat="43.3318" lon="-2.44228">
        <ele>55.6</ele>
        <time>2021-05-29 13:33:48</time>
      </trkpt>
      <trkpt lat="43.33182" lon="-2.44241">
        <ele>55.6</ele>
        <time>2021-05-29 13:33:49</time>
      </trkpt>
      <trkpt lat="43.33183" lon="-2.44254">
        <ele>55.6</ele>
        <time>2021-05-29 13:33:50</time>
      </trkpt>
      <trkpt lat="43.33184" lon="-2.44267">
        <ele>55.6</ele>
        <time>2021-05-29 13:33:51</time>
      </trkpt>
      <trkpt lat="43.33184" lon="-2.4428">
        <ele>55.8</ele>
        <time>2021-05-29 13:33:52</time>
      </trkpt>
      <trkpt lat="43.33182" lon="-2.44292">
        <ele>55.8</ele>
        <time>2021-05-29 13:33:53</time>
      </trkpt>
      <trkpt lat="43.3318" lon="-2.44304">
        <ele>55.8</ele>
        <time>2021-05-29 13:33:54</time>
      </trkpt>
      <trkpt lat="43.33177" lon="-2.44315">
        <ele>55.8</ele>
        <time>2021-05-29 13:33:55</time>
      </trkpt>
      <trkpt lat="43.33172" lon="-2.44325">
        <ele>56</ele>
        <time>2021-05-29 13:33:56</time>
      </trkpt>
      <trkpt lat="43.33166" lon="-2.44335">
        <ele>56</ele>
        <time>2021-05-29 13:33:57</time>
      </trkpt>
      <trkpt lat="43.33159" lon="-2.44344">
        <ele>56</ele>
        <time>2021-05-29 13:33:58</time>
      </trkpt>
      <trkpt lat="43.33153" lon="-2.44354">
        <ele>56</ele>
        <time>2021-05-29 13:33:59</time>
      </trkpt>
      <trkpt lat="43.33147" lon="-2.44364">
        <ele>56</ele>
        <time>2021-05-29 13:34:00</time>
      </trkpt>
      <trkpt lat="43.33142" lon="-2.44374">
        <ele>56</ele>
        <time>2021-05-29 13:34:01</time>
      </trkpt>
      <trkpt lat="43.33137" lon="-2.44385">
        <ele>56</ele>
        <time>2021-05-29 13:34:02</time>
      </trkpt>
      <trkpt lat="43.33132" lon="-2.44396">
        <ele>56</ele>
        <time>2021-05-29 13:34:03</time>
      </trkpt>
      <trkpt lat="43.33128" lon="-2.44407">
        <ele>56</ele>
        <time>2021-05-29 13:34:04</time>
      </trkpt>
      <trkpt lat="43.33124" lon="-2.44417">
        <ele>56</ele>
        <time>2021-05-29 13:34:05</time>
      </trkpt>
      <trkpt lat="43.3312" lon="-2.44427">
        <ele>56.2</ele>
        <time>2021-05-29 13:34:06</time>
      </trkpt>
      <trkpt lat="43.33114" lon="-2.44438">
        <ele>56.2</ele>
        <time>2021-05-29 13:34:07</time>
      </trkpt>
      <trkpt lat="43.33112" lon="-2.44448">
        <ele>56.4</ele>
        <time>2021-05-29 13:34:08</time>
      </trkpt>
      <trkpt lat="43.33111" lon="-2.44459">
        <ele>56.4</ele>
        <time>2021-05-29 13:34:09</time>
      </trkpt>
      <trkpt lat="43.33111" lon="-2.4447">
        <ele>56.6</ele>
        <time>2021-05-29 13:34:10</time>
      </trkpt>
      <trkpt lat="43.33115" lon="-2.44479">
        <ele>56.8</ele>
        <time>2021-05-29 13:34:11</time>
      </trkpt>
      <trkpt lat="43.33119" lon="-2.44486">
        <ele>57.2</ele>
        <time>2021-05-29 13:34:12</time>
      </trkpt>
      <trkpt lat="43.33125" lon="-2.44489">
        <ele>57.6</ele>
        <time>2021-05-29 13:34:13</time>
      </trkpt>
      <trkpt lat="43.33131" lon="-2.44491">
        <ele>57.8</ele>
        <time>2021-05-29 13:34:14</time>
      </trkpt>
      <trkpt lat="43.33137" lon="-2.44492">
        <ele>58.2</ele>
        <time>2021-05-29 13:34:15</time>
      </trkpt>
      <trkpt lat="43.33142" lon="-2.44492">
        <ele>58.4</ele>
        <time>2021-05-29 13:34:16</time>
      </trkpt>
      <trkpt lat="43.33148" lon="-2.44491">
        <ele>58.6</ele>
        <time>2021-05-29 13:34:17</time>
      </trkpt>
      <trkpt lat="43.33154" lon="-2.4449">
        <ele>58.6</ele>
        <time>2021-05-29 13:34:18</time>
      </trkpt>
      <trkpt lat="43.33159" lon="-2.44489">
        <ele>59.2</ele>
        <time>2021-05-29 13:34:19</time>
      </trkpt>
      <trkpt lat="43.33165" lon="-2.44487">
        <ele>59.6</ele>
        <time>2021-05-29 13:34:20</time>
      </trkpt>
      <trkpt lat="43.33171" lon="-2.44484">
        <ele>59.8</ele>
        <time>2021-05-29 13:34:21</time>
      </trkpt>
      <trkpt lat="43.33177" lon="-2.44483">
        <ele>60.2</ele>
        <time>2021-05-29 13:34:22</time>
      </trkpt>
      <trkpt lat="43.33183" lon="-2.44483">
        <ele>60.6</ele>
        <time>2021-05-29 13:34:23</time>
      </trkpt>
      <trkpt lat="43.33188" lon="-2.44485">
        <ele>60.8</ele>
        <time>2021-05-29 13:34:24</time>
      </trkpt>
      <trkpt lat="43.33195" lon="-2.44489">
        <ele>61.2</ele>
        <time>2021-05-29 13:34:25</time>
      </trkpt>
      <trkpt lat="43.33203" lon="-2.44493">
        <ele>61.4</ele>
        <time>2021-05-29 13:34:26</time>
      </trkpt>
      <trkpt lat="43.33209" lon="-2.44498">
        <ele>61.8</ele>
        <time>2021-05-29 13:34:27</time>
      </trkpt>
      <trkpt lat="43.33211" lon="-2.44507">
        <ele>62</ele>
        <time>2021-05-29 13:34:28</time>
      </trkpt>
      <trkpt lat="43.33214" lon="-2.44516">
        <ele>62.6</ele>
        <time>2021-05-29 13:34:29</time>
      </trkpt>
      <trkpt lat="43.33216" lon="-2.44525">
        <ele>62.8</ele>
        <time>2021-05-29 13:34:30</time>
      </trkpt>
      <trkpt lat="43.33218" lon="-2.44534">
        <ele>63</ele>
        <time>2021-05-29 13:34:31</time>
      </trkpt>
      <trkpt lat="43.3322" lon="-2.44544">
        <ele>63</ele>
        <time>2021-05-29 13:34:32</time>
      </trkpt>
      <trkpt lat="43.33222" lon="-2.44554">
        <ele>63.2</ele>
        <time>2021-05-29 13:34:33</time>
      </trkpt>
      <trkpt lat="43.33224" lon="-2.44564">
        <ele>63.2</ele>
        <time>2021-05-29 13:34:34</time>
      </trkpt>
      <trkpt lat="43.33226" lon="-2.44574">
        <ele>63.2</ele>
        <time>2021-05-29 13:34:35</time>
      </trkpt>
      <trkpt lat="43.33228" lon="-2.44585">
        <ele>63.2</ele>
        <time>2021-05-29 13:34:36</time>
      </trkpt>
      <trkpt lat="43.3323" lon="-2.44595">
        <ele>63.2</ele>
        <time>2021-05-29 13:34:37</time>
      </trkpt>
      <trkpt lat="43.33232" lon="-2.44605">
        <ele>63.2</ele>
        <time>2021-05-29 13:34:38</time>
      </trkpt>
      <trkpt lat="43.33234" lon="-2.44615">
        <ele>63.2</ele>
        <time>2021-05-29 13:34:39</time>
      </trkpt>
      <trkpt lat="43.33237" lon="-2.44625">
        <ele>63.2</ele>
        <time>2021-05-29 13:34:40</time>
      </trkpt>
      <trkpt lat="43.3324" lon="-2.44635">
        <ele>63</ele>
        <time>2021-05-29 13:34:41</time>
      </trkpt>
      <trkpt lat="43.33243" lon="-2.44644">
        <ele>63</ele>
        <time>2021-05-29 13:34:42</time>
      </trkpt>
      <trkpt lat="43.33247" lon="-2.44654">
        <ele>63</ele>
        <time>2021-05-29 13:34:43</time>
      </trkpt>
      <trkpt lat="43.33251" lon="-2.44663">
        <ele>63</ele>
        <time>2021-05-29 13:34:44</time>
      </trkpt>
      <trkpt lat="43.33256" lon="-2.44672">
        <ele>63.2</ele>
        <time>2021-05-29 13:34:45</time>
      </trkpt>
      <trkpt lat="43.33261" lon="-2.44681">
        <ele>63.2</ele>
        <time>2021-05-29 13:34:46</time>
      </trkpt>
      <trkpt lat="43.33266" lon="-2.44691">
        <ele>63.2</ele>
        <time>2021-05-29 13:34:47</time>
      </trkpt>
      <trkpt lat="43.33271" lon="-2.447">
        <ele>63.2</ele>
        <time>2021-05-29 13:34:48</time>
      </trkpt>
      <trkpt lat="43.33275" lon="-2.44709">
        <ele>63.2</ele>
        <time>2021-05-29 13:34:49</time>
      </trkpt>
      <trkpt lat="43.33279" lon="-2.44718">
        <ele>63.2</ele>
        <time>2021-05-29 13:34:50</time>
      </trkpt>
      <trkpt lat="43.33282" lon="-2.44728">
        <ele>63.2</ele>
        <time>2021-05-29 13:34:51</time>
      </trkpt>
      <trkpt lat="43.33286" lon="-2.44739">
        <ele>62.8</ele>
        <time>2021-05-29 13:34:52</time>
      </trkpt>
      <trkpt lat="43.33291" lon="-2.4475">
        <ele>63</ele>
        <time>2021-05-29 13:34:53</time>
      </trkpt>
      <trkpt lat="43.33295" lon="-2.44761">
        <ele>63</ele>
        <time>2021-05-29 13:34:54</time>
      </trkpt>
      <trkpt lat="43.33299" lon="-2.44771">
        <ele>62.8</ele>
        <time>2021-05-29 13:34:55</time>
      </trkpt>
      <trkpt lat="43.33304" lon="-2.44782">
        <ele>62.8</ele>
        <time>2021-05-29 13:34:56</time>
      </trkpt>
      <trkpt lat="43.33308" lon="-2.44793">
        <ele>62.6</ele>
        <time>2021-05-29 13:34:57</time>
      </trkpt>
      <trkpt lat="43.33312" lon="-2.44805">
        <ele>62.4</ele>
        <time>2021-05-29 13:34:58</time>
      </trkpt>
      <trkpt lat="43.33315" lon="-2.44816">
        <ele>62.2</ele>
        <time>2021-05-29 13:34:59</time>
      </trkpt>
      <trkpt lat="43.33317" lon="-2.44829">
        <ele>62.2</ele>
        <time>2021-05-29 13:35:00</time>
      </trkpt>
      <trkpt lat="43.33317" lon="-2.44842">
        <ele>62</ele>
        <time>2021-05-29 13:35:01</time>
      </trkpt>
      <trkpt lat="43.33316" lon="-2.44854">
        <ele>61.8</ele>
        <time>2021-05-29 13:35:02</time>
      </trkpt>
      <trkpt lat="43.33315" lon="-2.44866">
        <ele>61.6</ele>
        <time>2021-05-29 13:35:03</time>
      </trkpt>
      <trkpt lat="43.33314" lon="-2.44879">
        <ele>61.4</ele>
        <time>2021-05-29 13:35:04</time>
      </trkpt>
      <trkpt lat="43.33313" lon="-2.4489">
        <ele>61.2</ele>
        <time>2021-05-29 13:35:05</time>
      </trkpt>
      <trkpt lat="43.33313" lon="-2.44901">
        <ele>61.2</ele>
        <time>2021-05-29 13:35:06</time>
      </trkpt>
      <trkpt lat="43.33314" lon="-2.44913">
        <ele>61.2</ele>
        <time>2021-05-29 13:35:07</time>
      </trkpt>
      <trkpt lat="43.33314" lon="-2.44925">
        <ele>61</ele>
        <time>2021-05-29 13:35:08</time>
      </trkpt>
      <trkpt lat="43.33315" lon="-2.44937">
        <ele>61</ele>
        <time>2021-05-29 13:35:09</time>
      </trkpt>
      <trkpt lat="43.33314" lon="-2.4495">
        <ele>60.8</ele>
        <time>2021-05-29 13:35:10</time>
      </trkpt>
      <trkpt lat="43.33311" lon="-2.44962">
        <ele>60.8</ele>
        <time>2021-05-29 13:35:11</time>
      </trkpt>
      <trkpt lat="43.33307" lon="-2.44972">
        <ele>60.8</ele>
        <time>2021-05-29 13:35:12</time>
      </trkpt>
      <trkpt lat="43.33297" lon="-2.44982">
        <ele>60.8</ele>
        <time>2021-05-29 13:35:13</time>
      </trkpt>
      <trkpt lat="43.33289" lon="-2.4499">
        <ele>60.6</ele>
        <time>2021-05-29 13:35:14</time>
      </trkpt>
      <trkpt lat="43.33282" lon="-2.44998">
        <ele>60.6</ele>
        <time>2021-05-29 13:35:15</time>
      </trkpt>
      <trkpt lat="43.33274" lon="-2.45005">
        <ele>60.6</ele>
        <time>2021-05-29 13:35:16</time>
      </trkpt>
      <trkpt lat="43.33266" lon="-2.45011">
        <ele>60.6</ele>
        <time>2021-05-29 13:35:17</time>
      </trkpt>
      <trkpt lat="43.33258" lon="-2.45014">
        <ele>60.6</ele>
        <time>2021-05-29 13:35:18</time>
      </trkpt>
      <trkpt lat="43.3325" lon="-2.45015">
        <ele>60.6</ele>
        <time>2021-05-29 13:35:19</time>
      </trkpt>
      <trkpt lat="43.33244" lon="-2.45018">
        <ele>60.6</ele>
        <time>2021-05-29 13:35:20</time>
      </trkpt>
      <trkpt lat="43.33239" lon="-2.45024">
        <ele>60.8</ele>
        <time>2021-05-29 13:35:21</time>
      </trkpt>
      <trkpt lat="43.33235" lon="-2.45031">
        <ele>60.8</ele>
        <time>2021-05-29 13:35:22</time>
      </trkpt>
      <trkpt lat="43.33235" lon="-2.45041">
        <ele>60.8</ele>
        <time>2021-05-29 13:35:23</time>
      </trkpt>
      <trkpt lat="43.33236" lon="-2.4505">
        <ele>60.6</ele>
        <time>2021-05-29 13:35:24</time>
      </trkpt>
      <trkpt lat="43.3324" lon="-2.4506">
        <ele>60.6</ele>
        <time>2021-05-29 13:35:25</time>
      </trkpt>
      <trkpt lat="43.33243" lon="-2.4507">
        <ele>60.6</ele>
        <time>2021-05-29 13:35:26</time>
      </trkpt>
      <trkpt lat="43.33245" lon="-2.45081">
        <ele>60.4</ele>
        <time>2021-05-29 13:35:27</time>
      </trkpt>
      <trkpt lat="43.33247" lon="-2.45092">
        <ele>60.6</ele>
        <time>2021-05-29 13:35:28</time>
      </trkpt>
      <trkpt lat="43.33247" lon="-2.45104">
        <ele>60.2</ele>
        <time>2021-05-29 13:35:29</time>
      </trkpt>
      <trkpt lat="43.33251" lon="-2.45113">
        <ele>60.2</ele>
        <time>2021-05-29 13:35:30</time>
      </trkpt>
      <trkpt lat="43.33253" lon="-2.45124">
        <ele>60.2</ele>
        <time>2021-05-29 13:35:31</time>
      </trkpt>
      <trkpt lat="43.33257" lon="-2.45132">
        <ele>60.2</ele>
        <time>2021-05-29 13:35:32</time>
      </trkpt>
      <trkpt lat="43.33264" lon="-2.45134">
        <ele>60.2</ele>
        <time>2021-05-29 13:35:33</time>
      </trkpt>
      <trkpt lat="43.33271" lon="-2.45135">
        <ele>60.2</ele>
        <time>2021-05-29 13:35:34</time>
      </trkpt>
      <trkpt lat="43.33278" lon="-2.45135">
        <ele>60.4</ele>
        <time>2021-05-29 13:35:35</time>
      </trkpt>
      <trkpt lat="43.33285" lon="-2.45135">
        <ele>60.6</ele>
        <time>2021-05-29 13:35:36</time>
      </trkpt>
      <trkpt lat="43.33292" lon="-2.45136">
        <ele>60.6</ele>
        <time>2021-05-29 13:35:37</time>
      </trkpt>
      <trkpt lat="43.33298" lon="-2.45138">
        <ele>60.6</ele>
        <time>2021-05-29 13:35:38</time>
      </trkpt>
      <trkpt lat="43.33305" lon="-2.45141">
        <ele>60.6</ele>
        <time>2021-05-29 13:35:39</time>
      </trkpt>
      <trkpt lat="43.33312" lon="-2.45143">
        <ele>60.8</ele>
        <time>2021-05-29 13:35:40</time>
      </trkpt>
      <trkpt lat="43.33319" lon="-2.45145">
        <ele>60.8</ele>
        <time>2021-05-29 13:35:41</time>
      </trkpt>
      <trkpt lat="43.33326" lon="-2.45146">
        <ele>60.8</ele>
        <time>2021-05-29 13:35:42</time>
      </trkpt>
      <trkpt lat="43.33333" lon="-2.45148">
        <ele>60.8</ele>
        <time>2021-05-29 13:35:43</time>
      </trkpt>
      <trkpt lat="43.3334" lon="-2.45151">
        <ele>61</ele>
        <time>2021-05-29 13:35:44</time>
      </trkpt>
      <trkpt lat="43.33348" lon="-2.45155">
        <ele>61.2</ele>
        <time>2021-05-29 13:35:45</time>
      </trkpt>
      <trkpt lat="43.33355" lon="-2.45159">
        <ele>61.2</ele>
        <time>2021-05-29 13:35:46</time>
      </trkpt>
      <trkpt lat="43.33362" lon="-2.45164">
        <ele>61.2</ele>
        <time>2021-05-29 13:35:47</time>
      </trkpt>
      <trkpt lat="43.33368" lon="-2.45169">
        <ele>61.4</ele>
        <time>2021-05-29 13:35:48</time>
      </trkpt>
      <trkpt lat="43.33371" lon="-2.45179">
        <ele>61.6</ele>
        <time>2021-05-29 13:35:49</time>
      </trkpt>
      <trkpt lat="43.33374" lon="-2.45188">
        <ele>61.8</ele>
        <time>2021-05-29 13:35:50</time>
      </trkpt>
      <trkpt lat="43.33377" lon="-2.45196">
        <ele>61.8</ele>
        <time>2021-05-29 13:35:51</time>
      </trkpt>
      <trkpt lat="43.33377" lon="-2.45204">
        <ele>62</ele>
        <time>2021-05-29 13:35:52</time>
      </trkpt>
      <trkpt lat="43.33376" lon="-2.45213">
        <ele>62</ele>
        <time>2021-05-29 13:35:53</time>
      </trkpt>
      <trkpt lat="43.33376" lon="-2.45221">
        <ele>62</ele>
        <time>2021-05-29 13:35:54</time>
      </trkpt>
      <trkpt lat="43.33378" lon="-2.45231">
        <ele>62.2</ele>
        <time>2021-05-29 13:35:55</time>
      </trkpt>
      <trkpt lat="43.33381" lon="-2.4524">
        <ele>62.4</ele>
        <time>2021-05-29 13:35:56</time>
      </trkpt>
      <trkpt lat="43.33388" lon="-2.45247">
        <ele>62.6</ele>
        <time>2021-05-29 13:35:57</time>
      </trkpt>
      <trkpt lat="43.33394" lon="-2.45254">
        <ele>62.8</ele>
        <time>2021-05-29 13:35:58</time>
      </trkpt>
      <trkpt lat="43.334" lon="-2.4526">
        <ele>62.8</ele>
        <time>2021-05-29 13:35:59</time>
      </trkpt>
      <trkpt lat="43.33405" lon="-2.45268">
        <ele>63</ele>
        <time>2021-05-29 13:36:00</time>
      </trkpt>
      <trkpt lat="43.3341" lon="-2.45276">
        <ele>63</ele>
        <time>2021-05-29 13:36:01</time>
      </trkpt>
      <trkpt lat="43.33415" lon="-2.45285">
        <ele>63.2</ele>
        <time>2021-05-29 13:36:02</time>
      </trkpt>
      <trkpt lat="43.3342" lon="-2.45294">
        <ele>63.2</ele>
        <time>2021-05-29 13:36:03</time>
      </trkpt>
      <trkpt lat="43.33425" lon="-2.45302">
        <ele>63.4</ele>
        <time>2021-05-29 13:36:04</time>
      </trkpt>
      <trkpt lat="43.33431" lon="-2.45312">
        <ele>63.4</ele>
        <time>2021-05-29 13:36:05</time>
      </trkpt>
      <trkpt lat="43.33435" lon="-2.4532">
        <ele>63.6</ele>
        <time>2021-05-29 13:36:06</time>
      </trkpt>
      <trkpt lat="43.3344" lon="-2.45329">
        <ele>63.6</ele>
        <time>2021-05-29 13:36:07</time>
      </trkpt>
      <trkpt lat="43.33444" lon="-2.45337">
        <ele>64</ele>
        <time>2021-05-29 13:36:08</time>
      </trkpt>
      <trkpt lat="43.33448" lon="-2.45346">
        <ele>64</ele>
        <time>2021-05-29 13:36:09</time>
      </trkpt>
      <trkpt lat="43.33452" lon="-2.45355">
        <ele>64.2</ele>
        <time>2021-05-29 13:36:10</time>
      </trkpt>
      <trkpt lat="43.33455" lon="-2.45365">
        <ele>64.2</ele>
        <time>2021-05-29 13:36:11</time>
      </trkpt>
      <trkpt lat="43.33458" lon="-2.45375">
        <ele>64.2</ele>
        <time>2021-05-29 13:36:12</time>
      </trkpt>
      <trkpt lat="43.3346" lon="-2.45386">
        <ele>64.4</ele>
        <time>2021-05-29 13:36:13</time>
      </trkpt>
      <trkpt lat="43.33463" lon="-2.45396">
        <ele>64.4</ele>
        <time>2021-05-29 13:36:14</time>
      </trkpt>
      <trkpt lat="43.33467" lon="-2.45406">
        <ele>64.4</ele>
        <time>2021-05-29 13:36:15</time>
      </trkpt>
      <trkpt lat="43.33473" lon="-2.45414">
        <ele>64.4</ele>
        <time>2021-05-29 13:36:16</time>
      </trkpt>
      <trkpt lat="43.3348" lon="-2.4542">
        <ele>64.6</ele>
        <time>2021-05-29 13:36:17</time>
      </trkpt>
      <trkpt lat="43.33488" lon="-2.45424">
        <ele>64.6</ele>
        <time>2021-05-29 13:36:18</time>
      </trkpt>
      <trkpt lat="43.33495" lon="-2.45429">
        <ele>64.6</ele>
        <time>2021-05-29 13:36:19</time>
      </trkpt>
      <trkpt lat="43.33502" lon="-2.45433">
        <ele>64.8</ele>
        <time>2021-05-29 13:36:20</time>
      </trkpt>
      <trkpt lat="43.33507" lon="-2.4544">
        <ele>65</ele>
        <time>2021-05-29 13:36:21</time>
      </trkpt>
      <trkpt lat="43.33514" lon="-2.45446">
        <ele>65.2</ele>
        <time>2021-05-29 13:36:22</time>
      </trkpt>
      <trkpt lat="43.3352" lon="-2.45453">
        <ele>65.2</ele>
        <time>2021-05-29 13:36:23</time>
      </trkpt>
      <trkpt lat="43.33526" lon="-2.45461">
        <ele>65.2</ele>
        <time>2021-05-29 13:36:24</time>
      </trkpt>
      <trkpt lat="43.33532" lon="-2.45469">
        <ele>65.4</ele>
        <time>2021-05-29 13:36:25</time>
      </trkpt>
      <trkpt lat="43.33538" lon="-2.45478">
        <ele>65.4</ele>
        <time>2021-05-29 13:36:26</time>
      </trkpt>
      <trkpt lat="43.33544" lon="-2.45487">
        <ele>65.4</ele>
        <time>2021-05-29 13:36:27</time>
      </trkpt>
      <trkpt lat="43.33549" lon="-2.45497">
        <ele>65.4</ele>
        <time>2021-05-29 13:36:28</time>
      </trkpt>
      <trkpt lat="43.33554" lon="-2.45506">
        <ele>65.4</ele>
        <time>2021-05-29 13:36:29</time>
      </trkpt>
      <trkpt lat="43.3356" lon="-2.45515">
        <ele>65.2</ele>
        <time>2021-05-29 13:36:30</time>
      </trkpt>
      <trkpt lat="43.33565" lon="-2.45525">
        <ele>65.2</ele>
        <time>2021-05-29 13:36:31</time>
      </trkpt>
      <trkpt lat="43.3357" lon="-2.45534">
        <ele>65.2</ele>
        <time>2021-05-29 13:36:32</time>
      </trkpt>
      <trkpt lat="43.33573" lon="-2.45544">
        <ele>65.2</ele>
        <time>2021-05-29 13:36:33</time>
      </trkpt>
      <trkpt lat="43.33575" lon="-2.45554">
        <ele>65.2</ele>
        <time>2021-05-29 13:36:34</time>
      </trkpt>
      <trkpt lat="43.33575" lon="-2.45564">
        <ele>65.2</ele>
        <time>2021-05-29 13:36:35</time>
      </trkpt>
      <trkpt lat="43.33571" lon="-2.45573">
        <ele>65</ele>
        <time>2021-05-29 13:36:36</time>
      </trkpt>
      <trkpt lat="43.33564" lon="-2.45581">
        <ele>64.8</ele>
        <time>2021-05-29 13:36:37</time>
      </trkpt>
      <trkpt lat="43.33557" lon="-2.45586">
        <ele>64.6</ele>
        <time>2021-05-29 13:36:38</time>
      </trkpt>
      <trkpt lat="43.3355" lon="-2.4559">
        <ele>64.4</ele>
        <time>2021-05-29 13:36:39</time>
      </trkpt>
      <trkpt lat="43.33542" lon="-2.45593">
        <ele>64.6</ele>
        <time>2021-05-29 13:36:40</time>
      </trkpt>
      <trkpt lat="43.33536" lon="-2.45599">
        <ele>64.4</ele>
        <time>2021-05-29 13:36:41</time>
      </trkpt>
      <trkpt lat="43.3353" lon="-2.45608">
        <ele>64.4</ele>
        <time>2021-05-29 13:36:42</time>
      </trkpt>
      <trkpt lat="43.33526" lon="-2.45619">
        <ele>64.4</ele>
        <time>2021-05-29 13:36:43</time>
      </trkpt>
      <trkpt lat="43.33525" lon="-2.45631">
        <ele>64.2</ele>
        <time>2021-05-29 13:36:44</time>
      </trkpt>
      <trkpt lat="43.33525" lon="-2.45644">
        <ele>64.2</ele>
        <time>2021-05-29 13:36:45</time>
      </trkpt>
      <trkpt lat="43.33527" lon="-2.45656">
        <ele>64</ele>
        <time>2021-05-29 13:36:46</time>
      </trkpt>
      <trkpt lat="43.33529" lon="-2.45671">
        <ele>64</ele>
        <time>2021-05-29 13:36:47</time>
      </trkpt>
      <trkpt lat="43.33529" lon="-2.45684">
        <ele>63.8</ele>
        <time>2021-05-29 13:36:48</time>
      </trkpt>
      <trkpt lat="43.33529" lon="-2.45696">
        <ele>63.8</ele>
        <time>2021-05-29 13:36:49</time>
      </trkpt>
      <trkpt lat="43.33528" lon="-2.45708">
        <ele>63.6</ele>
        <time>2021-05-29 13:36:50</time>
      </trkpt>
      <trkpt lat="43.33527" lon="-2.45721">
        <ele>63.4</ele>
        <time>2021-05-29 13:36:51</time>
      </trkpt>
      <trkpt lat="43.33523" lon="-2.45733">
        <ele>63.4</ele>
        <time>2021-05-29 13:36:52</time>
      </trkpt>
      <trkpt lat="43.3352" lon="-2.45745">
        <ele>63.4</ele>
        <time>2021-05-29 13:36:53</time>
      </trkpt>
      <trkpt lat="43.33518" lon="-2.45758">
        <ele>63.2</ele>
        <time>2021-05-29 13:36:54</time>
      </trkpt>
      <trkpt lat="43.33516" lon="-2.45772">
        <ele>63</ele>
        <time>2021-05-29 13:36:55</time>
      </trkpt>
      <trkpt lat="43.33514" lon="-2.45785">
        <ele>62.8</ele>
        <time>2021-05-29 13:36:56</time>
      </trkpt>
      <trkpt lat="43.33511" lon="-2.45798">
        <ele>62.6</ele>
        <time>2021-05-29 13:36:57</time>
      </trkpt>
      <trkpt lat="43.33508" lon="-2.45809">
        <ele>62.4</ele>
        <time>2021-05-29 13:36:58</time>
      </trkpt>
      <trkpt lat="43.335" lon="-2.45818">
        <ele>61.4</ele>
        <time>2021-05-29 13:36:59</time>
      </trkpt>
      <trkpt lat="43.33493" lon="-2.45825">
        <ele>61.2</ele>
        <time>2021-05-29 13:37:00</time>
      </trkpt>
      <trkpt lat="43.33484" lon="-2.45832">
        <ele>60.8</ele>
        <time>2021-05-29 13:37:01</time>
      </trkpt>
      <trkpt lat="43.33475" lon="-2.45837">
        <ele>60.4</ele>
        <time>2021-05-29 13:37:02</time>
      </trkpt>
      <trkpt lat="43.33468" lon="-2.45845">
        <ele>60</ele>
        <time>2021-05-29 13:37:03</time>
      </trkpt>
      <trkpt lat="43.33464" lon="-2.45856">
        <ele>59.8</ele>
        <time>2021-05-29 13:37:04</time>
      </trkpt>
      <trkpt lat="43.33463" lon="-2.4587">
        <ele>59.6</ele>
        <time>2021-05-29 13:37:05</time>
      </trkpt>
      <trkpt lat="43.33463" lon="-2.45884">
        <ele>59.4</ele>
        <time>2021-05-29 13:37:06</time>
      </trkpt>
      <trkpt lat="43.33465" lon="-2.45898">
        <ele>59</ele>
        <time>2021-05-29 13:37:07</time>
      </trkpt>
      <trkpt lat="43.33467" lon="-2.45912">
        <ele>59</ele>
        <time>2021-05-29 13:37:08</time>
      </trkpt>
      <trkpt lat="43.3347" lon="-2.45926">
        <ele>58.4</ele>
        <time>2021-05-29 13:37:09</time>
      </trkpt>
      <trkpt lat="43.33472" lon="-2.45939">
        <ele>57.8</ele>
        <time>2021-05-29 13:37:10</time>
      </trkpt>
      <trkpt lat="43.33472" lon="-2.45951">
        <ele>57.2</ele>
        <time>2021-05-29 13:37:11</time>
      </trkpt>
      <trkpt lat="43.33471" lon="-2.45964">
        <ele>56.8</ele>
        <time>2021-05-29 13:37:12</time>
      </trkpt>
      <trkpt lat="43.3347" lon="-2.45975">
        <ele>56.2</ele>
        <time>2021-05-29 13:37:13</time>
      </trkpt>
      <trkpt lat="43.33468" lon="-2.45984">
        <ele>55.8</ele>
        <time>2021-05-29 13:37:14</time>
      </trkpt>
      <trkpt lat="43.33463" lon="-2.45993">
        <ele>55.2</ele>
        <time>2021-05-29 13:37:15</time>
      </trkpt>
      <trkpt lat="43.33457" lon="-2.46001">
        <ele>54.6</ele>
        <time>2021-05-29 13:37:16</time>
      </trkpt>
      <trkpt lat="43.3345" lon="-2.46005">
        <ele>54</ele>
        <time>2021-05-29 13:37:17</time>
      </trkpt>
      <trkpt lat="43.33443" lon="-2.46007">
        <ele>53.2</ele>
        <time>2021-05-29 13:37:18</time>
      </trkpt>
      <trkpt lat="43.33435" lon="-2.46004">
        <ele>52.6</ele>
        <time>2021-05-29 13:37:19</time>
      </trkpt>
      <trkpt lat="43.33428" lon="-2.45997">
        <ele>51.8</ele>
        <time>2021-05-29 13:37:20</time>
      </trkpt>
      <trkpt lat="43.33423" lon="-2.45986">
        <ele>51.2</ele>
        <time>2021-05-29 13:37:21</time>
      </trkpt>
      <trkpt lat="43.33418" lon="-2.45974">
        <ele>50.8</ele>
        <time>2021-05-29 13:37:22</time>
      </trkpt>
      <trkpt lat="43.33412" lon="-2.45965">
        <ele>50.4</ele>
        <time>2021-05-29 13:37:23</time>
      </trkpt>
      <trkpt lat="43.33406" lon="-2.45956">
        <ele>50</ele>
        <time>2021-05-29 13:37:24</time>
      </trkpt>
      <trkpt lat="43.33399" lon="-2.45955">
        <ele>49.6</ele>
        <time>2021-05-29 13:37:25</time>
      </trkpt>
      <trkpt lat="43.33392" lon="-2.45957">
        <ele>49.2</ele>
        <time>2021-05-29 13:37:26</time>
      </trkpt>
      <trkpt lat="43.33386" lon="-2.45963">
        <ele>49.2</ele>
        <time>2021-05-29 13:37:27</time>
      </trkpt>
      <trkpt lat="43.33382" lon="-2.45974">
        <ele>48.6</ele>
        <time>2021-05-29 13:37:28</time>
      </trkpt>
      <trkpt lat="43.3338" lon="-2.45988">
        <ele>48</ele>
        <time>2021-05-29 13:37:29</time>
      </trkpt>
      <trkpt lat="43.33384" lon="-2.46004">
        <ele>47.6</ele>
        <time>2021-05-29 13:37:30</time>
      </trkpt>
      <trkpt lat="43.33389" lon="-2.46019">
        <ele>47.4</ele>
        <time>2021-05-29 13:37:31</time>
      </trkpt>
      <trkpt lat="43.33397" lon="-2.46031">
        <ele>47.2</ele>
        <time>2021-05-29 13:37:32</time>
      </trkpt>
      <trkpt lat="43.33405" lon="-2.46041">
        <ele>46.2</ele>
        <time>2021-05-29 13:37:33</time>
      </trkpt>
      <trkpt lat="43.33413" lon="-2.4605">
        <ele>45.8</ele>
        <time>2021-05-29 13:37:34</time>
      </trkpt>
      <trkpt lat="43.33421" lon="-2.46059">
        <ele>45.6</ele>
        <time>2021-05-29 13:37:35</time>
      </trkpt>
      <trkpt lat="43.33427" lon="-2.4607">
        <ele>45</ele>
        <time>2021-05-29 13:37:36</time>
      </trkpt>
      <trkpt lat="43.33432" lon="-2.46082">
        <ele>44.8</ele>
        <time>2021-05-29 13:37:37</time>
      </trkpt>
      <trkpt lat="43.33436" lon="-2.46095">
        <ele>44.4</ele>
        <time>2021-05-29 13:37:38</time>
      </trkpt>
      <trkpt lat="43.33438" lon="-2.46108">
        <ele>44</ele>
        <time>2021-05-29 13:37:39</time>
      </trkpt>
      <trkpt lat="43.33437" lon="-2.46122">
        <ele>43.6</ele>
        <time>2021-05-29 13:37:40</time>
      </trkpt>
      <trkpt lat="43.33433" lon="-2.46134">
        <ele>42.8</ele>
        <time>2021-05-29 13:37:41</time>
      </trkpt>
      <trkpt lat="43.33429" lon="-2.46145">
        <ele>42.2</ele>
        <time>2021-05-29 13:37:42</time>
      </trkpt>
      <trkpt lat="43.33427" lon="-2.46156">
        <ele>41.6</ele>
        <time>2021-05-29 13:37:43</time>
      </trkpt>
      <trkpt lat="43.33428" lon="-2.46166">
        <ele>40.8</ele>
        <time>2021-05-29 13:37:44</time>
      </trkpt>
      <trkpt lat="43.33432" lon="-2.46177">
        <ele>40.2</ele>
        <time>2021-05-29 13:37:45</time>
      </trkpt>
      <trkpt lat="43.33436" lon="-2.46186">
        <ele>40</ele>
        <time>2021-05-29 13:37:46</time>
      </trkpt>
      <trkpt lat="43.33443" lon="-2.4619">
        <ele>39.4</ele>
        <time>2021-05-29 13:37:47</time>
      </trkpt>
      <trkpt lat="43.33453" lon="-2.4619">
        <ele>38.8</ele>
        <time>2021-05-29 13:37:48</time>
      </trkpt>
      <trkpt lat="43.33462" lon="-2.46189">
        <ele>38.2</ele>
        <time>2021-05-29 13:37:49</time>
      </trkpt>
      <trkpt lat="43.3347" lon="-2.46189">
        <ele>37.6</ele>
        <time>2021-05-29 13:37:50</time>
      </trkpt>
      <trkpt lat="43.33477" lon="-2.46193">
        <ele>37.2</ele>
        <time>2021-05-29 13:37:51</time>
      </trkpt>
      <trkpt lat="43.33485" lon="-2.46197">
        <ele>36.8</ele>
        <time>2021-05-29 13:37:52</time>
      </trkpt>
      <trkpt lat="43.33491" lon="-2.46203">
        <ele>36.6</ele>
        <time>2021-05-29 13:37:53</time>
      </trkpt>
      <trkpt lat="43.33498" lon="-2.4621">
        <ele>36.4</ele>
        <time>2021-05-29 13:37:54</time>
      </trkpt>
      <trkpt lat="43.33505" lon="-2.46217">
        <ele>36.2</ele>
        <time>2021-05-29 13:37:55</time>
      </trkpt>
      <trkpt lat="43.33514" lon="-2.46225">
        <ele>36.2</ele>
        <time>2021-05-29 13:37:56</time>
      </trkpt>
      <trkpt lat="43.33522" lon="-2.46233">
        <ele>36</ele>
        <time>2021-05-29 13:37:57</time>
      </trkpt>
      <trkpt lat="43.3353" lon="-2.46242">
        <ele>36</ele>
        <time>2021-05-29 13:37:58</time>
      </trkpt>
      <trkpt lat="43.33537" lon="-2.46253">
        <ele>36</ele>
        <time>2021-05-29 13:37:59</time>
      </trkpt>
      <trkpt lat="43.33543" lon="-2.46263">
        <ele>35.8</ele>
        <time>2021-05-29 13:38:00</time>
      </trkpt>
      <trkpt lat="43.3355" lon="-2.46271">
        <ele>35.6</ele>
        <time>2021-05-29 13:38:01</time>
      </trkpt>
      <trkpt lat="43.33558" lon="-2.46277">
        <ele>35.6</ele>
        <time>2021-05-29 13:38:02</time>
      </trkpt>
      <trkpt lat="43.33568" lon="-2.46281">
        <ele>35.2</ele>
        <time>2021-05-29 13:38:03</time>
      </trkpt>
      <trkpt lat="43.33578" lon="-2.46286">
        <ele>35</ele>
        <time>2021-05-29 13:38:04</time>
      </trkpt>
      <trkpt lat="43.33588" lon="-2.46292">
        <ele>34.6</ele>
        <time>2021-05-29 13:38:05</time>
      </trkpt>
      <trkpt lat="43.33598" lon="-2.463">
        <ele>34.4</ele>
        <time>2021-05-29 13:38:06</time>
      </trkpt>
      <trkpt lat="43.33607" lon="-2.46311">
        <ele>33.8</ele>
        <time>2021-05-29 13:38:07</time>
      </trkpt>
      <trkpt lat="43.33617" lon="-2.46322">
        <ele>33</ele>
        <time>2021-05-29 13:38:08</time>
      </trkpt>
      <trkpt lat="43.33626" lon="-2.46335">
        <ele>32.4</ele>
        <time>2021-05-29 13:38:09</time>
      </trkpt>
      <trkpt lat="43.33635" lon="-2.46347">
        <ele>32.2</ele>
        <time>2021-05-29 13:38:10</time>
      </trkpt>
      <trkpt lat="43.33643" lon="-2.4636">
        <ele>31.6</ele>
        <time>2021-05-29 13:38:11</time>
      </trkpt>
      <trkpt lat="43.33652" lon="-2.46372">
        <ele>31.2</ele>
        <time>2021-05-29 13:38:12</time>
      </trkpt>
      <trkpt lat="43.33661" lon="-2.46383">
        <ele>30.8</ele>
        <time>2021-05-29 13:38:13</time>
      </trkpt>
      <trkpt lat="43.3367" lon="-2.46393">
        <ele>30.2</ele>
        <time>2021-05-29 13:38:14</time>
      </trkpt>
      <trkpt lat="43.33681" lon="-2.46401">
        <ele>29.8</ele>
        <time>2021-05-29 13:38:15</time>
      </trkpt>
      <trkpt lat="43.33691" lon="-2.46409">
        <ele>29.2</ele>
        <time>2021-05-29 13:38:16</time>
      </trkpt>
      <trkpt lat="43.33702" lon="-2.46417">
        <ele>28.8</ele>
        <time>2021-05-29 13:38:17</time>
      </trkpt>
      <trkpt lat="43.33712" lon="-2.46424">
        <ele>28.2</ele>
        <time>2021-05-29 13:38:18</time>
      </trkpt>
      <trkpt lat="43.33723" lon="-2.46431">
        <ele>27.4</ele>
        <time>2021-05-29 13:38:19</time>
      </trkpt>
      <trkpt lat="43.33733" lon="-2.46438">
        <ele>26.8</ele>
        <time>2021-05-29 13:38:20</time>
      </trkpt>
      <trkpt lat="43.33743" lon="-2.46443">
        <ele>26.2</ele>
        <time>2021-05-29 13:38:21</time>
      </trkpt>
      <trkpt lat="43.33753" lon="-2.46449">
        <ele>26</ele>
        <time>2021-05-29 13:38:22</time>
      </trkpt>
      <trkpt lat="43.33765" lon="-2.46451">
        <ele>25.2</ele>
        <time>2021-05-29 13:38:23</time>
      </trkpt>
      <trkpt lat="43.33773" lon="-2.4646">
        <ele>24.8</ele>
        <time>2021-05-29 13:38:24</time>
      </trkpt>
      <trkpt lat="43.33781" lon="-2.46467">
        <ele>24</ele>
        <time>2021-05-29 13:38:25</time>
      </trkpt>
      <trkpt lat="43.33786" lon="-2.46478">
        <ele>23.2</ele>
        <time>2021-05-29 13:38:26</time>
      </trkpt>
      <trkpt lat="43.33787" lon="-2.4649">
        <ele>22.6</ele>
        <time>2021-05-29 13:38:27</time>
      </trkpt>
      <trkpt lat="43.33785" lon="-2.46501">
        <ele>22.2</ele>
        <time>2021-05-29 13:38:28</time>
      </trkpt>
      <trkpt lat="43.33781" lon="-2.46511">
        <ele>21.8</ele>
        <time>2021-05-29 13:38:29</time>
      </trkpt>
      <trkpt lat="43.33776" lon="-2.46521">
        <ele>21.2</ele>
        <time>2021-05-29 13:38:30</time>
      </trkpt>
      <trkpt lat="43.33769" lon="-2.46531">
        <ele>20.4</ele>
        <time>2021-05-29 13:38:31</time>
      </trkpt>
      <trkpt lat="43.33763" lon="-2.46541">
        <ele>20.2</ele>
        <time>2021-05-29 13:38:32</time>
      </trkpt>
      <trkpt lat="43.33754" lon="-2.4655">
        <ele>19.6</ele>
        <time>2021-05-29 13:38:33</time>
      </trkpt>
      <trkpt lat="43.33747" lon="-2.46562">
        <ele>19.2</ele>
        <time>2021-05-29 13:38:34</time>
      </trkpt>
      <trkpt lat="43.33743" lon="-2.46576">
        <ele>18.6</ele>
        <time>2021-05-29 13:38:35</time>
      </trkpt>
      <trkpt lat="43.33739" lon="-2.46591">
        <ele>17.8</ele>
        <time>2021-05-29 13:38:36</time>
      </trkpt>
      <trkpt lat="43.33734" lon="-2.46605">
        <ele>17</ele>
        <time>2021-05-29 13:38:37</time>
      </trkpt>
      <trkpt lat="43.33726" lon="-2.46618">
        <ele>16.4</ele>
        <time>2021-05-29 13:38:38</time>
      </trkpt>
      <trkpt lat="43.33713" lon="-2.46629">
        <ele>16.2</ele>
        <time>2021-05-29 13:38:39</time>
      </trkpt>
      <trkpt lat="43.33704" lon="-2.46637">
        <ele>15.8</ele>
        <time>2021-05-29 13:38:40</time>
      </trkpt>
      <trkpt lat="43.337" lon="-2.46646">
        <ele>15.4</ele>
        <time>2021-05-29 13:38:41</time>
      </trkpt>
      <trkpt lat="43.337" lon="-2.46656">
        <ele>14.6</ele>
        <time>2021-05-29 13:38:42</time>
      </trkpt>
      <trkpt lat="43.33703" lon="-2.46667">
        <ele>14</ele>
        <time>2021-05-29 13:38:43</time>
      </trkpt>
      <trkpt lat="43.33708" lon="-2.46679">
        <ele>13.8</ele>
        <time>2021-05-29 13:38:44</time>
      </trkpt>
      <trkpt lat="43.33717" lon="-2.46684">
        <ele>13.6</ele>
        <time>2021-05-29 13:38:45</time>
      </trkpt>
      <trkpt lat="43.33725" lon="-2.46689">
        <ele>13</ele>
        <time>2021-05-29 13:38:46</time>
      </trkpt>
      <trkpt lat="43.33733" lon="-2.46693">
        <ele>12.4</ele>
        <time>2021-05-29 13:38:47</time>
      </trkpt>
      <trkpt lat="43.33741" lon="-2.46698">
        <ele>12.2</ele>
        <time>2021-05-29 13:38:48</time>
      </trkpt>
      <trkpt lat="43.33747" lon="-2.46703">
        <ele>12</ele>
        <time>2021-05-29 13:38:49</time>
      </trkpt>
      <trkpt lat="43.33748" lon="-2.46715">
        <ele>11.8</ele>
        <time>2021-05-29 13:38:50</time>
      </trkpt>
      <trkpt lat="43.3375" lon="-2.46727">
        <ele>11.8</ele>
        <time>2021-05-29 13:38:51</time>
      </trkpt>
      <trkpt lat="43.33752" lon="-2.46738">
        <ele>11.8</ele>
        <time>2021-05-29 13:38:52</time>
      </trkpt>
      <trkpt lat="43.33753" lon="-2.46748">
        <ele>11.8</ele>
        <time>2021-05-29 13:38:53</time>
      </trkpt>
      <trkpt lat="43.33755" lon="-2.46759">
        <ele>11.8</ele>
        <time>2021-05-29 13:38:54</time>
      </trkpt>
      <trkpt lat="43.33758" lon="-2.46768">
        <ele>11.8</ele>
        <time>2021-05-29 13:38:55</time>
      </trkpt>
      <trkpt lat="43.33762" lon="-2.46775">
        <ele>11.8</ele>
        <time>2021-05-29 13:38:56</time>
      </trkpt>
      <trkpt lat="43.33768" lon="-2.46778">
        <ele>11.8</ele>
        <time>2021-05-29 13:38:57</time>
      </trkpt>
      <trkpt lat="43.33774" lon="-2.46776">
        <ele>11.8</ele>
        <time>2021-05-29 13:38:58</time>
      </trkpt>
      <trkpt lat="43.33777" lon="-2.46771">
        <ele>12.2</ele>
        <time>2021-05-29 13:38:59</time>
      </trkpt>
      <trkpt lat="43.33782" lon="-2.46765">
        <ele>12.4</ele>
        <time>2021-05-29 13:39:00</time>
      </trkpt>
      <trkpt lat="43.33783" lon="-2.46757">
        <ele>12.6</ele>
        <time>2021-05-29 13:39:01</time>
      </trkpt>
      <trkpt lat="43.33784" lon="-2.46749">
        <ele>12.6</ele>
        <time>2021-05-29 13:39:02</time>
      </trkpt>
      <trkpt lat="43.33784" lon="-2.46741">
        <ele>13</ele>
        <time>2021-05-29 13:39:03</time>
      </trkpt>
      <trkpt lat="43.33784" lon="-2.46731">
        <ele>13.2</ele>
        <time>2021-05-29 13:39:04</time>
      </trkpt>
      <trkpt lat="43.33784" lon="-2.46722">
        <ele>13.6</ele>
        <time>2021-05-29 13:39:05</time>
      </trkpt>
      <trkpt lat="43.33784" lon="-2.46714">
        <ele>13.6</ele>
        <time>2021-05-29 13:39:06</time>
      </trkpt>
      <trkpt lat="43.33783" lon="-2.46706">
        <ele>13.8</ele>
        <time>2021-05-29 13:39:07</time>
      </trkpt>
      <trkpt lat="43.33784" lon="-2.46698">
        <ele>14</ele>
        <time>2021-05-29 13:39:08</time>
      </trkpt>
      <trkpt lat="43.33784" lon="-2.46691">
        <ele>14.6</ele>
        <time>2021-05-29 13:39:09</time>
      </trkpt>
      <trkpt lat="43.33782" lon="-2.46685">
        <ele>14.8</ele>
        <time>2021-05-29 13:39:10</time>
      </trkpt>
      <trkpt lat="43.33782" lon="-2.46679">
        <ele>15</ele>
        <time>2021-05-29 13:39:11</time>
      </trkpt>
      <trkpt lat="43.33781" lon="-2.46672">
        <ele>15.4</ele>
        <time>2021-05-29 13:39:12</time>
      </trkpt>
      <trkpt lat="43.33779" lon="-2.46666">
        <ele>15.6</ele>
        <time>2021-05-29 13:39:13</time>
      </trkpt>
      <trkpt lat="43.3378" lon="-2.46658">
        <ele>15.8</ele>
        <time>2021-05-29 13:39:14</time>
      </trkpt>
      <trkpt lat="43.3378" lon="-2.46651">
        <ele>16</ele>
        <time>2021-05-29 13:39:15</time>
      </trkpt>
      <trkpt lat="43.33781" lon="-2.46645">
        <ele>16.4</ele>
        <time>2021-05-29 13:39:16</time>
      </trkpt>
      <trkpt lat="43.33783" lon="-2.46639">
        <ele>17.2</ele>
        <time>2021-05-29 13:39:17</time>
      </trkpt>
      <trkpt lat="43.33785" lon="-2.46634">
        <ele>17.6</ele>
        <time>2021-05-29 13:39:18</time>
      </trkpt>
      <trkpt lat="43.33788" lon="-2.46628">
        <ele>17.8</ele>
        <time>2021-05-29 13:39:19</time>
      </trkpt>
      <trkpt lat="43.3379" lon="-2.46622">
        <ele>18.2</ele>
        <time>2021-05-29 13:39:20</time>
      </trkpt>
      <trkpt lat="43.33793" lon="-2.46617">
        <ele>18.2</ele>
        <time>2021-05-29 13:39:21</time>
      </trkpt>
      <trkpt lat="43.33796" lon="-2.46612">
        <ele>18.6</ele>
        <time>2021-05-29 13:39:22</time>
      </trkpt>
      <trkpt lat="43.33799" lon="-2.46607">
        <ele>18.8</ele>
        <time>2021-05-29 13:39:23</time>
      </trkpt>
      <trkpt lat="43.33804" lon="-2.46602">
        <ele>19.2</ele>
        <time>2021-05-29 13:39:24</time>
      </trkpt>
      <trkpt lat="43.33809" lon="-2.46598">
        <ele>19.4</ele>
        <time>2021-05-29 13:39:25</time>
      </trkpt>
      <trkpt lat="43.33813" lon="-2.46594">
        <ele>19.4</ele>
        <time>2021-05-29 13:39:26</time>
      </trkpt>
      <trkpt lat="43.33817" lon="-2.4659">
        <ele>19.8</ele>
        <time>2021-05-29 13:39:27</time>
      </trkpt>
      <trkpt lat="43.3382" lon="-2.46586">
        <ele>20.2</ele>
        <time>2021-05-29 13:39:28</time>
      </trkpt>
      <trkpt lat="43.33827" lon="-2.46581">
        <ele>20.4</ele>
        <time>2021-05-29 13:39:29</time>
      </trkpt>
      <trkpt lat="43.33831" lon="-2.46577">
        <ele>20.6</ele>
        <time>2021-05-29 13:39:30</time>
      </trkpt>
      <trkpt lat="43.33835" lon="-2.46573">
        <ele>21</ele>
        <time>2021-05-29 13:39:31</time>
      </trkpt>
      <trkpt lat="43.3384" lon="-2.46568">
        <ele>21.4</ele>
        <time>2021-05-29 13:39:32</time>
      </trkpt>
      <trkpt lat="43.33845" lon="-2.46564">
        <ele>21.6</ele>
        <time>2021-05-29 13:39:33</time>
      </trkpt>
      <trkpt lat="43.33849" lon="-2.4656">
        <ele>21.8</ele>
        <time>2021-05-29 13:39:34</time>
      </trkpt>
      <trkpt lat="43.33852" lon="-2.46555">
        <ele>22</ele>
        <time>2021-05-29 13:39:35</time>
      </trkpt>
      <trkpt lat="43.33856" lon="-2.4655">
        <ele>22.2</ele>
        <time>2021-05-29 13:39:36</time>
      </trkpt>
      <trkpt lat="43.33859" lon="-2.46545">
        <ele>22.4</ele>
        <time>2021-05-29 13:39:37</time>
      </trkpt>
      <trkpt lat="43.33862" lon="-2.46539">
        <ele>22.6</ele>
        <time>2021-05-29 13:39:38</time>
      </trkpt>
      <trkpt lat="43.33864" lon="-2.46534">
        <ele>22.8</ele>
        <time>2021-05-29 13:39:39</time>
      </trkpt>
      <trkpt lat="43.33867" lon="-2.46528">
        <ele>23.4</ele>
        <time>2021-05-29 13:39:40</time>
      </trkpt>
      <trkpt lat="43.33871" lon="-2.46523">
        <ele>23.6</ele>
        <time>2021-05-29 13:39:41</time>
      </trkpt>
      <trkpt lat="43.33873" lon="-2.46517">
        <ele>23.8</ele>
        <time>2021-05-29 13:39:42</time>
      </trkpt>
      <trkpt lat="43.33877" lon="-2.46513">
        <ele>23.8</ele>
        <time>2021-05-29 13:39:43</time>
      </trkpt>
      <trkpt lat="43.33882" lon="-2.46507">
        <ele>24</ele>
        <time>2021-05-29 13:39:44</time>
      </trkpt>
      <trkpt lat="43.33887" lon="-2.46501">
        <ele>24.2</ele>
        <time>2021-05-29 13:39:45</time>
      </trkpt>
      <trkpt lat="43.3389" lon="-2.46496">
        <ele>24.4</ele>
        <time>2021-05-29 13:39:46</time>
      </trkpt>
      <trkpt lat="43.33894" lon="-2.46491">
        <ele>24.4</ele>
        <time>2021-05-29 13:39:47</time>
      </trkpt>
      <trkpt lat="43.33899" lon="-2.46488">
        <ele>24.6</ele>
        <time>2021-05-29 13:39:48</time>
      </trkpt>
      <trkpt lat="43.33903" lon="-2.46486">
        <ele>24.8</ele>
        <time>2021-05-29 13:39:49</time>
      </trkpt>
      <trkpt lat="43.33908" lon="-2.46486">
        <ele>25</ele>
        <time>2021-05-29 13:39:50</time>
      </trkpt>
      <trkpt lat="43.33913" lon="-2.46487">
        <ele>25.6</ele>
        <time>2021-05-29 13:39:51</time>
      </trkpt>
      <trkpt lat="43.33919" lon="-2.46489">
        <ele>25.8</ele>
        <time>2021-05-29 13:39:52</time>
      </trkpt>
      <trkpt lat="43.33924" lon="-2.46491">
        <ele>26</ele>
        <time>2021-05-29 13:39:53</time>
      </trkpt>
      <trkpt lat="43.3393" lon="-2.46494">
        <ele>26.4</ele>
        <time>2021-05-29 13:39:54</time>
      </trkpt>
      <trkpt lat="43.33936" lon="-2.46498">
        <ele>26.4</ele>
        <time>2021-05-29 13:39:55</time>
      </trkpt>
      <trkpt lat="43.33943" lon="-2.46501">
        <ele>26.6</ele>
        <time>2021-05-29 13:39:56</time>
      </trkpt>
      <trkpt lat="43.3395" lon="-2.46505">
        <ele>26.8</ele>
        <time>2021-05-29 13:39:57</time>
      </trkpt>
      <trkpt lat="43.33956" lon="-2.46508">
        <ele>26.8</ele>
        <time>2021-05-29 13:39:58</time>
      </trkpt>
      <trkpt lat="43.33964" lon="-2.46511">
        <ele>26.8</ele>
        <time>2021-05-29 13:39:59</time>
      </trkpt>
      <trkpt lat="43.33971" lon="-2.46515">
        <ele>26.8</ele>
        <time>2021-05-29 13:40:00</time>
      </trkpt>
      <trkpt lat="43.33979" lon="-2.4652">
        <ele>26.8</ele>
        <time>2021-05-29 13:40:01</time>
      </trkpt>
      <trkpt lat="43.33986" lon="-2.46525">
        <ele>26.8</ele>
        <time>2021-05-29 13:40:02</time>
      </trkpt>
      <trkpt lat="43.33993" lon="-2.4653">
        <ele>26.8</ele>
        <time>2021-05-29 13:40:03</time>
      </trkpt>
      <trkpt lat="43.34" lon="-2.46534">
        <ele>26.8</ele>
        <time>2021-05-29 13:40:04</time>
      </trkpt>
      <trkpt lat="43.34008" lon="-2.46538">
        <ele>26.6</ele>
        <time>2021-05-29 13:40:05</time>
      </trkpt>
      <trkpt lat="43.34016" lon="-2.46542">
        <ele>26.6</ele>
        <time>2021-05-29 13:40:06</time>
      </trkpt>
      <trkpt lat="43.34023" lon="-2.46547">
        <ele>26.4</ele>
        <time>2021-05-29 13:40:07</time>
      </trkpt>
      <trkpt lat="43.34032" lon="-2.46552">
        <ele>26.4</ele>
        <time>2021-05-29 13:40:08</time>
      </trkpt>
      <trkpt lat="43.34039" lon="-2.46557">
        <ele>26.4</ele>
        <time>2021-05-29 13:40:09</time>
      </trkpt>
      <trkpt lat="43.34047" lon="-2.46562">
        <ele>26.4</ele>
        <time>2021-05-29 13:40:10</time>
      </trkpt>
      <trkpt lat="43.34055" lon="-2.46567">
        <ele>26</ele>
        <time>2021-05-29 13:40:11</time>
      </trkpt>
      <trkpt lat="43.34064" lon="-2.46574">
        <ele>25.8</ele>
        <time>2021-05-29 13:40:12</time>
      </trkpt>
      <trkpt lat="43.34073" lon="-2.4658">
        <ele>25.8</ele>
        <time>2021-05-29 13:40:13</time>
      </trkpt>
      <trkpt lat="43.34081" lon="-2.46585">
        <ele>25.6</ele>
        <time>2021-05-29 13:40:14</time>
      </trkpt>
      <trkpt lat="43.34089" lon="-2.4659">
        <ele>25.2</ele>
        <time>2021-05-29 13:40:15</time>
      </trkpt>
      <trkpt lat="43.34097" lon="-2.46594">
        <ele>25</ele>
        <time>2021-05-29 13:40:16</time>
      </trkpt>
      <trkpt lat="43.34105" lon="-2.46599">
        <ele>24.6</ele>
        <time>2021-05-29 13:40:17</time>
      </trkpt>
      <trkpt lat="43.34112" lon="-2.46603">
        <ele>24.4</ele>
        <time>2021-05-29 13:40:18</time>
      </trkpt>
      <trkpt lat="43.3412" lon="-2.46608">
        <ele>24.4</ele>
        <time>2021-05-29 13:40:19</time>
      </trkpt>
      <trkpt lat="43.34128" lon="-2.46614">
        <ele>24.2</ele>
        <time>2021-05-29 13:40:20</time>
      </trkpt>
      <trkpt lat="43.34136" lon="-2.4662">
        <ele>23.8</ele>
        <time>2021-05-29 13:40:21</time>
      </trkpt>
      <trkpt lat="43.34143" lon="-2.46627">
        <ele>23.4</ele>
        <time>2021-05-29 13:40:22</time>
      </trkpt>
      <trkpt lat="43.3415" lon="-2.46634">
        <ele>22.8</ele>
        <time>2021-05-29 13:40:23</time>
      </trkpt>
      <trkpt lat="43.34157" lon="-2.46641">
        <ele>22.4</ele>
        <time>2021-05-29 13:40:24</time>
      </trkpt>
      <trkpt lat="43.34164" lon="-2.46649">
        <ele>22</ele>
        <time>2021-05-29 13:40:25</time>
      </trkpt>
      <trkpt lat="43.34171" lon="-2.46657">
        <ele>21.6</ele>
        <time>2021-05-29 13:40:26</time>
      </trkpt>
      <trkpt lat="43.34177" lon="-2.46665">
        <ele>21.4</ele>
        <time>2021-05-29 13:40:27</time>
      </trkpt>
      <trkpt lat="43.34183" lon="-2.46674">
        <ele>21.4</ele>
        <time>2021-05-29 13:40:28</time>
      </trkpt>
      <trkpt lat="43.34188" lon="-2.46684">
        <ele>21.2</ele>
        <time>2021-05-29 13:40:29</time>
      </trkpt>
      <trkpt lat="43.34193" lon="-2.46694">
        <ele>21</ele>
        <time>2021-05-29 13:40:30</time>
      </trkpt>
      <trkpt lat="43.34197" lon="-2.46704">
        <ele>21</ele>
        <time>2021-05-29 13:40:31</time>
      </trkpt>
      <trkpt lat="43.34201" lon="-2.46716">
        <ele>20.8</ele>
        <time>2021-05-29 13:40:32</time>
      </trkpt>
      <trkpt lat="43.34204" lon="-2.46729">
        <ele>20.6</ele>
        <time>2021-05-29 13:40:33</time>
      </trkpt>
      <trkpt lat="43.34207" lon="-2.46741">
        <ele>20.4</ele>
        <time>2021-05-29 13:40:34</time>
      </trkpt>
      <trkpt lat="43.34208" lon="-2.46751">
        <ele>20.2</ele>
        <time>2021-05-29 13:40:35</time>
      </trkpt>
      <trkpt lat="43.3421" lon="-2.46761">
        <ele>20</ele>
        <time>2021-05-29 13:40:36</time>
      </trkpt>
      <trkpt lat="43.34214" lon="-2.46769">
        <ele>19.6</ele>
        <time>2021-05-29 13:40:37</time>
      </trkpt>
      <trkpt lat="43.34218" lon="-2.46775">
        <ele>19.2</ele>
        <time>2021-05-29 13:40:38</time>
      </trkpt>
      <trkpt lat="43.34222" lon="-2.46779">
        <ele>18.8</ele>
        <time>2021-05-29 13:40:39</time>
      </trkpt>
      <trkpt lat="43.34229" lon="-2.46777">
        <ele>18.6</ele>
        <time>2021-05-29 13:40:40</time>
      </trkpt>
      <trkpt lat="43.34236" lon="-2.46774">
        <ele>18.8</ele>
        <time>2021-05-29 13:40:41</time>
      </trkpt>
      <trkpt lat="43.34239" lon="-2.46771">
        <ele>18.6</ele>
        <time>2021-05-29 13:40:42</time>
      </trkpt>
      <trkpt lat="43.34243" lon="-2.46768">
        <ele>18.4</ele>
        <time>2021-05-29 13:40:43</time>
      </trkpt>
      <trkpt lat="43.34249" lon="-2.46764">
        <ele>18.4</ele>
        <time>2021-05-29 13:40:44</time>
      </trkpt>
      <trkpt lat="43.34255" lon="-2.46762">
        <ele>18.4</ele>
        <time>2021-05-29 13:40:45</time>
      </trkpt>
      <trkpt lat="43.34265" lon="-2.46763">
        <ele>18.4</ele>
        <time>2021-05-29 13:40:46</time>
      </trkpt>
      <trkpt lat="43.34272" lon="-2.46764">
        <ele>18.4</ele>
        <time>2021-05-29 13:40:47</time>
      </trkpt>
      <trkpt lat="43.34279" lon="-2.46768">
        <ele>18.4</ele>
        <time>2021-05-29 13:40:48</time>
      </trkpt>
      <trkpt lat="43.34288" lon="-2.46773">
        <ele>18.4</ele>
        <time>2021-05-29 13:40:49</time>
      </trkpt>
      <trkpt lat="43.34296" lon="-2.46777">
        <ele>18.4</ele>
        <time>2021-05-29 13:40:50</time>
      </trkpt>
      <trkpt lat="43.34306" lon="-2.46781">
        <ele>18.4</ele>
        <time>2021-05-29 13:40:51</time>
      </trkpt>
      <trkpt lat="43.34316" lon="-2.46784">
        <ele>18.4</ele>
        <time>2021-05-29 13:40:52</time>
      </trkpt>
      <trkpt lat="43.34325" lon="-2.46788">
        <ele>18.6</ele>
        <time>2021-05-29 13:40:53</time>
      </trkpt>
      <trkpt lat="43.34335" lon="-2.46792">
        <ele>18.6</ele>
        <time>2021-05-29 13:40:54</time>
      </trkpt>
      <trkpt lat="43.34346" lon="-2.46798">
        <ele>18.6</ele>
        <time>2021-05-29 13:40:55</time>
      </trkpt>
      <trkpt lat="43.34354" lon="-2.46806">
        <ele>18.6</ele>
        <time>2021-05-29 13:40:56</time>
      </trkpt>
      <trkpt lat="43.34361" lon="-2.46812">
        <ele>18.8</ele>
        <time>2021-05-29 13:40:57</time>
      </trkpt>
      <trkpt lat="43.34369" lon="-2.46817">
        <ele>19</ele>
        <time>2021-05-29 13:40:58</time>
      </trkpt>
      <trkpt lat="43.34376" lon="-2.46823">
        <ele>19.2</ele>
        <time>2021-05-29 13:40:59</time>
      </trkpt>
      <trkpt lat="43.34385" lon="-2.46828">
        <ele>19.8</ele>
        <time>2021-05-29 13:41:00</time>
      </trkpt>
      <trkpt lat="43.34394" lon="-2.46834">
        <ele>19.8</ele>
        <time>2021-05-29 13:41:01</time>
      </trkpt>
      <trkpt lat="43.34402" lon="-2.46839">
        <ele>19.8</ele>
        <time>2021-05-29 13:41:02</time>
      </trkpt>
      <trkpt lat="43.34411" lon="-2.46844">
        <ele>20</ele>
        <time>2021-05-29 13:41:03</time>
      </trkpt>
      <trkpt lat="43.3442" lon="-2.46849">
        <ele>20</ele>
        <time>2021-05-29 13:41:04</time>
      </trkpt>
      <trkpt lat="43.34428" lon="-2.46854">
        <ele>20</ele>
        <time>2021-05-29 13:41:05</time>
      </trkpt>
      <trkpt lat="43.34436" lon="-2.46858">
        <ele>20</ele>
        <time>2021-05-29 13:41:06</time>
      </trkpt>
      <trkpt lat="43.34443" lon="-2.46863">
        <ele>20</ele>
        <time>2021-05-29 13:41:07</time>
      </trkpt>
      <trkpt lat="43.3445" lon="-2.46868">
        <ele>20.2</ele>
        <time>2021-05-29 13:41:08</time>
      </trkpt>
      <trkpt lat="43.34456" lon="-2.46875">
        <ele>20.4</ele>
        <time>2021-05-29 13:41:09</time>
      </trkpt>
      <trkpt lat="43.3446" lon="-2.46882">
        <ele>20.6</ele>
        <time>2021-05-29 13:41:10</time>
      </trkpt>
      <trkpt lat="43.34462" lon="-2.46892">
        <ele>20.8</ele>
        <time>2021-05-29 13:41:11</time>
      </trkpt>
      <trkpt lat="43.34461" lon="-2.46901">
        <ele>20.8</ele>
        <time>2021-05-29 13:41:12</time>
      </trkpt>
      <trkpt lat="43.34459" lon="-2.46911">
        <ele>20.8</ele>
        <time>2021-05-29 13:41:13</time>
      </trkpt>
      <trkpt lat="43.34455" lon="-2.46919">
        <ele>21</ele>
        <time>2021-05-29 13:41:14</time>
      </trkpt>
      <trkpt lat="43.34452" lon="-2.46927">
        <ele>21</ele>
        <time>2021-05-29 13:41:15</time>
      </trkpt>
      <trkpt lat="43.34449" lon="-2.46937">
        <ele>21</ele>
        <time>2021-05-29 13:41:16</time>
      </trkpt>
      <trkpt lat="43.3445" lon="-2.46947">
        <ele>21</ele>
        <time>2021-05-29 13:41:17</time>
      </trkpt>
      <trkpt lat="43.34453" lon="-2.46957">
        <ele>21</ele>
        <time>2021-05-29 13:41:18</time>
      </trkpt>
      <trkpt lat="43.34459" lon="-2.46964">
        <ele>21</ele>
        <time>2021-05-29 13:41:19</time>
      </trkpt>
      <trkpt lat="43.34466" lon="-2.46967">
        <ele>21</ele>
        <time>2021-05-29 13:41:20</time>
      </trkpt>
      <trkpt lat="43.34472" lon="-2.46968">
        <ele>21.2</ele>
        <time>2021-05-29 13:41:21</time>
      </trkpt>
      <trkpt lat="43.34479" lon="-2.46966">
        <ele>21.2</ele>
        <time>2021-05-29 13:41:22</time>
      </trkpt>
      <trkpt lat="43.34485" lon="-2.46964">
        <ele>21.2</ele>
        <time>2021-05-29 13:41:23</time>
      </trkpt>
      <trkpt lat="43.34491" lon="-2.46962">
        <ele>21.4</ele>
        <time>2021-05-29 13:41:24</time>
      </trkpt>
      <trkpt lat="43.34498" lon="-2.4696">
        <ele>21.4</ele>
        <time>2021-05-29 13:41:25</time>
      </trkpt>
      <trkpt lat="43.34505" lon="-2.46958">
        <ele>21.4</ele>
        <time>2021-05-29 13:41:26</time>
      </trkpt>
      <trkpt lat="43.34512" lon="-2.46959">
        <ele>21.4</ele>
        <time>2021-05-29 13:41:27</time>
      </trkpt>
      <trkpt lat="43.34519" lon="-2.46962">
        <ele>21.4</ele>
        <time>2021-05-29 13:41:28</time>
      </trkpt>
      <trkpt lat="43.34525" lon="-2.46967">
        <ele>21.4</ele>
        <time>2021-05-29 13:41:29</time>
      </trkpt>
      <trkpt lat="43.3453" lon="-2.46974">
        <ele>21.6</ele>
        <time>2021-05-29 13:41:30</time>
      </trkpt>
      <trkpt lat="43.34534" lon="-2.46982">
        <ele>21.6</ele>
        <time>2021-05-29 13:41:31</time>
      </trkpt>
      <trkpt lat="43.34538" lon="-2.4699">
        <ele>21.8</ele>
        <time>2021-05-29 13:41:32</time>
      </trkpt>
      <trkpt lat="43.3454" lon="-2.47">
        <ele>22</ele>
        <time>2021-05-29 13:41:33</time>
      </trkpt>
      <trkpt lat="43.34543" lon="-2.4701">
        <ele>22.2</ele>
        <time>2021-05-29 13:41:34</time>
      </trkpt>
      <trkpt lat="43.34546" lon="-2.47019">
        <ele>22.4</ele>
        <time>2021-05-29 13:41:35</time>
      </trkpt>
      <trkpt lat="43.34551" lon="-2.47028">
        <ele>22.4</ele>
        <time>2021-05-29 13:41:36</time>
      </trkpt>
      <trkpt lat="43.34557" lon="-2.47034">
        <ele>22.6</ele>
        <time>2021-05-29 13:41:37</time>
      </trkpt>
      <trkpt lat="43.34563" lon="-2.47038">
        <ele>22.8</ele>
        <time>2021-05-29 13:41:38</time>
      </trkpt>
      <trkpt lat="43.3457" lon="-2.47041">
        <ele>22.8</ele>
        <time>2021-05-29 13:41:39</time>
      </trkpt>
      <trkpt lat="43.34576" lon="-2.47043">
        <ele>22.8</ele>
        <time>2021-05-29 13:41:40</time>
      </trkpt>
      <trkpt lat="43.34582" lon="-2.47046">
        <ele>23</ele>
        <time>2021-05-29 13:41:41</time>
      </trkpt>
      <trkpt lat="43.34588" lon="-2.4705">
        <ele>23</ele>
        <time>2021-05-29 13:41:42</time>
      </trkpt>
      <trkpt lat="43.34594" lon="-2.47054">
        <ele>23</ele>
        <time>2021-05-29 13:41:43</time>
      </trkpt>
      <trkpt lat="43.34599" lon="-2.47059">
        <ele>23</ele>
        <time>2021-05-29 13:41:44</time>
      </trkpt>
      <trkpt lat="43.34604" lon="-2.47065">
        <ele>23</ele>
        <time>2021-05-29 13:41:45</time>
      </trkpt>
      <trkpt lat="43.34608" lon="-2.47073">
        <ele>23</ele>
        <time>2021-05-29 13:41:46</time>
      </trkpt>
      <trkpt lat="43.34612" lon="-2.47082">
        <ele>23.2</ele>
        <time>2021-05-29 13:41:47</time>
      </trkpt>
      <trkpt lat="43.34614" lon="-2.47092">
        <ele>23.4</ele>
        <time>2021-05-29 13:41:48</time>
      </trkpt>
      <trkpt lat="43.34616" lon="-2.47102">
        <ele>23.6</ele>
        <time>2021-05-29 13:41:49</time>
      </trkpt>
      <trkpt lat="43.34617" lon="-2.47113">
        <ele>23.8</ele>
        <time>2021-05-29 13:41:50</time>
      </trkpt>
      <trkpt lat="43.34619" lon="-2.47123">
        <ele>23.8</ele>
        <time>2021-05-29 13:41:51</time>
      </trkpt>
      <trkpt lat="43.34621" lon="-2.47134">
        <ele>23.8</ele>
        <time>2021-05-29 13:41:52</time>
      </trkpt>
      <trkpt lat="43.34624" lon="-2.47144">
        <ele>23.8</ele>
        <time>2021-05-29 13:41:53</time>
      </trkpt>
      <trkpt lat="43.34627" lon="-2.47154">
        <ele>23.8</ele>
        <time>2021-05-29 13:41:54</time>
      </trkpt>
      <trkpt lat="43.34632" lon="-2.47163">
        <ele>23.8</ele>
        <time>2021-05-29 13:41:55</time>
      </trkpt>
      <trkpt lat="43.34638" lon="-2.4717">
        <ele>23.8</ele>
        <time>2021-05-29 13:41:56</time>
      </trkpt>
      <trkpt lat="43.34644" lon="-2.47177">
        <ele>23.8</ele>
        <time>2021-05-29 13:41:57</time>
      </trkpt>
      <trkpt lat="43.3465" lon="-2.47184">
        <ele>23.8</ele>
        <time>2021-05-29 13:41:58</time>
      </trkpt>
      <trkpt lat="43.34656" lon="-2.47191">
        <ele>23.8</ele>
        <time>2021-05-29 13:41:59</time>
      </trkpt>
      <trkpt lat="43.34661" lon="-2.47198">
        <ele>23.6</ele>
        <time>2021-05-29 13:42:00</time>
      </trkpt>
      <trkpt lat="43.34667" lon="-2.47207">
        <ele>23.6</ele>
        <time>2021-05-29 13:42:01</time>
      </trkpt>
      <trkpt lat="43.34671" lon="-2.47215">
        <ele>23.6</ele>
        <time>2021-05-29 13:42:02</time>
      </trkpt>
      <trkpt lat="43.34677" lon="-2.47224">
        <ele>23.6</ele>
        <time>2021-05-29 13:42:03</time>
      </trkpt>
      <trkpt lat="43.34681" lon="-2.47233">
        <ele>23.6</ele>
        <time>2021-05-29 13:42:04</time>
      </trkpt>
      <trkpt lat="43.34686" lon="-2.47242">
        <ele>23.4</ele>
        <time>2021-05-29 13:42:05</time>
      </trkpt>
      <trkpt lat="43.3469" lon="-2.47252">
        <ele>23.4</ele>
        <time>2021-05-29 13:42:06</time>
      </trkpt>
      <trkpt lat="43.34696" lon="-2.47261">
        <ele>23.4</ele>
        <time>2021-05-29 13:42:07</time>
      </trkpt>
      <trkpt lat="43.34701" lon="-2.4727">
        <ele>23.4</ele>
        <time>2021-05-29 13:42:08</time>
      </trkpt>
      <trkpt lat="43.34705" lon="-2.4728">
        <ele>23.2</ele>
        <time>2021-05-29 13:42:09</time>
      </trkpt>
      <trkpt lat="43.34708" lon="-2.4729">
        <ele>23.2</ele>
        <time>2021-05-29 13:42:10</time>
      </trkpt>
      <trkpt lat="43.3471" lon="-2.473">
        <ele>23.2</ele>
        <time>2021-05-29 13:42:11</time>
      </trkpt>
      <trkpt lat="43.3471" lon="-2.47311">
        <ele>23.2</ele>
        <time>2021-05-29 13:42:12</time>
      </trkpt>
      <trkpt lat="43.3471" lon="-2.47322">
        <ele>23.2</ele>
        <time>2021-05-29 13:42:13</time>
      </trkpt>
      <trkpt lat="43.34708" lon="-2.47332">
        <ele>23.2</ele>
        <time>2021-05-29 13:42:14</time>
      </trkpt>
      <trkpt lat="43.34706" lon="-2.47342">
        <ele>23.2</ele>
        <time>2021-05-29 13:42:15</time>
      </trkpt>
      <trkpt lat="43.34704" lon="-2.47353">
        <ele>23.2</ele>
        <time>2021-05-29 13:42:16</time>
      </trkpt>
      <trkpt lat="43.34701" lon="-2.47363">
        <ele>23.2</ele>
        <time>2021-05-29 13:42:17</time>
      </trkpt>
      <trkpt lat="43.34698" lon="-2.47372">
        <ele>23.2</ele>
        <time>2021-05-29 13:42:18</time>
      </trkpt>
      <trkpt lat="43.34694" lon="-2.47382">
        <ele>23.2</ele>
        <time>2021-05-29 13:42:19</time>
      </trkpt>
      <trkpt lat="43.34691" lon="-2.47391">
        <ele>23.2</ele>
        <time>2021-05-29 13:42:20</time>
      </trkpt>
      <trkpt lat="43.34687" lon="-2.474">
        <ele>23.2</ele>
        <time>2021-05-29 13:42:21</time>
      </trkpt>
      <trkpt lat="43.34683" lon="-2.47408">
        <ele>23.2</ele>
        <time>2021-05-29 13:42:22</time>
      </trkpt>
      <trkpt lat="43.3468" lon="-2.47417">
        <ele>23.2</ele>
        <time>2021-05-29 13:42:23</time>
      </trkpt>
      <trkpt lat="43.34679" lon="-2.47426">
        <ele>23.2</ele>
        <time>2021-05-29 13:42:24</time>
      </trkpt>
      <trkpt lat="43.3468" lon="-2.47435">
        <ele>23.2</ele>
        <time>2021-05-29 13:42:25</time>
      </trkpt>
      <trkpt lat="43.34683" lon="-2.47443">
        <ele>23.4</ele>
        <time>2021-05-29 13:42:26</time>
      </trkpt>
      <trkpt lat="43.34688" lon="-2.47449">
        <ele>23.4</ele>
        <time>2021-05-29 13:42:27</time>
      </trkpt>
      <trkpt lat="43.34694" lon="-2.4745">
        <ele>23.4</ele>
        <time>2021-05-29 13:42:28</time>
      </trkpt>
      <trkpt lat="43.347" lon="-2.47449">
        <ele>23.6</ele>
        <time>2021-05-29 13:42:29</time>
      </trkpt>
      <trkpt lat="43.34707" lon="-2.47446">
        <ele>23.8</ele>
        <time>2021-05-29 13:42:30</time>
      </trkpt>
      <trkpt lat="43.34712" lon="-2.47442">
        <ele>23.8</ele>
        <time>2021-05-29 13:42:31</time>
      </trkpt>
      <trkpt lat="43.34717" lon="-2.47436">
        <ele>23.8</ele>
        <time>2021-05-29 13:42:32</time>
      </trkpt>
      <trkpt lat="43.34722" lon="-2.47428">
        <ele>24</ele>
        <time>2021-05-29 13:42:33</time>
      </trkpt>
      <trkpt lat="43.34726" lon="-2.4742">
        <ele>24.2</ele>
        <time>2021-05-29 13:42:34</time>
      </trkpt>
      <trkpt lat="43.34731" lon="-2.47412">
        <ele>24.4</ele>
        <time>2021-05-29 13:42:35</time>
      </trkpt>
      <trkpt lat="43.34734" lon="-2.47404">
        <ele>24.6</ele>
        <time>2021-05-29 13:42:36</time>
      </trkpt>
      <trkpt lat="43.34739" lon="-2.47396">
        <ele>24.6</ele>
        <time>2021-05-29 13:42:37</time>
      </trkpt>
      <trkpt lat="43.34743" lon="-2.47388">
        <ele>24.6</ele>
        <time>2021-05-29 13:42:38</time>
      </trkpt>
      <trkpt lat="43.34746" lon="-2.47381">
        <ele>24.6</ele>
        <time>2021-05-29 13:42:39</time>
      </trkpt>
      <trkpt lat="43.3475" lon="-2.47374">
        <ele>25</ele>
        <time>2021-05-29 13:42:40</time>
      </trkpt>
      <trkpt lat="43.34754" lon="-2.47367">
        <ele>25</ele>
        <time>2021-05-29 13:42:41</time>
      </trkpt>
      <trkpt lat="43.34757" lon="-2.4736">
        <ele>25.6</ele>
        <time>2021-05-29 13:42:42</time>
      </trkpt>
      <trkpt lat="43.34762" lon="-2.47353">
        <ele>26.2</ele>
        <time>2021-05-29 13:42:43</time>
      </trkpt>
      <trkpt lat="43.34767" lon="-2.47347">
        <ele>26.8</ele>
        <time>2021-05-29 13:42:44</time>
      </trkpt>
      <trkpt lat="43.34772" lon="-2.47343">
        <ele>27</ele>
        <time>2021-05-29 13:42:45</time>
      </trkpt>
      <trkpt lat="43.34778" lon="-2.47341">
        <ele>27.2</ele>
        <time>2021-05-29 13:42:46</time>
      </trkpt>
      <trkpt lat="43.34784" lon="-2.4734">
        <ele>27.2</ele>
        <time>2021-05-29 13:42:47</time>
      </trkpt>
      <trkpt lat="43.34791" lon="-2.47341">
        <ele>27.2</ele>
        <time>2021-05-29 13:42:48</time>
      </trkpt>
      <trkpt lat="43.34797" lon="-2.47341">
        <ele>27.4</ele>
        <time>2021-05-29 13:42:49</time>
      </trkpt>
      <trkpt lat="43.34804" lon="-2.47341">
        <ele>27.6</ele>
        <time>2021-05-29 13:42:50</time>
      </trkpt>
      <trkpt lat="43.34811" lon="-2.47339">
        <ele>27.8</ele>
        <time>2021-05-29 13:42:51</time>
      </trkpt>
      <trkpt lat="43.34817" lon="-2.47337">
        <ele>28</ele>
        <time>2021-05-29 13:42:52</time>
      </trkpt>
      <trkpt lat="43.34823" lon="-2.47335">
        <ele>28</ele>
        <time>2021-05-29 13:42:53</time>
      </trkpt>
      <trkpt lat="43.34829" lon="-2.47334">
        <ele>28.4</ele>
        <time>2021-05-29 13:42:54</time>
      </trkpt>
      <trkpt lat="43.34836" lon="-2.47334">
        <ele>28.6</ele>
        <time>2021-05-29 13:42:55</time>
      </trkpt>
      <trkpt lat="43.34842" lon="-2.47334">
        <ele>28.8</ele>
        <time>2021-05-29 13:42:56</time>
      </trkpt>
      <trkpt lat="43.34849" lon="-2.47335">
        <ele>29</ele>
        <time>2021-05-29 13:42:57</time>
      </trkpt>
      <trkpt lat="43.34855" lon="-2.47336">
        <ele>29.2</ele>
        <time>2021-05-29 13:42:58</time>
      </trkpt>
      <trkpt lat="43.34862" lon="-2.47336">
        <ele>29.2</ele>
        <time>2021-05-29 13:42:59</time>
      </trkpt>
      <trkpt lat="43.34868" lon="-2.47337">
        <ele>29.4</ele>
        <time>2021-05-29 13:43:00</time>
      </trkpt>
      <trkpt lat="43.34874" lon="-2.47338">
        <ele>29.4</ele>
        <time>2021-05-29 13:43:01</time>
      </trkpt>
      <trkpt lat="43.3488" lon="-2.47339">
        <ele>29.8</ele>
        <time>2021-05-29 13:43:02</time>
      </trkpt>
      <trkpt lat="43.34886" lon="-2.4734">
        <ele>30</ele>
        <time>2021-05-29 13:43:03</time>
      </trkpt>
      <trkpt lat="43.34891" lon="-2.47341">
        <ele>30.2</ele>
        <time>2021-05-29 13:43:04</time>
      </trkpt>
      <trkpt lat="43.34897" lon="-2.47342">
        <ele>30.4</ele>
        <time>2021-05-29 13:43:05</time>
      </trkpt>
      <trkpt lat="43.34903" lon="-2.47343">
        <ele>30.6</ele>
        <time>2021-05-29 13:43:06</time>
      </trkpt>
      <trkpt lat="43.34908" lon="-2.47344">
        <ele>30.8</ele>
        <time>2021-05-29 13:43:07</time>
      </trkpt>
      <trkpt lat="43.34914" lon="-2.47345">
        <ele>31</ele>
        <time>2021-05-29 13:43:08</time>
      </trkpt>
      <trkpt lat="43.3492" lon="-2.47346">
        <ele>31.2</ele>
        <time>2021-05-29 13:43:09</time>
      </trkpt>
      <trkpt lat="43.34925" lon="-2.47346">
        <ele>31.6</ele>
        <time>2021-05-29 13:43:10</time>
      </trkpt>
      <trkpt lat="43.34931" lon="-2.47347">
        <ele>32</ele>
        <time>2021-05-29 13:43:11</time>
      </trkpt>
      <trkpt lat="43.34936" lon="-2.47348">
        <ele>32.4</ele>
        <time>2021-05-29 13:43:12</time>
      </trkpt>
      <trkpt lat="43.34942" lon="-2.47349">
        <ele>32.8</ele>
        <time>2021-05-29 13:43:13</time>
      </trkpt>
      <trkpt lat="43.34947" lon="-2.4735">
        <ele>33</ele>
        <time>2021-05-29 13:43:14</time>
      </trkpt>
      <trkpt lat="43.34953" lon="-2.47351">
        <ele>33.4</ele>
        <time>2021-05-29 13:43:15</time>
      </trkpt>
      <trkpt lat="43.34958" lon="-2.47352">
        <ele>33.6</ele>
        <time>2021-05-29 13:43:16</time>
      </trkpt>
      <trkpt lat="43.34964" lon="-2.47353">
        <ele>33.8</ele>
        <time>2021-05-29 13:43:17</time>
      </trkpt>
      <trkpt lat="43.34969" lon="-2.47354">
        <ele>34.6</ele>
        <time>2021-05-29 13:43:18</time>
      </trkpt>
      <trkpt lat="43.34975" lon="-2.47355">
        <ele>35</ele>
        <time>2021-05-29 13:43:19</time>
      </trkpt>
      <trkpt lat="43.3498" lon="-2.47355">
        <ele>35.2</ele>
        <time>2021-05-29 13:43:20</time>
      </trkpt>
      <trkpt lat="43.34985" lon="-2.47356">
        <ele>35.4</ele>
        <time>2021-05-29 13:43:21</time>
      </trkpt>
      <trkpt lat="43.34991" lon="-2.47357">
        <ele>35.6</ele>
        <time>2021-05-29 13:43:22</time>
      </trkpt>
      <trkpt lat="43.34996" lon="-2.47358">
        <ele>35.6</ele>
        <time>2021-05-29 13:43:23</time>
      </trkpt>
      <trkpt lat="43.35002" lon="-2.4736">
        <ele>35.8</ele>
        <time>2021-05-29 13:43:24</time>
      </trkpt>
      <trkpt lat="43.35007" lon="-2.47362">
        <ele>35.8</ele>
        <time>2021-05-29 13:43:25</time>
      </trkpt>
      <trkpt lat="43.35011" lon="-2.47365">
        <ele>36</ele>
        <time>2021-05-29 13:43:26</time>
      </trkpt>
      <trkpt lat="43.35015" lon="-2.4737">
        <ele>36.2</ele>
        <time>2021-05-29 13:43:27</time>
      </trkpt>
      <trkpt lat="43.35019" lon="-2.47376">
        <ele>36.2</ele>
        <time>2021-05-29 13:43:28</time>
      </trkpt>
      <trkpt lat="43.35021" lon="-2.47382">
        <ele>36.4</ele>
        <time>2021-05-29 13:43:29</time>
      </trkpt>
      <trkpt lat="43.35023" lon="-2.47389">
        <ele>36.6</ele>
        <time>2021-05-29 13:43:30</time>
      </trkpt>
      <trkpt lat="43.35024" lon="-2.47396">
        <ele>37</ele>
        <time>2021-05-29 13:43:31</time>
      </trkpt>
      <trkpt lat="43.35024" lon="-2.47403">
        <ele>37.4</ele>
        <time>2021-05-29 13:43:32</time>
      </trkpt>
      <trkpt lat="43.35024" lon="-2.4741">
        <ele>37.6</ele>
        <time>2021-05-29 13:43:33</time>
      </trkpt>
      <trkpt lat="43.35024" lon="-2.47416">
        <ele>38</ele>
        <time>2021-05-29 13:43:34</time>
      </trkpt>
      <trkpt lat="43.35024" lon="-2.47423">
        <ele>38.4</ele>
        <time>2021-05-29 13:43:35</time>
      </trkpt>
      <trkpt lat="43.35024" lon="-2.4743">
        <ele>38.6</ele>
        <time>2021-05-29 13:43:36</time>
      </trkpt>
      <trkpt lat="43.35023" lon="-2.47436">
        <ele>38.8</ele>
        <time>2021-05-29 13:43:37</time>
      </trkpt>
      <trkpt lat="43.35022" lon="-2.47443">
        <ele>39</ele>
        <time>2021-05-29 13:43:38</time>
      </trkpt>
      <trkpt lat="43.3502" lon="-2.4745">
        <ele>39.2</ele>
        <time>2021-05-29 13:43:39</time>
      </trkpt>
      <trkpt lat="43.35021" lon="-2.47456">
        <ele>39.4</ele>
        <time>2021-05-29 13:43:40</time>
      </trkpt>
      <trkpt lat="43.35021" lon="-2.47463">
        <ele>39.6</ele>
        <time>2021-05-29 13:43:41</time>
      </trkpt>
      <trkpt lat="43.35021" lon="-2.4747">
        <ele>39.8</ele>
        <time>2021-05-29 13:43:42</time>
      </trkpt>
      <trkpt lat="43.35021" lon="-2.47476">
        <ele>40</ele>
        <time>2021-05-29 13:43:43</time>
      </trkpt>
      <trkpt lat="43.35021" lon="-2.47483">
        <ele>40.2</ele>
        <time>2021-05-29 13:43:44</time>
      </trkpt>
      <trkpt lat="43.35022" lon="-2.4749">
        <ele>40.4</ele>
        <time>2021-05-29 13:43:45</time>
      </trkpt>
      <trkpt lat="43.35022" lon="-2.47498">
        <ele>40.4</ele>
        <time>2021-05-29 13:43:46</time>
      </trkpt>
      <trkpt lat="43.35023" lon="-2.47506">
        <ele>40.4</ele>
        <time>2021-05-29 13:43:47</time>
      </trkpt>
      <trkpt lat="43.35023" lon="-2.47514">
        <ele>40.6</ele>
        <time>2021-05-29 13:43:48</time>
      </trkpt>
      <trkpt lat="43.35025" lon="-2.47522">
        <ele>40.6</ele>
        <time>2021-05-29 13:43:49</time>
      </trkpt>
      <trkpt lat="43.35027" lon="-2.47529">
        <ele>40.6</ele>
        <time>2021-05-29 13:43:50</time>
      </trkpt>
      <trkpt lat="43.35028" lon="-2.47537">
        <ele>40.6</ele>
        <time>2021-05-29 13:43:51</time>
      </trkpt>
      <trkpt lat="43.35029" lon="-2.47545">
        <ele>40.8</ele>
        <time>2021-05-29 13:43:52</time>
      </trkpt>
      <trkpt lat="43.35029" lon="-2.47554">
        <ele>41.2</ele>
        <time>2021-05-29 13:43:53</time>
      </trkpt>
      <trkpt lat="43.35028" lon="-2.47563">
        <ele>41.2</ele>
        <time>2021-05-29 13:43:54</time>
      </trkpt>
      <trkpt lat="43.35027" lon="-2.47571">
        <ele>41.4</ele>
        <time>2021-05-29 13:43:55</time>
      </trkpt>
      <trkpt lat="43.35026" lon="-2.47581">
        <ele>41.4</ele>
        <time>2021-05-29 13:43:56</time>
      </trkpt>
      <trkpt lat="43.35024" lon="-2.4759">
        <ele>41.6</ele>
        <time>2021-05-29 13:43:57</time>
      </trkpt>
      <trkpt lat="43.35022" lon="-2.47599">
        <ele>41.6</ele>
        <time>2021-05-29 13:43:58</time>
      </trkpt>
      <trkpt lat="43.3502" lon="-2.47607">
        <ele>41.6</ele>
        <time>2021-05-29 13:43:59</time>
      </trkpt>
      <trkpt lat="43.35018" lon="-2.47616">
        <ele>41.8</ele>
        <time>2021-05-29 13:44:00</time>
      </trkpt>
      <trkpt lat="43.35016" lon="-2.47625">
        <ele>41.8</ele>
        <time>2021-05-29 13:44:01</time>
      </trkpt>
      <trkpt lat="43.35013" lon="-2.47634">
        <ele>41.8</ele>
        <time>2021-05-29 13:44:02</time>
      </trkpt>
      <trkpt lat="43.35011" lon="-2.47644">
        <ele>41.8</ele>
        <time>2021-05-29 13:44:03</time>
      </trkpt>
      <trkpt lat="43.35009" lon="-2.47653">
        <ele>41.8</ele>
        <time>2021-05-29 13:44:04</time>
      </trkpt>
      <trkpt lat="43.35006" lon="-2.47663">
        <ele>41.8</ele>
        <time>2021-05-29 13:44:05</time>
      </trkpt>
      <trkpt lat="43.35003" lon="-2.47673">
        <ele>41.8</ele>
        <time>2021-05-29 13:44:06</time>
      </trkpt>
      <trkpt lat="43.34999" lon="-2.47682">
        <ele>41.8</ele>
        <time>2021-05-29 13:44:07</time>
      </trkpt>
      <trkpt lat="43.34993" lon="-2.47689">
        <ele>41.8</ele>
        <time>2021-05-29 13:44:08</time>
      </trkpt>
      <trkpt lat="43.34988" lon="-2.47697">
        <ele>42</ele>
        <time>2021-05-29 13:44:09</time>
      </trkpt>
      <trkpt lat="43.34982" lon="-2.47703">
        <ele>42</ele>
        <time>2021-05-29 13:44:10</time>
      </trkpt>
      <trkpt lat="43.34976" lon="-2.47709">
        <ele>42</ele>
        <time>2021-05-29 13:44:11</time>
      </trkpt>
      <trkpt lat="43.34969" lon="-2.47714">
        <ele>42</ele>
        <time>2021-05-29 13:44:12</time>
      </trkpt>
      <trkpt lat="43.34962" lon="-2.47719">
        <ele>41.8</ele>
        <time>2021-05-29 13:44:13</time>
      </trkpt>
      <trkpt lat="43.34955" lon="-2.47724">
        <ele>42</ele>
        <time>2021-05-29 13:44:14</time>
      </trkpt>
      <trkpt lat="43.34947" lon="-2.47728">
        <ele>42</ele>
        <time>2021-05-29 13:44:15</time>
      </trkpt>
      <trkpt lat="43.34939" lon="-2.47731">
        <ele>42</ele>
        <time>2021-05-29 13:44:16</time>
      </trkpt>
      <trkpt lat="43.34931" lon="-2.47734">
        <ele>42</ele>
        <time>2021-05-29 13:44:17</time>
      </trkpt>
      <trkpt lat="43.34922" lon="-2.47736">
        <ele>41.8</ele>
        <time>2021-05-29 13:44:18</time>
      </trkpt>
      <trkpt lat="43.34914" lon="-2.47737">
        <ele>42</ele>
        <time>2021-05-29 13:44:19</time>
      </trkpt>
      <trkpt lat="43.34905" lon="-2.47738">
        <ele>42</ele>
        <time>2021-05-29 13:44:20</time>
      </trkpt>
      <trkpt lat="43.34895" lon="-2.47738">
        <ele>42</ele>
        <time>2021-05-29 13:44:21</time>
      </trkpt>
      <trkpt lat="43.34887" lon="-2.47739">
        <ele>41.8</ele>
        <time>2021-05-29 13:44:22</time>
      </trkpt>
      <trkpt lat="43.34879" lon="-2.4774">
        <ele>41.8</ele>
        <time>2021-05-29 13:44:23</time>
      </trkpt>
      <trkpt lat="43.3487" lon="-2.47741">
        <ele>41.6</ele>
        <time>2021-05-29 13:44:24</time>
      </trkpt>
      <trkpt lat="43.34865" lon="-2.47748">
        <ele>41.6</ele>
        <time>2021-05-29 13:44:25</time>
      </trkpt>
      <trkpt lat="43.34863" lon="-2.47758">
        <ele>41.4</ele>
        <time>2021-05-29 13:44:26</time>
      </trkpt>
      <trkpt lat="43.34865" lon="-2.47768">
        <ele>40.8</ele>
        <time>2021-05-29 13:44:27</time>
      </trkpt>
      <trkpt lat="43.34868" lon="-2.47778">
        <ele>40.8</ele>
        <time>2021-05-29 13:44:28</time>
      </trkpt>
      <trkpt lat="43.34875" lon="-2.47783">
        <ele>41</ele>
        <time>2021-05-29 13:44:29</time>
      </trkpt>
      <trkpt lat="43.34881" lon="-2.47788">
        <ele>40.8</ele>
        <time>2021-05-29 13:44:30</time>
      </trkpt>
      <trkpt lat="43.34887" lon="-2.47793">
        <ele>40.8</ele>
        <time>2021-05-29 13:44:31</time>
      </trkpt>
      <trkpt lat="43.34893" lon="-2.47797">
        <ele>40.8</ele>
        <time>2021-05-29 13:44:32</time>
      </trkpt>
      <trkpt lat="43.34897" lon="-2.47801">
        <ele>40.8</ele>
        <time>2021-05-29 13:44:33</time>
      </trkpt>
      <trkpt lat="43.34901" lon="-2.47808">
        <ele>40.8</ele>
        <time>2021-05-29 13:44:34</time>
      </trkpt>
      <trkpt lat="43.34905" lon="-2.47814">
        <ele>40.8</ele>
        <time>2021-05-29 13:44:35</time>
      </trkpt>
      <trkpt lat="43.34908" lon="-2.47818">
        <ele>41</ele>
        <time>2021-05-29 13:44:36</time>
      </trkpt>
      <trkpt lat="43.34911" lon="-2.47822">
        <ele>41</ele>
        <time>2021-05-29 13:44:37</time>
      </trkpt>
      <trkpt lat="43.34914" lon="-2.47826">
        <ele>41</ele>
        <time>2021-05-29 13:44:38</time>
      </trkpt>
      <trkpt lat="43.34918" lon="-2.47829">
        <ele>41</ele>
        <time>2021-05-29 13:44:39</time>
      </trkpt>
      <trkpt lat="43.34923" lon="-2.47831">
        <ele>41.2</ele>
        <time>2021-05-29 13:44:40</time>
      </trkpt>
      <trkpt lat="43.34927" lon="-2.47834">
        <ele>41.6</ele>
        <time>2021-05-29 13:44:41</time>
      </trkpt>
      <trkpt lat="43.34933" lon="-2.47837">
        <ele>41.8</ele>
        <time>2021-05-29 13:44:42</time>
      </trkpt>
      <trkpt lat="43.34939" lon="-2.47841">
        <ele>42</ele>
        <time>2021-05-29 13:44:43</time>
      </trkpt>
      <trkpt lat="43.34944" lon="-2.47845">
        <ele>42.2</ele>
        <time>2021-05-29 13:44:44</time>
      </trkpt>
      <trkpt lat="43.3495" lon="-2.47848">
        <ele>42.2</ele>
        <time>2021-05-29 13:44:45</time>
      </trkpt>
      <trkpt lat="43.34955" lon="-2.47853">
        <ele>42.4</ele>
        <time>2021-05-29 13:44:46</time>
      </trkpt>
      <trkpt lat="43.34959" lon="-2.47857">
        <ele>42.6</ele>
        <time>2021-05-29 13:44:47</time>
      </trkpt>
      <trkpt lat="43.34964" lon="-2.47861">
        <ele>43</ele>
        <time>2021-05-29 13:44:48</time>
      </trkpt>
      <trkpt lat="43.34969" lon="-2.47864">
        <ele>43.4</ele>
        <time>2021-05-29 13:44:49</time>
      </trkpt>
      <trkpt lat="43.34972" lon="-2.47861">
        <ele>43.6</ele>
        <time>2021-05-29 13:44:50</time>
      </trkpt>
      <trkpt lat="43.34976" lon="-2.4786">
        <ele>44</ele>
        <time>2021-05-29 13:44:51</time>
      </trkpt>
      <trkpt lat="43.34979" lon="-2.47855">
        <ele>44.2</ele>
        <time>2021-05-29 13:44:52</time>
      </trkpt>
      <trkpt lat="43.34982" lon="-2.47852">
        <ele>44.6</ele>
        <time>2021-05-29 13:44:53</time>
      </trkpt>
      <trkpt lat="43.34985" lon="-2.47848">
        <ele>44.8</ele>
        <time>2021-05-29 13:44:54</time>
      </trkpt>
      <trkpt lat="43.34988" lon="-2.47844">
        <ele>44.8</ele>
        <time>2021-05-29 13:44:55</time>
      </trkpt>
      <trkpt lat="43.34991" lon="-2.47842">
        <ele>45.2</ele>
        <time>2021-05-29 13:44:56</time>
      </trkpt>
      <trkpt lat="43.34996" lon="-2.47842">
        <ele>45.6</ele>
        <time>2021-05-29 13:44:57</time>
      </trkpt>
      <trkpt lat="43.35002" lon="-2.47843">
        <ele>46</ele>
        <time>2021-05-29 13:44:58</time>
      </trkpt>
      <trkpt lat="43.35008" lon="-2.47845">
        <ele>46.2</ele>
        <time>2021-05-29 13:44:59</time>
      </trkpt>
      <trkpt lat="43.35015" lon="-2.47848">
        <ele>46.4</ele>
        <time>2021-05-29 13:45:00</time>
      </trkpt>
      <trkpt lat="43.3502" lon="-2.4785">
        <ele>46.6</ele>
        <time>2021-05-29 13:45:01</time>
      </trkpt>
      <trkpt lat="43.35026" lon="-2.47852">
        <ele>46.8</ele>
        <time>2021-05-29 13:45:02</time>
      </trkpt>
      <trkpt lat="43.35031" lon="-2.47853">
        <ele>46.8</ele>
        <time>2021-05-29 13:45:03</time>
      </trkpt>
      <trkpt lat="43.35035" lon="-2.47852">
        <ele>47</ele>
        <time>2021-05-29 13:45:04</time>
      </trkpt>
      <trkpt lat="43.35039" lon="-2.47849">
        <ele>47.4</ele>
        <time>2021-05-29 13:45:05</time>
      </trkpt>
      <trkpt lat="43.35045" lon="-2.47843">
        <ele>47.8</ele>
        <time>2021-05-29 13:45:06</time>
      </trkpt>
      <trkpt lat="43.35051" lon="-2.47838">
        <ele>48.2</ele>
        <time>2021-05-29 13:45:07</time>
      </trkpt>
      <trkpt lat="43.3506" lon="-2.47834">
        <ele>48.2</ele>
        <time>2021-05-29 13:45:08</time>
      </trkpt>
      <trkpt lat="43.35066" lon="-2.47829">
        <ele>48.4</ele>
        <time>2021-05-29 13:45:09</time>
      </trkpt>
      <trkpt lat="43.3507" lon="-2.47823">
        <ele>48.6</ele>
        <time>2021-05-29 13:45:10</time>
      </trkpt>
      <trkpt lat="43.35073" lon="-2.47816">
        <ele>49.4</ele>
        <time>2021-05-29 13:45:11</time>
      </trkpt>
      <trkpt lat="43.35076" lon="-2.47807">
        <ele>49.6</ele>
        <time>2021-05-29 13:45:12</time>
      </trkpt>
      <trkpt lat="43.35078" lon="-2.47799">
        <ele>49.8</ele>
        <time>2021-05-29 13:45:13</time>
      </trkpt>
      <trkpt lat="43.35079" lon="-2.47792">
        <ele>50</ele>
        <time>2021-05-29 13:45:14</time>
      </trkpt>
      <trkpt lat="43.35079" lon="-2.47784">
        <ele>50.2</ele>
        <time>2021-05-29 13:45:15</time>
      </trkpt>
      <trkpt lat="43.3508" lon="-2.47777">
        <ele>50.4</ele>
        <time>2021-05-29 13:45:16</time>
      </trkpt>
      <trkpt lat="43.35081" lon="-2.47768">
        <ele>50.8</ele>
        <time>2021-05-29 13:45:17</time>
      </trkpt>
      <trkpt lat="43.35082" lon="-2.47759">
        <ele>51</ele>
        <time>2021-05-29 13:45:18</time>
      </trkpt>
      <trkpt lat="43.35085" lon="-2.4775">
        <ele>51.2</ele>
        <time>2021-05-29 13:45:19</time>
      </trkpt>
      <trkpt lat="43.35088" lon="-2.47743">
        <ele>51.6</ele>
        <time>2021-05-29 13:45:20</time>
      </trkpt>
      <trkpt lat="43.35093" lon="-2.47735">
        <ele>51.8</ele>
        <time>2021-05-29 13:45:21</time>
      </trkpt>
      <trkpt lat="43.35099" lon="-2.47729">
        <ele>52</ele>
        <time>2021-05-29 13:45:22</time>
      </trkpt>
      <trkpt lat="43.35104" lon="-2.47725">
        <ele>52.2</ele>
        <time>2021-05-29 13:45:23</time>
      </trkpt>
      <trkpt lat="43.35111" lon="-2.47724">
        <ele>52.2</ele>
        <time>2021-05-29 13:45:24</time>
      </trkpt>
      <trkpt lat="43.35117" lon="-2.47725">
        <ele>52.4</ele>
        <time>2021-05-29 13:45:25</time>
      </trkpt>
      <trkpt lat="43.35121" lon="-2.47729">
        <ele>52.6</ele>
        <time>2021-05-29 13:45:26</time>
      </trkpt>
      <trkpt lat="43.35126" lon="-2.47733">
        <ele>52.8</ele>
        <time>2021-05-29 13:45:27</time>
      </trkpt>
      <trkpt lat="43.3513" lon="-2.47739">
        <ele>53</ele>
        <time>2021-05-29 13:45:28</time>
      </trkpt>
      <trkpt lat="43.35133" lon="-2.47746">
        <ele>53.4</ele>
        <time>2021-05-29 13:45:29</time>
      </trkpt>
      <trkpt lat="43.35136" lon="-2.47752">
        <ele>53.8</ele>
        <time>2021-05-29 13:45:30</time>
      </trkpt>
      <trkpt lat="43.3514" lon="-2.47758">
        <ele>54</ele>
        <time>2021-05-29 13:45:31</time>
      </trkpt>
      <trkpt lat="43.35145" lon="-2.47764">
        <ele>54.2</ele>
        <time>2021-05-29 13:45:32</time>
      </trkpt>
      <trkpt lat="43.35151" lon="-2.47767">
        <ele>54.4</ele>
        <time>2021-05-29 13:45:33</time>
      </trkpt>
      <trkpt lat="43.35156" lon="-2.4777">
        <ele>54.8</ele>
        <time>2021-05-29 13:45:34</time>
      </trkpt>
      <trkpt lat="43.35163" lon="-2.47772">
        <ele>55.2</ele>
        <time>2021-05-29 13:45:35</time>
      </trkpt>
      <trkpt lat="43.35169" lon="-2.47773">
        <ele>55.4</ele>
        <time>2021-05-29 13:45:36</time>
      </trkpt>
      <trkpt lat="43.35176" lon="-2.47773">
        <ele>55.8</ele>
        <time>2021-05-29 13:45:37</time>
      </trkpt>
      <trkpt lat="43.35182" lon="-2.47775">
        <ele>55.8</ele>
        <time>2021-05-29 13:45:38</time>
      </trkpt>
      <trkpt lat="43.35188" lon="-2.47777">
        <ele>56</ele>
        <time>2021-05-29 13:45:39</time>
      </trkpt>
      <trkpt lat="43.35195" lon="-2.4778">
        <ele>56</ele>
        <time>2021-05-29 13:45:40</time>
      </trkpt>
      <trkpt lat="43.35201" lon="-2.47783">
        <ele>56</ele>
        <time>2021-05-29 13:45:41</time>
      </trkpt>
      <trkpt lat="43.35207" lon="-2.47787">
        <ele>56.2</ele>
        <time>2021-05-29 13:45:42</time>
      </trkpt>
      <trkpt lat="43.35213" lon="-2.4779">
        <ele>56.2</ele>
        <time>2021-05-29 13:45:43</time>
      </trkpt>
      <trkpt lat="43.35217" lon="-2.47795">
        <ele>56.4</ele>
        <time>2021-05-29 13:45:44</time>
      </trkpt>
      <trkpt lat="43.35221" lon="-2.47799">
        <ele>56.6</ele>
        <time>2021-05-29 13:45:45</time>
      </trkpt>
      <trkpt lat="43.35226" lon="-2.47803">
        <ele>56.8</ele>
        <time>2021-05-29 13:45:46</time>
      </trkpt>
      <trkpt lat="43.3523" lon="-2.47807">
        <ele>56.8</ele>
        <time>2021-05-29 13:45:47</time>
      </trkpt>
      <trkpt lat="43.35234" lon="-2.47811">
        <ele>57.2</ele>
        <time>2021-05-29 13:45:48</time>
      </trkpt>
      <trkpt lat="43.35239" lon="-2.47814">
        <ele>57.4</ele>
        <time>2021-05-29 13:45:49</time>
      </trkpt>
      <trkpt lat="43.35243" lon="-2.47816">
        <ele>57.6</ele>
        <time>2021-05-29 13:45:50</time>
      </trkpt>
      <trkpt lat="43.35248" lon="-2.47818">
        <ele>57.8</ele>
        <time>2021-05-29 13:45:51</time>
      </trkpt>
      <trkpt lat="43.35252" lon="-2.47821">
        <ele>58</ele>
        <time>2021-05-29 13:45:52</time>
      </trkpt>
      <trkpt lat="43.35257" lon="-2.47824">
        <ele>58.2</ele>
        <time>2021-05-29 13:45:53</time>
      </trkpt>
      <trkpt lat="43.35261" lon="-2.47829">
        <ele>58.6</ele>
        <time>2021-05-29 13:45:54</time>
      </trkpt>
      <trkpt lat="43.35266" lon="-2.47835">
        <ele>59</ele>
        <time>2021-05-29 13:45:55</time>
      </trkpt>
      <trkpt lat="43.3527" lon="-2.47842">
        <ele>59.4</ele>
        <time>2021-05-29 13:45:56</time>
      </trkpt>
      <trkpt lat="43.35274" lon="-2.47848">
        <ele>59.8</ele>
        <time>2021-05-29 13:45:57</time>
      </trkpt>
      <trkpt lat="43.35278" lon="-2.47856">
        <ele>60.2</ele>
        <time>2021-05-29 13:45:58</time>
      </trkpt>
      <trkpt lat="43.35282" lon="-2.47862">
        <ele>60.4</ele>
        <time>2021-05-29 13:45:59</time>
      </trkpt>
      <trkpt lat="43.35286" lon="-2.47869">
        <ele>60.6</ele>
        <time>2021-05-29 13:46:00</time>
      </trkpt>
      <trkpt lat="43.35291" lon="-2.47875">
        <ele>60.8</ele>
        <time>2021-05-29 13:46:01</time>
      </trkpt>
      <trkpt lat="43.35295" lon="-2.47883">
        <ele>61</ele>
        <time>2021-05-29 13:46:02</time>
      </trkpt>
      <trkpt lat="43.35299" lon="-2.47891">
        <ele>61.2</ele>
        <time>2021-05-29 13:46:03</time>
      </trkpt>
      <trkpt lat="43.35303" lon="-2.47899">
        <ele>61.2</ele>
        <time>2021-05-29 13:46:04</time>
      </trkpt>
      <trkpt lat="43.35307" lon="-2.47906">
        <ele>61.4</ele>
        <time>2021-05-29 13:46:05</time>
      </trkpt>
      <trkpt lat="43.35311" lon="-2.47913">
        <ele>61.4</ele>
        <time>2021-05-29 13:46:06</time>
      </trkpt>
      <trkpt lat="43.35316" lon="-2.4792">
        <ele>61.4</ele>
        <time>2021-05-29 13:46:07</time>
      </trkpt>
      <trkpt lat="43.35321" lon="-2.47927">
        <ele>61.4</ele>
        <time>2021-05-29 13:46:08</time>
      </trkpt>
      <trkpt lat="43.35328" lon="-2.47934">
        <ele>61.8</ele>
        <time>2021-05-29 13:46:09</time>
      </trkpt>
      <trkpt lat="43.35334" lon="-2.47939">
        <ele>61.8</ele>
        <time>2021-05-29 13:46:10</time>
      </trkpt>
      <trkpt lat="43.3534" lon="-2.47944">
        <ele>61.8</ele>
        <time>2021-05-29 13:46:11</time>
      </trkpt>
      <trkpt lat="43.35347" lon="-2.47947">
        <ele>61.8</ele>
        <time>2021-05-29 13:46:12</time>
      </trkpt>
      <trkpt lat="43.35353" lon="-2.47948">
        <ele>62</ele>
        <time>2021-05-29 13:46:13</time>
      </trkpt>
      <trkpt lat="43.3536" lon="-2.47948">
        <ele>62</ele>
        <time>2021-05-29 13:46:14</time>
      </trkpt>
      <trkpt lat="43.35366" lon="-2.47947">
        <ele>62.2</ele>
        <time>2021-05-29 13:46:15</time>
      </trkpt>
      <trkpt lat="43.35373" lon="-2.47947">
        <ele>62.2</ele>
        <time>2021-05-29 13:46:16</time>
      </trkpt>
      <trkpt lat="43.3538" lon="-2.47946">
        <ele>62.2</ele>
        <time>2021-05-29 13:46:17</time>
      </trkpt>
      <trkpt lat="43.35387" lon="-2.47946">
        <ele>62.4</ele>
        <time>2021-05-29 13:46:18</time>
      </trkpt>
      <trkpt lat="43.35394" lon="-2.47948">
        <ele>62.4</ele>
        <time>2021-05-29 13:46:19</time>
      </trkpt>
      <trkpt lat="43.35401" lon="-2.47949">
        <ele>62.6</ele>
        <time>2021-05-29 13:46:20</time>
      </trkpt>
      <trkpt lat="43.35408" lon="-2.47952">
        <ele>62.6</ele>
        <time>2021-05-29 13:46:21</time>
      </trkpt>
      <trkpt lat="43.35414" lon="-2.47956">
        <ele>62.6</ele>
        <time>2021-05-29 13:46:22</time>
      </trkpt>
      <trkpt lat="43.3542" lon="-2.47961">
        <ele>62.8</ele>
        <time>2021-05-29 13:46:23</time>
      </trkpt>
      <trkpt lat="43.35425" lon="-2.47967">
        <ele>62.8</ele>
        <time>2021-05-29 13:46:24</time>
      </trkpt>
      <trkpt lat="43.3543" lon="-2.47975">
        <ele>62.8</ele>
        <time>2021-05-29 13:46:25</time>
      </trkpt>
      <trkpt lat="43.35434" lon="-2.47984">
        <ele>62.8</ele>
        <time>2021-05-29 13:46:26</time>
      </trkpt>
      <trkpt lat="43.35436" lon="-2.47994">
        <ele>63</ele>
        <time>2021-05-29 13:46:27</time>
      </trkpt>
      <trkpt lat="43.35437" lon="-2.48005">
        <ele>63</ele>
        <time>2021-05-29 13:46:28</time>
      </trkpt>
      <trkpt lat="43.35438" lon="-2.48016">
        <ele>63</ele>
        <time>2021-05-29 13:46:29</time>
      </trkpt>
      <trkpt lat="43.35439" lon="-2.48027">
        <ele>63</ele>
        <time>2021-05-29 13:46:30</time>
      </trkpt>
      <trkpt lat="43.35439" lon="-2.48039">
        <ele>63</ele>
        <time>2021-05-29 13:46:31</time>
      </trkpt>
      <trkpt lat="43.35443" lon="-2.48053">
        <ele>63</ele>
        <time>2021-05-29 13:46:32</time>
      </trkpt>
      <trkpt lat="43.35444" lon="-2.48067">
        <ele>63</ele>
        <time>2021-05-29 13:46:33</time>
      </trkpt>
      <trkpt lat="43.35446" lon="-2.48081">
        <ele>63</ele>
        <time>2021-05-29 13:46:34</time>
      </trkpt>
      <trkpt lat="43.35448" lon="-2.48095">
        <ele>62.8</ele>
        <time>2021-05-29 13:46:35</time>
      </trkpt>
      <trkpt lat="43.35448" lon="-2.4811">
        <ele>62.6</ele>
        <time>2021-05-29 13:46:36</time>
      </trkpt>
      <trkpt lat="43.35448" lon="-2.48125">
        <ele>62.4</ele>
        <time>2021-05-29 13:46:37</time>
      </trkpt>
      <trkpt lat="43.35448" lon="-2.4814">
        <ele>62</ele>
        <time>2021-05-29 13:46:38</time>
      </trkpt>
      <trkpt lat="43.3545" lon="-2.48154">
        <ele>61.8</ele>
        <time>2021-05-29 13:46:39</time>
      </trkpt>
      <trkpt lat="43.35451" lon="-2.48169">
        <ele>61.4</ele>
        <time>2021-05-29 13:46:40</time>
      </trkpt>
      <trkpt lat="43.35452" lon="-2.48184">
        <ele>60.6</ele>
        <time>2021-05-29 13:46:41</time>
      </trkpt>
      <trkpt lat="43.35453" lon="-2.48199">
        <ele>60.2</ele>
        <time>2021-05-29 13:46:42</time>
      </trkpt>
      <trkpt lat="43.35455" lon="-2.48213">
        <ele>59.6</ele>
        <time>2021-05-29 13:46:43</time>
      </trkpt>
      <trkpt lat="43.35458" lon="-2.48227">
        <ele>58.4</ele>
        <time>2021-05-29 13:46:44</time>
      </trkpt>
      <trkpt lat="43.35462" lon="-2.48241">
        <ele>57.6</ele>
        <time>2021-05-29 13:46:45</time>
      </trkpt>
      <trkpt lat="43.35467" lon="-2.48255">
        <ele>57.2</ele>
        <time>2021-05-29 13:46:46</time>
      </trkpt>
      <trkpt lat="43.35473" lon="-2.48268">
        <ele>56.8</ele>
        <time>2021-05-29 13:46:47</time>
      </trkpt>
      <trkpt lat="43.35479" lon="-2.48281">
        <ele>56.6</ele>
        <time>2021-05-29 13:46:48</time>
      </trkpt>
      <trkpt lat="43.35485" lon="-2.48294">
        <ele>56.2</ele>
        <time>2021-05-29 13:46:49</time>
      </trkpt>
      <trkpt lat="43.35491" lon="-2.48307">
        <ele>55.8</ele>
        <time>2021-05-29 13:46:50</time>
      </trkpt>
      <trkpt lat="43.35496" lon="-2.48322">
        <ele>55.4</ele>
        <time>2021-05-29 13:46:51</time>
      </trkpt>
      <trkpt lat="43.35501" lon="-2.48336">
        <ele>55</ele>
        <time>2021-05-29 13:46:52</time>
      </trkpt>
      <trkpt lat="43.35506" lon="-2.48349">
        <ele>54.8</ele>
        <time>2021-05-29 13:46:53</time>
      </trkpt>
      <trkpt lat="43.35511" lon="-2.48363">
        <ele>54.6</ele>
        <time>2021-05-29 13:46:54</time>
      </trkpt>
      <trkpt lat="43.35515" lon="-2.48376">
        <ele>54.2</ele>
        <time>2021-05-29 13:46:55</time>
      </trkpt>
      <trkpt lat="43.35518" lon="-2.48391">
        <ele>53.8</ele>
        <time>2021-05-29 13:46:56</time>
      </trkpt>
      <trkpt lat="43.35516" lon="-2.48405">
        <ele>53.2</ele>
        <time>2021-05-29 13:46:57</time>
      </trkpt>
      <trkpt lat="43.35513" lon="-2.48419">
        <ele>52.8</ele>
        <time>2021-05-29 13:46:58</time>
      </trkpt>
      <trkpt lat="43.35507" lon="-2.48433">
        <ele>52.4</ele>
        <time>2021-05-29 13:46:59</time>
      </trkpt>
      <trkpt lat="43.35501" lon="-2.48447">
        <ele>52</ele>
        <time>2021-05-29 13:47:00</time>
      </trkpt>
      <trkpt lat="43.35497" lon="-2.48463">
        <ele>51.6</ele>
        <time>2021-05-29 13:47:01</time>
      </trkpt>
      <trkpt lat="43.35493" lon="-2.4848">
        <ele>51.4</ele>
        <time>2021-05-29 13:47:02</time>
      </trkpt>
      <trkpt lat="43.35491" lon="-2.48497">
        <ele>51.2</ele>
        <time>2021-05-29 13:47:03</time>
      </trkpt>
      <trkpt lat="43.35489" lon="-2.48513">
        <ele>50.6</ele>
        <time>2021-05-29 13:47:04</time>
      </trkpt>
      <trkpt lat="43.35488" lon="-2.4853">
        <ele>50</ele>
        <time>2021-05-29 13:47:05</time>
      </trkpt>
      <trkpt lat="43.35485" lon="-2.48546">
        <ele>49.6</ele>
        <time>2021-05-29 13:47:06</time>
      </trkpt>
      <trkpt lat="43.3548" lon="-2.48561">
        <ele>49.2</ele>
        <time>2021-05-29 13:47:07</time>
      </trkpt>
      <trkpt lat="43.35475" lon="-2.48574">
        <ele>48.6</ele>
        <time>2021-05-29 13:47:08</time>
      </trkpt>
      <trkpt lat="43.35466" lon="-2.48583">
        <ele>48</ele>
        <time>2021-05-29 13:47:09</time>
      </trkpt>
      <trkpt lat="43.35459" lon="-2.48593">
        <ele>47.4</ele>
        <time>2021-05-29 13:47:10</time>
      </trkpt>
      <trkpt lat="43.35455" lon="-2.48604">
        <ele>47</ele>
        <time>2021-05-29 13:47:11</time>
      </trkpt>
      <trkpt lat="43.35455" lon="-2.48618">
        <ele>46.8</ele>
        <time>2021-05-29 13:47:12</time>
      </trkpt>
      <trkpt lat="43.35459" lon="-2.48628">
        <ele>46.6</ele>
        <time>2021-05-29 13:47:13</time>
      </trkpt>
      <trkpt lat="43.35464" lon="-2.48637">
        <ele>46.6</ele>
        <time>2021-05-29 13:47:14</time>
      </trkpt>
      <trkpt lat="43.35468" lon="-2.48642">
        <ele>46.4</ele>
        <time>2021-05-29 13:47:15</time>
      </trkpt>
      <trkpt lat="43.35475" lon="-2.48645">
        <ele>46.4</ele>
        <time>2021-05-29 13:47:16</time>
      </trkpt>
      <trkpt lat="43.35481" lon="-2.4864">
        <ele>46.4</ele>
        <time>2021-05-29 13:47:17</time>
      </trkpt>
      <trkpt lat="43.35487" lon="-2.48636">
        <ele>46.4</ele>
        <time>2021-05-29 13:47:18</time>
      </trkpt>
      <trkpt lat="43.35492" lon="-2.48629">
        <ele>46.4</ele>
        <time>2021-05-29 13:47:19</time>
      </trkpt>
      <trkpt lat="43.35497" lon="-2.48622">
        <ele>46.4</ele>
        <time>2021-05-29 13:47:20</time>
      </trkpt>
      <trkpt lat="43.35502" lon="-2.48616">
        <ele>46.4</ele>
        <time>2021-05-29 13:47:21</time>
      </trkpt>
      <trkpt lat="43.35507" lon="-2.48609">
        <ele>46.4</ele>
        <time>2021-05-29 13:47:22</time>
      </trkpt>
      <trkpt lat="43.35512" lon="-2.48604">
        <ele>46.8</ele>
        <time>2021-05-29 13:47:23</time>
      </trkpt>
      <trkpt lat="43.35517" lon="-2.486">
        <ele>47.2</ele>
        <time>2021-05-29 13:47:24</time>
      </trkpt>
      <trkpt lat="43.35523" lon="-2.48597">
        <ele>47.6</ele>
        <time>2021-05-29 13:47:25</time>
      </trkpt>
      <trkpt lat="43.35528" lon="-2.48594">
        <ele>48</ele>
        <time>2021-05-29 13:47:26</time>
      </trkpt>
      <trkpt lat="43.35535" lon="-2.4859">
        <ele>48.6</ele>
        <time>2021-05-29 13:47:27</time>
      </trkpt>
      <trkpt lat="43.35542" lon="-2.48586">
        <ele>48.8</ele>
        <time>2021-05-29 13:47:28</time>
      </trkpt>
      <trkpt lat="43.35548" lon="-2.48581">
        <ele>49.2</ele>
        <time>2021-05-29 13:47:29</time>
      </trkpt>
      <trkpt lat="43.35555" lon="-2.48578">
        <ele>49.4</ele>
        <time>2021-05-29 13:47:30</time>
      </trkpt>
      <trkpt lat="43.35561" lon="-2.48577">
        <ele>49.8</ele>
        <time>2021-05-29 13:47:31</time>
      </trkpt>
      <trkpt lat="43.35569" lon="-2.48577">
        <ele>50.2</ele>
        <time>2021-05-29 13:47:32</time>
      </trkpt>
      <trkpt lat="43.35576" lon="-2.48578">
        <ele>50.2</ele>
        <time>2021-05-29 13:47:33</time>
      </trkpt>
      <trkpt lat="43.35583" lon="-2.48579">
        <ele>50.6</ele>
        <time>2021-05-29 13:47:34</time>
      </trkpt>
      <trkpt lat="43.3559" lon="-2.4858">
        <ele>51</ele>
        <time>2021-05-29 13:47:35</time>
      </trkpt>
      <trkpt lat="43.35598" lon="-2.48581">
        <ele>51.2</ele>
        <time>2021-05-29 13:47:36</time>
      </trkpt>
      <trkpt lat="43.35605" lon="-2.48582">
        <ele>51.6</ele>
        <time>2021-05-29 13:47:37</time>
      </trkpt>
      <trkpt lat="43.35612" lon="-2.48584">
        <ele>51.8</ele>
        <time>2021-05-29 13:47:38</time>
      </trkpt>
      <trkpt lat="43.35619" lon="-2.48587">
        <ele>52.2</ele>
        <time>2021-05-29 13:47:39</time>
      </trkpt>
      <trkpt lat="43.35626" lon="-2.48589">
        <ele>52.4</ele>
        <time>2021-05-29 13:47:40</time>
      </trkpt>
      <trkpt lat="43.35631" lon="-2.48591">
        <ele>53</ele>
        <time>2021-05-29 13:47:41</time>
      </trkpt>
      <trkpt lat="43.35637" lon="-2.48593">
        <ele>53.2</ele>
        <time>2021-05-29 13:47:42</time>
      </trkpt>
      <trkpt lat="43.35642" lon="-2.48594">
        <ele>53.6</ele>
        <time>2021-05-29 13:47:43</time>
      </trkpt>
      <trkpt lat="43.35648" lon="-2.48596">
        <ele>53.8</ele>
        <time>2021-05-29 13:47:44</time>
      </trkpt>
      <trkpt lat="43.35654" lon="-2.48598">
        <ele>54</ele>
        <time>2021-05-29 13:47:45</time>
      </trkpt>
      <trkpt lat="43.3566" lon="-2.486">
        <ele>54.4</ele>
        <time>2021-05-29 13:47:46</time>
      </trkpt>
      <trkpt lat="43.35666" lon="-2.486">
        <ele>54.6</ele>
        <time>2021-05-29 13:47:47</time>
      </trkpt>
      <trkpt lat="43.35672" lon="-2.486">
        <ele>55</ele>
        <time>2021-05-29 13:47:48</time>
      </trkpt>
      <trkpt lat="43.35678" lon="-2.48599">
        <ele>55.2</ele>
        <time>2021-05-29 13:47:49</time>
      </trkpt>
      <trkpt lat="43.35684" lon="-2.48599">
        <ele>55.6</ele>
        <time>2021-05-29 13:47:50</time>
      </trkpt>
      <trkpt lat="43.3569" lon="-2.486">
        <ele>56</ele>
        <time>2021-05-29 13:47:51</time>
      </trkpt>
      <trkpt lat="43.35696" lon="-2.48602">
        <ele>56.4</ele>
        <time>2021-05-29 13:47:52</time>
      </trkpt>
      <trkpt lat="43.35701" lon="-2.48605">
        <ele>56.8</ele>
        <time>2021-05-29 13:47:53</time>
      </trkpt>
      <trkpt lat="43.35707" lon="-2.48609">
        <ele>57.2</ele>
        <time>2021-05-29 13:47:54</time>
      </trkpt>
      <trkpt lat="43.35712" lon="-2.48613">
        <ele>57.6</ele>
        <time>2021-05-29 13:47:55</time>
      </trkpt>
      <trkpt lat="43.35716" lon="-2.48619">
        <ele>58</ele>
        <time>2021-05-29 13:47:56</time>
      </trkpt>
      <trkpt lat="43.35719" lon="-2.48626">
        <ele>58.4</ele>
        <time>2021-05-29 13:47:57</time>
      </trkpt>
      <trkpt lat="43.35721" lon="-2.48634">
        <ele>58.8</ele>
        <time>2021-05-29 13:47:58</time>
      </trkpt>
      <trkpt lat="43.35722" lon="-2.48644">
        <ele>59</ele>
        <time>2021-05-29 13:47:59</time>
      </trkpt>
      <trkpt lat="43.35723" lon="-2.48654">
        <ele>59.2</ele>
        <time>2021-05-29 13:48:00</time>
      </trkpt>
      <trkpt lat="43.35725" lon="-2.48665">
        <ele>59.4</ele>
        <time>2021-05-29 13:48:01</time>
      </trkpt>
      <trkpt lat="43.35729" lon="-2.48676">
        <ele>59.4</ele>
        <time>2021-05-29 13:48:02</time>
      </trkpt>
      <trkpt lat="43.35735" lon="-2.48685">
        <ele>59.4</ele>
        <time>2021-05-29 13:48:03</time>
      </trkpt>
      <trkpt lat="43.3574" lon="-2.48695">
        <ele>59.4</ele>
        <time>2021-05-29 13:48:04</time>
      </trkpt>
      <trkpt lat="43.35745" lon="-2.48706">
        <ele>59.4</ele>
        <time>2021-05-29 13:48:05</time>
      </trkpt>
      <trkpt lat="43.35748" lon="-2.48718">
        <ele>59.4</ele>
        <time>2021-05-29 13:48:06</time>
      </trkpt>
      <trkpt lat="43.35749" lon="-2.48731">
        <ele>59.4</ele>
        <time>2021-05-29 13:48:07</time>
      </trkpt>
      <trkpt lat="43.35749" lon="-2.48743">
        <ele>59.4</ele>
        <time>2021-05-29 13:48:08</time>
      </trkpt>
      <trkpt lat="43.35754" lon="-2.48754">
        <ele>59.2</ele>
        <time>2021-05-29 13:48:09</time>
      </trkpt>
      <trkpt lat="43.3576" lon="-2.48763">
        <ele>58.8</ele>
        <time>2021-05-29 13:48:10</time>
      </trkpt>
      <trkpt lat="43.35769" lon="-2.48769">
        <ele>58.6</ele>
        <time>2021-05-29 13:48:11</time>
      </trkpt>
      <trkpt lat="43.3578" lon="-2.48768">
        <ele>58.2</ele>
        <time>2021-05-29 13:48:12</time>
      </trkpt>
      <trkpt lat="43.35786" lon="-2.48762">
        <ele>58</ele>
        <time>2021-05-29 13:48:13</time>
      </trkpt>
      <trkpt lat="43.35794" lon="-2.48754">
        <ele>57.8</ele>
        <time>2021-05-29 13:48:14</time>
      </trkpt>
      <trkpt lat="43.35797" lon="-2.48747">
        <ele>57.4</ele>
        <time>2021-05-29 13:48:15</time>
      </trkpt>
      <trkpt lat="43.35803" lon="-2.48737">
        <ele>57</ele>
        <time>2021-05-29 13:48:16</time>
      </trkpt>
      <trkpt lat="43.35811" lon="-2.48729">
        <ele>56.4</ele>
        <time>2021-05-29 13:48:17</time>
      </trkpt>
      <trkpt lat="43.3582" lon="-2.48724">
        <ele>56.2</ele>
        <time>2021-05-29 13:48:18</time>
      </trkpt>
      <trkpt lat="43.35831" lon="-2.48722">
        <ele>55.8</ele>
        <time>2021-05-29 13:48:19</time>
      </trkpt>
      <trkpt lat="43.35844" lon="-2.48721">
        <ele>55.2</ele>
        <time>2021-05-29 13:48:20</time>
      </trkpt>
      <trkpt lat="43.35856" lon="-2.48722">
        <ele>54.8</ele>
        <time>2021-05-29 13:48:21</time>
      </trkpt>
      <trkpt lat="43.35867" lon="-2.48725">
        <ele>54.4</ele>
        <time>2021-05-29 13:48:22</time>
      </trkpt>
      <trkpt lat="43.35879" lon="-2.48732">
        <ele>54</ele>
        <time>2021-05-29 13:48:23</time>
      </trkpt>
      <trkpt lat="43.3589" lon="-2.4874">
        <ele>53.8</ele>
        <time>2021-05-29 13:48:24</time>
      </trkpt>
      <trkpt lat="43.359" lon="-2.48749">
        <ele>53.2</ele>
        <time>2021-05-29 13:48:25</time>
      </trkpt>
      <trkpt lat="43.35904" lon="-2.48763">
        <ele>52.8</ele>
        <time>2021-05-29 13:48:26</time>
      </trkpt>
      <trkpt lat="43.35909" lon="-2.48777">
        <ele>51.8</ele>
        <time>2021-05-29 13:48:27</time>
      </trkpt>
      <trkpt lat="43.35908" lon="-2.48791">
        <ele>51.2</ele>
        <time>2021-05-29 13:48:28</time>
      </trkpt>
      <trkpt lat="43.35906" lon="-2.48806">
        <ele>50.8</ele>
        <time>2021-05-29 13:48:29</time>
      </trkpt>
      <trkpt lat="43.35907" lon="-2.4882">
        <ele>50.6</ele>
        <time>2021-05-29 13:48:30</time>
      </trkpt>
      <trkpt lat="43.35912" lon="-2.48831">
        <ele>50.4</ele>
        <time>2021-05-29 13:48:31</time>
      </trkpt>
      <trkpt lat="43.35917" lon="-2.48841">
        <ele>49.8</ele>
        <time>2021-05-29 13:48:32</time>
      </trkpt>
      <trkpt lat="43.35926" lon="-2.48845">
        <ele>49.2</ele>
        <time>2021-05-29 13:48:33</time>
      </trkpt>
      <trkpt lat="43.35936" lon="-2.48847">
        <ele>48.8</ele>
        <time>2021-05-29 13:48:34</time>
      </trkpt>
      <trkpt lat="43.35944" lon="-2.48844">
        <ele>48.4</ele>
        <time>2021-05-29 13:48:35</time>
      </trkpt>
      <trkpt lat="43.35953" lon="-2.48844">
        <ele>47.8</ele>
        <time>2021-05-29 13:48:36</time>
      </trkpt>
      <trkpt lat="43.35961" lon="-2.48844">
        <ele>47</ele>
        <time>2021-05-29 13:48:37</time>
      </trkpt>
      <trkpt lat="43.35969" lon="-2.48846">
        <ele>46.4</ele>
        <time>2021-05-29 13:48:38</time>
      </trkpt>
      <trkpt lat="43.35976" lon="-2.4884">
        <ele>46</ele>
        <time>2021-05-29 13:48:39</time>
      </trkpt>
      <trkpt lat="43.35981" lon="-2.48829">
        <ele>45.8</ele>
        <time>2021-05-29 13:48:40</time>
      </trkpt>
      <trkpt lat="43.35985" lon="-2.48816">
        <ele>45.6</ele>
        <time>2021-05-29 13:48:41</time>
      </trkpt>
      <trkpt lat="43.35989" lon="-2.48803">
        <ele>45</ele>
        <time>2021-05-29 13:48:42</time>
      </trkpt>
      <trkpt lat="43.35996" lon="-2.48792">
        <ele>44.4</ele>
        <time>2021-05-29 13:48:43</time>
      </trkpt>
      <trkpt lat="43.36005" lon="-2.48784">
        <ele>43.8</ele>
        <time>2021-05-29 13:48:44</time>
      </trkpt>
      <trkpt lat="43.36017" lon="-2.48781">
        <ele>43.6</ele>
        <time>2021-05-29 13:48:45</time>
      </trkpt>
      <trkpt lat="43.36028" lon="-2.48783">
        <ele>43</ele>
        <time>2021-05-29 13:48:46</time>
      </trkpt>
      <trkpt lat="43.3604" lon="-2.48788">
        <ele>42.6</ele>
        <time>2021-05-29 13:48:47</time>
      </trkpt>
      <trkpt lat="43.3605" lon="-2.48796">
        <ele>42.2</ele>
        <time>2021-05-29 13:48:48</time>
      </trkpt>
      <trkpt lat="43.36061" lon="-2.48804">
        <ele>42</ele>
        <time>2021-05-29 13:48:49</time>
      </trkpt>
      <trkpt lat="43.36072" lon="-2.48812">
        <ele>41.6</ele>
        <time>2021-05-29 13:48:50</time>
      </trkpt>
      <trkpt lat="43.36083" lon="-2.48821">
        <ele>41.2</ele>
        <time>2021-05-29 13:48:51</time>
      </trkpt>
      <trkpt lat="43.36095" lon="-2.48828">
        <ele>40.8</ele>
        <time>2021-05-29 13:48:52</time>
      </trkpt>
      <trkpt lat="43.36107" lon="-2.48835">
        <ele>40.4</ele>
        <time>2021-05-29 13:48:53</time>
      </trkpt>
      <trkpt lat="43.36119" lon="-2.48842">
        <ele>40</ele>
        <time>2021-05-29 13:48:54</time>
      </trkpt>
      <trkpt lat="43.36131" lon="-2.48847">
        <ele>39.6</ele>
        <time>2021-05-29 13:48:55</time>
      </trkpt>
      <trkpt lat="43.36143" lon="-2.48851">
        <ele>38.8</ele>
        <time>2021-05-29 13:48:56</time>
      </trkpt>
      <trkpt lat="43.36156" lon="-2.48852">
        <ele>38.2</ele>
        <time>2021-05-29 13:48:57</time>
      </trkpt>
      <trkpt lat="43.36168" lon="-2.48856">
        <ele>37.8</ele>
        <time>2021-05-29 13:48:58</time>
      </trkpt>
      <trkpt lat="43.36179" lon="-2.48865">
        <ele>37.2</ele>
        <time>2021-05-29 13:48:59</time>
      </trkpt>
      <trkpt lat="43.36188" lon="-2.48876">
        <ele>36.6</ele>
        <time>2021-05-29 13:49:00</time>
      </trkpt>
      <trkpt lat="43.36196" lon="-2.48887">
        <ele>35.8</ele>
        <time>2021-05-29 13:49:01</time>
      </trkpt>
      <trkpt lat="43.36205" lon="-2.48898">
        <ele>35.2</ele>
        <time>2021-05-29 13:49:02</time>
      </trkpt>
      <trkpt lat="43.36214" lon="-2.48907">
        <ele>34.6</ele>
        <time>2021-05-29 13:49:03</time>
      </trkpt>
      <trkpt lat="43.36223" lon="-2.48916">
        <ele>33.8</ele>
        <time>2021-05-29 13:49:04</time>
      </trkpt>
      <trkpt lat="43.36232" lon="-2.48925">
        <ele>33.4</ele>
        <time>2021-05-29 13:49:05</time>
      </trkpt>
      <trkpt lat="43.36238" lon="-2.48937">
        <ele>33</ele>
        <time>2021-05-29 13:49:06</time>
      </trkpt>
      <trkpt lat="43.36242" lon="-2.4895">
        <ele>32.6</ele>
        <time>2021-05-29 13:49:07</time>
      </trkpt>
      <trkpt lat="43.36244" lon="-2.48963">
        <ele>32.2</ele>
        <time>2021-05-29 13:49:08</time>
      </trkpt>
      <trkpt lat="43.36245" lon="-2.48978">
        <ele>31.6</ele>
        <time>2021-05-29 13:49:09</time>
      </trkpt>
      <trkpt lat="43.36246" lon="-2.48993">
        <ele>31.2</ele>
        <time>2021-05-29 13:49:10</time>
      </trkpt>
      <trkpt lat="43.36246" lon="-2.49007">
        <ele>30.8</ele>
        <time>2021-05-29 13:49:11</time>
      </trkpt>
      <trkpt lat="43.36247" lon="-2.49021">
        <ele>30.2</ele>
        <time>2021-05-29 13:49:12</time>
      </trkpt>
      <trkpt lat="43.36246" lon="-2.49035">
        <ele>29.8</ele>
        <time>2021-05-29 13:49:13</time>
      </trkpt>
      <trkpt lat="43.36244" lon="-2.49049">
        <ele>29.4</ele>
        <time>2021-05-29 13:49:14</time>
      </trkpt>
      <trkpt lat="43.36241" lon="-2.49063">
        <ele>29</ele>
        <time>2021-05-29 13:49:15</time>
      </trkpt>
      <trkpt lat="43.36237" lon="-2.49076">
        <ele>28.6</ele>
        <time>2021-05-29 13:49:16</time>
      </trkpt>
      <trkpt lat="43.36232" lon="-2.49087">
        <ele>28.2</ele>
        <time>2021-05-29 13:49:17</time>
      </trkpt>
      <trkpt lat="43.36226" lon="-2.49099">
        <ele>28.2</ele>
        <time>2021-05-29 13:49:18</time>
      </trkpt>
      <trkpt lat="43.36221" lon="-2.49111">
        <ele>28</ele>
        <time>2021-05-29 13:49:19</time>
      </trkpt>
      <trkpt lat="43.36213" lon="-2.49122">
        <ele>28</ele>
        <time>2021-05-29 13:49:20</time>
      </trkpt>
      <trkpt lat="43.36205" lon="-2.49132">
        <ele>27.8</ele>
        <time>2021-05-29 13:49:21</time>
      </trkpt>
      <trkpt lat="43.36197" lon="-2.49143">
        <ele>27.8</ele>
        <time>2021-05-29 13:49:22</time>
      </trkpt>
      <trkpt lat="43.36189" lon="-2.49155">
        <ele>27.8</ele>
        <time>2021-05-29 13:49:23</time>
      </trkpt>
      <trkpt lat="43.36183" lon="-2.49168">
        <ele>27.6</ele>
        <time>2021-05-29 13:49:24</time>
      </trkpt>
      <trkpt lat="43.36178" lon="-2.49182">
        <ele>27.4</ele>
        <time>2021-05-29 13:49:25</time>
      </trkpt>
      <trkpt lat="43.36173" lon="-2.49196">
        <ele>27</ele>
        <time>2021-05-29 13:49:26</time>
      </trkpt>
      <trkpt lat="43.36168" lon="-2.4921">
        <ele>26.4</ele>
        <time>2021-05-29 13:49:27</time>
      </trkpt>
      <trkpt lat="43.36163" lon="-2.49223">
        <ele>25.6</ele>
        <time>2021-05-29 13:49:28</time>
      </trkpt>
      <trkpt lat="43.36157" lon="-2.49237">
        <ele>25</ele>
        <time>2021-05-29 13:49:29</time>
      </trkpt>
      <trkpt lat="43.36153" lon="-2.49251">
        <ele>24.2</ele>
        <time>2021-05-29 13:49:30</time>
      </trkpt>
      <trkpt lat="43.3615" lon="-2.49266">
        <ele>23.4</ele>
        <time>2021-05-29 13:49:31</time>
      </trkpt>
      <trkpt lat="43.3615" lon="-2.49281">
        <ele>23.2</ele>
        <time>2021-05-29 13:49:32</time>
      </trkpt>
      <trkpt lat="43.36151" lon="-2.49296">
        <ele>22.8</ele>
        <time>2021-05-29 13:49:33</time>
      </trkpt>
      <trkpt lat="43.36152" lon="-2.49311">
        <ele>22.4</ele>
        <time>2021-05-29 13:49:34</time>
      </trkpt>
      <trkpt lat="43.36152" lon="-2.49325">
        <ele>22</ele>
        <time>2021-05-29 13:49:35</time>
      </trkpt>
      <trkpt lat="43.3615" lon="-2.49339">
        <ele>21</ele>
        <time>2021-05-29 13:49:36</time>
      </trkpt>
      <trkpt lat="43.36149" lon="-2.49353">
        <ele>20.6</ele>
        <time>2021-05-29 13:49:37</time>
      </trkpt>
      <trkpt lat="43.36148" lon="-2.49368">
        <ele>20</ele>
        <time>2021-05-29 13:49:38</time>
      </trkpt>
      <trkpt lat="43.36147" lon="-2.49383">
        <ele>19.4</ele>
        <time>2021-05-29 13:49:39</time>
      </trkpt>
      <trkpt lat="43.36146" lon="-2.49398">
        <ele>19.2</ele>
        <time>2021-05-29 13:49:40</time>
      </trkpt>
      <trkpt lat="43.36143" lon="-2.49412">
        <ele>18.6</ele>
        <time>2021-05-29 13:49:41</time>
      </trkpt>
      <trkpt lat="43.36142" lon="-2.49425">
        <ele>18.2</ele>
        <time>2021-05-29 13:49:42</time>
      </trkpt>
      <trkpt lat="43.36146" lon="-2.49437">
        <ele>18</ele>
        <time>2021-05-29 13:49:43</time>
      </trkpt>
      <trkpt lat="43.36152" lon="-2.49448">
        <ele>17.4</ele>
        <time>2021-05-29 13:49:44</time>
      </trkpt>
      <trkpt lat="43.36158" lon="-2.49458">
        <ele>17.2</ele>
        <time>2021-05-29 13:49:45</time>
      </trkpt>
      <trkpt lat="43.36164" lon="-2.49469">
        <ele>16.8</ele>
        <time>2021-05-29 13:49:46</time>
      </trkpt>
      <trkpt lat="43.3617" lon="-2.49482">
        <ele>16.6</ele>
        <time>2021-05-29 13:49:47</time>
      </trkpt>
      <trkpt lat="43.36173" lon="-2.49496">
        <ele>16.2</ele>
        <time>2021-05-29 13:49:48</time>
      </trkpt>
      <trkpt lat="43.36175" lon="-2.49511">
        <ele>16</ele>
        <time>2021-05-29 13:49:49</time>
      </trkpt>
      <trkpt lat="43.36178" lon="-2.49526">
        <ele>15.6</ele>
        <time>2021-05-29 13:49:50</time>
      </trkpt>
      <trkpt lat="43.36182" lon="-2.4954">
        <ele>15.4</ele>
        <time>2021-05-29 13:49:51</time>
      </trkpt>
      <trkpt lat="43.36188" lon="-2.49553">
        <ele>15</ele>
        <time>2021-05-29 13:49:52</time>
      </trkpt>
      <trkpt lat="43.36196" lon="-2.49565">
        <ele>14.6</ele>
        <time>2021-05-29 13:49:53</time>
      </trkpt>
      <trkpt lat="43.36204" lon="-2.49576">
        <ele>14.2</ele>
        <time>2021-05-29 13:49:54</time>
      </trkpt>
      <trkpt lat="43.36212" lon="-2.49586">
        <ele>14</ele>
        <time>2021-05-29 13:49:55</time>
      </trkpt>
      <trkpt lat="43.36222" lon="-2.49596">
        <ele>13.6</ele>
        <time>2021-05-29 13:49:56</time>
      </trkpt>
      <trkpt lat="43.36231" lon="-2.49606">
        <ele>13.2</ele>
        <time>2021-05-29 13:49:57</time>
      </trkpt>
      <trkpt lat="43.3624" lon="-2.49615">
        <ele>12.8</ele>
        <time>2021-05-29 13:49:58</time>
      </trkpt>
      <trkpt lat="43.3625" lon="-2.49624">
        <ele>12.4</ele>
        <time>2021-05-29 13:49:59</time>
      </trkpt>
      <trkpt lat="43.3626" lon="-2.49633">
        <ele>12</ele>
        <time>2021-05-29 13:50:00</time>
      </trkpt>
      <trkpt lat="43.36269" lon="-2.49641">
        <ele>11.6</ele>
        <time>2021-05-29 13:50:01</time>
      </trkpt>
      <trkpt lat="43.36279" lon="-2.49649">
        <ele>11</ele>
        <time>2021-05-29 13:50:02</time>
      </trkpt>
      <trkpt lat="43.36289" lon="-2.49656">
        <ele>10.6</ele>
        <time>2021-05-29 13:50:03</time>
      </trkpt>
      <trkpt lat="43.36298" lon="-2.49664">
        <ele>10.2</ele>
        <time>2021-05-29 13:50:04</time>
      </trkpt>
      <trkpt lat="43.36307" lon="-2.49671">
        <ele>9.8</ele>
        <time>2021-05-29 13:50:05</time>
      </trkpt>
      <trkpt lat="43.36314" lon="-2.4968">
        <ele>9.4</ele>
        <time>2021-05-29 13:50:06</time>
      </trkpt>
      <trkpt lat="43.36321" lon="-2.4969">
        <ele>9</ele>
        <time>2021-05-29 13:50:07</time>
      </trkpt>
      <trkpt lat="43.36325" lon="-2.49702">
        <ele>8.4</ele>
        <time>2021-05-29 13:50:08</time>
      </trkpt>
      <trkpt lat="43.36325" lon="-2.49714">
        <ele>8</ele>
        <time>2021-05-29 13:50:09</time>
      </trkpt>
      <trkpt lat="43.36323" lon="-2.49726">
        <ele>7.4</ele>
        <time>2021-05-29 13:50:10</time>
      </trkpt>
      <trkpt lat="43.3632" lon="-2.49736">
        <ele>7.4</ele>
        <time>2021-05-29 13:50:11</time>
      </trkpt>
      <trkpt lat="43.36311" lon="-2.49743">
        <ele>7</ele>
        <time>2021-05-29 13:50:12</time>
      </trkpt>
      <trkpt lat="43.363" lon="-2.49746">
        <ele>6.6</ele>
        <time>2021-05-29 13:50:13</time>
      </trkpt>
      <trkpt lat="43.3629" lon="-2.49743">
        <ele>6</ele>
        <time>2021-05-29 13:50:14</time>
      </trkpt>
      <trkpt lat="43.36281" lon="-2.49739">
        <ele>5.6</ele>
        <time>2021-05-29 13:50:15</time>
      </trkpt>
      <trkpt lat="43.36271" lon="-2.49733">
        <ele>5.2</ele>
        <time>2021-05-29 13:50:16</time>
      </trkpt>
      <trkpt lat="43.3626" lon="-2.49727">
        <ele>4.4</ele>
        <time>2021-05-29 13:50:17</time>
      </trkpt>
      <trkpt lat="43.3625" lon="-2.4972">
        <ele>3.8</ele>
        <time>2021-05-29 13:50:18</time>
      </trkpt>
      <trkpt lat="43.3624" lon="-2.49714">
        <ele>3.2</ele>
        <time>2021-05-29 13:50:19</time>
      </trkpt>
      <trkpt lat="43.36229" lon="-2.49707">
        <ele>2.8</ele>
        <time>2021-05-29 13:50:20</time>
      </trkpt>
      <trkpt lat="43.36219" lon="-2.497">
        <ele>2.4</ele>
        <time>2021-05-29 13:50:21</time>
      </trkpt>
      <trkpt lat="43.36209" lon="-2.49695">
        <ele>2</ele>
        <time>2021-05-29 13:50:22</time>
      </trkpt>
      <trkpt lat="43.36198" lon="-2.49689">
        <ele>1.6</ele>
        <time>2021-05-29 13:50:23</time>
      </trkpt>
      <trkpt lat="43.36187" lon="-2.49685">
        <ele>1.2</ele>
        <time>2021-05-29 13:50:24</time>
      </trkpt>
      <trkpt lat="43.36176" lon="-2.49682">
        <ele>0.8</ele>
        <time>2021-05-29 13:50:25</time>
      </trkpt>
      <trkpt lat="43.36164" lon="-2.4968">
        <ele>0.2</ele>
        <time>2021-05-29 13:50:26</time>
      </trkpt>
      <trkpt lat="43.36152" lon="-2.4968">
        <ele>-0.2</ele>
        <time>2021-05-29 13:50:27</time>
      </trkpt>
      <trkpt lat="43.36141" lon="-2.49683">
        <ele>-0.6</ele>
        <time>2021-05-29 13:50:28</time>
      </trkpt>
      <trkpt lat="43.36131" lon="-2.49689">
        <ele>-1.2</ele>
        <time>2021-05-29 13:50:29</time>
      </trkpt>
      <trkpt lat="43.36121" lon="-2.49695">
        <ele>-1.6</ele>
        <time>2021-05-29 13:50:30</time>
      </trkpt>
      <trkpt lat="43.36112" lon="-2.49704">
        <ele>-2.2</ele>
        <time>2021-05-29 13:50:31</time>
      </trkpt>
      <trkpt lat="43.36104" lon="-2.49715">
        <ele>-2.6</ele>
        <time>2021-05-29 13:50:32</time>
      </trkpt>
      <trkpt lat="43.36097" lon="-2.49728">
        <ele>-3</ele>
        <time>2021-05-29 13:50:33</time>
      </trkpt>
      <trkpt lat="43.36093" lon="-2.49743">
        <ele>-3.6</ele>
        <time>2021-05-29 13:50:34</time>
      </trkpt>
      <trkpt lat="43.36089" lon="-2.49758">
        <ele>-4</ele>
        <time>2021-05-29 13:50:35</time>
      </trkpt>
      <trkpt lat="43.36085" lon="-2.49772">
        <ele>-4.4</ele>
        <time>2021-05-29 13:50:36</time>
      </trkpt>
      <trkpt lat="43.3608" lon="-2.49784">
        <ele>-5</ele>
        <time>2021-05-29 13:50:37</time>
      </trkpt>
      <trkpt lat="43.36076" lon="-2.49796">
        <ele>-5.2</ele>
        <time>2021-05-29 13:50:38</time>
      </trkpt>
      <trkpt lat="43.3607" lon="-2.49806">
        <ele>-5.8</ele>
        <time>2021-05-29 13:50:39</time>
      </trkpt>
      <trkpt lat="43.36063" lon="-2.49813">
        <ele>-6.2</ele>
        <time>2021-05-29 13:50:40</time>
      </trkpt>
      <trkpt lat="43.36055" lon="-2.49821">
        <ele>-6.4</ele>
        <time>2021-05-29 13:50:41</time>
      </trkpt>
      <trkpt lat="43.36048" lon="-2.49826">
        <ele>-6.6</ele>
        <time>2021-05-29 13:50:42</time>
      </trkpt>
      <trkpt lat="43.36042" lon="-2.49832">
        <ele>-6.6</ele>
        <time>2021-05-29 13:50:43</time>
      </trkpt>
      <trkpt lat="43.36038" lon="-2.4984">
        <ele>-6.6</ele>
        <time>2021-05-29 13:50:44</time>
      </trkpt>
      <trkpt lat="43.36037" lon="-2.49849">
        <ele>-6.6</ele>
        <time>2021-05-29 13:50:45</time>
      </trkpt>
      <trkpt lat="43.36038" lon="-2.49858">
        <ele>-6.6</ele>
        <time>2021-05-29 13:50:46</time>
      </trkpt>
      <trkpt lat="43.3604" lon="-2.49868">
        <ele>-6.6</ele>
        <time>2021-05-29 13:50:47</time>
      </trkpt>
      <trkpt lat="43.36042" lon="-2.49876">
        <ele>-6.6</ele>
        <time>2021-05-29 13:50:48</time>
      </trkpt>
      <trkpt lat="43.36044" lon="-2.49883">
        <ele>-6.6</ele>
        <time>2021-05-29 13:50:49</time>
      </trkpt>
      <trkpt lat="43.36045" lon="-2.4989">
        <ele>-6.6</ele>
        <time>2021-05-29 13:50:50</time>
      </trkpt>
      <trkpt lat="43.36047" lon="-2.49898">
        <ele>-6.2</ele>
        <time>2021-05-29 13:50:51</time>
      </trkpt>
      <trkpt lat="43.36049" lon="-2.49905">
        <ele>-5.8</ele>
        <time>2021-05-29 13:50:52</time>
      </trkpt>
      <trkpt lat="43.36052" lon="-2.49913">
        <ele>-5.2</ele>
        <time>2021-05-29 13:50:53</time>
      </trkpt>
      <trkpt lat="43.36057" lon="-2.49918">
        <ele>-4.8</ele>
        <time>2021-05-29 13:50:54</time>
      </trkpt>
      <trkpt lat="43.36063" lon="-2.49921">
        <ele>-4.8</ele>
        <time>2021-05-29 13:50:55</time>
      </trkpt>
      <trkpt lat="43.3607" lon="-2.49922">
        <ele>-4.8</ele>
        <time>2021-05-29 13:50:56</time>
      </trkpt>
      <trkpt lat="43.36078" lon="-2.49919">
        <ele>-4.6</ele>
        <time>2021-05-29 13:50:57</time>
      </trkpt>
      <trkpt lat="43.36085" lon="-2.49915">
        <ele>-4.6</ele>
        <time>2021-05-29 13:50:58</time>
      </trkpt>
      <trkpt lat="43.36093" lon="-2.49912">
        <ele>-4.6</ele>
        <time>2021-05-29 13:50:59</time>
      </trkpt>
      <trkpt lat="43.361" lon="-2.49908">
        <ele>-4.6</ele>
        <time>2021-05-29 13:51:00</time>
      </trkpt>
      <trkpt lat="43.36108" lon="-2.49906">
        <ele>-4.6</ele>
        <time>2021-05-29 13:51:01</time>
      </trkpt>
      <trkpt lat="43.36115" lon="-2.49904">
        <ele>-4.6</ele>
        <time>2021-05-29 13:51:02</time>
      </trkpt>
      <trkpt lat="43.36122" lon="-2.49904">
        <ele>-4.8</ele>
        <time>2021-05-29 13:51:03</time>
      </trkpt>
      <trkpt lat="43.3613" lon="-2.49905">
        <ele>-5.2</ele>
        <time>2021-05-29 13:51:04</time>
      </trkpt>
      <trkpt lat="43.36137" lon="-2.49906">
        <ele>-5.4</ele>
        <time>2021-05-29 13:51:05</time>
      </trkpt>
      <trkpt lat="43.36144" lon="-2.49908">
        <ele>-5.6</ele>
        <time>2021-05-29 13:51:06</time>
      </trkpt>
      <trkpt lat="43.36151" lon="-2.49912">
        <ele>-6</ele>
        <time>2021-05-29 13:51:07</time>
      </trkpt>
      <trkpt lat="43.36157" lon="-2.49916">
        <ele>-6.2</ele>
        <time>2021-05-29 13:51:08</time>
      </trkpt>
      <trkpt lat="43.36164" lon="-2.49922">
        <ele>-6.2</ele>
        <time>2021-05-29 13:51:09</time>
      </trkpt>
      <trkpt lat="43.36171" lon="-2.49928">
        <ele>-6.2</ele>
        <time>2021-05-29 13:51:10</time>
      </trkpt>
      <trkpt lat="43.36177" lon="-2.49933">
        <ele>-6.2</ele>
        <time>2021-05-29 13:51:11</time>
      </trkpt>
      <trkpt lat="43.36184" lon="-2.49938">
        <ele>-6.2</ele>
        <time>2021-05-29 13:51:12</time>
      </trkpt>
      <trkpt lat="43.3619" lon="-2.49943">
        <ele>-6.2</ele>
        <time>2021-05-29 13:51:13</time>
      </trkpt>
      <trkpt lat="43.36195" lon="-2.49948">
        <ele>-6.2</ele>
        <time>2021-05-29 13:51:14</time>
      </trkpt>
      <trkpt lat="43.36198" lon="-2.49954">
        <ele>-6.2</ele>
        <time>2021-05-29 13:51:15</time>
      </trkpt>
      <trkpt lat="43.36201" lon="-2.49961">
        <ele>-6.2</ele>
        <time>2021-05-29 13:51:16</time>
      </trkpt>
      <trkpt lat="43.36204" lon="-2.49968">
        <ele>-6.2</ele>
        <time>2021-05-29 13:51:17</time>
      </trkpt>
      <trkpt lat="43.36206" lon="-2.49976">
        <ele>-6.2</ele>
        <time>2021-05-29 13:51:18</time>
      </trkpt>
      <trkpt lat="43.3621" lon="-2.49984">
        <ele>-5.6</ele>
        <time>2021-05-29 13:51:19</time>
      </trkpt>
      <trkpt lat="43.36213" lon="-2.49992">
        <ele>-5.6</ele>
        <time>2021-05-29 13:51:20</time>
      </trkpt>
      <trkpt lat="43.36217" lon="-2.49999">
        <ele>-5.6</ele>
        <time>2021-05-29 13:51:21</time>
      </trkpt>
      <trkpt lat="43.3622" lon="-2.50007">
        <ele>-5.4</ele>
        <time>2021-05-29 13:51:22</time>
      </trkpt>
      <trkpt lat="43.36223" lon="-2.50015">
        <ele>-5.4</ele>
        <time>2021-05-29 13:51:23</time>
      </trkpt>
      <trkpt lat="43.36226" lon="-2.50023">
        <ele>-5.2</ele>
        <time>2021-05-29 13:51:24</time>
      </trkpt>
      <trkpt lat="43.36229" lon="-2.50032">
        <ele>-5</ele>
        <time>2021-05-29 13:51:25</time>
      </trkpt>
      <trkpt lat="43.36232" lon="-2.5004">
        <ele>-4.8</ele>
        <time>2021-05-29 13:51:26</time>
      </trkpt>
      <trkpt lat="43.36236" lon="-2.50048">
        <ele>-4.6</ele>
        <time>2021-05-29 13:51:27</time>
      </trkpt>
      <trkpt lat="43.36241" lon="-2.50056">
        <ele>-4.6</ele>
        <time>2021-05-29 13:51:28</time>
      </trkpt>
      <trkpt lat="43.36245" lon="-2.50063">
        <ele>-4.6</ele>
        <time>2021-05-29 13:51:29</time>
      </trkpt>
      <trkpt lat="43.3625" lon="-2.50071">
        <ele>-4.4</ele>
        <time>2021-05-29 13:51:30</time>
      </trkpt>
      <trkpt lat="43.36255" lon="-2.50079">
        <ele>-4.4</ele>
        <time>2021-05-29 13:51:31</time>
      </trkpt>
      <trkpt lat="43.36261" lon="-2.50087">
        <ele>-4.4</ele>
        <time>2021-05-29 13:51:32</time>
      </trkpt>
      <trkpt lat="43.36265" lon="-2.50096">
        <ele>-4.4</ele>
        <time>2021-05-29 13:51:33</time>
      </trkpt>
      <trkpt lat="43.3627" lon="-2.50104">
        <ele>-4.4</ele>
        <time>2021-05-29 13:51:34</time>
      </trkpt>
      <trkpt lat="43.36274" lon="-2.50114">
        <ele>-4.4</ele>
        <time>2021-05-29 13:51:35</time>
      </trkpt>
      <trkpt lat="43.36275" lon="-2.50125">
        <ele>-4.4</ele>
        <time>2021-05-29 13:51:36</time>
      </trkpt>
      <trkpt lat="43.36278" lon="-2.50136">
        <ele>-4.4</ele>
        <time>2021-05-29 13:51:37</time>
      </trkpt>
      <trkpt lat="43.36281" lon="-2.50147">
        <ele>-4.6</ele>
        <time>2021-05-29 13:51:38</time>
      </trkpt>
      <trkpt lat="43.36285" lon="-2.50159">
        <ele>-4.8</ele>
        <time>2021-05-29 13:51:39</time>
      </trkpt>
      <trkpt lat="43.36288" lon="-2.50171">
        <ele>-5.2</ele>
        <time>2021-05-29 13:51:40</time>
      </trkpt>
      <trkpt lat="43.36292" lon="-2.50183">
        <ele>-5.8</ele>
        <time>2021-05-29 13:51:41</time>
      </trkpt>
      <trkpt lat="43.36296" lon="-2.50195">
        <ele>-6.4</ele>
        <time>2021-05-29 13:51:42</time>
      </trkpt>
      <trkpt lat="43.363" lon="-2.50208">
        <ele>-6.8</ele>
        <time>2021-05-29 13:51:43</time>
      </trkpt>
      <trkpt lat="43.36305" lon="-2.50221">
        <ele>-7.2</ele>
        <time>2021-05-29 13:51:44</time>
      </trkpt>
      <trkpt lat="43.36307" lon="-2.50234">
        <ele>-7.6</ele>
        <time>2021-05-29 13:51:45</time>
      </trkpt>
      <trkpt lat="43.36309" lon="-2.50247">
        <ele>-8</ele>
        <time>2021-05-29 13:51:46</time>
      </trkpt>
      <trkpt lat="43.36309" lon="-2.5026">
        <ele>-8.4</ele>
        <time>2021-05-29 13:51:47</time>
      </trkpt>
      <trkpt lat="43.36309" lon="-2.50271">
        <ele>-8.8</ele>
        <time>2021-05-29 13:51:48</time>
      </trkpt>
      <trkpt lat="43.3631" lon="-2.50281">
        <ele>-9.2</ele>
        <time>2021-05-29 13:51:49</time>
      </trkpt>
      <trkpt lat="43.36311" lon="-2.50291">
        <ele>-9.8</ele>
        <time>2021-05-29 13:51:50</time>
      </trkpt>
      <trkpt lat="43.36315" lon="-2.50299">
        <ele>-10</ele>
        <time>2021-05-29 13:51:51</time>
      </trkpt>
      <trkpt lat="43.36319" lon="-2.50306">
        <ele>-10.2</ele>
        <time>2021-05-29 13:51:52</time>
      </trkpt>
      <trkpt lat="43.36323" lon="-2.50313">
        <ele>-10.4</ele>
        <time>2021-05-29 13:51:53</time>
      </trkpt>
      <trkpt lat="43.36327" lon="-2.50319">
        <ele>-10.4</ele>
        <time>2021-05-29 13:51:54</time>
      </trkpt>
      <trkpt lat="43.36332" lon="-2.50325">
        <ele>-10.4</ele>
        <time>2021-05-29 13:51:55</time>
      </trkpt>
      <trkpt lat="43.36337" lon="-2.50332">
        <ele>-10.4</ele>
        <time>2021-05-29 13:51:56</time>
      </trkpt>
      <trkpt lat="43.36342" lon="-2.50338">
        <ele>-10.4</ele>
        <time>2021-05-29 13:51:57</time>
      </trkpt>
      <trkpt lat="43.36346" lon="-2.50344">
        <ele>-10.4</ele>
        <time>2021-05-29 13:51:58</time>
      </trkpt>
      <trkpt lat="43.3635" lon="-2.5035">
        <ele>-10.2</ele>
        <time>2021-05-29 13:51:59</time>
      </trkpt>
      <trkpt lat="43.36354" lon="-2.50356">
        <ele>-10</ele>
        <time>2021-05-29 13:52:00</time>
      </trkpt>
      <trkpt lat="43.36358" lon="-2.50363">
        <ele>-10</ele>
        <time>2021-05-29 13:52:01</time>
      </trkpt>
      <trkpt lat="43.36363" lon="-2.50369">
        <ele>-10</ele>
        <time>2021-05-29 13:52:02</time>
      </trkpt>
      <trkpt lat="43.3639" lon="-2.50433">
        <ele>-8.8</ele>
        <time>2021-05-29 13:52:03</time>
      </trkpt>
      <trkpt lat="43.36392" lon="-2.5044">
        <ele>-8.8</ele>
        <time>2021-05-29 13:52:04</time>
      </trkpt>
      <trkpt lat="43.36395" lon="-2.50447">
        <ele>-8.8</ele>
        <time>2021-05-29 13:52:05</time>
      </trkpt>
      <trkpt lat="43.36398" lon="-2.50454">
        <ele>-8.6</ele>
        <time>2021-05-29 13:52:06</time>
      </trkpt>
      <trkpt lat="43.364" lon="-2.5046">
        <ele>-8.4</ele>
        <time>2021-05-29 13:52:07</time>
      </trkpt>
      <trkpt lat="43.36403" lon="-2.50465">
        <ele>-8.4</ele>
        <time>2021-05-29 13:52:08</time>
      </trkpt>
      <trkpt lat="43.36405" lon="-2.50469">
        <ele>-8.2</ele>
        <time>2021-05-29 13:52:09</time>
      </trkpt>
      <trkpt lat="43.36406" lon="-2.50474">
        <ele>-8</ele>
        <time>2021-05-29 13:52:10</time>
      </trkpt>
      <trkpt lat="43.36408" lon="-2.50479">
        <ele>-7.8</ele>
        <time>2021-05-29 13:52:11</time>
      </trkpt>
      <trkpt lat="43.36411" lon="-2.50486">
        <ele>-7.8</ele>
        <time>2021-05-29 13:52:12</time>
      </trkpt>
      <trkpt lat="43.36414" lon="-2.50492">
        <ele>-7.6</ele>
        <time>2021-05-29 13:52:13</time>
      </trkpt>
      <trkpt lat="43.36417" lon="-2.50499">
        <ele>-7.4</ele>
        <time>2021-05-29 13:52:14</time>
      </trkpt>
      <trkpt lat="43.36419" lon="-2.50507">
        <ele>-7.2</ele>
        <time>2021-05-29 13:52:15</time>
      </trkpt>
      <trkpt lat="43.36421" lon="-2.50515">
        <ele>-6.8</ele>
        <time>2021-05-29 13:52:16</time>
      </trkpt>
      <trkpt lat="43.36422" lon="-2.50523">
        <ele>-6.8</ele>
        <time>2021-05-29 13:52:17</time>
      </trkpt>
      <trkpt lat="43.36424" lon="-2.50531">
        <ele>-6.6</ele>
        <time>2021-05-29 13:52:18</time>
      </trkpt>
      <trkpt lat="43.36424" lon="-2.50538">
        <ele>-6.6</ele>
        <time>2021-05-29 13:52:19</time>
      </trkpt>
      <trkpt lat="43.36425" lon="-2.50545">
        <ele>-6.4</ele>
        <time>2021-05-29 13:52:20</time>
      </trkpt>
      <trkpt lat="43.36425" lon="-2.50553">
        <ele>-6</ele>
        <time>2021-05-29 13:52:29</time>
      </trkpt>
      <trkpt lat="43.36425" lon="-2.5056">
        <ele>-6</ele>
        <time>2021-05-29 13:52:30</time>
      </trkpt>
      <trkpt lat="43.36424" lon="-2.50567">
        <ele>-5.6</ele>
        <time>2021-05-29 13:52:31</time>
      </trkpt>
      <trkpt lat="43.36423" lon="-2.50574">
        <ele>-5.6</ele>
        <time>2021-05-29 13:52:32</time>
      </trkpt>
      <trkpt lat="43.36422" lon="-2.50581">
        <ele>-5.4</ele>
        <time>2021-05-29 13:52:33</time>
      </trkpt>
      <trkpt lat="43.36421" lon="-2.50588">
        <ele>-5.2</ele>
        <time>2021-05-29 13:52:34</time>
      </trkpt>
      <trkpt lat="43.36419" lon="-2.50594">
        <ele>-5</ele>
        <time>2021-05-29 13:52:35</time>
      </trkpt>
      <trkpt lat="43.36418" lon="-2.50601">
        <ele>-4.8</ele>
        <time>2021-05-29 13:52:36</time>
      </trkpt>
      <trkpt lat="43.36418" lon="-2.50606">
        <ele>-4.6</ele>
        <time>2021-05-29 13:52:37</time>
      </trkpt>
      <trkpt lat="43.36417" lon="-2.50612">
        <ele>-4.4</ele>
        <time>2021-05-29 13:52:38</time>
      </trkpt>
      <trkpt lat="43.36416" lon="-2.50619">
        <ele>-4</ele>
        <time>2021-05-29 13:52:39</time>
      </trkpt>
      <trkpt lat="43.36416" lon="-2.50626">
        <ele>-3.6</ele>
        <time>2021-05-29 13:52:40</time>
      </trkpt>
      <trkpt lat="43.36415" lon="-2.50632">
        <ele>-3.4</ele>
        <time>2021-05-29 13:52:41</time>
      </trkpt>
      <trkpt lat="43.36417" lon="-2.50639">
        <ele>-3</ele>
        <time>2021-05-29 13:52:42</time>
      </trkpt>
      <trkpt lat="43.36416" lon="-2.50645">
        <ele>-2.8</ele>
        <time>2021-05-29 13:52:43</time>
      </trkpt>
      <trkpt lat="43.36419" lon="-2.50651">
        <ele>-2.4</ele>
        <time>2021-05-29 13:52:44</time>
      </trkpt>
      <trkpt lat="43.3642" lon="-2.50658">
        <ele>-2.2</ele>
        <time>2021-05-29 13:52:45</time>
      </trkpt>
      <trkpt lat="43.36419" lon="-2.50666">
        <ele>-1.8</ele>
        <time>2021-05-29 13:52:46</time>
      </trkpt>
      <trkpt lat="43.36418" lon="-2.50673">
        <ele>-1.4</ele>
        <time>2021-05-29 13:52:47</time>
      </trkpt>
      <trkpt lat="43.36417" lon="-2.50682">
        <ele>-1.2</ele>
        <time>2021-05-29 13:52:48</time>
      </trkpt>
      <trkpt lat="43.36416" lon="-2.50689">
        <ele>-0.8</ele>
        <time>2021-05-29 13:52:49</time>
      </trkpt>
      <trkpt lat="43.36417" lon="-2.50695">
        <ele>-0.6</ele>
        <time>2021-05-29 13:52:50</time>
      </trkpt>
      <trkpt lat="43.36416" lon="-2.507">
        <ele>-0.2</ele>
        <time>2021-05-29 13:52:51</time>
      </trkpt>
      <trkpt lat="43.36416" lon="-2.50705">
        <ele>0.2</ele>
        <time>2021-05-29 13:52:52</time>
      </trkpt>
      <trkpt lat="43.36416" lon="-2.50711">
        <ele>0.6</ele>
        <time>2021-05-29 13:52:53</time>
      </trkpt>
      <trkpt lat="43.36416" lon="-2.50716">
        <ele>0.8</ele>
        <time>2021-05-29 13:52:54</time>
      </trkpt>
      <trkpt lat="43.36418" lon="-2.50722">
        <ele>1.4</ele>
        <time>2021-05-29 13:52:55</time>
      </trkpt>
      <trkpt lat="43.36419" lon="-2.50727">
        <ele>1.8</ele>
        <time>2021-05-29 13:52:56</time>
      </trkpt>
      <trkpt lat="43.36418" lon="-2.50732">
        <ele>2</ele>
        <time>2021-05-29 13:52:57</time>
      </trkpt>
      <trkpt lat="43.36418" lon="-2.50738">
        <ele>2.4</ele>
        <time>2021-05-29 13:52:58</time>
      </trkpt>
      <trkpt lat="43.36418" lon="-2.50745">
        <ele>2.6</ele>
        <time>2021-05-29 13:52:59</time>
      </trkpt>
      <trkpt lat="43.36418" lon="-2.50752">
        <ele>2.8</ele>
        <time>2021-05-29 13:53:00</time>
      </trkpt>
      <trkpt lat="43.36417" lon="-2.50758">
        <ele>3.2</ele>
        <time>2021-05-29 13:53:01</time>
      </trkpt>
      <trkpt lat="43.36415" lon="-2.50763">
        <ele>3.6</ele>
        <time>2021-05-29 13:53:02</time>
      </trkpt>
      <trkpt lat="43.36415" lon="-2.50769">
        <ele>3.8</ele>
        <time>2021-05-29 13:53:03</time>
      </trkpt>
      <trkpt lat="43.36414" lon="-2.50774">
        <ele>4.2</ele>
        <time>2021-05-29 13:53:04</time>
      </trkpt>
      <trkpt lat="43.36414" lon="-2.50778">
        <ele>4.8</ele>
        <time>2021-05-29 13:53:05</time>
      </trkpt>
      <trkpt lat="43.36414" lon="-2.50782">
        <ele>5</ele>
        <time>2021-05-29 13:53:06</time>
      </trkpt>
      <trkpt lat="43.36414" lon="-2.50788">
        <ele>5.4</ele>
        <time>2021-05-29 13:53:07</time>
      </trkpt>
      <trkpt lat="43.36413" lon="-2.50792">
        <ele>5.6</ele>
        <time>2021-05-29 13:53:08</time>
      </trkpt>
      <trkpt lat="43.36411" lon="-2.50797">
        <ele>5.8</ele>
        <time>2021-05-29 13:53:09</time>
      </trkpt>
      <trkpt lat="43.3641" lon="-2.50803">
        <ele>6</ele>
        <time>2021-05-29 13:53:10</time>
      </trkpt>
      <trkpt lat="43.36408" lon="-2.50808">
        <ele>6.2</ele>
        <time>2021-05-29 13:53:11</time>
      </trkpt>
      <trkpt lat="43.36405" lon="-2.50814">
        <ele>6.6</ele>
        <time>2021-05-29 13:53:12</time>
      </trkpt>
      <trkpt lat="43.36402" lon="-2.50821">
        <ele>6.8</ele>
        <time>2021-05-29 13:53:13</time>
      </trkpt>
      <trkpt lat="43.36397" lon="-2.5083">
        <ele>7</ele>
        <time>2021-05-29 13:53:14</time>
      </trkpt>
      <trkpt lat="43.36393" lon="-2.50838">
        <ele>7.2</ele>
        <time>2021-05-29 13:53:15</time>
      </trkpt>
      <trkpt lat="43.3639" lon="-2.50845">
        <ele>7.2</ele>
        <time>2021-05-29 13:53:16</time>
      </trkpt>
      <trkpt lat="43.36387" lon="-2.50852">
        <ele>7.4</ele>
        <time>2021-05-29 13:53:17</time>
      </trkpt>
      <trkpt lat="43.36383" lon="-2.50857">
        <ele>7.8</ele>
        <time>2021-05-29 13:53:18</time>
      </trkpt>
      <trkpt lat="43.3638" lon="-2.50861">
        <ele>8</ele>
        <time>2021-05-29 13:53:19</time>
      </trkpt>
      <trkpt lat="43.36377" lon="-2.50866">
        <ele>8.4</ele>
        <time>2021-05-29 13:53:20</time>
      </trkpt>
      <trkpt lat="43.36374" lon="-2.50869">
        <ele>8.6</ele>
        <time>2021-05-29 13:53:21</time>
      </trkpt>
      <trkpt lat="43.36371" lon="-2.50875">
        <ele>9</ele>
        <time>2021-05-29 13:53:22</time>
      </trkpt>
      <trkpt lat="43.36367" lon="-2.50879">
        <ele>9</ele>
        <time>2021-05-29 13:53:23</time>
      </trkpt>
      <trkpt lat="43.36362" lon="-2.50883">
        <ele>9.2</ele>
        <time>2021-05-29 13:53:24</time>
      </trkpt>
      <trkpt lat="43.36357" lon="-2.50888">
        <ele>9.4</ele>
        <time>2021-05-29 13:53:25</time>
      </trkpt>
      <trkpt lat="43.36353" lon="-2.50892">
        <ele>9.8</ele>
        <time>2021-05-29 13:53:26</time>
      </trkpt>
      <trkpt lat="43.36349" lon="-2.50896">
        <ele>10.2</ele>
        <time>2021-05-29 13:53:27</time>
      </trkpt>
      <trkpt lat="43.36345" lon="-2.509">
        <ele>10.4</ele>
        <time>2021-05-29 13:53:28</time>
      </trkpt>
      <trkpt lat="43.3634" lon="-2.50905">
        <ele>10.8</ele>
        <time>2021-05-29 13:53:29</time>
      </trkpt>
      <trkpt lat="43.36337" lon="-2.50908">
        <ele>11</ele>
        <time>2021-05-29 13:53:30</time>
      </trkpt>
      <trkpt lat="43.36334" lon="-2.50912">
        <ele>11.4</ele>
        <time>2021-05-29 13:53:31</time>
      </trkpt>
      <trkpt lat="43.36332" lon="-2.50916">
        <ele>11.6</ele>
        <time>2021-05-29 13:53:32</time>
      </trkpt>
      <trkpt lat="43.36329" lon="-2.5092">
        <ele>11.8</ele>
        <time>2021-05-29 13:53:33</time>
      </trkpt>
      <trkpt lat="43.36327" lon="-2.50924">
        <ele>12.2</ele>
        <time>2021-05-29 13:53:34</time>
      </trkpt>
      <trkpt lat="43.36325" lon="-2.50928">
        <ele>12.6</ele>
        <time>2021-05-29 13:53:35</time>
      </trkpt>
      <trkpt lat="43.36323" lon="-2.50932">
        <ele>12.8</ele>
        <time>2021-05-29 13:53:36</time>
      </trkpt>
      <trkpt lat="43.3632" lon="-2.50937">
        <ele>13.4</ele>
        <time>2021-05-29 13:53:37</time>
      </trkpt>
      <trkpt lat="43.36318" lon="-2.50942">
        <ele>13.6</ele>
        <time>2021-05-29 13:53:38</time>
      </trkpt>
      <trkpt lat="43.36315" lon="-2.50948">
        <ele>13.8</ele>
        <time>2021-05-29 13:53:39</time>
      </trkpt>
      <trkpt lat="43.36313" lon="-2.50955">
        <ele>14.2</ele>
        <time>2021-05-29 13:53:40</time>
      </trkpt>
      <trkpt lat="43.36312" lon="-2.50961">
        <ele>14.4</ele>
        <time>2021-05-29 13:53:41</time>
      </trkpt>
      <trkpt lat="43.36311" lon="-2.50968">
        <ele>14.8</ele>
        <time>2021-05-29 13:53:42</time>
      </trkpt>
      <trkpt lat="43.36311" lon="-2.50975">
        <ele>15.2</ele>
        <time>2021-05-29 13:53:43</time>
      </trkpt>
      <trkpt lat="43.36311" lon="-2.50982">
        <ele>15.4</ele>
        <time>2021-05-29 13:53:44</time>
      </trkpt>
      <trkpt lat="43.36311" lon="-2.50989">
        <ele>15.4</ele>
        <time>2021-05-29 13:53:45</time>
      </trkpt>
      <trkpt lat="43.36313" lon="-2.50997">
        <ele>15.4</ele>
        <time>2021-05-29 13:53:46</time>
      </trkpt>
      <trkpt lat="43.36314" lon="-2.51004">
        <ele>15.6</ele>
        <time>2021-05-29 13:53:47</time>
      </trkpt>
      <trkpt lat="43.36316" lon="-2.51011">
        <ele>15.8</ele>
        <time>2021-05-29 13:53:48</time>
      </trkpt>
      <trkpt lat="43.36318" lon="-2.51019">
        <ele>16</ele>
        <time>2021-05-29 13:53:49</time>
      </trkpt>
      <trkpt lat="43.3632" lon="-2.51027">
        <ele>16</ele>
        <time>2021-05-29 13:53:50</time>
      </trkpt>
      <trkpt lat="43.36322" lon="-2.51034">
        <ele>16.2</ele>
        <time>2021-05-29 13:53:51</time>
      </trkpt>
      <trkpt lat="43.36324" lon="-2.51041">
        <ele>16.2</ele>
        <time>2021-05-29 13:53:52</time>
      </trkpt>
      <trkpt lat="43.36326" lon="-2.51049">
        <ele>16.2</ele>
        <time>2021-05-29 13:53:53</time>
      </trkpt>
      <trkpt lat="43.36328" lon="-2.51056">
        <ele>16.2</ele>
        <time>2021-05-29 13:53:54</time>
      </trkpt>
      <trkpt lat="43.3633" lon="-2.51063">
        <ele>16.2</ele>
        <time>2021-05-29 13:53:55</time>
      </trkpt>
      <trkpt lat="43.36332" lon="-2.51071">
        <ele>16.4</ele>
        <time>2021-05-29 13:53:56</time>
      </trkpt>
      <trkpt lat="43.36334" lon="-2.51078">
        <ele>16.4</ele>
        <time>2021-05-29 13:53:57</time>
      </trkpt>
      <trkpt lat="43.36336" lon="-2.51085">
        <ele>16.4</ele>
        <time>2021-05-29 13:53:58</time>
      </trkpt>
      <trkpt lat="43.36338" lon="-2.51092">
        <ele>16.4</ele>
        <time>2021-05-29 13:53:59</time>
      </trkpt>
      <trkpt lat="43.3634" lon="-2.51099">
        <ele>16.4</ele>
        <time>2021-05-29 13:54:00</time>
      </trkpt>
      <trkpt lat="43.36342" lon="-2.51106">
        <ele>16.6</ele>
        <time>2021-05-29 13:54:01</time>
      </trkpt>
      <trkpt lat="43.36344" lon="-2.51112">
        <ele>16.6</ele>
        <time>2021-05-29 13:54:02</time>
      </trkpt>
      <trkpt lat="43.36347" lon="-2.51118">
        <ele>16.8</ele>
        <time>2021-05-29 13:54:03</time>
      </trkpt>
      <trkpt lat="43.3635" lon="-2.51124">
        <ele>17</ele>
        <time>2021-05-29 13:54:04</time>
      </trkpt>
      <trkpt lat="43.36353" lon="-2.5113">
        <ele>17</ele>
        <time>2021-05-29 13:54:05</time>
      </trkpt>
      <trkpt lat="43.36355" lon="-2.51135">
        <ele>17.4</ele>
        <time>2021-05-29 13:54:06</time>
      </trkpt>
      <trkpt lat="43.36358" lon="-2.51141">
        <ele>17.4</ele>
        <time>2021-05-29 13:54:07</time>
      </trkpt>
      <trkpt lat="43.3636" lon="-2.51146">
        <ele>17.8</ele>
        <time>2021-05-29 13:54:08</time>
      </trkpt>
      <trkpt lat="43.36363" lon="-2.51151">
        <ele>18.4</ele>
        <time>2021-05-29 13:54:09</time>
      </trkpt>
      <trkpt lat="43.36365" lon="-2.51155">
        <ele>18.8</ele>
        <time>2021-05-29 13:54:10</time>
      </trkpt>
      <trkpt lat="43.36368" lon="-2.5116">
        <ele>19</ele>
        <time>2021-05-29 13:54:11</time>
      </trkpt>
      <trkpt lat="43.3637" lon="-2.51165">
        <ele>19.6</ele>
        <time>2021-05-29 13:54:12</time>
      </trkpt>
      <trkpt lat="43.36372" lon="-2.5117">
        <ele>19.8</ele>
        <time>2021-05-29 13:54:13</time>
      </trkpt>
      <trkpt lat="43.36374" lon="-2.51174">
        <ele>20.2</ele>
        <time>2021-05-29 13:54:14</time>
      </trkpt>
      <trkpt lat="43.36377" lon="-2.51179">
        <ele>20.6</ele>
        <time>2021-05-29 13:54:15</time>
      </trkpt>
      <trkpt lat="43.36379" lon="-2.51184">
        <ele>21.2</ele>
        <time>2021-05-29 13:54:16</time>
      </trkpt>
      <trkpt lat="43.36381" lon="-2.51189">
        <ele>21.6</ele>
        <time>2021-05-29 13:54:17</time>
      </trkpt>
      <trkpt lat="43.36383" lon="-2.51194">
        <ele>22</ele>
        <time>2021-05-29 13:54:18</time>
      </trkpt>
      <trkpt lat="43.36385" lon="-2.51198">
        <ele>22.2</ele>
        <time>2021-05-29 13:54:19</time>
      </trkpt>
      <trkpt lat="43.36387" lon="-2.51203">
        <ele>22.6</ele>
        <time>2021-05-29 13:54:20</time>
      </trkpt>
      <trkpt lat="43.36389" lon="-2.51207">
        <ele>22.8</ele>
        <time>2021-05-29 13:54:21</time>
      </trkpt>
      <trkpt lat="43.3639" lon="-2.51212">
        <ele>23</ele>
        <time>2021-05-29 13:54:22</time>
      </trkpt>
      <trkpt lat="43.36392" lon="-2.51217">
        <ele>23.4</ele>
        <time>2021-05-29 13:54:23</time>
      </trkpt>
      <trkpt lat="43.36394" lon="-2.51221">
        <ele>23.6</ele>
        <time>2021-05-29 13:54:24</time>
      </trkpt>
      <trkpt lat="43.36396" lon="-2.51226">
        <ele>24</ele>
        <time>2021-05-29 13:54:25</time>
      </trkpt>
      <trkpt lat="43.36398" lon="-2.51231">
        <ele>24.4</ele>
        <time>2021-05-29 13:54:26</time>
      </trkpt>
      <trkpt lat="43.364" lon="-2.51235">
        <ele>25</ele>
        <time>2021-05-29 13:54:27</time>
      </trkpt>
      <trkpt lat="43.36403" lon="-2.5124">
        <ele>25.2</ele>
        <time>2021-05-29 13:54:28</time>
      </trkpt>
      <trkpt lat="43.36405" lon="-2.51244">
        <ele>25.6</ele>
        <time>2021-05-29 13:54:29</time>
      </trkpt>
      <trkpt lat="43.36408" lon="-2.51248">
        <ele>25.8</ele>
        <time>2021-05-29 13:54:30</time>
      </trkpt>
      <trkpt lat="43.36411" lon="-2.51252">
        <ele>26.2</ele>
        <time>2021-05-29 13:54:31</time>
      </trkpt>
      <trkpt lat="43.36415" lon="-2.51255">
        <ele>26.6</ele>
        <time>2021-05-29 13:54:32</time>
      </trkpt>
      <trkpt lat="43.36419" lon="-2.51257">
        <ele>26.8</ele>
        <time>2021-05-29 13:54:33</time>
      </trkpt>
      <trkpt lat="43.36424" lon="-2.51258">
        <ele>27</ele>
        <time>2021-05-29 13:54:34</time>
      </trkpt>
      <trkpt lat="43.36428" lon="-2.5126">
        <ele>27.4</ele>
        <time>2021-05-29 13:54:35</time>
      </trkpt>
      <trkpt lat="43.36433" lon="-2.51263">
        <ele>27.8</ele>
        <time>2021-05-29 13:54:36</time>
      </trkpt>
      <trkpt lat="43.36437" lon="-2.51266">
        <ele>28</ele>
        <time>2021-05-29 13:54:37</time>
      </trkpt>
      <trkpt lat="43.36442" lon="-2.51269">
        <ele>28</ele>
        <time>2021-05-29 13:54:38</time>
      </trkpt>
      <trkpt lat="43.36445" lon="-2.51273">
        <ele>28.2</ele>
        <time>2021-05-29 13:54:39</time>
      </trkpt>
      <trkpt lat="43.36449" lon="-2.51279">
        <ele>28.2</ele>
        <time>2021-05-29 13:54:40</time>
      </trkpt>
      <trkpt lat="43.36451" lon="-2.51284">
        <ele>28.2</ele>
        <time>2021-05-29 13:54:41</time>
      </trkpt>
      <trkpt lat="43.36454" lon="-2.5129">
        <ele>28.4</ele>
        <time>2021-05-29 13:54:42</time>
      </trkpt>
      <trkpt lat="43.36457" lon="-2.51296">
        <ele>28.6</ele>
        <time>2021-05-29 13:54:43</time>
      </trkpt>
      <trkpt lat="43.3646" lon="-2.51302">
        <ele>28.8</ele>
        <time>2021-05-29 13:54:44</time>
      </trkpt>
      <trkpt lat="43.36463" lon="-2.51308">
        <ele>29</ele>
        <time>2021-05-29 13:54:45</time>
      </trkpt>
      <trkpt lat="43.36467" lon="-2.51314">
        <ele>29</ele>
        <time>2021-05-29 13:54:46</time>
      </trkpt>
      <trkpt lat="43.36471" lon="-2.51319">
        <ele>29.4</ele>
        <time>2021-05-29 13:54:47</time>
      </trkpt>
      <trkpt lat="43.36476" lon="-2.51325">
        <ele>29.4</ele>
        <time>2021-05-29 13:54:48</time>
      </trkpt>
      <trkpt lat="43.36482" lon="-2.51329">
        <ele>29.6</ele>
        <time>2021-05-29 13:54:49</time>
      </trkpt>
      <trkpt lat="43.36487" lon="-2.51332">
        <ele>29.8</ele>
        <time>2021-05-29 13:54:50</time>
      </trkpt>
      <trkpt lat="43.36493" lon="-2.51335">
        <ele>29.8</ele>
        <time>2021-05-29 13:54:51</time>
      </trkpt>
      <trkpt lat="43.36499" lon="-2.51338">
        <ele>30</ele>
        <time>2021-05-29 13:54:52</time>
      </trkpt>
      <trkpt lat="43.36504" lon="-2.51341">
        <ele>30</ele>
        <time>2021-05-29 13:54:53</time>
      </trkpt>
      <trkpt lat="43.3651" lon="-2.51343">
        <ele>30</ele>
        <time>2021-05-29 13:54:54</time>
      </trkpt>
      <trkpt lat="43.36515" lon="-2.51346">
        <ele>30</ele>
        <time>2021-05-29 13:54:55</time>
      </trkpt>
      <trkpt lat="43.36521" lon="-2.51348">
        <ele>30</ele>
        <time>2021-05-29 13:54:56</time>
      </trkpt>
      <trkpt lat="43.36526" lon="-2.5135">
        <ele>30.2</ele>
        <time>2021-05-29 13:54:57</time>
      </trkpt>
      <trkpt lat="43.36531" lon="-2.51352">
        <ele>30.2</ele>
        <time>2021-05-29 13:54:58</time>
      </trkpt>
      <trkpt lat="43.36537" lon="-2.51354">
        <ele>30.2</ele>
        <time>2021-05-29 13:54:59</time>
      </trkpt>
      <trkpt lat="43.36542" lon="-2.51356">
        <ele>30.2</ele>
        <time>2021-05-29 13:55:00</time>
      </trkpt>
      <trkpt lat="43.36547" lon="-2.51358">
        <ele>30.4</ele>
        <time>2021-05-29 13:55:01</time>
      </trkpt>
      <trkpt lat="43.36551" lon="-2.51359">
        <ele>30.4</ele>
        <time>2021-05-29 13:55:02</time>
      </trkpt>
      <trkpt lat="43.36556" lon="-2.5136">
        <ele>30.6</ele>
        <time>2021-05-29 13:55:03</time>
      </trkpt>
      <trkpt lat="43.3656" lon="-2.51362">
        <ele>30.6</ele>
        <time>2021-05-29 13:55:04</time>
      </trkpt>
      <trkpt lat="43.36565" lon="-2.51364">
        <ele>30.8</ele>
        <time>2021-05-29 13:55:05</time>
      </trkpt>
      <trkpt lat="43.36569" lon="-2.51366">
        <ele>30.8</ele>
        <time>2021-05-29 13:55:06</time>
      </trkpt>
      <trkpt lat="43.36573" lon="-2.51368">
        <ele>31.2</ele>
        <time>2021-05-29 13:55:07</time>
      </trkpt>
      <trkpt lat="43.36577" lon="-2.5137">
        <ele>31.4</ele>
        <time>2021-05-29 13:55:08</time>
      </trkpt>
      <trkpt lat="43.36581" lon="-2.51371">
        <ele>31.8</ele>
        <time>2021-05-29 13:55:09</time>
      </trkpt>
      <trkpt lat="43.36585" lon="-2.51373">
        <ele>31.8</ele>
        <time>2021-05-29 13:55:10</time>
      </trkpt>
      <trkpt lat="43.36589" lon="-2.51375">
        <ele>32</ele>
        <time>2021-05-29 13:55:11</time>
      </trkpt>
      <trkpt lat="43.36593" lon="-2.51378">
        <ele>32.4</ele>
        <time>2021-05-29 13:55:12</time>
      </trkpt>
      <trkpt lat="43.36597" lon="-2.5138">
        <ele>32.6</ele>
        <time>2021-05-29 13:55:13</time>
      </trkpt>
      <trkpt lat="43.36601" lon="-2.51382">
        <ele>32.8</ele>
        <time>2021-05-29 13:55:14</time>
      </trkpt>
      <trkpt lat="43.36605" lon="-2.51385">
        <ele>33.2</ele>
        <time>2021-05-29 13:55:15</time>
      </trkpt>
      <trkpt lat="43.36609" lon="-2.51387">
        <ele>33.4</ele>
        <time>2021-05-29 13:55:16</time>
      </trkpt>
      <trkpt lat="43.36613" lon="-2.51389">
        <ele>33.8</ele>
        <time>2021-05-29 13:55:17</time>
      </trkpt>
      <trkpt lat="43.36616" lon="-2.51392">
        <ele>34.2</ele>
        <time>2021-05-29 13:55:18</time>
      </trkpt>
      <trkpt lat="43.3662" lon="-2.51394">
        <ele>34.6</ele>
        <time>2021-05-29 13:55:19</time>
      </trkpt>
      <trkpt lat="43.36623" lon="-2.51397">
        <ele>35</ele>
        <time>2021-05-29 13:55:20</time>
      </trkpt>
      <trkpt lat="43.36627" lon="-2.51399">
        <ele>35.4</ele>
        <time>2021-05-29 13:55:21</time>
      </trkpt>
      <trkpt lat="43.3663" lon="-2.51402">
        <ele>35.8</ele>
        <time>2021-05-29 13:55:22</time>
      </trkpt>
      <trkpt lat="43.36633" lon="-2.51405">
        <ele>36.2</ele>
        <time>2021-05-29 13:55:23</time>
      </trkpt>
      <trkpt lat="43.36636" lon="-2.51407">
        <ele>36.4</ele>
        <time>2021-05-29 13:55:24</time>
      </trkpt>
      <trkpt lat="43.36639" lon="-2.5141">
        <ele>36.6</ele>
        <time>2021-05-29 13:55:25</time>
      </trkpt>
      <trkpt lat="43.36643" lon="-2.51413">
        <ele>37</ele>
        <time>2021-05-29 13:55:26</time>
      </trkpt>
      <trkpt lat="43.36646" lon="-2.51416">
        <ele>37</ele>
        <time>2021-05-29 13:55:27</time>
      </trkpt>
      <trkpt lat="43.36648" lon="-2.51419">
        <ele>37.2</ele>
        <time>2021-05-29 13:55:28</time>
      </trkpt>
      <trkpt lat="43.36651" lon="-2.51422">
        <ele>37.6</ele>
        <time>2021-05-29 13:55:29</time>
      </trkpt>
      <trkpt lat="43.36654" lon="-2.51426">
        <ele>37.8</ele>
        <time>2021-05-29 13:55:30</time>
      </trkpt>
      <trkpt lat="43.36657" lon="-2.51429">
        <ele>38.2</ele>
        <time>2021-05-29 13:55:31</time>
      </trkpt>
      <trkpt lat="43.36659" lon="-2.51432">
        <ele>38.6</ele>
        <time>2021-05-29 13:55:32</time>
      </trkpt>
      <trkpt lat="43.36662" lon="-2.51436">
        <ele>38.8</ele>
        <time>2021-05-29 13:55:33</time>
      </trkpt>
      <trkpt lat="43.36665" lon="-2.51439">
        <ele>39</ele>
        <time>2021-05-29 13:55:34</time>
      </trkpt>
      <trkpt lat="43.36667" lon="-2.51443">
        <ele>39.4</ele>
        <time>2021-05-29 13:55:35</time>
      </trkpt>
      <trkpt lat="43.3667" lon="-2.51447">
        <ele>39.8</ele>
        <time>2021-05-29 13:55:36</time>
      </trkpt>
      <trkpt lat="43.36673" lon="-2.51451">
        <ele>40</ele>
        <time>2021-05-29 13:55:37</time>
      </trkpt>
      <trkpt lat="43.36675" lon="-2.51455">
        <ele>40.2</ele>
        <time>2021-05-29 13:55:38</time>
      </trkpt>
      <trkpt lat="43.36677" lon="-2.51458">
        <ele>40.2</ele>
        <time>2021-05-29 13:55:39</time>
      </trkpt>
      <trkpt lat="43.3668" lon="-2.51462">
        <ele>40.6</ele>
        <time>2021-05-29 13:55:40</time>
      </trkpt>
      <trkpt lat="43.36682" lon="-2.51466">
        <ele>40.6</ele>
        <time>2021-05-29 13:55:41</time>
      </trkpt>
      <trkpt lat="43.36684" lon="-2.5147">
        <ele>40.8</ele>
        <time>2021-05-29 13:55:42</time>
      </trkpt>
      <trkpt lat="43.36686" lon="-2.51474">
        <ele>41.2</ele>
        <time>2021-05-29 13:55:43</time>
      </trkpt>
      <trkpt lat="43.36688" lon="-2.51478">
        <ele>41.6</ele>
        <time>2021-05-29 13:55:44</time>
      </trkpt>
      <trkpt lat="43.3669" lon="-2.51482">
        <ele>42</ele>
        <time>2021-05-29 13:55:45</time>
      </trkpt>
      <trkpt lat="43.36692" lon="-2.51487">
        <ele>42.2</ele>
        <time>2021-05-29 13:55:46</time>
      </trkpt>
      <trkpt lat="43.36694" lon="-2.51491">
        <ele>42.4</ele>
        <time>2021-05-29 13:55:47</time>
      </trkpt>
      <trkpt lat="43.36696" lon="-2.51495">
        <ele>42.6</ele>
        <time>2021-05-29 13:55:48</time>
      </trkpt>
      <trkpt lat="43.36697" lon="-2.515">
        <ele>42.8</ele>
        <time>2021-05-29 13:55:49</time>
      </trkpt>
      <trkpt lat="43.36699" lon="-2.51505">
        <ele>43</ele>
        <time>2021-05-29 13:55:50</time>
      </trkpt>
      <trkpt lat="43.367" lon="-2.51509">
        <ele>43.2</ele>
        <time>2021-05-29 13:55:51</time>
      </trkpt>
      <trkpt lat="43.36702" lon="-2.51514">
        <ele>43.6</ele>
        <time>2021-05-29 13:55:52</time>
      </trkpt>
      <trkpt lat="43.36703" lon="-2.51519">
        <ele>44</ele>
        <time>2021-05-29 13:55:53</time>
      </trkpt>
      <trkpt lat="43.36705" lon="-2.51524">
        <ele>44.2</ele>
        <time>2021-05-29 13:55:54</time>
      </trkpt>
      <trkpt lat="43.36706" lon="-2.51529">
        <ele>44.8</ele>
        <time>2021-05-29 13:55:55</time>
      </trkpt>
      <trkpt lat="43.36707" lon="-2.51534">
        <ele>45</ele>
        <time>2021-05-29 13:55:56</time>
      </trkpt>
      <trkpt lat="43.36709" lon="-2.51539">
        <ele>45.4</ele>
        <time>2021-05-29 13:55:57</time>
      </trkpt>
      <trkpt lat="43.3671" lon="-2.51544">
        <ele>45.6</ele>
        <time>2021-05-29 13:55:58</time>
      </trkpt>
      <trkpt lat="43.36711" lon="-2.51549">
        <ele>45.8</ele>
        <time>2021-05-29 13:55:59</time>
      </trkpt>
      <trkpt lat="43.36712" lon="-2.51554">
        <ele>46.4</ele>
        <time>2021-05-29 13:56:00</time>
      </trkpt>
      <trkpt lat="43.36712" lon="-2.51559">
        <ele>46.6</ele>
        <time>2021-05-29 13:56:01</time>
      </trkpt>
      <trkpt lat="43.36713" lon="-2.51564">
        <ele>47</ele>
        <time>2021-05-29 13:56:02</time>
      </trkpt>
      <trkpt lat="43.36714" lon="-2.51569">
        <ele>47.2</ele>
        <time>2021-05-29 13:56:03</time>
      </trkpt>
      <trkpt lat="43.36714" lon="-2.51575">
        <ele>47.4</ele>
        <time>2021-05-29 13:56:04</time>
      </trkpt>
      <trkpt lat="43.36715" lon="-2.5158">
        <ele>47.6</ele>
        <time>2021-05-29 13:56:05</time>
      </trkpt>
      <trkpt lat="43.36715" lon="-2.51585">
        <ele>48</ele>
        <time>2021-05-29 13:56:06</time>
      </trkpt>
      <trkpt lat="43.36716" lon="-2.5159">
        <ele>48</ele>
        <time>2021-05-29 13:56:07</time>
      </trkpt>
      <trkpt lat="43.36716" lon="-2.51595">
        <ele>48.2</ele>
        <time>2021-05-29 13:56:08</time>
      </trkpt>
      <trkpt lat="43.36717" lon="-2.51601">
        <ele>48.4</ele>
        <time>2021-05-29 13:56:09</time>
      </trkpt>
      <trkpt lat="43.36717" lon="-2.51606">
        <ele>48.6</ele>
        <time>2021-05-29 13:56:10</time>
      </trkpt>
      <trkpt lat="43.36717" lon="-2.51611">
        <ele>48.8</ele>
        <time>2021-05-29 13:56:11</time>
      </trkpt>
      <trkpt lat="43.36717" lon="-2.51616">
        <ele>49.2</ele>
        <time>2021-05-29 13:56:12</time>
      </trkpt>
      <trkpt lat="43.36717" lon="-2.51622">
        <ele>49.4</ele>
        <time>2021-05-29 13:56:13</time>
      </trkpt>
      <trkpt lat="43.36717" lon="-2.51627">
        <ele>49.8</ele>
        <time>2021-05-29 13:56:14</time>
      </trkpt>
      <trkpt lat="43.36717" lon="-2.51632">
        <ele>50.2</ele>
        <time>2021-05-29 13:56:15</time>
      </trkpt>
      <trkpt lat="43.36716" lon="-2.51637">
        <ele>50.6</ele>
        <time>2021-05-29 13:56:16</time>
      </trkpt>
      <trkpt lat="43.36716" lon="-2.51642">
        <ele>51</ele>
        <time>2021-05-29 13:56:17</time>
      </trkpt>
      <trkpt lat="43.36716" lon="-2.51647">
        <ele>51.2</ele>
        <time>2021-05-29 13:56:18</time>
      </trkpt>
      <trkpt lat="43.36715" lon="-2.51652">
        <ele>51.6</ele>
        <time>2021-05-29 13:56:19</time>
      </trkpt>
      <trkpt lat="43.36715" lon="-2.51656">
        <ele>51.8</ele>
        <time>2021-05-29 13:56:20</time>
      </trkpt>
      <trkpt lat="43.36714" lon="-2.51661">
        <ele>52.2</ele>
        <time>2021-05-29 13:56:21</time>
      </trkpt>
      <trkpt lat="43.36713" lon="-2.51666">
        <ele>52.4</ele>
        <time>2021-05-29 13:56:22</time>
      </trkpt>
      <trkpt lat="43.36713" lon="-2.51671">
        <ele>52.8</ele>
        <time>2021-05-29 13:56:23</time>
      </trkpt>
      <trkpt lat="43.36712" lon="-2.51676">
        <ele>53</ele>
        <time>2021-05-29 13:56:24</time>
      </trkpt>
      <trkpt lat="43.36712" lon="-2.51681">
        <ele>53.4</ele>
        <time>2021-05-29 13:56:25</time>
      </trkpt>
      <trkpt lat="43.36711" lon="-2.51686">
        <ele>53.8</ele>
        <time>2021-05-29 13:56:26</time>
      </trkpt>
      <trkpt lat="43.3671" lon="-2.51691">
        <ele>54</ele>
        <time>2021-05-29 13:56:27</time>
      </trkpt>
      <trkpt lat="43.36708" lon="-2.51696">
        <ele>54.2</ele>
        <time>2021-05-29 13:56:28</time>
      </trkpt>
      <trkpt lat="43.36707" lon="-2.51701">
        <ele>54.6</ele>
        <time>2021-05-29 13:56:29</time>
      </trkpt>
      <trkpt lat="43.36706" lon="-2.51706">
        <ele>55</ele>
        <time>2021-05-29 13:56:30</time>
      </trkpt>
      <trkpt lat="43.36705" lon="-2.51711">
        <ele>55.2</ele>
        <time>2021-05-29 13:56:31</time>
      </trkpt>
      <trkpt lat="43.36703" lon="-2.51716">
        <ele>55.4</ele>
        <time>2021-05-29 13:56:32</time>
      </trkpt>
      <trkpt lat="43.36701" lon="-2.51721">
        <ele>55.8</ele>
        <time>2021-05-29 13:56:33</time>
      </trkpt>
      <trkpt lat="43.367" lon="-2.51725">
        <ele>56</ele>
        <time>2021-05-29 13:56:34</time>
      </trkpt>
      <trkpt lat="43.36698" lon="-2.51729">
        <ele>56.2</ele>
        <time>2021-05-29 13:56:35</time>
      </trkpt>
      <trkpt lat="43.36696" lon="-2.51734">
        <ele>56.6</ele>
        <time>2021-05-29 13:56:36</time>
      </trkpt>
      <trkpt lat="43.36694" lon="-2.51738">
        <ele>56.6</ele>
        <time>2021-05-29 13:56:37</time>
      </trkpt>
      <trkpt lat="43.36692" lon="-2.51742">
        <ele>56.8</ele>
        <time>2021-05-29 13:56:38</time>
      </trkpt>
      <trkpt lat="43.3669" lon="-2.51747">
        <ele>57</ele>
        <time>2021-05-29 13:56:39</time>
      </trkpt>
      <trkpt lat="43.36688" lon="-2.51751">
        <ele>57.4</ele>
        <time>2021-05-29 13:56:40</time>
      </trkpt>
      <trkpt lat="43.36686" lon="-2.51755">
        <ele>57.6</ele>
        <time>2021-05-29 13:56:41</time>
      </trkpt>
      <trkpt lat="43.36684" lon="-2.51759">
        <ele>57.8</ele>
        <time>2021-05-29 13:56:42</time>
      </trkpt>
      <trkpt lat="43.36681" lon="-2.51763">
        <ele>58</ele>
        <time>2021-05-29 13:56:43</time>
      </trkpt>
      <trkpt lat="43.36679" lon="-2.51767">
        <ele>58.4</ele>
        <time>2021-05-29 13:56:44</time>
      </trkpt>
      <trkpt lat="43.36677" lon="-2.51771">
        <ele>58.6</ele>
        <time>2021-05-29 13:56:45</time>
      </trkpt>
      <trkpt lat="43.36675" lon="-2.51775">
        <ele>59</ele>
        <time>2021-05-29 13:56:46</time>
      </trkpt>
      <trkpt lat="43.36672" lon="-2.51779">
        <ele>59.4</ele>
        <time>2021-05-29 13:56:47</time>
      </trkpt>
      <trkpt lat="43.36669" lon="-2.51783">
        <ele>59.6</ele>
        <time>2021-05-29 13:56:48</time>
      </trkpt>
      <trkpt lat="43.36667" lon="-2.51787">
        <ele>59.8</ele>
        <time>2021-05-29 13:56:49</time>
      </trkpt>
      <trkpt lat="43.36664" lon="-2.51791">
        <ele>60</ele>
        <time>2021-05-29 13:56:50</time>
      </trkpt>
      <trkpt lat="43.36662" lon="-2.51794">
        <ele>60.2</ele>
        <time>2021-05-29 13:56:51</time>
      </trkpt>
      <trkpt lat="43.36659" lon="-2.51798">
        <ele>60.6</ele>
        <time>2021-05-29 13:56:52</time>
      </trkpt>
      <trkpt lat="43.36656" lon="-2.51802">
        <ele>60.8</ele>
        <time>2021-05-29 13:56:53</time>
      </trkpt>
      <trkpt lat="43.36654" lon="-2.51805">
        <ele>61</ele>
        <time>2021-05-29 13:56:54</time>
      </trkpt>
      <trkpt lat="43.36651" lon="-2.51808">
        <ele>61.2</ele>
        <time>2021-05-29 13:56:55</time>
      </trkpt>
      <trkpt lat="43.36648" lon="-2.51811">
        <ele>61.6</ele>
        <time>2021-05-29 13:56:56</time>
      </trkpt>
      <trkpt lat="43.36646" lon="-2.51815">
        <ele>61.8</ele>
        <time>2021-05-29 13:56:57</time>
      </trkpt>
      <trkpt lat="43.36643" lon="-2.51818">
        <ele>62.2</ele>
        <time>2021-05-29 13:56:58</time>
      </trkpt>
      <trkpt lat="43.3664" lon="-2.51821">
        <ele>62.6</ele>
        <time>2021-05-29 13:56:59</time>
      </trkpt>
      <trkpt lat="43.36637" lon="-2.51825">
        <ele>62.8</ele>
        <time>2021-05-29 13:57:00</time>
      </trkpt>
      <trkpt lat="43.36634" lon="-2.51828">
        <ele>63.2</ele>
        <time>2021-05-29 13:57:01</time>
      </trkpt>
      <trkpt lat="43.36631" lon="-2.51831">
        <ele>63.6</ele>
        <time>2021-05-29 13:57:02</time>
      </trkpt>
      <trkpt lat="43.36628" lon="-2.51834">
        <ele>63.8</ele>
        <time>2021-05-29 13:57:03</time>
      </trkpt>
      <trkpt lat="43.36625" lon="-2.51837">
        <ele>64.2</ele>
        <time>2021-05-29 13:57:04</time>
      </trkpt>
      <trkpt lat="43.36622" lon="-2.51841">
        <ele>64.4</ele>
        <time>2021-05-29 13:57:05</time>
      </trkpt>
      <trkpt lat="43.36619" lon="-2.51844">
        <ele>64.6</ele>
        <time>2021-05-29 13:57:06</time>
      </trkpt>
      <trkpt lat="43.36615" lon="-2.51847">
        <ele>64.8</ele>
        <time>2021-05-29 13:57:07</time>
      </trkpt>
      <trkpt lat="43.36612" lon="-2.5185">
        <ele>65.2</ele>
        <time>2021-05-29 13:57:08</time>
      </trkpt>
      <trkpt lat="43.36609" lon="-2.51854">
        <ele>65.4</ele>
        <time>2021-05-29 13:57:09</time>
      </trkpt>
      <trkpt lat="43.36606" lon="-2.51857">
        <ele>65.8</ele>
        <time>2021-05-29 13:57:10</time>
      </trkpt>
      <trkpt lat="43.36603" lon="-2.5186">
        <ele>66</ele>
        <time>2021-05-29 13:57:11</time>
      </trkpt>
      <trkpt lat="43.366" lon="-2.51863">
        <ele>66.2</ele>
        <time>2021-05-29 13:57:12</time>
      </trkpt>
      <trkpt lat="43.36596" lon="-2.51866">
        <ele>66.4</ele>
        <time>2021-05-29 13:57:13</time>
      </trkpt>
      <trkpt lat="43.36593" lon="-2.5187">
        <ele>66.6</ele>
        <time>2021-05-29 13:57:14</time>
      </trkpt>
      <trkpt lat="43.3659" lon="-2.51873">
        <ele>67</ele>
        <time>2021-05-29 13:57:15</time>
      </trkpt>
      <trkpt lat="43.36587" lon="-2.51877">
        <ele>67.2</ele>
        <time>2021-05-29 13:57:16</time>
      </trkpt>
      <trkpt lat="43.36584" lon="-2.5188">
        <ele>67.4</ele>
        <time>2021-05-29 13:57:17</time>
      </trkpt>
      <trkpt lat="43.36581" lon="-2.51883">
        <ele>67.6</ele>
        <time>2021-05-29 13:57:18</time>
      </trkpt>
      <trkpt lat="43.36578" lon="-2.51887">
        <ele>68</ele>
        <time>2021-05-29 13:57:19</time>
      </trkpt>
      <trkpt lat="43.36575" lon="-2.5189">
        <ele>68.4</ele>
        <time>2021-05-29 13:57:20</time>
      </trkpt>
      <trkpt lat="43.36572" lon="-2.51893">
        <ele>68.6</ele>
        <time>2021-05-29 13:57:21</time>
      </trkpt>
      <trkpt lat="43.3657" lon="-2.51896">
        <ele>69</ele>
        <time>2021-05-29 13:57:22</time>
      </trkpt>
      <trkpt lat="43.36567" lon="-2.51899">
        <ele>69.4</ele>
        <time>2021-05-29 13:57:23</time>
      </trkpt>
      <trkpt lat="43.36566" lon="-2.51901">
        <ele>69.4</ele>
        <time>2021-05-29 13:57:24</time>
      </trkpt>
      <trkpt lat="43.36564" lon="-2.51904">
        <ele>69.8</ele>
        <time>2021-05-29 13:57:25</time>
      </trkpt>
      <trkpt lat="43.36563" lon="-2.51906">
        <ele>70.2</ele>
        <time>2021-05-29 13:57:26</time>
      </trkpt>
      <trkpt lat="43.36561" lon="-2.51908">
        <ele>70.6</ele>
        <time>2021-05-29 13:57:27</time>
      </trkpt>
      <trkpt lat="43.3656" lon="-2.5191">
        <ele>70.8</ele>
        <time>2021-05-29 13:57:28</time>
      </trkpt>
      <trkpt lat="43.36558" lon="-2.51912">
        <ele>71</ele>
        <time>2021-05-29 13:57:29</time>
      </trkpt>
      <trkpt lat="43.36557" lon="-2.51914">
        <ele>71.2</ele>
        <time>2021-05-29 13:57:30</time>
      </trkpt>
      <trkpt lat="43.36556" lon="-2.51916">
        <ele>71.6</ele>
        <time>2021-05-29 13:57:31</time>
      </trkpt>
      <trkpt lat="43.36555" lon="-2.51917">
        <ele>71.8</ele>
        <time>2021-05-29 13:57:32</time>
      </trkpt>
      <trkpt lat="43.36554" lon="-2.51919">
        <ele>72</ele>
        <time>2021-05-29 13:57:33</time>
      </trkpt>
      <trkpt lat="43.36553" lon="-2.5192">
        <ele>72.2</ele>
        <time>2021-05-29 13:57:34</time>
      </trkpt>
      <trkpt lat="43.36552" lon="-2.51921">
        <ele>72.2</ele>
        <time>2021-05-29 13:57:35</time>
      </trkpt>
      <trkpt lat="43.36551" lon="-2.51923">
        <ele>72.4</ele>
        <time>2021-05-29 13:57:36</time>
      </trkpt>
      <trkpt lat="43.3655" lon="-2.51924">
        <ele>72.6</ele>
        <time>2021-05-29 13:57:37</time>
      </trkpt>
      <trkpt lat="43.3655" lon="-2.51925">
        <ele>72.8</ele>
        <time>2021-05-29 13:57:38</time>
      </trkpt>
      <trkpt lat="43.36549" lon="-2.51927">
        <ele>73</ele>
        <time>2021-05-29 13:57:39</time>
      </trkpt>
      <trkpt lat="43.36549" lon="-2.51927">
        <ele>73.2</ele>
        <time>2021-05-29 13:57:40</time>
      </trkpt>
      <trkpt lat="43.36548" lon="-2.51928">
        <ele>73.4</ele>
        <time>2021-05-29 13:57:41</time>
      </trkpt>
      <trkpt lat="43.36549" lon="-2.51928">
        <ele>73.4</ele>
        <time>2021-05-29 13:57:42</time>
      </trkpt>
      <trkpt lat="43.36544" lon="-2.51933">
        <ele>74</ele>
        <time>2021-05-29 13:57:43</time>
      </trkpt>
      <trkpt lat="43.36543" lon="-2.51936">
        <ele>74</ele>
        <time>2021-05-29 13:57:44</time>
      </trkpt>
      <trkpt lat="43.36541" lon="-2.51938">
        <ele>74</ele>
        <time>2021-05-29 13:57:45</time>
      </trkpt>
      <trkpt lat="43.3654" lon="-2.51941">
        <ele>74</ele>
        <time>2021-05-29 13:57:46</time>
      </trkpt>
      <trkpt lat="43.36537" lon="-2.51945">
        <ele>74</ele>
        <time>2021-05-29 13:57:47</time>
      </trkpt>
      <trkpt lat="43.36535" lon="-2.5195">
        <ele>74</ele>
        <time>2021-05-29 13:57:48</time>
      </trkpt>
      <trkpt lat="43.36533" lon="-2.51955">
        <ele>74</ele>
        <time>2021-05-29 13:57:49</time>
      </trkpt>
      <trkpt lat="43.36531" lon="-2.51959">
        <ele>74</ele>
        <time>2021-05-29 13:57:50</time>
      </trkpt>
      <trkpt lat="43.36529" lon="-2.51964">
        <ele>74</ele>
        <time>2021-05-29 13:57:51</time>
      </trkpt>
      <trkpt lat="43.36527" lon="-2.51968">
        <ele>74.4</ele>
        <time>2021-05-29 13:57:52</time>
      </trkpt>
      <trkpt lat="43.36525" lon="-2.51973">
        <ele>74.6</ele>
        <time>2021-05-29 13:57:53</time>
      </trkpt>
      <trkpt lat="43.36523" lon="-2.51977">
        <ele>74.8</ele>
        <time>2021-05-29 13:57:54</time>
      </trkpt>
      <trkpt lat="43.36522" lon="-2.51981">
        <ele>74.8</ele>
        <time>2021-05-29 13:57:55</time>
      </trkpt>
      <trkpt lat="43.3652" lon="-2.51986">
        <ele>75</ele>
        <time>2021-05-29 13:57:56</time>
      </trkpt>
      <trkpt lat="43.36518" lon="-2.5199">
        <ele>75.2</ele>
        <time>2021-05-29 13:57:57</time>
      </trkpt>
      <trkpt lat="43.36517" lon="-2.51994">
        <ele>75.4</ele>
        <time>2021-05-29 13:57:58</time>
      </trkpt>
      <trkpt lat="43.36515" lon="-2.51998">
        <ele>75.6</ele>
        <time>2021-05-29 13:57:59</time>
      </trkpt>
      <trkpt lat="43.36514" lon="-2.52002">
        <ele>75.8</ele>
        <time>2021-05-29 13:58:00</time>
      </trkpt>
      <trkpt lat="43.36512" lon="-2.52007">
        <ele>75.8</ele>
        <time>2021-05-29 14:00:20</time>
      </trkpt>
      <trkpt lat="43.36511" lon="-2.52011">
        <ele>76.2</ele>
        <time>2021-05-29 14:00:21</time>
      </trkpt>
      <trkpt lat="43.3651" lon="-2.52015">
        <ele>76.6</ele>
        <time>2021-05-29 14:00:22</time>
      </trkpt>
      <trkpt lat="43.36508" lon="-2.52019">
        <ele>77.2</ele>
        <time>2021-05-29 14:00:23</time>
      </trkpt>
      <trkpt lat="43.36507" lon="-2.52024">
        <ele>77.4</ele>
        <time>2021-05-29 14:00:24</time>
      </trkpt>
      <trkpt lat="43.36506" lon="-2.52028">
        <ele>77.8</ele>
        <time>2021-05-29 14:00:25</time>
      </trkpt>
      <trkpt lat="43.36505" lon="-2.52033">
        <ele>78</ele>
        <time>2021-05-29 14:00:26</time>
      </trkpt>
      <trkpt lat="43.36503" lon="-2.52038">
        <ele>78.2</ele>
        <time>2021-05-29 14:00:27</time>
      </trkpt>
      <trkpt lat="43.36502" lon="-2.52042">
        <ele>78.4</ele>
        <time>2021-05-29 14:00:28</time>
      </trkpt>
      <trkpt lat="43.36501" lon="-2.52047">
        <ele>78.6</ele>
        <time>2021-05-29 14:00:29</time>
      </trkpt>
      <trkpt lat="43.36499" lon="-2.52052">
        <ele>79</ele>
        <time>2021-05-29 14:00:30</time>
      </trkpt>
      <trkpt lat="43.36498" lon="-2.52056">
        <ele>79.2</ele>
        <time>2021-05-29 14:00:31</time>
      </trkpt>
      <trkpt lat="43.36497" lon="-2.52061">
        <ele>79.6</ele>
        <time>2021-05-29 14:00:32</time>
      </trkpt>
      <trkpt lat="43.36496" lon="-2.52066">
        <ele>80</ele>
        <time>2021-05-29 14:00:33</time>
      </trkpt>
      <trkpt lat="43.36494" lon="-2.5207">
        <ele>80.4</ele>
        <time>2021-05-29 14:00:34</time>
      </trkpt>
      <trkpt lat="43.36493" lon="-2.52075">
        <ele>80.6</ele>
        <time>2021-05-29 14:00:35</time>
      </trkpt>
      <trkpt lat="43.36492" lon="-2.5208">
        <ele>81.2</ele>
        <time>2021-05-29 14:00:36</time>
      </trkpt>
      <trkpt lat="43.3649" lon="-2.52086">
        <ele>81.6</ele>
        <time>2021-05-29 14:00:37</time>
      </trkpt>
      <trkpt lat="43.36489" lon="-2.52091">
        <ele>82</ele>
        <time>2021-05-29 14:00:38</time>
      </trkpt>
      <trkpt lat="43.36487" lon="-2.52096">
        <ele>82.6</ele>
        <time>2021-05-29 14:00:39</time>
      </trkpt>
      <trkpt lat="43.36486" lon="-2.52101">
        <ele>83</ele>
        <time>2021-05-29 14:00:40</time>
      </trkpt>
      <trkpt lat="43.36484" lon="-2.52106">
        <ele>83.4</ele>
        <time>2021-05-29 14:00:41</time>
      </trkpt>
      <trkpt lat="43.36483" lon="-2.52111">
        <ele>83.6</ele>
        <time>2021-05-29 14:00:42</time>
      </trkpt>
      <trkpt lat="43.36481" lon="-2.52116">
        <ele>83.8</ele>
        <time>2021-05-29 14:00:43</time>
      </trkpt>
      <trkpt lat="43.3648" lon="-2.52121">
        <ele>84.2</ele>
        <time>2021-05-29 14:00:44</time>
      </trkpt>
      <trkpt lat="43.36478" lon="-2.52125">
        <ele>84.6</ele>
        <time>2021-05-29 14:00:45</time>
      </trkpt>
      <trkpt lat="43.36477" lon="-2.5213">
        <ele>84.8</ele>
        <time>2021-05-29 14:00:46</time>
      </trkpt>
      <trkpt lat="43.36475" lon="-2.52134">
        <ele>85.2</ele>
        <time>2021-05-29 14:00:47</time>
      </trkpt>
      <trkpt lat="43.36474" lon="-2.52138">
        <ele>85.4</ele>
        <time>2021-05-29 14:00:48</time>
      </trkpt>
      <trkpt lat="43.36472" lon="-2.52143">
        <ele>85.8</ele>
        <time>2021-05-29 14:00:49</time>
      </trkpt>
      <trkpt lat="43.36471" lon="-2.52147">
        <ele>85.8</ele>
        <time>2021-05-29 14:00:50</time>
      </trkpt>
      <trkpt lat="43.36469" lon="-2.52151">
        <ele>86.2</ele>
        <time>2021-05-29 14:00:51</time>
      </trkpt>
      <trkpt lat="43.36467" lon="-2.52155">
        <ele>86.2</ele>
        <time>2021-05-29 14:00:52</time>
      </trkpt>
      <trkpt lat="43.36465" lon="-2.52159">
        <ele>86.4</ele>
        <time>2021-05-29 14:00:53</time>
      </trkpt>
      <trkpt lat="43.36463" lon="-2.52163">
        <ele>86.6</ele>
        <time>2021-05-29 14:00:54</time>
      </trkpt>
      <trkpt lat="43.36461" lon="-2.52168">
        <ele>86.8</ele>
        <time>2021-05-29 14:00:55</time>
      </trkpt>
      <trkpt lat="43.36459" lon="-2.52172">
        <ele>87</ele>
        <time>2021-05-29 14:00:56</time>
      </trkpt>
      <trkpt lat="43.36457" lon="-2.52176">
        <ele>87.6</ele>
        <time>2021-05-29 14:00:57</time>
      </trkpt>
      <trkpt lat="43.36454" lon="-2.52179">
        <ele>88</ele>
        <time>2021-05-29 14:00:58</time>
      </trkpt>
      <trkpt lat="43.36452" lon="-2.52183">
        <ele>88.4</ele>
        <time>2021-05-29 14:00:59</time>
      </trkpt>
      <trkpt lat="43.3645" lon="-2.52187">
        <ele>88.6</ele>
        <time>2021-05-29 14:01:00</time>
      </trkpt>
      <trkpt lat="43.36447" lon="-2.52191">
        <ele>88.8</ele>
        <time>2021-05-29 14:01:01</time>
      </trkpt>
      <trkpt lat="43.36445" lon="-2.52195">
        <ele>89</ele>
        <time>2021-05-29 14:01:02</time>
      </trkpt>
      <trkpt lat="43.36442" lon="-2.52198">
        <ele>89.2</ele>
        <time>2021-05-29 14:01:03</time>
      </trkpt>
      <trkpt lat="43.36439" lon="-2.52201">
        <ele>89.8</ele>
        <time>2021-05-29 14:01:04</time>
      </trkpt>
      <trkpt lat="43.36437" lon="-2.52204">
        <ele>90</ele>
        <time>2021-05-29 14:01:05</time>
      </trkpt>
      <trkpt lat="43.36434" lon="-2.52207">
        <ele>90.2</ele>
        <time>2021-05-29 14:01:06</time>
      </trkpt>
      <trkpt lat="43.36432" lon="-2.5221">
        <ele>90.4</ele>
        <time>2021-05-29 14:01:07</time>
      </trkpt>
      <trkpt lat="43.36429" lon="-2.52213">
        <ele>90.8</ele>
        <time>2021-05-29 14:01:08</time>
      </trkpt>
      <trkpt lat="43.36426" lon="-2.52216">
        <ele>91</ele>
        <time>2021-05-29 14:01:09</time>
      </trkpt>
      <trkpt lat="43.36423" lon="-2.52219">
        <ele>91.2</ele>
        <time>2021-05-29 14:01:10</time>
      </trkpt>
      <trkpt lat="43.3642" lon="-2.52222">
        <ele>91.6</ele>
        <time>2021-05-29 14:01:11</time>
      </trkpt>
      <trkpt lat="43.36417" lon="-2.52225">
        <ele>91.6</ele>
        <time>2021-05-29 14:01:12</time>
      </trkpt>
      <trkpt lat="43.36414" lon="-2.52227">
        <ele>92</ele>
        <time>2021-05-29 14:01:13</time>
      </trkpt>
      <trkpt lat="43.36411" lon="-2.5223">
        <ele>92.2</ele>
        <time>2021-05-29 14:01:14</time>
      </trkpt>
      <trkpt lat="43.36408" lon="-2.52232">
        <ele>92.6</ele>
        <time>2021-05-29 14:01:15</time>
      </trkpt>
      <trkpt lat="43.36405" lon="-2.52235">
        <ele>92.8</ele>
        <time>2021-05-29 14:01:16</time>
      </trkpt>
      <trkpt lat="43.36402" lon="-2.52237">
        <ele>93</ele>
        <time>2021-05-29 14:01:17</time>
      </trkpt>
      <trkpt lat="43.36398" lon="-2.52239">
        <ele>93.4</ele>
        <time>2021-05-29 14:01:18</time>
      </trkpt>
      <trkpt lat="43.36395" lon="-2.52241">
        <ele>93.6</ele>
        <time>2021-05-29 14:01:19</time>
      </trkpt>
      <trkpt lat="43.36392" lon="-2.52243">
        <ele>94</ele>
        <time>2021-05-29 14:01:20</time>
      </trkpt>
      <trkpt lat="43.36388" lon="-2.52244">
        <ele>94.4</ele>
        <time>2021-05-29 14:01:21</time>
      </trkpt>
      <trkpt lat="43.36385" lon="-2.52246">
        <ele>94.6</ele>
        <time>2021-05-29 14:01:22</time>
      </trkpt>
      <trkpt lat="43.36382" lon="-2.52247">
        <ele>94.8</ele>
        <time>2021-05-29 14:01:23</time>
      </trkpt>
      <trkpt lat="43.36378" lon="-2.52249">
        <ele>95.2</ele>
        <time>2021-05-29 14:01:24</time>
      </trkpt>
      <trkpt lat="43.36375" lon="-2.5225">
        <ele>95.6</ele>
        <time>2021-05-29 14:01:25</time>
      </trkpt>
      <trkpt lat="43.36371" lon="-2.52251">
        <ele>95.8</ele>
        <time>2021-05-29 14:01:26</time>
      </trkpt>
      <trkpt lat="43.36368" lon="-2.52252">
        <ele>96.2</ele>
        <time>2021-05-29 14:01:27</time>
      </trkpt>
      <trkpt lat="43.36364" lon="-2.52253">
        <ele>96.2</ele>
        <time>2021-05-29 14:01:28</time>
      </trkpt>
      <trkpt lat="43.36361" lon="-2.52254">
        <ele>96.4</ele>
        <time>2021-05-29 14:01:29</time>
      </trkpt>
      <trkpt lat="43.36357" lon="-2.52254">
        <ele>96.6</ele>
        <time>2021-05-29 14:01:30</time>
      </trkpt>
      <trkpt lat="43.36353" lon="-2.52254">
        <ele>96.8</ele>
        <time>2021-05-29 14:01:31</time>
      </trkpt>
      <trkpt lat="43.3635" lon="-2.52254">
        <ele>97</ele>
        <time>2021-05-29 14:01:32</time>
      </trkpt>
      <trkpt lat="43.36346" lon="-2.52255">
        <ele>97.2</ele>
        <time>2021-05-29 14:01:33</time>
      </trkpt>
      <trkpt lat="43.36342" lon="-2.52255">
        <ele>97.4</ele>
        <time>2021-05-29 14:01:34</time>
      </trkpt>
      <trkpt lat="43.36338" lon="-2.52255">
        <ele>97.6</ele>
        <time>2021-05-29 14:01:35</time>
      </trkpt>
      <trkpt lat="43.36334" lon="-2.52255">
        <ele>97.8</ele>
        <time>2021-05-29 14:01:36</time>
      </trkpt>
      <trkpt lat="43.3633" lon="-2.52254">
        <ele>98</ele>
        <time>2021-05-29 14:01:37</time>
      </trkpt>
      <trkpt lat="43.36326" lon="-2.52254">
        <ele>98.2</ele>
        <time>2021-05-29 14:01:38</time>
      </trkpt>
      <trkpt lat="43.36322" lon="-2.52254">
        <ele>98.8</ele>
        <time>2021-05-29 14:01:39</time>
      </trkpt>
      <trkpt lat="43.36319" lon="-2.52253">
        <ele>99.2</ele>
        <time>2021-05-29 14:01:40</time>
      </trkpt>
      <trkpt lat="43.36315" lon="-2.52252">
        <ele>99.4</ele>
        <time>2021-05-29 14:01:41</time>
      </trkpt>
      <trkpt lat="43.36311" lon="-2.52251">
        <ele>99.8</ele>
        <time>2021-05-29 14:01:42</time>
      </trkpt>
      <trkpt lat="43.36307" lon="-2.52251">
        <ele>100</ele>
        <time>2021-05-29 14:01:43</time>
      </trkpt>
      <trkpt lat="43.36304" lon="-2.5225">
        <ele>100.4</ele>
        <time>2021-05-29 14:01:44</time>
      </trkpt>
      <trkpt lat="43.363" lon="-2.52248">
        <ele>100.6</ele>
        <time>2021-05-29 14:01:45</time>
      </trkpt>
      <trkpt lat="43.36296" lon="-2.52247">
        <ele>100.8</ele>
        <time>2021-05-29 14:01:46</time>
      </trkpt>
      <trkpt lat="43.36293" lon="-2.52245">
        <ele>101.2</ele>
        <time>2021-05-29 14:01:47</time>
      </trkpt>
      <trkpt lat="43.36289" lon="-2.52244">
        <ele>101.4</ele>
        <time>2021-05-29 14:01:48</time>
      </trkpt>
      <trkpt lat="43.36285" lon="-2.52241">
        <ele>101.6</ele>
        <time>2021-05-29 14:01:49</time>
      </trkpt>
      <trkpt lat="43.36282" lon="-2.52239">
        <ele>101.8</ele>
        <time>2021-05-29 14:01:50</time>
      </trkpt>
      <trkpt lat="43.36278" lon="-2.52237">
        <ele>102</ele>
        <time>2021-05-29 14:01:51</time>
      </trkpt>
      <trkpt lat="43.36275" lon="-2.52235">
        <ele>102.2</ele>
        <time>2021-05-29 14:01:52</time>
      </trkpt>
      <trkpt lat="43.36271" lon="-2.52232">
        <ele>102.6</ele>
        <time>2021-05-29 14:01:53</time>
      </trkpt>
      <trkpt lat="43.36267" lon="-2.5223">
        <ele>103</ele>
        <time>2021-05-29 14:01:54</time>
      </trkpt>
      <trkpt lat="43.36264" lon="-2.52227">
        <ele>103.2</ele>
        <time>2021-05-29 14:01:55</time>
      </trkpt>
      <trkpt lat="43.3626" lon="-2.52225">
        <ele>103.6</ele>
        <time>2021-05-29 14:01:56</time>
      </trkpt>
      <trkpt lat="43.36256" lon="-2.52222">
        <ele>104</ele>
        <time>2021-05-29 14:01:57</time>
      </trkpt>
      <trkpt lat="43.36253" lon="-2.52219">
        <ele>104.2</ele>
        <time>2021-05-29 14:01:58</time>
      </trkpt>
      <trkpt lat="43.36249" lon="-2.52216">
        <ele>104.6</ele>
        <time>2021-05-29 14:01:59</time>
      </trkpt>
      <trkpt lat="43.36245" lon="-2.52212">
        <ele>104.8</ele>
        <time>2021-05-29 14:02:00</time>
      </trkpt>
      <trkpt lat="43.36241" lon="-2.52209">
        <ele>105.2</ele>
        <time>2021-05-29 14:02:01</time>
      </trkpt>
      <trkpt lat="43.36238" lon="-2.52206">
        <ele>105.4</ele>
        <time>2021-05-29 14:02:02</time>
      </trkpt>
      <trkpt lat="43.36234" lon="-2.52203">
        <ele>105.6</ele>
        <time>2021-05-29 14:02:03</time>
      </trkpt>
      <trkpt lat="43.3623" lon="-2.522">
        <ele>106</ele>
        <time>2021-05-29 14:02:04</time>
      </trkpt>
      <trkpt lat="43.36226" lon="-2.52197">
        <ele>106.2</ele>
        <time>2021-05-29 14:02:05</time>
      </trkpt>
      <trkpt lat="43.36221" lon="-2.52193">
        <ele>106.4</ele>
        <time>2021-05-29 14:02:06</time>
      </trkpt>
      <trkpt lat="43.36217" lon="-2.5219">
        <ele>106.6</ele>
        <time>2021-05-29 14:02:07</time>
      </trkpt>
      <trkpt lat="43.36213" lon="-2.52186">
        <ele>107</ele>
        <time>2021-05-29 14:02:08</time>
      </trkpt>
      <trkpt lat="43.36209" lon="-2.52183">
        <ele>107.2</ele>
        <time>2021-05-29 14:02:09</time>
      </trkpt>
      <trkpt lat="43.36204" lon="-2.5218">
        <ele>107.2</ele>
        <time>2021-05-29 14:02:10</time>
      </trkpt>
      <trkpt lat="43.362" lon="-2.52177">
        <ele>107.4</ele>
        <time>2021-05-29 14:02:11</time>
      </trkpt>
      <trkpt lat="43.36195" lon="-2.52175">
        <ele>107.8</ele>
        <time>2021-05-29 14:02:12</time>
      </trkpt>
      <trkpt lat="43.36191" lon="-2.52172">
        <ele>108</ele>
        <time>2021-05-29 14:02:13</time>
      </trkpt>
      <trkpt lat="43.36185" lon="-2.52169">
        <ele>108.2</ele>
        <time>2021-05-29 14:02:14</time>
      </trkpt>
      <trkpt lat="43.3618" lon="-2.52167">
        <ele>108.4</ele>
        <time>2021-05-29 14:02:15</time>
      </trkpt>
      <trkpt lat="43.36174" lon="-2.52164">
        <ele>108.6</ele>
        <time>2021-05-29 14:02:16</time>
      </trkpt>
      <trkpt lat="43.36169" lon="-2.52161">
        <ele>108.8</ele>
        <time>2021-05-29 14:02:17</time>
      </trkpt>
      <trkpt lat="43.36164" lon="-2.52159">
        <ele>108.8</ele>
        <time>2021-05-29 14:02:18</time>
      </trkpt>
      <trkpt lat="43.36158" lon="-2.52158">
        <ele>109</ele>
        <time>2021-05-29 14:02:19</time>
      </trkpt>
      <trkpt lat="43.36153" lon="-2.52157">
        <ele>109.4</ele>
        <time>2021-05-29 14:02:20</time>
      </trkpt>
      <trkpt lat="43.36147" lon="-2.52156">
        <ele>109.6</ele>
        <time>2021-05-29 14:02:21</time>
      </trkpt>
      <trkpt lat="43.36141" lon="-2.52155">
        <ele>109.8</ele>
        <time>2021-05-29 14:02:22</time>
      </trkpt>
      <trkpt lat="43.36135" lon="-2.52155">
        <ele>110</ele>
        <time>2021-05-29 14:02:23</time>
      </trkpt>
      <trkpt lat="43.36129" lon="-2.52155">
        <ele>110</ele>
        <time>2021-05-29 14:02:24</time>
      </trkpt>
      <trkpt lat="43.36123" lon="-2.52155">
        <ele>110.2</ele>
        <time>2021-05-29 14:02:25</time>
      </trkpt>
      <trkpt lat="43.36117" lon="-2.52156">
        <ele>110.2</ele>
        <time>2021-05-29 14:02:26</time>
      </trkpt>
      <trkpt lat="43.36111" lon="-2.52157">
        <ele>110.4</ele>
        <time>2021-05-29 14:02:27</time>
      </trkpt>
      <trkpt lat="43.36105" lon="-2.52158">
        <ele>110.6</ele>
        <time>2021-05-29 14:02:28</time>
      </trkpt>
      <trkpt lat="43.36099" lon="-2.5216">
        <ele>110.8</ele>
        <time>2021-05-29 14:02:29</time>
      </trkpt>
      <trkpt lat="43.36093" lon="-2.52162">
        <ele>110.8</ele>
        <time>2021-05-29 14:02:30</time>
      </trkpt>
      <trkpt lat="43.36086" lon="-2.52164">
        <ele>110.8</ele>
        <time>2021-05-29 14:02:31</time>
      </trkpt>
      <trkpt lat="43.3608" lon="-2.52166">
        <ele>111</ele>
        <time>2021-05-29 14:02:32</time>
      </trkpt>
      <trkpt lat="43.36074" lon="-2.52169">
        <ele>111</ele>
        <time>2021-05-29 14:02:33</time>
      </trkpt>
      <trkpt lat="43.36068" lon="-2.52172">
        <ele>111.2</ele>
        <time>2021-05-29 14:02:34</time>
      </trkpt>
      <trkpt lat="43.36063" lon="-2.52176">
        <ele>111.4</ele>
        <time>2021-05-29 14:02:35</time>
      </trkpt>
      <trkpt lat="43.36057" lon="-2.5218">
        <ele>111.4</ele>
        <time>2021-05-29 14:02:36</time>
      </trkpt>
      <trkpt lat="43.36051" lon="-2.52184">
        <ele>111.6</ele>
        <time>2021-05-29 14:02:37</time>
      </trkpt>
      <trkpt lat="43.36045" lon="-2.52188">
        <ele>111.8</ele>
        <time>2021-05-29 14:02:38</time>
      </trkpt>
      <trkpt lat="43.3604" lon="-2.52193">
        <ele>111.8</ele>
        <time>2021-05-29 14:02:39</time>
      </trkpt>
      <trkpt lat="43.36035" lon="-2.52198">
        <ele>112</ele>
        <time>2021-05-29 14:02:40</time>
      </trkpt>
      <trkpt lat="43.3603" lon="-2.52202">
        <ele>112.2</ele>
        <time>2021-05-29 14:02:41</time>
      </trkpt>
      <trkpt lat="43.36026" lon="-2.52208">
        <ele>112.2</ele>
        <time>2021-05-29 14:02:42</time>
      </trkpt>
      <trkpt lat="43.36021" lon="-2.52212">
        <ele>112.2</ele>
        <time>2021-05-29 14:02:43</time>
      </trkpt>
      <trkpt lat="43.36016" lon="-2.52217">
        <ele>112.4</ele>
        <time>2021-05-29 14:02:44</time>
      </trkpt>
      <trkpt lat="43.36012" lon="-2.52222">
        <ele>112.6</ele>
        <time>2021-05-29 14:02:45</time>
      </trkpt>
      <trkpt lat="43.36008" lon="-2.52227">
        <ele>112.8</ele>
        <time>2021-05-29 14:02:46</time>
      </trkpt>
      <trkpt lat="43.36004" lon="-2.52232">
        <ele>113</ele>
        <time>2021-05-29 14:02:47</time>
      </trkpt>
      <trkpt lat="43.35999" lon="-2.52238">
        <ele>113.6</ele>
        <time>2021-05-29 14:02:48</time>
      </trkpt>
      <trkpt lat="43.35995" lon="-2.52243">
        <ele>113.8</ele>
        <time>2021-05-29 14:02:49</time>
      </trkpt>
      <trkpt lat="43.35991" lon="-2.52249">
        <ele>114</ele>
        <time>2021-05-29 14:02:50</time>
      </trkpt>
      <trkpt lat="43.35987" lon="-2.52255">
        <ele>114.4</ele>
        <time>2021-05-29 14:02:51</time>
      </trkpt>
      <trkpt lat="43.35983" lon="-2.52261">
        <ele>114.8</ele>
        <time>2021-05-29 14:02:52</time>
      </trkpt>
      <trkpt lat="43.35979" lon="-2.52267">
        <ele>114.8</ele>
        <time>2021-05-29 14:02:53</time>
      </trkpt>
      <trkpt lat="43.35975" lon="-2.52273">
        <ele>115.2</ele>
        <time>2021-05-29 14:02:54</time>
      </trkpt>
      <trkpt lat="43.35971" lon="-2.5228">
        <ele>115.6</ele>
        <time>2021-05-29 14:02:55</time>
      </trkpt>
      <trkpt lat="43.35968" lon="-2.52286">
        <ele>115.8</ele>
        <time>2021-05-29 14:02:56</time>
      </trkpt>
      <trkpt lat="43.35964" lon="-2.52292">
        <ele>116.2</ele>
        <time>2021-05-29 14:02:57</time>
      </trkpt>
      <trkpt lat="43.35961" lon="-2.52298">
        <ele>116.2</ele>
        <time>2021-05-29 14:02:58</time>
      </trkpt>
      <trkpt lat="43.35958" lon="-2.52304">
        <ele>116.6</ele>
        <time>2021-05-29 14:02:59</time>
      </trkpt>
      <trkpt lat="43.35955" lon="-2.52311">
        <ele>117</ele>
        <time>2021-05-29 14:03:00</time>
      </trkpt>
      <trkpt lat="43.35952" lon="-2.52317">
        <ele>117.2</ele>
        <time>2021-05-29 14:03:01</time>
      </trkpt>
      <trkpt lat="43.35949" lon="-2.52324">
        <ele>117.8</ele>
        <time>2021-05-29 14:03:02</time>
      </trkpt>
      <trkpt lat="43.35945" lon="-2.5233">
        <ele>118.2</ele>
        <time>2021-05-29 14:03:03</time>
      </trkpt>
      <trkpt lat="43.35942" lon="-2.52336">
        <ele>118.4</ele>
        <time>2021-05-29 14:03:04</time>
      </trkpt>
      <trkpt lat="43.35939" lon="-2.52342">
        <ele>118.6</ele>
        <time>2021-05-29 14:03:05</time>
      </trkpt>
      <trkpt lat="43.35936" lon="-2.52348">
        <ele>118.8</ele>
        <time>2021-05-29 14:03:06</time>
      </trkpt>
      <trkpt lat="43.35934" lon="-2.52354">
        <ele>119</ele>
        <time>2021-05-29 14:03:07</time>
      </trkpt>
      <trkpt lat="43.35931" lon="-2.5236">
        <ele>119.4</ele>
        <time>2021-05-29 14:03:08</time>
      </trkpt>
      <trkpt lat="43.35927" lon="-2.52366">
        <ele>119.6</ele>
        <time>2021-05-29 14:03:09</time>
      </trkpt>
      <trkpt lat="43.35924" lon="-2.52371">
        <ele>119.8</ele>
        <time>2021-05-29 14:03:10</time>
      </trkpt>
      <trkpt lat="43.3592" lon="-2.52375">
        <ele>120</ele>
        <time>2021-05-29 14:03:11</time>
      </trkpt>
      <trkpt lat="43.35916" lon="-2.52379">
        <ele>120.4</ele>
        <time>2021-05-29 14:03:12</time>
      </trkpt>
      <trkpt lat="43.35911" lon="-2.52383">
        <ele>121</ele>
        <time>2021-05-29 14:03:13</time>
      </trkpt>
      <trkpt lat="43.35907" lon="-2.52386">
        <ele>121.4</ele>
        <time>2021-05-29 14:03:14</time>
      </trkpt>
      <trkpt lat="43.35903" lon="-2.52389">
        <ele>121.6</ele>
        <time>2021-05-29 14:03:15</time>
      </trkpt>
      <trkpt lat="43.35898" lon="-2.52391">
        <ele>122</ele>
        <time>2021-05-29 14:03:16</time>
      </trkpt>
      <trkpt lat="43.35894" lon="-2.52393">
        <ele>122.2</ele>
        <time>2021-05-29 14:03:17</time>
      </trkpt>
      <trkpt lat="43.35889" lon="-2.52395">
        <ele>122.2</ele>
        <time>2021-05-29 14:03:18</time>
      </trkpt>
      <trkpt lat="43.35885" lon="-2.52396">
        <ele>122.2</ele>
        <time>2021-05-29 14:03:19</time>
      </trkpt>
      <trkpt lat="43.3588" lon="-2.52397">
        <ele>122.6</ele>
        <time>2021-05-29 14:03:20</time>
      </trkpt>
      <trkpt lat="43.35875" lon="-2.52397">
        <ele>122.8</ele>
        <time>2021-05-29 14:03:21</time>
      </trkpt>
      <trkpt lat="43.3587" lon="-2.52397">
        <ele>123.2</ele>
        <time>2021-05-29 14:03:22</time>
      </trkpt>
      <trkpt lat="43.35866" lon="-2.52396">
        <ele>123.2</ele>
        <time>2021-05-29 14:03:23</time>
      </trkpt>
      <trkpt lat="43.35862" lon="-2.52394">
        <ele>123.4</ele>
        <time>2021-05-29 14:03:24</time>
      </trkpt>
      <trkpt lat="43.35858" lon="-2.52392">
        <ele>123.8</ele>
        <time>2021-05-29 14:03:25</time>
      </trkpt>
      <trkpt lat="43.35854" lon="-2.52389">
        <ele>124.2</ele>
        <time>2021-05-29 14:03:26</time>
      </trkpt>
      <trkpt lat="43.3585" lon="-2.52386">
        <ele>124.6</ele>
        <time>2021-05-29 14:03:27</time>
      </trkpt>
      <trkpt lat="43.35845" lon="-2.52383">
        <ele>124.8</ele>
        <time>2021-05-29 14:03:28</time>
      </trkpt>
      <trkpt lat="43.35841" lon="-2.5238">
        <ele>125</ele>
        <time>2021-05-29 14:03:29</time>
      </trkpt>
      <trkpt lat="43.35837" lon="-2.52377">
        <ele>125.2</ele>
        <time>2021-05-29 14:03:30</time>
      </trkpt>
      <trkpt lat="43.35832" lon="-2.52374">
        <ele>125.6</ele>
        <time>2021-05-29 14:03:31</time>
      </trkpt>
      <trkpt lat="43.35827" lon="-2.52371">
        <ele>125.8</ele>
        <time>2021-05-29 14:03:32</time>
      </trkpt>
      <trkpt lat="43.35822" lon="-2.52367">
        <ele>126</ele>
        <time>2021-05-29 14:03:33</time>
      </trkpt>
      <trkpt lat="43.35817" lon="-2.52364">
        <ele>126.2</ele>
        <time>2021-05-29 14:03:34</time>
      </trkpt>
      <trkpt lat="43.35812" lon="-2.52362">
        <ele>126.4</ele>
        <time>2021-05-29 14:03:35</time>
      </trkpt>
      <trkpt lat="43.35808" lon="-2.52359">
        <ele>126.6</ele>
        <time>2021-05-29 14:03:36</time>
      </trkpt>
      <trkpt lat="43.35803" lon="-2.52357">
        <ele>126.8</ele>
        <time>2021-05-29 14:03:37</time>
      </trkpt>
      <trkpt lat="43.35798" lon="-2.52356">
        <ele>127</ele>
        <time>2021-05-29 14:03:38</time>
      </trkpt>
      <trkpt lat="43.35793" lon="-2.52356">
        <ele>127.4</ele>
        <time>2021-05-29 14:03:39</time>
      </trkpt>
      <trkpt lat="43.35788" lon="-2.52357">
        <ele>127.6</ele>
        <time>2021-05-29 14:03:40</time>
      </trkpt>
      <trkpt lat="43.35784" lon="-2.52358">
        <ele>127.8</ele>
        <time>2021-05-29 14:03:41</time>
      </trkpt>
      <trkpt lat="43.3578" lon="-2.52362">
        <ele>128.2</ele>
        <time>2021-05-29 14:03:42</time>
      </trkpt>
      <trkpt lat="43.35775" lon="-2.52365">
        <ele>128.4</ele>
        <time>2021-05-29 14:03:43</time>
      </trkpt>
      <trkpt lat="43.3577" lon="-2.52369">
        <ele>128.8</ele>
        <time>2021-05-29 14:03:44</time>
      </trkpt>
      <trkpt lat="43.35766" lon="-2.52373">
        <ele>129</ele>
        <time>2021-05-29 14:03:45</time>
      </trkpt>
      <trkpt lat="43.35761" lon="-2.52378">
        <ele>129.2</ele>
        <time>2021-05-29 14:03:46</time>
      </trkpt>
      <trkpt lat="43.35756" lon="-2.52383">
        <ele>129.4</ele>
        <time>2021-05-29 14:03:47</time>
      </trkpt>
      <trkpt lat="43.35751" lon="-2.52388">
        <ele>129.8</ele>
        <time>2021-05-29 14:03:48</time>
      </trkpt>
      <trkpt lat="43.35746" lon="-2.52394">
        <ele>130</ele>
        <time>2021-05-29 14:03:49</time>
      </trkpt>
      <trkpt lat="43.35742" lon="-2.52399">
        <ele>130.2</ele>
        <time>2021-05-29 14:03:50</time>
      </trkpt>
      <trkpt lat="43.35737" lon="-2.52405">
        <ele>130.2</ele>
        <time>2021-05-29 14:03:51</time>
      </trkpt>
      <trkpt lat="43.35732" lon="-2.52411">
        <ele>130.4</ele>
        <time>2021-05-29 14:03:52</time>
      </trkpt>
      <trkpt lat="43.35727" lon="-2.52417">
        <ele>130.4</ele>
        <time>2021-05-29 14:03:53</time>
      </trkpt>
      <trkpt lat="43.35723" lon="-2.52425">
        <ele>130.4</ele>
        <time>2021-05-29 14:03:54</time>
      </trkpt>
      <trkpt lat="43.3572" lon="-2.52433">
        <ele>130.4</ele>
        <time>2021-05-29 14:03:55</time>
      </trkpt>
      <trkpt lat="43.35717" lon="-2.52442">
        <ele>130.4</ele>
        <time>2021-05-29 14:03:56</time>
      </trkpt>
      <trkpt lat="43.35715" lon="-2.52451">
        <ele>130.4</ele>
        <time>2021-05-29 14:03:57</time>
      </trkpt>
      <trkpt lat="43.35713" lon="-2.5246">
        <ele>130.2</ele>
        <time>2021-05-29 14:03:58</time>
      </trkpt>
      <trkpt lat="43.3571" lon="-2.5247">
        <ele>130</ele>
        <time>2021-05-29 14:03:59</time>
      </trkpt>
      <trkpt lat="43.35708" lon="-2.52479">
        <ele>130</ele>
        <time>2021-05-29 14:04:00</time>
      </trkpt>
      <trkpt lat="43.35706" lon="-2.52488">
        <ele>130</ele>
        <time>2021-05-29 14:04:01</time>
      </trkpt>
      <trkpt lat="43.35704" lon="-2.52497">
        <ele>129.8</ele>
        <time>2021-05-29 14:04:02</time>
      </trkpt>
      <trkpt lat="43.35703" lon="-2.52506">
        <ele>129.6</ele>
        <time>2021-05-29 14:04:03</time>
      </trkpt>
      <trkpt lat="43.35701" lon="-2.52516">
        <ele>129.4</ele>
        <time>2021-05-29 14:04:04</time>
      </trkpt>
      <trkpt lat="43.357" lon="-2.52525">
        <ele>129.2</ele>
        <time>2021-05-29 14:04:05</time>
      </trkpt>
      <trkpt lat="43.35699" lon="-2.52534">
        <ele>129</ele>
        <time>2021-05-29 14:04:06</time>
      </trkpt>
      <trkpt lat="43.35698" lon="-2.52544">
        <ele>129</ele>
        <time>2021-05-29 14:04:07</time>
      </trkpt>
      <trkpt lat="43.35696" lon="-2.52553">
        <ele>128.6</ele>
        <time>2021-05-29 14:04:08</time>
      </trkpt>
      <trkpt lat="43.35695" lon="-2.52562">
        <ele>128.4</ele>
        <time>2021-05-29 14:04:09</time>
      </trkpt>
      <trkpt lat="43.35693" lon="-2.52571">
        <ele>128.2</ele>
        <time>2021-05-29 14:04:10</time>
      </trkpt>
      <trkpt lat="43.35691" lon="-2.52581">
        <ele>128</ele>
        <time>2021-05-29 14:04:11</time>
      </trkpt>
      <trkpt lat="43.35688" lon="-2.5259">
        <ele>127.8</ele>
        <time>2021-05-29 14:04:12</time>
      </trkpt>
      <trkpt lat="43.35685" lon="-2.526">
        <ele>127.8</ele>
        <time>2021-05-29 14:04:13</time>
      </trkpt>
      <trkpt lat="43.35681" lon="-2.52609">
        <ele>127.8</ele>
        <time>2021-05-29 14:04:14</time>
      </trkpt>
      <trkpt lat="43.35677" lon="-2.52618">
        <ele>127.6</ele>
        <time>2021-05-29 14:04:15</time>
      </trkpt>
      <trkpt lat="43.35672" lon="-2.52627">
        <ele>127.4</ele>
        <time>2021-05-29 14:04:16</time>
      </trkpt>
      <trkpt lat="43.35667" lon="-2.52635">
        <ele>127.2</ele>
        <time>2021-05-29 14:04:17</time>
      </trkpt>
      <trkpt lat="43.35662" lon="-2.52643">
        <ele>127</ele>
        <time>2021-05-29 14:04:18</time>
      </trkpt>
      <trkpt lat="43.35658" lon="-2.52652">
        <ele>127</ele>
        <time>2021-05-29 14:04:19</time>
      </trkpt>
      <trkpt lat="43.35654" lon="-2.5266">
        <ele>126.8</ele>
        <time>2021-05-29 14:04:20</time>
      </trkpt>
      <trkpt lat="43.35651" lon="-2.52668">
        <ele>126.6</ele>
        <time>2021-05-29 14:04:21</time>
      </trkpt>
      <trkpt lat="43.35649" lon="-2.52676">
        <ele>126.6</ele>
        <time>2021-05-29 14:04:22</time>
      </trkpt>
      <trkpt lat="43.35647" lon="-2.52683">
        <ele>126.4</ele>
        <time>2021-05-29 14:04:23</time>
      </trkpt>
      <trkpt lat="43.35646" lon="-2.5269">
        <ele>126.2</ele>
        <time>2021-05-29 14:04:24</time>
      </trkpt>
      <trkpt lat="43.35646" lon="-2.52696">
        <ele>126</ele>
        <time>2021-05-29 14:04:25</time>
      </trkpt>
      <trkpt lat="43.35646" lon="-2.52703">
        <ele>125.8</ele>
        <time>2021-05-29 14:04:26</time>
      </trkpt>
      <trkpt lat="43.35646" lon="-2.52709">
        <ele>125.4</ele>
        <time>2021-05-29 14:04:27</time>
      </trkpt>
      <trkpt lat="43.35646" lon="-2.52715">
        <ele>124.8</ele>
        <time>2021-05-29 14:04:28</time>
      </trkpt>
      <trkpt lat="43.35647" lon="-2.5272">
        <ele>124.8</ele>
        <time>2021-05-29 14:04:29</time>
      </trkpt>
      <trkpt lat="43.35648" lon="-2.52726">
        <ele>124.6</ele>
        <time>2021-05-29 14:04:30</time>
      </trkpt>
      <trkpt lat="43.35649" lon="-2.52733">
        <ele>124.6</ele>
        <time>2021-05-29 14:04:31</time>
      </trkpt>
      <trkpt lat="43.3565" lon="-2.52739">
        <ele>124.4</ele>
        <time>2021-05-29 14:04:32</time>
      </trkpt>
      <trkpt lat="43.35651" lon="-2.52746">
        <ele>124.4</ele>
        <time>2021-05-29 14:04:33</time>
      </trkpt>
      <trkpt lat="43.35653" lon="-2.52753">
        <ele>124.2</ele>
        <time>2021-05-29 14:04:34</time>
      </trkpt>
      <trkpt lat="43.35654" lon="-2.5276">
        <ele>124</ele>
        <time>2021-05-29 14:04:35</time>
      </trkpt>
      <trkpt lat="43.35656" lon="-2.52768">
        <ele>124</ele>
        <time>2021-05-29 14:04:36</time>
      </trkpt>
      <trkpt lat="43.35658" lon="-2.52776">
        <ele>123.8</ele>
        <time>2021-05-29 14:04:37</time>
      </trkpt>
      <trkpt lat="43.35659" lon="-2.52784">
        <ele>123.8</ele>
        <time>2021-05-29 14:04:38</time>
      </trkpt>
      <trkpt lat="43.35661" lon="-2.52792">
        <ele>123.8</ele>
        <time>2021-05-29 14:04:39</time>
      </trkpt>
      <trkpt lat="43.35663" lon="-2.528">
        <ele>123.6</ele>
        <time>2021-05-29 14:04:40</time>
      </trkpt>
      <trkpt lat="43.35665" lon="-2.52807">
        <ele>123.4</ele>
        <time>2021-05-29 14:04:41</time>
      </trkpt>
      <trkpt lat="43.35666" lon="-2.52815">
        <ele>123.2</ele>
        <time>2021-05-29 14:04:42</time>
      </trkpt>
      <trkpt lat="43.35668" lon="-2.52821">
        <ele>123.2</ele>
        <time>2021-05-29 14:04:43</time>
      </trkpt>
      <trkpt lat="43.3567" lon="-2.52828">
        <ele>123.2</ele>
        <time>2021-05-29 14:04:44</time>
      </trkpt>
      <trkpt lat="43.35671" lon="-2.52835">
        <ele>123.2</ele>
        <time>2021-05-29 14:04:45</time>
      </trkpt>
      <trkpt lat="43.35672" lon="-2.5284">
        <ele>123</ele>
        <time>2021-05-29 14:04:46</time>
      </trkpt>
      <trkpt lat="43.35673" lon="-2.52846">
        <ele>123</ele>
        <time>2021-05-29 14:04:47</time>
      </trkpt>
      <trkpt lat="43.35674" lon="-2.52852">
        <ele>122.8</ele>
        <time>2021-05-29 14:04:48</time>
      </trkpt>
      <trkpt lat="43.35676" lon="-2.52859">
        <ele>122.8</ele>
        <time>2021-05-29 14:04:49</time>
      </trkpt>
      <trkpt lat="43.35677" lon="-2.52867">
        <ele>122.6</ele>
        <time>2021-05-29 14:04:50</time>
      </trkpt>
      <trkpt lat="43.35679" lon="-2.52877">
        <ele>122.4</ele>
        <time>2021-05-29 14:04:51</time>
      </trkpt>
      <trkpt lat="43.35681" lon="-2.52887">
        <ele>122.2</ele>
        <time>2021-05-29 14:04:52</time>
      </trkpt>
      <trkpt lat="43.35683" lon="-2.52897">
        <ele>122</ele>
        <time>2021-05-29 14:04:53</time>
      </trkpt>
      <trkpt lat="43.35685" lon="-2.52907">
        <ele>121.8</ele>
        <time>2021-05-29 14:04:54</time>
      </trkpt>
      <trkpt lat="43.35688" lon="-2.52917">
        <ele>121.8</ele>
        <time>2021-05-29 14:04:55</time>
      </trkpt>
      <trkpt lat="43.35692" lon="-2.52927">
        <ele>121.6</ele>
        <time>2021-05-29 14:04:56</time>
      </trkpt>
      <trkpt lat="43.35697" lon="-2.52936">
        <ele>121.6</ele>
        <time>2021-05-29 14:04:57</time>
      </trkpt>
      <trkpt lat="43.35704" lon="-2.52944">
        <ele>121.4</ele>
        <time>2021-05-29 14:04:58</time>
      </trkpt>
      <trkpt lat="43.35712" lon="-2.5295">
        <ele>121.4</ele>
        <time>2021-05-29 14:04:59</time>
      </trkpt>
      <trkpt lat="43.35721" lon="-2.52954">
        <ele>121.2</ele>
        <time>2021-05-29 14:05:00</time>
      </trkpt>
      <trkpt lat="43.3573" lon="-2.52958">
        <ele>121.2</ele>
        <time>2021-05-29 14:05:01</time>
      </trkpt>
      <trkpt lat="43.35739" lon="-2.52963">
        <ele>121.2</ele>
        <time>2021-05-29 14:05:02</time>
      </trkpt>
      <trkpt lat="43.35748" lon="-2.52968">
        <ele>121</ele>
        <time>2021-05-29 14:05:03</time>
      </trkpt>
      <trkpt lat="43.35758" lon="-2.52973">
        <ele>120.8</ele>
        <time>2021-05-29 14:05:04</time>
      </trkpt>
      <trkpt lat="43.35767" lon="-2.52978">
        <ele>120.6</ele>
        <time>2021-05-29 14:05:05</time>
      </trkpt>
      <trkpt lat="43.35777" lon="-2.52983">
        <ele>120.2</ele>
        <time>2021-05-29 14:05:06</time>
      </trkpt>
      <trkpt lat="43.35787" lon="-2.52988">
        <ele>119.4</ele>
        <time>2021-05-29 14:05:07</time>
      </trkpt>
      <trkpt lat="43.35797" lon="-2.52993">
        <ele>119.2</ele>
        <time>2021-05-29 14:05:08</time>
      </trkpt>
      <trkpt lat="43.35806" lon="-2.52999">
        <ele>118.6</ele>
        <time>2021-05-29 14:05:09</time>
      </trkpt>
      <trkpt lat="43.35816" lon="-2.53007">
        <ele>118.2</ele>
        <time>2021-05-29 14:05:10</time>
      </trkpt>
      <trkpt lat="43.35823" lon="-2.53018">
        <ele>117.4</ele>
        <time>2021-05-29 14:05:11</time>
      </trkpt>
      <trkpt lat="43.35828" lon="-2.53031">
        <ele>117</ele>
        <time>2021-05-29 14:05:12</time>
      </trkpt>
      <trkpt lat="43.35833" lon="-2.53044">
        <ele>116.6</ele>
        <time>2021-05-29 14:05:13</time>
      </trkpt>
      <trkpt lat="43.35837" lon="-2.53059">
        <ele>115.8</ele>
        <time>2021-05-29 14:05:14</time>
      </trkpt>
      <trkpt lat="43.35841" lon="-2.53074">
        <ele>114.8</ele>
        <time>2021-05-29 14:05:15</time>
      </trkpt>
      <trkpt lat="43.35843" lon="-2.5309">
        <ele>114</ele>
        <time>2021-05-29 14:05:16</time>
      </trkpt>
      <trkpt lat="43.35846" lon="-2.53107">
        <ele>113.6</ele>
        <time>2021-05-29 14:05:17</time>
      </trkpt>
      <trkpt lat="43.35849" lon="-2.53124">
        <ele>113.4</ele>
        <time>2021-05-29 14:05:18</time>
      </trkpt>
      <trkpt lat="43.35852" lon="-2.53141">
        <ele>113</ele>
        <time>2021-05-29 14:05:19</time>
      </trkpt>
      <trkpt lat="43.35856" lon="-2.53159">
        <ele>112.6</ele>
        <time>2021-05-29 14:05:20</time>
      </trkpt>
      <trkpt lat="43.35859" lon="-2.53176">
        <ele>112.2</ele>
        <time>2021-05-29 14:05:21</time>
      </trkpt>
      <trkpt lat="43.35863" lon="-2.53193">
        <ele>111.8</ele>
        <time>2021-05-29 14:05:22</time>
      </trkpt>
      <trkpt lat="43.35867" lon="-2.5321">
        <ele>111.2</ele>
        <time>2021-05-29 14:05:23</time>
      </trkpt>
      <trkpt lat="43.35872" lon="-2.53228">
        <ele>110.6</ele>
        <time>2021-05-29 14:05:24</time>
      </trkpt>
      <trkpt lat="43.35876" lon="-2.53245">
        <ele>109.6</ele>
        <time>2021-05-29 14:05:25</time>
      </trkpt>
      <trkpt lat="43.35881" lon="-2.53263">
        <ele>109</ele>
        <time>2021-05-29 14:05:26</time>
      </trkpt>
      <trkpt lat="43.35887" lon="-2.5328">
        <ele>108.2</ele>
        <time>2021-05-29 14:05:27</time>
      </trkpt>
      <trkpt lat="43.35893" lon="-2.53297">
        <ele>107.6</ele>
        <time>2021-05-29 14:05:28</time>
      </trkpt>
      <trkpt lat="43.35899" lon="-2.53315">
        <ele>107</ele>
        <time>2021-05-29 14:05:29</time>
      </trkpt>
      <trkpt lat="43.35904" lon="-2.53333">
        <ele>106.6</ele>
        <time>2021-05-29 14:05:30</time>
      </trkpt>
      <trkpt lat="43.3591" lon="-2.53351">
        <ele>106</ele>
        <time>2021-05-29 14:05:31</time>
      </trkpt>
      <trkpt lat="43.35915" lon="-2.5337">
        <ele>105.2</ele>
        <time>2021-05-29 14:05:32</time>
      </trkpt>
      <trkpt lat="43.35919" lon="-2.5339">
        <ele>104.2</ele>
        <time>2021-05-29 14:05:33</time>
      </trkpt>
      <trkpt lat="43.35923" lon="-2.53409">
        <ele>103.6</ele>
        <time>2021-05-29 14:05:34</time>
      </trkpt>
      <trkpt lat="43.35927" lon="-2.53429">
        <ele>103</ele>
        <time>2021-05-29 14:05:35</time>
      </trkpt>
      <trkpt lat="43.3593" lon="-2.53449">
        <ele>102.6</ele>
        <time>2021-05-29 14:05:36</time>
      </trkpt>
      <trkpt lat="43.35934" lon="-2.53468">
        <ele>102.2</ele>
        <time>2021-05-29 14:05:37</time>
      </trkpt>
      <trkpt lat="43.35938" lon="-2.53487">
        <ele>101.6</ele>
        <time>2021-05-29 14:05:38</time>
      </trkpt>
      <trkpt lat="43.35942" lon="-2.53505">
        <ele>100.6</ele>
        <time>2021-05-29 14:05:39</time>
      </trkpt>
      <trkpt lat="43.35946" lon="-2.53524">
        <ele>99.8</ele>
        <time>2021-05-29 14:05:40</time>
      </trkpt>
      <trkpt lat="43.3595" lon="-2.53543">
        <ele>98.2</ele>
        <time>2021-05-29 14:05:41</time>
      </trkpt>
      <trkpt lat="43.35954" lon="-2.53561">
        <ele>97.6</ele>
        <time>2021-05-29 14:05:42</time>
      </trkpt>
      <trkpt lat="43.3596" lon="-2.5358">
        <ele>96.8</ele>
        <time>2021-05-29 14:05:43</time>
      </trkpt>
      <trkpt lat="43.35965" lon="-2.53597">
        <ele>96.2</ele>
        <time>2021-05-29 14:05:44</time>
      </trkpt>
      <trkpt lat="43.35972" lon="-2.53615">
        <ele>95.4</ele>
        <time>2021-05-29 14:05:45</time>
      </trkpt>
      <trkpt lat="43.35978" lon="-2.53632">
        <ele>94.8</ele>
        <time>2021-05-29 14:05:46</time>
      </trkpt>
      <trkpt lat="43.35984" lon="-2.5365">
        <ele>94.2</ele>
        <time>2021-05-29 14:05:47</time>
      </trkpt>
      <trkpt lat="43.35989" lon="-2.53668">
        <ele>93.6</ele>
        <time>2021-05-29 14:05:48</time>
      </trkpt>
      <trkpt lat="43.35993" lon="-2.53686">
        <ele>93</ele>
        <time>2021-05-29 14:05:49</time>
      </trkpt>
      <trkpt lat="43.35997" lon="-2.53704">
        <ele>92.4</ele>
        <time>2021-05-29 14:05:50</time>
      </trkpt>
      <trkpt lat="43.36" lon="-2.53721">
        <ele>91.2</ele>
        <time>2021-05-29 14:05:51</time>
      </trkpt>
      <trkpt lat="43.36002" lon="-2.53738">
        <ele>90.4</ele>
        <time>2021-05-29 14:05:52</time>
      </trkpt>
      <trkpt lat="43.36004" lon="-2.53755">
        <ele>90</ele>
        <time>2021-05-29 14:05:53</time>
      </trkpt>
      <trkpt lat="43.36005" lon="-2.53772">
        <ele>89.2</ele>
        <time>2021-05-29 14:05:54</time>
      </trkpt>
      <trkpt lat="43.36007" lon="-2.53788">
        <ele>88.2</ele>
        <time>2021-05-29 14:05:55</time>
      </trkpt>
      <trkpt lat="43.36009" lon="-2.53803">
        <ele>87.8</ele>
        <time>2021-05-29 14:05:56</time>
      </trkpt>
      <trkpt lat="43.36011" lon="-2.53819">
        <ele>87</ele>
        <time>2021-05-29 14:05:57</time>
      </trkpt>
      <trkpt lat="43.36013" lon="-2.53834">
        <ele>86.2</ele>
        <time>2021-05-29 14:05:58</time>
      </trkpt>
      <trkpt lat="43.36016" lon="-2.5385">
        <ele>85.4</ele>
        <time>2021-05-29 14:05:59</time>
      </trkpt>
      <trkpt lat="43.36019" lon="-2.53865">
        <ele>84.4</ele>
        <time>2021-05-29 14:06:00</time>
      </trkpt>
      <trkpt lat="43.36023" lon="-2.53879">
        <ele>83.8</ele>
        <time>2021-05-29 14:06:01</time>
      </trkpt>
      <trkpt lat="43.36028" lon="-2.53893">
        <ele>83.2</ele>
        <time>2021-05-29 14:06:02</time>
      </trkpt>
      <trkpt lat="43.36034" lon="-2.53906">
        <ele>82.8</ele>
        <time>2021-05-29 14:06:03</time>
      </trkpt>
      <trkpt lat="43.3604" lon="-2.53917">
        <ele>82.6</ele>
        <time>2021-05-29 14:06:04</time>
      </trkpt>
      <trkpt lat="43.36045" lon="-2.53929">
        <ele>82.4</ele>
        <time>2021-05-29 14:06:05</time>
      </trkpt>
      <trkpt lat="43.36051" lon="-2.53941">
        <ele>82.2</ele>
        <time>2021-05-29 14:06:06</time>
      </trkpt>
      <trkpt lat="43.36056" lon="-2.53953">
        <ele>82.2</ele>
        <time>2021-05-29 14:06:07</time>
      </trkpt>
      <trkpt lat="43.36062" lon="-2.53964">
        <ele>82</ele>
        <time>2021-05-29 14:06:08</time>
      </trkpt>
      <trkpt lat="43.36067" lon="-2.53977">
        <ele>82</ele>
        <time>2021-05-29 14:06:09</time>
      </trkpt>
      <trkpt lat="43.36071" lon="-2.5399">
        <ele>81.8</ele>
        <time>2021-05-29 14:06:10</time>
      </trkpt>
      <trkpt lat="43.36074" lon="-2.54004">
        <ele>81.6</ele>
        <time>2021-05-29 14:06:11</time>
      </trkpt>
      <trkpt lat="43.36075" lon="-2.54018">
        <ele>80.8</ele>
        <time>2021-05-29 14:06:12</time>
      </trkpt>
      <trkpt lat="43.36075" lon="-2.54032">
        <ele>80.6</ele>
        <time>2021-05-29 14:06:13</time>
      </trkpt>
      <trkpt lat="43.36075" lon="-2.54046">
        <ele>80.2</ele>
        <time>2021-05-29 14:06:14</time>
      </trkpt>
      <trkpt lat="43.36075" lon="-2.54059">
        <ele>80</ele>
        <time>2021-05-29 14:06:15</time>
      </trkpt>
      <trkpt lat="43.36075" lon="-2.54071">
        <ele>80</ele>
        <time>2021-05-29 14:06:16</time>
      </trkpt>
      <trkpt lat="43.36075" lon="-2.54082">
        <ele>80</ele>
        <time>2021-05-29 14:06:17</time>
      </trkpt>
      <trkpt lat="43.36075" lon="-2.54093">
        <ele>80</ele>
        <time>2021-05-29 14:06:18</time>
      </trkpt>
      <trkpt lat="43.36076" lon="-2.54103">
        <ele>80</ele>
        <time>2021-05-29 14:06:19</time>
      </trkpt>
      <trkpt lat="43.36077" lon="-2.54112">
        <ele>80</ele>
        <time>2021-05-29 14:06:20</time>
      </trkpt>
      <trkpt lat="43.36079" lon="-2.54122">
        <ele>80</ele>
        <time>2021-05-29 14:06:21</time>
      </trkpt>
      <trkpt lat="43.3608" lon="-2.54131">
        <ele>80</ele>
        <time>2021-05-29 14:06:22</time>
      </trkpt>
      <trkpt lat="43.36082" lon="-2.5414">
        <ele>80</ele>
        <time>2021-05-29 14:06:23</time>
      </trkpt>
      <trkpt lat="43.36084" lon="-2.54148">
        <ele>80.2</ele>
        <time>2021-05-29 14:06:24</time>
      </trkpt>
      <trkpt lat="43.36086" lon="-2.54156">
        <ele>80.4</ele>
        <time>2021-05-29 14:06:25</time>
      </trkpt>
      <trkpt lat="43.36088" lon="-2.54164">
        <ele>80.6</ele>
        <time>2021-05-29 14:06:26</time>
      </trkpt>
      <trkpt lat="43.3609" lon="-2.54172">
        <ele>80.8</ele>
        <time>2021-05-29 14:06:27</time>
      </trkpt>
      <trkpt lat="43.36092" lon="-2.54179">
        <ele>81</ele>
        <time>2021-05-29 14:06:28</time>
      </trkpt>
      <trkpt lat="43.36094" lon="-2.54186">
        <ele>81.2</ele>
        <time>2021-05-29 14:06:29</time>
      </trkpt>
      <trkpt lat="43.36096" lon="-2.54193">
        <ele>81.6</ele>
        <time>2021-05-29 14:06:30</time>
      </trkpt>
      <trkpt lat="43.36098" lon="-2.54201">
        <ele>82</ele>
        <time>2021-05-29 14:06:31</time>
      </trkpt>
      <trkpt lat="43.361" lon="-2.54208">
        <ele>82.2</ele>
        <time>2021-05-29 14:06:32</time>
      </trkpt>
      <trkpt lat="43.36102" lon="-2.54216">
        <ele>82.6</ele>
        <time>2021-05-29 14:06:33</time>
      </trkpt>
      <trkpt lat="43.36104" lon="-2.54223">
        <ele>82.8</ele>
        <time>2021-05-29 14:06:34</time>
      </trkpt>
      <trkpt lat="43.36106" lon="-2.5423">
        <ele>83</ele>
        <time>2021-05-29 14:06:35</time>
      </trkpt>
      <trkpt lat="43.36108" lon="-2.54238">
        <ele>83.4</ele>
        <time>2021-05-29 14:06:36</time>
      </trkpt>
      <trkpt lat="43.3611" lon="-2.54245">
        <ele>84</ele>
        <time>2021-05-29 14:06:37</time>
      </trkpt>
      <trkpt lat="43.36112" lon="-2.54253">
        <ele>84.2</ele>
        <time>2021-05-29 14:06:38</time>
      </trkpt>
      <trkpt lat="43.36113" lon="-2.5426">
        <ele>84.4</ele>
        <time>2021-05-29 14:06:39</time>
      </trkpt>
      <trkpt lat="43.36115" lon="-2.54267">
        <ele>84.8</ele>
        <time>2021-05-29 14:06:40</time>
      </trkpt>
      <trkpt lat="43.36117" lon="-2.54274">
        <ele>85</ele>
        <time>2021-05-29 14:06:41</time>
      </trkpt>
      <trkpt lat="43.36119" lon="-2.54281">
        <ele>85.2</ele>
        <time>2021-05-29 14:06:42</time>
      </trkpt>
      <trkpt lat="43.36121" lon="-2.54288">
        <ele>85.6</ele>
        <time>2021-05-29 14:06:43</time>
      </trkpt>
      <trkpt lat="43.36123" lon="-2.54295">
        <ele>86</ele>
        <time>2021-05-29 14:06:44</time>
      </trkpt>
      <trkpt lat="43.36125" lon="-2.54302">
        <ele>86.2</ele>
        <time>2021-05-29 14:06:45</time>
      </trkpt>
      <trkpt lat="43.36126" lon="-2.54309">
        <ele>86.6</ele>
        <time>2021-05-29 14:06:46</time>
      </trkpt>
      <trkpt lat="43.36128" lon="-2.54315">
        <ele>86.8</ele>
        <time>2021-05-29 14:06:47</time>
      </trkpt>
      <trkpt lat="43.3613" lon="-2.54322">
        <ele>87.4</ele>
        <time>2021-05-29 14:06:48</time>
      </trkpt>
      <trkpt lat="43.36131" lon="-2.54328">
        <ele>87.6</ele>
        <time>2021-05-29 14:06:49</time>
      </trkpt>
      <trkpt lat="43.36133" lon="-2.54334">
        <ele>88</ele>
        <time>2021-05-29 14:06:50</time>
      </trkpt>
      <trkpt lat="43.36134" lon="-2.54341">
        <ele>88.2</ele>
        <time>2021-05-29 14:06:51</time>
      </trkpt>
      <trkpt lat="43.36136" lon="-2.54347">
        <ele>88.4</ele>
        <time>2021-05-29 14:06:52</time>
      </trkpt>
      <trkpt lat="43.36138" lon="-2.54353">
        <ele>88.6</ele>
        <time>2021-05-29 14:06:53</time>
      </trkpt>
      <trkpt lat="43.36139" lon="-2.5436">
        <ele>88.8</ele>
        <time>2021-05-29 14:06:54</time>
      </trkpt>
      <trkpt lat="43.36141" lon="-2.54366">
        <ele>89</ele>
        <time>2021-05-29 14:06:55</time>
      </trkpt>
      <trkpt lat="43.36143" lon="-2.54373">
        <ele>89</ele>
        <time>2021-05-29 14:06:56</time>
      </trkpt>
      <trkpt lat="43.36144" lon="-2.54379">
        <ele>89.4</ele>
        <time>2021-05-29 14:06:57</time>
      </trkpt>
      <trkpt lat="43.36146" lon="-2.54386">
        <ele>89.4</ele>
        <time>2021-05-29 14:06:58</time>
      </trkpt>
      <trkpt lat="43.36147" lon="-2.54393">
        <ele>89.8</ele>
        <time>2021-05-29 14:06:59</time>
      </trkpt>
      <trkpt lat="43.36149" lon="-2.544">
        <ele>90</ele>
        <time>2021-05-29 14:07:00</time>
      </trkpt>
      <trkpt lat="43.3615" lon="-2.54407">
        <ele>90.4</ele>
        <time>2021-05-29 14:07:01</time>
      </trkpt>
      <trkpt lat="43.36152" lon="-2.54414">
        <ele>90.6</ele>
        <time>2021-05-29 14:07:02</time>
      </trkpt>
      <trkpt lat="43.36155" lon="-2.54421">
        <ele>90.8</ele>
        <time>2021-05-29 14:07:03</time>
      </trkpt>
      <trkpt lat="43.36157" lon="-2.54429">
        <ele>91</ele>
        <time>2021-05-29 14:07:04</time>
      </trkpt>
      <trkpt lat="43.36159" lon="-2.54437">
        <ele>91.2</ele>
        <time>2021-05-29 14:07:05</time>
      </trkpt>
      <trkpt lat="43.36162" lon="-2.54445">
        <ele>91.2</ele>
        <time>2021-05-29 14:07:06</time>
      </trkpt>
      <trkpt lat="43.36164" lon="-2.54454">
        <ele>91.2</ele>
        <time>2021-05-29 14:07:07</time>
      </trkpt>
      <trkpt lat="43.36167" lon="-2.54463">
        <ele>91.2</ele>
        <time>2021-05-29 14:07:08</time>
      </trkpt>
      <trkpt lat="43.36171" lon="-2.54471">
        <ele>91.4</ele>
        <time>2021-05-29 14:07:09</time>
      </trkpt>
      <trkpt lat="43.36174" lon="-2.5448">
        <ele>91.4</ele>
        <time>2021-05-29 14:07:10</time>
      </trkpt>
      <trkpt lat="43.36177" lon="-2.54489">
        <ele>91.4</ele>
        <time>2021-05-29 14:07:11</time>
      </trkpt>
      <trkpt lat="43.36181" lon="-2.54498">
        <ele>91.4</ele>
        <time>2021-05-29 14:07:12</time>
      </trkpt>
      <trkpt lat="43.36185" lon="-2.54506">
        <ele>91.4</ele>
        <time>2021-05-29 14:07:13</time>
      </trkpt>
      <trkpt lat="43.3619" lon="-2.54514">
        <ele>91.4</ele>
        <time>2021-05-29 14:07:14</time>
      </trkpt>
      <trkpt lat="43.36195" lon="-2.54522">
        <ele>91.2</ele>
        <time>2021-05-29 14:07:15</time>
      </trkpt>
      <trkpt lat="43.36201" lon="-2.54531">
        <ele>91.2</ele>
        <time>2021-05-29 14:07:16</time>
      </trkpt>
      <trkpt lat="43.36206" lon="-2.5454">
        <ele>90.8</ele>
        <time>2021-05-29 14:07:17</time>
      </trkpt>
      <trkpt lat="43.36211" lon="-2.54549">
        <ele>90.8</ele>
        <time>2021-05-29 14:07:18</time>
      </trkpt>
      <trkpt lat="43.36216" lon="-2.54557">
        <ele>90.6</ele>
        <time>2021-05-29 14:07:19</time>
      </trkpt>
      <trkpt lat="43.36221" lon="-2.54566">
        <ele>90.6</ele>
        <time>2021-05-29 14:07:20</time>
      </trkpt>
      <trkpt lat="43.36227" lon="-2.54576">
        <ele>90.4</ele>
        <time>2021-05-29 14:07:21</time>
      </trkpt>
      <trkpt lat="43.36232" lon="-2.54585">
        <ele>90.2</ele>
        <time>2021-05-29 14:07:22</time>
      </trkpt>
      <trkpt lat="43.36238" lon="-2.54594">
        <ele>90.2</ele>
        <time>2021-05-29 14:07:23</time>
      </trkpt>
      <trkpt lat="43.36244" lon="-2.54603">
        <ele>90</ele>
        <time>2021-05-29 14:07:24</time>
      </trkpt>
      <trkpt lat="43.36249" lon="-2.54613">
        <ele>89.8</ele>
        <time>2021-05-29 14:07:25</time>
      </trkpt>
      <trkpt lat="43.36255" lon="-2.54622">
        <ele>89.2</ele>
        <time>2021-05-29 14:07:26</time>
      </trkpt>
      <trkpt lat="43.36261" lon="-2.54632">
        <ele>89</ele>
        <time>2021-05-29 14:07:27</time>
      </trkpt>
      <trkpt lat="43.36267" lon="-2.5464">
        <ele>88.8</ele>
        <time>2021-05-29 14:07:28</time>
      </trkpt>
      <trkpt lat="43.36273" lon="-2.54648">
        <ele>88.4</ele>
        <time>2021-05-29 14:07:29</time>
      </trkpt>
      <trkpt lat="43.36278" lon="-2.54656">
        <ele>88.2</ele>
        <time>2021-05-29 14:07:30</time>
      </trkpt>
      <trkpt lat="43.36283" lon="-2.54666">
        <ele>88.2</ele>
        <time>2021-05-29 14:07:31</time>
      </trkpt>
      <trkpt lat="43.36287" lon="-2.54675">
        <ele>87.6</ele>
        <time>2021-05-29 14:07:32</time>
      </trkpt>
      <trkpt lat="43.36292" lon="-2.54684">
        <ele>87.4</ele>
        <time>2021-05-29 14:07:33</time>
      </trkpt>
      <trkpt lat="43.36297" lon="-2.54692">
        <ele>87.2</ele>
        <time>2021-05-29 14:07:34</time>
      </trkpt>
      <trkpt lat="43.36302" lon="-2.547">
        <ele>87</ele>
        <time>2021-05-29 14:07:35</time>
      </trkpt>
      <trkpt lat="43.36307" lon="-2.54708">
        <ele>87</ele>
        <time>2021-05-29 14:07:36</time>
      </trkpt>
      <trkpt lat="43.36311" lon="-2.54717">
        <ele>87</ele>
        <time>2021-05-29 14:07:37</time>
      </trkpt>
      <trkpt lat="43.36316" lon="-2.54724">
        <ele>87</ele>
        <time>2021-05-29 14:07:38</time>
      </trkpt>
      <trkpt lat="43.36321" lon="-2.54732">
        <ele>87</ele>
        <time>2021-05-29 14:07:39</time>
      </trkpt>
      <trkpt lat="43.36325" lon="-2.5474">
        <ele>87</ele>
        <time>2021-05-29 14:07:40</time>
      </trkpt>
      <trkpt lat="43.3633" lon="-2.54747">
        <ele>87</ele>
        <time>2021-05-29 14:07:41</time>
      </trkpt>
      <trkpt lat="43.36334" lon="-2.54755">
        <ele>87</ele>
        <time>2021-05-29 14:07:42</time>
      </trkpt>
      <trkpt lat="43.36339" lon="-2.54762">
        <ele>87</ele>
        <time>2021-05-29 14:07:43</time>
      </trkpt>
      <trkpt lat="43.36343" lon="-2.54769">
        <ele>87.2</ele>
        <time>2021-05-29 14:07:44</time>
      </trkpt>
      <trkpt lat="43.36348" lon="-2.54776">
        <ele>87.6</ele>
        <time>2021-05-29 14:07:45</time>
      </trkpt>
      <trkpt lat="43.36352" lon="-2.54784">
        <ele>87.6</ele>
        <time>2021-05-29 14:07:46</time>
      </trkpt>
      <trkpt lat="43.36356" lon="-2.54791">
        <ele>88</ele>
        <time>2021-05-29 14:07:47</time>
      </trkpt>
      <trkpt lat="43.36361" lon="-2.54797">
        <ele>88.2</ele>
        <time>2021-05-29 14:07:48</time>
      </trkpt>
      <trkpt lat="43.36365" lon="-2.54804">
        <ele>88.4</ele>
        <time>2021-05-29 14:07:49</time>
      </trkpt>
      <trkpt lat="43.36369" lon="-2.54811">
        <ele>88.4</ele>
        <time>2021-05-29 14:07:50</time>
      </trkpt>
      <trkpt lat="43.36372" lon="-2.54818">
        <ele>89.2</ele>
        <time>2021-05-29 14:07:51</time>
      </trkpt>
      <trkpt lat="43.36376" lon="-2.54824">
        <ele>89.6</ele>
        <time>2021-05-29 14:07:52</time>
      </trkpt>
      <trkpt lat="43.3638" lon="-2.5483">
        <ele>89.8</ele>
        <time>2021-05-29 14:07:53</time>
      </trkpt>
      <trkpt lat="43.36383" lon="-2.54836">
        <ele>89.8</ele>
        <time>2021-05-29 14:07:54</time>
      </trkpt>
      <trkpt lat="43.36387" lon="-2.54842">
        <ele>90</ele>
        <time>2021-05-29 14:07:55</time>
      </trkpt>
      <trkpt lat="43.36391" lon="-2.54847">
        <ele>90</ele>
        <time>2021-05-29 14:07:56</time>
      </trkpt>
      <trkpt lat="43.36394" lon="-2.54853">
        <ele>90.2</ele>
        <time>2021-05-29 14:07:57</time>
      </trkpt>
      <trkpt lat="43.36398" lon="-2.54858">
        <ele>90.2</ele>
        <time>2021-05-29 14:07:58</time>
      </trkpt>
      <trkpt lat="43.36401" lon="-2.54864">
        <ele>90.6</ele>
        <time>2021-05-29 14:07:59</time>
      </trkpt>
      <trkpt lat="43.36404" lon="-2.54869">
        <ele>90.6</ele>
        <time>2021-05-29 14:08:00</time>
      </trkpt>
      <trkpt lat="43.36408" lon="-2.54875">
        <ele>91</ele>
        <time>2021-05-29 14:08:01</time>
      </trkpt>
      <trkpt lat="43.36411" lon="-2.54881">
        <ele>91.4</ele>
        <time>2021-05-29 14:08:02</time>
      </trkpt>
      <trkpt lat="43.36414" lon="-2.54886">
        <ele>91.6</ele>
        <time>2021-05-29 14:08:03</time>
      </trkpt>
      <trkpt lat="43.36418" lon="-2.54891">
        <ele>91.6</ele>
        <time>2021-05-29 14:08:04</time>
      </trkpt>
      <trkpt lat="43.36421" lon="-2.54897">
        <ele>91.8</ele>
        <time>2021-05-29 14:08:05</time>
      </trkpt>
      <trkpt lat="43.36423" lon="-2.54902">
        <ele>92</ele>
        <time>2021-05-29 14:08:06</time>
      </trkpt>
      <trkpt lat="43.36426" lon="-2.54907">
        <ele>92</ele>
        <time>2021-05-29 14:08:07</time>
      </trkpt>
      <trkpt lat="43.36428" lon="-2.54912">
        <ele>92.2</ele>
        <time>2021-05-29 14:08:08</time>
      </trkpt>
      <trkpt lat="43.36431" lon="-2.54917">
        <ele>92.2</ele>
        <time>2021-05-29 14:08:09</time>
      </trkpt>
      <trkpt lat="43.36433" lon="-2.54923">
        <ele>92.4</ele>
        <time>2021-05-29 14:08:10</time>
      </trkpt>
      <trkpt lat="43.36436" lon="-2.54929">
        <ele>92.6</ele>
        <time>2021-05-29 14:08:11</time>
      </trkpt>
      <trkpt lat="43.36438" lon="-2.54935">
        <ele>93</ele>
        <time>2021-05-29 14:08:12</time>
      </trkpt>
      <trkpt lat="43.3644" lon="-2.5494">
        <ele>93.4</ele>
        <time>2021-05-29 14:08:13</time>
      </trkpt>
      <trkpt lat="43.36442" lon="-2.54946">
        <ele>93.6</ele>
        <time>2021-05-29 14:08:14</time>
      </trkpt>
      <trkpt lat="43.36444" lon="-2.54952">
        <ele>94</ele>
        <time>2021-05-29 14:08:15</time>
      </trkpt>
      <trkpt lat="43.36446" lon="-2.54958">
        <ele>94.2</ele>
        <time>2021-05-29 14:08:16</time>
      </trkpt>
      <trkpt lat="43.36449" lon="-2.54965">
        <ele>94.4</ele>
        <time>2021-05-29 14:08:17</time>
      </trkpt>
      <trkpt lat="43.36451" lon="-2.54972">
        <ele>94.6</ele>
        <time>2021-05-29 14:08:18</time>
      </trkpt>
      <trkpt lat="43.36453" lon="-2.54978">
        <ele>94.8</ele>
        <time>2021-05-29 14:08:19</time>
      </trkpt>
      <trkpt lat="43.36455" lon="-2.54985">
        <ele>95</ele>
        <time>2021-05-29 14:08:20</time>
      </trkpt>
      <trkpt lat="43.36458" lon="-2.54992">
        <ele>95.2</ele>
        <time>2021-05-29 14:08:21</time>
      </trkpt>
      <trkpt lat="43.3646" lon="-2.54999">
        <ele>95.4</ele>
        <time>2021-05-29 14:08:22</time>
      </trkpt>
      <trkpt lat="43.36462" lon="-2.55005">
        <ele>95.6</ele>
        <time>2021-05-29 14:08:23</time>
      </trkpt>
      <trkpt lat="43.36464" lon="-2.55012">
        <ele>95.8</ele>
        <time>2021-05-29 14:08:24</time>
      </trkpt>
      <trkpt lat="43.36466" lon="-2.55018">
        <ele>96</ele>
        <time>2021-05-29 14:08:25</time>
      </trkpt>
      <trkpt lat="43.36468" lon="-2.55024">
        <ele>96.6</ele>
        <time>2021-05-29 14:08:26</time>
      </trkpt>
      <trkpt lat="43.3647" lon="-2.55031">
        <ele>97</ele>
        <time>2021-05-29 14:08:27</time>
      </trkpt>
      <trkpt lat="43.36472" lon="-2.55037">
        <ele>97.4</ele>
        <time>2021-05-29 14:08:28</time>
      </trkpt>
      <trkpt lat="43.36474" lon="-2.55043">
        <ele>97.8</ele>
        <time>2021-05-29 14:08:29</time>
      </trkpt>
      <trkpt lat="43.36475" lon="-2.5505">
        <ele>98</ele>
        <time>2021-05-29 14:08:30</time>
      </trkpt>
      <trkpt lat="43.36476" lon="-2.55057">
        <ele>98.4</ele>
        <time>2021-05-29 14:08:31</time>
      </trkpt>
      <trkpt lat="43.36478" lon="-2.55064">
        <ele>98.8</ele>
        <time>2021-05-29 14:08:32</time>
      </trkpt>
      <trkpt lat="43.36478" lon="-2.55071">
        <ele>98.8</ele>
        <time>2021-05-29 14:08:33</time>
      </trkpt>
      <trkpt lat="43.36478" lon="-2.55079">
        <ele>99.4</ele>
        <time>2021-05-29 14:08:34</time>
      </trkpt>
      <trkpt lat="43.36479" lon="-2.55086">
        <ele>99.6</ele>
        <time>2021-05-29 14:08:35</time>
      </trkpt>
      <trkpt lat="43.36479" lon="-2.55093">
        <ele>99.8</ele>
        <time>2021-05-29 14:08:36</time>
      </trkpt>
      <trkpt lat="43.36479" lon="-2.551">
        <ele>100</ele>
        <time>2021-05-29 14:08:37</time>
      </trkpt>
      <trkpt lat="43.36479" lon="-2.55107">
        <ele>100.4</ele>
        <time>2021-05-29 14:08:38</time>
      </trkpt>
      <trkpt lat="43.36479" lon="-2.55113">
        <ele>100.6</ele>
        <time>2021-05-29 14:08:39</time>
      </trkpt>
      <trkpt lat="43.36478" lon="-2.55119">
        <ele>100.8</ele>
        <time>2021-05-29 14:08:40</time>
      </trkpt>
      <trkpt lat="43.36478" lon="-2.55126">
        <ele>101</ele>
        <time>2021-05-29 14:08:41</time>
      </trkpt>
      <trkpt lat="43.36478" lon="-2.55132">
        <ele>101.2</ele>
        <time>2021-05-29 14:08:42</time>
      </trkpt>
      <trkpt lat="43.36478" lon="-2.55139">
        <ele>101.6</ele>
        <time>2021-05-29 14:08:43</time>
      </trkpt>
      <trkpt lat="43.36478" lon="-2.55146">
        <ele>101.6</ele>
        <time>2021-05-29 14:08:44</time>
      </trkpt>
      <trkpt lat="43.36477" lon="-2.55152">
        <ele>102</ele>
        <time>2021-05-29 14:08:45</time>
      </trkpt>
      <trkpt lat="43.36477" lon="-2.55158">
        <ele>102.2</ele>
        <time>2021-05-29 14:08:46</time>
      </trkpt>
      <trkpt lat="43.36477" lon="-2.55165">
        <ele>102.2</ele>
        <time>2021-05-29 14:08:47</time>
      </trkpt>
      <trkpt lat="43.36476" lon="-2.55171">
        <ele>102.8</ele>
        <time>2021-05-29 14:08:48</time>
      </trkpt>
      <trkpt lat="43.36476" lon="-2.55177">
        <ele>103</ele>
        <time>2021-05-29 14:08:49</time>
      </trkpt>
      <trkpt lat="43.36476" lon="-2.55183">
        <ele>103.2</ele>
        <time>2021-05-29 14:08:50</time>
      </trkpt>
      <trkpt lat="43.36476" lon="-2.55189">
        <ele>103.6</ele>
        <time>2021-05-29 14:08:51</time>
      </trkpt>
      <trkpt lat="43.36475" lon="-2.55195">
        <ele>103.8</ele>
        <time>2021-05-29 14:08:52</time>
      </trkpt>
      <trkpt lat="43.36474" lon="-2.55201">
        <ele>104.2</ele>
        <time>2021-05-29 14:08:53</time>
      </trkpt>
      <trkpt lat="43.36474" lon="-2.55206">
        <ele>104.4</ele>
        <time>2021-05-29 14:08:54</time>
      </trkpt>
      <trkpt lat="43.36473" lon="-2.55212">
        <ele>104.6</ele>
        <time>2021-05-29 14:08:55</time>
      </trkpt>
      <trkpt lat="43.36473" lon="-2.55218">
        <ele>104.8</ele>
        <time>2021-05-29 14:08:56</time>
      </trkpt>
      <trkpt lat="43.36472" lon="-2.55224">
        <ele>105</ele>
        <time>2021-05-29 14:08:57</time>
      </trkpt>
      <trkpt lat="43.36472" lon="-2.55229">
        <ele>105.2</ele>
        <time>2021-05-29 14:08:58</time>
      </trkpt>
      <trkpt lat="43.36471" lon="-2.55235">
        <ele>105.6</ele>
        <time>2021-05-29 14:08:59</time>
      </trkpt>
      <trkpt lat="43.36471" lon="-2.5524">
        <ele>106</ele>
        <time>2021-05-29 14:09:00</time>
      </trkpt>
      <trkpt lat="43.36471" lon="-2.55246">
        <ele>106.2</ele>
        <time>2021-05-29 14:09:01</time>
      </trkpt>
      <trkpt lat="43.36471" lon="-2.55251">
        <ele>106.4</ele>
        <time>2021-05-29 14:09:02</time>
      </trkpt>
      <trkpt lat="43.36471" lon="-2.55256">
        <ele>106.6</ele>
        <time>2021-05-29 14:09:03</time>
      </trkpt>
      <trkpt lat="43.3647" lon="-2.55261">
        <ele>106.8</ele>
        <time>2021-05-29 14:09:04</time>
      </trkpt>
      <trkpt lat="43.36468" lon="-2.55266">
        <ele>107</ele>
        <time>2021-05-29 14:09:05</time>
      </trkpt>
      <trkpt lat="43.36465" lon="-2.55271">
        <ele>107.2</ele>
        <time>2021-05-29 14:09:06</time>
      </trkpt>
      <trkpt lat="43.36461" lon="-2.55276">
        <ele>107.4</ele>
        <time>2021-05-29 14:09:07</time>
      </trkpt>
      <trkpt lat="43.36458" lon="-2.55281">
        <ele>108.2</ele>
        <time>2021-05-29 14:09:08</time>
      </trkpt>
      <trkpt lat="43.36455" lon="-2.55284">
        <ele>108.4</ele>
        <time>2021-05-29 14:09:09</time>
      </trkpt>
      <trkpt lat="43.36451" lon="-2.55289">
        <ele>108.8</ele>
        <time>2021-05-29 14:09:10</time>
      </trkpt>
      <trkpt lat="43.36447" lon="-2.55293">
        <ele>109.2</ele>
        <time>2021-05-29 14:09:11</time>
      </trkpt>
      <trkpt lat="43.36443" lon="-2.55297">
        <ele>109.4</ele>
        <time>2021-05-29 14:09:12</time>
      </trkpt>
      <trkpt lat="43.36438" lon="-2.55301">
        <ele>109.6</ele>
        <time>2021-05-29 14:09:13</time>
      </trkpt>
      <trkpt lat="43.36431" lon="-2.55304">
        <ele>109.8</ele>
        <time>2021-05-29 14:09:14</time>
      </trkpt>
      <trkpt lat="43.36424" lon="-2.55309">
        <ele>110</ele>
        <time>2021-05-29 14:09:15</time>
      </trkpt>
      <trkpt lat="43.36419" lon="-2.55313">
        <ele>110</ele>
        <time>2021-05-29 14:09:16</time>
      </trkpt>
      <trkpt lat="43.36414" lon="-2.55318">
        <ele>110.2</ele>
        <time>2021-05-29 14:09:17</time>
      </trkpt>
      <trkpt lat="43.36408" lon="-2.55324">
        <ele>110.2</ele>
        <time>2021-05-29 14:09:18</time>
      </trkpt>
      <trkpt lat="43.36403" lon="-2.5533">
        <ele>110.2</ele>
        <time>2021-05-29 14:09:19</time>
      </trkpt>
      <trkpt lat="43.36399" lon="-2.55337">
        <ele>110.4</ele>
        <time>2021-05-29 14:09:20</time>
      </trkpt>
      <trkpt lat="43.36393" lon="-2.55345">
        <ele>110.4</ele>
        <time>2021-05-29 14:09:21</time>
      </trkpt>
      <trkpt lat="43.36388" lon="-2.55354">
        <ele>110.6</ele>
        <time>2021-05-29 14:09:22</time>
      </trkpt>
      <trkpt lat="43.36384" lon="-2.55362">
        <ele>110.6</ele>
        <time>2021-05-29 14:09:23</time>
      </trkpt>
      <trkpt lat="43.36382" lon="-2.55371">
        <ele>110.8</ele>
        <time>2021-05-29 14:09:24</time>
      </trkpt>
      <trkpt lat="43.3638" lon="-2.55379">
        <ele>110.8</ele>
        <time>2021-05-29 14:09:25</time>
      </trkpt>
      <trkpt lat="43.36378" lon="-2.55387">
        <ele>110.8</ele>
        <time>2021-05-29 14:09:26</time>
      </trkpt>
      <trkpt lat="43.36376" lon="-2.55395">
        <ele>110.8</ele>
        <time>2021-05-29 14:09:27</time>
      </trkpt>
      <trkpt lat="43.36374" lon="-2.55403">
        <ele>111</ele>
        <time>2021-05-29 14:09:28</time>
      </trkpt>
      <trkpt lat="43.36374" lon="-2.5541">
        <ele>111.2</ele>
        <time>2021-05-29 14:09:29</time>
      </trkpt>
      <trkpt lat="43.36373" lon="-2.55418">
        <ele>111.4</ele>
        <time>2021-05-29 14:09:30</time>
      </trkpt>
      <trkpt lat="43.36373" lon="-2.55425">
        <ele>111.4</ele>
        <time>2021-05-29 14:09:31</time>
      </trkpt>
      <trkpt lat="43.36373" lon="-2.55433">
        <ele>111.4</ele>
        <time>2021-05-29 14:09:32</time>
      </trkpt>
      <trkpt lat="43.36373" lon="-2.55441">
        <ele>111.6</ele>
        <time>2021-05-29 14:09:33</time>
      </trkpt>
      <trkpt lat="43.36373" lon="-2.5545">
        <ele>111.8</ele>
        <time>2021-05-29 14:09:34</time>
      </trkpt>
      <trkpt lat="43.36374" lon="-2.55458">
        <ele>111.8</ele>
        <time>2021-05-29 14:09:35</time>
      </trkpt>
      <trkpt lat="43.36375" lon="-2.55467">
        <ele>111.8</ele>
        <time>2021-05-29 14:09:36</time>
      </trkpt>
      <trkpt lat="43.36376" lon="-2.55476">
        <ele>112</ele>
        <time>2021-05-29 14:09:37</time>
      </trkpt>
      <trkpt lat="43.36378" lon="-2.55484">
        <ele>112</ele>
        <time>2021-05-29 14:09:38</time>
      </trkpt>
      <trkpt lat="43.36381" lon="-2.55492">
        <ele>112</ele>
        <time>2021-05-29 14:09:39</time>
      </trkpt>
      <trkpt lat="43.36383" lon="-2.555">
        <ele>112.2</ele>
        <time>2021-05-29 14:09:40</time>
      </trkpt>
      <trkpt lat="43.36387" lon="-2.55509">
        <ele>112.2</ele>
        <time>2021-05-29 14:09:41</time>
      </trkpt>
      <trkpt lat="43.3639" lon="-2.55517">
        <ele>112.6</ele>
        <time>2021-05-29 14:09:42</time>
      </trkpt>
      <trkpt lat="43.36393" lon="-2.55525">
        <ele>112.8</ele>
        <time>2021-05-29 14:09:43</time>
      </trkpt>
      <trkpt lat="43.36396" lon="-2.55533">
        <ele>112.8</ele>
        <time>2021-05-29 14:09:44</time>
      </trkpt>
      <trkpt lat="43.36398" lon="-2.55541">
        <ele>112.8</ele>
        <time>2021-05-29 14:09:45</time>
      </trkpt>
      <trkpt lat="43.36401" lon="-2.5555">
        <ele>113</ele>
        <time>2021-05-29 14:09:46</time>
      </trkpt>
      <trkpt lat="43.36405" lon="-2.55558">
        <ele>113.2</ele>
        <time>2021-05-29 14:09:47</time>
      </trkpt>
      <trkpt lat="43.36407" lon="-2.55567">
        <ele>113.4</ele>
        <time>2021-05-29 14:09:48</time>
      </trkpt>
      <trkpt lat="43.3641" lon="-2.55576">
        <ele>113.6</ele>
        <time>2021-05-29 14:09:49</time>
      </trkpt>
      <trkpt lat="43.36413" lon="-2.55585">
        <ele>113.8</ele>
        <time>2021-05-29 14:09:50</time>
      </trkpt>
      <trkpt lat="43.36416" lon="-2.55594">
        <ele>113.8</ele>
        <time>2021-05-29 14:09:51</time>
      </trkpt>
      <trkpt lat="43.36418" lon="-2.55603">
        <ele>114</ele>
        <time>2021-05-29 14:09:52</time>
      </trkpt>
      <trkpt lat="43.3642" lon="-2.55612">
        <ele>114.2</ele>
        <time>2021-05-29 14:09:53</time>
      </trkpt>
      <trkpt lat="43.36422" lon="-2.55621">
        <ele>114.4</ele>
        <time>2021-05-29 14:09:54</time>
      </trkpt>
      <trkpt lat="43.36424" lon="-2.5563">
        <ele>114.4</ele>
        <time>2021-05-29 14:09:55</time>
      </trkpt>
      <trkpt lat="43.36426" lon="-2.55639">
        <ele>114.6</ele>
        <time>2021-05-29 14:09:56</time>
      </trkpt>
      <trkpt lat="43.36429" lon="-2.55649">
        <ele>114.8</ele>
        <time>2021-05-29 14:09:57</time>
      </trkpt>
      <trkpt lat="43.36433" lon="-2.55657">
        <ele>115</ele>
        <time>2021-05-29 14:09:58</time>
      </trkpt>
      <trkpt lat="43.36437" lon="-2.55665">
        <ele>115.2</ele>
        <time>2021-05-29 14:09:59</time>
      </trkpt>
      <trkpt lat="43.36442" lon="-2.55672">
        <ele>115.2</ele>
        <time>2021-05-29 14:10:00</time>
      </trkpt>
      <trkpt lat="43.36445" lon="-2.55678">
        <ele>115.2</ele>
        <time>2021-05-29 14:10:01</time>
      </trkpt>
      <trkpt lat="43.36451" lon="-2.55682">
        <ele>115.4</ele>
        <time>2021-05-29 14:10:02</time>
      </trkpt>
      <trkpt lat="43.36457" lon="-2.55685">
        <ele>115.4</ele>
        <time>2021-05-29 14:10:03</time>
      </trkpt>
      <trkpt lat="43.36464" lon="-2.55686">
        <ele>115.4</ele>
        <time>2021-05-29 14:10:04</time>
      </trkpt>
      <trkpt lat="43.36471" lon="-2.55687">
        <ele>115.4</ele>
        <time>2021-05-29 14:10:05</time>
      </trkpt>
      <trkpt lat="43.36478" lon="-2.55691">
        <ele>115.4</ele>
        <time>2021-05-29 14:10:06</time>
      </trkpt>
      <trkpt lat="43.36485" lon="-2.55696">
        <ele>115.6</ele>
        <time>2021-05-29 14:10:07</time>
      </trkpt>
      <trkpt lat="43.36492" lon="-2.55702">
        <ele>115.6</ele>
        <time>2021-05-29 14:10:08</time>
      </trkpt>
      <trkpt lat="43.36498" lon="-2.55708">
        <ele>115.8</ele>
        <time>2021-05-29 14:10:09</time>
      </trkpt>
      <trkpt lat="43.36505" lon="-2.55715">
        <ele>115.8</ele>
        <time>2021-05-29 14:10:10</time>
      </trkpt>
      <trkpt lat="43.36511" lon="-2.55722">
        <ele>115.8</ele>
        <time>2021-05-29 14:10:11</time>
      </trkpt>
      <trkpt lat="43.36516" lon="-2.5573">
        <ele>116</ele>
        <time>2021-05-29 14:10:12</time>
      </trkpt>
      <trkpt lat="43.3652" lon="-2.55738">
        <ele>116</ele>
        <time>2021-05-29 14:10:13</time>
      </trkpt>
      <trkpt lat="43.36523" lon="-2.55747">
        <ele>116</ele>
        <time>2021-05-29 14:10:14</time>
      </trkpt>
      <trkpt lat="43.36526" lon="-2.55755">
        <ele>116</ele>
        <time>2021-05-29 14:10:15</time>
      </trkpt>
      <trkpt lat="43.36529" lon="-2.55763">
        <ele>116.2</ele>
        <time>2021-05-29 14:10:16</time>
      </trkpt>
      <trkpt lat="43.36533" lon="-2.55771">
        <ele>116.2</ele>
        <time>2021-05-29 14:10:17</time>
      </trkpt>
      <trkpt lat="43.36536" lon="-2.55778">
        <ele>116.2</ele>
        <time>2021-05-29 14:10:18</time>
      </trkpt>
      <trkpt lat="43.3654" lon="-2.55785">
        <ele>116.2</ele>
        <time>2021-05-29 14:10:19</time>
      </trkpt>
      <trkpt lat="43.36545" lon="-2.55793">
        <ele>116.2</ele>
        <time>2021-05-29 14:10:20</time>
      </trkpt>
      <trkpt lat="43.36549" lon="-2.55801">
        <ele>116.4</ele>
        <time>2021-05-29 14:10:21</time>
      </trkpt>
      <trkpt lat="43.36552" lon="-2.5581">
        <ele>116.4</ele>
        <time>2021-05-29 14:10:22</time>
      </trkpt>
      <trkpt lat="43.36557" lon="-2.55819">
        <ele>116.4</ele>
        <time>2021-05-29 14:10:23</time>
      </trkpt>
      <trkpt lat="43.36563" lon="-2.55825">
        <ele>116.4</ele>
        <time>2021-05-29 14:10:24</time>
      </trkpt>
      <trkpt lat="43.36568" lon="-2.55832">
        <ele>116.6</ele>
        <time>2021-05-29 14:10:25</time>
      </trkpt>
      <trkpt lat="43.36573" lon="-2.55839">
        <ele>116.6</ele>
        <time>2021-05-29 14:10:26</time>
      </trkpt>
      <trkpt lat="43.36579" lon="-2.55847">
        <ele>116.6</ele>
        <time>2021-05-29 14:10:27</time>
      </trkpt>
      <trkpt lat="43.36585" lon="-2.55856">
        <ele>116.8</ele>
        <time>2021-05-29 14:10:28</time>
      </trkpt>
      <trkpt lat="43.36591" lon="-2.55865">
        <ele>116.8</ele>
        <time>2021-05-29 14:10:29</time>
      </trkpt>
      <trkpt lat="43.36598" lon="-2.55873">
        <ele>116.8</ele>
        <time>2021-05-29 14:10:30</time>
      </trkpt>
      <trkpt lat="43.36604" lon="-2.55881">
        <ele>116.8</ele>
        <time>2021-05-29 14:10:31</time>
      </trkpt>
      <trkpt lat="43.3661" lon="-2.5589">
        <ele>117</ele>
        <time>2021-05-29 14:10:32</time>
      </trkpt>
      <trkpt lat="43.36614" lon="-2.55899">
        <ele>117</ele>
        <time>2021-05-29 14:10:33</time>
      </trkpt>
      <trkpt lat="43.36618" lon="-2.55908">
        <ele>117</ele>
        <time>2021-05-29 14:10:34</time>
      </trkpt>
      <trkpt lat="43.36623" lon="-2.55917">
        <ele>117.2</ele>
        <time>2021-05-29 14:10:35</time>
      </trkpt>
      <trkpt lat="43.36629" lon="-2.55924">
        <ele>117.2</ele>
        <time>2021-05-29 14:10:36</time>
      </trkpt>
      <trkpt lat="43.36633" lon="-2.55932">
        <ele>117.2</ele>
        <time>2021-05-29 14:10:37</time>
      </trkpt>
      <trkpt lat="43.36638" lon="-2.5594">
        <ele>117.4</ele>
        <time>2021-05-29 14:10:38</time>
      </trkpt>
      <trkpt lat="43.36643" lon="-2.55948">
        <ele>117.4</ele>
        <time>2021-05-29 14:10:39</time>
      </trkpt>
      <trkpt lat="43.36648" lon="-2.55956">
        <ele>117.4</ele>
        <time>2021-05-29 14:10:40</time>
      </trkpt>
      <trkpt lat="43.36654" lon="-2.55965">
        <ele>117.4</ele>
        <time>2021-05-29 14:10:41</time>
      </trkpt>
      <trkpt lat="43.36658" lon="-2.55973">
        <ele>117.4</ele>
        <time>2021-05-29 14:10:42</time>
      </trkpt>
      <trkpt lat="43.36664" lon="-2.5598">
        <ele>117.4</ele>
        <time>2021-05-29 14:10:43</time>
      </trkpt>
      <trkpt lat="43.3667" lon="-2.55987">
        <ele>117.4</ele>
        <time>2021-05-29 14:10:44</time>
      </trkpt>
      <trkpt lat="43.36676" lon="-2.55993">
        <ele>117.4</ele>
        <time>2021-05-29 14:10:45</time>
      </trkpt>
      <trkpt lat="43.36683" lon="-2.55998">
        <ele>117.4</ele>
        <time>2021-05-29 14:10:46</time>
      </trkpt>
      <trkpt lat="43.3669" lon="-2.56002">
        <ele>117.4</ele>
        <time>2021-05-29 14:10:47</time>
      </trkpt>
      <trkpt lat="43.36698" lon="-2.56005">
        <ele>117.4</ele>
        <time>2021-05-29 14:10:48</time>
      </trkpt>
      <trkpt lat="43.36706" lon="-2.56006">
        <ele>117.4</ele>
        <time>2021-05-29 14:10:49</time>
      </trkpt>
      <trkpt lat="43.36713" lon="-2.56008">
        <ele>117.4</ele>
        <time>2021-05-29 14:10:50</time>
      </trkpt>
      <trkpt lat="43.36721" lon="-2.5601">
        <ele>116.8</ele>
        <time>2021-05-29 14:10:51</time>
      </trkpt>
      <trkpt lat="43.36728" lon="-2.56014">
        <ele>116.6</ele>
        <time>2021-05-29 14:10:52</time>
      </trkpt>
      <trkpt lat="43.36736" lon="-2.5602">
        <ele>116.8</ele>
        <time>2021-05-29 14:10:53</time>
      </trkpt>
      <trkpt lat="43.36744" lon="-2.56027">
        <ele>116.6</ele>
        <time>2021-05-29 14:10:54</time>
      </trkpt>
      <trkpt lat="43.36751" lon="-2.56037">
        <ele>116.6</ele>
        <time>2021-05-29 14:10:55</time>
      </trkpt>
      <trkpt lat="43.36756" lon="-2.56048">
        <ele>116.6</ele>
        <time>2021-05-29 14:10:56</time>
      </trkpt>
      <trkpt lat="43.36762" lon="-2.5606">
        <ele>116.4</ele>
        <time>2021-05-29 14:10:57</time>
      </trkpt>
      <trkpt lat="43.36766" lon="-2.56072">
        <ele>116.4</ele>
        <time>2021-05-29 14:10:58</time>
      </trkpt>
      <trkpt lat="43.36769" lon="-2.56085">
        <ele>116.2</ele>
        <time>2021-05-29 14:10:59</time>
      </trkpt>
      <trkpt lat="43.36776" lon="-2.56099">
        <ele>116.2</ele>
        <time>2021-05-29 14:11:00</time>
      </trkpt>
      <trkpt lat="43.3678" lon="-2.56113">
        <ele>116</ele>
        <time>2021-05-29 14:11:01</time>
      </trkpt>
      <trkpt lat="43.36784" lon="-2.56127">
        <ele>116</ele>
        <time>2021-05-29 14:11:02</time>
      </trkpt>
      <trkpt lat="43.36789" lon="-2.56142">
        <ele>115.4</ele>
        <time>2021-05-29 14:11:03</time>
      </trkpt>
      <trkpt lat="43.36794" lon="-2.56156">
        <ele>115</ele>
        <time>2021-05-29 14:11:04</time>
      </trkpt>
      <trkpt lat="43.368" lon="-2.56169">
        <ele>114.6</ele>
        <time>2021-05-29 14:11:05</time>
      </trkpt>
      <trkpt lat="43.36807" lon="-2.56182">
        <ele>114</ele>
        <time>2021-05-29 14:11:06</time>
      </trkpt>
      <trkpt lat="43.36814" lon="-2.56196">
        <ele>113.6</ele>
        <time>2021-05-29 14:11:07</time>
      </trkpt>
      <trkpt lat="43.3682" lon="-2.56209">
        <ele>113.4</ele>
        <time>2021-05-29 14:11:08</time>
      </trkpt>
      <trkpt lat="43.36827" lon="-2.56222">
        <ele>113.2</ele>
        <time>2021-05-29 14:11:09</time>
      </trkpt>
      <trkpt lat="43.36834" lon="-2.56235">
        <ele>112.4</ele>
        <time>2021-05-29 14:11:10</time>
      </trkpt>
      <trkpt lat="43.36841" lon="-2.56246">
        <ele>111.6</ele>
        <time>2021-05-29 14:11:11</time>
      </trkpt>
      <trkpt lat="43.36848" lon="-2.56259">
        <ele>111</ele>
        <time>2021-05-29 14:11:12</time>
      </trkpt>
      <trkpt lat="43.36856" lon="-2.56272">
        <ele>110.6</ele>
        <time>2021-05-29 14:11:13</time>
      </trkpt>
      <trkpt lat="43.36862" lon="-2.56284">
        <ele>109.8</ele>
        <time>2021-05-29 14:11:14</time>
      </trkpt>
      <trkpt lat="43.3687" lon="-2.56297">
        <ele>109</ele>
        <time>2021-05-29 14:11:15</time>
      </trkpt>
      <trkpt lat="43.36878" lon="-2.56308">
        <ele>108.4</ele>
        <time>2021-05-29 14:11:16</time>
      </trkpt>
      <trkpt lat="43.36887" lon="-2.56319">
        <ele>107.8</ele>
        <time>2021-05-29 14:11:17</time>
      </trkpt>
      <trkpt lat="43.36897" lon="-2.56328">
        <ele>107.2</ele>
        <time>2021-05-29 14:11:18</time>
      </trkpt>
      <trkpt lat="43.36907" lon="-2.56335">
        <ele>106.4</ele>
        <time>2021-05-29 14:11:19</time>
      </trkpt>
      <trkpt lat="43.36919" lon="-2.56336">
        <ele>105.8</ele>
        <time>2021-05-29 14:11:20</time>
      </trkpt>
      <trkpt lat="43.3693" lon="-2.56333">
        <ele>105.2</ele>
        <time>2021-05-29 14:11:21</time>
      </trkpt>
      <trkpt lat="43.36942" lon="-2.56327">
        <ele>104.8</ele>
        <time>2021-05-29 14:11:22</time>
      </trkpt>
      <trkpt lat="43.36951" lon="-2.5632">
        <ele>103.8</ele>
        <time>2021-05-29 14:11:23</time>
      </trkpt>
      <trkpt lat="43.36961" lon="-2.56312">
        <ele>102.6</ele>
        <time>2021-05-29 14:11:24</time>
      </trkpt>
      <trkpt lat="43.36972" lon="-2.56306">
        <ele>102</ele>
        <time>2021-05-29 14:11:25</time>
      </trkpt>
      <trkpt lat="43.36983" lon="-2.56303">
        <ele>100.4</ele>
        <time>2021-05-29 14:11:26</time>
      </trkpt>
      <trkpt lat="43.36995" lon="-2.56302">
        <ele>99.8</ele>
        <time>2021-05-29 14:11:27</time>
      </trkpt>
      <trkpt lat="43.37006" lon="-2.56304">
        <ele>99</ele>
        <time>2021-05-29 14:11:28</time>
      </trkpt>
      <trkpt lat="43.37017" lon="-2.56308">
        <ele>98.4</ele>
        <time>2021-05-29 14:11:29</time>
      </trkpt>
      <trkpt lat="43.37026" lon="-2.56314">
        <ele>97.6</ele>
        <time>2021-05-29 14:11:30</time>
      </trkpt>
      <trkpt lat="43.37036" lon="-2.56324">
        <ele>96.8</ele>
        <time>2021-05-29 14:11:31</time>
      </trkpt>
      <trkpt lat="43.37044" lon="-2.56338">
        <ele>96.2</ele>
        <time>2021-05-29 14:11:32</time>
      </trkpt>
      <trkpt lat="43.3705" lon="-2.56353">
        <ele>95.6</ele>
        <time>2021-05-29 14:11:33</time>
      </trkpt>
      <trkpt lat="43.37055" lon="-2.56369">
        <ele>95</ele>
        <time>2021-05-29 14:11:34</time>
      </trkpt>
      <trkpt lat="43.3706" lon="-2.56385">
        <ele>94.6</ele>
        <time>2021-05-29 14:11:35</time>
      </trkpt>
      <trkpt lat="43.37065" lon="-2.564">
        <ele>93.6</ele>
        <time>2021-05-29 14:11:36</time>
      </trkpt>
      <trkpt lat="43.37071" lon="-2.56416">
        <ele>92.8</ele>
        <time>2021-05-29 14:11:37</time>
      </trkpt>
      <trkpt lat="43.37076" lon="-2.56432">
        <ele>92.2</ele>
        <time>2021-05-29 14:11:38</time>
      </trkpt>
      <trkpt lat="43.3708" lon="-2.56447">
        <ele>91.6</ele>
        <time>2021-05-29 14:11:39</time>
      </trkpt>
      <trkpt lat="43.37085" lon="-2.56462">
        <ele>91.4</ele>
        <time>2021-05-29 14:11:40</time>
      </trkpt>
      <trkpt lat="43.37088" lon="-2.56477">
        <ele>91</ele>
        <time>2021-05-29 14:11:41</time>
      </trkpt>
      <trkpt lat="43.37088" lon="-2.56492">
        <ele>90.8</ele>
        <time>2021-05-29 14:11:42</time>
      </trkpt>
      <trkpt lat="43.37086" lon="-2.56502">
        <ele>89.8</ele>
        <time>2021-05-29 14:11:43</time>
      </trkpt>
      <trkpt lat="43.37081" lon="-2.56512">
        <ele>89.2</ele>
        <time>2021-05-29 14:11:44</time>
      </trkpt>
      <trkpt lat="43.37071" lon="-2.5652">
        <ele>88.8</ele>
        <time>2021-05-29 14:11:45</time>
      </trkpt>
      <trkpt lat="43.3706" lon="-2.56527">
        <ele>88.2</ele>
        <time>2021-05-29 14:11:46</time>
      </trkpt>
      <trkpt lat="43.37049" lon="-2.56533">
        <ele>87.6</ele>
        <time>2021-05-29 14:11:47</time>
      </trkpt>
      <trkpt lat="43.37039" lon="-2.56538">
        <ele>87.2</ele>
        <time>2021-05-29 14:11:48</time>
      </trkpt>
      <trkpt lat="43.37028" lon="-2.56543">
        <ele>87</ele>
        <time>2021-05-29 14:11:49</time>
      </trkpt>
      <trkpt lat="43.37017" lon="-2.56549">
        <ele>86.6</ele>
        <time>2021-05-29 14:11:50</time>
      </trkpt>
      <trkpt lat="43.37006" lon="-2.56555">
        <ele>86.4</ele>
        <time>2021-05-29 14:11:51</time>
      </trkpt>
      <trkpt lat="43.36996" lon="-2.5656">
        <ele>86.4</ele>
        <time>2021-05-29 14:11:52</time>
      </trkpt>
      <trkpt lat="43.36985" lon="-2.56567">
        <ele>86.2</ele>
        <time>2021-05-29 14:11:53</time>
      </trkpt>
      <trkpt lat="43.36974" lon="-2.56573">
        <ele>85.8</ele>
        <time>2021-05-29 14:11:54</time>
      </trkpt>
      <trkpt lat="43.36965" lon="-2.5658">
        <ele>85.2</ele>
        <time>2021-05-29 14:11:55</time>
      </trkpt>
      <trkpt lat="43.36954" lon="-2.56588">
        <ele>85</ele>
        <time>2021-05-29 14:11:56</time>
      </trkpt>
      <trkpt lat="43.36945" lon="-2.56599">
        <ele>84.6</ele>
        <time>2021-05-29 14:11:57</time>
      </trkpt>
      <trkpt lat="43.36939" lon="-2.56613">
        <ele>84</ele>
        <time>2021-05-29 14:11:58</time>
      </trkpt>
      <trkpt lat="43.36934" lon="-2.56629">
        <ele>83.4</ele>
        <time>2021-05-29 14:11:59</time>
      </trkpt>
      <trkpt lat="43.36931" lon="-2.56646">
        <ele>82.6</ele>
        <time>2021-05-29 14:12:00</time>
      </trkpt>
      <trkpt lat="43.36928" lon="-2.56664">
        <ele>82.2</ele>
        <time>2021-05-29 14:12:01</time>
      </trkpt>
      <trkpt lat="43.36926" lon="-2.56681">
        <ele>81.6</ele>
        <time>2021-05-29 14:12:02</time>
      </trkpt>
      <trkpt lat="43.36924" lon="-2.56699">
        <ele>81.2</ele>
        <time>2021-05-29 14:12:03</time>
      </trkpt>
      <trkpt lat="43.36922" lon="-2.56718">
        <ele>80.8</ele>
        <time>2021-05-29 14:12:04</time>
      </trkpt>
      <trkpt lat="43.3692" lon="-2.56736">
        <ele>80.4</ele>
        <time>2021-05-29 14:12:05</time>
      </trkpt>
      <trkpt lat="43.36919" lon="-2.56754">
        <ele>79.8</ele>
        <time>2021-05-29 14:12:06</time>
      </trkpt>
      <trkpt lat="43.36919" lon="-2.56772">
        <ele>78.6</ele>
        <time>2021-05-29 14:12:07</time>
      </trkpt>
      <trkpt lat="43.3692" lon="-2.56791">
        <ele>77.8</ele>
        <time>2021-05-29 14:12:08</time>
      </trkpt>
      <trkpt lat="43.36922" lon="-2.56809">
        <ele>77</ele>
        <time>2021-05-29 14:12:09</time>
      </trkpt>
      <trkpt lat="43.36925" lon="-2.56828">
        <ele>76.6</ele>
        <time>2021-05-29 14:12:10</time>
      </trkpt>
      <trkpt lat="43.36931" lon="-2.56846">
        <ele>76.2</ele>
        <time>2021-05-29 14:12:11</time>
      </trkpt>
      <trkpt lat="43.36937" lon="-2.56864">
        <ele>75.4</ele>
        <time>2021-05-29 14:12:12</time>
      </trkpt>
      <trkpt lat="43.36943" lon="-2.56882">
        <ele>74.8</ele>
        <time>2021-05-29 14:12:13</time>
      </trkpt>
      <trkpt lat="43.3695" lon="-2.56899">
        <ele>74.6</ele>
        <time>2021-05-29 14:12:14</time>
      </trkpt>
      <trkpt lat="43.36956" lon="-2.56917">
        <ele>73.8</ele>
        <time>2021-05-29 14:12:15</time>
      </trkpt>
      <trkpt lat="43.36963" lon="-2.56935">
        <ele>72.6</ele>
        <time>2021-05-29 14:12:16</time>
      </trkpt>
      <trkpt lat="43.36969" lon="-2.56953">
        <ele>72</ele>
        <time>2021-05-29 14:12:17</time>
      </trkpt>
      <trkpt lat="43.36974" lon="-2.56972">
        <ele>71.2</ele>
        <time>2021-05-29 14:12:18</time>
      </trkpt>
      <trkpt lat="43.36979" lon="-2.56991">
        <ele>70.4</ele>
        <time>2021-05-29 14:12:19</time>
      </trkpt>
      <trkpt lat="43.36982" lon="-2.5701">
        <ele>69.6</ele>
        <time>2021-05-29 14:12:20</time>
      </trkpt>
      <trkpt lat="43.36985" lon="-2.57029">
        <ele>68.8</ele>
        <time>2021-05-29 14:12:21</time>
      </trkpt>
      <trkpt lat="43.36987" lon="-2.57048">
        <ele>68.4</ele>
        <time>2021-05-29 14:12:22</time>
      </trkpt>
      <trkpt lat="43.3699" lon="-2.57067">
        <ele>67.6</ele>
        <time>2021-05-29 14:12:23</time>
      </trkpt>
      <trkpt lat="43.36993" lon="-2.57085">
        <ele>66.8</ele>
        <time>2021-05-29 14:12:24</time>
      </trkpt>
      <trkpt lat="43.36998" lon="-2.57102">
        <ele>65.8</ele>
        <time>2021-05-29 14:12:25</time>
      </trkpt>
      <trkpt lat="43.37003" lon="-2.57118">
        <ele>64.6</ele>
        <time>2021-05-29 14:12:26</time>
      </trkpt>
      <trkpt lat="43.37008" lon="-2.57134">
        <ele>64</ele>
        <time>2021-05-29 14:12:27</time>
      </trkpt>
      <trkpt lat="43.37013" lon="-2.5715">
        <ele>63.4</ele>
        <time>2021-05-29 14:12:28</time>
      </trkpt>
      <trkpt lat="43.37018" lon="-2.57166">
        <ele>63</ele>
        <time>2021-05-29 14:12:29</time>
      </trkpt>
      <trkpt lat="43.37024" lon="-2.57181">
        <ele>62.4</ele>
        <time>2021-05-29 14:12:30</time>
      </trkpt>
      <trkpt lat="43.37031" lon="-2.57195">
        <ele>61.8</ele>
        <time>2021-05-29 14:12:31</time>
      </trkpt>
      <trkpt lat="43.37039" lon="-2.57208">
        <ele>61.2</ele>
        <time>2021-05-29 14:12:32</time>
      </trkpt>
      <trkpt lat="43.37047" lon="-2.57221">
        <ele>60.4</ele>
        <time>2021-05-29 14:12:33</time>
      </trkpt>
      <trkpt lat="43.37056" lon="-2.57234">
        <ele>59.8</ele>
        <time>2021-05-29 14:12:34</time>
      </trkpt>
      <trkpt lat="43.37065" lon="-2.57244">
        <ele>58</ele>
        <time>2021-05-29 14:12:35</time>
      </trkpt>
      <trkpt lat="43.37075" lon="-2.57251">
        <ele>57.4</ele>
        <time>2021-05-29 14:12:36</time>
      </trkpt>
      <trkpt lat="43.37086" lon="-2.57255">
        <ele>56.6</ele>
        <time>2021-05-29 14:12:37</time>
      </trkpt>
      <trkpt lat="43.37098" lon="-2.57257">
        <ele>56</ele>
        <time>2021-05-29 14:12:38</time>
      </trkpt>
      <trkpt lat="43.37109" lon="-2.5726">
        <ele>55.6</ele>
        <time>2021-05-29 14:12:39</time>
      </trkpt>
      <trkpt lat="43.37119" lon="-2.57267">
        <ele>55</ele>
        <time>2021-05-29 14:12:40</time>
      </trkpt>
      <trkpt lat="43.37127" lon="-2.57277">
        <ele>54</ele>
        <time>2021-05-29 14:12:41</time>
      </trkpt>
      <trkpt lat="43.37134" lon="-2.57289">
        <ele>53.2</ele>
        <time>2021-05-29 14:12:42</time>
      </trkpt>
      <trkpt lat="43.37139" lon="-2.57302">
        <ele>52.8</ele>
        <time>2021-05-29 14:12:43</time>
      </trkpt>
      <trkpt lat="43.37141" lon="-2.57316">
        <ele>52</ele>
        <time>2021-05-29 14:12:44</time>
      </trkpt>
      <trkpt lat="43.37139" lon="-2.5733">
        <ele>51.4</ele>
        <time>2021-05-29 14:12:45</time>
      </trkpt>
      <trkpt lat="43.37135" lon="-2.57344">
        <ele>51</ele>
        <time>2021-05-29 14:12:46</time>
      </trkpt>
      <trkpt lat="43.3713" lon="-2.57358">
        <ele>50.4</ele>
        <time>2021-05-29 14:12:47</time>
      </trkpt>
      <trkpt lat="43.37123" lon="-2.57373">
        <ele>50</ele>
        <time>2021-05-29 14:12:48</time>
      </trkpt>
      <trkpt lat="43.37116" lon="-2.57388">
        <ele>49.6</ele>
        <time>2021-05-29 14:12:49</time>
      </trkpt>
      <trkpt lat="43.3711" lon="-2.57403">
        <ele>49.2</ele>
        <time>2021-05-29 14:12:50</time>
      </trkpt>
      <trkpt lat="43.37104" lon="-2.57419">
        <ele>49</ele>
        <time>2021-05-29 14:12:51</time>
      </trkpt>
      <trkpt lat="43.37099" lon="-2.57435">
        <ele>48.8</ele>
        <time>2021-05-29 14:12:52</time>
      </trkpt>
      <trkpt lat="43.37094" lon="-2.5745">
        <ele>48.6</ele>
        <time>2021-05-29 14:12:53</time>
      </trkpt>
      <trkpt lat="43.37091" lon="-2.57466">
        <ele>48.2</ele>
        <time>2021-05-29 14:12:54</time>
      </trkpt>
      <trkpt lat="43.37088" lon="-2.5748">
        <ele>47.8</ele>
        <time>2021-05-29 14:12:55</time>
      </trkpt>
      <trkpt lat="43.37085" lon="-2.57495">
        <ele>47.6</ele>
        <time>2021-05-29 14:12:56</time>
      </trkpt>
      <trkpt lat="43.37083" lon="-2.5751">
        <ele>47</ele>
        <time>2021-05-29 14:12:57</time>
      </trkpt>
      <trkpt lat="43.37082" lon="-2.57525">
        <ele>46.8</ele>
        <time>2021-05-29 14:12:58</time>
      </trkpt>
      <trkpt lat="43.3708" lon="-2.5754">
        <ele>46.6</ele>
        <time>2021-05-29 14:12:59</time>
      </trkpt>
      <trkpt lat="43.37079" lon="-2.57555">
        <ele>46.2</ele>
        <time>2021-05-29 14:13:00</time>
      </trkpt>
      <trkpt lat="43.37078" lon="-2.5757">
        <ele>46</ele>
        <time>2021-05-29 14:13:01</time>
      </trkpt>
      <trkpt lat="43.37076" lon="-2.57585">
        <ele>46</ele>
        <time>2021-05-29 14:13:02</time>
      </trkpt>
      <trkpt lat="43.37075" lon="-2.576">
        <ele>45.8</ele>
        <time>2021-05-29 14:13:03</time>
      </trkpt>
      <trkpt lat="43.37074" lon="-2.57615">
        <ele>45.6</ele>
        <time>2021-05-29 14:13:04</time>
      </trkpt>
      <trkpt lat="43.37074" lon="-2.5763">
        <ele>45.6</ele>
        <time>2021-05-29 14:13:05</time>
      </trkpt>
      <trkpt lat="43.37073" lon="-2.57644">
        <ele>45.4</ele>
        <time>2021-05-29 14:13:06</time>
      </trkpt>
      <trkpt lat="43.37073" lon="-2.57659">
        <ele>45.2</ele>
        <time>2021-05-29 14:13:07</time>
      </trkpt>
      <trkpt lat="43.37074" lon="-2.57675">
        <ele>45</ele>
        <time>2021-05-29 14:13:08</time>
      </trkpt>
      <trkpt lat="43.37075" lon="-2.5769">
        <ele>44.6</ele>
        <time>2021-05-29 14:13:09</time>
      </trkpt>
      <trkpt lat="43.37076" lon="-2.57706">
        <ele>44.2</ele>
        <time>2021-05-29 14:13:10</time>
      </trkpt>
      <trkpt lat="43.37077" lon="-2.57722">
        <ele>44</ele>
        <time>2021-05-29 14:13:11</time>
      </trkpt>
      <trkpt lat="43.37078" lon="-2.57738">
        <ele>44</ele>
        <time>2021-05-29 14:13:12</time>
      </trkpt>
      <trkpt lat="43.37079" lon="-2.57755">
        <ele>43.6</ele>
        <time>2021-05-29 14:13:13</time>
      </trkpt>
      <trkpt lat="43.37082" lon="-2.57771">
        <ele>43.2</ele>
        <time>2021-05-29 14:13:14</time>
      </trkpt>
      <trkpt lat="43.37085" lon="-2.57787">
        <ele>43</ele>
        <time>2021-05-29 14:13:15</time>
      </trkpt>
      <trkpt lat="43.37088" lon="-2.57804">
        <ele>42.4</ele>
        <time>2021-05-29 14:13:16</time>
      </trkpt>
      <trkpt lat="43.3709" lon="-2.57821">
        <ele>41.8</ele>
        <time>2021-05-29 14:13:17</time>
      </trkpt>
      <trkpt lat="43.37092" lon="-2.57838">
        <ele>41.4</ele>
        <time>2021-05-29 14:13:18</time>
      </trkpt>
      <trkpt lat="43.37094" lon="-2.57855">
        <ele>40.6</ele>
        <time>2021-05-29 14:13:19</time>
      </trkpt>
      <trkpt lat="43.37096" lon="-2.57872">
        <ele>39.4</ele>
        <time>2021-05-29 14:13:20</time>
      </trkpt>
      <trkpt lat="43.37098" lon="-2.57889">
        <ele>38.8</ele>
        <time>2021-05-29 14:13:21</time>
      </trkpt>
      <trkpt lat="43.37101" lon="-2.57906">
        <ele>38.4</ele>
        <time>2021-05-29 14:13:22</time>
      </trkpt>
      <trkpt lat="43.37105" lon="-2.57922">
        <ele>38.2</ele>
        <time>2021-05-29 14:13:23</time>
      </trkpt>
      <trkpt lat="43.37109" lon="-2.57938">
        <ele>37.8</ele>
        <time>2021-05-29 14:13:24</time>
      </trkpt>
      <trkpt lat="43.37114" lon="-2.57955">
        <ele>37.4</ele>
        <time>2021-05-29 14:13:25</time>
      </trkpt>
      <trkpt lat="43.37117" lon="-2.57971">
        <ele>37</ele>
        <time>2021-05-29 14:13:26</time>
      </trkpt>
      <trkpt lat="43.37119" lon="-2.57988">
        <ele>36.8</ele>
        <time>2021-05-29 14:13:27</time>
      </trkpt>
      <trkpt lat="43.37122" lon="-2.58004">
        <ele>36.2</ele>
        <time>2021-05-29 14:13:28</time>
      </trkpt>
      <trkpt lat="43.37125" lon="-2.5802">
        <ele>35.4</ele>
        <time>2021-05-29 14:13:29</time>
      </trkpt>
      <trkpt lat="43.3713" lon="-2.58035">
        <ele>34.8</ele>
        <time>2021-05-29 14:13:30</time>
      </trkpt>
      <trkpt lat="43.37137" lon="-2.58048">
        <ele>33.8</ele>
        <time>2021-05-29 14:13:31</time>
      </trkpt>
      <trkpt lat="43.37146" lon="-2.58059">
        <ele>32.8</ele>
        <time>2021-05-29 14:13:32</time>
      </trkpt>
      <trkpt lat="43.37157" lon="-2.58067">
        <ele>32.2</ele>
        <time>2021-05-29 14:13:33</time>
      </trkpt>
      <trkpt lat="43.37169" lon="-2.58072">
        <ele>31.6</ele>
        <time>2021-05-29 14:13:34</time>
      </trkpt>
      <trkpt lat="43.37181" lon="-2.58075">
        <ele>30.8</ele>
        <time>2021-05-29 14:13:35</time>
      </trkpt>
      <trkpt lat="43.37194" lon="-2.58076">
        <ele>29.8</ele>
        <time>2021-05-29 14:13:36</time>
      </trkpt>
      <trkpt lat="43.37206" lon="-2.58075">
        <ele>29.2</ele>
        <time>2021-05-29 14:13:37</time>
      </trkpt>
      <trkpt lat="43.37219" lon="-2.58071">
        <ele>28.6</ele>
        <time>2021-05-29 14:13:38</time>
      </trkpt>
      <trkpt lat="43.37231" lon="-2.58065">
        <ele>28.4</ele>
        <time>2021-05-29 14:13:39</time>
      </trkpt>
      <trkpt lat="43.37243" lon="-2.58059">
        <ele>27.4</ele>
        <time>2021-05-29 14:13:40</time>
      </trkpt>
      <trkpt lat="43.37254" lon="-2.58054">
        <ele>26.8</ele>
        <time>2021-05-29 14:13:41</time>
      </trkpt>
      <trkpt lat="43.37266" lon="-2.58052">
        <ele>26.2</ele>
        <time>2021-05-29 14:13:42</time>
      </trkpt>
      <trkpt lat="43.37279" lon="-2.58054">
        <ele>25.8</ele>
        <time>2021-05-29 14:13:43</time>
      </trkpt>
      <trkpt lat="43.3729" lon="-2.58058">
        <ele>24.8</ele>
        <time>2021-05-29 14:13:44</time>
      </trkpt>
      <trkpt lat="43.37301" lon="-2.58065">
        <ele>24.2</ele>
        <time>2021-05-29 14:13:45</time>
      </trkpt>
      <trkpt lat="43.37312" lon="-2.58072">
        <ele>23.4</ele>
        <time>2021-05-29 14:13:46</time>
      </trkpt>
      <trkpt lat="43.37321" lon="-2.58081">
        <ele>22.6</ele>
        <time>2021-05-29 14:13:47</time>
      </trkpt>
      <trkpt lat="43.37331" lon="-2.58091">
        <ele>22</ele>
        <time>2021-05-29 14:13:48</time>
      </trkpt>
      <trkpt lat="43.3734" lon="-2.581">
        <ele>21.4</ele>
        <time>2021-05-29 14:13:49</time>
      </trkpt>
      <trkpt lat="43.37349" lon="-2.58109">
        <ele>21</ele>
        <time>2021-05-29 14:13:50</time>
      </trkpt>
      <trkpt lat="43.37358" lon="-2.58118">
        <ele>20.8</ele>
        <time>2021-05-29 14:13:51</time>
      </trkpt>
      <trkpt lat="43.37367" lon="-2.58126">
        <ele>20.6</ele>
        <time>2021-05-29 14:13:52</time>
      </trkpt>
      <trkpt lat="43.37376" lon="-2.58133">
        <ele>20.6</ele>
        <time>2021-05-29 14:13:53</time>
      </trkpt>
      <trkpt lat="43.37386" lon="-2.58139">
        <ele>20.6</ele>
        <time>2021-05-29 14:13:54</time>
      </trkpt>
      <trkpt lat="43.37397" lon="-2.58144">
        <ele>20.4</ele>
        <time>2021-05-29 14:13:55</time>
      </trkpt>
      <trkpt lat="43.37408" lon="-2.58148">
        <ele>20.4</ele>
        <time>2021-05-29 14:13:56</time>
      </trkpt>
      <trkpt lat="43.37418" lon="-2.58151">
        <ele>20.2</ele>
        <time>2021-05-29 14:13:57</time>
      </trkpt>
      <trkpt lat="43.37429" lon="-2.58155">
        <ele>20</ele>
        <time>2021-05-29 14:13:58</time>
      </trkpt>
      <trkpt lat="43.37439" lon="-2.58161">
        <ele>19.8</ele>
        <time>2021-05-29 14:13:59</time>
      </trkpt>
      <trkpt lat="43.37449" lon="-2.58167">
        <ele>19.8</ele>
        <time>2021-05-29 14:14:00</time>
      </trkpt>
      <trkpt lat="43.37458" lon="-2.58176">
        <ele>19.6</ele>
        <time>2021-05-29 14:14:01</time>
      </trkpt>
      <trkpt lat="43.37468" lon="-2.58185">
        <ele>19.2</ele>
        <time>2021-05-29 14:14:02</time>
      </trkpt>
      <trkpt lat="43.37476" lon="-2.58196">
        <ele>18.8</ele>
        <time>2021-05-29 14:14:03</time>
      </trkpt>
      <trkpt lat="43.37484" lon="-2.58209">
        <ele>18.6</ele>
        <time>2021-05-29 14:14:04</time>
      </trkpt>
      <trkpt lat="43.37492" lon="-2.58222">
        <ele>18.2</ele>
        <time>2021-05-29 14:14:05</time>
      </trkpt>
      <trkpt lat="43.375" lon="-2.58236">
        <ele>17.6</ele>
        <time>2021-05-29 14:14:06</time>
      </trkpt>
      <trkpt lat="43.37508" lon="-2.58249">
        <ele>17.4</ele>
        <time>2021-05-29 14:14:07</time>
      </trkpt>
      <trkpt lat="43.37517" lon="-2.58262">
        <ele>17</ele>
        <time>2021-05-29 14:14:08</time>
      </trkpt>
      <trkpt lat="43.37526" lon="-2.58275">
        <ele>16.6</ele>
        <time>2021-05-29 14:14:09</time>
      </trkpt>
      <trkpt lat="43.37534" lon="-2.58287">
        <ele>16</ele>
        <time>2021-05-29 14:14:10</time>
      </trkpt>
      <trkpt lat="43.37543" lon="-2.58298">
        <ele>15.4</ele>
        <time>2021-05-29 14:14:11</time>
      </trkpt>
      <trkpt lat="43.37551" lon="-2.58309">
        <ele>14.6</ele>
        <time>2021-05-29 14:14:12</time>
      </trkpt>
      <trkpt lat="43.37562" lon="-2.58318">
        <ele>14</ele>
        <time>2021-05-29 14:14:13</time>
      </trkpt>
      <trkpt lat="43.37571" lon="-2.58329">
        <ele>13.4</ele>
        <time>2021-05-29 14:14:14</time>
      </trkpt>
      <trkpt lat="43.37579" lon="-2.58342">
        <ele>12.8</ele>
        <time>2021-05-29 14:14:15</time>
      </trkpt>
      <trkpt lat="43.37586" lon="-2.58355">
        <ele>12.2</ele>
        <time>2021-05-29 14:14:16</time>
      </trkpt>
      <trkpt lat="43.37594" lon="-2.58368">
        <ele>11.6</ele>
        <time>2021-05-29 14:14:17</time>
      </trkpt>
      <trkpt lat="43.37604" lon="-2.58379">
        <ele>10.4</ele>
        <time>2021-05-29 14:14:18</time>
      </trkpt>
      <trkpt lat="43.37613" lon="-2.58389">
        <ele>9.8</ele>
        <time>2021-05-29 14:14:19</time>
      </trkpt>
      <trkpt lat="43.37624" lon="-2.58397">
        <ele>8.8</ele>
        <time>2021-05-29 14:14:20</time>
      </trkpt>
      <trkpt lat="43.37634" lon="-2.58405">
        <ele>8</ele>
        <time>2021-05-29 14:14:21</time>
      </trkpt>
      <trkpt lat="43.37645" lon="-2.58412">
        <ele>7.4</ele>
        <time>2021-05-29 14:14:22</time>
      </trkpt>
      <trkpt lat="43.37656" lon="-2.5842">
        <ele>7</ele>
        <time>2021-05-29 14:14:23</time>
      </trkpt>
      <trkpt lat="43.37667" lon="-2.58427">
        <ele>6.2</ele>
        <time>2021-05-29 14:14:24</time>
      </trkpt>
      <trkpt lat="43.37678" lon="-2.58434">
        <ele>5.4</ele>
        <time>2021-05-29 14:14:25</time>
      </trkpt>
      <trkpt lat="43.37689" lon="-2.58439">
        <ele>5</ele>
        <time>2021-05-29 14:14:26</time>
      </trkpt>
      <trkpt lat="43.37701" lon="-2.58444">
        <ele>4</ele>
        <time>2021-05-29 14:14:27</time>
      </trkpt>
      <trkpt lat="43.37712" lon="-2.58447">
        <ele>3.4</ele>
        <time>2021-05-29 14:14:28</time>
      </trkpt>
      <trkpt lat="43.37723" lon="-2.5845">
        <ele>2.8</ele>
        <time>2021-05-29 14:14:29</time>
      </trkpt>
      <trkpt lat="43.37735" lon="-2.58453">
        <ele>2.2</ele>
        <time>2021-05-29 14:14:30</time>
      </trkpt>
      <trkpt lat="43.37746" lon="-2.58456">
        <ele>2</ele>
        <time>2021-05-29 14:14:31</time>
      </trkpt>
      <trkpt lat="43.37757" lon="-2.58458">
        <ele>1.8</ele>
        <time>2021-05-29 14:14:32</time>
      </trkpt>
      <trkpt lat="43.37768" lon="-2.5846">
        <ele>1.4</ele>
        <time>2021-05-29 14:14:33</time>
      </trkpt>
      <trkpt lat="43.37778" lon="-2.58463">
        <ele>1.2</ele>
        <time>2021-05-29 14:14:34</time>
      </trkpt>
      <trkpt lat="43.37789" lon="-2.58466">
        <ele>0.6</ele>
        <time>2021-05-29 14:14:35</time>
      </trkpt>
      <trkpt lat="43.37799" lon="-2.58468">
        <time>2021-05-29 14:14:36</time>
      </trkpt>
      <trkpt lat="43.3781" lon="-2.58471">
        <ele>-0.8</ele>
        <time>2021-05-29 14:14:37</time>
      </trkpt>
      <trkpt lat="43.37821" lon="-2.58475">
        <ele>-1.4</ele>
        <time>2021-05-29 14:14:38</time>
      </trkpt>
      <trkpt lat="43.37831" lon="-2.58477">
        <ele>-1.8</ele>
        <time>2021-05-29 14:14:39</time>
      </trkpt>
      <trkpt lat="43.37842" lon="-2.5848">
        <ele>-2.2</ele>
        <time>2021-05-29 14:14:40</time>
      </trkpt>
      <trkpt lat="43.37852" lon="-2.58484">
        <ele>-2.6</ele>
        <time>2021-05-29 14:14:41</time>
      </trkpt>
      <trkpt lat="43.37862" lon="-2.58487">
        <ele>-2.8</ele>
        <time>2021-05-29 14:14:42</time>
      </trkpt>
      <trkpt lat="43.37872" lon="-2.5849">
        <ele>-3.2</ele>
        <time>2021-05-29 14:14:43</time>
      </trkpt>
      <trkpt lat="43.37882" lon="-2.58493">
        <ele>-4.2</ele>
        <time>2021-05-29 14:14:44</time>
      </trkpt>
      <trkpt lat="43.37892" lon="-2.58497">
        <ele>-4.8</ele>
        <time>2021-05-29 14:14:45</time>
      </trkpt>
      <trkpt lat="43.37902" lon="-2.585">
        <ele>-5.2</ele>
        <time>2021-05-29 14:14:46</time>
      </trkpt>
      <trkpt lat="43.37912" lon="-2.58502">
        <ele>-5.6</ele>
        <time>2021-05-29 14:14:47</time>
      </trkpt>
      <trkpt lat="43.37922" lon="-2.58503">
        <ele>-6.2</ele>
        <time>2021-05-29 14:14:48</time>
      </trkpt>
      <trkpt lat="43.37933" lon="-2.58503">
        <ele>-7</ele>
        <time>2021-05-29 14:14:49</time>
      </trkpt>
      <trkpt lat="43.37943" lon="-2.58502">
        <ele>-7.4</ele>
        <time>2021-05-29 14:14:50</time>
      </trkpt>
      <trkpt lat="43.37953" lon="-2.58501">
        <ele>-7.8</ele>
        <time>2021-05-29 14:14:51</time>
      </trkpt>
      <trkpt lat="43.37963" lon="-2.58499">
        <ele>-8.2</ele>
        <time>2021-05-29 14:14:52</time>
      </trkpt>
      <trkpt lat="43.37972" lon="-2.58498">
        <ele>-8.8</ele>
        <time>2021-05-29 14:14:53</time>
      </trkpt>
      <trkpt lat="43.3798" lon="-2.58498">
        <ele>-9.2</ele>
        <time>2021-05-29 14:14:54</time>
      </trkpt>
      <trkpt lat="43.37989" lon="-2.58499">
        <ele>-9.6</ele>
        <time>2021-05-29 14:14:55</time>
      </trkpt>
      <trkpt lat="43.37996" lon="-2.58504">
        <ele>-10</ele>
        <time>2021-05-29 14:14:56</time>
      </trkpt>
      <trkpt lat="43.38002" lon="-2.5851">
        <ele>-10.6</ele>
        <time>2021-05-29 14:14:57</time>
      </trkpt>
      <trkpt lat="43.38006" lon="-2.58517">
        <ele>-11</ele>
        <time>2021-05-29 14:14:58</time>
      </trkpt>
      <trkpt lat="43.3801" lon="-2.58524">
        <ele>-11.4</ele>
        <time>2021-05-29 14:14:59</time>
      </trkpt>
      <trkpt lat="43.38013" lon="-2.58531">
        <ele>-11.8</ele>
        <time>2021-05-29 14:15:00</time>
      </trkpt>
      <trkpt lat="43.38016" lon="-2.58538">
        <ele>-12</ele>
        <time>2021-05-29 14:15:01</time>
      </trkpt>
      <trkpt lat="43.38018" lon="-2.58546">
        <ele>-12.2</ele>
        <time>2021-05-29 14:15:02</time>
      </trkpt>
      <trkpt lat="43.38022" lon="-2.58552">
        <ele>-12.6</ele>
        <time>2021-05-29 14:15:03</time>
      </trkpt>
      <trkpt lat="43.38026" lon="-2.58558">
        <ele>-12.8</ele>
        <time>2021-05-29 14:15:04</time>
      </trkpt>
      <trkpt lat="43.3803" lon="-2.58563">
        <ele>-13</ele>
        <time>2021-05-29 14:15:05</time>
      </trkpt>
      <trkpt lat="43.38033" lon="-2.58567">
        <ele>-13</ele>
        <time>2021-05-29 14:15:06</time>
      </trkpt>
      <trkpt lat="43.38036" lon="-2.58573">
        <ele>-13.2</ele>
        <time>2021-05-29 14:15:07</time>
      </trkpt>
      <trkpt lat="43.38036" lon="-2.58578">
        <ele>-13.2</ele>
        <time>2021-05-29 14:15:08</time>
      </trkpt>
      <trkpt lat="43.38036" lon="-2.58582">
        <ele>-13.2</ele>
        <time>2021-05-29 14:15:09</time>
      </trkpt>
      <trkpt lat="43.38037" lon="-2.58586">
        <ele>-13.2</ele>
        <time>2021-05-29 14:15:10</time>
      </trkpt>
      <trkpt lat="43.38037" lon="-2.5859">
        <ele>-13.2</ele>
        <time>2021-05-29 14:15:11</time>
      </trkpt>
      <trkpt lat="43.38039" lon="-2.58594">
        <ele>-13.2</ele>
        <time>2021-05-29 14:15:12</time>
      </trkpt>
      <trkpt lat="43.3804" lon="-2.58597">
        <ele>-13.2</ele>
        <time>2021-05-29 14:15:13</time>
      </trkpt>
      <trkpt lat="43.38042" lon="-2.58601">
        <ele>-13.2</ele>
        <time>2021-05-29 14:15:14</time>
      </trkpt>
      <trkpt lat="43.38043" lon="-2.58606">
        <ele>-13.2</ele>
        <time>2021-05-29 14:15:15</time>
      </trkpt>
      <trkpt lat="43.38046" lon="-2.5861">
        <ele>-13.2</ele>
        <time>2021-05-29 14:15:16</time>
      </trkpt>
      <trkpt lat="43.38048" lon="-2.58614">
        <ele>-13</ele>
        <time>2021-05-29 14:15:17</time>
      </trkpt>
      <trkpt lat="43.38051" lon="-2.58618">
        <ele>-12.8</ele>
        <time>2021-05-29 14:15:18</time>
      </trkpt>
      <trkpt lat="43.38054" lon="-2.58622">
        <ele>-12.4</ele>
        <time>2021-05-29 14:15:19</time>
      </trkpt>
      <trkpt lat="43.38057" lon="-2.58627">
        <ele>-12</ele>
        <time>2021-05-29 14:15:20</time>
      </trkpt>
      <trkpt lat="43.38061" lon="-2.58631">
        <ele>-11.6</ele>
        <time>2021-05-29 14:15:21</time>
      </trkpt>
      <trkpt lat="43.38062" lon="-2.58635">
        <ele>-11.4</ele>
        <time>2021-05-29 14:15:22</time>
      </trkpt>
      <trkpt lat="43.38066" lon="-2.58639">
        <ele>-11</ele>
        <time>2021-05-29 14:15:23</time>
      </trkpt>
      <trkpt lat="43.38069" lon="-2.58644">
        <ele>-10.6</ele>
        <time>2021-05-29 14:15:24</time>
      </trkpt>
      <trkpt lat="43.38072" lon="-2.58649">
        <ele>-10</ele>
        <time>2021-05-29 14:15:25</time>
      </trkpt>
      <trkpt lat="43.38075" lon="-2.58654">
        <ele>-9.4</ele>
        <time>2021-05-29 14:15:26</time>
      </trkpt>
      <trkpt lat="43.38078" lon="-2.58659">
        <ele>-9</ele>
        <time>2021-05-29 14:15:27</time>
      </trkpt>
      <trkpt lat="43.3808" lon="-2.58664">
        <ele>-8.2</ele>
        <time>2021-05-29 14:15:28</time>
      </trkpt>
      <trkpt lat="43.38082" lon="-2.58669">
        <ele>-7.8</ele>
        <time>2021-05-29 14:15:29</time>
      </trkpt>
      <trkpt lat="43.38084" lon="-2.58674">
        <ele>-7.2</ele>
        <time>2021-05-29 14:15:30</time>
      </trkpt>
      <trkpt lat="43.38084" lon="-2.58681">
        <ele>-6.8</ele>
        <time>2021-05-29 14:15:31</time>
      </trkpt>
      <trkpt lat="43.38085" lon="-2.58686">
        <ele>-6.4</ele>
        <time>2021-05-29 14:15:32</time>
      </trkpt>
      <trkpt lat="43.38087" lon="-2.58692">
        <ele>-6</ele>
        <time>2021-05-29 14:15:33</time>
      </trkpt>
      <trkpt lat="43.38089" lon="-2.58698">
        <ele>-5.6</ele>
        <time>2021-05-29 14:15:34</time>
      </trkpt>
      <trkpt lat="43.38091" lon="-2.58704">
        <ele>-5.4</ele>
        <time>2021-05-29 14:15:35</time>
      </trkpt>
      <trkpt lat="43.38093" lon="-2.58709">
        <ele>-5.2</ele>
        <time>2021-05-29 14:15:36</time>
      </trkpt>
      <trkpt lat="43.38095" lon="-2.58715">
        <ele>-5</ele>
        <time>2021-05-29 14:15:37</time>
      </trkpt>
      <trkpt lat="43.38098" lon="-2.5872">
        <ele>-4.6</ele>
        <time>2021-05-29 14:15:38</time>
      </trkpt>
      <trkpt lat="43.38102" lon="-2.58726">
        <ele>-4.4</ele>
        <time>2021-05-29 14:15:39</time>
      </trkpt>
      <trkpt lat="43.38105" lon="-2.58732">
        <ele>-4.2</ele>
        <time>2021-05-29 14:15:40</time>
      </trkpt>
      <trkpt lat="43.38107" lon="-2.58738">
        <ele>-3.8</ele>
        <time>2021-05-29 14:15:41</time>
      </trkpt>
      <trkpt lat="43.38108" lon="-2.58744">
        <ele>-3.6</ele>
        <time>2021-05-29 14:15:42</time>
      </trkpt>
      <trkpt lat="43.3811" lon="-2.58751">
        <ele>-3.4</ele>
        <time>2021-05-29 14:15:43</time>
      </trkpt>
      <trkpt lat="43.38111" lon="-2.58757">
        <ele>-3.2</ele>
        <time>2021-05-29 14:15:44</time>
      </trkpt>
      <trkpt lat="43.38112" lon="-2.58763">
        <ele>-2.8</ele>
        <time>2021-05-29 14:15:45</time>
      </trkpt>
      <trkpt lat="43.38112" lon="-2.58769">
        <ele>-2.6</ele>
        <time>2021-05-29 14:15:46</time>
      </trkpt>
      <trkpt lat="43.38113" lon="-2.58775">
        <ele>-2.6</ele>
        <time>2021-05-29 14:15:47</time>
      </trkpt>
      <trkpt lat="43.38113" lon="-2.58781">
        <ele>-2.2</ele>
        <time>2021-05-29 14:15:48</time>
      </trkpt>
      <trkpt lat="43.38114" lon="-2.58787">
        <ele>-2</ele>
        <time>2021-05-29 14:15:49</time>
      </trkpt>
      <trkpt lat="43.38114" lon="-2.58793">
        <ele>-1.8</ele>
        <time>2021-05-29 14:15:50</time>
      </trkpt>
      <trkpt lat="43.38115" lon="-2.58798">
        <ele>-1.6</ele>
        <time>2021-05-29 14:15:51</time>
      </trkpt>
      <trkpt lat="43.38115" lon="-2.58804">
        <ele>-1.2</ele>
        <time>2021-05-29 14:15:52</time>
      </trkpt>
      <trkpt lat="43.38114" lon="-2.5881">
        <ele>-0.8</ele>
        <time>2021-05-29 14:15:53</time>
      </trkpt>
      <trkpt lat="43.38114" lon="-2.58816">
        <ele>-0.6</ele>
        <time>2021-05-29 14:15:54</time>
      </trkpt>
      <trkpt lat="43.38113" lon="-2.58821">
        <ele>-0.2</ele>
        <time>2021-05-29 14:15:55</time>
      </trkpt>
      <trkpt lat="43.38113" lon="-2.58827">
        <time>2021-05-29 14:15:56</time>
      </trkpt>
      <trkpt lat="43.38112" lon="-2.58833">
        <ele>0.2</ele>
        <time>2021-05-29 14:15:57</time>
      </trkpt>
      <trkpt lat="43.38112" lon="-2.58838">
        <ele>0.4</ele>
        <time>2021-05-29 14:15:58</time>
      </trkpt>
      <trkpt lat="43.38111" lon="-2.58844">
        <ele>0.8</ele>
        <time>2021-05-29 14:15:59</time>
      </trkpt>
      <trkpt lat="43.38111" lon="-2.58849">
        <ele>0.8</ele>
        <time>2021-05-29 14:16:00</time>
      </trkpt>
      <trkpt lat="43.38111" lon="-2.58855">
        <ele>1.2</ele>
        <time>2021-05-29 14:16:01</time>
      </trkpt>
      <trkpt lat="43.3811" lon="-2.5886">
        <ele>2</ele>
        <time>2021-05-29 14:16:02</time>
      </trkpt>
      <trkpt lat="43.3811" lon="-2.58866">
        <ele>2.4</ele>
        <time>2021-05-29 14:16:03</time>
      </trkpt>
      <trkpt lat="43.38109" lon="-2.58872">
        <ele>2.8</ele>
        <time>2021-05-29 14:16:04</time>
      </trkpt>
      <trkpt lat="43.38108" lon="-2.58877">
        <ele>3</ele>
        <time>2021-05-29 14:16:05</time>
      </trkpt>
      <trkpt lat="43.38107" lon="-2.58883">
        <ele>3.2</ele>
        <time>2021-05-29 14:16:06</time>
      </trkpt>
      <trkpt lat="43.38106" lon="-2.58889">
        <ele>3.6</ele>
        <time>2021-05-29 14:16:07</time>
      </trkpt>
      <trkpt lat="43.38105" lon="-2.58895">
        <ele>3.8</ele>
        <time>2021-05-29 14:16:08</time>
      </trkpt>
      <trkpt lat="43.38103" lon="-2.589">
        <ele>4.2</ele>
        <time>2021-05-29 14:16:09</time>
      </trkpt>
      <trkpt lat="43.38101" lon="-2.58906">
        <ele>4.4</ele>
        <time>2021-05-29 14:16:10</time>
      </trkpt>
      <trkpt lat="43.38099" lon="-2.58911">
        <ele>4.6</ele>
        <time>2021-05-29 14:16:11</time>
      </trkpt>
      <trkpt lat="43.38098" lon="-2.58916">
        <ele>4.6</ele>
        <time>2021-05-29 14:16:12</time>
      </trkpt>
      <trkpt lat="43.38096" lon="-2.58921">
        <ele>5</ele>
        <time>2021-05-29 14:16:13</time>
      </trkpt>
      <trkpt lat="43.38094" lon="-2.58927">
        <ele>5.2</ele>
        <time>2021-05-29 14:16:14</time>
      </trkpt>
      <trkpt lat="43.38092" lon="-2.58932">
        <ele>5.4</ele>
        <time>2021-05-29 14:16:15</time>
      </trkpt>
      <trkpt lat="43.38091" lon="-2.58938">
        <ele>5.6</ele>
        <time>2021-05-29 14:16:16</time>
      </trkpt>
      <trkpt lat="43.38089" lon="-2.58943">
        <ele>5.8</ele>
        <time>2021-05-29 14:16:17</time>
      </trkpt>
      <trkpt lat="43.38088" lon="-2.58949">
        <ele>6</ele>
        <time>2021-05-29 14:16:18</time>
      </trkpt>
      <trkpt lat="43.38088" lon="-2.58955">
        <ele>6.4</ele>
        <time>2021-05-29 14:16:19</time>
      </trkpt>
      <trkpt lat="43.38088" lon="-2.5896">
        <ele>6.8</ele>
        <time>2021-05-29 14:16:20</time>
      </trkpt>
      <trkpt lat="43.38088" lon="-2.58966">
        <ele>7.2</ele>
        <time>2021-05-29 14:16:21</time>
      </trkpt>
      <trkpt lat="43.38089" lon="-2.58971">
        <ele>7.4</ele>
        <time>2021-05-29 14:16:22</time>
      </trkpt>
      <trkpt lat="43.3809" lon="-2.58976">
        <ele>7.6</ele>
        <time>2021-05-29 14:16:23</time>
      </trkpt>
      <trkpt lat="43.38092" lon="-2.5898">
        <ele>8</ele>
        <time>2021-05-29 14:16:24</time>
      </trkpt>
      <trkpt lat="43.38093" lon="-2.58984">
        <ele>8.2</ele>
        <time>2021-05-29 14:16:25</time>
      </trkpt>
      <trkpt lat="43.38095" lon="-2.58988">
        <ele>8.4</ele>
        <time>2021-05-29 14:16:26</time>
      </trkpt>
      <trkpt lat="43.38097" lon="-2.58991">
        <ele>8.8</ele>
        <time>2021-05-29 14:16:27</time>
      </trkpt>
      <trkpt lat="43.381" lon="-2.58994">
        <ele>9.4</ele>
        <time>2021-05-29 14:16:28</time>
      </trkpt>
      <trkpt lat="43.38102" lon="-2.58997">
        <ele>9.8</ele>
        <time>2021-05-29 14:16:29</time>
      </trkpt>
      <trkpt lat="43.38104" lon="-2.59">
        <ele>10.2</ele>
        <time>2021-05-29 14:16:30</time>
      </trkpt>
      <trkpt lat="43.38106" lon="-2.59002">
        <ele>10.8</ele>
        <time>2021-05-29 14:16:31</time>
      </trkpt>
      <trkpt lat="43.38108" lon="-2.59005">
        <ele>11</ele>
        <time>2021-05-29 14:16:32</time>
      </trkpt>
      <trkpt lat="43.3811" lon="-2.59007">
        <ele>11.4</ele>
        <time>2021-05-29 14:16:33</time>
      </trkpt>
      <trkpt lat="43.38112" lon="-2.59009">
        <ele>11.8</ele>
        <time>2021-05-29 14:16:34</time>
      </trkpt>
      <trkpt lat="43.38114" lon="-2.59011">
        <ele>12</ele>
        <time>2021-05-29 14:16:35</time>
      </trkpt>
      <trkpt lat="43.38117" lon="-2.59013">
        <ele>12.8</ele>
        <time>2021-05-29 14:16:36</time>
      </trkpt>
      <trkpt lat="43.38118" lon="-2.59015">
        <ele>13.2</ele>
        <time>2021-05-29 14:16:37</time>
      </trkpt>
      <trkpt lat="43.3812" lon="-2.59017">
        <ele>13.6</ele>
        <time>2021-05-29 14:16:38</time>
      </trkpt>
      <trkpt lat="43.38122" lon="-2.59019">
        <ele>14</ele>
        <time>2021-05-29 14:16:39</time>
      </trkpt>
      <trkpt lat="43.38125" lon="-2.59022">
        <ele>14.4</ele>
        <time>2021-05-29 14:16:40</time>
      </trkpt>
      <trkpt lat="43.38127" lon="-2.59025">
        <ele>14.8</ele>
        <time>2021-05-29 14:16:41</time>
      </trkpt>
      <trkpt lat="43.3813" lon="-2.59028">
        <ele>15</ele>
        <time>2021-05-29 14:16:42</time>
      </trkpt>
      <trkpt lat="43.38132" lon="-2.59033">
        <ele>15.4</ele>
        <time>2021-05-29 14:16:43</time>
      </trkpt>
      <trkpt lat="43.38133" lon="-2.59037">
        <ele>15.6</ele>
        <time>2021-05-29 14:16:44</time>
      </trkpt>
      <trkpt lat="43.38135" lon="-2.59041">
        <ele>16</ele>
        <time>2021-05-29 14:16:45</time>
      </trkpt>
      <trkpt lat="43.38136" lon="-2.59045">
        <ele>16.4</ele>
        <time>2021-05-29 14:16:46</time>
      </trkpt>
      <trkpt lat="43.38137" lon="-2.59049">
        <ele>16.8</ele>
        <time>2021-05-29 14:16:47</time>
      </trkpt>
      <trkpt lat="43.38138" lon="-2.59052">
        <ele>17.2</ele>
        <time>2021-05-29 14:16:48</time>
      </trkpt>
      <trkpt lat="43.38139" lon="-2.59057">
        <ele>17.6</ele>
        <time>2021-05-29 14:16:49</time>
      </trkpt>
      <trkpt lat="43.3814" lon="-2.5906">
        <ele>18</ele>
        <time>2021-05-29 14:16:50</time>
      </trkpt>
      <trkpt lat="43.38141" lon="-2.59064">
        <ele>18.2</ele>
        <time>2021-05-29 14:16:51</time>
      </trkpt>
      <trkpt lat="43.38141" lon="-2.59068">
        <ele>18.6</ele>
        <time>2021-05-29 14:16:52</time>
      </trkpt>
      <trkpt lat="43.38141" lon="-2.59073">
        <ele>19.2</ele>
        <time>2021-05-29 14:16:53</time>
      </trkpt>
      <trkpt lat="43.38141" lon="-2.59079">
        <ele>19.6</ele>
        <time>2021-05-29 14:16:54</time>
      </trkpt>
      <trkpt lat="43.38142" lon="-2.59083">
        <ele>20</ele>
        <time>2021-05-29 14:16:55</time>
      </trkpt>
      <trkpt lat="43.38141" lon="-2.59088">
        <ele>20.2</ele>
        <time>2021-05-29 14:16:56</time>
      </trkpt>
      <trkpt lat="43.38141" lon="-2.59092">
        <ele>20.4</ele>
        <time>2021-05-29 14:16:57</time>
      </trkpt>
      <trkpt lat="43.3814" lon="-2.59097">
        <ele>20.8</ele>
        <time>2021-05-29 14:16:58</time>
      </trkpt>
      <trkpt lat="43.38139" lon="-2.59101">
        <ele>21.2</ele>
        <time>2021-05-29 14:16:59</time>
      </trkpt>
      <trkpt lat="43.38139" lon="-2.59105">
        <ele>21.6</ele>
        <time>2021-05-29 14:17:00</time>
      </trkpt>
      <trkpt lat="43.38138" lon="-2.59109">
        <ele>22</ele>
        <time>2021-05-29 14:17:01</time>
      </trkpt>
      <trkpt lat="43.38138" lon="-2.59113">
        <ele>22.4</ele>
        <time>2021-05-29 14:17:02</time>
      </trkpt>
      <trkpt lat="43.38136" lon="-2.59117">
        <ele>22.6</ele>
        <time>2021-05-29 14:17:03</time>
      </trkpt>
      <trkpt lat="43.38134" lon="-2.59122">
        <ele>22.6</ele>
        <time>2021-05-29 14:17:04</time>
      </trkpt>
      <trkpt lat="43.38132" lon="-2.59126">
        <ele>22.8</ele>
        <time>2021-05-29 14:17:05</time>
      </trkpt>
      <trkpt lat="43.3813" lon="-2.5913">
        <ele>23</ele>
        <time>2021-05-29 14:17:06</time>
      </trkpt>
      <trkpt lat="43.38127" lon="-2.59134">
        <ele>23.2</ele>
        <time>2021-05-29 14:17:07</time>
      </trkpt>
      <trkpt lat="43.38125" lon="-2.59137">
        <ele>23.6</ele>
        <time>2021-05-29 14:17:08</time>
      </trkpt>
      <trkpt lat="43.38122" lon="-2.5914">
        <ele>23.8</ele>
        <time>2021-05-29 14:17:09</time>
      </trkpt>
      <trkpt lat="43.3812" lon="-2.59143">
        <ele>24.6</ele>
        <time>2021-05-29 14:17:10</time>
      </trkpt>
      <trkpt lat="43.38118" lon="-2.59146">
        <ele>24.8</ele>
        <time>2021-05-29 14:17:11</time>
      </trkpt>
      <trkpt lat="43.38115" lon="-2.59148">
        <ele>25.2</ele>
        <time>2021-05-29 14:17:12</time>
      </trkpt>
      <trkpt lat="43.38112" lon="-2.5915">
        <ele>25.6</ele>
        <time>2021-05-29 14:17:13</time>
      </trkpt>
      <trkpt lat="43.38108" lon="-2.59151">
        <ele>25.8</ele>
        <time>2021-05-29 14:17:14</time>
      </trkpt>
      <trkpt lat="43.38105" lon="-2.59153">
        <ele>26.2</ele>
        <time>2021-05-29 14:17:15</time>
      </trkpt>
      <trkpt lat="43.38102" lon="-2.59154">
        <ele>26.4</ele>
        <time>2021-05-29 14:17:16</time>
      </trkpt>
      <trkpt lat="43.38098" lon="-2.59155">
        <ele>26.8</ele>
        <time>2021-05-29 14:17:17</time>
      </trkpt>
      <trkpt lat="43.38095" lon="-2.59155">
        <ele>27.2</ele>
        <time>2021-05-29 14:17:18</time>
      </trkpt>
      <trkpt lat="43.38092" lon="-2.59155">
        <ele>27.6</ele>
        <time>2021-05-29 14:17:19</time>
      </trkpt>
      <trkpt lat="43.38089" lon="-2.59156">
        <ele>27.8</ele>
        <time>2021-05-29 14:17:20</time>
      </trkpt>
      <trkpt lat="43.38086" lon="-2.59157">
        <ele>28.2</ele>
        <time>2021-05-29 14:17:21</time>
      </trkpt>
      <trkpt lat="43.38083" lon="-2.59157">
        <ele>28.6</ele>
        <time>2021-05-29 14:17:22</time>
      </trkpt>
      <trkpt lat="43.38079" lon="-2.59158">
        <ele>28.6</ele>
        <time>2021-05-29 14:17:23</time>
      </trkpt>
      <trkpt lat="43.38076" lon="-2.59159">
        <ele>28.8</ele>
        <time>2021-05-29 14:17:24</time>
      </trkpt>
      <trkpt lat="43.38073" lon="-2.59159">
        <ele>29.2</ele>
        <time>2021-05-29 14:17:25</time>
      </trkpt>
      <trkpt lat="43.3807" lon="-2.5916">
        <ele>29.6</ele>
        <time>2021-05-29 14:17:26</time>
      </trkpt>
      <trkpt lat="43.38068" lon="-2.59162">
        <ele>30</ele>
        <time>2021-05-29 14:17:27</time>
      </trkpt>
      <trkpt lat="43.38065" lon="-2.59163">
        <ele>30.2</ele>
        <time>2021-05-29 14:17:28</time>
      </trkpt>
      <trkpt lat="43.38063" lon="-2.59164">
        <ele>30.8</ele>
        <time>2021-05-29 14:17:29</time>
      </trkpt>
      <trkpt lat="43.38059" lon="-2.59165">
        <ele>31.2</ele>
        <time>2021-05-29 14:17:30</time>
      </trkpt>
      <trkpt lat="43.38056" lon="-2.59167">
        <ele>31.4</ele>
        <time>2021-05-29 14:17:31</time>
      </trkpt>
      <trkpt lat="43.38053" lon="-2.59169">
        <ele>32</ele>
        <time>2021-05-29 14:17:32</time>
      </trkpt>
      <trkpt lat="43.38051" lon="-2.59171">
        <ele>32.2</ele>
        <time>2021-05-29 14:17:33</time>
      </trkpt>
      <trkpt lat="43.38048" lon="-2.59174">
        <ele>32.6</ele>
        <time>2021-05-29 14:17:34</time>
      </trkpt>
      <trkpt lat="43.38045" lon="-2.59176">
        <ele>33</ele>
        <time>2021-05-29 14:17:35</time>
      </trkpt>
      <trkpt lat="43.38043" lon="-2.59179">
        <ele>33.4</ele>
        <time>2021-05-29 14:17:36</time>
      </trkpt>
      <trkpt lat="43.38041" lon="-2.59182">
        <ele>33.8</ele>
        <time>2021-05-29 14:17:37</time>
      </trkpt>
      <trkpt lat="43.38039" lon="-2.59185">
        <ele>34.2</ele>
        <time>2021-05-29 14:17:38</time>
      </trkpt>
      <trkpt lat="43.38038" lon="-2.59189">
        <ele>34.6</ele>
        <time>2021-05-29 14:17:39</time>
      </trkpt>
      <trkpt lat="43.38036" lon="-2.59193">
        <ele>35</ele>
        <time>2021-05-29 14:17:40</time>
      </trkpt>
      <trkpt lat="43.38035" lon="-2.59196">
        <ele>35.2</ele>
        <time>2021-05-29 14:17:41</time>
      </trkpt>
      <trkpt lat="43.38034" lon="-2.59199">
        <ele>35.4</ele>
        <time>2021-05-29 14:17:42</time>
      </trkpt>
      <trkpt lat="43.38032" lon="-2.59203">
        <ele>35.8</ele>
        <time>2021-05-29 14:17:43</time>
      </trkpt>
      <trkpt lat="43.38031" lon="-2.59206">
        <ele>36.2</ele>
        <time>2021-05-29 14:17:44</time>
      </trkpt>
      <trkpt lat="43.3803" lon="-2.59209">
        <ele>37</ele>
        <time>2021-05-29 14:17:45</time>
      </trkpt>
      <trkpt lat="43.38028" lon="-2.59212">
        <ele>37.4</ele>
        <time>2021-05-29 14:17:46</time>
      </trkpt>
      <trkpt lat="43.38027" lon="-2.59216">
        <ele>37.8</ele>
        <time>2021-05-29 14:17:47</time>
      </trkpt>
      <trkpt lat="43.38025" lon="-2.5922">
        <ele>38.2</ele>
        <time>2021-05-29 14:17:48</time>
      </trkpt>
      <trkpt lat="43.38023" lon="-2.59223">
        <ele>38.6</ele>
        <time>2021-05-29 14:17:49</time>
      </trkpt>
      <trkpt lat="43.38022" lon="-2.59226">
        <ele>39</ele>
        <time>2021-05-29 14:17:50</time>
      </trkpt>
      <trkpt lat="43.3802" lon="-2.5923">
        <ele>39.6</ele>
        <time>2021-05-29 14:17:51</time>
      </trkpt>
      <trkpt lat="43.38019" lon="-2.59233">
        <ele>40</ele>
        <time>2021-05-29 14:17:52</time>
      </trkpt>
      <trkpt lat="43.38017" lon="-2.59237">
        <ele>40.4</ele>
        <time>2021-05-29 14:17:53</time>
      </trkpt>
      <trkpt lat="43.38016" lon="-2.59241">
        <ele>40.6</ele>
        <time>2021-05-29 14:17:54</time>
      </trkpt>
      <trkpt lat="43.38014" lon="-2.59245">
        <ele>41</ele>
        <time>2021-05-29 14:17:55</time>
      </trkpt>
      <trkpt lat="43.38013" lon="-2.59249">
        <ele>41.2</ele>
        <time>2021-05-29 14:17:56</time>
      </trkpt>
      <trkpt lat="43.38011" lon="-2.59252">
        <ele>41.8</ele>
        <time>2021-05-29 14:17:57</time>
      </trkpt>
      <trkpt lat="43.3801" lon="-2.59256">
        <ele>42</ele>
        <time>2021-05-29 14:17:58</time>
      </trkpt>
      <trkpt lat="43.38009" lon="-2.5926">
        <ele>42.4</ele>
        <time>2021-05-29 14:17:59</time>
      </trkpt>
      <trkpt lat="43.38008" lon="-2.59263">
        <ele>42.4</ele>
        <time>2021-05-29 14:18:00</time>
      </trkpt>
      <trkpt lat="43.38007" lon="-2.59267">
        <ele>42.8</ele>
        <time>2021-05-29 14:18:01</time>
      </trkpt>
      <trkpt lat="43.38006" lon="-2.5927">
        <ele>43</ele>
        <time>2021-05-29 14:18:02</time>
      </trkpt>
      <trkpt lat="43.38005" lon="-2.59274">
        <ele>43.4</ele>
        <time>2021-05-29 14:18:03</time>
      </trkpt>
      <trkpt lat="43.38003" lon="-2.59278">
        <ele>43.8</ele>
        <time>2021-05-29 14:18:04</time>
      </trkpt>
      <trkpt lat="43.38002" lon="-2.59282">
        <ele>44.2</ele>
        <time>2021-05-29 14:18:05</time>
      </trkpt>
      <trkpt lat="43.38001" lon="-2.59286">
        <ele>44.6</ele>
        <time>2021-05-29 14:18:06</time>
      </trkpt>
      <trkpt lat="43.37999" lon="-2.59289">
        <ele>44.8</ele>
        <time>2021-05-29 14:18:07</time>
      </trkpt>
      <trkpt lat="43.37998" lon="-2.59293">
        <ele>45.2</ele>
        <time>2021-05-29 14:18:08</time>
      </trkpt>
      <trkpt lat="43.37997" lon="-2.59297">
        <ele>45.8</ele>
        <time>2021-05-29 14:18:09</time>
      </trkpt>
      <trkpt lat="43.37996" lon="-2.593">
        <ele>46.2</ele>
        <time>2021-05-29 14:18:10</time>
      </trkpt>
      <trkpt lat="43.37994" lon="-2.59304">
        <ele>46.6</ele>
        <time>2021-05-29 14:18:11</time>
      </trkpt>
      <trkpt lat="43.37993" lon="-2.59308">
        <ele>46.8</ele>
        <time>2021-05-29 14:18:12</time>
      </trkpt>
      <trkpt lat="43.37992" lon="-2.59312">
        <ele>47</ele>
        <time>2021-05-29 14:18:13</time>
      </trkpt>
      <trkpt lat="43.37991" lon="-2.59316">
        <ele>47.4</ele>
        <time>2021-05-29 14:18:14</time>
      </trkpt>
      <trkpt lat="43.3799" lon="-2.59319">
        <ele>47.6</ele>
        <time>2021-05-29 14:18:15</time>
      </trkpt>
      <trkpt lat="43.37989" lon="-2.59322">
        <ele>48</ele>
        <time>2021-05-29 14:18:16</time>
      </trkpt>
      <trkpt lat="43.37988" lon="-2.59325">
        <ele>48.2</ele>
        <time>2021-05-29 14:18:17</time>
      </trkpt>
      <trkpt lat="43.37986" lon="-2.59328">
        <ele>48.6</ele>
        <time>2021-05-29 14:18:18</time>
      </trkpt>
      <trkpt lat="43.37985" lon="-2.5933">
        <ele>49.2</ele>
        <time>2021-05-29 14:18:19</time>
      </trkpt>
      <trkpt lat="43.37983" lon="-2.59334">
        <ele>49.6</ele>
        <time>2021-05-29 14:18:20</time>
      </trkpt>
      <trkpt lat="43.37982" lon="-2.59337">
        <ele>50</ele>
        <time>2021-05-29 14:18:21</time>
      </trkpt>
      <trkpt lat="43.37981" lon="-2.59341">
        <ele>50.2</ele>
        <time>2021-05-29 14:18:22</time>
      </trkpt>
      <trkpt lat="43.3798" lon="-2.59344">
        <ele>50.6</ele>
        <time>2021-05-29 14:18:23</time>
      </trkpt>
      <trkpt lat="43.37978" lon="-2.59347">
        <ele>50.8</ele>
        <time>2021-05-29 14:18:24</time>
      </trkpt>
      <trkpt lat="43.37977" lon="-2.59351">
        <ele>51.2</ele>
        <time>2021-05-29 14:18:25</time>
      </trkpt>
      <trkpt lat="43.37975" lon="-2.59354">
        <ele>51.6</ele>
        <time>2021-05-29 14:18:26</time>
      </trkpt>
      <trkpt lat="43.37974" lon="-2.59358">
        <ele>52</ele>
        <time>2021-05-29 14:18:27</time>
      </trkpt>
      <trkpt lat="43.37972" lon="-2.59362">
        <ele>52.2</ele>
        <time>2021-05-29 14:18:28</time>
      </trkpt>
      <trkpt lat="43.37971" lon="-2.59366">
        <ele>52.8</ele>
        <time>2021-05-29 14:18:29</time>
      </trkpt>
      <trkpt lat="43.3797" lon="-2.5937">
        <ele>53.2</ele>
        <time>2021-05-29 14:18:30</time>
      </trkpt>
      <trkpt lat="43.37969" lon="-2.59374">
        <ele>53.4</ele>
        <time>2021-05-29 14:18:31</time>
      </trkpt>
      <trkpt lat="43.37968" lon="-2.59379">
        <ele>53.8</ele>
        <time>2021-05-29 14:18:32</time>
      </trkpt>
      <trkpt lat="43.37967" lon="-2.59383">
        <ele>54.2</ele>
        <time>2021-05-29 14:18:33</time>
      </trkpt>
      <trkpt lat="43.37967" lon="-2.59387">
        <ele>54.6</ele>
        <time>2021-05-29 14:18:34</time>
      </trkpt>
      <trkpt lat="43.37967" lon="-2.59391">
        <ele>55</ele>
        <time>2021-05-29 14:18:35</time>
      </trkpt>
      <trkpt lat="43.37966" lon="-2.59396">
        <ele>55.2</ele>
        <time>2021-05-29 14:18:36</time>
      </trkpt>
      <trkpt lat="43.37966" lon="-2.594">
        <ele>55.6</ele>
        <time>2021-05-29 14:18:37</time>
      </trkpt>
      <trkpt lat="43.37967" lon="-2.59404">
        <ele>55.8</ele>
        <time>2021-05-29 14:18:38</time>
      </trkpt>
      <trkpt lat="43.37967" lon="-2.59409">
        <ele>56.2</ele>
        <time>2021-05-29 14:18:39</time>
      </trkpt>
      <trkpt lat="43.37967" lon="-2.59413">
        <ele>56.6</ele>
        <time>2021-05-29 14:18:40</time>
      </trkpt>
      <trkpt lat="43.37968" lon="-2.59417">
        <ele>56.8</ele>
        <time>2021-05-29 14:18:41</time>
      </trkpt>
      <trkpt lat="43.37968" lon="-2.59421">
        <ele>57.2</ele>
        <time>2021-05-29 14:18:42</time>
      </trkpt>
      <trkpt lat="43.37969" lon="-2.59425">
        <ele>57.8</ele>
        <time>2021-05-29 14:18:43</time>
      </trkpt>
      <trkpt lat="43.3797" lon="-2.59429">
        <ele>58.2</ele>
        <time>2021-05-29 14:18:44</time>
      </trkpt>
      <trkpt lat="43.3797" lon="-2.59433">
        <ele>58.6</ele>
        <time>2021-05-29 14:18:45</time>
      </trkpt>
      <trkpt lat="43.3797" lon="-2.59438">
        <ele>59</ele>
        <time>2021-05-29 14:18:46</time>
      </trkpt>
      <trkpt lat="43.37971" lon="-2.59442">
        <ele>59.2</ele>
        <time>2021-05-29 14:18:47</time>
      </trkpt>
      <trkpt lat="43.37972" lon="-2.59446">
        <ele>59.6</ele>
        <time>2021-05-29 14:18:48</time>
      </trkpt>
      <trkpt lat="43.37973" lon="-2.5945">
        <ele>60</ele>
        <time>2021-05-29 14:18:49</time>
      </trkpt>
      <trkpt lat="43.37973" lon="-2.59454">
        <ele>60.4</ele>
        <time>2021-05-29 14:18:50</time>
      </trkpt>
      <trkpt lat="43.37974" lon="-2.59458">
        <ele>60.6</ele>
        <time>2021-05-29 14:18:51</time>
      </trkpt>
      <trkpt lat="43.37974" lon="-2.59463">
        <ele>61.2</ele>
        <time>2021-05-29 14:18:52</time>
      </trkpt>
      <trkpt lat="43.37975" lon="-2.59467">
        <ele>61.6</ele>
        <time>2021-05-29 14:18:53</time>
      </trkpt>
      <trkpt lat="43.37976" lon="-2.59471">
        <ele>62.6</ele>
        <time>2021-05-29 14:18:54</time>
      </trkpt>
      <trkpt lat="43.37976" lon="-2.59476">
        <ele>62.8</ele>
        <time>2021-05-29 14:18:55</time>
      </trkpt>
      <trkpt lat="43.37977" lon="-2.5948">
        <ele>63</ele>
        <time>2021-05-29 14:18:56</time>
      </trkpt>
      <trkpt lat="43.37978" lon="-2.59484">
        <ele>63.2</ele>
        <time>2021-05-29 14:18:57</time>
      </trkpt>
      <trkpt lat="43.37979" lon="-2.59488">
        <ele>63.2</ele>
        <time>2021-05-29 14:18:58</time>
      </trkpt>
      <trkpt lat="43.3798" lon="-2.59492">
        <ele>63.6</ele>
        <time>2021-05-29 14:18:59</time>
      </trkpt>
      <trkpt lat="43.37981" lon="-2.59496">
        <ele>64</ele>
        <time>2021-05-29 14:19:00</time>
      </trkpt>
      <trkpt lat="43.37981" lon="-2.595">
        <ele>64.2</ele>
        <time>2021-05-29 14:19:01</time>
      </trkpt>
      <trkpt lat="43.37982" lon="-2.59505">
        <ele>64.8</ele>
        <time>2021-05-29 14:19:02</time>
      </trkpt>
      <trkpt lat="43.37983" lon="-2.59509">
        <ele>65.2</ele>
        <time>2021-05-29 14:19:03</time>
      </trkpt>
      <trkpt lat="43.37984" lon="-2.59514">
        <ele>65.6</ele>
        <time>2021-05-29 14:19:04</time>
      </trkpt>
      <trkpt lat="43.37985" lon="-2.59518">
        <ele>66</ele>
        <time>2021-05-29 14:19:05</time>
      </trkpt>
      <trkpt lat="43.37986" lon="-2.59522">
        <ele>66.2</ele>
        <time>2021-05-29 14:19:06</time>
      </trkpt>
      <trkpt lat="43.37987" lon="-2.59526">
        <ele>66.6</ele>
        <time>2021-05-29 14:19:07</time>
      </trkpt>
      <trkpt lat="43.37988" lon="-2.5953">
        <ele>67</ele>
        <time>2021-05-29 14:19:08</time>
      </trkpt>
      <trkpt lat="43.3799" lon="-2.59534">
        <ele>67.2</ele>
        <time>2021-05-29 14:19:09</time>
      </trkpt>
      <trkpt lat="43.37991" lon="-2.59538">
        <ele>67.4</ele>
        <time>2021-05-29 14:19:10</time>
      </trkpt>
      <trkpt lat="43.37991" lon="-2.59542">
        <ele>67.8</ele>
        <time>2021-05-29 14:19:11</time>
      </trkpt>
      <trkpt lat="43.37992" lon="-2.59547">
        <ele>68.2</ele>
        <time>2021-05-29 14:19:12</time>
      </trkpt>
      <trkpt lat="43.37993" lon="-2.59551">
        <ele>68.4</ele>
        <time>2021-05-29 14:19:13</time>
      </trkpt>
      <trkpt lat="43.37994" lon="-2.59556">
        <ele>68.6</ele>
        <time>2021-05-29 14:19:14</time>
      </trkpt>
      <trkpt lat="43.37995" lon="-2.5956">
        <ele>69</ele>
        <time>2021-05-29 14:19:15</time>
      </trkpt>
      <trkpt lat="43.37996" lon="-2.59564">
        <ele>69.4</ele>
        <time>2021-05-29 14:19:16</time>
      </trkpt>
      <trkpt lat="43.37997" lon="-2.59568">
        <ele>69.6</ele>
        <time>2021-05-29 14:19:17</time>
      </trkpt>
      <trkpt lat="43.37998" lon="-2.59572">
        <ele>69.8</ele>
        <time>2021-05-29 14:19:18</time>
      </trkpt>
      <trkpt lat="43.37999" lon="-2.59577">
        <ele>70</ele>
        <time>2021-05-29 14:19:19</time>
      </trkpt>
      <trkpt lat="43.38" lon="-2.59581">
        <ele>70.4</ele>
        <time>2021-05-29 14:19:20</time>
      </trkpt>
      <trkpt lat="43.38001" lon="-2.59586">
        <ele>70.6</ele>
        <time>2021-05-29 14:19:21</time>
      </trkpt>
      <trkpt lat="43.38002" lon="-2.5959">
        <ele>70.8</ele>
        <time>2021-05-29 14:19:22</time>
      </trkpt>
      <trkpt lat="43.38003" lon="-2.59594">
        <ele>71.2</ele>
        <time>2021-05-29 14:19:23</time>
      </trkpt>
      <trkpt lat="43.38004" lon="-2.59599">
        <ele>71.4</ele>
        <time>2021-05-29 14:19:24</time>
      </trkpt>
      <trkpt lat="43.38005" lon="-2.59603">
        <ele>71.8</ele>
        <time>2021-05-29 14:19:25</time>
      </trkpt>
      <trkpt lat="43.38006" lon="-2.59608">
        <ele>72</ele>
        <time>2021-05-29 14:19:26</time>
      </trkpt>
      <trkpt lat="43.38008" lon="-2.59613">
        <ele>72</ele>
        <time>2021-05-29 14:19:27</time>
      </trkpt>
      <trkpt lat="43.38009" lon="-2.59617">
        <ele>73.2</ele>
        <time>2021-05-29 14:19:28</time>
      </trkpt>
      <trkpt lat="43.3801" lon="-2.59622">
        <ele>73.4</ele>
        <time>2021-05-29 14:19:29</time>
      </trkpt>
      <trkpt lat="43.38011" lon="-2.59626">
        <ele>73.6</ele>
        <time>2021-05-29 14:19:30</time>
      </trkpt>
      <trkpt lat="43.38012" lon="-2.59631">
        <ele>73.8</ele>
        <time>2021-05-29 14:19:31</time>
      </trkpt>
      <trkpt lat="43.38014" lon="-2.59636">
        <ele>74</ele>
        <time>2021-05-29 14:19:32</time>
      </trkpt>
      <trkpt lat="43.38015" lon="-2.5964">
        <ele>74.2</ele>
        <time>2021-05-29 14:19:33</time>
      </trkpt>
      <trkpt lat="43.38016" lon="-2.59645">
        <ele>74.4</ele>
        <time>2021-05-29 14:19:34</time>
      </trkpt>
      <trkpt lat="43.38017" lon="-2.5965">
        <ele>74.6</ele>
        <time>2021-05-29 14:19:35</time>
      </trkpt>
      <trkpt lat="43.38019" lon="-2.59654">
        <ele>74.8</ele>
        <time>2021-05-29 14:19:36</time>
      </trkpt>
      <trkpt lat="43.3802" lon="-2.59659">
        <ele>74.8</ele>
        <time>2021-05-29 14:19:37</time>
      </trkpt>
      <trkpt lat="43.38021" lon="-2.59663">
        <ele>75.2</ele>
        <time>2021-05-29 14:19:38</time>
      </trkpt>
      <trkpt lat="43.38023" lon="-2.59668">
        <ele>75.4</ele>
        <time>2021-05-29 14:19:39</time>
      </trkpt>
      <trkpt lat="43.38024" lon="-2.59673">
        <ele>75.8</ele>
        <time>2021-05-29 14:19:40</time>
      </trkpt>
      <trkpt lat="43.38025" lon="-2.59677">
        <ele>76.2</ele>
        <time>2021-05-29 14:19:41</time>
      </trkpt>
      <trkpt lat="43.38026" lon="-2.59682">
        <ele>76.6</ele>
        <time>2021-05-29 14:19:42</time>
      </trkpt>
      <trkpt lat="43.38027" lon="-2.59686">
        <ele>77</ele>
        <time>2021-05-29 14:19:43</time>
      </trkpt>
      <trkpt lat="43.38029" lon="-2.59691">
        <ele>77.4</ele>
        <time>2021-05-29 14:19:44</time>
      </trkpt>
      <trkpt lat="43.3803" lon="-2.59696">
        <ele>77.6</ele>
        <time>2021-05-29 14:19:45</time>
      </trkpt>
      <trkpt lat="43.38031" lon="-2.59701">
        <ele>77.8</ele>
        <time>2021-05-29 14:19:46</time>
      </trkpt>
      <trkpt lat="43.38032" lon="-2.59706">
        <ele>78</ele>
        <time>2021-05-29 14:19:47</time>
      </trkpt>
      <trkpt lat="43.38032" lon="-2.59711">
        <ele>78</ele>
        <time>2021-05-29 14:19:48</time>
      </trkpt>
      <trkpt lat="43.38033" lon="-2.59716">
        <ele>78.2</ele>
        <time>2021-05-29 14:19:49</time>
      </trkpt>
      <trkpt lat="43.38034" lon="-2.59721">
        <ele>78.4</ele>
        <time>2021-05-29 14:19:50</time>
      </trkpt>
      <trkpt lat="43.38035" lon="-2.59726">
        <ele>78.8</ele>
        <time>2021-05-29 14:19:51</time>
      </trkpt>
      <trkpt lat="43.38035" lon="-2.59732">
        <ele>79</ele>
        <time>2021-05-29 14:19:52</time>
      </trkpt>
      <trkpt lat="43.38036" lon="-2.59737">
        <ele>79.2</ele>
        <time>2021-05-29 14:19:53</time>
      </trkpt>
      <trkpt lat="43.38037" lon="-2.59743">
        <ele>79.4</ele>
        <time>2021-05-29 14:19:54</time>
      </trkpt>
      <trkpt lat="43.38037" lon="-2.59748">
        <ele>79.6</ele>
        <time>2021-05-29 14:19:55</time>
      </trkpt>
      <trkpt lat="43.38038" lon="-2.59754">
        <ele>79.8</ele>
        <time>2021-05-29 14:19:56</time>
      </trkpt>
      <trkpt lat="43.38038" lon="-2.59759">
        <ele>80.2</ele>
        <time>2021-05-29 14:19:57</time>
      </trkpt>
      <trkpt lat="43.38039" lon="-2.59765">
        <ele>80.6</ele>
        <time>2021-05-29 14:19:58</time>
      </trkpt>
      <trkpt lat="43.3804" lon="-2.5977">
        <ele>81</ele>
        <time>2021-05-29 14:19:59</time>
      </trkpt>
      <trkpt lat="43.3804" lon="-2.59776">
        <ele>81.2</ele>
        <time>2021-05-29 14:20:00</time>
      </trkpt>
      <trkpt lat="43.38041" lon="-2.59781">
        <ele>81.4</ele>
        <time>2021-05-29 14:20:01</time>
      </trkpt>
      <trkpt lat="43.38042" lon="-2.59787">
        <ele>81.6</ele>
        <time>2021-05-29 14:20:02</time>
      </trkpt>
      <trkpt lat="43.38042" lon="-2.59792">
        <ele>82.4</ele>
        <time>2021-05-29 14:20:03</time>
      </trkpt>
      <trkpt lat="43.38043" lon="-2.59798">
        <ele>82.6</ele>
        <time>2021-05-29 14:20:04</time>
      </trkpt>
      <trkpt lat="43.38044" lon="-2.59803">
        <ele>82.8</ele>
        <time>2021-05-29 14:20:05</time>
      </trkpt>
      <trkpt lat="43.38045" lon="-2.59808">
        <ele>83.2</ele>
        <time>2021-05-29 14:20:06</time>
      </trkpt>
      <trkpt lat="43.38047" lon="-2.59814">
        <ele>83.6</ele>
        <time>2021-05-29 14:20:07</time>
      </trkpt>
      <trkpt lat="43.38048" lon="-2.59819">
        <ele>84</ele>
        <time>2021-05-29 14:20:08</time>
      </trkpt>
      <trkpt lat="43.3805" lon="-2.59824">
        <ele>84.4</ele>
        <time>2021-05-29 14:20:09</time>
      </trkpt>
      <trkpt lat="43.38051" lon="-2.59829">
        <ele>84.6</ele>
        <time>2021-05-29 14:20:10</time>
      </trkpt>
      <trkpt lat="43.38053" lon="-2.59834">
        <ele>84.8</ele>
        <time>2021-05-29 14:20:11</time>
      </trkpt>
      <trkpt lat="43.38055" lon="-2.59838">
        <ele>85</ele>
        <time>2021-05-29 14:20:12</time>
      </trkpt>
      <trkpt lat="43.38057" lon="-2.59843">
        <ele>85.4</ele>
        <time>2021-05-29 14:20:13</time>
      </trkpt>
      <trkpt lat="43.3806" lon="-2.59847">
        <ele>85.6</ele>
        <time>2021-05-29 14:20:14</time>
      </trkpt>
      <trkpt lat="43.38062" lon="-2.59852">
        <ele>85.6</ele>
        <time>2021-05-29 14:20:15</time>
      </trkpt>
      <trkpt lat="43.38064" lon="-2.59857">
        <ele>85.8</ele>
        <time>2021-05-29 14:20:16</time>
      </trkpt>
      <trkpt lat="43.38066" lon="-2.59861">
        <ele>86</ele>
        <time>2021-05-29 14:20:17</time>
      </trkpt>
      <trkpt lat="43.38068" lon="-2.59866">
        <ele>86.4</ele>
        <time>2021-05-29 14:20:18</time>
      </trkpt>
      <trkpt lat="43.3807" lon="-2.5987">
        <ele>86.8</ele>
        <time>2021-05-29 14:20:19</time>
      </trkpt>
      <trkpt lat="43.38072" lon="-2.59875">
        <ele>87</ele>
        <time>2021-05-29 14:20:20</time>
      </trkpt>
      <trkpt lat="43.38074" lon="-2.59879">
        <ele>87.4</ele>
        <time>2021-05-29 14:20:21</time>
      </trkpt>
      <trkpt lat="43.38076" lon="-2.59884">
        <ele>88</ele>
        <time>2021-05-29 14:20:22</time>
      </trkpt>
      <trkpt lat="43.38077" lon="-2.59889">
        <ele>88.4</ele>
        <time>2021-05-29 14:20:23</time>
      </trkpt>
      <trkpt lat="43.38079" lon="-2.59894">
        <ele>88.6</ele>
        <time>2021-05-29 14:20:24</time>
      </trkpt>
      <trkpt lat="43.38081" lon="-2.59899">
        <ele>88.8</ele>
        <time>2021-05-29 14:20:25</time>
      </trkpt>
      <trkpt lat="43.38082" lon="-2.59904">
        <ele>89</ele>
        <time>2021-05-29 14:20:26</time>
      </trkpt>
      <trkpt lat="43.38083" lon="-2.59909">
        <ele>89.4</ele>
        <time>2021-05-29 14:20:27</time>
      </trkpt>
      <trkpt lat="43.38085" lon="-2.59914">
        <ele>90</ele>
        <time>2021-05-29 14:20:28</time>
      </trkpt>
      <trkpt lat="43.38086" lon="-2.59919">
        <ele>90.6</ele>
        <time>2021-05-29 14:20:29</time>
      </trkpt>
      <trkpt lat="43.38087" lon="-2.59925">
        <ele>91</ele>
        <time>2021-05-29 14:20:30</time>
      </trkpt>
      <trkpt lat="43.38087" lon="-2.5993">
        <ele>91.2</ele>
        <time>2021-05-29 14:20:31</time>
      </trkpt>
      <trkpt lat="43.38088" lon="-2.59935">
        <ele>91.6</ele>
        <time>2021-05-29 14:20:32</time>
      </trkpt>
      <trkpt lat="43.38089" lon="-2.5994">
        <ele>91.8</ele>
        <time>2021-05-29 14:20:33</time>
      </trkpt>
      <trkpt lat="43.38089" lon="-2.59945">
        <ele>92.2</ele>
        <time>2021-05-29 14:20:34</time>
      </trkpt>
      <trkpt lat="43.38089" lon="-2.59951">
        <ele>92.4</ele>
        <time>2021-05-29 14:20:35</time>
      </trkpt>
      <trkpt lat="43.3809" lon="-2.59956">
        <ele>92.6</ele>
        <time>2021-05-29 14:20:36</time>
      </trkpt>
      <trkpt lat="43.3809" lon="-2.59961">
        <ele>93.2</ele>
        <time>2021-05-29 14:20:37</time>
      </trkpt>
      <trkpt lat="43.3809" lon="-2.59967">
        <ele>93.4</ele>
        <time>2021-05-29 14:20:38</time>
      </trkpt>
      <trkpt lat="43.38091" lon="-2.59972">
        <ele>93.8</ele>
        <time>2021-05-29 14:20:39</time>
      </trkpt>
      <trkpt lat="43.38091" lon="-2.59977">
        <ele>94.4</ele>
        <time>2021-05-29 14:20:40</time>
      </trkpt>
      <trkpt lat="43.38091" lon="-2.59982">
        <ele>94.6</ele>
        <time>2021-05-29 14:20:41</time>
      </trkpt>
      <trkpt lat="43.38092" lon="-2.59988">
        <ele>94.8</ele>
        <time>2021-05-29 14:20:42</time>
      </trkpt>
      <trkpt lat="43.38092" lon="-2.59993">
        <ele>95.2</ele>
        <time>2021-05-29 14:20:43</time>
      </trkpt>
      <trkpt lat="43.38092" lon="-2.59998">
        <ele>95.4</ele>
        <time>2021-05-29 14:20:44</time>
      </trkpt>
      <trkpt lat="43.38093" lon="-2.60003">
        <ele>95.8</ele>
        <time>2021-05-29 14:20:45</time>
      </trkpt>
      <trkpt lat="43.38093" lon="-2.60008">
        <ele>95.8</ele>
        <time>2021-05-29 14:20:46</time>
      </trkpt>
      <trkpt lat="43.38093" lon="-2.60013">
        <ele>96</ele>
        <time>2021-05-29 14:20:47</time>
      </trkpt>
      <trkpt lat="43.38093" lon="-2.60018">
        <ele>96.6</ele>
        <time>2021-05-29 14:20:48</time>
      </trkpt>
      <trkpt lat="43.38093" lon="-2.60023">
        <ele>96.6</ele>
        <time>2021-05-29 14:20:49</time>
      </trkpt>
      <trkpt lat="43.38093" lon="-2.60029">
        <ele>97</ele>
        <time>2021-05-29 14:20:50</time>
      </trkpt>
      <trkpt lat="43.38094" lon="-2.60034">
        <ele>97.2</ele>
        <time>2021-05-29 14:20:51</time>
      </trkpt>
      <trkpt lat="43.38094" lon="-2.60039">
        <ele>97.6</ele>
        <time>2021-05-29 14:20:52</time>
      </trkpt>
      <trkpt lat="43.38094" lon="-2.60044">
        <ele>97.8</ele>
        <time>2021-05-29 14:20:53</time>
      </trkpt>
      <trkpt lat="43.38094" lon="-2.60049">
        <ele>98.2</ele>
        <time>2021-05-29 14:20:54</time>
      </trkpt>
      <trkpt lat="43.38095" lon="-2.60053">
        <ele>98.6</ele>
        <time>2021-05-29 14:20:55</time>
      </trkpt>
      <trkpt lat="43.38095" lon="-2.60058">
        <ele>99</ele>
        <time>2021-05-29 14:20:56</time>
      </trkpt>
      <trkpt lat="43.38095" lon="-2.60063">
        <ele>99.2</ele>
        <time>2021-05-29 14:20:57</time>
      </trkpt>
      <trkpt lat="43.38095" lon="-2.60068">
        <ele>99.4</ele>
        <time>2021-05-29 14:20:58</time>
      </trkpt>
      <trkpt lat="43.38095" lon="-2.60072">
        <ele>99.8</ele>
        <time>2021-05-29 14:20:59</time>
      </trkpt>
      <trkpt lat="43.38095" lon="-2.60077">
        <ele>100.2</ele>
        <time>2021-05-29 14:21:00</time>
      </trkpt>
      <trkpt lat="43.38096" lon="-2.60082">
        <ele>100.6</ele>
        <time>2021-05-29 14:21:01</time>
      </trkpt>
      <trkpt lat="43.38096" lon="-2.60086">
        <ele>100.8</ele>
        <time>2021-05-29 14:21:02</time>
      </trkpt>
      <trkpt lat="43.38096" lon="-2.60091">
        <ele>101</ele>
        <time>2021-05-29 14:21:03</time>
      </trkpt>
      <trkpt lat="43.38096" lon="-2.60095">
        <ele>101.2</ele>
        <time>2021-05-29 14:21:04</time>
      </trkpt>
      <trkpt lat="43.38096" lon="-2.601">
        <ele>101.4</ele>
        <time>2021-05-29 14:21:05</time>
      </trkpt>
      <trkpt lat="43.38096" lon="-2.60105">
        <ele>101.8</ele>
        <time>2021-05-29 14:21:06</time>
      </trkpt>
      <trkpt lat="43.38096" lon="-2.60109">
        <ele>102.2</ele>
        <time>2021-05-29 14:21:07</time>
      </trkpt>
      <trkpt lat="43.38096" lon="-2.60114">
        <ele>102.8</ele>
        <time>2021-05-29 14:21:08</time>
      </trkpt>
      <trkpt lat="43.38096" lon="-2.60119">
        <ele>103</ele>
        <time>2021-05-29 14:21:09</time>
      </trkpt>
      <trkpt lat="43.38096" lon="-2.60124">
        <ele>103.2</ele>
        <time>2021-05-29 14:21:10</time>
      </trkpt>
      <trkpt lat="43.38096" lon="-2.60128">
        <ele>103.4</ele>
        <time>2021-05-29 14:21:11</time>
      </trkpt>
      <trkpt lat="43.38096" lon="-2.60133">
        <ele>104</ele>
        <time>2021-05-29 14:21:12</time>
      </trkpt>
      <trkpt lat="43.38095" lon="-2.60138">
        <ele>104.4</ele>
        <time>2021-05-29 14:21:13</time>
      </trkpt>
      <trkpt lat="43.38095" lon="-2.60143">
        <ele>104.6</ele>
        <time>2021-05-29 14:21:14</time>
      </trkpt>
      <trkpt lat="43.38095" lon="-2.60147">
        <ele>104.8</ele>
        <time>2021-05-29 14:21:15</time>
      </trkpt>
      <trkpt lat="43.38095" lon="-2.60152">
        <ele>105</ele>
        <time>2021-05-29 14:21:16</time>
      </trkpt>
      <trkpt lat="43.38095" lon="-2.60156">
        <ele>105.4</ele>
        <time>2021-05-29 14:21:17</time>
      </trkpt>
      <trkpt lat="43.38095" lon="-2.60161">
        <ele>105.6</ele>
        <time>2021-05-29 14:21:18</time>
      </trkpt>
      <trkpt lat="43.38095" lon="-2.60166">
        <ele>106</ele>
        <time>2021-05-29 14:21:19</time>
      </trkpt>
      <trkpt lat="43.38094" lon="-2.60171">
        <ele>106.2</ele>
        <time>2021-05-29 14:21:20</time>
      </trkpt>
      <trkpt lat="43.38094" lon="-2.60176">
        <ele>106.8</ele>
        <time>2021-05-29 14:21:21</time>
      </trkpt>
      <trkpt lat="43.38094" lon="-2.6018">
        <ele>107.2</ele>
        <time>2021-05-29 14:21:22</time>
      </trkpt>
      <trkpt lat="43.38094" lon="-2.60185">
        <ele>107.4</ele>
        <time>2021-05-29 14:21:23</time>
      </trkpt>
      <trkpt lat="43.38094" lon="-2.6019">
        <ele>107.6</ele>
        <time>2021-05-29 14:21:24</time>
      </trkpt>
      <trkpt lat="43.38094" lon="-2.60194">
        <ele>107.8</ele>
        <time>2021-05-29 14:21:25</time>
      </trkpt>
      <trkpt lat="43.38094" lon="-2.60199">
        <ele>108</ele>
        <time>2021-05-29 14:21:26</time>
      </trkpt>
      <trkpt lat="43.38094" lon="-2.60204">
        <ele>108.2</ele>
        <time>2021-05-29 14:21:27</time>
      </trkpt>
      <trkpt lat="43.38093" lon="-2.60208">
        <ele>108.4</ele>
        <time>2021-05-29 14:21:28</time>
      </trkpt>
      <trkpt lat="43.38093" lon="-2.60213">
        <ele>108.8</ele>
        <time>2021-05-29 14:21:29</time>
      </trkpt>
      <trkpt lat="43.38093" lon="-2.60218">
        <ele>109</ele>
        <time>2021-05-29 14:21:30</time>
      </trkpt>
      <trkpt lat="43.38093" lon="-2.60223">
        <ele>109</ele>
        <time>2021-05-29 14:21:31</time>
      </trkpt>
      <trkpt lat="43.38093" lon="-2.60228">
        <ele>109.4</ele>
        <time>2021-05-29 14:21:32</time>
      </trkpt>
      <trkpt lat="43.38093" lon="-2.60233">
        <ele>109.6</ele>
        <time>2021-05-29 14:21:33</time>
      </trkpt>
      <trkpt lat="43.38093" lon="-2.60237">
        <ele>109.8</ele>
        <time>2021-05-29 14:21:34</time>
      </trkpt>
      <trkpt lat="43.38093" lon="-2.60242">
        <ele>110.2</ele>
        <time>2021-05-29 14:21:35</time>
      </trkpt>
      <trkpt lat="43.38093" lon="-2.60247">
        <ele>110.4</ele>
        <time>2021-05-29 14:21:36</time>
      </trkpt>
      <trkpt lat="43.38092" lon="-2.60252">
        <ele>110.8</ele>
        <time>2021-05-29 14:21:37</time>
      </trkpt>
      <trkpt lat="43.38092" lon="-2.60257">
        <ele>111.4</ele>
        <time>2021-05-29 14:21:38</time>
      </trkpt>
      <trkpt lat="43.38092" lon="-2.60261">
        <ele>111.8</ele>
        <time>2021-05-29 14:21:39</time>
      </trkpt>
      <trkpt lat="43.38092" lon="-2.60266">
        <ele>112</ele>
        <time>2021-05-29 14:21:40</time>
      </trkpt>
      <trkpt lat="43.38092" lon="-2.60271">
        <ele>112.2</ele>
        <time>2021-05-29 14:21:41</time>
      </trkpt>
      <trkpt lat="43.38092" lon="-2.60275">
        <ele>112.8</ele>
        <time>2021-05-29 14:21:42</time>
      </trkpt>
      <trkpt lat="43.38092" lon="-2.6028">
        <ele>113.2</ele>
        <time>2021-05-29 14:21:43</time>
      </trkpt>
      <trkpt lat="43.38092" lon="-2.60285">
        <ele>113.4</ele>
        <time>2021-05-29 14:21:44</time>
      </trkpt>
      <trkpt lat="43.38092" lon="-2.60289">
        <ele>113.8</ele>
        <time>2021-05-29 14:21:45</time>
      </trkpt>
      <trkpt lat="43.38092" lon="-2.60294">
        <ele>114.2</ele>
        <time>2021-05-29 14:21:46</time>
      </trkpt>
      <trkpt lat="43.38092" lon="-2.60299">
        <ele>114.4</ele>
        <time>2021-05-29 14:21:47</time>
      </trkpt>
      <trkpt lat="43.38092" lon="-2.60304">
        <ele>114.8</ele>
        <time>2021-05-29 14:21:48</time>
      </trkpt>
      <trkpt lat="43.38092" lon="-2.60308">
        <ele>115.2</ele>
        <time>2021-05-29 14:21:49</time>
      </trkpt>
      <trkpt lat="43.38092" lon="-2.60313">
        <ele>115.4</ele>
        <time>2021-05-29 14:21:50</time>
      </trkpt>
      <trkpt lat="43.38092" lon="-2.60318">
        <ele>115.6</ele>
        <time>2021-05-29 14:21:51</time>
      </trkpt>
      <trkpt lat="43.38092" lon="-2.60322">
        <ele>116</ele>
        <time>2021-05-29 14:21:52</time>
      </trkpt>
      <trkpt lat="43.38092" lon="-2.60327">
        <ele>116.2</ele>
        <time>2021-05-29 14:21:53</time>
      </trkpt>
      <trkpt lat="43.38092" lon="-2.60332">
        <ele>116.6</ele>
        <time>2021-05-29 14:21:54</time>
      </trkpt>
      <trkpt lat="43.38093" lon="-2.60337">
        <ele>116.8</ele>
        <time>2021-05-29 14:21:55</time>
      </trkpt>
      <trkpt lat="43.38093" lon="-2.60341">
        <ele>117</ele>
        <time>2021-05-29 14:21:56</time>
      </trkpt>
      <trkpt lat="43.38093" lon="-2.60346">
        <ele>117</ele>
        <time>2021-05-29 14:21:57</time>
      </trkpt>
      <trkpt lat="43.38093" lon="-2.60351">
        <ele>117.2</ele>
        <time>2021-05-29 14:21:58</time>
      </trkpt>
      <trkpt lat="43.38093" lon="-2.60355">
        <ele>117.6</ele>
        <time>2021-05-29 14:21:59</time>
      </trkpt>
      <trkpt lat="43.38094" lon="-2.6036">
        <ele>118</ele>
        <time>2021-05-29 14:22:00</time>
      </trkpt>
      <trkpt lat="43.38094" lon="-2.60365">
        <ele>118.2</ele>
        <time>2021-05-29 14:22:01</time>
      </trkpt>
      <trkpt lat="43.38094" lon="-2.6037">
        <ele>118.4</ele>
        <time>2021-05-29 14:22:02</time>
      </trkpt>
      <trkpt lat="43.38094" lon="-2.60374">
        <ele>118.6</ele>
        <time>2021-05-29 14:22:03</time>
      </trkpt>
      <trkpt lat="43.38094" lon="-2.60379">
        <ele>118.8</ele>
        <time>2021-05-29 14:22:04</time>
      </trkpt>
      <trkpt lat="43.38095" lon="-2.60384">
        <ele>119.2</ele>
        <time>2021-05-29 14:22:05</time>
      </trkpt>
      <trkpt lat="43.38095" lon="-2.60389">
        <ele>119.4</ele>
        <time>2021-05-29 14:22:06</time>
      </trkpt>
      <trkpt lat="43.38095" lon="-2.60393">
        <ele>119.6</ele>
        <time>2021-05-29 14:22:07</time>
      </trkpt>
      <trkpt lat="43.38095" lon="-2.60398">
        <ele>120.2</ele>
        <time>2021-05-29 14:22:08</time>
      </trkpt>
      <trkpt lat="43.38095" lon="-2.60402">
        <ele>120.6</ele>
        <time>2021-05-29 14:22:09</time>
      </trkpt>
      <trkpt lat="43.38095" lon="-2.60407">
        <ele>120.8</ele>
        <time>2021-05-29 14:22:10</time>
      </trkpt>
      <trkpt lat="43.38096" lon="-2.60412">
        <ele>121.2</ele>
        <time>2021-05-29 14:22:11</time>
      </trkpt>
      <trkpt lat="43.38096" lon="-2.60416">
        <ele>121.4</ele>
        <time>2021-05-29 14:22:12</time>
      </trkpt>
      <trkpt lat="43.38096" lon="-2.60421">
        <ele>121.6</ele>
        <time>2021-05-29 14:22:13</time>
      </trkpt>
      <trkpt lat="43.38096" lon="-2.60426">
        <ele>122</ele>
        <time>2021-05-29 14:22:14</time>
      </trkpt>
      <trkpt lat="43.38096" lon="-2.6043">
        <ele>122.4</ele>
        <time>2021-05-29 14:22:15</time>
      </trkpt>
      <trkpt lat="43.38096" lon="-2.60435">
        <ele>122.8</ele>
        <time>2021-05-29 14:22:16</time>
      </trkpt>
      <trkpt lat="43.38096" lon="-2.6044">
        <ele>123</ele>
        <time>2021-05-29 14:22:17</time>
      </trkpt>
      <trkpt lat="43.38097" lon="-2.60444">
        <ele>123.2</ele>
        <time>2021-05-29 14:22:18</time>
      </trkpt>
      <trkpt lat="43.38097" lon="-2.60449">
        <ele>123.4</ele>
        <time>2021-05-29 14:22:19</time>
      </trkpt>
      <trkpt lat="43.38097" lon="-2.60454">
        <ele>123.6</ele>
        <time>2021-05-29 14:22:20</time>
      </trkpt>
      <trkpt lat="43.38097" lon="-2.60458">
        <ele>124.2</ele>
        <time>2021-05-29 14:22:21</time>
      </trkpt>
      <trkpt lat="43.38097" lon="-2.60463">
        <ele>124.4</ele>
        <time>2021-05-29 14:22:22</time>
      </trkpt>
      <trkpt lat="43.38098" lon="-2.60467">
        <ele>124.8</ele>
        <time>2021-05-29 14:22:23</time>
      </trkpt>
      <trkpt lat="43.38098" lon="-2.60472">
        <ele>125</ele>
        <time>2021-05-29 14:22:24</time>
      </trkpt>
      <trkpt lat="43.38098" lon="-2.60477">
        <ele>125.4</ele>
        <time>2021-05-29 14:22:25</time>
      </trkpt>
      <trkpt lat="43.38098" lon="-2.60481">
        <ele>125.6</ele>
        <time>2021-05-29 14:22:26</time>
      </trkpt>
      <trkpt lat="43.38099" lon="-2.60486">
        <ele>125.8</ele>
        <time>2021-05-29 14:22:27</time>
      </trkpt>
      <trkpt lat="43.38099" lon="-2.6049">
        <ele>126</ele>
        <time>2021-05-29 14:22:28</time>
      </trkpt>
      <trkpt lat="43.38099" lon="-2.60495">
        <ele>126.6</ele>
        <time>2021-05-29 14:22:29</time>
      </trkpt>
      <trkpt lat="43.38099" lon="-2.605">
        <ele>127</ele>
        <time>2021-05-29 14:22:30</time>
      </trkpt>
      <trkpt lat="43.38099" lon="-2.60505">
        <ele>127</ele>
        <time>2021-05-29 14:22:31</time>
      </trkpt>
      <trkpt lat="43.38099" lon="-2.60509">
        <ele>127.4</ele>
        <time>2021-05-29 14:22:32</time>
      </trkpt>
      <trkpt lat="43.38099" lon="-2.60514">
        <ele>127.8</ele>
        <time>2021-05-29 14:22:33</time>
      </trkpt>
      <trkpt lat="43.38099" lon="-2.60519">
        <ele>128</ele>
        <time>2021-05-29 14:22:34</time>
      </trkpt>
      <trkpt lat="43.381" lon="-2.60524">
        <ele>128.2</ele>
        <time>2021-05-29 14:22:35</time>
      </trkpt>
      <trkpt lat="43.381" lon="-2.60529">
        <ele>128.6</ele>
        <time>2021-05-29 14:22:36</time>
      </trkpt>
      <trkpt lat="43.381" lon="-2.60533">
        <ele>128.8</ele>
        <time>2021-05-29 14:22:37</time>
      </trkpt>
      <trkpt lat="43.381" lon="-2.60538">
        <ele>129.2</ele>
        <time>2021-05-29 14:22:38</time>
      </trkpt>
      <trkpt lat="43.38101" lon="-2.60543">
        <ele>129.6</ele>
        <time>2021-05-29 14:22:39</time>
      </trkpt>
      <trkpt lat="43.38101" lon="-2.60548">
        <ele>129.8</ele>
        <time>2021-05-29 14:22:40</time>
      </trkpt>
      <trkpt lat="43.38101" lon="-2.60553">
        <ele>129.8</ele>
        <time>2021-05-29 14:22:41</time>
      </trkpt>
      <trkpt lat="43.38102" lon="-2.60558">
        <ele>130</ele>
        <time>2021-05-29 14:22:42</time>
      </trkpt>
      <trkpt lat="43.38102" lon="-2.60562">
        <ele>130.2</ele>
        <time>2021-05-29 14:22:43</time>
      </trkpt>
      <trkpt lat="43.38103" lon="-2.60567">
        <ele>130.6</ele>
        <time>2021-05-29 14:22:44</time>
      </trkpt>
      <trkpt lat="43.38103" lon="-2.60572">
        <ele>130.8</ele>
        <time>2021-05-29 14:22:45</time>
      </trkpt>
      <trkpt lat="43.38104" lon="-2.60576">
        <ele>131</ele>
        <time>2021-05-29 14:22:46</time>
      </trkpt>
      <trkpt lat="43.38104" lon="-2.60581">
        <ele>131</ele>
        <time>2021-05-29 14:22:47</time>
      </trkpt>
      <trkpt lat="43.38105" lon="-2.60586">
        <ele>131.4</ele>
        <time>2021-05-29 14:22:48</time>
      </trkpt>
      <trkpt lat="43.38106" lon="-2.6059">
        <ele>131.8</ele>
        <time>2021-05-29 14:22:49</time>
      </trkpt>
      <trkpt lat="43.38107" lon="-2.60595">
        <ele>132.2</ele>
        <time>2021-05-29 14:22:50</time>
      </trkpt>
      <trkpt lat="43.38107" lon="-2.606">
        <ele>132.6</ele>
        <time>2021-05-29 14:22:51</time>
      </trkpt>
      <trkpt lat="43.38108" lon="-2.60604">
        <ele>132.8</ele>
        <time>2021-05-29 14:22:52</time>
      </trkpt>
      <trkpt lat="43.38109" lon="-2.60609">
        <ele>133</ele>
        <time>2021-05-29 14:22:53</time>
      </trkpt>
      <trkpt lat="43.38109" lon="-2.60614">
        <ele>133.4</ele>
        <time>2021-05-29 14:22:54</time>
      </trkpt>
      <trkpt lat="43.3811" lon="-2.60618">
        <ele>134</ele>
        <time>2021-05-29 14:22:55</time>
      </trkpt>
      <trkpt lat="43.3811" lon="-2.60623">
        <ele>134.2</ele>
        <time>2021-05-29 14:22:56</time>
      </trkpt>
      <trkpt lat="43.38111" lon="-2.60627">
        <ele>134.4</ele>
        <time>2021-05-29 14:22:57</time>
      </trkpt>
      <trkpt lat="43.38112" lon="-2.60632">
        <ele>134.4</ele>
        <time>2021-05-29 14:22:58</time>
      </trkpt>
      <trkpt lat="43.38112" lon="-2.60637">
        <ele>134.8</ele>
        <time>2021-05-29 14:22:59</time>
      </trkpt>
      <trkpt lat="43.38113" lon="-2.60641">
        <ele>135.2</ele>
        <time>2021-05-29 14:23:00</time>
      </trkpt>
      <trkpt lat="43.38114" lon="-2.60646">
        <ele>135.4</ele>
        <time>2021-05-29 14:23:01</time>
      </trkpt>
      <trkpt lat="43.38114" lon="-2.60651">
        <ele>135.6</ele>
        <time>2021-05-29 14:23:02</time>
      </trkpt>
      <trkpt lat="43.38115" lon="-2.60655">
        <ele>135.8</ele>
        <time>2021-05-29 14:23:03</time>
      </trkpt>
      <trkpt lat="43.38116" lon="-2.6066">
        <ele>136.2</ele>
        <time>2021-05-29 14:23:04</time>
      </trkpt>
      <trkpt lat="43.38117" lon="-2.60665">
        <ele>136.6</ele>
        <time>2021-05-29 14:23:05</time>
      </trkpt>
      <trkpt lat="43.38118" lon="-2.60669">
        <ele>136.8</ele>
        <time>2021-05-29 14:23:06</time>
      </trkpt>
      <trkpt lat="43.38118" lon="-2.60674">
        <ele>137</ele>
        <time>2021-05-29 14:23:07</time>
      </trkpt>
      <trkpt lat="43.38119" lon="-2.60678">
        <ele>137.4</ele>
        <time>2021-05-29 14:23:08</time>
      </trkpt>
      <trkpt lat="43.3812" lon="-2.60683">
        <ele>137.6</ele>
        <time>2021-05-29 14:23:09</time>
      </trkpt>
      <trkpt lat="43.3812" lon="-2.60688">
        <ele>137.8</ele>
        <time>2021-05-29 14:23:10</time>
      </trkpt>
      <trkpt lat="43.38121" lon="-2.60692">
        <ele>138.4</ele>
        <time>2021-05-29 14:23:11</time>
      </trkpt>
      <trkpt lat="43.38122" lon="-2.60697">
        <ele>138.6</ele>
        <time>2021-05-29 14:23:12</time>
      </trkpt>
      <trkpt lat="43.38122" lon="-2.60701">
        <ele>138.8</ele>
        <time>2021-05-29 14:23:13</time>
      </trkpt>
      <trkpt lat="43.38123" lon="-2.60706">
        <ele>139</ele>
        <time>2021-05-29 14:23:14</time>
      </trkpt>
      <trkpt lat="43.38124" lon="-2.6071">
        <ele>139.2</ele>
        <time>2021-05-29 14:23:15</time>
      </trkpt>
      <trkpt lat="43.38125" lon="-2.60715">
        <ele>139.6</ele>
        <time>2021-05-29 14:23:16</time>
      </trkpt>
      <trkpt lat="43.38125" lon="-2.60719">
        <ele>139.8</ele>
        <time>2021-05-29 14:23:17</time>
      </trkpt>
      <trkpt lat="43.38126" lon="-2.60724">
        <ele>140</ele>
        <time>2021-05-29 14:23:18</time>
      </trkpt>
      <trkpt lat="43.38126" lon="-2.60728">
        <ele>140.2</ele>
        <time>2021-05-29 14:23:19</time>
      </trkpt>
      <trkpt lat="43.38127" lon="-2.60733">
        <ele>140.4</ele>
        <time>2021-05-29 14:23:20</time>
      </trkpt>
      <trkpt lat="43.38127" lon="-2.60737">
        <ele>140.6</ele>
        <time>2021-05-29 14:23:21</time>
      </trkpt>
      <trkpt lat="43.38128" lon="-2.60742">
        <ele>141</ele>
        <time>2021-05-29 14:23:22</time>
      </trkpt>
      <trkpt lat="43.38128" lon="-2.60746">
        <ele>141.4</ele>
        <time>2021-05-29 14:23:23</time>
      </trkpt>
      <trkpt lat="43.38129" lon="-2.60751">
        <ele>141.6</ele>
        <time>2021-05-29 14:23:24</time>
      </trkpt>
      <trkpt lat="43.3813" lon="-2.60756">
        <ele>141.8</ele>
        <time>2021-05-29 14:23:25</time>
      </trkpt>
      <trkpt lat="43.3813" lon="-2.6076">
        <ele>142.2</ele>
        <time>2021-05-29 14:23:26</time>
      </trkpt>
      <trkpt lat="43.38131" lon="-2.60765">
        <ele>142.4</ele>
        <time>2021-05-29 14:23:27</time>
      </trkpt>
      <trkpt lat="43.38131" lon="-2.60769">
        <ele>142.6</ele>
        <time>2021-05-29 14:23:28</time>
      </trkpt>
      <trkpt lat="43.38131" lon="-2.60774">
        <ele>143</ele>
        <time>2021-05-29 14:23:29</time>
      </trkpt>
      <trkpt lat="43.38132" lon="-2.60778">
        <ele>143.4</ele>
        <time>2021-05-29 14:23:30</time>
      </trkpt>
      <trkpt lat="43.38132" lon="-2.60783">
        <ele>143.6</ele>
        <time>2021-05-29 14:23:31</time>
      </trkpt>
      <trkpt lat="43.38132" lon="-2.60787">
        <ele>143.6</ele>
        <time>2021-05-29 14:23:32</time>
      </trkpt>
      <trkpt lat="43.38133" lon="-2.60792">
        <ele>144</ele>
        <time>2021-05-29 14:23:33</time>
      </trkpt>
      <trkpt lat="43.38133" lon="-2.60796">
        <ele>144.2</ele>
        <time>2021-05-29 14:23:34</time>
      </trkpt>
      <trkpt lat="43.38133" lon="-2.60801">
        <ele>144.6</ele>
        <time>2021-05-29 14:23:35</time>
      </trkpt>
      <trkpt lat="43.38133" lon="-2.60805">
        <ele>145</ele>
        <time>2021-05-29 14:23:36</time>
      </trkpt>
      <trkpt lat="43.38134" lon="-2.60809">
        <ele>145.4</ele>
        <time>2021-05-29 14:23:37</time>
      </trkpt>
      <trkpt lat="43.38134" lon="-2.60814">
        <ele>145.6</ele>
        <time>2021-05-29 14:23:38</time>
      </trkpt>
      <trkpt lat="43.38134" lon="-2.60818">
        <ele>145.8</ele>
        <time>2021-05-29 14:23:39</time>
      </trkpt>
      <trkpt lat="43.38133" lon="-2.60822">
        <ele>146</ele>
        <time>2021-05-29 14:23:40</time>
      </trkpt>
      <trkpt lat="43.38133" lon="-2.60826">
        <ele>146.4</ele>
        <time>2021-05-29 14:23:41</time>
      </trkpt>
      <trkpt lat="43.38133" lon="-2.60831">
        <ele>146.8</ele>
        <time>2021-05-29 14:23:42</time>
      </trkpt>
      <trkpt lat="43.38133" lon="-2.60835">
        <ele>147</ele>
        <time>2021-05-29 14:23:43</time>
      </trkpt>
      <trkpt lat="43.38133" lon="-2.6084">
        <ele>147.4</ele>
        <time>2021-05-29 14:23:44</time>
      </trkpt>
      <trkpt lat="43.38133" lon="-2.60844">
        <ele>147.8</ele>
        <time>2021-05-29 14:23:45</time>
      </trkpt>
      <trkpt lat="43.38132" lon="-2.60849">
        <ele>148</ele>
        <time>2021-05-29 14:23:46</time>
      </trkpt>
      <trkpt lat="43.38132" lon="-2.60853">
        <ele>148.4</ele>
        <time>2021-05-29 14:23:47</time>
      </trkpt>
      <trkpt lat="43.38132" lon="-2.60857">
        <ele>148.6</ele>
        <time>2021-05-29 14:23:48</time>
      </trkpt>
      <trkpt lat="43.38132" lon="-2.60862">
        <ele>148.8</ele>
        <time>2021-05-29 14:23:49</time>
      </trkpt>
      <trkpt lat="43.38131" lon="-2.60866">
        <ele>149.2</ele>
        <time>2021-05-29 14:23:50</time>
      </trkpt>
      <trkpt lat="43.38131" lon="-2.60871">
        <ele>149.4</ele>
        <time>2021-05-29 14:23:51</time>
      </trkpt>
      <trkpt lat="43.38131" lon="-2.60875">
        <ele>149.6</ele>
        <time>2021-05-29 14:23:52</time>
      </trkpt>
      <trkpt lat="43.38131" lon="-2.60879">
        <ele>150</ele>
        <time>2021-05-29 14:23:53</time>
      </trkpt>
      <trkpt lat="43.38131" lon="-2.60884">
        <ele>150.2</ele>
        <time>2021-05-29 14:23:54</time>
      </trkpt>
      <trkpt lat="43.3813" lon="-2.60888">
        <ele>150.6</ele>
        <time>2021-05-29 14:23:55</time>
      </trkpt>
      <trkpt lat="43.3813" lon="-2.60892">
        <ele>150.8</ele>
        <time>2021-05-29 14:23:56</time>
      </trkpt>
      <trkpt lat="43.3813" lon="-2.60896">
        <ele>151.4</ele>
        <time>2021-05-29 14:23:57</time>
      </trkpt>
      <trkpt lat="43.38131" lon="-2.609">
        <ele>151.6</ele>
        <time>2021-05-29 14:23:58</time>
      </trkpt>
      <trkpt lat="43.38131" lon="-2.60904">
        <ele>151.8</ele>
        <time>2021-05-29 14:23:59</time>
      </trkpt>
      <trkpt lat="43.38132" lon="-2.60908">
        <ele>152</ele>
        <time>2021-05-29 14:24:00</time>
      </trkpt>
      <trkpt lat="43.38133" lon="-2.60911">
        <ele>152.4</ele>
        <time>2021-05-29 14:24:01</time>
      </trkpt>
      <trkpt lat="43.38134" lon="-2.60914">
        <ele>152.6</ele>
        <time>2021-05-29 14:24:02</time>
      </trkpt>
      <trkpt lat="43.38134" lon="-2.60918">
        <ele>153</ele>
        <time>2021-05-29 14:24:03</time>
      </trkpt>
      <trkpt lat="43.38134" lon="-2.60922">
        <ele>153.6</ele>
        <time>2021-05-29 14:24:04</time>
      </trkpt>
      <trkpt lat="43.38134" lon="-2.60926">
        <ele>153.8</ele>
        <time>2021-05-29 14:24:05</time>
      </trkpt>
      <trkpt lat="43.38134" lon="-2.6093">
        <ele>154.2</ele>
        <time>2021-05-29 14:24:06</time>
      </trkpt>
      <trkpt lat="43.38134" lon="-2.60934">
        <ele>154.4</ele>
        <time>2021-05-29 14:24:07</time>
      </trkpt>
      <trkpt lat="43.38135" lon="-2.60938">
        <ele>154.8</ele>
        <time>2021-05-29 14:24:08</time>
      </trkpt>
      <trkpt lat="43.38136" lon="-2.60941">
        <ele>155.2</ele>
        <time>2021-05-29 14:24:09</time>
      </trkpt>
      <trkpt lat="43.38137" lon="-2.60946">
        <ele>155.4</ele>
        <time>2021-05-29 14:24:10</time>
      </trkpt>
      <trkpt lat="43.38137" lon="-2.6095">
        <ele>155.6</ele>
        <time>2021-05-29 14:24:11</time>
      </trkpt>
      <trkpt lat="43.38138" lon="-2.60953">
        <ele>156</ele>
        <time>2021-05-29 14:24:12</time>
      </trkpt>
      <trkpt lat="43.38138" lon="-2.60958">
        <ele>156.4</ele>
        <time>2021-05-29 14:24:13</time>
      </trkpt>
      <trkpt lat="43.38137" lon="-2.60964">
        <ele>156.8</ele>
        <time>2021-05-29 14:24:14</time>
      </trkpt>
      <trkpt lat="43.38137" lon="-2.60969">
        <ele>157</ele>
        <time>2021-05-29 14:24:15</time>
      </trkpt>
      <trkpt lat="43.38137" lon="-2.60974">
        <ele>157.2</ele>
        <time>2021-05-29 14:24:16</time>
      </trkpt>
      <trkpt lat="43.38137" lon="-2.60978">
        <ele>157.6</ele>
        <time>2021-05-29 14:24:17</time>
      </trkpt>
      <trkpt lat="43.38138" lon="-2.60982">
        <ele>157.8</ele>
        <time>2021-05-29 14:24:18</time>
      </trkpt>
      <trkpt lat="43.38137" lon="-2.60988">
        <ele>158.4</ele>
        <time>2021-05-29 14:24:19</time>
      </trkpt>
      <trkpt lat="43.38137" lon="-2.60993">
        <ele>158.6</ele>
        <time>2021-05-29 14:24:20</time>
      </trkpt>
      <trkpt lat="43.38137" lon="-2.60998">
        <ele>159</ele>
        <time>2021-05-29 14:24:21</time>
      </trkpt>
      <trkpt lat="43.38136" lon="-2.61003">
        <ele>159.4</ele>
        <time>2021-05-29 14:24:22</time>
      </trkpt>
      <trkpt lat="43.38136" lon="-2.61008">
        <ele>159.6</ele>
        <time>2021-05-29 14:24:23</time>
      </trkpt>
      <trkpt lat="43.38136" lon="-2.61013">
        <ele>159.8</ele>
        <time>2021-05-29 14:24:24</time>
      </trkpt>
      <trkpt lat="43.38136" lon="-2.61018">
        <ele>160.2</ele>
        <time>2021-05-29 14:24:25</time>
      </trkpt>
      <trkpt lat="43.38135" lon="-2.61023">
        <ele>160.6</ele>
        <time>2021-05-29 14:24:26</time>
      </trkpt>
      <trkpt lat="43.38134" lon="-2.61029">
        <ele>160.8</ele>
        <time>2021-05-29 14:24:27</time>
      </trkpt>
      <trkpt lat="43.38133" lon="-2.61033">
        <ele>161.2</ele>
        <time>2021-05-29 14:24:28</time>
      </trkpt>
      <trkpt lat="43.38133" lon="-2.61038">
        <ele>161.4</ele>
        <time>2021-05-29 14:24:29</time>
      </trkpt>
      <trkpt lat="43.38133" lon="-2.61043">
        <ele>161.6</ele>
        <time>2021-05-29 14:24:30</time>
      </trkpt>
      <trkpt lat="43.38132" lon="-2.61047">
        <ele>162</ele>
        <time>2021-05-29 14:24:31</time>
      </trkpt>
      <trkpt lat="43.38132" lon="-2.61052">
        <ele>162.4</ele>
        <time>2021-05-29 14:24:32</time>
      </trkpt>
      <trkpt lat="43.38131" lon="-2.61057">
        <ele>162.8</ele>
        <time>2021-05-29 14:24:33</time>
      </trkpt>
      <trkpt lat="43.38131" lon="-2.61062">
        <ele>163.2</ele>
        <time>2021-05-29 14:24:34</time>
      </trkpt>
      <trkpt lat="43.38131" lon="-2.61066">
        <ele>163.4</ele>
        <time>2021-05-29 14:24:35</time>
      </trkpt>
      <trkpt lat="43.3813" lon="-2.61071">
        <ele>163.6</ele>
        <time>2021-05-29 14:24:36</time>
      </trkpt>
      <trkpt lat="43.3813" lon="-2.61076">
        <ele>164</ele>
        <time>2021-05-29 14:24:37</time>
      </trkpt>
      <trkpt lat="43.38129" lon="-2.61081">
        <ele>164.8</ele>
        <time>2021-05-29 14:24:38</time>
      </trkpt>
      <trkpt lat="43.38128" lon="-2.61086">
        <ele>165.2</ele>
        <time>2021-05-29 14:24:39</time>
      </trkpt>
      <trkpt lat="43.38128" lon="-2.61091">
        <ele>165.6</ele>
        <time>2021-05-29 14:24:40</time>
      </trkpt>
      <trkpt lat="43.38127" lon="-2.61095">
        <ele>166</ele>
        <time>2021-05-29 14:24:41</time>
      </trkpt>
      <trkpt lat="43.38127" lon="-2.611">
        <ele>166.4</ele>
        <time>2021-05-29 14:24:42</time>
      </trkpt>
      <trkpt lat="43.38127" lon="-2.61105">
        <ele>166.6</ele>
        <time>2021-05-29 14:24:43</time>
      </trkpt>
      <trkpt lat="43.38127" lon="-2.6111">
        <ele>166.8</ele>
        <time>2021-05-29 14:24:44</time>
      </trkpt>
      <trkpt lat="43.38126" lon="-2.61114">
        <ele>167.2</ele>
        <time>2021-05-29 14:24:45</time>
      </trkpt>
      <trkpt lat="43.38126" lon="-2.61119">
        <ele>167.4</ele>
        <time>2021-05-29 14:24:46</time>
      </trkpt>
      <trkpt lat="43.38126" lon="-2.61124">
        <ele>167.8</ele>
        <time>2021-05-29 14:24:47</time>
      </trkpt>
      <trkpt lat="43.38125" lon="-2.61128">
        <ele>168</ele>
        <time>2021-05-29 14:24:48</time>
      </trkpt>
      <trkpt lat="43.38125" lon="-2.61132">
        <ele>168.4</ele>
        <time>2021-05-29 14:24:49</time>
      </trkpt>
      <trkpt lat="43.38125" lon="-2.61137">
        <ele>168.6</ele>
        <time>2021-05-29 14:24:50</time>
      </trkpt>
      <trkpt lat="43.38125" lon="-2.61141">
        <ele>169</ele>
        <time>2021-05-29 14:24:51</time>
      </trkpt>
      <trkpt lat="43.38124" lon="-2.61146">
        <ele>169.4</ele>
        <time>2021-05-29 14:24:52</time>
      </trkpt>
      <trkpt lat="43.38124" lon="-2.6115">
        <ele>169.8</ele>
        <time>2021-05-29 14:24:53</time>
      </trkpt>
      <trkpt lat="43.38124" lon="-2.61155">
        <ele>170</ele>
        <time>2021-05-29 14:24:54</time>
      </trkpt>
      <trkpt lat="43.38123" lon="-2.61159">
        <ele>170.4</ele>
        <time>2021-05-29 14:24:55</time>
      </trkpt>
      <trkpt lat="43.38123" lon="-2.61164">
        <ele>170.6</ele>
        <time>2021-05-29 14:24:56</time>
      </trkpt>
      <trkpt lat="43.38123" lon="-2.61169">
        <ele>171</ele>
        <time>2021-05-29 14:24:57</time>
      </trkpt>
      <trkpt lat="43.38122" lon="-2.61173">
        <ele>171.2</ele>
        <time>2021-05-29 14:24:58</time>
      </trkpt>
      <trkpt lat="43.38122" lon="-2.61178">
        <ele>171.6</ele>
        <time>2021-05-29 14:24:59</time>
      </trkpt>
      <trkpt lat="43.38122" lon="-2.61183">
        <ele>171.8</ele>
        <time>2021-05-29 14:25:00</time>
      </trkpt>
      <trkpt lat="43.38122" lon="-2.61187">
        <ele>172.2</ele>
        <time>2021-05-29 14:25:01</time>
      </trkpt>
      <trkpt lat="43.38122" lon="-2.61192">
        <ele>172.4</ele>
        <time>2021-05-29 14:25:02</time>
      </trkpt>
      <trkpt lat="43.38122" lon="-2.61196">
        <ele>172.8</ele>
        <time>2021-05-29 14:25:03</time>
      </trkpt>
      <trkpt lat="43.38121" lon="-2.61201">
        <ele>173</ele>
        <time>2021-05-29 14:25:04</time>
      </trkpt>
      <trkpt lat="43.38121" lon="-2.61206">
        <ele>173.4</ele>
        <time>2021-05-29 14:25:05</time>
      </trkpt>
      <trkpt lat="43.38121" lon="-2.61211">
        <ele>173.8</ele>
        <time>2021-05-29 14:25:06</time>
      </trkpt>
      <trkpt lat="43.3812" lon="-2.61216">
        <ele>174</ele>
        <time>2021-05-29 14:25:07</time>
      </trkpt>
      <trkpt lat="43.3812" lon="-2.61221">
        <ele>174.4</ele>
        <time>2021-05-29 14:25:08</time>
      </trkpt>
      <trkpt lat="43.3812" lon="-2.61226">
        <ele>174.8</ele>
        <time>2021-05-29 14:25:09</time>
      </trkpt>
      <trkpt lat="43.38119" lon="-2.61231">
        <ele>175.2</ele>
        <time>2021-05-29 14:25:10</time>
      </trkpt>
      <trkpt lat="43.38118" lon="-2.61236">
        <ele>175.4</ele>
        <time>2021-05-29 14:25:11</time>
      </trkpt>
      <trkpt lat="43.38118" lon="-2.61242">
        <ele>175.8</ele>
        <time>2021-05-29 14:25:12</time>
      </trkpt>
      <trkpt lat="43.38117" lon="-2.61247">
        <ele>176.4</ele>
        <time>2021-05-29 14:25:13</time>
      </trkpt>
      <trkpt lat="43.38117" lon="-2.61252">
        <ele>176.6</ele>
        <time>2021-05-29 14:25:14</time>
      </trkpt>
      <trkpt lat="43.38116" lon="-2.61258">
        <ele>176.8</ele>
        <time>2021-05-29 14:25:15</time>
      </trkpt>
      <trkpt lat="43.38116" lon="-2.61263">
        <ele>177</ele>
        <time>2021-05-29 14:25:16</time>
      </trkpt>
      <trkpt lat="43.38116" lon="-2.61268">
        <ele>177.4</ele>
        <time>2021-05-29 14:25:17</time>
      </trkpt>
      <trkpt lat="43.38116" lon="-2.61273">
        <ele>177.8</ele>
        <time>2021-05-29 14:25:18</time>
      </trkpt>
      <trkpt lat="43.38115" lon="-2.61278">
        <ele>178</ele>
        <time>2021-05-29 14:25:19</time>
      </trkpt>
      <trkpt lat="43.38115" lon="-2.61282">
        <ele>178.4</ele>
        <time>2021-05-29 14:25:20</time>
      </trkpt>
      <trkpt lat="43.38114" lon="-2.61287">
        <ele>178.8</ele>
        <time>2021-05-29 14:25:21</time>
      </trkpt>
      <trkpt lat="43.38114" lon="-2.61292">
        <ele>179</ele>
        <time>2021-05-29 14:25:22</time>
      </trkpt>
      <trkpt lat="43.38113" lon="-2.61298">
        <ele>179.4</ele>
        <time>2021-05-29 14:25:23</time>
      </trkpt>
      <trkpt lat="43.38112" lon="-2.61303">
        <ele>179.6</ele>
        <time>2021-05-29 14:25:24</time>
      </trkpt>
      <trkpt lat="43.38111" lon="-2.61308">
        <ele>180</ele>
        <time>2021-05-29 14:25:25</time>
      </trkpt>
      <trkpt lat="43.3811" lon="-2.61314">
        <ele>180.2</ele>
        <time>2021-05-29 14:25:26</time>
      </trkpt>
      <trkpt lat="43.38109" lon="-2.61319">
        <ele>180.6</ele>
        <time>2021-05-29 14:25:27</time>
      </trkpt>
      <trkpt lat="43.38108" lon="-2.61325">
        <ele>181</ele>
        <time>2021-05-29 14:25:28</time>
      </trkpt>
      <trkpt lat="43.38108" lon="-2.6133">
        <ele>181</ele>
        <time>2021-05-29 14:25:29</time>
      </trkpt>
      <trkpt lat="43.38108" lon="-2.61336">
        <ele>181.4</ele>
        <time>2021-05-29 14:25:30</time>
      </trkpt>
      <trkpt lat="43.38108" lon="-2.61341">
        <ele>181.8</ele>
        <time>2021-05-29 14:25:31</time>
      </trkpt>
      <trkpt lat="43.38109" lon="-2.61347">
        <ele>182</ele>
        <time>2021-05-29 14:25:32</time>
      </trkpt>
      <trkpt lat="43.38109" lon="-2.61352">
        <ele>182.4</ele>
        <time>2021-05-29 14:25:33</time>
      </trkpt>
      <trkpt lat="43.3811" lon="-2.61356">
        <ele>182.8</ele>
        <time>2021-05-29 14:25:34</time>
      </trkpt>
      <trkpt lat="43.38111" lon="-2.61361">
        <ele>183.4</ele>
        <time>2021-05-29 14:25:35</time>
      </trkpt>
      <trkpt lat="43.38112" lon="-2.61367">
        <ele>183.8</ele>
        <time>2021-05-29 14:25:36</time>
      </trkpt>
      <trkpt lat="43.38113" lon="-2.61372">
        <ele>183.8</ele>
        <time>2021-05-29 14:25:37</time>
      </trkpt>
      <trkpt lat="43.38114" lon="-2.61378">
        <ele>184</ele>
        <time>2021-05-29 14:25:38</time>
      </trkpt>
      <trkpt lat="43.38114" lon="-2.61384">
        <ele>184</ele>
        <time>2021-05-29 14:25:39</time>
      </trkpt>
      <trkpt lat="43.38114" lon="-2.6139">
        <ele>184</ele>
        <time>2021-05-29 14:25:40</time>
      </trkpt>
      <trkpt lat="43.38114" lon="-2.61397">
        <ele>184</ele>
        <time>2021-05-29 14:25:41</time>
      </trkpt>
      <trkpt lat="43.38114" lon="-2.61404">
        <ele>184</ele>
        <time>2021-05-29 14:25:42</time>
      </trkpt>
      <trkpt lat="43.38114" lon="-2.61412">
        <ele>184</ele>
        <time>2021-05-29 14:25:43</time>
      </trkpt>
      <trkpt lat="43.38114" lon="-2.6142">
        <ele>184</ele>
        <time>2021-05-29 14:25:44</time>
      </trkpt>
      <trkpt lat="43.38114" lon="-2.61428">
        <ele>184</ele>
        <time>2021-05-29 14:25:45</time>
      </trkpt>
      <trkpt lat="43.38114" lon="-2.61437">
        <ele>184</ele>
        <time>2021-05-29 14:25:46</time>
      </trkpt>
      <trkpt lat="43.38114" lon="-2.61446">
        <ele>184</ele>
        <time>2021-05-29 14:25:47</time>
      </trkpt>
      <trkpt lat="43.38114" lon="-2.61455">
        <ele>183.8</ele>
        <time>2021-05-29 14:25:48</time>
      </trkpt>
      <trkpt lat="43.38114" lon="-2.61465">
        <ele>183.6</ele>
        <time>2021-05-29 14:25:49</time>
      </trkpt>
      <trkpt lat="43.38114" lon="-2.61475">
        <ele>183.4</ele>
        <time>2021-05-29 14:25:50</time>
      </trkpt>
      <trkpt lat="43.38114" lon="-2.61485">
        <ele>183.2</ele>
        <time>2021-05-29 14:25:51</time>
      </trkpt>
      <trkpt lat="43.38115" lon="-2.61496">
        <ele>183</ele>
        <time>2021-05-29 14:25:52</time>
      </trkpt>
      <trkpt lat="43.38115" lon="-2.61508">
        <ele>182.6</ele>
        <time>2021-05-29 14:25:53</time>
      </trkpt>
      <trkpt lat="43.38116" lon="-2.6152">
        <ele>182.2</ele>
        <time>2021-05-29 14:25:54</time>
      </trkpt>
      <trkpt lat="43.38117" lon="-2.61532">
        <ele>181.8</ele>
        <time>2021-05-29 14:25:55</time>
      </trkpt>
      <trkpt lat="43.38119" lon="-2.61545">
        <ele>181.4</ele>
        <time>2021-05-29 14:25:56</time>
      </trkpt>
      <trkpt lat="43.38121" lon="-2.61558">
        <ele>181</ele>
        <time>2021-05-29 14:25:57</time>
      </trkpt>
      <trkpt lat="43.38124" lon="-2.61572">
        <ele>180.6</ele>
        <time>2021-05-29 14:25:58</time>
      </trkpt>
      <trkpt lat="43.38128" lon="-2.61584">
        <ele>180.2</ele>
        <time>2021-05-29 14:25:59</time>
      </trkpt>
      <trkpt lat="43.38132" lon="-2.61597">
        <ele>179.8</ele>
        <time>2021-05-29 14:26:00</time>
      </trkpt>
      <trkpt lat="43.38137" lon="-2.61611">
        <ele>179.4</ele>
        <time>2021-05-29 14:26:01</time>
      </trkpt>
      <trkpt lat="43.38141" lon="-2.61624">
        <ele>179</ele>
        <time>2021-05-29 14:26:02</time>
      </trkpt>
      <trkpt lat="43.38148" lon="-2.61637">
        <ele>178.6</ele>
        <time>2021-05-29 14:26:03</time>
      </trkpt>
      <trkpt lat="43.38155" lon="-2.61649">
        <ele>178</ele>
        <time>2021-05-29 14:26:04</time>
      </trkpt>
      <trkpt lat="43.38165" lon="-2.61659">
        <ele>177.6</ele>
        <time>2021-05-29 14:26:05</time>
      </trkpt>
      <trkpt lat="43.38175" lon="-2.61668">
        <ele>177.2</ele>
        <time>2021-05-29 14:26:06</time>
      </trkpt>
      <trkpt lat="43.38185" lon="-2.61676">
        <ele>176.4</ele>
        <time>2021-05-29 14:26:07</time>
      </trkpt>
      <trkpt lat="43.38195" lon="-2.61684">
        <ele>175.4</ele>
        <time>2021-05-29 14:26:08</time>
      </trkpt>
      <trkpt lat="43.38205" lon="-2.61694">
        <ele>174.2</ele>
        <time>2021-05-29 14:26:09</time>
      </trkpt>
      <trkpt lat="43.38215" lon="-2.61703">
        <ele>173.2</ele>
        <time>2021-05-29 14:26:10</time>
      </trkpt>
      <trkpt lat="43.38224" lon="-2.61715">
        <ele>172.6</ele>
        <time>2021-05-29 14:26:11</time>
      </trkpt>
      <trkpt lat="43.38231" lon="-2.61727">
        <ele>171.8</ele>
        <time>2021-05-29 14:26:12</time>
      </trkpt>
      <trkpt lat="43.38238" lon="-2.61739">
        <ele>171</ele>
        <time>2021-05-29 14:26:13</time>
      </trkpt>
      <trkpt lat="43.38243" lon="-2.61752">
        <ele>170.2</ele>
        <time>2021-05-29 14:26:14</time>
      </trkpt>
      <trkpt lat="43.38247" lon="-2.61765">
        <ele>169.4</ele>
        <time>2021-05-29 14:26:15</time>
      </trkpt>
      <trkpt lat="43.3825" lon="-2.61778">
        <ele>168.4</ele>
        <time>2021-05-29 14:26:16</time>
      </trkpt>
      <trkpt lat="43.38252" lon="-2.61791">
        <ele>167.4</ele>
        <time>2021-05-29 14:26:17</time>
      </trkpt>
      <trkpt lat="43.38253" lon="-2.61803">
        <ele>166.6</ele>
        <time>2021-05-29 14:26:18</time>
      </trkpt>
      <trkpt lat="43.38254" lon="-2.61815">
        <ele>166</ele>
        <time>2021-05-29 14:26:19</time>
      </trkpt>
      <trkpt lat="43.38253" lon="-2.61826">
        <ele>165.6</ele>
        <time>2021-05-29 14:26:20</time>
      </trkpt>
      <trkpt lat="43.38252" lon="-2.61837">
        <ele>165.4</ele>
        <time>2021-05-29 14:26:21</time>
      </trkpt>
      <trkpt lat="43.3825" lon="-2.61848">
        <ele>165.2</ele>
        <time>2021-05-29 14:26:22</time>
      </trkpt>
      <trkpt lat="43.38248" lon="-2.61858">
        <ele>165.2</ele>
        <time>2021-05-29 14:26:23</time>
      </trkpt>
      <trkpt lat="43.38245" lon="-2.61869">
        <ele>165.2</ele>
        <time>2021-05-29 14:26:24</time>
      </trkpt>
      <trkpt lat="43.38242" lon="-2.61879">
        <ele>165.2</ele>
        <time>2021-05-29 14:26:25</time>
      </trkpt>
      <trkpt lat="43.38239" lon="-2.61889">
        <ele>165.2</ele>
        <time>2021-05-29 14:26:26</time>
      </trkpt>
      <trkpt lat="43.38235" lon="-2.619">
        <ele>165.2</ele>
        <time>2021-05-29 14:26:27</time>
      </trkpt>
      <trkpt lat="43.38231" lon="-2.6191">
        <ele>165.2</ele>
        <time>2021-05-29 14:26:28</time>
      </trkpt>
      <trkpt lat="43.38228" lon="-2.61919">
        <ele>165.2</ele>
        <time>2021-05-29 14:26:29</time>
      </trkpt>
      <trkpt lat="43.38225" lon="-2.61929">
        <ele>165.2</ele>
        <time>2021-05-29 14:26:30</time>
      </trkpt>
      <trkpt lat="43.38222" lon="-2.61938">
        <ele>165.4</ele>
        <time>2021-05-29 14:26:31</time>
      </trkpt>
      <trkpt lat="43.38221" lon="-2.61948">
        <ele>165.6</ele>
        <time>2021-05-29 14:26:32</time>
      </trkpt>
      <trkpt lat="43.38219" lon="-2.61958">
        <ele>166</ele>
        <time>2021-05-29 14:26:33</time>
      </trkpt>
      <trkpt lat="43.38219" lon="-2.61967">
        <ele>166.2</ele>
        <time>2021-05-29 14:26:34</time>
      </trkpt>
      <trkpt lat="43.38219" lon="-2.61977">
        <ele>166.4</ele>
        <time>2021-05-29 14:26:35</time>
      </trkpt>
      <trkpt lat="43.38219" lon="-2.61986">
        <ele>166.6</ele>
        <time>2021-05-29 14:26:36</time>
      </trkpt>
      <trkpt lat="43.3822" lon="-2.61995">
        <ele>166.8</ele>
        <time>2021-05-29 14:26:37</time>
      </trkpt>
      <trkpt lat="43.38221" lon="-2.62004">
        <ele>167.2</ele>
        <time>2021-05-29 14:26:38</time>
      </trkpt>
      <trkpt lat="43.38223" lon="-2.62013">
        <ele>167.6</ele>
        <time>2021-05-29 14:26:39</time>
      </trkpt>
      <trkpt lat="43.38225" lon="-2.62022">
        <ele>167.6</ele>
        <time>2021-05-29 14:26:40</time>
      </trkpt>
      <trkpt lat="43.38226" lon="-2.6203">
        <ele>168</ele>
        <time>2021-05-29 14:26:41</time>
      </trkpt>
      <trkpt lat="43.38228" lon="-2.62039">
        <ele>168.4</ele>
        <time>2021-05-29 14:26:42</time>
      </trkpt>
      <trkpt lat="43.3823" lon="-2.62047">
        <ele>168.8</ele>
        <time>2021-05-29 14:26:43</time>
      </trkpt>
      <trkpt lat="43.38231" lon="-2.62055">
        <ele>169.2</ele>
        <time>2021-05-29 14:26:44</time>
      </trkpt>
      <trkpt lat="43.38233" lon="-2.62063">
        <ele>169.6</ele>
        <time>2021-05-29 14:26:45</time>
      </trkpt>
      <trkpt lat="43.38235" lon="-2.62071">
        <ele>169.8</ele>
        <time>2021-05-29 14:26:46</time>
      </trkpt>
      <trkpt lat="43.38237" lon="-2.62079">
        <ele>170</ele>
        <time>2021-05-29 14:26:47</time>
      </trkpt>
      <trkpt lat="43.38238" lon="-2.62087">
        <ele>170.2</ele>
        <time>2021-05-29 14:26:48</time>
      </trkpt>
      <trkpt lat="43.3824" lon="-2.62095">
        <ele>170.4</ele>
        <time>2021-05-29 14:26:49</time>
      </trkpt>
      <trkpt lat="43.38243" lon="-2.62102">
        <ele>170.6</ele>
        <time>2021-05-29 14:26:50</time>
      </trkpt>
      <trkpt lat="43.38245" lon="-2.62109">
        <ele>170.8</ele>
        <time>2021-05-29 14:26:51</time>
      </trkpt>
      <trkpt lat="43.38247" lon="-2.62117">
        <ele>171.2</ele>
        <time>2021-05-29 14:26:52</time>
      </trkpt>
      <trkpt lat="43.38249" lon="-2.62124">
        <ele>171.2</ele>
        <time>2021-05-29 14:26:53</time>
      </trkpt>
      <trkpt lat="43.38252" lon="-2.62131">
        <ele>171.4</ele>
        <time>2021-05-29 14:26:54</time>
      </trkpt>
      <trkpt lat="43.38254" lon="-2.62137">
        <ele>171.4</ele>
        <time>2021-05-29 14:26:55</time>
      </trkpt>
      <trkpt lat="43.38256" lon="-2.62144">
        <ele>171.6</ele>
        <time>2021-05-29 14:26:56</time>
      </trkpt>
      <trkpt lat="43.38259" lon="-2.62151">
        <ele>172</ele>
        <time>2021-05-29 14:26:57</time>
      </trkpt>
      <trkpt lat="43.38261" lon="-2.62157">
        <ele>172.4</ele>
        <time>2021-05-29 14:26:58</time>
      </trkpt>
      <trkpt lat="43.38263" lon="-2.62163">
        <ele>172.4</ele>
        <time>2021-05-29 14:26:59</time>
      </trkpt>
      <trkpt lat="43.38265" lon="-2.6217">
        <ele>172.6</ele>
        <time>2021-05-29 14:27:00</time>
      </trkpt>
      <trkpt lat="43.38267" lon="-2.62176">
        <ele>172.8</ele>
        <time>2021-05-29 14:27:01</time>
      </trkpt>
      <trkpt lat="43.38268" lon="-2.62182">
        <ele>173</ele>
        <time>2021-05-29 14:27:02</time>
      </trkpt>
      <trkpt lat="43.3827" lon="-2.62187">
        <ele>173</ele>
        <time>2021-05-29 14:27:03</time>
      </trkpt>
      <trkpt lat="43.38272" lon="-2.62192">
        <ele>173.2</ele>
        <time>2021-05-29 14:27:04</time>
      </trkpt>
      <trkpt lat="43.38273" lon="-2.62197">
        <ele>173.4</ele>
        <time>2021-05-29 14:27:05</time>
      </trkpt>
      <trkpt lat="43.38275" lon="-2.62201">
        <ele>173.6</ele>
        <time>2021-05-29 14:27:06</time>
      </trkpt>
      <trkpt lat="43.38276" lon="-2.62206">
        <ele>173.8</ele>
        <time>2021-05-29 14:27:07</time>
      </trkpt>
      <trkpt lat="43.38277" lon="-2.6221">
        <ele>173.8</ele>
        <time>2021-05-29 14:27:08</time>
      </trkpt>
      <trkpt lat="43.38278" lon="-2.62214">
        <ele>174</ele>
        <time>2021-05-29 14:27:09</time>
      </trkpt>
      <trkpt lat="43.38278" lon="-2.62217">
        <ele>174.2</ele>
        <time>2021-05-29 14:27:10</time>
      </trkpt>
      <trkpt lat="43.38279" lon="-2.6222">
        <ele>174.4</ele>
        <time>2021-05-29 14:27:11</time>
      </trkpt>
      <trkpt lat="43.38279" lon="-2.62223">
        <ele>174.4</ele>
        <time>2021-05-29 14:27:12</time>
      </trkpt>
      <trkpt lat="43.38279" lon="-2.62225">
        <ele>174.4</ele>
        <time>2021-05-29 14:27:13</time>
      </trkpt>
      <trkpt lat="43.38279" lon="-2.62227">
        <ele>174.6</ele>
        <time>2021-05-29 14:27:14</time>
      </trkpt>
      <trkpt lat="43.38279" lon="-2.62229">
        <ele>174.8</ele>
        <time>2021-05-29 14:27:15</time>
      </trkpt>
      <trkpt lat="43.38279" lon="-2.62231">
        <ele>174.8</ele>
        <time>2021-05-29 14:27:16</time>
      </trkpt>
      <trkpt lat="43.38279" lon="-2.62232">
        <ele>175</ele>
        <time>2021-05-29 14:27:17</time>
      </trkpt>
      <trkpt lat="43.3828" lon="-2.62233">
        <ele>175</ele>
        <time>2021-05-29 14:27:18</time>
      </trkpt>
      <trkpt lat="43.3828" lon="-2.62233">
        <ele>175.2</ele>
        <time>2021-05-29 14:27:19</time>
      </trkpt>
      <trkpt lat="43.3828" lon="-2.62233">
        <ele>175.2</ele>
        <time>2021-05-29 14:27:20</time>
      </trkpt>
      <trkpt lat="43.38275" lon="-2.62236">
        <ele>175.6</ele>
        <time>2021-05-29 14:27:21</time>
      </trkpt>
      <trkpt lat="43.38273" lon="-2.62238">
        <ele>175.6</ele>
        <time>2021-05-29 14:27:22</time>
      </trkpt>
      <trkpt lat="43.38272" lon="-2.62241">
        <ele>175.6</ele>
        <time>2021-05-29 14:27:23</time>
      </trkpt>
      <trkpt lat="43.3827" lon="-2.62244">
        <ele>175.6</ele>
        <time>2021-05-29 14:27:24</time>
      </trkpt>
      <trkpt lat="43.38269" lon="-2.62248">
        <ele>175.6</ele>
        <time>2021-05-29 14:27:25</time>
      </trkpt>
      <trkpt lat="43.38267" lon="-2.62252">
        <ele>175.2</ele>
        <time>2021-05-29 14:27:26</time>
      </trkpt>
      <trkpt lat="43.38266" lon="-2.62256">
        <ele>175.2</ele>
        <time>2021-05-29 14:27:27</time>
      </trkpt>
      <trkpt lat="43.38263" lon="-2.6226">
        <ele>175.2</ele>
        <time>2021-05-29 14:27:28</time>
      </trkpt>
      <trkpt lat="43.3826" lon="-2.62265">
        <ele>175.2</ele>
        <time>2021-05-29 14:27:29</time>
      </trkpt>
      <trkpt lat="43.38257" lon="-2.6227">
        <ele>175.2</ele>
        <time>2021-05-29 14:27:30</time>
      </trkpt>
      <trkpt lat="43.38253" lon="-2.62275">
        <ele>175.2</ele>
        <time>2021-05-29 14:27:31</time>
      </trkpt>
      <trkpt lat="43.3825" lon="-2.62281">
        <ele>175.2</ele>
        <time>2021-05-29 14:27:32</time>
      </trkpt>
      <trkpt lat="43.38246" lon="-2.62286">
        <ele>175.2</ele>
        <time>2021-05-29 14:27:33</time>
      </trkpt>
      <trkpt lat="43.38243" lon="-2.62292">
        <ele>175.6</ele>
        <time>2021-05-29 14:27:34</time>
      </trkpt>
      <trkpt lat="43.38239" lon="-2.62298">
        <ele>175.6</ele>
        <time>2021-05-29 14:27:35</time>
      </trkpt>
      <trkpt lat="43.38235" lon="-2.62304">
        <ele>175.6</ele>
        <time>2021-05-29 14:27:36</time>
      </trkpt>
      <trkpt lat="43.38231" lon="-2.6231">
        <ele>175.6</ele>
        <time>2021-05-29 14:27:37</time>
      </trkpt>
      <trkpt lat="43.38227" lon="-2.62317">
        <ele>175.6</ele>
        <time>2021-05-29 14:27:38</time>
      </trkpt>
      <trkpt lat="43.38223" lon="-2.62324">
        <ele>175.6</ele>
        <time>2021-05-29 14:31:50</time>
      </trkpt>
      <trkpt lat="43.3822" lon="-2.62331">
        <ele>175.8</ele>
        <time>2021-05-29 14:31:51</time>
      </trkpt>
      <trkpt lat="43.38217" lon="-2.62338">
        <ele>176</ele>
        <time>2021-05-29 14:31:52</time>
      </trkpt>
      <trkpt lat="43.38214" lon="-2.62346">
        <ele>176.2</ele>
        <time>2021-05-29 14:31:53</time>
      </trkpt>
      <trkpt lat="43.38212" lon="-2.62354">
        <ele>176.6</ele>
        <time>2021-05-29 14:31:54</time>
      </trkpt>
      <trkpt lat="43.3821" lon="-2.62363">
        <ele>176.8</ele>
        <time>2021-05-29 14:31:55</time>
      </trkpt>
      <trkpt lat="43.38209" lon="-2.62371">
        <ele>177</ele>
        <time>2021-05-29 14:31:56</time>
      </trkpt>
      <trkpt lat="43.38208" lon="-2.6238">
        <ele>177.2</ele>
        <time>2021-05-29 14:31:57</time>
      </trkpt>
      <trkpt lat="43.38207" lon="-2.62389">
        <ele>177.4</ele>
        <time>2021-05-29 14:31:58</time>
      </trkpt>
      <trkpt lat="43.38207" lon="-2.62397">
        <ele>177.6</ele>
        <time>2021-05-29 14:31:59</time>
      </trkpt>
      <trkpt lat="43.38207" lon="-2.62406">
        <ele>177.6</ele>
        <time>2021-05-29 14:32:00</time>
      </trkpt>
      <trkpt lat="43.38207" lon="-2.62414">
        <ele>177.8</ele>
        <time>2021-05-29 14:32:01</time>
      </trkpt>
      <trkpt lat="43.38207" lon="-2.62423">
        <ele>178</ele>
        <time>2021-05-29 14:32:02</time>
      </trkpt>
      <trkpt lat="43.38207" lon="-2.62431">
        <ele>178</ele>
        <time>2021-05-29 14:32:03</time>
      </trkpt>
      <trkpt lat="43.38207" lon="-2.6244">
        <ele>178.2</ele>
        <time>2021-05-29 14:32:04</time>
      </trkpt>
      <trkpt lat="43.38207" lon="-2.62448">
        <ele>178.4</ele>
        <time>2021-05-29 14:32:05</time>
      </trkpt>
      <trkpt lat="43.38206" lon="-2.62456">
        <ele>178.6</ele>
        <time>2021-05-29 14:32:06</time>
      </trkpt>
      <trkpt lat="43.38205" lon="-2.62465">
        <ele>178.8</ele>
        <time>2021-05-29 14:32:07</time>
      </trkpt>
      <trkpt lat="43.38204" lon="-2.62473">
        <ele>179</ele>
        <time>2021-05-29 14:32:08</time>
      </trkpt>
      <trkpt lat="43.38203" lon="-2.62481">
        <ele>179.2</ele>
        <time>2021-05-29 14:32:09</time>
      </trkpt>
      <trkpt lat="43.38201" lon="-2.6249">
        <ele>179.2</ele>
        <time>2021-05-29 14:32:10</time>
      </trkpt>
      <trkpt lat="43.38199" lon="-2.62498">
        <ele>179.4</ele>
        <time>2021-05-29 14:32:11</time>
      </trkpt>
      <trkpt lat="43.38198" lon="-2.62506">
        <ele>179.4</ele>
        <time>2021-05-29 14:32:12</time>
      </trkpt>
      <trkpt lat="43.38196" lon="-2.62514">
        <ele>179.6</ele>
        <time>2021-05-29 14:32:13</time>
      </trkpt>
      <trkpt lat="43.38195" lon="-2.62522">
        <ele>179.6</ele>
        <time>2021-05-29 14:32:14</time>
      </trkpt>
      <trkpt lat="43.38193" lon="-2.6253">
        <ele>180</ele>
        <time>2021-05-29 14:32:15</time>
      </trkpt>
      <trkpt lat="43.38192" lon="-2.62538">
        <ele>180.2</ele>
        <time>2021-05-29 14:32:16</time>
      </trkpt>
      <trkpt lat="43.38189" lon="-2.62546">
        <ele>180.4</ele>
        <time>2021-05-29 14:32:17</time>
      </trkpt>
      <trkpt lat="43.38187" lon="-2.62553">
        <ele>180.6</ele>
        <time>2021-05-29 14:32:18</time>
      </trkpt>
      <trkpt lat="43.38184" lon="-2.62561">
        <ele>181</ele>
        <time>2021-05-29 14:32:19</time>
      </trkpt>
      <trkpt lat="43.38181" lon="-2.62569">
        <ele>181</ele>
        <time>2021-05-29 14:32:20</time>
      </trkpt>
      <trkpt lat="43.38177" lon="-2.62577">
        <ele>181</ele>
        <time>2021-05-29 14:32:21</time>
      </trkpt>
      <trkpt lat="43.38172" lon="-2.62586">
        <ele>181</ele>
        <time>2021-05-29 14:32:22</time>
      </trkpt>
      <trkpt lat="43.38168" lon="-2.62595">
        <ele>181.2</ele>
        <time>2021-05-29 14:32:23</time>
      </trkpt>
      <trkpt lat="43.38163" lon="-2.62604">
        <ele>181.2</ele>
        <time>2021-05-29 14:32:24</time>
      </trkpt>
      <trkpt lat="43.38157" lon="-2.62614">
        <ele>181.2</ele>
        <time>2021-05-29 14:32:25</time>
      </trkpt>
      <trkpt lat="43.38152" lon="-2.62624">
        <ele>181.2</ele>
        <time>2021-05-29 14:32:26</time>
      </trkpt>
      <trkpt lat="43.38145" lon="-2.62634">
        <ele>181.2</ele>
        <time>2021-05-29 14:32:27</time>
      </trkpt>
      <trkpt lat="43.38139" lon="-2.62644">
        <ele>181.2</ele>
        <time>2021-05-29 14:32:28</time>
      </trkpt>
      <trkpt lat="43.38131" lon="-2.62653">
        <ele>181</ele>
        <time>2021-05-29 14:32:29</time>
      </trkpt>
      <trkpt lat="43.38123" lon="-2.62661">
        <ele>180.8</ele>
        <time>2021-05-29 14:32:30</time>
      </trkpt>
      <trkpt lat="43.38114" lon="-2.62668">
        <ele>180.6</ele>
        <time>2021-05-29 14:32:31</time>
      </trkpt>
      <trkpt lat="43.38105" lon="-2.62672">
        <ele>180</ele>
        <time>2021-05-29 14:32:32</time>
      </trkpt>
      <trkpt lat="43.38094" lon="-2.62673">
        <ele>179.8</ele>
        <time>2021-05-29 14:32:33</time>
      </trkpt>
      <trkpt lat="43.38084" lon="-2.62672">
        <ele>179.4</ele>
        <time>2021-05-29 14:32:34</time>
      </trkpt>
      <trkpt lat="43.38073" lon="-2.62672">
        <ele>178.8</ele>
        <time>2021-05-29 14:32:35</time>
      </trkpt>
      <trkpt lat="43.38063" lon="-2.62674">
        <ele>178.2</ele>
        <time>2021-05-29 14:32:36</time>
      </trkpt>
      <trkpt lat="43.38055" lon="-2.62681">
        <ele>177.6</ele>
        <time>2021-05-29 14:32:37</time>
      </trkpt>
      <trkpt lat="43.38049" lon="-2.62692">
        <ele>176.8</ele>
        <time>2021-05-29 14:32:38</time>
      </trkpt>
      <trkpt lat="43.38047" lon="-2.62704">
        <ele>176.2</ele>
        <time>2021-05-29 14:32:39</time>
      </trkpt>
      <trkpt lat="43.38048" lon="-2.62717">
        <ele>175.6</ele>
        <time>2021-05-29 14:32:40</time>
      </trkpt>
      <trkpt lat="43.38052" lon="-2.6273">
        <ele>175</ele>
        <time>2021-05-29 14:32:41</time>
      </trkpt>
      <trkpt lat="43.38055" lon="-2.62743">
        <ele>173.8</ele>
        <time>2021-05-29 14:32:42</time>
      </trkpt>
      <trkpt lat="43.38057" lon="-2.62757">
        <ele>173.2</ele>
        <time>2021-05-29 14:32:43</time>
      </trkpt>
      <trkpt lat="43.38057" lon="-2.6277">
        <ele>172.8</ele>
        <time>2021-05-29 14:32:44</time>
      </trkpt>
      <trkpt lat="43.38055" lon="-2.62783">
        <ele>172.2</ele>
        <time>2021-05-29 14:32:45</time>
      </trkpt>
      <trkpt lat="43.38049" lon="-2.62796">
        <ele>171.8</ele>
        <time>2021-05-29 14:32:46</time>
      </trkpt>
      <trkpt lat="43.38042" lon="-2.62808">
        <ele>171.2</ele>
        <time>2021-05-29 14:32:47</time>
      </trkpt>
      <trkpt lat="43.38033" lon="-2.62817">
        <ele>170</ele>
        <time>2021-05-29 14:32:48</time>
      </trkpt>
      <trkpt lat="43.38022" lon="-2.62823">
        <ele>169</ele>
        <time>2021-05-29 14:32:49</time>
      </trkpt>
      <trkpt lat="43.3801" lon="-2.62827">
        <ele>168.4</ele>
        <time>2021-05-29 14:32:50</time>
      </trkpt>
      <trkpt lat="43.37999" lon="-2.62827">
        <ele>167.4</ele>
        <time>2021-05-29 14:32:51</time>
      </trkpt>
      <trkpt lat="43.37987" lon="-2.62827">
        <ele>166.8</ele>
        <time>2021-05-29 14:32:52</time>
      </trkpt>
      <trkpt lat="43.37976" lon="-2.62827">
        <ele>166.4</ele>
        <time>2021-05-29 14:32:53</time>
      </trkpt>
      <trkpt lat="43.37968" lon="-2.62832">
        <ele>165.8</ele>
        <time>2021-05-29 14:32:54</time>
      </trkpt>
      <trkpt lat="43.3796" lon="-2.62838">
        <ele>165</ele>
        <time>2021-05-29 14:32:55</time>
      </trkpt>
      <trkpt lat="43.37953" lon="-2.62846">
        <ele>164.2</ele>
        <time>2021-05-29 14:32:56</time>
      </trkpt>
      <trkpt lat="43.37948" lon="-2.62854">
        <ele>163.4</ele>
        <time>2021-05-29 14:32:57</time>
      </trkpt>
      <trkpt lat="43.37946" lon="-2.62865">
        <ele>162.6</ele>
        <time>2021-05-29 14:32:58</time>
      </trkpt>
      <trkpt lat="43.37949" lon="-2.6288">
        <ele>162</ele>
        <time>2021-05-29 14:32:59</time>
      </trkpt>
      <trkpt lat="43.37958" lon="-2.62894">
        <ele>161.4</ele>
        <time>2021-05-29 14:33:00</time>
      </trkpt>
      <trkpt lat="43.37964" lon="-2.62907">
        <ele>160.8</ele>
        <time>2021-05-29 14:33:01</time>
      </trkpt>
      <trkpt lat="43.37971" lon="-2.6292">
        <ele>160.2</ele>
        <time>2021-05-29 14:33:02</time>
      </trkpt>
      <trkpt lat="43.37979" lon="-2.62931">
        <ele>159.8</ele>
        <time>2021-05-29 14:33:03</time>
      </trkpt>
      <trkpt lat="43.37989" lon="-2.62942">
        <ele>159</ele>
        <time>2021-05-29 14:33:04</time>
      </trkpt>
      <trkpt lat="43.38001" lon="-2.62952">
        <ele>158.6</ele>
        <time>2021-05-29 14:33:05</time>
      </trkpt>
      <trkpt lat="43.3801" lon="-2.62961">
        <ele>158.2</ele>
        <time>2021-05-29 14:33:06</time>
      </trkpt>
      <trkpt lat="43.3802" lon="-2.6297">
        <ele>157.6</ele>
        <time>2021-05-29 14:33:07</time>
      </trkpt>
      <trkpt lat="43.3803" lon="-2.6298">
        <ele>156.8</ele>
        <time>2021-05-29 14:33:08</time>
      </trkpt>
      <trkpt lat="43.3804" lon="-2.62991">
        <ele>156.4</ele>
        <time>2021-05-29 14:33:09</time>
      </trkpt>
      <trkpt lat="43.38049" lon="-2.63003">
        <ele>155.6</ele>
        <time>2021-05-29 14:33:10</time>
      </trkpt>
      <trkpt lat="43.38057" lon="-2.63016">
        <ele>155</ele>
        <time>2021-05-29 14:33:11</time>
      </trkpt>
      <trkpt lat="43.38064" lon="-2.63029">
        <ele>154.4</ele>
        <time>2021-05-29 14:33:12</time>
      </trkpt>
      <trkpt lat="43.3807" lon="-2.63043">
        <ele>154</ele>
        <time>2021-05-29 14:33:13</time>
      </trkpt>
      <trkpt lat="43.38074" lon="-2.63058">
        <ele>153.6</ele>
        <time>2021-05-29 14:33:14</time>
      </trkpt>
      <trkpt lat="43.38076" lon="-2.63073">
        <ele>153.2</ele>
        <time>2021-05-29 14:33:15</time>
      </trkpt>
      <trkpt lat="43.38077" lon="-2.63089">
        <ele>152.6</ele>
        <time>2021-05-29 14:33:16</time>
      </trkpt>
      <trkpt lat="43.38079" lon="-2.63106">
        <ele>152</ele>
        <time>2021-05-29 14:33:17</time>
      </trkpt>
      <trkpt lat="43.38082" lon="-2.63123">
        <ele>151.2</ele>
        <time>2021-05-29 14:33:18</time>
      </trkpt>
      <trkpt lat="43.38084" lon="-2.63141">
        <ele>150.6</ele>
        <time>2021-05-29 14:33:19</time>
      </trkpt>
      <trkpt lat="43.38087" lon="-2.63158">
        <ele>149.8</ele>
        <time>2021-05-29 14:33:20</time>
      </trkpt>
      <trkpt lat="43.3809" lon="-2.63177">
        <ele>148.8</ele>
        <time>2021-05-29 14:33:21</time>
      </trkpt>
      <trkpt lat="43.38094" lon="-2.63195">
        <ele>147.8</ele>
        <time>2021-05-29 14:33:22</time>
      </trkpt>
      <trkpt lat="43.38099" lon="-2.63213">
        <ele>146.8</ele>
        <time>2021-05-29 14:33:23</time>
      </trkpt>
      <trkpt lat="43.38105" lon="-2.63232">
        <ele>146</ele>
        <time>2021-05-29 14:33:24</time>
      </trkpt>
      <trkpt lat="43.38111" lon="-2.63251">
        <ele>145</ele>
        <time>2021-05-29 14:33:25</time>
      </trkpt>
      <trkpt lat="43.38117" lon="-2.6327">
        <ele>144.2</ele>
        <time>2021-05-29 14:33:26</time>
      </trkpt>
      <trkpt lat="43.38123" lon="-2.63288">
        <ele>143.4</ele>
        <time>2021-05-29 14:33:27</time>
      </trkpt>
      <trkpt lat="43.38129" lon="-2.63304">
        <ele>142.4</ele>
        <time>2021-05-29 14:33:28</time>
      </trkpt>
      <trkpt lat="43.38134" lon="-2.63318">
        <ele>141.4</ele>
        <time>2021-05-29 14:33:29</time>
      </trkpt>
      <trkpt lat="43.38136" lon="-2.63334">
        <ele>140.4</ele>
        <time>2021-05-29 14:33:30</time>
      </trkpt>
      <trkpt lat="43.38135" lon="-2.6335">
        <ele>139.4</ele>
        <time>2021-05-29 14:33:31</time>
      </trkpt>
      <trkpt lat="43.3813" lon="-2.63366">
        <ele>138.2</ele>
        <time>2021-05-29 14:33:32</time>
      </trkpt>
      <trkpt lat="43.38122" lon="-2.63379">
        <ele>137.4</ele>
        <time>2021-05-29 14:33:33</time>
      </trkpt>
      <trkpt lat="43.38112" lon="-2.63391">
        <ele>136.4</ele>
        <time>2021-05-29 14:33:34</time>
      </trkpt>
      <trkpt lat="43.38101" lon="-2.63402">
        <ele>135.4</ele>
        <time>2021-05-29 14:33:35</time>
      </trkpt>
      <trkpt lat="43.3809" lon="-2.63413">
        <ele>134.4</ele>
        <time>2021-05-29 14:33:36</time>
      </trkpt>
      <trkpt lat="43.3808" lon="-2.63426">
        <ele>133.2</ele>
        <time>2021-05-29 14:33:37</time>
      </trkpt>
      <trkpt lat="43.38071" lon="-2.63441">
        <ele>132.2</ele>
        <time>2021-05-29 14:33:38</time>
      </trkpt>
      <trkpt lat="43.38062" lon="-2.63456">
        <ele>131.4</ele>
        <time>2021-05-29 14:33:39</time>
      </trkpt>
      <trkpt lat="43.38053" lon="-2.63471">
        <ele>131</ele>
        <time>2021-05-29 14:33:40</time>
      </trkpt>
      <trkpt lat="43.38041" lon="-2.63485">
        <ele>130.2</ele>
        <time>2021-05-29 14:33:41</time>
      </trkpt>
      <trkpt lat="43.38029" lon="-2.63495">
        <ele>129.4</ele>
        <time>2021-05-29 14:33:42</time>
      </trkpt>
      <trkpt lat="43.38017" lon="-2.635">
        <ele>128.6</ele>
        <time>2021-05-29 14:33:43</time>
      </trkpt>
      <trkpt lat="43.38003" lon="-2.63499">
        <ele>127.6</ele>
        <time>2021-05-29 14:33:44</time>
      </trkpt>
      <trkpt lat="43.37989" lon="-2.63498">
        <ele>126.6</ele>
        <time>2021-05-29 14:33:45</time>
      </trkpt>
      <trkpt lat="43.37974" lon="-2.63501">
        <ele>126</ele>
        <time>2021-05-29 14:33:46</time>
      </trkpt>
      <trkpt lat="43.3796" lon="-2.63504">
        <ele>125.2</ele>
        <time>2021-05-29 14:33:47</time>
      </trkpt>
      <trkpt lat="43.37945" lon="-2.63504">
        <ele>124.4</ele>
        <time>2021-05-29 14:33:48</time>
      </trkpt>
      <trkpt lat="43.3793" lon="-2.63499">
        <ele>123.8</ele>
        <time>2021-05-29 14:33:49</time>
      </trkpt>
      <trkpt lat="43.37917" lon="-2.63491">
        <ele>123.2</ele>
        <time>2021-05-29 14:33:50</time>
      </trkpt>
      <trkpt lat="43.37905" lon="-2.6348">
        <ele>122.2</ele>
        <time>2021-05-29 14:33:51</time>
      </trkpt>
      <trkpt lat="43.37893" lon="-2.6347">
        <ele>121.2</ele>
        <time>2021-05-29 14:33:52</time>
      </trkpt>
      <trkpt lat="43.37881" lon="-2.63459">
        <ele>120</ele>
        <time>2021-05-29 14:33:53</time>
      </trkpt>
      <trkpt lat="43.37869" lon="-2.63452">
        <ele>118.6</ele>
        <time>2021-05-29 14:33:54</time>
      </trkpt>
      <trkpt lat="43.37857" lon="-2.63447">
        <ele>117.8</ele>
        <time>2021-05-29 14:33:55</time>
      </trkpt>
      <trkpt lat="43.37845" lon="-2.63445">
        <ele>117.2</ele>
        <time>2021-05-29 14:33:56</time>
      </trkpt>
      <trkpt lat="43.37833" lon="-2.63445">
        <ele>116.4</ele>
        <time>2021-05-29 14:33:57</time>
      </trkpt>
      <trkpt lat="43.37821" lon="-2.63447">
        <ele>115.4</ele>
        <time>2021-05-29 14:33:58</time>
      </trkpt>
      <trkpt lat="43.3781" lon="-2.63453">
        <ele>114.4</ele>
        <time>2021-05-29 14:33:59</time>
      </trkpt>
      <trkpt lat="43.37801" lon="-2.63462">
        <ele>113.4</ele>
        <time>2021-05-29 14:34:00</time>
      </trkpt>
      <trkpt lat="43.37792" lon="-2.63472">
        <ele>112.8</ele>
        <time>2021-05-29 14:34:01</time>
      </trkpt>
      <trkpt lat="43.37785" lon="-2.63483">
        <ele>112.2</ele>
        <time>2021-05-29 14:34:02</time>
      </trkpt>
      <trkpt lat="43.37778" lon="-2.63495">
        <ele>111.6</ele>
        <time>2021-05-29 14:34:03</time>
      </trkpt>
      <trkpt lat="43.3777" lon="-2.63505">
        <ele>111.2</ele>
        <time>2021-05-29 14:34:04</time>
      </trkpt>
      <trkpt lat="43.37762" lon="-2.63516">
        <ele>111</ele>
        <time>2021-05-29 14:34:05</time>
      </trkpt>
      <trkpt lat="43.37754" lon="-2.63525">
        <ele>111</ele>
        <time>2021-05-29 14:34:06</time>
      </trkpt>
      <trkpt lat="43.37745" lon="-2.63533">
        <ele>110.8</ele>
        <time>2021-05-29 14:34:07</time>
      </trkpt>
      <trkpt lat="43.37736" lon="-2.63539">
        <ele>110.8</ele>
        <time>2021-05-29 14:34:08</time>
      </trkpt>
      <trkpt lat="43.37726" lon="-2.63545">
        <ele>110.8</ele>
        <time>2021-05-29 14:34:09</time>
      </trkpt>
      <trkpt lat="43.37717" lon="-2.63549">
        <ele>110.8</ele>
        <time>2021-05-29 14:34:10</time>
      </trkpt>
      <trkpt lat="43.37707" lon="-2.63553">
        <ele>110.8</ele>
        <time>2021-05-29 14:34:11</time>
      </trkpt>
      <trkpt lat="43.37697" lon="-2.63558">
        <ele>110.8</ele>
        <time>2021-05-29 14:34:12</time>
      </trkpt>
      <trkpt lat="43.37688" lon="-2.63562">
        <ele>111</ele>
        <time>2021-05-29 14:34:13</time>
      </trkpt>
      <trkpt lat="43.37679" lon="-2.63567">
        <ele>111</ele>
        <time>2021-05-29 14:34:14</time>
      </trkpt>
      <trkpt lat="43.3767" lon="-2.63572">
        <ele>111.2</ele>
        <time>2021-05-29 14:34:15</time>
      </trkpt>
      <trkpt lat="43.37662" lon="-2.63578">
        <ele>111.2</ele>
        <time>2021-05-29 14:34:16</time>
      </trkpt>
      <trkpt lat="43.37654" lon="-2.63584">
        <ele>111.2</ele>
        <time>2021-05-29 14:34:17</time>
      </trkpt>
      <trkpt lat="43.37646" lon="-2.63591">
        <ele>111.4</ele>
        <time>2021-05-29 14:34:18</time>
      </trkpt>
      <trkpt lat="43.37638" lon="-2.63598">
        <ele>111.4</ele>
        <time>2021-05-29 14:34:19</time>
      </trkpt>
      <trkpt lat="43.3763" lon="-2.63604">
        <ele>111.4</ele>
        <time>2021-05-29 14:34:20</time>
      </trkpt>
      <trkpt lat="43.37622" lon="-2.63611">
        <ele>111.6</ele>
        <time>2021-05-29 14:34:21</time>
      </trkpt>
      <trkpt lat="43.37614" lon="-2.63616">
        <ele>111.6</ele>
        <time>2021-05-29 14:34:22</time>
      </trkpt>
      <trkpt lat="43.37605" lon="-2.6362">
        <ele>111.8</ele>
        <time>2021-05-29 14:34:23</time>
      </trkpt>
      <trkpt lat="43.37597" lon="-2.63624">
        <ele>111.8</ele>
        <time>2021-05-29 14:34:24</time>
      </trkpt>
      <trkpt lat="43.37588" lon="-2.63627">
        <ele>112</ele>
        <time>2021-05-29 14:34:25</time>
      </trkpt>
      <trkpt lat="43.3758" lon="-2.63629">
        <ele>112</ele>
        <time>2021-05-29 14:34:26</time>
      </trkpt>
      <trkpt lat="43.37571" lon="-2.6363">
        <ele>112.2</ele>
        <time>2021-05-29 14:34:27</time>
      </trkpt>
      <trkpt lat="43.37563" lon="-2.63631">
        <ele>112</ele>
        <time>2021-05-29 14:34:28</time>
      </trkpt>
      <trkpt lat="43.37555" lon="-2.63631">
        <ele>112.2</ele>
        <time>2021-05-29 14:34:29</time>
      </trkpt>
      <trkpt lat="43.37546" lon="-2.63632">
        <ele>112.2</ele>
        <time>2021-05-29 14:34:30</time>
      </trkpt>
      <trkpt lat="43.37536" lon="-2.63632">
        <ele>112.4</ele>
        <time>2021-05-29 14:34:31</time>
      </trkpt>
      <trkpt lat="43.37527" lon="-2.63633">
        <ele>112.4</ele>
        <time>2021-05-29 14:34:32</time>
      </trkpt>
      <trkpt lat="43.37518" lon="-2.63633">
        <ele>112.4</ele>
        <time>2021-05-29 14:34:33</time>
      </trkpt>
      <trkpt lat="43.37509" lon="-2.63634">
        <ele>112.6</ele>
        <time>2021-05-29 14:34:34</time>
      </trkpt>
      <trkpt lat="43.375" lon="-2.63635">
        <ele>112.6</ele>
        <time>2021-05-29 14:34:35</time>
      </trkpt>
      <trkpt lat="43.3749" lon="-2.63636">
        <ele>112.6</ele>
        <time>2021-05-29 14:34:36</time>
      </trkpt>
      <trkpt lat="43.37481" lon="-2.63638">
        <ele>112.6</ele>
        <time>2021-05-29 14:34:37</time>
      </trkpt>
      <trkpt lat="43.37472" lon="-2.63639">
        <ele>112.8</ele>
        <time>2021-05-29 14:34:38</time>
      </trkpt>
      <trkpt lat="43.37463" lon="-2.63641">
        <ele>112.8</ele>
        <time>2021-05-29 14:34:39</time>
      </trkpt>
      <trkpt lat="43.37455" lon="-2.63644">
        <ele>113</ele>
        <time>2021-05-29 14:34:40</time>
      </trkpt>
      <trkpt lat="43.37446" lon="-2.63647">
        <ele>113.2</ele>
        <time>2021-05-29 14:34:41</time>
      </trkpt>
      <trkpt lat="43.37438" lon="-2.6365">
        <ele>113.4</ele>
        <time>2021-05-29 14:34:42</time>
      </trkpt>
      <trkpt lat="43.37429" lon="-2.63654">
        <ele>113.4</ele>
        <time>2021-05-29 14:34:43</time>
      </trkpt>
      <trkpt lat="43.37422" lon="-2.63658">
        <ele>113.4</ele>
        <time>2021-05-29 14:34:44</time>
      </trkpt>
      <trkpt lat="43.37414" lon="-2.63661">
        <ele>113.6</ele>
        <time>2021-05-29 14:34:45</time>
      </trkpt>
      <trkpt lat="43.37407" lon="-2.63665">
        <ele>113.6</ele>
        <time>2021-05-29 14:34:46</time>
      </trkpt>
      <trkpt lat="43.374" lon="-2.63668">
        <ele>113.8</ele>
        <time>2021-05-29 14:34:47</time>
      </trkpt>
      <trkpt lat="43.37393" lon="-2.63672">
        <ele>114</ele>
        <time>2021-05-29 14:34:48</time>
      </trkpt>
      <trkpt lat="43.37387" lon="-2.63675">
        <ele>114.2</ele>
        <time>2021-05-29 14:34:49</time>
      </trkpt>
      <trkpt lat="43.37381" lon="-2.63678">
        <ele>114.6</ele>
        <time>2021-05-29 14:34:50</time>
      </trkpt>
      <trkpt lat="43.37376" lon="-2.63682">
        <ele>114.8</ele>
        <time>2021-05-29 14:34:51</time>
      </trkpt>
      <trkpt lat="43.3737" lon="-2.63685">
        <ele>115</ele>
        <time>2021-05-29 14:34:52</time>
      </trkpt>
      <trkpt lat="43.37365" lon="-2.63688">
        <ele>115</ele>
        <time>2021-05-29 14:34:53</time>
      </trkpt>
      <trkpt lat="43.3736" lon="-2.63691">
        <ele>115</ele>
        <time>2021-05-29 14:34:54</time>
      </trkpt>
      <trkpt lat="43.37354" lon="-2.63693">
        <ele>115.4</ele>
        <time>2021-05-29 14:34:55</time>
      </trkpt>
      <trkpt lat="43.37349" lon="-2.63696">
        <ele>115.8</ele>
        <time>2021-05-29 14:34:56</time>
      </trkpt>
      <trkpt lat="43.37344" lon="-2.63698">
        <ele>116.2</ele>
        <time>2021-05-29 14:34:57</time>
      </trkpt>
      <trkpt lat="43.3734" lon="-2.637">
        <ele>116.4</ele>
        <time>2021-05-29 14:34:58</time>
      </trkpt>
      <trkpt lat="43.37335" lon="-2.63703">
        <ele>117.2</ele>
        <time>2021-05-29 14:34:59</time>
      </trkpt>
      <trkpt lat="43.3733" lon="-2.63705">
        <ele>117.6</ele>
        <time>2021-05-29 14:35:00</time>
      </trkpt>
      <trkpt lat="43.37326" lon="-2.63707">
        <ele>118</ele>
        <time>2021-05-29 14:35:01</time>
      </trkpt>
      <trkpt lat="43.37321" lon="-2.63709">
        <ele>118.2</ele>
        <time>2021-05-29 14:35:02</time>
      </trkpt>
      <trkpt lat="43.37316" lon="-2.63711">
        <ele>118.6</ele>
        <time>2021-05-29 14:35:03</time>
      </trkpt>
      <trkpt lat="43.37312" lon="-2.63712">
        <ele>119</ele>
        <time>2021-05-29 14:35:04</time>
      </trkpt>
      <trkpt lat="43.37307" lon="-2.63714">
        <ele>119.4</ele>
        <time>2021-05-29 14:35:05</time>
      </trkpt>
      <trkpt lat="43.37303" lon="-2.63715">
        <ele>119.8</ele>
        <time>2021-05-29 14:35:06</time>
      </trkpt>
      <trkpt lat="43.37299" lon="-2.63717">
        <ele>120.2</ele>
        <time>2021-05-29 14:35:07</time>
      </trkpt>
      <trkpt lat="43.37295" lon="-2.63719">
        <ele>120.8</ele>
        <time>2021-05-29 14:35:08</time>
      </trkpt>
      <trkpt lat="43.3729" lon="-2.6372">
        <ele>121</ele>
        <time>2021-05-29 14:35:09</time>
      </trkpt>
      <trkpt lat="43.37286" lon="-2.63722">
        <ele>121.6</ele>
        <time>2021-05-29 14:35:10</time>
      </trkpt>
      <trkpt lat="43.37282" lon="-2.63723">
        <ele>121.8</ele>
        <time>2021-05-29 14:35:11</time>
      </trkpt>
      <trkpt lat="43.37278" lon="-2.63724">
        <ele>122.2</ele>
        <time>2021-05-29 14:35:12</time>
      </trkpt>
      <trkpt lat="43.37274" lon="-2.63726">
        <ele>122.6</ele>
        <time>2021-05-29 14:35:13</time>
      </trkpt>
      <trkpt lat="43.3727" lon="-2.63727">
        <ele>122.8</ele>
        <time>2021-05-29 14:35:14</time>
      </trkpt>
      <trkpt lat="43.37266" lon="-2.63728">
        <ele>123.2</ele>
        <time>2021-05-29 14:35:15</time>
      </trkpt>
      <trkpt lat="43.37262" lon="-2.6373">
        <ele>123.4</ele>
        <time>2021-05-29 14:35:16</time>
      </trkpt>
      <trkpt lat="43.37257" lon="-2.6373">
        <ele>123.8</ele>
        <time>2021-05-29 14:35:17</time>
      </trkpt>
      <trkpt lat="43.37253" lon="-2.63732">
        <ele>124.2</ele>
        <time>2021-05-29 14:35:18</time>
      </trkpt>
      <trkpt lat="43.37249" lon="-2.63733">
        <ele>124.6</ele>
        <time>2021-05-29 14:35:19</time>
      </trkpt>
      <trkpt lat="43.37245" lon="-2.63735">
        <ele>124.8</ele>
        <time>2021-05-29 14:35:20</time>
      </trkpt>
      <trkpt lat="43.37241" lon="-2.63736">
        <ele>125.4</ele>
        <time>2021-05-29 14:35:21</time>
      </trkpt>
      <trkpt lat="43.37237" lon="-2.63737">
        <ele>125.8</ele>
        <time>2021-05-29 14:35:22</time>
      </trkpt>
      <trkpt lat="43.37233" lon="-2.63738">
        <ele>126</ele>
        <time>2021-05-29 14:35:23</time>
      </trkpt>
      <trkpt lat="43.37229" lon="-2.6374">
        <ele>126.4</ele>
        <time>2021-05-29 14:35:24</time>
      </trkpt>
      <trkpt lat="43.37225" lon="-2.63741">
        <ele>126.6</ele>
        <time>2021-05-29 14:35:25</time>
      </trkpt>
      <trkpt lat="43.37221" lon="-2.63742">
        <ele>126.8</ele>
        <time>2021-05-29 14:35:26</time>
      </trkpt>
      <trkpt lat="43.37217" lon="-2.63743">
        <ele>127.2</ele>
        <time>2021-05-29 14:35:27</time>
      </trkpt>
      <trkpt lat="43.37213" lon="-2.63744">
        <ele>127.4</ele>
        <time>2021-05-29 14:35:28</time>
      </trkpt>
      <trkpt lat="43.37209" lon="-2.63745">
        <ele>127.6</ele>
        <time>2021-05-29 14:35:29</time>
      </trkpt>
      <trkpt lat="43.37204" lon="-2.63747">
        <ele>128</ele>
        <time>2021-05-29 14:35:30</time>
      </trkpt>
      <trkpt lat="43.372" lon="-2.63748">
        <ele>128.4</ele>
        <time>2021-05-29 14:35:31</time>
      </trkpt>
      <trkpt lat="43.37196" lon="-2.63748">
        <ele>128.8</ele>
        <time>2021-05-29 14:35:32</time>
      </trkpt>
      <trkpt lat="43.37192" lon="-2.6375">
        <ele>129</ele>
        <time>2021-05-29 14:35:33</time>
      </trkpt>
      <trkpt lat="43.37188" lon="-2.63751">
        <ele>129.4</ele>
        <time>2021-05-29 14:35:34</time>
      </trkpt>
      <trkpt lat="43.37184" lon="-2.63752">
        <ele>130</ele>
        <time>2021-05-29 14:35:35</time>
      </trkpt>
      <trkpt lat="43.37181" lon="-2.63753">
        <ele>130.2</ele>
        <time>2021-05-29 14:35:36</time>
      </trkpt>
      <trkpt lat="43.37177" lon="-2.63754">
        <ele>130.4</ele>
        <time>2021-05-29 14:35:37</time>
      </trkpt>
      <trkpt lat="43.37173" lon="-2.63754">
        <ele>130.8</ele>
        <time>2021-05-29 14:35:38</time>
      </trkpt>
      <trkpt lat="43.3717" lon="-2.63755">
        <ele>131.2</ele>
        <time>2021-05-29 14:35:39</time>
      </trkpt>
      <trkpt lat="43.37166" lon="-2.63757">
        <ele>131.4</ele>
        <time>2021-05-29 14:35:40</time>
      </trkpt>
      <trkpt lat="43.37162" lon="-2.63758">
        <ele>131.8</ele>
        <time>2021-05-29 14:35:41</time>
      </trkpt>
      <trkpt lat="43.37159" lon="-2.63759">
        <ele>132.2</ele>
        <time>2021-05-29 14:35:42</time>
      </trkpt>
      <trkpt lat="43.37155" lon="-2.6376">
        <ele>132.4</ele>
        <time>2021-05-29 14:35:43</time>
      </trkpt>
      <trkpt lat="43.37151" lon="-2.63761">
        <ele>132.6</ele>
        <time>2021-05-29 14:35:44</time>
      </trkpt>
      <trkpt lat="43.37147" lon="-2.63762">
        <ele>132.8</ele>
        <time>2021-05-29 14:35:45</time>
      </trkpt>
      <trkpt lat="43.37144" lon="-2.63762">
        <ele>133</ele>
        <time>2021-05-29 14:35:46</time>
      </trkpt>
      <trkpt lat="43.3714" lon="-2.63763">
        <ele>133.4</ele>
        <time>2021-05-29 14:35:47</time>
      </trkpt>
      <trkpt lat="43.37137" lon="-2.63764">
        <ele>133.6</ele>
        <time>2021-05-29 14:35:48</time>
      </trkpt>
      <trkpt lat="43.37133" lon="-2.63766">
        <ele>133.8</ele>
        <time>2021-05-29 14:35:49</time>
      </trkpt>
      <trkpt lat="43.37129" lon="-2.63766">
        <ele>134.2</ele>
        <time>2021-05-29 14:35:50</time>
      </trkpt>
      <trkpt lat="43.37125" lon="-2.63767">
        <ele>134.6</ele>
        <time>2021-05-29 14:35:51</time>
      </trkpt>
      <trkpt lat="43.37122" lon="-2.63768">
        <ele>134.8</ele>
        <time>2021-05-29 14:35:52</time>
      </trkpt>
      <trkpt lat="43.37118" lon="-2.63769">
        <ele>135</ele>
        <time>2021-05-29 14:35:53</time>
      </trkpt>
      <trkpt lat="43.37114" lon="-2.6377">
        <ele>135.4</ele>
        <time>2021-05-29 14:35:54</time>
      </trkpt>
      <trkpt lat="43.3711" lon="-2.6377">
        <ele>135.6</ele>
        <time>2021-05-29 14:35:55</time>
      </trkpt>
      <trkpt lat="43.37106" lon="-2.63771">
        <ele>136</ele>
        <time>2021-05-29 14:35:56</time>
      </trkpt>
      <trkpt lat="43.37102" lon="-2.63772">
        <ele>136.2</ele>
        <time>2021-05-29 14:35:57</time>
      </trkpt>
      <trkpt lat="43.37098" lon="-2.63773">
        <ele>136.4</ele>
        <time>2021-05-29 14:35:58</time>
      </trkpt>
      <trkpt lat="43.37094" lon="-2.63773">
        <ele>136.8</ele>
        <time>2021-05-29 14:35:59</time>
      </trkpt>
      <trkpt lat="43.3709" lon="-2.63774">
        <ele>137.2</ele>
        <time>2021-05-29 14:36:00</time>
      </trkpt>
      <trkpt lat="43.37087" lon="-2.63775">
        <ele>137.6</ele>
        <time>2021-05-29 14:36:01</time>
      </trkpt>
      <trkpt lat="43.37083" lon="-2.63775">
        <ele>137.8</ele>
        <time>2021-05-29 14:36:02</time>
      </trkpt>
      <trkpt lat="43.37079" lon="-2.63776">
        <ele>138</ele>
        <time>2021-05-29 14:36:03</time>
      </trkpt>
      <trkpt lat="43.37075" lon="-2.63776">
        <ele>138.4</ele>
        <time>2021-05-29 14:36:04</time>
      </trkpt>
      <trkpt lat="43.37071" lon="-2.63777">
        <ele>138.6</ele>
        <time>2021-05-29 14:36:05</time>
      </trkpt>
      <trkpt lat="43.37068" lon="-2.63777">
        <ele>138.6</ele>
        <time>2021-05-29 14:36:06</time>
      </trkpt>
      <trkpt lat="43.37064" lon="-2.63777">
        <ele>139</ele>
        <time>2021-05-29 14:36:07</time>
      </trkpt>
      <trkpt lat="43.3706" lon="-2.63778">
        <ele>139.4</ele>
        <time>2021-05-29 14:36:08</time>
      </trkpt>
      <trkpt lat="43.37056" lon="-2.63778">
        <ele>139.8</ele>
        <time>2021-05-29 14:36:09</time>
      </trkpt>
      <trkpt lat="43.37052" lon="-2.63778">
        <ele>140.4</ele>
        <time>2021-05-29 14:36:10</time>
      </trkpt>
      <trkpt lat="43.37048" lon="-2.63778">
        <ele>140.6</ele>
        <time>2021-05-29 14:36:11</time>
      </trkpt>
      <trkpt lat="43.37044" lon="-2.63778">
        <ele>140.8</ele>
        <time>2021-05-29 14:36:12</time>
      </trkpt>
      <trkpt lat="43.3704" lon="-2.63779">
        <ele>141</ele>
        <time>2021-05-29 14:36:13</time>
      </trkpt>
      <trkpt lat="43.37035" lon="-2.6378">
        <ele>141.2</ele>
        <time>2021-05-29 14:36:14</time>
      </trkpt>
      <trkpt lat="43.37031" lon="-2.6378">
        <ele>141.4</ele>
        <time>2021-05-29 14:36:15</time>
      </trkpt>
      <trkpt lat="43.37027" lon="-2.6378">
        <ele>141.8</ele>
        <time>2021-05-29 14:36:16</time>
      </trkpt>
      <trkpt lat="43.37023" lon="-2.63781">
        <ele>142</ele>
        <time>2021-05-29 14:36:17</time>
      </trkpt>
      <trkpt lat="43.37018" lon="-2.63781">
        <ele>142.4</ele>
        <time>2021-05-29 14:36:18</time>
      </trkpt>
      <trkpt lat="43.37014" lon="-2.63782">
        <ele>142.6</ele>
        <time>2021-05-29 14:36:19</time>
      </trkpt>
      <trkpt lat="43.3701" lon="-2.63782">
        <ele>143</ele>
        <time>2021-05-29 14:36:20</time>
      </trkpt>
      <trkpt lat="43.37006" lon="-2.63782">
        <ele>143.2</ele>
        <time>2021-05-29 14:36:21</time>
      </trkpt>
      <trkpt lat="43.37002" lon="-2.63782">
        <ele>143.4</ele>
        <time>2021-05-29 14:36:22</time>
      </trkpt>
      <trkpt lat="43.36998" lon="-2.63783">
        <ele>143.6</ele>
        <time>2021-05-29 14:36:23</time>
      </trkpt>
      <trkpt lat="43.36994" lon="-2.63783">
        <ele>144</ele>
        <time>2021-05-29 14:36:24</time>
      </trkpt>
      <trkpt lat="43.3699" lon="-2.63783">
        <ele>144.2</ele>
        <time>2021-05-29 14:36:25</time>
      </trkpt>
      <trkpt lat="43.36986" lon="-2.63783">
        <ele>144.6</ele>
        <time>2021-05-29 14:36:26</time>
      </trkpt>
      <trkpt lat="43.36982" lon="-2.63784">
        <ele>144.8</ele>
        <time>2021-05-29 14:36:27</time>
      </trkpt>
      <trkpt lat="43.36978" lon="-2.63784">
        <ele>145.2</ele>
        <time>2021-05-29 14:36:28</time>
      </trkpt>
      <trkpt lat="43.36974" lon="-2.63784">
        <ele>145.8</ele>
        <time>2021-05-29 14:36:29</time>
      </trkpt>
      <trkpt lat="43.3697" lon="-2.63785">
        <ele>146</ele>
        <time>2021-05-29 14:36:30</time>
      </trkpt>
      <trkpt lat="43.36966" lon="-2.63785">
        <ele>146.2</ele>
        <time>2021-05-29 14:36:31</time>
      </trkpt>
      <trkpt lat="43.36962" lon="-2.63786">
        <ele>146.4</ele>
        <time>2021-05-29 14:36:32</time>
      </trkpt>
      <trkpt lat="43.36958" lon="-2.63786">
        <ele>146.6</ele>
        <time>2021-05-29 14:36:33</time>
      </trkpt>
      <trkpt lat="43.36955" lon="-2.63786">
        <ele>146.8</ele>
        <time>2021-05-29 14:36:34</time>
      </trkpt>
      <trkpt lat="43.36951" lon="-2.63787">
        <ele>147.2</ele>
        <time>2021-05-29 14:36:35</time>
      </trkpt>
      <trkpt lat="43.36947" lon="-2.63787">
        <ele>147.6</ele>
        <time>2021-05-29 14:36:36</time>
      </trkpt>
      <trkpt lat="43.36943" lon="-2.63788">
        <ele>148</ele>
        <time>2021-05-29 14:36:37</time>
      </trkpt>
      <trkpt lat="43.36939" lon="-2.63789">
        <ele>148.4</ele>
        <time>2021-05-29 14:36:38</time>
      </trkpt>
      <trkpt lat="43.36936" lon="-2.6379">
        <ele>148.6</ele>
        <time>2021-05-29 14:36:39</time>
      </trkpt>
      <trkpt lat="43.36932" lon="-2.63791">
        <ele>149.2</ele>
        <time>2021-05-29 14:36:40</time>
      </trkpt>
      <trkpt lat="43.36928" lon="-2.63792">
        <ele>149.6</ele>
        <time>2021-05-29 14:36:41</time>
      </trkpt>
      <trkpt lat="43.36924" lon="-2.63793">
        <ele>149.8</ele>
        <time>2021-05-29 14:36:42</time>
      </trkpt>
      <trkpt lat="43.3692" lon="-2.63795">
        <ele>150</ele>
        <time>2021-05-29 14:36:43</time>
      </trkpt>
      <trkpt lat="43.36917" lon="-2.63797">
        <ele>150.8</ele>
        <time>2021-05-29 14:36:44</time>
      </trkpt>
      <trkpt lat="43.36913" lon="-2.63798">
        <ele>151.2</ele>
        <time>2021-05-29 14:36:45</time>
      </trkpt>
      <trkpt lat="43.3691" lon="-2.638">
        <ele>151.6</ele>
        <time>2021-05-29 14:36:46</time>
      </trkpt>
      <trkpt lat="43.36906" lon="-2.63802">
        <ele>151.8</ele>
        <time>2021-05-29 14:36:47</time>
      </trkpt>
      <trkpt lat="43.36902" lon="-2.63804">
        <ele>152</ele>
        <time>2021-05-29 14:36:48</time>
      </trkpt>
      <trkpt lat="43.36899" lon="-2.63806">
        <ele>152.2</ele>
        <time>2021-05-29 14:36:49</time>
      </trkpt>
      <trkpt lat="43.36895" lon="-2.63808">
        <ele>152.6</ele>
        <time>2021-05-29 14:36:50</time>
      </trkpt>
      <trkpt lat="43.36892" lon="-2.63811">
        <ele>153</ele>
        <time>2021-05-29 14:36:51</time>
      </trkpt>
      <trkpt lat="43.36888" lon="-2.63813">
        <ele>153.4</ele>
        <time>2021-05-29 14:36:52</time>
      </trkpt>
      <trkpt lat="43.36885" lon="-2.63816">
        <ele>154</ele>
        <time>2021-05-29 14:36:53</time>
      </trkpt>
      <trkpt lat="43.36881" lon="-2.63819">
        <ele>154.2</ele>
        <time>2021-05-29 14:36:54</time>
      </trkpt>
      <trkpt lat="43.36878" lon="-2.63821">
        <ele>154.6</ele>
        <time>2021-05-29 14:36:55</time>
      </trkpt>
      <trkpt lat="43.36875" lon="-2.63825">
        <ele>154.8</ele>
        <time>2021-05-29 14:36:56</time>
      </trkpt>
      <trkpt lat="43.36871" lon="-2.63828">
        <ele>155.2</ele>
        <time>2021-05-29 14:36:57</time>
      </trkpt>
      <trkpt lat="43.36868" lon="-2.63832">
        <ele>155.4</ele>
        <time>2021-05-29 14:36:58</time>
      </trkpt>
      <trkpt lat="43.36864" lon="-2.63835">
        <ele>155.6</ele>
        <time>2021-05-29 14:36:59</time>
      </trkpt>
      <trkpt lat="43.36861" lon="-2.63838">
        <ele>156</ele>
        <time>2021-05-29 14:37:00</time>
      </trkpt>
      <trkpt lat="43.36858" lon="-2.63841">
        <ele>156.6</ele>
        <time>2021-05-29 14:37:01</time>
      </trkpt>
      <trkpt lat="43.36855" lon="-2.63844">
        <ele>157</ele>
        <time>2021-05-29 14:37:02</time>
      </trkpt>
      <trkpt lat="43.36852" lon="-2.63847">
        <ele>157.2</ele>
        <time>2021-05-29 14:37:03</time>
      </trkpt>
      <trkpt lat="43.3685" lon="-2.63849">
        <ele>157.6</ele>
        <time>2021-05-29 14:37:04</time>
      </trkpt>
      <trkpt lat="43.36847" lon="-2.63852">
        <ele>157.8</ele>
        <time>2021-05-29 14:37:05</time>
      </trkpt>
      <trkpt lat="43.36844" lon="-2.63856">
        <ele>158.2</ele>
        <time>2021-05-29 14:37:06</time>
      </trkpt>
      <trkpt lat="43.36841" lon="-2.63859">
        <ele>158.8</ele>
        <time>2021-05-29 14:37:07</time>
      </trkpt>
      <trkpt lat="43.36838" lon="-2.63862">
        <ele>159</ele>
        <time>2021-05-29 14:37:08</time>
      </trkpt>
      <trkpt lat="43.36835" lon="-2.63865">
        <ele>159.2</ele>
        <time>2021-05-29 14:37:09</time>
      </trkpt>
      <trkpt lat="43.36832" lon="-2.63869">
        <ele>159.6</ele>
        <time>2021-05-29 14:37:10</time>
      </trkpt>
      <trkpt lat="43.36829" lon="-2.63872">
        <ele>159.8</ele>
        <time>2021-05-29 14:37:11</time>
      </trkpt>
      <trkpt lat="43.36826" lon="-2.63875">
        <ele>160.2</ele>
        <time>2021-05-29 14:37:12</time>
      </trkpt>
      <trkpt lat="43.36823" lon="-2.63879">
        <ele>160.2</ele>
        <time>2021-05-29 14:37:13</time>
      </trkpt>
      <trkpt lat="43.36819" lon="-2.63882">
        <ele>160.4</ele>
        <time>2021-05-29 14:37:14</time>
      </trkpt>
      <trkpt lat="43.36815" lon="-2.63886">
        <ele>160.6</ele>
        <time>2021-05-29 14:37:15</time>
      </trkpt>
      <trkpt lat="43.36811" lon="-2.6389">
        <ele>161</ele>
        <time>2021-05-29 14:37:16</time>
      </trkpt>
      <trkpt lat="43.36807" lon="-2.63894">
        <ele>161.2</ele>
        <time>2021-05-29 14:37:17</time>
      </trkpt>
      <trkpt lat="43.36803" lon="-2.63898">
        <ele>161.8</ele>
        <time>2021-05-29 14:37:18</time>
      </trkpt>
      <trkpt lat="43.36798" lon="-2.63902">
        <ele>162</ele>
        <time>2021-05-29 14:37:19</time>
      </trkpt>
      <trkpt lat="43.36793" lon="-2.63907">
        <ele>162</ele>
        <time>2021-05-29 14:37:20</time>
      </trkpt>
      <trkpt lat="43.36787" lon="-2.63911">
        <ele>162.2</ele>
        <time>2021-05-29 14:37:21</time>
      </trkpt>
      <trkpt lat="43.36783" lon="-2.63916">
        <ele>162.4</ele>
        <time>2021-05-29 14:37:22</time>
      </trkpt>
      <trkpt lat="43.36778" lon="-2.6392">
        <ele>162.6</ele>
        <time>2021-05-29 14:37:23</time>
      </trkpt>
      <trkpt lat="43.36773" lon="-2.63924">
        <ele>162.6</ele>
        <time>2021-05-29 14:37:24</time>
      </trkpt>
      <trkpt lat="43.36768" lon="-2.63928">
        <ele>162.8</ele>
        <time>2021-05-29 14:37:25</time>
      </trkpt>
      <trkpt lat="43.36763" lon="-2.63933">
        <ele>163</ele>
        <time>2021-05-29 14:37:26</time>
      </trkpt>
      <trkpt lat="43.36758" lon="-2.63937">
        <ele>163</ele>
        <time>2021-05-29 14:37:27</time>
      </trkpt>
      <trkpt lat="43.36752" lon="-2.63942">
        <ele>163</ele>
        <time>2021-05-29 14:37:28</time>
      </trkpt>
      <trkpt lat="43.36747" lon="-2.63947">
        <ele>163</ele>
        <time>2021-05-29 14:37:29</time>
      </trkpt>
      <trkpt lat="43.36742" lon="-2.63953">
        <ele>163</ele>
        <time>2021-05-29 14:37:30</time>
      </trkpt>
      <trkpt lat="43.36736" lon="-2.63957">
        <ele>163.2</ele>
        <time>2021-05-29 14:37:31</time>
      </trkpt>
      <trkpt lat="43.36731" lon="-2.63962">
        <ele>163.2</ele>
        <time>2021-05-29 14:37:32</time>
      </trkpt>
      <trkpt lat="43.36725" lon="-2.63968">
        <ele>163.2</ele>
        <time>2021-05-29 14:37:33</time>
      </trkpt>
      <trkpt lat="43.3672" lon="-2.63973">
        <ele>163.2</ele>
        <time>2021-05-29 14:37:34</time>
      </trkpt>
      <trkpt lat="43.36714" lon="-2.63979">
        <ele>163.2</ele>
        <time>2021-05-29 14:37:35</time>
      </trkpt>
      <trkpt lat="43.36709" lon="-2.63984">
        <ele>163.2</ele>
        <time>2021-05-29 14:37:36</time>
      </trkpt>
      <trkpt lat="43.36703" lon="-2.63989">
        <ele>163.4</ele>
        <time>2021-05-29 14:37:37</time>
      </trkpt>
      <trkpt lat="43.36698" lon="-2.63994">
        <ele>163.4</ele>
        <time>2021-05-29 14:37:38</time>
      </trkpt>
      <trkpt lat="43.36692" lon="-2.63999">
        <ele>163.6</ele>
        <time>2021-05-29 14:37:39</time>
      </trkpt>
      <trkpt lat="43.36686" lon="-2.64005">
        <ele>163.6</ele>
        <time>2021-05-29 14:37:40</time>
      </trkpt>
      <trkpt lat="43.3668" lon="-2.64011">
        <ele>163.6</ele>
        <time>2021-05-29 14:37:41</time>
      </trkpt>
      <trkpt lat="43.36674" lon="-2.64016">
        <ele>163.6</ele>
        <time>2021-05-29 14:37:42</time>
      </trkpt>
      <trkpt lat="43.36667" lon="-2.64023">
        <ele>163.6</ele>
        <time>2021-05-29 14:37:43</time>
      </trkpt>
      <trkpt lat="43.3666" lon="-2.6403">
        <ele>163.6</ele>
        <time>2021-05-29 14:37:44</time>
      </trkpt>
      <trkpt lat="43.36653" lon="-2.64036">
        <ele>163.6</ele>
        <time>2021-05-29 14:37:45</time>
      </trkpt>
      <trkpt lat="43.36646" lon="-2.64042">
        <ele>163.6</ele>
        <time>2021-05-29 14:37:46</time>
      </trkpt>
      <trkpt lat="43.36639" lon="-2.64048">
        <ele>163.6</ele>
        <time>2021-05-29 14:37:47</time>
      </trkpt>
      <trkpt lat="43.36632" lon="-2.64054">
        <ele>163.6</ele>
        <time>2021-05-29 14:37:48</time>
      </trkpt>
      <trkpt lat="43.36625" lon="-2.64059">
        <ele>163.6</ele>
        <time>2021-05-29 14:37:49</time>
      </trkpt>
      <trkpt lat="43.36618" lon="-2.64065">
        <ele>163.6</ele>
        <time>2021-05-29 14:37:50</time>
      </trkpt>
      <trkpt lat="43.3661" lon="-2.64071">
        <ele>163.6</ele>
        <time>2021-05-29 14:37:51</time>
      </trkpt>
      <trkpt lat="43.36603" lon="-2.64076">
        <ele>163.6</ele>
        <time>2021-05-29 14:37:52</time>
      </trkpt>
      <trkpt lat="43.36595" lon="-2.64081">
        <ele>163.6</ele>
        <time>2021-05-29 14:37:53</time>
      </trkpt>
      <trkpt lat="43.36588" lon="-2.64086">
        <ele>163.4</ele>
        <time>2021-05-29 14:37:54</time>
      </trkpt>
      <trkpt lat="43.3658" lon="-2.64091">
        <ele>163.2</ele>
        <time>2021-05-29 14:37:55</time>
      </trkpt>
      <trkpt lat="43.36572" lon="-2.64095">
        <ele>162.8</ele>
        <time>2021-05-29 14:37:56</time>
      </trkpt>
      <trkpt lat="43.36564" lon="-2.64099">
        <ele>162.8</ele>
        <time>2021-05-29 14:37:57</time>
      </trkpt>
      <trkpt lat="43.36556" lon="-2.64103">
        <ele>162.8</ele>
        <time>2021-05-29 14:37:58</time>
      </trkpt>
      <trkpt lat="43.36548" lon="-2.64106">
        <ele>162.6</ele>
        <time>2021-05-29 14:37:59</time>
      </trkpt>
      <trkpt lat="43.36539" lon="-2.64108">
        <ele>162.4</ele>
        <time>2021-05-29 14:38:00</time>
      </trkpt>
      <trkpt lat="43.36531" lon="-2.6411">
        <ele>162.4</ele>
        <time>2021-05-29 14:38:01</time>
      </trkpt>
      <trkpt lat="43.36522" lon="-2.64112">
        <ele>162.4</ele>
        <time>2021-05-29 14:38:02</time>
      </trkpt>
      <trkpt lat="43.36514" lon="-2.64113">
        <ele>162.2</ele>
        <time>2021-05-29 14:38:03</time>
      </trkpt>
      <trkpt lat="43.36506" lon="-2.64114">
        <ele>162.2</ele>
        <time>2021-05-29 14:38:04</time>
      </trkpt>
      <trkpt lat="43.36498" lon="-2.64114">
        <ele>162.2</ele>
        <time>2021-05-29 14:38:05</time>
      </trkpt>
      <trkpt lat="43.3649" lon="-2.64113">
        <ele>162.2</ele>
        <time>2021-05-29 14:38:06</time>
      </trkpt>
      <trkpt lat="43.36482" lon="-2.64112">
        <ele>162.2</ele>
        <time>2021-05-29 14:38:07</time>
      </trkpt>
      <trkpt lat="43.36474" lon="-2.6411">
        <ele>162.2</ele>
        <time>2021-05-29 14:38:08</time>
      </trkpt>
      <trkpt lat="43.36467" lon="-2.64108">
        <ele>162.2</ele>
        <time>2021-05-29 14:38:09</time>
      </trkpt>
      <trkpt lat="43.36459" lon="-2.64105">
        <ele>162.2</ele>
        <time>2021-05-29 14:38:10</time>
      </trkpt>
      <trkpt lat="43.36452" lon="-2.64101">
        <ele>162.4</ele>
        <time>2021-05-29 14:38:11</time>
      </trkpt>
      <trkpt lat="43.36446" lon="-2.64097">
        <ele>162.4</ele>
        <time>2021-05-29 14:38:12</time>
      </trkpt>
      <trkpt lat="43.36439" lon="-2.64093">
        <ele>162.4</ele>
        <time>2021-05-29 14:38:13</time>
      </trkpt>
      <trkpt lat="43.36432" lon="-2.64089">
        <ele>162.6</ele>
        <time>2021-05-29 14:38:14</time>
      </trkpt>
      <trkpt lat="43.36425" lon="-2.64086">
        <ele>162.6</ele>
        <time>2021-05-29 14:38:15</time>
      </trkpt>
      <trkpt lat="43.36418" lon="-2.64082">
        <ele>162.6</ele>
        <time>2021-05-29 14:38:16</time>
      </trkpt>
      <trkpt lat="43.36411" lon="-2.64077">
        <ele>162.8</ele>
        <time>2021-05-29 14:38:17</time>
      </trkpt>
      <trkpt lat="43.36404" lon="-2.64072">
        <ele>163</ele>
        <time>2021-05-29 14:38:18</time>
      </trkpt>
      <trkpt lat="43.36396" lon="-2.64068">
        <ele>163.2</ele>
        <time>2021-05-29 14:38:19</time>
      </trkpt>
      <trkpt lat="43.36389" lon="-2.64064">
        <ele>163.4</ele>
        <time>2021-05-29 14:38:20</time>
      </trkpt>
      <trkpt lat="43.36381" lon="-2.6406">
        <ele>163.6</ele>
        <time>2021-05-29 14:38:21</time>
      </trkpt>
      <trkpt lat="43.36373" lon="-2.64056">
        <ele>163.6</ele>
        <time>2021-05-29 14:38:22</time>
      </trkpt>
      <trkpt lat="43.36365" lon="-2.64053">
        <ele>163.6</ele>
        <time>2021-05-29 14:38:23</time>
      </trkpt>
      <trkpt lat="43.36356" lon="-2.64051">
        <ele>163.6</ele>
        <time>2021-05-29 14:38:24</time>
      </trkpt>
      <trkpt lat="43.36348" lon="-2.64048">
        <ele>163.6</ele>
        <time>2021-05-29 14:38:25</time>
      </trkpt>
      <trkpt lat="43.36339" lon="-2.64045">
        <ele>163.6</ele>
        <time>2021-05-29 14:38:26</time>
      </trkpt>
      <trkpt lat="43.36331" lon="-2.64043">
        <ele>163.6</ele>
        <time>2021-05-29 14:38:27</time>
      </trkpt>
      <trkpt lat="43.36322" lon="-2.6404">
        <ele>163.6</ele>
        <time>2021-05-29 14:38:28</time>
      </trkpt>
      <trkpt lat="43.36314" lon="-2.64036">
        <ele>163.4</ele>
        <time>2021-05-29 14:38:29</time>
      </trkpt>
      <trkpt lat="43.36305" lon="-2.64032">
        <ele>163.4</ele>
        <time>2021-05-29 14:38:30</time>
      </trkpt>
      <trkpt lat="43.36297" lon="-2.64028">
        <ele>163.2</ele>
        <time>2021-05-29 14:38:31</time>
      </trkpt>
      <trkpt lat="43.36288" lon="-2.64023">
        <ele>163.2</ele>
        <time>2021-05-29 14:38:32</time>
      </trkpt>
      <trkpt lat="43.3628" lon="-2.64019">
        <ele>163</ele>
        <time>2021-05-29 14:38:33</time>
      </trkpt>
      <trkpt lat="43.36272" lon="-2.64013">
        <ele>163</ele>
        <time>2021-05-29 14:38:34</time>
      </trkpt>
      <trkpt lat="43.36264" lon="-2.64008">
        <ele>162.8</ele>
        <time>2021-05-29 14:38:35</time>
      </trkpt>
      <trkpt lat="43.36256" lon="-2.64002">
        <ele>162.8</ele>
        <time>2021-05-29 14:38:36</time>
      </trkpt>
      <trkpt lat="43.36248" lon="-2.63996">
        <ele>162.6</ele>
        <time>2021-05-29 14:38:37</time>
      </trkpt>
      <trkpt lat="43.3624" lon="-2.63989">
        <ele>162.2</ele>
        <time>2021-05-29 14:38:38</time>
      </trkpt>
      <trkpt lat="43.36233" lon="-2.63982">
        <ele>162</ele>
        <time>2021-05-29 14:38:39</time>
      </trkpt>
      <trkpt lat="43.36226" lon="-2.63975">
        <ele>162</ele>
        <time>2021-05-29 14:38:40</time>
      </trkpt>
      <trkpt lat="43.36219" lon="-2.63968">
        <ele>161.8</ele>
        <time>2021-05-29 14:38:41</time>
      </trkpt>
      <trkpt lat="43.36212" lon="-2.63961">
        <ele>161.8</ele>
        <time>2021-05-29 14:38:42</time>
      </trkpt>
      <trkpt lat="43.36206" lon="-2.63953">
        <ele>161.6</ele>
        <time>2021-05-29 14:38:43</time>
      </trkpt>
      <trkpt lat="43.362" lon="-2.63946">
        <ele>161.6</ele>
        <time>2021-05-29 14:38:44</time>
      </trkpt>
      <trkpt lat="43.36193" lon="-2.63938">
        <ele>161.4</ele>
        <time>2021-05-29 14:38:45</time>
      </trkpt>
      <trkpt lat="43.36187" lon="-2.63931">
        <ele>161.4</ele>
        <time>2021-05-29 14:38:46</time>
      </trkpt>
      <trkpt lat="43.36181" lon="-2.63925">
        <ele>161.4</ele>
        <time>2021-05-29 14:38:47</time>
      </trkpt>
      <trkpt lat="43.36175" lon="-2.63918">
        <ele>161.4</ele>
        <time>2021-05-29 14:38:48</time>
      </trkpt>
      <trkpt lat="43.36169" lon="-2.63912">
        <ele>161.4</ele>
        <time>2021-05-29 14:38:49</time>
      </trkpt>
      <trkpt lat="43.36163" lon="-2.63906">
        <ele>161.4</ele>
        <time>2021-05-29 14:38:50</time>
      </trkpt>
      <trkpt lat="43.36157" lon="-2.63901">
        <ele>161.4</ele>
        <time>2021-05-29 14:38:51</time>
      </trkpt>
      <trkpt lat="43.36151" lon="-2.63895">
        <ele>161.4</ele>
        <time>2021-05-29 14:38:52</time>
      </trkpt>
      <trkpt lat="43.36145" lon="-2.63891">
        <ele>161.4</ele>
        <time>2021-05-29 14:38:53</time>
      </trkpt>
      <trkpt lat="43.36139" lon="-2.63886">
        <ele>161.6</ele>
        <time>2021-05-29 14:38:54</time>
      </trkpt>
      <trkpt lat="43.36133" lon="-2.63882">
        <ele>161.8</ele>
        <time>2021-05-29 14:38:55</time>
      </trkpt>
      <trkpt lat="43.36127" lon="-2.63877">
        <ele>162</ele>
        <time>2021-05-29 14:38:56</time>
      </trkpt>
      <trkpt lat="43.36121" lon="-2.63874">
        <ele>162.2</ele>
        <time>2021-05-29 14:38:57</time>
      </trkpt>
      <trkpt lat="43.36115" lon="-2.6387">
        <ele>162.4</ele>
        <time>2021-05-29 14:38:58</time>
      </trkpt>
      <trkpt lat="43.36109" lon="-2.63865">
        <ele>162.6</ele>
        <time>2021-05-29 14:38:59</time>
      </trkpt>
      <trkpt lat="43.36103" lon="-2.63861">
        <ele>163</ele>
        <time>2021-05-29 14:39:00</time>
      </trkpt>
      <trkpt lat="43.36097" lon="-2.63857">
        <ele>163.2</ele>
        <time>2021-05-29 14:39:01</time>
      </trkpt>
      <trkpt lat="43.3609" lon="-2.63852">
        <ele>163.4</ele>
        <time>2021-05-29 14:39:02</time>
      </trkpt>
      <trkpt lat="43.36084" lon="-2.63848">
        <ele>163.8</ele>
        <time>2021-05-29 14:39:03</time>
      </trkpt>
      <trkpt lat="43.36078" lon="-2.63843">
        <ele>164</ele>
        <time>2021-05-29 14:39:04</time>
      </trkpt>
      <trkpt lat="43.36071" lon="-2.63839">
        <ele>164.2</ele>
        <time>2021-05-29 14:39:05</time>
      </trkpt>
      <trkpt lat="43.36064" lon="-2.63835">
        <ele>164.2</ele>
        <time>2021-05-29 14:39:06</time>
      </trkpt>
      <trkpt lat="43.36057" lon="-2.6383">
        <ele>164.2</ele>
        <time>2021-05-29 14:39:07</time>
      </trkpt>
      <trkpt lat="43.36051" lon="-2.63826">
        <ele>164.2</ele>
        <time>2021-05-29 14:39:08</time>
      </trkpt>
      <trkpt lat="43.36044" lon="-2.63821">
        <ele>164.2</ele>
        <time>2021-05-29 14:39:09</time>
      </trkpt>
      <trkpt lat="43.36037" lon="-2.63816">
        <ele>164.2</ele>
        <time>2021-05-29 14:39:10</time>
      </trkpt>
      <trkpt lat="43.3603" lon="-2.63811">
        <ele>164.2</ele>
        <time>2021-05-29 14:39:11</time>
      </trkpt>
      <trkpt lat="43.36023" lon="-2.63807">
        <ele>164.2</ele>
        <time>2021-05-29 14:39:12</time>
      </trkpt>
      <trkpt lat="43.36016" lon="-2.63802">
        <ele>164.2</ele>
        <time>2021-05-29 14:39:13</time>
      </trkpt>
      <trkpt lat="43.36009" lon="-2.63797">
        <ele>164.2</ele>
        <time>2021-05-29 14:39:14</time>
      </trkpt>
      <trkpt lat="43.36002" lon="-2.63793">
        <ele>164.2</ele>
        <time>2021-05-29 14:39:15</time>
      </trkpt>
      <trkpt lat="43.35994" lon="-2.63789">
        <ele>164.2</ele>
        <time>2021-05-29 14:39:16</time>
      </trkpt>
      <trkpt lat="43.35987" lon="-2.63786">
        <ele>164</ele>
        <time>2021-05-29 14:39:17</time>
      </trkpt>
      <trkpt lat="43.35978" lon="-2.63785">
        <ele>164</ele>
        <time>2021-05-29 14:39:18</time>
      </trkpt>
      <trkpt lat="43.3597" lon="-2.63786">
        <ele>164</ele>
        <time>2021-05-29 14:39:19</time>
      </trkpt>
      <trkpt lat="43.35962" lon="-2.63788">
        <ele>164</ele>
        <time>2021-05-29 14:39:20</time>
      </trkpt>
      <trkpt lat="43.35956" lon="-2.63792">
        <ele>163.8</ele>
        <time>2021-05-29 14:39:21</time>
      </trkpt>
      <trkpt lat="43.35951" lon="-2.63797">
        <ele>163.6</ele>
        <time>2021-05-29 14:39:22</time>
      </trkpt>
      <trkpt lat="43.35948" lon="-2.63802">
        <ele>163.6</ele>
        <time>2021-05-29 14:39:23</time>
      </trkpt>
      <trkpt lat="43.35946" lon="-2.63808">
        <ele>163.4</ele>
        <time>2021-05-29 14:39:24</time>
      </trkpt>
      <trkpt lat="43.35943" lon="-2.63814">
        <ele>163.2</ele>
        <time>2021-05-29 14:39:25</time>
      </trkpt>
      <trkpt lat="43.3594" lon="-2.6382">
        <ele>163</ele>
        <time>2021-05-29 14:39:26</time>
      </trkpt>
      <trkpt lat="43.35937" lon="-2.63824">
        <ele>163</ele>
        <time>2021-05-29 14:39:27</time>
      </trkpt>
      <trkpt lat="43.35933" lon="-2.63828">
        <ele>163</ele>
        <time>2021-05-29 14:39:28</time>
      </trkpt>
      <trkpt lat="43.35929" lon="-2.63832">
        <ele>162.8</ele>
        <time>2021-05-29 14:39:29</time>
      </trkpt>
      <trkpt lat="43.35927" lon="-2.63839">
        <ele>162.6</ele>
        <time>2021-05-29 14:39:30</time>
      </trkpt>
      <trkpt lat="43.35926" lon="-2.63847">
        <ele>162.6</ele>
        <time>2021-05-29 14:39:31</time>
      </trkpt>
      <trkpt lat="43.35927" lon="-2.63856">
        <ele>162.4</ele>
        <time>2021-05-29 14:39:32</time>
      </trkpt>
      <trkpt lat="43.35929" lon="-2.63866">
        <ele>162.2</ele>
        <time>2021-05-29 14:39:33</time>
      </trkpt>
      <trkpt lat="43.35933" lon="-2.63876">
        <ele>162</ele>
        <time>2021-05-29 14:39:34</time>
      </trkpt>
      <trkpt lat="43.35937" lon="-2.63887">
        <ele>161.8</ele>
        <time>2021-05-29 14:39:35</time>
      </trkpt>
      <trkpt lat="43.35942" lon="-2.63897">
        <ele>161.6</ele>
        <time>2021-05-29 14:39:36</time>
      </trkpt>
      <trkpt lat="43.35948" lon="-2.63907">
        <ele>161.2</ele>
        <time>2021-05-29 14:39:37</time>
      </trkpt>
      <trkpt lat="43.35954" lon="-2.63918">
        <ele>161</ele>
        <time>2021-05-29 14:39:38</time>
      </trkpt>
      <trkpt lat="43.3596" lon="-2.63929">
        <ele>160.6</ele>
        <time>2021-05-29 14:39:39</time>
      </trkpt>
      <trkpt lat="43.35967" lon="-2.6394">
        <ele>159.8</ele>
        <time>2021-05-29 14:39:40</time>
      </trkpt>
      <trkpt lat="43.35973" lon="-2.63952">
        <ele>159.2</ele>
        <time>2021-05-29 14:39:41</time>
      </trkpt>
      <trkpt lat="43.3598" lon="-2.63964">
        <ele>158.2</ele>
        <time>2021-05-29 14:39:42</time>
      </trkpt>
      <trkpt lat="43.35987" lon="-2.63976">
        <ele>157.4</ele>
        <time>2021-05-29 14:39:43</time>
      </trkpt>
      <trkpt lat="43.35992" lon="-2.63989">
        <ele>156.6</ele>
        <time>2021-05-29 14:39:44</time>
      </trkpt>
      <trkpt lat="43.35994" lon="-2.64004">
        <ele>155.8</ele>
        <time>2021-05-29 14:39:45</time>
      </trkpt>
      <trkpt lat="43.35995" lon="-2.64019">
        <ele>155</ele>
        <time>2021-05-29 14:39:46</time>
      </trkpt>
      <trkpt lat="43.35993" lon="-2.64034">
        <ele>154.4</ele>
        <time>2021-05-29 14:39:47</time>
      </trkpt>
      <trkpt lat="43.35991" lon="-2.6405">
        <ele>153.6</ele>
        <time>2021-05-29 14:39:48</time>
      </trkpt>
      <trkpt lat="43.35989" lon="-2.64065">
        <ele>152.6</ele>
        <time>2021-05-29 14:39:49</time>
      </trkpt>
      <trkpt lat="43.35987" lon="-2.6408">
        <ele>151.8</ele>
        <time>2021-05-29 14:39:50</time>
      </trkpt>
      <trkpt lat="43.35984" lon="-2.64096">
        <ele>151</ele>
        <time>2021-05-29 14:39:51</time>
      </trkpt>
      <trkpt lat="43.35979" lon="-2.64111">
        <ele>150.2</ele>
        <time>2021-05-29 14:39:52</time>
      </trkpt>
      <trkpt lat="43.35975" lon="-2.64125">
        <ele>149.4</ele>
        <time>2021-05-29 14:39:53</time>
      </trkpt>
      <trkpt lat="43.35971" lon="-2.6414">
        <ele>148.6</ele>
        <time>2021-05-29 14:39:54</time>
      </trkpt>
      <trkpt lat="43.3597" lon="-2.64155">
        <ele>147.8</ele>
        <time>2021-05-29 14:39:55</time>
      </trkpt>
      <trkpt lat="43.35973" lon="-2.64171">
        <ele>146.8</ele>
        <time>2021-05-29 14:39:56</time>
      </trkpt>
      <trkpt lat="43.35978" lon="-2.64187">
        <ele>145.8</ele>
        <time>2021-05-29 14:39:57</time>
      </trkpt>
      <trkpt lat="43.35986" lon="-2.642">
        <ele>144.8</ele>
        <time>2021-05-29 14:39:58</time>
      </trkpt>
      <trkpt lat="43.35995" lon="-2.64211">
        <ele>144</ele>
        <time>2021-05-29 14:39:59</time>
      </trkpt>
      <trkpt lat="43.36002" lon="-2.64223">
        <ele>143</ele>
        <time>2021-05-29 14:40:00</time>
      </trkpt>
      <trkpt lat="43.36007" lon="-2.64238">
        <ele>141.8</ele>
        <time>2021-05-29 14:40:01</time>
      </trkpt>
      <trkpt lat="43.36012" lon="-2.64254">
        <ele>140.8</ele>
        <time>2021-05-29 14:40:02</time>
      </trkpt>
      <trkpt lat="43.36016" lon="-2.6427">
        <ele>140</ele>
        <time>2021-05-29 14:40:03</time>
      </trkpt>
      <trkpt lat="43.3602" lon="-2.64287">
        <ele>139.2</ele>
        <time>2021-05-29 14:40:04</time>
      </trkpt>
      <trkpt lat="43.36022" lon="-2.64304">
        <ele>138.2</ele>
        <time>2021-05-29 14:40:05</time>
      </trkpt>
      <trkpt lat="43.36022" lon="-2.64321">
        <ele>137.2</ele>
        <time>2021-05-29 14:40:06</time>
      </trkpt>
      <trkpt lat="43.36017" lon="-2.64338">
        <ele>136</ele>
        <time>2021-05-29 14:40:07</time>
      </trkpt>
      <trkpt lat="43.36013" lon="-2.64353">
        <ele>134.8</ele>
        <time>2021-05-29 14:40:08</time>
      </trkpt>
      <trkpt lat="43.36004" lon="-2.64365">
        <ele>134.2</ele>
        <time>2021-05-29 14:40:09</time>
      </trkpt>
      <trkpt lat="43.35992" lon="-2.64375">
        <ele>131.8</ele>
        <time>2021-05-29 14:40:10</time>
      </trkpt>
      <trkpt lat="43.35979" lon="-2.64386">
        <ele>130.8</ele>
        <time>2021-05-29 14:40:11</time>
      </trkpt>
      <trkpt lat="43.35968" lon="-2.64394">
        <ele>129.8</ele>
        <time>2021-05-29 14:40:12</time>
      </trkpt>
      <trkpt lat="43.35956" lon="-2.64401">
        <ele>128.6</ele>
        <time>2021-05-29 14:40:13</time>
      </trkpt>
      <trkpt lat="43.35947" lon="-2.64409">
        <ele>128</ele>
        <time>2021-05-29 14:40:14</time>
      </trkpt>
      <trkpt lat="43.35938" lon="-2.64418">
        <ele>127</ele>
        <time>2021-05-29 14:40:15</time>
      </trkpt>
      <trkpt lat="43.35931" lon="-2.6443">
        <ele>125.6</ele>
        <time>2021-05-29 14:40:16</time>
      </trkpt>
      <trkpt lat="43.35926" lon="-2.64445">
        <ele>124.4</ele>
        <time>2021-05-29 14:40:17</time>
      </trkpt>
      <trkpt lat="43.35928" lon="-2.64463">
        <ele>123.4</ele>
        <time>2021-05-29 14:40:18</time>
      </trkpt>
      <trkpt lat="43.35928" lon="-2.64479">
        <ele>122.2</ele>
        <time>2021-05-29 14:40:19</time>
      </trkpt>
      <trkpt lat="43.35928" lon="-2.64495">
        <ele>121</ele>
        <time>2021-05-29 14:40:20</time>
      </trkpt>
      <trkpt lat="43.35927" lon="-2.64509">
        <ele>119.6</ele>
        <time>2021-05-29 14:40:21</time>
      </trkpt>
      <trkpt lat="43.35923" lon="-2.64523">
        <ele>118.4</ele>
        <time>2021-05-29 14:40:22</time>
      </trkpt>
      <trkpt lat="43.35919" lon="-2.64537">
        <ele>117.6</ele>
        <time>2021-05-29 14:40:23</time>
      </trkpt>
      <trkpt lat="43.35919" lon="-2.64554">
        <ele>116.8</ele>
        <time>2021-05-29 14:40:24</time>
      </trkpt>
      <trkpt lat="43.35921" lon="-2.64571">
        <ele>115.8</ele>
        <time>2021-05-29 14:40:25</time>
      </trkpt>
      <trkpt lat="43.35926" lon="-2.64586">
        <ele>114.6</ele>
        <time>2021-05-29 14:40:26</time>
      </trkpt>
      <trkpt lat="43.35929" lon="-2.64599">
        <ele>113.8</ele>
        <time>2021-05-29 14:40:27</time>
      </trkpt>
      <trkpt lat="43.35937" lon="-2.6461">
        <ele>112.8</ele>
        <time>2021-05-29 14:40:28</time>
      </trkpt>
      <trkpt lat="43.35942" lon="-2.64621">
        <ele>111.6</ele>
        <time>2021-05-29 14:40:29</time>
      </trkpt>
      <trkpt lat="43.35947" lon="-2.64632">
        <ele>110.2</ele>
        <time>2021-05-29 14:40:30</time>
      </trkpt>
      <trkpt lat="43.35951" lon="-2.64642">
        <ele>109.2</ele>
        <time>2021-05-29 14:40:31</time>
      </trkpt>
      <trkpt lat="43.35956" lon="-2.64648">
        <ele>108.2</ele>
        <time>2021-05-29 14:40:32</time>
      </trkpt>
      <trkpt lat="43.3596" lon="-2.64654">
        <ele>107.2</ele>
        <time>2021-05-29 14:40:33</time>
      </trkpt>
      <trkpt lat="43.35952" lon="-2.64667">
        <ele>106</ele>
        <time>2021-05-29 14:40:34</time>
      </trkpt>
      <trkpt lat="43.35951" lon="-2.64677">
        <ele>104.4</ele>
        <time>2021-05-29 14:40:35</time>
      </trkpt>
      <trkpt lat="43.35948" lon="-2.64688">
        <ele>103</ele>
        <time>2021-05-29 14:40:36</time>
      </trkpt>
      <trkpt lat="43.35942" lon="-2.64699">
        <ele>101.8</ele>
        <time>2021-05-29 14:40:37</time>
      </trkpt>
      <trkpt lat="43.35929" lon="-2.64711">
        <ele>101</ele>
        <time>2021-05-29 14:40:38</time>
      </trkpt>
      <trkpt lat="43.35912" lon="-2.64724">
        <ele>100.2</ele>
        <time>2021-05-29 14:40:39</time>
      </trkpt>
      <trkpt lat="43.359" lon="-2.64733">
        <ele>100</ele>
        <time>2021-05-29 14:40:40</time>
      </trkpt>
      <trkpt lat="43.35887" lon="-2.64742">
        <ele>99.2</ele>
        <time>2021-05-29 14:40:41</time>
      </trkpt>
      <trkpt lat="43.35875" lon="-2.64749">
        <ele>98.2</ele>
        <time>2021-05-29 14:40:42</time>
      </trkpt>
      <trkpt lat="43.35863" lon="-2.64754">
        <ele>97.2</ele>
        <time>2021-05-29 14:40:43</time>
      </trkpt>
      <trkpt lat="43.35852" lon="-2.6476">
        <ele>96.6</ele>
        <time>2021-05-29 14:40:44</time>
      </trkpt>
      <trkpt lat="43.35841" lon="-2.64769">
        <ele>95</ele>
        <time>2021-05-29 14:40:45</time>
      </trkpt>
      <trkpt lat="43.35832" lon="-2.6478">
        <ele>93.8</ele>
        <time>2021-05-29 14:40:46</time>
      </trkpt>
      <trkpt lat="43.35824" lon="-2.64793">
        <ele>92.8</ele>
        <time>2021-05-29 14:40:47</time>
      </trkpt>
      <trkpt lat="43.35817" lon="-2.64808">
        <ele>92</ele>
        <time>2021-05-29 14:40:48</time>
      </trkpt>
      <trkpt lat="43.35812" lon="-2.64824">
        <ele>91.2</ele>
        <time>2021-05-29 14:40:49</time>
      </trkpt>
      <trkpt lat="43.35809" lon="-2.64842">
        <ele>90.4</ele>
        <time>2021-05-29 14:40:50</time>
      </trkpt>
      <trkpt lat="43.35809" lon="-2.6486">
        <ele>89</ele>
        <time>2021-05-29 14:40:51</time>
      </trkpt>
      <trkpt lat="43.35809" lon="-2.64878">
        <ele>87.8</ele>
        <time>2021-05-29 14:40:52</time>
      </trkpt>
      <trkpt lat="43.35809" lon="-2.64896">
        <ele>86.6</ele>
        <time>2021-05-29 14:40:53</time>
      </trkpt>
      <trkpt lat="43.35807" lon="-2.64912">
        <ele>85.2</ele>
        <time>2021-05-29 14:40:54</time>
      </trkpt>
      <trkpt lat="43.35805" lon="-2.64928">
        <ele>84.4</ele>
        <time>2021-05-29 14:40:55</time>
      </trkpt>
      <trkpt lat="43.35803" lon="-2.64941">
        <ele>83</ele>
        <time>2021-05-29 14:40:56</time>
      </trkpt>
      <trkpt lat="43.35799" lon="-2.64953">
        <ele>82</ele>
        <time>2021-05-29 14:40:57</time>
      </trkpt>
      <trkpt lat="43.35794" lon="-2.64961">
        <ele>81.2</ele>
        <time>2021-05-29 14:40:58</time>
      </trkpt>
      <trkpt lat="43.35787" lon="-2.64965">
        <ele>80.4</ele>
        <time>2021-05-29 14:40:59</time>
      </trkpt>
      <trkpt lat="43.35778" lon="-2.64965">
        <ele>79.4</ele>
        <time>2021-05-29 14:41:00</time>
      </trkpt>
      <trkpt lat="43.3577" lon="-2.64963">
        <ele>78.4</ele>
        <time>2021-05-29 14:41:01</time>
      </trkpt>
      <trkpt lat="43.35762" lon="-2.64957">
        <ele>77.6</ele>
        <time>2021-05-29 14:41:02</time>
      </trkpt>
      <trkpt lat="43.35757" lon="-2.64947">
        <ele>76.6</ele>
        <time>2021-05-29 14:41:03</time>
      </trkpt>
      <trkpt lat="43.35756" lon="-2.64935">
        <ele>75.6</ele>
        <time>2021-05-29 14:41:04</time>
      </trkpt>
      <trkpt lat="43.35758" lon="-2.64924">
        <ele>75</ele>
        <time>2021-05-29 14:41:05</time>
      </trkpt>
      <trkpt lat="43.35761" lon="-2.64913">
        <ele>74.2</ele>
        <time>2021-05-29 14:41:06</time>
      </trkpt>
      <trkpt lat="43.35766" lon="-2.64904">
        <ele>73.4</ele>
        <time>2021-05-29 14:41:07</time>
      </trkpt>
      <trkpt lat="43.3577" lon="-2.64898">
        <ele>72.6</ele>
        <time>2021-05-29 14:41:08</time>
      </trkpt>
      <trkpt lat="43.35775" lon="-2.64892">
        <ele>71.6</ele>
        <time>2021-05-29 14:41:09</time>
      </trkpt>
      <trkpt lat="43.35778" lon="-2.64886">
        <ele>71</ele>
        <time>2021-05-29 14:41:10</time>
      </trkpt>
      <trkpt lat="43.35779" lon="-2.64881">
        <ele>70.4</ele>
        <time>2021-05-29 14:41:11</time>
      </trkpt>
      <trkpt lat="43.35776" lon="-2.64876">
        <ele>69.6</ele>
        <time>2021-05-29 14:41:12</time>
      </trkpt>
      <trkpt lat="43.35771" lon="-2.64878">
        <ele>69</ele>
        <time>2021-05-29 14:41:13</time>
      </trkpt>
      <trkpt lat="43.35766" lon="-2.64883">
        <ele>68.4</ele>
        <time>2021-05-29 14:41:14</time>
      </trkpt>
      <trkpt lat="43.3576" lon="-2.6489">
        <ele>67.6</ele>
        <time>2021-05-29 14:41:15</time>
      </trkpt>
      <trkpt lat="43.35753" lon="-2.64897">
        <ele>66.6</ele>
        <time>2021-05-29 14:41:16</time>
      </trkpt>
      <trkpt lat="43.35745" lon="-2.64903">
        <ele>65.8</ele>
        <time>2021-05-29 14:41:17</time>
      </trkpt>
      <trkpt lat="43.35735" lon="-2.6491">
        <ele>65.2</ele>
        <time>2021-05-29 14:41:18</time>
      </trkpt>
      <trkpt lat="43.35726" lon="-2.64917">
        <ele>64.2</ele>
        <time>2021-05-29 14:41:19</time>
      </trkpt>
      <trkpt lat="43.35715" lon="-2.64923">
        <ele>63.6</ele>
        <time>2021-05-29 14:41:20</time>
      </trkpt>
      <trkpt lat="43.35704" lon="-2.64931">
        <ele>63</ele>
        <time>2021-05-29 14:41:21</time>
      </trkpt>
      <trkpt lat="43.35693" lon="-2.64938">
        <ele>62.2</ele>
        <time>2021-05-29 14:41:22</time>
      </trkpt>
      <trkpt lat="43.35682" lon="-2.64945">
        <ele>61.4</ele>
        <time>2021-05-29 14:41:23</time>
      </trkpt>
      <trkpt lat="43.35671" lon="-2.64951">
        <ele>60.8</ele>
        <time>2021-05-29 14:41:24</time>
      </trkpt>
      <trkpt lat="43.3566" lon="-2.64957">
        <ele>60</ele>
        <time>2021-05-29 14:41:25</time>
      </trkpt>
      <trkpt lat="43.35648" lon="-2.64961">
        <ele>58.8</ele>
        <time>2021-05-29 14:41:26</time>
      </trkpt>
      <trkpt lat="43.35635" lon="-2.64966">
        <ele>58.2</ele>
        <time>2021-05-29 14:41:27</time>
      </trkpt>
      <trkpt lat="43.35623" lon="-2.6497">
        <ele>57</ele>
        <time>2021-05-29 14:41:28</time>
      </trkpt>
      <trkpt lat="43.35611" lon="-2.64974">
        <ele>56</ele>
        <time>2021-05-29 14:41:29</time>
      </trkpt>
      <trkpt lat="43.35598" lon="-2.64978">
        <ele>55.2</ele>
        <time>2021-05-29 14:41:30</time>
      </trkpt>
      <trkpt lat="43.35586" lon="-2.64982">
        <ele>53.8</ele>
        <time>2021-05-29 14:41:31</time>
      </trkpt>
      <trkpt lat="43.35574" lon="-2.64986">
        <ele>52.8</ele>
        <time>2021-05-29 14:41:32</time>
      </trkpt>
      <trkpt lat="43.35562" lon="-2.6499">
        <ele>52</ele>
        <time>2021-05-29 14:41:33</time>
      </trkpt>
      <trkpt lat="43.35551" lon="-2.64994">
        <ele>51.4</ele>
        <time>2021-05-29 14:41:34</time>
      </trkpt>
      <trkpt lat="43.3554" lon="-2.64997">
        <ele>50.6</ele>
        <time>2021-05-29 14:41:35</time>
      </trkpt>
      <trkpt lat="43.35529" lon="-2.65001">
        <ele>50</ele>
        <time>2021-05-29 14:41:36</time>
      </trkpt>
      <trkpt lat="43.35519" lon="-2.65004">
        <ele>49.6</ele>
        <time>2021-05-29 14:41:37</time>
      </trkpt>
      <trkpt lat="43.35509" lon="-2.65007">
        <ele>49</ele>
        <time>2021-05-29 14:41:38</time>
      </trkpt>
      <trkpt lat="43.35498" lon="-2.6501">
        <ele>48.4</ele>
        <time>2021-05-29 14:41:39</time>
      </trkpt>
      <trkpt lat="43.35488" lon="-2.65014">
        <ele>48</ele>
        <time>2021-05-29 14:41:40</time>
      </trkpt>
      <trkpt lat="43.35477" lon="-2.65018">
        <ele>47.8</ele>
        <time>2021-05-29 14:41:41</time>
      </trkpt>
      <trkpt lat="43.35467" lon="-2.65021">
        <ele>47.2</ele>
        <time>2021-05-29 14:41:42</time>
      </trkpt>
      <trkpt lat="43.35457" lon="-2.65024">
        <ele>46.6</ele>
        <time>2021-05-29 14:41:43</time>
      </trkpt>
      <trkpt lat="43.35448" lon="-2.65027">
        <ele>46.4</ele>
        <time>2021-05-29 14:41:44</time>
      </trkpt>
      <trkpt lat="43.3544" lon="-2.6503">
        <ele>46.2</ele>
        <time>2021-05-29 14:41:45</time>
      </trkpt>
      <trkpt lat="43.35433" lon="-2.65032">
        <ele>45.6</ele>
        <time>2021-05-29 14:41:46</time>
      </trkpt>
      <trkpt lat="43.35427" lon="-2.65034">
        <ele>44.4</ele>
        <time>2021-05-29 14:41:47</time>
      </trkpt>
      <trkpt lat="43.3542" lon="-2.65037">
        <ele>43.6</ele>
        <time>2021-05-29 14:41:48</time>
      </trkpt>
      <trkpt lat="43.35413" lon="-2.65039">
        <ele>42.4</ele>
        <time>2021-05-29 14:41:49</time>
      </trkpt>
      <trkpt lat="43.35407" lon="-2.65042">
        <ele>41.4</ele>
        <time>2021-05-29 14:41:50</time>
      </trkpt>
      <trkpt lat="43.354" lon="-2.65045">
        <ele>40</ele>
        <time>2021-05-29 14:41:51</time>
      </trkpt>
      <trkpt lat="43.35392" lon="-2.65047">
        <ele>39</ele>
        <time>2021-05-29 14:41:52</time>
      </trkpt>
      <trkpt lat="43.35385" lon="-2.65048">
        <ele>37.6</ele>
        <time>2021-05-29 14:41:53</time>
      </trkpt>
      <trkpt lat="43.35377" lon="-2.65049">
        <ele>35.2</ele>
        <time>2021-05-29 14:41:54</time>
      </trkpt>
      <trkpt lat="43.35369" lon="-2.65052">
        <ele>34.4</ele>
        <time>2021-05-29 14:41:55</time>
      </trkpt>
      <trkpt lat="43.35362" lon="-2.65055">
        <ele>33.4</ele>
        <time>2021-05-29 14:41:56</time>
      </trkpt>
      <trkpt lat="43.35353" lon="-2.65057">
        <ele>32.6</ele>
        <time>2021-05-29 14:41:57</time>
      </trkpt>
      <trkpt lat="43.35345" lon="-2.6506">
        <ele>32</ele>
        <time>2021-05-29 14:41:58</time>
      </trkpt>
      <trkpt lat="43.35336" lon="-2.65063">
        <ele>31.6</ele>
        <time>2021-05-29 14:41:59</time>
      </trkpt>
      <trkpt lat="43.35327" lon="-2.65066">
        <ele>31.2</ele>
        <time>2021-05-29 14:42:00</time>
      </trkpt>
      <trkpt lat="43.35318" lon="-2.65069">
        <ele>31</ele>
        <time>2021-05-29 14:42:01</time>
      </trkpt>
      <trkpt lat="43.35309" lon="-2.65072">
        <ele>30.8</ele>
        <time>2021-05-29 14:42:02</time>
      </trkpt>
      <trkpt lat="43.35299" lon="-2.65075">
        <ele>30</ele>
        <time>2021-05-29 14:42:03</time>
      </trkpt>
      <trkpt lat="43.35289" lon="-2.65078">
        <ele>29.4</ele>
        <time>2021-05-29 14:42:04</time>
      </trkpt>
      <trkpt lat="43.35279" lon="-2.65081">
        <ele>29</ele>
        <time>2021-05-29 14:42:05</time>
      </trkpt>
      <trkpt lat="43.35269" lon="-2.65085">
        <ele>28.6</ele>
        <time>2021-05-29 14:42:06</time>
      </trkpt>
      <trkpt lat="43.35259" lon="-2.65089">
        <ele>28</ele>
        <time>2021-05-29 14:42:07</time>
      </trkpt>
      <trkpt lat="43.35249" lon="-2.65092">
        <ele>27.6</ele>
        <time>2021-05-29 14:42:08</time>
      </trkpt>
      <trkpt lat="43.3524" lon="-2.65095">
        <ele>27.4</ele>
        <time>2021-05-29 14:42:09</time>
      </trkpt>
      <trkpt lat="43.3523" lon="-2.65098">
        <ele>27</ele>
        <time>2021-05-29 14:42:10</time>
      </trkpt>
      <trkpt lat="43.35221" lon="-2.65101">
        <ele>26.4</ele>
        <time>2021-05-29 14:42:11</time>
      </trkpt>
      <trkpt lat="43.35211" lon="-2.65104">
        <ele>25.4</ele>
        <time>2021-05-29 14:42:12</time>
      </trkpt>
      <trkpt lat="43.35203" lon="-2.65107">
        <ele>24.8</ele>
        <time>2021-05-29 14:42:13</time>
      </trkpt>
      <trkpt lat="43.35195" lon="-2.6511">
        <ele>24.6</ele>
        <time>2021-05-29 14:42:14</time>
      </trkpt>
      <trkpt lat="43.35187" lon="-2.65113">
        <ele>24</ele>
        <time>2021-05-29 14:42:15</time>
      </trkpt>
      <trkpt lat="43.35179" lon="-2.65115">
        <ele>23.6</ele>
        <time>2021-05-29 14:42:16</time>
      </trkpt>
      <trkpt lat="43.35172" lon="-2.65118">
        <ele>23.4</ele>
        <time>2021-05-29 14:42:17</time>
      </trkpt>
      <trkpt lat="43.35165" lon="-2.6512">
        <ele>23</ele>
        <time>2021-05-29 14:42:18</time>
      </trkpt>
      <trkpt lat="43.35158" lon="-2.65122">
        <ele>22.8</ele>
        <time>2021-05-29 14:42:19</time>
      </trkpt>
      <trkpt lat="43.35152" lon="-2.65124">
        <ele>22.4</ele>
        <time>2021-05-29 14:42:20</time>
      </trkpt>
      <trkpt lat="43.35147" lon="-2.65126">
        <ele>22.2</ele>
        <time>2021-05-29 14:42:21</time>
      </trkpt>
      <trkpt lat="43.35143" lon="-2.65127">
        <ele>21.8</ele>
        <time>2021-05-29 14:42:22</time>
      </trkpt>
      <trkpt lat="43.35139" lon="-2.65128">
        <ele>21.2</ele>
        <time>2021-05-29 14:42:23</time>
      </trkpt>
      <trkpt lat="43.35136" lon="-2.65129">
        <ele>21</ele>
        <time>2021-05-29 14:42:24</time>
      </trkpt>
      <trkpt lat="43.35134" lon="-2.6513">
        <ele>20.6</ele>
        <time>2021-05-29 14:42:25</time>
      </trkpt>
      <trkpt lat="43.35131" lon="-2.65131">
        <ele>20.4</ele>
        <time>2021-05-29 14:42:26</time>
      </trkpt>
      <trkpt lat="43.35129" lon="-2.65132">
        <ele>20</ele>
        <time>2021-05-29 14:42:27</time>
      </trkpt>
      <trkpt lat="43.35127" lon="-2.65132">
        <ele>19.8</ele>
        <time>2021-05-29 14:42:28</time>
      </trkpt>
      <trkpt lat="43.35125" lon="-2.65133">
        <ele>19.4</ele>
        <time>2021-05-29 14:42:29</time>
      </trkpt>
      <trkpt lat="43.35124" lon="-2.65133">
        <ele>19.2</ele>
        <time>2021-05-29 14:42:30</time>
      </trkpt>
      <trkpt lat="43.35123" lon="-2.65133">
        <ele>19</ele>
        <time>2021-05-29 14:42:31</time>
      </trkpt>
      <trkpt lat="43.35123" lon="-2.65133">
        <ele>18.8</ele>
        <time>2021-05-29 14:42:32</time>
      </trkpt>
      <trkpt lat="43.35122" lon="-2.65133">
        <ele>18.6</ele>
        <time>2021-05-29 14:42:33</time>
      </trkpt>
      <trkpt lat="43.35122" lon="-2.65133">
        <ele>18.6</ele>
        <time>2021-05-29 14:42:34</time>
      </trkpt>
      <trkpt lat="43.3512" lon="-2.65134">
        <ele>18</ele>
        <time>2021-05-29 14:42:35</time>
      </trkpt>
      <trkpt lat="43.35118" lon="-2.65135">
        <ele>18</ele>
        <time>2021-05-29 14:42:36</time>
      </trkpt>
      <trkpt lat="43.35117" lon="-2.65135">
        <ele>18</ele>
        <time>2021-05-29 14:42:37</time>
      </trkpt>
      <trkpt lat="43.35115" lon="-2.65135">
        <ele>18</ele>
        <time>2021-05-29 14:42:38</time>
      </trkpt>
      <trkpt lat="43.35112" lon="-2.65136">
        <ele>18</ele>
        <time>2021-05-29 14:42:39</time>
      </trkpt>
      <trkpt lat="43.35108" lon="-2.65138">
        <ele>18</ele>
        <time>2021-05-29 14:42:40</time>
      </trkpt>
      <trkpt lat="43.35104" lon="-2.65139">
        <ele>18</ele>
        <time>2021-05-29 14:42:41</time>
      </trkpt>
      <trkpt lat="43.351" lon="-2.65141">
        <ele>18</ele>
        <time>2021-05-29 14:42:42</time>
      </trkpt>
      <trkpt lat="43.35096" lon="-2.65142">
        <ele>17.8</ele>
        <time>2021-05-29 14:42:43</time>
      </trkpt>
      <trkpt lat="43.35091" lon="-2.65144">
        <ele>17.6</ele>
        <time>2021-05-29 14:42:44</time>
      </trkpt>
      <trkpt lat="43.35086" lon="-2.65145">
        <ele>17.6</ele>
        <time>2021-05-29 14:42:45</time>
      </trkpt>
      <trkpt lat="43.35081" lon="-2.65147">
        <ele>17.6</ele>
        <time>2021-05-29 14:42:46</time>
      </trkpt>
      <trkpt lat="43.35076" lon="-2.65148">
        <ele>17.4</ele>
        <time>2021-05-29 14:42:47</time>
      </trkpt>
      <trkpt lat="43.35071" lon="-2.6515">
        <ele>17.4</ele>
        <time>2021-05-29 14:42:48</time>
      </trkpt>
      <trkpt lat="43.35066" lon="-2.65151">
        <ele>17.2</ele>
        <time>2021-05-29 14:42:49</time>
      </trkpt>
      <trkpt lat="43.35061" lon="-2.65153">
        <ele>17</ele>
        <time>2021-05-29 14:42:50</time>
      </trkpt>
      <trkpt lat="43.35056" lon="-2.65155">
        <ele>16.8</ele>
        <time>2021-05-29 14:42:51</time>
      </trkpt>
      <trkpt lat="43.3505" lon="-2.65157">
        <ele>16.8</ele>
        <time>2021-05-29 14:42:52</time>
      </trkpt>
      <trkpt lat="43.35044" lon="-2.65159">
        <ele>16.8</ele>
        <time>2021-05-29 14:43:00</time>
      </trkpt>
      <trkpt lat="43.35038" lon="-2.65161">
        <ele>16.4</ele>
        <time>2021-05-29 14:43:01</time>
      </trkpt>
      <trkpt lat="43.35031" lon="-2.65164">
        <ele>16.2</ele>
        <time>2021-05-29 14:43:02</time>
      </trkpt>
      <trkpt lat="43.35024" lon="-2.65166">
        <ele>15.8</ele>
        <time>2021-05-29 14:43:03</time>
      </trkpt>
      <trkpt lat="43.35017" lon="-2.65169">
        <ele>15.6</ele>
        <time>2021-05-29 14:43:04</time>
      </trkpt>
      <trkpt lat="43.3501" lon="-2.65171">
        <ele>15.6</ele>
        <time>2021-05-29 14:43:05</time>
      </trkpt>
      <trkpt lat="43.35003" lon="-2.65174">
        <ele>15.4</ele>
        <time>2021-05-29 14:43:06</time>
      </trkpt>
      <trkpt lat="43.34995" lon="-2.65176">
        <ele>15.2</ele>
        <time>2021-05-29 14:43:07</time>
      </trkpt>
      <trkpt lat="43.34987" lon="-2.65179">
        <ele>15.2</ele>
        <time>2021-05-29 14:43:08</time>
      </trkpt>
      <trkpt lat="43.34978" lon="-2.65181">
        <ele>15</ele>
        <time>2021-05-29 14:43:09</time>
      </trkpt>
      <trkpt lat="43.3497" lon="-2.65184">
        <ele>14.6</ele>
        <time>2021-05-29 14:43:10</time>
      </trkpt>
      <trkpt lat="43.34961" lon="-2.65187">
        <ele>14.4</ele>
        <time>2021-05-29 14:43:11</time>
      </trkpt>
      <trkpt lat="43.34952" lon="-2.6519">
        <ele>14</ele>
        <time>2021-05-29 14:43:12</time>
      </trkpt>
      <trkpt lat="43.34942" lon="-2.65193">
        <ele>13.6</ele>
        <time>2021-05-29 14:43:13</time>
      </trkpt>
      <trkpt lat="43.34932" lon="-2.65197">
        <ele>13.4</ele>
        <time>2021-05-29 14:43:14</time>
      </trkpt>
      <trkpt lat="43.34922" lon="-2.652">
        <ele>13</ele>
        <time>2021-05-29 14:43:15</time>
      </trkpt>
      <trkpt lat="43.34912" lon="-2.65203">
        <ele>12.6</ele>
        <time>2021-05-29 14:43:16</time>
      </trkpt>
      <trkpt lat="43.34902" lon="-2.65207">
        <ele>12</ele>
        <time>2021-05-29 14:43:17</time>
      </trkpt>
      <trkpt lat="43.34892" lon="-2.6521">
        <ele>11.4</ele>
        <time>2021-05-29 14:43:18</time>
      </trkpt>
      <trkpt lat="43.34882" lon="-2.65214">
        <ele>11.2</ele>
        <time>2021-05-29 14:43:19</time>
      </trkpt>
      <trkpt lat="43.34871" lon="-2.65217">
        <ele>10.4</ele>
        <time>2021-05-29 14:43:20</time>
      </trkpt>
      <trkpt lat="43.34861" lon="-2.65221">
        <ele>10</ele>
        <time>2021-05-29 14:43:21</time>
      </trkpt>
      <trkpt lat="43.34851" lon="-2.65224">
        <ele>9.2</ele>
        <time>2021-05-29 14:43:22</time>
      </trkpt>
      <trkpt lat="43.34841" lon="-2.65228">
        <ele>8.6</ele>
        <time>2021-05-29 14:43:23</time>
      </trkpt>
      <trkpt lat="43.34831" lon="-2.65231">
        <ele>8.2</ele>
        <time>2021-05-29 14:43:24</time>
      </trkpt>
      <trkpt lat="43.34821" lon="-2.65233">
        <ele>7.8</ele>
        <time>2021-05-29 14:43:25</time>
      </trkpt>
      <trkpt lat="43.34811" lon="-2.65236">
        <ele>7.4</ele>
        <time>2021-05-29 14:43:26</time>
      </trkpt>
      <trkpt lat="43.34802" lon="-2.65238">
        <ele>7</ele>
        <time>2021-05-29 14:43:27</time>
      </trkpt>
      <trkpt lat="43.34792" lon="-2.65242">
        <ele>6.6</ele>
        <time>2021-05-29 14:43:28</time>
      </trkpt>
      <trkpt lat="43.34782" lon="-2.65245">
        <ele>6</ele>
        <time>2021-05-29 14:43:29</time>
      </trkpt>
      <trkpt lat="43.34772" lon="-2.65249">
        <ele>5.6</ele>
        <time>2021-05-29 14:43:30</time>
      </trkpt>
      <trkpt lat="43.34762" lon="-2.65252">
        <ele>5</ele>
        <time>2021-05-29 14:43:31</time>
      </trkpt>
      <trkpt lat="43.34752" lon="-2.65255">
        <ele>4.6</ele>
        <time>2021-05-29 14:43:32</time>
      </trkpt>
      <trkpt lat="43.34742" lon="-2.65259">
        <ele>4.2</ele>
        <time>2021-05-29 14:43:33</time>
      </trkpt>
      <trkpt lat="43.34731" lon="-2.65262">
        <ele>4</ele>
        <time>2021-05-29 14:43:34</time>
      </trkpt>
      <trkpt lat="43.34721" lon="-2.65266">
        <ele>3.8</ele>
        <time>2021-05-29 14:43:35</time>
      </trkpt>
      <trkpt lat="43.3471" lon="-2.65269">
        <ele>3.6</ele>
        <time>2021-05-29 14:43:36</time>
      </trkpt>
      <trkpt lat="43.347" lon="-2.65273">
        <ele>3</ele>
        <time>2021-05-29 14:43:37</time>
      </trkpt>
      <trkpt lat="43.34689" lon="-2.65277">
        <ele>2.8</ele>
        <time>2021-05-29 14:43:38</time>
      </trkpt>
      <trkpt lat="43.34678" lon="-2.6528">
        <ele>2.6</ele>
        <time>2021-05-29 14:43:39</time>
      </trkpt>
      <trkpt lat="43.34667" lon="-2.65284">
        <ele>1.8</ele>
        <time>2021-05-29 14:43:40</time>
      </trkpt>
      <trkpt lat="43.34656" lon="-2.65288">
        <ele>1.4</ele>
        <time>2021-05-29 14:43:41</time>
      </trkpt>
      <trkpt lat="43.34645" lon="-2.65291">
        <ele>0.8</ele>
        <time>2021-05-29 14:43:42</time>
      </trkpt>
      <trkpt lat="43.34635" lon="-2.65295">
        <ele>0.6</ele>
        <time>2021-05-29 14:43:43</time>
      </trkpt>
      <trkpt lat="43.34624" lon="-2.65298">
        <time>2021-05-29 14:43:44</time>
      </trkpt>
      <trkpt lat="43.34613" lon="-2.65302">
        <ele>-0.6</ele>
        <time>2021-05-29 14:43:45</time>
      </trkpt>
      <trkpt lat="43.34602" lon="-2.65305">
        <ele>-1.2</ele>
        <time>2021-05-29 14:43:46</time>
      </trkpt>
      <trkpt lat="43.34591" lon="-2.65309">
        <ele>-1.8</ele>
        <time>2021-05-29 14:43:47</time>
      </trkpt>
      <trkpt lat="43.34581" lon="-2.65312">
        <ele>-2.4</ele>
        <time>2021-05-29 14:43:48</time>
      </trkpt>
      <trkpt lat="43.3457" lon="-2.65315">
        <ele>-2.8</ele>
        <time>2021-05-29 14:43:49</time>
      </trkpt>
      <trkpt lat="43.3456" lon="-2.65319">
        <ele>-3.2</ele>
        <time>2021-05-29 14:43:50</time>
      </trkpt>
      <trkpt lat="43.3455" lon="-2.65322">
        <ele>-3.4</ele>
        <time>2021-05-29 14:43:51</time>
      </trkpt>
      <trkpt lat="43.3454" lon="-2.65325">
        <ele>-4</ele>
        <time>2021-05-29 14:43:52</time>
      </trkpt>
      <trkpt lat="43.34531" lon="-2.65328">
        <ele>-4.4</ele>
        <time>2021-05-29 14:43:53</time>
      </trkpt>
      <trkpt lat="43.34521" lon="-2.65331">
        <ele>-4.4</ele>
        <time>2021-05-29 14:43:54</time>
      </trkpt>
      <trkpt lat="43.34511" lon="-2.65335">
        <ele>-4.6</ele>
        <time>2021-05-29 14:43:55</time>
      </trkpt>
      <trkpt lat="43.34501" lon="-2.65339">
        <ele>-4.6</ele>
        <time>2021-05-29 14:43:56</time>
      </trkpt>
      <trkpt lat="43.34491" lon="-2.65342">
        <ele>-4.8</ele>
        <time>2021-05-29 14:43:57</time>
      </trkpt>
      <trkpt lat="43.34481" lon="-2.65345">
        <ele>-4.8</ele>
        <time>2021-05-29 14:43:58</time>
      </trkpt>
      <trkpt lat="43.34471" lon="-2.65348">
        <ele>-4.8</ele>
        <time>2021-05-29 14:43:59</time>
      </trkpt>
      <trkpt lat="43.34461" lon="-2.65351">
        <ele>-5</ele>
        <time>2021-05-29 14:44:00</time>
      </trkpt>
      <trkpt lat="43.34451" lon="-2.65354">
        <ele>-5</ele>
        <time>2021-05-29 14:44:01</time>
      </trkpt>
      <trkpt lat="43.3444" lon="-2.65358">
        <ele>-5.2</ele>
        <time>2021-05-29 14:44:02</time>
      </trkpt>
      <trkpt lat="43.3443" lon="-2.65361">
        <ele>-5.2</ele>
        <time>2021-05-29 14:44:03</time>
      </trkpt>
      <trkpt lat="43.3442" lon="-2.65364">
        <ele>-5.2</ele>
        <time>2021-05-29 14:44:04</time>
      </trkpt>
      <trkpt lat="43.34409" lon="-2.65368">
        <ele>-5.6</ele>
        <time>2021-05-29 14:44:05</time>
      </trkpt>
      <trkpt lat="43.34399" lon="-2.65371">
        <ele>-6</ele>
        <time>2021-05-29 14:44:06</time>
      </trkpt>
      <trkpt lat="43.34389" lon="-2.65375">
        <ele>-6.2</ele>
        <time>2021-05-29 14:44:07</time>
      </trkpt>
      <trkpt lat="43.34378" lon="-2.65378">
        <ele>-6.6</ele>
        <time>2021-05-29 14:44:08</time>
      </trkpt>
      <trkpt lat="43.34368" lon="-2.65381">
        <ele>-7</ele>
        <time>2021-05-29 14:44:09</time>
      </trkpt>
      <trkpt lat="43.34358" lon="-2.65384">
        <ele>-7.4</ele>
        <time>2021-05-29 14:44:10</time>
      </trkpt>
      <trkpt lat="43.34348" lon="-2.65388">
        <ele>-8</ele>
        <time>2021-05-29 14:44:11</time>
      </trkpt>
      <trkpt lat="43.34338" lon="-2.65391">
        <ele>-9</ele>
        <time>2021-05-29 14:44:12</time>
      </trkpt>
      <trkpt lat="43.34328" lon="-2.65394">
        <ele>-9.2</ele>
        <time>2021-05-29 14:44:13</time>
      </trkpt>
      <trkpt lat="43.34319" lon="-2.65397">
        <ele>-9.6</ele>
        <time>2021-05-29 14:44:14</time>
      </trkpt>
      <trkpt lat="43.34309" lon="-2.654">
        <ele>-9.8</ele>
        <time>2021-05-29 14:44:15</time>
      </trkpt>
      <trkpt lat="43.343" lon="-2.65403">
        <ele>-10.4</ele>
        <time>2021-05-29 14:44:16</time>
      </trkpt>
      <trkpt lat="43.34291" lon="-2.65406">
        <ele>-10.8</ele>
        <time>2021-05-29 14:44:17</time>
      </trkpt>
      <trkpt lat="43.34282" lon="-2.65408">
        <ele>-11.2</ele>
        <time>2021-05-29 14:44:18</time>
      </trkpt>
      <trkpt lat="43.34274" lon="-2.65411">
        <ele>-11.4</ele>
        <time>2021-05-29 14:44:19</time>
      </trkpt>
      <trkpt lat="43.34265" lon="-2.65414">
        <ele>-11.6</ele>
        <time>2021-05-29 14:44:20</time>
      </trkpt>
      <trkpt lat="43.34256" lon="-2.65417">
        <ele>-11.8</ele>
        <time>2021-05-29 14:44:21</time>
      </trkpt>
      <trkpt lat="43.34247" lon="-2.6542">
        <ele>-11.8</ele>
        <time>2021-05-29 14:44:22</time>
      </trkpt>
      <trkpt lat="43.34239" lon="-2.65423">
        <ele>-11.8</ele>
        <time>2021-05-29 14:44:23</time>
      </trkpt>
      <trkpt lat="43.34231" lon="-2.65426">
        <ele>-11.8</ele>
        <time>2021-05-29 14:44:24</time>
      </trkpt>
      <trkpt lat="43.34223" lon="-2.65429">
        <ele>-12</ele>
        <time>2021-05-29 14:44:25</time>
      </trkpt>
      <trkpt lat="43.34215" lon="-2.65431">
        <ele>-12</ele>
        <time>2021-05-29 14:44:26</time>
      </trkpt>
      <trkpt lat="43.34207" lon="-2.65434">
        <ele>-12</ele>
        <time>2021-05-29 14:44:27</time>
      </trkpt>
      <trkpt lat="43.34199" lon="-2.65436">
        <ele>-12</ele>
        <time>2021-05-29 14:44:28</time>
      </trkpt>
      <trkpt lat="43.34191" lon="-2.65439">
        <ele>-12</ele>
        <time>2021-05-29 14:44:29</time>
      </trkpt>
      <trkpt lat="43.34184" lon="-2.65441">
        <ele>-12</ele>
        <time>2021-05-29 14:44:30</time>
      </trkpt>
      <trkpt lat="43.34177" lon="-2.65443">
        <ele>-11.8</ele>
        <time>2021-05-29 14:44:31</time>
      </trkpt>
      <trkpt lat="43.3417" lon="-2.65446">
        <ele>-11.8</ele>
        <time>2021-05-29 14:44:32</time>
      </trkpt>
      <trkpt lat="43.34163" lon="-2.65448">
        <ele>-11.8</ele>
        <time>2021-05-29 14:44:33</time>
      </trkpt>
      <trkpt lat="43.34156" lon="-2.6545">
        <ele>-11.8</ele>
        <time>2021-05-29 14:44:34</time>
      </trkpt>
      <trkpt lat="43.34149" lon="-2.65453">
        <ele>-11.4</ele>
        <time>2021-05-29 14:44:35</time>
      </trkpt>
      <trkpt lat="43.34142" lon="-2.65455">
        <ele>-11.2</ele>
        <time>2021-05-29 14:44:36</time>
      </trkpt>
      <trkpt lat="43.34135" lon="-2.65457">
        <ele>-11</ele>
        <time>2021-05-29 14:44:37</time>
      </trkpt>
      <trkpt lat="43.34128" lon="-2.65459">
        <ele>-10.8</ele>
        <time>2021-05-29 14:44:38</time>
      </trkpt>
      <trkpt lat="43.34121" lon="-2.65462">
        <ele>-10.6</ele>
        <time>2021-05-29 14:44:39</time>
      </trkpt>
      <trkpt lat="43.34114" lon="-2.65463">
        <ele>-10.4</ele>
        <time>2021-05-29 14:44:40</time>
      </trkpt>
      <trkpt lat="43.34107" lon="-2.65465">
        <ele>-10.4</ele>
        <time>2021-05-29 14:44:41</time>
      </trkpt>
      <trkpt lat="43.341" lon="-2.65467">
        <ele>-10.2</ele>
        <time>2021-05-29 14:44:42</time>
      </trkpt>
      <trkpt lat="43.34093" lon="-2.65469">
        <ele>-10</ele>
        <time>2021-05-29 14:44:43</time>
      </trkpt>
      <trkpt lat="43.34087" lon="-2.65471">
        <ele>-10</ele>
        <time>2021-05-29 14:44:44</time>
      </trkpt>
      <trkpt lat="43.3408" lon="-2.65473">
        <ele>-9.8</ele>
        <time>2021-05-29 14:44:45</time>
      </trkpt>
      <trkpt lat="43.34073" lon="-2.65474">
        <ele>-9.6</ele>
        <time>2021-05-29 14:44:46</time>
      </trkpt>
      <trkpt lat="43.34067" lon="-2.65476">
        <ele>-9.4</ele>
        <time>2021-05-29 14:44:47</time>
      </trkpt>
      <trkpt lat="43.3406" lon="-2.65478">
        <ele>-9.2</ele>
        <time>2021-05-29 14:44:48</time>
      </trkpt>
      <trkpt lat="43.34052" lon="-2.65479">
        <ele>-9.2</ele>
        <time>2021-05-29 14:44:49</time>
      </trkpt>
      <trkpt lat="43.34045" lon="-2.65481">
        <ele>-9.2</ele>
        <time>2021-05-29 14:44:50</time>
      </trkpt>
      <trkpt lat="43.34037" lon="-2.65483">
        <ele>-9.2</ele>
        <time>2021-05-29 14:44:51</time>
      </trkpt>
      <trkpt lat="43.3403" lon="-2.65484">
        <ele>-9.2</ele>
        <time>2021-05-29 14:44:52</time>
      </trkpt>
      <trkpt lat="43.34022" lon="-2.65486">
        <ele>-9.2</ele>
        <time>2021-05-29 14:44:53</time>
      </trkpt>
      <trkpt lat="43.34014" lon="-2.65488">
        <ele>-9.2</ele>
        <time>2021-05-29 14:44:54</time>
      </trkpt>
      <trkpt lat="43.34006" lon="-2.6549">
        <ele>-9.2</ele>
        <time>2021-05-29 14:44:55</time>
      </trkpt>
      <trkpt lat="43.33998" lon="-2.65492">
        <ele>-9.2</ele>
        <time>2021-05-29 14:44:56</time>
      </trkpt>
      <trkpt lat="43.3399" lon="-2.65494">
        <ele>-9.2</ele>
        <time>2021-05-29 14:44:57</time>
      </trkpt>
      <trkpt lat="43.33982" lon="-2.65496">
        <ele>-9.2</ele>
        <time>2021-05-29 14:44:58</time>
      </trkpt>
      <trkpt lat="43.33974" lon="-2.65498">
        <ele>-9.6</ele>
        <time>2021-05-29 14:44:59</time>
      </trkpt>
      <trkpt lat="43.33966" lon="-2.65501">
        <ele>-9.6</ele>
        <time>2021-05-29 14:45:00</time>
      </trkpt>
      <trkpt lat="43.33959" lon="-2.65504">
        <ele>-10</ele>
        <time>2021-05-29 14:45:01</time>
      </trkpt>
      <trkpt lat="43.33951" lon="-2.65509">
        <ele>-10.2</ele>
        <time>2021-05-29 14:45:02</time>
      </trkpt>
      <trkpt lat="43.33944" lon="-2.65513">
        <ele>-10.6</ele>
        <time>2021-05-29 14:45:03</time>
      </trkpt>
      <trkpt lat="43.33937" lon="-2.65518">
        <ele>-10.6</ele>
        <time>2021-05-29 14:45:04</time>
      </trkpt>
      <trkpt lat="43.33929" lon="-2.6552">
        <ele>-10.8</ele>
        <time>2021-05-29 14:45:05</time>
      </trkpt>
      <trkpt lat="43.33921" lon="-2.65519">
        <ele>-11</ele>
        <time>2021-05-29 14:45:06</time>
      </trkpt>
      <trkpt lat="43.33912" lon="-2.65517">
        <ele>-11.2</ele>
        <time>2021-05-29 14:45:07</time>
      </trkpt>
      <trkpt lat="43.33904" lon="-2.65516">
        <ele>-11.4</ele>
        <time>2021-05-29 14:45:08</time>
      </trkpt>
      <trkpt lat="43.33896" lon="-2.65516">
        <ele>-11.4</ele>
        <time>2021-05-29 14:45:09</time>
      </trkpt>
      <trkpt lat="43.33887" lon="-2.65517">
        <ele>-11.4</ele>
        <time>2021-05-29 14:45:10</time>
      </trkpt>
      <trkpt lat="43.33879" lon="-2.65519">
        <ele>-11.4</ele>
        <time>2021-05-29 14:45:11</time>
      </trkpt>
      <trkpt lat="43.33871" lon="-2.6552">
        <ele>-11.4</ele>
        <time>2021-05-29 14:45:12</time>
      </trkpt>
      <trkpt lat="43.33863" lon="-2.65522">
        <ele>-11.4</ele>
        <time>2021-05-29 14:45:13</time>
      </trkpt>
      <trkpt lat="43.33855" lon="-2.65523">
        <ele>-11.4</ele>
        <time>2021-05-29 14:45:14</time>
      </trkpt>
      <trkpt lat="43.33847" lon="-2.65524">
        <ele>-11.4</ele>
        <time>2021-05-29 14:45:15</time>
      </trkpt>
      <trkpt lat="43.33839" lon="-2.65526">
        <ele>-11.4</ele>
        <time>2021-05-29 14:45:16</time>
      </trkpt>
      <trkpt lat="43.33831" lon="-2.65527">
        <ele>-11.4</ele>
        <time>2021-05-29 14:45:17</time>
      </trkpt>
      <trkpt lat="43.33824" lon="-2.65528">
        <ele>-11.4</ele>
        <time>2021-05-29 14:45:18</time>
      </trkpt>
      <trkpt lat="43.33817" lon="-2.6553">
        <ele>-11.4</ele>
        <time>2021-05-29 14:45:19</time>
      </trkpt>
      <trkpt lat="43.3381" lon="-2.65531">
        <ele>-11.4</ele>
        <time>2021-05-29 14:45:20</time>
      </trkpt>
      <trkpt lat="43.33803" lon="-2.65532">
        <ele>-11.4</ele>
        <time>2021-05-29 14:45:21</time>
      </trkpt>
      <trkpt lat="43.33797" lon="-2.65532">
        <ele>-11.4</ele>
        <time>2021-05-29 14:45:22</time>
      </trkpt>
      <trkpt lat="43.33791" lon="-2.65532">
        <ele>-11.4</ele>
        <time>2021-05-29 14:45:23</time>
      </trkpt>
      <trkpt lat="43.33785" lon="-2.65532">
        <ele>-11.2</ele>
        <time>2021-05-29 14:45:24</time>
      </trkpt>
      <trkpt lat="43.33779" lon="-2.65531">
        <ele>-11</ele>
        <time>2021-05-29 14:45:25</time>
      </trkpt>
      <trkpt lat="43.33774" lon="-2.6553">
        <ele>-10.8</ele>
        <time>2021-05-29 14:45:26</time>
      </trkpt>
      <trkpt lat="43.33769" lon="-2.65529">
        <ele>-10.4</ele>
        <time>2021-05-29 14:45:27</time>
      </trkpt>
      <trkpt lat="43.33763" lon="-2.65528">
        <ele>-10.2</ele>
        <time>2021-05-29 14:45:28</time>
      </trkpt>
      <trkpt lat="43.33758" lon="-2.65527">
        <ele>-9.8</ele>
        <time>2021-05-29 14:45:29</time>
      </trkpt>
      <trkpt lat="43.33753" lon="-2.65526">
        <ele>-9.4</ele>
        <time>2021-05-29 14:45:30</time>
      </trkpt>
      <trkpt lat="43.33748" lon="-2.65525">
        <ele>-9</ele>
        <time>2021-05-29 14:45:31</time>
      </trkpt>
      <trkpt lat="43.33744" lon="-2.65524">
        <ele>-8.8</ele>
        <time>2021-05-29 14:45:32</time>
      </trkpt>
      <trkpt lat="43.33739" lon="-2.65523">
        <ele>-8.4</ele>
        <time>2021-05-29 14:45:33</time>
      </trkpt>
      <trkpt lat="43.33735" lon="-2.65521">
        <ele>-8</ele>
        <time>2021-05-29 14:45:34</time>
      </trkpt>
      <trkpt lat="43.3373" lon="-2.6552">
        <ele>-7.4</ele>
        <time>2021-05-29 14:45:35</time>
      </trkpt>
      <trkpt lat="43.33725" lon="-2.65519">
        <ele>-7</ele>
        <time>2021-05-29 14:45:36</time>
      </trkpt>
      <trkpt lat="43.33721" lon="-2.65518">
        <ele>-6.6</ele>
        <time>2021-05-29 14:45:37</time>
      </trkpt>
      <trkpt lat="43.33716" lon="-2.65517">
        <ele>-6.2</ele>
        <time>2021-05-29 14:45:38</time>
      </trkpt>
      <trkpt lat="43.33712" lon="-2.65515">
        <ele>-5.8</ele>
        <time>2021-05-29 14:45:39</time>
      </trkpt>
      <trkpt lat="43.33708" lon="-2.65514">
        <ele>-5.2</ele>
        <time>2021-05-29 14:45:40</time>
      </trkpt>
      <trkpt lat="43.33704" lon="-2.65512">
        <ele>-4.8</ele>
        <time>2021-05-29 14:45:41</time>
      </trkpt>
      <trkpt lat="43.33699" lon="-2.65511">
        <ele>-4.6</ele>
        <time>2021-05-29 14:45:42</time>
      </trkpt>
      <trkpt lat="43.33695" lon="-2.6551">
        <ele>-4.4</ele>
        <time>2021-05-29 14:45:43</time>
      </trkpt>
      <trkpt lat="43.33691" lon="-2.65508">
        <ele>-4</ele>
        <time>2021-05-29 14:45:44</time>
      </trkpt>
      <trkpt lat="43.33687" lon="-2.65507">
        <ele>-3.8</ele>
        <time>2021-05-29 14:45:45</time>
      </trkpt>
      <trkpt lat="43.33683" lon="-2.65505">
        <ele>-3.2</ele>
        <time>2021-05-29 14:45:46</time>
      </trkpt>
      <trkpt lat="43.33679" lon="-2.65504">
        <ele>-2.6</ele>
        <time>2021-05-29 14:45:47</time>
      </trkpt>
      <trkpt lat="43.33675" lon="-2.65502">
        <ele>-2.2</ele>
        <time>2021-05-29 14:45:48</time>
      </trkpt>
      <trkpt lat="43.33671" lon="-2.65501">
        <ele>-1.6</ele>
        <time>2021-05-29 14:45:49</time>
      </trkpt>
      <trkpt lat="43.33667" lon="-2.65499">
        <ele>-1.2</ele>
        <time>2021-05-29 14:45:50</time>
      </trkpt>
      <trkpt lat="43.33663" lon="-2.65498">
        <ele>-1.2</ele>
        <time>2021-05-29 14:45:51</time>
      </trkpt>
      <trkpt lat="43.33659" lon="-2.65496">
        <ele>-1</ele>
        <time>2021-05-29 14:45:52</time>
      </trkpt>
      <trkpt lat="43.33655" lon="-2.65494">
        <ele>-0.8</ele>
        <time>2021-05-29 14:45:53</time>
      </trkpt>
      <trkpt lat="43.33651" lon="-2.65492">
        <ele>-0.6</ele>
        <time>2021-05-29 14:45:54</time>
      </trkpt>
      <trkpt lat="43.33647" lon="-2.6549">
        <ele>-0.4</ele>
        <time>2021-05-29 14:45:55</time>
      </trkpt>
      <trkpt lat="43.33643" lon="-2.65488">
        <ele>0.2</ele>
        <time>2021-05-29 14:45:56</time>
      </trkpt>
      <trkpt lat="43.33639" lon="-2.65486">
        <ele>0.8</ele>
        <time>2021-05-29 14:45:57</time>
      </trkpt>
      <trkpt lat="43.33635" lon="-2.65484">
        <ele>1.2</ele>
        <time>2021-05-29 14:45:58</time>
      </trkpt>
      <trkpt lat="43.33632" lon="-2.65482">
        <ele>1.4</ele>
        <time>2021-05-29 14:45:59</time>
      </trkpt>
      <trkpt lat="43.33628" lon="-2.6548">
        <ele>1.6</ele>
        <time>2021-05-29 14:46:00</time>
      </trkpt>
      <trkpt lat="43.33624" lon="-2.65479">
        <ele>1.8</ele>
        <time>2021-05-29 14:46:01</time>
      </trkpt>
      <trkpt lat="43.33619" lon="-2.65477">
        <ele>2.2</ele>
        <time>2021-05-29 14:46:02</time>
      </trkpt>
      <trkpt lat="43.33615" lon="-2.65476">
        <ele>2.4</ele>
        <time>2021-05-29 14:46:03</time>
      </trkpt>
      <trkpt lat="43.33611" lon="-2.65475">
        <ele>2.8</ele>
        <time>2021-05-29 14:46:04</time>
      </trkpt>
      <trkpt lat="43.33607" lon="-2.65474">
        <ele>3.2</ele>
        <time>2021-05-29 14:46:05</time>
      </trkpt>
      <trkpt lat="43.33603" lon="-2.65473">
        <ele>3.4</ele>
        <time>2021-05-29 14:46:06</time>
      </trkpt>
      <trkpt lat="43.33598" lon="-2.65472">
        <ele>3.8</ele>
        <time>2021-05-29 14:46:07</time>
      </trkpt>
      <trkpt lat="43.33594" lon="-2.65471">
        <ele>4</ele>
        <time>2021-05-29 14:46:08</time>
      </trkpt>
      <trkpt lat="43.3359" lon="-2.6547">
        <ele>4.2</ele>
        <time>2021-05-29 14:46:09</time>
      </trkpt>
      <trkpt lat="43.33585" lon="-2.6547">
        <ele>4.6</ele>
        <time>2021-05-29 14:46:10</time>
      </trkpt>
      <trkpt lat="43.33581" lon="-2.65469">
        <ele>4.8</ele>
        <time>2021-05-29 14:46:11</time>
      </trkpt>
      <trkpt lat="43.33576" lon="-2.65469">
        <ele>5</ele>
        <time>2021-05-29 14:46:12</time>
      </trkpt>
      <trkpt lat="43.33572" lon="-2.65469">
        <ele>5.4</ele>
        <time>2021-05-29 14:46:13</time>
      </trkpt>
      <trkpt lat="43.33567" lon="-2.65469">
        <ele>6</ele>
        <time>2021-05-29 14:46:14</time>
      </trkpt>
      <trkpt lat="43.33563" lon="-2.6547">
        <ele>6.4</ele>
        <time>2021-05-29 14:46:15</time>
      </trkpt>
      <trkpt lat="43.33558" lon="-2.65471">
        <ele>6.6</ele>
        <time>2021-05-29 14:46:16</time>
      </trkpt>
      <trkpt lat="43.33554" lon="-2.65472">
        <ele>6.8</ele>
        <time>2021-05-29 14:46:17</time>
      </trkpt>
      <trkpt lat="43.3355" lon="-2.65473">
        <ele>7.2</ele>
        <time>2021-05-29 14:46:18</time>
      </trkpt>
      <trkpt lat="43.33546" lon="-2.65475">
        <ele>7.6</ele>
        <time>2021-05-29 14:46:19</time>
      </trkpt>
      <trkpt lat="43.33541" lon="-2.65477">
        <ele>7.8</ele>
        <time>2021-05-29 14:46:20</time>
      </trkpt>
      <trkpt lat="43.33537" lon="-2.65479">
        <ele>8.2</ele>
        <time>2021-05-29 14:46:21</time>
      </trkpt>
      <trkpt lat="43.33533" lon="-2.65482">
        <ele>8.4</ele>
        <time>2021-05-29 14:46:22</time>
      </trkpt>
      <trkpt lat="43.33529" lon="-2.65484">
        <ele>8.6</ele>
        <time>2021-05-29 14:46:23</time>
      </trkpt>
      <trkpt lat="43.33526" lon="-2.65487">
        <ele>9.2</ele>
        <time>2021-05-29 14:46:24</time>
      </trkpt>
      <trkpt lat="43.33522" lon="-2.65489">
        <ele>9.6</ele>
        <time>2021-05-29 14:46:25</time>
      </trkpt>
      <trkpt lat="43.33518" lon="-2.65492">
        <ele>10</ele>
        <time>2021-05-29 14:46:26</time>
      </trkpt>
      <trkpt lat="43.33515" lon="-2.65495">
        <ele>10.2</ele>
        <time>2021-05-29 14:46:27</time>
      </trkpt>
      <trkpt lat="43.33511" lon="-2.65498">
        <ele>10.6</ele>
        <time>2021-05-29 14:46:28</time>
      </trkpt>
      <trkpt lat="43.33507" lon="-2.65502">
        <ele>11</ele>
        <time>2021-05-29 14:46:29</time>
      </trkpt>
      <trkpt lat="43.33504" lon="-2.65505">
        <ele>11.4</ele>
        <time>2021-05-29 14:46:30</time>
      </trkpt>
      <trkpt lat="43.335" lon="-2.65508">
        <ele>11.8</ele>
        <time>2021-05-29 14:46:31</time>
      </trkpt>
      <trkpt lat="43.33497" lon="-2.65511">
        <ele>12.2</ele>
        <time>2021-05-29 14:46:32</time>
      </trkpt>
      <trkpt lat="43.33494" lon="-2.65515">
        <ele>12.6</ele>
        <time>2021-05-29 14:46:33</time>
      </trkpt>
      <trkpt lat="43.33491" lon="-2.65518">
        <ele>12.6</ele>
        <time>2021-05-29 14:46:34</time>
      </trkpt>
      <trkpt lat="43.33488" lon="-2.65521">
        <ele>13</ele>
        <time>2021-05-29 14:46:35</time>
      </trkpt>
      <trkpt lat="43.33485" lon="-2.65525">
        <ele>13.4</ele>
        <time>2021-05-29 14:46:36</time>
      </trkpt>
      <trkpt lat="43.33482" lon="-2.65529">
        <ele>14</ele>
        <time>2021-05-29 14:46:37</time>
      </trkpt>
      <trkpt lat="43.33479" lon="-2.65533">
        <ele>14.2</ele>
        <time>2021-05-29 14:46:38</time>
      </trkpt>
      <trkpt lat="43.33476" lon="-2.65536">
        <ele>14.4</ele>
        <time>2021-05-29 14:46:39</time>
      </trkpt>
      <trkpt lat="43.33473" lon="-2.6554">
        <ele>14.6</ele>
        <time>2021-05-29 14:46:40</time>
      </trkpt>
      <trkpt lat="43.3347" lon="-2.65544">
        <ele>15</ele>
        <time>2021-05-29 14:46:41</time>
      </trkpt>
      <trkpt lat="43.33467" lon="-2.65548">
        <ele>15.2</ele>
        <time>2021-05-29 14:46:42</time>
      </trkpt>
      <trkpt lat="43.33464" lon="-2.65552">
        <ele>15.6</ele>
        <time>2021-05-29 14:46:43</time>
      </trkpt>
      <trkpt lat="43.33461" lon="-2.65555">
        <ele>15.8</ele>
        <time>2021-05-29 14:46:44</time>
      </trkpt>
      <trkpt lat="43.33458" lon="-2.65559">
        <ele>16.2</ele>
        <time>2021-05-29 14:46:45</time>
      </trkpt>
      <trkpt lat="43.33455" lon="-2.65563">
        <ele>16.6</ele>
        <time>2021-05-29 14:46:46</time>
      </trkpt>
      <trkpt lat="43.33452" lon="-2.65567">
        <ele>16.8</ele>
        <time>2021-05-29 14:46:47</time>
      </trkpt>
      <trkpt lat="43.33449" lon="-2.65571">
        <ele>17.2</ele>
        <time>2021-05-29 14:46:48</time>
      </trkpt>
      <trkpt lat="43.33446" lon="-2.65575">
        <ele>17.6</ele>
        <time>2021-05-29 14:46:49</time>
      </trkpt>
      <trkpt lat="43.33443" lon="-2.65579">
        <ele>17.8</ele>
        <time>2021-05-29 14:46:50</time>
      </trkpt>
      <trkpt lat="43.3344" lon="-2.65583">
        <ele>18.4</ele>
        <time>2021-05-29 14:46:51</time>
      </trkpt>
      <trkpt lat="43.33437" lon="-2.65586">
        <ele>18.6</ele>
        <time>2021-05-29 14:46:52</time>
      </trkpt>
      <trkpt lat="43.33434" lon="-2.6559">
        <ele>19</ele>
        <time>2021-05-29 14:46:53</time>
      </trkpt>
      <trkpt lat="43.33431" lon="-2.65594">
        <ele>19.2</ele>
        <time>2021-05-29 14:46:54</time>
      </trkpt>
      <trkpt lat="43.33428" lon="-2.65598">
        <ele>19.4</ele>
        <time>2021-05-29 14:46:55</time>
      </trkpt>
      <trkpt lat="43.33425" lon="-2.65602">
        <ele>19.6</ele>
        <time>2021-05-29 14:46:56</time>
      </trkpt>
      <trkpt lat="43.33422" lon="-2.65606">
        <ele>19.8</ele>
        <time>2021-05-29 14:46:57</time>
      </trkpt>
      <trkpt lat="43.3342" lon="-2.6561">
        <ele>20.2</ele>
        <time>2021-05-29 14:46:58</time>
      </trkpt>
      <trkpt lat="43.33417" lon="-2.65614">
        <ele>20.6</ele>
        <time>2021-05-29 14:46:59</time>
      </trkpt>
      <trkpt lat="43.33414" lon="-2.65618">
        <ele>20.8</ele>
        <time>2021-05-29 14:47:00</time>
      </trkpt>
      <trkpt lat="43.33411" lon="-2.65621">
        <ele>21</ele>
        <time>2021-05-29 14:47:01</time>
      </trkpt>
      <trkpt lat="43.33408" lon="-2.65625">
        <ele>21.4</ele>
        <time>2021-05-29 14:47:02</time>
      </trkpt>
      <trkpt lat="43.33404" lon="-2.65629">
        <ele>21.8</ele>
        <time>2021-05-29 14:47:03</time>
      </trkpt>
      <trkpt lat="43.33401" lon="-2.65632">
        <ele>22.4</ele>
        <time>2021-05-29 14:47:04</time>
      </trkpt>
      <trkpt lat="43.33398" lon="-2.65635">
        <ele>22.6</ele>
        <time>2021-05-29 14:47:05</time>
      </trkpt>
      <trkpt lat="43.33395" lon="-2.65639">
        <ele>23</ele>
        <time>2021-05-29 14:47:06</time>
      </trkpt>
      <trkpt lat="43.33392" lon="-2.65642">
        <ele>23.2</ele>
        <time>2021-05-29 14:47:07</time>
      </trkpt>
      <trkpt lat="43.33388" lon="-2.65645">
        <ele>23.4</ele>
        <time>2021-05-29 14:47:08</time>
      </trkpt>
      <trkpt lat="43.33385" lon="-2.65648">
        <ele>23.6</ele>
        <time>2021-05-29 14:47:09</time>
      </trkpt>
      <trkpt lat="43.33382" lon="-2.6565">
        <ele>23.8</ele>
        <time>2021-05-29 14:47:10</time>
      </trkpt>
      <trkpt lat="43.33378" lon="-2.65653">
        <ele>24.2</ele>
        <time>2021-05-29 14:47:11</time>
      </trkpt>
      <trkpt lat="43.33375" lon="-2.65656">
        <ele>24.6</ele>
        <time>2021-05-29 14:47:12</time>
      </trkpt>
      <trkpt lat="43.33371" lon="-2.65658">
        <ele>25</ele>
        <time>2021-05-29 14:47:13</time>
      </trkpt>
      <trkpt lat="43.33368" lon="-2.6566">
        <ele>25.4</ele>
        <time>2021-05-29 14:47:14</time>
      </trkpt>
      <trkpt lat="43.33365" lon="-2.65662">
        <ele>25.8</ele>
        <time>2021-05-29 14:47:15</time>
      </trkpt>
      <trkpt lat="43.33361" lon="-2.65664">
        <ele>26</ele>
        <time>2021-05-29 14:47:16</time>
      </trkpt>
      <trkpt lat="43.33358" lon="-2.65666">
        <ele>26.4</ele>
        <time>2021-05-29 14:47:17</time>
      </trkpt>
      <trkpt lat="43.33354" lon="-2.65667">
        <ele>26.8</ele>
        <time>2021-05-29 14:47:18</time>
      </trkpt>
      <trkpt lat="43.3335" lon="-2.65669">
        <ele>27</ele>
        <time>2021-05-29 14:47:19</time>
      </trkpt>
      <trkpt lat="43.33347" lon="-2.6567">
        <ele>27.4</ele>
        <time>2021-05-29 14:47:20</time>
      </trkpt>
      <trkpt lat="43.33343" lon="-2.65672">
        <ele>27.6</ele>
        <time>2021-05-29 14:47:21</time>
      </trkpt>
      <trkpt lat="43.33339" lon="-2.65674">
        <ele>28</ele>
        <time>2021-05-29 14:47:22</time>
      </trkpt>
      <trkpt lat="43.33335" lon="-2.65675">
        <ele>28.4</ele>
        <time>2021-05-29 14:47:23</time>
      </trkpt>
      <trkpt lat="43.33332" lon="-2.65677">
        <ele>28.8</ele>
        <time>2021-05-29 14:47:24</time>
      </trkpt>
      <trkpt lat="43.33328" lon="-2.65678">
        <ele>29.2</ele>
        <time>2021-05-29 14:47:25</time>
      </trkpt>
      <trkpt lat="43.33324" lon="-2.6568">
        <ele>29.2</ele>
        <time>2021-05-29 14:47:26</time>
      </trkpt>
      <trkpt lat="43.3332" lon="-2.65681">
        <ele>29.6</ele>
        <time>2021-05-29 14:47:27</time>
      </trkpt>
      <trkpt lat="43.33316" lon="-2.65683">
        <ele>30</ele>
        <time>2021-05-29 14:47:28</time>
      </trkpt>
      <trkpt lat="43.33312" lon="-2.65684">
        <ele>30.2</ele>
        <time>2021-05-29 14:47:29</time>
      </trkpt>
      <trkpt lat="43.33308" lon="-2.65686">
        <ele>30.4</ele>
        <time>2021-05-29 14:47:30</time>
      </trkpt>
      <trkpt lat="43.33304" lon="-2.65687">
        <ele>30.8</ele>
        <time>2021-05-29 14:47:31</time>
      </trkpt>
      <trkpt lat="43.333" lon="-2.65689">
        <ele>31</ele>
        <time>2021-05-29 14:47:32</time>
      </trkpt>
      <trkpt lat="43.33296" lon="-2.65691">
        <ele>31.2</ele>
        <time>2021-05-29 14:47:33</time>
      </trkpt>
      <trkpt lat="43.33292" lon="-2.65693">
        <ele>31.4</ele>
        <time>2021-05-29 14:47:34</time>
      </trkpt>
      <trkpt lat="43.33288" lon="-2.65695">
        <ele>31.6</ele>
        <time>2021-05-29 14:47:35</time>
      </trkpt>
      <trkpt lat="43.33283" lon="-2.65697">
        <ele>31.8</ele>
        <time>2021-05-29 14:47:36</time>
      </trkpt>
      <trkpt lat="43.33278" lon="-2.65699">
        <ele>32.2</ele>
        <time>2021-05-29 14:47:37</time>
      </trkpt>
      <trkpt lat="43.33274" lon="-2.65702">
        <ele>32.4</ele>
        <time>2021-05-29 14:47:38</time>
      </trkpt>
      <trkpt lat="43.33269" lon="-2.65706">
        <ele>33</ele>
        <time>2021-05-29 14:47:39</time>
      </trkpt>
      <trkpt lat="43.33265" lon="-2.65709">
        <ele>33.2</ele>
        <time>2021-05-29 14:47:40</time>
      </trkpt>
      <trkpt lat="43.3326" lon="-2.65712">
        <ele>33.4</ele>
        <time>2021-05-29 14:47:41</time>
      </trkpt>
      <trkpt lat="43.33255" lon="-2.65716">
        <ele>33.6</ele>
        <time>2021-05-29 14:47:42</time>
      </trkpt>
      <trkpt lat="43.3325" lon="-2.6572">
        <ele>33.8</ele>
        <time>2021-05-29 14:47:43</time>
      </trkpt>
      <trkpt lat="43.33245" lon="-2.65725">
        <ele>34</ele>
        <time>2021-05-29 14:47:44</time>
      </trkpt>
      <trkpt lat="43.3324" lon="-2.6573">
        <ele>34.2</ele>
        <time>2021-05-29 14:47:45</time>
      </trkpt>
      <trkpt lat="43.33234" lon="-2.65735">
        <ele>34.4</ele>
        <time>2021-05-29 14:47:46</time>
      </trkpt>
      <trkpt lat="43.33228" lon="-2.6574">
        <ele>34.4</ele>
        <time>2021-05-29 14:47:47</time>
      </trkpt>
      <trkpt lat="43.33222" lon="-2.65746">
        <ele>34.4</ele>
        <time>2021-05-29 14:47:48</time>
      </trkpt>
      <trkpt lat="43.33216" lon="-2.65751">
        <ele>34.4</ele>
        <time>2021-05-29 14:47:49</time>
      </trkpt>
      <trkpt lat="43.33209" lon="-2.65757">
        <ele>34.4</ele>
        <time>2021-05-29 14:47:50</time>
      </trkpt>
      <trkpt lat="43.33203" lon="-2.65764">
        <ele>34.4</ele>
        <time>2021-05-29 14:47:51</time>
      </trkpt>
      <trkpt lat="43.33196" lon="-2.6577">
        <ele>34.4</ele>
        <time>2021-05-29 14:47:52</time>
      </trkpt>
      <trkpt lat="43.33189" lon="-2.65776">
        <ele>34.4</ele>
        <time>2021-05-29 14:47:53</time>
      </trkpt>
      <trkpt lat="43.33181" lon="-2.65783">
        <ele>34.2</ele>
        <time>2021-05-29 14:47:54</time>
      </trkpt>
      <trkpt lat="43.33174" lon="-2.6579">
        <ele>33.8</ele>
        <time>2021-05-29 14:47:55</time>
      </trkpt>
      <trkpt lat="43.33167" lon="-2.65796">
        <ele>33.4</ele>
        <time>2021-05-29 14:47:56</time>
      </trkpt>
      <trkpt lat="43.33159" lon="-2.65803">
        <ele>33</ele>
        <time>2021-05-29 14:47:57</time>
      </trkpt>
      <trkpt lat="43.33151" lon="-2.65811">
        <ele>32.6</ele>
        <time>2021-05-29 14:47:58</time>
      </trkpt>
      <trkpt lat="43.33144" lon="-2.65818">
        <ele>32.2</ele>
        <time>2021-05-29 14:47:59</time>
      </trkpt>
      <trkpt lat="43.33136" lon="-2.65825">
        <ele>31.8</ele>
        <time>2021-05-29 14:48:00</time>
      </trkpt>
      <trkpt lat="43.33128" lon="-2.65833">
        <ele>31.4</ele>
        <time>2021-05-29 14:48:01</time>
      </trkpt>
      <trkpt lat="43.33119" lon="-2.65841">
        <ele>30.8</ele>
        <time>2021-05-29 14:48:02</time>
      </trkpt>
      <trkpt lat="43.33111" lon="-2.65848">
        <ele>30.6</ele>
        <time>2021-05-29 14:48:03</time>
      </trkpt>
      <trkpt lat="43.33103" lon="-2.65856">
        <ele>30</ele>
        <time>2021-05-29 14:48:04</time>
      </trkpt>
      <trkpt lat="43.33094" lon="-2.65864">
        <ele>29.8</ele>
        <time>2021-05-29 14:48:05</time>
      </trkpt>
      <trkpt lat="43.33086" lon="-2.65873">
        <ele>29</ele>
        <time>2021-05-29 14:48:06</time>
      </trkpt>
      <trkpt lat="43.33077" lon="-2.65881">
        <ele>28.6</ele>
        <time>2021-05-29 14:48:07</time>
      </trkpt>
      <trkpt lat="43.33068" lon="-2.65889">
        <ele>28.2</ele>
        <time>2021-05-29 14:48:08</time>
      </trkpt>
      <trkpt lat="43.3306" lon="-2.65897">
        <ele>27.6</ele>
        <time>2021-05-29 14:48:09</time>
      </trkpt>
      <trkpt lat="43.33051" lon="-2.65905">
        <ele>26.8</ele>
        <time>2021-05-29 14:48:10</time>
      </trkpt>
      <trkpt lat="43.33043" lon="-2.65912">
        <ele>26.2</ele>
        <time>2021-05-29 14:48:11</time>
      </trkpt>
      <trkpt lat="43.33035" lon="-2.6592">
        <ele>25.6</ele>
        <time>2021-05-29 14:48:12</time>
      </trkpt>
      <trkpt lat="43.33027" lon="-2.65928">
        <ele>24.8</ele>
        <time>2021-05-29 14:48:13</time>
      </trkpt>
      <trkpt lat="43.33019" lon="-2.65935">
        <ele>24.4</ele>
        <time>2021-05-29 14:48:14</time>
      </trkpt>
      <trkpt lat="43.33011" lon="-2.65943">
        <ele>24.2</ele>
        <time>2021-05-29 14:48:15</time>
      </trkpt>
      <trkpt lat="43.33003" lon="-2.6595">
        <ele>24</ele>
        <time>2021-05-29 14:48:16</time>
      </trkpt>
      <trkpt lat="43.32996" lon="-2.65957">
        <ele>23.6</ele>
        <time>2021-05-29 14:48:17</time>
      </trkpt>
      <trkpt lat="43.32989" lon="-2.65964">
        <ele>23.6</ele>
        <time>2021-05-29 14:48:18</time>
      </trkpt>
      <trkpt lat="43.32981" lon="-2.65971">
        <ele>23.4</ele>
        <time>2021-05-29 14:48:19</time>
      </trkpt>
      <trkpt lat="43.32974" lon="-2.65977">
        <ele>23.4</ele>
        <time>2021-05-29 14:48:20</time>
      </trkpt>
      <trkpt lat="43.32967" lon="-2.65984">
        <ele>23.4</ele>
        <time>2021-05-29 14:48:21</time>
      </trkpt>
      <trkpt lat="43.32961" lon="-2.65991">
        <ele>23.4</ele>
        <time>2021-05-29 14:48:22</time>
      </trkpt>
      <trkpt lat="43.32954" lon="-2.65998">
        <ele>23.4</ele>
        <time>2021-05-29 14:48:23</time>
      </trkpt>
      <trkpt lat="43.32948" lon="-2.66005">
        <ele>23.4</ele>
        <time>2021-05-29 14:48:24</time>
      </trkpt>
      <trkpt lat="43.32943" lon="-2.66012">
        <ele>23.4</ele>
        <time>2021-05-29 14:48:25</time>
      </trkpt>
      <trkpt lat="43.32937" lon="-2.66021">
        <ele>23.4</ele>
        <time>2021-05-29 14:48:26</time>
      </trkpt>
      <trkpt lat="43.32932" lon="-2.6603">
        <ele>23.4</ele>
        <time>2021-05-29 14:48:27</time>
      </trkpt>
      <trkpt lat="43.32927" lon="-2.66039">
        <ele>23.4</ele>
        <time>2021-05-29 14:48:28</time>
      </trkpt>
      <trkpt lat="43.32922" lon="-2.66048">
        <ele>23.4</ele>
        <time>2021-05-29 14:48:29</time>
      </trkpt>
      <trkpt lat="43.32918" lon="-2.66057">
        <ele>23.4</ele>
        <time>2021-05-29 14:48:30</time>
      </trkpt>
      <trkpt lat="43.32913" lon="-2.66067">
        <ele>23.4</ele>
        <time>2021-05-29 14:48:31</time>
      </trkpt>
      <trkpt lat="43.32908" lon="-2.66077">
        <ele>23.2</ele>
        <time>2021-05-29 14:48:32</time>
      </trkpt>
      <trkpt lat="43.32904" lon="-2.66087">
        <ele>23.2</ele>
        <time>2021-05-29 14:48:33</time>
      </trkpt>
      <trkpt lat="43.32899" lon="-2.66097">
        <ele>23.2</ele>
        <time>2021-05-29 14:48:34</time>
      </trkpt>
      <trkpt lat="43.32894" lon="-2.66108">
        <ele>23</ele>
        <time>2021-05-29 14:48:35</time>
      </trkpt>
      <trkpt lat="43.32889" lon="-2.66118">
        <ele>23</ele>
        <time>2021-05-29 14:48:36</time>
      </trkpt>
      <trkpt lat="43.32884" lon="-2.66129">
        <ele>22.8</ele>
        <time>2021-05-29 14:48:37</time>
      </trkpt>
      <trkpt lat="43.32879" lon="-2.6614">
        <ele>22.8</ele>
        <time>2021-05-29 14:48:38</time>
      </trkpt>
      <trkpt lat="43.32873" lon="-2.66152">
        <ele>22.6</ele>
        <time>2021-05-29 14:48:39</time>
      </trkpt>
      <trkpt lat="43.32868" lon="-2.66164">
        <ele>22.4</ele>
        <time>2021-05-29 14:48:40</time>
      </trkpt>
      <trkpt lat="43.32863" lon="-2.66177">
        <ele>22.2</ele>
        <time>2021-05-29 14:48:41</time>
      </trkpt>
      <trkpt lat="43.32858" lon="-2.6619">
        <ele>22</ele>
        <time>2021-05-29 14:48:42</time>
      </trkpt>
      <trkpt lat="43.32853" lon="-2.66204">
        <ele>21.8</ele>
        <time>2021-05-29 14:48:43</time>
      </trkpt>
      <trkpt lat="43.32849" lon="-2.66219">
        <ele>21.6</ele>
        <time>2021-05-29 14:48:44</time>
      </trkpt>
      <trkpt lat="43.32844" lon="-2.66234">
        <ele>21</ele>
        <time>2021-05-29 14:48:45</time>
      </trkpt>
      <trkpt lat="43.32839" lon="-2.66249">
        <ele>20.6</ele>
        <time>2021-05-29 14:48:46</time>
      </trkpt>
      <trkpt lat="43.32834" lon="-2.66264">
        <ele>20</ele>
        <time>2021-05-29 14:48:47</time>
      </trkpt>
      <trkpt lat="43.3283" lon="-2.66279">
        <ele>19</ele>
        <time>2021-05-29 14:48:48</time>
      </trkpt>
      <trkpt lat="43.32825" lon="-2.66295">
        <ele>18.2</ele>
        <time>2021-05-29 14:48:49</time>
      </trkpt>
      <trkpt lat="43.3282" lon="-2.6631">
        <ele>17.6</ele>
        <time>2021-05-29 14:48:50</time>
      </trkpt>
      <trkpt lat="43.32815" lon="-2.66326">
        <ele>16.6</ele>
        <time>2021-05-29 14:48:51</time>
      </trkpt>
      <trkpt lat="43.3281" lon="-2.66342">
        <ele>15.6</ele>
        <time>2021-05-29 14:48:52</time>
      </trkpt>
      <trkpt lat="43.32805" lon="-2.66358">
        <ele>14.8</ele>
        <time>2021-05-29 14:48:53</time>
      </trkpt>
      <trkpt lat="43.328" lon="-2.66374">
        <ele>14</ele>
        <time>2021-05-29 14:48:54</time>
      </trkpt>
      <trkpt lat="43.32795" lon="-2.66391">
        <ele>13.2</ele>
        <time>2021-05-29 14:48:55</time>
      </trkpt>
      <trkpt lat="43.3279" lon="-2.66407">
        <ele>12.2</ele>
        <time>2021-05-29 14:48:56</time>
      </trkpt>
      <trkpt lat="43.32785" lon="-2.66424">
        <ele>11</ele>
        <time>2021-05-29 14:48:57</time>
      </trkpt>
      <trkpt lat="43.3278" lon="-2.66441">
        <ele>10.2</ele>
        <time>2021-05-29 14:48:58</time>
      </trkpt>
      <trkpt lat="43.32775" lon="-2.66457">
        <ele>9.2</ele>
        <time>2021-05-29 14:48:59</time>
      </trkpt>
      <trkpt lat="43.32769" lon="-2.66473">
        <ele>8.2</ele>
        <time>2021-05-29 14:49:00</time>
      </trkpt>
      <trkpt lat="43.32764" lon="-2.66489">
        <ele>7.6</ele>
        <time>2021-05-29 14:49:01</time>
      </trkpt>
      <trkpt lat="43.32757" lon="-2.66504">
        <ele>6.4</ele>
        <time>2021-05-29 14:49:02</time>
      </trkpt>
      <trkpt lat="43.3275" lon="-2.66519">
        <ele>5.6</ele>
        <time>2021-05-29 14:49:03</time>
      </trkpt>
      <trkpt lat="43.32743" lon="-2.66532">
        <ele>4.6</ele>
        <time>2021-05-29 14:49:04</time>
      </trkpt>
      <trkpt lat="43.32735" lon="-2.66545">
        <ele>4</ele>
        <time>2021-05-29 14:49:05</time>
      </trkpt>
      <trkpt lat="43.32726" lon="-2.66556">
        <ele>3.2</ele>
        <time>2021-05-29 14:49:06</time>
      </trkpt>
      <trkpt lat="43.32717" lon="-2.66567">
        <ele>2.2</ele>
        <time>2021-05-29 14:49:07</time>
      </trkpt>
      <trkpt lat="43.32709" lon="-2.66577">
        <ele>1.2</ele>
        <time>2021-05-29 14:49:08</time>
      </trkpt>
      <trkpt lat="43.327" lon="-2.66587">
        <ele>0.8</ele>
        <time>2021-05-29 14:49:09</time>
      </trkpt>
      <trkpt lat="43.32691" lon="-2.66596">
        <ele>0.2</ele>
        <time>2021-05-29 14:49:10</time>
      </trkpt>
      <trkpt lat="43.32683" lon="-2.66605">
        <ele>-0.4</ele>
        <time>2021-05-29 14:49:11</time>
      </trkpt>
      <trkpt lat="43.32674" lon="-2.66613">
        <ele>-0.6</ele>
        <time>2021-05-29 14:49:12</time>
      </trkpt>
      <trkpt lat="43.32666" lon="-2.6662">
        <ele>-1</ele>
        <time>2021-05-29 14:49:13</time>
      </trkpt>
      <trkpt lat="43.32657" lon="-2.66627">
        <ele>-1.2</ele>
        <time>2021-05-29 14:49:14</time>
      </trkpt>
      <trkpt lat="43.32649" lon="-2.66632">
        <ele>-1.6</ele>
        <time>2021-05-29 14:49:15</time>
      </trkpt>
      <trkpt lat="43.32641" lon="-2.66638">
        <ele>-1.6</ele>
        <time>2021-05-29 14:49:16</time>
      </trkpt>
      <trkpt lat="43.32633" lon="-2.66643">
        <ele>-1.6</ele>
        <time>2021-05-29 14:49:17</time>
      </trkpt>
      <trkpt lat="43.32625" lon="-2.66647">
        <ele>-1.8</ele>
        <time>2021-05-29 14:49:18</time>
      </trkpt>
      <trkpt lat="43.32617" lon="-2.66651">
        <ele>-1.8</ele>
        <time>2021-05-29 14:49:19</time>
      </trkpt>
      <trkpt lat="43.32609" lon="-2.66655">
        <ele>-1.8</ele>
        <time>2021-05-29 14:49:20</time>
      </trkpt>
      <trkpt lat="43.32601" lon="-2.66659">
        <ele>-1.8</ele>
        <time>2021-05-29 14:49:21</time>
      </trkpt>
      <trkpt lat="43.32592" lon="-2.66663">
        <ele>-1.8</ele>
        <time>2021-05-29 14:49:22</time>
      </trkpt>
      <trkpt lat="43.32584" lon="-2.66667">
        <ele>-1.6</ele>
        <time>2021-05-29 14:49:23</time>
      </trkpt>
      <trkpt lat="43.32576" lon="-2.66671">
        <ele>-1.4</ele>
        <time>2021-05-29 14:49:24</time>
      </trkpt>
      <trkpt lat="43.32568" lon="-2.66675">
        <ele>-1.4</ele>
        <time>2021-05-29 14:49:25</time>
      </trkpt>
      <trkpt lat="43.3256" lon="-2.66678">
        <ele>-1.4</ele>
        <time>2021-05-29 14:49:26</time>
      </trkpt>
      <trkpt lat="43.32552" lon="-2.66682">
        <ele>-1.2</ele>
        <time>2021-05-29 14:49:27</time>
      </trkpt>
      <trkpt lat="43.32544" lon="-2.66686">
        <ele>-1.2</ele>
        <time>2021-05-29 14:49:28</time>
      </trkpt>
      <trkpt lat="43.32536" lon="-2.66689">
        <ele>-1</ele>
        <time>2021-05-29 14:49:29</time>
      </trkpt>
      <trkpt lat="43.32528" lon="-2.66693">
        <ele>-1</ele>
        <time>2021-05-29 14:49:30</time>
      </trkpt>
      <trkpt lat="43.3252" lon="-2.66697">
        <ele>-1</ele>
        <time>2021-05-29 14:49:31</time>
      </trkpt>
      <trkpt lat="43.32512" lon="-2.66701">
        <ele>-1</ele>
        <time>2021-05-29 14:49:32</time>
      </trkpt>
      <trkpt lat="43.32504" lon="-2.66704">
        <ele>-1</ele>
        <time>2021-05-29 14:49:33</time>
      </trkpt>
      <trkpt lat="43.32496" lon="-2.66708">
        <ele>-1</ele>
        <time>2021-05-29 14:49:34</time>
      </trkpt>
      <trkpt lat="43.32488" lon="-2.66712">
        <ele>-1</ele>
        <time>2021-05-29 14:49:35</time>
      </trkpt>
      <trkpt lat="43.32481" lon="-2.66715">
        <ele>-1</ele>
        <time>2021-05-29 14:49:36</time>
      </trkpt>
      <trkpt lat="43.32474" lon="-2.6672">
        <ele>-1</ele>
        <time>2021-05-29 14:49:37</time>
      </trkpt>
      <trkpt lat="43.32467" lon="-2.66725">
        <ele>-1</ele>
        <time>2021-05-29 14:49:38</time>
      </trkpt>
      <trkpt lat="43.3246" lon="-2.66731">
        <ele>-1</ele>
        <time>2021-05-29 14:49:39</time>
      </trkpt>
      <trkpt lat="43.32453" lon="-2.66738">
        <ele>-1</ele>
        <time>2021-05-29 14:49:40</time>
      </trkpt>
      <trkpt lat="43.32446" lon="-2.66745">
        <ele>-1.2</ele>
        <time>2021-05-29 14:49:41</time>
      </trkpt>
      <trkpt lat="43.32439" lon="-2.66752">
        <ele>-1.2</ele>
        <time>2021-05-29 14:49:42</time>
      </trkpt>
      <trkpt lat="43.32431" lon="-2.66759">
        <ele>-1.2</ele>
        <time>2021-05-29 14:49:43</time>
      </trkpt>
      <trkpt lat="43.32424" lon="-2.66767">
        <ele>-1.2</ele>
        <time>2021-05-29 14:49:44</time>
      </trkpt>
      <trkpt lat="43.32416" lon="-2.66775">
        <ele>-1.4</ele>
        <time>2021-05-29 14:49:45</time>
      </trkpt>
      <trkpt lat="43.32408" lon="-2.66783">
        <ele>-1.4</ele>
        <time>2021-05-29 14:49:46</time>
      </trkpt>
      <trkpt lat="43.324" lon="-2.66791">
        <ele>-1.6</ele>
        <time>2021-05-29 14:49:47</time>
      </trkpt>
      <trkpt lat="43.32391" lon="-2.66799">
        <ele>-2</ele>
        <time>2021-05-29 14:49:48</time>
      </trkpt>
      <trkpt lat="43.32383" lon="-2.66808">
        <ele>-2.2</ele>
        <time>2021-05-29 14:49:49</time>
      </trkpt>
      <trkpt lat="43.32374" lon="-2.66816">
        <ele>-2.8</ele>
        <time>2021-05-29 14:49:50</time>
      </trkpt>
      <trkpt lat="43.32365" lon="-2.66825">
        <ele>-3.2</ele>
        <time>2021-05-29 14:49:51</time>
      </trkpt>
      <trkpt lat="43.32356" lon="-2.66833">
        <ele>-3.6</ele>
        <time>2021-05-29 14:49:52</time>
      </trkpt>
      <trkpt lat="43.32347" lon="-2.6684">
        <ele>-3.8</ele>
        <time>2021-05-29 14:49:53</time>
      </trkpt>
      <trkpt lat="43.32338" lon="-2.66847">
        <ele>-4.2</ele>
        <time>2021-05-29 14:49:54</time>
      </trkpt>
      <trkpt lat="43.32329" lon="-2.66854">
        <ele>-4.8</ele>
        <time>2021-05-29 14:49:55</time>
      </trkpt>
      <trkpt lat="43.32321" lon="-2.6686">
        <ele>-5.2</ele>
        <time>2021-05-29 14:49:56</time>
      </trkpt>
      <trkpt lat="43.32312" lon="-2.66867">
        <ele>-6.2</ele>
        <time>2021-05-29 14:49:57</time>
      </trkpt>
      <trkpt lat="43.32304" lon="-2.66873">
        <ele>-6.6</ele>
        <time>2021-05-29 14:49:58</time>
      </trkpt>
      <trkpt lat="43.32296" lon="-2.6688">
        <ele>-7.2</ele>
        <time>2021-05-29 14:49:59</time>
      </trkpt>
      <trkpt lat="43.32288" lon="-2.66887">
        <ele>-7.6</ele>
        <time>2021-05-29 14:50:00</time>
      </trkpt>
      <trkpt lat="43.32282" lon="-2.66894">
        <ele>-8</ele>
        <time>2021-05-29 14:50:01</time>
      </trkpt>
      <trkpt lat="43.32275" lon="-2.66901">
        <ele>-8.2</ele>
        <time>2021-05-29 14:50:02</time>
      </trkpt>
      <trkpt lat="43.32267" lon="-2.66906">
        <ele>-8.4</ele>
        <time>2021-05-29 14:50:03</time>
      </trkpt>
      <trkpt lat="43.32259" lon="-2.66908">
        <ele>-8.6</ele>
        <time>2021-05-29 14:50:04</time>
      </trkpt>
      <trkpt lat="43.32251" lon="-2.66907">
        <ele>-8.6</ele>
        <time>2021-05-29 14:50:05</time>
      </trkpt>
      <trkpt lat="43.32244" lon="-2.66905">
        <ele>-8.6</ele>
        <time>2021-05-29 14:50:06</time>
      </trkpt>
      <trkpt lat="43.32237" lon="-2.66901">
        <ele>-8.6</ele>
        <time>2021-05-29 14:50:07</time>
      </trkpt>
      <trkpt lat="43.32229" lon="-2.66898">
        <ele>-8.6</ele>
        <time>2021-05-29 14:50:08</time>
      </trkpt>
      <trkpt lat="43.32222" lon="-2.66894">
        <ele>-8.6</ele>
        <time>2021-05-29 14:50:09</time>
      </trkpt>
      <trkpt lat="43.32215" lon="-2.66891">
        <ele>-8.8</ele>
        <time>2021-05-29 14:50:10</time>
      </trkpt>
      <trkpt lat="43.32208" lon="-2.66888">
        <ele>-8.8</ele>
        <time>2021-05-29 14:50:11</time>
      </trkpt>
      <trkpt lat="43.32202" lon="-2.66886">
        <ele>-8.8</ele>
        <time>2021-05-29 14:50:12</time>
      </trkpt>
      <trkpt lat="43.32196" lon="-2.66884">
        <ele>-8.8</ele>
        <time>2021-05-29 14:50:13</time>
      </trkpt>
      <trkpt lat="43.3219" lon="-2.66881">
        <ele>-8.8</ele>
        <time>2021-05-29 14:50:14</time>
      </trkpt>
      <trkpt lat="43.32184" lon="-2.66879">
        <ele>-8.8</ele>
        <time>2021-05-29 14:50:15</time>
      </trkpt>
      <trkpt lat="43.32179" lon="-2.66876">
        <ele>-8.6</ele>
        <time>2021-05-29 14:50:16</time>
      </trkpt>
      <trkpt lat="43.32173" lon="-2.66874">
        <ele>-8.6</ele>
        <time>2021-05-29 14:50:17</time>
      </trkpt>
      <trkpt lat="43.32168" lon="-2.66871">
        <ele>-8.6</ele>
        <time>2021-05-29 14:50:18</time>
      </trkpt>
      <trkpt lat="43.32163" lon="-2.66868">
        <ele>-8.2</ele>
        <time>2021-05-29 14:50:19</time>
      </trkpt>
      <trkpt lat="43.32159" lon="-2.66865">
        <ele>-8</ele>
        <time>2021-05-29 14:50:20</time>
      </trkpt>
      <trkpt lat="43.32154" lon="-2.66863">
        <ele>-7.8</ele>
        <time>2021-05-29 14:50:21</time>
      </trkpt>
      <trkpt lat="43.32149" lon="-2.6686">
        <ele>-7.6</ele>
        <time>2021-05-29 14:50:22</time>
      </trkpt>
      <trkpt lat="43.32144" lon="-2.66857">
        <ele>-7.6</ele>
        <time>2021-05-29 14:50:23</time>
      </trkpt>
      <trkpt lat="43.32139" lon="-2.66854">
        <ele>-7.4</ele>
        <time>2021-05-29 14:50:24</time>
      </trkpt>
      <trkpt lat="43.32135" lon="-2.66851">
        <ele>-7.4</ele>
        <time>2021-05-29 14:50:25</time>
      </trkpt>
      <trkpt lat="43.32131" lon="-2.66849">
        <ele>-7.2</ele>
        <time>2021-05-29 14:50:26</time>
      </trkpt>
      <trkpt lat="43.32126" lon="-2.66846">
        <ele>-7</ele>
        <time>2021-05-29 14:50:27</time>
      </trkpt>
      <trkpt lat="43.32122" lon="-2.66843">
        <ele>-6.8</ele>
        <time>2021-05-29 14:50:28</time>
      </trkpt>
      <trkpt lat="43.32118" lon="-2.6684">
        <ele>-6.8</ele>
        <time>2021-05-29 14:50:29</time>
      </trkpt>
      <trkpt lat="43.32113" lon="-2.66838">
        <ele>-6.6</ele>
        <time>2021-05-29 14:50:30</time>
      </trkpt>
      <trkpt lat="43.32109" lon="-2.66835">
        <ele>-6.6</ele>
        <time>2021-05-29 14:50:31</time>
      </trkpt>
      <trkpt lat="43.32105" lon="-2.66832">
        <ele>-6.4</ele>
        <time>2021-05-29 14:50:32</time>
      </trkpt>
      <trkpt lat="43.321" lon="-2.6683">
        <ele>-6.4</ele>
        <time>2021-05-29 14:50:33</time>
      </trkpt>
      <trkpt lat="43.32096" lon="-2.66827">
        <ele>-6.2</ele>
        <time>2021-05-29 14:50:34</time>
      </trkpt>
      <trkpt lat="43.32092" lon="-2.66824">
        <ele>-6.2</ele>
        <time>2021-05-29 14:50:35</time>
      </trkpt>
      <trkpt lat="43.32088" lon="-2.66821">
        <ele>-6.2</ele>
        <time>2021-05-29 14:50:36</time>
      </trkpt>
      <trkpt lat="43.32084" lon="-2.66818">
        <ele>-6</ele>
        <time>2021-05-29 14:50:37</time>
      </trkpt>
      <trkpt lat="43.3208" lon="-2.66815">
        <ele>-6</ele>
        <time>2021-05-29 14:50:38</time>
      </trkpt>
      <trkpt lat="43.32077" lon="-2.66813">
        <ele>-6</ele>
        <time>2021-05-29 14:50:39</time>
      </trkpt>
      <trkpt lat="43.32073" lon="-2.6681">
        <ele>-6</ele>
        <time>2021-05-29 14:50:40</time>
      </trkpt>
      <trkpt lat="43.3207" lon="-2.66808">
        <ele>-6</ele>
        <time>2021-05-29 14:50:41</time>
      </trkpt>
      <trkpt lat="43.32068" lon="-2.66806">
        <ele>-6</ele>
        <time>2021-05-29 14:50:42</time>
      </trkpt>
      <trkpt lat="43.32065" lon="-2.66804">
        <ele>-6</ele>
        <time>2021-05-29 14:50:43</time>
      </trkpt>
      <trkpt lat="43.32062" lon="-2.66802">
        <ele>-6.2</ele>
        <time>2021-05-29 14:50:44</time>
      </trkpt>
      <trkpt lat="43.3206" lon="-2.66801">
        <ele>-6</ele>
        <time>2021-05-29 14:50:45</time>
      </trkpt>
      <trkpt lat="43.32058" lon="-2.66799">
        <ele>-6</ele>
        <time>2021-05-29 14:50:46</time>
      </trkpt>
      <trkpt lat="43.32055" lon="-2.66798">
        <ele>-6</ele>
        <time>2021-05-29 14:50:47</time>
      </trkpt>
      <trkpt lat="43.32053" lon="-2.66796">
        <ele>-5.8</ele>
        <time>2021-05-29 14:50:48</time>
      </trkpt>
      <trkpt lat="43.32051" lon="-2.66795">
        <ele>-5.8</ele>
        <time>2021-05-29 14:50:49</time>
      </trkpt>
      <trkpt lat="43.32049" lon="-2.66794">
        <ele>-5.8</ele>
        <time>2021-05-29 14:50:50</time>
      </trkpt>
      <trkpt lat="43.32048" lon="-2.66793">
        <ele>-5.8</ele>
        <time>2021-05-29 14:50:51</time>
      </trkpt>
      <trkpt lat="43.32047" lon="-2.66792">
        <ele>-5.6</ele>
        <time>2021-05-29 14:50:52</time>
      </trkpt>
      <trkpt lat="43.32047" lon="-2.66792">
        <ele>-5.6</ele>
        <time>2021-05-29 14:50:53</time>
      </trkpt>
      <trkpt lat="43.32055" lon="-2.66796">
        <ele>-5.4</ele>
        <time>2021-05-29 14:50:54</time>
      </trkpt>
      <trkpt lat="43.32056" lon="-2.66797">
        <ele>-5.4</ele>
        <time>2021-05-29 14:50:55</time>
      </trkpt>
      <trkpt lat="43.32058" lon="-2.66798">
        <ele>-5.4</ele>
        <time>2021-05-29 14:50:56</time>
      </trkpt>
      <trkpt lat="43.32059" lon="-2.66798">
        <ele>-5.4</ele>
        <time>2021-05-29 14:50:57</time>
      </trkpt>
      <trkpt lat="43.3206" lon="-2.66799">
        <ele>-5.4</ele>
        <time>2021-05-29 14:50:58</time>
      </trkpt>
      <trkpt lat="43.32061" lon="-2.668">
        <ele>-5.4</ele>
        <time>2021-05-29 14:50:59</time>
      </trkpt>
      <trkpt lat="43.32061" lon="-2.668">
        <ele>-5.4</ele>
        <time>2021-05-29 14:51:00</time>
      </trkpt>
      <trkpt lat="43.32061" lon="-2.66801">
        <ele>-5.4</ele>
        <time>2021-05-29 14:51:01</time>
      </trkpt>
      <trkpt lat="43.32059" lon="-2.66799">
        <ele>-5.8</ele>
        <time>2021-05-29 14:51:02</time>
      </trkpt>
      <trkpt lat="43.32057" lon="-2.66799">
        <ele>-5.8</ele>
        <time>2021-05-29 14:51:03</time>
      </trkpt>
      <trkpt lat="43.32055" lon="-2.66799">
        <ele>-5.8</ele>
        <time>2021-05-29 14:51:04</time>
      </trkpt>
      <trkpt lat="43.32053" lon="-2.66798">
        <ele>-5.8</ele>
        <time>2021-05-29 14:51:05</time>
      </trkpt>
      <trkpt lat="43.32051" lon="-2.66797">
        <ele>-5.8</ele>
        <time>2021-05-29 14:51:06</time>
      </trkpt>
      <trkpt lat="43.32049" lon="-2.66796">
        <ele>-5.8</ele>
        <time>2021-05-29 14:51:07</time>
      </trkpt>
      <trkpt lat="43.32047" lon="-2.66795">
        <ele>-5.8</ele>
        <time>2021-05-29 14:51:08</time>
      </trkpt>
      <trkpt lat="43.32044" lon="-2.66793">
        <ele>-5.8</ele>
        <time>2021-05-29 14:51:09</time>
      </trkpt>
      <trkpt lat="43.32041" lon="-2.66792">
        <ele>-5.8</ele>
        <time>2021-05-29 14:51:10</time>
      </trkpt>
      <trkpt lat="43.32038" lon="-2.6679">
        <ele>-5.8</ele>
        <time>2021-05-29 14:51:11</time>
      </trkpt>
      <trkpt lat="43.32034" lon="-2.66788">
        <ele>-5.8</ele>
        <time>2021-05-29 14:51:21</time>
      </trkpt>
      <trkpt lat="43.3203" lon="-2.66786">
        <ele>-5.8</ele>
        <time>2021-05-29 14:51:22</time>
      </trkpt>
      <trkpt lat="43.32025" lon="-2.66784">
        <ele>-5.8</ele>
        <time>2021-05-29 14:51:23</time>
      </trkpt>
      <trkpt lat="43.3202" lon="-2.66782">
        <ele>-5.8</ele>
        <time>2021-05-29 14:51:24</time>
      </trkpt>
      <trkpt lat="43.32015" lon="-2.6678">
        <ele>-5.8</ele>
        <time>2021-05-29 14:51:25</time>
      </trkpt>
      <trkpt lat="43.32009" lon="-2.66778">
        <ele>-5.8</ele>
        <time>2021-05-29 14:51:26</time>
      </trkpt>
      <trkpt lat="43.32004" lon="-2.66776">
        <ele>-5.8</ele>
        <time>2021-05-29 14:51:27</time>
      </trkpt>
      <trkpt lat="43.31998" lon="-2.66774">
        <ele>-5.8</ele>
        <time>2021-05-29 14:51:28</time>
      </trkpt>
      <trkpt lat="43.31992" lon="-2.66772">
        <ele>-5.6</ele>
        <time>2021-05-29 14:54:08</time>
      </trkpt>
      <trkpt lat="43.31986" lon="-2.6677">
        <ele>-5.6</ele>
        <time>2021-05-29 14:54:09</time>
      </trkpt>
      <trkpt lat="43.31981" lon="-2.66768">
        <ele>-5.6</ele>
        <time>2021-05-29 14:54:10</time>
      </trkpt>
      <trkpt lat="43.31975" lon="-2.66766">
        <ele>-5.4</ele>
        <time>2021-05-29 14:54:11</time>
      </trkpt>
      <trkpt lat="43.31969" lon="-2.66764">
        <ele>-5.4</ele>
        <time>2021-05-29 14:54:12</time>
      </trkpt>
      <trkpt lat="43.31962" lon="-2.6676">
        <ele>-5.2</ele>
        <time>2021-05-29 14:54:13</time>
      </trkpt>
      <trkpt lat="43.31956" lon="-2.66759">
        <ele>-5.2</ele>
        <time>2021-05-29 14:54:14</time>
      </trkpt>
      <trkpt lat="43.3195" lon="-2.66758">
        <ele>-5</ele>
        <time>2021-05-29 14:54:15</time>
      </trkpt>
      <trkpt lat="43.31944" lon="-2.66757">
        <ele>-4.8</ele>
        <time>2021-05-29 14:54:16</time>
      </trkpt>
      <trkpt lat="43.31938" lon="-2.66755">
        <ele>-4.8</ele>
        <time>2021-05-29 14:54:17</time>
      </trkpt>
      <trkpt lat="43.31931" lon="-2.66754">
        <ele>-4.6</ele>
        <time>2021-05-29 14:54:18</time>
      </trkpt>
      <trkpt lat="43.31925" lon="-2.66753">
        <ele>-4.4</ele>
        <time>2021-05-29 14:54:19</time>
      </trkpt>
      <trkpt lat="43.31918" lon="-2.66753">
        <ele>-4.4</ele>
        <time>2021-05-29 14:54:20</time>
      </trkpt>
      <trkpt lat="43.31912" lon="-2.66752">
        <ele>-4.2</ele>
        <time>2021-05-29 14:54:21</time>
      </trkpt>
      <trkpt lat="43.31905" lon="-2.66752">
        <ele>-4.2</ele>
        <time>2021-05-29 14:54:22</time>
      </trkpt>
      <trkpt lat="43.31898" lon="-2.66752">
        <ele>-4.2</ele>
        <time>2021-05-29 14:54:23</time>
      </trkpt>
      <trkpt lat="43.31892" lon="-2.66752">
        <ele>-4.2</ele>
        <time>2021-05-29 14:54:24</time>
      </trkpt>
      <trkpt lat="43.31885" lon="-2.66753">
        <ele>-4</ele>
        <time>2021-05-29 14:54:25</time>
      </trkpt>
      <trkpt lat="43.31878" lon="-2.66753">
        <ele>-3.8</ele>
        <time>2021-05-29 14:54:26</time>
      </trkpt>
      <trkpt lat="43.31871" lon="-2.66754">
        <ele>-3.6</ele>
        <time>2021-05-29 14:54:27</time>
      </trkpt>
      <trkpt lat="43.31864" lon="-2.66755">
        <ele>-3.6</ele>
        <time>2021-05-29 14:54:28</time>
      </trkpt>
      <trkpt lat="43.31858" lon="-2.66756">
        <ele>-3.4</ele>
        <time>2021-05-29 14:54:29</time>
      </trkpt>
      <trkpt lat="43.31851" lon="-2.66757">
        <ele>-3.4</ele>
        <time>2021-05-29 14:54:30</time>
      </trkpt>
      <trkpt lat="43.31844" lon="-2.66759">
        <ele>-3.4</ele>
        <time>2021-05-29 14:54:31</time>
      </trkpt>
      <trkpt lat="43.31837" lon="-2.6676">
        <ele>-3.2</ele>
        <time>2021-05-29 14:54:32</time>
      </trkpt>
      <trkpt lat="43.3183" lon="-2.66762">
        <ele>-3.2</ele>
        <time>2021-05-29 14:54:33</time>
      </trkpt>
      <trkpt lat="43.31823" lon="-2.66765">
        <ele>-3</ele>
        <time>2021-05-29 14:54:34</time>
      </trkpt>
      <trkpt lat="43.31816" lon="-2.66767">
        <ele>-3</ele>
        <time>2021-05-29 14:54:35</time>
      </trkpt>
      <trkpt lat="43.3181" lon="-2.6677">
        <ele>-3</ele>
        <time>2021-05-29 14:54:36</time>
      </trkpt>
      <trkpt lat="43.31803" lon="-2.66773">
        <ele>-2.8</ele>
        <time>2021-05-29 14:54:37</time>
      </trkpt>
      <trkpt lat="43.31796" lon="-2.66776">
        <ele>-2.8</ele>
        <time>2021-05-29 14:54:38</time>
      </trkpt>
      <trkpt lat="43.31789" lon="-2.66779">
        <ele>-2.8</ele>
        <time>2021-05-29 14:54:39</time>
      </trkpt>
      <trkpt lat="43.31782" lon="-2.66782">
        <ele>-2.8</ele>
        <time>2021-05-29 14:54:40</time>
      </trkpt>
      <trkpt lat="43.31775" lon="-2.66786">
        <ele>-2.8</ele>
        <time>2021-05-29 14:54:41</time>
      </trkpt>
      <trkpt lat="43.31768" lon="-2.6679">
        <ele>-2.8</ele>
        <time>2021-05-29 14:54:42</time>
      </trkpt>
      <trkpt lat="43.31762" lon="-2.66794">
        <ele>-2.6</ele>
        <time>2021-05-29 14:54:43</time>
      </trkpt>
      <trkpt lat="43.31755" lon="-2.66798">
        <ele>-2.6</ele>
        <time>2021-05-29 14:54:44</time>
      </trkpt>
      <trkpt lat="43.31748" lon="-2.66802">
        <ele>-2.6</ele>
        <time>2021-05-29 14:54:45</time>
      </trkpt>
      <trkpt lat="43.31741" lon="-2.66807">
        <ele>-2.6</ele>
        <time>2021-05-29 14:54:46</time>
      </trkpt>
      <trkpt lat="43.31735" lon="-2.66811">
        <ele>-2.4</ele>
        <time>2021-05-29 14:54:47</time>
      </trkpt>
      <trkpt lat="43.31728" lon="-2.66816">
        <ele>-2.4</ele>
        <time>2021-05-29 14:54:48</time>
      </trkpt>
      <trkpt lat="43.31722" lon="-2.66821">
        <ele>-2.4</ele>
        <time>2021-05-29 14:54:49</time>
      </trkpt>
      <trkpt lat="43.31716" lon="-2.66827">
        <ele>-2.4</ele>
        <time>2021-05-29 14:54:50</time>
      </trkpt>
      <trkpt lat="43.3171" lon="-2.66832">
        <ele>-2.2</ele>
        <time>2021-05-29 14:54:51</time>
      </trkpt>
      <trkpt lat="43.31703" lon="-2.66838">
        <ele>-2.2</ele>
        <time>2021-05-29 14:54:52</time>
      </trkpt>
      <trkpt lat="43.31697" lon="-2.66843">
        <ele>-2.2</ele>
        <time>2021-05-29 14:54:53</time>
      </trkpt>
      <trkpt lat="43.31691" lon="-2.66849">
        <ele>-2.2</ele>
        <time>2021-05-29 14:54:54</time>
      </trkpt>
      <trkpt lat="43.31685" lon="-2.66855">
        <ele>-2.2</ele>
        <time>2021-05-29 14:54:55</time>
      </trkpt>
      <trkpt lat="43.31679" lon="-2.66861">
        <ele>-2.2</ele>
        <time>2021-05-29 14:54:56</time>
      </trkpt>
      <trkpt lat="43.31673" lon="-2.66867">
        <ele>-2.2</ele>
        <time>2021-05-29 14:54:57</time>
      </trkpt>
      <trkpt lat="43.31668" lon="-2.66874">
        <ele>-2.2</ele>
        <time>2021-05-29 14:54:58</time>
      </trkpt>
      <trkpt lat="43.31656" lon="-2.66892">
        <ele>-2.2</ele>
        <time>2021-05-29 14:54:59</time>
      </trkpt>
      <trkpt lat="43.31653" lon="-2.669">
        <ele>-2.2</ele>
        <time>2021-05-29 14:55:00</time>
      </trkpt>
      <trkpt lat="43.3165" lon="-2.66902">
        <ele>-2.2</ele>
        <time>2021-05-29 14:55:01</time>
      </trkpt>
      <trkpt lat="43.31645" lon="-2.6691">
        <ele>-2.2</ele>
        <time>2021-05-29 14:55:02</time>
      </trkpt>
      <trkpt lat="43.31639" lon="-2.66918">
        <ele>-2.2</ele>
        <time>2021-05-29 14:55:03</time>
      </trkpt>
      <trkpt lat="43.31634" lon="-2.66927">
        <ele>-2.2</ele>
        <time>2021-05-29 14:55:04</time>
      </trkpt>
      <trkpt lat="43.31627" lon="-2.66935">
        <ele>-2.2</ele>
        <time>2021-05-29 14:55:05</time>
      </trkpt>
      <trkpt lat="43.3162" lon="-2.66944">
        <ele>-2.2</ele>
        <time>2021-05-29 14:55:06</time>
      </trkpt>
      <trkpt lat="43.31614" lon="-2.66952">
        <ele>-2.4</ele>
        <time>2021-05-29 14:55:07</time>
      </trkpt>
      <trkpt lat="43.31608" lon="-2.66961">
        <ele>-2.4</ele>
        <time>2021-05-29 14:55:08</time>
      </trkpt>
      <trkpt lat="43.31602" lon="-2.6697">
        <ele>-2.6</ele>
        <time>2021-05-29 14:55:09</time>
      </trkpt>
      <trkpt lat="43.31596" lon="-2.66978">
        <ele>-2.8</ele>
        <time>2021-05-29 14:55:10</time>
      </trkpt>
      <trkpt lat="43.31589" lon="-2.66987">
        <ele>-2.8</ele>
        <time>2021-05-29 14:55:11</time>
      </trkpt>
      <trkpt lat="43.31583" lon="-2.66996">
        <ele>-3.2</ele>
        <time>2021-05-29 14:55:12</time>
      </trkpt>
      <trkpt lat="43.31576" lon="-2.67006">
        <ele>-3.4</ele>
        <time>2021-05-29 14:55:13</time>
      </trkpt>
      <trkpt lat="43.31569" lon="-2.67015">
        <ele>-3.4</ele>
        <time>2021-05-29 14:55:14</time>
      </trkpt>
      <trkpt lat="43.31562" lon="-2.67024">
        <ele>-3.6</ele>
        <time>2021-05-29 14:55:15</time>
      </trkpt>
      <trkpt lat="43.31554" lon="-2.67033">
        <ele>-3.8</ele>
        <time>2021-05-29 14:55:16</time>
      </trkpt>
      <trkpt lat="43.31547" lon="-2.67042">
        <ele>-4</ele>
        <time>2021-05-29 14:55:17</time>
      </trkpt>
      <trkpt lat="43.31539" lon="-2.6705">
        <ele>-4.2</ele>
        <time>2021-05-29 14:55:18</time>
      </trkpt>
      <trkpt lat="43.31532" lon="-2.67058">
        <ele>-4.2</ele>
        <time>2021-05-29 14:55:19</time>
      </trkpt>
      <trkpt lat="43.31524" lon="-2.67067">
        <ele>-4.6</ele>
        <time>2021-05-29 14:55:20</time>
      </trkpt>
      <trkpt lat="43.31516" lon="-2.67074">
        <ele>-4.8</ele>
        <time>2021-05-29 14:55:21</time>
      </trkpt>
      <trkpt lat="43.31508" lon="-2.67082">
        <ele>-5</ele>
        <time>2021-05-29 14:55:22</time>
      </trkpt>
      <trkpt lat="43.315" lon="-2.6709">
        <ele>-5.2</ele>
        <time>2021-05-29 14:55:23</time>
      </trkpt>
      <trkpt lat="43.31492" lon="-2.67097">
        <ele>-5.4</ele>
        <time>2021-05-29 14:55:24</time>
      </trkpt>
      <trkpt lat="43.31484" lon="-2.67104">
        <ele>-5.8</ele>
        <time>2021-05-29 14:55:25</time>
      </trkpt>
      <trkpt lat="43.31476" lon="-2.67111">
        <ele>-6</ele>
        <time>2021-05-29 14:55:26</time>
      </trkpt>
      <trkpt lat="43.31468" lon="-2.67117">
        <ele>-6.2</ele>
        <time>2021-05-29 14:55:27</time>
      </trkpt>
      <trkpt lat="43.3146" lon="-2.67124">
        <ele>-6.2</ele>
        <time>2021-05-29 14:55:28</time>
      </trkpt>
      <trkpt lat="43.31452" lon="-2.6713">
        <ele>-6.4</ele>
        <time>2021-05-29 14:55:29</time>
      </trkpt>
      <trkpt lat="43.31443" lon="-2.67136">
        <ele>-6.4</ele>
        <time>2021-05-29 14:55:30</time>
      </trkpt>
      <trkpt lat="43.31435" lon="-2.67141">
        <ele>-6.4</ele>
        <time>2021-05-29 14:55:31</time>
      </trkpt>
      <trkpt lat="43.31426" lon="-2.67147">
        <ele>-6.6</ele>
        <time>2021-05-29 14:55:32</time>
      </trkpt>
      <trkpt lat="43.31418" lon="-2.67152">
        <ele>-6.6</ele>
        <time>2021-05-29 14:55:33</time>
      </trkpt>
      <trkpt lat="43.31409" lon="-2.67157">
        <ele>-6.6</ele>
        <time>2021-05-29 14:55:34</time>
      </trkpt>
      <trkpt lat="43.314" lon="-2.67162">
        <ele>-6.8</ele>
        <time>2021-05-29 14:55:35</time>
      </trkpt>
      <trkpt lat="43.31392" lon="-2.67167">
        <ele>-6.8</ele>
        <time>2021-05-29 14:55:36</time>
      </trkpt>
      <trkpt lat="43.31383" lon="-2.67171">
        <ele>-6.8</ele>
        <time>2021-05-29 14:55:37</time>
      </trkpt>
      <trkpt lat="43.31374" lon="-2.67176">
        <ele>-7</ele>
        <time>2021-05-29 14:55:38</time>
      </trkpt>
      <trkpt lat="43.31365" lon="-2.6718">
        <ele>-7</ele>
        <time>2021-05-29 14:55:39</time>
      </trkpt>
      <trkpt lat="43.31356" lon="-2.67184">
        <ele>-7.2</ele>
        <time>2021-05-29 14:55:40</time>
      </trkpt>
      <trkpt lat="43.31347" lon="-2.67188">
        <ele>-7.2</ele>
        <time>2021-05-29 14:55:41</time>
      </trkpt>
      <trkpt lat="43.31338" lon="-2.67192">
        <ele>-7.4</ele>
        <time>2021-05-29 14:55:42</time>
      </trkpt>
      <trkpt lat="43.31328" lon="-2.67196">
        <ele>-7.8</ele>
        <time>2021-05-29 14:55:43</time>
      </trkpt>
      <trkpt lat="43.31319" lon="-2.67199">
        <ele>-7.8</ele>
        <time>2021-05-29 14:55:44</time>
      </trkpt>
      <trkpt lat="43.3131" lon="-2.67203">
        <ele>-7.8</ele>
        <time>2021-05-29 14:55:45</time>
      </trkpt>
      <trkpt lat="43.31301" lon="-2.67206">
        <ele>-7.8</ele>
        <time>2021-05-29 14:55:46</time>
      </trkpt>
      <trkpt lat="43.31292" lon="-2.67209">
        <ele>-7.8</ele>
        <time>2021-05-29 14:55:47</time>
      </trkpt>
      <trkpt lat="43.31283" lon="-2.67212">
        <ele>-7.8</ele>
        <time>2021-05-29 14:55:48</time>
      </trkpt>
      <trkpt lat="43.31274" lon="-2.67215">
        <ele>-8</ele>
        <time>2021-05-29 14:55:49</time>
      </trkpt>
      <trkpt lat="43.31265" lon="-2.67218">
        <ele>-8</ele>
        <time>2021-05-29 14:55:50</time>
      </trkpt>
      <trkpt lat="43.31256" lon="-2.67221">
        <ele>-8</ele>
        <time>2021-05-29 14:55:51</time>
      </trkpt>
      <trkpt lat="43.31248" lon="-2.67224">
        <ele>-8</ele>
        <time>2021-05-29 14:55:52</time>
      </trkpt>
      <trkpt lat="43.31239" lon="-2.67227">
        <ele>-8</ele>
        <time>2021-05-29 14:55:53</time>
      </trkpt>
      <trkpt lat="43.3123" lon="-2.6723">
        <ele>-8</ele>
        <time>2021-05-29 14:55:54</time>
      </trkpt>
      <trkpt lat="43.31222" lon="-2.67233">
        <ele>-8</ele>
        <time>2021-05-29 14:55:55</time>
      </trkpt>
      <trkpt lat="43.31213" lon="-2.67236">
        <ele>-8</ele>
        <time>2021-05-29 14:55:56</time>
      </trkpt>
      <trkpt lat="43.31204" lon="-2.6724">
        <ele>-8.2</ele>
        <time>2021-05-29 14:55:57</time>
      </trkpt>
      <trkpt lat="43.31196" lon="-2.67243">
        <ele>-8.2</ele>
        <time>2021-05-29 14:55:58</time>
      </trkpt>
      <trkpt lat="43.31188" lon="-2.67246">
        <ele>-8.2</ele>
        <time>2021-05-29 14:55:59</time>
      </trkpt>
      <trkpt lat="43.31179" lon="-2.67249">
        <ele>-8.2</ele>
        <time>2021-05-29 14:56:00</time>
      </trkpt>
      <trkpt lat="43.31171" lon="-2.67252">
        <ele>-8.2</ele>
        <time>2021-05-29 14:56:01</time>
      </trkpt>
      <trkpt lat="43.31164" lon="-2.67255">
        <ele>-8.2</ele>
        <time>2021-05-29 14:56:02</time>
      </trkpt>
      <trkpt lat="43.31156" lon="-2.67258">
        <ele>-8.2</ele>
        <time>2021-05-29 14:56:03</time>
      </trkpt>
      <trkpt lat="43.31149" lon="-2.67262">
        <ele>-8</ele>
        <time>2021-05-29 14:56:04</time>
      </trkpt>
      <trkpt lat="43.31141" lon="-2.67265">
        <ele>-8</ele>
        <time>2021-05-29 14:56:05</time>
      </trkpt>
      <trkpt lat="43.31135" lon="-2.67268">
        <ele>-8</ele>
        <time>2021-05-29 14:56:06</time>
      </trkpt>
      <trkpt lat="43.31128" lon="-2.67271">
        <ele>-8</ele>
        <time>2021-05-29 14:56:07</time>
      </trkpt>
      <trkpt lat="43.31122" lon="-2.67274">
        <ele>-8</ele>
        <time>2021-05-29 14:56:08</time>
      </trkpt>
      <trkpt lat="43.31115" lon="-2.67276">
        <ele>-8</ele>
        <time>2021-05-29 14:56:09</time>
      </trkpt>
      <trkpt lat="43.31108" lon="-2.6728">
        <ele>-8</ele>
        <time>2021-05-29 14:56:10</time>
      </trkpt>
      <trkpt lat="43.31101" lon="-2.67283">
        <ele>-8</ele>
        <time>2021-05-29 14:56:11</time>
      </trkpt>
      <trkpt lat="43.31094" lon="-2.67286">
        <ele>-7.8</ele>
        <time>2021-05-29 14:56:12</time>
      </trkpt>
      <trkpt lat="43.31086" lon="-2.67288">
        <ele>-7.8</ele>
        <time>2021-05-29 14:56:13</time>
      </trkpt>
      <trkpt lat="43.31079" lon="-2.67291">
        <ele>-7.8</ele>
        <time>2021-05-29 14:56:14</time>
      </trkpt>
      <trkpt lat="43.31072" lon="-2.67294">
        <ele>-7.8</ele>
        <time>2021-05-29 14:56:15</time>
      </trkpt>
      <trkpt lat="43.31065" lon="-2.67298">
        <ele>-7.8</ele>
        <time>2021-05-29 14:56:16</time>
      </trkpt>
      <trkpt lat="43.31057" lon="-2.67301">
        <ele>-7.6</ele>
        <time>2021-05-29 14:56:17</time>
      </trkpt>
      <trkpt lat="43.3105" lon="-2.67305">
        <ele>-7.6</ele>
        <time>2021-05-29 14:56:18</time>
      </trkpt>
      <trkpt lat="43.31042" lon="-2.67308">
        <ele>-7.6</ele>
        <time>2021-05-29 14:56:19</time>
      </trkpt>
      <trkpt lat="43.31035" lon="-2.67311">
        <ele>-7.6</ele>
        <time>2021-05-29 14:56:20</time>
      </trkpt>
      <trkpt lat="43.31027" lon="-2.67314">
        <ele>-7.6</ele>
        <time>2021-05-29 14:56:21</time>
      </trkpt>
      <trkpt lat="43.3102" lon="-2.67318">
        <ele>-7.6</ele>
        <time>2021-05-29 14:56:22</time>
      </trkpt>
      <trkpt lat="43.31012" lon="-2.67321">
        <ele>-7.4</ele>
        <time>2021-05-29 14:56:23</time>
      </trkpt>
      <trkpt lat="43.31005" lon="-2.67325">
        <ele>-7.4</ele>
        <time>2021-05-29 14:56:24</time>
      </trkpt>
      <trkpt lat="43.30997" lon="-2.67328">
        <ele>-7.4</ele>
        <time>2021-05-29 14:56:25</time>
      </trkpt>
      <trkpt lat="43.3099" lon="-2.67332">
        <ele>-7.2</ele>
        <time>2021-05-29 14:56:26</time>
      </trkpt>
      <trkpt lat="43.30982" lon="-2.67336">
        <ele>-7.2</ele>
        <time>2021-05-29 14:56:27</time>
      </trkpt>
      <trkpt lat="43.30975" lon="-2.67339">
        <ele>-7</ele>
        <time>2021-05-29 14:56:28</time>
      </trkpt>
      <trkpt lat="43.30967" lon="-2.67343">
        <ele>-7</ele>
        <time>2021-05-29 14:56:29</time>
      </trkpt>
      <trkpt lat="43.30959" lon="-2.67346">
        <ele>-7</ele>
        <time>2021-05-29 14:56:30</time>
      </trkpt>
      <trkpt lat="43.30951" lon="-2.6735">
        <ele>-7</ele>
        <time>2021-05-29 14:56:31</time>
      </trkpt>
      <trkpt lat="43.30944" lon="-2.67354">
        <ele>-6.8</ele>
        <time>2021-05-29 14:56:32</time>
      </trkpt>
      <trkpt lat="43.30936" lon="-2.67359">
        <ele>-6.8</ele>
        <time>2021-05-29 14:56:33</time>
      </trkpt>
      <trkpt lat="43.30927" lon="-2.67363">
        <ele>-6.8</ele>
        <time>2021-05-29 14:56:34</time>
      </trkpt>
      <trkpt lat="43.30919" lon="-2.67367">
        <ele>-6.8</ele>
        <time>2021-05-29 14:56:35</time>
      </trkpt>
      <trkpt lat="43.30911" lon="-2.67371">
        <ele>-6.6</ele>
        <time>2021-05-29 14:56:36</time>
      </trkpt>
      <trkpt lat="43.30904" lon="-2.67376">
        <ele>-6.6</ele>
        <time>2021-05-29 14:56:37</time>
      </trkpt>
      <trkpt lat="43.30896" lon="-2.6738">
        <ele>-6.6</ele>
        <time>2021-05-29 14:56:38</time>
      </trkpt>
      <trkpt lat="43.30888" lon="-2.67385">
        <ele>-6.6</ele>
        <time>2021-05-29 14:56:39</time>
      </trkpt>
      <trkpt lat="43.3088" lon="-2.67389">
        <ele>-6.6</ele>
        <time>2021-05-29 14:56:40</time>
      </trkpt>
      <trkpt lat="43.30872" lon="-2.67394">
        <ele>-6.6</ele>
        <time>2021-05-29 14:56:41</time>
      </trkpt>
      <trkpt lat="43.30864" lon="-2.67398">
        <ele>-6.6</ele>
        <time>2021-05-29 14:56:42</time>
      </trkpt>
      <trkpt lat="43.30856" lon="-2.67403">
        <ele>-6.4</ele>
        <time>2021-05-29 14:56:43</time>
      </trkpt>
      <trkpt lat="43.30848" lon="-2.67407">
        <ele>-6.4</ele>
        <time>2021-05-29 14:56:44</time>
      </trkpt>
      <trkpt lat="43.30841" lon="-2.67412">
        <ele>-6.4</ele>
        <time>2021-05-29 14:56:45</time>
      </trkpt>
      <trkpt lat="43.30833" lon="-2.67416">
        <ele>-6.4</ele>
        <time>2021-05-29 14:56:46</time>
      </trkpt>
      <trkpt lat="43.30825" lon="-2.67421">
        <ele>-6.4</ele>
        <time>2021-05-29 14:56:47</time>
      </trkpt>
      <trkpt lat="43.30818" lon="-2.67425">
        <ele>-6.2</ele>
        <time>2021-05-29 14:56:48</time>
      </trkpt>
      <trkpt lat="43.3081" lon="-2.6743">
        <ele>-6.2</ele>
        <time>2021-05-29 14:56:49</time>
      </trkpt>
      <trkpt lat="43.30803" lon="-2.67435">
        <ele>-6.2</ele>
        <time>2021-05-29 14:56:50</time>
      </trkpt>
      <trkpt lat="43.30795" lon="-2.6744">
        <ele>-6.2</ele>
        <time>2021-05-29 14:56:51</time>
      </trkpt>
      <trkpt lat="43.30788" lon="-2.67444">
        <ele>-6</ele>
        <time>2021-05-29 14:56:52</time>
      </trkpt>
      <trkpt lat="43.3078" lon="-2.67449">
        <ele>-6</ele>
        <time>2021-05-29 14:56:53</time>
      </trkpt>
      <trkpt lat="43.30773" lon="-2.67454">
        <ele>-6.2</ele>
        <time>2021-05-29 14:56:54</time>
      </trkpt>
      <trkpt lat="43.30765" lon="-2.67459">
        <ele>-6.2</ele>
        <time>2021-05-29 14:56:55</time>
      </trkpt>
      <trkpt lat="43.30758" lon="-2.67463">
        <ele>-6.2</ele>
        <time>2021-05-29 14:56:56</time>
      </trkpt>
      <trkpt lat="43.3075" lon="-2.67468">
        <ele>-6</ele>
        <time>2021-05-29 14:56:57</time>
      </trkpt>
      <trkpt lat="43.30743" lon="-2.67473">
        <ele>-6</ele>
        <time>2021-05-29 14:56:58</time>
      </trkpt>
      <trkpt lat="43.30736" lon="-2.67478">
        <ele>-6</ele>
        <time>2021-05-29 14:56:59</time>
      </trkpt>
      <trkpt lat="43.30728" lon="-2.67483">
        <ele>-6</ele>
        <time>2021-05-29 14:57:00</time>
      </trkpt>
      <trkpt lat="43.30721" lon="-2.67488">
        <ele>-5.8</ele>
        <time>2021-05-29 14:57:01</time>
      </trkpt>
      <trkpt lat="43.30713" lon="-2.67493">
        <ele>-5.8</ele>
        <time>2021-05-29 14:57:02</time>
      </trkpt>
      <trkpt lat="43.30706" lon="-2.67498">
        <ele>-5.8</ele>
        <time>2021-05-29 14:57:03</time>
      </trkpt>
      <trkpt lat="43.30699" lon="-2.67503">
        <ele>-5.8</ele>
        <time>2021-05-29 14:57:04</time>
      </trkpt>
      <trkpt lat="43.30692" lon="-2.67507">
        <ele>-5.8</ele>
        <time>2021-05-29 14:57:05</time>
      </trkpt>
      <trkpt lat="43.30684" lon="-2.67512">
        <ele>-5.8</ele>
        <time>2021-05-29 14:57:06</time>
      </trkpt>
      <trkpt lat="43.30677" lon="-2.67517">
        <ele>-5.8</ele>
        <time>2021-05-29 14:57:07</time>
      </trkpt>
      <trkpt lat="43.3067" lon="-2.67523">
        <ele>-5.8</ele>
        <time>2021-05-29 14:57:08</time>
      </trkpt>
      <trkpt lat="43.30662" lon="-2.67528">
        <ele>-5.6</ele>
        <time>2021-05-29 14:57:09</time>
      </trkpt>
      <trkpt lat="43.30655" lon="-2.67534">
        <ele>-5.6</ele>
        <time>2021-05-29 14:57:10</time>
      </trkpt>
      <trkpt lat="43.30648" lon="-2.67539">
        <ele>-5.4</ele>
        <time>2021-05-29 14:57:11</time>
      </trkpt>
      <trkpt lat="43.30641" lon="-2.67544">
        <ele>-5.2</ele>
        <time>2021-05-29 14:57:12</time>
      </trkpt>
      <trkpt lat="43.30634" lon="-2.6755">
        <ele>-5.2</ele>
        <time>2021-05-29 14:57:13</time>
      </trkpt>
      <trkpt lat="43.30626" lon="-2.67555">
        <ele>-5.2</ele>
        <time>2021-05-29 14:57:14</time>
      </trkpt>
      <trkpt lat="43.30619" lon="-2.67561">
        <ele>-5.2</ele>
        <time>2021-05-29 14:57:15</time>
      </trkpt>
      <trkpt lat="43.30612" lon="-2.67567">
        <ele>-5</ele>
        <time>2021-05-29 14:57:16</time>
      </trkpt>
      <trkpt lat="43.30605" lon="-2.67573">
        <ele>-5</ele>
        <time>2021-05-29 14:57:17</time>
      </trkpt>
      <trkpt lat="43.30598" lon="-2.67579">
        <ele>-5</ele>
        <time>2021-05-29 14:57:18</time>
      </trkpt>
      <trkpt lat="43.30592" lon="-2.67584">
        <ele>-5</ele>
        <time>2021-05-29 14:57:19</time>
      </trkpt>
      <trkpt lat="43.30585" lon="-2.6759">
        <ele>-5</ele>
        <time>2021-05-29 14:57:20</time>
      </trkpt>
      <trkpt lat="43.30578" lon="-2.67596">
        <ele>-5</ele>
        <time>2021-05-29 14:57:21</time>
      </trkpt>
      <trkpt lat="43.30571" lon="-2.67602">
        <ele>-5</ele>
        <time>2021-05-29 14:57:22</time>
      </trkpt>
      <trkpt lat="43.30565" lon="-2.67608">
        <ele>-4.8</ele>
        <time>2021-05-29 14:57:23</time>
      </trkpt>
      <trkpt lat="43.30558" lon="-2.67614">
        <ele>-4.8</ele>
        <time>2021-05-29 14:57:24</time>
      </trkpt>
      <trkpt lat="43.30551" lon="-2.6762">
        <ele>-4.8</ele>
        <time>2021-05-29 14:57:25</time>
      </trkpt>
      <trkpt lat="43.30544" lon="-2.67626">
        <ele>-4.8</ele>
        <time>2021-05-29 14:57:26</time>
      </trkpt>
      <trkpt lat="43.30538" lon="-2.67631">
        <ele>-4.6</ele>
        <time>2021-05-29 14:57:27</time>
      </trkpt>
      <trkpt lat="43.30531" lon="-2.67637">
        <ele>-4.6</ele>
        <time>2021-05-29 14:57:28</time>
      </trkpt>
      <trkpt lat="43.30525" lon="-2.67643">
        <ele>-4.6</ele>
        <time>2021-05-29 14:57:29</time>
      </trkpt>
      <trkpt lat="43.30518" lon="-2.67649">
        <ele>-4.6</ele>
        <time>2021-05-29 14:57:30</time>
      </trkpt>
      <trkpt lat="43.30512" lon="-2.67656">
        <ele>-4.6</ele>
        <time>2021-05-29 14:57:31</time>
      </trkpt>
      <trkpt lat="43.30505" lon="-2.67662">
        <ele>-4.6</ele>
        <time>2021-05-29 14:57:32</time>
      </trkpt>
      <trkpt lat="43.30499" lon="-2.67668">
        <ele>-4.6</ele>
        <time>2021-05-29 14:57:33</time>
      </trkpt>
      <trkpt lat="43.30493" lon="-2.67674">
        <ele>-4.4</ele>
        <time>2021-05-29 14:57:34</time>
      </trkpt>
      <trkpt lat="43.30487" lon="-2.6768">
        <ele>-4.4</ele>
        <time>2021-05-29 14:57:35</time>
      </trkpt>
      <trkpt lat="43.30481" lon="-2.67686">
        <ele>-4.4</ele>
        <time>2021-05-29 14:57:36</time>
      </trkpt>
      <trkpt lat="43.30475" lon="-2.67692">
        <ele>-4.4</ele>
        <time>2021-05-29 14:57:37</time>
      </trkpt>
      <trkpt lat="43.30469" lon="-2.67698">
        <ele>-4.2</ele>
        <time>2021-05-29 14:57:38</time>
      </trkpt>
      <trkpt lat="43.30463" lon="-2.67705">
        <ele>-4.2</ele>
        <time>2021-05-29 14:57:39</time>
      </trkpt>
      <trkpt lat="43.30457" lon="-2.67711">
        <ele>-4.2</ele>
        <time>2021-05-29 14:57:40</time>
      </trkpt>
      <trkpt lat="43.30451" lon="-2.67718">
        <ele>-4.2</ele>
        <time>2021-05-29 14:57:41</time>
      </trkpt>
      <trkpt lat="43.30445" lon="-2.67724">
        <ele>-4</ele>
        <time>2021-05-29 14:57:42</time>
      </trkpt>
      <trkpt lat="43.30439" lon="-2.67731">
        <ele>-4</ele>
        <time>2021-05-29 14:57:43</time>
      </trkpt>
      <trkpt lat="43.30434" lon="-2.67738">
        <ele>-3.8</ele>
        <time>2021-05-29 14:57:44</time>
      </trkpt>
      <trkpt lat="43.30428" lon="-2.67745">
        <ele>-3.8</ele>
        <time>2021-05-29 14:57:45</time>
      </trkpt>
      <trkpt lat="43.30422" lon="-2.67752">
        <ele>-3.8</ele>
        <time>2021-05-29 14:57:46</time>
      </trkpt>
      <trkpt lat="43.30417" lon="-2.67759">
        <ele>-3.8</ele>
        <time>2021-05-29 14:57:47</time>
      </trkpt>
      <trkpt lat="43.30412" lon="-2.67766">
        <ele>-3.6</ele>
        <time>2021-05-29 14:57:48</time>
      </trkpt>
      <trkpt lat="43.30406" lon="-2.67774">
        <ele>-3.6</ele>
        <time>2021-05-29 14:57:49</time>
      </trkpt>
      <trkpt lat="43.30401" lon="-2.67781">
        <ele>-3.6</ele>
        <time>2021-05-29 14:57:50</time>
      </trkpt>
      <trkpt lat="43.30396" lon="-2.67788">
        <ele>-3.4</ele>
        <time>2021-05-29 14:57:51</time>
      </trkpt>
      <trkpt lat="43.30391" lon="-2.67795">
        <ele>-3.4</ele>
        <time>2021-05-29 14:57:52</time>
      </trkpt>
      <trkpt lat="43.30386" lon="-2.67802">
        <ele>-3.2</ele>
        <time>2021-05-29 14:57:53</time>
      </trkpt>
      <trkpt lat="43.30381" lon="-2.6781">
        <ele>-3</ele>
        <time>2021-05-29 14:57:54</time>
      </trkpt>
      <trkpt lat="43.30376" lon="-2.67817">
        <ele>-3</ele>
        <time>2021-05-29 14:57:55</time>
      </trkpt>
      <trkpt lat="43.30371" lon="-2.67825">
        <ele>-3</ele>
        <time>2021-05-29 14:57:56</time>
      </trkpt>
      <trkpt lat="43.30367" lon="-2.67833">
        <ele>-2.8</ele>
        <time>2021-05-29 14:57:57</time>
      </trkpt>
      <trkpt lat="43.30362" lon="-2.67841">
        <ele>-2.8</ele>
        <time>2021-05-29 14:57:58</time>
      </trkpt>
      <trkpt lat="43.30358" lon="-2.67849">
        <ele>-2.6</ele>
        <time>2021-05-29 14:57:59</time>
      </trkpt>
      <trkpt lat="43.30353" lon="-2.67857">
        <ele>-2.6</ele>
        <time>2021-05-29 14:58:00</time>
      </trkpt>
      <trkpt lat="43.30349" lon="-2.67866">
        <ele>-2.4</ele>
        <time>2021-05-29 14:58:01</time>
      </trkpt>
      <trkpt lat="43.30344" lon="-2.67874">
        <ele>-2.4</ele>
        <time>2021-05-29 14:58:02</time>
      </trkpt>
      <trkpt lat="43.3034" lon="-2.67883">
        <ele>-2.4</ele>
        <time>2021-05-29 14:58:03</time>
      </trkpt>
      <trkpt lat="43.30336" lon="-2.67891">
        <ele>-2.2</ele>
        <time>2021-05-29 14:58:04</time>
      </trkpt>
      <trkpt lat="43.30332" lon="-2.679">
        <ele>-2.2</ele>
        <time>2021-05-29 14:58:05</time>
      </trkpt>
      <trkpt lat="43.30327" lon="-2.67909">
        <ele>-2.2</ele>
        <time>2021-05-29 14:58:06</time>
      </trkpt>
      <trkpt lat="43.30323" lon="-2.67917">
        <ele>-2</ele>
        <time>2021-05-29 14:58:07</time>
      </trkpt>
      <trkpt lat="43.30319" lon="-2.67926">
        <ele>-2</ele>
        <time>2021-05-29 14:58:08</time>
      </trkpt>
      <trkpt lat="43.30316" lon="-2.67935">
        <ele>-2</ele>
        <time>2021-05-29 14:58:09</time>
      </trkpt>
      <trkpt lat="43.30312" lon="-2.67944">
        <ele>-1.8</ele>
        <time>2021-05-29 14:58:10</time>
      </trkpt>
      <trkpt lat="43.30308" lon="-2.67953">
        <ele>-1.8</ele>
        <time>2021-05-29 14:58:11</time>
      </trkpt>
      <trkpt lat="43.30304" lon="-2.67962">
        <ele>-1.6</ele>
        <time>2021-05-29 14:58:12</time>
      </trkpt>
      <trkpt lat="43.30301" lon="-2.67971">
        <ele>-1.4</ele>
        <time>2021-05-29 14:58:13</time>
      </trkpt>
      <trkpt lat="43.30298" lon="-2.6798">
        <ele>-1.4</ele>
        <time>2021-05-29 14:58:14</time>
      </trkpt>
      <trkpt lat="43.30294" lon="-2.67989">
        <ele>-1.4</ele>
        <time>2021-05-29 14:58:15</time>
      </trkpt>
      <trkpt lat="43.30291" lon="-2.67998">
        <ele>-1.2</ele>
        <time>2021-05-29 14:58:16</time>
      </trkpt>
      <trkpt lat="43.30288" lon="-2.68007">
        <ele>-1.2</ele>
        <time>2021-05-29 14:58:17</time>
      </trkpt>
      <trkpt lat="43.30285" lon="-2.68016">
        <ele>-1.2</ele>
        <time>2021-05-29 14:58:18</time>
      </trkpt>
      <trkpt lat="43.30282" lon="-2.68025">
        <ele>-1.2</ele>
        <time>2021-05-29 14:58:19</time>
      </trkpt>
      <trkpt lat="43.30279" lon="-2.68034">
        <ele>-1.2</ele>
        <time>2021-05-29 14:58:20</time>
      </trkpt>
      <trkpt lat="43.30276" lon="-2.68043">
        <ele>-1</ele>
        <time>2021-05-29 14:58:21</time>
      </trkpt>
      <trkpt lat="43.30273" lon="-2.68053">
        <ele>-0.8</ele>
        <time>2021-05-29 14:58:22</time>
      </trkpt>
      <trkpt lat="43.30271" lon="-2.68062">
        <ele>-0.6</ele>
        <time>2021-05-29 14:58:23</time>
      </trkpt>
      <trkpt lat="43.30268" lon="-2.68071">
        <ele>-0.6</ele>
        <time>2021-05-29 14:58:24</time>
      </trkpt>
      <trkpt lat="43.30266" lon="-2.68081">
        <ele>-0.6</ele>
        <time>2021-05-29 14:58:25</time>
      </trkpt>
      <trkpt lat="43.30263" lon="-2.68091">
        <ele>-0.6</ele>
        <time>2021-05-29 14:58:26</time>
      </trkpt>
      <trkpt lat="43.30261" lon="-2.681">
        <ele>-0.4</ele>
        <time>2021-05-29 14:58:27</time>
      </trkpt>
      <trkpt lat="43.30258" lon="-2.68109">
        <ele>-0.4</ele>
        <time>2021-05-29 14:58:28</time>
      </trkpt>
      <trkpt lat="43.30256" lon="-2.68119">
        <ele>-0.4</ele>
        <time>2021-05-29 14:58:29</time>
      </trkpt>
      <trkpt lat="43.30253" lon="-2.68128">
        <ele>-0.4</ele>
        <time>2021-05-29 14:58:30</time>
      </trkpt>
      <trkpt lat="43.30251" lon="-2.68138">
        <ele>-0.2</ele>
        <time>2021-05-29 14:58:31</time>
      </trkpt>
      <trkpt lat="43.30248" lon="-2.68148">
        <ele>-0.2</ele>
        <time>2021-05-29 14:58:32</time>
      </trkpt>
      <trkpt lat="43.30246" lon="-2.68157">
        <ele>-0.2</ele>
        <time>2021-05-29 14:58:33</time>
      </trkpt>
      <trkpt lat="43.30244" lon="-2.68167">
        <time>2021-05-29 14:58:34</time>
      </trkpt>
      <trkpt lat="43.30241" lon="-2.68176">
        <ele>0.2</ele>
        <time>2021-05-29 14:58:35</time>
      </trkpt>
      <trkpt lat="43.30239" lon="-2.68186">
        <ele>0.2</ele>
        <time>2021-05-29 14:58:36</time>
      </trkpt>
      <trkpt lat="43.30237" lon="-2.68196">
        <ele>0.4</ele>
        <time>2021-05-29 14:58:37</time>
      </trkpt>
      <trkpt lat="43.30234" lon="-2.68205">
        <ele>0.4</ele>
        <time>2021-05-29 14:58:38</time>
      </trkpt>
      <trkpt lat="43.30232" lon="-2.68215">
        <ele>0.4</ele>
        <time>2021-05-29 14:58:39</time>
      </trkpt>
      <trkpt lat="43.3023" lon="-2.68225">
        <ele>0.6</ele>
        <time>2021-05-29 14:58:40</time>
      </trkpt>
      <trkpt lat="43.30227" lon="-2.68235">
        <ele>0.8</ele>
        <time>2021-05-29 14:58:41</time>
      </trkpt>
      <trkpt lat="43.30224" lon="-2.68244">
        <ele>0.8</ele>
        <time>2021-05-29 14:58:42</time>
      </trkpt>
      <trkpt lat="43.30222" lon="-2.68254">
        <ele>0.8</ele>
        <time>2021-05-29 14:58:43</time>
      </trkpt>
      <trkpt lat="43.30219" lon="-2.68264">
        <ele>1</ele>
        <time>2021-05-29 14:58:44</time>
      </trkpt>
      <trkpt lat="43.30216" lon="-2.68274">
        <ele>1</ele>
        <time>2021-05-29 14:58:45</time>
      </trkpt>
      <trkpt lat="43.30213" lon="-2.68283">
        <ele>1.2</ele>
        <time>2021-05-29 14:58:46</time>
      </trkpt>
      <trkpt lat="43.3021" lon="-2.68292">
        <ele>1.2</ele>
        <time>2021-05-29 14:58:47</time>
      </trkpt>
      <trkpt lat="43.30206" lon="-2.68302">
        <ele>1.4</ele>
        <time>2021-05-29 14:58:48</time>
      </trkpt>
      <trkpt lat="43.30203" lon="-2.68311">
        <ele>1.4</ele>
        <time>2021-05-29 14:58:49</time>
      </trkpt>
      <trkpt lat="43.30199" lon="-2.6832">
        <ele>1.6</ele>
        <time>2021-05-29 14:58:50</time>
      </trkpt>
      <trkpt lat="43.30196" lon="-2.68329">
        <ele>1.6</ele>
        <time>2021-05-29 14:58:51</time>
      </trkpt>
      <trkpt lat="43.30192" lon="-2.68338">
        <ele>1.8</ele>
        <time>2021-05-29 14:58:52</time>
      </trkpt>
      <trkpt lat="43.30188" lon="-2.68347">
        <ele>2</ele>
        <time>2021-05-29 14:58:53</time>
      </trkpt>
      <trkpt lat="43.30184" lon="-2.68355">
        <ele>2</ele>
        <time>2021-05-29 14:58:54</time>
      </trkpt>
      <trkpt lat="43.3018" lon="-2.68364">
        <ele>2.2</ele>
        <time>2021-05-29 14:58:55</time>
      </trkpt>
      <trkpt lat="43.30176" lon="-2.68372">
        <ele>2.4</ele>
        <time>2021-05-29 14:58:56</time>
      </trkpt>
      <trkpt lat="43.30172" lon="-2.68381">
        <ele>2.4</ele>
        <time>2021-05-29 14:58:57</time>
      </trkpt>
      <trkpt lat="43.30168" lon="-2.68389">
        <ele>2.6</ele>
        <time>2021-05-29 14:58:58</time>
      </trkpt>
      <trkpt lat="43.30164" lon="-2.68397">
        <ele>2.6</ele>
        <time>2021-05-29 14:58:59</time>
      </trkpt>
      <trkpt lat="43.30159" lon="-2.68405">
        <ele>2.6</ele>
        <time>2021-05-29 14:59:00</time>
      </trkpt>
      <trkpt lat="43.30155" lon="-2.68413">
        <ele>2.6</ele>
        <time>2021-05-29 14:59:01</time>
      </trkpt>
      <trkpt lat="43.3015" lon="-2.68421">
        <ele>2.8</ele>
        <time>2021-05-29 14:59:02</time>
      </trkpt>
      <trkpt lat="43.30145" lon="-2.68429">
        <ele>2.8</ele>
        <time>2021-05-29 14:59:03</time>
      </trkpt>
      <trkpt lat="43.3014" lon="-2.68437">
        <ele>2.8</ele>
        <time>2021-05-29 14:59:04</time>
      </trkpt>
      <trkpt lat="43.30135" lon="-2.68445">
        <ele>2.8</ele>
        <time>2021-05-29 14:59:05</time>
      </trkpt>
      <trkpt lat="43.3013" lon="-2.68452">
        <ele>2.8</ele>
        <time>2021-05-29 14:59:06</time>
      </trkpt>
      <trkpt lat="43.30124" lon="-2.6846">
        <ele>2.8</ele>
        <time>2021-05-29 14:59:07</time>
      </trkpt>
      <trkpt lat="43.30119" lon="-2.68467">
        <ele>3</ele>
        <time>2021-05-29 14:59:08</time>
      </trkpt>
      <trkpt lat="43.30114" lon="-2.68475">
        <ele>3</ele>
        <time>2021-05-29 14:59:09</time>
      </trkpt>
      <trkpt lat="43.30108" lon="-2.68482">
        <ele>3</ele>
        <time>2021-05-29 14:59:10</time>
      </trkpt>
      <trkpt lat="43.30102" lon="-2.6849">
        <ele>3.2</ele>
        <time>2021-05-29 14:59:11</time>
      </trkpt>
      <trkpt lat="43.30096" lon="-2.68497">
        <ele>3.2</ele>
        <time>2021-05-29 14:59:12</time>
      </trkpt>
      <trkpt lat="43.3009" lon="-2.68504">
        <ele>3.2</ele>
        <time>2021-05-29 14:59:13</time>
      </trkpt>
      <trkpt lat="43.30084" lon="-2.68511">
        <ele>3.2</ele>
        <time>2021-05-29 14:59:14</time>
      </trkpt>
      <trkpt lat="43.30078" lon="-2.68517">
        <ele>3.2</ele>
        <time>2021-05-29 14:59:15</time>
      </trkpt>
      <trkpt lat="43.30071" lon="-2.68524">
        <ele>3.2</ele>
        <time>2021-05-29 14:59:16</time>
      </trkpt>
      <trkpt lat="43.30064" lon="-2.6853">
        <ele>3.2</ele>
        <time>2021-05-29 14:59:17</time>
      </trkpt>
      <trkpt lat="43.30057" lon="-2.68536">
        <ele>3</ele>
        <time>2021-05-29 14:59:18</time>
      </trkpt>
      <trkpt lat="43.3005" lon="-2.68541">
        <ele>3</ele>
        <time>2021-05-29 14:59:19</time>
      </trkpt>
      <trkpt lat="43.30043" lon="-2.68547">
        <ele>3</ele>
        <time>2021-05-29 14:59:20</time>
      </trkpt>
      <trkpt lat="43.30035" lon="-2.68552">
        <ele>3</ele>
        <time>2021-05-29 14:59:21</time>
      </trkpt>
      <trkpt lat="43.30027" lon="-2.68557">
        <ele>3</ele>
        <time>2021-05-29 14:59:22</time>
      </trkpt>
      <trkpt lat="43.30019" lon="-2.68562">
        <ele>3</ele>
        <time>2021-05-29 14:59:23</time>
      </trkpt>
      <trkpt lat="43.30011" lon="-2.68566">
        <ele>3</ele>
        <time>2021-05-29 14:59:24</time>
      </trkpt>
      <trkpt lat="43.30002" lon="-2.68571">
        <ele>2.8</ele>
        <time>2021-05-29 14:59:25</time>
      </trkpt>
      <trkpt lat="43.29994" lon="-2.68574">
        <ele>2.6</ele>
        <time>2021-05-29 14:59:26</time>
      </trkpt>
      <trkpt lat="43.29985" lon="-2.68578">
        <ele>2.6</ele>
        <time>2021-05-29 14:59:27</time>
      </trkpt>
      <trkpt lat="43.29976" lon="-2.68581">
        <ele>2.4</ele>
        <time>2021-05-29 14:59:28</time>
      </trkpt>
      <trkpt lat="43.29967" lon="-2.68584">
        <ele>2</ele>
        <time>2021-05-29 14:59:29</time>
      </trkpt>
      <trkpt lat="43.29958" lon="-2.68587">
        <ele>1.8</ele>
        <time>2021-05-29 14:59:30</time>
      </trkpt>
      <trkpt lat="43.29948" lon="-2.68589">
        <ele>1.6</ele>
        <time>2021-05-29 14:59:31</time>
      </trkpt>
      <trkpt lat="43.29939" lon="-2.68591">
        <ele>1.2</ele>
        <time>2021-05-29 14:59:32</time>
      </trkpt>
      <trkpt lat="43.29929" lon="-2.68594">
        <ele>1</ele>
        <time>2021-05-29 14:59:33</time>
      </trkpt>
      <trkpt lat="43.29919" lon="-2.68596">
        <ele>0.8</ele>
        <time>2021-05-29 14:59:34</time>
      </trkpt>
      <trkpt lat="43.2991" lon="-2.68598">
        <ele>0.6</ele>
        <time>2021-05-29 14:59:35</time>
      </trkpt>
      <trkpt lat="43.299" lon="-2.686">
        <ele>0.4</ele>
        <time>2021-05-29 14:59:36</time>
      </trkpt>
      <trkpt lat="43.2989" lon="-2.68603">
        <ele>0.2</ele>
        <time>2021-05-29 14:59:37</time>
      </trkpt>
      <trkpt lat="43.2988" lon="-2.68605">
        <time>2021-05-29 14:59:38</time>
      </trkpt>
      <trkpt lat="43.2987" lon="-2.68607">
        <ele>-0.4</ele>
        <time>2021-05-29 14:59:39</time>
      </trkpt>
      <trkpt lat="43.2986" lon="-2.6861">
        <ele>-0.6</ele>
        <time>2021-05-29 14:59:40</time>
      </trkpt>
      <trkpt lat="43.29851" lon="-2.68613">
        <ele>-0.8</ele>
        <time>2021-05-29 14:59:41</time>
      </trkpt>
      <trkpt lat="43.29841" lon="-2.68616">
        <ele>-1</ele>
        <time>2021-05-29 14:59:42</time>
      </trkpt>
      <trkpt lat="43.29831" lon="-2.68618">
        <ele>-1.4</ele>
        <time>2021-05-29 14:59:43</time>
      </trkpt>
      <trkpt lat="43.29822" lon="-2.6862">
        <ele>-1.8</ele>
        <time>2021-05-29 14:59:44</time>
      </trkpt>
      <trkpt lat="43.29812" lon="-2.68623">
        <ele>-2.2</ele>
        <time>2021-05-29 14:59:45</time>
      </trkpt>
      <trkpt lat="43.29803" lon="-2.68625">
        <ele>-2.8</ele>
        <time>2021-05-29 14:59:46</time>
      </trkpt>
      <trkpt lat="43.29794" lon="-2.68627">
        <ele>-3</ele>
        <time>2021-05-29 14:59:47</time>
      </trkpt>
      <trkpt lat="43.29784" lon="-2.68629">
        <ele>-3.2</ele>
        <time>2021-05-29 14:59:48</time>
      </trkpt>
      <trkpt lat="43.29775" lon="-2.68631">
        <ele>-3.2</ele>
        <time>2021-05-29 14:59:49</time>
      </trkpt>
      <trkpt lat="43.29766" lon="-2.68633">
        <ele>-3.4</ele>
        <time>2021-05-29 14:59:50</time>
      </trkpt>
      <trkpt lat="43.29757" lon="-2.68635">
        <ele>-3.4</ele>
        <time>2021-05-29 14:59:51</time>
      </trkpt>
      <trkpt lat="43.29748" lon="-2.68637">
        <ele>-3.4</ele>
        <time>2021-05-29 14:59:52</time>
      </trkpt>
      <trkpt lat="43.29739" lon="-2.68638">
        <ele>-3.6</ele>
        <time>2021-05-29 14:59:53</time>
      </trkpt>
      <trkpt lat="43.2973" lon="-2.68641">
        <ele>-3.6</ele>
        <time>2021-05-29 14:59:54</time>
      </trkpt>
      <trkpt lat="43.29722" lon="-2.68643">
        <ele>-3.6</ele>
        <time>2021-05-29 14:59:55</time>
      </trkpt>
      <trkpt lat="43.29714" lon="-2.68645">
        <ele>-3.6</ele>
        <time>2021-05-29 14:59:56</time>
      </trkpt>
      <trkpt lat="43.29706" lon="-2.68648">
        <ele>-3.6</ele>
        <time>2021-05-29 14:59:57</time>
      </trkpt>
      <trkpt lat="43.29698" lon="-2.6865">
        <ele>-3.6</ele>
        <time>2021-05-29 14:59:58</time>
      </trkpt>
      <trkpt lat="43.2969" lon="-2.68653">
        <ele>-3.6</ele>
        <time>2021-05-29 14:59:59</time>
      </trkpt>
      <trkpt lat="43.29682" lon="-2.68655">
        <ele>-3.6</ele>
        <time>2021-05-29 15:00:00</time>
      </trkpt>
      <trkpt lat="43.29673" lon="-2.68657">
        <ele>-3.6</ele>
        <time>2021-05-29 15:00:01</time>
      </trkpt>
      <trkpt lat="43.29665" lon="-2.68659">
        <ele>-3.6</ele>
        <time>2021-05-29 15:00:02</time>
      </trkpt>
      <trkpt lat="43.29657" lon="-2.68661">
        <ele>-3.6</ele>
        <time>2021-05-29 15:00:03</time>
      </trkpt>
      <trkpt lat="43.29649" lon="-2.68663">
        <ele>-3.6</ele>
        <time>2021-05-29 15:00:04</time>
      </trkpt>
      <trkpt lat="43.29642" lon="-2.68665">
        <ele>-3.6</ele>
        <time>2021-05-29 15:00:05</time>
      </trkpt>
      <trkpt lat="43.29634" lon="-2.68666">
        <ele>-3.6</ele>
        <time>2021-05-29 15:00:06</time>
      </trkpt>
      <trkpt lat="43.29626" lon="-2.68668">
        <ele>-3.6</ele>
        <time>2021-05-29 15:00:07</time>
      </trkpt>
      <trkpt lat="43.29618" lon="-2.6867">
        <ele>-3.6</ele>
        <time>2021-05-29 15:00:08</time>
      </trkpt>
      <trkpt lat="43.2961" lon="-2.68671">
        <ele>-3.4</ele>
        <time>2021-05-29 15:00:09</time>
      </trkpt>
      <trkpt lat="43.29603" lon="-2.68672">
        <ele>-3.4</ele>
        <time>2021-05-29 15:00:10</time>
      </trkpt>
      <trkpt lat="43.29595" lon="-2.68674">
        <ele>-3.4</ele>
        <time>2021-05-29 15:00:11</time>
      </trkpt>
      <trkpt lat="43.29587" lon="-2.68675">
        <ele>-3.4</ele>
        <time>2021-05-29 15:00:12</time>
      </trkpt>
      <trkpt lat="43.2958" lon="-2.68677">
        <ele>-3.4</ele>
        <time>2021-05-29 15:00:13</time>
      </trkpt>
      <trkpt lat="43.29572" lon="-2.68679">
        <ele>-3.4</ele>
        <time>2021-05-29 15:00:14</time>
      </trkpt>
      <trkpt lat="43.29564" lon="-2.6868">
        <ele>-3.4</ele>
        <time>2021-05-29 15:00:15</time>
      </trkpt>
      <trkpt lat="43.29556" lon="-2.68682">
        <ele>-3.2</ele>
        <time>2021-05-29 15:00:16</time>
      </trkpt>
      <trkpt lat="43.29548" lon="-2.68683">
        <ele>-3.2</ele>
        <time>2021-05-29 15:00:17</time>
      </trkpt>
      <trkpt lat="43.2954" lon="-2.68685">
        <ele>-3.2</ele>
        <time>2021-05-29 15:00:18</time>
      </trkpt>
      <trkpt lat="43.29532" lon="-2.68687">
        <ele>-3</ele>
        <time>2021-05-29 15:00:19</time>
      </trkpt>
      <trkpt lat="43.29524" lon="-2.68688">
        <ele>-3</ele>
        <time>2021-05-29 15:00:20</time>
      </trkpt>
      <trkpt lat="43.29517" lon="-2.6869">
        <ele>-3</ele>
        <time>2021-05-29 15:00:21</time>
      </trkpt>
      <trkpt lat="43.29509" lon="-2.68691">
        <ele>-3</ele>
        <time>2021-05-29 15:00:22</time>
      </trkpt>
      <trkpt lat="43.295" lon="-2.68692">
        <ele>-3</ele>
        <time>2021-05-29 15:00:23</time>
      </trkpt>
      <trkpt lat="43.29492" lon="-2.68694">
        <ele>-3</ele>
        <time>2021-05-29 15:00:24</time>
      </trkpt>
      <trkpt lat="43.29484" lon="-2.68695">
        <ele>-3</ele>
        <time>2021-05-29 15:00:25</time>
      </trkpt>
      <trkpt lat="43.29476" lon="-2.68697">
        <ele>-2.8</ele>
        <time>2021-05-29 15:00:26</time>
      </trkpt>
      <trkpt lat="43.29469" lon="-2.68698">
        <ele>-2.8</ele>
        <time>2021-05-29 15:00:27</time>
      </trkpt>
      <trkpt lat="43.29461" lon="-2.68699">
        <ele>-2.6</ele>
        <time>2021-05-29 15:00:28</time>
      </trkpt>
      <trkpt lat="43.29453" lon="-2.68701">
        <ele>-2.6</ele>
        <time>2021-05-29 15:00:29</time>
      </trkpt>
      <trkpt lat="43.29445" lon="-2.68703">
        <ele>-2.4</ele>
        <time>2021-05-29 15:00:30</time>
      </trkpt>
      <trkpt lat="43.29438" lon="-2.68704">
        <ele>-2.4</ele>
        <time>2021-05-29 15:00:31</time>
      </trkpt>
      <trkpt lat="43.2943" lon="-2.68706">
        <ele>-2.4</ele>
        <time>2021-05-29 15:00:32</time>
      </trkpt>
      <trkpt lat="43.29423" lon="-2.68707">
        <ele>-2.4</ele>
        <time>2021-05-29 15:00:33</time>
      </trkpt>
      <trkpt lat="43.29415" lon="-2.68709">
        <ele>-2.2</ele>
        <time>2021-05-29 15:00:34</time>
      </trkpt>
      <trkpt lat="43.29408" lon="-2.68711">
        <ele>-2.2</ele>
        <time>2021-05-29 15:00:35</time>
      </trkpt>
      <trkpt lat="43.29401" lon="-2.68712">
        <ele>-2</ele>
        <time>2021-05-29 15:00:36</time>
      </trkpt>
      <trkpt lat="43.29393" lon="-2.68714">
        <ele>-2</ele>
        <time>2021-05-29 15:00:37</time>
      </trkpt>
      <trkpt lat="43.29385" lon="-2.68716">
        <ele>-1.8</ele>
        <time>2021-05-29 15:00:38</time>
      </trkpt>
      <trkpt lat="43.29378" lon="-2.68717">
        <ele>-1.8</ele>
        <time>2021-05-29 15:00:39</time>
      </trkpt>
      <trkpt lat="43.2937" lon="-2.68719">
        <ele>-1.8</ele>
        <time>2021-05-29 15:00:40</time>
      </trkpt>
      <trkpt lat="43.29362" lon="-2.68721">
        <ele>-1.8</ele>
        <time>2021-05-29 15:00:41</time>
      </trkpt>
      <trkpt lat="43.29355" lon="-2.68723">
        <ele>-1.6</ele>
        <time>2021-05-29 15:00:42</time>
      </trkpt>
      <trkpt lat="43.29347" lon="-2.68725">
        <ele>-1.6</ele>
        <time>2021-05-29 15:00:43</time>
      </trkpt>
      <trkpt lat="43.2934" lon="-2.68726">
        <ele>-1.6</ele>
        <time>2021-05-29 15:00:44</time>
      </trkpt>
      <trkpt lat="43.29332" lon="-2.68728">
        <ele>-1.4</ele>
        <time>2021-05-29 15:00:45</time>
      </trkpt>
      <trkpt lat="43.29325" lon="-2.68729">
        <ele>-1.4</ele>
        <time>2021-05-29 15:00:46</time>
      </trkpt>
      <trkpt lat="43.29317" lon="-2.68731">
        <ele>-1.2</ele>
        <time>2021-05-29 15:00:47</time>
      </trkpt>
      <trkpt lat="43.29309" lon="-2.68733">
        <ele>-1.2</ele>
        <time>2021-05-29 15:00:48</time>
      </trkpt>
      <trkpt lat="43.29302" lon="-2.68735">
        <ele>-1.2</ele>
        <time>2021-05-29 15:00:49</time>
      </trkpt>
      <trkpt lat="43.29294" lon="-2.68737">
        <ele>-1</ele>
        <time>2021-05-29 15:00:50</time>
      </trkpt>
      <trkpt lat="43.29286" lon="-2.68738">
        <ele>-1</ele>
        <time>2021-05-29 15:00:51</time>
      </trkpt>
      <trkpt lat="43.29278" lon="-2.6874">
        <ele>-0.8</ele>
        <time>2021-05-29 15:00:52</time>
      </trkpt>
      <trkpt lat="43.2927" lon="-2.68742">
        <ele>-0.8</ele>
        <time>2021-05-29 15:00:53</time>
      </trkpt>
      <trkpt lat="43.29263" lon="-2.68744">
        <ele>-0.6</ele>
        <time>2021-05-29 15:00:54</time>
      </trkpt>
      <trkpt lat="43.29255" lon="-2.68746">
        <ele>-0.6</ele>
        <time>2021-05-29 15:00:55</time>
      </trkpt>
      <trkpt lat="43.29247" lon="-2.68749">
        <ele>-0.6</ele>
        <time>2021-05-29 15:00:56</time>
      </trkpt>
      <trkpt lat="43.29239" lon="-2.68751">
        <ele>-0.6</ele>
        <time>2021-05-29 15:00:57</time>
      </trkpt>
      <trkpt lat="43.29231" lon="-2.68754">
        <ele>-0.6</ele>
        <time>2021-05-29 15:00:58</time>
      </trkpt>
      <trkpt lat="43.29224" lon="-2.68757">
        <ele>-0.6</ele>
        <time>2021-05-29 15:00:59</time>
      </trkpt>
      <trkpt lat="43.29216" lon="-2.68761">
        <ele>-0.6</ele>
        <time>2021-05-29 15:01:00</time>
      </trkpt>
      <trkpt lat="43.29209" lon="-2.68766">
        <ele>-0.6</ele>
        <time>2021-05-29 15:01:01</time>
      </trkpt>
      <trkpt lat="43.29201" lon="-2.68771">
        <ele>-0.6</ele>
        <time>2021-05-29 15:01:02</time>
      </trkpt>
      <trkpt lat="43.29194" lon="-2.68777">
        <ele>-0.6</ele>
        <time>2021-05-29 15:01:03</time>
      </trkpt>
      <trkpt lat="43.29187" lon="-2.68783">
        <ele>-0.6</ele>
        <time>2021-05-29 15:01:04</time>
      </trkpt>
      <trkpt lat="43.2918" lon="-2.68788">
        <ele>-0.6</ele>
        <time>2021-05-29 15:01:05</time>
      </trkpt>
      <trkpt lat="43.29172" lon="-2.68793">
        <ele>-0.6</ele>
        <time>2021-05-29 15:01:06</time>
      </trkpt>
      <trkpt lat="43.29165" lon="-2.68799">
        <ele>-0.6</ele>
        <time>2021-05-29 15:01:07</time>
      </trkpt>
      <trkpt lat="43.29158" lon="-2.68805">
        <ele>-0.6</ele>
        <time>2021-05-29 15:01:08</time>
      </trkpt>
      <trkpt lat="43.2915" lon="-2.6881">
        <ele>-0.8</ele>
        <time>2021-05-29 15:01:09</time>
      </trkpt>
      <trkpt lat="43.29143" lon="-2.68816">
        <ele>-0.8</ele>
        <time>2021-05-29 15:01:10</time>
      </trkpt>
      <trkpt lat="43.29136" lon="-2.68822">
        <ele>-0.8</ele>
        <time>2021-05-29 15:01:11</time>
      </trkpt>
      <trkpt lat="43.29129" lon="-2.68827">
        <ele>-0.8</ele>
        <time>2021-05-29 15:01:12</time>
      </trkpt>
      <trkpt lat="43.29122" lon="-2.68833">
        <ele>-0.8</ele>
        <time>2021-05-29 15:01:13</time>
      </trkpt>
      <trkpt lat="43.29115" lon="-2.68838">
        <ele>-1</ele>
        <time>2021-05-29 15:01:14</time>
      </trkpt>
      <trkpt lat="43.29108" lon="-2.68843">
        <ele>-1</ele>
        <time>2021-05-29 15:01:15</time>
      </trkpt>
      <trkpt lat="43.29101" lon="-2.68849">
        <ele>-1.2</ele>
        <time>2021-05-29 15:01:16</time>
      </trkpt>
      <trkpt lat="43.29095" lon="-2.68855">
        <ele>-1.2</ele>
        <time>2021-05-29 15:01:17</time>
      </trkpt>
      <trkpt lat="43.29088" lon="-2.6886">
        <ele>-1.4</ele>
        <time>2021-05-29 15:01:18</time>
      </trkpt>
      <trkpt lat="43.29082" lon="-2.68865">
        <ele>-1.4</ele>
        <time>2021-05-29 15:01:19</time>
      </trkpt>
      <trkpt lat="43.29075" lon="-2.6887">
        <ele>-1.4</ele>
        <time>2021-05-29 15:01:20</time>
      </trkpt>
      <trkpt lat="43.29069" lon="-2.68875">
        <ele>-1.4</ele>
        <time>2021-05-29 15:01:21</time>
      </trkpt>
      <trkpt lat="43.29062" lon="-2.68879">
        <ele>-1.4</ele>
        <time>2021-05-29 15:01:22</time>
      </trkpt>
      <trkpt lat="43.29055" lon="-2.68884">
        <ele>-1.4</ele>
        <time>2021-05-29 15:01:23</time>
      </trkpt>
      <trkpt lat="43.29048" lon="-2.68887">
        <ele>-1.4</ele>
        <time>2021-05-29 15:01:24</time>
      </trkpt>
      <trkpt lat="43.29042" lon="-2.68891">
        <ele>-1.4</ele>
        <time>2021-05-29 15:01:25</time>
      </trkpt>
      <trkpt lat="43.29035" lon="-2.68894">
        <ele>-1.4</ele>
        <time>2021-05-29 15:01:26</time>
      </trkpt>
      <trkpt lat="43.29027" lon="-2.68896">
        <ele>-1.4</ele>
        <time>2021-05-29 15:01:27</time>
      </trkpt>
      <trkpt lat="43.2902" lon="-2.68898">
        <ele>-1.4</ele>
        <time>2021-05-29 15:01:28</time>
      </trkpt>
      <trkpt lat="43.29013" lon="-2.689">
        <ele>-1.4</ele>
        <time>2021-05-29 15:01:29</time>
      </trkpt>
      <trkpt lat="43.29006" lon="-2.68901">
        <ele>-1.4</ele>
        <time>2021-05-29 15:01:30</time>
      </trkpt>
      <trkpt lat="43.28998" lon="-2.68902">
        <ele>-1.4</ele>
        <time>2021-05-29 15:01:31</time>
      </trkpt>
      <trkpt lat="43.28991" lon="-2.68903">
        <ele>-1.4</ele>
        <time>2021-05-29 15:01:32</time>
      </trkpt>
      <trkpt lat="43.28984" lon="-2.68904">
        <ele>-1.4</ele>
        <time>2021-05-29 15:01:33</time>
      </trkpt>
      <trkpt lat="43.28977" lon="-2.68905">
        <ele>-1.4</ele>
        <time>2021-05-29 15:01:34</time>
      </trkpt>
      <trkpt lat="43.2897" lon="-2.68907">
        <ele>-1.4</ele>
        <time>2021-05-29 15:01:35</time>
      </trkpt>
      <trkpt lat="43.28963" lon="-2.68908">
        <ele>-1.4</ele>
        <time>2021-05-29 15:01:36</time>
      </trkpt>
      <trkpt lat="43.28956" lon="-2.68909">
        <ele>-1.4</ele>
        <time>2021-05-29 15:01:37</time>
      </trkpt>
      <trkpt lat="43.28949" lon="-2.6891">
        <ele>-1.4</ele>
        <time>2021-05-29 15:01:38</time>
      </trkpt>
      <trkpt lat="43.28943" lon="-2.68911">
        <ele>-1.4</ele>
        <time>2021-05-29 15:01:39</time>
      </trkpt>
      <trkpt lat="43.28937" lon="-2.68912">
        <ele>-1.4</ele>
        <time>2021-05-29 15:01:40</time>
      </trkpt>
      <trkpt lat="43.28931" lon="-2.68913">
        <ele>-1.4</ele>
        <time>2021-05-29 15:01:41</time>
      </trkpt>
      <trkpt lat="43.28925" lon="-2.68914">
        <ele>-1.4</ele>
        <time>2021-05-29 15:01:42</time>
      </trkpt>
      <trkpt lat="43.2892" lon="-2.68915">
        <ele>-1.4</ele>
        <time>2021-05-29 15:01:43</time>
      </trkpt>
      <trkpt lat="43.28915" lon="-2.68918">
        <ele>-1.2</ele>
        <time>2021-05-29 15:01:44</time>
      </trkpt>
      <trkpt lat="43.28912" lon="-2.68923">
        <ele>-1.2</ele>
        <time>2021-05-29 15:01:45</time>
      </trkpt>
      <trkpt lat="43.2891" lon="-2.68929">
        <ele>-1.2</ele>
        <time>2021-05-29 15:01:46</time>
      </trkpt>
      <trkpt lat="43.28909" lon="-2.68935">
        <ele>-1.2</ele>
        <time>2021-05-29 15:01:47</time>
      </trkpt>
      <trkpt lat="43.2891" lon="-2.6894">
        <ele>-1.2</ele>
        <time>2021-05-29 15:01:48</time>
      </trkpt>
      <trkpt lat="43.2891" lon="-2.68946">
        <ele>-1.2</ele>
        <time>2021-05-29 15:01:49</time>
      </trkpt>
      <trkpt lat="43.28909" lon="-2.6895">
        <ele>-1.2</ele>
        <time>2021-05-29 15:01:50</time>
      </trkpt>
      <trkpt lat="43.28908" lon="-2.68953">
        <ele>-1.2</ele>
        <time>2021-05-29 15:01:51</time>
      </trkpt>
      <trkpt lat="43.28907" lon="-2.68955">
        <ele>-1.2</ele>
        <time>2021-05-29 15:01:52</time>
      </trkpt>
      <trkpt lat="43.28905" lon="-2.68957">
        <ele>-1.2</ele>
        <time>2021-05-29 15:01:53</time>
      </trkpt>
      <trkpt lat="43.28904" lon="-2.68958">
        <ele>-1.4</ele>
        <time>2021-05-29 15:01:54</time>
      </trkpt>
      <trkpt lat="43.28902" lon="-2.68959">
        <ele>-1.4</ele>
        <time>2021-05-29 15:01:55</time>
      </trkpt>
      <trkpt lat="43.28901" lon="-2.6896">
        <ele>-1.2</ele>
        <time>2021-05-29 15:01:56</time>
      </trkpt>
      <trkpt lat="43.28899" lon="-2.6896">
        <ele>-1.2</ele>
        <time>2021-05-29 15:01:57</time>
      </trkpt>
      <trkpt lat="43.28898" lon="-2.6896">
        <ele>-1.2</ele>
        <time>2021-05-29 15:01:58</time>
      </trkpt>
      <trkpt lat="43.28897" lon="-2.68959">
        <ele>-1.4</ele>
        <time>2021-05-29 15:01:59</time>
      </trkpt>
      <trkpt lat="43.28896" lon="-2.68958">
        <ele>-1.2</ele>
        <time>2021-05-29 15:02:00</time>
      </trkpt>
      <trkpt lat="43.28896" lon="-2.68957">
        <ele>-1.2</ele>
        <time>2021-05-29 15:02:01</time>
      </trkpt>
      <trkpt lat="43.28896" lon="-2.68956">
        <ele>-1.2</ele>
        <time>2021-05-29 15:02:02</time>
      </trkpt>
      <trkpt lat="43.28897" lon="-2.68955">
        <ele>-1.2</ele>
        <time>2021-05-29 15:02:03</time>
      </trkpt>
      <trkpt lat="43.28887" lon="-2.68921">
        <ele>-1.2</ele>
        <time>2021-05-29 15:02:04</time>
      </trkpt>
      <trkpt lat="43.28876" lon="-2.68938">
        <ele>-1</ele>
        <time>2021-05-29 15:02:05</time>
      </trkpt>
      <trkpt lat="43.28886" lon="-2.68933">
        <ele>0.2</ele>
        <time>2021-05-29 15:02:06</time>
      </trkpt>
      <trkpt lat="43.28885" lon="-2.68934">
        <time>2021-05-29 15:02:07</time>
      </trkpt>
      <trkpt lat="43.28884" lon="-2.68937">
        <time>2021-05-29 15:02:08</time>
      </trkpt>
      <trkpt lat="43.2888" lon="-2.68932">
        <ele>-0.2</ele>
        <time>2021-05-29 15:02:09</time>
      </trkpt>
      <trkpt lat="43.28883" lon="-2.68931">
        <ele>-0.2</ele>
        <time>2021-05-29 15:02:10</time>
      </trkpt>
      <trkpt lat="43.28892" lon="-2.68957">
        <time>2021-05-29 15:02:11</time>
      </trkpt>
      <trkpt lat="43.289" lon="-2.68973">
        <ele>0.2</ele>
        <time>2021-05-29 15:02:12</time>
      </trkpt>
      <trkpt lat="43.28877" lon="-2.68954">
        <time>2021-05-29 15:02:13</time>
      </trkpt>
      <trkpt lat="43.28876" lon="-2.68934">
        <ele>0.6</ele>
        <time>2021-05-29 15:02:14</time>
      </trkpt>
      <trkpt lat="43.28927" lon="-2.68901">
        <ele>0.6</ele>
        <time>2021-05-29 15:02:15</time>
      </trkpt>
      <trkpt lat="43.28918" lon="-2.68905">
        <ele>0.4</ele>
        <time>2021-05-29 15:02:16</time>
      </trkpt>
      <trkpt lat="43.28921" lon="-2.68903">
        <ele>0.6</ele>
        <time>2021-05-29 15:02:17</time>
      </trkpt>
      <trkpt lat="43.28914" lon="-2.68907">
        <ele>0.6</ele>
        <time>2021-05-29 15:02:18</time>
      </trkpt>
      <trkpt lat="43.28903" lon="-2.68914">
        <ele>0.6</ele>
        <time>2021-05-29 15:02:19</time>
      </trkpt>
      <trkpt lat="43.28894" lon="-2.68918">
        <ele>0.8</ele>
        <time>2021-05-29 15:02:20</time>
      </trkpt>
    </trkseg>
  </trk>
</gpx>
